<?xml version="1.0" encoding="UTF-8"?>
<TrainingCenterDatabase xmlns="http://www.garmin.com/xmlschemas/TrainingCenterDatabase/v2" xmlns:xsi="http://www.w3.org/2001/XMLSchema-instance" xsi:schemaLocation="http://www.garmin.com/xmlschemas/TrainingCenterDatabase/v2 http://www.garmin.com/xmlschemas/TrainingCenterDatabasev2.xsd">
  <Activities>
    <Activity Sport="Other">
      <Id>2022-07-09T07:17:14.000Z</Id>
      <Lap StartTime="2022-07-09T07:17:14.000Z">
        <TotalTimeSeconds>52442</TotalTimeSeconds>
        <DistanceMeters>38710</DistanceMeters>
        <Track>
          <Trackpoint>
            <Time>2022-07-09T07:17:14.000Z</Time>
            <Position>
              <LatitudeDegrees>42.851758114993572235107421875</LatitudeDegrees>
              <LongitudeDegrees>-0.136393010616302490234375</LongitudeDegrees>
            </Position>
            <AltitudeMeters>1475.199951171875</AltitudeMeters>
            <DistanceMeters>0</DistanceMeters>
          </Trackpoint>
          <Trackpoint>
            <Time>2022-07-09T07:17:15.000Z</Time>
            <Position>
              <LatitudeDegrees>42.851764820516109466552734375</LatitudeDegrees>
              <LongitudeDegrees>-0.1364039070904254913330078125</LongitudeDegrees>
            </Position>
            <AltitudeMeters>1475.199951171875</AltitudeMeters>
            <DistanceMeters>1.1638348106983</DistanceMeters>
          </Trackpoint>
          <Trackpoint>
            <Time>2022-07-09T07:17:16.000Z</Time>
            <Position>
              <LatitudeDegrees>42.85177026875317096710205078125</LatitudeDegrees>
              <LongitudeDegrees>-0.1364143006503582000732421875</LongitudeDegrees>
            </Position>
            <AltitudeMeters>1475.199951171875</AltitudeMeters>
            <DistanceMeters>2.2134391771919</DistanceMeters>
          </Trackpoint>
          <Trackpoint>
            <Time>2022-07-09T07:17:19.000Z</Time>
            <Position>
              <LatitudeDegrees>42.85177798010408878326416015625</LatitudeDegrees>
              <LongitudeDegrees>-0.13643567450344562530517578125</LongitudeDegrees>
            </Position>
            <AltitudeMeters>1475.5999755859375</AltitudeMeters>
            <DistanceMeters>4.1562649423013</DistanceMeters>
          </Trackpoint>
          <Trackpoint>
            <Time>2022-07-09T07:17:25.000Z</Time>
            <Position>
              <LatitudeDegrees>42.8517664968967437744140625</LatitudeDegrees>
              <LongitudeDegrees>-0.13650189153850078582763671875</LongitudeDegrees>
            </Position>
            <AltitudeMeters>1476</AltitudeMeters>
            <DistanceMeters>9.70862308814</DistanceMeters>
          </Trackpoint>
          <Trackpoint>
            <Time>2022-07-09T07:17:30.000Z</Time>
            <Position>
              <LatitudeDegrees>42.851708829402923583984375</LatitudeDegrees>
              <LongitudeDegrees>-0.136551596224308013916015625</LongitudeDegrees>
            </Position>
            <AltitudeMeters>1476.4000244140625</AltitudeMeters>
            <DistanceMeters>17.300656935652</DistanceMeters>
          </Trackpoint>
          <Trackpoint>
            <Time>2022-07-09T07:17:35.000Z</Time>
            <Position>
              <LatitudeDegrees>42.851684354245662689208984375</LatitudeDegrees>
              <LongitudeDegrees>-0.13661622069776058197021484375</LongitudeDegrees>
            </Position>
            <AltitudeMeters>1476.800048828125</AltitudeMeters>
            <DistanceMeters>23.235834119854</DistanceMeters>
          </Trackpoint>
          <Trackpoint>
            <Time>2022-07-09T07:17:39.000Z</Time>
            <Position>
              <LatitudeDegrees>42.8516694344580173492431640625</LatitudeDegrees>
              <LongitudeDegrees>-0.13666014187037944793701171875</LongitudeDegrees>
            </Position>
            <AltitudeMeters>1477.4000244140625</AltitudeMeters>
            <DistanceMeters>27.184877297474</DistanceMeters>
          </Trackpoint>
          <Trackpoint>
            <Time>2022-07-09T07:17:45.000Z</Time>
            <Position>
              <LatitudeDegrees>42.85165317356586456298828125</LatitudeDegrees>
              <LongitudeDegrees>-0.13671730645000934600830078125</LongitudeDegrees>
            </Position>
            <AltitudeMeters>1478.199951171875</AltitudeMeters>
            <DistanceMeters>32.188013504159</DistanceMeters>
          </Trackpoint>
          <Trackpoint>
            <Time>2022-07-09T07:17:46.000Z</Time>
            <Position>
              <LatitudeDegrees>42.8516486473381519317626953125</LatitudeDegrees>
              <LongitudeDegrees>-0.13672719709575176239013671875</LongitudeDegrees>
            </Position>
            <AltitudeMeters>1478.199951171875</AltitudeMeters>
            <DistanceMeters>33.138280647859</DistanceMeters>
          </Trackpoint>
          <Trackpoint>
            <Time>2022-07-09T07:17:49.000Z</Time>
            <Position>
              <LatitudeDegrees>42.85164219327270984649658203125</LatitudeDegrees>
              <LongitudeDegrees>-0.13675846159458160400390625</LongitudeDegrees>
            </Position>
            <AltitudeMeters>1478.4000244140625</AltitudeMeters>
            <DistanceMeters>35.788827661854</DistanceMeters>
          </Trackpoint>
          <Trackpoint>
            <Time>2022-07-09T07:17:55.000Z</Time>
            <Position>
              <LatitudeDegrees>42.85163163207471370697021484375</LatitudeDegrees>
              <LongitudeDegrees>-0.1368397660553455352783203125</LongitudeDegrees>
            </Position>
            <AltitudeMeters>1478.800048828125</AltitudeMeters>
            <DistanceMeters>42.526349037238</DistanceMeters>
          </Trackpoint>
          <Trackpoint>
            <Time>2022-07-09T07:17:58.000Z</Time>
            <Position>
              <LatitudeDegrees>42.8516323864459991455078125</LatitudeDegrees>
              <LongitudeDegrees>-0.13685510493814945220947265625</LongitudeDegrees>
            </Position>
            <AltitudeMeters>1479</AltitudeMeters>
            <DistanceMeters>43.783434307891</DistanceMeters>
          </Trackpoint>
          <Trackpoint>
            <Time>2022-07-09T07:18:01.000Z</Time>
            <Position>
              <LatitudeDegrees>42.8516379185020923614501953125</LatitudeDegrees>
              <LongitudeDegrees>-0.13686935417354106903076171875</LongitudeDegrees>
            </Position>
            <AltitudeMeters>1479</AltitudeMeters>
            <DistanceMeters>45.100163086812</DistanceMeters>
          </Trackpoint>
          <Trackpoint>
            <Time>2022-07-09T07:18:06.000Z</Time>
            <Position>
              <LatitudeDegrees>42.85164604894816875457763671875</LatitudeDegrees>
              <LongitudeDegrees>-0.1369269378483295440673828125</LongitudeDegrees>
            </Position>
            <AltitudeMeters>1479</AltitudeMeters>
            <DistanceMeters>49.885586146675</DistanceMeters>
          </Trackpoint>
          <Trackpoint>
            <Time>2022-07-09T07:18:08.000Z</Time>
            <Position>
              <LatitudeDegrees>42.851641438901424407958984375</LatitudeDegrees>
              <LongitudeDegrees>-0.13694277964532375335693359375</LongitudeDegrees>
            </Position>
            <AltitudeMeters>1479</AltitudeMeters>
            <DistanceMeters>51.275707133858</DistanceMeters>
          </Trackpoint>
          <Trackpoint>
            <Time>2022-07-09T07:18:10.000Z</Time>
            <Position>
              <LatitudeDegrees>42.85163749940693378448486328125</LatitudeDegrees>
              <LongitudeDegrees>-0.13695552013814449310302734375</LongitudeDegrees>
            </Position>
            <AltitudeMeters>1479</AltitudeMeters>
            <DistanceMeters>52.408081124658</DistanceMeters>
          </Trackpoint>
          <Trackpoint>
            <Time>2022-07-09T07:18:11.000Z</Time>
            <Position>
              <LatitudeDegrees>42.8516372479498386383056640625</LatitudeDegrees>
              <LongitudeDegrees>-0.13696155510842800140380859375</LongitudeDegrees>
            </Position>
            <AltitudeMeters>1479</AltitudeMeters>
            <DistanceMeters>52.910915232919</DistanceMeters>
          </Trackpoint>
          <Trackpoint>
            <Time>2022-07-09T07:18:12.000Z</Time>
            <Position>
              <LatitudeDegrees>42.8516365773975849151611328125</LatitudeDegrees>
              <LongitudeDegrees>-0.1369698531925678253173828125</LongitudeDegrees>
            </Position>
            <AltitudeMeters>1479</AltitudeMeters>
            <DistanceMeters>53.596162615319</DistanceMeters>
          </Trackpoint>
          <Trackpoint>
            <Time>2022-07-09T07:18:18.000Z</Time>
            <Position>
              <LatitudeDegrees>42.85159911029040813446044921875</LatitudeDegrees>
              <LongitudeDegrees>-0.1369986869394779205322265625</LongitudeDegrees>
            </Position>
            <AltitudeMeters>1479.199951171875</AltitudeMeters>
            <DistanceMeters>58.385358181137</DistanceMeters>
          </Trackpoint>
          <Trackpoint>
            <Time>2022-07-09T07:18:21.000Z</Time>
            <Position>
              <LatitudeDegrees>42.8515782393515110015869140625</LatitudeDegrees>
              <LongitudeDegrees>-0.1370030455291271209716796875</LongitudeDegrees>
            </Position>
            <AltitudeMeters>1479.199951171875</AltitudeMeters>
            <DistanceMeters>60.736189264754</DistanceMeters>
          </Trackpoint>
          <Trackpoint>
            <Time>2022-07-09T07:18:27.000Z</Time>
            <Position>
              <LatitudeDegrees>42.85154026933014392852783203125</LatitudeDegrees>
              <LongitudeDegrees>-0.1370328851044178009033203125</LongitudeDegrees>
            </Position>
            <AltitudeMeters>1479.4000244140625</AltitudeMeters>
            <DistanceMeters>65.613198733001</DistanceMeters>
          </Trackpoint>
          <Trackpoint>
            <Time>2022-07-09T07:18:29.000Z</Time>
            <Position>
              <LatitudeDegrees>42.85152518190443515777587890625</LatitudeDegrees>
              <LongitudeDegrees>-0.1370466314256191253662109375</LongitudeDegrees>
            </Position>
            <AltitudeMeters>1479.5999755859375</AltitudeMeters>
            <DistanceMeters>67.633494392717</DistanceMeters>
          </Trackpoint>
          <Trackpoint>
            <Time>2022-07-09T07:18:30.000Z</Time>
            <Position>
              <LatitudeDegrees>42.85151562653481960296630859375</LatitudeDegrees>
              <LongitudeDegrees>-0.13705727644264698028564453125</LongitudeDegrees>
            </Position>
            <AltitudeMeters>1479.5999755859375</AltitudeMeters>
            <DistanceMeters>69.003989157517</DistanceMeters>
          </Trackpoint>
          <Trackpoint>
            <Time>2022-07-09T07:18:33.000Z</Time>
            <Position>
              <LatitudeDegrees>42.85150003619492053985595703125</LatitudeDegrees>
              <LongitudeDegrees>-0.13708493672311305999755859375</LongitudeDegrees>
            </Position>
            <AltitudeMeters>1479.800048828125</AltitudeMeters>
            <DistanceMeters>71.851621269758</DistanceMeters>
          </Trackpoint>
          <Trackpoint>
            <Time>2022-07-09T07:18:39.000Z</Time>
            <Position>
              <LatitudeDegrees>42.85149760544300079345703125</LatitudeDegrees>
              <LongitudeDegrees>-0.13711846433579921722412109375</LongitudeDegrees>
            </Position>
            <AltitudeMeters>1479.800048828125</AltitudeMeters>
            <DistanceMeters>74.60247642044</DistanceMeters>
          </Trackpoint>
          <Trackpoint>
            <Time>2022-07-09T07:18:41.000Z</Time>
            <Position>
              <LatitudeDegrees>42.851501964032649993896484375</LatitudeDegrees>
              <LongitudeDegrees>-0.13712449930608272552490234375</LongitudeDegrees>
            </Position>
            <AltitudeMeters>1479.5999755859375</AltitudeMeters>
            <DistanceMeters>75.300777306859</DistanceMeters>
          </Trackpoint>
          <Trackpoint>
            <Time>2022-07-09T07:18:45.000Z</Time>
            <Position>
              <LatitudeDegrees>42.85152602009475231170654296875</LatitudeDegrees>
              <LongitudeDegrees>-0.13713204301893711090087890625</LongitudeDegrees>
            </Position>
            <AltitudeMeters>1479.5999755859375</AltitudeMeters>
            <DistanceMeters>78.048347853205</DistanceMeters>
          </Trackpoint>
          <Trackpoint>
            <Time>2022-07-09T07:18:51.000Z</Time>
            <Position>
              <LatitudeDegrees>42.851528115570545196533203125</LatitudeDegrees>
              <LongitudeDegrees>-0.137141011655330657958984375</LongitudeDegrees>
            </Position>
            <AltitudeMeters>1479.5999755859375</AltitudeMeters>
            <DistanceMeters>78.820348530213</DistanceMeters>
          </Trackpoint>
          <Trackpoint>
            <Time>2022-07-09T07:18:55.000Z</Time>
            <Position>
              <LatitudeDegrees>42.8515044786036014556884765625</LatitudeDegrees>
              <LongitudeDegrees>-0.13712382875382900238037109375</LongitudeDegrees>
            </Position>
            <AltitudeMeters>1479.4000244140625</AltitudeMeters>
            <DistanceMeters>81.801220084113</DistanceMeters>
          </Trackpoint>
          <Trackpoint>
            <Time>2022-07-09T07:19:01.000Z</Time>
            <Position>
              <LatitudeDegrees>42.85147069953382015228271484375</LatitudeDegrees>
              <LongitudeDegrees>-0.13711947016417980194091796875</LongitudeDegrees>
            </Position>
            <AltitudeMeters>1479.4000244140625</AltitudeMeters>
            <DistanceMeters>85.577261755627</DistanceMeters>
          </Trackpoint>
          <Trackpoint>
            <Time>2022-07-09T07:19:07.000Z</Time>
            <Position>
              <LatitudeDegrees>42.85148142836987972259521484375</LatitudeDegrees>
              <LongitudeDegrees>-0.137128271162509918212890625</LongitudeDegrees>
            </Position>
            <AltitudeMeters>1479.199951171875</AltitudeMeters>
            <DistanceMeters>86.967382742809</DistanceMeters>
          </Trackpoint>
          <Trackpoint>
            <Time>2022-07-09T07:19:08.000Z</Time>
            <Position>
              <LatitudeDegrees>42.85148025490343570709228515625</LatitudeDegrees>
              <LongitudeDegrees>-0.1371287740767002105712890625</LongitudeDegrees>
            </Position>
            <AltitudeMeters>1479.199951171875</AltitudeMeters>
            <DistanceMeters>87.101770811059</DistanceMeters>
          </Trackpoint>
          <Trackpoint>
            <Time>2022-07-09T07:19:11.000Z</Time>
            <Position>
              <LatitudeDegrees>42.85147774033248424530029296875</LatitudeDegrees>
              <LongitudeDegrees>-0.13712600804865360260009765625</LongitudeDegrees>
            </Position>
            <AltitudeMeters>1479.199951171875</AltitudeMeters>
            <DistanceMeters>87.444394502259</DistanceMeters>
          </Trackpoint>
          <Trackpoint>
            <Time>2022-07-09T07:19:15.000Z</Time>
            <Position>
              <LatitudeDegrees>42.85148729570209980010986328125</LatitudeDegrees>
              <LongitudeDegrees>-0.1371411792933940887451171875</LongitudeDegrees>
            </Position>
            <AltitudeMeters>1479.199951171875</AltitudeMeters>
            <DistanceMeters>89.076531920177</DistanceMeters>
          </Trackpoint>
          <Trackpoint>
            <Time>2022-07-09T07:19:21.000Z</Time>
            <Position>
              <LatitudeDegrees>42.85150623880326747894287109375</LatitudeDegrees>
              <LongitudeDegrees>-0.13715006411075592041015625</LongitudeDegrees>
            </Position>
            <AltitudeMeters>1479.199951171875</AltitudeMeters>
            <DistanceMeters>91.309154189407</DistanceMeters>
          </Trackpoint>
          <Trackpoint>
            <Time>2022-07-09T07:19:22.000Z</Time>
            <Position>
              <LatitudeDegrees>42.85150355659425258636474609375</LatitudeDegrees>
              <LongitudeDegrees>-0.13714780099689960479736328125</LongitudeDegrees>
            </Position>
            <AltitudeMeters>1479.199951171875</AltitudeMeters>
            <DistanceMeters>91.66471159717</DistanceMeters>
          </Trackpoint>
          <Trackpoint>
            <Time>2022-07-09T07:19:23.000Z</Time>
            <Position>
              <LatitudeDegrees>42.8515011258423328399658203125</LatitudeDegrees>
              <LongitudeDegrees>-0.137144364416599273681640625</LongitudeDegrees>
            </Position>
            <AltitudeMeters>1479.199951171875</AltitudeMeters>
            <DistanceMeters>92.056516777773</DistanceMeters>
          </Trackpoint>
          <Trackpoint>
            <Time>2022-07-09T07:19:26.000Z</Time>
            <Position>
              <LatitudeDegrees>42.85149492323398590087890625</LatitudeDegrees>
              <LongitudeDegrees>-0.13713338412344455718994140625</LongitudeDegrees>
            </Position>
            <AltitudeMeters>1479</AltitudeMeters>
            <DistanceMeters>93.188890768574</DistanceMeters>
          </Trackpoint>
          <Trackpoint>
            <Time>2022-07-09T07:19:27.000Z</Time>
            <Position>
              <LatitudeDegrees>42.85149349831044673919677734375</LatitudeDegrees>
              <LongitudeDegrees>-0.1371314562857151031494140625</LongitudeDegrees>
            </Position>
            <AltitudeMeters>1479</AltitudeMeters>
            <DistanceMeters>93.421657730713</DistanceMeters>
          </Trackpoint>
          <Trackpoint>
            <Time>2022-07-09T07:19:28.000Z</Time>
            <Position>
              <LatitudeDegrees>42.85149031318724155426025390625</LatitudeDegrees>
              <LongitudeDegrees>-0.13713019900023937225341796875</LongitudeDegrees>
            </Position>
            <AltitudeMeters>1479</AltitudeMeters>
            <DistanceMeters>93.789694612913</DistanceMeters>
          </Trackpoint>
          <Trackpoint>
            <Time>2022-07-09T07:19:29.000Z</Time>
            <Position>
              <LatitudeDegrees>42.85149098373949527740478515625</LatitudeDegrees>
              <LongitudeDegrees>-0.1371291093528270721435546875</LongitudeDegrees>
            </Position>
            <AltitudeMeters>1479</AltitudeMeters>
            <DistanceMeters>93.924082681163</DistanceMeters>
          </Trackpoint>
          <Trackpoint>
            <Time>2022-07-09T07:19:30.000Z</Time>
            <Position>
              <LatitudeDegrees>42.851493246853351593017578125</LatitudeDegrees>
              <LongitudeDegrees>-0.1371264271438121795654296875</LongitudeDegrees>
            </Position>
            <AltitudeMeters>1479</AltitudeMeters>
            <DistanceMeters>94.253264875893</DistanceMeters>
          </Trackpoint>
          <Trackpoint>
            <Time>2022-07-09T07:19:31.000Z</Time>
            <Position>
              <LatitudeDegrees>42.8514940850436687469482421875</LatitudeDegrees>
              <LongitudeDegrees>-0.13712131418287754058837890625</LongitudeDegrees>
            </Position>
            <AltitudeMeters>1479</AltitudeMeters>
            <DistanceMeters>94.678237261912</DistanceMeters>
          </Trackpoint>
          <Trackpoint>
            <Time>2022-07-09T07:19:34.000Z</Time>
            <Position>
              <LatitudeDegrees>42.85149224102497100830078125</LatitudeDegrees>
              <LongitudeDegrees>-0.137114860117435455322265625</LongitudeDegrees>
            </Position>
            <AltitudeMeters>1479</AltitudeMeters>
            <DistanceMeters>95.248397548132</DistanceMeters>
          </Trackpoint>
          <Trackpoint>
            <Time>2022-07-09T07:19:37.000Z</Time>
            <Position>
              <LatitudeDegrees>42.8514940850436687469482421875</LatitudeDegrees>
              <LongitudeDegrees>-0.1371158659458160400390625</LongitudeDegrees>
            </Position>
            <AltitudeMeters>1479</AltitudeMeters>
            <DistanceMeters>95.481164510272</DistanceMeters>
          </Trackpoint>
          <Trackpoint>
            <Time>2022-07-09T07:19:38.000Z</Time>
            <Position>
              <LatitudeDegrees>42.85149894654750823974609375</LatitudeDegrees>
              <LongitudeDegrees>-0.13711921870708465576171875</LongitudeDegrees>
            </Position>
            <AltitudeMeters>1479</AltitudeMeters>
            <DistanceMeters>96.082166222215</DistanceMeters>
          </Trackpoint>
          <Trackpoint>
            <Time>2022-07-09T07:19:40.000Z</Time>
            <Position>
              <LatitudeDegrees>42.85151042975485324859619140625</LatitudeDegrees>
              <LongitudeDegrees>-0.137117542326450347900390625</LongitudeDegrees>
            </Position>
            <AltitudeMeters>1478.800048828125</AltitudeMeters>
            <DistanceMeters>97.364146687276</DistanceMeters>
          </Trackpoint>
          <Trackpoint>
            <Time>2022-07-09T07:19:42.000Z</Time>
            <Position>
              <LatitudeDegrees>42.8515074960887432098388671875</LatitudeDegrees>
              <LongitudeDegrees>-0.13710706494748592376708984375</LongitudeDegrees>
            </Position>
            <AltitudeMeters>1478.800048828125</AltitudeMeters>
            <DistanceMeters>98.280551133625</DistanceMeters>
          </Trackpoint>
          <Trackpoint>
            <Time>2022-07-09T07:19:48.000Z</Time>
            <Position>
              <LatitudeDegrees>42.851485200226306915283203125</LatitudeDegrees>
              <LongitudeDegrees>-0.13714109547436237335205078125</LongitudeDegrees>
            </Position>
            <AltitudeMeters>1478.800048828125</AltitudeMeters>
            <DistanceMeters>102.00482252786</DistanceMeters>
          </Trackpoint>
          <Trackpoint>
            <Time>2022-07-09T07:19:54.000Z</Time>
            <Position>
              <LatitudeDegrees>42.85148176364600658416748046875</LatitudeDegrees>
              <LongitudeDegrees>-0.137152411043643951416015625</LongitudeDegrees>
            </Position>
            <AltitudeMeters>1478.800048828125</AltitudeMeters>
            <DistanceMeters>103.01049074438</DistanceMeters>
          </Trackpoint>
          <Trackpoint>
            <Time>2022-07-09T07:20:00.000Z</Time>
            <Position>
              <LatitudeDegrees>42.851479835808277130126953125</LatitudeDegrees>
              <LongitudeDegrees>-0.1371452026069164276123046875</LongitudeDegrees>
            </Position>
            <AltitudeMeters>1478.5999755859375</AltitudeMeters>
            <DistanceMeters>103.63362258203</DistanceMeters>
          </Trackpoint>
          <Trackpoint>
            <Time>2022-07-09T07:20:06.000Z</Time>
            <Position>
              <LatitudeDegrees>42.8514692746102809906005859375</LatitudeDegrees>
              <LongitudeDegrees>-0.1371740363538265228271484375</LongitudeDegrees>
            </Position>
            <AltitudeMeters>1478.5999755859375</AltitudeMeters>
            <DistanceMeters>106.26364892336</DistanceMeters>
          </Trackpoint>
          <Trackpoint>
            <Time>2022-07-09T07:20:10.000Z</Time>
            <Position>
              <LatitudeDegrees>42.8514914028346538543701171875</LatitudeDegrees>
              <LongitudeDegrees>-0.13717277906835079193115234375</LongitudeDegrees>
            </Position>
            <AltitudeMeters>1478.800048828125</AltitudeMeters>
            <DistanceMeters>108.73068591603</DistanceMeters>
          </Trackpoint>
          <Trackpoint>
            <Time>2022-07-09T07:20:16.000Z</Time>
            <Position>
              <LatitudeDegrees>42.85150221548974514007568359375</LatitudeDegrees>
              <LongitudeDegrees>-0.1371614634990692138671875</LongitudeDegrees>
            </Position>
            <AltitudeMeters>1478.800048828125</AltitudeMeters>
            <DistanceMeters>110.24814085546</DistanceMeters>
          </Trackpoint>
          <Trackpoint>
            <Time>2022-07-09T07:20:20.000Z</Time>
            <Position>
              <LatitudeDegrees>42.8514773212373256683349609375</LatitudeDegrees>
              <LongitudeDegrees>-0.13718283735215663909912109375</LongitudeDegrees>
            </Position>
            <AltitudeMeters>1478.800048828125</AltitudeMeters>
            <DistanceMeters>113.5220835457</DistanceMeters>
          </Trackpoint>
          <Trackpoint>
            <Time>2022-07-09T07:20:21.000Z</Time>
            <Position>
              <LatitudeDegrees>42.85146986134350299835205078125</LatitudeDegrees>
              <LongitudeDegrees>-0.1371897943317890167236328125</LongitudeDegrees>
            </Position>
            <AltitudeMeters>1478.800048828125</AltitudeMeters>
            <DistanceMeters>114.51873213414</DistanceMeters>
          </Trackpoint>
          <Trackpoint>
            <Time>2022-07-09T07:20:22.000Z</Time>
            <Position>
              <LatitudeDegrees>42.8514635749161243438720703125</LatitudeDegrees>
              <LongitudeDegrees>-0.1371991820633411407470703125</LongitudeDegrees>
            </Position>
            <AltitudeMeters>1478.800048828125</AltitudeMeters>
            <DistanceMeters>115.55098647314</DistanceMeters>
          </Trackpoint>
          <Trackpoint>
            <Time>2022-07-09T07:20:25.000Z</Time>
            <Position>
              <LatitudeDegrees>42.85145469009876251220703125</LatitudeDegrees>
              <LongitudeDegrees>-0.1372177898883819580078125</LongitudeDegrees>
            </Position>
            <AltitudeMeters>1479</AltitudeMeters>
            <DistanceMeters>117.35899301979</DistanceMeters>
          </Trackpoint>
          <Trackpoint>
            <Time>2022-07-09T07:20:31.000Z</Time>
            <Position>
              <LatitudeDegrees>42.85145871341228485107421875</LatitudeDegrees>
              <LongitudeDegrees>-0.137288533151149749755859375</LongitudeDegrees>
            </Position>
            <AltitudeMeters>1480</AltitudeMeters>
            <DistanceMeters>123.14782828118</DistanceMeters>
          </Trackpoint>
          <Trackpoint>
            <Time>2022-07-09T07:20:33.000Z</Time>
            <Position>
              <LatitudeDegrees>42.85145795904099941253662109375</LatitudeDegrees>
              <LongitudeDegrees>-0.1373121701180934906005859375</LongitudeDegrees>
            </Position>
            <AltitudeMeters>1480</AltitudeMeters>
            <DistanceMeters>125.08133588339</DistanceMeters>
          </Trackpoint>
          <Trackpoint>
            <Time>2022-07-09T07:20:36.000Z</Time>
            <Position>
              <LatitudeDegrees>42.85144270397722721099853515625</LatitudeDegrees>
              <LongitudeDegrees>-0.13734058476984500885009765625</LongitudeDegrees>
            </Position>
            <AltitudeMeters>1480</AltitudeMeters>
            <DistanceMeters>127.95736613751</DistanceMeters>
          </Trackpoint>
          <Trackpoint>
            <Time>2022-07-09T07:20:38.000Z</Time>
            <Position>
              <LatitudeDegrees>42.85142979584634304046630859375</LatitudeDegrees>
              <LongitudeDegrees>-0.137356929481029510498046875</LongitudeDegrees>
            </Position>
            <AltitudeMeters>1479.800048828125</AltitudeMeters>
            <DistanceMeters>129.91408594685</DistanceMeters>
          </Trackpoint>
          <Trackpoint>
            <Time>2022-07-09T07:20:40.000Z</Time>
            <Position>
              <LatitudeDegrees>42.8514183126389980316162109375</LatitudeDegrees>
              <LongitudeDegrees>-0.13737092725932598114013671875</LongitudeDegrees>
            </Position>
            <AltitudeMeters>1479.800048828125</AltitudeMeters>
            <DistanceMeters>131.62720440285</DistanceMeters>
          </Trackpoint>
          <Trackpoint>
            <Time>2022-07-09T07:20:43.000Z</Time>
            <Position>
              <LatitudeDegrees>42.85140548832714557647705078125</LatitudeDegrees>
              <LongitudeDegrees>-0.13739942573010921478271484375</LongitudeDegrees>
            </Position>
            <AltitudeMeters>1480</AltitudeMeters>
            <DistanceMeters>134.35498426746</DistanceMeters>
          </Trackpoint>
          <Trackpoint>
            <Time>2022-07-09T07:20:45.000Z</Time>
            <Position>
              <LatitudeDegrees>42.851391993463039398193359375</LatitudeDegrees>
              <LongitudeDegrees>-0.13740755617618560791015625</LongitudeDegrees>
            </Position>
            <AltitudeMeters>1480.199951171875</AltitudeMeters>
            <DistanceMeters>135.99539969665</DistanceMeters>
          </Trackpoint>
          <Trackpoint>
            <Time>2022-07-09T07:20:48.000Z</Time>
            <Position>
              <LatitudeDegrees>42.85137145780026912689208984375</LatitudeDegrees>
              <LongitudeDegrees>-0.13742767274379730224609375</LongitudeDegrees>
            </Position>
            <AltitudeMeters>1480.4000244140625</AltitudeMeters>
            <DistanceMeters>138.81114242598</DistanceMeters>
          </Trackpoint>
          <Trackpoint>
            <Time>2022-07-09T07:20:49.000Z</Time>
            <Position>
              <LatitudeDegrees>42.85136483609676361083984375</LatitudeDegrees>
              <LongitudeDegrees>-0.13743949122726917266845703125</LongitudeDegrees>
            </Position>
            <AltitudeMeters>1480.5999755859375</AltitudeMeters>
            <DistanceMeters>140.02807814195</DistanceMeters>
          </Trackpoint>
          <Trackpoint>
            <Time>2022-07-09T07:20:52.000Z</Time>
            <Position>
              <LatitudeDegrees>42.8513512574136257171630859375</LatitudeDegrees>
              <LongitudeDegrees>-0.1374704204499721527099609375</LongitudeDegrees>
            </Position>
            <AltitudeMeters>1480.800048828125</AltitudeMeters>
            <DistanceMeters>142.96776913879</DistanceMeters>
          </Trackpoint>
          <Trackpoint>
            <Time>2022-07-09T07:20:55.000Z</Time>
            <Position>
              <LatitudeDegrees>42.85134346224367618560791015625</LatitudeDegrees>
              <LongitudeDegrees>-0.13750704936683177947998046875</LongitudeDegrees>
            </Position>
            <AltitudeMeters>1480.800048828125</AltitudeMeters>
            <DistanceMeters>146.07907785827</DistanceMeters>
          </Trackpoint>
          <Trackpoint>
            <Time>2022-07-09T07:20:58.000Z</Time>
            <Position>
              <LatitudeDegrees>42.85134178586304187774658203125</LatitudeDegrees>
              <LongitudeDegrees>-0.1375584304332733154296875</LongitudeDegrees>
            </Position>
            <AltitudeMeters>1481</AltitudeMeters>
            <DistanceMeters>150.27641977216</DistanceMeters>
          </Trackpoint>
          <Trackpoint>
            <Time>2022-07-09T07:20:59.000Z</Time>
            <Position>
              <LatitudeDegrees>42.85134279169142246246337890625</LatitudeDegrees>
              <LongitudeDegrees>-0.13757661916315555572509765625</LongitudeDegrees>
            </Position>
            <AltitudeMeters>1481</AltitudeMeters>
            <DistanceMeters>151.76685554911</DistanceMeters>
          </Trackpoint>
          <Trackpoint>
            <Time>2022-07-09T07:21:04.000Z</Time>
            <Position>
              <LatitudeDegrees>42.8513153828680515289306640625</LatitudeDegrees>
              <LongitudeDegrees>-0.13765775598585605621337890625</LongitudeDegrees>
            </Position>
            <AltitudeMeters>1481.800048828125</AltitudeMeters>
            <DistanceMeters>159.05609212068</DistanceMeters>
          </Trackpoint>
          <Trackpoint>
            <Time>2022-07-09T07:21:06.000Z</Time>
            <Position>
              <LatitudeDegrees>42.8513123653829097747802734375</LatitudeDegrees>
              <LongitudeDegrees>-0.1377051137387752532958984375</LongitudeDegrees>
            </Position>
            <AltitudeMeters>1482</AltitudeMeters>
            <DistanceMeters>162.93709295919</DistanceMeters>
          </Trackpoint>
          <Trackpoint>
            <Time>2022-07-09T07:21:09.000Z</Time>
            <Position>
              <LatitudeDegrees>42.85130825825035572052001953125</LatitudeDegrees>
              <LongitudeDegrees>-0.13776890002191066741943359375</LongitudeDegrees>
            </Position>
            <AltitudeMeters>1482.199951171875</AltitudeMeters>
            <DistanceMeters>168.16269829891</DistanceMeters>
          </Trackpoint>
          <Trackpoint>
            <Time>2022-07-09T07:21:12.000Z</Time>
            <Position>
              <LatitudeDegrees>42.85130842588841915130615234375</LatitudeDegrees>
              <LongitudeDegrees>-0.13780376873910427093505859375</LongitudeDegrees>
            </Position>
            <AltitudeMeters>1482.4000244140625</AltitudeMeters>
            <DistanceMeters>171.00715756102</DistanceMeters>
          </Trackpoint>
          <Trackpoint>
            <Time>2022-07-09T07:21:14.000Z</Time>
            <Position>
              <LatitudeDegrees>42.8513063304126262664794921875</LatitudeDegrees>
              <LongitudeDegrees>-0.13782556168735027313232421875</LongitudeDegrees>
            </Position>
            <AltitudeMeters>1482.4000244140625</AltitudeMeters>
            <DistanceMeters>172.80011802183</DistanceMeters>
          </Trackpoint>
          <Trackpoint>
            <Time>2022-07-09T07:21:18.000Z</Time>
            <Position>
              <LatitudeDegrees>42.85128730349242687225341796875</LatitudeDegrees>
              <LongitudeDegrees>-0.13786579482257366180419921875</LongitudeDegrees>
            </Position>
            <AltitudeMeters>1482.800048828125</AltitudeMeters>
            <DistanceMeters>176.70778475106</DistanceMeters>
          </Trackpoint>
          <Trackpoint>
            <Time>2022-07-09T07:21:19.000Z</Time>
            <Position>
              <LatitudeDegrees>42.8512825258076190948486328125</LatitudeDegrees>
              <LongitudeDegrees>-0.13787694275379180908203125</LongitudeDegrees>
            </Position>
            <AltitudeMeters>1483</AltitudeMeters>
            <DistanceMeters>177.76168199586</DistanceMeters>
          </Trackpoint>
          <Trackpoint>
            <Time>2022-07-09T07:21:21.000Z</Time>
            <Position>
              <LatitudeDegrees>42.85127506591379642486572265625</LatitudeDegrees>
              <LongitudeDegrees>-0.13789705932140350341796875</LongitudeDegrees>
            </Position>
            <AltitudeMeters>1483</AltitudeMeters>
            <DistanceMeters>179.59941118974</DistanceMeters>
          </Trackpoint>
          <Trackpoint>
            <Time>2022-07-09T07:21:24.000Z</Time>
            <Position>
              <LatitudeDegrees>42.85127858631312847137451171875</LatitudeDegrees>
              <LongitudeDegrees>-0.1379344426095485687255859375</LongitudeDegrees>
            </Position>
            <AltitudeMeters>1483.4000244140625</AltitudeMeters>
            <DistanceMeters>182.67275789332</DistanceMeters>
          </Trackpoint>
          <Trackpoint>
            <Time>2022-07-09T07:21:29.000Z</Time>
            <Position>
              <LatitudeDegrees>42.85131144337356090545654296875</LatitudeDegrees>
              <LongitudeDegrees>-0.137981213629245758056640625</LongitudeDegrees>
            </Position>
            <AltitudeMeters>1483.5999755859375</AltitudeMeters>
            <DistanceMeters>187.95849876075</DistanceMeters>
          </Trackpoint>
          <Trackpoint>
            <Time>2022-07-09T07:21:33.000Z</Time>
            <Position>
              <LatitudeDegrees>42.851332314312458038330078125</LatitudeDegrees>
              <LongitudeDegrees>-0.1379693113267421722412109375</LongitudeDegrees>
            </Position>
            <AltitudeMeters>1484</AltitudeMeters>
            <DistanceMeters>190.47446449724</DistanceMeters>
          </Trackpoint>
          <Trackpoint>
            <Time>2022-07-09T07:21:38.000Z</Time>
            <Position>
              <LatitudeDegrees>42.8513452224433422088623046875</LatitudeDegrees>
              <LongitudeDegrees>-0.13796201907098293304443359375</LongitudeDegrees>
            </Position>
            <AltitudeMeters>1484.199951171875</AltitudeMeters>
            <DistanceMeters>192.02430330631</DistanceMeters>
          </Trackpoint>
          <Trackpoint>
            <Time>2022-07-09T07:21:44.000Z</Time>
            <Position>
              <LatitudeDegrees>42.851330302655696868896484375</LatitudeDegrees>
              <LongitudeDegrees>-0.1379446685314178466796875</LongitudeDegrees>
            </Position>
            <AltitudeMeters>1484.199951171875</AltitudeMeters>
            <DistanceMeters>194.20371153092</DistanceMeters>
          </Trackpoint>
          <Trackpoint>
            <Time>2022-07-09T07:21:46.000Z</Time>
            <Position>
              <LatitudeDegrees>42.851315550506114959716796875</LatitudeDegrees>
              <LongitudeDegrees>-0.13792865909636020660400390625</LongitudeDegrees>
            </Position>
            <AltitudeMeters>1484.199951171875</AltitudeMeters>
            <DistanceMeters>196.30292026391</DistanceMeters>
          </Trackpoint>
          <Trackpoint>
            <Time>2022-07-09T07:21:47.000Z</Time>
            <Position>
              <LatitudeDegrees>42.851309515535831451416015625</LatitudeDegrees>
              <LongitudeDegrees>-0.1379210315644741058349609375</LongitudeDegrees>
            </Position>
            <AltitudeMeters>1484</AltitudeMeters>
            <DistanceMeters>197.21932471026</DistanceMeters>
          </Trackpoint>
          <Trackpoint>
            <Time>2022-07-09T07:21:48.000Z</Time>
            <Position>
              <LatitudeDegrees>42.8513056598603725433349609375</LatitudeDegrees>
              <LongitudeDegrees>-0.13791591860353946685791015625</LongitudeDegrees>
            </Position>
            <AltitudeMeters>1484</AltitudeMeters>
            <DistanceMeters>197.8203264222</DistanceMeters>
          </Trackpoint>
          <Trackpoint>
            <Time>2022-07-09T07:21:49.000Z</Time>
            <Position>
              <LatitudeDegrees>42.85130389966070652008056640625</LatitudeDegrees>
              <LongitudeDegrees>-0.13791306875646114349365234375</LongitudeDegrees>
            </Position>
            <AltitudeMeters>1484</AltitudeMeters>
            <DistanceMeters>198.12082727817</DistanceMeters>
          </Trackpoint>
          <Trackpoint>
            <Time>2022-07-09T07:21:51.000Z</Time>
            <Position>
              <LatitudeDegrees>42.85130742006003856658935546875</LatitudeDegrees>
              <LongitudeDegrees>-0.13792094774544239044189453125</LongitudeDegrees>
            </Position>
            <AltitudeMeters>1484</AltitudeMeters>
            <DistanceMeters>198.88104099313</DistanceMeters>
          </Trackpoint>
          <Trackpoint>
            <Time>2022-07-09T07:21:55.000Z</Time>
            <Position>
              <LatitudeDegrees>42.85129736177623271942138671875</LatitudeDegrees>
              <LongitudeDegrees>-0.137967132031917572021484375</LongitudeDegrees>
            </Position>
            <AltitudeMeters>1484.800048828125</AltitudeMeters>
            <DistanceMeters>202.81289689996</DistanceMeters>
          </Trackpoint>
          <Trackpoint>
            <Time>2022-07-09T07:21:57.000Z</Time>
            <Position>
              <LatitudeDegrees>42.85129467956721782684326171875</LatitudeDegrees>
              <LongitudeDegrees>-0.13800107873976230621337890625</LongitudeDegrees>
            </Position>
            <AltitudeMeters>1484.800048828125</AltitudeMeters>
            <DistanceMeters>205.59962719581</DistanceMeters>
          </Trackpoint>
          <Trackpoint>
            <Time>2022-07-09T07:22:02.000Z</Time>
            <Position>
              <LatitudeDegrees>42.85128948278725147247314453125</LatitudeDegrees>
              <LongitudeDegrees>-0.1380990631878376007080078125</LongitudeDegrees>
            </Position>
            <AltitudeMeters>1485</AltitudeMeters>
            <DistanceMeters>213.61573747294</DistanceMeters>
          </Trackpoint>
          <Trackpoint>
            <Time>2022-07-09T07:22:04.000Z</Time>
            <Position>
              <LatitudeDegrees>42.8512805141508579254150390625</LatitudeDegrees>
              <LongitudeDegrees>-0.13812278397381305694580078125</LongitudeDegrees>
            </Position>
            <AltitudeMeters>1485.4000244140625</AltitudeMeters>
            <DistanceMeters>215.79514569756</DistanceMeters>
          </Trackpoint>
          <Trackpoint>
            <Time>2022-07-09T07:22:08.000Z</Time>
            <Position>
              <LatitudeDegrees>42.85126450471580028533935546875</LatitudeDegrees>
              <LongitudeDegrees>-0.13817190192639827728271484375</LongitudeDegrees>
            </Position>
            <AltitudeMeters>1486.199951171875</AltitudeMeters>
            <DistanceMeters>220.18184068377</DistanceMeters>
          </Trackpoint>
          <Trackpoint>
            <Time>2022-07-09T07:22:11.000Z</Time>
            <Position>
              <LatitudeDegrees>42.851246483623981475830078125</LatitudeDegrees>
              <LongitudeDegrees>-0.13821565546095371246337890625</LongitudeDegrees>
            </Position>
            <AltitudeMeters>1486.4000244140625</AltitudeMeters>
            <DistanceMeters>224.27792198581</DistanceMeters>
          </Trackpoint>
          <Trackpoint>
            <Time>2022-07-09T07:22:12.000Z</Time>
            <Position>
              <LatitudeDegrees>42.85124204121530055999755859375</LatitudeDegrees>
              <LongitudeDegrees>-0.138228647410869598388671875</LongitudeDegrees>
            </Position>
            <AltitudeMeters>1486.5999755859375</AltitudeMeters>
            <DistanceMeters>225.44949000324</DistanceMeters>
          </Trackpoint>
          <Trackpoint>
            <Time>2022-07-09T07:22:15.000Z</Time>
            <Position>
              <LatitudeDegrees>42.85122795961797237396240234375</LatitudeDegrees>
              <LongitudeDegrees>-0.13827013783156871795654296875</LongitudeDegrees>
            </Position>
            <AltitudeMeters>1487</AltitudeMeters>
            <DistanceMeters>229.1810282754</DistanceMeters>
          </Trackpoint>
          <Trackpoint>
            <Time>2022-07-09T07:22:17.000Z</Time>
            <Position>
              <LatitudeDegrees>42.85121270455420017242431640625</LatitudeDegrees>
              <LongitudeDegrees>-0.1382945291697978973388671875</LongitudeDegrees>
            </Position>
            <AltitudeMeters>1487.199951171875</AltitudeMeters>
            <DistanceMeters>231.80073400265</DistanceMeters>
          </Trackpoint>
          <Trackpoint>
            <Time>2022-07-09T07:22:18.000Z</Time>
            <Position>
              <LatitudeDegrees>42.85120566375553607940673828125</LatitudeDegrees>
              <LongitudeDegrees>-0.13830517418682575225830078125</LongitudeDegrees>
            </Position>
            <AltitudeMeters>1487.199951171875</AltitudeMeters>
            <DistanceMeters>232.97230202009</DistanceMeters>
          </Trackpoint>
          <Trackpoint>
            <Time>2022-07-09T07:22:20.000Z</Time>
            <Position>
              <LatitudeDegrees>42.8511898219585418701171875</LatitudeDegrees>
              <LongitudeDegrees>-0.138331912457942962646484375</LongitudeDegrees>
            </Position>
            <AltitudeMeters>1487.5999755859375</AltitudeMeters>
            <DistanceMeters>235.77518740951</DistanceMeters>
          </Trackpoint>
          <Trackpoint>
            <Time>2022-07-09T07:22:24.000Z</Time>
            <Position>
              <LatitudeDegrees>42.85115168429911136627197265625</LatitudeDegrees>
              <LongitudeDegrees>-0.13838253915309906005859375</LongitudeDegrees>
            </Position>
            <AltitudeMeters>1488.199951171875</AltitudeMeters>
            <DistanceMeters>241.69894272698</DistanceMeters>
          </Trackpoint>
          <Trackpoint>
            <Time>2022-07-09T07:22:25.000Z</Time>
            <Position>
              <LatitudeDegrees>42.8511415421962738037109375</LatitudeDegrees>
              <LongitudeDegrees>-0.13839402236044406890869140625</LongitudeDegrees>
            </Position>
            <AltitudeMeters>1488.4000244140625</AltitudeMeters>
            <DistanceMeters>243.16494347516</DistanceMeters>
          </Trackpoint>
          <Trackpoint>
            <Time>2022-07-09T07:22:30.000Z</Time>
            <Position>
              <LatitudeDegrees>42.85110239870846271514892578125</LatitudeDegrees>
              <LongitudeDegrees>-0.138436853885650634765625</LongitudeDegrees>
            </Position>
            <AltitudeMeters>1489</AltitudeMeters>
            <DistanceMeters>248.75135056651</DistanceMeters>
          </Trackpoint>
          <Trackpoint>
            <Time>2022-07-09T07:22:33.000Z</Time>
            <Position>
              <LatitudeDegrees>42.851092256605625152587890625</LatitudeDegrees>
              <LongitudeDegrees>-0.13845856301486492156982421875</LongitudeDegrees>
            </Position>
            <AltitudeMeters>1489.4000244140625</AltitudeMeters>
            <DistanceMeters>250.85485655831</DistanceMeters>
          </Trackpoint>
          <Trackpoint>
            <Time>2022-07-09T07:22:35.000Z</Time>
            <Position>
              <LatitudeDegrees>42.8510894067585468292236328125</LatitudeDegrees>
              <LongitudeDegrees>-0.1384712196886539459228515625</LongitudeDegrees>
            </Position>
            <AltitudeMeters>1489.5999755859375</AltitudeMeters>
            <DistanceMeters>251.93832780284</DistanceMeters>
          </Trackpoint>
          <Trackpoint>
            <Time>2022-07-09T07:22:37.000Z</Time>
            <Position>
              <LatitudeDegrees>42.8510852158069610595703125</LatitudeDegrees>
              <LongitudeDegrees>-0.13848655857145786285400390625</LongitudeDegrees>
            </Position>
            <AltitudeMeters>1489.800048828125</AltitudeMeters>
            <DistanceMeters>253.27547219889</DistanceMeters>
          </Trackpoint>
          <Trackpoint>
            <Time>2022-07-09T07:22:40.000Z</Time>
            <Position>
              <LatitudeDegrees>42.85107314586639404296875</LatitudeDegrees>
              <LongitudeDegrees>-0.13852075673639774322509765625</LongitudeDegrees>
            </Position>
            <AltitudeMeters>1490.199951171875</AltitudeMeters>
            <DistanceMeters>256.3722352159</DistanceMeters>
          </Trackpoint>
          <Trackpoint>
            <Time>2022-07-09T07:22:42.000Z</Time>
            <Position>
              <LatitudeDegrees>42.8510615788400173187255859375</LatitudeDegrees>
              <LongitudeDegrees>-0.13854657299816608428955078125</LongitudeDegrees>
            </Position>
            <AltitudeMeters>1490.4000244140625</AltitudeMeters>
            <DistanceMeters>258.83927220857</DistanceMeters>
          </Trackpoint>
          <Trackpoint>
            <Time>2022-07-09T07:22:43.000Z</Time>
            <Position>
              <LatitudeDegrees>42.85105462186038494110107421875</LatitudeDegrees>
              <LongitudeDegrees>-0.1385614089667797088623046875</LongitudeDegrees>
            </Position>
            <AltitudeMeters>1490.4000244140625</AltitudeMeters>
            <DistanceMeters>260.27728733564</DistanceMeters>
          </Trackpoint>
          <Trackpoint>
            <Time>2022-07-09T07:22:45.000Z</Time>
            <Position>
              <LatitudeDegrees>42.85104565322399139404296875</LatitudeDegrees>
              <LongitudeDegrees>-0.13858110643923282623291015625</LongitudeDegrees>
            </Position>
            <AltitudeMeters>1490.5999755859375</AltitudeMeters>
            <DistanceMeters>262.17306433325</DistanceMeters>
          </Trackpoint>
          <Trackpoint>
            <Time>2022-07-09T07:22:46.000Z</Time>
            <Position>
              <LatitudeDegrees>42.85104137845337390899658203125</LatitudeDegrees>
              <LongitudeDegrees>-0.13858906924724578857421875</LongitudeDegrees>
            </Position>
            <AltitudeMeters>1491</AltitudeMeters>
            <DistanceMeters>262.97939274275</DistanceMeters>
          </Trackpoint>
          <Trackpoint>
            <Time>2022-07-09T07:22:48.000Z</Time>
            <Position>
              <LatitudeDegrees>42.85103685222566127777099609375</LatitudeDegrees>
              <LongitudeDegrees>-0.13860742561519145965576171875</LongitudeDegrees>
            </Position>
            <AltitudeMeters>1491.5999755859375</AltitudeMeters>
            <DistanceMeters>264.5609524713</DistanceMeters>
          </Trackpoint>
          <Trackpoint>
            <Time>2022-07-09T07:22:52.000Z</Time>
            <Position>
              <LatitudeDegrees>42.85103358328342437744140625</LatitudeDegrees>
              <LongitudeDegrees>-0.1386542804539203643798828125</LongitudeDegrees>
            </Position>
            <AltitudeMeters>1492</AltitudeMeters>
            <DistanceMeters>268.40219509699</DistanceMeters>
          </Trackpoint>
          <Trackpoint>
            <Time>2022-07-09T07:22:53.000Z</Time>
            <Position>
              <LatitudeDegrees>42.85103148780763149261474609375</LatitudeDegrees>
              <LongitudeDegrees>-0.1386650092899799346923828125</LongitudeDegrees>
            </Position>
            <AltitudeMeters>1492</AltitudeMeters>
            <DistanceMeters>269.30869217719</DistanceMeters>
          </Trackpoint>
          <Trackpoint>
            <Time>2022-07-09T07:22:58.000Z</Time>
            <Position>
              <LatitudeDegrees>42.85101757384836673736572265625</LatitudeDegrees>
              <LongitudeDegrees>-0.1387300528585910797119140625</LongitudeDegrees>
            </Position>
            <AltitudeMeters>1492.5999755859375</AltitudeMeters>
            <DistanceMeters>274.8366012472</DistanceMeters>
          </Trackpoint>
          <Trackpoint>
            <Time>2022-07-09T07:23:00.000Z</Time>
            <Position>
              <LatitudeDegrees>42.85101086832582950592041015625</LatitudeDegrees>
              <LongitudeDegrees>-0.13874270953238010406494140625</LongitudeDegrees>
            </Position>
            <AltitudeMeters>1493</AltitudeMeters>
            <DistanceMeters>276.11151840526</DistanceMeters>
          </Trackpoint>
          <Trackpoint>
            <Time>2022-07-09T07:23:06.000Z</Time>
            <Position>
              <LatitudeDegrees>42.8509888239204883575439453125</LatitudeDegrees>
              <LongitudeDegrees>-0.1388054899871349334716796875</LongitudeDegrees>
            </Position>
            <AltitudeMeters>1493.199951171875</AltitudeMeters>
            <DistanceMeters>281.79249483636</DistanceMeters>
          </Trackpoint>
          <Trackpoint>
            <Time>2022-07-09T07:23:08.000Z</Time>
            <Position>
              <LatitudeDegrees>42.8509871475398540496826171875</LatitudeDegrees>
              <LongitudeDegrees>-0.13883289881050586700439453125</LongitudeDegrees>
            </Position>
            <AltitudeMeters>1493.5999755859375</AltitudeMeters>
            <DistanceMeters>284.03721812793</DistanceMeters>
          </Trackpoint>
          <Trackpoint>
            <Time>2022-07-09T07:23:09.000Z</Time>
            <Position>
              <LatitudeDegrees>42.85098471678793430328369140625</LatitudeDegrees>
              <LongitudeDegrees>-0.1388463936746120452880859375</LongitudeDegrees>
            </Position>
            <AltitudeMeters>1493.800048828125</AltitudeMeters>
            <DistanceMeters>285.16959211873</DistanceMeters>
          </Trackpoint>
          <Trackpoint>
            <Time>2022-07-09T07:23:12.000Z</Time>
            <Position>
              <LatitudeDegrees>42.85098689608275890350341796875</LatitudeDegrees>
              <LongitudeDegrees>-0.138879083096981048583984375</LongitudeDegrees>
            </Position>
            <AltitudeMeters>1494.4000244140625</AltitudeMeters>
            <DistanceMeters>287.84894106445</DistanceMeters>
          </Trackpoint>
          <Trackpoint>
            <Time>2022-07-09T07:23:15.000Z</Time>
            <Position>
              <LatitudeDegrees>42.85099158994853496551513671875</LatitudeDegrees>
              <LongitudeDegrees>-0.13892258517444133758544921875</LongitudeDegrees>
            </Position>
            <AltitudeMeters>1494.800048828125</AltitudeMeters>
            <DistanceMeters>291.4373793054</DistanceMeters>
          </Trackpoint>
          <Trackpoint>
            <Time>2022-07-09T07:23:16.000Z</Time>
            <Position>
              <LatitudeDegrees>42.85099024884402751922607421875</LatitudeDegrees>
              <LongitudeDegrees>-0.13893264345824718475341796875</LongitudeDegrees>
            </Position>
            <AltitudeMeters>1494.800048828125</AltitudeMeters>
            <DistanceMeters>292.27123533985</DistanceMeters>
          </Trackpoint>
          <Trackpoint>
            <Time>2022-07-09T07:23:20.000Z</Time>
            <Position>
              <LatitudeDegrees>42.8509784303605556488037109375</LatitudeDegrees>
              <LongitudeDegrees>-0.13899098150432109832763671875</LongitudeDegrees>
            </Position>
            <AltitudeMeters>1494.800048828125</AltitudeMeters>
            <DistanceMeters>297.2089682608</DistanceMeters>
          </Trackpoint>
          <Trackpoint>
            <Time>2022-07-09T07:23:22.000Z</Time>
            <Position>
              <LatitudeDegrees>42.85097055137157440185546875</LatitudeDegrees>
              <LongitudeDegrees>-0.13900657184422016143798828125</LongitudeDegrees>
            </Position>
            <AltitudeMeters>1494.800048828125</AltitudeMeters>
            <DistanceMeters>298.75296961482</DistanceMeters>
          </Trackpoint>
          <Trackpoint>
            <Time>2022-07-09T07:23:23.000Z</Time>
            <Position>
              <LatitudeDegrees>42.85096527077257633209228515625</LatitudeDegrees>
              <LongitudeDegrees>-0.13901310972869396209716796875</LongitudeDegrees>
            </Position>
            <AltitudeMeters>1495</AltitudeMeters>
            <DistanceMeters>299.54802014848</DistanceMeters>
          </Trackpoint>
          <Trackpoint>
            <Time>2022-07-09T07:23:29.000Z</Time>
            <Position>
              <LatitudeDegrees>42.85096258856356143951416015625</LatitudeDegrees>
              <LongitudeDegrees>-0.139017216861248016357421875</LongitudeDegrees>
            </Position>
            <AltitudeMeters>1495.800048828125</AltitudeMeters>
            <DistanceMeters>299.99373494716</DistanceMeters>
          </Trackpoint>
          <Trackpoint>
            <Time>2022-07-09T07:23:30.000Z</Time>
            <Position>
              <LatitudeDegrees>42.850964181125164031982421875</LatitudeDegrees>
              <LongitudeDegrees>-0.139014534652233123779296875</LongitudeDegrees>
            </Position>
            <AltitudeMeters>1495.800048828125</AltitudeMeters>
            <DistanceMeters>300.26251108366</DistanceMeters>
          </Trackpoint>
          <Trackpoint>
            <Time>2022-07-09T07:23:31.000Z</Time>
            <Position>
              <LatitudeDegrees>42.8509640134871006011962890625</LatitudeDegrees>
              <LongitudeDegrees>-0.1390126906335353851318359375</LongitudeDegrees>
            </Position>
            <AltitudeMeters>1495.800048828125</AltitudeMeters>
            <DistanceMeters>300.39689915191</DistanceMeters>
          </Trackpoint>
          <Trackpoint>
            <Time>2022-07-09T07:23:32.000Z</Time>
            <Position>
              <LatitudeDegrees>42.8509633429348468780517578125</LatitudeDegrees>
              <LongitudeDegrees>-0.13901143334805965423583984375</LongitudeDegrees>
            </Position>
            <AltitudeMeters>1496</AltitudeMeters>
            <DistanceMeters>300.53128722016</DistanceMeters>
          </Trackpoint>
          <Trackpoint>
            <Time>2022-07-09T07:23:38.000Z</Time>
            <Position>
              <LatitudeDegrees>42.85096175037324428558349609375</LatitudeDegrees>
              <LongitudeDegrees>-0.13907999731600284576416015625</LongitudeDegrees>
            </Position>
            <AltitudeMeters>1496.4000244140625</AltitudeMeters>
            <DistanceMeters>306.12899793621</DistanceMeters>
          </Trackpoint>
          <Trackpoint>
            <Time>2022-07-09T07:23:39.000Z</Time>
            <Position>
              <LatitudeDegrees>42.85096158273518085479736328125</LatitudeDegrees>
              <LongitudeDegrees>-0.139099694788455963134765625</LongitudeDegrees>
            </Position>
            <AltitudeMeters>1496.4000244140625</AltitudeMeters>
            <DistanceMeters>307.7360454971</DistanceMeters>
          </Trackpoint>
          <Trackpoint>
            <Time>2022-07-09T07:23:43.000Z</Time>
            <Position>
              <LatitudeDegrees>42.8509670309722423553466796875</LatitudeDegrees>
              <LongitudeDegrees>-0.13914990238845348358154296875</LongitudeDegrees>
            </Position>
            <AltitudeMeters>1496.4000244140625</AltitudeMeters>
            <DistanceMeters>311.87816394585</DistanceMeters>
          </Trackpoint>
          <Trackpoint>
            <Time>2022-07-09T07:23:46.000Z</Time>
            <Position>
              <LatitudeDegrees>42.85099108703434467315673828125</LatitudeDegrees>
              <LongitudeDegrees>-0.13919181190431118011474609375</LongitudeDegrees>
            </Position>
            <AltitudeMeters>1496.4000244140625</AltitudeMeters>
            <DistanceMeters>316.22037531968</DistanceMeters>
          </Trackpoint>
          <Trackpoint>
            <Time>2022-07-09T07:23:48.000Z</Time>
            <Position>
              <LatitudeDegrees>42.85101723857223987579345703125</LatitudeDegrees>
              <LongitudeDegrees>-0.13922743499279022216796875</LongitudeDegrees>
            </Position>
            <AltitudeMeters>1496.4000244140625</AltitudeMeters>
            <DistanceMeters>320.33405533348</DistanceMeters>
          </Trackpoint>
          <Trackpoint>
            <Time>2022-07-09T07:23:50.000Z</Time>
            <Position>
              <LatitudeDegrees>42.85101883113384246826171875</LatitudeDegrees>
              <LongitudeDegrees>-0.1392614655196666717529296875</LongitudeDegrees>
            </Position>
            <AltitudeMeters>1496.199951171875</AltitudeMeters>
            <DistanceMeters>323.11754335913</DistanceMeters>
          </Trackpoint>
          <Trackpoint>
            <Time>2022-07-09T07:23:53.000Z</Time>
            <Position>
              <LatitudeDegrees>42.85102629102766513824462890625</LatitudeDegrees>
              <LongitudeDegrees>-0.13927035033702850341796875</LongitudeDegrees>
            </Position>
            <AltitudeMeters>1496.4000244140625</AltitudeMeters>
            <DistanceMeters>324.21755710608</DistanceMeters>
          </Trackpoint>
          <Trackpoint>
            <Time>2022-07-09T07:23:54.000Z</Time>
            <Position>
              <LatitudeDegrees>42.85102645866572856903076171875</LatitudeDegrees>
              <LongitudeDegrees>-0.139278061687946319580078125</LongitudeDegrees>
            </Position>
            <AltitudeMeters>1496.5999755859375</AltitudeMeters>
            <DistanceMeters>324.84068894373</DistanceMeters>
          </Trackpoint>
          <Trackpoint>
            <Time>2022-07-09T07:23:56.000Z</Time>
            <Position>
              <LatitudeDegrees>42.8510290570557117462158203125</LatitudeDegrees>
              <LongitudeDegrees>-0.13929423876106739044189453125</LongitudeDegrees>
            </Position>
            <AltitudeMeters>1496.800048828125</AltitudeMeters>
            <DistanceMeters>326.19127231461</DistanceMeters>
          </Trackpoint>
          <Trackpoint>
            <Time>2022-07-09T07:24:01.000Z</Time>
            <Position>
              <LatitudeDegrees>42.85102595575153827667236328125</LatitudeDegrees>
              <LongitudeDegrees>-0.13934285379946231842041015625</LongitudeDegrees>
            </Position>
            <AltitudeMeters>1497.4000244140625</AltitudeMeters>
            <DistanceMeters>330.1710655357</DistanceMeters>
          </Trackpoint>
          <Trackpoint>
            <Time>2022-07-09T07:24:07.000Z</Time>
            <Position>
              <LatitudeDegrees>42.8510749898850917816162109375</LatitudeDegrees>
              <LongitudeDegrees>-0.13935911469161510467529296875</LongitudeDegrees>
            </Position>
            <AltitudeMeters>1496.5999755859375</AltitudeMeters>
            <DistanceMeters>335.78810097223</DistanceMeters>
          </Trackpoint>
          <Trackpoint>
            <Time>2022-07-09T07:24:08.000Z</Time>
            <Position>
              <LatitudeDegrees>42.8510783426463603973388671875</LatitudeDegrees>
              <LongitudeDegrees>-0.13936397619545459747314453125</LongitudeDegrees>
            </Position>
            <AltitudeMeters>1496.5999755859375</AltitudeMeters>
            <DistanceMeters>336.32565324523</DistanceMeters>
          </Trackpoint>
          <Trackpoint>
            <Time>2022-07-09T07:24:13.000Z</Time>
            <Position>
              <LatitudeDegrees>42.85111027769744396209716796875</LatitudeDegrees>
              <LongitudeDegrees>-0.13937302865087985992431640625</LongitudeDegrees>
            </Position>
            <AltitudeMeters>1497</AltitudeMeters>
            <DistanceMeters>339.95413108797</DistanceMeters>
          </Trackpoint>
          <Trackpoint>
            <Time>2022-07-09T07:24:17.000Z</Time>
            <Position>
              <LatitudeDegrees>42.85114665515720844268798828125</LatitudeDegrees>
              <LongitudeDegrees>-0.13942834921181201934814453125</LongitudeDegrees>
            </Position>
            <AltitudeMeters>1497.4000244140625</AltitudeMeters>
            <DistanceMeters>346.01799712209</DistanceMeters>
          </Trackpoint>
          <Trackpoint>
            <Time>2022-07-09T07:24:23.000Z</Time>
            <Position>
              <LatitudeDegrees>42.85115201957523822784423828125</LatitudeDegrees>
              <LongitudeDegrees>-0.13942600227892398834228515625</LongitudeDegrees>
            </Position>
            <AltitudeMeters>1497.4000244140625</AltitudeMeters>
            <DistanceMeters>346.64833303535</DistanceMeters>
          </Trackpoint>
          <Trackpoint>
            <Time>2022-07-09T07:24:25.000Z</Time>
            <Position>
              <LatitudeDegrees>42.85115000791847705841064453125</LatitudeDegrees>
              <LongitudeDegrees>-0.13940605334937572479248046875</LongitudeDegrees>
            </Position>
            <AltitudeMeters>1497.4000244140625</AltitudeMeters>
            <DistanceMeters>348.29149853424</DistanceMeters>
          </Trackpoint>
          <Trackpoint>
            <Time>2022-07-09T07:24:26.000Z</Time>
            <Position>
              <LatitudeDegrees>42.85114849917590618133544921875</LatitudeDegrees>
              <LongitudeDegrees>-0.13940311968326568603515625</LongitudeDegrees>
            </Position>
            <AltitudeMeters>1497.4000244140625</AltitudeMeters>
            <DistanceMeters>348.59199939021</DistanceMeters>
          </Trackpoint>
          <Trackpoint>
            <Time>2022-07-09T07:24:28.000Z</Time>
            <Position>
              <LatitudeDegrees>42.85114648751914501190185546875</LatitudeDegrees>
              <LongitudeDegrees>-0.1393838413059711456298828125</LongitudeDegrees>
            </Position>
            <AltitudeMeters>1497.4000244140625</AltitudeMeters>
            <DistanceMeters>350.18210045753</DistanceMeters>
          </Trackpoint>
          <Trackpoint>
            <Time>2022-07-09T07:24:31.000Z</Time>
            <Position>
              <LatitudeDegrees>42.851134501397609710693359375</LatitudeDegrees>
              <LongitudeDegrees>-0.1393674127757549285888671875</LongitudeDegrees>
            </Position>
            <AltitudeMeters>1497.5999755859375</AltitudeMeters>
            <DistanceMeters>352.07310819728</DistanceMeters>
          </Trackpoint>
          <Trackpoint>
            <Time>2022-07-09T07:24:34.000Z</Time>
            <Position>
              <LatitudeDegrees>42.85111547447741031646728515625</LatitudeDegrees>
              <LongitudeDegrees>-0.1393556781113147735595703125</LongitudeDegrees>
            </Position>
            <AltitudeMeters>1497.5999755859375</AltitudeMeters>
            <DistanceMeters>354.39689513104</DistanceMeters>
          </Trackpoint>
          <Trackpoint>
            <Time>2022-07-09T07:24:38.000Z</Time>
            <Position>
              <LatitudeDegrees>42.8511209227144718170166015625</LatitudeDegrees>
              <LongitudeDegrees>-0.1393838413059711456298828125</LongitudeDegrees>
            </Position>
            <AltitudeMeters>1497.800048828125</AltitudeMeters>
            <DistanceMeters>356.77256299029</DistanceMeters>
          </Trackpoint>
          <Trackpoint>
            <Time>2022-07-09T07:24:39.000Z</Time>
            <Position>
              <LatitudeDegrees>42.85113005898892879486083984375</LatitudeDegrees>
              <LongitudeDegrees>-0.13939431868493556976318359375</LongitudeDegrees>
            </Position>
            <AltitudeMeters>1497.800048828125</AltitudeMeters>
            <DistanceMeters>358.10293699147</DistanceMeters>
          </Trackpoint>
          <Trackpoint>
            <Time>2022-07-09T07:24:41.000Z</Time>
            <Position>
              <LatitudeDegrees>42.85115017555654048919677734375</LatitudeDegrees>
              <LongitudeDegrees>-0.139407478272914886474609375</LongitudeDegrees>
            </Position>
            <AltitudeMeters>1497.800048828125</AltitudeMeters>
            <DistanceMeters>360.58639067761</DistanceMeters>
          </Trackpoint>
          <Trackpoint>
            <Time>2022-07-09T07:24:45.000Z</Time>
            <Position>
              <LatitudeDegrees>42.85118646919727325439453125</LatitudeDegrees>
              <LongitudeDegrees>-0.1394113339483737945556640625</LongitudeDegrees>
            </Position>
            <AltitudeMeters>1497.800048828125</AltitudeMeters>
            <DistanceMeters>364.63814079023</DistanceMeters>
          </Trackpoint>
          <Trackpoint>
            <Time>2022-07-09T07:24:49.000Z</Time>
            <Position>
              <LatitudeDegrees>42.85117817111313343048095703125</LatitudeDegrees>
              <LongitudeDegrees>-0.139422230422496795654296875</LongitudeDegrees>
            </Position>
            <AltitudeMeters>1497.5999755859375</AltitudeMeters>
            <DistanceMeters>365.92012125529</DistanceMeters>
          </Trackpoint>
          <Trackpoint>
            <Time>2022-07-09T07:24:55.000Z</Time>
            <Position>
              <LatitudeDegrees>42.851177752017974853515625</LatitudeDegrees>
              <LongitudeDegrees>-0.1394052989780902862548828125</LongitudeDegrees>
            </Position>
            <AltitudeMeters>1497.800048828125</AltitudeMeters>
            <DistanceMeters>367.29718917418</DistanceMeters>
          </Trackpoint>
          <Trackpoint>
            <Time>2022-07-09T07:24:56.000Z</Time>
            <Position>
              <LatitudeDegrees>42.85118370316922664642333984375</LatitudeDegrees>
              <LongitudeDegrees>-0.13940772973001003265380859375</LongitudeDegrees>
            </Position>
            <AltitudeMeters>1497.800048828125</AltitudeMeters>
            <DistanceMeters>367.98899409721</DistanceMeters>
          </Trackpoint>
          <Trackpoint>
            <Time>2022-07-09T07:24:57.000Z</Time>
            <Position>
              <LatitudeDegrees>42.85118537954986095428466796875</LatitudeDegrees>
              <LongitudeDegrees>-0.13941242359578609466552734375</LongitudeDegrees>
            </Position>
            <AltitudeMeters>1498</AltitudeMeters>
            <DistanceMeters>368.41396648323</DistanceMeters>
          </Trackpoint>
          <Trackpoint>
            <Time>2022-07-09T07:24:58.000Z</Time>
            <Position>
              <LatitudeDegrees>42.8511849604547023773193359375</LatitudeDegrees>
              <LongitudeDegrees>-0.13941694982349872589111328125</LongitudeDegrees>
            </Position>
            <AltitudeMeters>1498</AltitudeMeters>
            <DistanceMeters>368.78200336543</DistanceMeters>
          </Trackpoint>
          <Trackpoint>
            <Time>2022-07-09T07:24:59.000Z</Time>
            <Position>
              <LatitudeDegrees>42.85118370316922664642333984375</LatitudeDegrees>
              <LongitudeDegrees>-0.13941829092800617218017578125</LongitudeDegrees>
            </Position>
            <AltitudeMeters>1498</AltitudeMeters>
            <DistanceMeters>368.94659446279</DistanceMeters>
          </Trackpoint>
          <Trackpoint>
            <Time>2022-07-09T07:25:01.000Z</Time>
            <Position>
              <LatitudeDegrees>42.85117900930345058441162109375</LatitudeDegrees>
              <LongitudeDegrees>-0.1394046284258365631103515625</LongitudeDegrees>
            </Position>
            <AltitudeMeters>1498</AltitudeMeters>
            <DistanceMeters>370.1782814533</DistanceMeters>
          </Trackpoint>
          <Trackpoint>
            <Time>2022-07-09T07:25:03.000Z</Time>
            <Position>
              <LatitudeDegrees>42.85117984749376773834228515625</LatitudeDegrees>
              <LongitudeDegrees>-0.1393754594027996063232421875</LongitudeDegrees>
            </Position>
            <AltitudeMeters>1497.800048828125</AltitudeMeters>
            <DistanceMeters>372.55964408986</DistanceMeters>
          </Trackpoint>
          <Trackpoint>
            <Time>2022-07-09T07:25:09.000Z</Time>
            <Position>
              <LatitudeDegrees>42.8511965274810791015625</LatitudeDegrees>
              <LongitudeDegrees>-0.1393828354775905609130859375</LongitudeDegrees>
            </Position>
            <AltitudeMeters>1497.800048828125</AltitudeMeters>
            <DistanceMeters>374.51174353901</DistanceMeters>
          </Trackpoint>
          <Trackpoint>
            <Time>2022-07-09T07:25:15.000Z</Time>
            <Position>
              <LatitudeDegrees>42.85123902373015880584716796875</LatitudeDegrees>
              <LongitudeDegrees>-0.13936246745288372039794921875</LongitudeDegrees>
            </Position>
            <AltitudeMeters>1497.800048828125</AltitudeMeters>
            <DistanceMeters>379.52569735012</DistanceMeters>
          </Trackpoint>
          <Trackpoint>
            <Time>2022-07-09T07:25:17.000Z</Time>
            <Position>
              <LatitudeDegrees>42.85127070732414722442626953125</LatitudeDegrees>
              <LongitudeDegrees>-0.13936464674770832061767578125</LongitudeDegrees>
            </Position>
            <AltitudeMeters>1497.800048828125</AltitudeMeters>
            <DistanceMeters>383.05834021992</DistanceMeters>
          </Trackpoint>
          <Trackpoint>
            <Time>2022-07-09T07:25:18.000Z</Time>
            <Position>
              <LatitudeDegrees>42.85128344781696796417236328125</LatitudeDegrees>
              <LongitudeDegrees>-0.13936732895672321319580078125</LongitudeDegrees>
            </Position>
            <AltitudeMeters>1497.800048828125</AltitudeMeters>
            <DistanceMeters>384.49321214076</DistanceMeters>
          </Trackpoint>
          <Trackpoint>
            <Time>2022-07-09T07:25:24.000Z</Time>
            <Position>
              <LatitudeDegrees>42.85134983249008655548095703125</LatitudeDegrees>
              <LongitudeDegrees>-0.13937738724052906036376953125</LongitudeDegrees>
            </Position>
            <AltitudeMeters>1499</AltitudeMeters>
            <DistanceMeters>391.92719275931</DistanceMeters>
          </Trackpoint>
          <Trackpoint>
            <Time>2022-07-09T07:25:26.000Z</Time>
            <Position>
              <LatitudeDegrees>42.85136391408741474151611328125</LatitudeDegrees>
              <LongitudeDegrees>-0.13938325457274913787841796875</LongitudeDegrees>
            </Position>
            <AltitudeMeters>1499.800048828125</AltitudeMeters>
            <DistanceMeters>393.56485350069</DistanceMeters>
          </Trackpoint>
          <Trackpoint>
            <Time>2022-07-09T07:25:27.000Z</Time>
            <Position>
              <LatitudeDegrees>42.851369194686412811279296875</LatitudeDegrees>
              <LongitudeDegrees>-0.1393881998956203460693359375</LongitudeDegrees>
            </Position>
            <AltitudeMeters>1500.199951171875</AltitudeMeters>
            <DistanceMeters>394.28228946111</DistanceMeters>
          </Trackpoint>
          <Trackpoint>
            <Time>2022-07-09T07:25:28.000Z</Time>
            <Position>
              <LatitudeDegrees>42.8513737209141254425048828125</LatitudeDegrees>
              <LongitudeDegrees>-0.13939750380814075469970703125</LongitudeDegrees>
            </Position>
            <AltitudeMeters>1500.199951171875</AltitudeMeters>
            <DistanceMeters>395.19375368578</DistanceMeters>
          </Trackpoint>
          <Trackpoint>
            <Time>2022-07-09T07:25:30.000Z</Time>
            <Position>
              <LatitudeDegrees>42.851365506649017333984375</LatitudeDegrees>
              <LongitudeDegrees>-0.13939985074102878570556640625</LongitudeDegrees>
            </Position>
            <AltitudeMeters>1500.5999755859375</AltitudeMeters>
            <DistanceMeters>396.12965828298</DistanceMeters>
          </Trackpoint>
          <Trackpoint>
            <Time>2022-07-09T07:25:32.000Z</Time>
            <Position>
              <LatitudeDegrees>42.85135335288941860198974609375</LatitudeDegrees>
              <LongitudeDegrees>-0.1393969170749187469482421875</LongitudeDegrees>
            </Position>
            <AltitudeMeters>1500.800048828125</AltitudeMeters>
            <DistanceMeters>397.50015304778</DistanceMeters>
          </Trackpoint>
          <Trackpoint>
            <Time>2022-07-09T07:25:34.000Z</Time>
            <Position>
              <LatitudeDegrees>42.8513344936072826385498046875</LatitudeDegrees>
              <LongitudeDegrees>-0.13939029537141323089599609375</LongitudeDegrees>
            </Position>
            <AltitudeMeters>1501.199951171875</AltitudeMeters>
            <DistanceMeters>399.66709553683</DistanceMeters>
          </Trackpoint>
          <Trackpoint>
            <Time>2022-07-09T07:25:35.000Z</Time>
            <Position>
              <LatitudeDegrees>42.8513227589428424835205078125</LatitudeDegrees>
              <LongitudeDegrees>-0.139393396675586700439453125</LongitudeDegrees>
            </Position>
            <AltitudeMeters>1501.4000244140625</AltitudeMeters>
            <DistanceMeters>400.99746953801</DistanceMeters>
          </Trackpoint>
          <Trackpoint>
            <Time>2022-07-09T07:25:36.000Z</Time>
            <Position>
              <LatitudeDegrees>42.851315550506114959716796875</LatitudeDegrees>
              <LongitudeDegrees>-0.139395408332347869873046875</LongitudeDegrees>
            </Position>
            <AltitudeMeters>1501.4000244140625</AltitudeMeters>
            <DistanceMeters>401.81492024408</DistanceMeters>
          </Trackpoint>
          <Trackpoint>
            <Time>2022-07-09T07:25:37.000Z</Time>
            <Position>
              <LatitudeDegrees>42.851306498050689697265625</LatitudeDegrees>
              <LongitudeDegrees>-0.139402449131011962890625</LongitudeDegrees>
            </Position>
            <AltitudeMeters>1501.800048828125</AltitudeMeters>
            <DistanceMeters>402.97875505478</DistanceMeters>
          </Trackpoint>
          <Trackpoint>
            <Time>2022-07-09T07:25:41.000Z</Time>
            <Position>
              <LatitudeDegrees>42.85126450471580028533935546875</LatitudeDegrees>
              <LongitudeDegrees>-0.139414183795452117919921875</LongitudeDegrees>
            </Position>
            <AltitudeMeters>1502.4000244140625</AltitudeMeters>
            <DistanceMeters>407.75095085877</DistanceMeters>
          </Trackpoint>
          <Trackpoint>
            <Time>2022-07-09T07:25:42.000Z</Time>
            <Position>
              <LatitudeDegrees>42.85125511698424816131591796875</LatitudeDegrees>
              <LongitudeDegrees>-0.13942063786089420318603515625</LongitudeDegrees>
            </Position>
            <AltitudeMeters>1502.5999755859375</AltitudeMeters>
            <DistanceMeters>408.92251887621</DistanceMeters>
          </Trackpoint>
          <Trackpoint>
            <Time>2022-07-09T07:25:43.000Z</Time>
            <Position>
              <LatitudeDegrees>42.851241789758205413818359375</LatitudeDegrees>
              <LongitudeDegrees>-0.13942901976406574249267578125</LongitudeDegrees>
            </Position>
            <AltitudeMeters>1501.4000244140625</AltitudeMeters>
            <DistanceMeters>410.55465629412</DistanceMeters>
          </Trackpoint>
          <Trackpoint>
            <Time>2022-07-09T07:25:49.000Z</Time>
            <Position>
              <LatitudeDegrees>42.8511822782456874847412109375</LatitudeDegrees>
              <LongitudeDegrees>-0.1394525729119777679443359375</LongitudeDegrees>
            </Position>
            <AltitudeMeters>1501.4000244140625</AltitudeMeters>
            <DistanceMeters>417.45178922794</DistanceMeters>
          </Trackpoint>
          <Trackpoint>
            <Time>2022-07-09T07:25:52.000Z</Time>
            <Position>
              <LatitudeDegrees>42.851151265203952789306640625</LatitudeDegrees>
              <LongitudeDegrees>-0.1394488848745822906494140625</LongitudeDegrees>
            </Position>
            <AltitudeMeters>1502</AltitudeMeters>
            <DistanceMeters>420.91733415919</DistanceMeters>
          </Trackpoint>
          <Trackpoint>
            <Time>2022-07-09T07:25:53.000Z</Time>
            <Position>
              <LatitudeDegrees>42.85113844089210033416748046875</LatitudeDegrees>
              <LongitudeDegrees>-0.1394482143223285675048828125</LongitudeDegrees>
            </Position>
            <AltitudeMeters>1502.4000244140625</AltitudeMeters>
            <DistanceMeters>422.34589892017</DistanceMeters>
          </Trackpoint>
          <Trackpoint>
            <Time>2022-07-09T07:25:54.000Z</Time>
            <Position>
              <LatitudeDegrees>42.85112637095153331756591796875</LatitudeDegrees>
              <LongitudeDegrees>-0.13945215381681919097900390625</LongitudeDegrees>
            </Position>
            <AltitudeMeters>1502.4000244140625</AltitudeMeters>
            <DistanceMeters>423.72296683906</DistanceMeters>
          </Trackpoint>
          <Trackpoint>
            <Time>2022-07-09T07:25:56.000Z</Time>
            <Position>
              <LatitudeDegrees>42.85110558383166790008544921875</LatitudeDegrees>
              <LongitudeDegrees>-0.13946254737675189971923828125</LongitudeDegrees>
            </Position>
            <AltitudeMeters>1503</AltitudeMeters>
            <DistanceMeters>426.19000383173</DistanceMeters>
          </Trackpoint>
          <Trackpoint>
            <Time>2022-07-09T07:25:59.000Z</Time>
            <Position>
              <LatitudeDegrees>42.85108446143567562103271484375</LatitudeDegrees>
              <LongitudeDegrees>-0.139471180737018585205078125</LongitudeDegrees>
            </Position>
            <AltitudeMeters>1503.4000244140625</AltitudeMeters>
            <DistanceMeters>428.64603540005</DistanceMeters>
          </Trackpoint>
          <Trackpoint>
            <Time>2022-07-09T07:26:03.000Z</Time>
            <Position>
              <LatitudeDegrees>42.8510610759258270263671875</LatitudeDegrees>
              <LongitudeDegrees>-0.139502696692943572998046875</LongitudeDegrees>
            </Position>
            <AltitudeMeters>1504.199951171875</AltitudeMeters>
            <DistanceMeters>432.30672296427</DistanceMeters>
          </Trackpoint>
          <Trackpoint>
            <Time>2022-07-09T07:26:04.000Z</Time>
            <Position>
              <LatitudeDegrees>42.8510570526123046875</LatitudeDegrees>
              <LongitudeDegrees>-0.13951015658676624298095703125</LongitudeDegrees>
            </Position>
            <AltitudeMeters>1505</AltitudeMeters>
            <DistanceMeters>433.06693667923</DistanceMeters>
          </Trackpoint>
          <Trackpoint>
            <Time>2022-07-09T07:26:05.000Z</Time>
            <Position>
              <LatitudeDegrees>42.85105235874652862548828125</LatitudeDegrees>
              <LongitudeDegrees>-0.139518789947032928466796875</LongitudeDegrees>
            </Position>
            <AltitudeMeters>1505</AltitudeMeters>
            <DistanceMeters>433.94303969699</DistanceMeters>
          </Trackpoint>
          <Trackpoint>
            <Time>2022-07-09T07:26:06.000Z</Time>
            <Position>
              <LatitudeDegrees>42.8510485030710697174072265625</LatitudeDegrees>
              <LongitudeDegrees>-0.1395363919436931610107421875</LongitudeDegrees>
            </Position>
            <AltitudeMeters>1505.4000244140625</AltitudeMeters>
            <DistanceMeters>435.43952189138</DistanceMeters>
          </Trackpoint>
          <Trackpoint>
            <Time>2022-07-09T07:26:10.000Z</Time>
            <Position>
              <LatitudeDegrees>42.85104691050946712493896484375</LatitudeDegrees>
              <LongitudeDegrees>-0.13960772193968296051025390625</LongitudeDegrees>
            </Position>
            <AltitudeMeters>1505.800048828125</AltitudeMeters>
            <DistanceMeters>441.26334942346</DistanceMeters>
          </Trackpoint>
          <Trackpoint>
            <Time>2022-07-09T07:26:12.000Z</Time>
            <Position>
              <LatitudeDegrees>42.8510417975485324859619140625</LatitudeDegrees>
              <LongitudeDegrees>-0.139638148248195648193359375</LongitudeDegrees>
            </Position>
            <AltitudeMeters>1506</AltitudeMeters>
            <DistanceMeters>443.80963984028</DistanceMeters>
          </Trackpoint>
          <Trackpoint>
            <Time>2022-07-09T07:26:15.000Z</Time>
            <Position>
              <LatitudeDegrees>42.85103685222566127777099609375</LatitudeDegrees>
              <LongitudeDegrees>-0.13969439081847667694091796875</LongitudeDegrees>
            </Position>
            <AltitudeMeters>1506.800048828125</AltitudeMeters>
            <DistanceMeters>448.4318861412</DistanceMeters>
          </Trackpoint>
          <Trackpoint>
            <Time>2022-07-09T07:26:16.000Z</Time>
            <Position>
              <LatitudeDegrees>42.85103618167340755462646484375</LatitudeDegrees>
              <LongitudeDegrees>-0.13969682157039642333984375</LongitudeDegrees>
            </Position>
            <AltitudeMeters>1506.800048828125</AltitudeMeters>
            <DistanceMeters>448.62193956994</DistanceMeters>
          </Trackpoint>
          <Trackpoint>
            <Time>2022-07-09T07:26:17.000Z</Time>
            <Position>
              <LatitudeDegrees>42.85103266127407550811767578125</LatitudeDegrees>
              <LongitudeDegrees>-0.13970327563583850860595703125</LongitudeDegrees>
            </Position>
            <AltitudeMeters>1507.199951171875</AltitudeMeters>
            <DistanceMeters>449.27340990147</DistanceMeters>
          </Trackpoint>
          <Trackpoint>
            <Time>2022-07-09T07:26:19.000Z</Time>
            <Position>
              <LatitudeDegrees>42.851034589111804962158203125</LatitudeDegrees>
              <LongitudeDegrees>-0.13973663561046123504638671875</LongitudeDegrees>
            </Position>
            <AltitudeMeters>1507.199951171875</AltitudeMeters>
            <DistanceMeters>452.00449817224</DistanceMeters>
          </Trackpoint>
          <Trackpoint>
            <Time>2022-07-09T07:26:22.000Z</Time>
            <Position>
              <LatitudeDegrees>42.85104691050946712493896484375</LatitudeDegrees>
              <LongitudeDegrees>-0.13979128561913967132568359375</LongitudeDegrees>
            </Position>
            <AltitudeMeters>1507.800048828125</AltitudeMeters>
            <DistanceMeters>456.66952595671</DistanceMeters>
          </Trackpoint>
          <Trackpoint>
            <Time>2022-07-09T07:26:27.000Z</Time>
            <Position>
              <LatitudeDegrees>42.8510548733174800872802734375</LatitudeDegrees>
              <LongitudeDegrees>-0.13986689038574695587158203125</LongitudeDegrees>
            </Position>
            <AltitudeMeters>1508</AltitudeMeters>
            <DistanceMeters>462.90229330853</DistanceMeters>
          </Trackpoint>
          <Trackpoint>
            <Time>2022-07-09T07:26:28.000Z</Time>
            <Position>
              <LatitudeDegrees>42.85104925744235515594482421875</LatitudeDegrees>
              <LongitudeDegrees>-0.13988231308758258819580078125</LongitudeDegrees>
            </Position>
            <AltitudeMeters>1508.199951171875</AltitudeMeters>
            <DistanceMeters>464.3053459322</DistanceMeters>
          </Trackpoint>
          <Trackpoint>
            <Time>2022-07-09T07:26:29.000Z</Time>
            <Position>
              <LatitudeDegrees>42.85104556940495967864990234375</LatitudeDegrees>
              <LongitudeDegrees>-0.1398937962949275970458984375</LongitudeDegrees>
            </Position>
            <AltitudeMeters>1508.199951171875</AltitudeMeters>
            <DistanceMeters>465.32881496812</DistanceMeters>
          </Trackpoint>
          <Trackpoint>
            <Time>2022-07-09T07:26:31.000Z</Time>
            <Position>
              <LatitudeDegrees>42.85104095935821533203125</LatitudeDegrees>
              <LongitudeDegrees>-0.13988994061946868896484375</LongitudeDegrees>
            </Position>
            <AltitudeMeters>1508.199951171875</AltitudeMeters>
            <DistanceMeters>465.92225660916</DistanceMeters>
          </Trackpoint>
          <Trackpoint>
            <Time>2022-07-09T07:26:34.000Z</Time>
            <Position>
              <LatitudeDegrees>42.85103148780763149261474609375</LatitudeDegrees>
              <LongitudeDegrees>-0.139903686940670013427734375</LongitudeDegrees>
            </Position>
            <AltitudeMeters>1508.4000244140625</AltitudeMeters>
            <DistanceMeters>467.46039835435</DistanceMeters>
          </Trackpoint>
          <Trackpoint>
            <Time>2022-07-09T07:26:38.000Z</Time>
            <Position>
              <LatitudeDegrees>42.85101137124001979827880859375</LatitudeDegrees>
              <LongitudeDegrees>-0.1399142481386661529541015625</LongitudeDegrees>
            </Position>
            <AltitudeMeters>1508.5999755859375</AltitudeMeters>
            <DistanceMeters>469.85876419275</DistanceMeters>
          </Trackpoint>
          <Trackpoint>
            <Time>2022-07-09T07:26:40.000Z</Time>
            <Position>
              <LatitudeDegrees>42.85099276341497898101806640625</LatitudeDegrees>
              <LongitudeDegrees>-0.13993595726788043975830078125</LongitudeDegrees>
            </Position>
            <AltitudeMeters>1508.5999755859375</AltitudeMeters>
            <DistanceMeters>472.58323163373</DistanceMeters>
          </Trackpoint>
          <Trackpoint>
            <Time>2022-07-09T07:26:46.000Z</Time>
            <Position>
              <LatitudeDegrees>42.8509573079645633697509765625</LatitudeDegrees>
              <LongitudeDegrees>-0.14000183902680873870849609375</LongitudeDegrees>
            </Position>
            <AltitudeMeters>1509.199951171875</AltitudeMeters>
            <DistanceMeters>479.2520491066</DistanceMeters>
          </Trackpoint>
          <Trackpoint>
            <Time>2022-07-09T07:26:49.000Z</Time>
            <Position>
              <LatitudeDegrees>42.85094113089144229888916015625</LatitudeDegrees>
              <LongitudeDegrees>-0.1400342769920825958251953125</LongitudeDegrees>
            </Position>
            <AltitudeMeters>1509</AltitudeMeters>
            <DistanceMeters>482.45347640765</DistanceMeters>
          </Trackpoint>
          <Trackpoint>
            <Time>2022-07-09T07:26:52.000Z</Time>
            <Position>
              <LatitudeDegrees>42.8509189188480377197265625</LatitudeDegrees>
              <LongitudeDegrees>-0.14005891978740692138671875</LongitudeDegrees>
            </Position>
            <AltitudeMeters>1509</AltitudeMeters>
            <DistanceMeters>485.64076930279</DistanceMeters>
          </Trackpoint>
          <Trackpoint>
            <Time>2022-07-09T07:26:57.000Z</Time>
            <Position>
              <LatitudeDegrees>42.85087390802800655364990234375</LatitudeDegrees>
              <LongitudeDegrees>-0.1401160843670368194580078125</LongitudeDegrees>
            </Position>
            <AltitudeMeters>1508.800048828125</AltitudeMeters>
            <DistanceMeters>492.48533185939</DistanceMeters>
          </Trackpoint>
          <Trackpoint>
            <Time>2022-07-09T07:26:59.000Z</Time>
            <Position>
              <LatitudeDegrees>42.850854210555553436279296875</LatitudeDegrees>
              <LongitudeDegrees>-0.14012857340276241302490234375</LongitudeDegrees>
            </Position>
            <AltitudeMeters>1508.800048828125</AltitudeMeters>
            <DistanceMeters>494.90431708789</DistanceMeters>
          </Trackpoint>
          <Trackpoint>
            <Time>2022-07-09T07:27:03.000Z</Time>
            <Position>
              <LatitudeDegrees>42.85082261078059673309326171875</LatitudeDegrees>
              <LongitudeDegrees>-0.14014751650393009185791015625</LongitudeDegrees>
            </Position>
            <AltitudeMeters>1508.800048828125</AltitudeMeters>
            <DistanceMeters>498.74555971358</DistanceMeters>
          </Trackpoint>
          <Trackpoint>
            <Time>2022-07-09T07:27:04.000Z</Time>
            <Position>
              <LatitudeDegrees>42.85081657581031322479248046875</LatitudeDegrees>
              <LongitudeDegrees>-0.14015539549291133880615234375</LongitudeDegrees>
            </Position>
            <AltitudeMeters>1508.800048828125</AltitudeMeters>
            <DistanceMeters>499.67662756214</DistanceMeters>
          </Trackpoint>
          <Trackpoint>
            <Time>2022-07-09T07:27:06.000Z</Time>
            <Position>
              <LatitudeDegrees>42.8508196771144866943359375</LatitudeDegrees>
              <LongitudeDegrees>-0.14015925116837024688720703125</LongitudeDegrees>
            </Position>
            <AltitudeMeters>1508.800048828125</AltitudeMeters>
            <DistanceMeters>500.14216148642</DistanceMeters>
          </Trackpoint>
          <Trackpoint>
            <Time>2022-07-09T07:27:10.000Z</Time>
            <Position>
              <LatitudeDegrees>42.8508419729769229888916015625</LatitudeDegrees>
              <LongitudeDegrees>-0.140147767961025238037109375</LongitudeDegrees>
            </Position>
            <AltitudeMeters>1508.4000244140625</AltitudeMeters>
            <DistanceMeters>502.79270850041</DistanceMeters>
          </Trackpoint>
          <Trackpoint>
            <Time>2022-07-09T07:27:13.000Z</Time>
            <Position>
              <LatitudeDegrees>42.85084188915789127349853515625</LatitudeDegrees>
              <LongitudeDegrees>-0.140143074095249176025390625</LongitudeDegrees>
            </Position>
            <AltitudeMeters>1508.5999755859375</AltitudeMeters>
            <DistanceMeters>503.17281535789</DistanceMeters>
          </Trackpoint>
          <Trackpoint>
            <Time>2022-07-09T07:27:18.000Z</Time>
            <Position>
              <LatitudeDegrees>42.85082596354186534881591796875</LatitudeDegrees>
              <LongitudeDegrees>-0.140132345259189605712890625</LongitudeDegrees>
            </Position>
            <AltitudeMeters>1508.5999755859375</AltitudeMeters>
            <DistanceMeters>505.15019319236</DistanceMeters>
          </Trackpoint>
          <Trackpoint>
            <Time>2022-07-09T07:27:19.000Z</Time>
            <Position>
              <LatitudeDegrees>42.850824706256389617919921875</LatitudeDegrees>
              <LongitudeDegrees>-0.1401191018521785736083984375</LongitudeDegrees>
            </Position>
            <AltitudeMeters>1508.5999755859375</AltitudeMeters>
            <DistanceMeters>506.24196701994</DistanceMeters>
          </Trackpoint>
          <Trackpoint>
            <Time>2022-07-09T07:27:20.000Z</Time>
            <Position>
              <LatitudeDegrees>42.85082143731415271759033203125</LatitudeDegrees>
              <LongitudeDegrees>-0.14009202830493450164794921875</LongitudeDegrees>
            </Position>
            <AltitudeMeters>1508.5999755859375</AltitudeMeters>
            <DistanceMeters>508.48266389878</DistanceMeters>
          </Trackpoint>
          <Trackpoint>
            <Time>2022-07-09T07:27:24.000Z</Time>
            <Position>
              <LatitudeDegrees>42.8507970459759235382080078125</LatitudeDegrees>
              <LongitudeDegrees>-0.14011784456670284271240234375</LongitudeDegrees>
            </Position>
            <AltitudeMeters>1508.4000244140625</AltitudeMeters>
            <DistanceMeters>511.91679840923</DistanceMeters>
          </Trackpoint>
          <Trackpoint>
            <Time>2022-07-09T07:27:30.000Z</Time>
            <Position>
              <LatitudeDegrees>42.850771062076091766357421875</LatitudeDegrees>
              <LongitudeDegrees>-0.1401680521667003631591796875</LongitudeDegrees>
            </Position>
            <AltitudeMeters>1508.199951171875</AltitudeMeters>
            <DistanceMeters>516.93255288616</DistanceMeters>
          </Trackpoint>
          <Trackpoint>
            <Time>2022-07-09T07:27:32.000Z</Time>
            <Position>
              <LatitudeDegrees>42.85080333240330219268798828125</LatitudeDegrees>
              <LongitudeDegrees>-0.1401628553867340087890625</LongitudeDegrees>
            </Position>
            <AltitudeMeters>1508</AltitudeMeters>
            <DistanceMeters>520.54856597945</DistanceMeters>
          </Trackpoint>
          <Trackpoint>
            <Time>2022-07-09T07:27:38.000Z</Time>
            <Position>
              <LatitudeDegrees>42.85073476843535900115966796875</LatitudeDegrees>
              <LongitudeDegrees>-0.140212811529636383056640625</LongitudeDegrees>
            </Position>
            <AltitudeMeters>1508.5999755859375</AltitudeMeters>
            <DistanceMeters>529.20069483427</DistanceMeters>
          </Trackpoint>
          <Trackpoint>
            <Time>2022-07-09T07:27:41.000Z</Time>
            <Position>
              <LatitudeDegrees>42.8507159091532230377197265625</LatitudeDegrees>
              <LongitudeDegrees>-0.14022949151694774627685546875</LongitudeDegrees>
            </Position>
            <AltitudeMeters>1509.4000244140625</AltitudeMeters>
            <DistanceMeters>531.70226293761</DistanceMeters>
          </Trackpoint>
          <Trackpoint>
            <Time>2022-07-09T07:27:44.000Z</Time>
            <Position>
              <LatitudeDegrees>42.85070828162133693695068359375</LatitudeDegrees>
              <LongitudeDegrees>-0.1402183435857295989990234375</LongitudeDegrees>
            </Position>
            <AltitudeMeters>1509.5999755859375</AltitudeMeters>
            <DistanceMeters>532.94489847223</DistanceMeters>
          </Trackpoint>
          <Trackpoint>
            <Time>2022-07-09T07:27:49.000Z</Time>
            <Position>
              <LatitudeDegrees>42.85066670738160610198974609375</LatitudeDegrees>
              <LongitudeDegrees>-0.1402585767209529876708984375</LongitudeDegrees>
            </Position>
            <AltitudeMeters>1510.5999755859375</AltitudeMeters>
            <DistanceMeters>538.6195132256</DistanceMeters>
          </Trackpoint>
          <Trackpoint>
            <Time>2022-07-09T07:27:52.000Z</Time>
            <Position>
              <LatitudeDegrees>42.85065094940364360809326171875</LatitudeDegrees>
              <LongitudeDegrees>-0.1402827166020870208740234375</LongitudeDegrees>
            </Position>
            <AltitudeMeters>1511.199951171875</AltitudeMeters>
            <DistanceMeters>541.25639753513</DistanceMeters>
          </Trackpoint>
          <Trackpoint>
            <Time>2022-07-09T07:27:53.000Z</Time>
            <Position>
              <LatitudeDegrees>42.8506421484053134918212890625</LatitudeDegrees>
              <LongitudeDegrees>-0.140294618904590606689453125</LongitudeDegrees>
            </Position>
            <AltitudeMeters>1511.4000244140625</AltitudeMeters>
            <DistanceMeters>542.63346545402</DistanceMeters>
          </Trackpoint>
          <Trackpoint>
            <Time>2022-07-09T07:27:57.000Z</Time>
            <Position>
              <LatitudeDegrees>42.85060367546975612640380859375</LatitudeDegrees>
              <LongitudeDegrees>-0.14034264720976352691650390625</LongitudeDegrees>
            </Position>
            <AltitudeMeters>1511.800048828125</AltitudeMeters>
            <DistanceMeters>548.43865669022</DistanceMeters>
          </Trackpoint>
          <Trackpoint>
            <Time>2022-07-09T07:27:58.000Z</Time>
            <Position>
              <LatitudeDegrees>42.850596047937870025634765625</LatitudeDegrees>
              <LongitudeDegrees>-0.14034717343747615814208984375</LongitudeDegrees>
            </Position>
            <AltitudeMeters>1512.199951171875</AltitudeMeters>
            <DistanceMeters>549.36486253245</DistanceMeters>
          </Trackpoint>
          <Trackpoint>
            <Time>2022-07-09T07:28:00.000Z</Time>
            <Position>
              <LatitudeDegrees>42.8505854867398738861083984375</LatitudeDegrees>
              <LongitudeDegrees>-0.140362344682216644287109375</LongitudeDegrees>
            </Position>
            <AltitudeMeters>1512.4000244140625</AltitudeMeters>
            <DistanceMeters>551.07534339111</DistanceMeters>
          </Trackpoint>
          <Trackpoint>
            <Time>2022-07-09T07:28:02.000Z</Time>
            <Position>
              <LatitudeDegrees>42.85057132132351398468017578125</LatitudeDegrees>
              <LongitudeDegrees>-0.14037810266017913818359375</LongitudeDegrees>
            </Position>
            <AltitudeMeters>1512.4000244140625</AltitudeMeters>
            <DistanceMeters>553.11122282952</DistanceMeters>
          </Trackpoint>
          <Trackpoint>
            <Time>2022-07-09T07:28:05.000Z</Time>
            <Position>
              <LatitudeDegrees>42.8505398891866207122802734375</LatitudeDegrees>
              <LongitudeDegrees>-0.14039729721844196319580078125</LongitudeDegrees>
            </Position>
            <AltitudeMeters>1512.4000244140625</AltitudeMeters>
            <DistanceMeters>556.9430506307</DistanceMeters>
          </Trackpoint>
          <Trackpoint>
            <Time>2022-07-09T07:28:11.000Z</Time>
            <Position>
              <LatitudeDegrees>42.850479371845722198486328125</LatitudeDegrees>
              <LongitudeDegrees>-0.1404302380979061126708984375</LongitudeDegrees>
            </Position>
            <AltitudeMeters>1511.800048828125</AltitudeMeters>
            <DistanceMeters>564.19502727225</DistanceMeters>
          </Trackpoint>
          <Trackpoint>
            <Time>2022-07-09T07:28:13.000Z</Time>
            <Position>
              <LatitudeDegrees>42.8504617698490619659423828125</LatitudeDegrees>
              <LongitudeDegrees>-0.1404433138668537139892578125</LongitudeDegrees>
            </Position>
            <AltitudeMeters>1511.5999755859375</AltitudeMeters>
            <DistanceMeters>566.42764954148</DistanceMeters>
          </Trackpoint>
          <Trackpoint>
            <Time>2022-07-09T07:28:15.000Z</Time>
            <Position>
              <LatitudeDegrees>42.85044944845139980316162109375</LatitudeDegrees>
              <LongitudeDegrees>-0.140452198684215545654296875</LongitudeDegrees>
            </Position>
            <AltitudeMeters>1511.800048828125</AltitudeMeters>
            <DistanceMeters>567.98039884853</DistanceMeters>
          </Trackpoint>
          <Trackpoint>
            <Time>2022-07-09T07:28:21.000Z</Time>
            <Position>
              <LatitudeDegrees>42.8504108078777790069580078125</LatitudeDegrees>
              <LongitudeDegrees>-0.1404895819723606109619140625</LongitudeDegrees>
            </Position>
            <AltitudeMeters>1512</AltitudeMeters>
            <DistanceMeters>573.252454927</DistanceMeters>
          </Trackpoint>
          <Trackpoint>
            <Time>2022-07-09T07:28:24.000Z</Time>
            <Position>
              <LatitudeDegrees>42.85039077512919902801513671875</LatitudeDegrees>
              <LongitudeDegrees>-0.1405120454728603363037109375</LongitudeDegrees>
            </Position>
            <AltitudeMeters>1512.5999755859375</AltitudeMeters>
            <DistanceMeters>576.13945346488</DistanceMeters>
          </Trackpoint>
          <Trackpoint>
            <Time>2022-07-09T07:28:25.000Z</Time>
            <Position>
              <LatitudeDegrees>42.85037183202803134918212890625</LatitudeDegrees>
              <LongitudeDegrees>-0.14052134938538074493408203125</LongitudeDegrees>
            </Position>
            <AltitudeMeters>1512.5999755859375</AltitudeMeters>
            <DistanceMeters>578.38015034372</DistanceMeters>
          </Trackpoint>
          <Trackpoint>
            <Time>2022-07-09T07:28:26.000Z</Time>
            <Position>
              <LatitudeDegrees>42.8503618575632572174072265625</LatitudeDegrees>
              <LongitudeDegrees>-0.1405194215476512908935546875</LongitudeDegrees>
            </Position>
            <AltitudeMeters>1512.800048828125</AltitudeMeters>
            <DistanceMeters>579.5045215912</DistanceMeters>
          </Trackpoint>
          <Trackpoint>
            <Time>2022-07-09T07:28:29.000Z</Time>
            <Position>
              <LatitudeDegrees>42.85034283064305782318115234375</LatitudeDegrees>
              <LongitudeDegrees>-0.14052034355700016021728515625</LongitudeDegrees>
            </Position>
            <AltitudeMeters>1513</AltitudeMeters>
            <DistanceMeters>581.62512953919</DistanceMeters>
          </Trackpoint>
          <Trackpoint>
            <Time>2022-07-09T07:28:31.000Z</Time>
            <Position>
              <LatitudeDegrees>42.850336544215679168701171875</LatitudeDegrees>
              <LongitudeDegrees>-0.14052520506083965301513671875</LongitudeDegrees>
            </Position>
            <AltitudeMeters>1513.199951171875</AltitudeMeters>
            <DistanceMeters>582.43145794869</DistanceMeters>
          </Trackpoint>
          <Trackpoint>
            <Time>2022-07-09T07:28:32.000Z</Time>
            <Position>
              <LatitudeDegrees>42.850337885320186614990234375</LatitudeDegrees>
              <LongitudeDegrees>-0.14053056947886943817138671875</LongitudeDegrees>
            </Position>
            <AltitudeMeters>1513.199951171875</AltitudeMeters>
            <DistanceMeters>582.89699187297</DistanceMeters>
          </Trackpoint>
          <Trackpoint>
            <Time>2022-07-09T07:28:34.000Z</Time>
            <Position>
              <LatitudeDegrees>42.85033696331083774566650390625</LatitudeDegrees>
              <LongitudeDegrees>-0.14055253006517887115478515625</LongitudeDegrees>
            </Position>
            <AltitudeMeters>1513.5999755859375</AltitudeMeters>
            <DistanceMeters>584.69246877076</DistanceMeters>
          </Trackpoint>
          <Trackpoint>
            <Time>2022-07-09T07:28:36.000Z</Time>
            <Position>
              <LatitudeDegrees>42.85035624168813228607177734375</LatitudeDegrees>
              <LongitudeDegrees>-0.14057650230824947357177734375</LongitudeDegrees>
            </Position>
            <AltitudeMeters>1514</AltitudeMeters>
            <DistanceMeters>587.59661948976</DistanceMeters>
          </Trackpoint>
          <Trackpoint>
            <Time>2022-07-09T07:28:37.000Z</Time>
            <Position>
              <LatitudeDegrees>42.8503715805709362030029296875</LatitudeDegrees>
              <LongitudeDegrees>-0.14058538712561130523681640625</LongitudeDegrees>
            </Position>
            <AltitudeMeters>1514</AltitudeMeters>
            <DistanceMeters>589.44659218476</DistanceMeters>
          </Trackpoint>
          <Trackpoint>
            <Time>2022-07-09T07:28:38.000Z</Time>
            <Position>
              <LatitudeDegrees>42.85039295442402362823486328125</LatitudeDegrees>
              <LongitudeDegrees>-0.140586309134960174560546875</LongitudeDegrees>
            </Position>
            <AltitudeMeters>1514</AltitudeMeters>
            <DistanceMeters>591.82605807659</DistanceMeters>
          </Trackpoint>
          <Trackpoint>
            <Time>2022-07-09T07:28:42.000Z</Time>
            <Position>
              <LatitudeDegrees>42.85044894553720951080322265625</LatitudeDegrees>
              <LongitudeDegrees>-0.140521265566349029541015625</LongitudeDegrees>
            </Position>
            <AltitudeMeters>1514</AltitudeMeters>
            <DistanceMeters>600.01215588266</DistanceMeters>
          </Trackpoint>
          <Trackpoint>
            <Time>2022-07-09T07:28:45.000Z</Time>
            <Position>
              <LatitudeDegrees>42.8505009971559047698974609375</LatitudeDegrees>
              <LongitudeDegrees>-0.1405133865773677825927734375</LongitudeDegrees>
            </Position>
            <AltitudeMeters>1514</AltitudeMeters>
            <DistanceMeters>605.84063317799</DistanceMeters>
          </Trackpoint>
          <Trackpoint>
            <Time>2022-07-09T07:28:47.000Z</Time>
            <Position>
              <LatitudeDegrees>42.8505345247685909271240234375</LatitudeDegrees>
              <LongitudeDegrees>-0.140549428761005401611328125</LongitudeDegrees>
            </Position>
            <AltitudeMeters>1514.199951171875</AltitudeMeters>
            <DistanceMeters>610.5910185343</DistanceMeters>
          </Trackpoint>
          <Trackpoint>
            <Time>2022-07-09T07:28:51.000Z</Time>
            <Position>
              <LatitudeDegrees>42.850578613579273223876953125</LatitudeDegrees>
              <LongitudeDegrees>-0.1405276358127593994140625</LongitudeDegrees>
            </Position>
            <AltitudeMeters>1514.4000244140625</AltitudeMeters>
            <DistanceMeters>615.80970712004</DistanceMeters>
          </Trackpoint>
          <Trackpoint>
            <Time>2022-07-09T07:28:53.000Z</Time>
            <Position>
              <LatitudeDegrees>42.85059981979429721832275390625</LatitudeDegrees>
              <LongitudeDegrees>-0.14051849953830242156982421875</LongitudeDegrees>
            </Position>
            <AltitudeMeters>1514.5999755859375</AltitudeMeters>
            <DistanceMeters>618.28405386797</DistanceMeters>
          </Trackpoint>
          <Trackpoint>
            <Time>2022-07-09T07:28:54.000Z</Time>
            <Position>
              <LatitudeDegrees>42.85060384310781955718994140625</LatitudeDegrees>
              <LongitudeDegrees>-0.14052025973796844482421875</LongitudeDegrees>
            </Position>
            <AltitudeMeters>1514.5999755859375</AltitudeMeters>
            <DistanceMeters>618.74958779225</DistanceMeters>
          </Trackpoint>
          <Trackpoint>
            <Time>2022-07-09T07:29:00.000Z</Time>
            <Position>
              <LatitudeDegrees>42.85057668574154376983642578125</LatitudeDegrees>
              <LongitudeDegrees>-0.140521265566349029541015625</LongitudeDegrees>
            </Position>
            <AltitudeMeters>1514.4000244140625</AltitudeMeters>
            <DistanceMeters>621.7725726353</DistanceMeters>
          </Trackpoint>
          <Trackpoint>
            <Time>2022-07-09T07:29:01.000Z</Time>
            <Position>
              <LatitudeDegrees>42.850571572780609130859375</LatitudeDegrees>
              <LongitudeDegrees>-0.14052671380341053009033203125</LongitudeDegrees>
            </Position>
            <AltitudeMeters>1514.4000244140625</AltitudeMeters>
            <DistanceMeters>622.49627453093</DistanceMeters>
          </Trackpoint>
          <Trackpoint>
            <Time>2022-07-09T07:29:07.000Z</Time>
            <Position>
              <LatitudeDegrees>42.8505402244627475738525390625</LatitudeDegrees>
              <LongitudeDegrees>-0.14055018313229084014892578125</LongitudeDegrees>
            </Position>
            <AltitudeMeters>1513.800048828125</AltitudeMeters>
            <DistanceMeters>626.47720208103</DistanceMeters>
          </Trackpoint>
          <Trackpoint>
            <Time>2022-07-09T07:29:08.000Z</Time>
            <Position>
              <LatitudeDegrees>42.85053309984505176544189453125</LatitudeDegrees>
              <LongitudeDegrees>-0.140557475388050079345703125</LongitudeDegrees>
            </Position>
            <AltitudeMeters>1513.800048828125</AltitudeMeters>
            <DistanceMeters>627.46931010559</DistanceMeters>
          </Trackpoint>
          <Trackpoint>
            <Time>2022-07-09T07:29:09.000Z</Time>
            <Position>
              <LatitudeDegrees>42.850516252219676971435546875</LatitudeDegrees>
              <LongitudeDegrees>-0.14057147316634654998779296875</LongitudeDegrees>
            </Position>
            <AltitudeMeters>1513.800048828125</AltitudeMeters>
            <DistanceMeters>629.66728437694</DistanceMeters>
          </Trackpoint>
          <Trackpoint>
            <Time>2022-07-09T07:29:11.000Z</Time>
            <Position>
              <LatitudeDegrees>42.85047241486608982086181640625</LatitudeDegrees>
              <LongitudeDegrees>-0.140586979687213897705078125</LongitudeDegrees>
            </Position>
            <AltitudeMeters>1512.800048828125</AltitudeMeters>
            <DistanceMeters>634.70818063785</DistanceMeters>
          </Trackpoint>
          <Trackpoint>
            <Time>2022-07-09T07:29:16.000Z</Time>
            <Position>
              <LatitudeDegrees>42.85042740404605865478515625</LatitudeDegrees>
              <LongitudeDegrees>-0.14060198329389095306396484375</LongitudeDegrees>
            </Position>
            <AltitudeMeters>1513.199951171875</AltitudeMeters>
            <DistanceMeters>639.86595197865</DistanceMeters>
          </Trackpoint>
          <Trackpoint>
            <Time>2022-07-09T07:29:18.000Z</Time>
            <Position>
              <LatitudeDegrees>42.850405275821685791015625</LatitudeDegrees>
              <LongitudeDegrees>-0.14061472378671169281005859375</LongitudeDegrees>
            </Position>
            <AltitudeMeters>1514</AltitudeMeters>
            <DistanceMeters>642.54024077076</DistanceMeters>
          </Trackpoint>
          <Trackpoint>
            <Time>2022-07-09T07:29:22.000Z</Time>
            <Position>
              <LatitudeDegrees>42.85035305656492710113525390625</LatitudeDegrees>
              <LongitudeDegrees>-0.140637271106243133544921875</LongitudeDegrees>
            </Position>
            <AltitudeMeters>1514.5999755859375</AltitudeMeters>
            <DistanceMeters>648.63678033376</DistanceMeters>
          </Trackpoint>
          <Trackpoint>
            <Time>2022-07-09T07:29:28.000Z</Time>
            <Position>
              <LatitudeDegrees>42.85030142404139041900634765625</LatitudeDegrees>
              <LongitudeDegrees>-0.1406310684978961944580078125</LongitudeDegrees>
            </Position>
            <AltitudeMeters>1513.4000244140625</AltitudeMeters>
            <DistanceMeters>654.4060837382</DistanceMeters>
          </Trackpoint>
          <Trackpoint>
            <Time>2022-07-09T07:29:29.000Z</Time>
            <Position>
              <LatitudeDegrees>42.85029388032853603363037109375</LatitudeDegrees>
              <LongitudeDegrees>-0.1406297273933887481689453125</LongitudeDegrees>
            </Position>
            <AltitudeMeters>1513.5999755859375</AltitudeMeters>
            <DistanceMeters>655.25069965036</DistanceMeters>
          </Trackpoint>
          <Trackpoint>
            <Time>2022-07-09T07:29:33.000Z</Time>
            <Position>
              <LatitudeDegrees>42.850271500647068023681640625</LatitudeDegrees>
              <LongitudeDegrees>-0.140668787062168121337890625</LongitudeDegrees>
            </Position>
            <AltitudeMeters>1514.800048828125</AltitudeMeters>
            <DistanceMeters>659.29687421319</DistanceMeters>
          </Trackpoint>
          <Trackpoint>
            <Time>2022-07-09T07:29:34.000Z</Time>
            <Position>
              <LatitudeDegrees>42.85026722587645053863525390625</LatitudeDegrees>
              <LongitudeDegrees>-0.1406890712678432464599609375</LongitudeDegrees>
            </Position>
            <AltitudeMeters>1515.199951171875</AltitudeMeters>
            <DistanceMeters>661.01788120725</DistanceMeters>
          </Trackpoint>
          <Trackpoint>
            <Time>2022-07-09T07:29:36.000Z</Time>
            <Position>
              <LatitudeDegrees>42.85025683231651782989501953125</LatitudeDegrees>
              <LongitudeDegrees>-0.14071882702410221099853515625</LongitudeDegrees>
            </Position>
            <AltitudeMeters>1515.5999755859375</AltitudeMeters>
            <DistanceMeters>663.70900017676</DistanceMeters>
          </Trackpoint>
          <Trackpoint>
            <Time>2022-07-09T07:29:38.000Z</Time>
            <Position>
              <LatitudeDegrees>42.85025163553655147552490234375</LatitudeDegrees>
              <LongitudeDegrees>-0.14073844067752361297607421875</LongitudeDegrees>
            </Position>
            <AltitudeMeters>1516.4000244140625</AltitudeMeters>
            <DistanceMeters>665.41154372643</DistanceMeters>
          </Trackpoint>
          <Trackpoint>
            <Time>2022-07-09T07:29:42.000Z</Time>
            <Position>
              <LatitudeDegrees>42.85024576820433139801025390625</LatitudeDegrees>
              <LongitudeDegrees>-0.1407782547175884246826171875</LongitudeDegrees>
            </Position>
            <AltitudeMeters>1517.4000244140625</AltitudeMeters>
            <DistanceMeters>668.72523848543</DistanceMeters>
          </Trackpoint>
          <Trackpoint>
            <Time>2022-07-09T07:29:43.000Z</Time>
            <Position>
              <LatitudeDegrees>42.85024610348045825958251953125</LatitudeDegrees>
              <LongitudeDegrees>-0.14079057611525058746337890625</LongitudeDegrees>
            </Position>
            <AltitudeMeters>1517.5999755859375</AltitudeMeters>
            <DistanceMeters>669.73538631529</DistanceMeters>
          </Trackpoint>
          <Trackpoint>
            <Time>2022-07-09T07:29:49.000Z</Time>
            <Position>
              <LatitudeDegrees>42.850242666900157928466796875</LatitudeDegrees>
              <LongitudeDegrees>-0.1408751495182514190673828125</LongitudeDegrees>
            </Position>
            <AltitudeMeters>1518.199951171875</AltitudeMeters>
            <DistanceMeters>676.64690600263</DistanceMeters>
          </Trackpoint>
          <Trackpoint>
            <Time>2022-07-09T07:29:50.000Z</Time>
            <Position>
              <LatitudeDegrees>42.8502408228814601898193359375</LatitudeDegrees>
              <LongitudeDegrees>-0.140886045992374420166015625</LongitudeDegrees>
            </Position>
            <AltitudeMeters>1518.199951171875</AltitudeMeters>
            <DistanceMeters>677.5583702273</DistanceMeters>
          </Trackpoint>
          <Trackpoint>
            <Time>2022-07-09T07:29:52.000Z</Time>
            <Position>
              <LatitudeDegrees>42.85022464580833911895751953125</LatitudeDegrees>
              <LongitudeDegrees>-0.1409153826534748077392578125</LongitudeDegrees>
            </Position>
            <AltitudeMeters>1518.4000244140625</AltitudeMeters>
            <DistanceMeters>680.55435019807</DistanceMeters>
          </Trackpoint>
          <Trackpoint>
            <Time>2022-07-09T07:29:54.000Z</Time>
            <Position>
              <LatitudeDegrees>42.8502134978771209716796875</LatitudeDegrees>
              <LongitudeDegrees>-0.140941701829433441162109375</LongitudeDegrees>
            </Position>
            <AltitudeMeters>1518.5999755859375</AltitudeMeters>
            <DistanceMeters>683.03598517018</DistanceMeters>
          </Trackpoint>
          <Trackpoint>
            <Time>2022-07-09T07:29:55.000Z</Time>
            <Position>
              <LatitudeDegrees>42.85020872019231319427490234375</LatitudeDegrees>
              <LongitudeDegrees>-0.140957124531269073486328125</LongitudeDegrees>
            </Position>
            <AltitudeMeters>1518.800048828125</AltitudeMeters>
            <DistanceMeters>684.39987510249</DistanceMeters>
          </Trackpoint>
          <Trackpoint>
            <Time>2022-07-09T07:30:01.000Z</Time>
            <Position>
              <LatitudeDegrees>42.85019648261368274688720703125</LatitudeDegrees>
              <LongitudeDegrees>-0.14103398658335208892822265625</LongitudeDegrees>
            </Position>
            <AltitudeMeters>1519.199951171875</AltitudeMeters>
            <DistanceMeters>690.81822448043</DistanceMeters>
          </Trackpoint>
          <Trackpoint>
            <Time>2022-07-09T07:30:03.000Z</Time>
            <Position>
              <LatitudeDegrees>42.85018759779632091522216796875</LatitudeDegrees>
              <LongitudeDegrees>-0.14105494134128093719482421875</LongitudeDegrees>
            </Position>
            <AltitudeMeters>1519.5999755859375</AltitudeMeters>
            <DistanceMeters>692.79560231489</DistanceMeters>
          </Trackpoint>
          <Trackpoint>
            <Time>2022-07-09T07:30:05.000Z</Time>
            <Position>
              <LatitudeDegrees>42.85016831941902637481689453125</LatitudeDegrees>
              <LongitudeDegrees>-0.14107656665146350860595703125</LongitudeDegrees>
            </Position>
            <AltitudeMeters>1520</AltitudeMeters>
            <DistanceMeters>695.57584428926</DistanceMeters>
          </Trackpoint>
          <Trackpoint>
            <Time>2022-07-09T07:30:07.000Z</Time>
            <Position>
              <LatitudeDegrees>42.85014979541301727294921875</LatitudeDegrees>
              <LongitudeDegrees>-0.1411177217960357666015625</LongitudeDegrees>
            </Position>
            <AltitudeMeters>1520.199951171875</AltitudeMeters>
            <DistanceMeters>699.51687606832</DistanceMeters>
          </Trackpoint>
          <Trackpoint>
            <Time>2022-07-09T07:30:09.000Z</Time>
            <Position>
              <LatitudeDegrees>42.85014920867979526519775390625</LatitudeDegrees>
              <LongitudeDegrees>-0.1411701925098896026611328125</LongitudeDegrees>
            </Position>
            <AltitudeMeters>1520.199951171875</AltitudeMeters>
            <DistanceMeters>703.7983542221</DistanceMeters>
          </Trackpoint>
          <Trackpoint>
            <Time>2022-07-09T07:30:13.000Z</Time>
            <Position>
              <LatitudeDegrees>42.85017929971218109130859375</LatitudeDegrees>
              <LongitudeDegrees>-0.1412335596978664398193359375</LongitudeDegrees>
            </Position>
            <AltitudeMeters>1519.4000244140625</AltitudeMeters>
            <DistanceMeters>709.95825529415</DistanceMeters>
          </Trackpoint>
          <Trackpoint>
            <Time>2022-07-09T07:30:16.000Z</Time>
            <Position>
              <LatitudeDegrees>42.8501871787011623382568359375</LatitudeDegrees>
              <LongitudeDegrees>-0.14126851223409175872802734375</LongitudeDegrees>
            </Position>
            <AltitudeMeters>1518.800048828125</AltitudeMeters>
            <DistanceMeters>712.94215465132</DistanceMeters>
          </Trackpoint>
          <Trackpoint>
            <Time>2022-07-09T07:30:20.000Z</Time>
            <Position>
              <LatitudeDegrees>42.85019195638597011566162109375</LatitudeDegrees>
              <LongitudeDegrees>-0.14131511561572551727294921875</LongitudeDegrees>
            </Position>
            <AltitudeMeters>1518.4000244140625</AltitudeMeters>
            <DistanceMeters>716.78339727701</DistanceMeters>
          </Trackpoint>
          <Trackpoint>
            <Time>2022-07-09T07:30:22.000Z</Time>
            <Position>
              <LatitudeDegrees>42.85019262693822383880615234375</LatitudeDegrees>
              <LongitudeDegrees>-0.141339339315891265869140625</LongitudeDegrees>
            </Position>
            <AltitudeMeters>1518</AltitudeMeters>
            <DistanceMeters>718.76077511148</DistanceMeters>
          </Trackpoint>
          <Trackpoint>
            <Time>2022-07-09T07:30:24.000Z</Time>
            <Position>
              <LatitudeDegrees>42.8501861728727817535400390625</LatitudeDegrees>
              <LongitudeDegrees>-0.14136373065412044525146484375</LongitudeDegrees>
            </Position>
            <AltitudeMeters>1517.800048828125</AltitudeMeters>
            <DistanceMeters>720.87712052662</DistanceMeters>
          </Trackpoint>
          <Trackpoint>
            <Time>2022-07-09T07:30:25.000Z</Time>
            <Position>
              <LatitudeDegrees>42.85018323920667171478271484375</LatitudeDegrees>
              <LongitudeDegrees>-0.14137345366179943084716796875</LongitudeDegrees>
            </Position>
            <AltitudeMeters>1517.800048828125</AltitudeMeters>
            <DistanceMeters>721.73762402365</DistanceMeters>
          </Trackpoint>
          <Trackpoint>
            <Time>2022-07-09T07:30:26.000Z</Time>
            <Position>
              <LatitudeDegrees>42.85018240101635456085205078125</LatitudeDegrees>
              <LongitudeDegrees>-0.14138317666947841644287109375</LongitudeDegrees>
            </Position>
            <AltitudeMeters>1517.5999755859375</AltitudeMeters>
            <DistanceMeters>722.53833335139</DistanceMeters>
          </Trackpoint>
          <Trackpoint>
            <Time>2022-07-09T07:30:31.000Z</Time>
            <Position>
              <LatitudeDegrees>42.85019765608012676239013671875</LatitudeDegrees>
              <LongitudeDegrees>-0.14145643450319766998291015625</LongitudeDegrees>
            </Position>
            <AltitudeMeters>1516.800048828125</AltitudeMeters>
            <DistanceMeters>728.75223766948</DistanceMeters>
          </Trackpoint>
          <Trackpoint>
            <Time>2022-07-09T07:30:33.000Z</Time>
            <Position>
              <LatitudeDegrees>42.85020503215491771697998046875</LatitudeDegrees>
              <LongitudeDegrees>-0.141494572162628173828125</LongitudeDegrees>
            </Position>
            <AltitudeMeters>1517</AltitudeMeters>
            <DistanceMeters>731.9691410881</DistanceMeters>
          </Trackpoint>
          <Trackpoint>
            <Time>2022-07-09T07:30:39.000Z</Time>
            <Position>
              <LatitudeDegrees>42.85019430331885814666748046875</LatitudeDegrees>
              <LongitudeDegrees>-0.141627006232738494873046875</LongitudeDegrees>
            </Position>
            <AltitudeMeters>1517.4000244140625</AltitudeMeters>
            <DistanceMeters>742.84129361883</DistanceMeters>
          </Trackpoint>
          <Trackpoint>
            <Time>2022-07-09T07:30:45.000Z</Time>
            <Position>
              <LatitudeDegrees>42.8501905314624309539794921875</LatitudeDegrees>
              <LongitudeDegrees>-0.1417190395295619964599609375</LongitudeDegrees>
            </Position>
            <AltitudeMeters>1517.199951171875</AltitudeMeters>
            <DistanceMeters>750.36342489911</DistanceMeters>
          </Trackpoint>
          <Trackpoint>
            <Time>2022-07-09T07:30:46.000Z</Time>
            <Position>
              <LatitudeDegrees>42.85019195638597011566162109375</LatitudeDegrees>
              <LongitudeDegrees>-0.14173856936395168304443359375</LongitudeDegrees>
            </Position>
            <AltitudeMeters>1517.199951171875</AltitudeMeters>
            <DistanceMeters>751.96484355458</DistanceMeters>
          </Trackpoint>
          <Trackpoint>
            <Time>2022-07-09T07:30:52.000Z</Time>
            <Position>
              <LatitudeDegrees>42.8502394817769527435302734375</LatitudeDegrees>
              <LongitudeDegrees>-0.1418387331068515777587890625</LongitudeDegrees>
            </Position>
            <AltitudeMeters>1516.5999755859375</AltitudeMeters>
            <DistanceMeters>761.70032928236</DistanceMeters>
          </Trackpoint>
          <Trackpoint>
            <Time>2022-07-09T07:30:53.000Z</Time>
            <Position>
              <LatitudeDegrees>42.8502512164413928985595703125</LatitudeDegrees>
              <LongitudeDegrees>-0.1418497972190380096435546875</LongitudeDegrees>
            </Position>
            <AltitudeMeters>1516.5999755859375</AltitudeMeters>
            <DistanceMeters>763.29043034969</DistanceMeters>
          </Trackpoint>
          <Trackpoint>
            <Time>2022-07-09T07:30:54.000Z</Time>
            <Position>
              <LatitudeDegrees>42.8502666391432285308837890625</LatitudeDegrees>
              <LongitudeDegrees>-0.141860358417034149169921875</LongitudeDegrees>
            </Position>
            <AltitudeMeters>1516.5999755859375</AltitudeMeters>
            <DistanceMeters>765.2098758918</DistanceMeters>
          </Trackpoint>
          <Trackpoint>
            <Time>2022-07-09T07:30:57.000Z</Time>
            <Position>
              <LatitudeDegrees>42.8503028489649295806884765625</LatitudeDegrees>
              <LongitudeDegrees>-0.1418601907789707183837890625</LongitudeDegrees>
            </Position>
            <AltitudeMeters>1516.800048828125</AltitudeMeters>
            <DistanceMeters>769.23927751564</DistanceMeters>
          </Trackpoint>
          <Trackpoint>
            <Time>2022-07-09T07:30:58.000Z</Time>
            <Position>
              <LatitudeDegrees>42.85031181760132312774658203125</LatitudeDegrees>
              <LongitudeDegrees>-0.1418591849505901336669921875</LongitudeDegrees>
            </Position>
            <AltitudeMeters>1517</AltitudeMeters>
            <DistanceMeters>770.24494573216</DistanceMeters>
          </Trackpoint>
          <Trackpoint>
            <Time>2022-07-09T07:31:03.000Z</Time>
            <Position>
              <LatitudeDegrees>42.85035171546041965484619140625</LatitudeDegrees>
              <LongitudeDegrees>-0.1419061236083507537841796875</LongitudeDegrees>
            </Position>
            <AltitudeMeters>1517.199951171875</AltitudeMeters>
            <DistanceMeters>776.10894872488</DistanceMeters>
          </Trackpoint>
          <Trackpoint>
            <Time>2022-07-09T07:31:07.000Z</Time>
            <Position>
              <LatitudeDegrees>42.85040234215557575225830078125</LatitudeDegrees>
              <LongitudeDegrees>-0.1419195346534252166748046875</LongitudeDegrees>
            </Position>
            <AltitudeMeters>1517.5999755859375</AltitudeMeters>
            <DistanceMeters>781.84843640825</DistanceMeters>
          </Trackpoint>
          <Trackpoint>
            <Time>2022-07-09T07:31:08.000Z</Time>
            <Position>
              <LatitudeDegrees>42.85041374154388904571533203125</LatitudeDegrees>
              <LongitudeDegrees>-0.1419088058173656463623046875</LongitudeDegrees>
            </Position>
            <AltitudeMeters>1517.5999755859375</AltitudeMeters>
            <DistanceMeters>783.38951074285</DistanceMeters>
          </Trackpoint>
          <Trackpoint>
            <Time>2022-07-09T07:31:09.000Z</Time>
            <Position>
              <LatitudeDegrees>42.8504245541989803314208984375</LatitudeDegrees>
              <LongitudeDegrees>-0.14190570451319217681884765625</LongitudeDegrees>
            </Position>
            <AltitudeMeters>1517.5999755859375</AltitudeMeters>
            <DistanceMeters>784.62119773335</DistanceMeters>
          </Trackpoint>
          <Trackpoint>
            <Time>2022-07-09T07:31:14.000Z</Time>
            <Position>
              <LatitudeDegrees>42.8504600934684276580810546875</LatitudeDegrees>
              <LongitudeDegrees>-0.14191006310284137725830078125</LongitudeDegrees>
            </Position>
            <AltitudeMeters>1517.800048828125</AltitudeMeters>
            <DistanceMeters>788.5919046567</DistanceMeters>
          </Trackpoint>
          <Trackpoint>
            <Time>2022-07-09T07:31:15.000Z</Time>
            <Position>
              <LatitudeDegrees>42.85046637989580631256103515625</LatitudeDegrees>
              <LongitudeDegrees>-0.141907967627048492431640625</LongitudeDegrees>
            </Position>
            <AltitudeMeters>1517.5999755859375</AltitudeMeters>
            <DistanceMeters>789.31560655234</DistanceMeters>
          </Trackpoint>
          <Trackpoint>
            <Time>2022-07-09T07:31:20.000Z</Time>
            <Position>
              <LatitudeDegrees>42.85045783035457134246826171875</LatitudeDegrees>
              <LongitudeDegrees>-0.14196672476828098297119140625</LongitudeDegrees>
            </Position>
            <AltitudeMeters>1517.5999755859375</AltitudeMeters>
            <DistanceMeters>794.20371275728</DistanceMeters>
          </Trackpoint>
          <Trackpoint>
            <Time>2022-07-09T07:31:22.000Z</Time>
            <Position>
              <LatitudeDegrees>42.850461266934871673583984375</LatitudeDegrees>
              <LongitudeDegrees>-0.14198767952620983123779296875</LongitudeDegrees>
            </Position>
            <AltitudeMeters>1517.5999755859375</AltitudeMeters>
            <DistanceMeters>795.9559187928</DistanceMeters>
          </Trackpoint>
          <Trackpoint>
            <Time>2022-07-09T07:31:23.000Z</Time>
            <Position>
              <LatitudeDegrees>42.85046855919063091278076171875</LatitudeDegrees>
              <LongitudeDegrees>-0.14200293458998203277587890625</LongitudeDegrees>
            </Position>
            <AltitudeMeters>1517.5999755859375</AltitudeMeters>
            <DistanceMeters>797.43723866909</DistanceMeters>
          </Trackpoint>
          <Trackpoint>
            <Time>2022-07-09T07:31:25.000Z</Time>
            <Position>
              <LatitudeDegrees>42.85048641264438629150390625</LatitudeDegrees>
              <LongitudeDegrees>-0.14202338643372058868408203125</LongitudeDegrees>
            </Position>
            <AltitudeMeters>1517.800048828125</AltitudeMeters>
            <DistanceMeters>800.03270337261</DistanceMeters>
          </Trackpoint>
          <Trackpoint>
            <Time>2022-07-09T07:31:29.000Z</Time>
            <Position>
              <LatitudeDegrees>42.8505217842757701873779296875</LatitudeDegrees>
              <LongitudeDegrees>-0.14203294180333614349365234375</LongitudeDegrees>
            </Position>
            <AltitudeMeters>1518.5999755859375</AltitudeMeters>
            <DistanceMeters>804.04526194533</DistanceMeters>
          </Trackpoint>
          <Trackpoint>
            <Time>2022-07-09T07:31:30.000Z</Time>
            <Position>
              <LatitudeDegrees>42.8505281545221805572509765625</LatitudeDegrees>
              <LongitudeDegrees>-0.1420308463275432586669921875</LongitudeDegrees>
            </Position>
            <AltitudeMeters>1518.5999755859375</AltitudeMeters>
            <DistanceMeters>804.76896384097</DistanceMeters>
          </Trackpoint>
          <Trackpoint>
            <Time>2022-07-09T07:31:31.000Z</Time>
            <Position>
              <LatitudeDegrees>42.850533686578273773193359375</LatitudeDegrees>
              <LongitudeDegrees>-0.14202556572854518890380859375</LongitudeDegrees>
            </Position>
            <AltitudeMeters>1518.800048828125</AltitudeMeters>
            <DistanceMeters>805.51720493816</DistanceMeters>
          </Trackpoint>
          <Trackpoint>
            <Time>2022-07-09T07:31:36.000Z</Time>
            <Position>
              <LatitudeDegrees>42.85054231993854045867919921875</LatitudeDegrees>
              <LongitudeDegrees>-0.14204786159098148345947265625</LongitudeDegrees>
            </Position>
            <AltitudeMeters>1519.800048828125</AltitudeMeters>
            <DistanceMeters>807.57733501383</DistanceMeters>
          </Trackpoint>
          <Trackpoint>
            <Time>2022-07-09T07:31:37.000Z</Time>
            <Position>
              <LatitudeDegrees>42.85053980536758899688720703125</LatitudeDegrees>
              <LongitudeDegrees>-0.1420645415782928466796875</LongitudeDegrees>
            </Position>
            <AltitudeMeters>1520</AltitudeMeters>
            <DistanceMeters>808.96745600101</DistanceMeters>
          </Trackpoint>
          <Trackpoint>
            <Time>2022-07-09T07:31:38.000Z</Time>
            <Position>
              <LatitudeDegrees>42.85053896717727184295654296875</LatitudeDegrees>
              <LongitudeDegrees>-0.1420771144330501556396484375</LongitudeDegrees>
            </Position>
            <AltitudeMeters>1520.199951171875</AltitudeMeters>
            <DistanceMeters>809.99971034001</DistanceMeters>
          </Trackpoint>
          <Trackpoint>
            <Time>2022-07-09T07:31:39.000Z</Time>
            <Position>
              <LatitudeDegrees>42.85053930245339870452880859375</LatitudeDegrees>
              <LongitudeDegrees>-0.14209362678229808807373046875</LongitudeDegrees>
            </Position>
            <AltitudeMeters>1520.199951171875</AltitudeMeters>
            <DistanceMeters>811.34694653505</DistanceMeters>
          </Trackpoint>
          <Trackpoint>
            <Time>2022-07-09T07:31:41.000Z</Time>
            <Position>
              <LatitudeDegrees>42.8505395539104938507080078125</LatitudeDegrees>
              <LongitudeDegrees>-0.1421274058520793914794921875</LongitudeDegrees>
            </Position>
            <AltitudeMeters>1520.5999755859375</AltitudeMeters>
            <DistanceMeters>814.10272125178</DistanceMeters>
          </Trackpoint>
          <Trackpoint>
            <Time>2022-07-09T07:31:45.000Z</Time>
            <Position>
              <LatitudeDegrees>42.85057182423770427703857421875</LatitudeDegrees>
              <LongitudeDegrees>-0.14219739474356174468994140625</LongitudeDegrees>
            </Position>
            <AltitudeMeters>1520.800048828125</AltitudeMeters>
            <DistanceMeters>820.84894873665</DistanceMeters>
          </Trackpoint>
          <Trackpoint>
            <Time>2022-07-09T07:31:46.000Z</Time>
            <Position>
              <LatitudeDegrees>42.85057936795055866241455078125</LatitudeDegrees>
              <LongitudeDegrees>-0.14221139252185821533203125</LongitudeDegrees>
            </Position>
            <AltitudeMeters>1520.800048828125</AltitudeMeters>
            <DistanceMeters>822.2711783677</DistanceMeters>
          </Trackpoint>
          <Trackpoint>
            <Time>2022-07-09T07:31:47.000Z</Time>
            <Position>
              <LatitudeDegrees>42.85058892332017421722412109375</LatitudeDegrees>
              <LongitudeDegrees>-0.14222471974790096282958984375</LongitudeDegrees>
            </Position>
            <AltitudeMeters>1520.800048828125</AltitudeMeters>
            <DistanceMeters>823.79160579762</DistanceMeters>
          </Trackpoint>
          <Trackpoint>
            <Time>2022-07-09T07:31:51.000Z</Time>
            <Position>
              <LatitudeDegrees>42.85063183866441249847412109375</LatitudeDegrees>
              <LongitudeDegrees>-0.14226260595023632049560546875</LongitudeDegrees>
            </Position>
            <AltitudeMeters>1521</AltitudeMeters>
            <DistanceMeters>829.48131792141</DistanceMeters>
          </Trackpoint>
          <Trackpoint>
            <Time>2022-07-09T07:31:53.000Z</Time>
            <Position>
              <LatitudeDegrees>42.85064441151916980743408203125</LatitudeDegrees>
              <LongitudeDegrees>-0.14227299951016902923583984375</LongitudeDegrees>
            </Position>
            <AltitudeMeters>1521</AltitudeMeters>
            <DistanceMeters>831.11897866279</DistanceMeters>
          </Trackpoint>
          <Trackpoint>
            <Time>2022-07-09T07:31:55.000Z</Time>
            <Position>
              <LatitudeDegrees>42.85063820891082286834716796875</LatitudeDegrees>
              <LongitudeDegrees>-0.1422906853258609771728515625</LongitudeDegrees>
            </Position>
            <AltitudeMeters>1521</AltitudeMeters>
            <DistanceMeters>832.71757543297</DistanceMeters>
          </Trackpoint>
          <Trackpoint>
            <Time>2022-07-09T07:31:58.000Z</Time>
            <Position>
              <LatitudeDegrees>42.8506146557629108428955078125</LatitudeDegrees>
              <LongitudeDegrees>-0.142331756651401519775390625</LongitudeDegrees>
            </Position>
            <AltitudeMeters>1520.800048828125</AltitudeMeters>
            <DistanceMeters>836.97154689428</DistanceMeters>
          </Trackpoint>
          <Trackpoint>
            <Time>2022-07-09T07:32:02.000Z</Time>
            <Position>
              <LatitudeDegrees>42.85056780092418193817138671875</LatitudeDegrees>
              <LongitudeDegrees>-0.14237090013921260833740234375</LongitudeDegrees>
            </Position>
            <AltitudeMeters>1521.199951171875</AltitudeMeters>
            <DistanceMeters>843.08731149332</DistanceMeters>
          </Trackpoint>
          <Trackpoint>
            <Time>2022-07-09T07:32:04.000Z</Time>
            <Position>
              <LatitudeDegrees>42.85055254586040973663330078125</LatitudeDegrees>
              <LongitudeDegrees>-0.142371989786624908447265625</LongitudeDegrees>
            </Position>
            <AltitudeMeters>1521.800048828125</AltitudeMeters>
            <DistanceMeters>844.7872010374</DistanceMeters>
          </Trackpoint>
          <Trackpoint>
            <Time>2022-07-09T07:32:06.000Z</Time>
            <Position>
              <LatitudeDegrees>42.8505395539104938507080078125</LatitudeDegrees>
              <LongitudeDegrees>-0.14237525872886180877685546875</LongitudeDegrees>
            </Position>
            <AltitudeMeters>1522.199951171875</AltitudeMeters>
            <DistanceMeters>846.2593485662</DistanceMeters>
          </Trackpoint>
          <Trackpoint>
            <Time>2022-07-09T07:32:08.000Z</Time>
            <Position>
              <LatitudeDegrees>42.85052455030381679534912109375</LatitudeDegrees>
              <LongitudeDegrees>-0.14236922375857830047607421875</LongitudeDegrees>
            </Position>
            <AltitudeMeters>1522.199951171875</AltitudeMeters>
            <DistanceMeters>848.00380715316</DistanceMeters>
          </Trackpoint>
          <Trackpoint>
            <Time>2022-07-09T07:32:10.000Z</Time>
            <Position>
              <LatitudeDegrees>42.8505046851933002471923828125</LatitudeDegrees>
              <LongitudeDegrees>-0.14237157069146633148193359375</LongitudeDegrees>
            </Position>
            <AltitudeMeters>1522</AltitudeMeters>
            <DistanceMeters>850.22426245296</DistanceMeters>
          </Trackpoint>
          <Trackpoint>
            <Time>2022-07-09T07:32:16.000Z</Time>
            <Position>
              <LatitudeDegrees>42.8504336066544055938720703125</LatitudeDegrees>
              <LongitudeDegrees>-0.14237643219530582427978515625</LongitudeDegrees>
            </Position>
            <AltitudeMeters>1521.800048828125</AltitudeMeters>
            <DistanceMeters>858.14518229428</DistanceMeters>
          </Trackpoint>
          <Trackpoint>
            <Time>2022-07-09T07:32:18.000Z</Time>
            <Position>
              <LatitudeDegrees>42.850405275821685791015625</LatitudeDegrees>
              <LongitudeDegrees>-0.142374001443386077880859375</LongitudeDegrees>
            </Position>
            <AltitudeMeters>1522</AltitudeMeters>
            <DistanceMeters>861.30401664741</DistanceMeters>
          </Trackpoint>
          <Trackpoint>
            <Time>2022-07-09T07:32:24.000Z</Time>
            <Position>
              <LatitudeDegrees>42.8503243066370487213134765625</LatitudeDegrees>
              <LongitudeDegrees>-0.14235413633286952972412109375</LongitudeDegrees>
            </Position>
            <AltitudeMeters>1522.800048828125</AltitudeMeters>
            <DistanceMeters>870.46116084517</DistanceMeters>
          </Trackpoint>
          <Trackpoint>
            <Time>2022-07-09T07:32:25.000Z</Time>
            <Position>
              <LatitudeDegrees>42.850311733782291412353515625</LatitudeDegrees>
              <LongitudeDegrees>-0.14235732145607471466064453125</LongitudeDegrees>
            </Position>
            <AltitudeMeters>1522.800048828125</AltitudeMeters>
            <DistanceMeters>871.88339047623</DistanceMeters>
          </Trackpoint>
          <Trackpoint>
            <Time>2022-07-09T07:32:26.000Z</Time>
            <Position>
              <LatitudeDegrees>42.85029790364205837249755859375</LatitudeDegrees>
              <LongitudeDegrees>-0.14236385934054851531982421875</LongitudeDegrees>
            </Position>
            <AltitudeMeters>1522.800048828125</AltitudeMeters>
            <DistanceMeters>873.51275921121</DistanceMeters>
          </Trackpoint>
          <Trackpoint>
            <Time>2022-07-09T07:32:32.000Z</Time>
            <Position>
              <LatitudeDegrees>42.85021282732486724853515625</LatitudeDegrees>
              <LongitudeDegrees>-0.14240006916224956512451171875</LongitudeDegrees>
            </Position>
            <AltitudeMeters>1523.800048828125</AltitudeMeters>
            <DistanceMeters>883.43201890805</DistanceMeters>
          </Trackpoint>
          <Trackpoint>
            <Time>2022-07-09T07:32:33.000Z</Time>
            <Position>
              <LatitudeDegrees>42.85020209848880767822265625</LatitudeDegrees>
              <LongitudeDegrees>-0.14240828342735767364501953125</LongitudeDegrees>
            </Position>
            <AltitudeMeters>1524</AltitudeMeters>
            <DistanceMeters>884.80251367284</DistanceMeters>
          </Trackpoint>
          <Trackpoint>
            <Time>2022-07-09T07:32:34.000Z</Time>
            <Position>
              <LatitudeDegrees>42.85019178874790668487548828125</LatitudeDegrees>
              <LongitudeDegrees>-0.1424214430153369903564453125</LongitudeDegrees>
            </Position>
            <AltitudeMeters>1524</AltitudeMeters>
            <DistanceMeters>886.37548568329</DistanceMeters>
          </Trackpoint>
          <Trackpoint>
            <Time>2022-07-09T07:32:38.000Z</Time>
            <Position>
              <LatitudeDegrees>42.85016127862036228179931640625</LatitudeDegrees>
              <LongitudeDegrees>-0.14248338527977466583251953125</LongitudeDegrees>
            </Position>
            <AltitudeMeters>1524</AltitudeMeters>
            <DistanceMeters>892.4653562858</DistanceMeters>
          </Trackpoint>
          <Trackpoint>
            <Time>2022-07-09T07:32:39.000Z</Time>
            <Position>
              <LatitudeDegrees>42.8501559980213642120361328125</LatitudeDegrees>
              <LongitudeDegrees>-0.14249880798161029815673828125</LongitudeDegrees>
            </Position>
            <AltitudeMeters>1524.199951171875</AltitudeMeters>
            <DistanceMeters>893.85547727298</DistanceMeters>
          </Trackpoint>
          <Trackpoint>
            <Time>2022-07-09T07:32:40.000Z</Time>
            <Position>
              <LatitudeDegrees>42.85015524365007877349853515625</LatitudeDegrees>
              <LongitudeDegrees>-0.14251305721700191497802734375</LongitudeDegrees>
            </Position>
            <AltitudeMeters>1524.4000244140625</AltitudeMeters>
            <DistanceMeters>895.02704529042</DistanceMeters>
          </Trackpoint>
          <Trackpoint>
            <Time>2022-07-09T07:32:44.000Z</Time>
            <Position>
              <LatitudeDegrees>42.85015306435525417327880859375</LatitudeDegrees>
              <LongitudeDegrees>-0.1425796933472156524658203125</LongitudeDegrees>
            </Position>
            <AltitudeMeters>1524.800048828125</AltitudeMeters>
            <DistanceMeters>900.46934726074</DistanceMeters>
          </Trackpoint>
          <Trackpoint>
            <Time>2022-07-09T07:32:47.000Z</Time>
            <Position>
              <LatitudeDegrees>42.8501714207231998443603515625</LatitudeDegrees>
              <LongitudeDegrees>-0.142631493508815765380859375</LongitudeDegrees>
            </Position>
            <AltitudeMeters>1525</AltitudeMeters>
            <DistanceMeters>905.16332068666</DistanceMeters>
          </Trackpoint>
          <Trackpoint>
            <Time>2022-07-09T07:32:51.000Z</Time>
            <Position>
              <LatitudeDegrees>42.85017125308513641357421875</LatitudeDegrees>
              <LongitudeDegrees>-0.14270483516156673431396484375</LongitudeDegrees>
            </Position>
            <AltitudeMeters>1525.5999755859375</AltitudeMeters>
            <DistanceMeters>911.14774072345</DistanceMeters>
          </Trackpoint>
          <Trackpoint>
            <Time>2022-07-09T07:32:52.000Z</Time>
            <Position>
              <LatitudeDegrees>42.85016991198062896728515625</LatitudeDegrees>
              <LongitudeDegrees>-0.14272964559495449066162109375</LongitudeDegrees>
            </Position>
            <AltitudeMeters>1526</AltitudeMeters>
            <DistanceMeters>913.17695605418</DistanceMeters>
          </Trackpoint>
          <Trackpoint>
            <Time>2022-07-09T07:32:53.000Z</Time>
            <Position>
              <LatitudeDegrees>42.85016714595258235931396484375</LatitudeDegrees>
              <LongitudeDegrees>-0.14276870526373386383056640625</LongitudeDegrees>
            </Position>
            <AltitudeMeters>1526.5999755859375</AltitudeMeters>
            <DistanceMeters>916.37979336511</DistanceMeters>
          </Trackpoint>
          <Trackpoint>
            <Time>2022-07-09T07:32:54.000Z</Time>
            <Position>
              <LatitudeDegrees>42.85015608184039592742919921875</LatitudeDegrees>
              <LongitudeDegrees>-0.1428174041211605072021484375</LongitudeDegrees>
            </Position>
            <AltitudeMeters>1526.800048828125</AltitudeMeters>
            <DistanceMeters>920.54148612402</DistanceMeters>
          </Trackpoint>
          <Trackpoint>
            <Time>2022-07-09T07:33:00.000Z</Time>
            <Position>
              <LatitudeDegrees>42.85014099441468715667724609375</LatitudeDegrees>
              <LongitudeDegrees>-0.1429210044443607330322265625</LongitudeDegrees>
            </Position>
            <AltitudeMeters>1527.800048828125</AltitudeMeters>
            <DistanceMeters>929.16015242618</DistanceMeters>
          </Trackpoint>
          <Trackpoint>
            <Time>2022-07-09T07:33:04.000Z</Time>
            <Position>
              <LatitudeDegrees>42.85011400468647480010986328125</LatitudeDegrees>
              <LongitudeDegrees>-0.14296375215053558349609375</LongitudeDegrees>
            </Position>
            <AltitudeMeters>1528.199951171875</AltitudeMeters>
            <DistanceMeters>933.76282114525</DistanceMeters>
          </Trackpoint>
          <Trackpoint>
            <Time>2022-07-09T07:33:06.000Z</Time>
            <Position>
              <LatitudeDegrees>42.85010277293622493743896484375</LatitudeDegrees>
              <LongitudeDegrees>-0.1429736427962779998779296875</LongitudeDegrees>
            </Position>
            <AltitudeMeters>1528.800048828125</AltitudeMeters>
            <DistanceMeters>935.24718587547</DistanceMeters>
          </Trackpoint>
          <Trackpoint>
            <Time>2022-07-09T07:33:07.000Z</Time>
            <Position>
              <LatitudeDegrees>42.85009841434657573699951171875</LatitudeDegrees>
              <LongitudeDegrees>-0.1429873891174793243408203125</LongitudeDegrees>
            </Position>
            <AltitudeMeters>1529</AltitudeMeters>
            <DistanceMeters>936.46412159144</DistanceMeters>
          </Trackpoint>
          <Trackpoint>
            <Time>2022-07-09T07:33:08.000Z</Time>
            <Position>
              <LatitudeDegrees>42.85009615123271942138671875</LatitudeDegrees>
              <LongitudeDegrees>-0.142999626696109771728515625</LongitudeDegrees>
            </Position>
            <AltitudeMeters>1529</AltitudeMeters>
            <DistanceMeters>937.48759062737</DistanceMeters>
          </Trackpoint>
          <Trackpoint>
            <Time>2022-07-09T07:33:11.000Z</Time>
            <Position>
              <LatitudeDegrees>42.8500956483185291290283203125</LatitudeDegrees>
              <LongitudeDegrees>-0.14304178766906261444091796875</LongitudeDegrees>
            </Position>
            <AltitudeMeters>1529.4000244140625</AltitudeMeters>
            <DistanceMeters>940.92698012866</DistanceMeters>
          </Trackpoint>
          <Trackpoint>
            <Time>2022-07-09T07:33:14.000Z</Time>
            <Position>
              <LatitudeDegrees>42.8500933013856410980224609375</LatitudeDegrees>
              <LongitudeDegrees>-0.14305855147540569305419921875</LongitudeDegrees>
            </Position>
            <AltitudeMeters>1529.800048828125</AltitudeMeters>
            <DistanceMeters>942.31710111584</DistanceMeters>
          </Trackpoint>
          <Trackpoint>
            <Time>2022-07-09T07:33:15.000Z</Time>
            <Position>
              <LatitudeDegrees>42.850079722702503204345703125</LatitudeDegrees>
              <LongitudeDegrees>-0.1430435478687286376953125</LongitudeDegrees>
            </Position>
            <AltitudeMeters>1530.4000244140625</AltitudeMeters>
            <DistanceMeters>944.26224944695</DistanceMeters>
          </Trackpoint>
          <Trackpoint>
            <Time>2022-07-09T07:33:17.000Z</Time>
            <Position>
              <LatitudeDegrees>42.85006052814424037933349609375</LatitudeDegrees>
              <LongitudeDegrees>-0.1430356688797473907470703125</LongitudeDegrees>
            </Position>
            <AltitudeMeters>1530.800048828125</AltitudeMeters>
            <DistanceMeters>946.49487171618</DistanceMeters>
          </Trackpoint>
          <Trackpoint>
            <Time>2022-07-09T07:33:21.000Z</Time>
            <Position>
              <LatitudeDegrees>42.8500171937048435211181640625</LatitudeDegrees>
              <LongitudeDegrees>-0.14303524978458881378173828125</LongitudeDegrees>
            </Position>
            <AltitudeMeters>1531.800048828125</AltitudeMeters>
            <DistanceMeters>951.31882310441</DistanceMeters>
          </Trackpoint>
          <Trackpoint>
            <Time>2022-07-09T07:33:27.000Z</Time>
            <Position>
              <LatitudeDegrees>42.849968411028385162353515625</LatitudeDegrees>
              <LongitudeDegrees>-0.14305687509477138519287109375</LongitudeDegrees>
            </Position>
            <AltitudeMeters>1532.800048828125</AltitudeMeters>
            <DistanceMeters>957.02833936787</DistanceMeters>
          </Trackpoint>
          <Trackpoint>
            <Time>2022-07-09T07:33:28.000Z</Time>
            <Position>
              <LatitudeDegrees>42.8499612025916576385498046875</LatitudeDegrees>
              <LongitudeDegrees>-0.143068023025989532470703125</LongitudeDegrees>
            </Position>
            <AltitudeMeters>1532.800048828125</AltitudeMeters>
            <DistanceMeters>958.24155924092</DistanceMeters>
          </Trackpoint>
          <Trackpoint>
            <Time>2022-07-09T07:33:33.000Z</Time>
            <Position>
              <LatitudeDegrees>42.8499239869415760040283203125</LatitudeDegrees>
              <LongitudeDegrees>-0.14311169274151325225830078125</LongitudeDegrees>
            </Position>
            <AltitudeMeters>1533.5999755859375</AltitudeMeters>
            <DistanceMeters>963.7062150215</DistanceMeters>
          </Trackpoint>
          <Trackpoint>
            <Time>2022-07-09T07:33:36.000Z</Time>
            <Position>
              <LatitudeDegrees>42.84991032443940639495849609375</LatitudeDegrees>
              <LongitudeDegrees>-0.1431194879114627838134765625</LongitudeDegrees>
            </Position>
            <AltitudeMeters>1533.800048828125</AltitudeMeters>
            <DistanceMeters>965.35760325146</DistanceMeters>
          </Trackpoint>
          <Trackpoint>
            <Time>2022-07-09T07:33:37.000Z</Time>
            <Position>
              <LatitudeDegrees>42.8499008528888225555419921875</LatitudeDegrees>
              <LongitudeDegrees>-0.1431154645979404449462890625</LongitudeDegrees>
            </Position>
            <AltitudeMeters>1533.800048828125</AltitudeMeters>
            <DistanceMeters>966.46171389806</DistanceMeters>
          </Trackpoint>
          <Trackpoint>
            <Time>2022-07-09T07:33:43.000Z</Time>
            <Position>
              <LatitudeDegrees>42.84982818178832530975341796875</LatitudeDegrees>
              <LongitudeDegrees>-0.143142454326152801513671875</LongitudeDegrees>
            </Position>
            <AltitudeMeters>1533.5999755859375</AltitudeMeters>
            <DistanceMeters>974.84455678618</DistanceMeters>
          </Trackpoint>
          <Trackpoint>
            <Time>2022-07-09T07:33:44.000Z</Time>
            <Position>
              <LatitudeDegrees>42.8498173691332340240478515625</LatitudeDegrees>
              <LongitudeDegrees>-0.143152177333831787109375</LongitudeDegrees>
            </Position>
            <AltitudeMeters>1533.800048828125</AltitudeMeters>
            <DistanceMeters>976.28570826403</DistanceMeters>
          </Trackpoint>
          <Trackpoint>
            <Time>2022-07-09T07:33:45.000Z</Time>
            <Position>
              <LatitudeDegrees>42.84980789758265018463134765625</LatitudeDegrees>
              <LongitudeDegrees>-0.14316282235085964202880859375</LongitudeDegrees>
            </Position>
            <AltitudeMeters>1533.800048828125</AltitudeMeters>
            <DistanceMeters>977.64959819634</DistanceMeters>
          </Trackpoint>
          <Trackpoint>
            <Time>2022-07-09T07:33:47.000Z</Time>
            <Position>
              <LatitudeDegrees>42.84979641437530517578125</LatitudeDegrees>
              <LongitudeDegrees>-0.14317966997623443603515625</LongitudeDegrees>
            </Position>
            <AltitudeMeters>1533.800048828125</AltitudeMeters>
            <DistanceMeters>979.5262254404</DistanceMeters>
          </Trackpoint>
          <Trackpoint>
            <Time>2022-07-09T07:33:49.000Z</Time>
            <Position>
              <LatitudeDegrees>42.84978157840669155120849609375</LatitudeDegrees>
              <LongitudeDegrees>-0.1432029716670513153076171875</LongitudeDegrees>
            </Position>
            <AltitudeMeters>1534</AltitudeMeters>
            <DistanceMeters>982.04398509208</DistanceMeters>
          </Trackpoint>
          <Trackpoint>
            <Time>2022-07-09T07:33:55.000Z</Time>
            <Position>
              <LatitudeDegrees>42.8497714363038539886474609375</LatitudeDegrees>
              <LongitudeDegrees>-0.14328519813716411590576171875</LongitudeDegrees>
            </Position>
            <AltitudeMeters>1534.5999755859375</AltitudeMeters>
            <DistanceMeters>988.84885334978</DistanceMeters>
          </Trackpoint>
          <Trackpoint>
            <Time>2022-07-09T07:33:58.000Z</Time>
            <Position>
              <LatitudeDegrees>42.84976489841938018798828125</LatitudeDegrees>
              <LongitudeDegrees>-0.14331839047372341156005859375</LongitudeDegrees>
            </Position>
            <AltitudeMeters>1535</AltitudeMeters>
            <DistanceMeters>991.65495859712</DistanceMeters>
          </Trackpoint>
          <Trackpoint>
            <Time>2022-07-09T07:34:01.000Z</Time>
            <Position>
              <LatitudeDegrees>42.849757187068462371826171875</LatitudeDegrees>
              <LongitudeDegrees>-0.143347643315792083740234375</LongitudeDegrees>
            </Position>
            <AltitudeMeters>1535.4000244140625</AltitudeMeters>
            <DistanceMeters>994.1941463769</DistanceMeters>
          </Trackpoint>
          <Trackpoint>
            <Time>2022-07-09T07:34:03.000Z</Time>
            <Position>
              <LatitudeDegrees>42.84975157119333744049072265625</LatitudeDegrees>
              <LongitudeDegrees>-0.14337413012981414794921875</LongitudeDegrees>
            </Position>
            <AltitudeMeters>1535.5999755859375</AltitudeMeters>
            <DistanceMeters>996.44288887185</DistanceMeters>
          </Trackpoint>
          <Trackpoint>
            <Time>2022-07-09T07:34:04.000Z</Time>
            <Position>
              <LatitudeDegrees>42.8497509844601154327392578125</LatitudeDegrees>
              <LongitudeDegrees>-0.14338745735585689544677734375</LongitudeDegrees>
            </Position>
            <AltitudeMeters>1535.800048828125</AltitudeMeters>
            <DistanceMeters>997.5305193303</DistanceMeters>
          </Trackpoint>
          <Trackpoint>
            <Time>2022-07-09T07:34:06.000Z</Time>
            <Position>
              <LatitudeDegrees>42.84974503330886363983154296875</LatitudeDegrees>
              <LongitudeDegrees>-0.14341210015118122100830078125</LongitudeDegrees>
            </Position>
            <AltitudeMeters>1536</AltitudeMeters>
            <DistanceMeters>999.64686474545</DistanceMeters>
          </Trackpoint>
          <Trackpoint>
            <Time>2022-07-09T07:34:07.000Z</Time>
            <Position>
              <LatitudeDegrees>42.8497375734150409698486328125</LatitudeDegrees>
              <LongitudeDegrees>-0.14342500828206539154052734375</LongitudeDegrees>
            </Position>
            <AltitudeMeters>1536.199951171875</AltitudeMeters>
            <DistanceMeters>1000.9907454279</DistanceMeters>
          </Trackpoint>
          <Trackpoint>
            <Time>2022-07-09T07:34:08.000Z</Time>
            <Position>
              <LatitudeDegrees>42.8497322089970111846923828125</LatitudeDegrees>
              <LongitudeDegrees>-0.1434383355081081390380859375</LongitudeDegrees>
            </Position>
            <AltitudeMeters>1536.199951171875</AltitudeMeters>
            <DistanceMeters>1002.2297421977</DistanceMeters>
          </Trackpoint>
          <Trackpoint>
            <Time>2022-07-09T07:34:12.000Z</Time>
            <Position>
              <LatitudeDegrees>42.849686108529567718505859375</LatitudeDegrees>
              <LongitudeDegrees>-0.1434765569865703582763671875</LongitudeDegrees>
            </Position>
            <AltitudeMeters>1537</AltitudeMeters>
            <DistanceMeters>1008.233746292</DistanceMeters>
          </Trackpoint>
          <Trackpoint>
            <Time>2022-07-09T07:34:13.000Z</Time>
            <Position>
              <LatitudeDegrees>42.84967781044542789459228515625</LatitudeDegrees>
              <LongitudeDegrees>-0.143482424318790435791015625</LongitudeDegrees>
            </Position>
            <AltitudeMeters>1537.199951171875</AltitudeMeters>
            <DistanceMeters>1009.2747117925</DistanceMeters>
          </Trackpoint>
          <Trackpoint>
            <Time>2022-07-09T07:34:19.000Z</Time>
            <Position>
              <LatitudeDegrees>42.8496520780026912689208984375</LatitudeDegrees>
              <LongitudeDegrees>-0.1435265131294727325439453125</LongitudeDegrees>
            </Position>
            <AltitudeMeters>1538</AltitudeMeters>
            <DistanceMeters>1013.8734549938</DistanceMeters>
          </Trackpoint>
          <Trackpoint>
            <Time>2022-07-09T07:34:20.000Z</Time>
            <Position>
              <LatitudeDegrees>42.8496497310698032379150390625</LatitudeDegrees>
              <LongitudeDegrees>-0.1435426063835620880126953125</LongitudeDegrees>
            </Position>
            <AltitudeMeters>1538</AltitudeMeters>
            <DistanceMeters>1015.2139717645</DistanceMeters>
          </Trackpoint>
          <Trackpoint>
            <Time>2022-07-09T07:34:22.000Z</Time>
            <Position>
              <LatitudeDegrees>42.84967236220836639404296875</LatitudeDegrees>
              <LongitudeDegrees>-0.1436140201985836029052734375</LongitudeDegrees>
            </Position>
            <AltitudeMeters>1538.4000244140625</AltitudeMeters>
            <DistanceMeters>1021.5615855754</DistanceMeters>
          </Trackpoint>
          <Trackpoint>
            <Time>2022-07-09T07:34:28.000Z</Time>
            <Position>
              <LatitudeDegrees>42.8496259264647960662841796875</LatitudeDegrees>
              <LongitudeDegrees>-0.14366942457854747772216796875</LongitudeDegrees>
            </Position>
            <AltitudeMeters>1539</AltitudeMeters>
            <DistanceMeters>1028.4278821838</DistanceMeters>
          </Trackpoint>
          <Trackpoint>
            <Time>2022-07-09T07:34:30.000Z</Time>
            <Position>
              <LatitudeDegrees>42.84962466917932033538818359375</LatitudeDegrees>
              <LongitudeDegrees>-0.14368124306201934814453125</LongitudeDegrees>
            </Position>
            <AltitudeMeters>1539.199951171875</AltitudeMeters>
            <DistanceMeters>1029.4062420884</DistanceMeters>
          </Trackpoint>
          <Trackpoint>
            <Time>2022-07-09T07:34:31.000Z</Time>
            <Position>
              <LatitudeDegrees>42.8496343083679676055908203125</LatitudeDegrees>
              <LongitudeDegrees>-0.1436767168343067169189453125</LongitudeDegrees>
            </Position>
            <AltitudeMeters>1539.4000244140625</AltitudeMeters>
            <DistanceMeters>1030.5386160792</DistanceMeters>
          </Trackpoint>
          <Trackpoint>
            <Time>2022-07-09T07:34:34.000Z</Time>
            <Position>
              <LatitudeDegrees>42.84964084625244140625</LatitudeDegrees>
              <LongitudeDegrees>-0.143684931099414825439453125</LongitudeDegrees>
            </Position>
            <AltitudeMeters>1539.5999755859375</AltitudeMeters>
            <DistanceMeters>1031.5307241038</DistanceMeters>
          </Trackpoint>
          <Trackpoint>
            <Time>2022-07-09T07:34:35.000Z</Time>
            <Position>
              <LatitudeDegrees>42.84964361228048801422119140625</LatitudeDegrees>
              <LongitudeDegrees>-0.14368392527103424072265625</LongitudeDegrees>
            </Position>
            <AltitudeMeters>1539.5999755859375</AltitudeMeters>
            <DistanceMeters>1031.8599062985</DistanceMeters>
          </Trackpoint>
          <Trackpoint>
            <Time>2022-07-09T07:34:36.000Z</Time>
            <Position>
              <LatitudeDegrees>42.84965115599334239959716796875</LatitudeDegrees>
              <LongitudeDegrees>-0.14368082396686077117919921875</LongitudeDegrees>
            </Position>
            <AltitudeMeters>1539.5999755859375</AltitudeMeters>
            <DistanceMeters>1032.7411477945</DistanceMeters>
          </Trackpoint>
          <Trackpoint>
            <Time>2022-07-09T07:34:39.000Z</Time>
            <Position>
              <LatitudeDegrees>42.8496725298464298248291015625</LatitudeDegrees>
              <LongitudeDegrees>-0.14369792304933071136474609375</LongitudeDegrees>
            </Position>
            <AltitudeMeters>1539.5999755859375</AltitudeMeters>
            <DistanceMeters>1035.5018333106</DistanceMeters>
          </Trackpoint>
          <Trackpoint>
            <Time>2022-07-09T07:34:45.000Z</Time>
            <Position>
              <LatitudeDegrees>42.84969474188983440399169921875</LatitudeDegrees>
              <LongitudeDegrees>-0.14370429329574108123779296875</LongitudeDegrees>
            </Position>
            <AltitudeMeters>1539.4000244140625</AltitudeMeters>
            <DistanceMeters>1038.0285434336</DistanceMeters>
          </Trackpoint>
          <Trackpoint>
            <Time>2022-07-09T07:34:48.000Z</Time>
            <Position>
              <LatitudeDegrees>42.84970186650753021240234375</LatitudeDegrees>
              <LongitudeDegrees>-0.14372088946402072906494140625</LongitudeDegrees>
            </Position>
            <AltitudeMeters>1539.4000244140625</AltitudeMeters>
            <DistanceMeters>1039.5986424334</DistanceMeters>
          </Trackpoint>
          <Trackpoint>
            <Time>2022-07-09T07:34:54.000Z</Time>
            <Position>
              <LatitudeDegrees>42.84971527755260467529296875</LatitudeDegrees>
              <LongitudeDegrees>-0.1437380723655223846435546875</LongitudeDegrees>
            </Position>
            <AltitudeMeters>1539.4000244140625</AltitudeMeters>
            <DistanceMeters>1041.6455805053</DistanceMeters>
          </Trackpoint>
          <Trackpoint>
            <Time>2022-07-09T07:35:00.000Z</Time>
            <Position>
              <LatitudeDegrees>42.84970362670719623565673828125</LatitudeDegrees>
              <LongitudeDegrees>-0.1437481306493282318115234375</LongitudeDegrees>
            </Position>
            <AltitudeMeters>1539.4000244140625</AltitudeMeters>
            <DistanceMeters>1043.1778402337</DistanceMeters>
          </Trackpoint>
          <Trackpoint>
            <Time>2022-07-09T07:35:04.000Z</Time>
            <Position>
              <LatitudeDegrees>42.8496745415031909942626953125</LatitudeDegrees>
              <LongitudeDegrees>-0.14372306875884532928466796875</LongitudeDegrees>
            </Position>
            <AltitudeMeters>1539.4000244140625</AltitudeMeters>
            <DistanceMeters>1047.0061315064</DistanceMeters>
          </Trackpoint>
          <Trackpoint>
            <Time>2022-07-09T07:35:08.000Z</Time>
            <Position>
              <LatitudeDegrees>42.84964176826179027557373046875</LatitudeDegrees>
              <LongitudeDegrees>-0.14367981813848018646240234375</LongitudeDegrees>
            </Position>
            <AltitudeMeters>1539.199951171875</AltitudeMeters>
            <DistanceMeters>1052.0809495345</DistanceMeters>
          </Trackpoint>
          <Trackpoint>
            <Time>2022-07-09T07:35:11.000Z</Time>
            <Position>
              <LatitudeDegrees>42.84962886013090610504150390625</LatitudeDegrees>
              <LongitudeDegrees>-0.14365785755217075347900390625</LongitudeDegrees>
            </Position>
            <AltitudeMeters>1539</AltitudeMeters>
            <DistanceMeters>1054.3793391272</DistanceMeters>
          </Trackpoint>
          <Trackpoint>
            <Time>2022-07-09T07:35:16.000Z</Time>
            <Position>
              <LatitudeDegrees>42.849619053304195404052734375</LatitudeDegrees>
              <LongitudeDegrees>-0.1436301134526729583740234375</LongitudeDegrees>
            </Position>
            <AltitudeMeters>1538.800048828125</AltitudeMeters>
            <DistanceMeters>1056.8935096685</DistanceMeters>
          </Trackpoint>
          <Trackpoint>
            <Time>2022-07-09T07:35:19.000Z</Time>
            <Position>
              <LatitudeDegrees>42.84960891120135784149169921875</LatitudeDegrees>
              <LongitudeDegrees>-0.14361762441694736480712890625</LongitudeDegrees>
            </Position>
            <AltitudeMeters>1538.800048828125</AltitudeMeters>
            <DistanceMeters>1058.4139370984</DistanceMeters>
          </Trackpoint>
          <Trackpoint>
            <Time>2022-07-09T07:35:20.000Z</Time>
            <Position>
              <LatitudeDegrees>42.849600948393344879150390625</LatitudeDegrees>
              <LongitudeDegrees>-0.14361879788339138031005859375</LongitudeDegrees>
            </Position>
            <AltitudeMeters>1538.800048828125</AltitudeMeters>
            <DistanceMeters>1059.3053666958</DistanceMeters>
          </Trackpoint>
          <Trackpoint>
            <Time>2022-07-09T07:35:25.000Z</Time>
            <Position>
              <LatitudeDegrees>42.84957353956997394561767578125</LatitudeDegrees>
              <LongitudeDegrees>-0.14361427165567874908447265625</LongitudeDegrees>
            </Position>
            <AltitudeMeters>1538.5999755859375</AltitudeMeters>
            <DistanceMeters>1062.3787133993</DistanceMeters>
          </Trackpoint>
          <Trackpoint>
            <Time>2022-07-09T07:35:30.000Z</Time>
            <Position>
              <LatitudeDegrees>42.8496086597442626953125</LatitudeDegrees>
              <LongitudeDegrees>-0.14363774098455905914306640625</LongitudeDegrees>
            </Position>
            <AltitudeMeters>1538.800048828125</AltitudeMeters>
            <DistanceMeters>1066.7313103689</DistanceMeters>
          </Trackpoint>
          <Trackpoint>
            <Time>2022-07-09T07:35:31.000Z</Time>
            <Position>
              <LatitudeDegrees>42.84961829893290996551513671875</LatitudeDegrees>
              <LongitudeDegrees>-0.14364193193614482879638671875</LongitudeDegrees>
            </Position>
            <AltitudeMeters>1538.800048828125</AltitudeMeters>
            <DistanceMeters>1067.8596900827</DistanceMeters>
          </Trackpoint>
          <Trackpoint>
            <Time>2022-07-09T07:35:34.000Z</Time>
            <Position>
              <LatitudeDegrees>42.84957823343575000762939453125</LatitudeDegrees>
              <LongitudeDegrees>-0.14367428608238697052001953125</LongitudeDegrees>
            </Position>
            <AltitudeMeters>1538.800048828125</AltitudeMeters>
            <DistanceMeters>1073.0419142524</DistanceMeters>
          </Trackpoint>
          <Trackpoint>
            <Time>2022-07-09T07:35:36.000Z</Time>
            <Position>
              <LatitudeDegrees>42.84957186318933963775634765625</LatitudeDegrees>
              <LongitudeDegrees>-0.143680572509765625</LongitudeDegrees>
            </Position>
            <AltitudeMeters>1538.5999755859375</AltitudeMeters>
            <DistanceMeters>1073.9128484756</DistanceMeters>
          </Trackpoint>
          <Trackpoint>
            <Time>2022-07-09T07:35:42.000Z</Time>
            <Position>
              <LatitudeDegrees>42.8495853580534458160400390625</LatitudeDegrees>
              <LongitudeDegrees>-0.1437011919915676116943359375</LongitudeDegrees>
            </Position>
            <AltitudeMeters>1538.5999755859375</AltitudeMeters>
            <DistanceMeters>1076.1656030032</DistanceMeters>
          </Trackpoint>
          <Trackpoint>
            <Time>2022-07-09T07:35:45.000Z</Time>
            <Position>
              <LatitudeDegrees>42.84959097392857074737548828125</LatitudeDegrees>
              <LongitudeDegrees>-0.14371921308338642120361328125</LongitudeDegrees>
            </Position>
            <AltitudeMeters>1538.4000244140625</AltitudeMeters>
            <DistanceMeters>1077.7670216587</DistanceMeters>
          </Trackpoint>
          <Trackpoint>
            <Time>2022-07-09T07:35:46.000Z</Time>
            <Position>
              <LatitudeDegrees>42.84963673911988735198974609375</LatitudeDegrees>
              <LongitudeDegrees>-0.1436804048717021942138671875</LongitudeDegrees>
            </Position>
            <AltitudeMeters>1538.4000244140625</AltitudeMeters>
            <DistanceMeters>1083.7650066997</DistanceMeters>
          </Trackpoint>
          <Trackpoint>
            <Time>2022-07-09T07:35:51.000Z</Time>
            <Position>
              <LatitudeDegrees>42.84959994256496429443359375</LatitudeDegrees>
              <LongitudeDegrees>-0.143629275262355804443359375</LongitudeDegrees>
            </Position>
            <AltitudeMeters>1538.4000244140625</AltitudeMeters>
            <DistanceMeters>1089.6112738285</DistanceMeters>
          </Trackpoint>
          <Trackpoint>
            <Time>2022-07-09T07:35:57.000Z</Time>
            <Position>
              <LatitudeDegrees>42.84958628006279468536376953125</LatitudeDegrees>
              <LongitudeDegrees>-0.14355375431478023529052734375</LongitudeDegrees>
            </Position>
            <AltitudeMeters>1538.199951171875</AltitudeMeters>
            <DistanceMeters>1095.9574648861</DistanceMeters>
          </Trackpoint>
          <Trackpoint>
            <Time>2022-07-09T07:36:03.000Z</Time>
            <Position>
              <LatitudeDegrees>42.84962450154125690460205078125</LatitudeDegrees>
              <LongitudeDegrees>-0.14359264634549617767333984375</LongitudeDegrees>
            </Position>
            <AltitudeMeters>1538</AltitudeMeters>
            <DistanceMeters>1101.2636667624</DistanceMeters>
          </Trackpoint>
          <Trackpoint>
            <Time>2022-07-09T07:36:09.000Z</Time>
            <Position>
              <LatitudeDegrees>42.84965752623975276947021484375</LatitudeDegrees>
              <LongitudeDegrees>-0.14364796690642833709716796875</LongitudeDegrees>
            </Position>
            <AltitudeMeters>1538.4000244140625</AltitudeMeters>
            <DistanceMeters>1107.0836166541</DistanceMeters>
          </Trackpoint>
          <Trackpoint>
            <Time>2022-07-09T07:36:11.000Z</Time>
            <Position>
              <LatitudeDegrees>42.84966289065778255462646484375</LatitudeDegrees>
              <LongitudeDegrees>-0.14364897273480892181396484375</LongitudeDegrees>
            </Position>
            <AltitudeMeters>1538.800048828125</AltitudeMeters>
            <DistanceMeters>1107.684618366</DistanceMeters>
          </Trackpoint>
          <Trackpoint>
            <Time>2022-07-09T07:36:17.000Z</Time>
            <Position>
              <LatitudeDegrees>42.849681079387664794921875</LatitudeDegrees>
              <LongitudeDegrees>-0.14366305433213710784912109375</LongitudeDegrees>
            </Position>
            <AltitudeMeters>1539.199951171875</AltitudeMeters>
            <DistanceMeters>1110.0122879874</DistanceMeters>
          </Trackpoint>
          <Trackpoint>
            <Time>2022-07-09T07:36:19.000Z</Time>
            <Position>
              <LatitudeDegrees>42.84967998974025249481201171875</LatitudeDegrees>
              <LongitudeDegrees>-0.1436793990433216094970703125</LongitudeDegrees>
            </Position>
            <AltitudeMeters>1539.199951171875</AltitudeMeters>
            <DistanceMeters>1111.3494323835</DistanceMeters>
          </Trackpoint>
          <Trackpoint>
            <Time>2022-07-09T07:36:20.000Z</Time>
            <Position>
              <LatitudeDegrees>42.8496797382831573486328125</LatitudeDegrees>
              <LongitudeDegrees>-0.1436824165284633636474609375</LongitudeDegrees>
            </Position>
            <AltitudeMeters>1539.199951171875</AltitudeMeters>
            <DistanceMeters>1111.5821993456</DistanceMeters>
          </Trackpoint>
          <Trackpoint>
            <Time>2022-07-09T07:36:21.000Z</Time>
            <Position>
              <LatitudeDegrees>42.849675714969635009765625</LatitudeDegrees>
              <LongitudeDegrees>-0.14368836767971515655517578125</LongitudeDegrees>
            </Position>
            <AltitudeMeters>1539.199951171875</AltitudeMeters>
            <DistanceMeters>1112.2405637351</DistanceMeters>
          </Trackpoint>
          <Trackpoint>
            <Time>2022-07-09T07:36:23.000Z</Time>
            <Position>
              <LatitudeDegrees>42.84967496059834957122802734375</LatitudeDegrees>
              <LongitudeDegrees>-0.14371083118021488189697265625</LongitudeDegrees>
            </Position>
            <AltitudeMeters>1539.199951171875</AltitudeMeters>
            <DistanceMeters>1114.0733726278</DistanceMeters>
          </Trackpoint>
          <Trackpoint>
            <Time>2022-07-09T07:36:25.000Z</Time>
            <Position>
              <LatitudeDegrees>42.84967211075127124786376953125</LatitudeDegrees>
              <LongitudeDegrees>-0.14371116645634174346923828125</LongitudeDegrees>
            </Position>
            <AltitudeMeters>1539.4000244140625</AltitudeMeters>
            <DistanceMeters>1114.3738734837</DistanceMeters>
          </Trackpoint>
          <Trackpoint>
            <Time>2022-07-09T07:36:30.000Z</Time>
            <Position>
              <LatitudeDegrees>42.8496671654284000396728515625</LatitudeDegrees>
              <LongitudeDegrees>-0.1437233202159404754638671875</LongitudeDegrees>
            </Position>
            <AltitudeMeters>1538.4000244140625</AltitudeMeters>
            <DistanceMeters>1115.5022531976</DistanceMeters>
          </Trackpoint>
          <Trackpoint>
            <Time>2022-07-09T07:36:31.000Z</Time>
            <Position>
              <LatitudeDegrees>42.84966431558132171630859375</LatitudeDegrees>
              <LongitudeDegrees>-0.14371787197887897491455078125</LongitudeDegrees>
            </Position>
            <AltitudeMeters>1538.199951171875</AltitudeMeters>
            <DistanceMeters>1116.0481401114</DistanceMeters>
          </Trackpoint>
          <Trackpoint>
            <Time>2022-07-09T07:36:37.000Z</Time>
            <Position>
              <LatitudeDegrees>42.8496447019279003143310546875</LatitudeDegrees>
              <LongitudeDegrees>-0.14370932243764400482177734375</LongitudeDegrees>
            </Position>
            <AltitudeMeters>1537.5999755859375</AltitudeMeters>
            <DistanceMeters>1118.3406288224</DistanceMeters>
          </Trackpoint>
          <Trackpoint>
            <Time>2022-07-09T07:36:42.000Z</Time>
            <Position>
              <LatitudeDegrees>42.8496591188013553619384765625</LatitudeDegrees>
              <LongitudeDegrees>-0.1436991803348064422607421875</LongitudeDegrees>
            </Position>
            <AltitudeMeters>1537.5999755859375</AltitudeMeters>
            <DistanceMeters>1120.1461363955</DistanceMeters>
          </Trackpoint>
          <Trackpoint>
            <Time>2022-07-09T07:36:45.000Z</Time>
            <Position>
              <LatitudeDegrees>42.8496852703392505645751953125</LatitudeDegrees>
              <LongitudeDegrees>-0.14371787197887897491455078125</LongitudeDegrees>
            </Position>
            <AltitudeMeters>1537.5999755859375</AltitudeMeters>
            <DistanceMeters>1123.4297184751</DistanceMeters>
          </Trackpoint>
          <Trackpoint>
            <Time>2022-07-09T07:36:50.000Z</Time>
            <Position>
              <LatitudeDegrees>42.8497379086911678314208984375</LatitudeDegrees>
              <LongitudeDegrees>-0.143776796758174896240234375</LongitudeDegrees>
            </Position>
            <AltitudeMeters>1537.5999755859375</AltitudeMeters>
            <DistanceMeters>1131.0092531796</DistanceMeters>
          </Trackpoint>
          <Trackpoint>
            <Time>2022-07-09T07:36:53.000Z</Time>
            <Position>
              <LatitudeDegrees>42.84973128698766231536865234375</LatitudeDegrees>
              <LongitudeDegrees>-0.14376531355082988739013671875</LongitudeDegrees>
            </Position>
            <AltitudeMeters>1537.5999755859375</AltitudeMeters>
            <DistanceMeters>1132.1999344979</DistanceMeters>
          </Trackpoint>
          <Trackpoint>
            <Time>2022-07-09T07:36:59.000Z</Time>
            <Position>
              <LatitudeDegrees>42.8497711010277271270751953125</LatitudeDegrees>
              <LongitudeDegrees>-0.14376439154148101806640625</LongitudeDegrees>
            </Position>
            <AltitudeMeters>1537.4000244140625</AltitudeMeters>
            <DistanceMeters>1136.6327040996</DistanceMeters>
          </Trackpoint>
          <Trackpoint>
            <Time>2022-07-09T07:37:03.000Z</Time>
            <Position>
              <LatitudeDegrees>42.849782668054103851318359375</LatitudeDegrees>
              <LongitudeDegrees>-0.1437545008957386016845703125</LongitudeDegrees>
            </Position>
            <AltitudeMeters>1537.199951171875</AltitudeMeters>
            <DistanceMeters>1138.1531315296</DistanceMeters>
          </Trackpoint>
          <Trackpoint>
            <Time>2022-07-09T07:37:05.000Z</Time>
            <Position>
              <LatitudeDegrees>42.84978928975760936737060546875</LatitudeDegrees>
              <LongitudeDegrees>-0.14375274069607257843017578125</LongitudeDegrees>
            </Position>
            <AltitudeMeters>1537.199951171875</AltitudeMeters>
            <DistanceMeters>1138.9013726268</DistanceMeters>
          </Trackpoint>
          <Trackpoint>
            <Time>2022-07-09T07:37:11.000Z</Time>
            <Position>
              <LatitudeDegrees>42.84979918040335178375244140625</LatitudeDegrees>
              <LongitudeDegrees>-0.14378827996551990509033203125</LongitudeDegrees>
            </Position>
            <AltitudeMeters>1537.199951171875</AltitudeMeters>
            <DistanceMeters>1142.0010502449</DistanceMeters>
          </Trackpoint>
          <Trackpoint>
            <Time>2022-07-09T07:37:12.000Z</Time>
            <Position>
              <LatitudeDegrees>42.8498036228120326995849609375</LatitudeDegrees>
              <LongitudeDegrees>-0.1438004337251186370849609375</LongitudeDegrees>
            </Position>
            <AltitudeMeters>1537.199951171875</AltitudeMeters>
            <DistanceMeters>1143.1092426453</DistanceMeters>
          </Trackpoint>
          <Trackpoint>
            <Time>2022-07-09T07:37:13.000Z</Time>
            <Position>
              <LatitudeDegrees>42.8498113341629505157470703125</LatitudeDegrees>
              <LongitudeDegrees>-0.14381409622728824615478515625</LongitudeDegrees>
            </Position>
            <AltitudeMeters>1537.199951171875</AltitudeMeters>
            <DistanceMeters>1144.5155095977</DistanceMeters>
          </Trackpoint>
          <Trackpoint>
            <Time>2022-07-09T07:37:14.000Z</Time>
            <Position>
              <LatitudeDegrees>42.84982399083673954010009765625</LatitudeDegrees>
              <LongitudeDegrees>-0.14382901601493358612060546875</LongitudeDegrees>
            </Position>
            <AltitudeMeters>1537.199951171875</AltitudeMeters>
            <DistanceMeters>1146.3752190583</DistanceMeters>
          </Trackpoint>
          <Trackpoint>
            <Time>2022-07-09T07:37:20.000Z</Time>
            <Position>
              <LatitudeDegrees>42.84987193532288074493408203125</LatitudeDegrees>
              <LongitudeDegrees>-0.143849886953830718994140625</LongitudeDegrees>
            </Position>
            <AltitudeMeters>1537.199951171875</AltitudeMeters>
            <DistanceMeters>1151.9761551913</DistanceMeters>
          </Trackpoint>
          <Trackpoint>
            <Time>2022-07-09T07:37:26.000Z</Time>
            <Position>
              <LatitudeDegrees>42.8498703427612781524658203125</LatitudeDegrees>
              <LongitudeDegrees>-0.1437945663928985595703125</LongitudeDegrees>
            </Position>
            <AltitudeMeters>1537.199951171875</AltitudeMeters>
            <DistanceMeters>1156.4916742767</DistanceMeters>
          </Trackpoint>
          <Trackpoint>
            <Time>2022-07-09T07:37:31.000Z</Time>
            <Position>
              <LatitudeDegrees>42.84987662918865680694580078125</LatitudeDegrees>
              <LongitudeDegrees>-0.1437514834105968475341796875</LongitudeDegrees>
            </Position>
            <AltitudeMeters>1537.199951171875</AltitudeMeters>
            <DistanceMeters>1160.0750761106</DistanceMeters>
          </Trackpoint>
          <Trackpoint>
            <Time>2022-07-09T07:37:37.000Z</Time>
            <Position>
              <LatitudeDegrees>42.8498736955225467681884765625</LatitudeDegrees>
              <LongitudeDegrees>-0.1437538303434848785400390625</LongitudeDegrees>
            </Position>
            <AltitudeMeters>1537</AltitudeMeters>
            <DistanceMeters>1160.4551829681</DistanceMeters>
          </Trackpoint>
          <Trackpoint>
            <Time>2022-07-09T07:37:43.000Z</Time>
            <Position>
              <LatitudeDegrees>42.84985064528882503509521484375</LatitudeDegrees>
              <LongitudeDegrees>-0.14374452643096446990966796875</LongitudeDegrees>
            </Position>
            <AltitudeMeters>1537.199951171875</AltitudeMeters>
            <DistanceMeters>1163.1328462585</DistanceMeters>
          </Trackpoint>
          <Trackpoint>
            <Time>2022-07-09T07:37:49.000Z</Time>
            <Position>
              <LatitudeDegrees>42.84979180432856082916259765625</LatitudeDegrees>
              <LongitudeDegrees>-0.14370613731443881988525390625</LongitudeDegrees>
            </Position>
            <AltitudeMeters>1537.800048828125</AltitudeMeters>
            <DistanceMeters>1170.3935339862</DistanceMeters>
          </Trackpoint>
          <Trackpoint>
            <Time>2022-07-09T07:37:50.000Z</Time>
            <Position>
              <LatitudeDegrees>42.8497747890651226043701171875</LatitudeDegrees>
              <LongitudeDegrees>-0.14369465410709381103515625</LongitudeDegrees>
            </Position>
            <AltitudeMeters>1537.800048828125</AltitudeMeters>
            <DistanceMeters>1172.5077449122</DistanceMeters>
          </Trackpoint>
          <Trackpoint>
            <Time>2022-07-09T07:37:52.000Z</Time>
            <Position>
              <LatitudeDegrees>42.84972877241671085357666015625</LatitudeDegrees>
              <LongitudeDegrees>-0.14368853531777858734130859375</LongitudeDegrees>
            </Position>
            <AltitudeMeters>1537.800048828125</AltitudeMeters>
            <DistanceMeters>1177.6532462614</DistanceMeters>
          </Trackpoint>
          <Trackpoint>
            <Time>2022-07-09T07:37:56.000Z</Time>
            <Position>
              <LatitudeDegrees>42.8496172092854976654052734375</LatitudeDegrees>
              <LongitudeDegrees>-0.14369188807904720306396484375</LongitudeDegrees>
            </Position>
            <AltitudeMeters>1537.800048828125</AltitudeMeters>
            <DistanceMeters>1190.0730596986</DistanceMeters>
          </Trackpoint>
          <Trackpoint>
            <Time>2022-07-09T07:37:58.000Z</Time>
            <Position>
              <LatitudeDegrees>42.84957714378833770751953125</LatitudeDegrees>
              <LongitudeDegrees>-0.14368736185133457183837890625</LongitudeDegrees>
            </Position>
            <AltitudeMeters>1537.800048828125</AltitudeMeters>
            <DistanceMeters>1194.5484043281</DistanceMeters>
          </Trackpoint>
          <Trackpoint>
            <Time>2022-07-09T07:38:00.000Z</Time>
            <Position>
              <LatitudeDegrees>42.8495447896420955657958984375</LatitudeDegrees>
              <LongitudeDegrees>-0.14367294497787952423095703125</LongitudeDegrees>
            </Position>
            <AltitudeMeters>1537.800048828125</AltitudeMeters>
            <DistanceMeters>1198.3363841946</DistanceMeters>
          </Trackpoint>
          <Trackpoint>
            <Time>2022-07-09T07:38:01.000Z</Time>
            <Position>
              <LatitudeDegrees>42.849531210958957672119140625</LatitudeDegrees>
              <LongitudeDegrees>-0.14366875402629375457763671875</LongitudeDegrees>
            </Position>
            <AltitudeMeters>1538.4000244140625</AltitudeMeters>
            <DistanceMeters>1199.8862230037</DistanceMeters>
          </Trackpoint>
          <Trackpoint>
            <Time>2022-07-09T07:38:03.000Z</Time>
            <Position>
              <LatitudeDegrees>42.84950648434460163116455078125</LatitudeDegrees>
              <LongitudeDegrees>-0.14365484006702899932861328125</LongitudeDegrees>
            </Position>
            <AltitudeMeters>1539.199951171875</AltitudeMeters>
            <DistanceMeters>1202.8640636757</DistanceMeters>
          </Trackpoint>
          <Trackpoint>
            <Time>2022-07-09T07:38:04.000Z</Time>
            <Position>
              <LatitudeDegrees>42.8494973480701446533203125</LatitudeDegrees>
              <LongitudeDegrees>-0.14365048147737979888916015625</LongitudeDegrees>
            </Position>
            <AltitudeMeters>1539.5999755859375</AltitudeMeters>
            <DistanceMeters>1203.9433596783</DistanceMeters>
          </Trackpoint>
          <Trackpoint>
            <Time>2022-07-09T07:38:06.000Z</Time>
            <Position>
              <LatitudeDegrees>42.84947798587381839752197265625</LatitudeDegrees>
              <LongitudeDegrees>-0.14365316368639469146728515625</LongitudeDegrees>
            </Position>
            <AltitudeMeters>1540.199951171875</AltitudeMeters>
            <DistanceMeters>1206.1103021674</DistanceMeters>
          </Trackpoint>
          <Trackpoint>
            <Time>2022-07-09T07:38:08.000Z</Time>
            <Position>
              <LatitudeDegrees>42.84945870749652385711669921875</LatitudeDegrees>
              <LongitudeDegrees>-0.143666826188564300537109375</LongitudeDegrees>
            </Position>
            <AltitudeMeters>1540.5999755859375</AltitudeMeters>
            <DistanceMeters>1208.5292873959</DistanceMeters>
          </Trackpoint>
          <Trackpoint>
            <Time>2022-07-09T07:38:13.000Z</Time>
            <Position>
              <LatitudeDegrees>42.84942048601806163787841796875</LatitudeDegrees>
              <LongitudeDegrees>-0.143690966069698333740234375</LongitudeDegrees>
            </Position>
            <AltitudeMeters>1541.800048828125</AltitudeMeters>
            <DistanceMeters>1213.2155594656</DistanceMeters>
          </Trackpoint>
          <Trackpoint>
            <Time>2022-07-09T07:38:14.000Z</Time>
            <Position>
              <LatitudeDegrees>42.84941998310387134552001953125</LatitudeDegrees>
              <LongitudeDegrees>-0.1436867751181125640869140625</LongitudeDegrees>
            </Position>
            <AltitudeMeters>1542</AltitudeMeters>
            <DistanceMeters>1213.5711168734</DistanceMeters>
          </Trackpoint>
          <Trackpoint>
            <Time>2022-07-09T07:38:20.000Z</Time>
            <Position>
              <LatitudeDegrees>42.84938964061439037322998046875</LatitudeDegrees>
              <LongitudeDegrees>-0.143660791218280792236328125</LongitudeDegrees>
            </Position>
            <AltitudeMeters>1543</AltitudeMeters>
            <DistanceMeters>1217.5588436215</DistanceMeters>
          </Trackpoint>
          <Trackpoint>
            <Time>2022-07-09T07:38:25.000Z</Time>
            <Position>
              <LatitudeDegrees>42.8493808396160602569580078125</LatitudeDegrees>
              <LongitudeDegrees>-0.14362382702529430389404296875</LongitudeDegrees>
            </Position>
            <AltitudeMeters>1544</AltitudeMeters>
            <DistanceMeters>1220.7290920475</DistanceMeters>
          </Trackpoint>
          <Trackpoint>
            <Time>2022-07-09T07:38:28.000Z</Time>
            <Position>
              <LatitudeDegrees>42.8493778221309185028076171875</LatitudeDegrees>
              <LongitudeDegrees>-0.1435987651348114013671875</LongitudeDegrees>
            </Position>
            <AltitudeMeters>1544.800048828125</AltitudeMeters>
            <DistanceMeters>1222.802330188</DistanceMeters>
          </Trackpoint>
          <Trackpoint>
            <Time>2022-07-09T07:38:30.000Z</Time>
            <Position>
              <LatitudeDegrees>42.8493727929890155792236328125</LatitudeDegrees>
              <LongitudeDegrees>-0.14358275569975376129150390625</LongitudeDegrees>
            </Position>
            <AltitudeMeters>1545</AltitudeMeters>
            <DistanceMeters>1224.224559819</DistanceMeters>
          </Trackpoint>
          <Trackpoint>
            <Time>2022-07-09T07:38:31.000Z</Time>
            <Position>
              <LatitudeDegrees>42.8493711166083812713623046875</LatitudeDegrees>
              <LongitudeDegrees>-0.143576972186565399169921875</LongitudeDegrees>
            </Position>
            <AltitudeMeters>1545.4000244140625</AltitudeMeters>
            <DistanceMeters>1224.7273939273</DistanceMeters>
          </Trackpoint>
          <Trackpoint>
            <Time>2022-07-09T07:38:34.000Z</Time>
            <Position>
              <LatitudeDegrees>42.8493605554103851318359375</LatitudeDegrees>
              <LongitudeDegrees>-0.14355291612446308135986328125</LongitudeDegrees>
            </Position>
            <AltitudeMeters>1546</AltitudeMeters>
            <DistanceMeters>1227.0159402645</DistanceMeters>
          </Trackpoint>
          <Trackpoint>
            <Time>2022-07-09T07:38:36.000Z</Time>
            <Position>
              <LatitudeDegrees>42.8493593819439411163330078125</LatitudeDegrees>
              <LongitudeDegrees>-0.14353816397488117218017578125</LongitudeDegrees>
            </Position>
            <AltitudeMeters>1546.5999755859375</AltitudeMeters>
            <DistanceMeters>1228.2254328788</DistanceMeters>
          </Trackpoint>
          <Trackpoint>
            <Time>2022-07-09T07:38:40.000Z</Time>
            <Position>
              <LatitudeDegrees>42.8493510000407695770263671875</LatitudeDegrees>
              <LongitudeDegrees>-0.143521316349506378173828125</LongitudeDegrees>
            </Position>
            <AltitudeMeters>1547.199951171875</AltitudeMeters>
            <DistanceMeters>1229.8850030988</DistanceMeters>
          </Trackpoint>
          <Trackpoint>
            <Time>2022-07-09T07:38:41.000Z</Time>
            <Position>
              <LatitudeDegrees>42.84934504888951778411865234375</LatitudeDegrees>
              <LongitudeDegrees>-0.1435182988643646240234375</LongitudeDegrees>
            </Position>
            <AltitudeMeters>1547.4000244140625</AltitudeMeters>
            <DistanceMeters>1230.5833039853</DistanceMeters>
          </Trackpoint>
          <Trackpoint>
            <Time>2022-07-09T07:38:43.000Z</Time>
            <Position>
              <LatitudeDegrees>42.84933951683342456817626953125</LatitudeDegrees>
              <LongitudeDegrees>-0.14350513927638530731201171875</LongitudeDegrees>
            </Position>
            <AltitudeMeters>1547.5999755859375</AltitudeMeters>
            <DistanceMeters>1231.822300755</DistanceMeters>
          </Trackpoint>
          <Trackpoint>
            <Time>2022-07-09T07:38:45.000Z</Time>
            <Position>
              <LatitudeDegrees>42.84933599643409252166748046875</LatitudeDegrees>
              <LongitudeDegrees>-0.14349122531712055206298828125</LongitudeDegrees>
            </Position>
            <AltitudeMeters>1548.4000244140625</AltitudeMeters>
            <DistanceMeters>1233.0243041789</DistanceMeters>
          </Trackpoint>
          <Trackpoint>
            <Time>2022-07-09T07:38:46.000Z</Time>
            <Position>
              <LatitudeDegrees>42.84933364950120449066162109375</LatitudeDegrees>
              <LongitudeDegrees>-0.14348502270877361297607421875</LongitudeDegrees>
            </Position>
            <AltitudeMeters>1548.5999755859375</AltitudeMeters>
            <DistanceMeters>1233.5784003791</DistanceMeters>
          </Trackpoint>
          <Trackpoint>
            <Time>2022-07-09T07:38:47.000Z</Time>
            <Position>
              <LatitudeDegrees>42.84933180548250675201416015625</LatitudeDegrees>
              <LongitudeDegrees>-0.143479742109775543212890625</LongitudeDegrees>
            </Position>
            <AltitudeMeters>1548.800048828125</AltitudeMeters>
            <DistanceMeters>1234.0439343034</DistanceMeters>
          </Trackpoint>
          <Trackpoint>
            <Time>2022-07-09T07:38:53.000Z</Time>
            <Position>
              <LatitudeDegrees>42.849300205707550048828125</LatitudeDegrees>
              <LongitudeDegrees>-0.14343447983264923095703125</LongitudeDegrees>
            </Position>
            <AltitudeMeters>1549.5999755859375</AltitudeMeters>
            <DistanceMeters>1239.1453733466</DistanceMeters>
          </Trackpoint>
          <Trackpoint>
            <Time>2022-07-09T07:38:54.000Z</Time>
            <Position>
              <LatitudeDegrees>42.8492936678230762481689453125</LatitudeDegrees>
              <LongitudeDegrees>-0.1434289477765560150146484375</LongitudeDegrees>
            </Position>
            <AltitudeMeters>1549.800048828125</AltitudeMeters>
            <DistanceMeters>1240.0058768436</DistanceMeters>
          </Trackpoint>
          <Trackpoint>
            <Time>2022-07-09T07:38:59.000Z</Time>
            <Position>
              <LatitudeDegrees>42.84927539527416229248046875</LatitudeDegrees>
              <LongitudeDegrees>-0.14338443987071514129638671875</LongitudeDegrees>
            </Position>
            <AltitudeMeters>1551</AltitudeMeters>
            <DistanceMeters>1244.1675696025</DistanceMeters>
          </Trackpoint>
          <Trackpoint>
            <Time>2022-07-09T07:39:00.000Z</Time>
            <Position>
              <LatitudeDegrees>42.84927313216030597686767578125</LatitudeDegrees>
              <LongitudeDegrees>-0.14337320812046527862548828125</LongitudeDegrees>
            </Position>
            <AltitudeMeters>1551</AltitudeMeters>
            <DistanceMeters>1245.1178367462</DistanceMeters>
          </Trackpoint>
          <Trackpoint>
            <Time>2022-07-09T07:39:02.000Z</Time>
            <Position>
              <LatitudeDegrees>42.8492665104568004608154296875</LatitudeDegrees>
              <LongitudeDegrees>-0.14335292391479015350341796875</LongitudeDegrees>
            </Position>
            <AltitudeMeters>1551.4000244140625</AltitudeMeters>
            <DistanceMeters>1246.9308309066</DistanceMeters>
          </Trackpoint>
          <Trackpoint>
            <Time>2022-07-09T07:39:08.000Z</Time>
            <Position>
              <LatitudeDegrees>42.84923851490020751953125</LatitudeDegrees>
              <LongitudeDegrees>-0.14330212958157062530517578125</LongitudeDegrees>
            </Position>
            <AltitudeMeters>1552</AltitudeMeters>
            <DistanceMeters>1252.1165389248</DistanceMeters>
          </Trackpoint>
          <Trackpoint>
            <Time>2022-07-09T07:39:11.000Z</Time>
            <Position>
              <LatitudeDegrees>42.84922300837934017181396484375</LatitudeDegrees>
              <LongitudeDegrees>-0.14326139353215694427490234375</LongitudeDegrees>
            </Position>
            <AltitudeMeters>1552.199951171875</AltitudeMeters>
            <DistanceMeters>1255.8625686623</DistanceMeters>
          </Trackpoint>
          <Trackpoint>
            <Time>2022-07-09T07:39:17.000Z</Time>
            <Position>
              <LatitudeDegrees>42.84918378107249736785888671875</LatitudeDegrees>
              <LongitudeDegrees>-0.14318310655653476715087890625</LongitudeDegrees>
            </Position>
            <AltitudeMeters>1553</AltitudeMeters>
            <DistanceMeters>1263.6001010094</DistanceMeters>
          </Trackpoint>
          <Trackpoint>
            <Time>2022-07-09T07:39:18.000Z</Time>
            <Position>
              <LatitudeDegrees>42.849171124398708343505859375</LatitudeDegrees>
              <LongitudeDegrees>-0.143171958625316619873046875</LongitudeDegrees>
            </Position>
            <AltitudeMeters>1553</AltitudeMeters>
            <DistanceMeters>1265.2786074439</DistanceMeters>
          </Trackpoint>
          <Trackpoint>
            <Time>2022-07-09T07:39:19.000Z</Time>
            <Position>
              <LatitudeDegrees>42.8491605632007122039794921875</LatitudeDegrees>
              <LongitudeDegrees>-0.14316382817924022674560546875</LongitudeDegrees>
            </Position>
            <AltitudeMeters>1553.199951171875</AltitudeMeters>
            <DistanceMeters>1266.6291908148</DistanceMeters>
          </Trackpoint>
          <Trackpoint>
            <Time>2022-07-09T07:39:25.000Z</Time>
            <Position>
              <LatitudeDegrees>42.8491139598190784454345703125</LatitudeDegrees>
              <LongitudeDegrees>-0.1430903188884258270263671875</LongitudeDegrees>
            </Position>
            <AltitudeMeters>1553.5999755859375</AltitudeMeters>
            <DistanceMeters>1274.5592256417</DistanceMeters>
          </Trackpoint>
          <Trackpoint>
            <Time>2022-07-09T07:39:27.000Z</Time>
            <Position>
              <LatitudeDegrees>42.8490985371172428131103515625</LatitudeDegrees>
              <LongitudeDegrees>-0.143066011369228363037109375</LongitudeDegrees>
            </Position>
            <AltitudeMeters>1553.5999755859375</AltitudeMeters>
            <DistanceMeters>1277.1823760854</DistanceMeters>
          </Trackpoint>
          <Trackpoint>
            <Time>2022-07-09T07:39:32.000Z</Time>
            <Position>
              <LatitudeDegrees>42.8490653447806835174560546875</LatitudeDegrees>
              <LongitudeDegrees>-0.14299619011580944061279296875</LongitudeDegrees>
            </Position>
            <AltitudeMeters>1554.199951171875</AltitudeMeters>
            <DistanceMeters>1283.9726316272</DistanceMeters>
          </Trackpoint>
          <Trackpoint>
            <Time>2022-07-09T07:39:33.000Z</Time>
            <Position>
              <LatitudeDegrees>42.849058471620082855224609375</LatitudeDegrees>
              <LongitudeDegrees>-0.1429823599755764007568359375</LongitudeDegrees>
            </Position>
            <AltitudeMeters>1554.4000244140625</AltitudeMeters>
            <DistanceMeters>1285.3365215595</DistanceMeters>
          </Trackpoint>
          <Trackpoint>
            <Time>2022-07-09T07:39:34.000Z</Time>
            <Position>
              <LatitudeDegrees>42.8490526042878627777099609375</LatitudeDegrees>
              <LongitudeDegrees>-0.14296509325504302978515625</LongitudeDegrees>
            </Position>
            <AltitudeMeters>1554.4000244140625</AltitudeMeters>
            <DistanceMeters>1286.8921759192</DistanceMeters>
          </Trackpoint>
          <Trackpoint>
            <Time>2022-07-09T07:39:35.000Z</Time>
            <Position>
              <LatitudeDegrees>42.8490469045937061309814453125</LatitudeDegrees>
              <LongitudeDegrees>-0.14294941909611225128173828125</LongitudeDegrees>
            </Position>
            <AltitudeMeters>1554.4000244140625</AltitudeMeters>
            <DistanceMeters>1288.3175766348</DistanceMeters>
          </Trackpoint>
          <Trackpoint>
            <Time>2022-07-09T07:39:36.000Z</Time>
            <Position>
              <LatitudeDegrees>42.84904028289020061492919921875</LatitudeDegrees>
              <LongitudeDegrees>-0.1429335772991180419921875</LongitudeDegrees>
            </Position>
            <AltitudeMeters>1554.5999755859375</AltitudeMeters>
            <DistanceMeters>1289.801941365</DistanceMeters>
          </Trackpoint>
          <Trackpoint>
            <Time>2022-07-09T07:39:37.000Z</Time>
            <Position>
              <LatitudeDegrees>42.8490360081195831298828125</LatitudeDegrees>
              <LongitudeDegrees>-0.14291907660663127899169921875</LongitudeDegrees>
            </Position>
            <AltitudeMeters>1554.5999755859375</AltitudeMeters>
            <DistanceMeters>1291.076858523</DistanceMeters>
          </Trackpoint>
          <Trackpoint>
            <Time>2022-07-09T07:39:41.000Z</Time>
            <Position>
              <LatitudeDegrees>42.84902033396065235137939453125</LatitudeDegrees>
              <LongitudeDegrees>-0.14286191202700138092041015625</LongitudeDegrees>
            </Position>
            <AltitudeMeters>1555</AltitudeMeters>
            <DistanceMeters>1296.0582890473</DistanceMeters>
          </Trackpoint>
          <Trackpoint>
            <Time>2022-07-09T07:39:43.000Z</Time>
            <Position>
              <LatitudeDegrees>42.84900985658168792724609375</LatitudeDegrees>
              <LongitudeDegrees>-0.14282352291047573089599609375</LongitudeDegrees>
            </Position>
            <AltitudeMeters>1555.199951171875</AltitudeMeters>
            <DistanceMeters>1299.4018252947</DistanceMeters>
          </Trackpoint>
          <Trackpoint>
            <Time>2022-07-09T07:39:44.000Z</Time>
            <Position>
              <LatitudeDegrees>42.84900390543043613433837890625</LatitudeDegrees>
              <LongitudeDegrees>-0.14280625618994235992431640625</LongitudeDegrees>
            </Position>
            <AltitudeMeters>1555.4000244140625</AltitudeMeters>
            <DistanceMeters>1300.9603792923</DistanceMeters>
          </Trackpoint>
          <Trackpoint>
            <Time>2022-07-09T07:39:50.000Z</Time>
            <Position>
              <LatitudeDegrees>42.848974652588367462158203125</LatitudeDegrees>
              <LongitudeDegrees>-0.142738111317157745361328125</LongitudeDegrees>
            </Position>
            <AltitudeMeters>1556.4000244140625</AltitudeMeters>
            <DistanceMeters>1307.4047040487</DistanceMeters>
          </Trackpoint>
          <Trackpoint>
            <Time>2022-07-09T07:39:52.000Z</Time>
            <Position>
              <LatitudeDegrees>42.84897792153060436248779296875</LatitudeDegrees>
              <LongitudeDegrees>-0.14271430671215057373046875</LongitudeDegrees>
            </Position>
            <AltitudeMeters>1556.5999755859375</AltitudeMeters>
            <DistanceMeters>1309.3820818831</DistanceMeters>
          </Trackpoint>
          <Trackpoint>
            <Time>2022-07-09T07:39:56.000Z</Time>
            <Position>
              <LatitudeDegrees>42.848975993692874908447265625</LatitudeDegrees>
              <LongitudeDegrees>-0.142675749957561492919921875</LongitudeDegrees>
            </Position>
            <AltitudeMeters>1557.4000244140625</AltitudeMeters>
            <DistanceMeters>1312.5337614494</DistanceMeters>
          </Trackpoint>
          <Trackpoint>
            <Time>2022-07-09T07:39:58.000Z</Time>
            <Position>
              <LatitudeDegrees>42.8489768318831920623779296875</LatitudeDegrees>
              <LongitudeDegrees>-0.14265798032283782958984375</LongitudeDegrees>
            </Position>
            <AltitudeMeters>1557.5999755859375</AltitudeMeters>
            <DistanceMeters>1313.987390662</DistanceMeters>
          </Trackpoint>
          <Trackpoint>
            <Time>2022-07-09T07:40:02.000Z</Time>
            <Position>
              <LatitudeDegrees>42.8489647619426250457763671875</LatitudeDegrees>
              <LongitudeDegrees>-0.14260274358093738555908203125</LongitudeDegrees>
            </Position>
            <AltitudeMeters>1558.800048828125</AltitudeMeters>
            <DistanceMeters>1318.6909730508</DistanceMeters>
          </Trackpoint>
          <Trackpoint>
            <Time>2022-07-09T07:40:04.000Z</Time>
            <Position>
              <LatitudeDegrees>42.8489501774311065673828125</LatitudeDegrees>
              <LongitudeDegrees>-0.1425763405859470367431640625</LongitudeDegrees>
            </Position>
            <AltitudeMeters>1559.199951171875</AltitudeMeters>
            <DistanceMeters>1321.3887946931</DistanceMeters>
          </Trackpoint>
          <Trackpoint>
            <Time>2022-07-09T07:40:06.000Z</Time>
            <Position>
              <LatitudeDegrees>42.84894087351858615875244140625</LatitudeDegrees>
              <LongitudeDegrees>-0.14255764894187450408935546875</LongitudeDegrees>
            </Position>
            <AltitudeMeters>1559.199951171875</AltitudeMeters>
            <DistanceMeters>1323.2314310498</DistanceMeters>
          </Trackpoint>
          <Trackpoint>
            <Time>2022-07-09T07:40:10.000Z</Time>
            <Position>
              <LatitudeDegrees>42.84893617965281009674072265625</LatitudeDegrees>
              <LongitudeDegrees>-0.14252328313887119293212890625</LongitudeDegrees>
            </Position>
            <AltitudeMeters>1559.4000244140625</AltitudeMeters>
            <DistanceMeters>1326.0853982802</DistanceMeters>
          </Trackpoint>
          <Trackpoint>
            <Time>2022-07-09T07:40:16.000Z</Time>
            <Position>
              <LatitudeDegrees>42.8489308990538120269775390625</LatitudeDegrees>
              <LongitudeDegrees>-0.14241314493119716644287109375</LongitudeDegrees>
            </Position>
            <AltitudeMeters>1559.5999755859375</AltitudeMeters>
            <DistanceMeters>1335.0919057441</DistanceMeters>
          </Trackpoint>
          <Trackpoint>
            <Time>2022-07-09T07:40:17.000Z</Time>
            <Position>
              <LatitudeDegrees>42.8489262051880359649658203125</LatitudeDegrees>
              <LongitudeDegrees>-0.1423939503729343414306640625</LongitudeDegrees>
            </Position>
            <AltitudeMeters>1559.800048828125</AltitudeMeters>
            <DistanceMeters>1336.7405576205</DistanceMeters>
          </Trackpoint>
          <Trackpoint>
            <Time>2022-07-09T07:40:23.000Z</Time>
            <Position>
              <LatitudeDegrees>42.84894305281341075897216796875</LatitudeDegrees>
              <LongitudeDegrees>-0.14227031730115413665771484375</LongitudeDegrees>
            </Position>
            <AltitudeMeters>1560</AltitudeMeters>
            <DistanceMeters>1347.0016828676</DistanceMeters>
          </Trackpoint>
          <Trackpoint>
            <Time>2022-07-09T07:40:25.000Z</Time>
            <Position>
              <LatitudeDegrees>42.84894137643277645111083984375</LatitudeDegrees>
              <LongitudeDegrees>-0.14223913662135601043701171875</LongitudeDegrees>
            </Position>
            <AltitudeMeters>1560</AltitudeMeters>
            <DistanceMeters>1349.5532872876</DistanceMeters>
          </Trackpoint>
          <Trackpoint>
            <Time>2022-07-09T07:40:26.000Z</Time>
            <Position>
              <LatitudeDegrees>42.848941795527935028076171875</LatitudeDegrees>
              <LongitudeDegrees>-0.14221818186342716217041015625</LongitudeDegrees>
            </Position>
            <AltitudeMeters>1560</AltitudeMeters>
            <DistanceMeters>1351.2637681462</DistanceMeters>
          </Trackpoint>
          <Trackpoint>
            <Time>2022-07-09T07:40:27.000Z</Time>
            <Position>
              <LatitudeDegrees>42.8489412926137447357177734375</LatitudeDegrees>
              <LongitudeDegrees>-0.14219856821000576019287109375</LongitudeDegrees>
            </Position>
            <AltitudeMeters>1560</AltitudeMeters>
            <DistanceMeters>1352.8651868017</DistanceMeters>
          </Trackpoint>
          <Trackpoint>
            <Time>2022-07-09T07:40:31.000Z</Time>
            <Position>
              <LatitudeDegrees>42.848945818841457366943359375</LatitudeDegrees>
              <LongitudeDegrees>-0.1421388052403926849365234375</LongitudeDegrees>
            </Position>
            <AltitudeMeters>1560.5999755859375</AltitudeMeters>
            <DistanceMeters>1357.7680495872</DistanceMeters>
          </Trackpoint>
          <Trackpoint>
            <Time>2022-07-09T07:40:33.000Z</Time>
            <Position>
              <LatitudeDegrees>42.84894816577434539794921875</LatitudeDegrees>
              <LongitudeDegrees>-0.14211625792086124420166015625</LongitudeDegrees>
            </Position>
            <AltitudeMeters>1560.800048828125</AltitudeMeters>
            <DistanceMeters>1359.6253296419</DistanceMeters>
          </Trackpoint>
          <Trackpoint>
            <Time>2022-07-09T07:40:34.000Z</Time>
            <Position>
              <LatitudeDegrees>42.84895344637334346771240234375</LatitudeDegrees>
              <LongitudeDegrees>-0.14210837893187999725341796875</LongitudeDegrees>
            </Position>
            <AltitudeMeters>1560.800048828125</AltitudeMeters>
            <DistanceMeters>1360.4962638652</DistanceMeters>
          </Trackpoint>
          <Trackpoint>
            <Time>2022-07-09T07:40:40.000Z</Time>
            <Position>
              <LatitudeDegrees>42.848958559334278106689453125</LatitudeDegrees>
              <LongitudeDegrees>-0.14204048551619052886962890625</LongitudeDegrees>
            </Position>
            <AltitudeMeters>1561.4000244140625</AltitudeMeters>
            <DistanceMeters>1366.0648617595</DistanceMeters>
          </Trackpoint>
          <Trackpoint>
            <Time>2022-07-09T07:40:41.000Z</Time>
            <Position>
              <LatitudeDegrees>42.848955877125263214111328125</LatitudeDegrees>
              <LongitudeDegrees>-0.1420296728610992431640625</LongitudeDegrees>
            </Position>
            <AltitudeMeters>1561.4000244140625</AltitudeMeters>
            <DistanceMeters>1366.9910676018</DistanceMeters>
          </Trackpoint>
          <Trackpoint>
            <Time>2022-07-09T07:40:43.000Z</Time>
            <Position>
              <LatitudeDegrees>42.84895763732492923736572265625</LatitudeDegrees>
              <LongitudeDegrees>-0.14200293458998203277587890625</LongitudeDegrees>
            </Position>
            <AltitudeMeters>1561.800048828125</AltitudeMeters>
            <DistanceMeters>1369.1808097308</DistanceMeters>
          </Trackpoint>
          <Trackpoint>
            <Time>2022-07-09T07:40:44.000Z</Time>
            <Position>
              <LatitudeDegrees>42.8489540331065654754638671875</LatitudeDegrees>
              <LongitudeDegrees>-0.1419976539909839630126953125</LongitudeDegrees>
            </Position>
            <AltitudeMeters>1562</AltitudeMeters>
            <DistanceMeters>1369.7588346684</DistanceMeters>
          </Trackpoint>
          <Trackpoint>
            <Time>2022-07-09T07:40:46.000Z</Time>
            <Position>
              <LatitudeDegrees>42.8489528596401214599609375</LatitudeDegrees>
              <LongitudeDegrees>-0.14198265038430690765380859375</LongitudeDegrees>
            </Position>
            <AltitudeMeters>1562.4000244140625</AltitudeMeters>
            <DistanceMeters>1370.9905216589</DistanceMeters>
          </Trackpoint>
          <Trackpoint>
            <Time>2022-07-09T07:40:48.000Z</Time>
            <Position>
              <LatitudeDegrees>42.848947159945964813232421875</LatitudeDegrees>
              <LongitudeDegrees>-0.14197091571986675262451171875</LongitudeDegrees>
            </Position>
            <AltitudeMeters>1562.800048828125</AltitudeMeters>
            <DistanceMeters>1372.146571534</DistanceMeters>
          </Trackpoint>
          <Trackpoint>
            <Time>2022-07-09T07:40:49.000Z</Time>
            <Position>
              <LatitudeDegrees>42.84894355572760105133056640625</LatitudeDegrees>
              <LongitudeDegrees>-0.1419614441692829132080078125</LongitudeDegrees>
            </Position>
            <AltitudeMeters>1563</AltitudeMeters>
            <DistanceMeters>1373.0175057572</DistanceMeters>
          </Trackpoint>
          <Trackpoint>
            <Time>2022-07-09T07:40:50.000Z</Time>
            <Position>
              <LatitudeDegrees>42.848939113318920135498046875</LatitudeDegrees>
              <LongitudeDegrees>-0.14195121824741363525390625</LongitudeDegrees>
            </Position>
            <AltitudeMeters>1563.199951171875</AltitudeMeters>
            <DistanceMeters>1373.986591899</DistanceMeters>
          </Trackpoint>
          <Trackpoint>
            <Time>2022-07-09T07:40:53.000Z</Time>
            <Position>
              <LatitudeDegrees>42.848926372826099395751953125</LatitudeDegrees>
              <LongitudeDegrees>-0.1419195346534252166748046875</LongitudeDegrees>
            </Position>
            <AltitudeMeters>1563.5999755859375</AltitudeMeters>
            <DistanceMeters>1376.9354838291</DistanceMeters>
          </Trackpoint>
          <Trackpoint>
            <Time>2022-07-09T07:40:55.000Z</Time>
            <Position>
              <LatitudeDegrees>42.84892109222710132598876953125</LatitudeDegrees>
              <LongitudeDegrees>-0.14189564622938632965087890625</LongitudeDegrees>
            </Position>
            <AltitudeMeters>1564.800048828125</AltitudeMeters>
            <DistanceMeters>1378.9735797945</DistanceMeters>
          </Trackpoint>
          <Trackpoint>
            <Time>2022-07-09T07:40:57.000Z</Time>
            <Position>
              <LatitudeDegrees>42.84891866147518157958984375</LatitudeDegrees>
              <LongitudeDegrees>-0.14187100343406200408935546875</LongitudeDegrees>
            </Position>
            <AltitudeMeters>1565.199951171875</AltitudeMeters>
            <DistanceMeters>1381.0050189236</DistanceMeters>
          </Trackpoint>
          <Trackpoint>
            <Time>2022-07-09T07:40:58.000Z</Time>
            <Position>
              <LatitudeDegrees>42.8489184938371181488037109375</LatitudeDegrees>
              <LongitudeDegrees>-0.14186211861670017242431640625</LongitudeDegrees>
            </Position>
            <AltitudeMeters>1565.800048828125</AltitudeMeters>
            <DistanceMeters>1381.7287208192</DistanceMeters>
          </Trackpoint>
          <Trackpoint>
            <Time>2022-07-09T07:40:59.000Z</Time>
            <Position>
              <LatitudeDegrees>42.8489220142364501953125</LatitudeDegrees>
              <LongitudeDegrees>-0.14185599982738494873046875</LongitudeDegrees>
            </Position>
            <AltitudeMeters>1565.800048828125</AltitudeMeters>
            <DistanceMeters>1382.3590567324</DistanceMeters>
          </Trackpoint>
          <Trackpoint>
            <Time>2022-07-09T07:41:02.000Z</Time>
            <Position>
              <LatitudeDegrees>42.8489097766578197479248046875</LatitudeDegrees>
              <LongitudeDegrees>-0.14181786216795444488525390625</LongitudeDegrees>
            </Position>
            <AltitudeMeters>1566</AltitudeMeters>
            <DistanceMeters>1385.7535195092</DistanceMeters>
          </Trackpoint>
          <Trackpoint>
            <Time>2022-07-09T07:41:03.000Z</Time>
            <Position>
              <LatitudeDegrees>42.84890801645815372467041015625</LatitudeDegrees>
              <LongitudeDegrees>-0.141804702579975128173828125</LongitudeDegrees>
            </Position>
            <AltitudeMeters>1566</AltitudeMeters>
            <DistanceMeters>1386.8369907537</DistanceMeters>
          </Trackpoint>
          <Trackpoint>
            <Time>2022-07-09T07:41:04.000Z</Time>
            <Position>
              <LatitudeDegrees>42.84890734590590000152587890625</LatitudeDegrees>
              <LongitudeDegrees>-0.1417914591729640960693359375</LongitudeDegrees>
            </Position>
            <AltitudeMeters>1566.199951171875</AltitudeMeters>
            <DistanceMeters>1387.9204619982</DistanceMeters>
          </Trackpoint>
          <Trackpoint>
            <Time>2022-07-09T07:41:05.000Z</Time>
            <Position>
              <LatitudeDegrees>42.84890499897301197052001953125</LatitudeDegrees>
              <LongitudeDegrees>-0.141781233251094818115234375</LongitudeDegrees>
            </Position>
            <AltitudeMeters>1566.4000244140625</AltitudeMeters>
            <DistanceMeters>1388.7913962215</DistanceMeters>
          </Trackpoint>
          <Trackpoint>
            <Time>2022-07-09T07:41:07.000Z</Time>
            <Position>
              <LatitudeDegrees>42.84889929927885532379150390625</LatitudeDegrees>
              <LongitudeDegrees>-0.1417565904557704925537109375</LongitudeDegrees>
            </Position>
            <AltitudeMeters>1566.800048828125</AltitudeMeters>
            <DistanceMeters>1390.8991907111</DistanceMeters>
          </Trackpoint>
          <Trackpoint>
            <Time>2022-07-09T07:41:11.000Z</Time>
            <Position>
              <LatitudeDegrees>42.84886904060840606689453125</LatitudeDegrees>
              <LongitudeDegrees>-0.14171677641570568084716796875</LongitudeDegrees>
            </Position>
            <AltitudeMeters>1567.4000244140625</AltitudeMeters>
            <DistanceMeters>1395.5787136971</DistanceMeters>
          </Trackpoint>
          <Trackpoint>
            <Time>2022-07-09T07:41:13.000Z</Time>
            <Position>
              <LatitudeDegrees>42.8488608263432979583740234375</LatitudeDegrees>
              <LongitudeDegrees>-0.14168844558298587799072265625</LongitudeDegrees>
            </Position>
            <AltitudeMeters>1567.800048828125</AltitudeMeters>
            <DistanceMeters>1398.0639847664</DistanceMeters>
          </Trackpoint>
          <Trackpoint>
            <Time>2022-07-09T07:41:16.000Z</Time>
            <Position>
              <LatitudeDegrees>42.848848588764667510986328125</LatitudeDegrees>
              <LongitudeDegrees>-0.1416533254086971282958984375</LongitudeDegrees>
            </Position>
            <AltitudeMeters>1569</AltitudeMeters>
            <DistanceMeters>1401.2356570632</DistanceMeters>
          </Trackpoint>
          <Trackpoint>
            <Time>2022-07-09T07:41:19.000Z</Time>
            <Position>
              <LatitudeDegrees>42.848822437226772308349609375</LatitudeDegrees>
              <LongitudeDegrees>-0.1416318677365779876708984375</LongitudeDegrees>
            </Position>
            <AltitudeMeters>1569.800048828125</AltitudeMeters>
            <DistanceMeters>1404.6327790356</DistanceMeters>
          </Trackpoint>
          <Trackpoint>
            <Time>2022-07-09T07:41:20.000Z</Time>
            <Position>
              <LatitudeDegrees>42.848811037838459014892578125</LatitudeDegrees>
              <LongitudeDegrees>-0.1416228152811527252197265625</LongitudeDegrees>
            </Position>
            <AltitudeMeters>1569.800048828125</AltitudeMeters>
            <DistanceMeters>1406.0987797838</DistanceMeters>
          </Trackpoint>
          <Trackpoint>
            <Time>2022-07-09T07:41:21.000Z</Time>
            <Position>
              <LatitudeDegrees>42.84880273975431919097900390625</LatitudeDegrees>
              <LongitudeDegrees>-0.141613595187664031982421875</LongitudeDegrees>
            </Position>
            <AltitudeMeters>1569.800048828125</AltitudeMeters>
            <DistanceMeters>1407.2894611021</DistanceMeters>
          </Trackpoint>
          <Trackpoint>
            <Time>2022-07-09T07:41:22.000Z</Time>
            <Position>
              <LatitudeDegrees>42.848794944584369659423828125</LatitudeDegrees>
              <LongitudeDegrees>-0.14160387217998504638671875</LongitudeDegrees>
            </Position>
            <AltitudeMeters>1570.4000244140625</AltitudeMeters>
            <DistanceMeters>1408.4648766439</DistanceMeters>
          </Trackpoint>
          <Trackpoint>
            <Time>2022-07-09T07:41:27.000Z</Time>
            <Position>
              <LatitudeDegrees>42.84875915385782718658447265625</LatitudeDegrees>
              <LongitudeDegrees>-0.1415664888918399810791015625</LongitudeDegrees>
            </Position>
            <AltitudeMeters>1571</AltitudeMeters>
            <DistanceMeters>1413.4824311404</DistanceMeters>
          </Trackpoint>
          <Trackpoint>
            <Time>2022-07-09T07:41:30.000Z</Time>
            <Position>
              <LatitudeDegrees>42.8487275540828704833984375</LatitudeDegrees>
              <LongitudeDegrees>-0.14156288467347621917724609375</LongitudeDegrees>
            </Position>
            <AltitudeMeters>1571.5999755859375</AltitudeMeters>
            <DistanceMeters>1417.0125169032</DistanceMeters>
          </Trackpoint>
          <Trackpoint>
            <Time>2022-07-09T07:41:32.000Z</Time>
            <Position>
              <LatitudeDegrees>42.8487076051533222198486328125</LatitudeDegrees>
              <LongitudeDegrees>-0.14157478697597980499267578125</LongitudeDegrees>
            </Position>
            <AltitudeMeters>1571.5999755859375</AltitudeMeters>
            <DistanceMeters>1419.4352322576</DistanceMeters>
          </Trackpoint>
          <Trackpoint>
            <Time>2022-07-09T07:41:36.000Z</Time>
            <Position>
              <LatitudeDegrees>42.84868187271058559417724609375</LatitudeDegrees>
              <LongitudeDegrees>-0.1416466198861598968505859375</LongitudeDegrees>
            </Position>
            <AltitudeMeters>1572</AltitudeMeters>
            <DistanceMeters>1425.9596311079</DistanceMeters>
          </Trackpoint>
          <Trackpoint>
            <Time>2022-07-09T07:41:40.000Z</Time>
            <Position>
              <LatitudeDegrees>42.84868220798671245574951171875</LatitudeDegrees>
              <LongitudeDegrees>-0.14172096736729145050048828125</LongitudeDegrees>
            </Position>
            <AltitudeMeters>1572.5999755859375</AltitudeMeters>
            <DistanceMeters>1432.0257304731</DistanceMeters>
          </Trackpoint>
          <Trackpoint>
            <Time>2022-07-09T07:41:43.000Z</Time>
            <Position>
              <LatitudeDegrees>42.84868287853896617889404296875</LatitudeDegrees>
              <LongitudeDegrees>-0.141770839691162109375</LongitudeDegrees>
            </Position>
            <AltitudeMeters>1572.800048828125</AltitudeMeters>
            <DistanceMeters>1436.0952710121</DistanceMeters>
          </Trackpoint>
          <Trackpoint>
            <Time>2022-07-09T07:41:49.000Z</Time>
            <Position>
              <LatitudeDegrees>42.8486811183393001556396484375</LatitudeDegrees>
              <LongitudeDegrees>-0.14185440726578235626220703125</LongitudeDegrees>
            </Position>
            <AltitudeMeters>1573.5999755859375</AltitudeMeters>
            <DistanceMeters>1442.9173684895</DistanceMeters>
          </Trackpoint>
          <Trackpoint>
            <Time>2022-07-09T07:41:50.000Z</Time>
            <Position>
              <LatitudeDegrees>42.84867986105382442474365234375</LatitudeDegrees>
              <LongitudeDegrees>-0.1418665610253810882568359375</LongitudeDegrees>
            </Position>
            <AltitudeMeters>1573.800048828125</AltitudeMeters>
            <DistanceMeters>1443.9230367061</DistanceMeters>
          </Trackpoint>
          <Trackpoint>
            <Time>2022-07-09T07:41:56.000Z</Time>
            <Position>
              <LatitudeDegrees>42.8486626781523227691650390625</LatitudeDegrees>
              <LongitudeDegrees>-0.14192213304340839385986328125</LongitudeDegrees>
            </Position>
            <AltitudeMeters>1574.5999755859375</AltitudeMeters>
            <DistanceMeters>1448.8442829936</DistanceMeters>
          </Trackpoint>
          <Trackpoint>
            <Time>2022-07-09T07:41:57.000Z</Time>
            <Position>
              <LatitudeDegrees>42.8486603312194347381591796875</LatitudeDegrees>
              <LongitudeDegrees>-0.14193654991686344146728515625</LongitudeDegrees>
            </Position>
            <AltitudeMeters>1574.800048828125</AltitudeMeters>
            <DistanceMeters>1450.0462864175</DistanceMeters>
          </Trackpoint>
          <Trackpoint>
            <Time>2022-07-09T07:41:58.000Z</Time>
            <Position>
              <LatitudeDegrees>42.848656140267848968505859375</LatitudeDegrees>
              <LongitudeDegrees>-0.14195113442838191986083984375</LongitudeDegrees>
            </Position>
            <AltitudeMeters>1575</AltitudeMeters>
            <DistanceMeters>1451.3282668826</DistanceMeters>
          </Trackpoint>
          <Trackpoint>
            <Time>2022-07-09T07:42:01.000Z</Time>
            <Position>
              <LatitudeDegrees>42.84865253604948520660400390625</LatitudeDegrees>
              <LongitudeDegrees>-0.141985081136226654052734375</LongitudeDegrees>
            </Position>
            <AltitudeMeters>1575.800048828125</AltitudeMeters>
            <DistanceMeters>1454.127928711</DistanceMeters>
          </Trackpoint>
          <Trackpoint>
            <Time>2022-07-09T07:42:06.000Z</Time>
            <Position>
              <LatitudeDegrees>42.84862336702644824981689453125</LatitudeDegrees>
              <LongitudeDegrees>-0.14204836450517177581787109375</LongitudeDegrees>
            </Position>
            <AltitudeMeters>1576.5999755859375</AltitudeMeters>
            <DistanceMeters>1460.2274299159</DistanceMeters>
          </Trackpoint>
          <Trackpoint>
            <Time>2022-07-09T07:42:08.000Z</Time>
            <Position>
              <LatitudeDegrees>42.84861280582845211029052734375</LatitudeDegrees>
              <LongitudeDegrees>-0.1420626975595951080322265625</LongitudeDegrees>
            </Position>
            <AltitudeMeters>1576.800048828125</AltitudeMeters>
            <DistanceMeters>1461.887000136</DistanceMeters>
          </Trackpoint>
          <Trackpoint>
            <Time>2022-07-09T07:42:09.000Z</Time>
            <Position>
              <LatitudeDegrees>42.8486103750765323638916015625</LatitudeDegrees>
              <LongitudeDegrees>-0.14206923544406890869140625</LongitudeDegrees>
            </Position>
            <AltitudeMeters>1577</AltitudeMeters>
            <DistanceMeters>1462.4880018479</DistanceMeters>
          </Trackpoint>
          <Trackpoint>
            <Time>2022-07-09T07:42:13.000Z</Time>
            <Position>
              <LatitudeDegrees>42.84857860766351222991943359375</LatitudeDegrees>
              <LongitudeDegrees>-0.14209161512553691864013671875</LongitudeDegrees>
            </Position>
            <AltitudeMeters>1578</AltitudeMeters>
            <DistanceMeters>1466.467795069</DistanceMeters>
          </Trackpoint>
          <Trackpoint>
            <Time>2022-07-09T07:42:14.000Z</Time>
            <Position>
              <LatitudeDegrees>42.848571650683879852294921875</LatitudeDegrees>
              <LongitudeDegrees>-0.1420911960303783416748046875</LongitudeDegrees>
            </Position>
            <AltitudeMeters>1578</AltitudeMeters>
            <DistanceMeters>1467.239795746</DistanceMeters>
          </Trackpoint>
          <Trackpoint>
            <Time>2022-07-09T07:42:15.000Z</Time>
            <Position>
              <LatitudeDegrees>42.84857056103646755218505859375</LatitudeDegrees>
              <LongitudeDegrees>-0.1420841552317142486572265625</LongitudeDegrees>
            </Position>
            <AltitudeMeters>1578.199951171875</AltitudeMeters>
            <DistanceMeters>1467.8255797547</DistanceMeters>
          </Trackpoint>
          <Trackpoint>
            <Time>2022-07-09T07:42:17.000Z</Time>
            <Position>
              <LatitudeDegrees>42.8485666215419769287109375</LatitudeDegrees>
              <LongitudeDegrees>-0.1420610211789608001708984375</LongitudeDegrees>
            </Position>
            <AltitudeMeters>1579.199951171875</AltitudeMeters>
            <DistanceMeters>1469.7637520383</DistanceMeters>
          </Trackpoint>
          <Trackpoint>
            <Time>2022-07-09T07:42:20.000Z</Time>
            <Position>
              <LatitudeDegrees>42.84857123158872127532958984375</LatitudeDegrees>
              <LongitudeDegrees>-0.1420241408050060272216796875</LongitudeDegrees>
            </Position>
            <AltitudeMeters>1580.199951171875</AltitudeMeters>
            <DistanceMeters>1472.8164621277</DistanceMeters>
          </Trackpoint>
          <Trackpoint>
            <Time>2022-07-09T07:42:21.000Z</Time>
            <Position>
              <LatitudeDegrees>42.8485808707773685455322265625</LatitudeDegrees>
              <LongitudeDegrees>-0.14201181940734386444091796875</LongitudeDegrees>
            </Position>
            <AltitudeMeters>1580.199951171875</AltitudeMeters>
            <DistanceMeters>1474.2886096565</DistanceMeters>
          </Trackpoint>
          <Trackpoint>
            <Time>2022-07-09T07:42:23.000Z</Time>
            <Position>
              <LatitudeDegrees>42.84859905950725078582763671875</LatitudeDegrees>
              <LongitudeDegrees>-0.14198742806911468505859375</LongitudeDegrees>
            </Position>
            <AltitudeMeters>1580.4000244140625</AltitudeMeters>
            <DistanceMeters>1477.1267125771</DistanceMeters>
          </Trackpoint>
          <Trackpoint>
            <Time>2022-07-09T07:42:24.000Z</Time>
            <Position>
              <LatitudeDegrees>42.8486023284494876861572265625</LatitudeDegrees>
              <LongitudeDegrees>-0.141981057822704315185546875</LongitudeDegrees>
            </Position>
            <AltitudeMeters>1580.4000244140625</AltitudeMeters>
            <DistanceMeters>1477.7570484904</DistanceMeters>
          </Trackpoint>
          <Trackpoint>
            <Time>2022-07-09T07:42:26.000Z</Time>
            <Position>
              <LatitudeDegrees>42.84860509447753429412841796875</LatitudeDegrees>
              <LongitudeDegrees>-0.1419607736170291900634765625</LongitudeDegrees>
            </Position>
            <AltitudeMeters>1580.800048828125</AltitudeMeters>
            <DistanceMeters>1479.4382426871</DistanceMeters>
          </Trackpoint>
          <Trackpoint>
            <Time>2022-07-09T07:42:32.000Z</Time>
            <Position>
              <LatitudeDegrees>42.84860861487686634063720703125</LatitudeDegrees>
              <LongitudeDegrees>-0.141885839402675628662109375</LongitudeDegrees>
            </Position>
            <AltitudeMeters>1581.199951171875</AltitudeMeters>
            <DistanceMeters>1485.5643342389</DistanceMeters>
          </Trackpoint>
          <Trackpoint>
            <Time>2022-07-09T07:42:33.000Z</Time>
            <Position>
              <LatitudeDegrees>42.84860484302043914794921875</LatitudeDegrees>
              <LongitudeDegrees>-0.14187284745275974273681640625</LongitudeDegrees>
            </Position>
            <AltitudeMeters>1581.199951171875</AltitudeMeters>
            <DistanceMeters>1486.7046548113</DistanceMeters>
          </Trackpoint>
          <Trackpoint>
            <Time>2022-07-09T07:42:34.000Z</Time>
            <Position>
              <LatitudeDegrees>42.84860157407820224761962890625</LatitudeDegrees>
              <LongitudeDegrees>-0.14185926876962184906005859375</LongitudeDegrees>
            </Position>
            <AltitudeMeters>1581.4000244140625</AltitudeMeters>
            <DistanceMeters>1487.868489622</DistanceMeters>
          </Trackpoint>
          <Trackpoint>
            <Time>2022-07-09T07:42:37.000Z</Time>
            <Position>
              <LatitudeDegrees>42.84859688021242618560791015625</LatitudeDegrees>
              <LongitudeDegrees>-0.14182423241436481475830078125</LongitudeDegrees>
            </Position>
            <AltitudeMeters>1581.800048828125</AltitudeMeters>
            <DistanceMeters>1490.7741946096</DistanceMeters>
          </Trackpoint>
          <Trackpoint>
            <Time>2022-07-09T07:42:41.000Z</Time>
            <Position>
              <LatitudeDegrees>42.84858715720474720001220703125</LatitudeDegrees>
              <LongitudeDegrees>-0.141784586012363433837890625</LongitudeDegrees>
            </Position>
            <AltitudeMeters>1582.199951171875</AltitudeMeters>
            <DistanceMeters>1494.1845814586</DistanceMeters>
          </Trackpoint>
          <Trackpoint>
            <Time>2022-07-09T07:42:43.000Z</Time>
            <Position>
              <LatitudeDegrees>42.84858531318604946136474609375</LatitudeDegrees>
              <LongitudeDegrees>-0.1417659781873226165771484375</LongitudeDegrees>
            </Position>
            <AltitudeMeters>1582.5999755859375</AltitudeMeters>
            <DistanceMeters>1495.713891695</DistanceMeters>
          </Trackpoint>
          <Trackpoint>
            <Time>2022-07-09T07:42:44.000Z</Time>
            <Position>
              <LatitudeDegrees>42.84858380444347858428955078125</LatitudeDegrees>
              <LongitudeDegrees>-0.1417592726647853851318359375</LongitudeDegrees>
            </Position>
            <AltitudeMeters>1582.5999755859375</AltitudeMeters>
            <DistanceMeters>1496.2840519812</DistanceMeters>
          </Trackpoint>
          <Trackpoint>
            <Time>2022-07-09T07:42:46.000Z</Time>
            <Position>
              <LatitudeDegrees>42.84858145751059055328369140625</LatitudeDegrees>
              <LongitudeDegrees>-0.14174711890518665313720703125</LongitudeDegrees>
            </Position>
            <AltitudeMeters>1580.199951171875</AltitudeMeters>
            <DistanceMeters>1497.3119230548</DistanceMeters>
          </Trackpoint>
          <Trackpoint>
            <Time>2022-07-09T07:42:48.000Z</Time>
            <Position>
              <LatitudeDegrees>42.84857810474932193756103515625</LatitudeDegrees>
              <LongitudeDegrees>-0.1417438499629497528076171875</LongitudeDegrees>
            </Position>
            <AltitudeMeters>1580.199951171875</AltitudeMeters>
            <DistanceMeters>1497.7774569791</DistanceMeters>
          </Trackpoint>
          <Trackpoint>
            <Time>2022-07-09T07:42:52.000Z</Time>
            <Position>
              <LatitudeDegrees>42.8485788591206073760986328125</LatitudeDegrees>
              <LongitudeDegrees>-0.14171183109283447265625</LongitudeDegrees>
            </Position>
            <AltitudeMeters>1581.4000244140625</AltitudeMeters>
            <DistanceMeters>1500.391987122</DistanceMeters>
          </Trackpoint>
          <Trackpoint>
            <Time>2022-07-09T07:42:54.000Z</Time>
            <Position>
              <LatitudeDegrees>42.848577685654163360595703125</LatitudeDegrees>
              <LongitudeDegrees>-0.141694732010364532470703125</LongitudeDegrees>
            </Position>
            <AltitudeMeters>1581.5999755859375</AltitudeMeters>
            <DistanceMeters>1501.7918180362</DistanceMeters>
          </Trackpoint>
          <Trackpoint>
            <Time>2022-07-09T07:42:55.000Z</Time>
            <Position>
              <LatitudeDegrees>42.8485748358070850372314453125</LatitudeDegrees>
              <LongitudeDegrees>-0.14168190769851207733154296875</LongitudeDegrees>
            </Position>
            <AltitudeMeters>1581.5999755859375</AltitudeMeters>
            <DistanceMeters>1502.8835918638</DistanceMeters>
          </Trackpoint>
          <Trackpoint>
            <Time>2022-07-09T07:42:59.000Z</Time>
            <Position>
              <LatitudeDegrees>42.84856134094297885894775390625</LatitudeDegrees>
              <LongitudeDegrees>-0.14162130653858184814453125</LongitudeDegrees>
            </Position>
            <AltitudeMeters>1581.800048828125</AltitudeMeters>
            <DistanceMeters>1508.051857155</DistanceMeters>
          </Trackpoint>
          <Trackpoint>
            <Time>2022-07-09T07:43:02.000Z</Time>
            <Position>
              <LatitudeDegrees>42.84855664707720279693603515625</LatitudeDegrees>
              <LongitudeDegrees>-0.14157813973724842071533203125</LongitudeDegrees>
            </Position>
            <AltitudeMeters>1582</AltitudeMeters>
            <DistanceMeters>1511.6125070013</DistanceMeters>
          </Trackpoint>
          <Trackpoint>
            <Time>2022-07-09T07:43:03.000Z</Time>
            <Position>
              <LatitudeDegrees>42.848556227982044219970703125</LatitudeDegrees>
              <LongitudeDegrees>-0.14157143421471118927001953125</LongitudeDegrees>
            </Position>
            <AltitudeMeters>1582</AltitudeMeters>
            <DistanceMeters>1512.1500592743</DistanceMeters>
          </Trackpoint>
          <Trackpoint>
            <Time>2022-07-09T07:43:09.000Z</Time>
            <Position>
              <LatitudeDegrees>42.84853653050959110260009765625</LatitudeDegrees>
              <LongitudeDegrees>-0.14150186441838741302490234375</LongitudeDegrees>
            </Position>
            <AltitudeMeters>1582.4000244140625</AltitudeMeters>
            <DistanceMeters>1518.2347378541</DistanceMeters>
          </Trackpoint>
          <Trackpoint>
            <Time>2022-07-09T07:43:10.000Z</Time>
            <Position>
              <LatitudeDegrees>42.848530746996402740478515625</LatitudeDegrees>
              <LongitudeDegrees>-0.14148895628750324249267578125</LongitudeDegrees>
            </Position>
            <AltitudeMeters>1582.4000244140625</AltitudeMeters>
            <DistanceMeters>1519.4664248446</DistanceMeters>
          </Trackpoint>
          <Trackpoint>
            <Time>2022-07-09T07:43:12.000Z</Time>
            <Position>
              <LatitudeDegrees>42.84851423464715480804443359375</LatitudeDegrees>
              <LongitudeDegrees>-0.14146707952022552490234375</LongitudeDegrees>
            </Position>
            <AltitudeMeters>1582.4000244140625</AltitudeMeters>
            <DistanceMeters>1522.0286242074</DistanceMeters>
          </Trackpoint>
          <Trackpoint>
            <Time>2022-07-09T07:43:17.000Z</Time>
            <Position>
              <LatitudeDegrees>42.8484980575740337371826171875</LatitudeDegrees>
              <LongitudeDegrees>-0.14141519553959369659423828125</LongitudeDegrees>
            </Position>
            <AltitudeMeters>1583</AltitudeMeters>
            <DistanceMeters>1526.6293305863</DistanceMeters>
          </Trackpoint>
          <Trackpoint>
            <Time>2022-07-09T07:43:20.000Z</Time>
            <Position>
              <LatitudeDegrees>42.8484997339546680450439453125</LatitudeDegrees>
              <LongitudeDegrees>-0.141389630734920501708984375</LongitudeDegrees>
            </Position>
            <AltitudeMeters>1583.199951171875</AltitudeMeters>
            <DistanceMeters>1528.7242332456</DistanceMeters>
          </Trackpoint>
          <Trackpoint>
            <Time>2022-07-09T07:43:23.000Z</Time>
            <Position>
              <LatitudeDegrees>42.848503254354000091552734375</LatitudeDegrees>
              <LongitudeDegrees>-0.14135300181806087493896484375</LongitudeDegrees>
            </Position>
            <AltitudeMeters>1583.4000244140625</AltitudeMeters>
            <DistanceMeters>1531.7397409937</DistanceMeters>
          </Trackpoint>
          <Trackpoint>
            <Time>2022-07-09T07:43:24.000Z</Time>
            <Position>
              <LatitudeDegrees>42.8485047630965709686279296875</LatitudeDegrees>
              <LongitudeDegrees>-0.14133741147816181182861328125</LongitudeDegrees>
            </Position>
            <AltitudeMeters>1583.4000244140625</AltitudeMeters>
            <DistanceMeters>1533.0217214588</DistanceMeters>
          </Trackpoint>
          <Trackpoint>
            <Time>2022-07-09T07:43:29.000Z</Time>
            <Position>
              <LatitudeDegrees>42.84849780611693859100341796875</LatitudeDegrees>
              <LongitudeDegrees>-0.1412660814821720123291015625</LongitudeDegrees>
            </Position>
            <AltitudeMeters>1583.800048828125</AltitudeMeters>
            <DistanceMeters>1538.893418987</DistanceMeters>
          </Trackpoint>
          <Trackpoint>
            <Time>2022-07-09T07:43:35.000Z</Time>
            <Position>
              <LatitudeDegrees>42.84848950803279876708984375</LatitudeDegrees>
              <LongitudeDegrees>-0.1411986909806728363037109375</LongitudeDegrees>
            </Position>
            <AltitudeMeters>1584</AltitudeMeters>
            <DistanceMeters>1544.4701190213</DistanceMeters>
          </Trackpoint>
          <Trackpoint>
            <Time>2022-07-09T07:43:37.000Z</Time>
            <Position>
              <LatitudeDegrees>42.84848758019506931304931640625</LatitudeDegrees>
              <LongitudeDegrees>-0.14117069542407989501953125</LongitudeDegrees>
            </Position>
            <AltitudeMeters>1584.4000244140625</AltitudeMeters>
            <DistanceMeters>1546.7665433382</DistanceMeters>
          </Trackpoint>
          <Trackpoint>
            <Time>2022-07-09T07:43:38.000Z</Time>
            <Position>
              <LatitudeDegrees>42.84848607145249843597412109375</LatitudeDegrees>
              <LongitudeDegrees>-0.141154266893863677978515625</LongitudeDegrees>
            </Position>
            <AltitudeMeters>1584.5999755859375</AltitudeMeters>
            <DistanceMeters>1548.1171267091</DistanceMeters>
          </Trackpoint>
          <Trackpoint>
            <Time>2022-07-09T07:43:44.000Z</Time>
            <Position>
              <LatitudeDegrees>42.84846846945583820343017578125</LatitudeDegrees>
              <LongitudeDegrees>-0.1410734653472900390625</LongitudeDegrees>
            </Position>
            <AltitudeMeters>1584.800048828125</AltitudeMeters>
            <DistanceMeters>1554.9959057117</DistanceMeters>
          </Trackpoint>
          <Trackpoint>
            <Time>2022-07-09T07:43:45.000Z</Time>
            <Position>
              <LatitudeDegrees>42.84846377559006214141845703125</LatitudeDegrees>
              <LongitudeDegrees>-0.14106047339737415313720703125</LongitudeDegrees>
            </Position>
            <AltitudeMeters>1585</AltitudeMeters>
            <DistanceMeters>1556.1789787647</DistanceMeters>
          </Trackpoint>
          <Trackpoint>
            <Time>2022-07-09T07:43:47.000Z</Time>
            <Position>
              <LatitudeDegrees>42.84845824353396892547607421875</LatitudeDegrees>
              <LongitudeDegrees>-0.14103650115430355072021484375</LongitudeDegrees>
            </Position>
            <AltitudeMeters>1585.199951171875</AltitudeMeters>
            <DistanceMeters>1558.2303235975</DistanceMeters>
          </Trackpoint>
          <Trackpoint>
            <Time>2022-07-09T07:43:50.000Z</Time>
            <Position>
              <LatitudeDegrees>42.84845204092562198638916015625</LatitudeDegrees>
              <LongitudeDegrees>-0.14100951142609119415283203125</LongitudeDegrees>
            </Position>
            <AltitudeMeters>1585.5999755859375</AltitudeMeters>
            <DistanceMeters>1560.5385144695</DistanceMeters>
          </Trackpoint>
          <Trackpoint>
            <Time>2022-07-09T07:43:55.000Z</Time>
            <Position>
              <LatitudeDegrees>42.8484390489757061004638671875</LatitudeDegrees>
              <LongitudeDegrees>-0.14095922000706195831298828125</LongitudeDegrees>
            </Position>
            <AltitudeMeters>1586</AltitudeMeters>
            <DistanceMeters>1564.8890363034</DistanceMeters>
          </Trackpoint>
          <Trackpoint>
            <Time>2022-07-09T07:43:57.000Z</Time>
            <Position>
              <LatitudeDegrees>42.848436534404754638671875</LatitudeDegrees>
              <LongitudeDegrees>-0.14093105681240558624267578125</LongitudeDegrees>
            </Position>
            <AltitudeMeters>1586.199951171875</AltitudeMeters>
            <DistanceMeters>1567.2030880165</DistanceMeters>
          </Trackpoint>
          <Trackpoint>
            <Time>2022-07-09T07:44:02.000Z</Time>
            <Position>
              <LatitudeDegrees>42.84844784997403621673583984375</LatitudeDegrees>
              <LongitudeDegrees>-0.140878669917583465576171875</LongitudeDegrees>
            </Position>
            <AltitudeMeters>1586.5999755859375</AltitudeMeters>
            <DistanceMeters>1571.6602360034</DistanceMeters>
          </Trackpoint>
          <Trackpoint>
            <Time>2022-07-09T07:44:04.000Z</Time>
            <Position>
              <LatitudeDegrees>42.84845321439206600189208984375</LatitudeDegrees>
              <LongitudeDegrees>-0.1408657617866992950439453125</LongitudeDegrees>
            </Position>
            <AltitudeMeters>1586.800048828125</AltitudeMeters>
            <DistanceMeters>1572.8771717194</DistanceMeters>
          </Trackpoint>
          <Trackpoint>
            <Time>2022-07-09T07:44:06.000Z</Time>
            <Position>
              <LatitudeDegrees>42.84845908172428607940673828125</LatitudeDegrees>
              <LongitudeDegrees>-0.14084137044847011566162109375</LongitudeDegrees>
            </Position>
            <AltitudeMeters>1586.800048828125</AltitudeMeters>
            <DistanceMeters>1574.9720743786</DistanceMeters>
          </Trackpoint>
          <Trackpoint>
            <Time>2022-07-09T07:44:07.000Z</Time>
            <Position>
              <LatitudeDegrees>42.84846712835133075714111328125</LatitudeDegrees>
              <LongitudeDegrees>-0.1408248580992221832275390625</LongitudeDegrees>
            </Position>
            <AltitudeMeters>1587</AltitudeMeters>
            <DistanceMeters>1576.5903210127</DistanceMeters>
          </Trackpoint>
          <Trackpoint>
            <Time>2022-07-09T07:44:10.000Z</Time>
            <Position>
              <LatitudeDegrees>42.8484786115586757659912109375</LatitudeDegrees>
              <LongitudeDegrees>-0.1407906599342823028564453125</LongitudeDegrees>
            </Position>
            <AltitudeMeters>1587.199951171875</AltitudeMeters>
            <DistanceMeters>1579.6607281205</DistanceMeters>
          </Trackpoint>
          <Trackpoint>
            <Time>2022-07-09T07:44:13.000Z</Time>
            <Position>
              <LatitudeDegrees>42.84847400151193141937255859375</LatitudeDegrees>
              <LongitudeDegrees>-0.140751264989376068115234375</LongitudeDegrees>
            </Position>
            <AltitudeMeters>1587.5999755859375</AltitudeMeters>
            <DistanceMeters>1582.9153063833</DistanceMeters>
          </Trackpoint>
          <Trackpoint>
            <Time>2022-07-09T07:44:14.000Z</Time>
            <Position>
              <LatitudeDegrees>42.84847282804548740386962890625</LatitudeDegrees>
              <LongitudeDegrees>-0.14073349535465240478515625</LongitudeDegrees>
            </Position>
            <AltitudeMeters>1587.5999755859375</AltitudeMeters>
            <DistanceMeters>1584.368935596</DistanceMeters>
          </Trackpoint>
          <Trackpoint>
            <Time>2022-07-09T07:44:19.000Z</Time>
            <Position>
              <LatitudeDegrees>42.84845740534365177154541015625</LatitudeDegrees>
              <LongitudeDegrees>-0.1406692899763584136962890625</LongitudeDegrees>
            </Position>
            <AltitudeMeters>1588.800048828125</AltitudeMeters>
            <DistanceMeters>1589.8821231776</DistanceMeters>
          </Trackpoint>
          <Trackpoint>
            <Time>2022-07-09T07:44:21.000Z</Time>
            <Position>
              <LatitudeDegrees>42.84845220856368541717529296875</LatitudeDegrees>
              <LongitudeDegrees>-0.14063584618270397186279296875</LongitudeDegrees>
            </Position>
            <AltitudeMeters>1589</AltitudeMeters>
            <DistanceMeters>1592.6720919758</DistanceMeters>
          </Trackpoint>
          <Trackpoint>
            <Time>2022-07-09T07:44:24.000Z</Time>
            <Position>
              <LatitudeDegrees>42.84844550304114818572998046875</LatitudeDegrees>
              <LongitudeDegrees>-0.14058304019272327423095703125</LongitudeDegrees>
            </Position>
            <AltitudeMeters>1589.800048828125</AltitudeMeters>
            <DistanceMeters>1597.045386147</DistanceMeters>
          </Trackpoint>
          <Trackpoint>
            <Time>2022-07-09T07:44:29.000Z</Time>
            <Position>
              <LatitudeDegrees>42.8484175913035869598388671875</LatitudeDegrees>
              <LongitudeDegrees>-0.1405257917940616607666015625</LongitudeDegrees>
            </Position>
            <AltitudeMeters>1590.4000244140625</AltitudeMeters>
            <DistanceMeters>1602.6559874057</DistanceMeters>
          </Trackpoint>
          <Trackpoint>
            <Time>2022-07-09T07:44:32.000Z</Time>
            <Position>
              <LatitudeDegrees>42.8484025038778781890869140625</LatitudeDegrees>
              <LongitudeDegrees>-0.14050458557903766632080078125</LongitudeDegrees>
            </Position>
            <AltitudeMeters>1590.800048828125</AltitudeMeters>
            <DistanceMeters>1605.0674950731</DistanceMeters>
          </Trackpoint>
          <Trackpoint>
            <Time>2022-07-09T07:44:36.000Z</Time>
            <Position>
              <LatitudeDegrees>42.84836956299841403961181640625</LatitudeDegrees>
              <LongitudeDegrees>-0.14049955643713474273681640625</LongitudeDegrees>
            </Position>
            <AltitudeMeters>1591.4000244140625</AltitudeMeters>
            <DistanceMeters>1608.7576651609</DistanceMeters>
          </Trackpoint>
          <Trackpoint>
            <Time>2022-07-09T07:44:39.000Z</Time>
            <Position>
              <LatitudeDegrees>42.8483386337757110595703125</LatitudeDegrees>
              <LongitudeDegrees>-0.14046887867152690887451171875</LongitudeDegrees>
            </Position>
            <AltitudeMeters>1592</AltitudeMeters>
            <DistanceMeters>1613.0148195419</DistanceMeters>
          </Trackpoint>
          <Trackpoint>
            <Time>2022-07-09T07:44:44.000Z</Time>
            <Position>
              <LatitudeDegrees>42.84827970899641513824462890625</LatitudeDegrees>
              <LongitudeDegrees>-0.1404299028217792510986328125</LongitudeDegrees>
            </Position>
            <AltitudeMeters>1592.5999755859375</AltitudeMeters>
            <DistanceMeters>1620.3034366754</DistanceMeters>
          </Trackpoint>
          <Trackpoint>
            <Time>2022-07-09T07:44:46.000Z</Time>
            <Position>
              <LatitudeDegrees>42.8482536412775516510009765625</LatitudeDegrees>
              <LongitudeDegrees>-0.14042126946151256561279296875</LongitudeDegrees>
            </Position>
            <AltitudeMeters>1593</AltitudeMeters>
            <DistanceMeters>1623.2888487827</DistanceMeters>
          </Trackpoint>
          <Trackpoint>
            <Time>2022-07-09T07:44:49.000Z</Time>
            <Position>
              <LatitudeDegrees>42.848227322101593017578125</LatitudeDegrees>
              <LongitudeDegrees>-0.14041900634765625</LongitudeDegrees>
            </Position>
            <AltitudeMeters>1593.4000244140625</AltitudeMeters>
            <DistanceMeters>1626.2239284967</DistanceMeters>
          </Trackpoint>
          <Trackpoint>
            <Time>2022-07-09T07:44:52.000Z</Time>
            <Position>
              <LatitudeDegrees>42.8482006676495075225830078125</LatitudeDegrees>
              <LongitudeDegrees>-0.14041808433830738067626953125</LongitudeDegrees>
            </Position>
            <AltitudeMeters>1594</AltitudeMeters>
            <DistanceMeters>1629.1926579571</DistanceMeters>
          </Trackpoint>
          <Trackpoint>
            <Time>2022-07-09T07:44:54.000Z</Time>
            <Position>
              <LatitudeDegrees>42.84818641841411590576171875</LatitudeDegrees>
              <LongitudeDegrees>-0.14040199108421802520751953125</LongitudeDegrees>
            </Position>
            <AltitudeMeters>1594</AltitudeMeters>
            <DistanceMeters>1631.2527880328</DistanceMeters>
          </Trackpoint>
          <Trackpoint>
            <Time>2022-07-09T07:45:00.000Z</Time>
            <Position>
              <LatitudeDegrees>42.84813344478607177734375</LatitudeDegrees>
              <LongitudeDegrees>-0.14034097082912921905517578125</LongitudeDegrees>
            </Position>
            <AltitudeMeters>1595</AltitudeMeters>
            <DistanceMeters>1638.9698700039</DistanceMeters>
          </Trackpoint>
          <Trackpoint>
            <Time>2022-07-09T07:45:01.000Z</Time>
            <Position>
              <LatitudeDegrees>42.84812179394066333770751953125</LatitudeDegrees>
              <LongitudeDegrees>-0.14034113846719264984130859375</LongitudeDegrees>
            </Position>
            <AltitudeMeters>1595</AltitudeMeters>
            <DistanceMeters>1640.2658616005</DistanceMeters>
          </Trackpoint>
          <Trackpoint>
            <Time>2022-07-09T07:45:02.000Z</Time>
            <Position>
              <LatitudeDegrees>42.84811089746654033660888671875</LatitudeDegrees>
              <LongitudeDegrees>-0.1403410546481609344482421875</LongitudeDegrees>
            </Position>
            <AltitudeMeters>1595.199951171875</AltitudeMeters>
            <DistanceMeters>1641.4827973165</DistanceMeters>
          </Trackpoint>
          <Trackpoint>
            <Time>2022-07-09T07:45:04.000Z</Time>
            <Position>
              <LatitudeDegrees>42.8480866737663745880126953125</LatitudeDegrees>
              <LongitudeDegrees>-0.14033644460141658782958984375</LongitudeDegrees>
            </Position>
            <AltitudeMeters>1595.4000244140625</AltitudeMeters>
            <DistanceMeters>1644.2056070345</DistanceMeters>
          </Trackpoint>
          <Trackpoint>
            <Time>2022-07-09T07:45:09.000Z</Time>
            <Position>
              <LatitudeDegrees>42.8480276651680469512939453125</LatitudeDegrees>
              <LongitudeDegrees>-0.140328146517276763916015625</LongitudeDegrees>
            </Position>
            <AltitudeMeters>1596.4000244140625</AltitudeMeters>
            <DistanceMeters>1650.8084253018</DistanceMeters>
          </Trackpoint>
          <Trackpoint>
            <Time>2022-07-09T07:45:10.000Z</Time>
            <Position>
              <LatitudeDegrees>42.848021797835826873779296875</LatitudeDegrees>
              <LongitudeDegrees>-0.14031716622412204742431640625</LongitudeDegrees>
            </Position>
            <AltitudeMeters>1596.800048828125</AltitudeMeters>
            <DistanceMeters>1651.9166177022</DistanceMeters>
          </Trackpoint>
          <Trackpoint>
            <Time>2022-07-09T07:45:13.000Z</Time>
            <Position>
              <LatitudeDegrees>42.847993634641170501708984375</LatitudeDegrees>
              <LongitudeDegrees>-0.14028824865818023681640625</LongitudeDegrees>
            </Position>
            <AltitudeMeters>1597.4000244140625</AltitudeMeters>
            <DistanceMeters>1655.8392762727</DistanceMeters>
          </Trackpoint>
          <Trackpoint>
            <Time>2022-07-09T07:45:14.000Z</Time>
            <Position>
              <LatitudeDegrees>42.84798315726220607757568359375</LatitudeDegrees>
              <LongitudeDegrees>-0.1402870751917362213134765625</LongitudeDegrees>
            </Position>
            <AltitudeMeters>1597.4000244140625</AltitudeMeters>
            <DistanceMeters>1657.0031110834</DistanceMeters>
          </Trackpoint>
          <Trackpoint>
            <Time>2022-07-09T07:45:17.000Z</Time>
            <Position>
              <LatitudeDegrees>42.84795734100043773651123046875</LatitudeDegrees>
              <LongitudeDegrees>-0.14028648845851421356201171875</LongitudeDegrees>
            </Position>
            <AltitudeMeters>1598</AltitudeMeters>
            <DistanceMeters>1659.8759998508</DistanceMeters>
          </Trackpoint>
          <Trackpoint>
            <Time>2022-07-09T07:45:19.000Z</Time>
            <Position>
              <LatitudeDegrees>42.8479411639273166656494140625</LatitudeDegrees>
              <LongitudeDegrees>-0.14028833247721195220947265625</LongitudeDegrees>
            </Position>
            <AltitudeMeters>1598.4000244140625</AltitudeMeters>
            <DistanceMeters>1661.6840063974</DistanceMeters>
          </Trackpoint>
          <Trackpoint>
            <Time>2022-07-09T07:45:21.000Z</Time>
            <Position>
              <LatitudeDegrees>42.847923897206783294677734375</LatitudeDegrees>
              <LongitudeDegrees>-0.14028145931661128997802734375</LongitudeDegrees>
            </Position>
            <AltitudeMeters>1598.4000244140625</AltitudeMeters>
            <DistanceMeters>1663.6885971331</DistanceMeters>
          </Trackpoint>
          <Trackpoint>
            <Time>2022-07-09T07:45:22.000Z</Time>
            <Position>
              <LatitudeDegrees>42.847919203341007232666015625</LatitudeDegrees>
              <LongitudeDegrees>-0.14028112404048442840576171875</LongitudeDegrees>
            </Position>
            <AltitudeMeters>1598.5999755859375</AltitudeMeters>
            <DistanceMeters>1664.2176834869</DistanceMeters>
          </Trackpoint>
          <Trackpoint>
            <Time>2022-07-09T07:45:25.000Z</Time>
            <Position>
              <LatitudeDegrees>42.847905121743679046630859375</LatitudeDegrees>
              <LongitudeDegrees>-0.14027995057404041290283203125</LongitudeDegrees>
            </Position>
            <AltitudeMeters>1599.4000244140625</AltitudeMeters>
            <DistanceMeters>1665.7877824867</DistanceMeters>
          </Trackpoint>
          <Trackpoint>
            <Time>2022-07-09T07:45:26.000Z</Time>
            <Position>
              <LatitudeDegrees>42.8479019366204738616943359375</LatitudeDegrees>
              <LongitudeDegrees>-0.140275843441486358642578125</LongitudeDegrees>
            </Position>
            <AltitudeMeters>1599.5999755859375</AltitudeMeters>
            <DistanceMeters>1666.2723255576</DistanceMeters>
          </Trackpoint>
          <Trackpoint>
            <Time>2022-07-09T07:45:28.000Z</Time>
            <Position>
              <LatitudeDegrees>42.8478933870792388916015625</LatitudeDegrees>
              <LongitudeDegrees>-0.140265785157680511474609375</LongitudeDegrees>
            </Position>
            <AltitudeMeters>1599.800048828125</AltitudeMeters>
            <DistanceMeters>1667.5294108283</DistanceMeters>
          </Trackpoint>
          <Trackpoint>
            <Time>2022-07-09T07:45:33.000Z</Time>
            <Position>
              <LatitudeDegrees>42.84784468822181224822998046875</LatitudeDegrees>
              <LongitudeDegrees>-0.1402374543249607086181640625</LongitudeDegrees>
            </Position>
            <AltitudeMeters>1600.4000244140625</AltitudeMeters>
            <DistanceMeters>1673.4225996088</DistanceMeters>
          </Trackpoint>
          <Trackpoint>
            <Time>2022-07-09T07:45:34.000Z</Time>
            <Position>
              <LatitudeDegrees>42.8478352166712284088134765625</LatitudeDegrees>
              <LongitudeDegrees>-0.14023921452462673187255859375</LongitudeDegrees>
            </Position>
            <AltitudeMeters>1600.5999755859375</AltitudeMeters>
            <DistanceMeters>1674.4892718321</DistanceMeters>
          </Trackpoint>
          <Trackpoint>
            <Time>2022-07-09T07:45:36.000Z</Time>
            <Position>
              <LatitudeDegrees>42.84781233407557010650634765625</LatitudeDegrees>
              <LongitudeDegrees>-0.1402498595416545867919921875</LongitudeDegrees>
            </Position>
            <AltitudeMeters>1600.800048828125</AltitudeMeters>
            <DistanceMeters>1677.1787125233</DistanceMeters>
          </Trackpoint>
          <Trackpoint>
            <Time>2022-07-09T07:45:40.000Z</Time>
            <Position>
              <LatitudeDegrees>42.84778333269059658050537109375</LatitudeDegrees>
              <LongitudeDegrees>-0.14025740325450897216796875</LongitudeDegrees>
            </Position>
            <AltitudeMeters>1601.4000244140625</AltitudeMeters>
            <DistanceMeters>1680.4636693496</DistanceMeters>
          </Trackpoint>
          <Trackpoint>
            <Time>2022-07-09T07:45:41.000Z</Time>
            <Position>
              <LatitudeDegrees>42.84777578897774219512939453125</LatitudeDegrees>
              <LongitudeDegrees>-0.14025765471160411834716796875</LongitudeDegrees>
            </Position>
            <AltitudeMeters>1601.5999755859375</AltitudeMeters>
            <DistanceMeters>1681.3029225668</DistanceMeters>
          </Trackpoint>
          <Trackpoint>
            <Time>2022-07-09T07:45:42.000Z</Time>
            <Position>
              <LatitudeDegrees>42.84776874817907810211181640625</LatitudeDegrees>
              <LongitudeDegrees>-0.1402567327022552490234375</LongitudeDegrees>
            </Position>
            <AltitudeMeters>1601.800048828125</AltitudeMeters>
            <DistanceMeters>1682.0865329281</DistanceMeters>
          </Trackpoint>
          <Trackpoint>
            <Time>2022-07-09T07:45:43.000Z</Time>
            <Position>
              <LatitudeDegrees>42.84775584004819393157958984375</LatitudeDegrees>
              <LongitudeDegrees>-0.140255391597747802734375</LongitudeDegrees>
            </Position>
            <AltitudeMeters>1601.800048828125</AltitudeMeters>
            <DistanceMeters>1683.5276844059</DistanceMeters>
          </Trackpoint>
          <Trackpoint>
            <Time>2022-07-09T07:45:49.000Z</Time>
            <Position>
              <LatitudeDegrees>42.84767537377774715423583984375</LatitudeDegrees>
              <LongitudeDegrees>-0.14027609489858150482177734375</LongitudeDegrees>
            </Position>
            <AltitudeMeters>1602</AltitudeMeters>
            <DistanceMeters>1692.6413358767</DistanceMeters>
          </Trackpoint>
          <Trackpoint>
            <Time>2022-07-09T07:45:50.000Z</Time>
            <Position>
              <LatitudeDegrees>42.84767009317874908447265625</LatitudeDegrees>
              <LongitudeDegrees>-0.1402889192104339599609375</LongitudeDegrees>
            </Position>
            <AltitudeMeters>1602</AltitudeMeters>
            <DistanceMeters>1693.8395771523</DistanceMeters>
          </Trackpoint>
          <Trackpoint>
            <Time>2022-07-09T07:45:55.000Z</Time>
            <Position>
              <LatitudeDegrees>42.8476290218532085418701171875</LatitudeDegrees>
              <LongitudeDegrees>-0.14034968800842761993408203125</LongitudeDegrees>
            </Position>
            <AltitudeMeters>1602.199951171875</AltitudeMeters>
            <DistanceMeters>1700.5837965325</DistanceMeters>
          </Trackpoint>
          <Trackpoint>
            <Time>2022-07-09T07:46:01.000Z</Time>
            <Position>
              <LatitudeDegrees>42.84759758971631526947021484375</LatitudeDegrees>
              <LongitudeDegrees>-0.14043216593563556671142578125</LongitudeDegrees>
            </Position>
            <AltitudeMeters>1603.199951171875</AltitudeMeters>
            <DistanceMeters>1708.1680952442</DistanceMeters>
          </Trackpoint>
          <Trackpoint>
            <Time>2022-07-09T07:46:03.000Z</Time>
            <Position>
              <LatitudeDegrees>42.84759633243083953857421875</LatitudeDegrees>
              <LongitudeDegrees>-0.1404570601880550384521484375</LongitudeDegrees>
            </Position>
            <AltitudeMeters>1603.5999755859375</AltitudeMeters>
            <DistanceMeters>1710.2039746826</DistanceMeters>
          </Trackpoint>
          <Trackpoint>
            <Time>2022-07-09T07:46:05.000Z</Time>
            <Position>
              <LatitudeDegrees>42.84759088419377803802490234375</LatitudeDegrees>
              <LongitudeDegrees>-0.1404882408678531646728515625</LongitudeDegrees>
            </Position>
            <AltitudeMeters>1603.800048828125</AltitudeMeters>
            <DistanceMeters>1712.8202311579</DistanceMeters>
          </Trackpoint>
          <Trackpoint>
            <Time>2022-07-09T07:46:06.000Z</Time>
            <Position>
              <LatitudeDegrees>42.84758158028125762939453125</LatitudeDegrees>
              <LongitudeDegrees>-0.14049670659005641937255859375</LongitudeDegrees>
            </Position>
            <AltitudeMeters>1604.4000244140625</AltitudeMeters>
            <DistanceMeters>1714.0664948332</DistanceMeters>
          </Trackpoint>
          <Trackpoint>
            <Time>2022-07-09T07:46:09.000Z</Time>
            <Position>
              <LatitudeDegrees>42.84754930995404720306396484375</LatitudeDegrees>
              <LongitudeDegrees>-0.140483714640140533447265625</LongitudeDegrees>
            </Position>
            <AltitudeMeters>1605.800048828125</AltitudeMeters>
            <DistanceMeters>1717.8125245707</DistanceMeters>
          </Trackpoint>
          <Trackpoint>
            <Time>2022-07-09T07:46:10.000Z</Time>
            <Position>
              <LatitudeDegrees>42.84754008986055850982666015625</LatitudeDegrees>
              <LongitudeDegrees>-0.1404838822782039642333984375</LongitudeDegrees>
            </Position>
            <AltitudeMeters>1606.199951171875</AltitudeMeters>
            <DistanceMeters>1718.8447789097</DistanceMeters>
          </Trackpoint>
          <Trackpoint>
            <Time>2022-07-09T07:46:14.000Z</Time>
            <Position>
              <LatitudeDegrees>42.8475180454552173614501953125</LatitudeDegrees>
              <LongitudeDegrees>-0.14048916287720203399658203125</LongitudeDegrees>
            </Position>
            <AltitudeMeters>1607</AltitudeMeters>
            <DistanceMeters>1721.333680764</DistanceMeters>
          </Trackpoint>
          <Trackpoint>
            <Time>2022-07-09T07:46:17.000Z</Time>
            <Position>
              <LatitudeDegrees>42.84750320948660373687744140625</LatitudeDegrees>
              <LongitudeDegrees>-0.14049955643713474273681640625</LongitudeDegrees>
            </Position>
            <AltitudeMeters>1607.800048828125</AltitudeMeters>
            <DistanceMeters>1723.1909608187</DistanceMeters>
          </Trackpoint>
          <Trackpoint>
            <Time>2022-07-09T07:46:18.000Z</Time>
            <Position>
              <LatitudeDegrees>42.8475029580295085906982421875</LatitudeDegrees>
              <LongitudeDegrees>-0.140503160655498504638671875</LongitudeDegrees>
            </Position>
            <AltitudeMeters>1608.199951171875</AltitudeMeters>
            <DistanceMeters>1723.4914616747</DistanceMeters>
          </Trackpoint>
          <Trackpoint>
            <Time>2022-07-09T07:46:20.000Z</Time>
            <Position>
              <LatitudeDegrees>42.84751075319945812225341796875</LatitudeDegrees>
              <LongitudeDegrees>-0.1405221037566661834716796875</LongitudeDegrees>
            </Position>
            <AltitudeMeters>1608.199951171875</AltitudeMeters>
            <DistanceMeters>1725.2590607383</DistanceMeters>
          </Trackpoint>
          <Trackpoint>
            <Time>2022-07-09T07:46:23.000Z</Time>
            <Position>
              <LatitudeDegrees>42.84752701409161090850830078125</LatitudeDegrees>
              <LongitudeDegrees>-0.14055655337870121002197265625</LongitudeDegrees>
            </Position>
            <AltitudeMeters>1608.800048828125</AltitudeMeters>
            <DistanceMeters>1728.6025969857</DistanceMeters>
          </Trackpoint>
          <Trackpoint>
            <Time>2022-07-09T07:46:25.000Z</Time>
            <Position>
              <LatitudeDegrees>42.84752718172967433929443359375</LatitudeDegrees>
              <LongitudeDegrees>-0.1405666954815387725830078125</LongitudeDegrees>
            </Position>
            <AltitudeMeters>1609</AltitudeMeters>
            <DistanceMeters>1729.4310206754</DistanceMeters>
          </Trackpoint>
          <Trackpoint>
            <Time>2022-07-09T07:46:27.000Z</Time>
            <Position>
              <LatitudeDegrees>42.847516871988773345947265625</LatitudeDegrees>
              <LongitudeDegrees>-0.14058002270758152008056640625</LongitudeDegrees>
            </Position>
            <AltitudeMeters>1609.199951171875</AltitudeMeters>
            <DistanceMeters>1731.012580404</DistanceMeters>
          </Trackpoint>
          <Trackpoint>
            <Time>2022-07-09T07:46:33.000Z</Time>
            <Position>
              <LatitudeDegrees>42.8474674187600612640380859375</LatitudeDegrees>
              <LongitudeDegrees>-0.14061145484447479248046875</LongitudeDegrees>
            </Position>
            <AltitudeMeters>1609.4000244140625</AltitudeMeters>
            <DistanceMeters>1737.0853748346</DistanceMeters>
          </Trackpoint>
          <Trackpoint>
            <Time>2022-07-09T07:46:35.000Z</Time>
            <Position>
              <LatitudeDegrees>42.84745140932500362396240234375</LatitudeDegrees>
              <LongitudeDegrees>-0.140608437359333038330078125</LongitudeDegrees>
            </Position>
            <AltitudeMeters>1609.5999755859375</AltitudeMeters>
            <DistanceMeters>1738.8833646474</DistanceMeters>
          </Trackpoint>
          <Trackpoint>
            <Time>2022-07-09T07:46:37.000Z</Time>
            <Position>
              <LatitudeDegrees>42.84744101576507091522216796875</LatitudeDegrees>
              <LongitudeDegrees>-0.1406025700271129608154296875</LongitudeDegrees>
            </Position>
            <AltitudeMeters>1610.199951171875</AltitudeMeters>
            <DistanceMeters>1740.1332459317</DistanceMeters>
          </Trackpoint>
          <Trackpoint>
            <Time>2022-07-09T07:46:38.000Z</Time>
            <Position>
              <LatitudeDegrees>42.847434394061565399169921875</LatitudeDegrees>
              <LongitudeDegrees>-0.14060382731258869171142578125</LongitudeDegrees>
            </Position>
            <AltitudeMeters>1610.199951171875</AltitudeMeters>
            <DistanceMeters>1740.8814870289</DistanceMeters>
          </Trackpoint>
          <Trackpoint>
            <Time>2022-07-09T07:46:41.000Z</Time>
            <Position>
              <LatitudeDegrees>42.84741737879812717437744140625</LatitudeDegrees>
              <LongitudeDegrees>-0.14061187393963336944580078125</LongitudeDegrees>
            </Position>
            <AltitudeMeters>1610.4000244140625</AltitudeMeters>
            <DistanceMeters>1742.8883288498</DistanceMeters>
          </Trackpoint>
          <Trackpoint>
            <Time>2022-07-09T07:46:42.000Z</Time>
            <Position>
              <LatitudeDegrees>42.84740815870463848114013671875</LatitudeDegrees>
              <LongitudeDegrees>-0.14061958529055118560791015625</LongitudeDegrees>
            </Position>
            <AltitudeMeters>1611</AltitudeMeters>
            <DistanceMeters>1744.0903322737</DistanceMeters>
          </Trackpoint>
          <Trackpoint>
            <Time>2022-07-09T07:46:44.000Z</Time>
            <Position>
              <LatitudeDegrees>42.84739307127892971038818359375</LatitudeDegrees>
              <LongitudeDegrees>-0.14063467271625995635986328125</LongitudeDegrees>
            </Position>
            <AltitudeMeters>1611.4000244140625</AltitudeMeters>
            <DistanceMeters>1746.1722632747</DistanceMeters>
          </Trackpoint>
          <Trackpoint>
            <Time>2022-07-09T07:46:45.000Z</Time>
            <Position>
              <LatitudeDegrees>42.84738712012767791748046875</LatitudeDegrees>
              <LongitudeDegrees>-0.1406434737145900726318359375</LongitudeDegrees>
            </Position>
            <AltitudeMeters>1611.5999755859375</AltitudeMeters>
            <DistanceMeters>1747.1459973383</DistanceMeters>
          </Trackpoint>
          <Trackpoint>
            <Time>2022-07-09T07:46:48.000Z</Time>
            <Position>
              <LatitudeDegrees>42.8473703563213348388671875</LatitudeDegrees>
              <LongitudeDegrees>-0.14067339710891246795654296875</LongitudeDegrees>
            </Position>
            <AltitudeMeters>1612</AltitudeMeters>
            <DistanceMeters>1750.2178745956</DistanceMeters>
          </Trackpoint>
          <Trackpoint>
            <Time>2022-07-09T07:46:52.000Z</Time>
            <Position>
              <LatitudeDegrees>42.84735803492367267608642578125</LatitudeDegrees>
              <LongitudeDegrees>-0.14068831689655780792236328125</LongitudeDegrees>
            </Position>
            <AltitudeMeters>1612.4000244140625</AltitudeMeters>
            <DistanceMeters>1752.0506834883</DistanceMeters>
          </Trackpoint>
          <Trackpoint>
            <Time>2022-07-09T07:46:57.000Z</Time>
            <Position>
              <LatitudeDegrees>42.8473571129143238067626953125</LatitudeDegrees>
              <LongitudeDegrees>-0.1407101936638355255126953125</LongitudeDegrees>
            </Position>
            <AltitudeMeters>1613.199951171875</AltitudeMeters>
            <DistanceMeters>1753.8386004498</DistanceMeters>
          </Trackpoint>
          <Trackpoint>
            <Time>2022-07-09T07:47:00.000Z</Time>
            <Position>
              <LatitudeDegrees>42.8473577834665775299072265625</LatitudeDegrees>
              <LongitudeDegrees>-0.140725113451480865478515625</LongitudeDegrees>
            </Position>
            <AltitudeMeters>1613.5999755859375</AltitudeMeters>
            <DistanceMeters>1755.0555361658</DistanceMeters>
          </Trackpoint>
          <Trackpoint>
            <Time>2022-07-09T07:47:05.000Z</Time>
            <Position>
              <LatitudeDegrees>42.84734512679278850555419921875</LatitudeDegrees>
              <LongitudeDegrees>-0.14081303961575031280517578125</LongitudeDegrees>
            </Position>
            <AltitudeMeters>1614.5999755859375</AltitudeMeters>
            <DistanceMeters>1762.3670375539</DistanceMeters>
          </Trackpoint>
          <Trackpoint>
            <Time>2022-07-09T07:47:06.000Z</Time>
            <Position>
              <LatitudeDegrees>42.84734026528894901275634765625</LatitudeDegrees>
              <LongitudeDegrees>-0.14082259498536586761474609375</LongitudeDegrees>
            </Position>
            <AltitudeMeters>1614.800048828125</AltitudeMeters>
            <DistanceMeters>1763.3125414238</DistanceMeters>
          </Trackpoint>
          <Trackpoint>
            <Time>2022-07-09T07:47:12.000Z</Time>
            <Position>
              <LatitudeDegrees>42.84732165746390819549560546875</LatitudeDegrees>
              <LongitudeDegrees>-0.14089233241975307464599609375</LongitudeDegrees>
            </Position>
            <AltitudeMeters>1616</AltitudeMeters>
            <DistanceMeters>1769.3682115303</DistanceMeters>
          </Trackpoint>
          <Trackpoint>
            <Time>2022-07-09T07:47:13.000Z</Time>
            <Position>
              <LatitudeDegrees>42.8473205678164958953857421875</LatitudeDegrees>
              <LongitudeDegrees>-0.1409043185412883758544921875</LongitudeDegrees>
            </Position>
            <AltitudeMeters>1616.199951171875</AltitudeMeters>
            <DistanceMeters>1770.3557581145</DistanceMeters>
          </Trackpoint>
          <Trackpoint>
            <Time>2022-07-09T07:47:14.000Z</Time>
            <Position>
              <LatitudeDegrees>42.847318388521671295166015625</LatitudeDegrees>
              <LongitudeDegrees>-0.14091613702476024627685546875</LongitudeDegrees>
            </Position>
            <AltitudeMeters>1616.4000244140625</AltitudeMeters>
            <DistanceMeters>1771.3524067029</DistanceMeters>
          </Trackpoint>
          <Trackpoint>
            <Time>2022-07-09T07:47:16.000Z</Time>
            <Position>
              <LatitudeDegrees>42.84731679596006870269775390625</LatitudeDegrees>
              <LongitudeDegrees>-0.14093440957367420196533203125</LongitudeDegrees>
            </Position>
            <AltitudeMeters>1617</AltitudeMeters>
            <DistanceMeters>1772.8549109827</DistanceMeters>
          </Trackpoint>
          <Trackpoint>
            <Time>2022-07-09T07:47:21.000Z</Time>
            <Position>
              <LatitudeDegrees>42.847306318581104278564453125</LatitudeDegrees>
              <LongitudeDegrees>-0.14097246341407299041748046875</LongitudeDegrees>
            </Position>
            <AltitudeMeters>1618.199951171875</AltitudeMeters>
            <DistanceMeters>1776.1726908406</DistanceMeters>
          </Trackpoint>
          <Trackpoint>
            <Time>2022-07-09T07:47:22.000Z</Time>
            <Position>
              <LatitudeDegrees>42.847302965819835662841796875</LatitudeDegrees>
              <LongitudeDegrees>-0.1409770734608173370361328125</LongitudeDegrees>
            </Position>
            <AltitudeMeters>1618.4000244140625</AltitudeMeters>
            <DistanceMeters>1776.7017771944</DistanceMeters>
          </Trackpoint>
          <Trackpoint>
            <Time>2022-07-09T07:47:28.000Z</Time>
            <Position>
              <LatitudeDegrees>42.84727505408227443695068359375</LatitudeDegrees>
              <LongitudeDegrees>-0.14098755083978176116943359375</LongitudeDegrees>
            </Position>
            <AltitudeMeters>1619.199951171875</AltitudeMeters>
            <DistanceMeters>1779.9242898647</DistanceMeters>
          </Trackpoint>
          <Trackpoint>
            <Time>2022-07-09T07:47:29.000Z</Time>
            <Position>
              <LatitudeDegrees>42.8472719527781009674072265625</LatitudeDegrees>
              <LongitudeDegrees>-0.1409876346588134765625</LongitudeDegrees>
            </Position>
            <AltitudeMeters>1619.4000244140625</AltitudeMeters>
            <DistanceMeters>1780.2669135559</DistanceMeters>
          </Trackpoint>
          <Trackpoint>
            <Time>2022-07-09T07:47:30.000Z</Time>
            <Position>
              <LatitudeDegrees>42.84726818092167377471923828125</LatitudeDegrees>
              <LongitudeDegrees>-0.14098696410655975341796875</LongitudeDegrees>
            </Position>
            <AltitudeMeters>1619.5999755859375</AltitudeMeters>
            <DistanceMeters>1780.691885942</DistanceMeters>
          </Trackpoint>
          <Trackpoint>
            <Time>2022-07-09T07:47:36.000Z</Time>
            <Position>
              <LatitudeDegrees>42.84723985008895397186279296875</LatitudeDegrees>
              <LongitudeDegrees>-0.14101110398769378662109375</LongitudeDegrees>
            </Position>
            <AltitudeMeters>1620.199951171875</AltitudeMeters>
            <DistanceMeters>1784.4088762512</DistanceMeters>
          </Trackpoint>
          <Trackpoint>
            <Time>2022-07-09T07:47:38.000Z</Time>
            <Position>
              <LatitudeDegrees>42.8472330607473850250244140625</LatitudeDegrees>
              <LongitudeDegrees>-0.141020826995372772216796875</LongitudeDegrees>
            </Position>
            <AltitudeMeters>1620.4000244140625</AltitudeMeters>
            <DistanceMeters>1785.5006500788</DistanceMeters>
          </Trackpoint>
          <Trackpoint>
            <Time>2022-07-09T07:47:40.000Z</Time>
            <Position>
              <LatitudeDegrees>42.8472186438739299774169921875</LatitudeDegrees>
              <LongitudeDegrees>-0.141038261353969573974609375</LongitudeDegrees>
            </Position>
            <AltitudeMeters>1620.4000244140625</AltitudeMeters>
            <DistanceMeters>1787.6445504753</DistanceMeters>
          </Trackpoint>
          <Trackpoint>
            <Time>2022-07-09T07:47:46.000Z</Time>
            <Position>
              <LatitudeDegrees>42.84717346541583538055419921875</LatitudeDegrees>
              <LongitudeDegrees>-0.141080506145954132080078125</LongitudeDegrees>
            </Position>
            <AltitudeMeters>1621.4000244140625</AltitudeMeters>
            <DistanceMeters>1793.7410900383</DistanceMeters>
          </Trackpoint>
          <Trackpoint>
            <Time>2022-07-09T07:47:47.000Z</Time>
            <Position>
              <LatitudeDegrees>42.84716659225523471832275390625</LatitudeDegrees>
              <LongitudeDegrees>-0.14108360745012760162353515625</LongitudeDegrees>
            </Position>
            <AltitudeMeters>1621.4000244140625</AltitudeMeters>
            <DistanceMeters>1794.5474184478</DistanceMeters>
          </Trackpoint>
          <Trackpoint>
            <Time>2022-07-09T07:47:53.000Z</Time>
            <Position>
              <LatitudeDegrees>42.84712292253971099853515625</LatitudeDegrees>
              <LongitudeDegrees>-0.14110389165580272674560546875</LongitudeDegrees>
            </Position>
            <AltitudeMeters>1621.800048828125</AltitudeMeters>
            <DistanceMeters>1799.6823793256</DistanceMeters>
          </Trackpoint>
          <Trackpoint>
            <Time>2022-07-09T07:47:55.000Z</Time>
            <Position>
              <LatitudeDegrees>42.84710842184722423553466796875</LatitudeDegrees>
              <LongitudeDegrees>-0.14111126773059368133544921875</LongitudeDegrees>
            </Position>
            <AltitudeMeters>1622</AltitudeMeters>
            <DistanceMeters>1801.4033863196</DistanceMeters>
          </Trackpoint>
          <Trackpoint>
            <Time>2022-07-09T07:47:57.000Z</Time>
            <Position>
              <LatitudeDegrees>42.84708897583186626434326171875</LatitudeDegrees>
              <LongitudeDegrees>-0.1411142013967037200927734375</LongitudeDegrees>
            </Position>
            <AltitudeMeters>1622.199951171875</AltitudeMeters>
            <DistanceMeters>1803.5807218779</DistanceMeters>
          </Trackpoint>
          <Trackpoint>
            <Time>2022-07-09T07:47:58.000Z</Time>
            <Position>
              <LatitudeDegrees>42.8470781631767749786376953125</LatitudeDegrees>
              <LongitudeDegrees>-0.14111705124378204345703125</LongitudeDegrees>
            </Position>
            <AltitudeMeters>1622.199951171875</AltitudeMeters>
            <DistanceMeters>1804.8050554475</DistanceMeters>
          </Trackpoint>
          <Trackpoint>
            <Time>2022-07-09T07:48:03.000Z</Time>
            <Position>
              <LatitudeDegrees>42.84703801386058330535888671875</LatitudeDegrees>
              <LongitudeDegrees>-0.141125433146953582763671875</LongitudeDegrees>
            </Position>
            <AltitudeMeters>1622.4000244140625</AltitudeMeters>
            <DistanceMeters>1809.3245723372</DistanceMeters>
          </Trackpoint>
          <Trackpoint>
            <Time>2022-07-09T07:48:05.000Z</Time>
            <Position>
              <LatitudeDegrees>42.84702409990131855010986328125</LatitudeDegrees>
              <LongitudeDegrees>-0.14113121666014194488525390625</LongitudeDegrees>
            </Position>
            <AltitudeMeters>1622.5999755859375</AltitudeMeters>
            <DistanceMeters>1810.9428189713</DistanceMeters>
          </Trackpoint>
          <Trackpoint>
            <Time>2022-07-09T07:48:09.000Z</Time>
            <Position>
              <LatitudeDegrees>42.8469839505851268768310546875</LatitudeDegrees>
              <LongitudeDegrees>-0.14114177785813808441162109375</LongitudeDegrees>
            </Position>
            <AltitudeMeters>1622.800048828125</AltitudeMeters>
            <DistanceMeters>1815.4941918809</DistanceMeters>
          </Trackpoint>
          <Trackpoint>
            <Time>2022-07-09T07:48:14.000Z</Time>
            <Position>
              <LatitudeDegrees>42.84695662558078765869140625</LatitudeDegrees>
              <LongitudeDegrees>-0.14115384779870510101318359375</LongitudeDegrees>
            </Position>
            <AltitudeMeters>1623.4000244140625</AltitudeMeters>
            <DistanceMeters>1818.6913854212</DistanceMeters>
          </Trackpoint>
          <Trackpoint>
            <Time>2022-07-09T07:48:15.000Z</Time>
            <Position>
              <LatitudeDegrees>42.84695100970566272735595703125</LatitudeDegrees>
              <LongitudeDegrees>-0.14115368016064167022705078125</LongitudeDegrees>
            </Position>
            <AltitudeMeters>1623.800048828125</AltitudeMeters>
            <DistanceMeters>1819.3217213345</DistanceMeters>
          </Trackpoint>
          <Trackpoint>
            <Time>2022-07-09T07:48:18.000Z</Time>
            <Position>
              <LatitudeDegrees>42.84692988730967044830322265625</LatitudeDegrees>
              <LongitudeDegrees>-0.14117228798568248748779296875</LongitudeDegrees>
            </Position>
            <AltitudeMeters>1625</AltitudeMeters>
            <DistanceMeters>1822.1197699897</DistanceMeters>
          </Trackpoint>
          <Trackpoint>
            <Time>2022-07-09T07:48:21.000Z</Time>
            <Position>
              <LatitudeDegrees>42.84691496752202510833740234375</LatitudeDegrees>
              <LongitudeDegrees>-0.1411825977265834808349609375</LongitudeDegrees>
            </Position>
            <AltitudeMeters>1625.199951171875</AltitudeMeters>
            <DistanceMeters>1823.9794794504</DistanceMeters>
          </Trackpoint>
          <Trackpoint>
            <Time>2022-07-09T07:48:24.000Z</Time>
            <Position>
              <LatitudeDegrees>42.84689535386860370635986328125</LatitudeDegrees>
              <LongitudeDegrees>-0.14119240455329418182373046875</LongitudeDegrees>
            </Position>
            <AltitudeMeters>1625.800048828125</AltitudeMeters>
            <DistanceMeters>1826.3052085382</DistanceMeters>
          </Trackpoint>
          <Trackpoint>
            <Time>2022-07-09T07:48:26.000Z</Time>
            <Position>
              <LatitudeDegrees>42.84688965417444705963134765625</LatitudeDegrees>
              <LongitudeDegrees>-0.14121050946414470672607421875</LongitudeDegrees>
            </Position>
            <AltitudeMeters>1626</AltitudeMeters>
            <DistanceMeters>1827.9150631712</DistanceMeters>
          </Trackpoint>
          <Trackpoint>
            <Time>2022-07-09T07:48:30.000Z</Time>
            <Position>
              <LatitudeDegrees>42.846864759922027587890625</LatitudeDegrees>
              <LongitudeDegrees>-0.14123397879302501678466796875</LongitudeDegrees>
            </Position>
            <AltitudeMeters>1626.5999755859375</AltitudeMeters>
            <DistanceMeters>1831.2828185087</DistanceMeters>
          </Trackpoint>
          <Trackpoint>
            <Time>2022-07-09T07:48:34.000Z</Time>
            <Position>
              <LatitudeDegrees>42.84683366306126117706298828125</LatitudeDegrees>
              <LongitudeDegrees>-0.1412194781005382537841796875</LongitudeDegrees>
            </Position>
            <AltitudeMeters>1626.5999755859375</AltitudeMeters>
            <DistanceMeters>1834.9398040451</DistanceMeters>
          </Trackpoint>
          <Trackpoint>
            <Time>2022-07-09T07:48:38.000Z</Time>
            <Position>
              <LatitudeDegrees>42.846777923405170440673828125</LatitudeDegrees>
              <LongitudeDegrees>-0.141219310462474822998046875</LongitudeDegrees>
            </Position>
            <AltitudeMeters>1627</AltitudeMeters>
            <DistanceMeters>1841.1435275886</DistanceMeters>
          </Trackpoint>
          <Trackpoint>
            <Time>2022-07-09T07:48:39.000Z</Time>
            <Position>
              <LatitudeDegrees>42.84676375798881053924560546875</LatitudeDegrees>
              <LongitudeDegrees>-0.141224674880504608154296875</LongitudeDegrees>
            </Position>
            <AltitudeMeters>1627.199951171875</AltitudeMeters>
            <DistanceMeters>1842.7784290008</DistanceMeters>
          </Trackpoint>
          <Trackpoint>
            <Time>2022-07-09T07:48:43.000Z</Time>
            <Position>
              <LatitudeDegrees>42.84671681933104991912841796875</LatitudeDegrees>
              <LongitudeDegrees>-0.141249485313892364501953125</LongitudeDegrees>
            </Position>
            <AltitudeMeters>1627.5999755859375</AltitudeMeters>
            <DistanceMeters>1848.380977146</DistanceMeters>
          </Trackpoint>
          <Trackpoint>
            <Time>2022-07-09T07:48:47.000Z</Time>
            <Position>
              <LatitudeDegrees>42.8466837108135223388671875</LatitudeDegrees>
              <LongitudeDegrees>-0.141296088695526123046875</LongitudeDegrees>
            </Position>
            <AltitudeMeters>1627.800048828125</AltitudeMeters>
            <DistanceMeters>1853.6769583992</DistanceMeters>
          </Trackpoint>
          <Trackpoint>
            <Time>2022-07-09T07:48:48.000Z</Time>
            <Position>
              <LatitudeDegrees>42.84667893312871456146240234375</LatitudeDegrees>
              <LongitudeDegrees>-0.141309164464473724365234375</LongitudeDegrees>
            </Position>
            <AltitudeMeters>1627.800048828125</AltitudeMeters>
            <DistanceMeters>1854.8714256772</DistanceMeters>
          </Trackpoint>
          <Trackpoint>
            <Time>2022-07-09T07:48:54.000Z</Time>
            <Position>
              <LatitudeDegrees>42.84667960368096828460693359375</LatitudeDegrees>
              <LongitudeDegrees>-0.14133405871689319610595703125</LongitudeDegrees>
            </Position>
            <AltitudeMeters>1627.800048828125</AltitudeMeters>
            <DistanceMeters>1856.9050861728</DistanceMeters>
          </Trackpoint>
          <Trackpoint>
            <Time>2022-07-09T07:48:57.000Z</Time>
            <Position>
              <LatitudeDegrees>42.8466644324362277984619140625</LatitudeDegrees>
              <LongitudeDegrees>-0.141352079808712005615234375</LongitudeDegrees>
            </Position>
            <AltitudeMeters>1627.5999755859375</AltitudeMeters>
            <DistanceMeters>1859.1457830516</DistanceMeters>
          </Trackpoint>
          <Trackpoint>
            <Time>2022-07-09T07:49:03.000Z</Time>
            <Position>
              <LatitudeDegrees>42.84661598503589630126953125</LatitudeDegrees>
              <LongitudeDegrees>-0.1413633115589618682861328125</LongitudeDegrees>
            </Position>
            <AltitudeMeters>1627.5999755859375</AltitudeMeters>
            <DistanceMeters>1864.6162193537</DistanceMeters>
          </Trackpoint>
          <Trackpoint>
            <Time>2022-07-09T07:49:07.000Z</Time>
            <Position>
              <LatitudeDegrees>42.84657415933907032012939453125</LatitudeDegrees>
              <LongitudeDegrees>-0.1413401775062084197998046875</LongitudeDegrees>
            </Position>
            <AltitudeMeters>1628.199951171875</AltitudeMeters>
            <DistanceMeters>1869.64006884</DistanceMeters>
          </Trackpoint>
          <Trackpoint>
            <Time>2022-07-09T07:49:10.000Z</Time>
            <Position>
              <LatitudeDegrees>42.8465417213737964630126953125</LatitudeDegrees>
              <LongitudeDegrees>-0.1413227431476116180419921875</LongitudeDegrees>
            </Position>
            <AltitudeMeters>1628.4000244140625</AltitudeMeters>
            <DistanceMeters>1873.5210696785</DistanceMeters>
          </Trackpoint>
          <Trackpoint>
            <Time>2022-07-09T07:49:11.000Z</Time>
            <Position>
              <LatitudeDegrees>42.84652973525226116180419921875</LatitudeDegrees>
              <LongitudeDegrees>-0.1413193903863430023193359375</LongitudeDegrees>
            </Position>
            <AltitudeMeters>1628.5999755859375</AltitudeMeters>
            <DistanceMeters>1874.8783226375</DistanceMeters>
          </Trackpoint>
          <Trackpoint>
            <Time>2022-07-09T07:49:17.000Z</Time>
            <Position>
              <LatitudeDegrees>42.8464716486632823944091796875</LatitudeDegrees>
              <LongitudeDegrees>-0.14133757911622524261474609375</LongitudeDegrees>
            </Position>
            <AltitudeMeters>1629</AltitudeMeters>
            <DistanceMeters>1881.5118407471</DistanceMeters>
          </Trackpoint>
          <Trackpoint>
            <Time>2022-07-09T07:49:19.000Z</Time>
            <Position>
              <LatitudeDegrees>42.8464535437524318695068359375</LatitudeDegrees>
              <LongitudeDegrees>-0.1413535885512828826904296875</LongitudeDegrees>
            </Position>
            <AltitudeMeters>1629</AltitudeMeters>
            <DistanceMeters>1883.9139687303</DistanceMeters>
          </Trackpoint>
          <Trackpoint>
            <Time>2022-07-09T07:49:20.000Z</Time>
            <Position>
              <LatitudeDegrees>42.84644323401153087615966796875</LatitudeDegrees>
              <LongitudeDegrees>-0.1413626410067081451416015625</LongitudeDegrees>
            </Position>
            <AltitudeMeters>1629</AltitudeMeters>
            <DistanceMeters>1885.2811650673</DistanceMeters>
          </Trackpoint>
          <Trackpoint>
            <Time>2022-07-09T07:49:24.000Z</Time>
            <Position>
              <LatitudeDegrees>42.846414148807525634765625</LatitudeDegrees>
              <LongitudeDegrees>-0.1413978450000286102294921875</LongitudeDegrees>
            </Position>
            <AltitudeMeters>1629.199951171875</AltitudeMeters>
            <DistanceMeters>1889.6098379149</DistanceMeters>
          </Trackpoint>
          <Trackpoint>
            <Time>2022-07-09T07:49:27.000Z</Time>
            <Position>
              <LatitudeDegrees>42.84639964811503887176513671875</LatitudeDegrees>
              <LongitudeDegrees>-0.14143221080303192138671875</LongitudeDegrees>
            </Position>
            <AltitudeMeters>1629</AltitudeMeters>
            <DistanceMeters>1892.8449358421</DistanceMeters>
          </Trackpoint>
          <Trackpoint>
            <Time>2022-07-09T07:49:32.000Z</Time>
            <Position>
              <LatitudeDegrees>42.8463859856128692626953125</LatitudeDegrees>
              <LongitudeDegrees>-0.1415146887302398681640625</LongitudeDegrees>
            </Position>
            <AltitudeMeters>1629.4000244140625</AltitudeMeters>
            <DistanceMeters>1899.7446867805</DistanceMeters>
          </Trackpoint>
          <Trackpoint>
            <Time>2022-07-09T07:49:36.000Z</Time>
            <Position>
              <LatitudeDegrees>42.846350111067295074462890625</LatitudeDegrees>
              <LongitudeDegrees>-0.14153740368783473968505859375</LongitudeDegrees>
            </Position>
            <AltitudeMeters>1629.800048828125</AltitudeMeters>
            <DistanceMeters>1904.1467935544</DistanceMeters>
          </Trackpoint>
          <Trackpoint>
            <Time>2022-07-09T07:49:37.000Z</Time>
            <Position>
              <LatitudeDegrees>42.84633661620318889617919921875</LatitudeDegrees>
              <LongitudeDegrees>-0.1415307819843292236328125</LongitudeDegrees>
            </Position>
            <AltitudeMeters>1629.800048828125</AltitudeMeters>
            <DistanceMeters>1905.7425634492</DistanceMeters>
          </Trackpoint>
          <Trackpoint>
            <Time>2022-07-09T07:49:41.000Z</Time>
            <Position>
              <LatitudeDegrees>42.84628749825060367584228515625</LatitudeDegrees>
              <LongitudeDegrees>-0.141508318483829498291015625</LongitudeDegrees>
            </Position>
            <AltitudeMeters>1630</AltitudeMeters>
            <DistanceMeters>1911.5087356169</DistanceMeters>
          </Trackpoint>
          <Trackpoint>
            <Time>2022-07-09T07:49:42.000Z</Time>
            <Position>
              <LatitudeDegrees>42.8462735004723072052001953125</LatitudeDegrees>
              <LongitudeDegrees>-0.14150999486446380615234375</LongitudeDegrees>
            </Position>
            <AltitudeMeters>1630.4000244140625</AltitudeMeters>
            <DistanceMeters>1913.073072766</DistanceMeters>
          </Trackpoint>
          <Trackpoint>
            <Time>2022-07-09T07:49:44.000Z</Time>
            <Position>
              <LatitudeDegrees>42.8462438285350799560546875</LatitudeDegrees>
              <LongitudeDegrees>-0.14151661656796932220458984375</LongitudeDegrees>
            </Position>
            <AltitudeMeters>1630.800048828125</AltitudeMeters>
            <DistanceMeters>1916.4193086798</DistanceMeters>
          </Trackpoint>
          <Trackpoint>
            <Time>2022-07-09T07:49:45.000Z</Time>
            <Position>
              <LatitudeDegrees>42.8462289087474346160888671875</LatitudeDegrees>
              <LongitudeDegrees>-0.14151929877698421478271484375</LongitudeDegrees>
            </Position>
            <AltitudeMeters>1631.4000244140625</AltitudeMeters>
            <DistanceMeters>1918.0924266367</DistanceMeters>
          </Trackpoint>
          <Trackpoint>
            <Time>2022-07-09T07:49:46.000Z</Time>
            <Position>
              <LatitudeDegrees>42.84621474333107471466064453125</LatitudeDegrees>
              <LongitudeDegrees>-0.141517035663127899169921875</LongitudeDegrees>
            </Position>
            <AltitudeMeters>1631.4000244140625</AltitudeMeters>
            <DistanceMeters>1919.6768385943</DistanceMeters>
          </Trackpoint>
          <Trackpoint>
            <Time>2022-07-09T07:49:49.000Z</Time>
            <Position>
              <LatitudeDegrees>42.8461752645671367645263671875</LatitudeDegrees>
              <LongitudeDegrees>-0.14151410199701786041259765625</LongitudeDegrees>
            </Position>
            <AltitudeMeters>1632</AltitudeMeters>
            <DistanceMeters>1924.0768935821</DistanceMeters>
          </Trackpoint>
          <Trackpoint>
            <Time>2022-07-09T07:49:54.000Z</Time>
            <Position>
              <LatitudeDegrees>42.846129499375820159912109375</LatitudeDegrees>
              <LongitudeDegrees>-0.1415222324430942535400390625</LongitudeDegrees>
            </Position>
            <AltitudeMeters>1632.5999755859375</AltitudeMeters>
            <DistanceMeters>1929.2136127071</DistanceMeters>
          </Trackpoint>
          <Trackpoint>
            <Time>2022-07-09T07:49:57.000Z</Time>
            <Position>
              <LatitudeDegrees>42.84610695205628871917724609375</LatitudeDegrees>
              <LongitudeDegrees>-0.141542851924896240234375</LongitudeDegrees>
            </Position>
            <AltitudeMeters>1633</AltitudeMeters>
            <DistanceMeters>1932.2336089337</DistanceMeters>
          </Trackpoint>
          <Trackpoint>
            <Time>2022-07-09T07:50:00.000Z</Time>
            <Position>
              <LatitudeDegrees>42.84608633257448673248291015625</LatitudeDegrees>
              <LongitudeDegrees>-0.14156439341604709625244140625</LongitudeDegrees>
            </Position>
            <AltitudeMeters>1633.800048828125</AltitudeMeters>
            <DistanceMeters>1935.1237336214</DistanceMeters>
          </Trackpoint>
          <Trackpoint>
            <Time>2022-07-09T07:50:02.000Z</Time>
            <Position>
              <LatitudeDegrees>42.84606839530169963836669921875</LatitudeDegrees>
              <LongitudeDegrees>-0.14157830737531185150146484375</LongitudeDegrees>
            </Position>
            <AltitudeMeters>1634</AltitudeMeters>
            <DistanceMeters>1937.4201579383</DistanceMeters>
          </Trackpoint>
          <Trackpoint>
            <Time>2022-07-09T07:50:04.000Z</Time>
            <Position>
              <LatitudeDegrees>42.84604844637215137481689453125</LatitudeDegrees>
              <LongitudeDegrees>-0.14160697348415851593017578125</LongitudeDegrees>
            </Position>
            <AltitudeMeters>1634.5999755859375</AltitudeMeters>
            <DistanceMeters>1940.6454715763</DistanceMeters>
          </Trackpoint>
          <Trackpoint>
            <Time>2022-07-09T07:50:06.000Z</Time>
            <Position>
              <LatitudeDegrees>42.8460438363254070281982421875</LatitudeDegrees>
              <LongitudeDegrees>-0.14163329266011714935302734375</LongitudeDegrees>
            </Position>
            <AltitudeMeters>1634.800048828125</AltitudeMeters>
            <DistanceMeters>1942.8516472727</DistanceMeters>
          </Trackpoint>
          <Trackpoint>
            <Time>2022-07-09T07:50:08.000Z</Time>
            <Position>
              <LatitudeDegrees>42.84603754989802837371826171875</LatitudeDegrees>
              <LongitudeDegrees>-0.1416566781699657440185546875</LongitudeDegrees>
            </Position>
            <AltitudeMeters>1635.199951171875</AltitudeMeters>
            <DistanceMeters>1944.8830864017</DistanceMeters>
          </Trackpoint>
          <Trackpoint>
            <Time>2022-07-09T07:50:10.000Z</Time>
            <Position>
              <LatitudeDegrees>42.84603620879352092742919921875</LatitudeDegrees>
              <LongitudeDegrees>-0.1416809856891632080078125</LongitudeDegrees>
            </Position>
            <AltitudeMeters>1635.5999755859375</AltitudeMeters>
            <DistanceMeters>1946.871848198</DistanceMeters>
          </Trackpoint>
          <Trackpoint>
            <Time>2022-07-09T07:50:11.000Z</Time>
            <Position>
              <LatitudeDegrees>42.84603352658450603485107421875</LatitudeDegrees>
              <LongitudeDegrees>-0.1416925527155399322509765625</LongitudeDegrees>
            </Position>
            <AltitudeMeters>1635.800048828125</AltitudeMeters>
            <DistanceMeters>1947.8639562226</DistanceMeters>
          </Trackpoint>
          <Trackpoint>
            <Time>2022-07-09T07:50:12.000Z</Time>
            <Position>
              <LatitudeDegrees>42.84603126347064971923828125</LatitudeDegrees>
              <LongitudeDegrees>-0.14170453883707523345947265625</LongitudeDegrees>
            </Position>
            <AltitudeMeters>1636</AltitudeMeters>
            <DistanceMeters>1948.8696244391</DistanceMeters>
          </Trackpoint>
          <Trackpoint>
            <Time>2022-07-09T07:50:18.000Z</Time>
            <Position>
              <LatitudeDegrees>42.8460210375487804412841796875</LatitudeDegrees>
              <LongitudeDegrees>-0.14177980832755565643310546875</LongitudeDegrees>
            </Position>
            <AltitudeMeters>1637</AltitudeMeters>
            <DistanceMeters>1955.1161402931</DistanceMeters>
          </Trackpoint>
          <Trackpoint>
            <Time>2022-07-09T07:50:19.000Z</Time>
            <Position>
              <LatitudeDegrees>42.8460180200636386871337890625</LatitudeDegrees>
              <LongitudeDegrees>-0.14179120771586894989013671875</LongitudeDegrees>
            </Position>
            <AltitudeMeters>1637.4000244140625</AltitudeMeters>
            <DistanceMeters>1956.1082483176</DistanceMeters>
          </Trackpoint>
          <Trackpoint>
            <Time>2022-07-09T07:50:23.000Z</Time>
            <Position>
              <LatitudeDegrees>42.846017517149448394775390625</LatitudeDegrees>
              <LongitudeDegrees>-0.14183462597429752349853515625</LongitudeDegrees>
            </Position>
            <AltitudeMeters>1638</AltitudeMeters>
            <DistanceMeters>1959.6511011592</DistanceMeters>
          </Trackpoint>
          <Trackpoint>
            <Time>2022-07-09T07:50:24.000Z</Time>
            <Position>
              <LatitudeDegrees>42.8460173495113849639892578125</LatitudeDegrees>
              <LongitudeDegrees>-0.14184401370584964752197265625</LongitudeDegrees>
            </Position>
            <AltitudeMeters>1638.199951171875</AltitudeMeters>
            <DistanceMeters>1960.4172310235</DistanceMeters>
          </Trackpoint>
          <Trackpoint>
            <Time>2022-07-09T07:50:27.000Z</Time>
            <Position>
              <LatitudeDegrees>42.84599647857248783111572265625</LatitudeDegrees>
              <LongitudeDegrees>-0.14188818633556365966796875</LongitudeDegrees>
            </Position>
            <AltitudeMeters>1639</AltitudeMeters>
            <DistanceMeters>1964.707137292</DistanceMeters>
          </Trackpoint>
          <Trackpoint>
            <Time>2022-07-09T07:50:28.000Z</Time>
            <Position>
              <LatitudeDegrees>42.8459905274212360382080078125</LatitudeDegrees>
              <LongitudeDegrees>-0.14190402813255786895751953125</LongitudeDegrees>
            </Position>
            <AltitudeMeters>1639.199951171875</AltitudeMeters>
            <DistanceMeters>1966.1607665046</DistanceMeters>
          </Trackpoint>
          <Trackpoint>
            <Time>2022-07-09T07:50:31.000Z</Time>
            <Position>
              <LatitudeDegrees>42.84601257182657718658447265625</LatitudeDegrees>
              <LongitudeDegrees>-0.14192967675626277923583984375</LongitudeDegrees>
            </Position>
            <AltitudeMeters>1640</AltitudeMeters>
            <DistanceMeters>1969.383279175</DistanceMeters>
          </Trackpoint>
          <Trackpoint>
            <Time>2022-07-09T07:50:32.000Z</Time>
            <Position>
              <LatitudeDegrees>42.8460240550339221954345703125</LatitudeDegrees>
              <LongitudeDegrees>-0.14193554408848285675048828125</LongitudeDegrees>
            </Position>
            <AltitudeMeters>1640.4000244140625</AltitudeMeters>
            <DistanceMeters>1970.7471691073</DistanceMeters>
          </Trackpoint>
          <Trackpoint>
            <Time>2022-07-09T07:50:33.000Z</Time>
            <Position>
              <LatitudeDegrees>42.84603126347064971923828125</LatitudeDegrees>
              <LongitudeDegrees>-0.14194191433489322662353515625</LongitudeDegrees>
            </Position>
            <AltitudeMeters>1640.800048828125</AltitudeMeters>
            <DistanceMeters>1971.697436251</DistanceMeters>
          </Trackpoint>
          <Trackpoint>
            <Time>2022-07-09T07:50:34.000Z</Time>
            <Position>
              <LatitudeDegrees>42.84603520296514034271240234375</LatitudeDegrees>
              <LongitudeDegrees>-0.1419510506093502044677734375</LongitudeDegrees>
            </Position>
            <AltitudeMeters>1640.800048828125</AltitudeMeters>
            <DistanceMeters>1972.557939748</DistanceMeters>
          </Trackpoint>
          <Trackpoint>
            <Time>2022-07-09T07:50:35.000Z</Time>
            <Position>
              <LatitudeDegrees>42.84603503532707691192626953125</LatitudeDegrees>
              <LongitudeDegrees>-0.14195733703672885894775390625</LongitudeDegrees>
            </Position>
            <AltitudeMeters>1641</AltitudeMeters>
            <DistanceMeters>1973.0607738563</DistanceMeters>
          </Trackpoint>
          <Trackpoint>
            <Time>2022-07-09T07:50:36.000Z</Time>
            <Position>
              <LatitudeDegrees>42.8460324369370937347412109375</LatitudeDegrees>
              <LongitudeDegrees>-0.14196823351085186004638671875</LongitudeDegrees>
            </Position>
            <AltitudeMeters>1641.199951171875</AltitudeMeters>
            <DistanceMeters>1973.9966784535</DistanceMeters>
          </Trackpoint>
          <Trackpoint>
            <Time>2022-07-09T07:50:38.000Z</Time>
            <Position>
              <LatitudeDegrees>42.84602782689034938812255859375</LatitudeDegrees>
              <LongitudeDegrees>-0.14199036173522472381591796875</LongitudeDegrees>
            </Position>
            <AltitudeMeters>1641.4000244140625</AltitudeMeters>
            <DistanceMeters>1975.8733056975</DistanceMeters>
          </Trackpoint>
          <Trackpoint>
            <Time>2022-07-09T07:50:39.000Z</Time>
            <Position>
              <LatitudeDegrees>42.84602749161422252655029296875</LatitudeDegrees>
              <LongitudeDegrees>-0.14199505560100078582763671875</LongitudeDegrees>
            </Position>
            <AltitudeMeters>1641.5999755859375</AltitudeMeters>
            <DistanceMeters>1976.253412555</DistanceMeters>
          </Trackpoint>
          <Trackpoint>
            <Time>2022-07-09T07:50:42.000Z</Time>
            <Position>
              <LatitudeDegrees>42.84602933563292026519775390625</LatitudeDegrees>
              <LongitudeDegrees>-0.1420114003121852874755859375</LongitudeDegrees>
            </Position>
            <AltitudeMeters>1642</AltitudeMeters>
            <DistanceMeters>1977.6039959259</DistanceMeters>
          </Trackpoint>
          <Trackpoint>
            <Time>2022-07-09T07:50:43.000Z</Time>
            <Position>
              <LatitudeDegrees>42.846036963164806365966796875</LatitudeDegrees>
              <LongitudeDegrees>-0.1420194469392299652099609375</LongitudeDegrees>
            </Position>
            <AltitudeMeters>1642.199951171875</AltitudeMeters>
            <DistanceMeters>1978.6791004719</DistanceMeters>
          </Trackpoint>
          <Trackpoint>
            <Time>2022-07-09T07:50:44.000Z</Time>
            <Position>
              <LatitudeDegrees>42.84604140557348728179931640625</LatitudeDegrees>
              <LongitudeDegrees>-0.1420301757752895355224609375</LongitudeDegrees>
            </Position>
            <AltitudeMeters>1642.4000244140625</AltitudeMeters>
            <DistanceMeters>1979.6847686884</DistanceMeters>
          </Trackpoint>
          <Trackpoint>
            <Time>2022-07-09T07:50:45.000Z</Time>
            <Position>
              <LatitudeDegrees>42.846047692000865936279296875</LatitudeDegrees>
              <LongitudeDegrees>-0.14203797094523906707763671875</LongitudeDegrees>
            </Position>
            <AltitudeMeters>1642.5999755859375</AltitudeMeters>
            <DistanceMeters>1980.6350358321</DistanceMeters>
          </Trackpoint>
          <Trackpoint>
            <Time>2022-07-09T07:50:47.000Z</Time>
            <Position>
              <LatitudeDegrees>42.8460579179227352142333984375</LatitudeDegrees>
              <LongitudeDegrees>-0.14205154962837696075439453125</LongitudeDegrees>
            </Position>
            <AltitudeMeters>1642.800048828125</AltitudeMeters>
            <DistanceMeters>1982.2251368994</DistanceMeters>
          </Trackpoint>
          <Trackpoint>
            <Time>2022-07-09T07:50:49.000Z</Time>
            <Position>
              <LatitudeDegrees>42.8460569120943546295166015625</LatitudeDegrees>
              <LongitudeDegrees>-0.142072252929210662841796875</LongitudeDegrees>
            </Position>
            <AltitudeMeters>1642.800048828125</AltitudeMeters>
            <DistanceMeters>1983.9170394477</DistanceMeters>
          </Trackpoint>
          <Trackpoint>
            <Time>2022-07-09T07:50:50.000Z</Time>
            <Position>
              <LatitudeDegrees>42.846057079732418060302734375</LatitudeDegrees>
              <LongitudeDegrees>-0.1420804671943187713623046875</LongitudeDegrees>
            </Position>
            <AltitudeMeters>1643</AltitudeMeters>
            <DistanceMeters>1984.5889797889</DistanceMeters>
          </Trackpoint>
          <Trackpoint>
            <Time>2022-07-09T07:50:51.000Z</Time>
            <Position>
              <LatitudeDegrees>42.84605749882757663726806640625</LatitudeDegrees>
              <LongitudeDegrees>-0.14208541251718997955322265625</LongitudeDegrees>
            </Position>
            <AltitudeMeters>1643.199951171875</AltitudeMeters>
            <DistanceMeters>1985.0031916338</DistanceMeters>
          </Trackpoint>
          <Trackpoint>
            <Time>2022-07-09T07:50:52.000Z</Time>
            <Position>
              <LatitudeDegrees>42.8460555709898471832275390625</LatitudeDegrees>
              <LongitudeDegrees>-0.1420932076871395111083984375</LongitudeDegrees>
            </Position>
            <AltitudeMeters>1643.199951171875</AltitudeMeters>
            <DistanceMeters>1985.6751319751</DistanceMeters>
          </Trackpoint>
          <Trackpoint>
            <Time>2022-07-09T07:50:56.000Z</Time>
            <Position>
              <LatitudeDegrees>42.84605381079018115997314453125</LatitudeDegrees>
              <LongitudeDegrees>-0.1421176828444004058837890625</LongitudeDegrees>
            </Position>
            <AltitudeMeters>1643.800048828125</AltitudeMeters>
            <DistanceMeters>1987.6819737959</DistanceMeters>
          </Trackpoint>
          <Trackpoint>
            <Time>2022-07-09T07:50:59.000Z</Time>
            <Position>
              <LatitudeDegrees>42.8460599295794963836669921875</LatitudeDegrees>
              <LongitudeDegrees>-0.1421377994120121002197265625</LongitudeDegrees>
            </Position>
            <AltitudeMeters>1644.4000244140625</AltitudeMeters>
            <DistanceMeters>1989.4597608347</DistanceMeters>
          </Trackpoint>
          <Trackpoint>
            <Time>2022-07-09T07:51:01.000Z</Time>
            <Position>
              <LatitudeDegrees>42.84605280496180057525634765625</LatitudeDegrees>
              <LongitudeDegrees>-0.14214693568646907806396484375</LongitudeDegrees>
            </Position>
            <AltitudeMeters>1644.800048828125</AltitudeMeters>
            <DistanceMeters>1990.5515346623</DistanceMeters>
          </Trackpoint>
          <Trackpoint>
            <Time>2022-07-09T07:51:03.000Z</Time>
            <Position>
              <LatitudeDegrees>42.84603687934577465057373046875</LatitudeDegrees>
              <LongitudeDegrees>-0.14214576222002506256103515625</LongitudeDegrees>
            </Position>
            <AltitudeMeters>1644.800048828125</AltitudeMeters>
            <DistanceMeters>1992.3267801887</DistanceMeters>
          </Trackpoint>
          <Trackpoint>
            <Time>2022-07-09T07:51:06.000Z</Time>
            <Position>
              <LatitudeDegrees>42.84601240418851375579833984375</LatitudeDegrees>
              <LongitudeDegrees>-0.14214961789548397064208984375</LongitudeDegrees>
            </Position>
            <AltitudeMeters>1645</AltitudeMeters>
            <DistanceMeters>1995.0710621994</DistanceMeters>
          </Trackpoint>
          <Trackpoint>
            <Time>2022-07-09T07:51:12.000Z</Time>
            <Position>
              <LatitudeDegrees>42.8459875099360942840576171875</LatitudeDegrees>
              <LongitudeDegrees>-0.14215372502803802490234375</LongitudeDegrees>
            </Position>
            <AltitudeMeters>1645.4000244140625</AltitudeMeters>
            <DistanceMeters>1997.8626488399</DistanceMeters>
          </Trackpoint>
          <Trackpoint>
            <Time>2022-07-09T07:51:14.000Z</Time>
            <Position>
              <LatitudeDegrees>42.84597652964293956756591796875</LatitudeDegrees>
              <LongitudeDegrees>-0.14215783216059207916259765625</LongitudeDegrees>
            </Position>
            <AltitudeMeters>1645.5999755859375</AltitudeMeters>
            <DistanceMeters>1999.1304633401</DistanceMeters>
          </Trackpoint>
          <Trackpoint>
            <Time>2022-07-09T07:51:16.000Z</Time>
            <Position>
              <LatitudeDegrees>42.84596060402691364288330078125</LatitudeDegrees>
              <LongitudeDegrees>-0.142165124416351318359375</LongitudeDegrees>
            </Position>
            <AltitudeMeters>1645.800048828125</AltitudeMeters>
            <DistanceMeters>2000.9974420511</DistanceMeters>
          </Trackpoint>
          <Trackpoint>
            <Time>2022-07-09T07:51:20.000Z</Time>
            <Position>
              <LatitudeDegrees>42.845952808856964111328125</LatitudeDegrees>
              <LongitudeDegrees>-0.142163448035717010498046875</LongitudeDegrees>
            </Position>
            <AltitudeMeters>1646.4000244140625</AltitudeMeters>
            <DistanceMeters>2001.8735450689</DistanceMeters>
          </Trackpoint>
          <Trackpoint>
            <Time>2022-07-09T07:51:21.000Z</Time>
            <Position>
              <LatitudeDegrees>42.84594970755279064178466796875</LatitudeDegrees>
              <LongitudeDegrees>-0.14216789044439792633056640625</LongitudeDegrees>
            </Position>
            <AltitudeMeters>1646.4000244140625</AltitudeMeters>
            <DistanceMeters>2002.3763791771</DistanceMeters>
          </Trackpoint>
          <Trackpoint>
            <Time>2022-07-09T07:51:25.000Z</Time>
            <Position>
              <LatitudeDegrees>42.845928333699703216552734375</LatitudeDegrees>
              <LongitudeDegrees>-0.14219219796359539031982421875</LongitudeDegrees>
            </Position>
            <AltitudeMeters>1647</AltitudeMeters>
            <DistanceMeters>2005.4745998374</DistanceMeters>
          </Trackpoint>
          <Trackpoint>
            <Time>2022-07-09T07:51:27.000Z</Time>
            <Position>
              <LatitudeDegrees>42.8459264896810054779052734375</LatitudeDegrees>
              <LongitudeDegrees>-0.1422088779509067535400390625</LongitudeDegrees>
            </Position>
            <AltitudeMeters>1647.199951171875</AltitudeMeters>
            <DistanceMeters>2006.8483851106</DistanceMeters>
          </Trackpoint>
          <Trackpoint>
            <Time>2022-07-09T07:51:30.000Z</Time>
            <Position>
              <LatitudeDegrees>42.8459114022552967071533203125</LatitudeDegrees>
              <LongitudeDegrees>-0.14222036115825176239013671875</LongitudeDegrees>
            </Position>
            <AltitudeMeters>1648</AltitudeMeters>
            <DistanceMeters>2008.7725294249</DistanceMeters>
          </Trackpoint>
          <Trackpoint>
            <Time>2022-07-09T07:51:33.000Z</Time>
            <Position>
              <LatitudeDegrees>42.84588667564094066619873046875</LatitudeDegrees>
              <LongitudeDegrees>-0.1422310061752796173095703125</LongitudeDegrees>
            </Position>
            <AltitudeMeters>1649.4000244140625</AltitudeMeters>
            <DistanceMeters>2011.6579636177</DistanceMeters>
          </Trackpoint>
          <Trackpoint>
            <Time>2022-07-09T07:51:37.000Z</Time>
            <Position>
              <LatitudeDegrees>42.845856584608554840087890625</LatitudeDegrees>
              <LongitudeDegrees>-0.14223980717360973358154296875</LongitudeDegrees>
            </Position>
            <AltitudeMeters>1650.199951171875</AltitudeMeters>
            <DistanceMeters>2015.0842005297</DistanceMeters>
          </Trackpoint>
          <Trackpoint>
            <Time>2022-07-09T07:51:38.000Z</Time>
            <Position>
              <LatitudeDegrees>42.84585130400955677032470703125</LatitudeDegrees>
              <LongitudeDegrees>-0.1422373764216899871826171875</LongitudeDegrees>
            </Position>
            <AltitudeMeters>1650.4000244140625</AltitudeMeters>
            <DistanceMeters>2015.700044025</DistanceMeters>
          </Trackpoint>
          <Trackpoint>
            <Time>2022-07-09T07:51:44.000Z</Time>
            <Position>
              <LatitudeDegrees>42.84582800231873989105224609375</LatitudeDegrees>
              <LongitudeDegrees>-0.14225657097995281219482421875</LongitudeDegrees>
            </Position>
            <AltitudeMeters>1651.5999755859375</AltitudeMeters>
            <DistanceMeters>2018.7289972546</DistanceMeters>
          </Trackpoint>
          <Trackpoint>
            <Time>2022-07-09T07:51:46.000Z</Time>
            <Position>
              <LatitudeDegrees>42.8458161838352680206298828125</LatitudeDegrees>
              <LongitudeDegrees>-0.1422588340938091278076171875</LongitudeDegrees>
            </Position>
            <AltitudeMeters>1651.800048828125</AltitudeMeters>
            <DistanceMeters>2020.0593712557</DistanceMeters>
          </Trackpoint>
          <Trackpoint>
            <Time>2022-07-09T07:51:51.000Z</Time>
            <Position>
              <LatitudeDegrees>42.845767401158809661865234375</LatitudeDegrees>
              <LongitudeDegrees>-0.1422688923776149749755859375</LongitudeDegrees>
            </Position>
            <AltitudeMeters>1652.199951171875</AltitudeMeters>
            <DistanceMeters>2025.5512247974</DistanceMeters>
          </Trackpoint>
          <Trackpoint>
            <Time>2022-07-09T07:51:54.000Z</Time>
            <Position>
              <LatitudeDegrees>42.8457464464008808135986328125</LatitudeDegrees>
              <LongitudeDegrees>-0.142282135784626007080078125</LongitudeDegrees>
            </Position>
            <AltitudeMeters>1652.5999755859375</AltitudeMeters>
            <DistanceMeters>2028.1222199271</DistanceMeters>
          </Trackpoint>
          <Trackpoint>
            <Time>2022-07-09T07:52:01.000Z</Time>
            <Position>
              <LatitudeDegrees>42.8457149304449558258056640625</LatitudeDegrees>
              <LongitudeDegrees>-0.142295546829700469970703125</LongitudeDegrees>
            </Position>
            <AltitudeMeters>1653.4000244140625</AltitudeMeters>
            <DistanceMeters>2031.7976783148</DistanceMeters>
          </Trackpoint>
          <Trackpoint>
            <Time>2022-07-09T07:52:05.000Z</Time>
            <Position>
              <LatitudeDegrees>42.84569154493510723114013671875</LatitudeDegrees>
              <LongitudeDegrees>-0.14231172390282154083251953125</LongitudeDegrees>
            </Position>
            <AltitudeMeters>1653.5999755859375</AltitudeMeters>
            <DistanceMeters>2034.7173344869</DistanceMeters>
          </Trackpoint>
          <Trackpoint>
            <Time>2022-07-09T07:52:06.000Z</Time>
            <Position>
              <LatitudeDegrees>42.84568768925964832305908203125</LatitudeDegrees>
              <LongitudeDegrees>-0.14231272973120212554931640625</LongitudeDegrees>
            </Position>
            <AltitudeMeters>1653.5999755859375</AltitudeMeters>
            <DistanceMeters>2035.1630492856</DistanceMeters>
          </Trackpoint>
          <Trackpoint>
            <Time>2022-07-09T07:52:12.000Z</Time>
            <Position>
              <LatitudeDegrees>42.84566782414913177490234375</LatitudeDegrees>
              <LongitudeDegrees>-0.14230719767510890960693359375</LongitudeDegrees>
            </Position>
            <AltitudeMeters>1653.800048828125</AltitudeMeters>
            <DistanceMeters>2037.4198087133</DistanceMeters>
          </Trackpoint>
          <Trackpoint>
            <Time>2022-07-09T07:52:15.000Z</Time>
            <Position>
              <LatitudeDegrees>42.8456542454659938812255859375</LatitudeDegrees>
              <LongitudeDegrees>-0.1423067785799503326416015625</LongitudeDegrees>
            </Position>
            <AltitudeMeters>1654</AltitudeMeters>
            <DistanceMeters>2038.9313011348</DistanceMeters>
          </Trackpoint>
          <Trackpoint>
            <Time>2022-07-09T07:52:18.000Z</Time>
            <Position>
              <LatitudeDegrees>42.84564795903861522674560546875</LatitudeDegrees>
              <LongitudeDegrees>-0.1423017494380474090576171875</LongitudeDegrees>
            </Position>
            <AltitudeMeters>1654.199951171875</AltitudeMeters>
            <DistanceMeters>2039.7487518409</DistanceMeters>
          </Trackpoint>
          <Trackpoint>
            <Time>2022-07-09T07:52:23.000Z</Time>
            <Position>
              <LatitudeDegrees>42.845618538558483123779296875</LatitudeDegrees>
              <LongitudeDegrees>-0.14232111163437366485595703125</LongitudeDegrees>
            </Position>
            <AltitudeMeters>1654.5999755859375</AltitudeMeters>
            <DistanceMeters>2043.3846880221</DistanceMeters>
          </Trackpoint>
          <Trackpoint>
            <Time>2022-07-09T07:52:24.000Z</Time>
            <Position>
              <LatitudeDegrees>42.845607809722423553466796875</LatitudeDegrees>
              <LongitudeDegrees>-0.14232479967176914215087890625</LongitudeDegrees>
            </Position>
            <AltitudeMeters>1654.800048828125</AltitudeMeters>
            <DistanceMeters>2044.6163750126</DistanceMeters>
          </Trackpoint>
          <Trackpoint>
            <Time>2022-07-09T07:52:30.000Z</Time>
            <Position>
              <LatitudeDegrees>42.8455573506653308868408203125</LatitudeDegrees>
              <LongitudeDegrees>-0.14236235059797763824462890625</LongitudeDegrees>
            </Position>
            <AltitudeMeters>1655.5999755859375</AltitudeMeters>
            <DistanceMeters>2051.0142915891</DistanceMeters>
          </Trackpoint>
          <Trackpoint>
            <Time>2022-07-09T07:52:31.000Z</Time>
            <Position>
              <LatitudeDegrees>42.8455513156950473785400390625</LatitudeDegrees>
              <LongitudeDegrees>-0.14237207360565662384033203125</LongitudeDegrees>
            </Position>
            <AltitudeMeters>1655.800048828125</AltitudeMeters>
            <DistanceMeters>2052.0552570897</DistanceMeters>
          </Trackpoint>
          <Trackpoint>
            <Time>2022-07-09T07:52:37.000Z</Time>
            <Position>
              <LatitudeDegrees>42.84551602788269519805908203125</LatitudeDegrees>
              <LongitudeDegrees>-0.14241389930248260498046875</LongitudeDegrees>
            </Position>
            <AltitudeMeters>1656.800048828125</AltitudeMeters>
            <DistanceMeters>2057.2583493605</DistanceMeters>
          </Trackpoint>
          <Trackpoint>
            <Time>2022-07-09T07:52:39.000Z</Time>
            <Position>
              <LatitudeDegrees>42.8455000184476375579833984375</LatitudeDegrees>
              <LongitudeDegrees>-0.14241850934922695159912109375</LongitudeDegrees>
            </Position>
            <AltitudeMeters>1656.800048828125</AltitudeMeters>
            <DistanceMeters>2059.07879932</DistanceMeters>
          </Trackpoint>
          <Trackpoint>
            <Time>2022-07-09T07:52:40.000Z</Time>
            <Position>
              <LatitudeDegrees>42.84549222327768802642822265625</LatitudeDegrees>
              <LongitudeDegrees>-0.14241884462535381317138671875</LongitudeDegrees>
            </Position>
            <AltitudeMeters>1656.800048828125</AltitudeMeters>
            <DistanceMeters>2059.9497335433</DistanceMeters>
          </Trackpoint>
          <Trackpoint>
            <Time>2022-07-09T07:52:46.000Z</Time>
            <Position>
              <LatitudeDegrees>42.8454547561705112457275390625</LatitudeDegrees>
              <LongitudeDegrees>-0.14241792261600494384765625</LongitudeDegrees>
            </Position>
            <AltitudeMeters>1657.4000244140625</AltitudeMeters>
            <DistanceMeters>2064.1211790131</DistanceMeters>
          </Trackpoint>
          <Trackpoint>
            <Time>2022-07-09T07:52:48.000Z</Time>
            <Position>
              <LatitudeDegrees>42.8454420156776905059814453125</LatitudeDegrees>
              <LongitudeDegrees>-0.1424207724630832672119140625</LongitudeDegrees>
            </Position>
            <AltitudeMeters>1657.800048828125</AltitudeMeters>
            <DistanceMeters>2065.5560509339</DistanceMeters>
          </Trackpoint>
          <Trackpoint>
            <Time>2022-07-09T07:52:53.000Z</Time>
            <Position>
              <LatitudeDegrees>42.8453803248703479766845703125</LatitudeDegrees>
              <LongitudeDegrees>-0.14240778051316738128662109375</LongitudeDegrees>
            </Position>
            <AltitudeMeters>1658.800048828125</AltitudeMeters>
            <DistanceMeters>2072.5047068288</DistanceMeters>
          </Trackpoint>
          <Trackpoint>
            <Time>2022-07-09T07:52:54.000Z</Time>
            <Position>
              <LatitudeDegrees>42.8453685902059078216552734375</LatitudeDegrees>
              <LongitudeDegrees>-0.142404176294803619384765625</LongitudeDegrees>
            </Position>
            <AltitudeMeters>1659</AltitudeMeters>
            <DistanceMeters>2073.8485875113</DistanceMeters>
          </Trackpoint>
          <Trackpoint>
            <Time>2022-07-09T07:53:00.000Z</Time>
            <Position>
              <LatitudeDegrees>42.84531435929238796234130859375</LatitudeDegrees>
              <LongitudeDegrees>-0.14239956624805927276611328125</LongitudeDegrees>
            </Position>
            <AltitudeMeters>1659</AltitudeMeters>
            <DistanceMeters>2079.897543599</DistanceMeters>
          </Trackpoint>
          <Trackpoint>
            <Time>2022-07-09T07:53:01.000Z</Time>
            <Position>
              <LatitudeDegrees>42.84530706703662872314453125</LatitudeDegrees>
              <LongitudeDegrees>-0.142398811876773834228515625</LongitudeDegrees>
            </Position>
            <AltitudeMeters>1659.4000244140625</AltitudeMeters>
            <DistanceMeters>2080.7149943051</DistanceMeters>
          </Trackpoint>
          <Trackpoint>
            <Time>2022-07-09T07:53:02.000Z</Time>
            <Position>
              <LatitudeDegrees>42.845300696790218353271484375</LatitudeDegrees>
              <LongitudeDegrees>-0.14239839278161525726318359375</LongitudeDegrees>
            </Position>
            <AltitudeMeters>1659.5999755859375</AltitudeMeters>
            <DistanceMeters>2081.4261091206</DistanceMeters>
          </Trackpoint>
          <Trackpoint>
            <Time>2022-07-09T07:53:07.000Z</Time>
            <Position>
              <LatitudeDegrees>42.84527027048170566558837890625</LatitudeDegrees>
              <LongitudeDegrees>-0.14241012744605541229248046875</LongitudeDegrees>
            </Position>
            <AltitudeMeters>1660</AltitudeMeters>
            <DistanceMeters>2084.9459478784</DistanceMeters>
          </Trackpoint>
          <Trackpoint>
            <Time>2022-07-09T07:53:09.000Z</Time>
            <Position>
              <LatitudeDegrees>42.84525518305599689483642578125</LatitudeDegrees>
              <LongitudeDegrees>-0.14241951517760753631591796875</LongitudeDegrees>
            </Position>
            <AltitudeMeters>1660.199951171875</AltitudeMeters>
            <DistanceMeters>2086.7934783642</DistanceMeters>
          </Trackpoint>
          <Trackpoint>
            <Time>2022-07-09T07:53:11.000Z</Time>
            <Position>
              <LatitudeDegrees>42.84524244256317615509033203125</LatitudeDegrees>
              <LongitudeDegrees>-0.14242018572986125946044921875</LongitudeDegrees>
            </Position>
            <AltitudeMeters>1660.4000244140625</AltitudeMeters>
            <DistanceMeters>2088.2157079953</DistanceMeters>
          </Trackpoint>
          <Trackpoint>
            <Time>2022-07-09T07:53:13.000Z</Time>
            <Position>
              <LatitudeDegrees>42.84522433765232563018798828125</LatitudeDegrees>
              <LongitudeDegrees>-0.1424231193959712982177734375</LongitudeDegrees>
            </Position>
            <AltitudeMeters>1661.199951171875</AltitudeMeters>
            <DistanceMeters>2090.244923326</DistanceMeters>
          </Trackpoint>
          <Trackpoint>
            <Time>2022-07-09T07:53:17.000Z</Time>
            <Position>
              <LatitudeDegrees>42.84519600681960582733154296875</LatitudeDegrees>
              <LongitudeDegrees>-0.1424185931682586669921875</LongitudeDegrees>
            </Position>
            <AltitudeMeters>1662.199951171875</AltitudeMeters>
            <DistanceMeters>2093.4194414487</DistanceMeters>
          </Trackpoint>
          <Trackpoint>
            <Time>2022-07-09T07:53:21.000Z</Time>
            <Position>
              <LatitudeDegrees>42.84516851417720317840576171875</LatitudeDegrees>
              <LongitudeDegrees>-0.14243829064071178436279296875</LongitudeDegrees>
            </Position>
            <AltitudeMeters>1662.4000244140625</AltitudeMeters>
            <DistanceMeters>2096.8771605252</DistanceMeters>
          </Trackpoint>
          <Trackpoint>
            <Time>2022-07-09T07:53:26.000Z</Time>
            <Position>
              <LatitudeDegrees>42.8451513312757015228271484375</LatitudeDegrees>
              <LongitudeDegrees>-0.14245153404772281646728515625</LongitudeDegrees>
            </Position>
            <AltitudeMeters>1663</AltitudeMeters>
            <DistanceMeters>2099.0771880191</DistanceMeters>
          </Trackpoint>
          <Trackpoint>
            <Time>2022-07-09T07:53:28.000Z</Time>
            <Position>
              <LatitudeDegrees>42.8451454639434814453125</LatitudeDegrees>
              <LongitudeDegrees>-0.1424561440944671630859375</LongitudeDegrees>
            </Position>
            <AltitudeMeters>1663.199951171875</AltitudeMeters>
            <DistanceMeters>2099.8314391815</DistanceMeters>
          </Trackpoint>
          <Trackpoint>
            <Time>2022-07-09T07:53:30.000Z</Time>
            <Position>
              <LatitudeDegrees>42.84513548947870731353759765625</LatitudeDegrees>
              <LongitudeDegrees>-0.14246762730181217193603515625</LongitudeDegrees>
            </Position>
            <AltitudeMeters>1663.4000244140625</AltitudeMeters>
            <DistanceMeters>2101.2850683941</DistanceMeters>
          </Trackpoint>
          <Trackpoint>
            <Time>2022-07-09T07:53:33.000Z</Time>
            <Position>
              <LatitudeDegrees>42.845114283263683319091796875</LatitudeDegrees>
              <LongitudeDegrees>-0.14247156679630279541015625</LongitudeDegrees>
            </Position>
            <AltitudeMeters>1663.800048828125</AltitudeMeters>
            <DistanceMeters>2103.6664310307</DistanceMeters>
          </Trackpoint>
          <Trackpoint>
            <Time>2022-07-09T07:53:35.000Z</Time>
            <Position>
              <LatitudeDegrees>42.8450931608676910400390625</LatitudeDegrees>
              <LongitudeDegrees>-0.142480619251728057861328125</LongitudeDegrees>
            </Position>
            <AltitudeMeters>1664.4000244140625</AltitudeMeters>
            <DistanceMeters>2106.1279714618</DistanceMeters>
          </Trackpoint>
          <Trackpoint>
            <Time>2022-07-09T07:53:41.000Z</Time>
            <Position>
              <LatitudeDegrees>42.84504798240959644317626953125</LatitudeDegrees>
              <LongitudeDegrees>-0.1424831338226795196533203125</LongitudeDegrees>
            </Position>
            <AltitudeMeters>1664.800048828125</AltitudeMeters>
            <DistanceMeters>2111.1599029348</DistanceMeters>
          </Trackpoint>
          <Trackpoint>
            <Time>2022-07-09T07:53:42.000Z</Time>
            <Position>
              <LatitudeDegrees>42.84504161216318607330322265625</LatitudeDegrees>
              <LongitudeDegrees>-0.14248573221266269683837890625</LongitudeDegrees>
            </Position>
            <AltitudeMeters>1664.800048828125</AltitudeMeters>
            <DistanceMeters>2111.8959766992</DistanceMeters>
          </Trackpoint>
          <Trackpoint>
            <Time>2022-07-09T07:53:47.000Z</Time>
            <Position>
              <LatitudeDegrees>42.8450034745037555694580078125</LatitudeDegrees>
              <LongitudeDegrees>-0.14249302446842193603515625</LongitudeDegrees>
            </Position>
            <AltitudeMeters>1665.4000244140625</AltitudeMeters>
            <DistanceMeters>2116.1816709821</DistanceMeters>
          </Trackpoint>
          <Trackpoint>
            <Time>2022-07-09T07:53:50.000Z</Time>
            <Position>
              <LatitudeDegrees>42.84497673623263835906982421875</LatitudeDegrees>
              <LongitudeDegrees>-0.14249964617192745208740234375</LongitudeDegrees>
            </Position>
            <AltitudeMeters>1665.5999755859375</AltitudeMeters>
            <DistanceMeters>2119.2046558252</DistanceMeters>
          </Trackpoint>
          <Trackpoint>
            <Time>2022-07-09T07:53:56.000Z</Time>
            <Position>
              <LatitudeDegrees>42.8449387662112712860107421875</LatitudeDegrees>
              <LongitudeDegrees>-0.14250584878027439117431640625</LongitudeDegrees>
            </Position>
            <AltitudeMeters>1666</AltitudeMeters>
            <DistanceMeters>2123.4607494974</DistanceMeters>
          </Trackpoint>
          <Trackpoint>
            <Time>2022-07-09T07:53:58.000Z</Time>
            <Position>
              <LatitudeDegrees>42.844925858080387115478515625</LatitudeDegrees>
              <LongitudeDegrees>-0.1424990594387054443359375</LongitudeDegrees>
            </Position>
            <AltitudeMeters>1666.4000244140625</AltitudeMeters>
            <DistanceMeters>2124.9988912426</DistanceMeters>
          </Trackpoint>
          <Trackpoint>
            <Time>2022-07-09T07:53:59.000Z</Time>
            <Position>
              <LatitudeDegrees>42.844915129244327545166015625</LatitudeDegrees>
              <LongitudeDegrees>-0.1424965448677539825439453125</LongitudeDegrees>
            </Position>
            <AltitudeMeters>1667</AltitudeMeters>
            <DistanceMeters>2126.2121111156</DistanceMeters>
          </Trackpoint>
          <Trackpoint>
            <Time>2022-07-09T07:54:05.000Z</Time>
            <Position>
              <LatitudeDegrees>42.8448834456503391265869140625</LatitudeDegrees>
              <LongitudeDegrees>-0.14251490123569965362548828125</LongitudeDegrees>
            </Position>
            <AltitudeMeters>1667.800048828125</AltitudeMeters>
            <DistanceMeters>2130.0439389168</DistanceMeters>
          </Trackpoint>
          <Trackpoint>
            <Time>2022-07-09T07:54:06.000Z</Time>
            <Position>
              <LatitudeDegrees>42.8448770754039287567138671875</LatitudeDegrees>
              <LongitudeDegrees>-0.14251573942601680755615234375</LongitudeDegrees>
            </Position>
            <AltitudeMeters>1668</AltitudeMeters>
            <DistanceMeters>2130.7613748772</DistanceMeters>
          </Trackpoint>
          <Trackpoint>
            <Time>2022-07-09T07:54:12.000Z</Time>
            <Position>
              <LatitudeDegrees>42.8448142111301422119140625</LatitudeDegrees>
              <LongitudeDegrees>-0.1425019092857837677001953125</LongitudeDegrees>
            </Position>
            <AltitudeMeters>1668.5999755859375</AltitudeMeters>
            <DistanceMeters>2137.8483548533</DistanceMeters>
          </Trackpoint>
          <Trackpoint>
            <Time>2022-07-09T07:54:14.000Z</Time>
            <Position>
              <LatitudeDegrees>42.84478579647839069366455078125</LatitudeDegrees>
              <LongitudeDegrees>-0.1424901746213436126708984375</LongitudeDegrees>
            </Position>
            <AltitudeMeters>1668.800048828125</AltitudeMeters>
            <DistanceMeters>2141.153864269</DistanceMeters>
          </Trackpoint>
          <Trackpoint>
            <Time>2022-07-09T07:54:19.000Z</Time>
            <Position>
              <LatitudeDegrees>42.844726033508777618408203125</LatitudeDegrees>
              <LongitudeDegrees>-0.142490006983280181884765625</LongitudeDegrees>
            </Position>
            <AltitudeMeters>1669.4000244140625</AltitudeMeters>
            <DistanceMeters>2147.8057342749</DistanceMeters>
          </Trackpoint>
          <Trackpoint>
            <Time>2022-07-09T07:54:22.000Z</Time>
            <Position>
              <LatitudeDegrees>42.8447037376463413238525390625</LatitudeDegrees>
              <LongitudeDegrees>-0.14249444939196109771728515625</LongitudeDegrees>
            </Position>
            <AltitudeMeters>1669.800048828125</AltitudeMeters>
            <DistanceMeters>2150.3127111804</DistanceMeters>
          </Trackpoint>
          <Trackpoint>
            <Time>2022-07-09T07:54:24.000Z</Time>
            <Position>
              <LatitudeDegrees>42.844686806201934814453125</LatitudeDegrees>
              <LongitudeDegrees>-0.142490677535533905029296875</LongitudeDegrees>
            </Position>
            <AltitudeMeters>1670</AltitudeMeters>
            <DistanceMeters>2152.2227245006</DistanceMeters>
          </Trackpoint>
          <Trackpoint>
            <Time>2022-07-09T07:54:26.000Z</Time>
            <Position>
              <LatitudeDegrees>42.84467867575585842132568359375</LatitudeDegrees>
              <LongitudeDegrees>-0.14249461703002452850341796875</LongitudeDegrees>
            </Position>
            <AltitudeMeters>1670.5999755859375</AltitudeMeters>
            <DistanceMeters>2153.1824472717</DistanceMeters>
          </Trackpoint>
          <Trackpoint>
            <Time>2022-07-09T07:54:30.000Z</Time>
            <Position>
              <LatitudeDegrees>42.84466308541595935821533203125</LatitudeDegrees>
              <LongitudeDegrees>-0.142528228461742401123046875</LongitudeDegrees>
            </Position>
            <AltitudeMeters>1671.5999755859375</AltitudeMeters>
            <DistanceMeters>2156.4272999854</DistanceMeters>
          </Trackpoint>
          <Trackpoint>
            <Time>2022-07-09T07:54:31.000Z</Time>
            <Position>
              <LatitudeDegrees>42.8446591459214687347412109375</LatitudeDegrees>
              <LongitudeDegrees>-0.1425339281558990478515625</LongitudeDegrees>
            </Position>
            <AltitudeMeters>1671.800048828125</AltitudeMeters>
            <DistanceMeters>2157.0718025195</DistanceMeters>
          </Trackpoint>
          <Trackpoint>
            <Time>2022-07-09T07:54:37.000Z</Time>
            <Position>
              <LatitudeDegrees>42.84463961608707904815673828125</LatitudeDegrees>
              <LongitudeDegrees>-0.14257290400564670562744140625</LongitudeDegrees>
            </Position>
            <AltitudeMeters>1672</AltitudeMeters>
            <DistanceMeters>2160.9236093159</DistanceMeters>
          </Trackpoint>
          <Trackpoint>
            <Time>2022-07-09T07:54:38.000Z</Time>
            <Position>
              <LatitudeDegrees>42.8446363471448421478271484375</LatitudeDegrees>
              <LongitudeDegrees>-0.14257307164371013641357421875</LongitudeDegrees>
            </Position>
            <AltitudeMeters>1672.199951171875</AltitudeMeters>
            <DistanceMeters>2161.2791667237</DistanceMeters>
          </Trackpoint>
          <Trackpoint>
            <Time>2022-07-09T07:54:39.000Z</Time>
            <Position>
              <LatitudeDegrees>42.84463156946003437042236328125</LatitudeDegrees>
              <LongitudeDegrees>-0.14257055707275867462158203125</LongitudeDegrees>
            </Position>
            <AltitudeMeters>1672.199951171875</AltitudeMeters>
            <DistanceMeters>2161.8493270099</DistanceMeters>
          </Trackpoint>
          <Trackpoint>
            <Time>2022-07-09T07:54:44.000Z</Time>
            <Position>
              <LatitudeDegrees>42.84458647482097148895263671875</LatitudeDegrees>
              <LongitudeDegrees>-0.14253987930715084075927734375</LongitudeDegrees>
            </Position>
            <AltitudeMeters>1672.4000244140625</AltitudeMeters>
            <DistanceMeters>2167.4575135488</DistanceMeters>
          </Trackpoint>
          <Trackpoint>
            <Time>2022-07-09T07:54:47.000Z</Time>
            <Position>
              <LatitudeDegrees>42.84456082619726657867431640625</LatitudeDegrees>
              <LongitudeDegrees>-0.142547674477100372314453125</LongitudeDegrees>
            </Position>
            <AltitudeMeters>1672.5999755859375</AltitudeMeters>
            <DistanceMeters>2170.3833488942</DistanceMeters>
          </Trackpoint>
          <Trackpoint>
            <Time>2022-07-09T07:54:49.000Z</Time>
            <Position>
              <LatitudeDegrees>42.84454372711479663848876953125</LatitudeDegrees>
              <LongitudeDegrees>-0.142550356686115264892578125</LongitudeDegrees>
            </Position>
            <AltitudeMeters>1672.800048828125</AltitudeMeters>
            <DistanceMeters>2172.2980841334</DistanceMeters>
          </Trackpoint>
          <Trackpoint>
            <Time>2022-07-09T07:54:54.000Z</Time>
            <Position>
              <LatitudeDegrees>42.844510115683078765869140625</LatitudeDegrees>
              <LongitudeDegrees>-0.1425475068390369415283203125</LongitudeDegrees>
            </Position>
            <AltitudeMeters>1673.199951171875</AltitudeMeters>
            <DistanceMeters>2176.0465236683</DistanceMeters>
          </Trackpoint>
          <Trackpoint>
            <Time>2022-07-09T07:54:59.000Z</Time>
            <Position>
              <LatitudeDegrees>42.8444754146039485931396484375</LatitudeDegrees>
              <LongitudeDegrees>-0.1425666175782680511474609375</LongitudeDegrees>
            </Position>
            <AltitudeMeters>1673.5999755859375</AltitudeMeters>
            <DistanceMeters>2180.2125537841</DistanceMeters>
          </Trackpoint>
          <Trackpoint>
            <Time>2022-07-09T07:55:00.000Z</Time>
            <Position>
              <LatitudeDegrees>42.844471223652362823486328125</LatitudeDegrees>
              <LongitudeDegrees>-0.1425686292350292205810546875</LongitudeDegrees>
            </Position>
            <AltitudeMeters>1674</AltitudeMeters>
            <DistanceMeters>2180.7063270762</DistanceMeters>
          </Trackpoint>
          <Trackpoint>
            <Time>2022-07-09T07:55:02.000Z</Time>
            <Position>
              <LatitudeDegrees>42.84445890225470066070556640625</LatitudeDegrees>
              <LongitudeDegrees>-0.1425706408917903900146484375</LongitudeDegrees>
            </Position>
            <AltitudeMeters>1674.4000244140625</AltitudeMeters>
            <DistanceMeters>2182.0899369222</DistanceMeters>
          </Trackpoint>
          <Trackpoint>
            <Time>2022-07-09T07:55:03.000Z</Time>
            <Position>
              <LatitudeDegrees>42.8444539569318294525146484375</LatitudeDegrees>
              <LongitudeDegrees>-0.14257407747209072113037109375</LongitudeDegrees>
            </Position>
            <AltitudeMeters>1674.5999755859375</AltitudeMeters>
            <DistanceMeters>2182.7057804175</DistanceMeters>
          </Trackpoint>
          <Trackpoint>
            <Time>2022-07-09T07:55:05.000Z</Time>
            <Position>
              <LatitudeDegrees>42.8444442339241504669189453125</LatitudeDegrees>
              <LongitudeDegrees>-0.1425817050039768218994140625</LongitudeDegrees>
            </Position>
            <AltitudeMeters>1675.199951171875</AltitudeMeters>
            <DistanceMeters>2183.9556617018</DistanceMeters>
          </Trackpoint>
          <Trackpoint>
            <Time>2022-07-09T07:55:10.000Z</Time>
            <Position>
              <LatitudeDegrees>42.84442235715687274932861328125</LatitudeDegrees>
              <LongitudeDegrees>-0.1426226086914539337158203125</LongitudeDegrees>
            </Position>
            <AltitudeMeters>1676.199951171875</AltitudeMeters>
            <DistanceMeters>2188.087958225</DistanceMeters>
          </Trackpoint>
          <Trackpoint>
            <Time>2022-07-09T07:55:11.000Z</Time>
            <Position>
              <LatitudeDegrees>42.8444184176623821258544921875</LatitudeDegrees>
              <LongitudeDegrees>-0.1426323316991329193115234375</LongitudeDegrees>
            </Position>
            <AltitudeMeters>1676.199951171875</AltitudeMeters>
            <DistanceMeters>2188.9894607929</DistanceMeters>
          </Trackpoint>
          <Trackpoint>
            <Time>2022-07-09T07:55:17.000Z</Time>
            <Position>
              <LatitudeDegrees>42.84437977708876132965087890625</LatitudeDegrees>
              <LongitudeDegrees>-0.142651610076427459716796875</LongitudeDegrees>
            </Position>
            <AltitudeMeters>1676.5999755859375</AltitudeMeters>
            <DistanceMeters>2193.568525927</DistanceMeters>
          </Trackpoint>
          <Trackpoint>
            <Time>2022-07-09T07:55:19.000Z</Time>
            <Position>
              <LatitudeDegrees>42.84436368383467197418212890625</LatitudeDegrees>
              <LongitudeDegrees>-0.1426531188189983367919921875</LongitudeDegrees>
            </Position>
            <AltitudeMeters>1676.800048828125</AltitudeMeters>
            <DistanceMeters>2195.3665157398</DistanceMeters>
          </Trackpoint>
          <Trackpoint>
            <Time>2022-07-09T07:55:22.000Z</Time>
            <Position>
              <LatitudeDegrees>42.84433518536388874053955078125</LatitudeDegrees>
              <LongitudeDegrees>-0.142659656703472137451171875</LongitudeDegrees>
            </Position>
            <AltitudeMeters>1677.199951171875</AltitudeMeters>
            <DistanceMeters>2198.5834191585</DistanceMeters>
          </Trackpoint>
          <Trackpoint>
            <Time>2022-07-09T07:55:28.000Z</Time>
            <Position>
              <LatitudeDegrees>42.8442906774580478668212890625</LatitudeDegrees>
              <LongitudeDegrees>-0.1426819525659084320068359375</LongitudeDegrees>
            </Position>
            <AltitudeMeters>1677.5999755859375</AltitudeMeters>
            <DistanceMeters>2203.861466698</DistanceMeters>
          </Trackpoint>
          <Trackpoint>
            <Time>2022-07-09T07:55:30.000Z</Time>
            <Position>
              <LatitudeDegrees>42.84428187645971775054931640625</LatitudeDegrees>
              <LongitudeDegrees>-0.1426997222006320953369140625</LongitudeDegrees>
            </Position>
            <AltitudeMeters>1677.5999755859375</AltitudeMeters>
            <DistanceMeters>2205.6110940625</DistanceMeters>
          </Trackpoint>
          <Trackpoint>
            <Time>2022-07-09T07:55:36.000Z</Time>
            <Position>
              <LatitudeDegrees>42.84424315206706523895263671875</LatitudeDegrees>
              <LongitudeDegrees>-0.14271388761699199676513671875</LongitudeDegrees>
            </Position>
            <AltitudeMeters>1678.199951171875</AltitudeMeters>
            <DistanceMeters>2210.0722921619</DistanceMeters>
          </Trackpoint>
          <Trackpoint>
            <Time>2022-07-09T07:55:38.000Z</Time>
            <Position>
              <LatitudeDegrees>42.8442313335835933685302734375</LatitudeDegrees>
              <LongitudeDegrees>-0.14272159896790981292724609375</LongitudeDegrees>
            </Position>
            <AltitudeMeters>1678.4000244140625</AltitudeMeters>
            <DistanceMeters>2211.5290241085</DistanceMeters>
          </Trackpoint>
          <Trackpoint>
            <Time>2022-07-09T07:55:40.000Z</Time>
            <Position>
              <LatitudeDegrees>42.84422286786139011383056640625</LatitudeDegrees>
              <LongitudeDegrees>-0.14272361062467098236083984375</LongitudeDegrees>
            </Position>
            <AltitudeMeters>1678.4000244140625</AltitudeMeters>
            <DistanceMeters>2212.4887468796</DistanceMeters>
          </Trackpoint>
          <Trackpoint>
            <Time>2022-07-09T07:55:46.000Z</Time>
            <Position>
              <LatitudeDegrees>42.844178862869739532470703125</LatitudeDegrees>
              <LongitudeDegrees>-0.142715983092784881591796875</LongitudeDegrees>
            </Position>
            <AltitudeMeters>1679.4000244140625</AltitudeMeters>
            <DistanceMeters>2217.4264798006</DistanceMeters>
          </Trackpoint>
          <Trackpoint>
            <Time>2022-07-09T07:55:50.000Z</Time>
            <Position>
              <LatitudeDegrees>42.84413452260196208953857421875</LatitudeDegrees>
              <LongitudeDegrees>-0.14272109605371952056884765625</LongitudeDegrees>
            </Position>
            <AltitudeMeters>1679.800048828125</AltitudeMeters>
            <DistanceMeters>2222.3806444905</DistanceMeters>
          </Trackpoint>
          <Trackpoint>
            <Time>2022-07-09T07:55:52.000Z</Time>
            <Position>
              <LatitudeDegrees>42.8441168367862701416015625</LatitudeDegrees>
              <LongitudeDegrees>-0.142717659473419189453125</LongitudeDegrees>
            </Position>
            <AltitudeMeters>1680</AltitudeMeters>
            <DistanceMeters>2224.3694062868</DistanceMeters>
          </Trackpoint>
          <Trackpoint>
            <Time>2022-07-09T07:55:55.000Z</Time>
            <Position>
              <LatitudeDegrees>42.84408808685839176177978515625</LatitudeDegrees>
              <LongitudeDegrees>-0.14271371997892856597900390625</LongitudeDegrees>
            </Position>
            <AltitudeMeters>1680.4000244140625</AltitudeMeters>
            <DistanceMeters>2227.5849058635</DistanceMeters>
          </Trackpoint>
          <Trackpoint>
            <Time>2022-07-09T07:55:56.000Z</Time>
            <Position>
              <LatitudeDegrees>42.84407995641231536865234375</LatitudeDegrees>
              <LongitudeDegrees>-0.142711959779262542724609375</LongitudeDegrees>
            </Position>
            <AltitudeMeters>1680.5999755859375</AltitudeMeters>
            <DistanceMeters>2228.5013103099</DistanceMeters>
          </Trackpoint>
          <Trackpoint>
            <Time>2022-07-09T07:55:59.000Z</Time>
            <Position>
              <LatitudeDegrees>42.844056822359561920166015625</LatitudeDegrees>
              <LongitudeDegrees>-0.1427111215889453887939453125</LongitudeDegrees>
            </Position>
            <AltitudeMeters>1681</AltitudeMeters>
            <DistanceMeters>2231.0775684853</DistanceMeters>
          </Trackpoint>
          <Trackpoint>
            <Time>2022-07-09T07:56:01.000Z</Time>
            <Position>
              <LatitudeDegrees>42.84403746016323566436767578125</LatitudeDegrees>
              <LongitudeDegrees>-0.1427121274173259735107421875</LongitudeDegrees>
            </Position>
            <AltitudeMeters>1681.4000244140625</AltitudeMeters>
            <DistanceMeters>2233.2361604905</DistanceMeters>
          </Trackpoint>
          <Trackpoint>
            <Time>2022-07-09T07:56:03.000Z</Time>
            <Position>
              <LatitudeDegrees>42.84402086399495601654052734375</LatitudeDegrees>
              <LongitudeDegrees>-0.14271422289311885833740234375</LongitudeDegrees>
            </Position>
            <AltitudeMeters>1681.5999755859375</AltitudeMeters>
            <DistanceMeters>2235.0934405452</DistanceMeters>
          </Trackpoint>
          <Trackpoint>
            <Time>2022-07-09T07:56:06.000Z</Time>
            <Position>
              <LatitudeDegrees>42.84400091506540775299072265625</LatitudeDegrees>
              <LongitudeDegrees>-0.1427278853952884674072265625</LongitudeDegrees>
            </Position>
            <AltitudeMeters>1682.199951171875</AltitudeMeters>
            <DistanceMeters>2237.5805276696</DistanceMeters>
          </Trackpoint>
          <Trackpoint>
            <Time>2022-07-09T07:56:07.000Z</Time>
            <Position>
              <LatitudeDegrees>42.84399278461933135986328125</LatitudeDegrees>
              <LongitudeDegrees>-0.14273065142333507537841796875</LongitudeDegrees>
            </Position>
            <AltitudeMeters>1682.5999755859375</AltitudeMeters>
            <DistanceMeters>2238.5115955181</DistanceMeters>
          </Trackpoint>
          <Trackpoint>
            <Time>2022-07-09T07:56:13.000Z</Time>
            <Position>
              <LatitudeDegrees>42.8439359553158283233642578125</LatitudeDegrees>
              <LongitudeDegrees>-0.1427305676043033599853515625</LongitudeDegrees>
            </Position>
            <AltitudeMeters>1683.199951171875</AltitudeMeters>
            <DistanceMeters>2244.8356929692</DistanceMeters>
          </Trackpoint>
          <Trackpoint>
            <Time>2022-07-09T07:56:14.000Z</Time>
            <Position>
              <LatitudeDegrees>42.84392614848911762237548828125</LatitudeDegrees>
              <LongitudeDegrees>-0.1427329145371913909912109375</LongitudeDegrees>
            </Position>
            <AltitudeMeters>1683.4000244140625</AltitudeMeters>
            <DistanceMeters>2245.9398036158</DistanceMeters>
          </Trackpoint>
          <Trackpoint>
            <Time>2022-07-09T07:56:15.000Z</Time>
            <Position>
              <LatitudeDegrees>42.84391759894788265228271484375</LatitudeDegrees>
              <LongitudeDegrees>-0.14273534528911113739013671875</LongitudeDegrees>
            </Position>
            <AltitudeMeters>1683.5999755859375</AltitudeMeters>
            <DistanceMeters>2246.9042194357</DistanceMeters>
          </Trackpoint>
          <Trackpoint>
            <Time>2022-07-09T07:56:21.000Z</Time>
            <Position>
              <LatitudeDegrees>42.84386378712952136993408203125</LatitudeDegrees>
              <LongitudeDegrees>-0.142755545675754547119140625</LongitudeDegrees>
            </Position>
            <AltitudeMeters>1684.4000244140625</AltitudeMeters>
            <DistanceMeters>2253.1166703789</DistanceMeters>
          </Trackpoint>
          <Trackpoint>
            <Time>2022-07-09T07:56:23.000Z</Time>
            <Position>
              <LatitudeDegrees>42.84384937025606632232666015625</LatitudeDegrees>
              <LongitudeDegrees>-0.1427563838660717010498046875</LongitudeDegrees>
            </Position>
            <AltitudeMeters>1684.5999755859375</AltitudeMeters>
            <DistanceMeters>2254.7237179398</DistanceMeters>
          </Trackpoint>
          <Trackpoint>
            <Time>2022-07-09T07:56:25.000Z</Time>
            <Position>
              <LatitudeDegrees>42.843838892877101898193359375</LatitudeDegrees>
              <LongitudeDegrees>-0.14275948517024517059326171875</LongitudeDegrees>
            </Position>
            <AltitudeMeters>1685</AltitudeMeters>
            <DistanceMeters>2255.9181852178</DistanceMeters>
          </Trackpoint>
          <Trackpoint>
            <Time>2022-07-09T07:56:27.000Z</Time>
            <Position>
              <LatitudeDegrees>42.84382992424070835113525390625</LatitudeDegrees>
              <LongitudeDegrees>-0.14276619069278240203857421875</LongitudeDegrees>
            </Position>
            <AltitudeMeters>1685.199951171875</AltitudeMeters>
            <DistanceMeters>2257.0585057902</DistanceMeters>
          </Trackpoint>
          <Trackpoint>
            <Time>2022-07-09T07:56:29.000Z</Time>
            <Position>
              <LatitudeDegrees>42.8438176028430461883544921875</LatitudeDegrees>
              <LongitudeDegrees>-0.14277155511081218719482421875</LongitudeDegrees>
            </Position>
            <AltitudeMeters>1685.5999755859375</AltitudeMeters>
            <DistanceMeters>2258.4996572681</DistanceMeters>
          </Trackpoint>
          <Trackpoint>
            <Time>2022-07-09T07:56:33.000Z</Time>
            <Position>
              <LatitudeDegrees>42.8437847457826137542724609375</LatitudeDegrees>
              <LongitudeDegrees>-0.14276736415922641754150390625</LongitudeDegrees>
            </Position>
            <AltitudeMeters>1686.5999755859375</AltitudeMeters>
            <DistanceMeters>2262.1726579769</DistanceMeters>
          </Trackpoint>
          <Trackpoint>
            <Time>2022-07-09T07:56:34.000Z</Time>
            <Position>
              <LatitudeDegrees>42.8437756933271884918212890625</LatitudeDegrees>
              <LongitudeDegrees>-0.1427640952169895172119140625</LongitudeDegrees>
            </Position>
            <AltitudeMeters>1686.800048828125</AltitudeMeters>
            <DistanceMeters>2263.2136234774</DistanceMeters>
          </Trackpoint>
          <Trackpoint>
            <Time>2022-07-09T07:56:40.000Z</Time>
            <Position>
              <LatitudeDegrees>42.843706794083118438720703125</LatitudeDegrees>
              <LongitudeDegrees>-0.14272947795689105987548828125</LongitudeDegrees>
            </Position>
            <AltitudeMeters>1687</AltitudeMeters>
            <DistanceMeters>2271.3859209132</DistanceMeters>
          </Trackpoint>
          <Trackpoint>
            <Time>2022-07-09T07:56:42.000Z</Time>
            <Position>
              <LatitudeDegrees>42.84368843771517276763916015625</LatitudeDegrees>
              <LongitudeDegrees>-0.1427285559475421905517578125</LongitudeDegrees>
            </Position>
            <AltitudeMeters>1687</AltitudeMeters>
            <DistanceMeters>2273.4306520431</DistanceMeters>
          </Trackpoint>
          <Trackpoint>
            <Time>2022-07-09T07:56:48.000Z</Time>
            <Position>
              <LatitudeDegrees>42.84363009966909885406494140625</LatitudeDegrees>
              <LongitudeDegrees>-0.14272646047174930572509765625</LongitudeDegrees>
            </Position>
            <AltitudeMeters>1687.800048828125</AltitudeMeters>
            <DistanceMeters>2279.925920871</DistanceMeters>
          </Trackpoint>
          <Trackpoint>
            <Time>2022-07-09T07:56:49.000Z</Time>
            <Position>
              <LatitudeDegrees>42.8436234779655933380126953125</LatitudeDegrees>
              <LongitudeDegrees>-0.142723023891448974609375</LongitudeDegrees>
            </Position>
            <AltitudeMeters>1688</AltitudeMeters>
            <DistanceMeters>2280.7152720442</DistanceMeters>
          </Trackpoint>
          <Trackpoint>
            <Time>2022-07-09T07:56:51.000Z</Time>
            <Position>
              <LatitudeDegrees>42.84361065365374088287353515625</LatitudeDegrees>
              <LongitudeDegrees>-0.1427161507308483123779296875</LongitudeDegrees>
            </Position>
            <AltitudeMeters>1688.199951171875</AltitudeMeters>
            <DistanceMeters>2282.2475317727</DistanceMeters>
          </Trackpoint>
          <Trackpoint>
            <Time>2022-07-09T07:56:55.000Z</Time>
            <Position>
              <LatitudeDegrees>42.843602858483791351318359375</LatitudeDegrees>
              <LongitudeDegrees>-0.14270349405705928802490234375</LongitudeDegrees>
            </Position>
            <AltitudeMeters>1688.4000244140625</AltitudeMeters>
            <DistanceMeters>2283.5981151435</DistanceMeters>
          </Trackpoint>
          <Trackpoint>
            <Time>2022-07-09T07:56:59.000Z</Time>
            <Position>
              <LatitudeDegrees>42.8435979969799518585205078125</LatitudeDegrees>
              <LongitudeDegrees>-0.14268991537392139434814453125</LongitudeDegrees>
            </Position>
            <AltitudeMeters>1689</AltitudeMeters>
            <DistanceMeters>2284.8334624303</DistanceMeters>
          </Trackpoint>
          <Trackpoint>
            <Time>2022-07-09T07:57:04.000Z</Time>
            <Position>
              <LatitudeDegrees>42.843587100505828857421875</LatitudeDegrees>
              <LongitudeDegrees>-0.14270064420998096466064453125</LongitudeDegrees>
            </Position>
            <AltitudeMeters>1689.4000244140625</AltitudeMeters>
            <DistanceMeters>2286.3299446247</DistanceMeters>
          </Trackpoint>
          <Trackpoint>
            <Time>2022-07-09T07:57:07.000Z</Time>
            <Position>
              <LatitudeDegrees>42.84357628785073757171630859375</LatitudeDegrees>
              <LongitudeDegrees>-0.14270667918026447296142578125</LongitudeDegrees>
            </Position>
            <AltitudeMeters>1689.5999755859375</AltitudeMeters>
            <DistanceMeters>2287.6328852878</DistanceMeters>
          </Trackpoint>
          <Trackpoint>
            <Time>2022-07-09T07:57:13.000Z</Time>
            <Position>
              <LatitudeDegrees>42.8435842506587505340576171875</LatitudeDegrees>
              <LongitudeDegrees>-0.14272101223468780517578125</LongitudeDegrees>
            </Position>
            <AltitudeMeters>1689.800048828125</AltitudeMeters>
            <DistanceMeters>2289.098886036</DistanceMeters>
          </Trackpoint>
          <Trackpoint>
            <Time>2022-07-09T07:57:15.000Z</Time>
            <Position>
              <LatitudeDegrees>42.84359539858996868133544921875</LatitudeDegrees>
              <LongitudeDegrees>-0.1427392847836017608642578125</LongitudeDegrees>
            </Position>
            <AltitudeMeters>1690.199951171875</AltitudeMeters>
            <DistanceMeters>2291.0370583195</DistanceMeters>
          </Trackpoint>
          <Trackpoint>
            <Time>2022-07-09T07:57:17.000Z</Time>
            <Position>
              <LatitudeDegrees>42.8435996733605861663818359375</LatitudeDegrees>
              <LongitudeDegrees>-0.14274372719228267669677734375</LongitudeDegrees>
            </Position>
            <AltitudeMeters>1690.5999755859375</AltitudeMeters>
            <DistanceMeters>2291.6380600314</DistanceMeters>
          </Trackpoint>
          <Trackpoint>
            <Time>2022-07-09T07:57:21.000Z</Time>
            <Position>
              <LatitudeDegrees>42.843582071363925933837890625</LatitudeDegrees>
              <LongitudeDegrees>-0.142717324197292327880859375</LongitudeDegrees>
            </Position>
            <AltitudeMeters>1691.199951171875</AltitudeMeters>
            <DistanceMeters>2294.5484228446</DistanceMeters>
          </Trackpoint>
          <Trackpoint>
            <Time>2022-07-09T07:57:26.000Z</Time>
            <Position>
              <LatitudeDegrees>42.8435416705906391143798828125</LatitudeDegrees>
              <LongitudeDegrees>-0.14270215295255184173583984375</LongitudeDegrees>
            </Position>
            <AltitudeMeters>1691.5999755859375</AltitudeMeters>
            <DistanceMeters>2299.2134506291</DistanceMeters>
          </Trackpoint>
          <Trackpoint>
            <Time>2022-07-09T07:57:29.000Z</Time>
            <Position>
              <LatitudeDegrees>42.8435101546347141265869140625</LatitudeDegrees>
              <LongitudeDegrees>-0.14270550571382045745849609375</LongitudeDegrees>
            </Position>
            <AltitudeMeters>1691.5999755859375</AltitudeMeters>
            <DistanceMeters>2302.7332893869</DistanceMeters>
          </Trackpoint>
          <Trackpoint>
            <Time>2022-07-09T07:57:30.000Z</Time>
            <Position>
              <LatitudeDegrees>42.84349833615124225616455078125</LatitudeDegrees>
              <LongitudeDegrees>-0.14270064420998096466064453125</LongitudeDegrees>
            </Position>
            <AltitudeMeters>1691.800048828125</AltitudeMeters>
            <DistanceMeters>2304.1103573058</DistanceMeters>
          </Trackpoint>
          <Trackpoint>
            <Time>2022-07-09T07:57:32.000Z</Time>
            <Position>
              <LatitudeDegrees>42.8434840030968189239501953125</LatitudeDegrees>
              <LongitudeDegrees>-0.142698548734188079833984375</LongitudeDegrees>
            </Position>
            <AltitudeMeters>1692</AltitudeMeters>
            <DistanceMeters>2305.7145928828</DistanceMeters>
          </Trackpoint>
          <Trackpoint>
            <Time>2022-07-09T07:57:34.000Z</Time>
            <Position>
              <LatitudeDegrees>42.8434679098427295684814453125</LatitudeDegrees>
              <LongitudeDegrees>-0.14269829727709293365478515625</LongitudeDegrees>
            </Position>
            <AltitudeMeters>1692.4000244140625</AltitudeMeters>
            <DistanceMeters>2307.5050333699</DistanceMeters>
          </Trackpoint>
          <Trackpoint>
            <Time>2022-07-09T07:57:40.000Z</Time>
            <Position>
              <LatitudeDegrees>42.8433980047702789306640625</LatitudeDegrees>
              <LongitudeDegrees>-0.14270416460931301116943359375</LongitudeDegrees>
            </Position>
            <AltitudeMeters>1693</AltitudeMeters>
            <DistanceMeters>2315.3001205657</DistanceMeters>
          </Trackpoint>
          <Trackpoint>
            <Time>2022-07-09T07:57:42.000Z</Time>
            <Position>
              <LatitudeDegrees>42.84338082186877727508544921875</LatitudeDegrees>
              <LongitudeDegrees>-0.14270768500864505767822265625</LongitudeDegrees>
            </Position>
            <AltitudeMeters>1693.199951171875</AltitudeMeters>
            <DistanceMeters>2317.233628168</DistanceMeters>
          </Trackpoint>
          <Trackpoint>
            <Time>2022-07-09T07:57:43.000Z</Time>
            <Position>
              <LatitudeDegrees>42.84337193705141544342041015625</LatitudeDegrees>
              <LongitudeDegrees>-0.142708607017993927001953125</LongitudeDegrees>
            </Position>
            <AltitudeMeters>1693.4000244140625</AltitudeMeters>
            <DistanceMeters>2318.2257361925</DistanceMeters>
          </Trackpoint>
          <Trackpoint>
            <Time>2022-07-09T07:57:47.000Z</Time>
            <Position>
              <LatitudeDegrees>42.84333338029682636260986328125</LatitudeDegrees>
              <LongitudeDegrees>-0.14272294007241725921630859375</LongitudeDegrees>
            </Position>
            <AltitudeMeters>1694.4000244140625</AltitudeMeters>
            <DistanceMeters>2322.6747728933</DistanceMeters>
          </Trackpoint>
          <Trackpoint>
            <Time>2022-07-09T07:57:48.000Z</Time>
            <Position>
              <LatitudeDegrees>42.8433250822126865386962890625</LatitudeDegrees>
              <LongitudeDegrees>-0.14272562228143215179443359375</LongitudeDegrees>
            </Position>
            <AltitudeMeters>1694.5999755859375</AltitudeMeters>
            <DistanceMeters>2323.625040037</DistanceMeters>
          </Trackpoint>
          <Trackpoint>
            <Time>2022-07-09T07:57:51.000Z</Time>
            <Position>
              <LatitudeDegrees>42.8433016128838062286376953125</LatitudeDegrees>
              <LongitudeDegrees>-0.1427406258881092071533203125</LongitudeDegrees>
            </Position>
            <AltitudeMeters>1695</AltitudeMeters>
            <DistanceMeters>2326.5104742299</DistanceMeters>
          </Trackpoint>
          <Trackpoint>
            <Time>2022-07-09T07:57:55.000Z</Time>
            <Position>
              <LatitudeDegrees>42.84326816909015178680419921875</LatitudeDegrees>
              <LongitudeDegrees>-0.1427480019629001617431640625</LongitudeDegrees>
            </Position>
            <AltitudeMeters>1695.4000244140625</AltitudeMeters>
            <DistanceMeters>2330.2817300418</DistanceMeters>
          </Trackpoint>
          <Trackpoint>
            <Time>2022-07-09T07:57:57.000Z</Time>
            <Position>
              <LatitudeDegrees>42.84325593151152133941650390625</LatitudeDegrees>
              <LongitudeDegrees>-0.14274942688643932342529296875</LongitudeDegrees>
            </Position>
            <AltitudeMeters>1695.5999755859375</AltitudeMeters>
            <DistanceMeters>2331.6522248066</DistanceMeters>
          </Trackpoint>
          <Trackpoint>
            <Time>2022-07-09T07:57:58.000Z</Time>
            <Position>
              <LatitudeDegrees>42.84324939362704753875732421875</LatitudeDegrees>
              <LongitudeDegrees>-0.14275060035288333892822265625</LongitudeDegrees>
            </Position>
            <AltitudeMeters>1695.5999755859375</AltitudeMeters>
            <DistanceMeters>2332.388298571</DistanceMeters>
          </Trackpoint>
          <Trackpoint>
            <Time>2022-07-09T07:58:01.000Z</Time>
            <Position>
              <LatitudeDegrees>42.843228019773960113525390625</LatitudeDegrees>
              <LongitudeDegrees>-0.14274925924837589263916015625</LongitudeDegrees>
            </Position>
            <AltitudeMeters>1695.800048828125</AltitudeMeters>
            <DistanceMeters>2334.7696612076</DistanceMeters>
          </Trackpoint>
          <Trackpoint>
            <Time>2022-07-09T07:58:03.000Z</Time>
            <Position>
              <LatitudeDegrees>42.8432117588818073272705078125</LatitudeDegrees>
              <LongitudeDegrees>-0.14275177381932735443115234375</LongitudeDegrees>
            </Position>
            <AltitudeMeters>1696</AltitudeMeters>
            <DistanceMeters>2336.5925896569</DistanceMeters>
          </Trackpoint>
          <Trackpoint>
            <Time>2022-07-09T07:58:05.000Z</Time>
            <Position>
              <LatitudeDegrees>42.84319776110351085662841796875</LatitudeDegrees>
              <LongitudeDegrees>-0.1427473314106464385986328125</LongitudeDegrees>
            </Position>
            <AltitudeMeters>1696.199951171875</AltitudeMeters>
            <DistanceMeters>2338.1911864271</DistanceMeters>
          </Trackpoint>
          <Trackpoint>
            <Time>2022-07-09T07:58:06.000Z</Time>
            <Position>
              <LatitudeDegrees>42.8431879542768001556396484375</LatitudeDegrees>
              <LongitudeDegrees>-0.142744481563568115234375</LongitudeDegrees>
            </Position>
            <AltitudeMeters>1696.4000244140625</AltitudeMeters>
            <DistanceMeters>2339.3074975617</DistanceMeters>
          </Trackpoint>
          <Trackpoint>
            <Time>2022-07-09T07:58:09.000Z</Time>
            <Position>
              <LatitudeDegrees>42.84316406585276126861572265625</LatitudeDegrees>
              <LongitudeDegrees>-0.142744816839694976806640625</LongitudeDegrees>
            </Position>
            <AltitudeMeters>1696.5999755859375</AltitudeMeters>
            <DistanceMeters>2341.966548117</DistanceMeters>
          </Trackpoint>
          <Trackpoint>
            <Time>2022-07-09T07:58:12.000Z</Time>
            <Position>
              <LatitudeDegrees>42.84314176999032497406005859375</LatitudeDegrees>
              <LongitudeDegrees>-0.14273316599428653717041015625</LongitudeDegrees>
            </Position>
            <AltitudeMeters>1697.199951171875</AltitudeMeters>
            <DistanceMeters>2344.623900141</DistanceMeters>
          </Trackpoint>
          <Trackpoint>
            <Time>2022-07-09T07:58:13.000Z</Time>
            <Position>
              <LatitudeDegrees>42.84313271753489971160888671875</LatitudeDegrees>
              <LongitudeDegrees>-0.14272931031882762908935546875</LongitudeDegrees>
            </Position>
            <AltitudeMeters>1697.4000244140625</AltitudeMeters>
            <DistanceMeters>2345.6777973858</DistanceMeters>
          </Trackpoint>
          <Trackpoint>
            <Time>2022-07-09T07:58:16.000Z</Time>
            <Position>
              <LatitudeDegrees>42.84310807473957538604736328125</LatitudeDegrees>
              <LongitudeDegrees>-0.14272101223468780517578125</LongitudeDegrees>
            </Position>
            <AltitudeMeters>1697.800048828125</AltitudeMeters>
            <DistanceMeters>2348.5031447231</DistanceMeters>
          </Trackpoint>
          <Trackpoint>
            <Time>2022-07-09T07:58:21.000Z</Time>
            <Position>
              <LatitudeDegrees>42.843041606247425079345703125</LatitudeDegrees>
              <LongitudeDegrees>-0.1426950283348560333251953125</LongitudeDegrees>
            </Position>
            <AltitudeMeters>1698.800048828125</AltitudeMeters>
            <DistanceMeters>2356.1985486319</DistanceMeters>
          </Trackpoint>
          <Trackpoint>
            <Time>2022-07-09T07:58:22.000Z</Time>
            <Position>
              <LatitudeDegrees>42.84303414635360240936279296875</LatitudeDegrees>
              <LongitudeDegrees>-0.1426970399916172027587890625</LongitudeDegrees>
            </Position>
            <AltitudeMeters>1699</AltitudeMeters>
            <DistanceMeters>2357.0484934039</DistanceMeters>
          </Trackpoint>
          <Trackpoint>
            <Time>2022-07-09T07:58:26.000Z</Time>
            <Position>
              <LatitudeDegrees>42.8429740481078624725341796875</LatitudeDegrees>
              <LongitudeDegrees>-0.14264993369579315185546875</LongitudeDegrees>
            </Position>
            <AltitudeMeters>1699.5999755859375</AltitudeMeters>
            <DistanceMeters>2364.7638199633</DistanceMeters>
          </Trackpoint>
          <Trackpoint>
            <Time>2022-07-09T07:58:28.000Z</Time>
            <Position>
              <LatitudeDegrees>42.8429556079208850860595703125</LatitudeDegrees>
              <LongitudeDegrees>-0.1426573097705841064453125</LongitudeDegrees>
            </Position>
            <AltitudeMeters>1699.800048828125</AltitudeMeters>
            <DistanceMeters>2366.9013930453</DistanceMeters>
          </Trackpoint>
          <Trackpoint>
            <Time>2022-07-09T07:58:29.000Z</Time>
            <Position>
              <LatitudeDegrees>42.842951752245426177978515625</LatitudeDegrees>
              <LongitudeDegrees>-0.14266527257859706878662109375</LongitudeDegrees>
            </Position>
            <AltitudeMeters>1700</AltitudeMeters>
            <DistanceMeters>2367.6850034065</DistanceMeters>
          </Trackpoint>
          <Trackpoint>
            <Time>2022-07-09T07:58:31.000Z</Time>
            <Position>
              <LatitudeDegrees>42.842945046722888946533203125</LatitudeDegrees>
              <LongitudeDegrees>-0.14274423010647296905517578125</LongitudeDegrees>
            </Position>
            <AltitudeMeters>1700.199951171875</AltitudeMeters>
            <DistanceMeters>2374.1719253444</DistanceMeters>
          </Trackpoint>
          <Trackpoint>
            <Time>2022-07-09T07:58:33.000Z</Time>
            <Position>
              <LatitudeDegrees>42.84292501397430896759033203125</LatitudeDegrees>
              <LongitudeDegrees>-0.1427520252764225006103515625</LongitudeDegrees>
            </Position>
            <AltitudeMeters>1700.4000244140625</AltitudeMeters>
            <DistanceMeters>2376.4918230923</DistanceMeters>
          </Trackpoint>
          <Trackpoint>
            <Time>2022-07-09T07:58:34.000Z</Time>
            <Position>
              <LatitudeDegrees>42.84291478805243968963623046875</LatitudeDegrees>
              <LongitudeDegrees>-0.14275261200964450836181640625</LongitudeDegrees>
            </Position>
            <AltitudeMeters>1700.5999755859375</AltitudeMeters>
            <DistanceMeters>2377.6321436647</DistanceMeters>
          </Trackpoint>
          <Trackpoint>
            <Time>2022-07-09T07:58:35.000Z</Time>
            <Position>
              <LatitudeDegrees>42.84290640614926815032958984375</LatitudeDegrees>
              <LongitudeDegrees>-0.14275546185672283172607421875</LongitudeDegrees>
            </Position>
            <AltitudeMeters>1700.5999755859375</AltitudeMeters>
            <DistanceMeters>2378.5918664358</DistanceMeters>
          </Trackpoint>
          <Trackpoint>
            <Time>2022-07-09T07:58:38.000Z</Time>
            <Position>
              <LatitudeDegrees>42.8428818471729755401611328125</LatitudeDegrees>
              <LongitudeDegrees>-0.14275244437158107757568359375</LongitudeDegrees>
            </Position>
            <AltitudeMeters>1701.199951171875</AltitudeMeters>
            <DistanceMeters>2381.3361484465</DistanceMeters>
          </Trackpoint>
          <Trackpoint>
            <Time>2022-07-09T07:58:39.000Z</Time>
            <Position>
              <LatitudeDegrees>42.842875309288501739501953125</LatitudeDegrees>
              <LongitudeDegrees>-0.14275244437158107757568359375</LongitudeDegrees>
            </Position>
            <AltitudeMeters>1701.4000244140625</AltitudeMeters>
            <DistanceMeters>2382.0660624895</DistanceMeters>
          </Trackpoint>
          <Trackpoint>
            <Time>2022-07-09T07:58:44.000Z</Time>
            <Position>
              <LatitudeDegrees>42.842840440571308135986328125</LatitudeDegrees>
              <LongitudeDegrees>-0.14275378547608852386474609375</LongitudeDegrees>
            </Position>
            <AltitudeMeters>1702</AltitudeMeters>
            <DistanceMeters>2385.9493893701</DistanceMeters>
          </Trackpoint>
          <Trackpoint>
            <Time>2022-07-09T07:58:46.000Z</Time>
            <Position>
              <LatitudeDegrees>42.84282124601304531097412109375</LatitudeDegrees>
              <LongitudeDegrees>-0.1427500136196613311767578125</LongitudeDegrees>
            </Position>
            <AltitudeMeters>1702.199951171875</AltitudeMeters>
            <DistanceMeters>2388.1079813753</DistanceMeters>
          </Trackpoint>
          <Trackpoint>
            <Time>2022-07-09T07:58:48.000Z</Time>
            <Position>
              <LatitudeDegrees>42.84280498512089252471923828125</LatitudeDegrees>
              <LongitudeDegrees>-0.14274523593485355377197265625</LongitudeDegrees>
            </Position>
            <AltitudeMeters>1702.4000244140625</AltitudeMeters>
            <DistanceMeters>2389.9603930598</DistanceMeters>
          </Trackpoint>
          <Trackpoint>
            <Time>2022-07-09T07:58:54.000Z</Time>
            <Position>
              <LatitudeDegrees>42.8427661769092082977294921875</LatitudeDegrees>
              <LongitudeDegrees>-0.1427476666867733001708984375</LongitudeDegrees>
            </Position>
            <AltitudeMeters>1703.4000244140625</AltitudeMeters>
            <DistanceMeters>2394.2838474933</DistanceMeters>
          </Trackpoint>
          <Trackpoint>
            <Time>2022-07-09T07:58:55.000Z</Time>
            <Position>
              <LatitudeDegrees>42.84276190213859081268310546875</LatitudeDegrees>
              <LongitudeDegrees>-0.14275529421865940093994140625</LongitudeDegrees>
            </Position>
            <AltitudeMeters>1703.800048828125</AltitudeMeters>
            <DistanceMeters>2395.0674578545</DistanceMeters>
          </Trackpoint>
          <Trackpoint>
            <Time>2022-07-09T07:58:59.000Z</Time>
            <Position>
              <LatitudeDegrees>42.84273348748683929443359375</LatitudeDegrees>
              <LongitudeDegrees>-0.1427768357098102569580078125</LongitudeDegrees>
            </Position>
            <AltitudeMeters>1704</AltitudeMeters>
            <DistanceMeters>2398.6859673327</DistanceMeters>
          </Trackpoint>
          <Trackpoint>
            <Time>2022-07-09T07:59:02.000Z</Time>
            <Position>
              <LatitudeDegrees>42.84271999262273311614990234375</LatitudeDegrees>
              <LongitudeDegrees>-0.14279318042099475860595703125</LongitudeDegrees>
            </Position>
            <AltitudeMeters>1704.5999755859375</AltitudeMeters>
            <DistanceMeters>2400.6950577166</DistanceMeters>
          </Trackpoint>
          <Trackpoint>
            <Time>2022-07-09T07:59:04.000Z</Time>
            <Position>
              <LatitudeDegrees>42.84271127544343471527099609375</LatitudeDegrees>
              <LongitudeDegrees>-0.14280927367508411407470703125</LongitudeDegrees>
            </Position>
            <AltitudeMeters>1704.800048828125</AltitudeMeters>
            <DistanceMeters>2402.3299591287</DistanceMeters>
          </Trackpoint>
          <Trackpoint>
            <Time>2022-07-09T07:59:05.000Z</Time>
            <Position>
              <LatitudeDegrees>42.8427071683108806610107421875</LatitudeDegrees>
              <LongitudeDegrees>-0.14281681738793849945068359375</LongitudeDegrees>
            </Position>
            <AltitudeMeters>1704.800048828125</AltitudeMeters>
            <DistanceMeters>2403.1019598057</DistanceMeters>
          </Trackpoint>
          <Trackpoint>
            <Time>2022-07-09T07:59:07.000Z</Time>
            <Position>
              <LatitudeDegrees>42.8427014686167240142822265625</LatitudeDegrees>
              <LongitudeDegrees>-0.14282586984336376190185546875</LongitudeDegrees>
            </Position>
            <AltitudeMeters>1705</AltitudeMeters>
            <DistanceMeters>2404.0710459475</DistanceMeters>
          </Trackpoint>
          <Trackpoint>
            <Time>2022-07-09T07:59:13.000Z</Time>
            <Position>
              <LatitudeDegrees>42.842679508030414581298828125</LatitudeDegrees>
              <LongitudeDegrees>-0.1428638398647308349609375</LongitudeDegrees>
            </Position>
            <AltitudeMeters>1705.4000244140625</AltitudeMeters>
            <DistanceMeters>2408.0166576604</DistanceMeters>
          </Trackpoint>
          <Trackpoint>
            <Time>2022-07-09T07:59:14.000Z</Time>
            <Position>
              <LatitudeDegrees>42.84267707727849483489990234375</LatitudeDegrees>
              <LongitudeDegrees>-0.14286861754953861236572265625</LongitudeDegrees>
            </Position>
            <AltitudeMeters>1705.5999755859375</AltitudeMeters>
            <DistanceMeters>2408.4917912323</DistanceMeters>
          </Trackpoint>
          <Trackpoint>
            <Time>2022-07-09T07:59:20.000Z</Time>
            <Position>
              <LatitudeDegrees>42.8426609002053737640380859375</LatitudeDegrees>
              <LongitudeDegrees>-0.1429079286754131317138671875</LongitudeDegrees>
            </Position>
            <AltitudeMeters>1706.199951171875</AltitudeMeters>
            <DistanceMeters>2412.1697056567</DistanceMeters>
          </Trackpoint>
          <Trackpoint>
            <Time>2022-07-09T07:59:21.000Z</Time>
            <Position>
              <LatitudeDegrees>42.84265796653926372528076171875</LatitudeDegrees>
              <LongitudeDegrees>-0.142916142940521240234375</LongitudeDegrees>
            </Position>
            <AltitudeMeters>1706.4000244140625</AltitudeMeters>
            <DistanceMeters>2412.9118880218</DistanceMeters>
          </Trackpoint>
          <Trackpoint>
            <Time>2022-07-09T07:59:27.000Z</Time>
            <Position>
              <LatitudeDegrees>42.84266509115695953369140625</LatitudeDegrees>
              <LongitudeDegrees>-0.14295344240963459014892578125</LongitudeDegrees>
            </Position>
            <AltitudeMeters>1706.5999755859375</AltitudeMeters>
            <DistanceMeters>2416.0563965217</DistanceMeters>
          </Trackpoint>
          <Trackpoint>
            <Time>2022-07-09T07:59:28.000Z</Time>
            <Position>
              <LatitudeDegrees>42.84266701899468898773193359375</LatitudeDegrees>
              <LongitudeDegrees>-0.1429555378854274749755859375</LongitudeDegrees>
            </Position>
            <AltitudeMeters>1706.4000244140625</AltitudeMeters>
            <DistanceMeters>2416.3251726582</DistanceMeters>
          </Trackpoint>
          <Trackpoint>
            <Time>2022-07-09T07:59:30.000Z</Time>
            <Position>
              <LatitudeDegrees>42.8426699526607990264892578125</LatitudeDegrees>
              <LongitudeDegrees>-0.14296417124569416046142578125</LongitudeDegrees>
            </Position>
            <AltitudeMeters>1706.5999755859375</AltitudeMeters>
            <DistanceMeters>2417.1029998381</DistanceMeters>
          </Trackpoint>
          <Trackpoint>
            <Time>2022-07-09T07:59:36.000Z</Time>
            <Position>
              <LatitudeDegrees>42.84267045557498931884765625</LatitudeDegrees>
              <LongitudeDegrees>-0.14297272078692913055419921875</LongitudeDegrees>
            </Position>
            <AltitudeMeters>1706.5999755859375</AltitudeMeters>
            <DistanceMeters>2417.7948047611</DistanceMeters>
          </Trackpoint>
          <Trackpoint>
            <Time>2022-07-09T07:59:37.000Z</Time>
            <Position>
              <LatitudeDegrees>42.8426699526607990264892578125</LatitudeDegrees>
              <LongitudeDegrees>-0.14296802692115306854248046875</LongitudeDegrees>
            </Position>
            <AltitudeMeters>1706.4000244140625</AltitudeMeters>
            <DistanceMeters>2418.1628416433</DistanceMeters>
          </Trackpoint>
          <Trackpoint>
            <Time>2022-07-09T07:59:43.000Z</Time>
            <Position>
              <LatitudeDegrees>42.84265997819602489471435546875</LatitudeDegrees>
              <LongitudeDegrees>-0.14294900000095367431640625</LongitudeDegrees>
            </Position>
            <AltitudeMeters>1707</AltitudeMeters>
            <DistanceMeters>2420.0728549635</DistanceMeters>
          </Trackpoint>
          <Trackpoint>
            <Time>2022-07-09T07:59:49.000Z</Time>
            <Position>
              <LatitudeDegrees>42.8426555357873439788818359375</LatitudeDegrees>
              <LongitudeDegrees>-0.142937600612640380859375</LongitudeDegrees>
            </Position>
            <AltitudeMeters>1707</AltitudeMeters>
            <DistanceMeters>2421.1310276711</DistanceMeters>
          </Trackpoint>
          <Trackpoint>
            <Time>2022-07-09T07:59:53.000Z</Time>
            <Position>
              <LatitudeDegrees>42.8426563739776611328125</LatitudeDegrees>
              <LongitudeDegrees>-0.142933912575244903564453125</LongitudeDegrees>
            </Position>
            <AltitudeMeters>1706.800048828125</AltitudeMeters>
            <DistanceMeters>2421.4602098658</DistanceMeters>
          </Trackpoint>
          <Trackpoint>
            <Time>2022-07-09T07:59:59.000Z</Time>
            <Position>
              <LatitudeDegrees>42.842671461403369903564453125</LatitudeDegrees>
              <LongitudeDegrees>-0.14293768443167209625244140625</LongitudeDegrees>
            </Position>
            <AltitudeMeters>1706.5999755859375</AltitudeMeters>
            <DistanceMeters>2423.1680490536</DistanceMeters>
          </Trackpoint>
          <Trackpoint>
            <Time>2022-07-09T08:00:05.000Z</Time>
            <Position>
              <LatitudeDegrees>42.8426682762801647186279296875</LatitudeDegrees>
              <LongitudeDegrees>-0.142919830977916717529296875</LongitudeDegrees>
            </Position>
            <AltitudeMeters>1706.4000244140625</AltitudeMeters>
            <DistanceMeters>2424.6705533335</DistanceMeters>
          </Trackpoint>
          <Trackpoint>
            <Time>2022-07-09T08:00:08.000Z</Time>
            <Position>
              <LatitudeDegrees>42.84267120994627475738525390625</LatitudeDegrees>
              <LongitudeDegrees>-0.1429189927875995635986328125</LongitudeDegrees>
            </Position>
            <AltitudeMeters>1706</AltitudeMeters>
            <DistanceMeters>2425.0261107412</DistanceMeters>
          </Trackpoint>
          <Trackpoint>
            <Time>2022-07-09T08:00:14.000Z</Time>
            <Position>
              <LatitudeDegrees>42.8426823578774929046630859375</LatitudeDegrees>
              <LongitudeDegrees>-0.14293584041297435760498046875</LongitudeDegrees>
            </Position>
            <AltitudeMeters>1706.4000244140625</AltitudeMeters>
            <DistanceMeters>2426.8760834362</DistanceMeters>
          </Trackpoint>
          <Trackpoint>
            <Time>2022-07-09T08:00:16.000Z</Time>
            <Position>
              <LatitudeDegrees>42.8426779992878437042236328125</LatitudeDegrees>
              <LongitudeDegrees>-0.1429384388029575347900390625</LongitudeDegrees>
            </Position>
            <AltitudeMeters>1706.5999755859375</AltitudeMeters>
            <DistanceMeters>2427.40516979</DistanceMeters>
          </Trackpoint>
          <Trackpoint>
            <Time>2022-07-09T08:00:17.000Z</Time>
            <Position>
              <LatitudeDegrees>42.84267087467014789581298828125</LatitudeDegrees>
              <LongitudeDegrees>-0.14293667860329151153564453125</LongitudeDegrees>
            </Position>
            <AltitudeMeters>1706.5999755859375</AltitudeMeters>
            <DistanceMeters>2428.2058791177</DistanceMeters>
          </Trackpoint>
          <Trackpoint>
            <Time>2022-07-09T08:00:18.000Z</Time>
            <Position>
              <LatitudeDegrees>42.84266148693859577178955078125</LatitudeDegrees>
              <LongitudeDegrees>-0.142935924232006072998046875</LongitudeDegrees>
            </Position>
            <AltitudeMeters>1706.5999755859375</AltitudeMeters>
            <DistanceMeters>2429.2554834842</DistanceMeters>
          </Trackpoint>
          <Trackpoint>
            <Time>2022-07-09T08:00:20.000Z</Time>
            <Position>
              <LatitudeDegrees>42.8426421247422695159912109375</LatitudeDegrees>
              <LongitudeDegrees>-0.142937600612640380859375</LongitudeDegrees>
            </Position>
            <AltitudeMeters>1706.5999755859375</AltitudeMeters>
            <DistanceMeters>2431.4140754895</DistanceMeters>
          </Trackpoint>
          <Trackpoint>
            <Time>2022-07-09T08:00:26.000Z</Time>
            <Position>
              <LatitudeDegrees>42.84264170564711093902587890625</LatitudeDegrees>
              <LongitudeDegrees>-0.1429255306720733642578125</LongitudeDegrees>
            </Position>
            <AltitudeMeters>1706.4000244140625</AltitudeMeters>
            <DistanceMeters>2432.4016220737</DistanceMeters>
          </Trackpoint>
          <Trackpoint>
            <Time>2022-07-09T08:00:28.000Z</Time>
            <Position>
              <LatitudeDegrees>42.84264321438968181610107421875</LatitudeDegrees>
              <LongitudeDegrees>-0.14292108826339244842529296875</LongitudeDegrees>
            </Position>
            <AltitudeMeters>1706.199951171875</AltitudeMeters>
            <DistanceMeters>2432.8047862784</DistanceMeters>
          </Trackpoint>
          <Trackpoint>
            <Time>2022-07-09T08:00:30.000Z</Time>
            <Position>
              <LatitudeDegrees>42.8426397778093814849853515625</LatitudeDegrees>
              <LongitudeDegrees>-0.1429193280637264251708984375</LongitudeDegrees>
            </Position>
            <AltitudeMeters>1706</AltitudeMeters>
            <DistanceMeters>2433.2079504832</DistanceMeters>
          </Trackpoint>
          <Trackpoint>
            <Time>2022-07-09T08:00:35.000Z</Time>
            <Position>
              <LatitudeDegrees>42.84263885580003261566162109375</LatitudeDegrees>
              <LongitudeDegrees>-0.14293064363300800323486328125</LongitudeDegrees>
            </Position>
            <AltitudeMeters>1705.5999755859375</AltitudeMeters>
            <DistanceMeters>2434.1390183317</DistanceMeters>
          </Trackpoint>
          <Trackpoint>
            <Time>2022-07-09T08:00:39.000Z</Time>
            <Position>
              <LatitudeDegrees>42.84264975227415561676025390625</LatitudeDegrees>
              <LongitudeDegrees>-0.142942965030670166015625</LongitudeDegrees>
            </Position>
            <AltitudeMeters>1705.4000244140625</AltitudeMeters>
            <DistanceMeters>2435.7177206781</DistanceMeters>
          </Trackpoint>
          <Trackpoint>
            <Time>2022-07-09T08:00:45.000Z</Time>
            <Position>
              <LatitudeDegrees>42.84265997819602489471435546875</LatitudeDegrees>
              <LongitudeDegrees>-0.14293248765170574188232421875</LongitudeDegrees>
            </Position>
            <AltitudeMeters>1706.199951171875</AltitudeMeters>
            <DistanceMeters>2437.1431213937</DistanceMeters>
          </Trackpoint>
          <Trackpoint>
            <Time>2022-07-09T08:00:46.000Z</Time>
            <Position>
              <LatitudeDegrees>42.842662073671817779541015625</LatitudeDegrees>
              <LongitudeDegrees>-0.1429300568997859954833984375</LongitudeDegrees>
            </Position>
            <AltitudeMeters>1706.199951171875</AltitudeMeters>
            <DistanceMeters>2437.4436222497</DistanceMeters>
          </Trackpoint>
          <Trackpoint>
            <Time>2022-07-09T08:00:50.000Z</Time>
            <Position>
              <LatitudeDegrees>42.8426577150821685791015625</LatitudeDegrees>
              <LongitudeDegrees>-0.1429236866533756256103515625</LongitudeDegrees>
            </Position>
            <AltitudeMeters>1706.199951171875</AltitudeMeters>
            <DistanceMeters>2438.1547370652</DistanceMeters>
          </Trackpoint>
          <Trackpoint>
            <Time>2022-07-09T08:00:51.000Z</Time>
            <Position>
              <LatitudeDegrees>42.84265696071088314056396484375</LatitudeDegrees>
              <LongitudeDegrees>-0.142923183739185333251953125</LongitudeDegrees>
            </Position>
            <AltitudeMeters>1706</AltitudeMeters>
            <DistanceMeters>2438.1547370652</DistanceMeters>
          </Trackpoint>
          <Trackpoint>
            <Time>2022-07-09T08:00:57.000Z</Time>
            <Position>
              <LatitudeDegrees>42.84264958463609218597412109375</LatitudeDegrees>
              <LongitudeDegrees>-0.1429273746907711029052734375</LongitudeDegrees>
            </Position>
            <AltitudeMeters>1705.800048828125</AltitudeMeters>
            <DistanceMeters>2439.0461666625</DistanceMeters>
          </Trackpoint>
          <Trackpoint>
            <Time>2022-07-09T08:01:03.000Z</Time>
            <Position>
              <LatitudeDegrees>42.84265746362507343292236328125</LatitudeDegrees>
              <LongitudeDegrees>-0.1429438032209873199462890625</LongitudeDegrees>
            </Position>
            <AltitudeMeters>1705.800048828125</AltitudeMeters>
            <DistanceMeters>2440.6504022396</DistanceMeters>
          </Trackpoint>
          <Trackpoint>
            <Time>2022-07-09T08:01:07.000Z</Time>
            <Position>
              <LatitudeDegrees>42.842662744224071502685546875</LatitudeDegrees>
              <LongitudeDegrees>-0.1429776661098003387451171875</LongitudeDegrees>
            </Position>
            <AltitudeMeters>1705.800048828125</AltitudeMeters>
            <DistanceMeters>2443.4757495769</DistanceMeters>
          </Trackpoint>
          <Trackpoint>
            <Time>2022-07-09T08:01:13.000Z</Time>
            <Position>
              <LatitudeDegrees>42.8426706232130527496337890625</LatitudeDegrees>
              <LongitudeDegrees>-0.14303390868008136749267578125</LongitudeDegrees>
            </Position>
            <AltitudeMeters>1705.5999755859375</AltitudeMeters>
            <DistanceMeters>2448.1485137311</DistanceMeters>
          </Trackpoint>
          <Trackpoint>
            <Time>2022-07-09T08:01:14.000Z</Time>
            <Position>
              <LatitudeDegrees>42.84267255105078220367431640625</LatitudeDegrees>
              <LongitudeDegrees>-0.14303122647106647491455078125</LongitudeDegrees>
            </Position>
            <AltitudeMeters>1705.5999755859375</AltitudeMeters>
            <DistanceMeters>2448.4490145871</DistanceMeters>
          </Trackpoint>
          <Trackpoint>
            <Time>2022-07-09T08:01:20.000Z</Time>
            <Position>
              <LatitudeDegrees>42.84267707727849483489990234375</LatitudeDegrees>
              <LongitudeDegrees>-0.143050253391265869140625</LongitudeDegrees>
            </Position>
            <AltitudeMeters>1706</AltitudeMeters>
            <DistanceMeters>2450.0783833221</DistanceMeters>
          </Trackpoint>
          <Trackpoint>
            <Time>2022-07-09T08:01:22.000Z</Time>
            <Position>
              <LatitudeDegrees>42.8426818549633026123046875</LatitudeDegrees>
              <LongitudeDegrees>-0.1430608145892620086669921875</LongitudeDegrees>
            </Position>
            <AltitudeMeters>1706.800048828125</AltitudeMeters>
            <DistanceMeters>2451.0929909875</DistanceMeters>
          </Trackpoint>
          <Trackpoint>
            <Time>2022-07-09T08:01:23.000Z</Time>
            <Position>
              <LatitudeDegrees>42.84268612973392009735107421875</LatitudeDegrees>
              <LongitudeDegrees>-0.143062658607959747314453125</LongitudeDegrees>
            </Position>
            <AltitudeMeters>1707</AltitudeMeters>
            <DistanceMeters>2451.5958250957</DistanceMeters>
          </Trackpoint>
          <Trackpoint>
            <Time>2022-07-09T08:01:26.000Z</Time>
            <Position>
              <LatitudeDegrees>42.84269534982740879058837890625</LatitudeDegrees>
              <LongitudeDegrees>-0.1430703699588775634765625</LongitudeDegrees>
            </Position>
            <AltitudeMeters>1707.4000244140625</AltitudeMeters>
            <DistanceMeters>2452.8015789294</DistanceMeters>
          </Trackpoint>
          <Trackpoint>
            <Time>2022-07-09T08:01:28.000Z</Time>
            <Position>
              <LatitudeDegrees>42.8427041508257389068603515625</LatitudeDegrees>
              <LongitudeDegrees>-0.14308503828942775726318359375</LongitudeDegrees>
            </Position>
            <AltitudeMeters>1707.4000244140625</AltitudeMeters>
            <DistanceMeters>2454.3485017645</DistanceMeters>
          </Trackpoint>
          <Trackpoint>
            <Time>2022-07-09T08:01:34.000Z</Time>
            <Position>
              <LatitudeDegrees>42.84272820688784122467041015625</LatitudeDegrees>
              <LongitudeDegrees>-0.143131054937839508056640625</LongitudeDegrees>
            </Position>
            <AltitudeMeters>1706.800048828125</AltitudeMeters>
            <DistanceMeters>2458.9609696616</DistanceMeters>
          </Trackpoint>
          <Trackpoint>
            <Time>2022-07-09T08:01:35.000Z</Time>
            <Position>
              <LatitudeDegrees>42.84273759461939334869384765625</LatitudeDegrees>
              <LongitudeDegrees>-0.143136419355869293212890625</LongitudeDegrees>
            </Position>
            <AltitudeMeters>1706.800048828125</AltitudeMeters>
            <DistanceMeters>2460.0933436524</DistanceMeters>
          </Trackpoint>
          <Trackpoint>
            <Time>2022-07-09T08:01:36.000Z</Time>
            <Position>
              <LatitudeDegrees>42.84274832345545291900634765625</LatitudeDegrees>
              <LongitudeDegrees>-0.14314211905002593994140625</LongitudeDegrees>
            </Position>
            <AltitudeMeters>1706.800048828125</AltitudeMeters>
            <DistanceMeters>2461.3753241175</DistanceMeters>
          </Trackpoint>
          <Trackpoint>
            <Time>2022-07-09T08:01:38.000Z</Time>
            <Position>
              <LatitudeDegrees>42.8427688591182231903076171875</LatitudeDegrees>
              <LongitudeDegrees>-0.14315511099994182586669921875</LongitudeDegrees>
            </Position>
            <AltitudeMeters>1706.800048828125</AltitudeMeters>
            <DistanceMeters>2463.8966677705</DistanceMeters>
          </Trackpoint>
          <Trackpoint>
            <Time>2022-07-09T08:01:43.000Z</Time>
            <Position>
              <LatitudeDegrees>42.8428040631115436553955078125</LatitudeDegrees>
              <LongitudeDegrees>-0.1431949250400066375732421875</LongitudeDegrees>
            </Position>
            <AltitudeMeters>1707.4000244140625</AltitudeMeters>
            <DistanceMeters>2468.9874751125</DistanceMeters>
          </Trackpoint>
          <Trackpoint>
            <Time>2022-07-09T08:01:44.000Z</Time>
            <Position>
              <LatitudeDegrees>42.84281236119568347930908203125</LatitudeDegrees>
              <LongitudeDegrees>-0.14320154674351215362548828125</LongitudeDegrees>
            </Position>
            <AltitudeMeters>1707.4000244140625</AltitudeMeters>
            <DistanceMeters>2470.0541473358</DistanceMeters>
          </Trackpoint>
          <Trackpoint>
            <Time>2022-07-09T08:01:46.000Z</Time>
            <Position>
              <LatitudeDegrees>42.84282543696463108062744140625</LatitudeDegrees>
              <LongitudeDegrees>-0.1432204060256481170654296875</LongitudeDegrees>
            </Position>
            <AltitudeMeters>1707.5999755859375</AltitudeMeters>
            <DistanceMeters>2472.170492751</DistanceMeters>
          </Trackpoint>
          <Trackpoint>
            <Time>2022-07-09T08:01:47.000Z</Time>
            <Position>
              <LatitudeDegrees>42.84283532761037349700927734375</LatitudeDegrees>
              <LongitudeDegrees>-0.14322769828140735626220703125</LongitudeDegrees>
            </Position>
            <AltitudeMeters>1707.5999755859375</AltitudeMeters>
            <DistanceMeters>2473.4239812038</DistanceMeters>
          </Trackpoint>
          <Trackpoint>
            <Time>2022-07-09T08:01:48.000Z</Time>
            <Position>
              <LatitudeDegrees>42.8428456373512744903564453125</LatitudeDegrees>
              <LongitudeDegrees>-0.14323373325169086456298828125</LongitudeDegrees>
            </Position>
            <AltitudeMeters>1707.4000244140625</AltitudeMeters>
            <DistanceMeters>2474.670244879</DistanceMeters>
          </Trackpoint>
          <Trackpoint>
            <Time>2022-07-09T08:01:49.000Z</Time>
            <Position>
              <LatitudeDegrees>42.8428533487021923065185546875</LatitudeDegrees>
              <LongitudeDegrees>-0.1432411931455135345458984375</LongitudeDegrees>
            </Position>
            <AltitudeMeters>1707.5999755859375</AltitudeMeters>
            <DistanceMeters>2475.7198492455</DistanceMeters>
          </Trackpoint>
          <Trackpoint>
            <Time>2022-07-09T08:01:52.000Z</Time>
            <Position>
              <LatitudeDegrees>42.84287606365978717803955078125</LatitudeDegrees>
              <LongitudeDegrees>-0.1432666741311550140380859375</LongitudeDegrees>
            </Position>
            <AltitudeMeters>1708</AltitudeMeters>
            <DistanceMeters>2478.9924125624</DistanceMeters>
          </Trackpoint>
          <Trackpoint>
            <Time>2022-07-09T08:01:53.000Z</Time>
            <Position>
              <LatitudeDegrees>42.842882685363292694091796875</LatitudeDegrees>
              <LongitudeDegrees>-0.14327497221529483795166015625</LongitudeDegrees>
            </Position>
            <AltitudeMeters>1708.199951171875</AltitudeMeters>
            <DistanceMeters>2479.9935811222</DistanceMeters>
          </Trackpoint>
          <Trackpoint>
            <Time>2022-07-09T08:01:57.000Z</Time>
            <Position>
              <LatitudeDegrees>42.8429197333753108978271484375</LatitudeDegrees>
              <LongitudeDegrees>-0.1433065719902515411376953125</LongitudeDegrees>
            </Position>
            <AltitudeMeters>1708.5999755859375</AltitudeMeters>
            <DistanceMeters>2484.8576124012</DistanceMeters>
          </Trackpoint>
          <Trackpoint>
            <Time>2022-07-09T08:01:58.000Z</Time>
            <Position>
              <LatitudeDegrees>42.84292635507881641387939453125</LatitudeDegrees>
              <LongitudeDegrees>-0.1433136127889156341552734375</LongitudeDegrees>
            </Position>
            <AltitudeMeters>1708.5999755859375</AltitudeMeters>
            <DistanceMeters>2485.798328879</DistanceMeters>
          </Trackpoint>
          <Trackpoint>
            <Time>2022-07-09T08:01:59.000Z</Time>
            <Position>
              <LatitudeDegrees>42.84293389879167079925537109375</LatitudeDegrees>
              <LongitudeDegrees>-0.14331839047372341156005859375</LongitudeDegrees>
            </Position>
            <AltitudeMeters>1708.5999755859375</AltitudeMeters>
            <DistanceMeters>2486.7245347212</DistanceMeters>
          </Trackpoint>
          <Trackpoint>
            <Time>2022-07-09T08:02:00.000Z</Time>
            <Position>
              <LatitudeDegrees>42.84294110722839832305908203125</LatitudeDegrees>
              <LongitudeDegrees>-0.14332450926303863525390625</LongitudeDegrees>
            </Position>
            <AltitudeMeters>1708.5999755859375</AltitudeMeters>
            <DistanceMeters>2487.665251199</DistanceMeters>
          </Trackpoint>
          <Trackpoint>
            <Time>2022-07-09T08:02:01.000Z</Time>
            <Position>
              <LatitudeDegrees>42.8429495729506015777587890625</LatitudeDegrees>
              <LongitudeDegrees>-0.14333146624267101287841796875</LongitudeDegrees>
            </Position>
            <AltitudeMeters>1708.5999755859375</AltitudeMeters>
            <DistanceMeters>2488.7652649459</DistanceMeters>
          </Trackpoint>
          <Trackpoint>
            <Time>2022-07-09T08:02:02.000Z</Time>
            <Position>
              <LatitudeDegrees>42.842955775558948516845703125</LatitudeDegrees>
              <LongitudeDegrees>-0.14333968050777912139892578125</LongitudeDegrees>
            </Position>
            <AltitudeMeters>1708.800048828125</AltitudeMeters>
            <DistanceMeters>2489.7296807658</DistanceMeters>
          </Trackpoint>
          <Trackpoint>
            <Time>2022-07-09T08:02:03.000Z</Time>
            <Position>
              <LatitudeDegrees>42.84296273253858089447021484375</LatitudeDegrees>
              <LongitudeDegrees>-0.143342949450016021728515625</LongitudeDegrees>
            </Position>
            <AltitudeMeters>1709</AltitudeMeters>
            <DistanceMeters>2490.5471314719</DistanceMeters>
          </Trackpoint>
          <Trackpoint>
            <Time>2022-07-09T08:02:05.000Z</Time>
            <Position>
              <LatitudeDegrees>42.8429770655930042266845703125</LatitudeDegrees>
              <LongitudeDegrees>-0.14335074461996555328369140625</LongitudeDegrees>
            </Position>
            <AltitudeMeters>1709.199951171875</AltitudeMeters>
            <DistanceMeters>2492.268138466</DistanceMeters>
          </Trackpoint>
          <Trackpoint>
            <Time>2022-07-09T08:02:07.000Z</Time>
            <Position>
              <LatitudeDegrees>42.84299491904675960540771484375</LatitudeDegrees>
              <LongitudeDegrees>-0.14335627667605876922607421875</LongitudeDegrees>
            </Position>
            <AltitudeMeters>1709.5999755859375</AltitudeMeters>
            <DistanceMeters>2494.3062344314</DistanceMeters>
          </Trackpoint>
          <Trackpoint>
            <Time>2022-07-09T08:02:09.000Z</Time>
            <Position>
              <LatitudeDegrees>42.8430152870714664459228515625</LatitudeDegrees>
              <LongitudeDegrees>-0.1433672569692134857177734375</LongitudeDegrees>
            </Position>
            <AltitudeMeters>1709.5999755859375</AltitudeMeters>
            <DistanceMeters>2496.7438132096</DistanceMeters>
          </Trackpoint>
          <Trackpoint>
            <Time>2022-07-09T08:02:10.000Z</Time>
            <Position>
              <LatitudeDegrees>42.84302392043173313140869140625</LatitudeDegrees>
              <LongitudeDegrees>-0.1433736272156238555908203125</LongitudeDegrees>
            </Position>
            <AltitudeMeters>1710</AltitudeMeters>
            <DistanceMeters>2497.8355870372</DistanceMeters>
          </Trackpoint>
          <Trackpoint>
            <Time>2022-07-09T08:02:16.000Z</Time>
            <Position>
              <LatitudeDegrees>42.84308292903006076812744140625</LatitudeDegrees>
              <LongitudeDegrees>-0.14339625835418701171875</LongitudeDegrees>
            </Position>
            <AltitudeMeters>1711</AltitudeMeters>
            <DistanceMeters>2504.6583463081</DistanceMeters>
          </Trackpoint>
          <Trackpoint>
            <Time>2022-07-09T08:02:17.000Z</Time>
            <Position>
              <LatitudeDegrees>42.8430940769612789154052734375</LatitudeDegrees>
              <LongitudeDegrees>-0.1434011198580265045166015625</LongitudeDegrees>
            </Position>
            <AltitudeMeters>1711</AltitudeMeters>
            <DistanceMeters>2505.9612869712</DistanceMeters>
          </Trackpoint>
          <Trackpoint>
            <Time>2022-07-09T08:02:18.000Z</Time>
            <Position>
              <LatitudeDegrees>42.8431058116257190704345703125</LatitudeDegrees>
              <LongitudeDegrees>-0.143406651914119720458984375</LongitudeDegrees>
            </Position>
            <AltitudeMeters>1711</AltitudeMeters>
            <DistanceMeters>2507.3448968172</DistanceMeters>
          </Trackpoint>
          <Trackpoint>
            <Time>2022-07-09T08:02:23.000Z</Time>
            <Position>
              <LatitudeDegrees>42.843162305653095245361328125</LatitudeDegrees>
              <LongitudeDegrees>-0.14339625835418701171875</LongitudeDegrees>
            </Position>
            <AltitudeMeters>1711.800048828125</AltitudeMeters>
            <DistanceMeters>2513.6896648025</DistanceMeters>
          </Trackpoint>
          <Trackpoint>
            <Time>2022-07-09T08:02:25.000Z</Time>
            <Position>
              <LatitudeDegrees>42.8431758843362331390380859375</LatitudeDegrees>
              <LongitudeDegrees>-0.1433806680142879486083984375</LongitudeDegrees>
            </Position>
            <AltitudeMeters>1712.199951171875</AltitudeMeters>
            <DistanceMeters>2515.662470659</DistanceMeters>
          </Trackpoint>
          <Trackpoint>
            <Time>2022-07-09T08:02:26.000Z</Time>
            <Position>
              <LatitudeDegrees>42.84317932091653347015380859375</LatitudeDegrees>
              <LongitudeDegrees>-0.1433732919394969940185546875</LongitudeDegrees>
            </Position>
            <AltitudeMeters>1712.4000244140625</AltitudeMeters>
            <DistanceMeters>2516.3735854745</DistanceMeters>
          </Trackpoint>
          <Trackpoint>
            <Time>2022-07-09T08:02:32.000Z</Time>
            <Position>
              <LatitudeDegrees>42.84320094622671604156494140625</LatitudeDegrees>
              <LongitudeDegrees>-0.14334705658257007598876953125</LongitudeDegrees>
            </Position>
            <AltitudeMeters>1713</AltitudeMeters>
            <DistanceMeters>2519.5946967477</DistanceMeters>
          </Trackpoint>
          <Trackpoint>
            <Time>2022-07-09T08:02:37.000Z</Time>
            <Position>
              <LatitudeDegrees>42.84318585880100727081298828125</LatitudeDegrees>
              <LongitudeDegrees>-0.14336398802697658538818359375</LongitudeDegrees>
            </Position>
            <AltitudeMeters>1713</AltitudeMeters>
            <DistanceMeters>2521.7699576646</DistanceMeters>
          </Trackpoint>
          <Trackpoint>
            <Time>2022-07-09T08:02:39.000Z</Time>
            <Position>
              <LatitudeDegrees>42.8431792370975017547607421875</LatitudeDegrees>
              <LongitudeDegrees>-0.14337337575852870941162109375</LongitudeDegrees>
            </Position>
            <AltitudeMeters>1713.4000244140625</AltitudeMeters>
            <DistanceMeters>2522.8366298879</DistanceMeters>
          </Trackpoint>
          <Trackpoint>
            <Time>2022-07-09T08:02:43.000Z</Time>
            <Position>
              <LatitudeDegrees>42.84318451769649982452392578125</LatitudeDegrees>
              <LongitudeDegrees>-0.14339047484099864959716796875</LongitudeDegrees>
            </Position>
            <AltitudeMeters>1713.5999755859375</AltitudeMeters>
            <DistanceMeters>2524.3511065027</DistanceMeters>
          </Trackpoint>
          <Trackpoint>
            <Time>2022-07-09T08:02:46.000Z</Time>
            <Position>
              <LatitudeDegrees>42.84319348633289337158203125</LatitudeDegrees>
              <LongitudeDegrees>-0.1433964259922504425048828125</LongitudeDegrees>
            </Position>
            <AltitudeMeters>1713.800048828125</AltitudeMeters>
            <DistanceMeters>2525.4592989031</DistanceMeters>
          </Trackpoint>
          <Trackpoint>
            <Time>2022-07-09T08:02:47.000Z</Time>
            <Position>
              <LatitudeDegrees>42.84319323487579822540283203125</LatitudeDegrees>
              <LongitudeDegrees>-0.14339424669742584228515625</LongitudeDegrees>
            </Position>
            <AltitudeMeters>1713.800048828125</AltitudeMeters>
            <DistanceMeters>2525.6238900005</DistanceMeters>
          </Trackpoint>
          <Trackpoint>
            <Time>2022-07-09T08:02:49.000Z</Time>
            <Position>
              <LatitudeDegrees>42.8431919775903224945068359375</LatitudeDegrees>
              <LongitudeDegrees>-0.14338242821395397186279296875</LongitudeDegrees>
            </Position>
            <AltitudeMeters>1714</AltitudeMeters>
            <DistanceMeters>2526.5929761422</DistanceMeters>
          </Trackpoint>
          <Trackpoint>
            <Time>2022-07-09T08:02:52.000Z</Time>
            <Position>
              <LatitudeDegrees>42.84318535588681697845458984375</LatitudeDegrees>
              <LongitudeDegrees>-0.14337387867271900177001953125</LongitudeDegrees>
            </Position>
            <AltitudeMeters>1713.800048828125</AltitudeMeters>
            <DistanceMeters>2527.6075838076</DistanceMeters>
          </Trackpoint>
          <Trackpoint>
            <Time>2022-07-09T08:02:56.000Z</Time>
            <Position>
              <LatitudeDegrees>42.84318275749683380126953125</LatitudeDegrees>
              <LongitudeDegrees>-0.143363736569881439208984375</LongitudeDegrees>
            </Position>
            <AltitudeMeters>1713.800048828125</AltitudeMeters>
            <DistanceMeters>2528.4888253036</DistanceMeters>
          </Trackpoint>
          <Trackpoint>
            <Time>2022-07-09T08:03:01.000Z</Time>
            <Position>
              <LatitudeDegrees>42.84319122321903705596923828125</LatitudeDegrees>
              <LongitudeDegrees>-0.1433920674026012420654296875</LongitudeDegrees>
            </Position>
            <AltitudeMeters>1713.199951171875</AltitudeMeters>
            <DistanceMeters>2530.9849728846</DistanceMeters>
          </Trackpoint>
          <Trackpoint>
            <Time>2022-07-09T08:03:04.000Z</Time>
            <Position>
              <LatitudeDegrees>42.84320379607379436492919921875</LatitudeDegrees>
              <LongitudeDegrees>-0.14340556226670742034912109375</LongitudeDegrees>
            </Position>
            <AltitudeMeters>1713.199951171875</AltitudeMeters>
            <DistanceMeters>2532.7652978077</DistanceMeters>
          </Trackpoint>
          <Trackpoint>
            <Time>2022-07-09T08:03:08.000Z</Time>
            <Position>
              <LatitudeDegrees>42.84322408027946949005126953125</LatitudeDegrees>
              <LongitudeDegrees>-0.1434158720076084136962890625</LongitudeDegrees>
            </Position>
            <AltitudeMeters>1713</AltitudeMeters>
            <DistanceMeters>2535.1749324591</DistanceMeters>
          </Trackpoint>
          <Trackpoint>
            <Time>2022-07-09T08:03:12.000Z</Time>
            <Position>
              <LatitudeDegrees>42.843227684497833251953125</LatitudeDegrees>
              <LongitudeDegrees>-0.1434056460857391357421875</LongitudeDegrees>
            </Position>
            <AltitudeMeters>1712.5999755859375</AltitudeMeters>
            <DistanceMeters>2536.1060003077</DistanceMeters>
          </Trackpoint>
          <Trackpoint>
            <Time>2022-07-09T08:03:16.000Z</Time>
            <Position>
              <LatitudeDegrees>42.843217961490154266357421875</LatitudeDegrees>
              <LongitudeDegrees>-0.14340095221996307373046875</LongitudeDegrees>
            </Position>
            <AltitudeMeters>1712.5999755859375</AltitudeMeters>
            <DistanceMeters>2537.2542124662</DistanceMeters>
          </Trackpoint>
          <Trackpoint>
            <Time>2022-07-09T08:03:22.000Z</Time>
            <Position>
              <LatitudeDegrees>42.84319658763706684112548828125</LatitudeDegrees>
              <LongitudeDegrees>-0.14338879846036434173583984375</LongitudeDegrees>
            </Position>
            <AltitudeMeters>1713</AltitudeMeters>
            <DistanceMeters>2539.8304706416</DistanceMeters>
          </Trackpoint>
          <Trackpoint>
            <Time>2022-07-09T08:03:28.000Z</Time>
            <Position>
              <LatitudeDegrees>42.84319943748414516448974609375</LatitudeDegrees>
              <LongitudeDegrees>-0.14339365996420383453369140625</LongitudeDegrees>
            </Position>
            <AltitudeMeters>1712.800048828125</AltitudeMeters>
            <DistanceMeters>2540.3333047498</DistanceMeters>
          </Trackpoint>
          <Trackpoint>
            <Time>2022-07-09T08:03:29.000Z</Time>
            <Position>
              <LatitudeDegrees>42.8432010300457477569580078125</LatitudeDegrees>
              <LongitudeDegrees>-0.14339818619191646575927734375</LongitudeDegrees>
            </Position>
            <AltitudeMeters>1712.800048828125</AltitudeMeters>
            <DistanceMeters>2540.7475165947</DistanceMeters>
          </Trackpoint>
          <Trackpoint>
            <Time>2022-07-09T08:03:32.000Z</Time>
            <Position>
              <LatitudeDegrees>42.843200862407684326171875</LatitudeDegrees>
              <LongitudeDegrees>-0.14340086840093135833740234375</LongitudeDegrees>
            </Position>
            <AltitudeMeters>1712.800048828125</AltitudeMeters>
            <DistanceMeters>2540.9600027877</DistanceMeters>
          </Trackpoint>
          <Trackpoint>
            <Time>2022-07-09T08:03:35.000Z</Time>
            <Position>
              <LatitudeDegrees>42.84320019185543060302734375</LatitudeDegrees>
              <LongitudeDegrees>-0.1434017904102802276611328125</LongitudeDegrees>
            </Position>
            <AltitudeMeters>1712.5999755859375</AltitudeMeters>
            <DistanceMeters>2541.0550295021</DistanceMeters>
          </Trackpoint>
          <Trackpoint>
            <Time>2022-07-09T08:03:36.000Z</Time>
            <Position>
              <LatitudeDegrees>42.8432040475308895111083984375</LatitudeDegrees>
              <LongitudeDegrees>-0.14340422116219997406005859375</LongitudeDegrees>
            </Position>
            <AltitudeMeters>1712.5999755859375</AltitudeMeters>
            <DistanceMeters>2541.5205634264</DistanceMeters>
          </Trackpoint>
          <Trackpoint>
            <Time>2022-07-09T08:03:39.000Z</Time>
            <Position>
              <LatitudeDegrees>42.8432234935462474822998046875</LatitudeDegrees>
              <LongitudeDegrees>-0.14340505935251712799072265625</LongitudeDegrees>
            </Position>
            <AltitudeMeters>1712.5999755859375</AltitudeMeters>
            <DistanceMeters>2543.6875059154</DistanceMeters>
          </Trackpoint>
          <Trackpoint>
            <Time>2022-07-09T08:03:45.000Z</Time>
            <Position>
              <LatitudeDegrees>42.84324235282838344573974609375</LatitudeDegrees>
              <LongitudeDegrees>-0.1433820091187953948974609375</LongitudeDegrees>
            </Position>
            <AltitudeMeters>1713</AltitudeMeters>
            <DistanceMeters>2546.5064538168</DistanceMeters>
          </Trackpoint>
          <Trackpoint>
            <Time>2022-07-09T08:03:51.000Z</Time>
            <Position>
              <LatitudeDegrees>42.84321620129048824310302734375</LatitudeDegrees>
              <LongitudeDegrees>-0.14338544569909572601318359375</LongitudeDegrees>
            </Position>
            <AltitudeMeters>1713.199951171875</AltitudeMeters>
            <DistanceMeters>2549.4322891623</DistanceMeters>
          </Trackpoint>
          <Trackpoint>
            <Time>2022-07-09T08:03:54.000Z</Time>
            <Position>
              <LatitudeDegrees>42.84321117214858531951904296875</LatitudeDegrees>
              <LongitudeDegrees>-0.143381170928478240966796875</LongitudeDegrees>
            </Position>
            <AltitudeMeters>1713.199951171875</AltitudeMeters>
            <DistanceMeters>2550.0906535517</DistanceMeters>
          </Trackpoint>
          <Trackpoint>
            <Time>2022-07-09T08:04:00.000Z</Time>
            <Position>
              <LatitudeDegrees>42.84320932812988758087158203125</LatitudeDegrees>
              <LongitudeDegrees>-0.1433608867228031158447265625</LongitudeDegrees>
            </Position>
            <AltitudeMeters>1713.800048828125</AltitudeMeters>
            <DistanceMeters>2551.7583656206</DistanceMeters>
          </Trackpoint>
          <Trackpoint>
            <Time>2022-07-09T08:04:06.000Z</Time>
            <Position>
              <LatitudeDegrees>42.8432244993746280670166015625</LatitudeDegrees>
              <LongitudeDegrees>-0.143363736569881439208984375</LongitudeDegrees>
            </Position>
            <AltitudeMeters>1714.199951171875</AltitudeMeters>
            <DistanceMeters>2553.4635590451</DistanceMeters>
          </Trackpoint>
          <Trackpoint>
            <Time>2022-07-09T08:04:08.000Z</Time>
            <Position>
              <LatitudeDegrees>42.84323246218264102935791015625</LatitudeDegrees>
              <LongitudeDegrees>-0.14336449094116687774658203125</LongitudeDegrees>
            </Position>
            <AltitudeMeters>1714</AltitudeMeters>
            <DistanceMeters>2554.3549886425</DistanceMeters>
          </Trackpoint>
          <Trackpoint>
            <Time>2022-07-09T08:04:14.000Z</Time>
            <Position>
              <LatitudeDegrees>42.8432325460016727447509765625</LatitudeDegrees>
              <LongitudeDegrees>-0.14339500106871128082275390625</LongitudeDegrees>
            </Position>
            <AltitudeMeters>1713.800048828125</AltitudeMeters>
            <DistanceMeters>2556.8457039046</DistanceMeters>
          </Trackpoint>
          <Trackpoint>
            <Time>2022-07-09T08:04:19.000Z</Time>
            <Position>
              <LatitudeDegrees>42.8432379104197025299072265625</LatitudeDegrees>
              <LongitudeDegrees>-0.14343841932713985443115234375</LongitudeDegrees>
            </Position>
            <AltitudeMeters>1713.800048828125</AltitudeMeters>
            <DistanceMeters>2560.4404277315</DistanceMeters>
          </Trackpoint>
          <Trackpoint>
            <Time>2022-07-09T08:04:21.000Z</Time>
            <Position>
              <LatitudeDegrees>42.8432603739202022552490234375</LatitudeDegrees>
              <LongitudeDegrees>-0.1434098370373249053955078125</LongitudeDegrees>
            </Position>
            <AltitudeMeters>1713.800048828125</AltitudeMeters>
            <DistanceMeters>2563.8613894488</DistanceMeters>
          </Trackpoint>
          <Trackpoint>
            <Time>2022-07-09T08:04:27.000Z</Time>
            <Position>
              <LatitudeDegrees>42.84328065812587738037109375</LatitudeDegrees>
              <LongitudeDegrees>-0.14342081733047962188720703125</LongitudeDegrees>
            </Position>
            <AltitudeMeters>1714</AltitudeMeters>
            <DistanceMeters>2566.2915478787</DistanceMeters>
          </Trackpoint>
          <Trackpoint>
            <Time>2022-07-09T08:04:31.000Z</Time>
            <Position>
              <LatitudeDegrees>42.843268923461437225341796875</LatitudeDegrees>
              <LongitudeDegrees>-0.143442861735820770263671875</LongitudeDegrees>
            </Position>
            <AltitudeMeters>1714</AltitudeMeters>
            <DistanceMeters>2568.5160662291</DistanceMeters>
          </Trackpoint>
          <Trackpoint>
            <Time>2022-07-09T08:04:37.000Z</Time>
            <Position>
              <LatitudeDegrees>42.8432451188564300537109375</LatitudeDegrees>
              <LongitudeDegrees>-0.14342240989208221435546875</LongitudeDegrees>
            </Position>
            <AltitudeMeters>1714</AltitudeMeters>
            <DistanceMeters>2571.6476254283</DistanceMeters>
          </Trackpoint>
          <Trackpoint>
            <Time>2022-07-09T08:04:41.000Z</Time>
            <Position>
              <LatitudeDegrees>42.8432392515242099761962890625</LatitudeDegrees>
              <LongitudeDegrees>-0.143399946391582489013671875</LongitudeDegrees>
            </Position>
            <AltitudeMeters>1714.199951171875</AltitudeMeters>
            <DistanceMeters>2573.5950935555</DistanceMeters>
          </Trackpoint>
          <Trackpoint>
            <Time>2022-07-09T08:04:42.000Z</Time>
            <Position>
              <LatitudeDegrees>42.84323765896260738372802734375</LatitudeDegrees>
              <LongitudeDegrees>-0.1433917321264743804931640625</LongitudeDegrees>
            </Position>
            <AltitudeMeters>1714.4000244140625</AltitudeMeters>
            <DistanceMeters>2574.2933944419</DistanceMeters>
          </Trackpoint>
          <Trackpoint>
            <Time>2022-07-09T08:04:44.000Z</Time>
            <Position>
              <LatitudeDegrees>42.84323279745876789093017578125</LatitudeDegrees>
              <LongitudeDegrees>-0.143388547003269195556640625</LongitudeDegrees>
            </Position>
            <AltitudeMeters>1714.5999755859375</AltitudeMeters>
            <DistanceMeters>2574.9092379372</DistanceMeters>
          </Trackpoint>
          <Trackpoint>
            <Time>2022-07-09T08:04:50.000Z</Time>
            <Position>
              <LatitudeDegrees>42.84323011524975299835205078125</LatitudeDegrees>
              <LongitudeDegrees>-0.14339131303131580352783203125</LongitudeDegrees>
            </Position>
            <AltitudeMeters>1714.5999755859375</AltitudeMeters>
            <DistanceMeters>2575.2893447946</DistanceMeters>
          </Trackpoint>
          <Trackpoint>
            <Time>2022-07-09T08:04:53.000Z</Time>
            <Position>
              <LatitudeDegrees>42.84323464147746562957763671875</LatitudeDegrees>
              <LongitudeDegrees>-0.1433987729251384735107421875</LongitudeDegrees>
            </Position>
            <AltitudeMeters>1714.5999755859375</AltitudeMeters>
            <DistanceMeters>2576.0729551558</DistanceMeters>
          </Trackpoint>
          <Trackpoint>
            <Time>2022-07-09T08:04:57.000Z</Time>
            <Position>
              <LatitudeDegrees>42.84321972168982028961181640625</LatitudeDegrees>
              <LongitudeDegrees>-0.1433672569692134857177734375</LongitudeDegrees>
            </Position>
            <AltitudeMeters>1714.5999755859375</AltitudeMeters>
            <DistanceMeters>2579.1345265414</DistanceMeters>
          </Trackpoint>
          <Trackpoint>
            <Time>2022-07-09T08:05:02.000Z</Time>
            <Position>
              <LatitudeDegrees>42.84322542138397693634033203125</LatitudeDegrees>
              <LongitudeDegrees>-0.14336516149342060089111328125</LongitudeDegrees>
            </Position>
            <AltitudeMeters>1714.5999755859375</AltitudeMeters>
            <DistanceMeters>2579.7928909308</DistanceMeters>
          </Trackpoint>
          <Trackpoint>
            <Time>2022-07-09T08:05:22.000Z</Time>
            <Position>
              <LatitudeDegrees>42.84323103725910186767578125</LatitudeDegrees>
              <LongitudeDegrees>-0.14336767606437206268310546875</LongitudeDegrees>
            </Position>
            <AltitudeMeters>1714.800048828125</AltitudeMeters>
            <DistanceMeters>2580.4512553203</DistanceMeters>
          </Trackpoint>
          <Trackpoint>
            <Time>2022-07-09T08:05:26.000Z</Time>
            <Position>
              <LatitudeDegrees>42.8432120941579341888427734375</LatitudeDegrees>
              <LongitudeDegrees>-0.14340137131512165069580078125</LongitudeDegrees>
            </Position>
            <AltitudeMeters>1714.800048828125</AltitudeMeters>
            <DistanceMeters>2583.9168002516</DistanceMeters>
          </Trackpoint>
          <Trackpoint>
            <Time>2022-07-09T08:05:31.000Z</Time>
            <Position>
              <LatitudeDegrees>42.8432177938520908355712890625</LatitudeDegrees>
              <LongitudeDegrees>-0.1434163749217987060546875</LongitudeDegrees>
            </Position>
            <AltitudeMeters>1715.199951171875</AltitudeMeters>
            <DistanceMeters>2585.2938681704</DistanceMeters>
          </Trackpoint>
          <Trackpoint>
            <Time>2022-07-09T08:05:36.000Z</Time>
            <Position>
              <LatitudeDegrees>42.84322558902204036712646484375</LatitudeDegrees>
              <LongitudeDegrees>-0.1434504054486751556396484375</LongitudeDegrees>
            </Position>
            <AltitudeMeters>1715.199951171875</AltitudeMeters>
            <DistanceMeters>2588.2042309836</DistanceMeters>
          </Trackpoint>
          <Trackpoint>
            <Time>2022-07-09T08:05:39.000Z</Time>
            <Position>
              <LatitudeDegrees>42.84323145635426044464111328125</LatitudeDegrees>
              <LongitudeDegrees>-0.14347203075885772705078125</LongitudeDegrees>
            </Position>
            <AltitudeMeters>1715.5999755859375</AltitudeMeters>
            <DistanceMeters>2590.0880621975</DistanceMeters>
          </Trackpoint>
          <Trackpoint>
            <Time>2022-07-09T08:05:42.000Z</Time>
            <Position>
              <LatitudeDegrees>42.8432385809719562530517578125</LatitudeDegrees>
              <LongitudeDegrees>-0.1434936560690402984619140625</LongitudeDegrees>
            </Position>
            <AltitudeMeters>1715.800048828125</AltitudeMeters>
            <DistanceMeters>2592.0239035454</DistanceMeters>
          </Trackpoint>
          <Trackpoint>
            <Time>2022-07-09T08:05:48.000Z</Time>
            <Position>
              <LatitudeDegrees>42.84325542859733104705810546875</LatitudeDegrees>
              <LongitudeDegrees>-0.14352777041494846343994140625</LongitudeDegrees>
            </Position>
            <AltitudeMeters>1715.800048828125</AltitudeMeters>
            <DistanceMeters>2595.3809164144</DistanceMeters>
          </Trackpoint>
          <Trackpoint>
            <Time>2022-07-09T08:05:50.000Z</Time>
            <Position>
              <LatitudeDegrees>42.8432580269873142242431640625</LatitudeDegrees>
              <LongitudeDegrees>-0.143540762364864349365234375</LongitudeDegrees>
            </Position>
            <AltitudeMeters>1716</AltitudeMeters>
            <DistanceMeters>2596.4809301613</DistanceMeters>
          </Trackpoint>
          <Trackpoint>
            <Time>2022-07-09T08:05:56.000Z</Time>
            <Position>
              <LatitudeDegrees>42.84325274638831615447998046875</LatitudeDegrees>
              <LongitudeDegrees>-0.14356347732245922088623046875</LongitudeDegrees>
            </Position>
            <AltitudeMeters>1715.800048828125</AltitudeMeters>
            <DistanceMeters>2598.4260784924</DistanceMeters>
          </Trackpoint>
          <Trackpoint>
            <Time>2022-07-09T08:05:59.000Z</Time>
            <Position>
              <LatitudeDegrees>42.8432493098080158233642578125</LatitudeDegrees>
              <LongitudeDegrees>-0.143566243350505828857421875</LongitudeDegrees>
            </Position>
            <AltitudeMeters>1715.800048828125</AltitudeMeters>
            <DistanceMeters>2598.8615456041</DistanceMeters>
          </Trackpoint>
          <Trackpoint>
            <Time>2022-07-09T08:06:01.000Z</Time>
            <Position>
              <LatitudeDegrees>42.84325182437896728515625</LatitudeDegrees>
              <LongitudeDegrees>-0.14357185922563076019287109375</LongitudeDegrees>
            </Position>
            <AltitudeMeters>1715.800048828125</AltitudeMeters>
            <DistanceMeters>2599.3990978771</DistanceMeters>
          </Trackpoint>
          <Trackpoint>
            <Time>2022-07-09T08:06:04.000Z</Time>
            <Position>
              <LatitudeDegrees>42.84325140528380870819091796875</LatitudeDegrees>
              <LongitudeDegrees>-0.1435791514813899993896484375</LongitudeDegrees>
            </Position>
            <AltitudeMeters>1715.800048828125</AltitudeMeters>
            <DistanceMeters>2599.9925395181</DistanceMeters>
          </Trackpoint>
          <Trackpoint>
            <Time>2022-07-09T08:06:10.000Z</Time>
            <Position>
              <LatitudeDegrees>42.84325039945542812347412109375</LatitudeDegrees>
              <LongitudeDegrees>-0.14358275569975376129150390625</LongitudeDegrees>
            </Position>
            <AltitudeMeters>1715.5999755859375</AltitudeMeters>
            <DistanceMeters>2600.3077074747</DistanceMeters>
          </Trackpoint>
          <Trackpoint>
            <Time>2022-07-09T08:06:11.000Z</Time>
            <Position>
              <LatitudeDegrees>42.8432503156363964080810546875</LatitudeDegrees>
              <LongitudeDegrees>-0.14358275569975376129150390625</LongitudeDegrees>
            </Position>
            <AltitudeMeters>1715.5999755859375</AltitudeMeters>
            <DistanceMeters>2600.3077074747</DistanceMeters>
          </Trackpoint>
          <Trackpoint>
            <Time>2022-07-09T08:06:14.000Z</Time>
            <Position>
              <LatitudeDegrees>42.84324989654123783111572265625</LatitudeDegrees>
              <LongitudeDegrees>-0.14358879067003726959228515625</LongitudeDegrees>
            </Position>
            <AltitudeMeters>1715.5999755859375</AltitudeMeters>
            <DistanceMeters>2600.810541583</DistanceMeters>
          </Trackpoint>
          <Trackpoint>
            <Time>2022-07-09T08:06:17.000Z</Time>
            <Position>
              <LatitudeDegrees>42.84325693733990192413330078125</LatitudeDegrees>
              <LongitudeDegrees>-0.143602453172206878662109375</LongitudeDegrees>
            </Position>
            <AltitudeMeters>1715.800048828125</AltitudeMeters>
            <DistanceMeters>2602.1744315153</DistanceMeters>
          </Trackpoint>
          <Trackpoint>
            <Time>2022-07-09T08:06:21.000Z</Time>
            <Position>
              <LatitudeDegrees>42.8432623855769634246826171875</LatitudeDegrees>
              <LongitudeDegrees>-0.143596418201923370361328125</LongitudeDegrees>
            </Position>
            <AltitudeMeters>1716</AltitudeMeters>
            <DistanceMeters>2602.9580418765</DistanceMeters>
          </Trackpoint>
          <Trackpoint>
            <Time>2022-07-09T08:06:25.000Z</Time>
            <Position>
              <LatitudeDegrees>42.84326347522437572479248046875</LatitudeDegrees>
              <LongitudeDegrees>-0.14355182647705078125</LongitudeDegrees>
            </Position>
            <AltitudeMeters>1716.5999755859375</AltitudeMeters>
            <DistanceMeters>2606.6001816728</DistanceMeters>
          </Trackpoint>
          <Trackpoint>
            <Time>2022-07-09T08:06:30.000Z</Time>
            <Position>
              <LatitudeDegrees>42.8432786464691162109375</LatitudeDegrees>
              <LongitudeDegrees>-0.1435469649732112884521484375</LongitudeDegrees>
            </Position>
            <AltitudeMeters>1716.5999755859375</AltitudeMeters>
            <DistanceMeters>2608.3316508119</DistanceMeters>
          </Trackpoint>
          <Trackpoint>
            <Time>2022-07-09T08:06:31.000Z</Time>
            <Position>
              <LatitudeDegrees>42.843282334506511688232421875</LatitudeDegrees>
              <LongitudeDegrees>-0.14354319311678409576416015625</LongitudeDegrees>
            </Position>
            <AltitudeMeters>1716.4000244140625</AltitudeMeters>
            <DistanceMeters>2608.8521335621</DistanceMeters>
          </Trackpoint>
          <Trackpoint>
            <Time>2022-07-09T08:06:35.000Z</Time>
            <Position>
              <LatitudeDegrees>42.84328811801970005035400390625</LatitudeDegrees>
              <LongitudeDegrees>-0.14354051090776920318603515625</LongitudeDegrees>
            </Position>
            <AltitudeMeters>1716.4000244140625</AltitudeMeters>
            <DistanceMeters>2609.5307600416</DistanceMeters>
          </Trackpoint>
          <Trackpoint>
            <Time>2022-07-09T08:06:41.000Z</Time>
            <Position>
              <LatitudeDegrees>42.8432848490774631500244140625</LatitudeDegrees>
              <LongitudeDegrees>-0.1435462944209575653076171875</LongitudeDegrees>
            </Position>
            <AltitudeMeters>1716.4000244140625</AltitudeMeters>
            <DistanceMeters>2610.1317617535</DistanceMeters>
          </Trackpoint>
          <Trackpoint>
            <Time>2022-07-09T08:06:46.000Z</Time>
            <Position>
              <LatitudeDegrees>42.84327621571719646453857421875</LatitudeDegrees>
              <LongitudeDegrees>-0.14357219450175762176513671875</LongitudeDegrees>
            </Position>
            <AltitudeMeters>1716.4000244140625</AltitudeMeters>
            <DistanceMeters>2612.4555486873</DistanceMeters>
          </Trackpoint>
          <Trackpoint>
            <Time>2022-07-09T08:06:47.000Z</Time>
            <Position>
              <LatitudeDegrees>42.84327688626945018768310546875</LatitudeDegrees>
              <LongitudeDegrees>-0.1435692608356475830078125</LongitudeDegrees>
            </Position>
            <AltitudeMeters>1716.5999755859375</AltitudeMeters>
            <DistanceMeters>2612.7069657414</DistanceMeters>
          </Trackpoint>
          <Trackpoint>
            <Time>2022-07-09T08:06:51.000Z</Time>
            <Position>
              <LatitudeDegrees>42.84326917491853237152099609375</LatitudeDegrees>
              <LongitudeDegrees>-0.14354336075484752655029296875</LongitudeDegrees>
            </Position>
            <AltitudeMeters>1716.800048828125</AltitudeMeters>
            <DistanceMeters>2614.989585751</DistanceMeters>
          </Trackpoint>
          <Trackpoint>
            <Time>2022-07-09T08:06:57.000Z</Time>
            <Position>
              <LatitudeDegrees>42.84325224347412586212158203125</LatitudeDegrees>
              <LongitudeDegrees>-0.1435469649732112884521484375</LongitudeDegrees>
            </Position>
            <AltitudeMeters>1717.199951171875</AltitudeMeters>
            <DistanceMeters>2616.8995990712</DistanceMeters>
          </Trackpoint>
          <Trackpoint>
            <Time>2022-07-09T08:07:00.000Z</Time>
            <Position>
              <LatitudeDegrees>42.843266911804676055908203125</LatitudeDegrees>
              <LongitudeDegrees>-0.14353564940392971038818359375</LongitudeDegrees>
            </Position>
            <AltitudeMeters>1717.199951171875</AltitudeMeters>
            <DistanceMeters>2618.7738188387</DistanceMeters>
          </Trackpoint>
          <Trackpoint>
            <Time>2022-07-09T08:07:05.000Z</Time>
            <Position>
              <LatitudeDegrees>42.8433032892644405364990234375</LatitudeDegrees>
              <LongitudeDegrees>-0.14354034326970577239990234375</LongitudeDegrees>
            </Position>
            <AltitudeMeters>1717.5999755859375</AltitudeMeters>
            <DistanceMeters>2622.8389190702</DistanceMeters>
          </Trackpoint>
          <Trackpoint>
            <Time>2022-07-09T08:07:06.000Z</Time>
            <Position>
              <LatitudeDegrees>42.84330689348280429840087890625</LatitudeDegrees>
              <LongitudeDegrees>-0.14354436658322811126708984375</LongitudeDegrees>
            </Position>
            <AltitudeMeters>1717.5999755859375</AltitudeMeters>
            <DistanceMeters>2623.3506535882</DistanceMeters>
          </Trackpoint>
          <Trackpoint>
            <Time>2022-07-09T08:07:11.000Z</Time>
            <Position>
              <LatitudeDegrees>42.843341343104839324951171875</LatitudeDegrees>
              <LongitudeDegrees>-0.1435570232570171356201171875</LongitudeDegrees>
            </Position>
            <AltitudeMeters>1717.4000244140625</AltitudeMeters>
            <DistanceMeters>2627.3213605115</DistanceMeters>
          </Trackpoint>
          <Trackpoint>
            <Time>2022-07-09T08:07:12.000Z</Time>
            <Position>
              <LatitudeDegrees>42.843352742493152618408203125</LatitudeDegrees>
              <LongitudeDegrees>-0.143557526171207427978515625</LongitudeDegrees>
            </Position>
            <AltitudeMeters>1717.4000244140625</AltitudeMeters>
            <DistanceMeters>2628.5891750118</DistanceMeters>
          </Trackpoint>
          <Trackpoint>
            <Time>2022-07-09T08:07:13.000Z</Time>
            <Position>
              <LatitudeDegrees>42.84336380660533905029296875</LatitudeDegrees>
              <LongitudeDegrees>-0.1435638964176177978515625</LongitudeDegrees>
            </Position>
            <AltitudeMeters>1717.4000244140625</AltitudeMeters>
            <DistanceMeters>2629.9263194078</DistanceMeters>
          </Trackpoint>
          <Trackpoint>
            <Time>2022-07-09T08:07:14.000Z</Time>
            <Position>
              <LatitudeDegrees>42.84337461926043033599853515625</LatitudeDegrees>
              <LongitudeDegrees>-0.1435704343020915985107421875</LongitudeDegrees>
            </Position>
            <AltitudeMeters>1717.4000244140625</AltitudeMeters>
            <DistanceMeters>2631.2430481867</DistanceMeters>
          </Trackpoint>
          <Trackpoint>
            <Time>2022-07-09T08:07:16.000Z</Time>
            <Position>
              <LatitudeDegrees>42.8433926403522491455078125</LatitudeDegrees>
              <LongitudeDegrees>-0.14358602464199066162109375</LongitudeDegrees>
            </Position>
            <AltitudeMeters>1717.5999755859375</AltitudeMeters>
            <DistanceMeters>2633.6168147509</DistanceMeters>
          </Trackpoint>
          <Trackpoint>
            <Time>2022-07-09T08:07:17.000Z</Time>
            <Position>
              <LatitudeDegrees>42.84340160898864269256591796875</LatitudeDegrees>
              <LongitudeDegrees>-0.14359516091644763946533203125</LongitudeDegrees>
            </Position>
            <AltitudeMeters>1717.800048828125</AltitudeMeters>
            <DistanceMeters>2634.8666960352</DistanceMeters>
          </Trackpoint>
          <Trackpoint>
            <Time>2022-07-09T08:07:19.000Z</Time>
            <Position>
              <LatitudeDegrees>42.84342004917562007904052734375</LatitudeDegrees>
              <LongitudeDegrees>-0.143613182008266448974609375</LongitudeDegrees>
            </Position>
            <AltitudeMeters>1718.199951171875</AltitudeMeters>
            <DistanceMeters>2637.3916186022</DistanceMeters>
          </Trackpoint>
          <Trackpoint>
            <Time>2022-07-09T08:07:23.000Z</Time>
            <Position>
              <LatitudeDegrees>42.8434595279395580291748046875</LatitudeDegrees>
              <LongitudeDegrees>-0.14364578761160373687744140625</LongitudeDegrees>
            </Position>
            <AltitudeMeters>1718.5999755859375</AltitudeMeters>
            <DistanceMeters>2642.5283377272</DistanceMeters>
          </Trackpoint>
          <Trackpoint>
            <Time>2022-07-09T08:07:27.000Z</Time>
            <Position>
              <LatitudeDegrees>42.84349112771451473236083984375</LatitudeDegrees>
              <LongitudeDegrees>-0.143678896129131317138671875</LongitudeDegrees>
            </Position>
            <AltitudeMeters>1719</AltitudeMeters>
            <DistanceMeters>2646.9631439794</DistanceMeters>
          </Trackpoint>
          <Trackpoint>
            <Time>2022-07-09T08:07:33.000Z</Time>
            <Position>
              <LatitudeDegrees>42.84353320486843585968017578125</LatitudeDegrees>
              <LongitudeDegrees>-0.14372156001627445220947265625</LongitudeDegrees>
            </Position>
            <AltitudeMeters>1719.5999755859375</AltitudeMeters>
            <DistanceMeters>2652.7985889728</DistanceMeters>
          </Trackpoint>
          <Trackpoint>
            <Time>2022-07-09T08:07:34.000Z</Time>
            <Position>
              <LatitudeDegrees>42.84353974275290966033935546875</LatitudeDegrees>
              <LongitudeDegrees>-0.1437283493578433990478515625</LongitudeDegrees>
            </Position>
            <AltitudeMeters>1719.800048828125</AltitudeMeters>
            <DistanceMeters>2653.7149934191</DistanceMeters>
          </Trackpoint>
          <Trackpoint>
            <Time>2022-07-09T08:07:38.000Z</Time>
            <Position>
              <LatitudeDegrees>42.84357570111751556396484375</LatitudeDegrees>
              <LongitudeDegrees>-0.14377201907336711883544921875</LongitudeDegrees>
            </Position>
            <AltitudeMeters>1720.5999755859375</AltitudeMeters>
            <DistanceMeters>2659.0736913106</DistanceMeters>
          </Trackpoint>
          <Trackpoint>
            <Time>2022-07-09T08:07:39.000Z</Time>
            <Position>
              <LatitudeDegrees>42.84358349628746509552001953125</LatitudeDegrees>
              <LongitudeDegrees>-0.14378450810909271240234375</LongitudeDegrees>
            </Position>
            <AltitudeMeters>1721</AltitudeMeters>
            <DistanceMeters>2660.4142080812</DistanceMeters>
          </Trackpoint>
          <Trackpoint>
            <Time>2022-07-09T08:07:40.000Z</Time>
            <Position>
              <LatitudeDegrees>42.84359405748546123504638671875</LatitudeDegrees>
              <LongitudeDegrees>-0.143795572221279144287109375</LongitudeDegrees>
            </Position>
            <AltitudeMeters>1721.199951171875</AltitudeMeters>
            <DistanceMeters>2661.8985728114</DistanceMeters>
          </Trackpoint>
          <Trackpoint>
            <Time>2022-07-09T08:07:43.000Z</Time>
            <Position>
              <LatitudeDegrees>42.84361719153821468353271484375</LatitudeDegrees>
              <LongitudeDegrees>-0.1438366435468196868896484375</LongitudeDegrees>
            </Position>
            <AltitudeMeters>1721.199951171875</AltitudeMeters>
            <DistanceMeters>2666.1248585573</DistanceMeters>
          </Trackpoint>
          <Trackpoint>
            <Time>2022-07-09T08:07:45.000Z</Time>
            <Position>
              <LatitudeDegrees>42.8436335362493991851806640625</LatitudeDegrees>
              <LongitudeDegrees>-0.1438587717711925506591796875</LongitudeDegrees>
            </Position>
            <AltitudeMeters>1721.4000244140625</AltitudeMeters>
            <DistanceMeters>2668.6888194874</DistanceMeters>
          </Trackpoint>
          <Trackpoint>
            <Time>2022-07-09T08:07:47.000Z</Time>
            <Position>
              <LatitudeDegrees>42.8436501324176788330078125</LatitudeDegrees>
              <LongitudeDegrees>-0.143871009349822998046875</LongitudeDegrees>
            </Position>
            <AltitudeMeters>1721.199951171875</AltitudeMeters>
            <DistanceMeters>2670.7901779483</DistanceMeters>
          </Trackpoint>
          <Trackpoint>
            <Time>2022-07-09T08:07:53.000Z</Time>
            <Position>
              <LatitudeDegrees>42.84370184876024723052978515625</LatitudeDegrees>
              <LongitudeDegrees>-0.14390520751476287841796875</LongitudeDegrees>
            </Position>
            <AltitudeMeters>1721.800048828125</AltitudeMeters>
            <DistanceMeters>2677.1866829602</DistanceMeters>
          </Trackpoint>
          <Trackpoint>
            <Time>2022-07-09T08:07:54.000Z</Time>
            <Position>
              <LatitudeDegrees>42.8437116555869579315185546875</LatitudeDegrees>
              <LongitudeDegrees>-0.143910236656665802001953125</LongitudeDegrees>
            </Position>
            <AltitudeMeters>1722</AltitudeMeters>
            <DistanceMeters>2678.354390776</DistanceMeters>
          </Trackpoint>
          <Trackpoint>
            <Time>2022-07-09T08:07:56.000Z</Time>
            <Position>
              <LatitudeDegrees>42.84373504109680652618408203125</LatitudeDegrees>
              <LongitudeDegrees>-0.14391819946467876434326171875</LongitudeDegrees>
            </Position>
            <AltitudeMeters>1722.199951171875</AltitudeMeters>
            <DistanceMeters>2681.0387903369</DistanceMeters>
          </Trackpoint>
          <Trackpoint>
            <Time>2022-07-09T08:07:58.000Z</Time>
            <Position>
              <LatitudeDegrees>42.84375532530248165130615234375</LatitudeDegrees>
              <LongitudeDegrees>-0.14393663965165615081787109375</LongitudeDegrees>
            </Position>
            <AltitudeMeters>1722.4000244140625</AltitudeMeters>
            <DistanceMeters>2683.7516324447</DistanceMeters>
          </Trackpoint>
          <Trackpoint>
            <Time>2022-07-09T08:08:01.000Z</Time>
            <Position>
              <LatitudeDegrees>42.84377946518361568450927734375</LatitudeDegrees>
              <LongitudeDegrees>-0.143974609673023223876953125</LongitudeDegrees>
            </Position>
            <AltitudeMeters>1722.800048828125</AltitudeMeters>
            <DistanceMeters>2687.8521205057</DistanceMeters>
          </Trackpoint>
          <Trackpoint>
            <Time>2022-07-09T08:08:02.000Z</Time>
            <Position>
              <LatitudeDegrees>42.8437844105064868927001953125</LatitudeDegrees>
              <LongitudeDegrees>-0.14399179257452487945556640625</LongitudeDegrees>
            </Position>
            <AltitudeMeters>1723.199951171875</AltitudeMeters>
            <DistanceMeters>2689.3606228305</DistanceMeters>
          </Trackpoint>
          <Trackpoint>
            <Time>2022-07-09T08:08:08.000Z</Time>
            <Position>
              <LatitudeDegrees>42.84381785430014133453369140625</LatitudeDegrees>
              <LongitudeDegrees>-0.1440599374473094940185546875</LongitudeDegrees>
            </Position>
            <AltitudeMeters>1723.800048828125</AltitudeMeters>
            <DistanceMeters>2696.053094658</DistanceMeters>
          </Trackpoint>
          <Trackpoint>
            <Time>2022-07-09T08:08:09.000Z</Time>
            <Position>
              <LatitudeDegrees>42.84382740966975688934326171875</LatitudeDegrees>
              <LongitudeDegrees>-0.14406823553144931793212890625</LongitudeDegrees>
            </Position>
            <AltitudeMeters>1723.800048828125</AltitudeMeters>
            <DistanceMeters>2697.3137664845</DistanceMeters>
          </Trackpoint>
          <Trackpoint>
            <Time>2022-07-09T08:08:12.000Z</Time>
            <Position>
              <LatitudeDegrees>42.84386269748210906982421875</LatitudeDegrees>
              <LongitudeDegrees>-0.14409388415515422821044921875</LongitudeDegrees>
            </Position>
            <AltitudeMeters>1724.199951171875</AltitudeMeters>
            <DistanceMeters>2701.7648323926</DistanceMeters>
          </Trackpoint>
          <Trackpoint>
            <Time>2022-07-09T08:08:16.000Z</Time>
            <Position>
              <LatitudeDegrees>42.84390368498861789703369140625</LatitudeDegrees>
              <LongitudeDegrees>-0.1441290043294429779052734375</LongitudeDegrees>
            </Position>
            <AltitudeMeters>1724.5999755859375</AltitudeMeters>
            <DistanceMeters>2707.1521012452</DistanceMeters>
          </Trackpoint>
          <Trackpoint>
            <Time>2022-07-09T08:08:19.000Z</Time>
            <Position>
              <LatitudeDegrees>42.8439295850694179534912109375</LatitudeDegrees>
              <LongitudeDegrees>-0.14414451085031032562255859375</LongitudeDegrees>
            </Position>
            <AltitudeMeters>1725.199951171875</AltitudeMeters>
            <DistanceMeters>2710.2980452661</DistanceMeters>
          </Trackpoint>
          <Trackpoint>
            <Time>2022-07-09T08:08:20.000Z</Time>
            <Position>
              <LatitudeDegrees>42.843940146267414093017578125</LatitudeDegrees>
              <LongitudeDegrees>-0.14414853416383266448974609375</LongitudeDegrees>
            </Position>
            <AltitudeMeters>1725.199951171875</AltitudeMeters>
            <DistanceMeters>2711.5149809821</DistanceMeters>
          </Trackpoint>
          <Trackpoint>
            <Time>2022-07-09T08:08:24.000Z</Time>
            <Position>
              <LatitudeDegrees>42.8439879231154918670654296875</LatitudeDegrees>
              <LongitudeDegrees>-0.1441682316362857818603515625</LongitudeDegrees>
            </Position>
            <AltitudeMeters>1726</AltitudeMeters>
            <DistanceMeters>2717.0705908753</DistanceMeters>
          </Trackpoint>
          <Trackpoint>
            <Time>2022-07-09T08:08:25.000Z</Time>
            <Position>
              <LatitudeDegrees>42.8439986519515514373779296875</LatitudeDegrees>
              <LongitudeDegrees>-0.14416948892176151275634765625</LongitudeDegrees>
            </Position>
            <AltitudeMeters>1726.199951171875</AltitudeMeters>
            <DistanceMeters>2718.2650581533</DistanceMeters>
          </Trackpoint>
          <Trackpoint>
            <Time>2022-07-09T08:08:26.000Z</Time>
            <Position>
              <LatitudeDegrees>42.84400728531181812286376953125</LatitudeDegrees>
              <LongitudeDegrees>-0.1441715843975543975830078125</LongitudeDegrees>
            </Position>
            <AltitudeMeters>1726.4000244140625</AltitudeMeters>
            <DistanceMeters>2719.234144295</DistanceMeters>
          </Trackpoint>
          <Trackpoint>
            <Time>2022-07-09T08:08:32.000Z</Time>
            <Position>
              <LatitudeDegrees>42.844060175120830535888671875</LatitudeDegrees>
              <LongitudeDegrees>-0.1442024298012256622314453125</LongitudeDegrees>
            </Position>
            <AltitudeMeters>1727</AltitudeMeters>
            <DistanceMeters>2725.6369988971</DistanceMeters>
          </Trackpoint>
          <Trackpoint>
            <Time>2022-07-09T08:08:33.000Z</Time>
            <Position>
              <LatitudeDegrees>42.84406646154820919036865234375</LatitudeDegrees>
              <LongitudeDegrees>-0.1442057825624942779541015625</LongitudeDegrees>
            </Position>
            <AltitudeMeters>1727.199951171875</AltitudeMeters>
            <DistanceMeters>2726.3852399943</DistanceMeters>
          </Trackpoint>
          <Trackpoint>
            <Time>2022-07-09T08:08:34.000Z</Time>
            <Position>
              <LatitudeDegrees>42.84407232888042926788330078125</LatitudeDegrees>
              <LongitudeDegrees>-0.14421156607568264007568359375</LongitudeDegrees>
            </Position>
            <AltitudeMeters>1727.4000244140625</AltitudeMeters>
            <DistanceMeters>2727.1915684038</DistanceMeters>
          </Trackpoint>
          <Trackpoint>
            <Time>2022-07-09T08:08:36.000Z</Time>
            <Position>
              <LatitudeDegrees>42.8440931998193264007568359375</LatitudeDegrees>
              <LongitudeDegrees>-0.144222043454647064208984375</LongitudeDegrees>
            </Position>
            <AltitudeMeters>1728.5999755859375</AltitudeMeters>
            <DistanceMeters>2729.6677392189</DistanceMeters>
          </Trackpoint>
          <Trackpoint>
            <Time>2022-07-09T08:08:39.000Z</Time>
            <Position>
              <LatitudeDegrees>42.8441391326487064361572265625</LatitudeDegrees>
              <LongitudeDegrees>-0.14423310756683349609375</LongitudeDegrees>
            </Position>
            <AltitudeMeters>1729.199951171875</AltitudeMeters>
            <DistanceMeters>2734.8595383469</DistanceMeters>
          </Trackpoint>
          <Trackpoint>
            <Time>2022-07-09T08:08:40.000Z</Time>
            <Position>
              <LatitudeDegrees>42.84415145404636859893798828125</LatitudeDegrees>
              <LongitudeDegrees>-0.14424316585063934326171875</LongitudeDegrees>
            </Position>
            <AltitudeMeters>1729.4000244140625</AltitudeMeters>
            <DistanceMeters>2736.4609570023</DistanceMeters>
          </Trackpoint>
          <Trackpoint>
            <Time>2022-07-09T08:08:42.000Z</Time>
            <Position>
              <LatitudeDegrees>42.84417056478559970855712890625</LatitudeDegrees>
              <LongitudeDegrees>-0.14425951056182384490966796875</LongitudeDegrees>
            </Position>
            <AltitudeMeters>1729.5999755859375</AltitudeMeters>
            <DistanceMeters>2738.9715333023</DistanceMeters>
          </Trackpoint>
          <Trackpoint>
            <Time>2022-07-09T08:08:48.000Z</Time>
            <Position>
              <LatitudeDegrees>42.84420778043568134307861328125</LatitudeDegrees>
              <LongitudeDegrees>-0.1443080417811870574951171875</LongitudeDegrees>
            </Position>
            <AltitudeMeters>1730</AltitudeMeters>
            <DistanceMeters>2744.7031489648</DistanceMeters>
          </Trackpoint>
          <Trackpoint>
            <Time>2022-07-09T08:08:54.000Z</Time>
            <Position>
              <LatitudeDegrees>42.84423929639160633087158203125</LatitudeDegrees>
              <LongitudeDegrees>-0.1443650387227535247802734375</LongitudeDegrees>
            </Position>
            <AltitudeMeters>1730.800048828125</AltitudeMeters>
            <DistanceMeters>2750.5300767514</DistanceMeters>
          </Trackpoint>
          <Trackpoint>
            <Time>2022-07-09T08:08:56.000Z</Time>
            <Position>
              <LatitudeDegrees>42.84425153397023677825927734375</LatitudeDegrees>
              <LongitudeDegrees>-0.1443968899548053741455078125</LongitudeDegrees>
            </Position>
            <AltitudeMeters>1731</AltitudeMeters>
            <DistanceMeters>2753.4666943642</DistanceMeters>
          </Trackpoint>
          <Trackpoint>
            <Time>2022-07-09T08:08:59.000Z</Time>
            <Position>
              <LatitudeDegrees>42.84427248872816562652587890625</LatitudeDegrees>
              <LongitudeDegrees>-0.14444164931774139404296875</LongitudeDegrees>
            </Position>
            <AltitudeMeters>1731.4000244140625</AltitudeMeters>
            <DistanceMeters>2757.8005793423</DistanceMeters>
          </Trackpoint>
          <Trackpoint>
            <Time>2022-07-09T08:09:00.000Z</Time>
            <Position>
              <LatitudeDegrees>42.84427885897457599639892578125</LatitudeDegrees>
              <LongitudeDegrees>-0.14445497654378414154052734375</LongitudeDegrees>
            </Position>
            <AltitudeMeters>1731.4000244140625</AltitudeMeters>
            <DistanceMeters>2759.0965709389</DistanceMeters>
          </Trackpoint>
          <Trackpoint>
            <Time>2022-07-09T08:09:01.000Z</Time>
            <Position>
              <LatitudeDegrees>42.84428606741130352020263671875</LatitudeDegrees>
              <LongitudeDegrees>-0.144466795027256011962890625</LongitudeDegrees>
            </Position>
            <AltitudeMeters>1731.800048828125</AltitudeMeters>
            <DistanceMeters>2760.3464522232</DistanceMeters>
          </Trackpoint>
          <Trackpoint>
            <Time>2022-07-09T08:09:03.000Z</Time>
            <Position>
              <LatitudeDegrees>42.84429746679961681365966796875</LatitudeDegrees>
              <LongitudeDegrees>-0.144485570490360260009765625</LongitudeDegrees>
            </Position>
            <AltitudeMeters>1732</AltitudeMeters>
            <DistanceMeters>2762.3352140195</DistanceMeters>
          </Trackpoint>
          <Trackpoint>
            <Time>2022-07-09T08:09:06.000Z</Time>
            <Position>
              <LatitudeDegrees>42.844319008290767669677734375</LatitudeDegrees>
              <LongitudeDegrees>-0.14450778253376483917236328125</LongitudeDegrees>
            </Position>
            <AltitudeMeters>1732.800048828125</AltitudeMeters>
            <DistanceMeters>2765.3402225792</DistanceMeters>
          </Trackpoint>
          <Trackpoint>
            <Time>2022-07-09T08:09:12.000Z</Time>
            <Position>
              <LatitudeDegrees>42.84438933245837688446044921875</LatitudeDegrees>
              <LongitudeDegrees>-0.14455170370638370513916015625</LongitudeDegrees>
            </Position>
            <AltitudeMeters>1733.5999755859375</AltitudeMeters>
            <DistanceMeters>2773.9484051574</DistanceMeters>
          </Trackpoint>
          <Trackpoint>
            <Time>2022-07-09T08:09:14.000Z</Time>
            <Position>
              <LatitudeDegrees>42.84441112540662288665771484375</LatitudeDegrees>
              <LongitudeDegrees>-0.14456368982791900634765625</LongitudeDegrees>
            </Position>
            <AltitudeMeters>1733.800048828125</AltitudeMeters>
            <DistanceMeters>2776.5629353003</DistanceMeters>
          </Trackpoint>
          <Trackpoint>
            <Time>2022-07-09T08:09:20.000Z</Time>
            <Position>
              <LatitudeDegrees>42.844488658010959625244140625</LatitudeDegrees>
              <LongitudeDegrees>-0.14459319412708282470703125</LongitudeDegrees>
            </Position>
            <AltitudeMeters>1735</AltitudeMeters>
            <DistanceMeters>2785.5221958451</DistanceMeters>
          </Trackpoint>
          <Trackpoint>
            <Time>2022-07-09T08:09:22.000Z</Time>
            <Position>
              <LatitudeDegrees>42.8445122949779033660888671875</LatitudeDegrees>
              <LongitudeDegrees>-0.14460383914411067962646484375</LongitudeDegrees>
            </Position>
            <AltitudeMeters>1735.199951171875</AltitudeMeters>
            <DistanceMeters>2788.2910466719</DistanceMeters>
          </Trackpoint>
          <Trackpoint>
            <Time>2022-07-09T08:09:26.000Z</Time>
            <Position>
              <LatitudeDegrees>42.844567783176898956298828125</LatitudeDegrees>
              <LongitudeDegrees>-0.14459780417382717132568359375</LongitudeDegrees>
            </Position>
            <AltitudeMeters>1736.199951171875</AltitudeMeters>
            <DistanceMeters>2794.4867592995</DistanceMeters>
          </Trackpoint>
          <Trackpoint>
            <Time>2022-07-09T08:09:30.000Z</Time>
            <Position>
              <LatitudeDegrees>42.84460944123566150665283203125</LatitudeDegrees>
              <LongitudeDegrees>-0.1446292363107204437255859375</LongitudeDegrees>
            </Position>
            <AltitudeMeters>1737.199951171875</AltitudeMeters>
            <DistanceMeters>2799.7844453592</DistanceMeters>
          </Trackpoint>
          <Trackpoint>
            <Time>2022-07-09T08:09:31.000Z</Time>
            <Position>
              <LatitudeDegrees>42.84461949951946735382080078125</LatitudeDegrees>
              <LongitudeDegrees>-0.144642479717731475830078125</LongitudeDegrees>
            </Position>
            <AltitudeMeters>1737.199951171875</AltitudeMeters>
            <DistanceMeters>2801.34589361</DistanceMeters>
          </Trackpoint>
          <Trackpoint>
            <Time>2022-07-09T08:09:32.000Z</Time>
            <Position>
              <LatitudeDegrees>42.84462871961295604705810546875</LatitudeDegrees>
              <LongitudeDegrees>-0.14465396292507648468017578125</LongitudeDegrees>
            </Position>
            <AltitudeMeters>1737.199951171875</AltitudeMeters>
            <DistanceMeters>2802.7360145972</DistanceMeters>
          </Trackpoint>
          <Trackpoint>
            <Time>2022-07-09T08:09:33.000Z</Time>
            <Position>
              <LatitudeDegrees>42.84463651478290557861328125</LatitudeDegrees>
              <LongitudeDegrees>-0.14466586522758007049560546875</LongitudeDegrees>
            </Position>
            <AltitudeMeters>1737.5999755859375</AltitudeMeters>
            <DistanceMeters>2804.0354853722</DistanceMeters>
          </Trackpoint>
          <Trackpoint>
            <Time>2022-07-09T08:09:37.000Z</Time>
            <Position>
              <LatitudeDegrees>42.84466710872948169708251953125</LatitudeDegrees>
              <LongitudeDegrees>-0.14469838701188564300537109375</LongitudeDegrees>
            </Position>
            <AltitudeMeters>1738</AltitudeMeters>
            <DistanceMeters>2808.3526693826</DistanceMeters>
          </Trackpoint>
          <Trackpoint>
            <Time>2022-07-09T08:09:38.000Z</Time>
            <Position>
              <LatitudeDegrees>42.84467649646103382110595703125</LatitudeDegrees>
              <LongitudeDegrees>-0.14470643363893032073974609375</LongitudeDegrees>
            </Position>
            <AltitudeMeters>1738</AltitudeMeters>
            <DistanceMeters>2809.5916661524</DistanceMeters>
          </Trackpoint>
          <Trackpoint>
            <Time>2022-07-09T08:09:44.000Z</Time>
            <Position>
              <LatitudeDegrees>42.844730727374553680419921875</LatitudeDegrees>
              <LongitudeDegrees>-0.144771225750446319580078125</LongitudeDegrees>
            </Position>
            <AltitudeMeters>1738</AltitudeMeters>
            <DistanceMeters>2817.6162206648</DistanceMeters>
          </Trackpoint>
          <Trackpoint>
            <Time>2022-07-09T08:09:46.000Z</Time>
            <Position>
              <LatitudeDegrees>42.84474941901862621307373046875</LatitudeDegrees>
              <LongitudeDegrees>-0.1447977125644683837890625</LongitudeDegrees>
            </Position>
            <AltitudeMeters>1738.199951171875</AltitudeMeters>
            <DistanceMeters>2820.6152131853</DistanceMeters>
          </Trackpoint>
          <Trackpoint>
            <Time>2022-07-09T08:09:51.000Z</Time>
            <Position>
              <LatitudeDegrees>42.8447875566780567169189453125</LatitudeDegrees>
              <LongitudeDegrees>-0.14487725682556629180908203125</LongitudeDegrees>
            </Position>
            <AltitudeMeters>1738.5999755859375</AltitudeMeters>
            <DistanceMeters>2828.3708136903</DistanceMeters>
          </Trackpoint>
          <Trackpoint>
            <Time>2022-07-09T08:09:52.000Z</Time>
            <Position>
              <LatitudeDegrees>42.84477490000426769256591796875</LatitudeDegrees>
              <LongitudeDegrees>-0.14493945054709911346435546875</LongitudeDegrees>
            </Position>
            <AltitudeMeters>1738.800048828125</AltitudeMeters>
            <DistanceMeters>2833.6368714909</DistanceMeters>
          </Trackpoint>
          <Trackpoint>
            <Time>2022-07-09T08:09:58.000Z</Time>
            <Position>
              <LatitudeDegrees>42.84486458636820316314697265625</LatitudeDegrees>
              <LongitudeDegrees>-0.14492176473140716552734375</LongitudeDegrees>
            </Position>
            <AltitudeMeters>1739.4000244140625</AltitudeMeters>
            <DistanceMeters>2843.7231414267</DistanceMeters>
          </Trackpoint>
          <Trackpoint>
            <Time>2022-07-09T08:09:59.000Z</Time>
            <Position>
              <LatitudeDegrees>42.84487791359424591064453125</LatitudeDegrees>
              <LongitudeDegrees>-0.14492151327431201934814453125</LongitudeDegrees>
            </Position>
            <AltitudeMeters>1739.4000244140625</AltitudeMeters>
            <DistanceMeters>2845.2075061569</DistanceMeters>
          </Trackpoint>
          <Trackpoint>
            <Time>2022-07-09T08:10:05.000Z</Time>
            <Position>
              <LatitudeDegrees>42.8449461422860622406005859375</LatitudeDegrees>
              <LongitudeDegrees>-0.1449165679514408111572265625</LongitudeDegrees>
            </Position>
            <AltitudeMeters>1739.5999755859375</AltitudeMeters>
            <DistanceMeters>2852.8120186033</DistanceMeters>
          </Trackpoint>
          <Trackpoint>
            <Time>2022-07-09T08:10:06.000Z</Time>
            <Position>
              <LatitudeDegrees>42.844960391521453857421875</LatitudeDegrees>
              <LongitudeDegrees>-0.1449155621230602264404296875</LongitudeDegrees>
            </Position>
            <AltitudeMeters>1739.5999755859375</AltitudeMeters>
            <DistanceMeters>2854.4021196706</DistanceMeters>
          </Trackpoint>
          <Trackpoint>
            <Time>2022-07-09T08:10:07.000Z</Time>
            <Position>
              <LatitudeDegrees>42.844969443976879119873046875</LatitudeDegrees>
              <LongitudeDegrees>-0.14490810222923755645751953125</LongitudeDegrees>
            </Position>
            <AltitudeMeters>1739.800048828125</AltitudeMeters>
            <DistanceMeters>2855.5813701836</DistanceMeters>
          </Trackpoint>
          <Trackpoint>
            <Time>2022-07-09T08:10:10.000Z</Time>
            <Position>
              <LatitudeDegrees>42.84503691829741001129150390625</LatitudeDegrees>
              <LongitudeDegrees>-0.14484792016446590423583984375</LongitudeDegrees>
            </Position>
            <AltitudeMeters>1740.800048828125</AltitudeMeters>
            <DistanceMeters>2864.5547302929</DistanceMeters>
          </Trackpoint>
          <Trackpoint>
            <Time>2022-07-09T08:10:12.000Z</Time>
            <Position>
              <LatitudeDegrees>42.84504530020058155059814453125</LatitudeDegrees>
              <LongitudeDegrees>-0.1448397897183895111083984375</LongitudeDegrees>
            </Position>
            <AltitudeMeters>1741</AltitudeMeters>
            <DistanceMeters>2865.7029424513</DistanceMeters>
          </Trackpoint>
          <Trackpoint>
            <Time>2022-07-09T08:10:18.000Z</Time>
            <Position>
              <LatitudeDegrees>42.845043875277042388916015625</LatitudeDegrees>
              <LongitudeDegrees>-0.1448325812816619873046875</LongitudeDegrees>
            </Position>
            <AltitudeMeters>1741.5999755859375</AltitudeMeters>
            <DistanceMeters>2866.3187859466</DistanceMeters>
          </Trackpoint>
          <Trackpoint>
            <Time>2022-07-09T08:10:19.000Z</Time>
            <Position>
              <LatitudeDegrees>42.84504152834415435791015625</LatitudeDegrees>
              <LongitudeDegrees>-0.14481388963758945465087890625</LongitudeDegrees>
            </Position>
            <AltitudeMeters>1741.5999755859375</AltitudeMeters>
            <DistanceMeters>2867.8657087816</DistanceMeters>
          </Trackpoint>
          <Trackpoint>
            <Time>2022-07-09T08:10:25.000Z</Time>
            <Position>
              <LatitudeDegrees>42.8450381755828857421875</LatitudeDegrees>
              <LongitudeDegrees>-0.1447777636349201202392578125</LongitudeDegrees>
            </Position>
            <AltitudeMeters>1741.5999755859375</AltitudeMeters>
            <DistanceMeters>2870.8359587182</DistanceMeters>
          </Trackpoint>
          <Trackpoint>
            <Time>2022-07-09T08:10:31.000Z</Time>
            <Position>
              <LatitudeDegrees>42.8450286202132701873779296875</LatitudeDegrees>
              <LongitudeDegrees>-0.14477499760687351226806640625</LongitudeDegrees>
            </Position>
            <AltitudeMeters>1742</AltitudeMeters>
            <DistanceMeters>2871.9194299627</DistanceMeters>
          </Trackpoint>
          <Trackpoint>
            <Time>2022-07-09T08:10:36.000Z</Time>
            <Position>
              <LatitudeDegrees>42.84501596353948116302490234375</LatitudeDegrees>
              <LongitudeDegrees>-0.14476527459919452667236328125</LongitudeDegrees>
            </Position>
            <AltitudeMeters>1742</AltitudeMeters>
            <DistanceMeters>2873.5376765968</DistanceMeters>
          </Trackpoint>
          <Trackpoint>
            <Time>2022-07-09T08:10:38.000Z</Time>
            <Position>
              <LatitudeDegrees>42.8450098447501659393310546875</LatitudeDegrees>
              <LongitudeDegrees>-0.14476242475211620330810546875</LongitudeDegrees>
            </Position>
            <AltitudeMeters>1742</AltitudeMeters>
            <DistanceMeters>2874.2613784925</DistanceMeters>
          </Trackpoint>
          <Trackpoint>
            <Time>2022-07-09T08:10:41.000Z</Time>
            <Position>
              <LatitudeDegrees>42.84500272013247013092041015625</LatitudeDegrees>
              <LongitudeDegrees>-0.1447566412389278411865234375</LongitudeDegrees>
            </Position>
            <AltitudeMeters>1742.199951171875</AltitudeMeters>
            <DistanceMeters>2875.192446341</DistanceMeters>
          </Trackpoint>
          <Trackpoint>
            <Time>2022-07-09T08:10:46.000Z</Time>
            <Position>
              <LatitudeDegrees>42.84499819390475749969482421875</LatitudeDegrees>
              <LongitudeDegrees>-0.14472671784460544586181640625</LongitudeDegrees>
            </Position>
            <AltitudeMeters>1742.199951171875</AltitudeMeters>
            <DistanceMeters>2877.6867844636</DistanceMeters>
          </Trackpoint>
          <Trackpoint>
            <Time>2022-07-09T08:10:52.000Z</Time>
            <Position>
              <LatitudeDegrees>42.84500892274081707000732421875</LatitudeDegrees>
              <LongitudeDegrees>-0.14469855464994907379150390625</LongitudeDegrees>
            </Position>
            <AltitudeMeters>1742</AltitudeMeters>
            <DistanceMeters>2880.2752814641</DistanceMeters>
          </Trackpoint>
          <Trackpoint>
            <Time>2022-07-09T08:10:58.000Z</Time>
            <Position>
              <LatitudeDegrees>42.8450437076389789581298828125</LatitudeDegrees>
              <LongitudeDegrees>-0.14475605450570583343505859375</LongitudeDegrees>
            </Position>
            <AltitudeMeters>1742.199951171875</AltitudeMeters>
            <DistanceMeters>2886.358475795</DistanceMeters>
          </Trackpoint>
          <Trackpoint>
            <Time>2022-07-09T08:11:03.000Z</Time>
            <Position>
              <LatitudeDegrees>42.84506742842495441436767578125</LatitudeDegrees>
              <LongitudeDegrees>-0.14484121464192867279052734375</LongitudeDegrees>
            </Position>
            <AltitudeMeters>1742.199951171875</AltitudeMeters>
            <DistanceMeters>2893.7924564135</DistanceMeters>
          </Trackpoint>
          <Trackpoint>
            <Time>2022-07-09T08:11:06.000Z</Time>
            <Position>
              <LatitudeDegrees>42.84508352167904376983642578125</LatitudeDegrees>
              <LongitudeDegrees>-0.14489184133708477020263671875</LongitudeDegrees>
            </Position>
            <AltitudeMeters>1742.4000244140625</AltitudeMeters>
            <DistanceMeters>2898.293955224</DistanceMeters>
          </Trackpoint>
          <Trackpoint>
            <Time>2022-07-09T08:11:12.000Z</Time>
            <Position>
              <LatitudeDegrees>42.8451110981404781341552734375</LatitudeDegrees>
              <LongitudeDegrees>-0.1449806056916713714599609375</LongitudeDegrees>
            </Position>
            <AltitudeMeters>1743.199951171875</AltitudeMeters>
            <DistanceMeters>2906.1611112506</DistanceMeters>
          </Trackpoint>
          <Trackpoint>
            <Time>2022-07-09T08:11:14.000Z</Time>
            <Position>
              <LatitudeDegrees>42.8451235033571720123291015625</LatitudeDegrees>
              <LongitudeDegrees>-0.14501119963824748992919921875</LongitudeDegrees>
            </Position>
            <AltitudeMeters>1743.5999755859375</AltitudeMeters>
            <DistanceMeters>2909.0134960205</DistanceMeters>
          </Trackpoint>
          <Trackpoint>
            <Time>2022-07-09T08:11:16.000Z</Time>
            <Position>
              <LatitudeDegrees>42.84514035098254680633544921875</LatitudeDegrees>
              <LongitudeDegrees>-0.14504020102322101593017578125</LongitudeDegrees>
            </Position>
            <AltitudeMeters>1743.800048828125</AltitudeMeters>
            <DistanceMeters>2912.0319968292</DistanceMeters>
          </Trackpoint>
          <Trackpoint>
            <Time>2022-07-09T08:11:18.000Z</Time>
            <Position>
              <LatitudeDegrees>42.84515208564698696136474609375</LatitudeDegrees>
              <LongitudeDegrees>-0.14507004059851169586181640625</LongitudeDegrees>
            </Position>
            <AltitudeMeters>1744.199951171875</AltitudeMeters>
            <DistanceMeters>2914.7943173383</DistanceMeters>
          </Trackpoint>
          <Trackpoint>
            <Time>2022-07-09T08:11:19.000Z</Time>
            <Position>
              <LatitudeDegrees>42.84515694715082645416259765625</LatitudeDegrees>
              <LongitudeDegrees>-0.14508663676679134368896484375</LongitudeDegrees>
            </Position>
            <AltitudeMeters>1744.199951171875</AltitudeMeters>
            <DistanceMeters>2916.2541454244</DistanceMeters>
          </Trackpoint>
          <Trackpoint>
            <Time>2022-07-09T08:11:22.000Z</Time>
            <Position>
              <LatitudeDegrees>42.8451734595000743865966796875</LatitudeDegrees>
              <LongitudeDegrees>-0.14512435533106327056884765625</LongitudeDegrees>
            </Position>
            <AltitudeMeters>1744.800048828125</AltitudeMeters>
            <DistanceMeters>2919.840066346</DistanceMeters>
          </Trackpoint>
          <Trackpoint>
            <Time>2022-07-09T08:11:24.000Z</Time>
            <Position>
              <LatitudeDegrees>42.84519064240157604217529296875</LatitudeDegrees>
              <LongitudeDegrees>-0.14513877220451831817626953125</LongitudeDegrees>
            </Position>
            <AltitudeMeters>1745</AltitudeMeters>
            <DistanceMeters>2922.0847896376</DistanceMeters>
          </Trackpoint>
          <Trackpoint>
            <Time>2022-07-09T08:11:25.000Z</Time>
            <Position>
              <LatitudeDegrees>42.845198772847652435302734375</LatitudeDegrees>
              <LongitudeDegrees>-0.14514413662254810333251953125</LongitudeDegrees>
            </Position>
            <AltitudeMeters>1745.199951171875</AltitudeMeters>
            <DistanceMeters>2923.0904578541</DistanceMeters>
          </Trackpoint>
          <Trackpoint>
            <Time>2022-07-09T08:11:26.000Z</Time>
            <Position>
              <LatitudeDegrees>42.845206819474697113037109375</LatitudeDegrees>
              <LongitudeDegrees>-0.1451539434492588043212890625</LongitudeDegrees>
            </Position>
            <AltitudeMeters>1745.4000244140625</AltitudeMeters>
            <DistanceMeters>2924.2886991297</DistanceMeters>
          </Trackpoint>
          <Trackpoint>
            <Time>2022-07-09T08:11:30.000Z</Time>
            <Position>
              <LatitudeDegrees>42.845230959355831146240234375</LatitudeDegrees>
              <LongitudeDegrees>-0.14517967589199542999267578125</LongitudeDegrees>
            </Position>
            <AltitudeMeters>1746</AltitudeMeters>
            <DistanceMeters>2927.6964371342</DistanceMeters>
          </Trackpoint>
          <Trackpoint>
            <Time>2022-07-09T08:11:31.000Z</Time>
            <Position>
              <LatitudeDegrees>42.84523204900324344635009765625</LatitudeDegrees>
              <LongitudeDegrees>-0.14518185518682003021240234375</LongitudeDegrees>
            </Position>
            <AltitudeMeters>1746.199951171875</AltitudeMeters>
            <DistanceMeters>2927.9089233272</DistanceMeters>
          </Trackpoint>
          <Trackpoint>
            <Time>2022-07-09T08:11:32.000Z</Time>
            <Position>
              <LatitudeDegrees>42.8452304564416408538818359375</LatitudeDegrees>
              <LongitudeDegrees>-0.14518219046294689178466796875</LongitudeDegrees>
            </Position>
            <AltitudeMeters>1746.4000244140625</AltitudeMeters>
            <DistanceMeters>2928.0433113954</DistanceMeters>
          </Trackpoint>
          <Trackpoint>
            <Time>2022-07-09T08:11:33.000Z</Time>
            <Position>
              <LatitudeDegrees>42.845224253833293914794921875</LatitudeDegrees>
              <LongitudeDegrees>-0.14517649076879024505615234375</LongitudeDegrees>
            </Position>
            <AltitudeMeters>1746.4000244140625</AltitudeMeters>
            <DistanceMeters>2928.8717350852</DistanceMeters>
          </Trackpoint>
          <Trackpoint>
            <Time>2022-07-09T08:11:34.000Z</Time>
            <Position>
              <LatitudeDegrees>42.845217548310756683349609375</LatitudeDegrees>
              <LongitudeDegrees>-0.1451732218265533447265625</LongitudeDegrees>
            </Position>
            <AltitudeMeters>1746.5999755859375</AltitudeMeters>
            <DistanceMeters>2929.6667856188</DistanceMeters>
          </Trackpoint>
          <Trackpoint>
            <Time>2022-07-09T08:11:36.000Z</Time>
            <Position>
              <LatitudeDegrees>42.8452016226947307586669921875</LatitudeDegrees>
              <LongitudeDegrees>-0.14516039751470088958740234375</LongitudeDegrees>
            </Position>
            <AltitudeMeters>1747</AltitudeMeters>
            <DistanceMeters>2931.722527766</DistanceMeters>
          </Trackpoint>
          <Trackpoint>
            <Time>2022-07-09T08:11:39.000Z</Time>
            <Position>
              <LatitudeDegrees>42.8451764769852161407470703125</LatitudeDegrees>
              <LongitudeDegrees>-0.14514463953673839569091796875</LongitudeDegrees>
            </Position>
            <AltitudeMeters>1747.4000244140625</AltitudeMeters>
            <DistanceMeters>2934.8032111874</DistanceMeters>
          </Trackpoint>
          <Trackpoint>
            <Time>2022-07-09T08:11:41.000Z</Time>
            <Position>
              <LatitudeDegrees>42.84515610896050930023193359375</LatitudeDegrees>
              <LongitudeDegrees>-0.145129971206188201904296875</LongitudeDegrees>
            </Position>
            <AltitudeMeters>1747.800048828125</AltitudeMeters>
            <DistanceMeters>2937.3671721175</DistanceMeters>
          </Trackpoint>
          <Trackpoint>
            <Time>2022-07-09T08:11:43.000Z</Time>
            <Position>
              <LatitudeDegrees>42.84513431601226329803466796875</LatitudeDegrees>
              <LongitudeDegrees>-0.14510675333440303802490234375</LongitudeDegrees>
            </Position>
            <AltitudeMeters>1747.800048828125</AltitudeMeters>
            <DistanceMeters>2940.4434556079</DistanceMeters>
          </Trackpoint>
          <Trackpoint>
            <Time>2022-07-09T08:11:48.000Z</Time>
            <Position>
              <LatitudeDegrees>42.84506835043430328369140625</LatitudeDegrees>
              <LongitudeDegrees>-0.1450329087674617767333984375</LongitudeDegrees>
            </Position>
            <AltitudeMeters>1748.199951171875</AltitudeMeters>
            <DistanceMeters>2949.9423252158</DistanceMeters>
          </Trackpoint>
          <Trackpoint>
            <Time>2022-07-09T08:11:49.000Z</Time>
            <Position>
              <LatitudeDegrees>42.84505091607570648193359375</LatitudeDegrees>
              <LongitudeDegrees>-0.1450171507894992828369140625</LongitudeDegrees>
            </Position>
            <AltitudeMeters>1748.5999755859375</AltitudeMeters>
            <DistanceMeters>2952.2699948372</DistanceMeters>
          </Trackpoint>
          <Trackpoint>
            <Time>2022-07-09T08:11:50.000Z</Time>
            <Position>
              <LatitudeDegrees>42.845035158097743988037109375</LatitudeDegrees>
              <LongitudeDegrees>-0.14500558376312255859375</LongitudeDegrees>
            </Position>
            <AltitudeMeters>1748.5999755859375</AltitudeMeters>
            <DistanceMeters>2954.2632920141</DistanceMeters>
          </Trackpoint>
          <Trackpoint>
            <Time>2022-07-09T08:11:52.000Z</Time>
            <Position>
              <LatitudeDegrees>42.84500909037888050079345703125</LatitudeDegrees>
              <LongitudeDegrees>-0.1449950225651264190673828125</LongitudeDegrees>
            </Position>
            <AltitudeMeters>1748.800048828125</AltitudeMeters>
            <DistanceMeters>2957.2907542501</DistanceMeters>
          </Trackpoint>
          <Trackpoint>
            <Time>2022-07-09T08:11:58.000Z</Time>
            <Position>
              <LatitudeDegrees>42.84495075233280658721923828125</LatitudeDegrees>
              <LongitudeDegrees>-0.1449720561504364013671875</LongitudeDegrees>
            </Position>
            <AltitudeMeters>1749</AltitudeMeters>
            <DistanceMeters>2964.0490178328</DistanceMeters>
          </Trackpoint>
          <Trackpoint>
            <Time>2022-07-09T08:12:04.000Z</Time>
            <Position>
              <LatitudeDegrees>42.84486542455852031707763671875</LatitudeDegrees>
              <LongitudeDegrees>-0.1448867283761501312255859375</LongitudeDegrees>
            </Position>
            <AltitudeMeters>1748.199951171875</AltitudeMeters>
            <DistanceMeters>2975.8254312948</DistanceMeters>
          </Trackpoint>
          <Trackpoint>
            <Time>2022-07-09T08:12:05.000Z</Time>
            <Position>
              <LatitudeDegrees>42.84484916366636753082275390625</LatitudeDegrees>
              <LongitudeDegrees>-0.144872479140758514404296875</LongitudeDegrees>
            </Position>
            <AltitudeMeters>1748.199951171875</AltitudeMeters>
            <DistanceMeters>2977.977739176</DistanceMeters>
          </Trackpoint>
          <Trackpoint>
            <Time>2022-07-09T08:12:11.000Z</Time>
            <Position>
              <LatitudeDegrees>42.8447181545197963714599609375</LatitudeDegrees>
              <LongitudeDegrees>-0.14479427598416805267333984375</LongitudeDegrees>
            </Position>
            <AltitudeMeters>1747.5999755859375</AltitudeMeters>
            <DistanceMeters>2993.8946429174</DistanceMeters>
          </Trackpoint>
          <Trackpoint>
            <Time>2022-07-09T08:12:12.000Z</Time>
            <Position>
              <LatitudeDegrees>42.844697870314121246337890625</LatitudeDegrees>
              <LongitudeDegrees>-0.14478958211839199066162109375</LongitudeDegrees>
            </Position>
            <AltitudeMeters>1747.5999755859375</AltitudeMeters>
            <DistanceMeters>2996.1831892546</DistanceMeters>
          </Trackpoint>
          <Trackpoint>
            <Time>2022-07-09T08:12:18.000Z</Time>
            <Position>
              <LatitudeDegrees>42.84458764828741550445556640625</LatitudeDegrees>
              <LongitudeDegrees>-0.1447227783501148223876953125</LongitudeDegrees>
            </Position>
            <AltitudeMeters>1747.199951171875</AltitudeMeters>
            <DistanceMeters>3009.6078779165</DistanceMeters>
          </Trackpoint>
          <Trackpoint>
            <Time>2022-07-09T08:12:19.000Z</Time>
            <Position>
              <LatitudeDegrees>42.844565771520137786865234375</LatitudeDegrees>
              <LongitudeDegrees>-0.14470626600086688995361328125</LongitudeDegrees>
            </Position>
            <AltitudeMeters>1747.4000244140625</AltitudeMeters>
            <DistanceMeters>3012.3913659421</DistanceMeters>
          </Trackpoint>
          <Trackpoint>
            <Time>2022-07-09T08:12:22.000Z</Time>
            <Position>
              <LatitudeDegrees>42.84450064413249492645263671875</LatitudeDegrees>
              <LongitudeDegrees>-0.14466050080955028533935546875</LongitudeDegrees>
            </Position>
            <AltitudeMeters>1747.4000244140625</AltitudeMeters>
            <DistanceMeters>3020.5454111258</DistanceMeters>
          </Trackpoint>
          <Trackpoint>
            <Time>2022-07-09T08:12:23.000Z</Time>
            <Position>
              <LatitudeDegrees>42.84447734244167804718017578125</LatitudeDegrees>
              <LongitudeDegrees>-0.14464625157415866851806640625</LongitudeDegrees>
            </Position>
            <AltitudeMeters>1747.199951171875</AltitudeMeters>
            <DistanceMeters>3023.3898703879</DistanceMeters>
          </Trackpoint>
          <Trackpoint>
            <Time>2022-07-09T08:12:24.000Z</Time>
            <Position>
              <LatitudeDegrees>42.844453118741512298583984375</LatitudeDegrees>
              <LongitudeDegrees>-0.1446346007287502288818359375</LongitudeDegrees>
            </Position>
            <AltitudeMeters>1747</AltitudeMeters>
            <DistanceMeters>3026.2485797438</DistanceMeters>
          </Trackpoint>
          <Trackpoint>
            <Time>2022-07-09T08:12:25.000Z</Time>
            <Position>
              <LatitudeDegrees>42.84443191252648830413818359375</LatitudeDegrees>
              <LongitudeDegrees>-0.14462345279753208160400390625</LongitudeDegrees>
            </Position>
            <AltitudeMeters>1747</AltitudeMeters>
            <DistanceMeters>3028.7788611904</DistanceMeters>
          </Trackpoint>
          <Trackpoint>
            <Time>2022-07-09T08:12:26.000Z</Time>
            <Position>
              <LatitudeDegrees>42.84440944902598857879638671875</LatitudeDegrees>
              <LongitudeDegrees>-0.144614316523075103759765625</LongitudeDegrees>
            </Position>
            <AltitudeMeters>1747.4000244140625</AltitudeMeters>
            <DistanceMeters>3031.3882054832</DistanceMeters>
          </Trackpoint>
          <Trackpoint>
            <Time>2022-07-09T08:12:28.000Z</Time>
            <Position>
              <LatitudeDegrees>42.84435714595019817352294921875</LatitudeDegrees>
              <LongitudeDegrees>-0.1445906795561313629150390625</LongitudeDegrees>
            </Position>
            <AltitudeMeters>1747.199951171875</AltitudeMeters>
            <DistanceMeters>3037.5209266076</DistanceMeters>
          </Trackpoint>
          <Trackpoint>
            <Time>2022-07-09T08:12:31.000Z</Time>
            <Position>
              <LatitudeDegrees>42.84427533857524394989013671875</LatitudeDegrees>
              <LongitudeDegrees>-0.1445708982646465301513671875</LongitudeDegrees>
            </Position>
            <AltitudeMeters>1747.4000244140625</AltitudeMeters>
            <DistanceMeters>3046.7683491633</DistanceMeters>
          </Trackpoint>
          <Trackpoint>
            <Time>2022-07-09T08:12:32.000Z</Time>
            <Position>
              <LatitudeDegrees>42.8442450799047946929931640625</LatitudeDegrees>
              <LongitudeDegrees>-0.14456142671406269073486328125</LongitudeDegrees>
            </Position>
            <AltitudeMeters>1747.4000244140625</AltitudeMeters>
            <DistanceMeters>3050.224762208</DistanceMeters>
          </Trackpoint>
          <Trackpoint>
            <Time>2022-07-09T08:12:34.000Z</Time>
            <Position>
              <LatitudeDegrees>42.84418984316289424896240234375</LatitudeDegrees>
              <LongitudeDegrees>-0.14454424381256103515625</LongitudeDegrees>
            </Position>
            <AltitudeMeters>1747.4000244140625</AltitudeMeters>
            <DistanceMeters>3056.5309858529</DistanceMeters>
          </Trackpoint>
          <Trackpoint>
            <Time>2022-07-09T08:12:37.000Z</Time>
            <Position>
              <LatitudeDegrees>42.84411423839628696441650390625</LatitudeDegrees>
              <LongitudeDegrees>-0.14450677670538425445556640625</LongitudeDegrees>
            </Position>
            <AltitudeMeters>1747.4000244140625</AltitudeMeters>
            <DistanceMeters>3065.4836926232</DistanceMeters>
          </Trackpoint>
          <Trackpoint>
            <Time>2022-07-09T08:12:41.000Z</Time>
            <Position>
              <LatitudeDegrees>42.84401147626340389251708984375</LatitudeDegrees>
              <LongitudeDegrees>-0.14447039924561977386474609375</LongitudeDegrees>
            </Position>
            <AltitudeMeters>1747.4000244140625</AltitudeMeters>
            <DistanceMeters>3077.3002941674</DistanceMeters>
          </Trackpoint>
          <Trackpoint>
            <Time>2022-07-09T08:12:46.000Z</Time>
            <Position>
              <LatitudeDegrees>42.84386227838695049285888671875</LatitudeDegrees>
              <LongitudeDegrees>-0.14443821273744106292724609375</LongitudeDegrees>
            </Position>
            <AltitudeMeters>1747.199951171875</AltitudeMeters>
            <DistanceMeters>3094.1127732484</DistanceMeters>
          </Trackpoint>
          <Trackpoint>
            <Time>2022-07-09T08:12:49.000Z</Time>
            <Position>
              <LatitudeDegrees>42.84378491342067718505859375</LatitudeDegrees>
              <LongitudeDegrees>-0.14441625215113162994384765625</LongitudeDegrees>
            </Position>
            <AltitudeMeters>1747.199951171875</AltitudeMeters>
            <DistanceMeters>3102.9082644169</DistanceMeters>
          </Trackpoint>
          <Trackpoint>
            <Time>2022-07-09T08:12:52.000Z</Time>
            <Position>
              <LatitudeDegrees>42.84371509216725826263427734375</LatitudeDegrees>
              <LongitudeDegrees>-0.1443925313651561737060546875</LongitudeDegrees>
            </Position>
            <AltitudeMeters>1747.199951171875</AltitudeMeters>
            <DistanceMeters>3110.917049155</DistanceMeters>
          </Trackpoint>
          <Trackpoint>
            <Time>2022-07-09T08:12:53.000Z</Time>
            <Position>
              <LatitudeDegrees>42.84369279630482196807861328125</LatitudeDegrees>
              <LongitudeDegrees>-0.144382975995540618896484375</LongitudeDegrees>
            </Position>
            <AltitudeMeters>1747</AltitudeMeters>
            <DistanceMeters>3113.5177273851</DistanceMeters>
          </Trackpoint>
          <Trackpoint>
            <Time>2022-07-09T08:12:57.000Z</Time>
            <Position>
              <LatitudeDegrees>42.84362976439297199249267578125</LatitudeDegrees>
              <LongitudeDegrees>-0.1443444192409515380859375</LongitudeDegrees>
            </Position>
            <AltitudeMeters>1746.5999755859375</AltitudeMeters>
            <DistanceMeters>3121.2060874444</DistanceMeters>
          </Trackpoint>
          <Trackpoint>
            <Time>2022-07-09T08:13:00.000Z</Time>
            <Position>
              <LatitudeDegrees>42.84359757788479328155517578125</LatitudeDegrees>
              <LongitudeDegrees>-0.1443308405578136444091796875</LongitudeDegrees>
            </Position>
            <AltitudeMeters>1746.5999755859375</AltitudeMeters>
            <DistanceMeters>3124.9569352286</DistanceMeters>
          </Trackpoint>
          <Trackpoint>
            <Time>2022-07-09T08:13:05.000Z</Time>
            <Position>
              <LatitudeDegrees>42.8435383178293704986572265625</LatitudeDegrees>
              <LongitudeDegrees>-0.1442825607955455780029296875</LongitudeDegrees>
            </Position>
            <AltitudeMeters>1746.5999755859375</AltitudeMeters>
            <DistanceMeters>3132.6400081629</DistanceMeters>
          </Trackpoint>
          <Trackpoint>
            <Time>2022-07-09T08:13:06.000Z</Time>
            <Position>
              <LatitudeDegrees>42.84352582879364490509033203125</LatitudeDegrees>
              <LongitudeDegrees>-0.14426889829337596893310546875</LongitudeDegrees>
            </Position>
            <AltitudeMeters>1746.4000244140625</AltitudeMeters>
            <DistanceMeters>3134.4228673576</DistanceMeters>
          </Trackpoint>
          <Trackpoint>
            <Time>2022-07-09T08:13:07.000Z</Time>
            <Position>
              <LatitudeDegrees>42.843513004481792449951171875</LatitudeDegrees>
              <LongitudeDegrees>-0.14425599016249179840087890625</LongitudeDegrees>
            </Position>
            <AltitudeMeters>1746.4000244140625</AltitudeMeters>
            <DistanceMeters>3136.1955677278</DistanceMeters>
          </Trackpoint>
          <Trackpoint>
            <Time>2022-07-09T08:13:13.000Z</Time>
            <Position>
              <LatitudeDegrees>42.84343647770583629608154296875</LatitudeDegrees>
              <LongitudeDegrees>-0.1442141644656658172607421875</LongitudeDegrees>
            </Position>
            <AltitudeMeters>1745.5999755859375</AltitudeMeters>
            <DistanceMeters>3145.3714291459</DistanceMeters>
          </Trackpoint>
          <Trackpoint>
            <Time>2022-07-09T08:13:14.000Z</Time>
            <Position>
              <LatitudeDegrees>42.84342742525041103363037109375</LatitudeDegrees>
              <LongitudeDegrees>-0.1442094705998897552490234375</LongitudeDegrees>
            </Position>
            <AltitudeMeters>1745.5999755859375</AltitudeMeters>
            <DistanceMeters>3146.4465336919</DistanceMeters>
          </Trackpoint>
          <Trackpoint>
            <Time>2022-07-09T08:13:15.000Z</Time>
            <Position>
              <LatitudeDegrees>42.84341879189014434814453125</LatitudeDegrees>
              <LongitudeDegrees>-0.14420284889638423919677734375</LongitudeDegrees>
            </Position>
            <AltitudeMeters>1745.800048828125</AltitudeMeters>
            <DistanceMeters>3147.5465474388</DistanceMeters>
          </Trackpoint>
          <Trackpoint>
            <Time>2022-07-09T08:13:21.000Z</Time>
            <Position>
              <LatitudeDegrees>42.84335450269281864166259765625</LatitudeDegrees>
              <LongitudeDegrees>-0.14415121637284755706787109375</LongitudeDegrees>
            </Position>
            <AltitudeMeters>1746.800048828125</AltitudeMeters>
            <DistanceMeters>3155.8503817174</DistanceMeters>
          </Trackpoint>
          <Trackpoint>
            <Time>2022-07-09T08:13:22.000Z</Time>
            <Position>
              <LatitudeDegrees>42.84334595315158367156982421875</LatitudeDegrees>
              <LongitudeDegrees>-0.14414526522159576416015625</LongitudeDegrees>
            </Position>
            <AltitudeMeters>1747</AltitudeMeters>
            <DistanceMeters>3156.9170539407</DistanceMeters>
          </Trackpoint>
          <Trackpoint>
            <Time>2022-07-09T08:13:26.000Z</Time>
            <Position>
              <LatitudeDegrees>42.8433066420257091522216796875</LatitudeDegrees>
              <LongitudeDegrees>-0.14411936514079570770263671875</LongitudeDegrees>
            </Position>
            <AltitudeMeters>1747.199951171875</AltitudeMeters>
            <DistanceMeters>3161.776441752</DistanceMeters>
          </Trackpoint>
          <Trackpoint>
            <Time>2022-07-09T08:13:28.000Z</Time>
            <Position>
              <LatitudeDegrees>42.843282334506511688232421875</LatitudeDegrees>
              <LongitudeDegrees>-0.1440981589257717132568359375</LongitudeDegrees>
            </Position>
            <AltitudeMeters>1747.199951171875</AltitudeMeters>
            <DistanceMeters>3164.9891318049</DistanceMeters>
          </Trackpoint>
          <Trackpoint>
            <Time>2022-07-09T08:13:29.000Z</Time>
            <Position>
              <LatitudeDegrees>42.8432724438607692718505859375</LatitudeDegrees>
              <LongitudeDegrees>-0.14409120194613933563232421875</LongitudeDegrees>
            </Position>
            <AltitudeMeters>1747.4000244140625</AltitudeMeters>
            <DistanceMeters>3166.2281285746</DistanceMeters>
          </Trackpoint>
          <Trackpoint>
            <Time>2022-07-09T08:13:31.000Z</Time>
            <Position>
              <LatitudeDegrees>42.8432509861886501312255859375</LatitudeDegrees>
              <LongitudeDegrees>-0.14408315531909465789794921875</LongitudeDegrees>
            </Position>
            <AltitudeMeters>1747.5999755859375</AltitudeMeters>
            <DistanceMeters>3168.7061221141</DistanceMeters>
          </Trackpoint>
          <Trackpoint>
            <Time>2022-07-09T08:13:34.000Z</Time>
            <Position>
              <LatitudeDegrees>42.843211926519870758056640625</LatitudeDegrees>
              <LongitudeDegrees>-0.14405884779989719390869140625</LongitudeDegrees>
            </Position>
            <AltitudeMeters>1747.800048828125</AltitudeMeters>
            <DistanceMeters>3173.4849361225</DistanceMeters>
          </Trackpoint>
          <Trackpoint>
            <Time>2022-07-09T08:13:40.000Z</Time>
            <Position>
              <LatitudeDegrees>42.843144871294498443603515625</LatitudeDegrees>
              <LongitudeDegrees>-0.144027583301067352294921875</LongitudeDegrees>
            </Position>
            <AltitudeMeters>1747.800048828125</AltitudeMeters>
            <DistanceMeters>3181.3727258445</DistanceMeters>
          </Trackpoint>
          <Trackpoint>
            <Time>2022-07-09T08:13:43.000Z</Time>
            <Position>
              <LatitudeDegrees>42.84311008639633655548095703125</LatitudeDegrees>
              <LongitudeDegrees>-0.14401827938854694366455078125</LongitudeDegrees>
            </Position>
            <AltitudeMeters>1747.5999755859375</AltitudeMeters>
            <DistanceMeters>3185.3171930726</DistanceMeters>
          </Trackpoint>
          <Trackpoint>
            <Time>2022-07-09T08:13:46.000Z</Time>
            <Position>
              <LatitudeDegrees>42.84307471476495265960693359375</LatitudeDegrees>
              <LongitudeDegrees>-0.143996067345142364501953125</LongitudeDegrees>
            </Position>
            <AltitudeMeters>1747.800048828125</AltitudeMeters>
            <DistanceMeters>3189.6510780507</DistanceMeters>
          </Trackpoint>
          <Trackpoint>
            <Time>2022-07-09T08:13:49.000Z</Time>
            <Position>
              <LatitudeDegrees>42.8430300392210483551025390625</LatitudeDegrees>
              <LongitudeDegrees>-0.1439734362065792083740234375</LongitudeDegrees>
            </Position>
            <AltitudeMeters>1747.5999755859375</AltitudeMeters>
            <DistanceMeters>3194.9547266177</DistanceMeters>
          </Trackpoint>
          <Trackpoint>
            <Time>2022-07-09T08:13:52.000Z</Time>
            <Position>
              <LatitudeDegrees>42.84299793653190135955810546875</LatitudeDegrees>
              <LongitudeDegrees>-0.143940746784210205078125</LongitudeDegrees>
            </Position>
            <AltitudeMeters>1747.4000244140625</AltitudeMeters>
            <DistanceMeters>3199.4139001207</DistanceMeters>
          </Trackpoint>
          <Trackpoint>
            <Time>2022-07-09T08:13:58.000Z</Time>
            <Position>
              <LatitudeDegrees>42.8429056517779827117919921875</LatitudeDegrees>
              <LongitudeDegrees>-0.14389607124030590057373046875</LongitudeDegrees>
            </Position>
            <AltitudeMeters>1747.5999755859375</AltitudeMeters>
            <DistanceMeters>3210.3134269773</DistanceMeters>
          </Trackpoint>
          <Trackpoint>
            <Time>2022-07-09T08:13:59.000Z</Time>
            <Position>
              <LatitudeDegrees>42.84289031289517879486083984375</LatitudeDegrees>
              <LongitudeDegrees>-0.14389045536518096923828125</LongitudeDegrees>
            </Position>
            <AltitudeMeters>1747.800048828125</AltitudeMeters>
            <DistanceMeters>3212.0810260408</DistanceMeters>
          </Trackpoint>
          <Trackpoint>
            <Time>2022-07-09T08:14:05.000Z</Time>
            <Position>
              <LatitudeDegrees>42.84279392100870609283447265625</LatitudeDegrees>
              <LongitudeDegrees>-0.1438463665544986724853515625</LongitudeDegrees>
            </Position>
            <AltitudeMeters>1747.5999755859375</AltitudeMeters>
            <DistanceMeters>3223.3975866547</DistanceMeters>
          </Trackpoint>
          <Trackpoint>
            <Time>2022-07-09T08:14:07.000Z</Time>
            <Position>
              <LatitudeDegrees>42.8427703678607940673828125</LatitudeDegrees>
              <LongitudeDegrees>-0.14384225942194461822509765625</LongitudeDegrees>
            </Position>
            <AltitudeMeters>1747.5999755859375</AltitudeMeters>
            <DistanceMeters>3226.0396027583</DistanceMeters>
          </Trackpoint>
          <Trackpoint>
            <Time>2022-07-09T08:14:10.000Z</Time>
            <Position>
              <LatitudeDegrees>42.8427299670875072479248046875</LatitudeDegrees>
              <LongitudeDegrees>-0.1438456960022449493408203125</LongitudeDegrees>
            </Position>
            <AltitudeMeters>1748</AltitudeMeters>
            <DistanceMeters>3230.5451118134</DistanceMeters>
          </Trackpoint>
          <Trackpoint>
            <Time>2022-07-09T08:14:11.000Z</Time>
            <Position>
              <LatitudeDegrees>42.84271663986146450042724609375</LatitudeDegrees>
              <LongitudeDegrees>-0.14384024776518344879150390625</LongitudeDegrees>
            </Position>
            <AltitudeMeters>1748</AltitudeMeters>
            <DistanceMeters>3232.0949506225</DistanceMeters>
          </Trackpoint>
          <Trackpoint>
            <Time>2022-07-09T08:14:12.000Z</Time>
            <Position>
              <LatitudeDegrees>42.842701971530914306640625</LatitudeDegrees>
              <LongitudeDegrees>-0.14384393580257892608642578125</LongitudeDegrees>
            </Position>
            <AltitudeMeters>1748</AltitudeMeters>
            <DistanceMeters>3233.7572392231</DistanceMeters>
          </Trackpoint>
          <Trackpoint>
            <Time>2022-07-09T08:14:13.000Z</Time>
            <Position>
              <LatitudeDegrees>42.8426890634000301361083984375</LatitudeDegrees>
              <LongitudeDegrees>-0.1438446901738643646240234375</LongitudeDegrees>
            </Position>
            <AltitudeMeters>1748</AltitudeMeters>
            <DistanceMeters>3235.1952543502</DistanceMeters>
          </Trackpoint>
          <Trackpoint>
            <Time>2022-07-09T08:14:16.000Z</Time>
            <Position>
              <LatitudeDegrees>42.84266131930053234100341796875</LatitudeDegrees>
              <LongitudeDegrees>-0.14385030604898929595947265625</LongitudeDegrees>
            </Position>
            <AltitudeMeters>1747.4000244140625</AltitudeMeters>
            <DistanceMeters>3238.315257941</DistanceMeters>
          </Trackpoint>
          <Trackpoint>
            <Time>2022-07-09T08:14:17.000Z</Time>
            <Position>
              <LatitudeDegrees>42.84265226684510707855224609375</LatitudeDegrees>
              <LongitudeDegrees>-0.14385315589606761932373046875</LongitudeDegrees>
            </Position>
            <AltitudeMeters>1747.4000244140625</AltitudeMeters>
            <DistanceMeters>3239.34751228</DistanceMeters>
          </Trackpoint>
          <Trackpoint>
            <Time>2022-07-09T08:14:23.000Z</Time>
            <Position>
              <LatitudeDegrees>42.8425864689052104949951171875</LatitudeDegrees>
              <LongitudeDegrees>-0.14383505098521709442138671875</LongitudeDegrees>
            </Position>
            <AltitudeMeters>1748</AltitudeMeters>
            <DistanceMeters>3246.8178450988</DistanceMeters>
          </Trackpoint>
          <Trackpoint>
            <Time>2022-07-09T08:14:24.000Z</Time>
            <Position>
              <LatitudeDegrees>42.84257565625011920928955078125</LatitudeDegrees>
              <LongitudeDegrees>-0.14382901601493358612060546875</LongitudeDegrees>
            </Position>
            <AltitudeMeters>1748</AltitudeMeters>
            <DistanceMeters>3248.1138366954</DistanceMeters>
          </Trackpoint>
          <Trackpoint>
            <Time>2022-07-09T08:14:30.000Z</Time>
            <Position>
              <LatitudeDegrees>42.84251295961439609527587890625</LatitudeDegrees>
              <LongitudeDegrees>-0.1437850110232830047607421875</LongitudeDegrees>
            </Position>
            <AltitudeMeters>1747.199951171875</AltitudeMeters>
            <DistanceMeters>3255.9620308459</DistanceMeters>
          </Trackpoint>
          <Trackpoint>
            <Time>2022-07-09T08:14:31.000Z</Time>
            <Position>
              <LatitudeDegrees>42.8425006382167339324951171875</LatitudeDegrees>
              <LongitudeDegrees>-0.143782161176204681396484375</LongitudeDegrees>
            </Position>
            <AltitudeMeters>1747</AltitudeMeters>
            <DistanceMeters>3257.3521518331</DistanceMeters>
          </Trackpoint>
          <Trackpoint>
            <Time>2022-07-09T08:14:33.000Z</Time>
            <Position>
              <LatitudeDegrees>42.8424726426601409912109375</LatitudeDegrees>
              <LongitudeDegrees>-0.1437776349484920501708984375</LongitudeDegrees>
            </Position>
            <AltitudeMeters>1746.5999755859375</AltitudeMeters>
            <DistanceMeters>3260.4909116838</DistanceMeters>
          </Trackpoint>
          <Trackpoint>
            <Time>2022-07-09T08:14:36.000Z</Time>
            <Position>
              <LatitudeDegrees>42.8424262069165706634521484375</LatitudeDegrees>
              <LongitudeDegrees>-0.14376816339790821075439453125</LongitudeDegrees>
            </Position>
            <AltitudeMeters>1745.5999755859375</AltitudeMeters>
            <DistanceMeters>3265.7165170235</DistanceMeters>
          </Trackpoint>
          <Trackpoint>
            <Time>2022-07-09T08:14:37.000Z</Time>
            <Position>
              <LatitudeDegrees>42.84241053275763988494873046875</LatitudeDegrees>
              <LongitudeDegrees>-0.14376447536051273345947265625</LongitudeDegrees>
            </Position>
            <AltitudeMeters>1745.4000244140625</AltitudeMeters>
            <DistanceMeters>3267.4866685781</DistanceMeters>
          </Trackpoint>
          <Trackpoint>
            <Time>2022-07-09T08:14:40.000Z</Time>
            <Position>
              <LatitudeDegrees>42.84237331710755825042724609375</LatitudeDegrees>
              <LongitudeDegrees>-0.14375927858054637908935546875</LongitudeDegrees>
            </Position>
            <AltitudeMeters>1745</AltitudeMeters>
            <DistanceMeters>3271.6505305802</DistanceMeters>
          </Trackpoint>
          <Trackpoint>
            <Time>2022-07-09T08:14:45.000Z</Time>
            <Position>
              <LatitudeDegrees>42.8423148952424526214599609375</LatitudeDegrees>
              <LongitudeDegrees>-0.14374469406902790069580078125</LongitudeDegrees>
            </Position>
            <AltitudeMeters>1744.800048828125</AltitudeMeters>
            <DistanceMeters>3278.2608664198</DistanceMeters>
          </Trackpoint>
          <Trackpoint>
            <Time>2022-07-09T08:14:48.000Z</Time>
            <Position>
              <LatitudeDegrees>42.8422796912491321563720703125</LatitudeDegrees>
              <LongitudeDegrees>-0.14374293386936187744140625</LongitudeDegrees>
            </Position>
            <AltitudeMeters>1744.4000244140625</AltitudeMeters>
            <DistanceMeters>3282.1812222847</DistanceMeters>
          </Trackpoint>
          <Trackpoint>
            <Time>2022-07-09T08:14:51.000Z</Time>
            <Position>
              <LatitudeDegrees>42.8422444872558116912841796875</LatitudeDegrees>
              <LongitudeDegrees>-0.14374922029674053192138671875</LongitudeDegrees>
            </Position>
            <AltitudeMeters>1744.199951171875</AltitudeMeters>
            <DistanceMeters>3286.1314086215</DistanceMeters>
          </Trackpoint>
          <Trackpoint>
            <Time>2022-07-09T08:14:55.000Z</Time>
            <Position>
              <LatitudeDegrees>42.84220241010189056396484375</LatitudeDegrees>
              <LongitudeDegrees>-0.14373949728906154632568359375</LongitudeDegrees>
            </Position>
            <AltitudeMeters>1744.199951171875</AltitudeMeters>
            <DistanceMeters>3290.8808434254</DistanceMeters>
          </Trackpoint>
          <Trackpoint>
            <Time>2022-07-09T08:14:58.000Z</Time>
            <Position>
              <LatitudeDegrees>42.84216159023344516754150390625</LatitudeDegrees>
              <LongitudeDegrees>-0.14372491277754306793212890625</LongitudeDegrees>
            </Position>
            <AltitudeMeters>1744</AltitudeMeters>
            <DistanceMeters>3295.5767402169</DistanceMeters>
          </Trackpoint>
          <Trackpoint>
            <Time>2022-07-09T08:15:00.000Z</Time>
            <Position>
              <LatitudeDegrees>42.8421358577907085418701171875</LatitudeDegrees>
              <LongitudeDegrees>-0.14372005127370357513427734375</LongitudeDegrees>
            </Position>
            <AltitudeMeters>1743.800048828125</AltitudeMeters>
            <DistanceMeters>3298.4684267122</DistanceMeters>
          </Trackpoint>
          <Trackpoint>
            <Time>2022-07-09T08:15:03.000Z</Time>
            <Position>
              <LatitudeDegrees>42.8421033360064029693603515625</LatitudeDegrees>
              <LongitudeDegrees>-0.1437129266560077667236328125</LongitudeDegrees>
            </Position>
            <AltitudeMeters>1743.5999755859375</AltitudeMeters>
            <DistanceMeters>3302.1365071232</DistanceMeters>
          </Trackpoint>
          <Trackpoint>
            <Time>2022-07-09T08:15:09.000Z</Time>
            <Position>
              <LatitudeDegrees>42.8420436568558216094970703125</LatitudeDegrees>
              <LongitudeDegrees>-0.1437048800289630889892578125</LongitudeDegrees>
            </Position>
            <AltitudeMeters>1743.5999755859375</AltitudeMeters>
            <DistanceMeters>3308.8114151506</DistanceMeters>
          </Trackpoint>
          <Trackpoint>
            <Time>2022-07-09T08:15:10.000Z</Time>
            <Position>
              <LatitudeDegrees>42.84203468821942806243896484375</LatitudeDegrees>
              <LongitudeDegrees>-0.14370144344866275787353515625</LongitudeDegrees>
            </Position>
            <AltitudeMeters>1743.4000244140625</AltitudeMeters>
            <DistanceMeters>3309.8480342208</DistanceMeters>
          </Trackpoint>
          <Trackpoint>
            <Time>2022-07-09T08:15:11.000Z</Time>
            <Position>
              <LatitudeDegrees>42.8420255519449710845947265625</LatitudeDegrees>
              <LongitudeDegrees>-0.14369691722095012664794921875</LongitudeDegrees>
            </Position>
            <AltitudeMeters>1743.199951171875</AltitudeMeters>
            <DistanceMeters>3310.9273302235</DistanceMeters>
          </Trackpoint>
          <Trackpoint>
            <Time>2022-07-09T08:15:12.000Z</Time>
            <Position>
              <LatitudeDegrees>42.842015661299228668212890625</LatitudeDegrees>
              <LongitudeDegrees>-0.143692307174205780029296875</LongitudeDegrees>
            </Position>
            <AltitudeMeters>1743</AltitudeMeters>
            <DistanceMeters>3312.0911650342</DistanceMeters>
          </Trackpoint>
          <Trackpoint>
            <Time>2022-07-09T08:15:18.000Z</Time>
            <Position>
              <LatitudeDegrees>42.84193427301943302154541015625</LatitudeDegrees>
              <LongitudeDegrees>-0.1436804048717021942138671875</LongitudeDegrees>
            </Position>
            <AltitudeMeters>1742.800048828125</AltitudeMeters>
            <DistanceMeters>3321.201347941</DistanceMeters>
          </Trackpoint>
          <Trackpoint>
            <Time>2022-07-09T08:15:19.000Z</Time>
            <Position>
              <LatitudeDegrees>42.84192656166851520538330078125</LatitudeDegrees>
              <LongitudeDegrees>-0.1436773873865604400634765625</LongitudeDegrees>
            </Position>
            <AltitudeMeters>1742.800048828125</AltitudeMeters>
            <DistanceMeters>3322.0876981261</DistanceMeters>
          </Trackpoint>
          <Trackpoint>
            <Time>2022-07-09T08:15:25.000Z</Time>
            <Position>
              <LatitudeDegrees>42.841862775385379791259765625</LatitudeDegrees>
              <LongitudeDegrees>-0.14365634880959987640380859375</LongitudeDegrees>
            </Position>
            <AltitudeMeters>1742.5999755859375</AltitudeMeters>
            <DistanceMeters>3329.3911672713</DistanceMeters>
          </Trackpoint>
          <Trackpoint>
            <Time>2022-07-09T08:15:27.000Z</Time>
            <Position>
              <LatitudeDegrees>42.84183603711426258087158203125</LatitudeDegrees>
              <LongitudeDegrees>-0.143648721277713775634765625</LongitudeDegrees>
            </Position>
            <AltitudeMeters>1742.4000244140625</AltitudeMeters>
            <DistanceMeters>3332.4320221311</DistanceMeters>
          </Trackpoint>
          <Trackpoint>
            <Time>2022-07-09T08:15:33.000Z</Time>
            <Position>
              <LatitudeDegrees>42.84175875596702098846435546875</LatitudeDegrees>
              <LongitudeDegrees>-0.14364771544933319091796875</LongitudeDegrees>
            </Position>
            <AltitudeMeters>1742.199951171875</AltitudeMeters>
            <DistanceMeters>3341.0339083418</DistanceMeters>
          </Trackpoint>
          <Trackpoint>
            <Time>2022-07-09T08:15:35.000Z</Time>
            <Position>
              <LatitudeDegrees>42.84174132160842418670654296875</LatitudeDegrees>
              <LongitudeDegrees>-0.1436378248035907745361328125</LongitudeDegrees>
            </Position>
            <AltitudeMeters>1742</AltitudeMeters>
            <DistanceMeters>3343.1331170748</DistanceMeters>
          </Trackpoint>
          <Trackpoint>
            <Time>2022-07-09T08:15:36.000Z</Time>
            <Position>
              <LatitudeDegrees>42.84172992222011089324951171875</LatitudeDegrees>
              <LongitudeDegrees>-0.143632628023624420166015625</LongitudeDegrees>
            </Position>
            <AltitudeMeters>1742</AltitudeMeters>
            <DistanceMeters>3344.4702614709</DistanceMeters>
          </Trackpoint>
          <Trackpoint>
            <Time>2022-07-09T08:15:42.000Z</Time>
            <Position>
              <LatitudeDegrees>42.841639816761016845703125</LatitudeDegrees>
              <LongitudeDegrees>-0.14362282119691371917724609375</LongitudeDegrees>
            </Position>
            <AltitudeMeters>1741.5999755859375</AltitudeMeters>
            <DistanceMeters>3354.5309834559</DistanceMeters>
          </Trackpoint>
          <Trackpoint>
            <Time>2022-07-09T08:15:46.000Z</Time>
            <Position>
              <LatitudeDegrees>42.8415789641439914703369140625</LatitudeDegrees>
              <LongitudeDegrees>-0.1436103321611881256103515625</LongitudeDegrees>
            </Position>
            <AltitudeMeters>1741.4000244140625</AltitudeMeters>
            <DistanceMeters>3361.380162029</DistanceMeters>
          </Trackpoint>
          <Trackpoint>
            <Time>2022-07-09T08:15:52.000Z</Time>
            <Position>
              <LatitudeDegrees>42.84151467494666576385498046875</LatitudeDegrees>
              <LongitudeDegrees>-0.143603794276714324951171875</LongitudeDegrees>
            </Position>
            <AltitudeMeters>1741</AltitudeMeters>
            <DistanceMeters>3368.5557801824</DistanceMeters>
          </Trackpoint>
          <Trackpoint>
            <Time>2022-07-09T08:15:54.000Z</Time>
            <Position>
              <LatitudeDegrees>42.84148785285651683807373046875</LatitudeDegrees>
              <LongitudeDegrees>-0.14359516091644763946533203125</LongitudeDegrees>
            </Position>
            <AltitudeMeters>1740.5999755859375</AltitudeMeters>
            <DistanceMeters>3371.6232448773</DistanceMeters>
          </Trackpoint>
          <Trackpoint>
            <Time>2022-07-09T08:16:00.000Z</Time>
            <Position>
              <LatitudeDegrees>42.8414005972445011138916015625</LatitudeDegrees>
              <LongitudeDegrees>-0.14359138906002044677734375</LongitudeDegrees>
            </Position>
            <AltitudeMeters>1740.4000244140625</AltitudeMeters>
            <DistanceMeters>3381.3401620478</DistanceMeters>
          </Trackpoint>
          <Trackpoint>
            <Time>2022-07-09T08:16:01.000Z</Time>
            <Position>
              <LatitudeDegrees>42.84138844348490238189697265625</LatitudeDegrees>
              <LongitudeDegrees>-0.1435949094593524932861328125</LongitudeDegrees>
            </Position>
            <AltitudeMeters>1740.4000244140625</AltitudeMeters>
            <DistanceMeters>3382.7237718939</DistanceMeters>
          </Trackpoint>
          <Trackpoint>
            <Time>2022-07-09T08:16:06.000Z</Time>
            <Position>
              <LatitudeDegrees>42.84133203327655792236328125</LatitudeDegrees>
              <LongitudeDegrees>-0.1436016149818897247314453125</LongitudeDegrees>
            </Position>
            <AltitudeMeters>1740.4000244140625</AltitudeMeters>
            <DistanceMeters>3389.0256982819</DistanceMeters>
          </Trackpoint>
          <Trackpoint>
            <Time>2022-07-09T08:16:11.000Z</Time>
            <Position>
              <LatitudeDegrees>42.84125827252864837646484375</LatitudeDegrees>
              <LongitudeDegrees>-0.14359281398355960845947265625</LongitudeDegrees>
            </Position>
            <AltitudeMeters>1740.199951171875</AltitudeMeters>
            <DistanceMeters>3397.2667664733</DistanceMeters>
          </Trackpoint>
          <Trackpoint>
            <Time>2022-07-09T08:16:16.000Z</Time>
            <Position>
              <LatitudeDegrees>42.84118191339075565338134765625</LatitudeDegrees>
              <LongitudeDegrees>-0.143600441515445709228515625</LongitudeDegrees>
            </Position>
            <AltitudeMeters>1740</AltitudeMeters>
            <DistanceMeters>3405.7884960373</DistanceMeters>
          </Trackpoint>
          <Trackpoint>
            <Time>2022-07-09T08:16:19.000Z</Time>
            <Position>
              <LatitudeDegrees>42.84113564528524875640869140625</LatitudeDegrees>
              <LongitudeDegrees>-0.14359650202095508575439453125</LongitudeDegrees>
            </Position>
            <AltitudeMeters>1740</AltitudeMeters>
            <DistanceMeters>3410.9480178521</DistanceMeters>
          </Trackpoint>
          <Trackpoint>
            <Time>2022-07-09T08:16:21.000Z</Time>
            <Position>
              <LatitudeDegrees>42.841111756861209869384765625</LatitudeDegrees>
              <LongitudeDegrees>-0.143596418201923370361328125</LongitudeDegrees>
            </Position>
            <AltitudeMeters>1739.800048828125</AltitudeMeters>
            <DistanceMeters>3413.6087658544</DistanceMeters>
          </Trackpoint>
          <Trackpoint>
            <Time>2022-07-09T08:16:27.000Z</Time>
            <Position>
              <LatitudeDegrees>42.84103305079042911529541015625</LatitudeDegrees>
              <LongitudeDegrees>-0.1435865275561809539794921875</LongitudeDegrees>
            </Position>
            <AltitudeMeters>1739.4000244140625</AltitudeMeters>
            <DistanceMeters>3422.4063101255</DistanceMeters>
          </Trackpoint>
          <Trackpoint>
            <Time>2022-07-09T08:16:33.000Z</Time>
            <Position>
              <LatitudeDegrees>42.84097001887857913970947265625</LatitudeDegrees>
              <LongitudeDegrees>-0.14355006627738475799560546875</LongitudeDegrees>
            </Position>
            <AltitudeMeters>1740</AltitudeMeters>
            <DistanceMeters>3430.0274289205</DistanceMeters>
          </Trackpoint>
          <Trackpoint>
            <Time>2022-07-09T08:16:34.000Z</Time>
            <Position>
              <LatitudeDegrees>42.84095794893801212310791015625</LatitudeDegrees>
              <LongitudeDegrees>-0.14354051090776920318603515625</LongitudeDegrees>
            </Position>
            <AltitudeMeters>1740.199951171875</AltitudeMeters>
            <DistanceMeters>3431.5830832802</DistanceMeters>
          </Trackpoint>
          <Trackpoint>
            <Time>2022-07-09T08:16:37.000Z</Time>
            <Position>
              <LatitudeDegrees>42.8409167937934398651123046875</LatitudeDegrees>
              <LongitudeDegrees>-0.14351871795952320098876953125</LongitudeDegrees>
            </Position>
            <AltitudeMeters>1740.800048828125</AltitudeMeters>
            <DistanceMeters>3436.4988217359</DistanceMeters>
          </Trackpoint>
          <Trackpoint>
            <Time>2022-07-09T08:16:40.000Z</Time>
            <Position>
              <LatitudeDegrees>42.8408802486956119537353515625</LatitudeDegrees>
              <LongitudeDegrees>-0.1434889622032642364501953125</LongitudeDegrees>
            </Position>
            <AltitudeMeters>1741</AltitudeMeters>
            <DistanceMeters>3441.2368350368</DistanceMeters>
          </Trackpoint>
          <Trackpoint>
            <Time>2022-07-09T08:16:42.000Z</Time>
            <Position>
              <LatitudeDegrees>42.84085971303284168243408203125</LatitudeDegrees>
              <LongitudeDegrees>-0.143480412662029266357421875</LongitudeDegrees>
            </Position>
            <AltitudeMeters>1741.800048828125</AltitudeMeters>
            <DistanceMeters>3443.6257695927</DistanceMeters>
          </Trackpoint>
          <Trackpoint>
            <Time>2022-07-09T08:16:45.000Z</Time>
            <Position>
              <LatitudeDegrees>42.84082517959177494049072265625</LatitudeDegrees>
              <LongitudeDegrees>-0.1434458792209625244140625</LongitudeDegrees>
            </Position>
            <AltitudeMeters>1742.5999755859375</AltitudeMeters>
            <DistanceMeters>3448.3922853362</DistanceMeters>
          </Trackpoint>
          <Trackpoint>
            <Time>2022-07-09T08:16:46.000Z</Time>
            <Position>
              <LatitudeDegrees>42.84081445075571537017822265625</LatitudeDegrees>
              <LongitudeDegrees>-0.14343489892780780792236328125</LongitudeDegrees>
            </Position>
            <AltitudeMeters>1742.5999755859375</AltitudeMeters>
            <DistanceMeters>3449.8857473818</DistanceMeters>
          </Trackpoint>
          <Trackpoint>
            <Time>2022-07-09T08:16:48.000Z</Time>
            <Position>
              <LatitudeDegrees>42.8407890535891056060791015625</LatitudeDegrees>
              <LongitudeDegrees>-0.1434081606566905975341796875</LongitudeDegrees>
            </Position>
            <AltitudeMeters>1742.800048828125</AltitudeMeters>
            <DistanceMeters>3453.45652712</DistanceMeters>
          </Trackpoint>
          <Trackpoint>
            <Time>2022-07-09T08:16:54.000Z</Time>
            <Position>
              <LatitudeDegrees>42.8407360799610614776611328125</LatitudeDegrees>
              <LongitudeDegrees>-0.14335124753415584564208984375</LongitudeDegrees>
            </Position>
            <AltitudeMeters>1742.5999755859375</AltitudeMeters>
            <DistanceMeters>3460.9624345891</DistanceMeters>
          </Trackpoint>
          <Trackpoint>
            <Time>2022-07-09T08:16:55.000Z</Time>
            <Position>
              <LatitudeDegrees>42.84072828479111194610595703125</LatitudeDegrees>
              <LongitudeDegrees>-0.14334387145936489105224609375</LongitudeDegrees>
            </Position>
            <AltitudeMeters>1742.4000244140625</AltitudeMeters>
            <DistanceMeters>3462.0206072966</DistanceMeters>
          </Trackpoint>
          <Trackpoint>
            <Time>2022-07-09T08:17:01.000Z</Time>
            <Position>
              <LatitudeDegrees>42.84069408662617206573486328125</LatitudeDegrees>
              <LongitudeDegrees>-0.14332157559692859649658203125</LongitudeDegrees>
            </Position>
            <AltitudeMeters>1742.4000244140625</AltitudeMeters>
            <DistanceMeters>3466.2404782363</DistanceMeters>
          </Trackpoint>
          <Trackpoint>
            <Time>2022-07-09T08:17:05.000Z</Time>
            <Position>
              <LatitudeDegrees>42.84066458232700824737548828125</LatitudeDegrees>
              <LongitudeDegrees>-0.14327220618724822998046875</LongitudeDegrees>
            </Position>
            <AltitudeMeters>1742.199951171875</AltitudeMeters>
            <DistanceMeters>3471.4383613362</DistanceMeters>
          </Trackpoint>
          <Trackpoint>
            <Time>2022-07-09T08:17:08.000Z</Time>
            <Position>
              <LatitudeDegrees>42.840636670589447021484375</LatitudeDegrees>
              <LongitudeDegrees>-0.1432393491268157958984375</LongitudeDegrees>
            </Position>
            <AltitudeMeters>1742</AltitudeMeters>
            <DistanceMeters>3475.5410510017</DistanceMeters>
          </Trackpoint>
          <Trackpoint>
            <Time>2022-07-09T08:17:10.000Z</Time>
            <Position>
              <LatitudeDegrees>42.84061579965054988861083984375</LatitudeDegrees>
              <LongitudeDegrees>-0.14322753064334392547607421875</LongitudeDegrees>
            </Position>
            <AltitudeMeters>1741.800048828125</AltitudeMeters>
            <DistanceMeters>3478.055221543</DistanceMeters>
          </Trackpoint>
          <Trackpoint>
            <Time>2022-07-09T08:17:11.000Z</Time>
            <Position>
              <LatitudeDegrees>42.84060423262417316436767578125</LatitudeDegrees>
              <LongitudeDegrees>-0.1432230882346630096435546875</LongitudeDegrees>
            </Position>
            <AltitudeMeters>1741.800048828125</AltitudeMeters>
            <DistanceMeters>3479.3923659391</DistanceMeters>
          </Trackpoint>
          <Trackpoint>
            <Time>2022-07-09T08:17:12.000Z</Time>
            <Position>
              <LatitudeDegrees>42.84059115685522556304931640625</LatitudeDegrees>
              <LongitudeDegrees>-0.143217556178569793701171875</LongitudeDegrees>
            </Position>
            <AltitudeMeters>1741.5999755859375</AltitudeMeters>
            <DistanceMeters>3480.9187209838</DistanceMeters>
          </Trackpoint>
          <Trackpoint>
            <Time>2022-07-09T08:17:15.000Z</Time>
            <Position>
              <LatitudeDegrees>42.84055285155773162841796875</LatitudeDegrees>
              <LongitudeDegrees>-0.14318796806037425994873046875</LongitudeDegrees>
            </Position>
            <AltitudeMeters>1741.5999755859375</AltitudeMeters>
            <DistanceMeters>3485.8188202955</DistanceMeters>
          </Trackpoint>
          <Trackpoint>
            <Time>2022-07-09T08:17:17.000Z</Time>
            <Position>
              <LatitudeDegrees>42.8405288793146610260009765625</LatitudeDegrees>
              <LongitudeDegrees>-0.1431570388376712799072265625</LongitudeDegrees>
            </Position>
            <AltitudeMeters>1741.5999755859375</AltitudeMeters>
            <DistanceMeters>3489.4918210044</DistanceMeters>
          </Trackpoint>
          <Trackpoint>
            <Time>2022-07-09T08:17:20.000Z</Time>
            <Position>
              <LatitudeDegrees>42.84049409441649913787841796875</LatitudeDegrees>
              <LongitudeDegrees>-0.14312661252915859222412109375</LongitudeDegrees>
            </Position>
            <AltitudeMeters>1741.5999755859375</AltitudeMeters>
            <DistanceMeters>3494.0915458992</DistanceMeters>
          </Trackpoint>
          <Trackpoint>
            <Time>2022-07-09T08:17:24.000Z</Time>
            <Position>
              <LatitudeDegrees>42.84044112078845500946044921875</LatitudeDegrees>
              <LongitudeDegrees>-0.1430973596870899200439453125</LongitudeDegrees>
            </Position>
            <AltitudeMeters>1741.5999755859375</AltitudeMeters>
            <DistanceMeters>3500.4526599955</DistanceMeters>
          </Trackpoint>
          <Trackpoint>
            <Time>2022-07-09T08:17:30.000Z</Time>
            <Position>
              <LatitudeDegrees>42.840352021157741546630859375</LatitudeDegrees>
              <LongitudeDegrees>-0.14307238161563873291015625</LongitudeDegrees>
            </Position>
            <AltitudeMeters>1741.800048828125</AltitudeMeters>
            <DistanceMeters>3510.5773539559</DistanceMeters>
          </Trackpoint>
          <Trackpoint>
            <Time>2022-07-09T08:17:33.000Z</Time>
            <Position>
              <LatitudeDegrees>42.84031145274639129638671875</LatitudeDegrees>
              <LongitudeDegrees>-0.1430564559996128082275390625</LongitudeDegrees>
            </Position>
            <AltitudeMeters>1741.4000244140625</AltitudeMeters>
            <DistanceMeters>3515.277095117</DistanceMeters>
          </Trackpoint>
          <Trackpoint>
            <Time>2022-07-09T08:17:39.000Z</Time>
            <Position>
              <LatitudeDegrees>42.840230651199817657470703125</LatitudeDegrees>
              <LongitudeDegrees>-0.1430313102900981903076171875</LongitudeDegrees>
            </Position>
            <AltitudeMeters>1741.5999755859375</AltitudeMeters>
            <DistanceMeters>3524.5010519824</DistanceMeters>
          </Trackpoint>
          <Trackpoint>
            <Time>2022-07-09T08:17:43.000Z</Time>
            <Position>
              <LatitudeDegrees>42.8401686251163482666015625</LatitudeDegrees>
              <LongitudeDegrees>-0.14300976879894733428955078125</LongitudeDegrees>
            </Position>
            <AltitudeMeters>1741.800048828125</AltitudeMeters>
            <DistanceMeters>3531.6248872988</DistanceMeters>
          </Trackpoint>
          <Trackpoint>
            <Time>2022-07-09T08:17:47.000Z</Time>
            <Position>
              <LatitudeDegrees>42.84012378193438053131103515625</LatitudeDegrees>
              <LongitudeDegrees>-0.14296953566372394561767578125</LongitudeDegrees>
            </Position>
            <AltitudeMeters>1741.4000244140625</AltitudeMeters>
            <DistanceMeters>3537.5987354812</DistanceMeters>
          </Trackpoint>
          <Trackpoint>
            <Time>2022-07-09T08:17:52.000Z</Time>
            <Position>
              <LatitudeDegrees>42.8400772623717784881591796875</LatitudeDegrees>
              <LongitudeDegrees>-0.1429206691682338714599609375</LongitudeDegrees>
            </Position>
            <AltitudeMeters>1740.800048828125</AltitudeMeters>
            <DistanceMeters>3544.1341973302</DistanceMeters>
          </Trackpoint>
          <Trackpoint>
            <Time>2022-07-09T08:17:53.000Z</Time>
            <Position>
              <LatitudeDegrees>42.8400651924312114715576171875</LatitudeDegrees>
              <LongitudeDegrees>-0.14291279017925262451171875</LongitudeDegrees>
            </Position>
            <AltitudeMeters>1740.4000244140625</AltitudeMeters>
            <DistanceMeters>3545.6246331072</DistanceMeters>
          </Trackpoint>
          <Trackpoint>
            <Time>2022-07-09T08:17:54.000Z</Time>
            <Position>
              <LatitudeDegrees>42.84005220048129558563232421875</LatitudeDegrees>
              <LongitudeDegrees>-0.1429059170186519622802734375</LongitudeDegrees>
            </Position>
            <AltitudeMeters>1740.4000244140625</AltitudeMeters>
            <DistanceMeters>3547.1744719163</DistanceMeters>
          </Trackpoint>
          <Trackpoint>
            <Time>2022-07-09T08:17:55.000Z</Time>
            <Position>
              <LatitudeDegrees>42.8400366939604282379150390625</LatitudeDegrees>
              <LongitudeDegrees>-0.14289996586740016937255859375</LongitudeDegrees>
            </Position>
            <AltitudeMeters>1740.199951171875</AltitudeMeters>
            <DistanceMeters>3548.9674323771</DistanceMeters>
          </Trackpoint>
          <Trackpoint>
            <Time>2022-07-09T08:17:59.000Z</Time>
            <Position>
              <LatitudeDegrees>42.8399760089814662933349609375</LatitudeDegrees>
              <LongitudeDegrees>-0.1428737305104732513427734375</LongitudeDegrees>
            </Position>
            <AltitudeMeters>1740.199951171875</AltitudeMeters>
            <DistanceMeters>3556.0531380602</DistanceMeters>
          </Trackpoint>
          <Trackpoint>
            <Time>2022-07-09T08:18:05.000Z</Time>
            <Position>
              <LatitudeDegrees>42.83988498151302337646484375</LatitudeDegrees>
              <LongitudeDegrees>-0.14281899668276309967041015625</LongitudeDegrees>
            </Position>
            <AltitudeMeters>1740</AltitudeMeters>
            <DistanceMeters>3567.1260951159</DistanceMeters>
          </Trackpoint>
          <Trackpoint>
            <Time>2022-07-09T08:18:06.000Z</Time>
            <Position>
              <LatitudeDegrees>42.83987299539148807525634765625</LatitudeDegrees>
              <LongitudeDegrees>-0.142809860408306121826171875</LongitudeDegrees>
            </Position>
            <AltitudeMeters>1740</AltitudeMeters>
            <DistanceMeters>3568.6583548443</DistanceMeters>
          </Trackpoint>
          <Trackpoint>
            <Time>2022-07-09T08:18:07.000Z</Time>
            <Position>
              <LatitudeDegrees>42.83986059017479419708251953125</LatitudeDegrees>
              <LongitudeDegrees>-0.1428026519715785980224609375</LongitudeDegrees>
            </Position>
            <AltitudeMeters>1739.800048828125</AltitudeMeters>
            <DistanceMeters>3570.1578511046</DistanceMeters>
          </Trackpoint>
          <Trackpoint>
            <Time>2022-07-09T08:18:09.000Z</Time>
            <Position>
              <LatitudeDegrees>42.83983670175075531005859375</LatitudeDegrees>
              <LongitudeDegrees>-0.1427942700684070587158203125</LongitudeDegrees>
            </Position>
            <AltitudeMeters>1739.800048828125</AltitudeMeters>
            <DistanceMeters>3572.9021331153</DistanceMeters>
          </Trackpoint>
          <Trackpoint>
            <Time>2022-07-09T08:18:10.000Z</Time>
            <Position>
              <LatitudeDegrees>42.839825637638568878173828125</LatitudeDegrees>
              <LongitudeDegrees>-0.14278815127909183502197265625</LongitudeDegrees>
            </Position>
            <AltitudeMeters>1739.4000244140625</AltitudeMeters>
            <DistanceMeters>3574.2257020897</DistanceMeters>
          </Trackpoint>
          <Trackpoint>
            <Time>2022-07-09T08:18:13.000Z</Time>
            <Position>
              <LatitudeDegrees>42.8398025035858154296875</LatitudeDegrees>
              <LongitudeDegrees>-0.14277339912950992584228515625</LongitudeDegrees>
            </Position>
            <AltitudeMeters>1738.800048828125</AltitudeMeters>
            <DistanceMeters>3577.0685735989</DistanceMeters>
          </Trackpoint>
          <Trackpoint>
            <Time>2022-07-09T08:18:14.000Z</Time>
            <Position>
              <LatitudeDegrees>42.8397996537387371063232421875</LatitudeDegrees>
              <LongitudeDegrees>-0.14277088455855846405029296875</LongitudeDegrees>
            </Position>
            <AltitudeMeters>1738.5999755859375</AltitudeMeters>
            <DistanceMeters>3577.4486804563</DistanceMeters>
          </Trackpoint>
          <Trackpoint>
            <Time>2022-07-09T08:18:16.000Z</Time>
            <Position>
              <LatitudeDegrees>42.83979470841586589813232421875</LatitudeDegrees>
              <LongitudeDegrees>-0.14276065863668918609619140625</LongitudeDegrees>
            </Position>
            <AltitudeMeters>1738.4000244140625</AltitudeMeters>
            <DistanceMeters>3578.4453290448</DistanceMeters>
          </Trackpoint>
          <Trackpoint>
            <Time>2022-07-09T08:18:18.000Z</Time>
            <Position>
              <LatitudeDegrees>42.83977995626628398895263671875</LatitudeDegrees>
              <LongitudeDegrees>-0.1427563838660717010498046875</LongitudeDegrees>
            </Position>
            <AltitudeMeters>1738.199951171875</AltitudeMeters>
            <DistanceMeters>3580.1238354792</DistanceMeters>
          </Trackpoint>
          <Trackpoint>
            <Time>2022-07-09T08:18:19.000Z</Time>
            <Position>
              <LatitudeDegrees>42.8397671319544315338134765625</LatitudeDegrees>
              <LongitudeDegrees>-0.142755210399627685546875</LongitudeDegrees>
            </Position>
            <AltitudeMeters>1738</AltitudeMeters>
            <DistanceMeters>3581.5524002402</DistanceMeters>
          </Trackpoint>
          <Trackpoint>
            <Time>2022-07-09T08:18:20.000Z</Time>
            <Position>
              <LatitudeDegrees>42.83974944613873958587646484375</LatitudeDegrees>
              <LongitudeDegrees>-0.14275319874286651611328125</LongitudeDegrees>
            </Position>
            <AltitudeMeters>1738</AltitudeMeters>
            <DistanceMeters>3583.5274934086</DistanceMeters>
          </Trackpoint>
          <Trackpoint>
            <Time>2022-07-09T08:18:26.000Z</Time>
            <Position>
              <LatitudeDegrees>42.839650623500347137451171875</LatitudeDegrees>
              <LongitudeDegrees>-0.1427243649959564208984375</LongitudeDegrees>
            </Position>
            <AltitudeMeters>1739.4000244140625</AltitudeMeters>
            <DistanceMeters>3594.7756221888</DistanceMeters>
          </Trackpoint>
          <Trackpoint>
            <Time>2022-07-09T08:18:31.000Z</Time>
            <Position>
              <LatitudeDegrees>42.839571498334407806396484375</LatitudeDegrees>
              <LongitudeDegrees>-0.14268874190747737884521484375</LongitudeDegrees>
            </Position>
            <AltitudeMeters>1739.199951171875</AltitudeMeters>
            <DistanceMeters>3604.0493726735</DistanceMeters>
          </Trackpoint>
          <Trackpoint>
            <Time>2022-07-09T08:18:32.000Z</Time>
            <Position>
              <LatitudeDegrees>42.83955984748899936676025390625</LatitudeDegrees>
              <LongitudeDegrees>-0.142679102718830108642578125</LongitudeDegrees>
            </Position>
            <AltitudeMeters>1739.199951171875</AltitudeMeters>
            <DistanceMeters>3605.5638492883</DistanceMeters>
          </Trackpoint>
          <Trackpoint>
            <Time>2022-07-09T08:18:34.000Z</Time>
            <Position>
              <LatitudeDegrees>42.839534617960453033447265625</LatitudeDegrees>
              <LongitudeDegrees>-0.142656303942203521728515625</LongitudeDegrees>
            </Position>
            <AltitudeMeters>1739</AltitudeMeters>
            <DistanceMeters>3608.9316046258</DistanceMeters>
          </Trackpoint>
          <Trackpoint>
            <Time>2022-07-09T08:18:37.000Z</Time>
            <Position>
              <LatitudeDegrees>42.839486338198184967041015625</LatitudeDegrees>
              <LongitudeDegrees>-0.142632164061069488525390625</LongitudeDegrees>
            </Position>
            <AltitudeMeters>1738.800048828125</AltitudeMeters>
            <DistanceMeters>3614.654548559</DistanceMeters>
          </Trackpoint>
          <Trackpoint>
            <Time>2022-07-09T08:18:38.000Z</Time>
            <Position>
              <LatitudeDegrees>42.83946990966796875</LatitudeDegrees>
              <LongitudeDegrees>-0.1426259614527225494384765625</LongitudeDegrees>
            </Position>
            <AltitudeMeters>1738.800048828125</AltitudeMeters>
            <DistanceMeters>3616.5503255566</DistanceMeters>
          </Trackpoint>
          <Trackpoint>
            <Time>2022-07-09T08:18:44.000Z</Time>
            <Position>
              <LatitudeDegrees>42.83937896601855754852294921875</LatitudeDegrees>
              <LongitudeDegrees>-0.1425917632877826690673828125</LongitudeDegrees>
            </Position>
            <AltitudeMeters>1738.5999755859375</AltitudeMeters>
            <DistanceMeters>3627.0498099834</DistanceMeters>
          </Trackpoint>
          <Trackpoint>
            <Time>2022-07-09T08:18:45.000Z</Time>
            <Position>
              <LatitudeDegrees>42.83936329185962677001953125</LatitudeDegrees>
              <LongitudeDegrees>-0.1425810344517230987548828125</LongitudeDegrees>
            </Position>
            <AltitudeMeters>1738.199951171875</AltitudeMeters>
            <DistanceMeters>3629.0019094325</DistanceMeters>
          </Trackpoint>
          <Trackpoint>
            <Time>2022-07-09T08:18:50.000Z</Time>
            <Position>
              <LatitudeDegrees>42.83926497213542461395263671875</LatitudeDegrees>
              <LongitudeDegrees>-0.1425713114440441131591796875</LongitudeDegrees>
            </Position>
            <AltitudeMeters>1737.800048828125</AltitudeMeters>
            <DistanceMeters>3639.9736891001</DistanceMeters>
          </Trackpoint>
          <Trackpoint>
            <Time>2022-07-09T08:18:56.000Z</Time>
            <Position>
              <LatitudeDegrees>42.83917595632374286651611328125</LatitudeDegrees>
              <LongitudeDegrees>-0.1425622589886188507080078125</LongitudeDegrees>
            </Position>
            <AltitudeMeters>1738</AltitudeMeters>
            <DistanceMeters>3649.9084128272</DistanceMeters>
          </Trackpoint>
          <Trackpoint>
            <Time>2022-07-09T08:18:58.000Z</Time>
            <Position>
              <LatitudeDegrees>42.83914678730070590972900390625</LatitudeDegrees>
              <LongitudeDegrees>-0.142533592879772186279296875</LongitudeDegrees>
            </Position>
            <AltitudeMeters>1738.199951171875</AltitudeMeters>
            <DistanceMeters>3653.9097033109</DistanceMeters>
          </Trackpoint>
          <Trackpoint>
            <Time>2022-07-09T08:19:01.000Z</Time>
            <Position>
              <LatitudeDegrees>42.839106805622577667236328125</LatitudeDegrees>
              <LongitudeDegrees>-0.14249595813453197479248046875</LongitudeDegrees>
            </Position>
            <AltitudeMeters>1738</AltitudeMeters>
            <DistanceMeters>3659.3170490115</DistanceMeters>
          </Trackpoint>
          <Trackpoint>
            <Time>2022-07-09T08:19:04.000Z</Time>
            <Position>
              <LatitudeDegrees>42.83905626274645328521728515625</LatitudeDegrees>
              <LongitudeDegrees>-0.14248229563236236572265625</LongitudeDegrees>
            </Position>
            <AltitudeMeters>1737.800048828125</AltitudeMeters>
            <DistanceMeters>3665.051814779</DistanceMeters>
          </Trackpoint>
          <Trackpoint>
            <Time>2022-07-09T08:19:09.000Z</Time>
            <Position>
              <LatitudeDegrees>42.8389550931751728057861328125</LatitudeDegrees>
              <LongitudeDegrees>-0.14246041886508464813232421875</LongitudeDegrees>
            </Position>
            <AltitudeMeters>1737.4000244140625</AltitudeMeters>
            <DistanceMeters>3676.4526445881</DistanceMeters>
          </Trackpoint>
          <Trackpoint>
            <Time>2022-07-09T08:19:10.000Z</Time>
            <Position>
              <LatitudeDegrees>42.8389356471598148345947265625</LatitudeDegrees>
              <LongitudeDegrees>-0.14245606027543544769287109375</LongitudeDegrees>
            </Position>
            <AltitudeMeters>1737.4000244140625</AltitudeMeters>
            <DistanceMeters>3678.6444476513</DistanceMeters>
          </Trackpoint>
          <Trackpoint>
            <Time>2022-07-09T08:19:15.000Z</Time>
            <Position>
              <LatitudeDegrees>42.83885903656482696533203125</LatitudeDegrees>
              <LongitudeDegrees>-0.14242253266274929046630859375</LongitudeDegrees>
            </Position>
            <AltitudeMeters>1737.199951171875</AltitudeMeters>
            <DistanceMeters>3687.5991714786</DistanceMeters>
          </Trackpoint>
          <Trackpoint>
            <Time>2022-07-09T08:19:19.000Z</Time>
            <Position>
              <LatitudeDegrees>42.83882324583828449249267578125</LatitudeDegrees>
              <LongitudeDegrees>-0.14241515658795833587646484375</LongitudeDegrees>
            </Position>
            <AltitudeMeters>1737</AltitudeMeters>
            <DistanceMeters>3691.6285731024</DistanceMeters>
          </Trackpoint>
          <Trackpoint>
            <Time>2022-07-09T08:19:20.000Z</Time>
            <Position>
              <LatitudeDegrees>42.83881268464028835296630859375</LatitudeDegrees>
              <LongitudeDegrees>-0.142412893474102020263671875</LongitudeDegrees>
            </Position>
            <AltitudeMeters>1737</AltitudeMeters>
            <DistanceMeters>3692.8230403804</DistanceMeters>
          </Trackpoint>
          <Trackpoint>
            <Time>2022-07-09T08:19:25.000Z</Time>
            <Position>
              <LatitudeDegrees>42.83874864690005779266357421875</LatitudeDegrees>
              <LongitudeDegrees>-0.142406187951564788818359375</LongitudeDegrees>
            </Position>
            <AltitudeMeters>1736</AltitudeMeters>
            <DistanceMeters>3699.970919263</DistanceMeters>
          </Trackpoint>
          <Trackpoint>
            <Time>2022-07-09T08:19:28.000Z</Time>
            <Position>
              <LatitudeDegrees>42.8387160412967205047607421875</LatitudeDegrees>
              <LongitudeDegrees>-0.14239051379263401031494140625</LongitudeDegrees>
            </Position>
            <AltitudeMeters>1735.5999755859375</AltitudeMeters>
            <DistanceMeters>3703.8168606582</DistanceMeters>
          </Trackpoint>
          <Trackpoint>
            <Time>2022-07-09T08:19:31.000Z</Time>
            <Position>
              <LatitudeDegrees>42.83868142403662204742431640625</LatitudeDegrees>
              <LongitudeDegrees>-0.1423676311969757080078125</LongitudeDegrees>
            </Position>
            <AltitudeMeters>1735.5999755859375</AltitudeMeters>
            <DistanceMeters>3708.0983388119</DistanceMeters>
          </Trackpoint>
          <Trackpoint>
            <Time>2022-07-09T08:19:37.000Z</Time>
            <Position>
              <LatitudeDegrees>42.8385970182716846466064453125</LatitudeDegrees>
              <LongitudeDegrees>-0.1423201896250247955322265625</LongitudeDegrees>
            </Position>
            <AltitudeMeters>1735.199951171875</AltitudeMeters>
            <DistanceMeters>3718.2595343154</DistanceMeters>
          </Trackpoint>
          <Trackpoint>
            <Time>2022-07-09T08:19:38.000Z</Time>
            <Position>
              <LatitudeDegrees>42.8385839425027370452880859375</LatitudeDegrees>
              <LongitudeDegrees>-0.14231440611183643341064453125</LongitudeDegrees>
            </Position>
            <AltitudeMeters>1735.199951171875</AltitudeMeters>
            <DistanceMeters>3719.7888445518</DistanceMeters>
          </Trackpoint>
          <Trackpoint>
            <Time>2022-07-09T08:19:39.000Z</Time>
            <Position>
              <LatitudeDegrees>42.83857212401926517486572265625</LatitudeDegrees>
              <LongitudeDegrees>-0.1423111371695995330810546875</LongitudeDegrees>
            </Position>
            <AltitudeMeters>1735</AltitudeMeters>
            <DistanceMeters>3721.1327252343</DistanceMeters>
          </Trackpoint>
          <Trackpoint>
            <Time>2022-07-09T08:19:45.000Z</Time>
            <Position>
              <LatitudeDegrees>42.83849316649138927459716796875</LatitudeDegrees>
              <LongitudeDegrees>-0.14229713939130306243896484375</LongitudeDegrees>
            </Position>
            <AltitudeMeters>1734.199951171875</AltitudeMeters>
            <DistanceMeters>3729.9952082334</DistanceMeters>
          </Trackpoint>
          <Trackpoint>
            <Time>2022-07-09T08:19:46.000Z</Time>
            <Position>
              <LatitudeDegrees>42.8384796716272830963134765625</LatitudeDegrees>
              <LongitudeDegrees>-0.14229051768779754638671875</LongitudeDegrees>
            </Position>
            <AltitudeMeters>1733.800048828125</AltitudeMeters>
            <DistanceMeters>3731.5909781282</DistanceMeters>
          </Trackpoint>
          <Trackpoint>
            <Time>2022-07-09T08:19:49.000Z</Time>
            <Position>
              <LatitudeDegrees>42.83844052813947200775146484375</LatitudeDegrees>
              <LongitudeDegrees>-0.142262689769268035888671875</LongitudeDegrees>
            </Position>
            <AltitudeMeters>1733.199951171875</AltitudeMeters>
            <DistanceMeters>3736.5048792679</DistanceMeters>
          </Trackpoint>
          <Trackpoint>
            <Time>2022-07-09T08:19:52.000Z</Time>
            <Position>
              <LatitudeDegrees>42.838402055203914642333984375</LatitudeDegrees>
              <LongitudeDegrees>-0.1422474347054958343505859375</LongitudeDegrees>
            </Position>
            <AltitudeMeters>1733</AltitudeMeters>
            <DistanceMeters>3740.965065184</DistanceMeters>
          </Trackpoint>
          <Trackpoint>
            <Time>2022-07-09T08:19:54.000Z</Time>
            <Position>
              <LatitudeDegrees>42.83838185481727123260498046875</LatitudeDegrees>
              <LongitudeDegrees>-0.14224148355424404144287109375</LongitudeDegrees>
            </Position>
            <AltitudeMeters>1732.800048828125</AltitudeMeters>
            <DistanceMeters>3743.2654183735</DistanceMeters>
          </Trackpoint>
          <Trackpoint>
            <Time>2022-07-09T08:20:00.000Z</Time>
            <Position>
              <LatitudeDegrees>42.83831429667770862579345703125</LatitudeDegrees>
              <LongitudeDegrees>-0.14220871031284332275390625</LongitudeDegrees>
            </Position>
            <AltitudeMeters>1732.4000244140625</AltitudeMeters>
            <DistanceMeters>3751.2465310299</DistanceMeters>
          </Trackpoint>
          <Trackpoint>
            <Time>2022-07-09T08:20:01.000Z</Time>
            <Position>
              <LatitudeDegrees>42.83830172382295131683349609375</LatitudeDegrees>
              <LongitudeDegrees>-0.14220225624740123748779296875</LongitudeDegrees>
            </Position>
            <AltitudeMeters>1732.4000244140625</AltitudeMeters>
            <DistanceMeters>3752.7430132243</DistanceMeters>
          </Trackpoint>
          <Trackpoint>
            <Time>2022-07-09T08:20:06.000Z</Time>
            <Position>
              <LatitudeDegrees>42.83824472688138484954833984375</LatitudeDegrees>
              <LongitudeDegrees>-0.14217124320566654205322265625</LongitudeDegrees>
            </Position>
            <AltitudeMeters>1731.5999755859375</AltitudeMeters>
            <DistanceMeters>3759.5723869023</DistanceMeters>
          </Trackpoint>
          <Trackpoint>
            <Time>2022-07-09T08:20:07.000Z</Time>
            <Position>
              <LatitudeDegrees>42.8382345847785472869873046875</LatitudeDegrees>
              <LongitudeDegrees>-0.14216713607311248779296875</LongitudeDegrees>
            </Position>
            <AltitudeMeters>1731.5999755859375</AltitudeMeters>
            <DistanceMeters>3760.7478024441</DistanceMeters>
          </Trackpoint>
          <Trackpoint>
            <Time>2022-07-09T08:20:08.000Z</Time>
            <Position>
              <LatitudeDegrees>42.8382248617708683013916015625</LatitudeDegrees>
              <LongitudeDegrees>-0.14216311275959014892578125</LongitudeDegrees>
            </Position>
            <AltitudeMeters>1731.5999755859375</AltitudeMeters>
            <DistanceMeters>3761.8801764349</DistanceMeters>
          </Trackpoint>
          <Trackpoint>
            <Time>2022-07-09T08:20:10.000Z</Time>
            <Position>
              <LatitudeDegrees>42.8382013924419879913330078125</LatitudeDegrees>
              <LongitudeDegrees>-0.142150707542896270751953125</LongitudeDegrees>
            </Position>
            <AltitudeMeters>1731.5999755859375</AltitudeMeters>
            <DistanceMeters>3764.6814505075</DistanceMeters>
          </Trackpoint>
          <Trackpoint>
            <Time>2022-07-09T08:20:14.000Z</Time>
            <Position>
              <LatitudeDegrees>42.83814263530075550079345703125</LatitudeDegrees>
              <LongitudeDegrees>-0.142132602632045745849609375</LongitudeDegrees>
            </Position>
            <AltitudeMeters>1731.800048828125</AltitudeMeters>
            <DistanceMeters>3771.3860549356</DistanceMeters>
          </Trackpoint>
          <Trackpoint>
            <Time>2022-07-09T08:20:17.000Z</Time>
            <Position>
              <LatitudeDegrees>42.8381006419658660888671875</LatitudeDegrees>
              <LongitudeDegrees>-0.1421307586133480072021484375</LongitudeDegrees>
            </Position>
            <AltitudeMeters>1731.199951171875</AltitudeMeters>
            <DistanceMeters>3776.0626824756</DistanceMeters>
          </Trackpoint>
          <Trackpoint>
            <Time>2022-07-09T08:20:18.000Z</Time>
            <Position>
              <LatitudeDegrees>42.83808714710175991058349609375</LatitudeDegrees>
              <LongitudeDegrees>-0.14212866313755512237548828125</LongitudeDegrees>
            </Position>
            <AltitudeMeters>1731</AltitudeMeters>
            <DistanceMeters>3777.5771590904</DistanceMeters>
          </Trackpoint>
          <Trackpoint>
            <Time>2022-07-09T08:20:22.000Z</Time>
            <Position>
              <LatitudeDegrees>42.83803719095885753631591796875</LatitudeDegrees>
              <LongitudeDegrees>-0.14210586436092853546142578125</LongitudeDegrees>
            </Position>
            <AltitudeMeters>1731</AltitudeMeters>
            <DistanceMeters>3783.4411620831</DistanceMeters>
          </Trackpoint>
          <Trackpoint>
            <Time>2022-07-09T08:20:27.000Z</Time>
            <Position>
              <LatitudeDegrees>42.83798371441662311553955078125</LatitudeDegrees>
              <LongitudeDegrees>-0.142073594033718109130859375</LongitudeDegrees>
            </Position>
            <AltitudeMeters>1730.5999755859375</AltitudeMeters>
            <DistanceMeters>3789.9496249276</DistanceMeters>
          </Trackpoint>
          <Trackpoint>
            <Time>2022-07-09T08:20:31.000Z</Time>
            <Position>
              <LatitudeDegrees>42.83794314600527286529541015625</LatitudeDegrees>
              <LongitudeDegrees>-0.142050124704837799072265625</LongitudeDegrees>
            </Position>
            <AltitudeMeters>1730.4000244140625</AltitudeMeters>
            <DistanceMeters>3794.8552496302</DistanceMeters>
          </Trackpoint>
          <Trackpoint>
            <Time>2022-07-09T08:20:34.000Z</Time>
            <Position>
              <LatitudeDegrees>42.837913222610950469970703125</LatitudeDegrees>
              <LongitudeDegrees>-0.1420338638126850128173828125</LongitudeDegrees>
            </Position>
            <AltitudeMeters>1730.199951171875</AltitudeMeters>
            <DistanceMeters>3798.4399112293</DistanceMeters>
          </Trackpoint>
          <Trackpoint>
            <Time>2022-07-09T08:20:39.000Z</Time>
            <Position>
              <LatitudeDegrees>42.837852202355861663818359375</LatitudeDegrees>
              <LongitudeDegrees>-0.14200226403772830963134765625</LongitudeDegrees>
            </Position>
            <AltitudeMeters>1730</AltitudeMeters>
            <DistanceMeters>3805.704329082</DistanceMeters>
          </Trackpoint>
          <Trackpoint>
            <Time>2022-07-09T08:20:41.000Z</Time>
            <Position>
              <LatitudeDegrees>42.83782764337956905364990234375</LatitudeDegrees>
              <LongitudeDegrees>-0.141989775002002716064453125</LongitudeDegrees>
            </Position>
            <AltitudeMeters>1730</AltitudeMeters>
            <DistanceMeters>3808.620890758</DistanceMeters>
          </Trackpoint>
          <Trackpoint>
            <Time>2022-07-09T08:20:47.000Z</Time>
            <Position>
              <LatitudeDegrees>42.83775773830711841583251953125</LatitudeDegrees>
              <LongitudeDegrees>-0.1419587619602680206298828125</LongitudeDegrees>
            </Position>
            <AltitudeMeters>1730</AltitudeMeters>
            <DistanceMeters>3816.8031268067</DistanceMeters>
          </Trackpoint>
          <Trackpoint>
            <Time>2022-07-09T08:20:48.000Z</Time>
            <Position>
              <LatitudeDegrees>42.83774684183299541473388671875</LatitudeDegrees>
              <LongitudeDegrees>-0.14195767231285572052001953125</LongitudeDegrees>
            </Position>
            <AltitudeMeters>1730.199951171875</AltitudeMeters>
            <DistanceMeters>3818.0200625226</DistanceMeters>
          </Trackpoint>
          <Trackpoint>
            <Time>2022-07-09T08:20:51.000Z</Time>
            <Position>
              <LatitudeDegrees>42.837713398039340972900390625</LatitudeDegrees>
              <LongitudeDegrees>-0.1419396512210369110107421875</LongitudeDegrees>
            </Position>
            <AltitudeMeters>1730.199951171875</AltitudeMeters>
            <DistanceMeters>3822.0224812428</DistanceMeters>
          </Trackpoint>
          <Trackpoint>
            <Time>2022-07-09T08:20:53.000Z</Time>
            <Position>
              <LatitudeDegrees>42.8376954607665538787841796875</LatitudeDegrees>
              <LongitudeDegrees>-0.1419250667095184326171875</LongitudeDegrees>
            </Position>
            <AltitudeMeters>1730.5999755859375</AltitudeMeters>
            <DistanceMeters>3824.3462681766</DistanceMeters>
          </Trackpoint>
          <Trackpoint>
            <Time>2022-07-09T08:20:55.000Z</Time>
            <Position>
              <LatitudeDegrees>42.8376750089228153228759765625</LatitudeDegrees>
              <LongitudeDegrees>-0.14190671034157276153564453125</LongitudeDegrees>
            </Position>
            <AltitudeMeters>1731</AltitudeMeters>
            <DistanceMeters>3827.0707356175</DistanceMeters>
          </Trackpoint>
          <Trackpoint>
            <Time>2022-07-09T08:20:56.000Z</Time>
            <Position>
              <LatitudeDegrees>42.83766486681997776031494140625</LatitudeDegrees>
              <LongitudeDegrees>-0.14190117828547954559326171875</LongitudeDegrees>
            </Position>
            <AltitudeMeters>1731.199951171875</AltitudeMeters>
            <DistanceMeters>3828.2876713335</DistanceMeters>
          </Trackpoint>
          <Trackpoint>
            <Time>2022-07-09T08:20:59.000Z</Time>
            <Position>
              <LatitudeDegrees>42.8376304171979427337646484375</LatitudeDegrees>
              <LongitudeDegrees>-0.1418732665479183197021484375</LongitudeDegrees>
            </Position>
            <AltitudeMeters>1731.199951171875</AltitudeMeters>
            <DistanceMeters>3832.748869433</DistanceMeters>
          </Trackpoint>
          <Trackpoint>
            <Time>2022-07-09T08:21:04.000Z</Time>
            <Position>
              <LatitudeDegrees>42.83757685683667659759521484375</LatitudeDegrees>
              <LongitudeDegrees>-0.141834877431392669677734375</LongitudeDegrees>
            </Position>
            <AltitudeMeters>1731.199951171875</AltitudeMeters>
            <DistanceMeters>3839.4830393077</DistanceMeters>
          </Trackpoint>
          <Trackpoint>
            <Time>2022-07-09T08:21:10.000Z</Time>
            <Position>
              <LatitudeDegrees>42.83749136142432689666748046875</LatitudeDegrees>
              <LongitudeDegrees>-0.14180193655192852020263671875</LongitudeDegrees>
            </Position>
            <AltitudeMeters>1731</AltitudeMeters>
            <DistanceMeters>3849.3712983928</DistanceMeters>
          </Trackpoint>
          <Trackpoint>
            <Time>2022-07-09T08:21:11.000Z</Time>
            <Position>
              <LatitudeDegrees>42.8374795429408550262451171875</LatitudeDegrees>
              <LongitudeDegrees>-0.14179296791553497314453125</LongitudeDegrees>
            </Position>
            <AltitudeMeters>1731</AltitudeMeters>
            <DistanceMeters>3850.8738026727</DistanceMeters>
          </Trackpoint>
          <Trackpoint>
            <Time>2022-07-09T08:21:17.000Z</Time>
            <Position>
              <LatitudeDegrees>42.83742112107574939727783203125</LatitudeDegrees>
              <LongitudeDegrees>-0.14173471368849277496337890625</LongitudeDegrees>
            </Position>
            <AltitudeMeters>1730.800048828125</AltitudeMeters>
            <DistanceMeters>3858.9292436492</DistanceMeters>
          </Trackpoint>
          <Trackpoint>
            <Time>2022-07-09T08:21:18.000Z</Time>
            <Position>
              <LatitudeDegrees>42.8374114818871021270751953125</LatitudeDegrees>
              <LongitudeDegrees>-0.14172499068081378936767578125</LongitudeDegrees>
            </Position>
            <AltitudeMeters>1730.800048828125</AltitudeMeters>
            <DistanceMeters>3860.2630071438</DistanceMeters>
          </Trackpoint>
          <Trackpoint>
            <Time>2022-07-09T08:21:24.000Z</Time>
            <Position>
              <LatitudeDegrees>42.83734467811882495880126953125</LatitudeDegrees>
              <LongitudeDegrees>-0.1416868530213832855224609375</LongitudeDegrees>
            </Position>
            <AltitudeMeters>1730.199951171875</AltitudeMeters>
            <DistanceMeters>3868.3240511265</DistanceMeters>
          </Trackpoint>
          <Trackpoint>
            <Time>2022-07-09T08:21:25.000Z</Time>
            <Position>
              <LatitudeDegrees>42.83733311109244823455810546875</LatitudeDegrees>
              <LongitudeDegrees>-0.14168274588882923126220703125</LongitudeDegrees>
            </Position>
            <AltitudeMeters>1730</AltitudeMeters>
            <DistanceMeters>3869.6544251276</DistanceMeters>
          </Trackpoint>
          <Trackpoint>
            <Time>2022-07-09T08:21:31.000Z</Time>
            <Position>
              <LatitudeDegrees>42.83725800924003124237060546875</LatitudeDegrees>
              <LongitudeDegrees>-0.14164100401103496551513671875</LongitudeDegrees>
            </Position>
            <AltitudeMeters>1730</AltitudeMeters>
            <DistanceMeters>3878.6804624463</DistanceMeters>
          </Trackpoint>
          <Trackpoint>
            <Time>2022-07-09T08:21:34.000Z</Time>
            <Position>
              <LatitudeDegrees>42.8372254036366939544677734375</LatitudeDegrees>
              <LongitudeDegrees>-0.1416085660457611083984375</LongitudeDegrees>
            </Position>
            <AltitudeMeters>1730</AltitudeMeters>
            <DistanceMeters>3883.1719199798</DistanceMeters>
          </Trackpoint>
          <Trackpoint>
            <Time>2022-07-09T08:21:40.000Z</Time>
            <Position>
              <LatitudeDegrees>42.83716916106641292572021484375</LatitudeDegrees>
              <LongitudeDegrees>-0.14155601151287555694580078125</LongitudeDegrees>
            </Position>
            <AltitudeMeters>1729.5999755859375</AltitudeMeters>
            <DistanceMeters>3890.759789734</DistanceMeters>
          </Trackpoint>
          <Trackpoint>
            <Time>2022-07-09T08:21:41.000Z</Time>
            <Position>
              <LatitudeDegrees>42.83715910278260707855224609375</LatitudeDegrees>
              <LongitudeDegrees>-0.14154712669551372528076171875</LongitudeDegrees>
            </Position>
            <AltitudeMeters>1729.5999755859375</AltitudeMeters>
            <DistanceMeters>3892.0935532286</DistanceMeters>
          </Trackpoint>
          <Trackpoint>
            <Time>2022-07-09T08:21:47.000Z</Time>
            <Position>
              <LatitudeDegrees>42.837094478309154510498046875</LatitudeDegrees>
              <LongitudeDegrees>-0.14151326380670070648193359375</LongitudeDegrees>
            </Position>
            <AltitudeMeters>1729.4000244140625</AltitudeMeters>
            <DistanceMeters>3899.7995108392</DistanceMeters>
          </Trackpoint>
          <Trackpoint>
            <Time>2022-07-09T08:21:48.000Z</Time>
            <Position>
              <LatitudeDegrees>42.83708333037793636322021484375</LatitudeDegrees>
              <LongitudeDegrees>-0.14150463044643402099609375</LongitudeDegrees>
            </Position>
            <AltitudeMeters>1729.199951171875</AltitudeMeters>
            <DistanceMeters>3901.2280756001</DistanceMeters>
          </Trackpoint>
          <Trackpoint>
            <Time>2022-07-09T08:21:54.000Z</Time>
            <Position>
              <LatitudeDegrees>42.83701661042869091033935546875</LatitudeDegrees>
              <LongitudeDegrees>-0.141466744244098663330078125</LongitudeDegrees>
            </Position>
            <AltitudeMeters>1729</AltitudeMeters>
            <DistanceMeters>3909.2722988565</DistanceMeters>
          </Trackpoint>
          <Trackpoint>
            <Time>2022-07-09T08:21:55.000Z</Time>
            <Position>
              <LatitudeDegrees>42.8370031155645847320556640625</LatitudeDegrees>
              <LongitudeDegrees>-0.14146565459668636322021484375</LongitudeDegrees>
            </Position>
            <AltitudeMeters>1728.800048828125</AltitudeMeters>
            <DistanceMeters>3910.7778051459</DistanceMeters>
          </Trackpoint>
          <Trackpoint>
            <Time>2022-07-09T08:22:01.000Z</Time>
            <Position>
              <LatitudeDegrees>42.83690814860165119171142578125</LatitudeDegrees>
              <LongitudeDegrees>-0.14143145643174648284912109375</LongitudeDegrees>
            </Position>
            <AltitudeMeters>1729.199951171875</AltitudeMeters>
            <DistanceMeters>3921.7095951026</DistanceMeters>
          </Trackpoint>
          <Trackpoint>
            <Time>2022-07-09T08:22:04.000Z</Time>
            <Position>
              <LatitudeDegrees>42.8368629701435565948486328125</LatitudeDegrees>
              <LongitudeDegrees>-0.14141620136797428131103515625</LongitudeDegrees>
            </Position>
            <AltitudeMeters>1729</AltitudeMeters>
            <DistanceMeters>3926.8900764694</DistanceMeters>
          </Trackpoint>
          <Trackpoint>
            <Time>2022-07-09T08:22:10.000Z</Time>
            <Position>
              <LatitudeDegrees>42.836792059242725372314453125</LatitudeDegrees>
              <LongitudeDegrees>-0.14137697406113147735595703125</LongitudeDegrees>
            </Position>
            <AltitudeMeters>1728.800048828125</AltitudeMeters>
            <DistanceMeters>3935.4075663667</DistanceMeters>
          </Trackpoint>
          <Trackpoint>
            <Time>2022-07-09T08:22:12.000Z</Time>
            <Position>
              <LatitudeDegrees>42.83677454106509685516357421875</LatitudeDegrees>
              <LongitudeDegrees>-0.14136926271021366119384765625</LongitudeDegrees>
            </Position>
            <AltitudeMeters>1728.800048828125</AltitudeMeters>
            <DistanceMeters>3937.4589111995</DistanceMeters>
          </Trackpoint>
          <Trackpoint>
            <Time>2022-07-09T08:22:16.000Z</Time>
            <Position>
              <LatitudeDegrees>42.8367281891405582427978515625</LatitudeDegrees>
              <LongitudeDegrees>-0.14134847559034824371337890625</LongitudeDegrees>
            </Position>
            <AltitudeMeters>1728.5999755859375</AltitudeMeters>
            <DistanceMeters>3942.8895860807</DistanceMeters>
          </Trackpoint>
          <Trackpoint>
            <Time>2022-07-09T08:22:17.000Z</Time>
            <Position>
              <LatitudeDegrees>42.83671620301902294158935546875</LatitudeDegrees>
              <LongitudeDegrees>-0.14133699238300323486328125</LongitudeDegrees>
            </Position>
            <AltitudeMeters>1728.5999755859375</AltitudeMeters>
            <DistanceMeters>3944.5189548157</DistanceMeters>
          </Trackpoint>
          <Trackpoint>
            <Time>2022-07-09T08:22:19.000Z</Time>
            <Position>
              <LatitudeDegrees>42.836692817509174346923828125</LatitudeDegrees>
              <LongitudeDegrees>-0.14132534153759479522705078125</LongitudeDegrees>
            </Position>
            <AltitudeMeters>1728.5999755859375</AltitudeMeters>
            <DistanceMeters>3947.2894358168</DistanceMeters>
          </Trackpoint>
          <Trackpoint>
            <Time>2022-07-09T08:22:25.000Z</Time>
            <Position>
              <LatitudeDegrees>42.83663070760667324066162109375</LatitudeDegrees>
              <LongitudeDegrees>-0.1413027942180633544921875</LongitudeDegrees>
            </Position>
            <AltitudeMeters>1729</AltitudeMeters>
            <DistanceMeters>3954.4423662045</DistanceMeters>
          </Trackpoint>
          <Trackpoint>
            <Time>2022-07-09T08:22:27.000Z</Time>
            <Position>
              <LatitudeDegrees>42.8366044722497463226318359375</LatitudeDegrees>
              <LongitudeDegrees>-0.1413069851696491241455078125</LongitudeDegrees>
            </Position>
            <AltitudeMeters>1729</AltitudeMeters>
            <DistanceMeters>3957.3820572013</DistanceMeters>
          </Trackpoint>
          <Trackpoint>
            <Time>2022-07-09T08:22:33.000Z</Time>
            <Position>
              <LatitudeDegrees>42.83653758466243743896484375</LatitudeDegrees>
              <LongitudeDegrees>-0.14129784889519214630126953125</LongitudeDegrees>
            </Position>
            <AltitudeMeters>1728.800048828125</AltitudeMeters>
            <DistanceMeters>3964.8644681733</DistanceMeters>
          </Trackpoint>
          <Trackpoint>
            <Time>2022-07-09T08:22:34.000Z</Time>
            <Position>
              <LatitudeDegrees>42.8365246765315532684326171875</LatitudeDegrees>
              <LongitudeDegrees>-0.14129566960036754608154296875</LongitudeDegrees>
            </Position>
            <AltitudeMeters>1728.5999755859375</AltitudeMeters>
            <DistanceMeters>3966.3118719645</DistanceMeters>
          </Trackpoint>
          <Trackpoint>
            <Time>2022-07-09T08:22:35.000Z</Time>
            <Position>
              <LatitudeDegrees>42.836510427296161651611328125</LatitudeDegrees>
              <LongitudeDegrees>-0.14129013754427433013916015625</LongitudeDegrees>
            </Position>
            <AltitudeMeters>1728.4000244140625</AltitudeMeters>
            <DistanceMeters>3967.9605238409</DistanceMeters>
          </Trackpoint>
          <Trackpoint>
            <Time>2022-07-09T08:22:37.000Z</Time>
            <Position>
              <LatitudeDegrees>42.83648419193923473358154296875</LatitudeDegrees>
              <LongitudeDegrees>-0.14127873815596103668212890625</LongitudeDegrees>
            </Position>
            <AltitudeMeters>1728.199951171875</AltitudeMeters>
            <DistanceMeters>3971.0250432978</DistanceMeters>
          </Trackpoint>
          <Trackpoint>
            <Time>2022-07-09T08:22:43.000Z</Time>
            <Position>
              <LatitudeDegrees>42.83640883862972259521484375</LatitudeDegrees>
              <LongitudeDegrees>-0.14123733155429363250732421875</LongitudeDegrees>
            </Position>
            <AltitudeMeters>1728.5999755859375</AltitudeMeters>
            <DistanceMeters>3980.0680722305</DistanceMeters>
          </Trackpoint>
          <Trackpoint>
            <Time>2022-07-09T08:22:44.000Z</Time>
            <Position>
              <LatitudeDegrees>42.83639836125075817108154296875</LatitudeDegrees>
              <LongitudeDegrees>-0.14123179949820041656494140625</LongitudeDegrees>
            </Position>
            <AltitudeMeters>1728.5999755859375</AltitudeMeters>
            <DistanceMeters>3981.3215606833</DistanceMeters>
          </Trackpoint>
          <Trackpoint>
            <Time>2022-07-09T08:22:50.000Z</Time>
            <Position>
              <LatitudeDegrees>42.8363231755793094635009765625</LatitudeDegrees>
              <LongitudeDegrees>-0.14120631851255893707275390625</LongitudeDegrees>
            </Position>
            <AltitudeMeters>1728</AltitudeMeters>
            <DistanceMeters>3989.9444169061</DistanceMeters>
          </Trackpoint>
          <Trackpoint>
            <Time>2022-07-09T08:22:52.000Z</Time>
            <Position>
              <LatitudeDegrees>42.83629727549850940704345703125</LatitudeDegrees>
              <LongitudeDegrees>-0.14119391329586505889892578125</LongitudeDegrees>
            </Position>
            <AltitudeMeters>1728.199951171875</AltitudeMeters>
            <DistanceMeters>3993.0000836162</DistanceMeters>
          </Trackpoint>
          <Trackpoint>
            <Time>2022-07-09T08:22:56.000Z</Time>
            <Position>
              <LatitudeDegrees>42.836248241364955902099609375</LatitudeDegrees>
              <LongitudeDegrees>-0.1411668397486209869384765625</LongitudeDegrees>
            </Position>
            <AltitudeMeters>1728.800048828125</AltitudeMeters>
            <DistanceMeters>3998.8886737314</DistanceMeters>
          </Trackpoint>
          <Trackpoint>
            <Time>2022-07-09T08:22:59.000Z</Time>
            <Position>
              <LatitudeDegrees>42.836216725409030914306640625</LatitudeDegrees>
              <LongitudeDegrees>-0.1411473937332630157470703125</LongitudeDegrees>
            </Position>
            <AltitudeMeters>1728.800048828125</AltitudeMeters>
            <DistanceMeters>4002.7393081623</DistanceMeters>
          </Trackpoint>
          <Trackpoint>
            <Time>2022-07-09T08:23:05.000Z</Time>
            <Position>
              <LatitudeDegrees>42.83615863882005214691162109375</LatitudeDegrees>
              <LongitudeDegrees>-0.14110372401773929595947265625</LongitudeDegrees>
            </Position>
            <AltitudeMeters>1728.800048828125</AltitudeMeters>
            <DistanceMeters>4010.1220949949</DistanceMeters>
          </Trackpoint>
          <Trackpoint>
            <Time>2022-07-09T08:23:06.000Z</Time>
            <Position>
              <LatitudeDegrees>42.836151011288166046142578125</LatitudeDegrees>
              <LongitudeDegrees>-0.1410984434187412261962890625</LongitudeDegrees>
            </Position>
            <AltitudeMeters>1728.5999755859375</AltitudeMeters>
            <DistanceMeters>4011.0723621386</DistanceMeters>
          </Trackpoint>
          <Trackpoint>
            <Time>2022-07-09T08:23:07.000Z</Time>
            <Position>
              <LatitudeDegrees>42.83614506013691425323486328125</LatitudeDegrees>
              <LongitudeDegrees>-0.1410944201052188873291015625</LongitudeDegrees>
            </Position>
            <AltitudeMeters>1728.4000244140625</AltitudeMeters>
            <DistanceMeters>4011.8206032358</DistanceMeters>
          </Trackpoint>
          <Trackpoint>
            <Time>2022-07-09T08:23:12.000Z</Time>
            <Position>
              <LatitudeDegrees>42.83612125553190708160400390625</LatitudeDegrees>
              <LongitudeDegrees>-0.14107338152825832366943359375</LongitudeDegrees>
            </Position>
            <AltitudeMeters>1728.199951171875</AltitudeMeters>
            <DistanceMeters>4014.9780079286</DistanceMeters>
          </Trackpoint>
          <Trackpoint>
            <Time>2022-07-09T08:23:18.000Z</Time>
            <Position>
              <LatitudeDegrees>42.83606174401938915252685546875</LatitudeDegrees>
              <LongitudeDegrees>-0.14104865491390228271484375</LongitudeDegrees>
            </Position>
            <AltitudeMeters>1727.800048828125</AltitudeMeters>
            <DistanceMeters>4021.9025805449</DistanceMeters>
          </Trackpoint>
          <Trackpoint>
            <Time>2022-07-09T08:23:21.000Z</Time>
            <Position>
              <LatitudeDegrees>42.8360311500728130340576171875</LatitudeDegrees>
              <LongitudeDegrees>-0.14104387722909450531005859375</LongitudeDegrees>
            </Position>
            <AltitudeMeters>1728</AltitudeMeters>
            <DistanceMeters>4025.3314520108</DistanceMeters>
          </Trackpoint>
          <Trackpoint>
            <Time>2022-07-09T08:23:27.000Z</Time>
            <Position>
              <LatitudeDegrees>42.835961245000362396240234375</LatitudeDegrees>
              <LongitudeDegrees>-0.1409898139536380767822265625</LongitudeDegrees>
            </Position>
            <AltitudeMeters>1727.5999755859375</AltitudeMeters>
            <DistanceMeters>4034.2760860052</DistanceMeters>
          </Trackpoint>
          <Trackpoint>
            <Time>2022-07-09T08:23:28.000Z</Time>
            <Position>
              <LatitudeDegrees>42.8359503485262393951416015625</LatitudeDegrees>
              <LongitudeDegrees>-0.1409767381846904754638671875</LongitudeDegrees>
            </Position>
            <AltitudeMeters>1727.4000244140625</AltitudeMeters>
            <DistanceMeters>4035.8887428242</DistanceMeters>
          </Trackpoint>
          <Trackpoint>
            <Time>2022-07-09T08:23:34.000Z</Time>
            <Position>
              <LatitudeDegrees>42.8358985483646392822265625</LatitudeDegrees>
              <LongitudeDegrees>-0.1409247703850269317626953125</LongitudeDegrees>
            </Position>
            <AltitudeMeters>1726.5999755859375</AltitudeMeters>
            <DistanceMeters>4043.0454595009</DistanceMeters>
          </Trackpoint>
          <Trackpoint>
            <Time>2022-07-09T08:23:36.000Z</Time>
            <Position>
              <LatitudeDegrees>42.835884131491184234619140625</LatitudeDegrees>
              <LongitudeDegrees>-0.14091345481574535369873046875</LongitudeDegrees>
            </Position>
            <AltitudeMeters>1726.4000244140625</AltitudeMeters>
            <DistanceMeters>4044.8954321959</DistanceMeters>
          </Trackpoint>
          <Trackpoint>
            <Time>2022-07-09T08:23:37.000Z</Time>
            <Position>
              <LatitudeDegrees>42.83587885089218616485595703125</LatitudeDegrees>
              <LongitudeDegrees>-0.1409076713025569915771484375</LongitudeDegrees>
            </Position>
            <AltitudeMeters>1726.199951171875</AltitudeMeters>
            <DistanceMeters>4045.6556459108</DistanceMeters>
          </Trackpoint>
          <Trackpoint>
            <Time>2022-07-09T08:23:43.000Z</Time>
            <Position>
              <LatitudeDegrees>42.835865356028079986572265625</LatitudeDegrees>
              <LongitudeDegrees>-0.1408982835710048675537109375</LongitudeDegrees>
            </Position>
            <AltitudeMeters>1725.800048828125</AltitudeMeters>
            <DistanceMeters>4047.342202782</DistanceMeters>
          </Trackpoint>
          <Trackpoint>
            <Time>2022-07-09T08:23:46.000Z</Time>
            <Position>
              <LatitudeDegrees>42.83585898578166961669921875</LatitudeDegrees>
              <LongitudeDegrees>-0.140888392925262451171875</LongitudeDegrees>
            </Position>
            <AltitudeMeters>1725.5999755859375</AltitudeMeters>
            <DistanceMeters>4048.417307328</DistanceMeters>
          </Trackpoint>
          <Trackpoint>
            <Time>2022-07-09T08:23:49.000Z</Time>
            <Position>
              <LatitudeDegrees>42.8358521126210689544677734375</LatitudeDegrees>
              <LongitudeDegrees>-0.140880681574344635009765625</LongitudeDegrees>
            </Position>
            <AltitudeMeters>1725.4000244140625</AltitudeMeters>
            <DistanceMeters>4049.4094153526</DistanceMeters>
          </Trackpoint>
          <Trackpoint>
            <Time>2022-07-09T08:23:50.000Z</Time>
            <Position>
              <LatitudeDegrees>42.83585135824978351593017578125</LatitudeDegrees>
              <LongitudeDegrees>-0.140872299671173095703125</LongitudeDegrees>
            </Position>
            <AltitudeMeters>1725.4000244140625</AltitudeMeters>
            <DistanceMeters>4050.107716239</DistanceMeters>
          </Trackpoint>
          <Trackpoint>
            <Time>2022-07-09T08:23:55.000Z</Time>
            <Position>
              <LatitudeDegrees>42.8358279727399349212646484375</LatitudeDegrees>
              <LongitudeDegrees>-0.1408208347856998443603515625</LongitudeDegrees>
            </Position>
            <AltitudeMeters>1725</AltitudeMeters>
            <DistanceMeters>4055.0491053862</DistanceMeters>
          </Trackpoint>
          <Trackpoint>
            <Time>2022-07-09T08:24:01.000Z</Time>
            <Position>
              <LatitudeDegrees>42.83575664274394512176513671875</LatitudeDegrees>
              <LongitudeDegrees>-0.14077146537601947784423828125</LongitudeDegrees>
            </Position>
            <AltitudeMeters>1724.5999755859375</AltitudeMeters>
            <DistanceMeters>4063.952251517</DistanceMeters>
          </Trackpoint>
          <Trackpoint>
            <Time>2022-07-09T08:24:03.000Z</Time>
            <Position>
              <LatitudeDegrees>42.83573828637599945068359375</LatitudeDegrees>
              <LongitudeDegrees>-0.14075227081775665283203125</LongitudeDegrees>
            </Position>
            <AltitudeMeters>1724.5999755859375</AltitudeMeters>
            <DistanceMeters>4066.5285096924</DistanceMeters>
          </Trackpoint>
          <Trackpoint>
            <Time>2022-07-09T08:24:07.000Z</Time>
            <Position>
              <LatitudeDegrees>42.8357042558491230010986328125</LatitudeDegrees>
              <LongitudeDegrees>-0.14070675708353519439697265625</LongitudeDegrees>
            </Position>
            <AltitudeMeters>1724.199951171875</AltitudeMeters>
            <DistanceMeters>4071.8330094991</DistanceMeters>
          </Trackpoint>
          <Trackpoint>
            <Time>2022-07-09T08:24:11.000Z</Time>
            <Position>
              <LatitudeDegrees>42.83566611818969249725341796875</LatitudeDegrees>
              <LongitudeDegrees>-0.1406793482601642608642578125</LongitudeDegrees>
            </Position>
            <AltitudeMeters>1724</AltitudeMeters>
            <DistanceMeters>4076.6316233544</DistanceMeters>
          </Trackpoint>
          <Trackpoint>
            <Time>2022-07-09T08:24:15.000Z</Time>
            <Position>
              <LatitudeDegrees>42.83563091419637203216552734375</LatitudeDegrees>
              <LongitudeDegrees>-0.14067574404180049896240234375</LongitudeDegrees>
            </Position>
            <AltitudeMeters>1723.800048828125</AltitudeMeters>
            <DistanceMeters>4080.5611819452</DistanceMeters>
          </Trackpoint>
          <Trackpoint>
            <Time>2022-07-09T08:24:18.000Z</Time>
            <Position>
              <LatitudeDegrees>42.83560610376298427581787109375</LatitudeDegrees>
              <LongitudeDegrees>-0.14066652394831180572509765625</LongitudeDegrees>
            </Position>
            <AltitudeMeters>1723.5999755859375</AltitudeMeters>
            <DistanceMeters>4083.4230483528</DistanceMeters>
          </Trackpoint>
          <Trackpoint>
            <Time>2022-07-09T08:24:19.000Z</Time>
            <Position>
              <LatitudeDegrees>42.83559612929821014404296875</LatitudeDegrees>
              <LongitudeDegrees>-0.140660069882869720458984375</LongitudeDegrees>
            </Position>
            <AltitudeMeters>1723.5999755859375</AltitudeMeters>
            <DistanceMeters>4084.6510641369</DistanceMeters>
          </Trackpoint>
          <Trackpoint>
            <Time>2022-07-09T08:24:21.000Z</Time>
            <Position>
              <LatitudeDegrees>42.83557509072124958038330078125</LatitudeDegrees>
              <LongitudeDegrees>-0.14065244235098361968994140625</LongitudeDegrees>
            </Position>
            <AltitudeMeters>1723.800048828125</AltitudeMeters>
            <DistanceMeters>4087.0737794914</DistanceMeters>
          </Trackpoint>
          <Trackpoint>
            <Time>2022-07-09T08:24:25.000Z</Time>
            <Position>
              <LatitudeDegrees>42.83554759807884693145751953125</LatitudeDegrees>
              <LongitudeDegrees>-0.1406310684978961944580078125</LongitudeDegrees>
            </Position>
            <AltitudeMeters>1723.800048828125</AltitudeMeters>
            <DistanceMeters>4090.5936182492</DistanceMeters>
          </Trackpoint>
          <Trackpoint>
            <Time>2022-07-09T08:24:26.000Z</Time>
            <Position>
              <LatitudeDegrees>42.83554189838469028472900390625</LatitudeDegrees>
              <LongitudeDegrees>-0.14062729664146900177001953125</LongitudeDegrees>
            </Position>
            <AltitudeMeters>1723.800048828125</AltitudeMeters>
            <DistanceMeters>4091.3047330647</DistanceMeters>
          </Trackpoint>
          <Trackpoint>
            <Time>2022-07-09T08:24:27.000Z</Time>
            <Position>
              <LatitudeDegrees>42.8355396352708339691162109375</LatitudeDegrees>
              <LongitudeDegrees>-0.14062612317502498626708984375</LongitudeDegrees>
            </Position>
            <AltitudeMeters>1723.800048828125</AltitudeMeters>
            <DistanceMeters>4091.5735092012</DistanceMeters>
          </Trackpoint>
          <Trackpoint>
            <Time>2022-07-09T08:24:32.000Z</Time>
            <Position>
              <LatitudeDegrees>42.8355257213115692138671875</LatitudeDegrees>
              <LongitudeDegrees>-0.1405858062207698822021484375</LongitudeDegrees>
            </Position>
            <AltitudeMeters>1723.800048828125</AltitudeMeters>
            <DistanceMeters>4095.2094453825</DistanceMeters>
          </Trackpoint>
          <Trackpoint>
            <Time>2022-07-09T08:24:38.000Z</Time>
            <Position>
              <LatitudeDegrees>42.8354452550411224365234375</LatitudeDegrees>
              <LongitudeDegrees>-0.1405673660337924957275390625</LongitudeDegrees>
            </Position>
            <AltitudeMeters>1723.800048828125</AltitudeMeters>
            <DistanceMeters>4104.2908377957</DistanceMeters>
          </Trackpoint>
          <Trackpoint>
            <Time>2022-07-09T08:24:39.000Z</Time>
            <Position>
              <LatitudeDegrees>42.83542974852025508880615234375</LatitudeDegrees>
              <LongitudeDegrees>-0.140568204224109649658203125</LongitudeDegrees>
            </Position>
            <AltitudeMeters>1723.5999755859375</AltitudeMeters>
            <DistanceMeters>4106.0170837881</DistanceMeters>
          </Trackpoint>
          <Trackpoint>
            <Time>2022-07-09T08:24:45.000Z</Time>
            <Position>
              <LatitudeDegrees>42.83533436246216297149658203125</LatitudeDegrees>
              <LongitudeDegrees>-0.1405566371977329254150390625</LongitudeDegrees>
            </Position>
            <AltitudeMeters>1723.4000244140625</AltitudeMeters>
            <DistanceMeters>4116.6753370064</DistanceMeters>
          </Trackpoint>
          <Trackpoint>
            <Time>2022-07-09T08:24:46.000Z</Time>
            <Position>
              <LatitudeDegrees>42.835321538150310516357421875</LatitudeDegrees>
              <LongitudeDegrees>-0.14055370353162288665771484375</LongitudeDegrees>
            </Position>
            <AltitudeMeters>1723.199951171875</AltitudeMeters>
            <DistanceMeters>4118.1164884843</DistanceMeters>
          </Trackpoint>
          <Trackpoint>
            <Time>2022-07-09T08:24:47.000Z</Time>
            <Position>
              <LatitudeDegrees>42.835310809314250946044921875</LatitudeDegrees>
              <LongitudeDegrees>-0.140550769865512847900390625</LongitudeDegrees>
            </Position>
            <AltitudeMeters>1723.199951171875</AltitudeMeters>
            <DistanceMeters>4119.3334242002</DistanceMeters>
          </Trackpoint>
          <Trackpoint>
            <Time>2022-07-09T08:24:50.000Z</Time>
            <Position>
              <LatitudeDegrees>42.83528633415699005126953125</LatitudeDegrees>
              <LongitudeDegrees>-0.1405495963990688323974609375</LongitudeDegrees>
            </Position>
            <AltitudeMeters>1722.199951171875</AltitudeMeters>
            <DistanceMeters>4122.0612040648</DistanceMeters>
          </Trackpoint>
          <Trackpoint>
            <Time>2022-07-09T08:24:51.000Z</Time>
            <Position>
              <LatitudeDegrees>42.83528239466249942779541015625</LatitudeDegrees>
              <LongitudeDegrees>-0.140548758208751678466796875</LongitudeDegrees>
            </Position>
            <AltitudeMeters>1722.199951171875</AltitudeMeters>
            <DistanceMeters>4122.5169361772</DistanceMeters>
          </Trackpoint>
          <Trackpoint>
            <Time>2022-07-09T08:24:52.000Z</Time>
            <Position>
              <LatitudeDegrees>42.83527803607285022735595703125</LatitudeDegrees>
              <LongitudeDegrees>-0.1405475847423076629638671875</LongitudeDegrees>
            </Position>
            <AltitudeMeters>1722</AltitudeMeters>
            <DistanceMeters>4123.0107094693</DistanceMeters>
          </Trackpoint>
          <Trackpoint>
            <Time>2022-07-09T08:24:58.000Z</Time>
            <Position>
              <LatitudeDegrees>42.83525993116199970245361328125</LatitudeDegrees>
              <LongitudeDegrees>-0.140518248081207275390625</LongitudeDegrees>
            </Position>
            <AltitudeMeters>1721.5999755859375</AltitudeMeters>
            <DistanceMeters>4126.1408265504</DistanceMeters>
          </Trackpoint>
          <Trackpoint>
            <Time>2022-07-09T08:25:04.000Z</Time>
            <Position>
              <LatitudeDegrees>42.835248447954654693603515625</LatitudeDegrees>
              <LongitudeDegrees>-0.14045295305550098419189453125</LongitudeDegrees>
            </Position>
            <AltitudeMeters>1721.199951171875</AltitudeMeters>
            <DistanceMeters>4131.6211581328</DistanceMeters>
          </Trackpoint>
          <Trackpoint>
            <Time>2022-07-09T08:25:05.000Z</Time>
            <Position>
              <LatitudeDegrees>42.8352482803165912628173828125</LatitudeDegrees>
              <LongitudeDegrees>-0.14045328833162784576416015625</LongitudeDegrees>
            </Position>
            <AltitudeMeters>1721</AltitudeMeters>
            <DistanceMeters>4131.6211581328</DistanceMeters>
          </Trackpoint>
          <Trackpoint>
            <Time>2022-07-09T08:25:11.000Z</Time>
            <Position>
              <LatitudeDegrees>42.8352412395179271697998046875</LatitudeDegrees>
              <LongitudeDegrees>-0.14045747928321361541748046875</LongitudeDegrees>
            </Position>
            <AltitudeMeters>1720.5999755859375</AltitudeMeters>
            <DistanceMeters>4132.4763985621</DistanceMeters>
          </Trackpoint>
          <Trackpoint>
            <Time>2022-07-09T08:25:13.000Z</Time>
            <Position>
              <LatitudeDegrees>42.8352375514805316925048828125</LatitudeDegrees>
              <LongitudeDegrees>-0.14045211486518383026123046875</LongitudeDegrees>
            </Position>
            <AltitudeMeters>1720.4000244140625</AltitudeMeters>
            <DistanceMeters>4133.0774002741</DistanceMeters>
          </Trackpoint>
          <Trackpoint>
            <Time>2022-07-09T08:25:19.000Z</Time>
            <Position>
              <LatitudeDegrees>42.83523537218570709228515625</LatitudeDegrees>
              <LongitudeDegrees>-0.1404376141726970672607421875</LongitudeDegrees>
            </Position>
            <AltitudeMeters>1720.5999755859375</AltitudeMeters>
            <DistanceMeters>4134.2868928883</DistanceMeters>
          </Trackpoint>
          <Trackpoint>
            <Time>2022-07-09T08:25:22.000Z</Time>
            <Position>
              <LatitudeDegrees>42.83524920232594013214111328125</LatitudeDegrees>
              <LongitudeDegrees>-0.1404433138668537139892578125</LongitudeDegrees>
            </Position>
            <AltitudeMeters>1720.5999755859375</AltitudeMeters>
            <DistanceMeters>4135.8939404492</DistanceMeters>
          </Trackpoint>
          <Trackpoint>
            <Time>2022-07-09T08:25:23.000Z</Time>
            <Position>
              <LatitudeDegrees>42.83525205217301845550537109375</LatitudeDegrees>
              <LongitudeDegrees>-0.14044105075299739837646484375</LongitudeDegrees>
            </Position>
            <AltitudeMeters>1720.5999755859375</AltitudeMeters>
            <DistanceMeters>4136.2619773314</DistanceMeters>
          </Trackpoint>
          <Trackpoint>
            <Time>2022-07-09T08:25:28.000Z</Time>
            <Position>
              <LatitudeDegrees>42.83526026643812656402587890625</LatitudeDegrees>
              <LongitudeDegrees>-0.14044918119907379150390625</LongitudeDegrees>
            </Position>
            <AltitudeMeters>1720</AltitudeMeters>
            <DistanceMeters>4137.3943513222</DistanceMeters>
          </Trackpoint>
          <Trackpoint>
            <Time>2022-07-09T08:25:30.000Z</Time>
            <Position>
              <LatitudeDegrees>42.8352710790932178497314453125</LatitudeDegrees>
              <LongitudeDegrees>-0.140435434877872467041015625</LongitudeDegrees>
            </Position>
            <AltitudeMeters>1719.800048828125</AltitudeMeters>
            <DistanceMeters>4139.0402622958</DistanceMeters>
          </Trackpoint>
          <Trackpoint>
            <Time>2022-07-09T08:25:36.000Z</Time>
            <Position>
              <LatitudeDegrees>42.83528977073729038238525390625</LatitudeDegrees>
              <LongitudeDegrees>-0.14043711125850677490234375</LongitudeDegrees>
            </Position>
            <AltitudeMeters>1719.4000244140625</AltitudeMeters>
            <DistanceMeters>4141.1265261444</DistanceMeters>
          </Trackpoint>
          <Trackpoint>
            <Time>2022-07-09T08:25:42.000Z</Time>
            <Position>
              <LatitudeDegrees>42.8352704085409641265869140625</LatitudeDegrees>
              <LongitudeDegrees>-0.14045144431293010711669921875</LongitudeDegrees>
            </Position>
            <AltitudeMeters>1719.4000244140625</AltitudeMeters>
            <DistanceMeters>4143.5788782627</DistanceMeters>
          </Trackpoint>
          <Trackpoint>
            <Time>2022-07-09T08:25:43.000Z</Time>
            <Position>
              <LatitudeDegrees>42.835267223417758941650390625</LatitudeDegrees>
              <LongitudeDegrees>-0.1404533721506595611572265625</LongitudeDegrees>
            </Position>
            <AltitudeMeters>1719.4000244140625</AltitudeMeters>
            <DistanceMeters>4143.9589851201</DistanceMeters>
          </Trackpoint>
          <Trackpoint>
            <Time>2022-07-09T08:25:44.000Z</Time>
            <Position>
              <LatitudeDegrees>42.8352650441229343414306640625</LatitudeDegrees>
              <LongitudeDegrees>-0.14045211486518383026123046875</LongitudeDegrees>
            </Position>
            <AltitudeMeters>1719.4000244140625</AltitudeMeters>
            <DistanceMeters>4144.2277612566</DistanceMeters>
          </Trackpoint>
          <Trackpoint>
            <Time>2022-07-09T08:25:45.000Z</Time>
            <Position>
              <LatitudeDegrees>42.8352633677423000335693359375</LatitudeDegrees>
              <LongitudeDegrees>-0.1404510252177715301513671875</LongitudeDegrees>
            </Position>
            <AltitudeMeters>1719.4000244140625</AltitudeMeters>
            <DistanceMeters>4144.4402474496</DistanceMeters>
          </Trackpoint>
          <Trackpoint>
            <Time>2022-07-09T08:25:47.000Z</Time>
            <Position>
              <LatitudeDegrees>42.83526529558002948760986328125</LatitudeDegrees>
              <LongitudeDegrees>-0.14044507406651973724365234375</LongitudeDegrees>
            </Position>
            <AltitudeMeters>1719.4000244140625</AltitudeMeters>
            <DistanceMeters>4144.9693338034</DistanceMeters>
          </Trackpoint>
          <Trackpoint>
            <Time>2022-07-09T08:25:51.000Z</Time>
            <Position>
              <LatitudeDegrees>42.83529815264046192169189453125</LatitudeDegrees>
              <LongitudeDegrees>-0.14041741378605365753173828125</LongitudeDegrees>
            </Position>
            <AltitudeMeters>1719.199951171875</AltitudeMeters>
            <DistanceMeters>4149.267651661</DistanceMeters>
          </Trackpoint>
          <Trackpoint>
            <Time>2022-07-09T08:25:57.000Z</Time>
            <Position>
              <LatitudeDegrees>42.83530251123011112213134765625</LatitudeDegrees>
              <LongitudeDegrees>-0.1404255442321300506591796875</LongitudeDegrees>
            </Position>
            <AltitudeMeters>1719.199951171875</AltitudeMeters>
            <DistanceMeters>4150.0960753507</DistanceMeters>
          </Trackpoint>
          <Trackpoint>
            <Time>2022-07-09T08:25:59.000Z</Time>
            <Position>
              <LatitudeDegrees>42.83528122119605541229248046875</LatitudeDegrees>
              <LongitudeDegrees>-0.14043585397303104400634765625</LongitudeDegrees>
            </Position>
            <AltitudeMeters>1719.199951171875</AltitudeMeters>
            <DistanceMeters>4152.610245892</DistanceMeters>
          </Trackpoint>
          <Trackpoint>
            <Time>2022-07-09T08:26:00.000Z</Time>
            <Position>
              <LatitudeDegrees>42.83527024090290069580078125</LatitudeDegrees>
              <LongitudeDegrees>-0.1404372788965702056884765625</LongitudeDegrees>
            </Position>
            <AltitudeMeters>1719.199951171875</AltitudeMeters>
            <DistanceMeters>4153.8419328825</DistanceMeters>
          </Trackpoint>
          <Trackpoint>
            <Time>2022-07-09T08:26:01.000Z</Time>
            <Position>
              <LatitudeDegrees>42.83526043407618999481201171875</LatitudeDegrees>
              <LongitudeDegrees>-0.1404364407062530517578125</LongitudeDegrees>
            </Position>
            <AltitudeMeters>1719.4000244140625</AltitudeMeters>
            <DistanceMeters>4154.9419466295</DistanceMeters>
          </Trackpoint>
          <Trackpoint>
            <Time>2022-07-09T08:26:05.000Z</Time>
            <Position>
              <LatitudeDegrees>42.8352534770965576171875</LatitudeDegrees>
              <LongitudeDegrees>-0.1404600776731967926025390625</LongitudeDegrees>
            </Position>
            <AltitudeMeters>1719.800048828125</AltitudeMeters>
            <DistanceMeters>4157.0195357467</DistanceMeters>
          </Trackpoint>
          <Trackpoint>
            <Time>2022-07-09T08:26:11.000Z</Time>
            <Position>
              <LatitudeDegrees>42.83523679710924625396728515625</LatitudeDegrees>
              <LongitudeDegrees>-0.14044607989490032196044921875</LongitudeDegrees>
            </Position>
            <AltitudeMeters>1719.800048828125</AltitudeMeters>
            <DistanceMeters>4159.2010146685</DistanceMeters>
          </Trackpoint>
          <Trackpoint>
            <Time>2022-07-09T08:26:16.000Z</Time>
            <Position>
              <LatitudeDegrees>42.83524333499372005462646484375</LatitudeDegrees>
              <LongitudeDegrees>-0.1404597423970699310302734375</LongitudeDegrees>
            </Position>
            <AltitudeMeters>1720.199951171875</AltitudeMeters>
            <DistanceMeters>4160.5347781631</DistanceMeters>
          </Trackpoint>
          <Trackpoint>
            <Time>2022-07-09T08:26:22.000Z</Time>
            <Position>
              <LatitudeDegrees>42.8352320194244384765625</LatitudeDegrees>
              <LongitudeDegrees>-0.14046619646251201629638671875</LongitudeDegrees>
            </Position>
            <AltitudeMeters>1719.800048828125</AltitudeMeters>
            <DistanceMeters>4161.8986680954</DistanceMeters>
          </Trackpoint>
          <Trackpoint>
            <Time>2022-07-09T08:26:26.000Z</Time>
            <Position>
              <LatitudeDegrees>42.83522137440741062164306640625</LatitudeDegrees>
              <LongitudeDegrees>-0.140474997460842132568359375</LongitudeDegrees>
            </Position>
            <AltitudeMeters>1719.800048828125</AltitudeMeters>
            <DistanceMeters>4163.2822779414</DistanceMeters>
          </Trackpoint>
          <Trackpoint>
            <Time>2022-07-09T08:26:28.000Z</Time>
            <Position>
              <LatitudeDegrees>42.83521450124680995941162109375</LatitudeDegrees>
              <LongitudeDegrees>-0.14048027805984020233154296875</LongitudeDegrees>
            </Position>
            <AltitudeMeters>1719.4000244140625</AltitudeMeters>
            <DistanceMeters>4164.1532121647</DistanceMeters>
          </Trackpoint>
          <Trackpoint>
            <Time>2022-07-09T08:26:34.000Z</Time>
            <Position>
              <LatitudeDegrees>42.83520678989589214324951171875</LatitudeDegrees>
              <LongitudeDegrees>-0.1404909230768680572509765625</LongitudeDegrees>
            </Position>
            <AltitudeMeters>1719.199951171875</AltitudeMeters>
            <DistanceMeters>4165.373852412</DistanceMeters>
          </Trackpoint>
          <Trackpoint>
            <Time>2022-07-09T08:26:37.000Z</Time>
            <Position>
              <LatitudeDegrees>42.8352181054651737213134765625</LatitudeDegrees>
              <LongitudeDegrees>-0.140486061573028564453125</LongitudeDegrees>
            </Position>
            <AltitudeMeters>1719.199951171875</AltitudeMeters>
            <DistanceMeters>4166.6940057189</DistanceMeters>
          </Trackpoint>
          <Trackpoint>
            <Time>2022-07-09T08:26:38.000Z</Time>
            <Position>
              <LatitudeDegrees>42.835220284759998321533203125</LatitudeDegrees>
              <LongitudeDegrees>-0.14048413373529911041259765625</LongitudeDegrees>
            </Position>
            <AltitudeMeters>1719.199951171875</AltitudeMeters>
            <DistanceMeters>4166.9945065748</DistanceMeters>
          </Trackpoint>
          <Trackpoint>
            <Time>2022-07-09T08:26:41.000Z</Time>
            <Position>
              <LatitudeDegrees>42.83522036857903003692626953125</LatitudeDegrees>
              <LongitudeDegrees>-0.1404768414795398712158203125</LongitudeDegrees>
            </Position>
            <AltitudeMeters>1719</AltitudeMeters>
            <DistanceMeters>4167.5879482159</DistanceMeters>
          </Trackpoint>
          <Trackpoint>
            <Time>2022-07-09T08:26:42.000Z</Time>
            <Position>
              <LatitudeDegrees>42.835218943655490875244140625</LatitudeDegrees>
              <LongitudeDegrees>-0.1404778473079204559326171875</LongitudeDegrees>
            </Position>
            <AltitudeMeters>1718.800048828125</AltitudeMeters>
            <DistanceMeters>4167.7780016446</DistanceMeters>
          </Trackpoint>
          <Trackpoint>
            <Time>2022-07-09T08:26:48.000Z</Time>
            <Position>
              <LatitudeDegrees>42.83522724173963069915771484375</LatitudeDegrees>
              <LongitudeDegrees>-0.1404788531363010406494140625</LongitudeDegrees>
            </Position>
            <AltitudeMeters>1719</AltitudeMeters>
            <DistanceMeters>4168.7090694932</DistanceMeters>
          </Trackpoint>
          <Trackpoint>
            <Time>2022-07-09T08:26:52.000Z</Time>
            <Position>
              <LatitudeDegrees>42.83523277379572391510009765625</LatitudeDegrees>
              <LongitudeDegrees>-0.14046954922378063201904296875</LongitudeDegrees>
            </Position>
            <AltitudeMeters>1719</AltitudeMeters>
            <DistanceMeters>4169.6874293978</DistanceMeters>
          </Trackpoint>
          <Trackpoint>
            <Time>2022-07-09T08:26:54.000Z</Time>
            <Position>
              <LatitudeDegrees>42.835235036909580230712890625</LatitudeDegrees>
              <LongitudeDegrees>-0.1404701359570026397705078125</LongitudeDegrees>
            </Position>
            <AltitudeMeters>1718.800048828125</AltitudeMeters>
            <DistanceMeters>4169.9562055343</DistanceMeters>
          </Trackpoint>
          <Trackpoint>
            <Time>2022-07-09T08:26:58.000Z</Time>
            <Position>
              <LatitudeDegrees>42.8352419100701808929443359375</LatitudeDegrees>
              <LongitudeDegrees>-0.14047759585082530975341796875</LongitudeDegrees>
            </Position>
            <AltitudeMeters>1722</AltitudeMeters>
            <DistanceMeters>4170.934565439</DistanceMeters>
          </Trackpoint>
          <Trackpoint>
            <Time>2022-07-09T08:27:02.000Z</Time>
            <Position>
              <LatitudeDegrees>42.83525859005749225616455078125</LatitudeDegrees>
              <LongitudeDegrees>-0.14047826640307903289794921875</LongitudeDegrees>
            </Position>
            <AltitudeMeters>1720.4000244140625</AltitudeMeters>
            <DistanceMeters>4172.7942748997</DistanceMeters>
          </Trackpoint>
          <Trackpoint>
            <Time>2022-07-09T08:27:04.000Z</Time>
            <Position>
              <LatitudeDegrees>42.8352655470371246337890625</LatitudeDegrees>
              <LongitudeDegrees>-0.1404738239943981170654296875</LongitudeDegrees>
            </Position>
            <AltitudeMeters>1719</AltitudeMeters>
            <DistanceMeters>4173.6547783967</DistanceMeters>
          </Trackpoint>
          <Trackpoint>
            <Time>2022-07-09T08:27:05.000Z</Time>
            <Position>
              <LatitudeDegrees>42.83526848070323467254638671875</LatitudeDegrees>
              <LongitudeDegrees>-0.14047172851860523223876953125</LongitudeDegrees>
            </Position>
            <AltitudeMeters>1718.800048828125</AltitudeMeters>
            <DistanceMeters>4174.0103358044</DistanceMeters>
          </Trackpoint>
          <Trackpoint>
            <Time>2022-07-09T08:27:07.000Z</Time>
            <Position>
              <LatitudeDegrees>42.83527024090290069580078125</LatitudeDegrees>
              <LongitudeDegrees>-0.1404627598822116851806640625</LongitudeDegrees>
            </Position>
            <AltitudeMeters>1718.800048828125</AltitudeMeters>
            <DistanceMeters>4174.7705495194</DistanceMeters>
          </Trackpoint>
          <Trackpoint>
            <Time>2022-07-09T08:27:13.000Z</Time>
            <Position>
              <LatitudeDegrees>42.83525993116199970245361328125</LatitudeDegrees>
              <LongitudeDegrees>-0.14045320451259613037109375</LongitudeDegrees>
            </Position>
            <AltitudeMeters>1718.5999755859375</AltitudeMeters>
            <DistanceMeters>4176.1606705066</DistanceMeters>
          </Trackpoint>
          <Trackpoint>
            <Time>2022-07-09T08:27:15.000Z</Time>
            <Position>
              <LatitudeDegrees>42.835250794887542724609375</LatitudeDegrees>
              <LongitudeDegrees>-0.1404686272144317626953125</LongitudeDegrees>
            </Position>
            <AltitudeMeters>1718.5999755859375</AltitudeMeters>
            <DistanceMeters>4177.7789171407</DistanceMeters>
          </Trackpoint>
          <Trackpoint>
            <Time>2022-07-09T08:27:16.000Z</Time>
            <Position>
              <LatitudeDegrees>42.83524802885949611663818359375</LatitudeDegrees>
              <LongitudeDegrees>-0.14047642238438129425048828125</LongitudeDegrees>
            </Position>
            <AltitudeMeters>1718.5999755859375</AltitudeMeters>
            <DistanceMeters>4178.4900319562</DistanceMeters>
          </Trackpoint>
          <Trackpoint>
            <Time>2022-07-09T08:27:18.000Z</Time>
            <Position>
              <LatitudeDegrees>42.8352432511746883392333984375</LatitudeDegrees>
              <LongitudeDegrees>-0.1404842175543308258056640625</LongitudeDegrees>
            </Position>
            <AltitudeMeters>1718.5999755859375</AltitudeMeters>
            <DistanceMeters>4179.3238879907</DistanceMeters>
          </Trackpoint>
          <Trackpoint>
            <Time>2022-07-09T08:27:22.000Z</Time>
            <Position>
              <LatitudeDegrees>42.83523445017635822296142578125</LatitudeDegrees>
              <LongitudeDegrees>-0.140470303595066070556640625</LongitudeDegrees>
            </Position>
            <AltitudeMeters>1718.5999755859375</AltitudeMeters>
            <DistanceMeters>4180.8263922705</DistanceMeters>
          </Trackpoint>
          <Trackpoint>
            <Time>2022-07-09T08:27:28.000Z</Time>
            <Position>
              <LatitudeDegrees>42.83525054343044757843017578125</LatitudeDegrees>
              <LongitudeDegrees>-0.1404597423970699310302734375</LongitudeDegrees>
            </Position>
            <AltitudeMeters>1718.5999755859375</AltitudeMeters>
            <DistanceMeters>4182.8151540668</DistanceMeters>
          </Trackpoint>
          <Trackpoint>
            <Time>2022-07-09T08:27:30.000Z</Time>
            <Position>
              <LatitudeDegrees>42.83525020815432071685791015625</LatitudeDegrees>
              <LongitudeDegrees>-0.14046133495867252349853515625</LongitudeDegrees>
            </Position>
            <AltitudeMeters>1718.5999755859375</AltitudeMeters>
            <DistanceMeters>4182.9495421351</DistanceMeters>
          </Trackpoint>
          <Trackpoint>
            <Time>2022-07-09T08:27:36.000Z</Time>
            <Position>
              <LatitudeDegrees>42.83523461781442165374755859375</LatitudeDegrees>
              <LongitudeDegrees>-0.1404778473079204559326171875</LongitudeDegrees>
            </Position>
            <AltitudeMeters>1718.5999755859375</AltitudeMeters>
            <DistanceMeters>4185.1454612641</DistanceMeters>
          </Trackpoint>
          <Trackpoint>
            <Time>2022-07-09T08:27:41.000Z</Time>
            <Position>
              <LatitudeDegrees>42.83522455953061580657958984375</LatitudeDegrees>
              <LongitudeDegrees>-0.14048061333596706390380859375</LongitudeDegrees>
            </Position>
            <AltitudeMeters>1718.5999755859375</AltitudeMeters>
            <DistanceMeters>4186.2857818365</DistanceMeters>
          </Trackpoint>
          <Trackpoint>
            <Time>2022-07-09T08:27:44.000Z</Time>
            <Position>
              <LatitudeDegrees>42.83522958867251873016357421875</LatitudeDegrees>
              <LongitudeDegrees>-0.1404654420912265777587890625</LongitudeDegrees>
            </Position>
            <AltitudeMeters>1718.5999755859375</AltitudeMeters>
            <DistanceMeters>4187.6463573291</DistanceMeters>
          </Trackpoint>
          <Trackpoint>
            <Time>2022-07-09T08:27:45.000Z</Time>
            <Position>
              <LatitudeDegrees>42.83523134887218475341796875</LatitudeDegrees>
              <LongitudeDegrees>-0.14046217314898967742919921875</LongitudeDegrees>
            </Position>
            <AltitudeMeters>1718.5999755859375</AltitudeMeters>
            <DistanceMeters>4187.9889810203</DistanceMeters>
          </Trackpoint>
          <Trackpoint>
            <Time>2022-07-09T08:27:46.000Z</Time>
            <Position>
              <LatitudeDegrees>42.83523243851959705352783203125</LatitudeDegrees>
              <LongitudeDegrees>-0.14046049676835536956787109375</LongitudeDegrees>
            </Position>
            <AltitudeMeters>1718.5999755859375</AltitudeMeters>
            <DistanceMeters>4188.179034449</DistanceMeters>
          </Trackpoint>
          <Trackpoint>
            <Time>2022-07-09T08:27:49.000Z</Time>
            <Position>
              <LatitudeDegrees>42.83523880876600742340087890625</LatitudeDegrees>
              <LongitudeDegrees>-0.14045312069356441497802734375</LongitudeDegrees>
            </Position>
            <AltitudeMeters>1718.5999755859375</AltitudeMeters>
            <DistanceMeters>4189.1101022976</DistanceMeters>
          </Trackpoint>
          <Trackpoint>
            <Time>2022-07-09T08:27:51.000Z</Time>
            <Position>
              <LatitudeDegrees>42.8352466039359569549560546875</LatitudeDegrees>
              <LongitudeDegrees>-0.14045094139873981475830078125</LongitudeDegrees>
            </Position>
            <AltitudeMeters>1718.5999755859375</AltitudeMeters>
            <DistanceMeters>4190.0015318949</DistanceMeters>
          </Trackpoint>
          <Trackpoint>
            <Time>2022-07-09T08:27:55.000Z</Time>
            <Position>
              <LatitudeDegrees>42.83525808714330196380615234375</LatitudeDegrees>
              <LongitudeDegrees>-0.14044892974197864532470703125</LongitudeDegrees>
            </Position>
            <AltitudeMeters>1718.5999755859375</AltitudeMeters>
            <DistanceMeters>4191.2905369631</DistanceMeters>
          </Trackpoint>
          <Trackpoint>
            <Time>2022-07-09T08:28:00.000Z</Time>
            <Position>
              <LatitudeDegrees>42.8352637030184268951416015625</LatitudeDegrees>
              <LongitudeDegrees>-0.1404369436204433441162109375</LongitudeDegrees>
            </Position>
            <AltitudeMeters>1718.5999755859375</AltitudeMeters>
            <DistanceMeters>4192.4543717738</DistanceMeters>
          </Trackpoint>
          <Trackpoint>
            <Time>2022-07-09T08:28:06.000Z</Time>
            <Position>
              <LatitudeDegrees>42.835293374955654144287109375</LatitudeDegrees>
              <LongitudeDegrees>-0.140457563102245330810546875</LongitudeDegrees>
            </Position>
            <AltitudeMeters>1718.5999755859375</AltitudeMeters>
            <DistanceMeters>4196.1616317252</DistanceMeters>
          </Trackpoint>
          <Trackpoint>
            <Time>2022-07-09T08:28:07.000Z</Time>
            <Position>
              <LatitudeDegrees>42.8352950513362884521484375</LatitudeDegrees>
              <LongitudeDegrees>-0.140464603900909423828125</LongitudeDegrees>
            </Position>
            <AltitudeMeters>1718.5999755859375</AltitudeMeters>
            <DistanceMeters>4196.7774752205</DistanceMeters>
          </Trackpoint>
          <Trackpoint>
            <Time>2022-07-09T08:28:09.000Z</Time>
            <Position>
              <LatitudeDegrees>42.8352963924407958984375</LatitudeDegrees>
              <LongitudeDegrees>-0.1404726505279541015625</LongitudeDegrees>
            </Position>
            <AltitudeMeters>1718.5999755859375</AltitudeMeters>
            <DistanceMeters>4197.4561017</DistanceMeters>
          </Trackpoint>
          <Trackpoint>
            <Time>2022-07-09T08:28:15.000Z</Time>
            <Position>
              <LatitudeDegrees>42.83527418039739131927490234375</LatitudeDegrees>
              <LongitudeDegrees>-0.14050022698938846588134765625</LongitudeDegrees>
            </Position>
            <AltitudeMeters>1718.5999755859375</AltitudeMeters>
            <DistanceMeters>4200.7996379474</DistanceMeters>
          </Trackpoint>
          <Trackpoint>
            <Time>2022-07-09T08:28:18.000Z</Time>
            <Position>
              <LatitudeDegrees>42.83523864112794399261474609375</LatitudeDegrees>
              <LongitudeDegrees>-0.14052134938538074493408203125</LongitudeDegrees>
            </Position>
            <AltitudeMeters>1718.5999755859375</AltitudeMeters>
            <DistanceMeters>4205.114729792</DistanceMeters>
          </Trackpoint>
          <Trackpoint>
            <Time>2022-07-09T08:28:24.000Z</Time>
            <Position>
              <LatitudeDegrees>42.83515155315399169921875</LatitudeDegrees>
              <LongitudeDegrees>-0.14053761027753353118896484375</LongitudeDegrees>
            </Position>
            <AltitudeMeters>1718.5999755859375</AltitudeMeters>
            <DistanceMeters>4214.8983288386</DistanceMeters>
          </Trackpoint>
          <Trackpoint>
            <Time>2022-07-09T08:28:26.000Z</Time>
            <Position>
              <LatitudeDegrees>42.8351383097469806671142578125</LatitudeDegrees>
              <LongitudeDegrees>-0.1405375264585018157958984375</LongitudeDegrees>
            </Position>
            <AltitudeMeters>1718.5999755859375</AltitudeMeters>
            <DistanceMeters>4216.3735401533</DistanceMeters>
          </Trackpoint>
          <Trackpoint>
            <Time>2022-07-09T08:28:32.000Z</Time>
            <Position>
              <LatitudeDegrees>42.8351550735533237457275390625</LatitudeDegrees>
              <LongitudeDegrees>-0.140494443476200103759765625</LongitudeDegrees>
            </Position>
            <AltitudeMeters>1718.5999755859375</AltitudeMeters>
            <DistanceMeters>4220.3533333744</DistanceMeters>
          </Trackpoint>
          <Trackpoint>
            <Time>2022-07-09T08:28:34.000Z</Time>
            <Position>
              <LatitudeDegrees>42.83516555093228816986083984375</LatitudeDegrees>
              <LongitudeDegrees>-0.14048513956367969512939453125</LongitudeDegrees>
            </Position>
            <AltitudeMeters>1718.5999755859375</AltitudeMeters>
            <DistanceMeters>4221.7466985224</DistanceMeters>
          </Trackpoint>
          <Trackpoint>
            <Time>2022-07-09T08:28:35.000Z</Time>
            <Position>
              <LatitudeDegrees>42.8351688198745250701904296875</LatitudeDegrees>
              <LongitudeDegrees>-0.1404832117259502410888671875</LongitudeDegrees>
            </Position>
            <AltitudeMeters>1718.5999755859375</AltitudeMeters>
            <DistanceMeters>4222.1268053798</DistanceMeters>
          </Trackpoint>
          <Trackpoint>
            <Time>2022-07-09T08:28:36.000Z</Time>
            <Position>
              <LatitudeDegrees>42.83517510630190372467041015625</LatitudeDegrees>
              <LongitudeDegrees>-0.1404801942408084869384765625</LongitudeDegrees>
            </Position>
            <AltitudeMeters>1718.5999755859375</AltitudeMeters>
            <DistanceMeters>4222.8628791442</DistanceMeters>
          </Trackpoint>
          <Trackpoint>
            <Time>2022-07-09T08:28:42.000Z</Time>
            <Position>
              <LatitudeDegrees>42.8352065384387969970703125</LatitudeDegrees>
              <LongitudeDegrees>-0.14048513956367969512939453125</LongitudeDegrees>
            </Position>
            <AltitudeMeters>1718.5999755859375</AltitudeMeters>
            <DistanceMeters>4226.3852824479</DistanceMeters>
          </Trackpoint>
          <Trackpoint>
            <Time>2022-07-09T08:28:47.000Z</Time>
            <Position>
              <LatitudeDegrees>42.8352172672748565673828125</LatitudeDegrees>
              <LongitudeDegrees>-0.14047659002244472503662109375</LongitudeDegrees>
            </Position>
            <AltitudeMeters>1718.5999755859375</AltitudeMeters>
            <DistanceMeters>4227.765625206</DistanceMeters>
          </Trackpoint>
          <Trackpoint>
            <Time>2022-07-09T08:28:53.000Z</Time>
            <Position>
              <LatitudeDegrees>42.83525020815432071685791015625</LatitudeDegrees>
              <LongitudeDegrees>-0.14047189615666866302490234375</LongitudeDegrees>
            </Position>
            <AltitudeMeters>1718.5999755859375</AltitudeMeters>
            <DistanceMeters>4231.4508979193</DistanceMeters>
          </Trackpoint>
          <Trackpoint>
            <Time>2022-07-09T08:28:56.000Z</Time>
            <Position>
              <LatitudeDegrees>42.8352606855332851409912109375</LatitudeDegrees>
              <LongitudeDegrees>-0.14046502299606800079345703125</LongitudeDegrees>
            </Position>
            <AltitudeMeters>1718.5999755859375</AltitudeMeters>
            <DistanceMeters>4232.746889516</DistanceMeters>
          </Trackpoint>
          <Trackpoint>
            <Time>2022-07-09T08:28:58.000Z</Time>
            <Position>
              <LatitudeDegrees>42.83527082763612270355224609375</LatitudeDegrees>
              <LongitudeDegrees>-0.140461586415767669677734375</LongitudeDegrees>
            </Position>
            <AltitudeMeters>1718.5999755859375</AltitudeMeters>
            <DistanceMeters>4233.9107243267</DistanceMeters>
          </Trackpoint>
          <Trackpoint>
            <Time>2022-07-09T08:28:59.000Z</Time>
            <Position>
              <LatitudeDegrees>42.8352761082351207733154296875</LatitudeDegrees>
              <LongitudeDegrees>-0.1404617540538311004638671875</LongitudeDegrees>
            </Position>
            <AltitudeMeters>1718.5999755859375</AltitudeMeters>
            <DistanceMeters>4234.4965083354</DistanceMeters>
          </Trackpoint>
          <Trackpoint>
            <Time>2022-07-09T08:29:01.000Z</Time>
            <Position>
              <LatitudeDegrees>42.83528474159538745880126953125</LatitudeDegrees>
              <LongitudeDegrees>-0.140464939177036285400390625</LongitudeDegrees>
            </Position>
            <AltitudeMeters>1718.5999755859375</AltitudeMeters>
            <DistanceMeters>4235.4931569238</DistanceMeters>
          </Trackpoint>
          <Trackpoint>
            <Time>2022-07-09T08:29:06.000Z</Time>
            <Position>
              <LatitudeDegrees>42.83529714681208133697509765625</LatitudeDegrees>
              <LongitudeDegrees>-0.1404473371803760528564453125</LongitudeDegrees>
            </Position>
            <AltitudeMeters>1718.5999755859375</AltitudeMeters>
            <DistanceMeters>4237.4864541007</DistanceMeters>
          </Trackpoint>
          <Trackpoint>
            <Time>2022-07-09T08:29:07.000Z</Time>
            <Position>
              <LatitudeDegrees>42.83529731445014476776123046875</LatitudeDegrees>
              <LongitudeDegrees>-0.1404382847249507904052734375</LongitudeDegrees>
            </Position>
            <AltitudeMeters>1718.5999755859375</AltitudeMeters>
            <DistanceMeters>4238.2225278651</DistanceMeters>
          </Trackpoint>
          <Trackpoint>
            <Time>2022-07-09T08:29:13.000Z</Time>
            <Position>
              <LatitudeDegrees>42.835294045507907867431640625</LatitudeDegrees>
              <LongitudeDegrees>-0.1404077745974063873291015625</LongitudeDegrees>
            </Position>
            <AltitudeMeters>1718.5999755859375</AltitudeMeters>
            <DistanceMeters>4240.7402875168</DistanceMeters>
          </Trackpoint>
          <Trackpoint>
            <Time>2022-07-09T08:29:16.000Z</Time>
            <Position>
              <LatitudeDegrees>42.83528893254697322845458984375</LatitudeDegrees>
              <LongitudeDegrees>-0.140409283339977264404296875</LongitudeDegrees>
            </Position>
            <AltitudeMeters>1718.5999755859375</AltitudeMeters>
            <DistanceMeters>4241.3260715255</DistanceMeters>
          </Trackpoint>
          <Trackpoint>
            <Time>2022-07-09T08:29:22.000Z</Time>
            <Position>
              <LatitudeDegrees>42.83529630862176418304443359375</LatitudeDegrees>
              <LongitudeDegrees>-0.14040492475032806396484375</LongitudeDegrees>
            </Position>
            <AltitudeMeters>1718.5999755859375</AltitudeMeters>
            <DistanceMeters>4242.2175011229</DistanceMeters>
          </Trackpoint>
          <Trackpoint>
            <Time>2022-07-09T08:29:25.000Z</Time>
            <Position>
              <LatitudeDegrees>42.83531223423779010772705078125</LatitudeDegrees>
              <LongitudeDegrees>-0.14040919952094554901123046875</LongitudeDegrees>
            </Position>
            <AltitudeMeters>1718.5999755859375</AltitudeMeters>
            <DistanceMeters>4244.0205062587</DistanceMeters>
          </Trackpoint>
          <Trackpoint>
            <Time>2022-07-09T08:29:31.000Z</Time>
            <Position>
              <LatitudeDegrees>42.83535146154463291168212890625</LatitudeDegrees>
              <LongitudeDegrees>-0.140402577817440032958984375</LongitudeDegrees>
            </Position>
            <AltitudeMeters>1718.5999755859375</AltitudeMeters>
            <DistanceMeters>4248.4185085032</DistanceMeters>
          </Trackpoint>
          <Trackpoint>
            <Time>2022-07-09T08:29:35.000Z</Time>
            <Position>
              <LatitudeDegrees>42.83537375740706920623779296875</LatitudeDegrees>
              <LongitudeDegrees>-0.14039059169590473175048828125</LongitudeDegrees>
            </Position>
            <AltitudeMeters>1718.5999755859375</AltitudeMeters>
            <DistanceMeters>4251.0860354924</DistanceMeters>
          </Trackpoint>
          <Trackpoint>
            <Time>2022-07-09T08:29:36.000Z</Time>
            <Position>
              <LatitudeDegrees>42.83537509851157665252685546875</LatitudeDegrees>
              <LongitudeDegrees>-0.1403879933059215545654296875</LongitudeDegrees>
            </Position>
            <AltitudeMeters>1718.5999755859375</AltitudeMeters>
            <DistanceMeters>4251.3548116289</DistanceMeters>
          </Trackpoint>
          <Trackpoint>
            <Time>2022-07-09T08:29:40.000Z</Time>
            <Position>
              <LatitudeDegrees>42.835379540920257568359375</LatitudeDegrees>
              <LongitudeDegrees>-0.14037449844181537628173828125</LongitudeDegrees>
            </Position>
            <AltitudeMeters>1718.5999755859375</AltitudeMeters>
            <DistanceMeters>4252.5605654626</DistanceMeters>
          </Trackpoint>
          <Trackpoint>
            <Time>2022-07-09T08:29:41.000Z</Time>
            <Position>
              <LatitudeDegrees>42.835377193987369537353515625</LatitudeDegrees>
              <LongitudeDegrees>-0.1403735764324665069580078125</LongitudeDegrees>
            </Position>
            <AltitudeMeters>1718.5999755859375</AltitudeMeters>
            <DistanceMeters>4252.8293415991</DistanceMeters>
          </Trackpoint>
          <Trackpoint>
            <Time>2022-07-09T08:29:42.000Z</Time>
            <Position>
              <LatitudeDegrees>42.835373170673847198486328125</LatitudeDegrees>
              <LongitudeDegrees>-0.14036812819540500640869140625</LongitudeDegrees>
            </Position>
            <AltitudeMeters>1718.5999755859375</AltitudeMeters>
            <DistanceMeters>4253.4596775123</DistanceMeters>
          </Trackpoint>
          <Trackpoint>
            <Time>2022-07-09T08:29:44.000Z</Time>
            <Position>
              <LatitudeDegrees>42.83536520786583423614501953125</LatitudeDegrees>
              <LongitudeDegrees>-0.1403628475964069366455078125</LongitudeDegrees>
            </Position>
            <AltitudeMeters>1718.5999755859375</AltitudeMeters>
            <DistanceMeters>4254.438037417</DistanceMeters>
          </Trackpoint>
          <Trackpoint>
            <Time>2022-07-09T08:29:45.000Z</Time>
            <Position>
              <LatitudeDegrees>42.8353626094758510589599609375</LatitudeDegrees>
              <LongitudeDegrees>-0.14036209322512149810791015625</LongitudeDegrees>
            </Position>
            <AltitudeMeters>1718.5999755859375</AltitudeMeters>
            <DistanceMeters>4254.738538273</DistanceMeters>
          </Trackpoint>
          <Trackpoint>
            <Time>2022-07-09T08:29:51.000Z</Time>
            <Position>
              <LatitudeDegrees>42.835334278643131256103515625</LatitudeDegrees>
              <LongitudeDegrees>-0.1403987221419811248779296875</LongitudeDegrees>
            </Position>
            <AltitudeMeters>1718.5999755859375</AltitudeMeters>
            <DistanceMeters>4259.0838679319</DistanceMeters>
          </Trackpoint>
          <Trackpoint>
            <Time>2022-07-09T08:29:52.000Z</Time>
            <Position>
              <LatitudeDegrees>42.83533168025314807891845703125</LatitudeDegrees>
              <LongitudeDegrees>-0.14039897359907627105712890625</LongitudeDegrees>
            </Position>
            <AltitudeMeters>1718.5999755859375</AltitudeMeters>
            <DistanceMeters>4259.368948075</DistanceMeters>
          </Trackpoint>
          <Trackpoint>
            <Time>2022-07-09T08:29:56.000Z</Time>
            <Position>
              <LatitudeDegrees>42.83531022258102893829345703125</LatitudeDegrees>
              <LongitudeDegrees>-0.14041355811059474945068359375</LongitudeDegrees>
            </Position>
            <AltitudeMeters>1718.5999755859375</AltitudeMeters>
            <DistanceMeters>4262.0364750641</DistanceMeters>
          </Trackpoint>
          <Trackpoint>
            <Time>2022-07-09T08:29:59.000Z</Time>
            <Position>
              <LatitudeDegrees>42.83528809435665607452392578125</LatitudeDegrees>
              <LongitudeDegrees>-0.1404379494488239288330078125</LongitudeDegrees>
            </Position>
            <AltitudeMeters>1718.5999755859375</AltitudeMeters>
            <DistanceMeters>4265.203873828</DistanceMeters>
          </Trackpoint>
          <Trackpoint>
            <Time>2022-07-09T08:30:02.000Z</Time>
            <Position>
              <LatitudeDegrees>42.83527736552059650421142578125</LatitudeDegrees>
              <LongitudeDegrees>-0.140459239482879638671875</LongitudeDegrees>
            </Position>
            <AltitudeMeters>1718.5999755859375</AltitudeMeters>
            <DistanceMeters>4267.3116683176</DistanceMeters>
          </Trackpoint>
          <Trackpoint>
            <Time>2022-07-09T08:30:08.000Z</Time>
            <Position>
              <LatitudeDegrees>42.8352613560855388641357421875</LatitudeDegrees>
              <LongitudeDegrees>-0.14046267606317996978759765625</LongitudeDegrees>
            </Position>
            <AltitudeMeters>1718.5999755859375</AltitudeMeters>
            <DistanceMeters>4269.1196748642</DistanceMeters>
          </Trackpoint>
          <Trackpoint>
            <Time>2022-07-09T08:30:10.000Z</Time>
            <Position>
              <LatitudeDegrees>42.83526294864714145660400390625</LatitudeDegrees>
              <LongitudeDegrees>-0.140458904206752777099609375</LongitudeDegrees>
            </Position>
            <AltitudeMeters>1718.5999755859375</AltitudeMeters>
            <DistanceMeters>4269.4877117464</DistanceMeters>
          </Trackpoint>
          <Trackpoint>
            <Time>2022-07-09T08:30:15.000Z</Time>
            <Position>
              <LatitudeDegrees>42.83526085317134857177734375</LatitudeDegrees>
              <LongitudeDegrees>-0.14044784009456634521484375</LongitudeDegrees>
            </Position>
            <AltitudeMeters>1718.5999755859375</AltitudeMeters>
            <DistanceMeters>4270.418779595</DistanceMeters>
          </Trackpoint>
          <Trackpoint>
            <Time>2022-07-09T08:30:16.000Z</Time>
            <Position>
              <LatitudeDegrees>42.8352606855332851409912109375</LatitudeDegrees>
              <LongitudeDegrees>-0.1404503546655178070068359375</LongitudeDegrees>
            </Position>
            <AltitudeMeters>1718.5999755859375</AltitudeMeters>
            <DistanceMeters>4270.6088330237</DistanceMeters>
          </Trackpoint>
          <Trackpoint>
            <Time>2022-07-09T08:30:17.000Z</Time>
            <Position>
              <LatitudeDegrees>42.8352590091526508331298828125</LatitudeDegrees>
              <LongitudeDegrees>-0.1404525339603424072265625</LongitudeDegrees>
            </Position>
            <AltitudeMeters>1718.5999755859375</AltitudeMeters>
            <DistanceMeters>4270.8776091602</DistanceMeters>
          </Trackpoint>
          <Trackpoint>
            <Time>2022-07-09T08:30:18.000Z</Time>
            <Position>
              <LatitudeDegrees>42.83525456674396991729736328125</LatitudeDegrees>
              <LongitudeDegrees>-0.14045647345483303070068359375</LongitudeDegrees>
            </Position>
            <AltitudeMeters>1718.5999755859375</AltitudeMeters>
            <DistanceMeters>4271.4633931689</DistanceMeters>
          </Trackpoint>
          <Trackpoint>
            <Time>2022-07-09T08:30:20.000Z</Time>
            <Position>
              <LatitudeDegrees>42.83523947931826114654541015625</LatitudeDegrees>
              <LongitudeDegrees>-0.1404627598822116851806640625</LongitudeDegrees>
            </Position>
            <AltitudeMeters>1718.5999755859375</AltitudeMeters>
            <DistanceMeters>4273.2181740861</DistanceMeters>
          </Trackpoint>
          <Trackpoint>
            <Time>2022-07-09T08:30:22.000Z</Time>
            <Position>
              <LatitudeDegrees>42.83522623591125011444091796875</LatitudeDegrees>
              <LongitudeDegrees>-0.14047508127987384796142578125</LongitudeDegrees>
            </Position>
            <AltitudeMeters>1718.5999755859375</AltitudeMeters>
            <DistanceMeters>4275.0035639552</DistanceMeters>
          </Trackpoint>
          <Trackpoint>
            <Time>2022-07-09T08:30:25.000Z</Time>
            <Position>
              <LatitudeDegrees>42.83522305078804492950439453125</LatitudeDegrees>
              <LongitudeDegrees>-0.1404855586588382720947265625</LongitudeDegrees>
            </Position>
            <AltitudeMeters>1720</AltitudeMeters>
            <DistanceMeters>4275.9346318038</DistanceMeters>
          </Trackpoint>
          <Trackpoint>
            <Time>2022-07-09T08:30:26.000Z</Time>
            <Position>
              <LatitudeDegrees>42.83522288314998149871826171875</LatitudeDegrees>
              <LongitudeDegrees>-0.1404838822782039642333984375</LongitudeDegrees>
            </Position>
            <AltitudeMeters>1720.199951171875</AltitudeMeters>
            <DistanceMeters>4276.0690198721</DistanceMeters>
          </Trackpoint>
          <Trackpoint>
            <Time>2022-07-09T08:30:28.000Z</Time>
            <Position>
              <LatitudeDegrees>42.83522187732160091400146484375</LatitudeDegrees>
              <LongitudeDegrees>-0.1404791884124279022216796875</LongitudeDegrees>
            </Position>
            <AltitudeMeters>1720.199951171875</AltitudeMeters>
            <DistanceMeters>4276.4491267295</DistanceMeters>
          </Trackpoint>
          <Trackpoint>
            <Time>2022-07-09T08:30:31.000Z</Time>
            <Position>
              <LatitudeDegrees>42.83522187732160091400146484375</LatitudeDegrees>
              <LongitudeDegrees>-0.14047868549823760986328125</LongitudeDegrees>
            </Position>
            <AltitudeMeters>1719.5999755859375</AltitudeMeters>
            <DistanceMeters>4276.4491267295</DistanceMeters>
          </Trackpoint>
          <Trackpoint>
            <Time>2022-07-09T08:30:37.000Z</Time>
            <Position>
              <LatitudeDegrees>42.83522464334964752197265625</LatitudeDegrees>
              <LongitudeDegrees>-0.140448845922946929931640625</LongitudeDegrees>
            </Position>
            <AltitudeMeters>1719.5999755859375</AltitudeMeters>
            <DistanceMeters>4278.9033192623</DistanceMeters>
          </Trackpoint>
          <Trackpoint>
            <Time>2022-07-09T08:30:38.000Z</Time>
            <Position>
              <LatitudeDegrees>42.83522338606417179107666015625</LatitudeDegrees>
              <LongitudeDegrees>-0.1404453255236148834228515625</LongitudeDegrees>
            </Position>
            <AltitudeMeters>1719.4000244140625</AltitudeMeters>
            <DistanceMeters>4279.2325014571</DistanceMeters>
          </Trackpoint>
          <Trackpoint>
            <Time>2022-07-09T08:30:43.000Z</Time>
            <Position>
              <LatitudeDegrees>42.8352221287786960601806640625</LatitudeDegrees>
              <LongitudeDegrees>-0.14044272713363170623779296875</LongitudeDegrees>
            </Position>
            <AltitudeMeters>1719.4000244140625</AltitudeMeters>
            <DistanceMeters>4279.5012775936</DistanceMeters>
          </Trackpoint>
          <Trackpoint>
            <Time>2022-07-09T08:30:44.000Z</Time>
            <Position>
              <LatitudeDegrees>42.8352278284728527069091796875</LatitudeDegrees>
              <LongitudeDegrees>-0.140445493161678314208984375</LongitudeDegrees>
            </Position>
            <AltitudeMeters>1719.4000244140625</AltitudeMeters>
            <DistanceMeters>4280.1732179348</DistanceMeters>
          </Trackpoint>
          <Trackpoint>
            <Time>2022-07-09T08:30:46.000Z</Time>
            <Position>
              <LatitudeDegrees>42.83524082042276859283447265625</LatitudeDegrees>
              <LongitudeDegrees>-0.1404436491429805755615234375</LongitudeDegrees>
            </Position>
            <AltitudeMeters>1719.4000244140625</AltitudeMeters>
            <DistanceMeters>4281.6299498815</DistanceMeters>
          </Trackpoint>
          <Trackpoint>
            <Time>2022-07-09T08:30:47.000Z</Time>
            <Position>
              <LatitudeDegrees>42.8352449275553226470947265625</LatitudeDegrees>
              <LongitudeDegrees>-0.14044188894331455230712890625</LongitudeDegrees>
            </Position>
            <AltitudeMeters>1719.4000244140625</AltitudeMeters>
            <DistanceMeters>4282.1050834533</DistanceMeters>
          </Trackpoint>
          <Trackpoint>
            <Time>2022-07-09T08:30:48.000Z</Time>
            <Position>
              <LatitudeDegrees>42.835250459611415863037109375</LatitudeDegrees>
              <LongitudeDegrees>-0.14044205658137798309326171875</LongitudeDegrees>
            </Position>
            <AltitudeMeters>1719.4000244140625</AltitudeMeters>
            <DistanceMeters>4282.7209269486</DistanceMeters>
          </Trackpoint>
          <Trackpoint>
            <Time>2022-07-09T08:30:50.000Z</Time>
            <Position>
              <LatitudeDegrees>42.83526311628520488739013671875</LatitudeDegrees>
              <LongitudeDegrees>-0.1404436491429805755615234375</LongitudeDegrees>
            </Position>
            <AltitudeMeters>1719.5999755859375</AltitudeMeters>
            <DistanceMeters>4284.1367931042</DistanceMeters>
          </Trackpoint>
          <Trackpoint>
            <Time>2022-07-09T08:30:55.000Z</Time>
            <Position>
              <LatitudeDegrees>42.83526948653161525726318359375</LatitudeDegrees>
              <LongitudeDegrees>-0.140436775982379913330078125</LongitudeDegrees>
            </Position>
            <AltitudeMeters>1719.5999755859375</AltitudeMeters>
            <DistanceMeters>4285.0432901843</DistanceMeters>
          </Trackpoint>
          <Trackpoint>
            <Time>2022-07-09T08:31:01.000Z</Time>
            <Position>
              <LatitudeDegrees>42.8352804668247699737548828125</LatitudeDegrees>
              <LongitudeDegrees>-0.140453539788722991943359375</LongitudeDegrees>
            </Position>
            <AltitudeMeters>1719.5999755859375</AltitudeMeters>
            <DistanceMeters>4286.8785608765</DistanceMeters>
          </Trackpoint>
          <Trackpoint>
            <Time>2022-07-09T08:31:05.000Z</Time>
            <Position>
              <LatitudeDegrees>42.8352834843099117279052734375</LatitudeDegrees>
              <LongitudeDegrees>-0.14046301133930683135986328125</LongitudeDegrees>
            </Position>
            <AltitudeMeters>1719.4000244140625</AltitudeMeters>
            <DistanceMeters>4287.7178140938</DistanceMeters>
          </Trackpoint>
          <Trackpoint>
            <Time>2022-07-09T08:31:11.000Z</Time>
            <Position>
              <LatitudeDegrees>42.83526713959872722625732421875</LatitudeDegrees>
              <LongitudeDegrees>-0.140452198684215545654296875</LongitudeDegrees>
            </Position>
            <AltitudeMeters>1719.199951171875</AltitudeMeters>
            <DistanceMeters>4289.7403433591</DistanceMeters>
          </Trackpoint>
          <Trackpoint>
            <Time>2022-07-09T08:31:15.000Z</Time>
            <Position>
              <LatitudeDegrees>42.8352469392120838165283203125</LatitudeDegrees>
              <LongitudeDegrees>-0.14047734439373016357421875</LongitudeDegrees>
            </Position>
            <AltitudeMeters>1719.4000244140625</AltitudeMeters>
            <DistanceMeters>4292.7841663552</DistanceMeters>
          </Trackpoint>
          <Trackpoint>
            <Time>2022-07-09T08:31:21.000Z</Time>
            <Position>
              <LatitudeDegrees>42.83521383069455623626708984375</LatitudeDegrees>
              <LongitudeDegrees>-0.1405066810548305511474609375</LongitudeDegrees>
            </Position>
            <AltitudeMeters>1719.199951171875</AltitudeMeters>
            <DistanceMeters>4297.1801148979</DistanceMeters>
          </Trackpoint>
          <Trackpoint>
            <Time>2022-07-09T08:31:24.000Z</Time>
            <Position>
              <LatitudeDegrees>42.8352065384387969970703125</LatitudeDegrees>
              <LongitudeDegrees>-0.14050416648387908935546875</LongitudeDegrees>
            </Position>
            <AltitudeMeters>1719</AltitudeMeters>
            <DistanceMeters>4298.0193681151</DistanceMeters>
          </Trackpoint>
          <Trackpoint>
            <Time>2022-07-09T08:31:25.000Z</Time>
            <Position>
              <LatitudeDegrees>42.835202179849147796630859375</LatitudeDegrees>
              <LongitudeDegrees>-0.1405003108084201812744140625</LongitudeDegrees>
            </Position>
            <AltitudeMeters>1719</AltitudeMeters>
            <DistanceMeters>4298.6051521238</DistanceMeters>
          </Trackpoint>
          <Trackpoint>
            <Time>2022-07-09T08:31:26.000Z</Time>
            <Position>
              <LatitudeDegrees>42.8351976536214351654052734375</LatitudeDegrees>
              <LongitudeDegrees>-0.14049335382878780364990234375</LongitudeDegrees>
            </Position>
            <AltitudeMeters>1719</AltitudeMeters>
            <DistanceMeters>4299.3653658388</DistanceMeters>
          </Trackpoint>
          <Trackpoint>
            <Time>2022-07-09T08:31:28.000Z</Time>
            <Position>
              <LatitudeDegrees>42.83519119955599308013916015625</LatitudeDegrees>
              <LongitudeDegrees>-0.14048446901142597198486328125</LongitudeDegrees>
            </Position>
            <AltitudeMeters>1719</AltitudeMeters>
            <DistanceMeters>4300.3844138215</DistanceMeters>
          </Trackpoint>
          <Trackpoint>
            <Time>2022-07-09T08:31:31.000Z</Time>
            <Position>
              <LatitudeDegrees>42.835186757147312164306640625</LatitudeDegrees>
              <LongitudeDegrees>-0.14047457836568355560302734375</LongitudeDegrees>
            </Position>
            <AltitudeMeters>1719</AltitudeMeters>
            <DistanceMeters>4301.3346809652</DistanceMeters>
          </Trackpoint>
          <Trackpoint>
            <Time>2022-07-09T08:31:37.000Z</Time>
            <Position>
              <LatitudeDegrees>42.83521257340908050537109375</LatitudeDegrees>
              <LongitudeDegrees>-0.14044088311493396759033203125</LongitudeDegrees>
            </Position>
            <AltitudeMeters>1720</AltitudeMeters>
            <DistanceMeters>4305.3133395339</DistanceMeters>
          </Trackpoint>
          <Trackpoint>
            <Time>2022-07-09T08:31:38.000Z</Time>
            <Position>
              <LatitudeDegrees>42.83521986566483974456787109375</LatitudeDegrees>
              <LongitudeDegrees>-0.1404423080384731292724609375</LongitudeDegrees>
            </Position>
            <AltitudeMeters>1720.199951171875</AltitudeMeters>
            <DistanceMeters>4306.1362950207</DistanceMeters>
          </Trackpoint>
          <Trackpoint>
            <Time>2022-07-09T08:31:42.000Z</Time>
            <Position>
              <LatitudeDegrees>42.83524341881275177001953125</LatitudeDegrees>
              <LongitudeDegrees>-0.14046301133930683135986328125</LongitudeDegrees>
            </Position>
            <AltitudeMeters>1719.800048828125</AltitudeMeters>
            <DistanceMeters>4309.2534030159</DistanceMeters>
          </Trackpoint>
          <Trackpoint>
            <Time>2022-07-09T08:31:46.000Z</Time>
            <Position>
              <LatitudeDegrees>42.8352414071559906005859375</LatitudeDegrees>
              <LongitudeDegrees>-0.14045999385416507720947265625</LongitudeDegrees>
            </Position>
            <AltitudeMeters>1719.5999755859375</AltitudeMeters>
            <DistanceMeters>4309.5825852106</DistanceMeters>
          </Trackpoint>
          <Trackpoint>
            <Time>2022-07-09T08:31:50.000Z</Time>
            <Position>
              <LatitudeDegrees>42.8352311812341213226318359375</LatitudeDegrees>
              <LongitudeDegrees>-0.14046552591025829315185546875</LongitudeDegrees>
            </Position>
            <AltitudeMeters>1719.4000244140625</AltitudeMeters>
            <DistanceMeters>4310.8069187802</DistanceMeters>
          </Trackpoint>
          <Trackpoint>
            <Time>2022-07-09T08:31:53.000Z</Time>
            <Position>
              <LatitudeDegrees>42.83524048514664173126220703125</LatitudeDegrees>
              <LongitudeDegrees>-0.14048497192561626434326171875</LongitudeDegrees>
            </Position>
            <AltitudeMeters>1719.199951171875</AltitudeMeters>
            <DistanceMeters>4312.7026957779</DistanceMeters>
          </Trackpoint>
          <Trackpoint>
            <Time>2022-07-09T08:31:54.000Z</Time>
            <Position>
              <LatitudeDegrees>42.8352442570030689239501953125</LatitudeDegrees>
              <LongitudeDegrees>-0.14049469493329524993896484375</LongitudeDegrees>
            </Position>
            <AltitudeMeters>1719.199951171875</AltitudeMeters>
            <DistanceMeters>4313.6041983458</DistanceMeters>
          </Trackpoint>
          <Trackpoint>
            <Time>2022-07-09T08:32:00.000Z</Time>
            <Position>
              <LatitudeDegrees>42.83525859005749225616455078125</LatitudeDegrees>
              <LongitudeDegrees>-0.1405465789139270782470703125</LongitudeDegrees>
            </Position>
            <AltitudeMeters>1719.4000244140625</AltitudeMeters>
            <DistanceMeters>4318.1297053201</DistanceMeters>
          </Trackpoint>
          <Trackpoint>
            <Time>2022-07-09T08:32:06.000Z</Time>
            <Position>
              <LatitudeDegrees>42.83523377962410449981689453125</LatitudeDegrees>
              <LongitudeDegrees>-0.14052822254598140716552734375</LongitudeDegrees>
            </Position>
            <AltitudeMeters>1719.199951171875</AltitudeMeters>
            <DistanceMeters>4321.2699033197</DistanceMeters>
          </Trackpoint>
          <Trackpoint>
            <Time>2022-07-09T08:32:09.000Z</Time>
            <Position>
              <LatitudeDegrees>42.83524073660373687744140625</LatitudeDegrees>
              <LongitudeDegrees>-0.14053006656467914581298828125</LongitudeDegrees>
            </Position>
            <AltitudeMeters>1719.199951171875</AltitudeMeters>
            <DistanceMeters>4322.0649538534</DistanceMeters>
          </Trackpoint>
          <Trackpoint>
            <Time>2022-07-09T08:32:13.000Z</Time>
            <Position>
              <LatitudeDegrees>42.8352412395179271697998046875</LatitudeDegrees>
              <LongitudeDegrees>-0.14051430858671665191650390625</LongitudeDegrees>
            </Position>
            <AltitudeMeters>1719.4000244140625</AltitudeMeters>
            <DistanceMeters>4323.3504514183</DistanceMeters>
          </Trackpoint>
          <Trackpoint>
            <Time>2022-07-09T08:32:16.000Z</Time>
            <Position>
              <LatitudeDegrees>42.83524517901241779327392578125</LatitudeDegrees>
              <LongitudeDegrees>-0.14051313512027263641357421875</LongitudeDegrees>
            </Position>
            <AltitudeMeters>1719.199951171875</AltitudeMeters>
            <DistanceMeters>4323.7961662169</DistanceMeters>
          </Trackpoint>
          <Trackpoint>
            <Time>2022-07-09T08:32:20.000Z</Time>
            <Position>
              <LatitudeDegrees>42.83525875769555568695068359375</LatitudeDegrees>
              <LongitudeDegrees>-0.140508525073528289794921875</LongitudeDegrees>
            </Position>
            <AltitudeMeters>1719.199951171875</AltitudeMeters>
            <DistanceMeters>4325.3547202145</DistanceMeters>
          </Trackpoint>
          <Trackpoint>
            <Time>2022-07-09T08:32:22.000Z</Time>
            <Position>
              <LatitudeDegrees>42.835258506238460540771484375</LatitudeDegrees>
              <LongitudeDegrees>-0.14051229692995548248291015625</LongitudeDegrees>
            </Position>
            <AltitudeMeters>1719.199951171875</AltitudeMeters>
            <DistanceMeters>4325.6839024093</DistanceMeters>
          </Trackpoint>
          <Trackpoint>
            <Time>2022-07-09T08:32:28.000Z</Time>
            <Position>
              <LatitudeDegrees>42.8352382220327854156494140625</LatitudeDegrees>
              <LongitudeDegrees>-0.14053928665816783905029296875</LongitudeDegrees>
            </Position>
            <AltitudeMeters>1719.4000244140625</AltitudeMeters>
            <DistanceMeters>4328.8384458376</DistanceMeters>
          </Trackpoint>
          <Trackpoint>
            <Time>2022-07-09T08:32:31.000Z</Time>
            <Position>
              <LatitudeDegrees>42.835226990282535552978515625</LatitudeDegrees>
              <LongitudeDegrees>-0.1405539549887180328369140625</LongitudeDegrees>
            </Position>
            <AltitudeMeters>1719.5999755859375</AltitudeMeters>
            <DistanceMeters>4330.5725206502</DistanceMeters>
          </Trackpoint>
          <Trackpoint>
            <Time>2022-07-09T08:32:32.000Z</Time>
            <Position>
              <LatitudeDegrees>42.83522539772093296051025390625</LatitudeDegrees>
              <LongitudeDegrees>-0.140571556985378265380859375</LongitudeDegrees>
            </Position>
            <AltitudeMeters>1719.5999755859375</AltitudeMeters>
            <DistanceMeters>4332.023040492</DistanceMeters>
          </Trackpoint>
          <Trackpoint>
            <Time>2022-07-09T08:32:34.000Z</Time>
            <Position>
              <LatitudeDegrees>42.835223972797393798828125</LatitudeDegrees>
              <LongitudeDegrees>-0.14058463275432586669921875</LongitudeDegrees>
            </Position>
            <AltitudeMeters>1719.5999755859375</AltitudeMeters>
            <DistanceMeters>4333.1023364947</DistanceMeters>
          </Trackpoint>
          <Trackpoint>
            <Time>2022-07-09T08:32:38.000Z</Time>
            <Position>
              <LatitudeDegrees>42.8352167643606662750244140625</LatitudeDegrees>
              <LongitudeDegrees>-0.14061640016734600067138671875</LongitudeDegrees>
            </Position>
            <AltitudeMeters>1720.199951171875</AltitudeMeters>
            <DistanceMeters>4335.8168424126</DistanceMeters>
          </Trackpoint>
          <Trackpoint>
            <Time>2022-07-09T08:32:41.000Z</Time>
            <Position>
              <LatitudeDegrees>42.83521131612360477447509765625</LatitudeDegrees>
              <LongitudeDegrees>-0.14063584618270397186279296875</LongitudeDegrees>
            </Position>
            <AltitudeMeters>1720.4000244140625</AltitudeMeters>
            <DistanceMeters>4337.5167319566</DistanceMeters>
          </Trackpoint>
          <Trackpoint>
            <Time>2022-07-09T08:32:43.000Z</Time>
            <Position>
              <LatitudeDegrees>42.8352036885917186737060546875</LatitudeDegrees>
              <LongitudeDegrees>-0.14065830968320369720458984375</LongitudeDegrees>
            </Position>
            <AltitudeMeters>1720.199951171875</AltitudeMeters>
            <DistanceMeters>4339.5370276163</DistanceMeters>
          </Trackpoint>
          <Trackpoint>
            <Time>2022-07-09T08:32:44.000Z</Time>
            <Position>
              <LatitudeDegrees>42.83519924618303775787353515625</LatitudeDegrees>
              <LongitudeDegrees>-0.14067239128053188323974609375</LongitudeDegrees>
            </Position>
            <AltitudeMeters>1720.199951171875</AltitudeMeters>
            <DistanceMeters>4340.7905160691</DistanceMeters>
          </Trackpoint>
          <Trackpoint>
            <Time>2022-07-09T08:32:47.000Z</Time>
            <Position>
              <LatitudeDegrees>42.83518617041409015655517578125</LatitudeDegrees>
              <LongitudeDegrees>-0.14071740210056304931640625</LongitudeDegrees>
            </Position>
            <AltitudeMeters>1720.199951171875</AltitudeMeters>
            <DistanceMeters>4344.7418452343</DistanceMeters>
          </Trackpoint>
          <Trackpoint>
            <Time>2022-07-09T08:32:53.000Z</Time>
            <Position>
              <LatitudeDegrees>42.8351332806050777435302734375</LatitudeDegrees>
              <LongitudeDegrees>-0.1407809369266033172607421875</LongitudeDegrees>
            </Position>
            <AltitudeMeters>1720.199951171875</AltitudeMeters>
            <DistanceMeters>4352.5871623753</DistanceMeters>
          </Trackpoint>
          <Trackpoint>
            <Time>2022-07-09T08:32:55.000Z</Time>
            <Position>
              <LatitudeDegrees>42.83512095920741558074951171875</LatitudeDegrees>
              <LongitudeDegrees>-0.1408017240464687347412109375</LongitudeDegrees>
            </Position>
            <AltitudeMeters>1720.4000244140625</AltitudeMeters>
            <DistanceMeters>4354.7707100304</DistanceMeters>
          </Trackpoint>
          <Trackpoint>
            <Time>2022-07-09T08:33:00.000Z</Time>
            <Position>
              <LatitudeDegrees>42.83510050736367702484130859375</LatitudeDegrees>
              <LongitudeDegrees>-0.14086919836699962615966796875</LongitudeDegrees>
            </Position>
            <AltitudeMeters>1720.4000244140625</AltitudeMeters>
            <DistanceMeters>4360.7301806994</DistanceMeters>
          </Trackpoint>
          <Trackpoint>
            <Time>2022-07-09T08:33:01.000Z</Time>
            <Position>
              <LatitudeDegrees>42.83509748987853527069091796875</LatitudeDegrees>
              <LongitudeDegrees>-0.14088512398302555084228515625</LongitudeDegrees>
            </Position>
            <AltitudeMeters>1720.5999755859375</AltitudeMeters>
            <DistanceMeters>4362.0673250954</DistanceMeters>
          </Trackpoint>
          <Trackpoint>
            <Time>2022-07-09T08:33:04.000Z</Time>
            <Position>
              <LatitudeDegrees>42.83508474938571453094482421875</LatitudeDegrees>
              <LongitudeDegrees>-0.14092527329921722412109375</LongitudeDegrees>
            </Position>
            <AltitudeMeters>1720.5999755859375</AltitudeMeters>
            <DistanceMeters>4365.6381048336</DistanceMeters>
          </Trackpoint>
          <Trackpoint>
            <Time>2022-07-09T08:33:05.000Z</Time>
            <Position>
              <LatitudeDegrees>42.83507972024381160736083984375</LatitudeDegrees>
              <LongitudeDegrees>-0.140937007963657379150390625</LongitudeDegrees>
            </Position>
            <AltitudeMeters>1720.800048828125</AltitudeMeters>
            <DistanceMeters>4366.7503640088</DistanceMeters>
          </Trackpoint>
          <Trackpoint>
            <Time>2022-07-09T08:33:06.000Z</Time>
            <Position>
              <LatitudeDegrees>42.8350746072828769683837890625</LatitudeDegrees>
              <LongitudeDegrees>-0.140947401523590087890625</LongitudeDegrees>
            </Position>
            <AltitudeMeters>1720.5999755859375</AltitudeMeters>
            <DistanceMeters>4367.7738330448</DistanceMeters>
          </Trackpoint>
          <Trackpoint>
            <Time>2022-07-09T08:33:07.000Z</Time>
            <Position>
              <LatitudeDegrees>42.8350697457790374755859375</LatitudeDegrees>
              <LongitudeDegrees>-0.14095771126449108123779296875</LongitudeDegrees>
            </Position>
            <AltitudeMeters>1720.5999755859375</AltitudeMeters>
            <DistanceMeters>4368.7795012613</DistanceMeters>
          </Trackpoint>
          <Trackpoint>
            <Time>2022-07-09T08:33:08.000Z</Time>
            <Position>
              <LatitudeDegrees>42.83506505191326141357421875</LatitudeDegrees>
              <LongitudeDegrees>-0.1409686915576457977294921875</LongitudeDegrees>
            </Position>
            <AltitudeMeters>1720.5999755859375</AltitudeMeters>
            <DistanceMeters>4369.8204667618</DistanceMeters>
          </Trackpoint>
          <Trackpoint>
            <Time>2022-07-09T08:33:10.000Z</Time>
            <Position>
              <LatitudeDegrees>42.8350534848868846893310546875</LatitudeDegrees>
              <LongitudeDegrees>-0.1409876346588134765625</LongitudeDegrees>
            </Position>
            <AltitudeMeters>1720.5999755859375</AltitudeMeters>
            <DistanceMeters>4371.8318031949</DistanceMeters>
          </Trackpoint>
          <Trackpoint>
            <Time>2022-07-09T08:33:13.000Z</Time>
            <Position>
              <LatitudeDegrees>42.8350377269089221954345703125</LatitudeDegrees>
              <LongitudeDegrees>-0.141016803681850433349609375</LongitudeDegrees>
            </Position>
            <AltitudeMeters>1720.4000244140625</AltitudeMeters>
            <DistanceMeters>4374.7883406964</DistanceMeters>
          </Trackpoint>
          <Trackpoint>
            <Time>2022-07-09T08:33:16.000Z</Time>
            <Position>
              <LatitudeDegrees>42.83502171747386455535888671875</LatitudeDegrees>
              <LongitudeDegrees>-0.1410592161118984222412109375</LongitudeDegrees>
            </Position>
            <AltitudeMeters>1720.5999755859375</AltitudeMeters>
            <DistanceMeters>4378.6809578459</DistanceMeters>
          </Trackpoint>
          <Trackpoint>
            <Time>2022-07-09T08:33:22.000Z</Time>
            <Position>
              <LatitudeDegrees>42.83496974967420101165771484375</LatitudeDegrees>
              <LongitudeDegrees>-0.14112635515630245208740234375</LongitudeDegrees>
            </Position>
            <AltitudeMeters>1721.199951171875</AltitudeMeters>
            <DistanceMeters>4386.648481765</DistanceMeters>
          </Trackpoint>
          <Trackpoint>
            <Time>2022-07-09T08:33:23.000Z</Time>
            <Position>
              <LatitudeDegrees>42.83496052958071231842041015625</LatitudeDegrees>
              <LongitudeDegrees>-0.141133479773998260498046875</LongitudeDegrees>
            </Position>
            <AltitudeMeters>1721.199951171875</AltitudeMeters>
            <DistanceMeters>4387.831554818</DistanceMeters>
          </Trackpoint>
          <Trackpoint>
            <Time>2022-07-09T08:33:29.000Z</Time>
            <Position>
              <LatitudeDegrees>42.83490554429590702056884765625</LatitudeDegrees>
              <LongitudeDegrees>-0.14118586666882038116455078125</LongitudeDegrees>
            </Position>
            <AltitudeMeters>1721.5999755859375</AltitudeMeters>
            <DistanceMeters>4395.2976556671</DistanceMeters>
          </Trackpoint>
          <Trackpoint>
            <Time>2022-07-09T08:33:30.000Z</Time>
            <Position>
              <LatitudeDegrees>42.8348959051072597503662109375</LatitudeDegrees>
              <LongitudeDegrees>-0.141192488372325897216796875</LongitudeDegrees>
            </Position>
            <AltitudeMeters>1721.800048828125</AltitudeMeters>
            <DistanceMeters>4396.499659091</DistanceMeters>
          </Trackpoint>
          <Trackpoint>
            <Time>2022-07-09T08:33:33.000Z</Time>
            <Position>
              <LatitudeDegrees>42.834877632558345794677734375</LatitudeDegrees>
              <LongitudeDegrees>-0.141219981014728546142578125</LongitudeDegrees>
            </Position>
            <AltitudeMeters>1722</AltitudeMeters>
            <DistanceMeters>4399.5286123206</DistanceMeters>
          </Trackpoint>
          <Trackpoint>
            <Time>2022-07-09T08:33:37.000Z</Time>
            <Position>
              <LatitudeDegrees>42.8348657302558422088623046875</LatitudeDegrees>
              <LongitudeDegrees>-0.141242444515228271484375</LongitudeDegrees>
            </Position>
            <AltitudeMeters>1722</AltitudeMeters>
            <DistanceMeters>4401.7893695537</DistanceMeters>
          </Trackpoint>
          <Trackpoint>
            <Time>2022-07-09T08:33:41.000Z</Time>
            <Position>
              <LatitudeDegrees>42.834833376109600067138671875</LatitudeDegrees>
              <LongitudeDegrees>-0.1412523351609706878662109375</LongitudeDegrees>
            </Position>
            <AltitudeMeters>1722</AltitudeMeters>
            <DistanceMeters>4405.4795396416</DistanceMeters>
          </Trackpoint>
          <Trackpoint>
            <Time>2022-07-09T08:33:43.000Z</Time>
            <Position>
              <LatitudeDegrees>42.834805883467197418212890625</LatitudeDegrees>
              <LongitudeDegrees>-0.1412630639970302581787109375</LongitudeDegrees>
            </Position>
            <AltitudeMeters>1722</AltitudeMeters>
            <DistanceMeters>4408.662579976</DistanceMeters>
          </Trackpoint>
          <Trackpoint>
            <Time>2022-07-09T08:33:45.000Z</Time>
            <Position>
              <LatitudeDegrees>42.834782414138317108154296875</LatitudeDegrees>
              <LongitudeDegrees>-0.1412764750421047210693359375</LongitudeDegrees>
            </Position>
            <AltitudeMeters>1722</AltitudeMeters>
            <DistanceMeters>4411.4943122871</DistanceMeters>
          </Trackpoint>
          <Trackpoint>
            <Time>2022-07-09T08:33:47.000Z</Time>
            <Position>
              <LatitudeDegrees>42.8347594477236270904541015625</LatitudeDegrees>
              <LongitudeDegrees>-0.141290389001369476318359375</LongitudeDegrees>
            </Position>
            <AltitudeMeters>1722</AltitudeMeters>
            <DistanceMeters>4414.2907468386</DistanceMeters>
          </Trackpoint>
          <Trackpoint>
            <Time>2022-07-09T08:33:49.000Z</Time>
            <Position>
              <LatitudeDegrees>42.83474327065050601959228515625</LatitudeDegrees>
              <LongitudeDegrees>-0.1413094997406005859375</LongitudeDegrees>
            </Position>
            <AltitudeMeters>1722.199951171875</AltitudeMeters>
            <DistanceMeters>4416.6721094751</DistanceMeters>
          </Trackpoint>
          <Trackpoint>
            <Time>2022-07-09T08:33:50.000Z</Time>
            <Position>
              <LatitudeDegrees>42.834734804928302764892578125</LatitudeDegrees>
              <LongitudeDegrees>-0.14131796546280384063720703125</LongitudeDegrees>
            </Position>
            <AltitudeMeters>1722.199951171875</AltitudeMeters>
            <DistanceMeters>4417.8436774926</DistanceMeters>
          </Trackpoint>
          <Trackpoint>
            <Time>2022-07-09T08:33:51.000Z</Time>
            <Position>
              <LatitudeDegrees>42.8347255848348140716552734375</LatitudeDegrees>
              <LongitudeDegrees>-0.14132668264210224151611328125</LongitudeDegrees>
            </Position>
            <AltitudeMeters>1722.199951171875</AltitudeMeters>
            <DistanceMeters>4419.0935587769</DistanceMeters>
          </Trackpoint>
          <Trackpoint>
            <Time>2022-07-09T08:33:52.000Z</Time>
            <Position>
              <LatitudeDegrees>42.83471946604549884796142578125</LatitudeDegrees>
              <LongitudeDegrees>-0.14133288525044918060302734375</LongitudeDegrees>
            </Position>
            <AltitudeMeters>1722.4000244140625</AltitudeMeters>
            <DistanceMeters>4419.9435035489</DistanceMeters>
          </Trackpoint>
          <Trackpoint>
            <Time>2022-07-09T08:33:58.000Z</Time>
            <Position>
              <LatitudeDegrees>42.83470806665718555450439453125</LatitudeDegrees>
              <LongitudeDegrees>-0.14136859215795993804931640625</LongitudeDegrees>
            </Position>
            <AltitudeMeters>1722.800048828125</AltitudeMeters>
            <DistanceMeters>4423.1208649486</DistanceMeters>
          </Trackpoint>
          <Trackpoint>
            <Time>2022-07-09T08:34:00.000Z</Time>
            <Position>
              <LatitudeDegrees>42.83469532616436481475830078125</LatitudeDegrees>
              <LongitudeDegrees>-0.14137588441371917724609375</LongitudeDegrees>
            </Position>
            <AltitudeMeters>1722.800048828125</AltitudeMeters>
            <DistanceMeters>4424.6560685025</DistanceMeters>
          </Trackpoint>
          <Trackpoint>
            <Time>2022-07-09T08:34:01.000Z</Time>
            <Position>
              <LatitudeDegrees>42.83469147048890590667724609375</LatitudeDegrees>
              <LongitudeDegrees>-0.14138150028884410858154296875</LongitudeDegrees>
            </Position>
            <AltitudeMeters>1723</AltitudeMeters>
            <DistanceMeters>4425.2792003401</DistanceMeters>
          </Trackpoint>
          <Trackpoint>
            <Time>2022-07-09T08:34:04.000Z</Time>
            <Position>
              <LatitudeDegrees>42.83467973582446575164794921875</LatitudeDegrees>
              <LongitudeDegrees>-0.1413958333432674407958984375</LongitudeDegrees>
            </Position>
            <AltitudeMeters>1723.4000244140625</AltitudeMeters>
            <DistanceMeters>4427.0314063757</DistanceMeters>
          </Trackpoint>
          <Trackpoint>
            <Time>2022-07-09T08:34:06.000Z</Time>
            <Position>
              <LatitudeDegrees>42.8346655704081058502197265625</LatitudeDegrees>
              <LongitudeDegrees>-0.14141486026346683502197265625</LongitudeDegrees>
            </Position>
            <AltitudeMeters>1723.5999755859375</AltitudeMeters>
            <DistanceMeters>4429.2437131882</DistanceMeters>
          </Trackpoint>
          <Trackpoint>
            <Time>2022-07-09T08:34:08.000Z</Time>
            <Position>
              <LatitudeDegrees>42.83464528620243072509765625</LatitudeDegrees>
              <LongitudeDegrees>-0.14142793603241443634033203125</LongitudeDegrees>
            </Position>
            <AltitudeMeters>1723.5999755859375</AltitudeMeters>
            <DistanceMeters>4431.7398607692</DistanceMeters>
          </Trackpoint>
          <Trackpoint>
            <Time>2022-07-09T08:34:12.000Z</Time>
            <Position>
              <LatitudeDegrees>42.8345975093543529510498046875</LatitudeDegrees>
              <LongitudeDegrees>-0.14144562184810638427734375</LongitudeDegrees>
            </Position>
            <AltitudeMeters>1723.5999755859375</AltitudeMeters>
            <DistanceMeters>4437.2497715674</DistanceMeters>
          </Trackpoint>
          <Trackpoint>
            <Time>2022-07-09T08:34:13.000Z</Time>
            <Position>
              <LatitudeDegrees>42.83458719961345195770263671875</LatitudeDegrees>
              <LongitudeDegrees>-0.14145459048449993133544921875</LongitudeDegrees>
            </Position>
            <AltitudeMeters>1723.5999755859375</AltitudeMeters>
            <DistanceMeters>4438.6136614998</DistanceMeters>
          </Trackpoint>
          <Trackpoint>
            <Time>2022-07-09T08:34:19.000Z</Time>
            <Position>
              <LatitudeDegrees>42.834526933729648590087890625</LatitudeDegrees>
              <LongitudeDegrees>-0.14149549417197704315185546875</LongitudeDegrees>
            </Position>
            <AltitudeMeters>1723.5999755859375</AltitudeMeters>
            <DistanceMeters>4446.106926164</DistanceMeters>
          </Trackpoint>
          <Trackpoint>
            <Time>2022-07-09T08:34:20.000Z</Time>
            <Position>
              <LatitudeDegrees>42.83451897092163562774658203125</LatitudeDegrees>
              <LongitudeDegrees>-0.141502283513545989990234375</LongitudeDegrees>
            </Position>
            <AltitudeMeters>1723.5999755859375</AltitudeMeters>
            <DistanceMeters>4447.1522200221</DistanceMeters>
          </Trackpoint>
          <Trackpoint>
            <Time>2022-07-09T08:34:26.000Z</Time>
            <Position>
              <LatitudeDegrees>42.83448837697505950927734375</LatitudeDegrees>
              <LongitudeDegrees>-0.1415361464023590087890625</LongitudeDegrees>
            </Position>
            <AltitudeMeters>1723.4000244140625</AltitudeMeters>
            <DistanceMeters>4451.5378856301</DistanceMeters>
          </Trackpoint>
          <Trackpoint>
            <Time>2022-07-09T08:34:29.000Z</Time>
            <Position>
              <LatitudeDegrees>42.834471948444843292236328125</LatitudeDegrees>
              <LongitudeDegrees>-0.141534470021724700927734375</LongitudeDegrees>
            </Position>
            <AltitudeMeters>1723.4000244140625</AltitudeMeters>
            <DistanceMeters>4453.3682294122</DistanceMeters>
          </Trackpoint>
          <Trackpoint>
            <Time>2022-07-09T08:34:35.000Z</Time>
            <Position>
              <LatitudeDegrees>42.8344100899994373321533203125</LatitudeDegrees>
              <LongitudeDegrees>-0.14154830016195774078369140625</LongitudeDegrees>
            </Position>
            <AltitudeMeters>1723.4000244140625</AltitudeMeters>
            <DistanceMeters>4460.3447695313</DistanceMeters>
          </Trackpoint>
          <Trackpoint>
            <Time>2022-07-09T08:34:36.000Z</Time>
            <Position>
              <LatitudeDegrees>42.83439558930695056915283203125</LatitudeDegrees>
              <LongitudeDegrees>-0.14155617915093898773193359375</LongitudeDegrees>
            </Position>
            <AltitudeMeters>1723.5999755859375</AltitudeMeters>
            <DistanceMeters>4462.0814461081</DistanceMeters>
          </Trackpoint>
          <Trackpoint>
            <Time>2022-07-09T08:34:41.000Z</Time>
            <Position>
              <LatitudeDegrees>42.83433071337640285491943359375</LatitudeDegrees>
              <LongitudeDegrees>-0.1415882818400859832763671875</LongitudeDegrees>
            </Position>
            <AltitudeMeters>1723.800048828125</AltitudeMeters>
            <DistanceMeters>4469.7627558587</DistanceMeters>
          </Trackpoint>
          <Trackpoint>
            <Time>2022-07-09T08:34:44.000Z</Time>
            <Position>
              <LatitudeDegrees>42.83429500646889209747314453125</LatitudeDegrees>
              <LongitudeDegrees>-0.1415980048477649688720703125</LongitudeDegrees>
            </Position>
            <AltitudeMeters>1723.5999755859375</AltitudeMeters>
            <DistanceMeters>4473.8167340441</DistanceMeters>
          </Trackpoint>
          <Trackpoint>
            <Time>2022-07-09T08:34:49.000Z</Time>
            <Position>
              <LatitudeDegrees>42.8342484869062900543212890625</LatitudeDegrees>
              <LongitudeDegrees>-0.1415916346013545989990234375</LongitudeDegrees>
            </Position>
            <AltitudeMeters>1723.199951171875</AltitudeMeters>
            <DistanceMeters>4479.0206940032</DistanceMeters>
          </Trackpoint>
          <Trackpoint>
            <Time>2022-07-09T08:34:51.000Z</Time>
            <Position>
              <LatitudeDegrees>42.83422409556806087493896484375</LatitudeDegrees>
              <LongitudeDegrees>-0.14158752746880054473876953125</LongitudeDegrees>
            </Position>
            <AltitudeMeters>1723.4000244140625</AltitudeMeters>
            <DistanceMeters>4481.7567373822</DistanceMeters>
          </Trackpoint>
          <Trackpoint>
            <Time>2022-07-09T08:34:53.000Z</Time>
            <Position>
              <LatitudeDegrees>42.83420381136238574981689453125</LatitudeDegrees>
              <LongitudeDegrees>-0.1415892876684665679931640625</LongitudeDegrees>
            </Position>
            <AltitudeMeters>1723.5999755859375</AltitudeMeters>
            <DistanceMeters>4484.0174946154</DistanceMeters>
          </Trackpoint>
          <Trackpoint>
            <Time>2022-07-09T08:34:58.000Z</Time>
            <Position>
              <LatitudeDegrees>42.8341710381209850311279296875</LatitudeDegrees>
              <LongitudeDegrees>-0.141608230769634246826171875</LongitudeDegrees>
            </Position>
            <AltitudeMeters>1723.5999755859375</AltitudeMeters>
            <DistanceMeters>4487.9790944008</DistanceMeters>
          </Trackpoint>
          <Trackpoint>
            <Time>2022-07-09T08:35:00.000Z</Time>
            <Position>
              <LatitudeDegrees>42.8341549448668956756591796875</LatitudeDegrees>
              <LongitudeDegrees>-0.14160848222672939300537109375</LongitudeDegrees>
            </Position>
            <AltitudeMeters>1723.199951171875</AltitudeMeters>
            <DistanceMeters>4489.7695348878</DistanceMeters>
          </Trackpoint>
          <Trackpoint>
            <Time>2022-07-09T08:35:06.000Z</Time>
            <Position>
              <LatitudeDegrees>42.83411286771297454833984375</LatitudeDegrees>
              <LongitudeDegrees>-0.1416184566915035247802734375</LongitudeDegrees>
            </Position>
            <AltitudeMeters>1723.4000244140625</AltitudeMeters>
            <DistanceMeters>4494.5227707606</DistanceMeters>
          </Trackpoint>
          <Trackpoint>
            <Time>2022-07-09T08:35:07.000Z</Time>
            <Position>
              <LatitudeDegrees>42.8341046534478664398193359375</LatitudeDegrees>
              <LongitudeDegrees>-0.14162491075694561004638671875</LongitudeDegrees>
            </Position>
            <AltitudeMeters>1723.4000244140625</AltitudeMeters>
            <DistanceMeters>4495.5809434682</DistanceMeters>
          </Trackpoint>
          <Trackpoint>
            <Time>2022-07-09T08:35:10.000Z</Time>
            <Position>
              <LatitudeDegrees>42.83408428542315959930419921875</LatitudeDegrees>
              <LongitudeDegrees>-0.1416425965726375579833984375</LongitudeDegrees>
            </Position>
            <AltitudeMeters>1723</AltitudeMeters>
            <DistanceMeters>4498.2687048332</DistanceMeters>
          </Trackpoint>
          <Trackpoint>
            <Time>2022-07-09T08:35:14.000Z</Time>
            <Position>
              <LatitudeDegrees>42.83405763097107410430908203125</LatitudeDegrees>
              <LongitudeDegrees>-0.1416657306253910064697265625</LongitudeDegrees>
            </Position>
            <AltitudeMeters>1723</AltitudeMeters>
            <DistanceMeters>4501.7859771753</DistanceMeters>
          </Trackpoint>
          <Trackpoint>
            <Time>2022-07-09T08:35:15.000Z</Time>
            <Position>
              <LatitudeDegrees>42.83405411057174205780029296875</LatitudeDegrees>
              <LongitudeDegrees>-0.1416714303195476531982421875</LongitudeDegrees>
            </Position>
            <AltitudeMeters>1722.800048828125</AltitudeMeters>
            <DistanceMeters>4502.4018206705</DistanceMeters>
          </Trackpoint>
          <Trackpoint>
            <Time>2022-07-09T08:35:17.000Z</Time>
            <Position>
              <LatitudeDegrees>42.83404648303985595703125</LatitudeDegrees>
              <LongitudeDegrees>-0.1416697539389133453369140625</LongitudeDegrees>
            </Position>
            <AltitudeMeters>1722.800048828125</AltitudeMeters>
            <DistanceMeters>4503.2623241675</DistanceMeters>
          </Trackpoint>
          <Trackpoint>
            <Time>2022-07-09T08:35:20.000Z</Time>
            <Position>
              <LatitudeDegrees>42.8340339101850986480712890625</LatitudeDegrees>
              <LongitudeDegrees>-0.1416704244911670684814453125</LongitudeDegrees>
            </Position>
            <AltitudeMeters>1722.800048828125</AltitudeMeters>
            <DistanceMeters>4504.6653767912</DistanceMeters>
          </Trackpoint>
          <Trackpoint>
            <Time>2022-07-09T08:35:24.000Z</Time>
            <Position>
              <LatitudeDegrees>42.83401488326489925384521484375</LatitudeDegrees>
              <LongitudeDegrees>-0.14168140478432178497314453125</LongitudeDegrees>
            </Position>
            <AltitudeMeters>1722.800048828125</AltitudeMeters>
            <DistanceMeters>4506.9657299806</DistanceMeters>
          </Trackpoint>
          <Trackpoint>
            <Time>2022-07-09T08:35:25.000Z</Time>
            <Position>
              <LatitudeDegrees>42.83400733955204486846923828125</LatitudeDegrees>
              <LongitudeDegrees>-0.14168358407914638519287109375</LongitudeDegrees>
            </Position>
            <AltitudeMeters>1723</AltitudeMeters>
            <DistanceMeters>4507.8262334777</DistanceMeters>
          </Trackpoint>
          <Trackpoint>
            <Time>2022-07-09T08:35:27.000Z</Time>
            <Position>
              <LatitudeDegrees>42.83398873172700405120849609375</LatitudeDegrees>
              <LongitudeDegrees>-0.14168274588882923126220703125</LongitudeDegrees>
            </Position>
            <AltitudeMeters>1723</AltitudeMeters>
            <DistanceMeters>4509.8994716182</DistanceMeters>
          </Trackpoint>
          <Trackpoint>
            <Time>2022-07-09T08:35:28.000Z</Time>
            <Position>
              <LatitudeDegrees>42.83398001454770565032958984375</LatitudeDegrees>
              <LongitudeDegrees>-0.14168408699333667755126953125</LongitudeDegrees>
            </Position>
            <AltitudeMeters>1723</AltitudeMeters>
            <DistanceMeters>4510.8778315229</DistanceMeters>
          </Trackpoint>
          <Trackpoint>
            <Time>2022-07-09T08:35:29.000Z</Time>
            <Position>
              <LatitudeDegrees>42.83397180028259754180908203125</LatitudeDegrees>
              <LongitudeDegrees>-0.14168425463140010833740234375</LongitudeDegrees>
            </Position>
            <AltitudeMeters>1723</AltitudeMeters>
            <DistanceMeters>4511.7892957475</DistanceMeters>
          </Trackpoint>
          <Trackpoint>
            <Time>2022-07-09T08:35:32.000Z</Time>
            <Position>
              <LatitudeDegrees>42.833965010941028594970703125</LatitudeDegrees>
              <LongitudeDegrees>-0.14169372618198394775390625</LongitudeDegrees>
            </Position>
            <AltitudeMeters>1723.199951171875</AltitudeMeters>
            <DistanceMeters>4512.8644002935</DistanceMeters>
          </Trackpoint>
          <Trackpoint>
            <Time>2022-07-09T08:35:34.000Z</Time>
            <Position>
              <LatitudeDegrees>42.833954282104969024658203125</LatitudeDegrees>
              <LongitudeDegrees>-0.1416997611522674560546875</LongitudeDegrees>
            </Position>
            <AltitudeMeters>1723.199951171875</AltitudeMeters>
            <DistanceMeters>4514.1569033466</DistanceMeters>
          </Trackpoint>
          <Trackpoint>
            <Time>2022-07-09T08:35:40.000Z</Time>
            <Position>
              <LatitudeDegrees>42.83389971591532230377197265625</LatitudeDegrees>
              <LongitudeDegrees>-0.14170981943607330322265625</LongitudeDegrees>
            </Position>
            <AltitudeMeters>1723.199951171875</AltitudeMeters>
            <DistanceMeters>4520.2859422604</DistanceMeters>
          </Trackpoint>
          <Trackpoint>
            <Time>2022-07-09T08:35:45.000Z</Time>
            <Position>
              <LatitudeDegrees>42.83385914750397205352783203125</LatitudeDegrees>
              <LongitudeDegrees>-0.14173488132655620574951171875</LongitudeDegrees>
            </Position>
            <AltitudeMeters>1723.199951171875</AltitudeMeters>
            <DistanceMeters>4525.2437510587</DistanceMeters>
          </Trackpoint>
          <Trackpoint>
            <Time>2022-07-09T08:35:48.000Z</Time>
            <Position>
              <LatitudeDegrees>42.8338305652141571044921875</LatitudeDegrees>
              <LongitudeDegrees>-0.14174141921103000640869140625</LongitudeDegrees>
            </Position>
            <AltitudeMeters>1723</AltitudeMeters>
            <DistanceMeters>4528.4690646967</DistanceMeters>
          </Trackpoint>
          <Trackpoint>
            <Time>2022-07-09T08:35:50.000Z</Time>
            <Position>
              <LatitudeDegrees>42.8338136337697505950927734375</LatitudeDegrees>
              <LongitudeDegrees>-0.14174208976328372955322265625</LongitudeDegrees>
            </Position>
            <AltitudeMeters>1722.800048828125</AltitudeMeters>
            <DistanceMeters>4530.3552911197</DistanceMeters>
          </Trackpoint>
          <Trackpoint>
            <Time>2022-07-09T08:35:51.000Z</Time>
            <Position>
              <LatitudeDegrees>42.8338106162846088409423828125</LatitudeDegrees>
              <LongitudeDegrees>-0.1417475380003452301025390625</LongitudeDegrees>
            </Position>
            <AltitudeMeters>1722.5999755859375</AltitudeMeters>
            <DistanceMeters>4530.9254514059</DistanceMeters>
          </Trackpoint>
          <Trackpoint>
            <Time>2022-07-09T08:35:52.000Z</Time>
            <Position>
              <LatitudeDegrees>42.833805084228515625</LatitudeDegrees>
              <LongitudeDegrees>-0.14175080694258213043212890625</LongitudeDegrees>
            </Position>
            <AltitudeMeters>1722.5999755859375</AltitudeMeters>
            <DistanceMeters>4531.5973917472</DistanceMeters>
          </Trackpoint>
          <Trackpoint>
            <Time>2022-07-09T08:35:53.000Z</Time>
            <Position>
              <LatitudeDegrees>42.83380013890564441680908203125</LatitudeDegrees>
              <LongitudeDegrees>-0.14175139367580413818359375</LongitudeDegrees>
            </Position>
            <AltitudeMeters>1722.5999755859375</AltitudeMeters>
            <DistanceMeters>4532.1432786609</DistanceMeters>
          </Trackpoint>
          <Trackpoint>
            <Time>2022-07-09T08:35:55.000Z</Time>
            <Position>
              <LatitudeDegrees>42.8337848000228404998779296875</LatitudeDegrees>
              <LongitudeDegrees>-0.141758434474468231201171875</LongitudeDegrees>
            </Position>
            <AltitudeMeters>1722.5999755859375</AltitudeMeters>
            <DistanceMeters>4533.9462837968</DistanceMeters>
          </Trackpoint>
          <Trackpoint>
            <Time>2022-07-09T08:35:56.000Z</Time>
            <Position>
              <LatitudeDegrees>42.8337770886719226837158203125</LatitudeDegrees>
              <LongitudeDegrees>-0.14176136814057826995849609375</LongitudeDegrees>
            </Position>
            <AltitudeMeters>1722.5999755859375</AltitudeMeters>
            <DistanceMeters>4534.8377133941</DistanceMeters>
          </Trackpoint>
          <Trackpoint>
            <Time>2022-07-09T08:35:57.000Z</Time>
            <Position>
              <LatitudeDegrees>42.83376946114003658294677734375</LatitudeDegrees>
              <LongitudeDegrees>-0.1417683251202106475830078125</LongitudeDegrees>
            </Position>
            <AltitudeMeters>1722.5999755859375</AltitudeMeters>
            <DistanceMeters>4535.8567613769</DistanceMeters>
          </Trackpoint>
          <Trackpoint>
            <Time>2022-07-09T08:36:02.000Z</Time>
            <Position>
              <LatitudeDegrees>42.83370391465723514556884765625</LatitudeDegrees>
              <LongitudeDegrees>-0.14176639728248119354248046875</LongitudeDegrees>
            </Position>
            <AltitudeMeters>1722.5999755859375</AltitudeMeters>
            <DistanceMeters>4543.1540458574</DistanceMeters>
          </Trackpoint>
          <Trackpoint>
            <Time>2022-07-09T08:36:07.000Z</Time>
            <Position>
              <LatitudeDegrees>42.8336523659527301788330078125</LatitudeDegrees>
              <LongitudeDegrees>-0.1417639665305614471435546875</LongitudeDegrees>
            </Position>
            <AltitudeMeters>1722.199951171875</AltitudeMeters>
            <DistanceMeters>4548.8951066497</DistanceMeters>
          </Trackpoint>
          <Trackpoint>
            <Time>2022-07-09T08:36:09.000Z</Time>
            <Position>
              <LatitudeDegrees>42.83363434486091136932373046875</LatitudeDegrees>
              <LongitudeDegrees>-0.1417706720530986785888671875</LongitudeDegrees>
            </Position>
            <AltitudeMeters>1722.199951171875</AltitudeMeters>
            <DistanceMeters>4550.9726957669</DistanceMeters>
          </Trackpoint>
          <Trackpoint>
            <Time>2022-07-09T08:36:15.000Z</Time>
            <Position>
              <LatitudeDegrees>42.8335591591894626617431640625</LatitudeDegrees>
              <LongitudeDegrees>-0.14179690741002559661865234375</LongitudeDegrees>
            </Position>
            <AltitudeMeters>1722</AltitudeMeters>
            <DistanceMeters>4559.6107234154</DistanceMeters>
          </Trackpoint>
          <Trackpoint>
            <Time>2022-07-09T08:36:16.000Z</Time>
            <Position>
              <LatitudeDegrees>42.833552621304988861083984375</LatitudeDegrees>
              <LongitudeDegrees>-0.1417917944490909576416015625</LongitudeDegrees>
            </Position>
            <AltitudeMeters>1722</AltitudeMeters>
            <DistanceMeters>4560.4499766327</DistanceMeters>
          </Trackpoint>
          <Trackpoint>
            <Time>2022-07-09T08:36:22.000Z</Time>
            <Position>
              <LatitudeDegrees>42.8334952890872955322265625</LatitudeDegrees>
              <LongitudeDegrees>-0.1417535729706287384033203125</LongitudeDegrees>
            </Position>
            <AltitudeMeters>1722.199951171875</AltitudeMeters>
            <DistanceMeters>4567.5535016146</DistanceMeters>
          </Trackpoint>
          <Trackpoint>
            <Time>2022-07-09T08:36:24.000Z</Time>
            <Position>
              <LatitudeDegrees>42.83348062075674533843994140625</LatitudeDegrees>
              <LongitudeDegrees>-0.14174829237163066864013671875</LongitudeDegrees>
            </Position>
            <AltitudeMeters>1722.199951171875</AltitudeMeters>
            <DistanceMeters>4569.2427334389</DistanceMeters>
          </Trackpoint>
          <Trackpoint>
            <Time>2022-07-09T08:36:28.000Z</Time>
            <Position>
              <LatitudeDegrees>42.8334501944482326507568359375</LatitudeDegrees>
              <LongitudeDegrees>-0.1417438499629497528076171875</LongitudeDegrees>
            </Position>
            <AltitudeMeters>1722.199951171875</AltitudeMeters>
            <DistanceMeters>4572.6478205382</DistanceMeters>
          </Trackpoint>
          <Trackpoint>
            <Time>2022-07-09T08:36:31.000Z</Time>
            <Position>
              <LatitudeDegrees>42.83341825939714908599853515625</LatitudeDegrees>
              <LongitudeDegrees>-0.1417351327836513519287109375</LongitudeDegrees>
            </Position>
            <AltitudeMeters>1722.4000244140625</AltitudeMeters>
            <DistanceMeters>4576.273808859</DistanceMeters>
          </Trackpoint>
          <Trackpoint>
            <Time>2022-07-09T08:36:33.000Z</Time>
            <Position>
              <LatitudeDegrees>42.8333931975066661834716796875</LatitudeDegrees>
              <LongitudeDegrees>-0.14172515831887722015380859375</LongitudeDegrees>
            </Position>
            <AltitudeMeters>1722.5999755859375</AltitudeMeters>
            <DistanceMeters>4579.1795138466</DistanceMeters>
          </Trackpoint>
          <Trackpoint>
            <Time>2022-07-09T08:36:36.000Z</Time>
            <Position>
              <LatitudeDegrees>42.83335153944790363311767578125</LatitudeDegrees>
              <LongitudeDegrees>-0.14169716276228427886962890625</LongitudeDegrees>
            </Position>
            <AltitudeMeters>1722.5999755859375</AltitudeMeters>
            <DistanceMeters>4584.3477791379</DistanceMeters>
          </Trackpoint>
          <Trackpoint>
            <Time>2022-07-09T08:36:39.000Z</Time>
            <Position>
              <LatitudeDegrees>42.8333127312362194061279296875</LatitudeDegrees>
              <LongitudeDegrees>-0.14167889021337032318115234375</LongitudeDegrees>
            </Position>
            <AltitudeMeters>1722.4000244140625</AltitudeMeters>
            <DistanceMeters>4588.9169734584</DistanceMeters>
          </Trackpoint>
          <Trackpoint>
            <Time>2022-07-09T08:36:40.000Z</Time>
            <Position>
              <LatitudeDegrees>42.8332983143627643585205078125</LatitudeDegrees>
              <LongitudeDegrees>-0.1416747830808162689208984375</LongitudeDegrees>
            </Position>
            <AltitudeMeters>1722.4000244140625</AltitudeMeters>
            <DistanceMeters>4590.5573888876</DistanceMeters>
          </Trackpoint>
          <Trackpoint>
            <Time>2022-07-09T08:36:45.000Z</Time>
            <Position>
              <LatitudeDegrees>42.83324844203889369964599609375</LatitudeDegrees>
              <LongitudeDegrees>-0.141641087830066680908203125</LongitudeDegrees>
            </Position>
            <AltitudeMeters>1722.5999755859375</AltitudeMeters>
            <DistanceMeters>4596.7523727364</DistanceMeters>
          </Trackpoint>
          <Trackpoint>
            <Time>2022-07-09T08:36:46.000Z</Time>
            <Position>
              <LatitudeDegrees>42.83324290998280048370361328125</LatitudeDegrees>
              <LongitudeDegrees>-0.14163832180202007293701171875</LongitudeDegrees>
            </Position>
            <AltitudeMeters>1722.5999755859375</AltitudeMeters>
            <DistanceMeters>4597.4038430679</DistanceMeters>
          </Trackpoint>
          <Trackpoint>
            <Time>2022-07-09T08:36:47.000Z</Time>
            <Position>
              <LatitudeDegrees>42.83323788084089756011962890625</LatitudeDegrees>
              <LongitudeDegrees>-0.14163874089717864990234375</LongitudeDegrees>
            </Position>
            <AltitudeMeters>1722.5999755859375</AltitudeMeters>
            <DistanceMeters>4597.9579392682</DistanceMeters>
          </Trackpoint>
          <Trackpoint>
            <Time>2022-07-09T08:36:49.000Z</Time>
            <Position>
              <LatitudeDegrees>42.8332282416522502899169921875</LatitudeDegrees>
              <LongitudeDegrees>-0.1416380703449249267578125</LongitudeDegrees>
            </Position>
            <AltitudeMeters>1722.5999755859375</AltitudeMeters>
            <DistanceMeters>4599.0330438142</DistanceMeters>
          </Trackpoint>
          <Trackpoint>
            <Time>2022-07-09T08:36:52.000Z</Time>
            <Position>
              <LatitudeDegrees>42.8331997431814670562744140625</LatitudeDegrees>
              <LongitudeDegrees>-0.14163161627948284149169921875</LongitudeDegrees>
            </Position>
            <AltitudeMeters>1722.5999755859375</AltitudeMeters>
            <DistanceMeters>4602.2471389359</DistanceMeters>
          </Trackpoint>
          <Trackpoint>
            <Time>2022-07-09T08:36:58.000Z</Time>
            <Position>
              <LatitudeDegrees>42.8331699036061763763427734375</LatitudeDegrees>
              <LongitudeDegrees>-0.141619630157947540283203125</LongitudeDegrees>
            </Position>
            <AltitudeMeters>1722.800048828125</AltitudeMeters>
            <DistanceMeters>4605.710077214</DistanceMeters>
          </Trackpoint>
          <Trackpoint>
            <Time>2022-07-09T08:37:00.000Z</Time>
            <Position>
              <LatitudeDegrees>42.8331546485424041748046875</LatitudeDegrees>
              <LongitudeDegrees>-0.14162088744342327117919921875</LongitudeDegrees>
            </Position>
            <AltitudeMeters>1722.5999755859375</AltitudeMeters>
            <DistanceMeters>4607.4099667581</DistanceMeters>
          </Trackpoint>
          <Trackpoint>
            <Time>2022-07-09T08:37:05.000Z</Time>
            <Position>
              <LatitudeDegrees>42.8331015072762966156005859375</LatitudeDegrees>
              <LongitudeDegrees>-0.1416338793933391571044921875</LongitudeDegrees>
            </Position>
            <AltitudeMeters>1722.199951171875</AltitudeMeters>
            <DistanceMeters>4613.4192325784</DistanceMeters>
          </Trackpoint>
          <Trackpoint>
            <Time>2022-07-09T08:37:06.000Z</Time>
            <Position>
              <LatitudeDegrees>42.8330897726118564605712890625</LatitudeDegrees>
              <LongitudeDegrees>-0.14163337647914886474609375</LongitudeDegrees>
            </Position>
            <AltitudeMeters>1722.199951171875</AltitudeMeters>
            <DistanceMeters>4614.729085442</DistanceMeters>
          </Trackpoint>
          <Trackpoint>
            <Time>2022-07-09T08:37:08.000Z</Time>
            <Position>
              <LatitudeDegrees>42.8330634534358978271484375</LatitudeDegrees>
              <LongitudeDegrees>-0.14163228683173656463623046875</LongitudeDegrees>
            </Position>
            <AltitudeMeters>1722</AltitudeMeters>
            <DistanceMeters>4617.6610869384</DistanceMeters>
          </Trackpoint>
          <Trackpoint>
            <Time>2022-07-09T08:37:09.000Z</Time>
            <Position>
              <LatitudeDegrees>42.833051718771457672119140625</LatitudeDegrees>
              <LongitudeDegrees>-0.14162993989884853363037109375</LongitudeDegrees>
            </Position>
            <AltitudeMeters>1722</AltitudeMeters>
            <DistanceMeters>4618.9778157173</DistanceMeters>
          </Trackpoint>
          <Trackpoint>
            <Time>2022-07-09T08:37:13.000Z</Time>
            <Position>
              <LatitudeDegrees>42.83300888724625110626220703125</LatitudeDegrees>
              <LongitudeDegrees>-0.141633041203022003173828125</LongitudeDegrees>
            </Position>
            <AltitudeMeters>1721.800048828125</AltitudeMeters>
            <DistanceMeters>4623.7509575409</DistanceMeters>
          </Trackpoint>
          <Trackpoint>
            <Time>2022-07-09T08:37:16.000Z</Time>
            <Position>
              <LatitudeDegrees>42.83297569490969181060791015625</LatitudeDegrees>
              <LongitudeDegrees>-0.1416313648223876953125</LongitudeDegrees>
            </Position>
            <AltitudeMeters>1721.800048828125</AltitudeMeters>
            <DistanceMeters>4627.4472402221</DistanceMeters>
          </Trackpoint>
          <Trackpoint>
            <Time>2022-07-09T08:37:21.000Z</Time>
            <Position>
              <LatitudeDegrees>42.83292355947196483612060546875</LatitudeDegrees>
              <LongitudeDegrees>-0.14163932763040065765380859375</LongitudeDegrees>
            </Position>
            <AltitudeMeters>1721.5999755859375</AltitudeMeters>
            <DistanceMeters>4633.285779301</DistanceMeters>
          </Trackpoint>
          <Trackpoint>
            <Time>2022-07-09T08:37:23.000Z</Time>
            <Position>
              <LatitudeDegrees>42.83290293999016284942626953125</LatitudeDegrees>
              <LongitudeDegrees>-0.1416439376771450042724609375</LongitudeDegrees>
            </Position>
            <AltitudeMeters>1721.4000244140625</AltitudeMeters>
            <DistanceMeters>4635.6115083889</DistanceMeters>
          </Trackpoint>
          <Trackpoint>
            <Time>2022-07-09T08:37:26.000Z</Time>
            <Position>
              <LatitudeDegrees>42.83286035992205142974853515625</LatitudeDegrees>
              <LongitudeDegrees>-0.14164066873490810394287109375</LongitudeDegrees>
            </Position>
            <AltitudeMeters>1721.199951171875</AltitudeMeters>
            <DistanceMeters>4640.3580903936</DistanceMeters>
          </Trackpoint>
          <Trackpoint>
            <Time>2022-07-09T08:37:27.000Z</Time>
            <Position>
              <LatitudeDegrees>42.8328463621437549591064453125</LatitudeDegrees>
              <LongitudeDegrees>-0.14163966290652751922607421875</LongitudeDegrees>
            </Position>
            <AltitudeMeters>1721.199951171875</AltitudeMeters>
            <DistanceMeters>4641.9195386444</DistanceMeters>
          </Trackpoint>
          <Trackpoint>
            <Time>2022-07-09T08:37:33.000Z</Time>
            <Position>
              <LatitudeDegrees>42.83277578651905059814453125</LatitudeDegrees>
              <LongitudeDegrees>-0.1416499726474285125732421875</LongitudeDegrees>
            </Position>
            <AltitudeMeters>1721.4000244140625</AltitudeMeters>
            <DistanceMeters>4649.8204827941</DistanceMeters>
          </Trackpoint>
          <Trackpoint>
            <Time>2022-07-09T08:37:37.000Z</Time>
            <Position>
              <LatitudeDegrees>42.83272750675678253173828125</LatitudeDegrees>
              <LongitudeDegrees>-0.1416456140577793121337890625</LongitudeDegrees>
            </Position>
            <AltitudeMeters>1721.800048828125</AltitudeMeters>
            <DistanceMeters>4655.2060751977</DistanceMeters>
          </Trackpoint>
          <Trackpoint>
            <Time>2022-07-09T08:37:43.000Z</Time>
            <Position>
              <LatitudeDegrees>42.832682244479656219482421875</LatitudeDegrees>
              <LongitudeDegrees>-0.14161728322505950927734375</LongitudeDegrees>
            </Position>
            <AltitudeMeters>1722</AltitudeMeters>
            <DistanceMeters>4660.748666655</DistanceMeters>
          </Trackpoint>
          <Trackpoint>
            <Time>2022-07-09T08:37:45.000Z</Time>
            <Position>
              <LatitudeDegrees>42.83266942016780376434326171875</LatitudeDegrees>
              <LongitudeDegrees>-0.14161183498799800872802734375</LongitudeDegrees>
            </Position>
            <AltitudeMeters>1722</AltitudeMeters>
            <DistanceMeters>4662.2421287006</DistanceMeters>
          </Trackpoint>
          <Trackpoint>
            <Time>2022-07-09T08:37:46.000Z</Time>
            <Position>
              <LatitudeDegrees>42.8326589427888393402099609375</LatitudeDegrees>
              <LongitudeDegrees>-0.14161166734993457794189453125</LongitudeDegrees>
            </Position>
            <AltitudeMeters>1722</AltitudeMeters>
            <DistanceMeters>4663.4098365164</DistanceMeters>
          </Trackpoint>
          <Trackpoint>
            <Time>2022-07-09T08:37:51.000Z</Time>
            <Position>
              <LatitudeDegrees>42.8326113335788249969482421875</LatitudeDegrees>
              <LongitudeDegrees>-0.14159272424876689910888671875</LongitudeDegrees>
            </Position>
            <AltitudeMeters>1722.4000244140625</AltitudeMeters>
            <DistanceMeters>4668.9295718291</DistanceMeters>
          </Trackpoint>
          <Trackpoint>
            <Time>2022-07-09T08:37:52.000Z</Time>
            <Position>
              <LatitudeDegrees>42.83259700052440166473388671875</LatitudeDegrees>
              <LongitudeDegrees>-0.14158920384943485260009765625</LongitudeDegrees>
            </Position>
            <AltitudeMeters>1722.5999755859375</AltitudeMeters>
            <DistanceMeters>4670.5478184632</DistanceMeters>
          </Trackpoint>
          <Trackpoint>
            <Time>2022-07-09T08:37:53.000Z</Time>
            <Position>
              <LatitudeDegrees>42.8325831703841686248779296875</LatitudeDegrees>
              <LongitudeDegrees>-0.14159020967781543731689453125</LongitudeDegrees>
            </Position>
            <AltitudeMeters>1722.800048828125</AltitudeMeters>
            <DistanceMeters>4672.0859602083</DistanceMeters>
          </Trackpoint>
          <Trackpoint>
            <Time>2022-07-09T08:37:55.000Z</Time>
            <Position>
              <LatitudeDegrees>42.83255509100854396820068359375</LatitudeDegrees>
              <LongitudeDegrees>-0.14158920384943485260009765625</LongitudeDegrees>
            </Position>
            <AltitudeMeters>1722.800048828125</AltitudeMeters>
            <DistanceMeters>4675.2117469433</DistanceMeters>
          </Trackpoint>
          <Trackpoint>
            <Time>2022-07-09T08:37:56.000Z</Time>
            <Position>
              <LatitudeDegrees>42.83254067413508892059326171875</LatitudeDegrees>
              <LongitudeDegrees>-0.14158601872622966766357421875</LongitudeDegrees>
            </Position>
            <AltitudeMeters>1722.800048828125</AltitudeMeters>
            <DistanceMeters>4676.8383422827</DistanceMeters>
          </Trackpoint>
          <Trackpoint>
            <Time>2022-07-09T08:37:58.000Z</Time>
            <Position>
              <LatitudeDegrees>42.832516618072986602783203125</LatitudeDegrees>
              <LongitudeDegrees>-0.141576044261455535888671875</LongitudeDegrees>
            </Position>
            <AltitudeMeters>1722.800048828125</AltitudeMeters>
            <DistanceMeters>4679.6380041111</DistanceMeters>
          </Trackpoint>
          <Trackpoint>
            <Time>2022-07-09T08:38:01.000Z</Time>
            <Position>
              <LatitudeDegrees>42.8324839286506175994873046875</LatitudeDegrees>
              <LongitudeDegrees>-0.14157042838633060455322265625</LongitudeDegrees>
            </Position>
            <AltitudeMeters>1723</AltitudeMeters>
            <DistanceMeters>4683.3036218965</DistanceMeters>
          </Trackpoint>
          <Trackpoint>
            <Time>2022-07-09T08:38:07.000Z</Time>
            <Position>
              <LatitudeDegrees>42.83240572549402713775634765625</LatitudeDegrees>
              <LongitudeDegrees>-0.1415617950260639190673828125</LongitudeDegrees>
            </Position>
            <AltitudeMeters>1722.800048828125</AltitudeMeters>
            <DistanceMeters>4692.0367785792</DistanceMeters>
          </Trackpoint>
          <Trackpoint>
            <Time>2022-07-09T08:38:11.000Z</Time>
            <Position>
              <LatitudeDegrees>42.8323588706552982330322265625</LatitudeDegrees>
              <LongitudeDegrees>-0.14155567623674869537353515625</LongitudeDegrees>
            </Position>
            <AltitudeMeters>1723.5999755859375</AltitudeMeters>
            <DistanceMeters>4697.2744662596</DistanceMeters>
          </Trackpoint>
          <Trackpoint>
            <Time>2022-07-09T08:38:14.000Z</Time>
            <Position>
              <LatitudeDegrees>42.83232408575713634490966796875</LatitudeDegrees>
              <LongitudeDegrees>-0.14155886135995388031005859375</LongitudeDegrees>
            </Position>
            <AltitudeMeters>1723.800048828125</AltitudeMeters>
            <DistanceMeters>4701.1554670981</DistanceMeters>
          </Trackpoint>
          <Trackpoint>
            <Time>2022-07-09T08:38:20.000Z</Time>
            <Position>
              <LatitudeDegrees>42.8322696872055530548095703125</LatitudeDegrees>
              <LongitudeDegrees>-0.1415436901152133941650390625</LongitudeDegrees>
            </Position>
            <AltitudeMeters>1724</AltitudeMeters>
            <DistanceMeters>4707.3351267393</DistanceMeters>
          </Trackpoint>
          <Trackpoint>
            <Time>2022-07-09T08:38:23.000Z</Time>
            <Position>
              <LatitudeDegrees>42.83223330974578857421875</LatitudeDegrees>
              <LongitudeDegrees>-0.141541175544261932373046875</LongitudeDegrees>
            </Position>
            <AltitudeMeters>1724.199951171875</AltitudeMeters>
            <DistanceMeters>4711.3891049247</DistanceMeters>
          </Trackpoint>
          <Trackpoint>
            <Time>2022-07-09T08:38:29.000Z</Time>
            <Position>
              <LatitudeDegrees>42.83217228949069976806640625</LatitudeDegrees>
              <LongitudeDegrees>-0.14151393435895442962646484375</LongitudeDegrees>
            </Position>
            <AltitudeMeters>1724.199951171875</AltitudeMeters>
            <DistanceMeters>4718.5344567155</DistanceMeters>
          </Trackpoint>
          <Trackpoint>
            <Time>2022-07-09T08:38:30.000Z</Time>
            <Position>
              <LatitudeDegrees>42.83216650597751140594482421875</LatitudeDegrees>
              <LongitudeDegrees>-0.14150622300803661346435546875</LongitudeDegrees>
            </Position>
            <AltitudeMeters>1724.199951171875</AltitudeMeters>
            <DistanceMeters>4719.4359592834</DistanceMeters>
          </Trackpoint>
          <Trackpoint>
            <Time>2022-07-09T08:38:34.000Z</Time>
            <Position>
              <LatitudeDegrees>42.83212602138519287109375</LatitudeDegrees>
              <LongitudeDegrees>-0.14149582944810390472412109375</LongitudeDegrees>
            </Position>
            <AltitudeMeters>1724.5999755859375</AltitudeMeters>
            <DistanceMeters>4724.0219213459</DistanceMeters>
          </Trackpoint>
          <Trackpoint>
            <Time>2022-07-09T08:38:40.000Z</Time>
            <Position>
              <LatitudeDegrees>42.8320712037384510040283203125</LatitudeDegrees>
              <LongitudeDegrees>-0.141502954065799713134765625</LongitudeDegrees>
            </Position>
            <AltitudeMeters>1724.800048828125</AltitudeMeters>
            <DistanceMeters>4730.1509602597</DistanceMeters>
          </Trackpoint>
          <Trackpoint>
            <Time>2022-07-09T08:38:41.000Z</Time>
            <Position>
              <LatitudeDegrees>42.8320631571114063262939453125</LatitudeDegrees>
              <LongitudeDegrees>-0.14150337316095829010009765625</LongitudeDegrees>
            </Position>
            <AltitudeMeters>1725</AltitudeMeters>
            <DistanceMeters>4731.042389857</DistanceMeters>
          </Trackpoint>
          <Trackpoint>
            <Time>2022-07-09T08:38:45.000Z</Time>
            <Position>
              <LatitudeDegrees>42.83200674690306186676025390625</LatitudeDegrees>
              <LongitudeDegrees>-0.14149524271488189697265625</LongitudeDegrees>
            </Position>
            <AltitudeMeters>1725.5999755859375</AltitudeMeters>
            <DistanceMeters>4737.3557690967</DistanceMeters>
          </Trackpoint>
          <Trackpoint>
            <Time>2022-07-09T08:38:49.000Z</Time>
            <Position>
              <LatitudeDegrees>42.83196550793945789337158203125</LatitudeDegrees>
              <LongitudeDegrees>-0.1414917223155498504638671875</LongitudeDegrees>
            </Position>
            <AltitudeMeters>1725.800048828125</AltitudeMeters>
            <DistanceMeters>4741.954512298</DistanceMeters>
          </Trackpoint>
          <Trackpoint>
            <Time>2022-07-09T08:38:53.000Z</Time>
            <Position>
              <LatitudeDegrees>42.8319283761084079742431640625</LatitudeDegrees>
              <LongitudeDegrees>-0.1414897106587886810302734375</LongitudeDegrees>
            </Position>
            <AltitudeMeters>1726</AltitudeMeters>
            <DistanceMeters>4746.0922683248</DistanceMeters>
          </Trackpoint>
          <Trackpoint>
            <Time>2022-07-09T08:38:56.000Z</Time>
            <Position>
              <LatitudeDegrees>42.8318975307047367095947265625</LatitudeDegrees>
              <LongitudeDegrees>-0.14149096794426441192626953125</LongitudeDegrees>
            </Position>
            <AltitudeMeters>1726</AltitudeMeters>
            <DistanceMeters>4749.5264028353</DistanceMeters>
          </Trackpoint>
          <Trackpoint>
            <Time>2022-07-09T08:39:02.000Z</Time>
            <Position>
              <LatitudeDegrees>42.83184883184731006622314453125</LatitudeDegrees>
              <LongitudeDegrees>-0.1415208913385868072509765625</LongitudeDegrees>
            </Position>
            <AltitudeMeters>1726.199951171875</AltitudeMeters>
            <DistanceMeters>4755.4707017111</DistanceMeters>
          </Trackpoint>
          <Trackpoint>
            <Time>2022-07-09T08:39:03.000Z</Time>
            <Position>
              <LatitudeDegrees>42.83183743245899677276611328125</LatitudeDegrees>
              <LongitudeDegrees>-0.14153036288917064666748046875</LongitudeDegrees>
            </Position>
            <AltitudeMeters>1726.199951171875</AltitudeMeters>
            <DistanceMeters>4756.9550664413</DistanceMeters>
          </Trackpoint>
          <Trackpoint>
            <Time>2022-07-09T08:39:08.000Z</Time>
            <Position>
              <LatitudeDegrees>42.8317764960229396820068359375</LatitudeDegrees>
              <LongitudeDegrees>-0.1415631361305713653564453125</LongitudeDegrees>
            </Position>
            <AltitudeMeters>1726.4000244140625</AltitudeMeters>
            <DistanceMeters>4764.245541731</DistanceMeters>
          </Trackpoint>
          <Trackpoint>
            <Time>2022-07-09T08:39:11.000Z</Time>
            <Position>
              <LatitudeDegrees>42.83173349685966968536376953125</LatitudeDegrees>
              <LongitudeDegrees>-0.14157034456729888916015625</LongitudeDegrees>
            </Position>
            <AltitudeMeters>1726.4000244140625</AltitudeMeters>
            <DistanceMeters>4769.0666844137</DistanceMeters>
          </Trackpoint>
          <Trackpoint>
            <Time>2022-07-09T08:39:12.000Z</Time>
            <Position>
              <LatitudeDegrees>42.831724025309085845947265625</LatitudeDegrees>
              <LongitudeDegrees>-0.14157344587147235870361328125</LongitudeDegrees>
            </Position>
            <AltitudeMeters>1726.4000244140625</AltitudeMeters>
            <DistanceMeters>4770.1501556582</DistanceMeters>
          </Trackpoint>
          <Trackpoint>
            <Time>2022-07-09T08:39:18.000Z</Time>
            <Position>
              <LatitudeDegrees>42.83167432062327861785888671875</LatitudeDegrees>
              <LongitudeDegrees>-0.14159314334392547607421875</LongitudeDegrees>
            </Position>
            <AltitudeMeters>1726.5999755859375</AltitudeMeters>
            <DistanceMeters>4775.9116277798</DistanceMeters>
          </Trackpoint>
          <Trackpoint>
            <Time>2022-07-09T08:39:19.000Z</Time>
            <Position>
              <LatitudeDegrees>42.83166241832077503204345703125</LatitudeDegrees>
              <LongitudeDegrees>-0.14159423299133777618408203125</LongitudeDegrees>
            </Position>
            <AltitudeMeters>1726.4000244140625</AltitudeMeters>
            <DistanceMeters>4777.242001781</DistanceMeters>
          </Trackpoint>
          <Trackpoint>
            <Time>2022-07-09T08:39:21.000Z</Time>
            <Position>
              <LatitudeDegrees>42.83163576386868953704833984375</LatitudeDegrees>
              <LongitudeDegrees>-0.14159590937197208404541015625</LongitudeDegrees>
            </Position>
            <AltitudeMeters>1726.5999755859375</AltitudeMeters>
            <DistanceMeters>4780.2122517176</DistanceMeters>
          </Trackpoint>
          <Trackpoint>
            <Time>2022-07-09T08:39:23.000Z</Time>
            <Position>
              <LatitudeDegrees>42.83161983825266361236572265625</LatitudeDegrees>
              <LongitudeDegrees>-0.141604878008365631103515625</LongitudeDegrees>
            </Position>
            <AltitudeMeters>1726.5999755859375</AltitudeMeters>
            <DistanceMeters>4782.1293435549</DistanceMeters>
          </Trackpoint>
          <Trackpoint>
            <Time>2022-07-09T08:39:26.000Z</Time>
            <Position>
              <LatitudeDegrees>42.8315917588770389556884765625</LatitudeDegrees>
              <LongitudeDegrees>-0.14160311780869960784912109375</LongitudeDegrees>
            </Position>
            <AltitudeMeters>1726.4000244140625</AltitudeMeters>
            <DistanceMeters>4785.2580178532</DistanceMeters>
          </Trackpoint>
          <Trackpoint>
            <Time>2022-07-09T08:39:32.000Z</Time>
            <Position>
              <LatitudeDegrees>42.8315293975174427032470703125</LatitudeDegrees>
              <LongitudeDegrees>-0.1416151039302349090576171875</LongitudeDegrees>
            </Position>
            <AltitudeMeters>1726.199951171875</AltitudeMeters>
            <DistanceMeters>4792.2668419954</DistanceMeters>
          </Trackpoint>
          <Trackpoint>
            <Time>2022-07-09T08:39:34.000Z</Time>
            <Position>
              <LatitudeDegrees>42.8315082751214504241943359375</LatitudeDegrees>
              <LongitudeDegrees>-0.14163044281303882598876953125</LongitudeDegrees>
            </Position>
            <AltitudeMeters>1726.4000244140625</AltitudeMeters>
            <DistanceMeters>4794.9309816473</DistanceMeters>
          </Trackpoint>
          <Trackpoint>
            <Time>2022-07-09T08:39:40.000Z</Time>
            <Position>
              <LatitudeDegrees>42.83144717104732990264892578125</LatitudeDegrees>
              <LongitudeDegrees>-0.1416928879916667938232421875</LongitudeDegrees>
            </Position>
            <AltitudeMeters>1726.4000244140625</AltitudeMeters>
            <DistanceMeters>4803.4304293677</DistanceMeters>
          </Trackpoint>
          <Trackpoint>
            <Time>2022-07-09T08:39:42.000Z</Time>
            <Position>
              <LatitudeDegrees>42.831439040601253509521484375</LatitudeDegrees>
              <LongitudeDegrees>-0.14170923270285129547119140625</LongitudeDegrees>
            </Position>
            <AltitudeMeters>1726.4000244140625</AltitudeMeters>
            <DistanceMeters>4805.0430861867</DistanceMeters>
          </Trackpoint>
          <Trackpoint>
            <Time>2022-07-09T08:39:48.000Z</Time>
            <Position>
              <LatitudeDegrees>42.831384055316448211669921875</LatitudeDegrees>
              <LongitudeDegrees>-0.14172716997563838958740234375</LongitudeDegrees>
            </Position>
            <AltitudeMeters>1726.4000244140625</AltitudeMeters>
            <DistanceMeters>4811.3356917842</DistanceMeters>
          </Trackpoint>
          <Trackpoint>
            <Time>2022-07-09T08:39:50.000Z</Time>
            <Position>
              <LatitudeDegrees>42.8313651122152805328369140625</LatitudeDegrees>
              <LongitudeDegrees>-0.1417346298694610595703125</LongitudeDegrees>
            </Position>
            <AltitudeMeters>1726.4000244140625</AltitudeMeters>
            <DistanceMeters>4813.5316109132</DistanceMeters>
          </Trackpoint>
          <Trackpoint>
            <Time>2022-07-09T08:39:51.000Z</Time>
            <Position>
              <LatitudeDegrees>42.83135580830276012420654296875</LatitudeDegrees>
              <LongitudeDegrees>-0.14173739589750766754150390625</LongitudeDegrees>
            </Position>
            <AltitudeMeters>1726.4000244140625</AltitudeMeters>
            <DistanceMeters>4814.5897836208</DistanceMeters>
          </Trackpoint>
          <Trackpoint>
            <Time>2022-07-09T08:39:57.000Z</Time>
            <Position>
              <LatitudeDegrees>42.83132228069007396697998046875</LatitudeDegrees>
              <LongitudeDegrees>-0.14176589436829090118408203125</LongitudeDegrees>
            </Position>
            <AltitudeMeters>1726.5999755859375</AltitudeMeters>
            <DistanceMeters>4818.9877858654</DistanceMeters>
          </Trackpoint>
          <Trackpoint>
            <Time>2022-07-09T08:39:58.000Z</Time>
            <Position>
              <LatitudeDegrees>42.83131624571979045867919921875</LatitudeDegrees>
              <LongitudeDegrees>-0.1417700015008449554443359375</LongitudeDegrees>
            </Position>
            <AltitudeMeters>1726.5999755859375</AltitudeMeters>
            <DistanceMeters>4819.7360269625</DistanceMeters>
          </Trackpoint>
          <Trackpoint>
            <Time>2022-07-09T08:40:04.000Z</Time>
            <Position>
              <LatitudeDegrees>42.83125589601695537567138671875</LatitudeDegrees>
              <LongitudeDegrees>-0.14177327044308185577392578125</LongitudeDegrees>
            </Position>
            <AltitudeMeters>1726</AltitudeMeters>
            <DistanceMeters>4826.4581175991</DistanceMeters>
          </Trackpoint>
          <Trackpoint>
            <Time>2022-07-09T08:40:07.000Z</Time>
            <Position>
              <LatitudeDegrees>42.8312273137271404266357421875</LatitudeDegrees>
              <LongitudeDegrees>-0.1417787186801433563232421875</LongitudeDegrees>
            </Position>
            <AltitudeMeters>1726</AltitudeMeters>
            <DistanceMeters>4829.6694019681</DistanceMeters>
          </Trackpoint>
          <Trackpoint>
            <Time>2022-07-09T08:40:11.000Z</Time>
            <Position>
              <LatitudeDegrees>42.8311860747635364532470703125</LatitudeDegrees>
              <LongitudeDegrees>-0.1417803950607776641845703125</LongitudeDegrees>
            </Position>
            <AltitudeMeters>1726</AltitudeMeters>
            <DistanceMeters>4834.2622506019</DistanceMeters>
          </Trackpoint>
          <Trackpoint>
            <Time>2022-07-09T08:40:13.000Z</Time>
            <Position>
              <LatitudeDegrees>42.83116512000560760498046875</LatitudeDegrees>
              <LongitudeDegrees>-0.1417763717472553253173828125</LongitudeDegrees>
            </Position>
            <AltitudeMeters>1726</AltitudeMeters>
            <DistanceMeters>4836.6169197797</DistanceMeters>
          </Trackpoint>
          <Trackpoint>
            <Time>2022-07-09T08:40:19.000Z</Time>
            <Position>
              <LatitudeDegrees>42.8310878388583660125732421875</LatitudeDegrees>
              <LongitudeDegrees>-0.14179104007780551910400390625</LongitudeDegrees>
            </Position>
            <AltitudeMeters>1726.5999755859375</AltitudeMeters>
            <DistanceMeters>4845.3013425273</DistanceMeters>
          </Trackpoint>
          <Trackpoint>
            <Time>2022-07-09T08:40:21.000Z</Time>
            <Position>
              <LatitudeDegrees>42.831059508025646209716796875</LatitudeDegrees>
              <LongitudeDegrees>-0.1417981646955013275146484375</LongitudeDegrees>
            </Position>
            <AltitudeMeters>1726.5999755859375</AltitudeMeters>
            <DistanceMeters>4848.5069979975</DistanceMeters>
          </Trackpoint>
          <Trackpoint>
            <Time>2022-07-09T08:40:27.000Z</Time>
            <Position>
              <LatitudeDegrees>42.83102321438491344451904296875</LatitudeDegrees>
              <LongitudeDegrees>-0.1417673192918300628662109375</LongitudeDegrees>
            </Position>
            <AltitudeMeters>1726.800048828125</AltitudeMeters>
            <DistanceMeters>4853.2668784369</DistanceMeters>
          </Trackpoint>
          <Trackpoint>
            <Time>2022-07-09T08:40:30.000Z</Time>
            <Position>
              <LatitudeDegrees>42.8310006670653820037841796875</LatitudeDegrees>
              <LongitudeDegrees>-0.14176472090184688568115234375</LongitudeDegrees>
            </Position>
            <AltitudeMeters>1727</AltitudeMeters>
            <DistanceMeters>4855.7846380886</DistanceMeters>
          </Trackpoint>
          <Trackpoint>
            <Time>2022-07-09T08:40:34.000Z</Time>
            <Position>
              <LatitudeDegrees>42.83095381222665309906005859375</LatitudeDegrees>
              <LongitudeDegrees>-0.14177746139466762542724609375</LongitudeDegrees>
            </Position>
            <AltitudeMeters>1727.4000244140625</AltitudeMeters>
            <DistanceMeters>4861.1027391992</DistanceMeters>
          </Trackpoint>
          <Trackpoint>
            <Time>2022-07-09T08:40:36.000Z</Time>
            <Position>
              <LatitudeDegrees>42.830948866903781890869140625</LatitudeDegrees>
              <LongitudeDegrees>-0.1417773775756359100341796875</LongitudeDegrees>
            </Position>
            <AltitudeMeters>1727.5999755859375</AltitudeMeters>
            <DistanceMeters>4861.648626113</DistanceMeters>
          </Trackpoint>
          <Trackpoint>
            <Time>2022-07-09T08:40:40.000Z</Time>
            <Position>
              <LatitudeDegrees>42.83093445003032684326171875</LatitudeDegrees>
              <LongitudeDegrees>-0.14175063930451869964599609375</LongitudeDegrees>
            </Position>
            <AltitudeMeters>1727.5999755859375</AltitudeMeters>
            <DistanceMeters>4864.3581375355</DistanceMeters>
          </Trackpoint>
          <Trackpoint>
            <Time>2022-07-09T08:40:46.000Z</Time>
            <Position>
              <LatitudeDegrees>42.8308930434286594390869140625</LatitudeDegrees>
              <LongitudeDegrees>-0.14175751246511936187744140625</LongitudeDegrees>
            </Position>
            <AltitudeMeters>1727.800048828125</AltitudeMeters>
            <DistanceMeters>4868.9998788462</DistanceMeters>
          </Trackpoint>
          <Trackpoint>
            <Time>2022-07-09T08:40:49.000Z</Time>
            <Position>
              <LatitudeDegrees>42.830835878849029541015625</LatitudeDegrees>
              <LongitudeDegrees>-0.1417666487395763397216796875</LongitudeDegrees>
            </Position>
            <AltitudeMeters>1727.5999755859375</AltitudeMeters>
            <DistanceMeters>4875.4069630125</DistanceMeters>
          </Trackpoint>
          <Trackpoint>
            <Time>2022-07-09T08:40:52.000Z</Time>
            <Position>
              <LatitudeDegrees>42.83078558743000030517578125</LatitudeDegrees>
              <LongitudeDegrees>-0.14177595265209674835205078125</LongitudeDegrees>
            </Position>
            <AltitudeMeters>1727.5999755859375</AltitudeMeters>
            <DistanceMeters>4881.056059414</DistanceMeters>
          </Trackpoint>
          <Trackpoint>
            <Time>2022-07-09T08:40:58.000Z</Time>
            <Position>
              <LatitudeDegrees>42.83073537983000278472900390625</LatitudeDegrees>
              <LongitudeDegrees>-0.141761787235736846923828125</LongitudeDegrees>
            </Position>
            <AltitudeMeters>1727.4000244140625</AltitudeMeters>
            <DistanceMeters>4886.7624116338</DistanceMeters>
          </Trackpoint>
          <Trackpoint>
            <Time>2022-07-09T08:41:00.000Z</Time>
            <Position>
              <LatitudeDegrees>42.83072448335587978363037109375</LatitudeDegrees>
              <LongitudeDegrees>-0.141758434474468231201171875</LongitudeDegrees>
            </Position>
            <AltitudeMeters>1727.5999755859375</AltitudeMeters>
            <DistanceMeters>4888.0014084036</DistanceMeters>
          </Trackpoint>
          <Trackpoint>
            <Time>2022-07-09T08:41:03.000Z</Time>
            <Position>
              <LatitudeDegrees>42.8307230584323406219482421875</LatitudeDegrees>
              <LongitudeDegrees>-0.1417472027242183685302734375</LongitudeDegrees>
            </Position>
            <AltitudeMeters>1727.5999755859375</AltitudeMeters>
            <DistanceMeters>4888.9324762521</DistanceMeters>
          </Trackpoint>
          <Trackpoint>
            <Time>2022-07-09T08:41:04.000Z</Time>
            <Position>
              <LatitudeDegrees>42.830720879137516021728515625</LatitudeDegrees>
              <LongitudeDegrees>-0.14174602925777435302734375</LongitudeDegrees>
            </Position>
            <AltitudeMeters>1727.5999755859375</AltitudeMeters>
            <DistanceMeters>4889.1838933063</DistanceMeters>
          </Trackpoint>
          <Trackpoint>
            <Time>2022-07-09T08:41:05.000Z</Time>
            <Position>
              <LatitudeDegrees>42.83071844838559627532958984375</LatitudeDegrees>
              <LongitudeDegrees>-0.1417441852390766143798828125</LongitudeDegrees>
            </Position>
            <AltitudeMeters>1727.5999755859375</AltitudeMeters>
            <DistanceMeters>4889.4990612629</DistanceMeters>
          </Trackpoint>
          <Trackpoint>
            <Time>2022-07-09T08:41:07.000Z</Time>
            <Position>
              <LatitudeDegrees>42.83070201985538005828857421875</LatitudeDegrees>
              <LongitudeDegrees>-0.1417468674480915069580078125</LongitudeDegrees>
            </Position>
            <AltitudeMeters>1727.5999755859375</AltitudeMeters>
            <DistanceMeters>4891.3416976196</DistanceMeters>
          </Trackpoint>
          <Trackpoint>
            <Time>2022-07-09T08:41:12.000Z</Time>
            <Position>
              <LatitudeDegrees>42.83063672482967376708984375</LatitudeDegrees>
              <LongitudeDegrees>-0.14176547527313232421875</LongitudeDegrees>
            </Position>
            <AltitudeMeters>1727</AltitudeMeters>
            <DistanceMeters>4898.7659542567</DistanceMeters>
          </Trackpoint>
          <Trackpoint>
            <Time>2022-07-09T08:41:15.000Z</Time>
            <Position>
              <LatitudeDegrees>42.83061015419661998748779296875</LatitudeDegrees>
              <LongitudeDegrees>-0.14176824130117893218994140625</LongitudeDegrees>
            </Position>
            <AltitudeMeters>1726.800048828125</AltitudeMeters>
            <DistanceMeters>4901.7316404263</DistanceMeters>
          </Trackpoint>
          <Trackpoint>
            <Time>2022-07-09T08:41:18.000Z</Time>
            <Position>
              <LatitudeDegrees>42.83057369291782379150390625</LatitudeDegrees>
              <LongitudeDegrees>-0.14176589436829090118408203125</LongitudeDegrees>
            </Position>
            <AltitudeMeters>1727.199951171875</AltitudeMeters>
            <DistanceMeters>4905.7956298229</DistanceMeters>
          </Trackpoint>
          <Trackpoint>
            <Time>2022-07-09T08:41:24.000Z</Time>
            <Position>
              <LatitudeDegrees>42.83049548976123332977294921875</LatitudeDegrees>
              <LongitudeDegrees>-0.14175231568515300750732421875</LongitudeDegrees>
            </Position>
            <AltitudeMeters>1727.5999755859375</AltitudeMeters>
            <DistanceMeters>4914.5700489924</DistanceMeters>
          </Trackpoint>
          <Trackpoint>
            <Time>2022-07-09T08:41:30.000Z</Time>
            <Position>
              <LatitudeDegrees>42.8304457850754261016845703125</LatitudeDegrees>
              <LongitudeDegrees>-0.1417441852390766143798828125</LongitudeDegrees>
            </Position>
            <AltitudeMeters>1727.800048828125</AltitudeMeters>
            <DistanceMeters>4920.1418891565</DistanceMeters>
          </Trackpoint>
          <Trackpoint>
            <Time>2022-07-09T08:41:36.000Z</Time>
            <Position>
              <LatitudeDegrees>42.83040865324437618255615234375</LatitudeDegrees>
              <LongitudeDegrees>-0.1417089812457561492919921875</LongitudeDegrees>
            </Position>
            <AltitudeMeters>1728</AltitudeMeters>
            <DistanceMeters>4925.1747178268</DistanceMeters>
          </Trackpoint>
          <Trackpoint>
            <Time>2022-07-09T08:41:40.000Z</Time>
            <Position>
              <LatitudeDegrees>42.8303572721779346466064453125</LatitudeDegrees>
              <LongitudeDegrees>-0.141699425876140594482421875</LongitudeDegrees>
            </Position>
            <AltitudeMeters>1728</AltitudeMeters>
            <DistanceMeters>4930.9471507695</DistanceMeters>
          </Trackpoint>
          <Trackpoint>
            <Time>2022-07-09T08:41:44.000Z</Time>
            <Position>
              <LatitudeDegrees>42.8303096629679203033447265625</LatitudeDegrees>
              <LongitudeDegrees>-0.1416804827749729156494140625</LongitudeDegrees>
            </Position>
            <AltitudeMeters>1727.800048828125</AltitudeMeters>
            <DistanceMeters>4936.4668860822</DistanceMeters>
          </Trackpoint>
          <Trackpoint>
            <Time>2022-07-09T08:41:48.000Z</Time>
            <Position>
              <LatitudeDegrees>42.83026389777660369873046875</LatitudeDegrees>
              <LongitudeDegrees>-0.14167067594826221466064453125</LongitudeDegrees>
            </Position>
            <AltitudeMeters>1727.5999755859375</AltitudeMeters>
            <DistanceMeters>4941.6229063548</DistanceMeters>
          </Trackpoint>
          <Trackpoint>
            <Time>2022-07-09T08:41:51.000Z</Time>
            <Position>
              <LatitudeDegrees>42.83023037016391754150390625</LatitudeDegrees>
              <LongitudeDegrees>-0.14169104397296905517578125</LongitudeDegrees>
            </Position>
            <AltitudeMeters>1727.800048828125</AltitudeMeters>
            <DistanceMeters>4945.7079499614</DistanceMeters>
          </Trackpoint>
          <Trackpoint>
            <Time>2022-07-09T08:41:57.000Z</Time>
            <Position>
              <LatitudeDegrees>42.83016138710081577301025390625</LatitudeDegrees>
              <LongitudeDegrees>-0.14168458990752696990966796875</LongitudeDegrees>
            </Position>
            <AltitudeMeters>1728.199951171875</AltitudeMeters>
            <DistanceMeters>4953.4039405667</DistanceMeters>
          </Trackpoint>
          <Trackpoint>
            <Time>2022-07-09T08:42:01.000Z</Time>
            <Position>
              <LatitudeDegrees>42.8301051445305347442626953125</LatitudeDegrees>
              <LongitudeDegrees>-0.141685009002685546875</LongitudeDegrees>
            </Position>
            <AltitudeMeters>1728.5999755859375</AltitudeMeters>
            <DistanceMeters>4959.6634534623</DistanceMeters>
          </Trackpoint>
          <Trackpoint>
            <Time>2022-07-09T08:42:02.000Z</Time>
            <Position>
              <LatitudeDegrees>42.8300954215228557586669921875</LatitudeDegrees>
              <LongitudeDegrees>-0.141682326793670654296875</LongitudeDegrees>
            </Position>
            <AltitudeMeters>1728.5999755859375</AltitudeMeters>
            <DistanceMeters>4960.7634672092</DistanceMeters>
          </Trackpoint>
          <Trackpoint>
            <Time>2022-07-09T08:42:04.000Z</Time>
            <Position>
              <LatitudeDegrees>42.8300833515822887420654296875</LatitudeDegrees>
              <LongitudeDegrees>-0.1416791416704654693603515625</LongitudeDegrees>
            </Position>
            <AltitudeMeters>1728.800048828125</AltitudeMeters>
            <DistanceMeters>4962.133961974</DistanceMeters>
          </Trackpoint>
          <Trackpoint>
            <Time>2022-07-09T08:42:10.000Z</Time>
            <Position>
              <LatitudeDegrees>42.83007807098329067230224609375</LatitudeDegrees>
              <LongitudeDegrees>-0.14162843115627765655517578125</LongitudeDegrees>
            </Position>
            <AltitudeMeters>1728.800048828125</AltitudeMeters>
            <DistanceMeters>4966.3129771502</DistanceMeters>
          </Trackpoint>
          <Trackpoint>
            <Time>2022-07-09T08:42:12.000Z</Time>
            <Position>
              <LatitudeDegrees>42.83007991500198841094970703125</LatitudeDegrees>
              <LongitudeDegrees>-0.141591131687164306640625</LongitudeDegrees>
            </Position>
            <AltitudeMeters>1728.4000244140625</AltitudeMeters>
            <DistanceMeters>4969.364207855</DistanceMeters>
          </Trackpoint>
          <Trackpoint>
            <Time>2022-07-09T08:42:16.000Z</Time>
            <Position>
              <LatitudeDegrees>42.830083183944225311279296875</LatitudeDegrees>
              <LongitudeDegrees>-0.14153874479234218597412109375</LongitudeDegrees>
            </Position>
            <AltitudeMeters>1728</AltitudeMeters>
            <DistanceMeters>4973.6562185662</DistanceMeters>
          </Trackpoint>
          <Trackpoint>
            <Time>2022-07-09T08:42:18.000Z</Time>
            <Position>
              <LatitudeDegrees>42.8300813399255275726318359375</LatitudeDegrees>
              <LongitudeDegrees>-0.14152365736663341522216796875</LongitudeDegrees>
            </Position>
            <AltitudeMeters>1727.800048828125</AltitudeMeters>
            <DistanceMeters>4974.9024822415</DistanceMeters>
          </Trackpoint>
          <Trackpoint>
            <Time>2022-07-09T08:42:19.000Z</Time>
            <Position>
              <LatitudeDegrees>42.8300722874701023101806640625</LatitudeDegrees>
              <LongitudeDegrees>-0.1415185444056987762451171875</LongitudeDegrees>
            </Position>
            <AltitudeMeters>1727.5999755859375</AltitudeMeters>
            <DistanceMeters>4975.9942560691</DistanceMeters>
          </Trackpoint>
          <Trackpoint>
            <Time>2022-07-09T08:42:20.000Z</Time>
            <Position>
              <LatitudeDegrees>42.8300608880817890167236328125</LatitudeDegrees>
              <LongitudeDegrees>-0.1415145210921764373779296875</LongitudeDegrees>
            </Position>
            <AltitudeMeters>1727.5999755859375</AltitudeMeters>
            <DistanceMeters>4977.3041089328</DistanceMeters>
          </Trackpoint>
          <Trackpoint>
            <Time>2022-07-09T08:42:21.000Z</Time>
            <Position>
              <LatitudeDegrees>42.8300454653799533843994140625</LatitudeDegrees>
              <LongitudeDegrees>-0.14151225797832012176513671875</LongitudeDegrees>
            </Position>
            <AltitudeMeters>1727.5999755859375</AltitudeMeters>
            <DistanceMeters>4979.0303549252</DistanceMeters>
          </Trackpoint>
          <Trackpoint>
            <Time>2022-07-09T08:42:25.000Z</Time>
            <Position>
              <LatitudeDegrees>42.82998972572386264801025390625</LatitudeDegrees>
              <LongitudeDegrees>-0.14151276089251041412353515625</LongitudeDegrees>
            </Position>
            <AltitudeMeters>1727.4000244140625</AltitudeMeters>
            <DistanceMeters>4985.2348062209</DistanceMeters>
          </Trackpoint>
          <Trackpoint>
            <Time>2022-07-09T08:42:31.000Z</Time>
            <Position>
              <LatitudeDegrees>42.8299274481832981109619140625</LatitudeDegrees>
              <LongitudeDegrees>-0.14153354801237583160400390625</LongitudeDegrees>
            </Position>
            <AltitudeMeters>1727.199951171875</AltitudeMeters>
            <DistanceMeters>4992.3713061434</DistanceMeters>
          </Trackpoint>
          <Trackpoint>
            <Time>2022-07-09T08:42:32.000Z</Time>
            <Position>
              <LatitudeDegrees>42.82992132939398288726806640625</LatitudeDegrees>
              <LongitudeDegrees>-0.1415336318314075469970703125</LongitudeDegrees>
            </Position>
            <AltitudeMeters>1727</AltitudeMeters>
            <DistanceMeters>4993.0565535258</DistanceMeters>
          </Trackpoint>
          <Trackpoint>
            <Time>2022-07-09T08:42:36.000Z</Time>
            <Position>
              <LatitudeDegrees>42.82992015592753887176513671875</LatitudeDegrees>
              <LongitudeDegrees>-0.141514353454113006591796875</LongitudeDegrees>
            </Position>
            <AltitudeMeters>1726.800048828125</AltitudeMeters>
            <DistanceMeters>4994.6323933089</DistanceMeters>
          </Trackpoint>
          <Trackpoint>
            <Time>2022-07-09T08:42:38.000Z</Time>
            <Position>
              <LatitudeDegrees>42.8299334831535816192626953125</LatitudeDegrees>
              <LongitudeDegrees>-0.14148912392556667327880859375</LongitudeDegrees>
            </Position>
            <AltitudeMeters>1726.5999755859375</AltitudeMeters>
            <DistanceMeters>4997.169802323</DistanceMeters>
          </Trackpoint>
          <Trackpoint>
            <Time>2022-07-09T08:42:44.000Z</Time>
            <Position>
              <LatitudeDegrees>42.82988570630550384521484375</LatitudeDegrees>
              <LongitudeDegrees>-0.14146263711154460906982421875</LongitudeDegrees>
            </Position>
            <AltitudeMeters>1726.5999755859375</AltitudeMeters>
            <DistanceMeters>5002.9092900064</DistanceMeters>
          </Trackpoint>
          <Trackpoint>
            <Time>2022-07-09T08:42:45.000Z</Time>
            <Position>
              <LatitudeDegrees>42.82987455837428569793701171875</LatitudeDegrees>
              <LongitudeDegrees>-0.14146213419735431671142578125</LongitudeDegrees>
            </Position>
            <AltitudeMeters>1726.800048828125</AltitudeMeters>
            <DistanceMeters>5004.1482867761</DistanceMeters>
          </Trackpoint>
          <Trackpoint>
            <Time>2022-07-09T08:42:51.000Z</Time>
            <Position>
              <LatitudeDegrees>42.82978353090584278106689453125</LatitudeDegrees>
              <LongitudeDegrees>-0.1414776407182216644287109375</LongitudeDegrees>
            </Position>
            <AltitudeMeters>1727</AltitudeMeters>
            <DistanceMeters>5014.3582428225</DistanceMeters>
          </Trackpoint>
          <Trackpoint>
            <Time>2022-07-09T08:42:57.000Z</Time>
            <Position>
              <LatitudeDegrees>42.829755954444408416748046875</LatitudeDegrees>
              <LongitudeDegrees>-0.14144486747682094573974609375</LongitudeDegrees>
            </Position>
            <AltitudeMeters>1726.800048828125</AltitudeMeters>
            <DistanceMeters>5018.4300016993</DistanceMeters>
          </Trackpoint>
          <Trackpoint>
            <Time>2022-07-09T08:42:58.000Z</Time>
            <Position>
              <LatitudeDegrees>42.829753942787647247314453125</LatitudeDegrees>
              <LongitudeDegrees>-0.141449980437755584716796875</LongitudeDegrees>
            </Position>
            <AltitudeMeters>1726.800048828125</AltitudeMeters>
            <DistanceMeters>5018.8955356236</DistanceMeters>
          </Trackpoint>
          <Trackpoint>
            <Time>2022-07-09T08:43:01.000Z</Time>
            <Position>
              <LatitudeDegrees>42.82972955144941806793212890625</LatitudeDegrees>
              <LongitudeDegrees>-0.14146280474960803985595703125</LongitudeDegrees>
            </Position>
            <AltitudeMeters>1727.199951171875</AltitudeMeters>
            <DistanceMeters>5021.8058984368</DistanceMeters>
          </Trackpoint>
          <Trackpoint>
            <Time>2022-07-09T08:43:04.000Z</Time>
            <Position>
              <LatitudeDegrees>42.8296954371035099029541015625</LatitudeDegrees>
              <LongitudeDegrees>-0.14145207591354846954345703125</LongitudeDegrees>
            </Position>
            <AltitudeMeters>1727.199951171875</AltitudeMeters>
            <DistanceMeters>5025.703152416</DistanceMeters>
          </Trackpoint>
          <Trackpoint>
            <Time>2022-07-09T08:43:05.000Z</Time>
            <Position>
              <LatitudeDegrees>42.8296863846480846405029296875</LatitudeDegrees>
              <LongitudeDegrees>-0.14144704677164554595947265625</LongitudeDegrees>
            </Position>
            <AltitudeMeters>1727</AltitudeMeters>
            <DistanceMeters>5026.7866236606</DistanceMeters>
          </Trackpoint>
          <Trackpoint>
            <Time>2022-07-09T08:43:11.000Z</Time>
            <Position>
              <LatitudeDegrees>42.8296615742146968841552734375</LatitudeDegrees>
              <LongitudeDegrees>-0.1413713581860065460205078125</LongitudeDegrees>
            </Position>
            <AltitudeMeters>1727</AltitudeMeters>
            <DistanceMeters>5033.5542338535</DistanceMeters>
          </Trackpoint>
          <Trackpoint>
            <Time>2022-07-09T08:43:12.000Z</Time>
            <Position>
              <LatitudeDegrees>42.8296521864831447601318359375</LatitudeDegrees>
              <LongitudeDegrees>-0.141362138092517852783203125</LongitudeDegrees>
            </Position>
            <AltitudeMeters>1727</AltitudeMeters>
            <DistanceMeters>5034.8432389217</DistanceMeters>
          </Trackpoint>
          <Trackpoint>
            <Time>2022-07-09T08:43:16.000Z</Time>
            <Position>
              <LatitudeDegrees>42.8295972011983394622802734375</LatitudeDegrees>
              <LongitudeDegrees>-0.1413609646260738372802734375</LongitudeDegrees>
            </Position>
            <AltitudeMeters>1727.199951171875</AltitudeMeters>
            <DistanceMeters>5040.964169175</DistanceMeters>
          </Trackpoint>
          <Trackpoint>
            <Time>2022-07-09T08:43:17.000Z</Time>
            <Position>
              <LatitudeDegrees>42.82959066331386566162109375</LatitudeDegrees>
              <LongitudeDegrees>-0.1413576118648052215576171875</LongitudeDegrees>
            </Position>
            <AltitudeMeters>1727.199951171875</AltitudeMeters>
            <DistanceMeters>5041.736169852</DistanceMeters>
          </Trackpoint>
          <Trackpoint>
            <Time>2022-07-09T08:43:19.000Z</Time>
            <Position>
              <LatitudeDegrees>42.8295821137726306915283203125</LatitudeDegrees>
              <LongitudeDegrees>-0.14134235680103302001953125</LongitudeDegrees>
            </Position>
            <AltitudeMeters>1727.199951171875</AltitudeMeters>
            <DistanceMeters>5043.3005070012</DistanceMeters>
          </Trackpoint>
          <Trackpoint>
            <Time>2022-07-09T08:43:20.000Z</Time>
            <Position>
              <LatitudeDegrees>42.82957884483039379119873046875</LatitudeDegrees>
              <LongitudeDegrees>-0.141331292688846588134765625</LongitudeDegrees>
            </Position>
            <AltitudeMeters>1727.199951171875</AltitudeMeters>
            <DistanceMeters>5044.2742410648</DistanceMeters>
          </Trackpoint>
          <Trackpoint>
            <Time>2022-07-09T08:43:21.000Z</Time>
            <Position>
              <LatitudeDegrees>42.8295733965933322906494140625</LatitudeDegrees>
              <LongitudeDegrees>-0.14132366515696048736572265625</LongitudeDegrees>
            </Position>
            <AltitudeMeters>1727.199951171875</AltitudeMeters>
            <DistanceMeters>5045.1451752881</DistanceMeters>
          </Trackpoint>
          <Trackpoint>
            <Time>2022-07-09T08:43:22.000Z</Time>
            <Position>
              <LatitudeDegrees>42.829564511775970458984375</LatitudeDegrees>
              <LongitudeDegrees>-0.14131528325378894805908203125</LongitudeDegrees>
            </Position>
            <AltitudeMeters>1727.199951171875</AltitudeMeters>
            <DistanceMeters>5046.3471787119</DistanceMeters>
          </Trackpoint>
          <Trackpoint>
            <Time>2022-07-09T08:43:24.000Z</Time>
            <Position>
              <LatitudeDegrees>42.82954548485577106475830078125</LatitudeDegrees>
              <LongitudeDegrees>-0.14130539260804653167724609375</LongitudeDegrees>
            </Position>
            <AltitudeMeters>1727</AltitudeMeters>
            <DistanceMeters>5048.6119266935</DistanceMeters>
          </Trackpoint>
          <Trackpoint>
            <Time>2022-07-09T08:43:29.000Z</Time>
            <Position>
              <LatitudeDegrees>42.82950206659734249114990234375</LatitudeDegrees>
              <LongitudeDegrees>-0.141273625195026397705078125</LongitudeDegrees>
            </Position>
            <AltitudeMeters>1726.800048828125</AltitudeMeters>
            <DistanceMeters>5054.0955527346</DistanceMeters>
          </Trackpoint>
          <Trackpoint>
            <Time>2022-07-09T08:43:33.000Z</Time>
            <Position>
              <LatitudeDegrees>42.829484380781650543212890625</LatitudeDegrees>
              <LongitudeDegrees>-0.14125325717031955718994140625</LongitudeDegrees>
            </Position>
            <AltitudeMeters>1726.800048828125</AltitudeMeters>
            <DistanceMeters>5056.6735628709</DistanceMeters>
          </Trackpoint>
          <Trackpoint>
            <Time>2022-07-09T08:43:35.000Z</Time>
            <Position>
              <LatitudeDegrees>42.82946233637630939483642578125</LatitudeDegrees>
              <LongitudeDegrees>-0.14125627465546131134033203125</LongitudeDegrees>
            </Position>
            <AltitudeMeters>1726.5999755859375</AltitudeMeters>
            <DistanceMeters>5059.1369368519</DistanceMeters>
          </Trackpoint>
          <Trackpoint>
            <Time>2022-07-09T08:43:40.000Z</Time>
            <Position>
              <LatitudeDegrees>42.82944607548415660858154296875</LatitudeDegrees>
              <LongitudeDegrees>-0.14123640954494476318359375</LongitudeDegrees>
            </Position>
            <AltitudeMeters>1726.199951171875</AltitudeMeters>
            <DistanceMeters>5061.5652366518</DistanceMeters>
          </Trackpoint>
          <Trackpoint>
            <Time>2022-07-09T08:43:46.000Z</Time>
            <Position>
              <LatitudeDegrees>42.82941372133791446685791015625</LatitudeDegrees>
              <LongitudeDegrees>-0.1412271894514560699462890625</LongitudeDegrees>
            </Position>
            <AltitudeMeters>1726.199951171875</AltitudeMeters>
            <DistanceMeters>5065.2443784796</DistanceMeters>
          </Trackpoint>
          <Trackpoint>
            <Time>2022-07-09T08:43:47.000Z</Time>
            <Position>
              <LatitudeDegrees>42.8294091112911701202392578125</LatitudeDegrees>
              <LongitudeDegrees>-0.14123029075562953948974609375</LongitudeDegrees>
            </Position>
            <AltitudeMeters>1726.4000244140625</AltitudeMeters>
            <DistanceMeters>5065.8145387658</DistanceMeters>
          </Trackpoint>
          <Trackpoint>
            <Time>2022-07-09T08:43:52.000Z</Time>
            <Position>
              <LatitudeDegrees>42.8293755836784839630126953125</LatitudeDegrees>
              <LongitudeDegrees>-0.1412318833172321319580078125</LongitudeDegrees>
            </Position>
            <AltitudeMeters>1726.5999755859375</AltitudeMeters>
            <DistanceMeters>5069.5484961879</DistanceMeters>
          </Trackpoint>
          <Trackpoint>
            <Time>2022-07-09T08:43:54.000Z</Time>
            <Position>
              <LatitudeDegrees>42.82934431917965412139892578125</LatitudeDegrees>
              <LongitudeDegrees>-0.14122542925179004669189453125</LongitudeDegrees>
            </Position>
            <AltitudeMeters>1726.800048828125</AltitudeMeters>
            <DistanceMeters>5073.0683349457</DistanceMeters>
          </Trackpoint>
          <Trackpoint>
            <Time>2022-07-09T08:44:00.000Z</Time>
            <Position>
              <LatitudeDegrees>42.82928816042840480804443359375</LatitudeDegrees>
              <LongitudeDegrees>-0.1412395946681499481201171875</LongitudeDegrees>
            </Position>
            <AltitudeMeters>1726.4000244140625</AltitudeMeters>
            <DistanceMeters>5079.4244785887</DistanceMeters>
          </Trackpoint>
          <Trackpoint>
            <Time>2022-07-09T08:44:01.000Z</Time>
            <Position>
              <LatitudeDegrees>42.8292750008404254913330078125</LatitudeDegrees>
              <LongitudeDegrees>-0.14124034903943538665771484375</LongitudeDegrees>
            </Position>
            <AltitudeMeters>1726.4000244140625</AltitudeMeters>
            <DistanceMeters>5080.8904793368</DistanceMeters>
          </Trackpoint>
          <Trackpoint>
            <Time>2022-07-09T08:44:07.000Z</Time>
            <Position>
              <LatitudeDegrees>42.82921289093792438507080078125</LatitudeDegrees>
              <LongitudeDegrees>-0.14120749197900295257568359375</LongitudeDegrees>
            </Position>
            <AltitudeMeters>1726</AltitudeMeters>
            <DistanceMeters>5088.3056081602</DistanceMeters>
          </Trackpoint>
          <Trackpoint>
            <Time>2022-07-09T08:44:09.000Z</Time>
            <Position>
              <LatitudeDegrees>42.8292037546634674072265625</LatitudeDegrees>
              <LongitudeDegrees>-0.1411973498761653900146484375</LongitudeDegrees>
            </Position>
            <AltitudeMeters>1726</AltitudeMeters>
            <DistanceMeters>5089.6154610238</DistanceMeters>
          </Trackpoint>
          <Trackpoint>
            <Time>2022-07-09T08:44:11.000Z</Time>
            <Position>
              <LatitudeDegrees>42.82919378019869327545166015625</LatitudeDegrees>
              <LongitudeDegrees>-0.14118469320237636566162109375</LongitudeDegrees>
            </Position>
            <AltitudeMeters>1725.800048828125</AltitudeMeters>
            <DistanceMeters>5091.1299376386</DistanceMeters>
          </Trackpoint>
          <Trackpoint>
            <Time>2022-07-09T08:44:13.000Z</Time>
            <Position>
              <LatitudeDegrees>42.82917282544076442718505859375</LatitudeDegrees>
              <LongitudeDegrees>-0.14116994105279445648193359375</LongitudeDegrees>
            </Position>
            <AltitudeMeters>1726</AltitudeMeters>
            <DistanceMeters>5093.7530880823</DistanceMeters>
          </Trackpoint>
          <Trackpoint>
            <Time>2022-07-09T08:44:16.000Z</Time>
            <Position>
              <LatitudeDegrees>42.82915103249251842498779296875</LatitudeDegrees>
              <LongitudeDegrees>-0.14114228077232837677001953125</LongitudeDegrees>
            </Position>
            <AltitudeMeters>1726</AltitudeMeters>
            <DistanceMeters>5097.0667828413</DistanceMeters>
          </Trackpoint>
          <Trackpoint>
            <Time>2022-07-09T08:44:20.000Z</Time>
            <Position>
              <LatitudeDegrees>42.829136364161968231201171875</LatitudeDegrees>
              <LongitudeDegrees>-0.14109869487583637237548828125</LongitudeDegrees>
            </Position>
            <AltitudeMeters>1725.800048828125</AltitudeMeters>
            <DistanceMeters>5100.9825292328</DistanceMeters>
          </Trackpoint>
          <Trackpoint>
            <Time>2022-07-09T08:44:21.000Z</Time>
            <Position>
              <LatitudeDegrees>42.82912236638367176055908203125</LatitudeDegrees>
              <LongitudeDegrees>-0.1410843618214130401611328125</LongitudeDegrees>
            </Position>
            <AltitudeMeters>1725.5999755859375</AltitudeMeters>
            <DistanceMeters>5102.932314396</DistanceMeters>
          </Trackpoint>
          <Trackpoint>
            <Time>2022-07-09T08:44:23.000Z</Time>
            <Position>
              <LatitudeDegrees>42.82910577021539211273193359375</LatitudeDegrees>
              <LongitudeDegrees>-0.14107321389019489288330078125</LongitudeDegrees>
            </Position>
            <AltitudeMeters>1725.4000244140625</AltitudeMeters>
            <DistanceMeters>5104.9880565432</DistanceMeters>
          </Trackpoint>
          <Trackpoint>
            <Time>2022-07-09T08:44:24.000Z</Time>
            <Position>
              <LatitudeDegrees>42.82910208217799663543701171875</LatitudeDegrees>
              <LongitudeDegrees>-0.1410692743957042694091796875</LongitudeDegrees>
            </Position>
            <AltitudeMeters>1725.4000244140625</AltitudeMeters>
            <DistanceMeters>5105.4997910612</DistanceMeters>
          </Trackpoint>
          <Trackpoint>
            <Time>2022-07-09T08:44:30.000Z</Time>
            <Position>
              <LatitudeDegrees>42.82906419597566127777099609375</LatitudeDegrees>
              <LongitudeDegrees>-0.141069106757640838623046875</LongitudeDegrees>
            </Position>
            <AltitudeMeters>1725.199951171875</AltitudeMeters>
            <DistanceMeters>5109.7164509382</DistanceMeters>
          </Trackpoint>
          <Trackpoint>
            <Time>2022-07-09T08:44:33.000Z</Time>
            <Position>
              <LatitudeDegrees>42.829022370278835296630859375</LatitudeDegrees>
              <LongitudeDegrees>-0.1410877145826816558837890625</LongitudeDegrees>
            </Position>
            <AltitudeMeters>1725.199951171875</AltitudeMeters>
            <DistanceMeters>5114.6137852166</DistanceMeters>
          </Trackpoint>
          <Trackpoint>
            <Time>2022-07-09T08:44:38.000Z</Time>
            <Position>
              <LatitudeDegrees>42.8289722464978694915771484375</LatitudeDegrees>
              <LongitudeDegrees>-0.14106650836765766143798828125</LongitudeDegrees>
            </Position>
            <AltitudeMeters>1725</AltitudeMeters>
            <DistanceMeters>5120.4561895982</DistanceMeters>
          </Trackpoint>
          <Trackpoint>
            <Time>2022-07-09T08:44:41.000Z</Time>
            <Position>
              <LatitudeDegrees>42.8289474360644817352294921875</LatitudeDegrees>
              <LongitudeDegrees>-0.14105879701673984527587890625</LongitudeDegrees>
            </Position>
            <AltitudeMeters>1725.5999755859375</AltitudeMeters>
            <DistanceMeters>5123.2879219094</DistanceMeters>
          </Trackpoint>
          <Trackpoint>
            <Time>2022-07-09T08:44:45.000Z</Time>
            <Position>
              <LatitudeDegrees>42.82890879549086093902587890625</LatitudeDegrees>
              <LongitudeDegrees>-0.14104387722909450531005859375</LongitudeDegrees>
            </Position>
            <AltitudeMeters>1726</AltitudeMeters>
            <DistanceMeters>5127.7572092233</DistanceMeters>
          </Trackpoint>
          <Trackpoint>
            <Time>2022-07-09T08:44:51.000Z</Time>
            <Position>
              <LatitudeDegrees>42.8288599289953708648681640625</LatitudeDegrees>
              <LongitudeDegrees>-0.14103549532592296600341796875</LongitudeDegrees>
            </Position>
            <AltitudeMeters>1726</AltitudeMeters>
            <DistanceMeters>5133.2391882825</DistanceMeters>
          </Trackpoint>
          <Trackpoint>
            <Time>2022-07-09T08:44:53.000Z</Time>
            <Position>
              <LatitudeDegrees>42.828845344483852386474609375</LatitudeDegrees>
              <LongitudeDegrees>-0.14103365130722522735595703125</LongitudeDegrees>
            </Position>
            <AltitudeMeters>1726</AltitudeMeters>
            <DistanceMeters>5134.8713257004</DistanceMeters>
          </Trackpoint>
          <Trackpoint>
            <Time>2022-07-09T08:44:54.000Z</Time>
            <Position>
              <LatitudeDegrees>42.82883604057133197784423828125</LatitudeDegrees>
              <LongitudeDegrees>-0.141028873622417449951171875</LongitudeDegrees>
            </Position>
            <AltitudeMeters>1726</AltitudeMeters>
            <DistanceMeters>5135.9795181009</DistanceMeters>
          </Trackpoint>
          <Trackpoint>
            <Time>2022-07-09T08:44:59.000Z</Time>
            <Position>
              <LatitudeDegrees>42.82878675498068332672119140625</LatitudeDegrees>
              <LongitudeDegrees>-0.14100037515163421630859375</LongitudeDegrees>
            </Position>
            <AltitudeMeters>1726</AltitudeMeters>
            <DistanceMeters>5141.9374733291</DistanceMeters>
          </Trackpoint>
          <Trackpoint>
            <Time>2022-07-09T08:45:04.000Z</Time>
            <Position>
              <LatitudeDegrees>42.82874149270355701446533203125</LatitudeDegrees>
              <LongitudeDegrees>-0.1409670151770114898681640625</LongitudeDegrees>
            </Position>
            <AltitudeMeters>1726.199951171875</AltitudeMeters>
            <DistanceMeters>5147.6643605852</DistanceMeters>
          </Trackpoint>
          <Trackpoint>
            <Time>2022-07-09T08:45:06.000Z</Time>
            <Position>
              <LatitudeDegrees>42.82872590236365795135498046875</LatitudeDegrees>
              <LongitudeDegrees>-0.14095972292125225067138671875</LongitudeDegrees>
            </Position>
            <AltitudeMeters>1726.4000244140625</AltitudeMeters>
            <DistanceMeters>5149.4996312774</DistanceMeters>
          </Trackpoint>
          <Trackpoint>
            <Time>2022-07-09T08:45:07.000Z</Time>
            <Position>
              <LatitudeDegrees>42.82871416769921779632568359375</LatitudeDegrees>
              <LongitudeDegrees>-0.140958130359649658203125</LongitudeDegrees>
            </Position>
            <AltitudeMeters>1726.4000244140625</AltitudeMeters>
            <DistanceMeters>5150.8163600563</DistanceMeters>
          </Trackpoint>
          <Trackpoint>
            <Time>2022-07-09T08:45:13.000Z</Time>
            <Position>
              <LatitudeDegrees>42.82867292873561382293701171875</LatitudeDegrees>
              <LongitudeDegrees>-0.1409031450748443603515625</LongitudeDegrees>
            </Position>
            <AltitudeMeters>1726.4000244140625</AltitudeMeters>
            <DistanceMeters>5157.2368194609</DistanceMeters>
          </Trackpoint>
          <Trackpoint>
            <Time>2022-07-09T08:45:18.000Z</Time>
            <Position>
              <LatitudeDegrees>42.82864107750356197357177734375</LatitudeDegrees>
              <LongitudeDegrees>-0.14087255112826824188232421875</LongitudeDegrees>
            </Position>
            <AltitudeMeters>1726.4000244140625</AltitudeMeters>
            <DistanceMeters>5161.572787537</DistanceMeters>
          </Trackpoint>
          <Trackpoint>
            <Time>2022-07-09T08:45:20.000Z</Time>
            <Position>
              <LatitudeDegrees>42.828625403344631195068359375</LatitudeDegrees>
              <LongitudeDegrees>-0.1408560387790203094482421875</LongitudeDegrees>
            </Position>
            <AltitudeMeters>1726.4000244140625</AltitudeMeters>
            <DistanceMeters>5163.7769157381</DistanceMeters>
          </Trackpoint>
          <Trackpoint>
            <Time>2022-07-09T08:45:21.000Z</Time>
            <Position>
              <LatitudeDegrees>42.82861542887985706329345703125</LatitudeDegrees>
              <LongitudeDegrees>-0.14085226692259311676025390625</LongitudeDegrees>
            </Position>
            <AltitudeMeters>1726.5999755859375</AltitudeMeters>
            <DistanceMeters>5164.9329656132</DistanceMeters>
          </Trackpoint>
          <Trackpoint>
            <Time>2022-07-09T08:45:26.000Z</Time>
            <Position>
              <LatitudeDegrees>42.82856765203177928924560546875</LatitudeDegrees>
              <LongitudeDegrees>-0.140827707946300506591796875</LongitudeDegrees>
            </Position>
            <AltitudeMeters>1727</AltitudeMeters>
            <DistanceMeters>5170.6171202131</DistanceMeters>
          </Trackpoint>
          <Trackpoint>
            <Time>2022-07-09T08:45:27.000Z</Time>
            <Position>
              <LatitudeDegrees>42.82855709083378314971923828125</LatitudeDegrees>
              <LongitudeDegrees>-0.1408221758902072906494140625</LongitudeDegrees>
            </Position>
            <AltitudeMeters>1727</AltitudeMeters>
            <DistanceMeters>5171.8777920396</DistanceMeters>
          </Trackpoint>
          <Trackpoint>
            <Time>2022-07-09T08:45:29.000Z</Time>
            <Position>
              <LatitudeDegrees>42.82854703254997730255126953125</LatitudeDegrees>
              <LongitudeDegrees>-0.14078957028687000274658203125</LongitudeDegrees>
            </Position>
            <AltitudeMeters>1727</AltitudeMeters>
            <DistanceMeters>5174.7647905775</DistanceMeters>
          </Trackpoint>
          <Trackpoint>
            <Time>2022-07-09T08:45:33.000Z</Time>
            <Position>
              <LatitudeDegrees>42.82852624543011188507080078125</LatitudeDegrees>
              <LongitudeDegrees>-0.1407717168331146240234375</LongitudeDegrees>
            </Position>
            <AltitudeMeters>1727.199951171875</AltitudeMeters>
            <DistanceMeters>5177.4991832515</DistanceMeters>
          </Trackpoint>
          <Trackpoint>
            <Time>2022-07-09T08:45:39.000Z</Time>
            <Position>
              <LatitudeDegrees>42.82849070616066455841064453125</LatitudeDegrees>
              <LongitudeDegrees>-0.14073056168854236602783203125</LongitudeDegrees>
            </Position>
            <AltitudeMeters>1726.5999755859375</AltitudeMeters>
            <DistanceMeters>5182.6883727794</DistanceMeters>
          </Trackpoint>
          <Trackpoint>
            <Time>2022-07-09T08:45:40.000Z</Time>
            <Position>
              <LatitudeDegrees>42.82848333008587360382080078125</LatitudeDegrees>
              <LongitudeDegrees>-0.14072402380406856536865234375</LongitudeDegrees>
            </Position>
            <AltitudeMeters>1726.199951171875</AltitudeMeters>
            <DistanceMeters>5183.666732684</DistanceMeters>
          </Trackpoint>
          <Trackpoint>
            <Time>2022-07-09T08:45:45.000Z</Time>
            <Position>
              <LatitudeDegrees>42.828455753624439239501953125</LatitudeDegrees>
              <LongitudeDegrees>-0.14071463607251644134521484375</LongitudeDegrees>
            </Position>
            <AltitudeMeters>1725.5999755859375</AltitudeMeters>
            <DistanceMeters>5186.8298521411</DistanceMeters>
          </Trackpoint>
          <Trackpoint>
            <Time>2022-07-09T08:45:48.000Z</Time>
            <Position>
              <LatitudeDegrees>42.82842792570590972900390625</LatitudeDegrees>
              <LongitudeDegrees>-0.14066618867218494415283203125</LongitudeDegrees>
            </Position>
            <AltitudeMeters>1725.4000244140625</AltitudeMeters>
            <DistanceMeters>5191.8537016274</DistanceMeters>
          </Trackpoint>
          <Trackpoint>
            <Time>2022-07-09T08:45:53.000Z</Time>
            <Position>
              <LatitudeDegrees>42.8283985890448093414306640625</LatitudeDegrees>
              <LongitudeDegrees>-0.140630900859832763671875</LongitudeDegrees>
            </Position>
            <AltitudeMeters>1725.4000244140625</AltitudeMeters>
            <DistanceMeters>5196.2083727438</DistanceMeters>
          </Trackpoint>
          <Trackpoint>
            <Time>2022-07-09T08:45:59.000Z</Time>
            <Position>
              <LatitudeDegrees>42.82834745943546295166015625</LatitudeDegrees>
              <LongitudeDegrees>-0.140568874776363372802734375</LongitudeDegrees>
            </Position>
            <AltitudeMeters>1725.199951171875</AltitudeMeters>
            <DistanceMeters>5203.8259360832</DistanceMeters>
          </Trackpoint>
          <Trackpoint>
            <Time>2022-07-09T08:46:00.000Z</Time>
            <Position>
              <LatitudeDegrees>42.8283425979316234588623046875</LatitudeDegrees>
              <LongitudeDegrees>-0.14054951258003711700439453125</LongitudeDegrees>
            </Position>
            <AltitudeMeters>1725</AltitudeMeters>
            <DistanceMeters>5205.4936481521</DistanceMeters>
          </Trackpoint>
          <Trackpoint>
            <Time>2022-07-09T08:46:04.000Z</Time>
            <Position>
              <LatitudeDegrees>42.82832038588821887969970703125</LatitudeDegrees>
              <LongitudeDegrees>-0.14049570076167583465576171875</LongitudeDegrees>
            </Position>
            <AltitudeMeters>1724.4000244140625</AltitudeMeters>
            <DistanceMeters>5210.534544413</DistanceMeters>
          </Trackpoint>
          <Trackpoint>
            <Time>2022-07-09T08:46:06.000Z</Time>
            <Position>
              <LatitudeDegrees>42.82830613665282726287841796875</LatitudeDegrees>
              <LongitudeDegrees>-0.1404949463903903961181640625</LongitudeDegrees>
            </Position>
            <AltitudeMeters>1724.199951171875</AltitudeMeters>
            <DistanceMeters>5212.1246454803</DistanceMeters>
          </Trackpoint>
          <Trackpoint>
            <Time>2022-07-09T08:46:07.000Z</Time>
            <Position>
              <LatitudeDegrees>42.82830320298671722412109375</LatitudeDegrees>
              <LongitudeDegrees>-0.14048480428755283355712890625</LongitudeDegrees>
            </Position>
            <AltitudeMeters>1723.800048828125</AltitudeMeters>
            <DistanceMeters>5213.0160750777</DistanceMeters>
          </Trackpoint>
          <Trackpoint>
            <Time>2022-07-09T08:46:11.000Z</Time>
            <Position>
              <LatitudeDegrees>42.8282899595797061920166015625</LatitudeDegrees>
              <LongitudeDegrees>-0.140434764325618743896484375</LongitudeDegrees>
            </Position>
            <AltitudeMeters>1723.199951171875</AltitudeMeters>
            <DistanceMeters>5217.3582864515</DistanceMeters>
          </Trackpoint>
          <Trackpoint>
            <Time>2022-07-09T08:46:12.000Z</Time>
            <Position>
              <LatitudeDegrees>42.828290797770023345947265625</LatitudeDegrees>
              <LongitudeDegrees>-0.14041640795767307281494140625</LongitudeDegrees>
            </Position>
            <AltitudeMeters>1723.199951171875</AltitudeMeters>
            <DistanceMeters>5218.8547686459</DistanceMeters>
          </Trackpoint>
          <Trackpoint>
            <Time>2022-07-09T08:46:14.000Z</Time>
            <Position>
              <LatitudeDegrees>42.8282882831990718841552734375</LatitudeDegrees>
              <LongitudeDegrees>-0.14039956033229827880859375</LongitudeDegrees>
            </Position>
            <AltitudeMeters>1722.5999755859375</AltitudeMeters>
            <DistanceMeters>5220.2545995601</DistanceMeters>
          </Trackpoint>
          <Trackpoint>
            <Time>2022-07-09T08:46:17.000Z</Time>
            <Position>
              <LatitudeDegrees>42.82825735397636890411376953125</LatitudeDegrees>
              <LongitudeDegrees>-0.1403853110969066619873046875</LongitudeDegrees>
            </Position>
            <AltitudeMeters>1722.199951171875</AltitudeMeters>
            <DistanceMeters>5223.8880513296</DistanceMeters>
          </Trackpoint>
          <Trackpoint>
            <Time>2022-07-09T08:46:19.000Z</Time>
            <Position>
              <LatitudeDegrees>42.82823472283780574798583984375</LatitudeDegrees>
              <LongitudeDegrees>-0.14037935994565486907958984375</LongitudeDegrees>
            </Position>
            <AltitudeMeters>1722</AltitudeMeters>
            <DistanceMeters>5226.4520122597</DistanceMeters>
          </Trackpoint>
          <Trackpoint>
            <Time>2022-07-09T08:46:20.000Z</Time>
            <Position>
              <LatitudeDegrees>42.82822273671627044677734375</LatitudeDegrees>
              <LongitudeDegrees>-0.14037231914699077606201171875</LongitudeDegrees>
            </Position>
            <AltitudeMeters>1722</AltitudeMeters>
            <DistanceMeters>5227.9056414723</DistanceMeters>
          </Trackpoint>
          <Trackpoint>
            <Time>2022-07-09T08:46:22.000Z</Time>
            <Position>
              <LatitudeDegrees>42.82819750718772411346435546875</LatitudeDegrees>
              <LongitudeDegrees>-0.1403621770441532135009765625</LongitudeDegrees>
            </Position>
            <AltitudeMeters>1721.800048828125</AltitudeMeters>
            <DistanceMeters>5230.8345615159</DistanceMeters>
          </Trackpoint>
          <Trackpoint>
            <Time>2022-07-09T08:46:24.000Z</Time>
            <Position>
              <LatitudeDegrees>42.828180827200412750244140625</LatitudeDegrees>
              <LongitudeDegrees>-0.1403373666107654571533203125</LongitudeDegrees>
            </Position>
            <AltitudeMeters>1721.5999755859375</AltitudeMeters>
            <DistanceMeters>5233.5821320623</DistanceMeters>
          </Trackpoint>
          <Trackpoint>
            <Time>2022-07-09T08:46:30.000Z</Time>
            <Position>
              <LatitudeDegrees>42.82816481776535511016845703125</LatitudeDegrees>
              <LongitudeDegrees>-0.14029470272362232208251953125</LongitudeDegrees>
            </Position>
            <AltitudeMeters>1721.199951171875</AltitudeMeters>
            <DistanceMeters>5237.4944177845</DistanceMeters>
          </Trackpoint>
          <Trackpoint>
            <Time>2022-07-09T08:46:32.000Z</Time>
            <Position>
              <LatitudeDegrees>42.8281699307262897491455078125</LatitudeDegrees>
              <LongitudeDegrees>-0.1402820460498332977294921875</LongitudeDegrees>
            </Position>
            <AltitudeMeters>1721.199951171875</AltitudeMeters>
            <DistanceMeters>5238.6736682975</DistanceMeters>
          </Trackpoint>
          <Trackpoint>
            <Time>2022-07-09T08:46:36.000Z</Time>
            <Position>
              <LatitudeDegrees>42.8281917236745357513427734375</LatitudeDegrees>
              <LongitudeDegrees>-0.14028824865818023681640625</LongitudeDegrees>
            </Position>
            <AltitudeMeters>1721</AltitudeMeters>
            <DistanceMeters>5241.151661837</DistanceMeters>
          </Trackpoint>
          <Trackpoint>
            <Time>2022-07-09T08:46:39.000Z</Time>
            <Position>
              <LatitudeDegrees>42.8282044641673564910888671875</LatitudeDegrees>
              <LongitudeDegrees>-0.1402833871543407440185546875</LongitudeDegrees>
            </Position>
            <AltitudeMeters>1721.199951171875</AltitudeMeters>
            <DistanceMeters>5242.6238093658</DistanceMeters>
          </Trackpoint>
          <Trackpoint>
            <Time>2022-07-09T08:46:44.000Z</Time>
            <Position>
              <LatitudeDegrees>42.82822684384882450103759765625</LatitudeDegrees>
              <LongitudeDegrees>-0.14030174352228641510009765625</LongitudeDegrees>
            </Position>
            <AltitudeMeters>1721.4000244140625</AltitudeMeters>
            <DistanceMeters>5245.5310677911</DistanceMeters>
          </Trackpoint>
          <Trackpoint>
            <Time>2022-07-09T08:46:46.000Z</Time>
            <Position>
              <LatitudeDegrees>42.82824042253196239471435546875</LatitudeDegrees>
              <LongitudeDegrees>-0.1403138972818851470947265625</LongitudeDegrees>
            </Position>
            <AltitudeMeters>1721.5999755859375</AltitudeMeters>
            <DistanceMeters>5247.3390743378</DistanceMeters>
          </Trackpoint>
          <Trackpoint>
            <Time>2022-07-09T08:46:48.000Z</Time>
            <Position>
              <LatitudeDegrees>42.82825768925249576568603515625</LatitudeDegrees>
              <LongitudeDegrees>-0.1403420604765415191650390625</LongitudeDegrees>
            </Position>
            <AltitudeMeters>1721.5999755859375</AltitudeMeters>
            <DistanceMeters>5250.3350543086</DistanceMeters>
          </Trackpoint>
          <Trackpoint>
            <Time>2022-07-09T08:46:54.000Z</Time>
            <Position>
              <LatitudeDegrees>42.82827512361109256744384765625</LatitudeDegrees>
              <LongitudeDegrees>-0.14034315012395381927490234375</LongitudeDegrees>
            </Position>
            <AltitudeMeters>1721.4000244140625</AltitudeMeters>
            <DistanceMeters>5252.2778800737</DistanceMeters>
          </Trackpoint>
          <Trackpoint>
            <Time>2022-07-09T08:46:55.000Z</Time>
            <Position>
              <LatitudeDegrees>42.82827059738337993621826171875</LatitudeDegrees>
              <LongitudeDegrees>-0.14033677987754344940185546875</LongitudeDegrees>
            </Position>
            <AltitudeMeters>1721.199951171875</AltitudeMeters>
            <DistanceMeters>5253.0015819693</DistanceMeters>
          </Trackpoint>
          <Trackpoint>
            <Time>2022-07-09T08:46:58.000Z</Time>
            <Position>
              <LatitudeDegrees>42.82820002175867557525634765625</LatitudeDegrees>
              <LongitudeDegrees>-0.140295960009098052978515625</LongitudeDegrees>
            </Position>
            <AltitudeMeters>1721.199951171875</AltitudeMeters>
            <DistanceMeters>5261.5344306359</DistanceMeters>
          </Trackpoint>
          <Trackpoint>
            <Time>2022-07-09T08:46:59.000Z</Time>
            <Position>
              <LatitudeDegrees>42.82818325795233249664306640625</LatitudeDegrees>
              <LongitudeDegrees>-0.1402870751917362213134765625</LongitudeDegrees>
            </Position>
            <AltitudeMeters>1721.199951171875</AltitudeMeters>
            <DistanceMeters>5263.5367677557</DistanceMeters>
          </Trackpoint>
          <Trackpoint>
            <Time>2022-07-09T08:47:01.000Z</Time>
            <Position>
              <LatitudeDegrees>42.82813615165650844573974609375</LatitudeDegrees>
              <LongitudeDegrees>-0.14026637189090251922607421875</LongitudeDegrees>
            </Position>
            <AltitudeMeters>1721</AltitudeMeters>
            <DistanceMeters>5269.0450394312</DistanceMeters>
          </Trackpoint>
          <Trackpoint>
            <Time>2022-07-09T08:47:07.000Z</Time>
            <Position>
              <LatitudeDegrees>42.82806909643113613128662109375</LatitudeDegrees>
              <LongitudeDegrees>-0.14024131000041961669921875</LongitudeDegrees>
            </Position>
            <AltitudeMeters>1721</AltitudeMeters>
            <DistanceMeters>5276.7849055237</DistanceMeters>
          </Trackpoint>
          <Trackpoint>
            <Time>2022-07-09T08:47:10.000Z</Time>
            <Position>
              <LatitudeDegrees>42.8280297853052616119384765625</LatitudeDegrees>
              <LongitudeDegrees>-0.1402418129146099090576171875</LongitudeDegrees>
            </Position>
            <AltitudeMeters>1721</AltitudeMeters>
            <DistanceMeters>5281.1612958328</DistanceMeters>
          </Trackpoint>
          <Trackpoint>
            <Time>2022-07-09T08:47:13.000Z</Time>
            <Position>
              <LatitudeDegrees>42.8279986046254634857177734375</LatitudeDegrees>
              <LongitudeDegrees>-0.14025161974132061004638671875</LongitudeDegrees>
            </Position>
            <AltitudeMeters>1721</AltitudeMeters>
            <DistanceMeters>5284.721945679</DistanceMeters>
          </Trackpoint>
          <Trackpoint>
            <Time>2022-07-09T08:47:14.000Z</Time>
            <Position>
              <LatitudeDegrees>42.8279892168939113616943359375</LatitudeDegrees>
              <LongitudeDegrees>-0.140260756015777587890625</LongitudeDegrees>
            </Position>
            <AltitudeMeters>1721.199951171875</AltitudeMeters>
            <DistanceMeters>5286.0074432439</DistanceMeters>
          </Trackpoint>
          <Trackpoint>
            <Time>2022-07-09T08:47:18.000Z</Time>
            <Position>
              <LatitudeDegrees>42.82795845530927181243896484375</LatitudeDegrees>
              <LongitudeDegrees>-0.14026704244315624237060546875</LongitudeDegrees>
            </Position>
            <AltitudeMeters>1721.4000244140625</AltitudeMeters>
            <DistanceMeters>5289.4690774592</DistanceMeters>
          </Trackpoint>
          <Trackpoint>
            <Time>2022-07-09T08:47:21.000Z</Time>
            <Position>
              <LatitudeDegrees>42.8279292024672031402587890625</LatitudeDegrees>
              <LongitudeDegrees>-0.14027190394699573516845703125</LongitudeDegrees>
            </Position>
            <AltitudeMeters>1721.5999755859375</AltitudeMeters>
            <DistanceMeters>5292.7471547872</DistanceMeters>
          </Trackpoint>
          <Trackpoint>
            <Time>2022-07-09T08:47:27.000Z</Time>
            <Position>
              <LatitudeDegrees>42.82787446863949298858642578125</LatitudeDegrees>
              <LongitudeDegrees>-0.14025966636836528778076171875</LongitudeDegrees>
            </Position>
            <AltitudeMeters>1721.199951171875</AltitudeMeters>
            <DistanceMeters>5298.9202352657</DistanceMeters>
          </Trackpoint>
          <Trackpoint>
            <Time>2022-07-09T08:47:28.000Z</Time>
            <Position>
              <LatitudeDegrees>42.8278631530702114105224609375</LatitudeDegrees>
              <LongitudeDegrees>-0.14026100747287273406982421875</LongitudeDegrees>
            </Position>
            <AltitudeMeters>1721.199951171875</AltitudeMeters>
            <DistanceMeters>5300.1809070922</DistanceMeters>
          </Trackpoint>
          <Trackpoint>
            <Time>2022-07-09T08:47:34.000Z</Time>
            <Position>
              <LatitudeDegrees>42.8277843631803989410400390625</LatitudeDegrees>
              <LongitudeDegrees>-0.1402273960411548614501953125</LongitudeDegrees>
            </Position>
            <AltitudeMeters>1721.4000244140625</AltitudeMeters>
            <DistanceMeters>5309.3695530616</DistanceMeters>
          </Trackpoint>
          <Trackpoint>
            <Time>2022-07-09T08:47:39.000Z</Time>
            <Position>
              <LatitudeDegrees>42.827745974063873291015625</LatitudeDegrees>
              <LongitudeDegrees>-0.14021851122379302978515625</LongitudeDegrees>
            </Position>
            <AltitudeMeters>1721.800048828125</AltitudeMeters>
            <DistanceMeters>5313.7034380397</DistanceMeters>
          </Trackpoint>
          <Trackpoint>
            <Time>2022-07-09T08:47:41.000Z</Time>
            <Position>
              <LatitudeDegrees>42.82772426493465900421142578125</LatitudeDegrees>
              <LongitudeDegrees>-0.1402052678167819976806640625</LongitudeDegrees>
            </Position>
            <AltitudeMeters>1721.800048828125</AltitudeMeters>
            <DistanceMeters>5316.3505759886</DistanceMeters>
          </Trackpoint>
          <Trackpoint>
            <Time>2022-07-09T08:47:44.000Z</Time>
            <Position>
              <LatitudeDegrees>42.82769040204584598541259765625</LatitudeDegrees>
              <LongitudeDegrees>-0.14018188230693340301513671875</LongitudeDegrees>
            </Position>
            <AltitudeMeters>1721.800048828125</AltitudeMeters>
            <DistanceMeters>5320.5747245482</DistanceMeters>
          </Trackpoint>
          <Trackpoint>
            <Time>2022-07-09T08:47:46.000Z</Time>
            <Position>
              <LatitudeDegrees>42.827665843069553375244140625</LatitudeDegrees>
              <LongitudeDegrees>-0.140171907842159271240234375</LongitudeDegrees>
            </Position>
            <AltitudeMeters>1721.800048828125</AltitudeMeters>
            <DistanceMeters>5323.4255259793</DistanceMeters>
          </Trackpoint>
          <Trackpoint>
            <Time>2022-07-09T08:47:52.000Z</Time>
            <Position>
              <LatitudeDegrees>42.827595435082912445068359375</LatitudeDegrees>
              <LongitudeDegrees>-0.14017023146152496337890625</LongitudeDegrees>
            </Position>
            <AltitudeMeters>1721.800048828125</AltitudeMeters>
            <DistanceMeters>5331.2639339888</DistanceMeters>
          </Trackpoint>
          <Trackpoint>
            <Time>2022-07-09T08:47:53.000Z</Time>
            <Position>
              <LatitudeDegrees>42.82758529298007488250732421875</LatitudeDegrees>
              <LongitudeDegrees>-0.1401653699576854705810546875</LongitudeDegrees>
            </Position>
            <AltitudeMeters>1721.800048828125</AltitudeMeters>
            <DistanceMeters>5332.4546153071</DistanceMeters>
          </Trackpoint>
          <Trackpoint>
            <Time>2022-07-09T08:47:58.000Z</Time>
            <Position>
              <LatitudeDegrees>42.82754220999777317047119140625</LatitudeDegrees>
              <LongitudeDegrees>-0.14013745822012424468994140625</LongitudeDegrees>
            </Position>
            <AltitudeMeters>1722</AltitudeMeters>
            <DistanceMeters>5337.7625187073</DistanceMeters>
          </Trackpoint>
          <Trackpoint>
            <Time>2022-07-09T08:48:00.000Z</Time>
            <Position>
              <LatitudeDegrees>42.82752444036304950714111328125</LatitudeDegrees>
              <LongitudeDegrees>-0.14013762585818767547607421875</LongitudeDegrees>
            </Position>
            <AltitudeMeters>1722</AltitudeMeters>
            <DistanceMeters>5339.7421785711</DistanceMeters>
          </Trackpoint>
          <Trackpoint>
            <Time>2022-07-09T08:48:06.000Z</Time>
            <Position>
              <LatitudeDegrees>42.8274658508598804473876953125</LatitudeDegrees>
              <LongitudeDegrees>-0.1401107199490070343017578125</LongitudeDegrees>
            </Position>
            <AltitudeMeters>1722</AltitudeMeters>
            <DistanceMeters>5346.623582561</DistanceMeters>
          </Trackpoint>
          <Trackpoint>
            <Time>2022-07-09T08:48:07.000Z</Time>
            <Position>
              <LatitudeDegrees>42.82745453529059886932373046875</LatitudeDegrees>
              <LongitudeDegrees>-0.14010393060743808746337890625</LongitudeDegrees>
            </Position>
            <AltitudeMeters>1722.199951171875</AltitudeMeters>
            <DistanceMeters>5348.0006504799</DistanceMeters>
          </Trackpoint>
          <Trackpoint>
            <Time>2022-07-09T08:48:08.000Z</Time>
            <Position>
              <LatitudeDegrees>42.827442549169063568115234375</LatitudeDegrees>
              <LongitudeDegrees>-0.14009722508490085601806640625</LongitudeDegrees>
            </Position>
            <AltitudeMeters>1722</AltitudeMeters>
            <DistanceMeters>5349.4418019578</DistanceMeters>
          </Trackpoint>
          <Trackpoint>
            <Time>2022-07-09T08:48:14.000Z</Time>
            <Position>
              <LatitudeDegrees>42.8273823671042919158935546875</LatitudeDegrees>
              <LongitudeDegrees>-0.1400662958621978759765625</LongitudeDegrees>
            </Position>
            <AltitudeMeters>1722</AltitudeMeters>
            <DistanceMeters>5356.5997802857</DistanceMeters>
          </Trackpoint>
          <Trackpoint>
            <Time>2022-07-09T08:48:16.000Z</Time>
            <Position>
              <LatitudeDegrees>42.82736535184085369110107421875</LatitudeDegrees>
              <LongitudeDegrees>-0.14005623757839202880859375</LongitudeDegrees>
            </Position>
            <AltitudeMeters>1722</AltitudeMeters>
            <DistanceMeters>5358.6642889637</DistanceMeters>
          </Trackpoint>
          <Trackpoint>
            <Time>2022-07-09T08:48:22.000Z</Time>
            <Position>
              <LatitudeDegrees>42.82730567269027233123779296875</LatitudeDegrees>
              <LongitudeDegrees>-0.140040479600429534912109375</LongitudeDegrees>
            </Position>
            <AltitudeMeters>1722.199951171875</AltitudeMeters>
            <DistanceMeters>5365.4298973986</DistanceMeters>
          </Trackpoint>
          <Trackpoint>
            <Time>2022-07-09T08:48:23.000Z</Time>
            <Position>
              <LatitudeDegrees>42.82729762606322765350341796875</LatitudeDegrees>
              <LongitudeDegrees>-0.14004148542881011962890625</LongitudeDegrees>
            </Position>
            <AltitudeMeters>1722.199951171875</AltitudeMeters>
            <DistanceMeters>5366.3313999665</DistanceMeters>
          </Trackpoint>
          <Trackpoint>
            <Time>2022-07-09T08:48:29.000Z</Time>
            <Position>
              <LatitudeDegrees>42.82725420780479907989501953125</LatitudeDegrees>
              <LongitudeDegrees>-0.14004676602780818939208984375</LongitudeDegrees>
            </Position>
            <AltitudeMeters>1722.4000244140625</AltitudeMeters>
            <DistanceMeters>5371.1824183352</DistanceMeters>
          </Trackpoint>
          <Trackpoint>
            <Time>2022-07-09T08:48:31.000Z</Time>
            <Position>
              <LatitudeDegrees>42.82724507153034210205078125</LatitudeDegrees>
              <LongitudeDegrees>-0.1400450058281421661376953125</LongitudeDegrees>
            </Position>
            <AltitudeMeters>1722.5999755859375</AltitudeMeters>
            <DistanceMeters>5372.2102894088</DistanceMeters>
          </Trackpoint>
          <Trackpoint>
            <Time>2022-07-09T08:48:36.000Z</Time>
            <Position>
              <LatitudeDegrees>42.82720810733735561370849609375</LatitudeDegrees>
              <LongitudeDegrees>-0.1399910263717174530029296875</LongitudeDegrees>
            </Position>
            <AltitudeMeters>1722.800048828125</AltitudeMeters>
            <DistanceMeters>5378.2383096153</DistanceMeters>
          </Trackpoint>
          <Trackpoint>
            <Time>2022-07-09T08:48:39.000Z</Time>
            <Position>
              <LatitudeDegrees>42.8271758370101451873779296875</LatitudeDegrees>
              <LongitudeDegrees>-0.13998725451529026031494140625</LongitudeDegrees>
            </Position>
            <AltitudeMeters>1722.800048828125</AltitudeMeters>
            <DistanceMeters>5381.844319887</DistanceMeters>
          </Trackpoint>
          <Trackpoint>
            <Time>2022-07-09T08:48:41.000Z</Time>
            <Position>
              <LatitudeDegrees>42.82715521752834320068359375</LatitudeDegrees>
              <LongitudeDegrees>-0.1399833150207996368408203125</LongitudeDegrees>
            </Position>
            <AltitudeMeters>1722.800048828125</AltitudeMeters>
            <DistanceMeters>5384.160321918</DistanceMeters>
          </Trackpoint>
          <Trackpoint>
            <Time>2022-07-09T08:48:44.000Z</Time>
            <Position>
              <LatitudeDegrees>42.82712462358176708221435546875</LatitudeDegrees>
              <LongitudeDegrees>-0.139976106584072113037109375</LongitudeDegrees>
            </Position>
            <AltitudeMeters>1722.800048828125</AltitudeMeters>
            <DistanceMeters>5387.6154284372</DistanceMeters>
          </Trackpoint>
          <Trackpoint>
            <Time>2022-07-09T08:48:45.000Z</Time>
            <Position>
              <LatitudeDegrees>42.82711506821215152740478515625</LatitudeDegrees>
              <LongitudeDegrees>-0.139974765479564666748046875</LongitudeDegrees>
            </Position>
            <AltitudeMeters>1722.800048828125</AltitudeMeters>
            <DistanceMeters>5388.6821006605</DistanceMeters>
          </Trackpoint>
          <Trackpoint>
            <Time>2022-07-09T08:48:46.000Z</Time>
            <Position>
              <LatitudeDegrees>42.8271077759563922882080078125</LatitudeDegrees>
              <LongitudeDegrees>-0.13997267000377178192138671875</LongitudeDegrees>
            </Position>
            <AltitudeMeters>1722.800048828125</AltitudeMeters>
            <DistanceMeters>5389.5105243502</DistanceMeters>
          </Trackpoint>
          <Trackpoint>
            <Time>2022-07-09T08:48:52.000Z</Time>
            <Position>
              <LatitudeDegrees>42.827081121504306793212890625</LatitudeDegrees>
              <LongitudeDegrees>-0.1399482786655426025390625</LongitudeDegrees>
            </Position>
            <AltitudeMeters>1723</AltitudeMeters>
            <DistanceMeters>5393.0838320744</DistanceMeters>
          </Trackpoint>
          <Trackpoint>
            <Time>2022-07-09T08:48:55.000Z</Time>
            <Position>
              <LatitudeDegrees>42.82706108875572681427001953125</LatitudeDegrees>
              <LongitudeDegrees>-0.1399348676204681396484375</LongitudeDegrees>
            </Position>
            <AltitudeMeters>1723.199951171875</AltitudeMeters>
            <DistanceMeters>5395.5691031437</DistanceMeters>
          </Trackpoint>
          <Trackpoint>
            <Time>2022-07-09T08:49:00.000Z</Time>
            <Position>
              <LatitudeDegrees>42.82705103047192096710205078125</LatitudeDegrees>
              <LongitudeDegrees>-0.1398932933807373046875</LongitudeDegrees>
            </Position>
            <AltitudeMeters>1723.4000244140625</AltitudeMeters>
            <DistanceMeters>5399.1424108678</DistanceMeters>
          </Trackpoint>
          <Trackpoint>
            <Time>2022-07-09T08:49:01.000Z</Time>
            <Position>
              <LatitudeDegrees>42.82705086283385753631591796875</LatitudeDegrees>
              <LongitudeDegrees>-0.13988935388624668121337890625</LongitudeDegrees>
            </Position>
            <AltitudeMeters>1723.4000244140625</AltitudeMeters>
            <DistanceMeters>5399.4429117238</DistanceMeters>
          </Trackpoint>
          <Trackpoint>
            <Time>2022-07-09T08:49:05.000Z</Time>
            <Position>
              <LatitudeDegrees>42.82704281620681285858154296875</LatitudeDegrees>
              <LongitudeDegrees>-0.1398652978241443634033203125</LongitudeDegrees>
            </Position>
            <AltitudeMeters>1723.4000244140625</AltitudeMeters>
            <DistanceMeters>5401.5994110557</DistanceMeters>
          </Trackpoint>
          <Trackpoint>
            <Time>2022-07-09T08:49:07.000Z</Time>
            <Position>
              <LatitudeDegrees>42.82703451812267303466796875</LatitudeDegrees>
              <LongitudeDegrees>-0.1398468576371669769287109375</LongitudeDegrees>
            </Position>
            <AltitudeMeters>1723.4000244140625</AltitudeMeters>
            <DistanceMeters>5403.3670101193</DistanceMeters>
          </Trackpoint>
          <Trackpoint>
            <Time>2022-07-09T08:49:13.000Z</Time>
            <Position>
              <LatitudeDegrees>42.82698766328394412994384765625</LatitudeDegrees>
              <LongitudeDegrees>-0.139815509319305419921875</LongitudeDegrees>
            </Position>
            <AltitudeMeters>1723.4000244140625</AltitudeMeters>
            <DistanceMeters>5409.1753115573</DistanceMeters>
          </Trackpoint>
          <Trackpoint>
            <Time>2022-07-09T08:49:17.000Z</Time>
            <Position>
              <LatitudeDegrees>42.8269465081393718719482421875</LatitudeDegrees>
              <LongitudeDegrees>-0.1397868432104587554931640625</LongitudeDegrees>
            </Position>
            <AltitudeMeters>1723.5999755859375</AltitudeMeters>
            <DistanceMeters>5414.3181798139</DistanceMeters>
          </Trackpoint>
          <Trackpoint>
            <Time>2022-07-09T08:49:18.000Z</Time>
            <Position>
              <LatitudeDegrees>42.826938293874263763427734375</LatitudeDegrees>
              <LongitudeDegrees>-0.13978189788758754730224609375</LongitudeDegrees>
            </Position>
            <AltitudeMeters>1723.5999755859375</AltitudeMeters>
            <DistanceMeters>5415.3148284023</DistanceMeters>
          </Trackpoint>
          <Trackpoint>
            <Time>2022-07-09T08:49:24.000Z</Time>
            <Position>
              <LatitudeDegrees>42.8268761001527309417724609375</LatitudeDegrees>
              <LongitudeDegrees>-0.13978608883917331695556640625</LongitudeDegrees>
            </Position>
            <AltitudeMeters>1723.800048828125</AltitudeMeters>
            <DistanceMeters>5422.2459182648</DistanceMeters>
          </Trackpoint>
          <Trackpoint>
            <Time>2022-07-09T08:49:30.000Z</Time>
            <Position>
              <LatitudeDegrees>42.82683737576007843017578125</LatitudeDegrees>
              <LongitudeDegrees>-0.13975272886455059051513671875</LongitudeDegrees>
            </Position>
            <AltitudeMeters>1724</AltitudeMeters>
            <DistanceMeters>5427.3438158713</DistanceMeters>
          </Trackpoint>
          <Trackpoint>
            <Time>2022-07-09T08:49:31.000Z</Time>
            <Position>
              <LatitudeDegrees>42.826827652752399444580078125</LatitudeDegrees>
              <LongitudeDegrees>-0.1397469453513622283935546875</LongitudeDegrees>
            </Position>
            <AltitudeMeters>1724</AltitudeMeters>
            <DistanceMeters>5428.5230663842</DistanceMeters>
          </Trackpoint>
          <Trackpoint>
            <Time>2022-07-09T08:49:32.000Z</Time>
            <Position>
              <LatitudeDegrees>42.826814912259578704833984375</LatitudeDegrees>
              <LongitudeDegrees>-0.13974853791296482086181640625</LongitudeDegrees>
            </Position>
            <AltitudeMeters>1724</AltitudeMeters>
            <DistanceMeters>5429.9452960153</DistanceMeters>
          </Trackpoint>
          <Trackpoint>
            <Time>2022-07-09T08:49:34.000Z</Time>
            <Position>
              <LatitudeDegrees>42.8267912752926349639892578125</LatitudeDegrees>
              <LongitudeDegrees>-0.13976496644318103790283203125</LongitudeDegrees>
            </Position>
            <AltitudeMeters>1724.199951171875</AltitudeMeters>
            <DistanceMeters>5432.8972485502</DistanceMeters>
          </Trackpoint>
          <Trackpoint>
            <Time>2022-07-09T08:49:36.000Z</Time>
            <Position>
              <LatitudeDegrees>42.82677006907761096954345703125</LatitudeDegrees>
              <LongitudeDegrees>-0.13977653346955776214599609375</LongitudeDegrees>
            </Position>
            <AltitudeMeters>1724.5999755859375</AltitudeMeters>
            <DistanceMeters>5435.4399901285</DistanceMeters>
          </Trackpoint>
          <Trackpoint>
            <Time>2022-07-09T08:49:37.000Z</Time>
            <Position>
              <LatitudeDegrees>42.826760597527027130126953125</LatitudeDegrees>
              <LongitudeDegrees>-0.1397791318595409393310546875</LongitudeDegrees>
            </Position>
            <AltitudeMeters>1724.5999755859375</AltitudeMeters>
            <DistanceMeters>5436.5150946745</DistanceMeters>
          </Trackpoint>
          <Trackpoint>
            <Time>2022-07-09T08:49:39.000Z</Time>
            <Position>
              <LatitudeDegrees>42.82673955895006656646728515625</LatitudeDegrees>
              <LongitudeDegrees>-0.13977183960378170013427734375</LongitudeDegrees>
            </Position>
            <AltitudeMeters>1724.800048828125</AltitudeMeters>
            <DistanceMeters>5438.9303440162</DistanceMeters>
          </Trackpoint>
          <Trackpoint>
            <Time>2022-07-09T08:49:43.000Z</Time>
            <Position>
              <LatitudeDegrees>42.82669924199581146240234375</LatitudeDegrees>
              <LongitudeDegrees>-0.13972573913633823394775390625</LongitudeDegrees>
            </Position>
            <AltitudeMeters>1724.800048828125</AltitudeMeters>
            <DistanceMeters>5444.7866423637</DistanceMeters>
          </Trackpoint>
          <Trackpoint>
            <Time>2022-07-09T08:49:47.000Z</Time>
            <Position>
              <LatitudeDegrees>42.82666915096342563629150390625</LatitudeDegrees>
              <LongitudeDegrees>-0.1397144235670566558837890625</LongitudeDegrees>
            </Position>
            <AltitudeMeters>1724.800048828125</AltitudeMeters>
            <DistanceMeters>5448.2625943602</DistanceMeters>
          </Trackpoint>
          <Trackpoint>
            <Time>2022-07-09T08:49:50.000Z</Time>
            <Position>
              <LatitudeDegrees>42.826656661927700042724609375</LatitudeDegrees>
              <LongitudeDegrees>-0.13973512686789035797119140625</LongitudeDegrees>
            </Position>
            <AltitudeMeters>1724.800048828125</AltitudeMeters>
            <DistanceMeters>5450.4502736135</DistanceMeters>
          </Trackpoint>
          <Trackpoint>
            <Time>2022-07-09T08:49:53.000Z</Time>
            <Position>
              <LatitudeDegrees>42.82664383761584758758544921875</LatitudeDegrees>
              <LongitudeDegrees>-0.1397519744932651519775390625</LongitudeDegrees>
            </Position>
            <AltitudeMeters>1724.800048828125</AltitudeMeters>
            <DistanceMeters>5452.4322128792</DistanceMeters>
          </Trackpoint>
          <Trackpoint>
            <Time>2022-07-09T08:49:57.000Z</Time>
            <Position>
              <LatitudeDegrees>42.8266206197440624237060546875</LatitudeDegrees>
              <LongitudeDegrees>-0.139758177101612091064453125</LongitudeDegrees>
            </Position>
            <AltitudeMeters>1725</AltitudeMeters>
            <DistanceMeters>5455.065670437</DistanceMeters>
          </Trackpoint>
          <Trackpoint>
            <Time>2022-07-09T08:49:59.000Z</Time>
            <Position>
              <LatitudeDegrees>42.826606370508670806884765625</LatitudeDegrees>
              <LongitudeDegrees>-0.1397645473480224609375</LongitudeDegrees>
            </Position>
            <AltitudeMeters>1725</AltitudeMeters>
            <DistanceMeters>5456.7333825059</DistanceMeters>
          </Trackpoint>
          <Trackpoint>
            <Time>2022-07-09T08:50:03.000Z</Time>
            <Position>
              <LatitudeDegrees>42.82657451927661895751953125</LatitudeDegrees>
              <LongitudeDegrees>-0.13976396061480045318603515625</LongitudeDegrees>
            </Position>
            <AltitudeMeters>1724.800048828125</AltitudeMeters>
            <DistanceMeters>5460.2787832463</DistanceMeters>
          </Trackpoint>
          <Trackpoint>
            <Time>2022-07-09T08:50:06.000Z</Time>
            <Position>
              <LatitudeDegrees>42.82655834220349788665771484375</LatitudeDegrees>
              <LongitudeDegrees>-0.1397754438221454620361328125</LongitudeDegrees>
            </Position>
            <AltitudeMeters>1725</AltitudeMeters>
            <DistanceMeters>5462.3079985771</DistanceMeters>
          </Trackpoint>
          <Trackpoint>
            <Time>2022-07-09T08:50:11.000Z</Time>
            <Position>
              <LatitudeDegrees>42.826525904238224029541015625</LatitudeDegrees>
              <LongitudeDegrees>-0.13982414267957210540771484375</LongitudeDegrees>
            </Position>
            <AltitudeMeters>1725.199951171875</AltitudeMeters>
            <DistanceMeters>5467.67847939</DistanceMeters>
          </Trackpoint>
          <Trackpoint>
            <Time>2022-07-09T08:50:12.000Z</Time>
            <Position>
              <LatitudeDegrees>42.82651743851602077484130859375</LatitudeDegrees>
              <LongitudeDegrees>-0.1398297585546970367431640625</LongitudeDegrees>
            </Position>
            <AltitudeMeters>1725.199951171875</AltitudeMeters>
            <DistanceMeters>5468.7237732481</DistanceMeters>
          </Trackpoint>
          <Trackpoint>
            <Time>2022-07-09T08:50:14.000Z</Time>
            <Position>
              <LatitudeDegrees>42.82649313099682331085205078125</LatitudeDegrees>
              <LongitudeDegrees>-0.13982933945953845977783203125</LongitudeDegrees>
            </Position>
            <AltitudeMeters>1725.199951171875</AltitudeMeters>
            <DistanceMeters>5471.4282809518</DistanceMeters>
          </Trackpoint>
          <Trackpoint>
            <Time>2022-07-09T08:50:16.000Z</Time>
            <Position>
              <LatitudeDegrees>42.8264670632779598236083984375</LatitudeDegrees>
              <LongitudeDegrees>-0.13982598669826984405517578125</LongitudeDegrees>
            </Position>
            <AltitudeMeters>1725.4000244140625</AltitudeMeters>
            <DistanceMeters>5474.3417448451</DistanceMeters>
          </Trackpoint>
          <Trackpoint>
            <Time>2022-07-09T08:50:17.000Z</Time>
            <Position>
              <LatitudeDegrees>42.826456837356090545654296875</LatitudeDegrees>
              <LongitudeDegrees>-0.1398203708231449127197265625</LongitudeDegrees>
            </Position>
            <AltitudeMeters>1725.4000244140625</AltitudeMeters>
            <DistanceMeters>5475.5734318356</DistanceMeters>
          </Trackpoint>
          <Trackpoint>
            <Time>2022-07-09T08:50:19.000Z</Time>
            <Position>
              <LatitudeDegrees>42.82643563114106655120849609375</LatitudeDegrees>
              <LongitudeDegrees>-0.139805115759372711181640625</LongitudeDegrees>
            </Position>
            <AltitudeMeters>1725.199951171875</AltitudeMeters>
            <DistanceMeters>5478.244341866</DistanceMeters>
          </Trackpoint>
          <Trackpoint>
            <Time>2022-07-09T08:50:22.000Z</Time>
            <Position>
              <LatitudeDegrees>42.82640428282320499420166015625</LatitudeDegrees>
              <LongitudeDegrees>-0.13979061506688594818115234375</LongitudeDegrees>
            </Position>
            <AltitudeMeters>1725</AltitudeMeters>
            <DistanceMeters>5481.9296145793</DistanceMeters>
          </Trackpoint>
          <Trackpoint>
            <Time>2022-07-09T08:50:27.000Z</Time>
            <Position>
              <LatitudeDegrees>42.8263580985367298126220703125</LatitudeDegrees>
              <LongitudeDegrees>-0.1397828198969364166259765625</LongitudeDegrees>
            </Position>
            <AltitudeMeters>1725.4000244140625</AltitudeMeters>
            <DistanceMeters>5487.1092243248</DistanceMeters>
          </Trackpoint>
          <Trackpoint>
            <Time>2022-07-09T08:50:28.000Z</Time>
            <Position>
              <LatitudeDegrees>42.8263477049767971038818359375</LatitudeDegrees>
              <LongitudeDegrees>-0.13978558592498302459716796875</LongitudeDegrees>
            </Position>
            <AltitudeMeters>1725.4000244140625</AltitudeMeters>
            <DistanceMeters>5488.2807923422</DistanceMeters>
          </Trackpoint>
          <Trackpoint>
            <Time>2022-07-09T08:50:34.000Z</Time>
            <Position>
              <LatitudeDegrees>42.82628886401653289794921875</LatitudeDegrees>
              <LongitudeDegrees>-0.139809139072895050048828125</LongitudeDegrees>
            </Position>
            <AltitudeMeters>1725.199951171875</AltitudeMeters>
            <DistanceMeters>5495.1055366083</DistanceMeters>
          </Trackpoint>
          <Trackpoint>
            <Time>2022-07-09T08:50:35.000Z</Time>
            <Position>
              <LatitudeDegrees>42.82628090120851993560791015625</LatitudeDegrees>
              <LongitudeDegrees>-0.1398170180618762969970703125</LongitudeDegrees>
            </Position>
            <AltitudeMeters>1725.199951171875</AltitudeMeters>
            <DistanceMeters>5496.1973104359</DistanceMeters>
          </Trackpoint>
          <Trackpoint>
            <Time>2022-07-09T08:50:36.000Z</Time>
            <Position>
              <LatitudeDegrees>42.8262722678482532501220703125</LatitudeDegrees>
              <LongitudeDegrees>-0.13982355594635009765625</LongitudeDegrees>
            </Position>
            <AltitudeMeters>1725.199951171875</AltitudeMeters>
            <DistanceMeters>5497.2973241829</DistanceMeters>
          </Trackpoint>
          <Trackpoint>
            <Time>2022-07-09T08:50:42.000Z</Time>
            <Position>
              <LatitudeDegrees>42.8262291848659515380859375</LatitudeDegrees>
              <LongitudeDegrees>-0.13985373079776763916015625</LongitudeDegrees>
            </Position>
            <AltitudeMeters>1725.5999755859375</AltitudeMeters>
            <DistanceMeters>5502.6879443695</DistanceMeters>
          </Trackpoint>
          <Trackpoint>
            <Time>2022-07-09T08:50:43.000Z</Time>
            <Position>
              <LatitudeDegrees>42.826223485171794891357421875</LatitudeDegrees>
              <LongitudeDegrees>-0.13985213823616504669189453125</LongitudeDegrees>
            </Position>
            <AltitudeMeters>1725.5999755859375</AltitudeMeters>
            <DistanceMeters>5503.3324469036</DistanceMeters>
          </Trackpoint>
          <Trackpoint>
            <Time>2022-07-09T08:50:48.000Z</Time>
            <Position>
              <LatitudeDegrees>42.82619607634842395782470703125</LatitudeDegrees>
              <LongitudeDegrees>-0.1398391462862491607666015625</LongitudeDegrees>
            </Position>
            <AltitudeMeters>1726</AltitudeMeters>
            <DistanceMeters>5506.5619574381</DistanceMeters>
          </Trackpoint>
          <Trackpoint>
            <Time>2022-07-09T08:50:51.000Z</Time>
            <Position>
              <LatitudeDegrees>42.8261723555624485015869140625</LatitudeDegrees>
              <LongitudeDegrees>-0.139856077730655670166015625</LongitudeDegrees>
            </Position>
            <AltitudeMeters>1726</AltitudeMeters>
            <DistanceMeters>5509.5397981102</DistanceMeters>
          </Trackpoint>
          <Trackpoint>
            <Time>2022-07-09T08:50:57.000Z</Time>
            <Position>
              <LatitudeDegrees>42.826141007244586944580078125</LatitudeDegrees>
              <LongitudeDegrees>-0.139871500432491302490234375</LongitudeDegrees>
            </Position>
            <AltitudeMeters>1726.5999755859375</AltitudeMeters>
            <DistanceMeters>5513.2494930438</DistanceMeters>
          </Trackpoint>
          <Trackpoint>
            <Time>2022-07-09T08:50:58.000Z</Time>
            <Position>
              <LatitudeDegrees>42.8261378221213817596435546875</LatitudeDegrees>
              <LongitudeDegrees>-0.139869488775730133056640625</LongitudeDegrees>
            </Position>
            <AltitudeMeters>1726.5999755859375</AltitudeMeters>
            <DistanceMeters>5513.6295999013</DistanceMeters>
          </Trackpoint>
          <Trackpoint>
            <Time>2022-07-09T08:50:59.000Z</Time>
            <Position>
              <LatitudeDegrees>42.8261294402182102203369140625</LatitudeDegrees>
              <LongitudeDegrees>-0.139869488775730133056640625</LongitudeDegrees>
            </Position>
            <AltitudeMeters>1726.800048828125</AltitudeMeters>
            <DistanceMeters>5514.5606677498</DistanceMeters>
          </Trackpoint>
          <Trackpoint>
            <Time>2022-07-09T08:51:05.000Z</Time>
            <Position>
              <LatitudeDegrees>42.82608568668365478515625</LatitudeDegrees>
              <LongitudeDegrees>-0.13986336998641490936279296875</LongitudeDegrees>
            </Position>
            <AltitudeMeters>1727.4000244140625</AltitudeMeters>
            <DistanceMeters>5519.4552354331</DistanceMeters>
          </Trackpoint>
          <Trackpoint>
            <Time>2022-07-09T08:51:06.000Z</Time>
            <Position>
              <LatitudeDegrees>42.826077975332736968994140625</LatitudeDegrees>
              <LongitudeDegrees>-0.1398642919957637786865234375</LongitudeDegrees>
            </Position>
            <AltitudeMeters>1727.4000244140625</AltitudeMeters>
            <DistanceMeters>5520.3157389301</DistanceMeters>
          </Trackpoint>
          <Trackpoint>
            <Time>2022-07-09T08:51:08.000Z</Time>
            <Position>
              <LatitudeDegrees>42.82606146298348903656005859375</LatitudeDegrees>
              <LongitudeDegrees>-0.13987460173666477203369140625</LongitudeDegrees>
            </Position>
            <AltitudeMeters>1727.5999755859375</AltitudeMeters>
            <DistanceMeters>5522.3382681954</DistanceMeters>
          </Trackpoint>
          <Trackpoint>
            <Time>2022-07-09T08:51:12.000Z</Time>
            <Position>
              <LatitudeDegrees>42.82601418904960155487060546875</LatitudeDegrees>
              <LongitudeDegrees>-0.13988583348691463470458984375</LongitudeDegrees>
            </Position>
            <AltitudeMeters>1727.800048828125</AltitudeMeters>
            <DistanceMeters>5527.6792429647</DistanceMeters>
          </Trackpoint>
          <Trackpoint>
            <Time>2022-07-09T08:51:17.000Z</Time>
            <Position>
              <LatitudeDegrees>42.8259644843637943267822265625</LatitudeDegrees>
              <LongitudeDegrees>-0.13990477658808231353759765625</LongitudeDegrees>
            </Position>
            <AltitudeMeters>1728.5999755859375</AltitudeMeters>
            <DistanceMeters>5533.4234486824</DistanceMeters>
          </Trackpoint>
          <Trackpoint>
            <Time>2022-07-09T08:51:18.000Z</Time>
            <Position>
              <LatitudeDegrees>42.82595534808933734893798828125</LatitudeDegrees>
              <LongitudeDegrees>-0.1399088837206363677978515625</LongitudeDegrees>
            </Position>
            <AltitudeMeters>1728.800048828125</AltitudeMeters>
            <DistanceMeters>5534.4901209056</DistanceMeters>
          </Trackpoint>
          <Trackpoint>
            <Time>2022-07-09T08:51:24.000Z</Time>
            <Position>
              <LatitudeDegrees>42.82592953182756900787353515625</LatitudeDegrees>
              <LongitudeDegrees>-0.1399172656238079071044921875</LongitudeDegrees>
            </Position>
            <AltitudeMeters>1729.5999755859375</AltitudeMeters>
            <DistanceMeters>5537.4436025536</DistanceMeters>
          </Trackpoint>
          <Trackpoint>
            <Time>2022-07-09T08:51:26.000Z</Time>
            <Position>
              <LatitudeDegrees>42.8259098343551158905029296875</LatitudeDegrees>
              <LongitudeDegrees>-0.1399122364819049835205078125</LongitudeDegrees>
            </Position>
            <AltitudeMeters>1729.800048828125</AltitudeMeters>
            <DistanceMeters>5539.6742016033</DistanceMeters>
          </Trackpoint>
          <Trackpoint>
            <Time>2022-07-09T08:51:28.000Z</Time>
            <Position>
              <LatitudeDegrees>42.8258860297501087188720703125</LatitudeDegrees>
              <LongitudeDegrees>-0.13989220373332500457763671875</LongitudeDegrees>
            </Position>
            <AltitudeMeters>1729.800048828125</AltitudeMeters>
            <DistanceMeters>5542.7884113106</DistanceMeters>
          </Trackpoint>
          <Trackpoint>
            <Time>2022-07-09T08:51:30.000Z</Time>
            <Position>
              <LatitudeDegrees>42.82586851157248020172119140625</LatitudeDegrees>
              <LongitudeDegrees>-0.139874182641506195068359375</LongitudeDegrees>
            </Position>
            <AltitudeMeters>1730</AltitudeMeters>
            <DistanceMeters>5545.233387917</DistanceMeters>
          </Trackpoint>
          <Trackpoint>
            <Time>2022-07-09T08:51:31.000Z</Time>
            <Position>
              <LatitudeDegrees>42.8258602134883403778076171875</LatitudeDegrees>
              <LongitudeDegrees>-0.13985951431095600128173828125</LongitudeDegrees>
            </Position>
            <AltitudeMeters>1730</AltitudeMeters>
            <DistanceMeters>5546.7448803385</DistanceMeters>
          </Trackpoint>
          <Trackpoint>
            <Time>2022-07-09T08:51:32.000Z</Time>
            <Position>
              <LatitudeDegrees>42.8258525021374225616455078125</LatitudeDegrees>
              <LongitudeDegrees>-0.13985163532197475433349609375</LongitudeDegrees>
            </Position>
            <AltitudeMeters>1730</AltitudeMeters>
            <DistanceMeters>5547.8199848845</DistanceMeters>
          </Trackpoint>
          <Trackpoint>
            <Time>2022-07-09T08:51:37.000Z</Time>
            <Position>
              <LatitudeDegrees>42.82581553794443607330322265625</LatitudeDegrees>
              <LongitudeDegrees>-0.1398210413753986358642578125</LongitudeDegrees>
            </Position>
            <AltitudeMeters>1730.5999755859375</AltitudeMeters>
            <DistanceMeters>5552.6326916155</DistanceMeters>
          </Trackpoint>
          <Trackpoint>
            <Time>2022-07-09T08:51:40.000Z</Time>
            <Position>
              <LatitudeDegrees>42.82579123042523860931396484375</LatitudeDegrees>
              <LongitudeDegrees>-0.13980637304484844207763671875</LongitudeDegrees>
            </Position>
            <AltitudeMeters>1730.800048828125</AltitudeMeters>
            <DistanceMeters>5555.589229117</DistanceMeters>
          </Trackpoint>
          <Trackpoint>
            <Time>2022-07-09T08:51:41.000Z</Time>
            <Position>
              <LatitudeDegrees>42.8257841058075428009033203125</LatitudeDegrees>
              <LongitudeDegrees>-0.13980151154100894927978515625</LongitudeDegrees>
            </Position>
            <AltitudeMeters>1730.800048828125</AltitudeMeters>
            <DistanceMeters>5556.470470613</DistanceMeters>
          </Trackpoint>
          <Trackpoint>
            <Time>2022-07-09T08:51:43.000Z</Time>
            <Position>
              <LatitudeDegrees>42.82576256431639194488525390625</LatitudeDegrees>
              <LongitudeDegrees>-0.13979782350361347198486328125</LongitudeDegrees>
            </Position>
            <AltitudeMeters>1730.800048828125</AltitudeMeters>
            <DistanceMeters>5558.8857199547</DistanceMeters>
          </Trackpoint>
          <Trackpoint>
            <Time>2022-07-09T08:51:49.000Z</Time>
            <Position>
              <LatitudeDegrees>42.82572090625762939453125</LatitudeDegrees>
              <LongitudeDegrees>-0.1397727616131305694580078125</LongitudeDegrees>
            </Position>
            <AltitudeMeters>1731.5999755859375</AltitudeMeters>
            <DistanceMeters>5563.9534154277</DistanceMeters>
          </Trackpoint>
          <Trackpoint>
            <Time>2022-07-09T08:51:55.000Z</Time>
            <Position>
              <LatitudeDegrees>42.82568545080721378326416015625</LatitudeDegrees>
              <LongitudeDegrees>-0.1397375576198101043701171875</LongitudeDegrees>
            </Position>
            <AltitudeMeters>1731.4000244140625</AltitudeMeters>
            <DistanceMeters>5568.8350516017</DistanceMeters>
          </Trackpoint>
          <Trackpoint>
            <Time>2022-07-09T08:51:57.000Z</Time>
            <Position>
              <LatitudeDegrees>42.82566265203058719635009765625</LatitudeDegrees>
              <LongitudeDegrees>-0.13971827924251556396484375</LongitudeDegrees>
            </Position>
            <AltitudeMeters>1731.5999755859375</AltitudeMeters>
            <DistanceMeters>5571.8189509589</DistanceMeters>
          </Trackpoint>
          <Trackpoint>
            <Time>2022-07-09T08:51:58.000Z</Time>
            <Position>
              <LatitudeDegrees>42.825654186308383941650390625</LatitudeDegrees>
              <LongitudeDegrees>-0.1397149264812469482421875</LongitudeDegrees>
            </Position>
            <AltitudeMeters>1731.800048828125</AltitudeMeters>
            <DistanceMeters>5572.7973108636</DistanceMeters>
          </Trackpoint>
          <Trackpoint>
            <Time>2022-07-09T08:52:01.000Z</Time>
            <Position>
              <LatitudeDegrees>42.82561956904828548431396484375</LatitudeDegrees>
              <LongitudeDegrees>-0.13970042578876018524169921875</LongitudeDegrees>
            </Position>
            <AltitudeMeters>1732.4000244140625</AltitudeMeters>
            <DistanceMeters>5576.828952911</DistanceMeters>
          </Trackpoint>
          <Trackpoint>
            <Time>2022-07-09T08:52:05.000Z</Time>
            <Position>
              <LatitudeDegrees>42.82557078637182712554931640625</LatitudeDegrees>
              <LongitudeDegrees>-0.1396778784692287445068359375</LongitudeDegrees>
            </Position>
            <AltitudeMeters>1732.5999755859375</AltitudeMeters>
            <DistanceMeters>5582.5621438425</DistanceMeters>
          </Trackpoint>
          <Trackpoint>
            <Time>2022-07-09T08:52:07.000Z</Time>
            <Position>
              <LatitudeDegrees>42.8255487419664859771728515625</LatitudeDegrees>
              <LongitudeDegrees>-0.13966036029160022735595703125</LongitudeDegrees>
            </Position>
            <AltitudeMeters>1732.800048828125</AltitudeMeters>
            <DistanceMeters>5585.4002467631</DistanceMeters>
          </Trackpoint>
          <Trackpoint>
            <Time>2022-07-09T08:52:12.000Z</Time>
            <Position>
              <LatitudeDegrees>42.82547959126532077789306640625</LatitudeDegrees>
              <LongitudeDegrees>-0.13966597616672515869140625</LongitudeDegrees>
            </Position>
            <AltitudeMeters>1733.800048828125</AltitudeMeters>
            <DistanceMeters>5593.1103046896</DistanceMeters>
          </Trackpoint>
          <Trackpoint>
            <Time>2022-07-09T08:52:13.000Z</Time>
            <Position>
              <LatitudeDegrees>42.82546651549637317657470703125</LatitudeDegrees>
              <LongitudeDegrees>-0.1396671496331691741943359375</LongitudeDegrees>
            </Position>
            <AltitudeMeters>1733.800048828125</AltitudeMeters>
            <DistanceMeters>5594.5670366362</DistanceMeters>
          </Trackpoint>
          <Trackpoint>
            <Time>2022-07-09T08:52:15.000Z</Time>
            <Position>
              <LatitudeDegrees>42.8254471533000469207763671875</LatitudeDegrees>
              <LongitudeDegrees>-0.13966731727123260498046875</LongitudeDegrees>
            </Position>
            <AltitudeMeters>1734</AltitudeMeters>
            <DistanceMeters>5596.7214412622</DistanceMeters>
          </Trackpoint>
          <Trackpoint>
            <Time>2022-07-09T08:52:18.000Z</Time>
            <Position>
              <LatitudeDegrees>42.8254196606576442718505859375</LatitudeDegrees>
              <LongitudeDegrees>-0.13966304250061511993408203125</LongitudeDegrees>
            </Position>
            <AltitudeMeters>1734</AltitudeMeters>
            <DistanceMeters>5599.8006587384</DistanceMeters>
          </Trackpoint>
          <Trackpoint>
            <Time>2022-07-09T08:52:21.000Z</Time>
            <Position>
              <LatitudeDegrees>42.825380265712738037109375</LatitudeDegrees>
              <LongitudeDegrees>-0.139659941196441650390625</LongitudeDegrees>
            </Position>
            <AltitudeMeters>1734</AltitudeMeters>
            <DistanceMeters>5604.1924969964</DistanceMeters>
          </Trackpoint>
          <Trackpoint>
            <Time>2022-07-09T08:52:22.000Z</Time>
            <Position>
              <LatitudeDegrees>42.82536744140088558197021484375</LatitudeDegrees>
              <LongitudeDegrees>-0.13965868391096591949462890625</LongitudeDegrees>
            </Position>
            <AltitudeMeters>1734.199951171875</AltitudeMeters>
            <DistanceMeters>5605.6242188104</DistanceMeters>
          </Trackpoint>
          <Trackpoint>
            <Time>2022-07-09T08:52:26.000Z</Time>
            <Position>
              <LatitudeDegrees>42.82531924545764923095703125</LatitudeDegrees>
              <LongitudeDegrees>-0.13966153375804424285888671875</LongitudeDegrees>
            </Position>
            <AltitudeMeters>1734.5999755859375</AltitudeMeters>
            <DistanceMeters>5610.9946996234</DistanceMeters>
          </Trackpoint>
          <Trackpoint>
            <Time>2022-07-09T08:52:28.000Z</Time>
            <Position>
              <LatitudeDegrees>42.8252949379384517669677734375</LatitudeDegrees>
              <LongitudeDegrees>-0.13965365476906299591064453125</LongitudeDegrees>
            </Position>
            <AltitudeMeters>1734.5999755859375</AltitudeMeters>
            <DistanceMeters>5613.7749415977</DistanceMeters>
          </Trackpoint>
          <Trackpoint>
            <Time>2022-07-09T08:52:32.000Z</Time>
            <Position>
              <LatitudeDegrees>42.8252506814897060394287109375</LatitudeDegrees>
              <LongitudeDegrees>-0.139640159904956817626953125</LongitudeDegrees>
            </Position>
            <AltitudeMeters>1735</AltitudeMeters>
            <DistanceMeters>5618.8221037358</DistanceMeters>
          </Trackpoint>
          <Trackpoint>
            <Time>2022-07-09T08:52:35.000Z</Time>
            <Position>
              <LatitudeDegrees>42.82522536814212799072265625</LatitudeDegrees>
              <LongitudeDegrees>-0.13964426703751087188720703125</LongitudeDegrees>
            </Position>
            <AltitudeMeters>1735.199951171875</AltitudeMeters>
            <DistanceMeters>5621.6586153455</DistanceMeters>
          </Trackpoint>
          <Trackpoint>
            <Time>2022-07-09T08:52:38.000Z</Time>
            <Position>
              <LatitudeDegrees>42.82519997097551822662353515625</LatitudeDegrees>
              <LongitudeDegrees>-0.13964661397039890289306640625</LongitudeDegrees>
            </Position>
            <AltitudeMeters>1735.199951171875</AltitudeMeters>
            <DistanceMeters>5624.4919416519</DistanceMeters>
          </Trackpoint>
          <Trackpoint>
            <Time>2022-07-09T08:52:44.000Z</Time>
            <Position>
              <LatitudeDegrees>42.82515252940356731414794921875</LatitudeDegrees>
              <LongitudeDegrees>-0.13965851627290248870849609375</LongitudeDegrees>
            </Position>
            <AltitudeMeters>1735.4000244140625</AltitudeMeters>
            <DistanceMeters>5629.8607407736</DistanceMeters>
          </Trackpoint>
          <Trackpoint>
            <Time>2022-07-09T08:52:48.000Z</Time>
            <Position>
              <LatitudeDegrees>42.8251309879124164581298828125</LatitudeDegrees>
              <LongitudeDegrees>-0.13964694924652576446533203125</LongitudeDegrees>
            </Position>
            <AltitudeMeters>1736</AltitudeMeters>
            <DistanceMeters>5632.4387509099</DistanceMeters>
          </Trackpoint>
          <Trackpoint>
            <Time>2022-07-09T08:52:53.000Z</Time>
            <Position>
              <LatitudeDegrees>42.82509150914847850799560546875</LatitudeDegrees>
              <LongitudeDegrees>-0.139631442725658416748046875</LongitudeDegrees>
            </Position>
            <AltitudeMeters>1736.5999755859375</AltitudeMeters>
            <DistanceMeters>5637.0118961125</DistanceMeters>
          </Trackpoint>
          <Trackpoint>
            <Time>2022-07-09T08:52:54.000Z</Time>
            <Position>
              <LatitudeDegrees>42.82508547417819499969482421875</LatitudeDegrees>
              <LongitudeDegrees>-0.13963739387691020965576171875</LongitudeDegrees>
            </Position>
            <AltitudeMeters>1736.800048828125</AltitudeMeters>
            <DistanceMeters>5637.8403198022</DistanceMeters>
          </Trackpoint>
          <Trackpoint>
            <Time>2022-07-09T08:52:55.000Z</Time>
            <Position>
              <LatitudeDegrees>42.8250776790082454681396484375</LatitudeDegrees>
              <LongitudeDegrees>-0.13964158482849597930908203125</LongitudeDegrees>
            </Position>
            <AltitudeMeters>1737.199951171875</AltitudeMeters>
            <DistanceMeters>5638.7762243994</DistanceMeters>
          </Trackpoint>
          <Trackpoint>
            <Time>2022-07-09T08:52:56.000Z</Time>
            <Position>
              <LatitudeDegrees>42.82506887800991535186767578125</LatitudeDegrees>
              <LongitudeDegrees>-0.1396436803042888641357421875</LongitudeDegrees>
            </Position>
            <AltitudeMeters>1737.199951171875</AltitudeMeters>
            <DistanceMeters>5639.7728729879</DistanceMeters>
          </Trackpoint>
          <Trackpoint>
            <Time>2022-07-09T08:52:58.000Z</Time>
            <Position>
              <LatitudeDegrees>42.8250508569180965423583984375</LatitudeDegrees>
              <LongitudeDegrees>-0.13964376412332057952880859375</LongitudeDegrees>
            </Position>
            <AltitudeMeters>1737.4000244140625</AltitudeMeters>
            <DistanceMeters>5641.7797148087</DistanceMeters>
          </Trackpoint>
          <Trackpoint>
            <Time>2022-07-09T08:52:59.000Z</Time>
            <Position>
              <LatitudeDegrees>42.82504205591976642608642578125</LatitudeDegrees>
              <LongitudeDegrees>-0.139645524322986602783203125</LongitudeDegrees>
            </Position>
            <AltitudeMeters>1737.5999755859375</AltitudeMeters>
            <DistanceMeters>5642.7672613929</DistanceMeters>
          </Trackpoint>
          <Trackpoint>
            <Time>2022-07-09T08:53:02.000Z</Time>
            <Position>
              <LatitudeDegrees>42.82502286136150360107421875</LatitudeDegrees>
              <LongitudeDegrees>-0.139655582606792449951171875</LongitudeDegrees>
            </Position>
            <AltitudeMeters>1738.199951171875</AltitudeMeters>
            <DistanceMeters>5645.0558077301</DistanceMeters>
          </Trackpoint>
          <Trackpoint>
            <Time>2022-07-09T08:53:06.000Z</Time>
            <Position>
              <LatitudeDegrees>42.82499075867235660552978515625</LatitudeDegrees>
              <LongitudeDegrees>-0.13963974080979824066162109375</LongitudeDegrees>
            </Position>
            <AltitudeMeters>1739</AltitudeMeters>
            <DistanceMeters>5648.8568763049</DistanceMeters>
          </Trackpoint>
          <Trackpoint>
            <Time>2022-07-09T08:53:07.000Z</Time>
            <Position>
              <LatitudeDegrees>42.8249817900359630584716796875</LatitudeDegrees>
              <LongitudeDegrees>-0.13963554985821247100830078125</LongitudeDegrees>
            </Position>
            <AltitudeMeters>1739.199951171875</AltitudeMeters>
            <DistanceMeters>5649.9150490125</DistanceMeters>
          </Trackpoint>
          <Trackpoint>
            <Time>2022-07-09T08:53:10.000Z</Time>
            <Position>
              <LatitudeDegrees>42.8249573148787021636962890625</LatitudeDegrees>
              <LongitudeDegrees>-0.1396326161921024322509765625</LongitudeDegrees>
            </Position>
            <AltitudeMeters>1739.4000244140625</AltitudeMeters>
            <DistanceMeters>5652.6494416865</DistanceMeters>
          </Trackpoint>
          <Trackpoint>
            <Time>2022-07-09T08:53:12.000Z</Time>
            <Position>
              <LatitudeDegrees>42.8249425627291202545166015625</LatitudeDegrees>
              <LongitudeDegrees>-0.1396346278488636016845703125</LongitudeDegrees>
            </Position>
            <AltitudeMeters>1739.4000244140625</AltitudeMeters>
            <DistanceMeters>5654.2980935629</DistanceMeters>
          </Trackpoint>
          <Trackpoint>
            <Time>2022-07-09T08:53:14.000Z</Time>
            <Position>
              <LatitudeDegrees>42.82492252998054027557373046875</LatitudeDegrees>
              <LongitudeDegrees>-0.13963722623884677886962890625</LongitudeDegrees>
            </Position>
            <AltitudeMeters>1739.5999755859375</AltitudeMeters>
            <DistanceMeters>5656.5367745197</DistanceMeters>
          </Trackpoint>
          <Trackpoint>
            <Time>2022-07-09T08:53:17.000Z</Time>
            <Position>
              <LatitudeDegrees>42.82489369623363018035888671875</LatitudeDegrees>
              <LongitudeDegrees>-0.139638148248195648193359375</LongitudeDegrees>
            </Position>
            <AltitudeMeters>1740.199951171875</AltitudeMeters>
            <DistanceMeters>5659.7480588888</DistanceMeters>
          </Trackpoint>
          <Trackpoint>
            <Time>2022-07-09T08:53:18.000Z</Time>
            <Position>
              <LatitudeDegrees>42.8248869068920612335205078125</LatitudeDegrees>
              <LongitudeDegrees>-0.139638483524322509765625</LongitudeDegrees>
            </Position>
            <AltitudeMeters>1740.4000244140625</AltitudeMeters>
            <DistanceMeters>5660.5082726038</DistanceMeters>
          </Trackpoint>
          <Trackpoint>
            <Time>2022-07-09T08:53:19.000Z</Time>
            <Position>
              <LatitudeDegrees>42.82487592659890651702880859375</LatitudeDegrees>
              <LongitudeDegrees>-0.1396416686475276947021484375</LongitudeDegrees>
            </Position>
            <AltitudeMeters>1740.5999755859375</AltitudeMeters>
            <DistanceMeters>5661.7545362791</DistanceMeters>
          </Trackpoint>
          <Trackpoint>
            <Time>2022-07-09T08:53:25.000Z</Time>
            <Position>
              <LatitudeDegrees>42.8248275630176067352294921875</LatitudeDegrees>
              <LongitudeDegrees>-0.13964074663817882537841796875</LongitudeDegrees>
            </Position>
            <AltitudeMeters>1741.199951171875</AltitudeMeters>
            <DistanceMeters>5667.1384517116</DistanceMeters>
          </Trackpoint>
          <Trackpoint>
            <Time>2022-07-09T08:53:27.000Z</Time>
            <Position>
              <LatitudeDegrees>42.8248210251331329345703125</LatitudeDegrees>
              <LongitudeDegrees>-0.13962783850729465484619140625</LongitudeDegrees>
            </Position>
            <AltitudeMeters>1741.199951171875</AltitudeMeters>
            <DistanceMeters>5668.4204321767</DistanceMeters>
          </Trackpoint>
          <Trackpoint>
            <Time>2022-07-09T08:53:28.000Z</Time>
            <Position>
              <LatitudeDegrees>42.8248191811144351959228515625</LatitudeDegrees>
              <LongitudeDegrees>-0.139623396098613739013671875</LongitudeDegrees>
            </Position>
            <AltitudeMeters>1741.4000244140625</AltitudeMeters>
            <DistanceMeters>5668.8454045627</DistanceMeters>
          </Trackpoint>
          <Trackpoint>
            <Time>2022-07-09T08:53:32.000Z</Time>
            <Position>
              <LatitudeDegrees>42.82479328103363513946533203125</LatitudeDegrees>
              <LongitudeDegrees>-0.1396228931844234466552734375</LongitudeDegrees>
            </Position>
            <AltitudeMeters>1741.5999755859375</AltitudeMeters>
            <DistanceMeters>5671.7277075184</DistanceMeters>
          </Trackpoint>
          <Trackpoint>
            <Time>2022-07-09T08:53:35.000Z</Time>
            <Position>
              <LatitudeDegrees>42.8247682191431522369384765625</LatitudeDegrees>
              <LongitudeDegrees>-0.139637477695941925048828125</LongitudeDegrees>
            </Position>
            <AltitudeMeters>1741.5999755859375</AltitudeMeters>
            <DistanceMeters>5674.7596405355</DistanceMeters>
          </Trackpoint>
          <Trackpoint>
            <Time>2022-07-09T08:53:37.000Z</Time>
            <Position>
              <LatitudeDegrees>42.82474734820425510406494140625</LatitudeDegrees>
              <LongitudeDegrees>-0.1396371424198150634765625</LongitudeDegrees>
            </Position>
            <AltitudeMeters>1741.4000244140625</AltitudeMeters>
            <DistanceMeters>5677.0814836906</DistanceMeters>
          </Trackpoint>
          <Trackpoint>
            <Time>2022-07-09T08:53:42.000Z</Time>
            <Position>
              <LatitudeDegrees>42.8247035108506679534912109375</LatitudeDegrees>
              <LongitudeDegrees>-0.13963638804852962493896484375</LongitudeDegrees>
            </Position>
            <AltitudeMeters>1741.4000244140625</AltitudeMeters>
            <DistanceMeters>5681.9612697087</DistanceMeters>
          </Trackpoint>
          <Trackpoint>
            <Time>2022-07-09T08:53:44.000Z</Time>
            <Position>
              <LatitudeDegrees>42.82468481920659542083740234375</LatitudeDegrees>
              <LongitudeDegrees>-0.139632113277912139892578125</LongitudeDegrees>
            </Position>
            <AltitudeMeters>1741.800048828125</AltitudeMeters>
            <DistanceMeters>5684.0690641983</DistanceMeters>
          </Trackpoint>
          <Trackpoint>
            <Time>2022-07-09T08:53:46.000Z</Time>
            <Position>
              <LatitudeDegrees>42.8246696479618549346923828125</LatitudeDegrees>
              <LongitudeDegrees>-0.13962331227958202362060546875</LongitudeDegrees>
            </Position>
            <AltitudeMeters>1742</AltitudeMeters>
            <DistanceMeters>5685.901873091</DistanceMeters>
          </Trackpoint>
          <Trackpoint>
            <Time>2022-07-09T08:53:48.000Z</Time>
            <Position>
              <LatitudeDegrees>42.82465028576552867889404296875</LatitudeDegrees>
              <LongitudeDegrees>-0.13961945660412311553955078125</LongitudeDegrees>
            </Position>
            <AltitudeMeters>1742</AltitudeMeters>
            <DistanceMeters>5688.0812813156</DistanceMeters>
          </Trackpoint>
          <Trackpoint>
            <Time>2022-07-09T08:53:50.000Z</Time>
            <Position>
              <LatitudeDegrees>42.82463729381561279296875</LatitudeDegrees>
              <LongitudeDegrees>-0.13960696756839752197265625</LongitudeDegrees>
            </Position>
            <AltitudeMeters>1742.199951171875</AltitudeMeters>
            <DistanceMeters>5689.8488803792</DistanceMeters>
          </Trackpoint>
          <Trackpoint>
            <Time>2022-07-09T08:53:54.000Z</Time>
            <Position>
              <LatitudeDegrees>42.8246118128299713134765625</LatitudeDegrees>
              <LongitudeDegrees>-0.13959623873233795166015625</LongitudeDegrees>
            </Position>
            <AltitudeMeters>1742.199951171875</AltitudeMeters>
            <DistanceMeters>5692.8160885844</DistanceMeters>
          </Trackpoint>
          <Trackpoint>
            <Time>2022-07-09T08:53:58.000Z</Time>
            <Position>
              <LatitudeDegrees>42.8245925344526767730712890625</LatitudeDegrees>
              <LongitudeDegrees>-0.13960286043584346771240234375</LongitudeDegrees>
            </Position>
            <AltitudeMeters>1742.4000244140625</AltitudeMeters>
            <DistanceMeters>5695.0283953969</DistanceMeters>
          </Trackpoint>
          <Trackpoint>
            <Time>2022-07-09T08:54:01.000Z</Time>
            <Position>
              <LatitudeDegrees>42.82456847839057445526123046875</LatitudeDegrees>
              <LongitudeDegrees>-0.13957612216472625732421875</LongitudeDegrees>
            </Position>
            <AltitudeMeters>1742.199951171875</AltitudeMeters>
            <DistanceMeters>5698.4835019161</DistanceMeters>
          </Trackpoint>
          <Trackpoint>
            <Time>2022-07-09T08:54:04.000Z</Time>
            <Position>
              <LatitudeDegrees>42.8245539776980876922607421875</LatitudeDegrees>
              <LongitudeDegrees>-0.1395407505333423614501953125</LongitudeDegrees>
            </Position>
            <AltitudeMeters>1742.4000244140625</AltitudeMeters>
            <DistanceMeters>5701.7890113318</DistanceMeters>
          </Trackpoint>
          <Trackpoint>
            <Time>2022-07-09T08:54:06.000Z</Time>
            <Position>
              <LatitudeDegrees>42.8245432488620281219482421875</LatitudeDegrees>
              <LongitudeDegrees>-0.1395249925553798675537109375</LongitudeDegrees>
            </Position>
            <AltitudeMeters>1742.5999755859375</AltitudeMeters>
            <DistanceMeters>5703.5412173673</DistanceMeters>
          </Trackpoint>
          <Trackpoint>
            <Time>2022-07-09T08:54:08.000Z</Time>
            <Position>
              <LatitudeDegrees>42.8245321847498416900634765625</LatitudeDegrees>
              <LongitudeDegrees>-0.13951535336673259735107421875</LongitudeDegrees>
            </Position>
            <AltitudeMeters>1742.5999755859375</AltitudeMeters>
            <DistanceMeters>5705.0010454533</DistanceMeters>
          </Trackpoint>
          <Trackpoint>
            <Time>2022-07-09T08:54:14.000Z</Time>
            <Position>
              <LatitudeDegrees>42.824490107595920562744140625</LatitudeDegrees>
              <LongitudeDegrees>-0.13948668725788593292236328125</LongitudeDegrees>
            </Position>
            <AltitudeMeters>1743.199951171875</AltitudeMeters>
            <DistanceMeters>5710.237008792</DistanceMeters>
          </Trackpoint>
          <Trackpoint>
            <Time>2022-07-09T08:54:15.000Z</Time>
            <Position>
              <LatitudeDegrees>42.8244825638830661773681640625</LatitudeDegrees>
              <LongitudeDegrees>-0.13948601670563220977783203125</LongitudeDegrees>
            </Position>
            <AltitudeMeters>1743.4000244140625</AltitudeMeters>
            <DistanceMeters>5711.0762620092</DistanceMeters>
          </Trackpoint>
          <Trackpoint>
            <Time>2022-07-09T08:54:16.000Z</Time>
            <Position>
              <LatitudeDegrees>42.82447443343698978424072265625</LatitudeDegrees>
              <LongitudeDegrees>-0.1394844241440296173095703125</LongitudeDegrees>
            </Position>
            <AltitudeMeters>1743.5999755859375</AltitudeMeters>
            <DistanceMeters>5711.9877262339</DistanceMeters>
          </Trackpoint>
          <Trackpoint>
            <Time>2022-07-09T08:54:22.000Z</Time>
            <Position>
              <LatitudeDegrees>42.82445364631712436676025390625</LatitudeDegrees>
              <LongitudeDegrees>-0.13946606777608394622802734375</LongitudeDegrees>
            </Position>
            <AltitudeMeters>1743.800048828125</AltitudeMeters>
            <DistanceMeters>5714.7451388555</DistanceMeters>
          </Trackpoint>
          <Trackpoint>
            <Time>2022-07-09T08:54:28.000Z</Time>
            <Position>
              <LatitudeDegrees>42.8244225494563579559326171875</LatitudeDegrees>
              <LongitudeDegrees>-0.139430277049541473388671875</LongitudeDegrees>
            </Position>
            <AltitudeMeters>1743.800048828125</AltitudeMeters>
            <DistanceMeters>5719.2746348187</DistanceMeters>
          </Trackpoint>
          <Trackpoint>
            <Time>2022-07-09T08:54:32.000Z</Time>
            <Position>
              <LatitudeDegrees>42.82439396716654300689697265625</LatitudeDegrees>
              <LongitudeDegrees>-0.13940638862550258636474609375</LongitudeDegrees>
            </Position>
            <AltitudeMeters>1744.5999755859375</AltitudeMeters>
            <DistanceMeters>5723.0061730909</DistanceMeters>
          </Trackpoint>
          <Trackpoint>
            <Time>2022-07-09T08:54:33.000Z</Time>
            <Position>
              <LatitudeDegrees>42.8243913687765598297119140625</LatitudeDegrees>
              <LongitudeDegrees>-0.139392726123332977294921875</LongitudeDegrees>
            </Position>
            <AltitudeMeters>1744.800048828125</AltitudeMeters>
            <DistanceMeters>5724.1583107724</DistanceMeters>
          </Trackpoint>
          <Trackpoint>
            <Time>2022-07-09T08:54:35.000Z</Time>
            <Position>
              <LatitudeDegrees>42.824386171996593475341796875</LatitudeDegrees>
              <LongitudeDegrees>-0.1393781416118144989013671875</LongitudeDegrees>
            </Position>
            <AltitudeMeters>1745</AltitudeMeters>
            <DistanceMeters>5725.4818797469</DistanceMeters>
          </Trackpoint>
          <Trackpoint>
            <Time>2022-07-09T08:54:39.000Z</Time>
            <Position>
              <LatitudeDegrees>42.8243756107985973358154296875</LatitudeDegrees>
              <LongitudeDegrees>-0.13933061622083187103271484375</LongitudeDegrees>
            </Position>
            <AltitudeMeters>1745.5999755859375</AltitudeMeters>
            <DistanceMeters>5729.5369715096</DistanceMeters>
          </Trackpoint>
          <Trackpoint>
            <Time>2022-07-09T08:54:42.000Z</Time>
            <Position>
              <LatitudeDegrees>42.824361026287078857421875</LatitudeDegrees>
              <LongitudeDegrees>-0.13931737281382083892822265625</LongitudeDegrees>
            </Position>
            <AltitudeMeters>1745.800048828125</AltitudeMeters>
            <DistanceMeters>5731.4890709588</DistanceMeters>
          </Trackpoint>
          <Trackpoint>
            <Time>2022-07-09T08:54:47.000Z</Time>
            <Position>
              <LatitudeDegrees>42.82432775013148784637451171875</LatitudeDegrees>
              <LongitudeDegrees>-0.1392688415944576263427734375</LongitudeDegrees>
            </Position>
            <AltitudeMeters>1746.800048828125</AltitudeMeters>
            <DistanceMeters>5736.9122581193</DistanceMeters>
          </Trackpoint>
          <Trackpoint>
            <Time>2022-07-09T08:54:50.000Z</Time>
            <Position>
              <LatitudeDegrees>42.82431702129542827606201171875</LatitudeDegrees>
              <LongitudeDegrees>-0.1392507366836071014404296875</LongitudeDegrees>
            </Position>
            <AltitudeMeters>1747</AltitudeMeters>
            <DistanceMeters>5738.8127924067</DistanceMeters>
          </Trackpoint>
          <Trackpoint>
            <Time>2022-07-09T08:54:56.000Z</Time>
            <Position>
              <LatitudeDegrees>42.8242730163037776947021484375</LatitudeDegrees>
              <LongitudeDegrees>-0.13920539058744907379150390625</LongitudeDegrees>
            </Position>
            <AltitudeMeters>1747.4000244140625</AltitudeMeters>
            <DistanceMeters>5744.9521359447</DistanceMeters>
          </Trackpoint>
          <Trackpoint>
            <Time>2022-07-09T08:54:59.000Z</Time>
            <Position>
              <LatitudeDegrees>42.82425549812614917755126953125</LatitudeDegrees>
              <LongitudeDegrees>-0.1391838490962982177734375</LongitudeDegrees>
            </Position>
            <AltitudeMeters>1747.800048828125</AltitudeMeters>
            <DistanceMeters>5747.5787265871</DistanceMeters>
          </Trackpoint>
          <Trackpoint>
            <Time>2022-07-09T08:55:00.000Z</Time>
            <Position>
              <LatitudeDegrees>42.82425281591713428497314453125</LatitudeDegrees>
              <LongitudeDegrees>-0.13918058015406131744384765625</LongitudeDegrees>
            </Position>
            <AltitudeMeters>1748</AltitudeMeters>
            <DistanceMeters>5747.9818907919</DistanceMeters>
          </Trackpoint>
          <Trackpoint>
            <Time>2022-07-09T08:55:03.000Z</Time>
            <Position>
              <LatitudeDegrees>42.8242297656834125518798828125</LatitudeDegrees>
              <LongitudeDegrees>-0.1391551829874515533447265625</LongitudeDegrees>
            </Position>
            <AltitudeMeters>1748.199951171875</AltitudeMeters>
            <DistanceMeters>5751.2805635727</DistanceMeters>
          </Trackpoint>
          <Trackpoint>
            <Time>2022-07-09T08:55:05.000Z</Time>
            <Position>
              <LatitudeDegrees>42.82421962358057498931884765625</LatitudeDegrees>
              <LongitudeDegrees>-0.1391333900392055511474609375</LongitudeDegrees>
            </Position>
            <AltitudeMeters>1748.5999755859375</AltitudeMeters>
            <DistanceMeters>5753.3883580623</DistanceMeters>
          </Trackpoint>
          <Trackpoint>
            <Time>2022-07-09T08:55:07.000Z</Time>
            <Position>
              <LatitudeDegrees>42.8242066316306591033935546875</LatitudeDegrees>
              <LongitudeDegrees>-0.13912425376474857330322265625</LongitudeDegrees>
            </Position>
            <AltitudeMeters>1748.800048828125</AltitudeMeters>
            <DistanceMeters>5755.0177267973</DistanceMeters>
          </Trackpoint>
          <Trackpoint>
            <Time>2022-07-09T08:55:08.000Z</Time>
            <Position>
              <LatitudeDegrees>42.8241999261081218719482421875</LatitudeDegrees>
              <LongitudeDegrees>-0.13912106864154338836669921875</LongitudeDegrees>
            </Position>
            <AltitudeMeters>1748.800048828125</AltitudeMeters>
            <DistanceMeters>5755.812777331</DistanceMeters>
          </Trackpoint>
          <Trackpoint>
            <Time>2022-07-09T08:55:10.000Z</Time>
            <Position>
              <LatitudeDegrees>42.8241861797869205474853515625</LatitudeDegrees>
              <LongitudeDegrees>-0.13911805115640163421630859375</LongitudeDegrees>
            </Position>
            <AltitudeMeters>1749</AltitudeMeters>
            <DistanceMeters>5757.36261614</DistanceMeters>
          </Trackpoint>
          <Trackpoint>
            <Time>2022-07-09T08:55:14.000Z</Time>
            <Position>
              <LatitudeDegrees>42.82415960915386676788330078125</LatitudeDegrees>
              <LongitudeDegrees>-0.1390871219336986541748046875</LongitudeDegrees>
            </Position>
            <AltitudeMeters>1749.199951171875</AltitudeMeters>
            <DistanceMeters>5761.25059093</DistanceMeters>
          </Trackpoint>
          <Trackpoint>
            <Time>2022-07-09T08:55:19.000Z</Time>
            <Position>
              <LatitudeDegrees>42.8241358883678913116455078125</LatitudeDegrees>
              <LongitudeDegrees>-0.13904571533203125</LongitudeDegrees>
            </Position>
            <AltitudeMeters>1749.800048828125</AltitudeMeters>
            <DistanceMeters>5765.5404971985</DistanceMeters>
          </Trackpoint>
          <Trackpoint>
            <Time>2022-07-09T08:55:22.000Z</Time>
            <Position>
              <LatitudeDegrees>42.824114263057708740234375</LatitudeDegrees>
              <LongitudeDegrees>-0.13902224600315093994140625</LongitudeDegrees>
            </Position>
            <AltitudeMeters>1750.199951171875</AltitudeMeters>
            <DistanceMeters>5768.6167806889</DistanceMeters>
          </Trackpoint>
          <Trackpoint>
            <Time>2022-07-09T08:55:24.000Z</Time>
            <Position>
              <LatitudeDegrees>42.82409875653684139251708984375</LatitudeDegrees>
              <LongitudeDegrees>-0.1390049792826175689697265625</LongitudeDegrees>
            </Position>
            <AltitudeMeters>1750.199951171875</AltitudeMeters>
            <DistanceMeters>5770.8453546823</DistanceMeters>
          </Trackpoint>
          <Trackpoint>
            <Time>2022-07-09T08:55:25.000Z</Time>
            <Position>
              <LatitudeDegrees>42.8240929730236530303955078125</LatitudeDegrees>
              <LongitudeDegrees>-0.13899634592235088348388671875</LongitudeDegrees>
            </Position>
            <AltitudeMeters>1750.199951171875</AltitudeMeters>
            <DistanceMeters>5771.8003613424</DistanceMeters>
          </Trackpoint>
          <Trackpoint>
            <Time>2022-07-09T08:55:26.000Z</Time>
            <Position>
              <LatitudeDegrees>42.82408568076789379119873046875</LatitudeDegrees>
              <LongitudeDegrees>-0.138988383114337921142578125</LongitudeDegrees>
            </Position>
            <AltitudeMeters>1750.199951171875</AltitudeMeters>
            <DistanceMeters>5772.8413268429</DistanceMeters>
          </Trackpoint>
          <Trackpoint>
            <Time>2022-07-09T08:55:27.000Z</Time>
            <Position>
              <LatitudeDegrees>42.82407796941697597503662109375</LatitudeDegrees>
              <LongitudeDegrees>-0.138981007039546966552734375</LongitudeDegrees>
            </Position>
            <AltitudeMeters>1750.5999755859375</AltitudeMeters>
            <DistanceMeters>5773.8909312094</DistanceMeters>
          </Trackpoint>
          <Trackpoint>
            <Time>2022-07-09T08:55:29.000Z</Time>
            <Position>
              <LatitudeDegrees>42.82406304962933063507080078125</LatitudeDegrees>
              <LongitudeDegrees>-0.1389714516699314117431640625</LongitudeDegrees>
            </Position>
            <AltitudeMeters>1751.5999755859375</AltitudeMeters>
            <DistanceMeters>5775.7286604033</DistanceMeters>
          </Trackpoint>
          <Trackpoint>
            <Time>2022-07-09T08:55:30.000Z</Time>
            <Position>
              <LatitudeDegrees>42.82405550591647624969482421875</LatitudeDegrees>
              <LongitudeDegrees>-0.13896055519580841064453125</LongitudeDegrees>
            </Position>
            <AltitudeMeters>1751.800048828125</AltitudeMeters>
            <DistanceMeters>5776.9529939729</DistanceMeters>
          </Trackpoint>
          <Trackpoint>
            <Time>2022-07-09T08:55:34.000Z</Time>
            <Position>
              <LatitudeDegrees>42.8240279294550418853759765625</LatitudeDegrees>
              <LongitudeDegrees>-0.13893105089664459228515625</LongitudeDegrees>
            </Position>
            <AltitudeMeters>1752.199951171875</AltitudeMeters>
            <DistanceMeters>5780.8548792717</DistanceMeters>
          </Trackpoint>
          <Trackpoint>
            <Time>2022-07-09T08:55:35.000Z</Time>
            <Position>
              <LatitudeDegrees>42.8240212239325046539306640625</LatitudeDegrees>
              <LongitudeDegrees>-0.13891638256609439849853515625</LongitudeDegrees>
            </Position>
            <AltitudeMeters>1752.199951171875</AltitudeMeters>
            <DistanceMeters>5782.2675529403</DistanceMeters>
          </Trackpoint>
          <Trackpoint>
            <Time>2022-07-09T08:55:41.000Z</Time>
            <Position>
              <LatitudeDegrees>42.82398576848208904266357421875</LatitudeDegrees>
              <LongitudeDegrees>-0.1388769038021564483642578125</LongitudeDegrees>
            </Position>
            <AltitudeMeters>1752.4000244140625</AltitudeMeters>
            <DistanceMeters>5787.3619066481</DistanceMeters>
          </Trackpoint>
          <Trackpoint>
            <Time>2022-07-09T08:55:42.000Z</Time>
            <Position>
              <LatitudeDegrees>42.82397805713117122650146484375</LatitudeDegrees>
              <LongitudeDegrees>-0.1388762332499027252197265625</LongitudeDegrees>
            </Position>
            <AltitudeMeters>1752.800048828125</AltitudeMeters>
            <DistanceMeters>5788.2276412176</DistanceMeters>
          </Trackpoint>
          <Trackpoint>
            <Time>2022-07-09T08:55:47.000Z</Time>
            <Position>
              <LatitudeDegrees>42.82393581233918666839599609375</LatitudeDegrees>
              <LongitudeDegrees>-0.1388641633093357086181640625</LongitudeDegrees>
            </Position>
            <AltitudeMeters>1753.800048828125</AltitudeMeters>
            <DistanceMeters>5793.0328368918</DistanceMeters>
          </Trackpoint>
          <Trackpoint>
            <Time>2022-07-09T08:55:50.000Z</Time>
            <Position>
              <LatitudeDegrees>42.82391033135354518890380859375</LatitudeDegrees>
              <LongitudeDegrees>-0.138851590454578399658203125</LongitudeDegrees>
            </Position>
            <AltitudeMeters>1753.800048828125</AltitudeMeters>
            <DistanceMeters>5796.0498415414</DistanceMeters>
          </Trackpoint>
          <Trackpoint>
            <Time>2022-07-09T08:55:52.000Z</Time>
            <Position>
              <LatitudeDegrees>42.8238934837281703948974609375</LatitudeDegrees>
              <LongitudeDegrees>-0.13883071951568126678466796875</LongitudeDegrees>
            </Position>
            <AltitudeMeters>1753.5999755859375</AltitudeMeters>
            <DistanceMeters>5798.5854705419</DistanceMeters>
          </Trackpoint>
          <Trackpoint>
            <Time>2022-07-09T08:55:54.000Z</Time>
            <Position>
              <LatitudeDegrees>42.82387487590312957763671875</LatitudeDegrees>
              <LongitudeDegrees>-0.13881479389965534210205078125</LongitudeDegrees>
            </Position>
            <AltitudeMeters>1753.5999755859375</AltitudeMeters>
            <DistanceMeters>5801.0322931105</DistanceMeters>
          </Trackpoint>
          <Trackpoint>
            <Time>2022-07-09T08:55:58.000Z</Time>
            <Position>
              <LatitudeDegrees>42.8238525800406932830810546875</LatitudeDegrees>
              <LongitudeDegrees>-0.13877875171601772308349609375</LongitudeDegrees>
            </Position>
            <AltitudeMeters>1754.4000244140625</AltitudeMeters>
            <DistanceMeters>5804.8817548189</DistanceMeters>
          </Trackpoint>
          <Trackpoint>
            <Time>2022-07-09T08:56:02.000Z</Time>
            <Position>
              <LatitudeDegrees>42.82384478487074375152587890625</LatitudeDegrees>
              <LongitudeDegrees>-0.13876902870833873748779296875</LongitudeDegrees>
            </Position>
            <AltitudeMeters>1754.199951171875</AltitudeMeters>
            <DistanceMeters>5806.0610053319</DistanceMeters>
          </Trackpoint>
          <Trackpoint>
            <Time>2022-07-09T08:56:04.000Z</Time>
            <Position>
              <LatitudeDegrees>42.82383891753852367401123046875</LatitudeDegrees>
              <LongitudeDegrees>-0.138766430318355560302734375</LongitudeDegrees>
            </Position>
            <AltitudeMeters>1754.199951171875</AltitudeMeters>
            <DistanceMeters>5806.7462527143</DistanceMeters>
          </Trackpoint>
          <Trackpoint>
            <Time>2022-07-09T08:56:05.000Z</Time>
            <Position>
              <LatitudeDegrees>42.8238393366336822509765625</LatitudeDegrees>
              <LongitudeDegrees>-0.13876349665224552154541015625</LongitudeDegrees>
            </Position>
            <AltitudeMeters>1754.199951171875</AltitudeMeters>
            <DistanceMeters>5806.9790196764</DistanceMeters>
          </Trackpoint>
          <Trackpoint>
            <Time>2022-07-09T08:56:07.000Z</Time>
            <Position>
              <LatitudeDegrees>42.8238420188426971435546875</LatitudeDegrees>
              <LongitudeDegrees>-0.13875260017812252044677734375</LongitudeDegrees>
            </Position>
            <AltitudeMeters>1753.800048828125</AltitudeMeters>
            <DistanceMeters>5807.9197361542</DistanceMeters>
          </Trackpoint>
          <Trackpoint>
            <Time>2022-07-09T08:56:12.000Z</Time>
            <Position>
              <LatitudeDegrees>42.823838330805301666259765625</LatitudeDegrees>
              <LongitudeDegrees>-0.13877221383154392242431640625</LongitudeDegrees>
            </Position>
            <AltitudeMeters>1753.800048828125</AltitudeMeters>
            <DistanceMeters>5809.5765835337</DistanceMeters>
          </Trackpoint>
          <Trackpoint>
            <Time>2022-07-09T08:56:13.000Z</Time>
            <Position>
              <LatitudeDegrees>42.823836989700794219970703125</LatitudeDegrees>
              <LongitudeDegrees>-0.138767100870609283447265625</LongitudeDegrees>
            </Position>
            <AltitudeMeters>1753.800048828125</AltitudeMeters>
            <DistanceMeters>5810.0120506453</DistanceMeters>
          </Trackpoint>
          <Trackpoint>
            <Time>2022-07-09T08:56:17.000Z</Time>
            <Position>
              <LatitudeDegrees>42.82385769300162792205810546875</LatitudeDegrees>
              <LongitudeDegrees>-0.13870985247194766998291015625</LongitudeDegrees>
            </Position>
            <AltitudeMeters>1754</AltitudeMeters>
            <DistanceMeters>5815.2220803756</DistanceMeters>
          </Trackpoint>
          <Trackpoint>
            <Time>2022-07-09T08:56:19.000Z</Time>
            <Position>
              <LatitudeDegrees>42.823879905045032501220703125</LatitudeDegrees>
              <LongitudeDegrees>-0.13867414556443691253662109375</LongitudeDegrees>
            </Position>
            <AltitudeMeters>1754.4000244140625</AltitudeMeters>
            <DistanceMeters>5819.0432887721</DistanceMeters>
          </Trackpoint>
          <Trackpoint>
            <Time>2022-07-09T08:56:22.000Z</Time>
            <Position>
              <LatitudeDegrees>42.82389591448009014129638671875</LatitudeDegrees>
              <LongitudeDegrees>-0.13862988911569118499755859375</LongitudeDegrees>
            </Position>
            <AltitudeMeters>1754.800048828125</AltitudeMeters>
            <DistanceMeters>5823.0704487259</DistanceMeters>
          </Trackpoint>
          <Trackpoint>
            <Time>2022-07-09T08:56:26.000Z</Time>
            <Position>
              <LatitudeDegrees>42.82392583787441253662109375</LatitudeDegrees>
              <LongitudeDegrees>-0.138581357896327972412109375</LongitudeDegrees>
            </Position>
            <AltitudeMeters>1754.800048828125</AltitudeMeters>
            <DistanceMeters>5828.2456981627</DistanceMeters>
          </Trackpoint>
          <Trackpoint>
            <Time>2022-07-09T08:56:27.000Z</Time>
            <Position>
              <LatitudeDegrees>42.82393363304436206817626953125</LatitudeDegrees>
              <LongitudeDegrees>-0.13856618665158748626708984375</LongitudeDegrees>
            </Position>
            <AltitudeMeters>1754.800048828125</AltitudeMeters>
            <DistanceMeters>5829.7601747775</DistanceMeters>
          </Trackpoint>
          <Trackpoint>
            <Time>2022-07-09T08:56:33.000Z</Time>
            <Position>
              <LatitudeDegrees>42.82398727722465991973876953125</LatitudeDegrees>
              <LongitudeDegrees>-0.138495527207851409912109375</LongitudeDegrees>
            </Position>
            <AltitudeMeters>1755.4000244140625</AltitudeMeters>
            <DistanceMeters>5838.0618338539</DistanceMeters>
          </Trackpoint>
          <Trackpoint>
            <Time>2022-07-09T08:56:34.000Z</Time>
            <Position>
              <LatitudeDegrees>42.82399289309978485107421875</LatitudeDegrees>
              <LongitudeDegrees>-0.1384891569614410400390625</LongitudeDegrees>
            </Position>
            <AltitudeMeters>1755.4000244140625</AltitudeMeters>
            <DistanceMeters>5838.8737424573</DistanceMeters>
          </Trackpoint>
          <Trackpoint>
            <Time>2022-07-09T08:56:39.000Z</Time>
            <Position>
              <LatitudeDegrees>42.82402348704636096954345703125</LatitudeDegrees>
              <LongitudeDegrees>-0.1384407095611095428466796875</LongitudeDegrees>
            </Position>
            <AltitudeMeters>1755.199951171875</AltitudeMeters>
            <DistanceMeters>5844.0915658042</DistanceMeters>
          </Trackpoint>
          <Trackpoint>
            <Time>2022-07-09T08:56:42.000Z</Time>
            <Position>
              <LatitudeDegrees>42.82403656281530857086181640625</LatitudeDegrees>
              <LongitudeDegrees>-0.138416402041912078857421875</LongitudeDegrees>
            </Position>
            <AltitudeMeters>1754.5999755859375</AltitudeMeters>
            <DistanceMeters>5846.5531062352</DistanceMeters>
          </Trackpoint>
          <Trackpoint>
            <Time>2022-07-09T08:56:44.000Z</Time>
            <Position>
              <LatitudeDegrees>42.82404913567006587982177734375</LatitudeDegrees>
              <LongitudeDegrees>-0.138404332101345062255859375</LongitudeDegrees>
            </Position>
            <AltitudeMeters>1754.4000244140625</AltitudeMeters>
            <DistanceMeters>5848.2662246912</DistanceMeters>
          </Trackpoint>
          <Trackpoint>
            <Time>2022-07-09T08:56:49.000Z</Time>
            <Position>
              <LatitudeDegrees>42.824068330228328704833984375</LatitudeDegrees>
              <LongitudeDegrees>-0.13835303485393524169921875</LongitudeDegrees>
            </Position>
            <AltitudeMeters>1755</AltitudeMeters>
            <DistanceMeters>5852.9669264536</DistanceMeters>
          </Trackpoint>
          <Trackpoint>
            <Time>2022-07-09T08:56:50.000Z</Time>
            <Position>
              <LatitudeDegrees>42.8240711800754070281982421875</LatitudeDegrees>
              <LongitudeDegrees>-0.13834624551236629486083984375</LongitudeDegrees>
            </Position>
            <AltitudeMeters>1755.199951171875</AltitudeMeters>
            <DistanceMeters>5853.6043850326</DistanceMeters>
          </Trackpoint>
          <Trackpoint>
            <Time>2022-07-09T08:56:52.000Z</Time>
            <Position>
              <LatitudeDegrees>42.82408216036856174468994140625</LatitudeDegrees>
              <LongitudeDegrees>-0.13833568431437015533447265625</LongitudeDegrees>
            </Position>
            <AltitudeMeters>1755.4000244140625</AltitudeMeters>
            <DistanceMeters>5855.100867227</DistanceMeters>
          </Trackpoint>
          <Trackpoint>
            <Time>2022-07-09T08:56:54.000Z</Time>
            <Position>
              <LatitudeDegrees>42.824087776243686676025390625</LatitudeDegrees>
              <LongitudeDegrees>-0.13831573538482189178466796875</LongitudeDegrees>
            </Position>
            <AltitudeMeters>1756</AltitudeMeters>
            <DistanceMeters>5856.8453258139</DistanceMeters>
          </Trackpoint>
          <Trackpoint>
            <Time>2022-07-09T08:56:56.000Z</Time>
            <Position>
              <LatitudeDegrees>42.8240866027772426605224609375</LatitudeDegrees>
              <LongitudeDegrees>-0.13829612173140048980712890625</LongitudeDegrees>
            </Position>
            <AltitudeMeters>1756.199951171875</AltitudeMeters>
            <DistanceMeters>5858.4523733748</DistanceMeters>
          </Trackpoint>
          <Trackpoint>
            <Time>2022-07-09T08:56:58.000Z</Time>
            <Position>
              <LatitudeDegrees>42.82407872378826141357421875</LatitudeDegrees>
              <LongitudeDegrees>-0.1382784359157085418701171875</LongitudeDegrees>
            </Position>
            <AltitudeMeters>1756.800048828125</AltitudeMeters>
            <DistanceMeters>5860.1416051992</DistanceMeters>
          </Trackpoint>
          <Trackpoint>
            <Time>2022-07-09T08:56:59.000Z</Time>
            <Position>
              <LatitudeDegrees>42.82407428137958049774169921875</LatitudeDegrees>
              <LongitudeDegrees>-0.13826980255544185638427734375</LongitudeDegrees>
            </Position>
            <AltitudeMeters>1757</AltitudeMeters>
            <DistanceMeters>5861.0021086962</DistanceMeters>
          </Trackpoint>
          <Trackpoint>
            <Time>2022-07-09T08:57:05.000Z</Time>
            <Position>
              <LatitudeDegrees>42.824011333286762237548828125</LatitudeDegrees>
              <LongitudeDegrees>-0.13820224441587924957275390625</LongitudeDegrees>
            </Position>
            <AltitudeMeters>1757.800048828125</AltitudeMeters>
            <DistanceMeters>5869.9184304161</DistanceMeters>
          </Trackpoint>
          <Trackpoint>
            <Time>2022-07-09T08:57:07.000Z</Time>
            <Position>
              <LatitudeDegrees>42.82399515621364116668701171875</LatitudeDegrees>
              <LongitudeDegrees>-0.1381976343691349029541015625</LongitudeDegrees>
            </Position>
            <AltitudeMeters>1758.199951171875</AltitudeMeters>
            <DistanceMeters>5871.7610667727</DistanceMeters>
          </Trackpoint>
          <Trackpoint>
            <Time>2022-07-09T08:57:12.000Z</Time>
            <Position>
              <LatitudeDegrees>42.82395056448876857757568359375</LatitudeDegrees>
              <LongitudeDegrees>-0.138185732066631317138671875</LongitudeDegrees>
            </Position>
            <AltitudeMeters>1759</AltitudeMeters>
            <DistanceMeters>5876.8180596034</DistanceMeters>
          </Trackpoint>
          <Trackpoint>
            <Time>2022-07-09T08:57:13.000Z</Time>
            <Position>
              <LatitudeDegrees>42.82394327223300933837890625</LatitudeDegrees>
              <LongitudeDegrees>-0.13819101266562938690185546875</LongitudeDegrees>
            </Position>
            <AltitudeMeters>1759</AltitudeMeters>
            <DistanceMeters>5877.7344640498</DistanceMeters>
          </Trackpoint>
          <Trackpoint>
            <Time>2022-07-09T08:57:14.000Z</Time>
            <Position>
              <LatitudeDegrees>42.823938913643360137939453125</LatitudeDegrees>
              <LongitudeDegrees>-0.1381941139698028564453125</LongitudeDegrees>
            </Position>
            <AltitudeMeters>1759.4000244140625</AltitudeMeters>
            <DistanceMeters>5878.2720163228</DistanceMeters>
          </Trackpoint>
          <Trackpoint>
            <Time>2022-07-09T08:57:19.000Z</Time>
            <Position>
              <LatitudeDegrees>42.82390412874519824981689453125</LatitudeDegrees>
              <LongitudeDegrees>-0.13821649365127086639404296875</LongitudeDegrees>
            </Position>
            <AltitudeMeters>1760.4000244140625</AltitudeMeters>
            <DistanceMeters>5882.5534944765</DistanceMeters>
          </Trackpoint>
          <Trackpoint>
            <Time>2022-07-09T08:57:20.000Z</Time>
            <Position>
              <LatitudeDegrees>42.823894657194614410400390625</LatitudeDegrees>
              <LongitudeDegrees>-0.13821716420352458953857421875</LongitudeDegrees>
            </Position>
            <AltitudeMeters>1760.800048828125</AltitudeMeters>
            <DistanceMeters>5883.6116671841</DistanceMeters>
          </Trackpoint>
          <Trackpoint>
            <Time>2022-07-09T08:57:21.000Z</Time>
            <Position>
              <LatitudeDegrees>42.82388702966272830963134765625</LatitudeDegrees>
              <LongitudeDegrees>-0.1382177509367465972900390625</LongitudeDegrees>
            </Position>
            <AltitudeMeters>1761.199951171875</AltitudeMeters>
            <DistanceMeters>5884.4616119561</DistanceMeters>
          </Trackpoint>
          <Trackpoint>
            <Time>2022-07-09T08:57:22.000Z</Time>
            <Position>
              <LatitudeDegrees>42.8238810785114765167236328125</LatitudeDegrees>
              <LongitudeDegrees>-0.13821984641253948211669921875</LongitudeDegrees>
            </Position>
            <AltitudeMeters>1761.4000244140625</AltitudeMeters>
            <DistanceMeters>5885.1468593385</DistanceMeters>
          </Trackpoint>
          <Trackpoint>
            <Time>2022-07-09T08:57:24.000Z</Time>
            <Position>
              <LatitudeDegrees>42.823866493999958038330078125</LatitudeDegrees>
              <LongitudeDegrees>-0.138221941888332366943359375</LongitudeDegrees>
            </Position>
            <AltitudeMeters>1761.5999755859375</AltitudeMeters>
            <DistanceMeters>5886.7817607507</DistanceMeters>
          </Trackpoint>
          <Trackpoint>
            <Time>2022-07-09T08:57:28.000Z</Time>
            <Position>
              <LatitudeDegrees>42.82383355312049388885498046875</LatitudeDegrees>
              <LongitudeDegrees>-0.138218589127063751220703125</LongitudeDegrees>
            </Position>
            <AltitudeMeters>1762</AltitudeMeters>
            <DistanceMeters>5890.4572191384</DistanceMeters>
          </Trackpoint>
          <Trackpoint>
            <Time>2022-07-09T08:57:31.000Z</Time>
            <Position>
              <LatitudeDegrees>42.82381058670580387115478515625</LatitudeDegrees>
              <LongitudeDegrees>-0.13822604902088642120361328125</LongitudeDegrees>
            </Position>
            <AltitudeMeters>1762.4000244140625</AltitudeMeters>
            <DistanceMeters>5893.0838097809</DistanceMeters>
          </Trackpoint>
          <Trackpoint>
            <Time>2022-07-09T08:57:32.000Z</Time>
            <Position>
              <LatitudeDegrees>42.823803462088108062744140625</LatitudeDegrees>
              <LongitudeDegrees>-0.13822806067764759063720703125</LongitudeDegrees>
            </Position>
            <AltitudeMeters>1762.5999755859375</AltitudeMeters>
            <DistanceMeters>5893.8957183844</DistanceMeters>
          </Trackpoint>
          <Trackpoint>
            <Time>2022-07-09T08:57:35.000Z</Time>
            <Position>
              <LatitudeDegrees>42.82378409989178180694580078125</LatitudeDegrees>
              <LongitudeDegrees>-0.1382355205714702606201171875</LongitudeDegrees>
            </Position>
            <AltitudeMeters>1763</AltitudeMeters>
            <DistanceMeters>5896.1364152632</DistanceMeters>
          </Trackpoint>
          <Trackpoint>
            <Time>2022-07-09T08:57:39.000Z</Time>
            <Position>
              <LatitudeDegrees>42.8237436152994632720947265625</LatitudeDegrees>
              <LongitudeDegrees>-0.1382566429674625396728515625</LongitudeDegrees>
            </Position>
            <AltitudeMeters>1763.4000244140625</AltitudeMeters>
            <DistanceMeters>5900.9603666515</DistanceMeters>
          </Trackpoint>
          <Trackpoint>
            <Time>2022-07-09T08:57:40.000Z</Time>
            <Position>
              <LatitudeDegrees>42.8237342275679111480712890625</LatitudeDegrees>
              <LongitudeDegrees>-0.138264857232570648193359375</LongitudeDegrees>
            </Position>
            <AltitudeMeters>1763.5999755859375</AltitudeMeters>
            <DistanceMeters>5902.2030021861</DistanceMeters>
          </Trackpoint>
          <Trackpoint>
            <Time>2022-07-09T08:57:44.000Z</Time>
            <Position>
              <LatitudeDegrees>42.8236990235745906829833984375</LatitudeDegrees>
              <LongitudeDegrees>-0.138290338218212127685546875</LongitudeDegrees>
            </Position>
            <AltitudeMeters>1764</AltitudeMeters>
            <DistanceMeters>5906.6388264129</DistanceMeters>
          </Trackpoint>
          <Trackpoint>
            <Time>2022-07-09T08:57:50.000Z</Time>
            <Position>
              <LatitudeDegrees>42.82366239465773105621337890625</LatitudeDegrees>
              <LongitudeDegrees>-0.138282291591167449951171875</LongitudeDegrees>
            </Position>
            <AltitudeMeters>1764.5999755859375</AltitudeMeters>
            <DistanceMeters>5910.7678437689</DistanceMeters>
          </Trackpoint>
          <Trackpoint>
            <Time>2022-07-09T08:57:53.000Z</Time>
            <Position>
              <LatitudeDegrees>42.8236423619091510772705078125</LatitudeDegrees>
              <LongitudeDegrees>-0.1382817886769771575927734375</LongitudeDegrees>
            </Position>
            <AltitudeMeters>1765.4000244140625</AltitudeMeters>
            <DistanceMeters>5912.9964177624</DistanceMeters>
          </Trackpoint>
          <Trackpoint>
            <Time>2022-07-09T08:57:54.000Z</Time>
            <Position>
              <LatitudeDegrees>42.82363372854888439178466796875</LatitudeDegrees>
              <LongitudeDegrees>-0.13828405179083347320556640625</LongitudeDegrees>
            </Position>
            <AltitudeMeters>1765.800048828125</AltitudeMeters>
            <DistanceMeters>5913.9793817391</DistanceMeters>
          </Trackpoint>
          <Trackpoint>
            <Time>2022-07-09T08:57:56.000Z</Time>
            <Position>
              <LatitudeDegrees>42.823617719113826751708984375</LatitudeDegrees>
              <LongitudeDegrees>-0.13830031268298625946044921875</LongitudeDegrees>
            </Position>
            <AltitudeMeters>1766</AltitudeMeters>
            <DistanceMeters>5916.2039000895</DistanceMeters>
          </Trackpoint>
          <Trackpoint>
            <Time>2022-07-09T08:57:59.000Z</Time>
            <Position>
              <LatitudeDegrees>42.82359953038394451141357421875</LatitudeDegrees>
              <LongitudeDegrees>-0.13831908814609050750732421875</LongitudeDegrees>
            </Position>
            <AltitudeMeters>1766.5999755859375</AltitudeMeters>
            <DistanceMeters>5918.7430878693</DistanceMeters>
          </Trackpoint>
          <Trackpoint>
            <Time>2022-07-09T08:58:01.000Z</Time>
            <Position>
              <LatitudeDegrees>42.82358846627175807952880859375</LatitudeDegrees>
              <LongitudeDegrees>-0.13832579366862773895263671875</LongitudeDegrees>
            </Position>
            <AltitudeMeters>1766.5999755859375</AltitudeMeters>
            <DistanceMeters>5920.0869685518</DistanceMeters>
          </Trackpoint>
          <Trackpoint>
            <Time>2022-07-09T08:58:03.000Z</Time>
            <Position>
              <LatitudeDegrees>42.823577485978603363037109375</LatitudeDegrees>
              <LongitudeDegrees>-0.1383361034095287322998046875</LongitudeDegrees>
            </Position>
            <AltitudeMeters>1766.5999755859375</AltitudeMeters>
            <DistanceMeters>5921.571333282</DistanceMeters>
          </Trackpoint>
          <Trackpoint>
            <Time>2022-07-09T08:58:04.000Z</Time>
            <Position>
              <LatitudeDegrees>42.823568098247051239013671875</LatitudeDegrees>
              <LongitudeDegrees>-0.13834054581820964813232421875</LongitudeDegrees>
            </Position>
            <AltitudeMeters>1766.800048828125</AltitudeMeters>
            <DistanceMeters>5922.6795256824</DistanceMeters>
          </Trackpoint>
          <Trackpoint>
            <Time>2022-07-09T08:58:05.000Z</Time>
            <Position>
              <LatitudeDegrees>42.823561392724514007568359375</LatitudeDegrees>
              <LongitudeDegrees>-0.13834255747497081756591796875</LongitudeDegrees>
            </Position>
            <AltitudeMeters>1767</AltitudeMeters>
            <DistanceMeters>5923.4456555466</DistanceMeters>
          </Trackpoint>
          <Trackpoint>
            <Time>2022-07-09T08:58:08.000Z</Time>
            <Position>
              <LatitudeDegrees>42.82354169525206089019775390625</LatitudeDegrees>
              <LongitudeDegrees>-0.1383501850068569183349609375</LongitudeDegrees>
            </Position>
            <AltitudeMeters>1768.199951171875</AltitudeMeters>
            <DistanceMeters>5925.7243161083</DistanceMeters>
          </Trackpoint>
          <Trackpoint>
            <Time>2022-07-09T08:58:09.000Z</Time>
            <Position>
              <LatitudeDegrees>42.82353130169212818145751953125</LatitudeDegrees>
              <LongitudeDegrees>-0.1383521966636180877685546875</LongitudeDegrees>
            </Position>
            <AltitudeMeters>1768.5999755859375</AltitudeMeters>
            <DistanceMeters>5926.8958841257</DistanceMeters>
          </Trackpoint>
          <Trackpoint>
            <Time>2022-07-09T08:58:12.000Z</Time>
            <Position>
              <LatitudeDegrees>42.8235092572867870330810546875</LatitudeDegrees>
              <LongitudeDegrees>-0.13836778700351715087890625</LongitudeDegrees>
            </Position>
            <AltitudeMeters>1769.199951171875</AltitudeMeters>
            <DistanceMeters>5929.6598386607</DistanceMeters>
          </Trackpoint>
          <Trackpoint>
            <Time>2022-07-09T08:58:15.000Z</Time>
            <Position>
              <LatitudeDegrees>42.82348997890949249267578125</LatitudeDegrees>
              <LongitudeDegrees>-0.1383810304105281829833984375</LongitudeDegrees>
            </Position>
            <AltitudeMeters>1769.4000244140625</AltitudeMeters>
            <DistanceMeters>5932.0638455085</DistanceMeters>
          </Trackpoint>
          <Trackpoint>
            <Time>2022-07-09T08:58:21.000Z</Time>
            <Position>
              <LatitudeDegrees>42.8234616480767726898193359375</LatitudeDegrees>
              <LongitudeDegrees>-0.1383954472839832305908203125</LongitudeDegrees>
            </Position>
            <AltitudeMeters>1770</AltitudeMeters>
            <DistanceMeters>5935.4275764407</DistanceMeters>
          </Trackpoint>
          <Trackpoint>
            <Time>2022-07-09T08:58:23.000Z</Time>
            <Position>
              <LatitudeDegrees>42.82345318235456943511962890625</LatitudeDegrees>
              <LongitudeDegrees>-0.138402320444583892822265625</LongitudeDegrees>
            </Position>
            <AltitudeMeters>1770.199951171875</AltitudeMeters>
            <DistanceMeters>5936.5234779724</DistanceMeters>
          </Trackpoint>
          <Trackpoint>
            <Time>2022-07-09T08:58:27.000Z</Time>
            <Position>
              <LatitudeDegrees>42.8234391845762729644775390625</LatitudeDegrees>
              <LongitudeDegrees>-0.1383739896118640899658203125</LongitudeDegrees>
            </Position>
            <AltitudeMeters>1770.4000244140625</AltitudeMeters>
            <DistanceMeters>5939.3134467705</DistanceMeters>
          </Trackpoint>
          <Trackpoint>
            <Time>2022-07-09T08:58:31.000Z</Time>
            <Position>
              <LatitudeDegrees>42.8234113566577434539794921875</LatitudeDegrees>
              <LongitudeDegrees>-0.13834364712238311767578125</LongitudeDegrees>
            </Position>
            <AltitudeMeters>1771.5999755859375</AltitudeMeters>
            <DistanceMeters>5943.278464184</DistanceMeters>
          </Trackpoint>
          <Trackpoint>
            <Time>2022-07-09T08:58:37.000Z</Time>
            <Position>
              <LatitudeDegrees>42.823391072452068328857421875</LatitudeDegrees>
              <LongitudeDegrees>-0.138307772576808929443359375</LongitudeDegrees>
            </Position>
            <AltitudeMeters>1772.4000244140625</AltitudeMeters>
            <DistanceMeters>5946.9759681713</DistanceMeters>
          </Trackpoint>
          <Trackpoint>
            <Time>2022-07-09T08:58:38.000Z</Time>
            <Position>
              <LatitudeDegrees>42.82338193617761135101318359375</LatitudeDegrees>
              <LongitudeDegrees>-0.13830416835844516754150390625</LongitudeDegrees>
            </Position>
            <AltitudeMeters>1772.5999755859375</AltitudeMeters>
            <DistanceMeters>5948.0341408788</DistanceMeters>
          </Trackpoint>
          <Trackpoint>
            <Time>2022-07-09T08:58:41.000Z</Time>
            <Position>
              <LatitudeDegrees>42.82336567528545856475830078125</LatitudeDegrees>
              <LongitudeDegrees>-0.13830475509166717529296875</LongitudeDegrees>
            </Position>
            <AltitudeMeters>1772.800048828125</AltitudeMeters>
            <DistanceMeters>5949.8421474255</DistanceMeters>
          </Trackpoint>
          <Trackpoint>
            <Time>2022-07-09T08:58:47.000Z</Time>
            <Position>
              <LatitudeDegrees>42.82333650626242160797119140625</LatitudeDegrees>
              <LongitudeDegrees>-0.1383039169013500213623046875</LongitudeDegrees>
            </Position>
            <AltitudeMeters>1773.5999755859375</AltitudeMeters>
            <DistanceMeters>5953.0897818394</DistanceMeters>
          </Trackpoint>
          <Trackpoint>
            <Time>2022-07-09T08:58:48.000Z</Time>
            <Position>
              <LatitudeDegrees>42.8233298845589160919189453125</LatitudeDegrees>
              <LongitudeDegrees>-0.13830249197781085968017578125</LongitudeDegrees>
            </Position>
            <AltitudeMeters>1773.800048828125</AltitudeMeters>
            <DistanceMeters>5953.8440330018</DistanceMeters>
          </Trackpoint>
          <Trackpoint>
            <Time>2022-07-09T08:58:54.000Z</Time>
            <Position>
              <LatitudeDegrees>42.82329509966075420379638671875</LatitudeDegrees>
              <LongitudeDegrees>-0.13826980255544185638427734375</LongitudeDegrees>
            </Position>
            <AltitudeMeters>1774.4000244140625</AltitudeMeters>
            <DistanceMeters>5958.5466553778</DistanceMeters>
          </Trackpoint>
          <Trackpoint>
            <Time>2022-07-09T08:58:55.000Z</Time>
            <Position>
              <LatitudeDegrees>42.8232879750430583953857421875</LatitudeDegrees>
              <LongitudeDegrees>-0.13825924135744571685791015625</LongitudeDegrees>
            </Position>
            <AltitudeMeters>1774.800048828125</AltitudeMeters>
            <DistanceMeters>5959.7182233952</DistanceMeters>
          </Trackpoint>
          <Trackpoint>
            <Time>2022-07-09T08:58:58.000Z</Time>
            <Position>
              <LatitudeDegrees>42.823262996971607208251953125</LatitudeDegrees>
              <LongitudeDegrees>-0.1382335089147090911865234375</LongitudeDegrees>
            </Position>
            <AltitudeMeters>1775.800048828125</AltitudeMeters>
            <DistanceMeters>5963.2019602884</DistanceMeters>
          </Trackpoint>
          <Trackpoint>
            <Time>2022-07-09T08:59:00.000Z</Time>
            <Position>
              <LatitudeDegrees>42.82324966974556446075439453125</LatitudeDegrees>
              <LongitudeDegrees>-0.1382100395858287811279296875</LongitudeDegrees>
            </Position>
            <AltitudeMeters>1777</AltitudeMeters>
            <DistanceMeters>5965.6246756428</DistanceMeters>
          </Trackpoint>
          <Trackpoint>
            <Time>2022-07-09T08:59:02.000Z</Time>
            <Position>
              <LatitudeDegrees>42.82323391176760196685791015625</LatitudeDegrees>
              <LongitudeDegrees>-0.1381885819137096405029296875</LongitudeDegrees>
            </Position>
            <AltitudeMeters>1777.4000244140625</AltitudeMeters>
            <DistanceMeters>5968.104490567</DistanceMeters>
          </Trackpoint>
          <Trackpoint>
            <Time>2022-07-09T08:59:08.000Z</Time>
            <Position>
              <LatitudeDegrees>42.8231929242610931396484375</LatitudeDegrees>
              <LongitudeDegrees>-0.138160921633243560791015625</LongitudeDegrees>
            </Position>
            <AltitudeMeters>1777.800048828125</AltitudeMeters>
            <DistanceMeters>5973.1952979091</DistanceMeters>
          </Trackpoint>
          <Trackpoint>
            <Time>2022-07-09T08:59:09.000Z</Time>
            <Position>
              <LatitudeDegrees>42.82318848185241222381591796875</LatitudeDegrees>
              <LongitudeDegrees>-0.13815681450068950653076171875</LongitudeDegrees>
            </Position>
            <AltitudeMeters>1778</AltitudeMeters>
            <DistanceMeters>5973.7887395501</DistanceMeters>
          </Trackpoint>
          <Trackpoint>
            <Time>2022-07-09T08:59:10.000Z</Time>
            <Position>
              <LatitudeDegrees>42.8231873922049999237060546875</LatitudeDegrees>
              <LongitudeDegrees>-0.13814994134008884429931640625</LongitudeDegrees>
            </Position>
            <AltitudeMeters>1778.199951171875</AltitudeMeters>
            <DistanceMeters>5974.3667644877</DistanceMeters>
          </Trackpoint>
          <Trackpoint>
            <Time>2022-07-09T08:59:11.000Z</Time>
            <Position>
              <LatitudeDegrees>42.823183871805667877197265625</LatitudeDegrees>
              <LongitudeDegrees>-0.13813971541821956634521484375</LongitudeDegrees>
            </Position>
            <AltitudeMeters>1778.199951171875</AltitudeMeters>
            <DistanceMeters>5975.288082666</DistanceMeters>
          </Trackpoint>
          <Trackpoint>
            <Time>2022-07-09T08:59:15.000Z</Time>
            <Position>
              <LatitudeDegrees>42.82315981574356555938720703125</LatitudeDegrees>
              <LongitudeDegrees>-0.13808590359985828399658203125</LongitudeDegrees>
            </Position>
            <AltitudeMeters>1778.199951171875</AltitudeMeters>
            <DistanceMeters>5980.4318287699</DistanceMeters>
          </Trackpoint>
          <Trackpoint>
            <Time>2022-07-09T08:59:21.000Z</Time>
            <Position>
              <LatitudeDegrees>42.82313064672052860260009765625</LatitudeDegrees>
              <LongitudeDegrees>-0.13800694607198238372802734375</LongitudeDegrees>
            </Position>
            <AltitudeMeters>1778.4000244140625</AltitudeMeters>
            <DistanceMeters>5987.648855923</DistanceMeters>
          </Trackpoint>
          <Trackpoint>
            <Time>2022-07-09T08:59:26.000Z</Time>
            <Position>
              <LatitudeDegrees>42.8230951912701129913330078125</LatitudeDegrees>
              <LongitudeDegrees>-0.137948356568813323974609375</LongitudeDegrees>
            </Position>
            <AltitudeMeters>1778.4000244140625</AltitudeMeters>
            <DistanceMeters>5993.8482111592</DistanceMeters>
          </Trackpoint>
          <Trackpoint>
            <Time>2022-07-09T08:59:30.000Z</Time>
            <Position>
              <LatitudeDegrees>42.82308018766343593597412109375</LatitudeDegrees>
              <LongitudeDegrees>-0.1379022561013698577880859375</LongitudeDegrees>
            </Position>
            <AltitudeMeters>1778.800048828125</AltitudeMeters>
            <DistanceMeters>5997.9640857211</DistanceMeters>
          </Trackpoint>
          <Trackpoint>
            <Time>2022-07-09T08:59:33.000Z</Time>
            <Position>
              <LatitudeDegrees>42.82307482324540615081787109375</LatitudeDegrees>
              <LongitudeDegrees>-0.1378707401454448699951171875</LongitudeDegrees>
            </Position>
            <AltitudeMeters>1779.199951171875</AltitudeMeters>
            <DistanceMeters>6000.6043923349</DistanceMeters>
          </Trackpoint>
          <Trackpoint>
            <Time>2022-07-09T08:59:39.000Z</Time>
            <Position>
              <LatitudeDegrees>42.8230505995452404022216796875</LatitudeDegrees>
              <LongitudeDegrees>-0.13780091889202594757080078125</LongitudeDegrees>
            </Position>
            <AltitudeMeters>1779.4000244140625</AltitudeMeters>
            <DistanceMeters>6006.9091838862</DistanceMeters>
          </Trackpoint>
          <Trackpoint>
            <Time>2022-07-09T08:59:41.000Z</Time>
            <Position>
              <LatitudeDegrees>42.82304364256560802459716796875</LatitudeDegrees>
              <LongitudeDegrees>-0.13776370324194431304931640625</LongitudeDegrees>
            </Position>
            <AltitudeMeters>1779.4000244140625</AltitudeMeters>
            <DistanceMeters>6010.0436253311</DistanceMeters>
          </Trackpoint>
          <Trackpoint>
            <Time>2022-07-09T08:59:43.000Z</Time>
            <Position>
              <LatitudeDegrees>42.82304146327078342437744140625</LatitudeDegrees>
              <LongitudeDegrees>-0.13772430829703807830810546875</LongitudeDegrees>
            </Position>
            <AltitudeMeters>1779.4000244140625</AltitudeMeters>
            <DistanceMeters>6013.2689389691</DistanceMeters>
          </Trackpoint>
          <Trackpoint>
            <Time>2022-07-09T08:59:46.000Z</Time>
            <Position>
              <LatitudeDegrees>42.823024280369281768798828125</LatitudeDegrees>
              <LongitudeDegrees>-0.137680470943450927734375</LongitudeDegrees>
            </Position>
            <AltitudeMeters>1779.199951171875</AltitudeMeters>
            <DistanceMeters>6017.3262569696</DistanceMeters>
          </Trackpoint>
          <Trackpoint>
            <Time>2022-07-09T08:59:47.000Z</Time>
            <Position>
              <LatitudeDegrees>42.823014222085475921630859375</LatitudeDegrees>
              <LongitudeDegrees>-0.13766705989837646484375</LongitudeDegrees>
            </Position>
            <AltitudeMeters>1779.4000244140625</AltitudeMeters>
            <DistanceMeters>6018.893477692</DistanceMeters>
          </Trackpoint>
          <Trackpoint>
            <Time>2022-07-09T08:59:52.000Z</Time>
            <Position>
              <LatitudeDegrees>42.82296770252287387847900390625</LatitudeDegrees>
              <LongitudeDegrees>-0.13762489892542362213134765625</LongitudeDegrees>
            </Position>
            <AltitudeMeters>1780.199951171875</AltitudeMeters>
            <DistanceMeters>6025.1102877406</DistanceMeters>
          </Trackpoint>
          <Trackpoint>
            <Time>2022-07-09T08:59:54.000Z</Time>
            <Position>
              <LatitudeDegrees>42.82295177690684795379638671875</LatitudeDegrees>
              <LongitudeDegrees>-0.1376092247664928436279296875</LongitudeDegrees>
            </Position>
            <AltitudeMeters>1780.4000244140625</AltitudeMeters>
            <DistanceMeters>6027.2959021711</DistanceMeters>
          </Trackpoint>
          <Trackpoint>
            <Time>2022-07-09T08:59:58.000Z</Time>
            <Position>
              <LatitudeDegrees>42.82292277552187442779541015625</LatitudeDegrees>
              <LongitudeDegrees>-0.137586928904056549072265625</LongitudeDegrees>
            </Position>
            <AltitudeMeters>1780.199951171875</AltitudeMeters>
            <DistanceMeters>6031.0031621225</DistanceMeters>
          </Trackpoint>
          <Trackpoint>
            <Time>2022-07-09T09:00:00.000Z</Time>
            <Position>
              <LatitudeDegrees>42.8229134716093540191650390625</LatitudeDegrees>
              <LongitudeDegrees>-0.137592293322086334228515625</LongitudeDegrees>
            </Position>
            <AltitudeMeters>1780</AltitudeMeters>
            <DistanceMeters>6032.12753337</DistanceMeters>
          </Trackpoint>
          <Trackpoint>
            <Time>2022-07-09T09:00:04.000Z</Time>
            <Position>
              <LatitudeDegrees>42.82288354821503162384033203125</LatitudeDegrees>
              <LongitudeDegrees>-0.13759505935013294219970703125</LongitudeDegrees>
            </Position>
            <AltitudeMeters>1779.4000244140625</AltitudeMeters>
            <DistanceMeters>6035.4656637347</DistanceMeters>
          </Trackpoint>
          <Trackpoint>
            <Time>2022-07-09T09:00:05.000Z</Time>
            <Position>
              <LatitudeDegrees>42.8228745795786380767822265625</LatitudeDegrees>
              <LongitudeDegrees>-0.1375907845795154571533203125</LongitudeDegrees>
            </Position>
            <AltitudeMeters>1779.199951171875</AltitudeMeters>
            <DistanceMeters>6036.5195609795</DistanceMeters>
          </Trackpoint>
          <Trackpoint>
            <Time>2022-07-09T09:00:07.000Z</Time>
            <Position>
              <LatitudeDegrees>42.82285940833389759063720703125</LatitudeDegrees>
              <LongitudeDegrees>-0.1375887729227542877197265625</LongitudeDegrees>
            </Position>
            <AltitudeMeters>1779.199951171875</AltitudeMeters>
            <DistanceMeters>6038.2167923679</DistanceMeters>
          </Trackpoint>
          <Trackpoint>
            <Time>2022-07-09T09:00:12.000Z</Time>
            <Position>
              <LatitudeDegrees>42.82283711247146129608154296875</LatitudeDegrees>
              <LongitudeDegrees>-0.13760394416749477386474609375</LongitudeDegrees>
            </Position>
            <AltitudeMeters>1779.199951171875</AltitudeMeters>
            <DistanceMeters>6040.9905308433</DistanceMeters>
          </Trackpoint>
          <Trackpoint>
            <Time>2022-07-09T09:00:13.000Z</Time>
            <Position>
              <LatitudeDegrees>42.82283308915793895721435546875</LatitudeDegrees>
              <LongitudeDegrees>-0.1376031897962093353271484375</LongitudeDegrees>
            </Position>
            <AltitudeMeters>1779.199951171875</AltitudeMeters>
            <DistanceMeters>6041.4462629557</DistanceMeters>
          </Trackpoint>
          <Trackpoint>
            <Time>2022-07-09T09:00:14.000Z</Time>
            <Position>
              <LatitudeDegrees>42.8228262998163700103759765625</LatitudeDegrees>
              <LongitudeDegrees>-0.13760176487267017364501953125</LongitudeDegrees>
            </Position>
            <AltitudeMeters>1779.199951171875</AltitudeMeters>
            <DistanceMeters>6042.2123928199</DistanceMeters>
          </Trackpoint>
          <Trackpoint>
            <Time>2022-07-09T09:00:15.000Z</Time>
            <Position>
              <LatitudeDegrees>42.82281900756061077117919921875</LatitudeDegrees>
              <LongitudeDegrees>-0.13759975321590900421142578125</LongitudeDegrees>
            </Position>
            <AltitudeMeters>1779.4000244140625</AltitudeMeters>
            <DistanceMeters>6043.0408165097</DistanceMeters>
          </Trackpoint>
          <Trackpoint>
            <Time>2022-07-09T09:00:20.000Z</Time>
            <Position>
              <LatitudeDegrees>42.82279394567012786865234375</LatitudeDegrees>
              <LongitudeDegrees>-0.1375773735344409942626953125</LongitudeDegrees>
            </Position>
            <AltitudeMeters>1780.199951171875</AltitudeMeters>
            <DistanceMeters>6046.3762406474</DistanceMeters>
          </Trackpoint>
          <Trackpoint>
            <Time>2022-07-09T09:00:23.000Z</Time>
            <Position>
              <LatitudeDegrees>42.822768129408359527587890625</LatitudeDegrees>
              <LongitudeDegrees>-0.1375673152506351470947265625</LongitudeDegrees>
            </Position>
            <AltitudeMeters>1780.5999755859375</AltitudeMeters>
            <DistanceMeters>6049.3661864128</DistanceMeters>
          </Trackpoint>
          <Trackpoint>
            <Time>2022-07-09T09:00:28.000Z</Time>
            <Position>
              <LatitudeDegrees>42.82271708361804485321044921875</LatitudeDegrees>
              <LongitudeDegrees>-0.13757787644863128662109375</LongitudeDegrees>
            </Position>
            <AltitudeMeters>1780.800048828125</AltitudeMeters>
            <DistanceMeters>6055.1127496949</DistanceMeters>
          </Trackpoint>
          <Trackpoint>
            <Time>2022-07-09T09:00:31.000Z</Time>
            <Position>
              <LatitudeDegrees>42.82269361428916454315185546875</LatitudeDegrees>
              <LongitudeDegrees>-0.13757846318185329437255859375</LongitudeDegrees>
            </Position>
            <AltitudeMeters>1781.4000244140625</AltitudeMeters>
            <DistanceMeters>6057.7238237488</DistanceMeters>
          </Trackpoint>
          <Trackpoint>
            <Time>2022-07-09T09:00:33.000Z</Time>
            <Position>
              <LatitudeDegrees>42.82267995178699493408203125</LatitudeDegrees>
              <LongitudeDegrees>-0.13756790198385715484619140625</LongitudeDegrees>
            </Position>
            <AltitudeMeters>1781.5999755859375</AltitudeMeters>
            <DistanceMeters>6059.4682823358</DistanceMeters>
          </Trackpoint>
          <Trackpoint>
            <Time>2022-07-09T09:00:39.000Z</Time>
            <Position>
              <LatitudeDegrees>42.8226201049983501434326171875</LatitudeDegrees>
              <LongitudeDegrees>-0.13754392974078655242919921875</LongitudeDegrees>
            </Position>
            <AltitudeMeters>1782</AltitudeMeters>
            <DistanceMeters>6066.4110878248</DistanceMeters>
          </Trackpoint>
          <Trackpoint>
            <Time>2022-07-09T09:00:40.000Z</Time>
            <Position>
              <LatitudeDegrees>42.82260996289551258087158203125</LatitudeDegrees>
              <LongitudeDegrees>-0.13753923587501049041748046875</LongitudeDegrees>
            </Position>
            <AltitudeMeters>1782.199951171875</AltitudeMeters>
            <DistanceMeters>6067.6017691431</DistanceMeters>
          </Trackpoint>
          <Trackpoint>
            <Time>2022-07-09T09:00:42.000Z</Time>
            <Position>
              <LatitudeDegrees>42.8225932829082012176513671875</LatitudeDegrees>
              <LongitudeDegrees>-0.13752968050539493560791015625</LongitudeDegrees>
            </Position>
            <AltitudeMeters>1782.800048828125</AltitudeMeters>
            <DistanceMeters>6069.6131055761</DistanceMeters>
          </Trackpoint>
          <Trackpoint>
            <Time>2022-07-09T09:00:43.000Z</Time>
            <Position>
              <LatitudeDegrees>42.82258565537631511688232421875</LatitudeDegrees>
              <LongitudeDegrees>-0.13752758502960205078125</LongitudeDegrees>
            </Position>
            <AltitudeMeters>1783.199951171875</AltitudeMeters>
            <DistanceMeters>6070.4736090731</DistanceMeters>
          </Trackpoint>
          <Trackpoint>
            <Time>2022-07-09T09:00:46.000Z</Time>
            <Position>
              <LatitudeDegrees>42.82256998121738433837890625</LatitudeDegrees>
              <LongitudeDegrees>-0.13751425780355930328369140625</LongitudeDegrees>
            </Position>
            <AltitudeMeters>1783.800048828125</AltitudeMeters>
            <DistanceMeters>6072.5293512203</DistanceMeters>
          </Trackpoint>
          <Trackpoint>
            <Time>2022-07-09T09:00:50.000Z</Time>
            <Position>
              <LatitudeDegrees>42.8225661255419254302978515625</LatitudeDegrees>
              <LongitudeDegrees>-0.13749472796916961669921875</LongitudeDegrees>
            </Position>
            <AltitudeMeters>1785</AltitudeMeters>
            <DistanceMeters>6074.1807394503</DistanceMeters>
          </Trackpoint>
          <Trackpoint>
            <Time>2022-07-09T09:00:53.000Z</Time>
            <Position>
              <LatitudeDegrees>42.82257811166346073150634765625</LatitudeDegrees>
              <LongitudeDegrees>-0.13748894445598125457763671875</LongitudeDegrees>
            </Position>
            <AltitudeMeters>1785.199951171875</AltitudeMeters>
            <DistanceMeters>6075.5966056059</DistanceMeters>
          </Trackpoint>
          <Trackpoint>
            <Time>2022-07-09T09:00:54.000Z</Time>
            <Position>
              <LatitudeDegrees>42.82258951105177402496337890625</LatitudeDegrees>
              <LongitudeDegrees>-0.13749581761658191680908203125</LongitudeDegrees>
            </Position>
            <AltitudeMeters>1785.4000244140625</AltitudeMeters>
            <DistanceMeters>6076.9834748436</DistanceMeters>
          </Trackpoint>
          <Trackpoint>
            <Time>2022-07-09T09:00:58.000Z</Time>
            <Position>
              <LatitudeDegrees>42.8226281516253948211669921875</LatitudeDegrees>
              <LongitudeDegrees>-0.1375290937721729278564453125</LongitudeDegrees>
            </Position>
            <AltitudeMeters>1785.800048828125</AltitudeMeters>
            <DistanceMeters>6082.0689580002</DistanceMeters>
          </Trackpoint>
          <Trackpoint>
            <Time>2022-07-09T09:01:00.000Z</Time>
            <Position>
              <LatitudeDegrees>42.82263963483273983001708984375</LatitudeDegrees>
              <LongitudeDegrees>-0.137533284723758697509765625</LongitudeDegrees>
            </Position>
            <AltitudeMeters>1786</AltitudeMeters>
            <DistanceMeters>6083.3925269746</DistanceMeters>
          </Trackpoint>
          <Trackpoint>
            <Time>2022-07-09T09:01:01.000Z</Time>
            <Position>
              <LatitudeDegrees>42.822640724480152130126953125</LatitudeDegrees>
              <LongitudeDegrees>-0.13753269799053668975830078125</LongitudeDegrees>
            </Position>
            <AltitudeMeters>1786.199951171875</AltitudeMeters>
            <DistanceMeters>6083.487553689</DistanceMeters>
          </Trackpoint>
          <Trackpoint>
            <Time>2022-07-09T09:01:06.000Z</Time>
            <Position>
              <LatitudeDegrees>42.8225818835198879241943359375</LatitudeDegrees>
              <LongitudeDegrees>-0.1375227235257625579833984375</LongitudeDegrees>
            </Position>
            <AltitudeMeters>1787</AltitudeMeters>
            <DistanceMeters>6090.0862678526</DistanceMeters>
          </Trackpoint>
          <Trackpoint>
            <Time>2022-07-09T09:01:08.000Z</Time>
            <Position>
              <LatitudeDegrees>42.82256034202873706817626953125</LatitudeDegrees>
              <LongitudeDegrees>-0.1375294290482997894287109375</LongitudeDegrees>
            </Position>
            <AltitudeMeters>1787.199951171875</AltitudeMeters>
            <DistanceMeters>6092.545973367</DistanceMeters>
          </Trackpoint>
          <Trackpoint>
            <Time>2022-07-09T09:01:14.000Z</Time>
            <Position>
              <LatitudeDegrees>42.822487168014049530029296875</LatitudeDegrees>
              <LongitudeDegrees>-0.13749548234045505523681640625</LongitudeDegrees>
            </Position>
            <AltitudeMeters>1786.5999755859375</AltitudeMeters>
            <DistanceMeters>6101.1489092922</DistanceMeters>
          </Trackpoint>
          <Trackpoint>
            <Time>2022-07-09T09:01:20.000Z</Time>
            <Position>
              <LatitudeDegrees>42.82240829430520534515380859375</LatitudeDegrees>
              <LongitudeDegrees>-0.1374680735170841217041015625</LongitudeDegrees>
            </Position>
            <AltitudeMeters>1786.5999755859375</AltitudeMeters>
            <DistanceMeters>6110.2088979719</DistanceMeters>
          </Trackpoint>
          <Trackpoint>
            <Time>2022-07-09T09:01:24.000Z</Time>
            <Position>
              <LatitudeDegrees>42.82236688770353794097900390625</LatitudeDegrees>
              <LongitudeDegrees>-0.13744820840656757354736328125</LongitudeDegrees>
            </Position>
            <AltitudeMeters>1787.5999755859375</AltitudeMeters>
            <DistanceMeters>6115.0942323557</DistanceMeters>
          </Trackpoint>
          <Trackpoint>
            <Time>2022-07-09T09:01:25.000Z</Time>
            <Position>
              <LatitudeDegrees>42.82236068509519100189208984375</LatitudeDegrees>
              <LongitudeDegrees>-0.13744770549237728118896484375</LongitudeDegrees>
            </Position>
            <AltitudeMeters>1788</AltitudeMeters>
            <DistanceMeters>6115.7860372787</DistanceMeters>
          </Trackpoint>
          <Trackpoint>
            <Time>2022-07-09T09:01:27.000Z</Time>
            <Position>
              <LatitudeDegrees>42.8223418258130550384521484375</LatitudeDegrees>
              <LongitudeDegrees>-0.1374452747404575347900390625</LongitudeDegrees>
            </Position>
            <AltitudeMeters>1788.199951171875</AltitudeMeters>
            <DistanceMeters>6117.8938317683</DistanceMeters>
          </Trackpoint>
          <Trackpoint>
            <Time>2022-07-09T09:01:30.000Z</Time>
            <Position>
              <LatitudeDegrees>42.8223032690584659576416015625</LatitudeDegrees>
              <LongitudeDegrees>-0.137442089617252349853515625</LongitudeDegrees>
            </Position>
            <AltitudeMeters>1788.4000244140625</AltitudeMeters>
            <DistanceMeters>6122.1921496259</DistanceMeters>
          </Trackpoint>
          <Trackpoint>
            <Time>2022-07-09T09:01:31.000Z</Time>
            <Position>
              <LatitudeDegrees>42.822286672890186309814453125</LatitudeDegrees>
              <LongitudeDegrees>-0.1374409161508083343505859375</LongitudeDegrees>
            </Position>
            <AltitudeMeters>1788.4000244140625</AltitudeMeters>
            <DistanceMeters>6124.0396801116</DistanceMeters>
          </Trackpoint>
          <Trackpoint>
            <Time>2022-07-09T09:01:36.000Z</Time>
            <Position>
              <LatitudeDegrees>42.82223193906247615814208984375</LatitudeDegrees>
              <LongitudeDegrees>-0.1374362222850322723388671875</LongitudeDegrees>
            </Position>
            <AltitudeMeters>1789.199951171875</AltitudeMeters>
            <DistanceMeters>6130.1436210851</DistanceMeters>
          </Trackpoint>
          <Trackpoint>
            <Time>2022-07-09T09:01:38.000Z</Time>
            <Position>
              <LatitudeDegrees>42.82222020439803600311279296875</LatitudeDegrees>
              <LongitudeDegrees>-0.1374399103224277496337890625</LongitudeDegrees>
            </Position>
            <AltitudeMeters>1789.4000244140625</AltitudeMeters>
            <DistanceMeters>6131.4875017676</DistanceMeters>
          </Trackpoint>
          <Trackpoint>
            <Time>2022-07-09T09:01:41.000Z</Time>
            <Position>
              <LatitudeDegrees>42.82219673506915569305419921875</LatitudeDegrees>
              <LongitudeDegrees>-0.137437395751476287841796875</LongitudeDegrees>
            </Position>
            <AltitudeMeters>1789.4000244140625</AltitudeMeters>
            <DistanceMeters>6134.1106522113</DistanceMeters>
          </Trackpoint>
          <Trackpoint>
            <Time>2022-07-09T09:01:43.000Z</Time>
            <Position>
              <LatitudeDegrees>42.82217460684478282928466796875</LatitudeDegrees>
              <LongitudeDegrees>-0.13743546791374683380126953125</LongitudeDegrees>
            </Position>
            <AltitudeMeters>1789.5999755859375</AltitudeMeters>
            <DistanceMeters>6136.5813467849</DistanceMeters>
          </Trackpoint>
          <Trackpoint>
            <Time>2022-07-09T09:01:44.000Z</Time>
            <Position>
              <LatitudeDegrees>42.822163961827754974365234375</LatitudeDegrees>
              <LongitudeDegrees>-0.1374355517327785491943359375</LongitudeDegrees>
            </Position>
            <AltitudeMeters>1789.5999755859375</AltitudeMeters>
            <DistanceMeters>6137.7644198379</DistanceMeters>
          </Trackpoint>
          <Trackpoint>
            <Time>2022-07-09T09:01:48.000Z</Time>
            <Position>
              <LatitudeDegrees>42.82212398014962673187255859375</LatitudeDegrees>
              <LongitudeDegrees>-0.13742842711508274078369140625</LongitudeDegrees>
            </Position>
            <AltitudeMeters>1790</AltitudeMeters>
            <DistanceMeters>6142.252860608</DistanceMeters>
          </Trackpoint>
          <Trackpoint>
            <Time>2022-07-09T09:01:49.000Z</Time>
            <Position>
              <LatitudeDegrees>42.82211266458034515380859375</LatitudeDegrees>
              <LongitudeDegrees>-0.1374238170683383941650390625</LongitudeDegrees>
            </Position>
            <AltitudeMeters>1790.199951171875</AltitudeMeters>
            <DistanceMeters>6143.5695893869</DistanceMeters>
          </Trackpoint>
          <Trackpoint>
            <Time>2022-07-09T09:01:50.000Z</Time>
            <Position>
              <LatitudeDegrees>42.82210118137300014495849609375</LatitudeDegrees>
              <LongitudeDegrees>-0.13741769827902317047119140625</LongitudeDegrees>
            </Position>
            <AltitudeMeters>1790.199951171875</AltitudeMeters>
            <DistanceMeters>6144.9400841517</DistanceMeters>
          </Trackpoint>
          <Trackpoint>
            <Time>2022-07-09T09:01:51.000Z</Time>
            <Position>
              <LatitudeDegrees>42.82208961434662342071533203125</LatitudeDegrees>
              <LongitudeDegrees>-0.13741250149905681610107421875</LongitudeDegrees>
            </Position>
            <AltitudeMeters>1790.199951171875</AltitudeMeters>
            <DistanceMeters>6146.2973371107</DistanceMeters>
          </Trackpoint>
          <Trackpoint>
            <Time>2022-07-09T09:01:56.000Z</Time>
            <Position>
              <LatitudeDegrees>42.82203781418502330780029296875</LatitudeDegrees>
              <LongitudeDegrees>-0.137397162616252899169921875</LongitudeDegrees>
            </Position>
            <AltitudeMeters>1790.199951171875</AltitudeMeters>
            <DistanceMeters>6152.1981823695</DistanceMeters>
          </Trackpoint>
          <Trackpoint>
            <Time>2022-07-09T09:01:58.000Z</Time>
            <Position>
              <LatitudeDegrees>42.82202004455029964447021484375</LatitudeDegrees>
              <LongitudeDegrees>-0.13739959336817264556884765625</LongitudeDegrees>
            </Position>
            <AltitudeMeters>1790.199951171875</AltitudeMeters>
            <DistanceMeters>6154.1869441658</DistanceMeters>
          </Trackpoint>
          <Trackpoint>
            <Time>2022-07-09T09:02:03.000Z</Time>
            <Position>
              <LatitudeDegrees>42.82196874730288982391357421875</LatitudeDegrees>
              <LongitudeDegrees>-0.1373943127691745758056640625</LongitudeDegrees>
            </Position>
            <AltitudeMeters>1790.199951171875</AltitudeMeters>
            <DistanceMeters>6159.9122544186</DistanceMeters>
          </Trackpoint>
          <Trackpoint>
            <Time>2022-07-09T09:02:04.000Z</Time>
            <Position>
              <LatitudeDegrees>42.82195248641073703765869140625</LatitudeDegrees>
              <LongitudeDegrees>-0.137391127645969390869140625</LongitudeDegrees>
            </Position>
            <AltitudeMeters>1790.199951171875</AltitudeMeters>
            <DistanceMeters>6161.7401297656</DistanceMeters>
          </Trackpoint>
          <Trackpoint>
            <Time>2022-07-09T09:02:06.000Z</Time>
            <Position>
              <LatitudeDegrees>42.8219220601022243499755859375</LatitudeDegrees>
              <LongitudeDegrees>-0.13738115318119525909423828125</LongitudeDegrees>
            </Position>
            <AltitudeMeters>1790.199951171875</AltitudeMeters>
            <DistanceMeters>6165.2225703846</DistanceMeters>
          </Trackpoint>
          <Trackpoint>
            <Time>2022-07-09T09:02:09.000Z</Time>
            <Position>
              <LatitudeDegrees>42.82188124023377895355224609375</LatitudeDegrees>
              <LongitudeDegrees>-0.137363970279693603515625</LongitudeDegrees>
            </Position>
            <AltitudeMeters>1790.4000244140625</AltitudeMeters>
            <DistanceMeters>6169.9777056524</DistanceMeters>
          </Trackpoint>
          <Trackpoint>
            <Time>2022-07-09T09:02:11.000Z</Time>
            <Position>
              <LatitudeDegrees>42.82185793854296207427978515625</LatitudeDegrees>
              <LongitudeDegrees>-0.137350894510746002197265625</LongitudeDegrees>
            </Position>
            <AltitudeMeters>1790.4000244140625</AltitudeMeters>
            <DistanceMeters>6172.7805910418</DistanceMeters>
          </Trackpoint>
          <Trackpoint>
            <Time>2022-07-09T09:02:13.000Z</Time>
            <Position>
              <LatitudeDegrees>42.82184167765080928802490234375</LatitudeDegrees>
              <LongitudeDegrees>-0.13733454979956150054931640625</LongitudeDegrees>
            </Position>
            <AltitudeMeters>1790.5999755859375</AltitudeMeters>
            <DistanceMeters>6175.0293335368</DistanceMeters>
          </Trackpoint>
          <Trackpoint>
            <Time>2022-07-09T09:02:15.000Z</Time>
            <Position>
              <LatitudeDegrees>42.8218281827867031097412109375</LatitudeDegrees>
              <LongitudeDegrees>-0.13732851482927799224853515625</LongitudeDegrees>
            </Position>
            <AltitudeMeters>1790.5999755859375</AltitudeMeters>
            <DistanceMeters>6176.6108932653</DistanceMeters>
          </Trackpoint>
          <Trackpoint>
            <Time>2022-07-09T09:02:16.000Z</Time>
            <Position>
              <LatitudeDegrees>42.82182407565414905548095703125</LatitudeDegrees>
              <LongitudeDegrees>-0.1373299397528171539306640625</LongitudeDegrees>
            </Position>
            <AltitudeMeters>1790.5999755859375</AltitudeMeters>
            <DistanceMeters>6177.0954363362</DistanceMeters>
          </Trackpoint>
          <Trackpoint>
            <Time>2022-07-09T09:02:18.000Z</Time>
            <Position>
              <LatitudeDegrees>42.82181368209421634674072265625</LatitudeDegrees>
              <LongitudeDegrees>-0.1373304426670074462890625</LongitudeDegrees>
            </Position>
            <AltitudeMeters>1791.199951171875</AltitudeMeters>
            <DistanceMeters>6178.2553852102</DistanceMeters>
          </Trackpoint>
          <Trackpoint>
            <Time>2022-07-09T09:02:24.000Z</Time>
            <Position>
              <LatitudeDegrees>42.82177244313061237335205078125</LatitudeDegrees>
              <LongitudeDegrees>-0.13729398138821125030517578125</LongitudeDegrees>
            </Position>
            <AltitudeMeters>1792.199951171875</AltitudeMeters>
            <DistanceMeters>6183.7258215123</DistanceMeters>
          </Trackpoint>
          <Trackpoint>
            <Time>2022-07-09T09:02:25.000Z</Time>
            <Position>
              <LatitudeDegrees>42.8217651508748531341552734375</LatitudeDegrees>
              <LongitudeDegrees>-0.1372860185801982879638671875</LongitudeDegrees>
            </Position>
            <AltitudeMeters>1792.4000244140625</AltitudeMeters>
            <DistanceMeters>6184.7667870128</DistanceMeters>
          </Trackpoint>
          <Trackpoint>
            <Time>2022-07-09T09:02:27.000Z</Time>
            <Position>
              <LatitudeDegrees>42.82174997963011264801025390625</LatitudeDegrees>
              <LongitudeDegrees>-0.13727503828704357147216796875</LongitudeDegrees>
            </Position>
            <AltitudeMeters>1792.4000244140625</AltitudeMeters>
            <DistanceMeters>6186.6791627499</DistanceMeters>
          </Trackpoint>
          <Trackpoint>
            <Time>2022-07-09T09:02:31.000Z</Time>
            <Position>
              <LatitudeDegrees>42.82170807011425495147705078125</LatitudeDegrees>
              <LongitudeDegrees>-0.13724938966333866119384765625</LongitudeDegrees>
            </Position>
            <AltitudeMeters>1792.4000244140625</AltitudeMeters>
            <DistanceMeters>6191.7920945219</DistanceMeters>
          </Trackpoint>
          <Trackpoint>
            <Time>2022-07-09T09:02:32.000Z</Time>
            <Position>
              <LatitudeDegrees>42.8216944076120853424072265625</LatitudeDegrees>
              <LongitudeDegrees>-0.1372451148927211761474609375</LongitudeDegrees>
            </Position>
            <AltitudeMeters>1792.4000244140625</AltitudeMeters>
            <DistanceMeters>6193.3506485195</DistanceMeters>
          </Trackpoint>
          <Trackpoint>
            <Time>2022-07-09T09:02:34.000Z</Time>
            <Position>
              <LatitudeDegrees>42.82167320139706134796142578125</LatitudeDegrees>
              <LongitudeDegrees>-0.137242265045642852783203125</LongitudeDegrees>
            </Position>
            <AltitudeMeters>1792.199951171875</AltitudeMeters>
            <DistanceMeters>6195.7206079175</DistanceMeters>
          </Trackpoint>
          <Trackpoint>
            <Time>2022-07-09T09:02:36.000Z</Time>
            <Position>
              <LatitudeDegrees>42.82165308482944965362548828125</LatitudeDegrees>
              <LongitudeDegrees>-0.13723145239055156707763671875</LongitudeDegrees>
            </Position>
            <AltitudeMeters>1791.800048828125</AltitudeMeters>
            <DistanceMeters>6198.1246147652</DistanceMeters>
          </Trackpoint>
          <Trackpoint>
            <Time>2022-07-09T09:02:42.000Z</Time>
            <Position>
              <LatitudeDegrees>42.821585275232791900634765625</LatitudeDegrees>
              <LongitudeDegrees>-0.1372065581381320953369140625</LongitudeDegrees>
            </Position>
            <AltitudeMeters>1791.5999755859375</AltitudeMeters>
            <DistanceMeters>6205.9399482237</DistanceMeters>
          </Trackpoint>
          <Trackpoint>
            <Time>2022-07-09T09:02:44.000Z</Time>
            <Position>
              <LatitudeDegrees>42.8215680085122585296630859375</LatitudeDegrees>
              <LongitudeDegrees>-0.137203373014926910400390625</LongitudeDegrees>
            </Position>
            <AltitudeMeters>1791.800048828125</AltitudeMeters>
            <DistanceMeters>6207.8781205072</DistanceMeters>
          </Trackpoint>
          <Trackpoint>
            <Time>2022-07-09T09:02:48.000Z</Time>
            <Position>
              <LatitudeDegrees>42.82154135406017303466796875</LatitudeDegrees>
              <LongitudeDegrees>-0.137208737432956695556640625</LongitudeDegrees>
            </Position>
            <AltitudeMeters>1792</AltitudeMeters>
            <DistanceMeters>6210.8771130278</DistanceMeters>
          </Trackpoint>
          <Trackpoint>
            <Time>2022-07-09T09:02:50.000Z</Time>
            <Position>
              <LatitudeDegrees>42.82152450643479824066162109375</LatitudeDegrees>
              <LongitudeDegrees>-0.13719499111175537109375</LongitudeDegrees>
            </Position>
            <AltitudeMeters>1792.199951171875</AltitudeMeters>
            <DistanceMeters>6213.0627274583</DistanceMeters>
          </Trackpoint>
          <Trackpoint>
            <Time>2022-07-09T09:02:51.000Z</Time>
            <Position>
              <LatitudeDegrees>42.821512185037136077880859375</LatitudeDegrees>
              <LongitudeDegrees>-0.13718803413212299346923828125</LongitudeDegrees>
            </Position>
            <AltitudeMeters>1792.4000244140625</AltitudeMeters>
            <DistanceMeters>6214.5501308094</DistanceMeters>
          </Trackpoint>
          <Trackpoint>
            <Time>2022-07-09T09:02:55.000Z</Time>
            <Position>
              <LatitudeDegrees>42.8214707784354686737060546875</LatitudeDegrees>
              <LongitudeDegrees>-0.1371737010776996612548828125</LongitudeDegrees>
            </Position>
            <AltitudeMeters>1792.800048828125</AltitudeMeters>
            <DistanceMeters>6219.3052660772</DistanceMeters>
          </Trackpoint>
          <Trackpoint>
            <Time>2022-07-09T09:03:01.000Z</Time>
            <Position>
              <LatitudeDegrees>42.82141587696969509124755859375</LatitudeDegrees>
              <LongitudeDegrees>-0.13715852983295917510986328125</LongitudeDegrees>
            </Position>
            <AltitudeMeters>1793.199951171875</AltitudeMeters>
            <DistanceMeters>6225.5394820676</DistanceMeters>
          </Trackpoint>
          <Trackpoint>
            <Time>2022-07-09T09:03:04.000Z</Time>
            <Position>
              <LatitudeDegrees>42.82139240764081478118896484375</LatitudeDegrees>
              <LongitudeDegrees>-0.1371545903384685516357421875</LongitudeDegrees>
            </Position>
            <AltitudeMeters>1793.5999755859375</AltitudeMeters>
            <DistanceMeters>6228.1695084089</DistanceMeters>
          </Trackpoint>
          <Trackpoint>
            <Time>2022-07-09T09:03:07.000Z</Time>
            <Position>
              <LatitudeDegrees>42.82136575318872928619384765625</LatitudeDegrees>
              <LongitudeDegrees>-0.13713941909372806549072265625</LongitudeDegrees>
            </Position>
            <AltitudeMeters>1794.199951171875</AltitudeMeters>
            <DistanceMeters>6231.3850079857</DistanceMeters>
          </Trackpoint>
          <Trackpoint>
            <Time>2022-07-09T09:03:08.000Z</Time>
            <Position>
              <LatitudeDegrees>42.82135686837136745452880859375</LatitudeDegrees>
              <LongitudeDegrees>-0.13713070191442966461181640625</LongitudeDegrees>
            </Position>
            <AltitudeMeters>1794.4000244140625</AltitudeMeters>
            <DistanceMeters>6232.6019437017</DistanceMeters>
          </Trackpoint>
          <Trackpoint>
            <Time>2022-07-09T09:03:09.000Z</Time>
            <Position>
              <LatitudeDegrees>42.82135100103914737701416015625</LatitudeDegrees>
              <LongitudeDegrees>-0.1371250860393047332763671875</LongitudeDegrees>
            </Position>
            <AltitudeMeters>1794.5999755859375</AltitudeMeters>
            <DistanceMeters>6233.3969942353</DistanceMeters>
          </Trackpoint>
          <Trackpoint>
            <Time>2022-07-09T09:03:15.000Z</Time>
            <Position>
              <LatitudeDegrees>42.8213282860815525054931640625</LatitudeDegrees>
              <LongitudeDegrees>-0.137123577296733856201171875</LongitudeDegrees>
            </Position>
            <AltitudeMeters>1795.199951171875</AltitudeMeters>
            <DistanceMeters>6235.9290594547</DistanceMeters>
          </Trackpoint>
          <Trackpoint>
            <Time>2022-07-09T09:03:16.000Z</Time>
            <Position>
              <LatitudeDegrees>42.82132216729223728179931640625</LatitudeDegrees>
              <LongitudeDegrees>-0.13712299056351184844970703125</LongitudeDegrees>
            </Position>
            <AltitudeMeters>1795.5999755859375</AltitudeMeters>
            <DistanceMeters>6236.6143068371</DistanceMeters>
          </Trackpoint>
          <Trackpoint>
            <Time>2022-07-09T09:03:17.000Z</Time>
            <Position>
              <LatitudeDegrees>42.82131604850292205810546875</LatitudeDegrees>
              <LongitudeDegrees>-0.13712265528738498687744140625</LongitudeDegrees>
            </Position>
            <AltitudeMeters>1795.800048828125</AltitudeMeters>
            <DistanceMeters>6237.2862471784</DistanceMeters>
          </Trackpoint>
          <Trackpoint>
            <Time>2022-07-09T09:03:20.000Z</Time>
            <Position>
              <LatitudeDegrees>42.8212914057075977325439453125</LatitudeDegrees>
              <LongitudeDegrees>-0.13711997307837009429931640625</LongitudeDegrees>
            </Position>
            <AltitudeMeters>1796</AltitudeMeters>
            <DistanceMeters>6240.0371023291</DistanceMeters>
          </Trackpoint>
          <Trackpoint>
            <Time>2022-07-09T09:03:22.000Z</Time>
            <Position>
              <LatitudeDegrees>42.8212719596922397613525390625</LatitudeDegrees>
              <LongitudeDegrees>-0.1371110044419765472412109375</LongitudeDegrees>
            </Position>
            <AltitudeMeters>1796</AltitudeMeters>
            <DistanceMeters>6242.3216994893</DistanceMeters>
          </Trackpoint>
          <Trackpoint>
            <Time>2022-07-09T09:03:23.000Z</Time>
            <Position>
              <LatitudeDegrees>42.821256034076213836669921875</LatitudeDegrees>
              <LongitudeDegrees>-0.1371042989194393157958984375</LongitudeDegrees>
            </Position>
            <AltitudeMeters>1796</AltitudeMeters>
            <DistanceMeters>6244.1741111738</DistanceMeters>
          </Trackpoint>
          <Trackpoint>
            <Time>2022-07-09T09:03:24.000Z</Time>
            <Position>
              <LatitudeDegrees>42.8212375938892364501953125</LatitudeDegrees>
              <LongitudeDegrees>-0.13710304163396358489990234375</LongitudeDegrees>
            </Position>
            <AltitudeMeters>1796</AltitudeMeters>
            <DistanceMeters>6246.2254560065</DistanceMeters>
          </Trackpoint>
          <Trackpoint>
            <Time>2022-07-09T09:03:25.000Z</Time>
            <Position>
              <LatitudeDegrees>42.82122376374900341033935546875</LatitudeDegrees>
              <LongitudeDegrees>-0.13710740022361278533935546875</LongitudeDegrees>
            </Position>
            <AltitudeMeters>1796</AltitudeMeters>
            <DistanceMeters>6247.8041583529</DistanceMeters>
          </Trackpoint>
          <Trackpoint>
            <Time>2022-07-09T09:03:27.000Z</Time>
            <Position>
              <LatitudeDegrees>42.8212032280862331390380859375</LatitudeDegrees>
              <LongitudeDegrees>-0.1371177099645137786865234375</LongitudeDegrees>
            </Position>
            <AltitudeMeters>1796.4000244140625</AltitudeMeters>
            <DistanceMeters>6250.2417371312</DistanceMeters>
          </Trackpoint>
          <Trackpoint>
            <Time>2022-07-09T09:03:28.000Z</Time>
            <Position>
              <LatitudeDegrees>42.821193002164363861083984375</LatitudeDegrees>
              <LongitudeDegrees>-0.13712030835449695587158203125</LongitudeDegrees>
            </Position>
            <AltitudeMeters>1796.5999755859375</AltitudeMeters>
            <DistanceMeters>6251.4016860051</DistanceMeters>
          </Trackpoint>
          <Trackpoint>
            <Time>2022-07-09T09:03:31.000Z</Time>
            <Position>
              <LatitudeDegrees>42.82116458751261234283447265625</LatitudeDegrees>
              <LongitudeDegrees>-0.137128271162509918212890625</LongitudeDegrees>
            </Position>
            <AltitudeMeters>1796.800048828125</AltitudeMeters>
            <DistanceMeters>6254.6311965396</DistanceMeters>
          </Trackpoint>
          <Trackpoint>
            <Time>2022-07-09T09:03:37.000Z</Time>
            <Position>
              <LatitudeDegrees>42.82110004685819149017333984375</LatitudeDegrees>
              <LongitudeDegrees>-0.13711427338421344757080078125</LongitudeDegrees>
            </Position>
            <AltitudeMeters>1797</AltitudeMeters>
            <DistanceMeters>6261.9055520411</DistanceMeters>
          </Trackpoint>
          <Trackpoint>
            <Time>2022-07-09T09:03:42.000Z</Time>
            <Position>
              <LatitudeDegrees>42.82105562277138233184814453125</LatitudeDegrees>
              <LongitudeDegrees>-0.13711452484130859375</LongitudeDegrees>
            </Position>
            <AltitudeMeters>1797.199951171875</AltitudeMeters>
            <DistanceMeters>6266.8505947113</DistanceMeters>
          </Trackpoint>
          <Trackpoint>
            <Time>2022-07-09T09:03:44.000Z</Time>
            <Position>
              <LatitudeDegrees>42.82103617675602436065673828125</LatitudeDegrees>
              <LongitudeDegrees>-0.13712349347770214080810546875</LongitudeDegrees>
            </Position>
            <AltitudeMeters>1797.199951171875</AltitudeMeters>
            <DistanceMeters>6269.1351918716</DistanceMeters>
          </Trackpoint>
          <Trackpoint>
            <Time>2022-07-09T09:03:45.000Z</Time>
            <Position>
              <LatitudeDegrees>42.8210268728435039520263671875</LatitudeDegrees>
              <LongitudeDegrees>-0.13712734915316104888916015625</LongitudeDegrees>
            </Position>
            <AltitudeMeters>1797.199951171875</AltitudeMeters>
            <DistanceMeters>6270.2186631161</DistanceMeters>
          </Trackpoint>
          <Trackpoint>
            <Time>2022-07-09T09:03:48.000Z</Time>
            <Position>
              <LatitudeDegrees>42.8210070915520191192626953125</LatitudeDegrees>
              <LongitudeDegrees>-0.1371264271438121795654296875</LongitudeDegrees>
            </Position>
            <AltitudeMeters>1797.199951171875</AltitudeMeters>
            <DistanceMeters>6272.4227913172</DistanceMeters>
          </Trackpoint>
          <Trackpoint>
            <Time>2022-07-09T09:03:50.000Z</Time>
            <Position>
              <LatitudeDegrees>42.82099611125886440277099609375</LatitudeDegrees>
              <LongitudeDegrees>-0.13712416402995586395263671875</LongitudeDegrees>
            </Position>
            <AltitudeMeters>1797.199951171875</AltitudeMeters>
            <DistanceMeters>6273.6617880869</DistanceMeters>
          </Trackpoint>
          <Trackpoint>
            <Time>2022-07-09T09:03:52.000Z</Time>
            <Position>
              <LatitudeDegrees>42.820982448756694793701171875</LatitudeDegrees>
              <LongitudeDegrees>-0.13712726533412933349609375</LongitudeDegrees>
            </Position>
            <AltitudeMeters>1797.5999755859375</AltitudeMeters>
            <DistanceMeters>6275.205789441</DistanceMeters>
          </Trackpoint>
          <Trackpoint>
            <Time>2022-07-09T09:03:53.000Z</Time>
            <Position>
              <LatitudeDegrees>42.82097264192998409271240234375</LatitudeDegrees>
              <LongitudeDegrees>-0.13712986372411251068115234375</LongitudeDegrees>
            </Position>
            <AltitudeMeters>1797.5999755859375</AltitudeMeters>
            <DistanceMeters>6276.3180486162</DistanceMeters>
          </Trackpoint>
          <Trackpoint>
            <Time>2022-07-09T09:03:56.000Z</Time>
            <Position>
              <LatitudeDegrees>42.82094850204885005950927734375</LatitudeDegrees>
              <LongitudeDegrees>-0.13713070191442966461181640625</LongitudeDegrees>
            </Position>
            <AltitudeMeters>1798</AltitudeMeters>
            <DistanceMeters>6279.0058099812</DistanceMeters>
          </Trackpoint>
          <Trackpoint>
            <Time>2022-07-09T09:04:00.000Z</Time>
            <Position>
              <LatitudeDegrees>42.82095671631395816802978515625</LatitudeDegrees>
              <LongitudeDegrees>-0.13711117208003997802734375</LongitudeDegrees>
            </Position>
            <AltitudeMeters>1798.4000244140625</AltitudeMeters>
            <DistanceMeters>6280.8410806733</DistanceMeters>
          </Trackpoint>
          <Trackpoint>
            <Time>2022-07-09T09:04:01.000Z</Time>
            <Position>
              <LatitudeDegrees>42.82095503993332386016845703125</LatitudeDegrees>
              <LongitudeDegrees>-0.13711142353713512420654296875</LongitudeDegrees>
            </Position>
            <AltitudeMeters>1798.5999755859375</AltitudeMeters>
            <DistanceMeters>6281.0311341021</DistanceMeters>
          </Trackpoint>
          <Trackpoint>
            <Time>2022-07-09T09:04:02.000Z</Time>
            <Position>
              <LatitudeDegrees>42.82094615511596202850341796875</LatitudeDegrees>
              <LongitudeDegrees>-0.1371131837368011474609375</LongitudeDegrees>
            </Position>
            <AltitudeMeters>1799</AltitudeMeters>
            <DistanceMeters>6282.032302662</DistanceMeters>
          </Trackpoint>
          <Trackpoint>
            <Time>2022-07-09T09:04:05.000Z</Time>
            <Position>
              <LatitudeDegrees>42.8209232725203037261962890625</LatitudeDegrees>
              <LongitudeDegrees>-0.137123577296733856201171875</LongitudeDegrees>
            </Position>
            <AltitudeMeters>1799.5999755859375</AltitudeMeters>
            <DistanceMeters>6284.7167022228</DistanceMeters>
          </Trackpoint>
          <Trackpoint>
            <Time>2022-07-09T09:04:09.000Z</Time>
            <Position>
              <LatitudeDegrees>42.8208894096314907073974609375</LatitudeDegrees>
              <LongitudeDegrees>-0.13711175881326198577880859375</LongitudeDegrees>
            </Position>
            <AltitudeMeters>1800</AltitudeMeters>
            <DistanceMeters>6288.606998885</DistanceMeters>
          </Trackpoint>
          <Trackpoint>
            <Time>2022-07-09T09:04:10.000Z</Time>
            <Position>
              <LatitudeDegrees>42.8208803571760654449462890625</LatitudeDegrees>
              <LongitudeDegrees>-0.13711444102227687835693359375</LongitudeDegrees>
            </Position>
            <AltitudeMeters>1800.199951171875</AltitudeMeters>
            <DistanceMeters>6289.639253224</DistanceMeters>
          </Trackpoint>
          <Trackpoint>
            <Time>2022-07-09T09:04:14.000Z</Time>
            <Position>
              <LatitudeDegrees>42.82086686231195926666259765625</LatitudeDegrees>
              <LongitudeDegrees>-0.13712567277252674102783203125</LongitudeDegrees>
            </Position>
            <AltitudeMeters>1800.800048828125</AltitudeMeters>
            <DistanceMeters>6291.3966052502</DistanceMeters>
          </Trackpoint>
          <Trackpoint>
            <Time>2022-07-09T09:04:16.000Z</Time>
            <Position>
              <LatitudeDegrees>42.820859737694263458251953125</LatitudeDegrees>
              <LongitudeDegrees>-0.1371281035244464874267578125</LongitudeDegrees>
            </Position>
            <AltitudeMeters>1801.4000244140625</AltitudeMeters>
            <DistanceMeters>6292.2140559562</DistanceMeters>
          </Trackpoint>
          <Trackpoint>
            <Time>2022-07-09T09:04:22.000Z</Time>
            <Position>
              <LatitudeDegrees>42.82079947181046009063720703125</LatitudeDegrees>
              <LongitudeDegrees>-0.1371324621140956878662109375</LongitudeDegrees>
            </Position>
            <AltitudeMeters>1801.4000244140625</AltitudeMeters>
            <DistanceMeters>6298.9314432452</DistanceMeters>
          </Trackpoint>
          <Trackpoint>
            <Time>2022-07-09T09:04:27.000Z</Time>
            <Position>
              <LatitudeDegrees>42.82075001858174800872802734375</LatitudeDegrees>
              <LongitudeDegrees>-0.1371636427938938140869140625</LongitudeDegrees>
            </Position>
            <AltitudeMeters>1801.5999755859375</AltitudeMeters>
            <DistanceMeters>6304.9960538145</DistanceMeters>
          </Trackpoint>
          <Trackpoint>
            <Time>2022-07-09T09:04:33.000Z</Time>
            <Position>
              <LatitudeDegrees>42.82070861198008060455322265625</LatitudeDegrees>
              <LongitudeDegrees>-0.1371834240853786468505859375</LongitudeDegrees>
            </Position>
            <AltitudeMeters>1802.4000244140625</AltitudeMeters>
            <DistanceMeters>6309.8786148035</DistanceMeters>
          </Trackpoint>
          <Trackpoint>
            <Time>2022-07-09T09:04:34.000Z</Time>
            <Position>
              <LatitudeDegrees>42.82070048153400421142578125</LatitudeDegrees>
              <LongitudeDegrees>-0.1371820829808712005615234375</LongitudeDegrees>
            </Position>
            <AltitudeMeters>1802.5999755859375</AltitudeMeters>
            <DistanceMeters>6310.7851118837</DistanceMeters>
          </Trackpoint>
          <Trackpoint>
            <Time>2022-07-09T09:04:37.000Z</Time>
            <Position>
              <LatitudeDegrees>42.82066251151263713836669921875</LatitudeDegrees>
              <LongitudeDegrees>-0.13718334026634693145751953125</LongitudeDegrees>
            </Position>
            <AltitudeMeters>1803.4000244140625</AltitudeMeters>
            <DistanceMeters>6315.0124658176</DistanceMeters>
          </Trackpoint>
          <Trackpoint>
            <Time>2022-07-09T09:04:41.000Z</Time>
            <Position>
              <LatitudeDegrees>42.8206201829016208648681640625</LatitudeDegrees>
              <LongitudeDegrees>-0.1371897943317890167236328125</LongitudeDegrees>
            </Position>
            <AltitudeMeters>1803.5999755859375</AltitudeMeters>
            <DistanceMeters>6319.7523846136</DistanceMeters>
          </Trackpoint>
          <Trackpoint>
            <Time>2022-07-09T09:04:46.000Z</Time>
            <Position>
              <LatitudeDegrees>42.820581458508968353271484375</LatitudeDegrees>
              <LongitudeDegrees>-0.137219130992889404296875</LongitudeDegrees>
            </Position>
            <AltitudeMeters>1803.4000244140625</AltitudeMeters>
            <DistanceMeters>6324.682796948</DistanceMeters>
          </Trackpoint>
          <Trackpoint>
            <Time>2022-07-09T09:04:47.000Z</Time>
            <Position>
              <LatitudeDegrees>42.82057466916739940643310546875</LatitudeDegrees>
              <LongitudeDegrees>-0.1372223161160945892333984375</LongitudeDegrees>
            </Position>
            <AltitudeMeters>1803.4000244140625</AltitudeMeters>
            <DistanceMeters>6325.4891253575</DistanceMeters>
          </Trackpoint>
          <Trackpoint>
            <Time>2022-07-09T09:04:48.000Z</Time>
            <Position>
              <LatitudeDegrees>42.82056796364486217498779296875</LatitudeDegrees>
              <LongitudeDegrees>-0.1372233219444751739501953125</LongitudeDegrees>
            </Position>
            <AltitudeMeters>1803.4000244140625</AltitudeMeters>
            <DistanceMeters>6326.2493390725</DistanceMeters>
          </Trackpoint>
          <Trackpoint>
            <Time>2022-07-09T09:04:53.000Z</Time>
            <Position>
              <LatitudeDegrees>42.820542566478252410888671875</LatitudeDegrees>
              <LongitudeDegrees>-0.1372097432613372802734375</LongitudeDegrees>
            </Position>
            <AltitudeMeters>1803.199951171875</AltitudeMeters>
            <DistanceMeters>6329.2857362878</DistanceMeters>
          </Trackpoint>
          <Trackpoint>
            <Time>2022-07-09T09:04:55.000Z</Time>
            <Position>
              <LatitudeDegrees>42.8205343522131443023681640625</LatitudeDegrees>
              <LongitudeDegrees>-0.13720328919589519500732421875</LongitudeDegrees>
            </Position>
            <AltitudeMeters>1803</AltitudeMeters>
            <DistanceMeters>6330.3439089954</DistanceMeters>
          </Trackpoint>
          <Trackpoint>
            <Time>2022-07-09T09:05:01.000Z</Time>
            <Position>
              <LatitudeDegrees>42.82045304775238037109375</LatitudeDegrees>
              <LongitudeDegrees>-0.13722474686801433563232421875</LongitudeDegrees>
            </Position>
            <AltitudeMeters>1803</AltitudeMeters>
            <DistanceMeters>6339.5610104478</DistanceMeters>
          </Trackpoint>
          <Trackpoint>
            <Time>2022-07-09T09:05:03.000Z</Time>
            <Position>
              <LatitudeDegrees>42.8204310871660709381103515625</LatitudeDegrees>
              <LongitudeDegrees>-0.13723497278988361358642578125</LongitudeDegrees>
            </Position>
            <AltitudeMeters>1802.800048828125</AltitudeMeters>
            <DistanceMeters>6342.1442693377</DistanceMeters>
          </Trackpoint>
          <Trackpoint>
            <Time>2022-07-09T09:05:07.000Z</Time>
            <Position>
              <LatitudeDegrees>42.82039395533502101898193359375</LatitudeDegrees>
              <LongitudeDegrees>-0.13724419288337230682373046875</LongitudeDegrees>
            </Position>
            <AltitudeMeters>1803.4000244140625</AltitudeMeters>
            <DistanceMeters>6346.345911808</DistanceMeters>
          </Trackpoint>
          <Trackpoint>
            <Time>2022-07-09T09:05:09.000Z</Time>
            <Position>
              <LatitudeDegrees>42.82036595977842807769775390625</LatitudeDegrees>
              <LongitudeDegrees>-0.1372420974075794219970703125</LongitudeDegrees>
            </Position>
            <AltitudeMeters>1803.800048828125</AltitudeMeters>
            <DistanceMeters>6349.4659153988</DistanceMeters>
          </Trackpoint>
          <Trackpoint>
            <Time>2022-07-09T09:05:11.000Z</Time>
            <Position>
              <LatitudeDegrees>42.820338718593120574951171875</LatitudeDegrees>
              <LongitudeDegrees>-0.13723195530474185943603515625</LongitudeDegrees>
            </Position>
            <AltitudeMeters>1804</AltitudeMeters>
            <DistanceMeters>6352.6089877221</DistanceMeters>
          </Trackpoint>
          <Trackpoint>
            <Time>2022-07-09T09:05:13.000Z</Time>
            <Position>
              <LatitudeDegrees>42.82031717710196971893310546875</LatitudeDegrees>
              <LongitudeDegrees>-0.13721871189773082733154296875</LongitudeDegrees>
            </Position>
            <AltitudeMeters>1804.5999755859375</AltitudeMeters>
            <DistanceMeters>6355.2424452799</DistanceMeters>
          </Trackpoint>
          <Trackpoint>
            <Time>2022-07-09T09:05:16.000Z</Time>
            <Position>
              <LatitudeDegrees>42.8202859126031398773193359375</LatitudeDegrees>
              <LongitudeDegrees>-0.137195996940135955810546875</LongitudeDegrees>
            </Position>
            <AltitudeMeters>1804.5999755859375</AltitudeMeters>
            <DistanceMeters>6359.1857676909</DistanceMeters>
          </Trackpoint>
          <Trackpoint>
            <Time>2022-07-09T09:05:18.000Z</Time>
            <Position>
              <LatitudeDegrees>42.82027225010097026824951171875</LatitudeDegrees>
              <LongitudeDegrees>-0.137189291417598724365234375</LongitudeDegrees>
            </Position>
            <AltitudeMeters>1804.800048828125</AltitudeMeters>
            <DistanceMeters>6360.8012218352</DistanceMeters>
          </Trackpoint>
          <Trackpoint>
            <Time>2022-07-09T09:05:20.000Z</Time>
            <Position>
              <LatitudeDegrees>42.820264287292957305908203125</LatitudeDegrees>
              <LongitudeDegrees>-0.13719373382627964019775390625</LongitudeDegrees>
            </Position>
            <AltitudeMeters>1804.800048828125</AltitudeMeters>
            <DistanceMeters>6361.7609446062</DistanceMeters>
          </Trackpoint>
          <Trackpoint>
            <Time>2022-07-09T09:05:25.000Z</Time>
            <Position>
              <LatitudeDegrees>42.820229418575763702392578125</LatitudeDegrees>
              <LongitudeDegrees>-0.13719440437853336334228515625</LongitudeDegrees>
            </Position>
            <AltitudeMeters>1804.800048828125</AltitudeMeters>
            <DistanceMeters>6365.6419454447</DistanceMeters>
          </Trackpoint>
          <Trackpoint>
            <Time>2022-07-09T09:05:26.000Z</Time>
            <Position>
              <LatitudeDegrees>42.8202242217957973480224609375</LatitudeDegrees>
              <LongitudeDegrees>-0.13719541020691394805908203125</LongitudeDegrees>
            </Position>
            <AltitudeMeters>1805</AltitudeMeters>
            <DistanceMeters>6366.2277294534</DistanceMeters>
          </Trackpoint>
          <Trackpoint>
            <Time>2022-07-09T09:05:32.000Z</Time>
            <Position>
              <LatitudeDegrees>42.82020988874137401580810546875</LatitudeDegrees>
              <LongitudeDegrees>-0.13720236718654632568359375</LongitudeDegrees>
            </Position>
            <AltitudeMeters>1805.4000244140625</AltitudeMeters>
            <DistanceMeters>6367.9196320017</DistanceMeters>
          </Trackpoint>
          <Trackpoint>
            <Time>2022-07-09T09:05:33.000Z</Time>
            <Position>
              <LatitudeDegrees>42.8202103078365325927734375</LatitudeDegrees>
              <LongitudeDegrees>-0.1372001878917217254638671875</LongitudeDegrees>
            </Position>
            <AltitudeMeters>1805.4000244140625</AltitudeMeters>
            <DistanceMeters>6368.1096854304</DistanceMeters>
          </Trackpoint>
          <Trackpoint>
            <Time>2022-07-09T09:05:39.000Z</Time>
            <Position>
              <LatitudeDegrees>42.82018055208027362823486328125</LatitudeDegrees>
              <LongitudeDegrees>-0.13720178045332431793212890625</LongitudeDegrees>
            </Position>
            <AltitudeMeters>1805.5999755859375</AltitudeMeters>
            <DistanceMeters>6371.4233801894</DistanceMeters>
          </Trackpoint>
          <Trackpoint>
            <Time>2022-07-09T09:05:40.000Z</Time>
            <Position>
              <LatitudeDegrees>42.8201705776154994964599609375</LatitudeDegrees>
              <LongitudeDegrees>-0.137204043567180633544921875</LongitudeDegrees>
            </Position>
            <AltitudeMeters>1805.800048828125</AltitudeMeters>
            <DistanceMeters>6372.5477514369</DistanceMeters>
          </Trackpoint>
          <Trackpoint>
            <Time>2022-07-09T09:05:44.000Z</Time>
            <Position>
              <LatitudeDegrees>42.82013319432735443115234375</LatitudeDegrees>
              <LongitudeDegrees>-0.13721552677452564239501953125</LongitudeDegrees>
            </Position>
            <AltitudeMeters>1806.5999755859375</AltitudeMeters>
            <DistanceMeters>6376.8123233917</DistanceMeters>
          </Trackpoint>
          <Trackpoint>
            <Time>2022-07-09T09:05:45.000Z</Time>
            <Position>
              <LatitudeDegrees>42.82012389041483402252197265625</LatitudeDegrees>
              <LongitudeDegrees>-0.137213431298732757568359375</LongitudeDegrees>
            </Position>
            <AltitudeMeters>1806.800048828125</AltitudeMeters>
            <DistanceMeters>6377.8619277582</DistanceMeters>
          </Trackpoint>
          <Trackpoint>
            <Time>2022-07-09T09:05:46.000Z</Time>
            <Position>
              <LatitudeDegrees>42.8201165981590747833251953125</LatitudeDegrees>
              <LongitudeDegrees>-0.13721804134547710418701171875</LongitudeDegrees>
            </Position>
            <AltitudeMeters>1807</AltitudeMeters>
            <DistanceMeters>6378.7634303262</DistanceMeters>
          </Trackpoint>
          <Trackpoint>
            <Time>2022-07-09T09:05:52.000Z</Time>
            <Position>
              <LatitudeDegrees>42.82006303779780864715576171875</LatitudeDegrees>
              <LongitudeDegrees>-0.13724670745432376861572265625</LongitudeDegrees>
            </Position>
            <AltitudeMeters>1807</AltitudeMeters>
            <DistanceMeters>6385.1676950934</DistanceMeters>
          </Trackpoint>
          <Trackpoint>
            <Time>2022-07-09T09:05:53.000Z</Time>
            <Position>
              <LatitudeDegrees>42.8200542367994785308837890625</LatitudeDegrees>
              <LongitudeDegrees>-0.13724955730140209197998046875</LongitudeDegrees>
            </Position>
            <AltitudeMeters>1807</AltitudeMeters>
            <DistanceMeters>6386.1778429232</DistanceMeters>
          </Trackpoint>
          <Trackpoint>
            <Time>2022-07-09T09:05:59.000Z</Time>
            <Position>
              <LatitudeDegrees>42.82000520266592502593994140625</LatitudeDegrees>
              <LongitudeDegrees>-0.137263052165508270263671875</LongitudeDegrees>
            </Position>
            <AltitudeMeters>1807.199951171875</AltitudeMeters>
            <DistanceMeters>6391.7464408175</DistanceMeters>
          </Trackpoint>
          <Trackpoint>
            <Time>2022-07-09T09:06:02.000Z</Time>
            <Position>
              <LatitudeDegrees>42.8199715912342071533203125</LatitudeDegrees>
              <LongitudeDegrees>-0.13727604411542415618896484375</LongitudeDegrees>
            </Position>
            <AltitudeMeters>1807.800048828125</AltitudeMeters>
            <DistanceMeters>6395.6355767169</DistanceMeters>
          </Trackpoint>
          <Trackpoint>
            <Time>2022-07-09T09:06:06.000Z</Time>
            <Position>
              <LatitudeDegrees>42.8199405781924724578857421875</LatitudeDegrees>
              <LongitudeDegrees>-0.13729833997786045074462890625</LongitudeDegrees>
            </Position>
            <AltitudeMeters>1808</AltitudeMeters>
            <DistanceMeters>6399.5397756152</DistanceMeters>
          </Trackpoint>
          <Trackpoint>
            <Time>2022-07-09T09:06:07.000Z</Time>
            <Position>
              <LatitudeDegrees>42.81993093900382518768310546875</LatitudeDegrees>
              <LongitudeDegrees>-0.137301273643970489501953125</LongitudeDegrees>
            </Position>
            <AltitudeMeters>1807.800048828125</AltitudeMeters>
            <DistanceMeters>6400.6397893621</DistanceMeters>
          </Trackpoint>
          <Trackpoint>
            <Time>2022-07-09T09:06:10.000Z</Time>
            <Position>
              <LatitudeDegrees>42.8199010156095027923583984375</LatitudeDegrees>
              <LongitudeDegrees>-0.13731812126934528350830078125</LongitudeDegrees>
            </Position>
            <AltitudeMeters>1808</AltitudeMeters>
            <DistanceMeters>6404.2432945899</DistanceMeters>
          </Trackpoint>
          <Trackpoint>
            <Time>2022-07-09T09:06:16.000Z</Time>
            <Position>
              <LatitudeDegrees>42.81983815133571624755859375</LatitudeDegrees>
              <LongitudeDegrees>-0.13736329972743988037109375</LongitudeDegrees>
            </Position>
            <AltitudeMeters>1808</AltitudeMeters>
            <DistanceMeters>6412.1528059277</DistanceMeters>
          </Trackpoint>
          <Trackpoint>
            <Time>2022-07-09T09:06:22.000Z</Time>
            <Position>
              <LatitudeDegrees>42.8197863511741161346435546875</LatitudeDegrees>
              <LongitudeDegrees>-0.1373919658362865447998046875</LongitudeDegrees>
            </Position>
            <AltitudeMeters>1808</AltitudeMeters>
            <DistanceMeters>6418.3739720273</DistanceMeters>
          </Trackpoint>
          <Trackpoint>
            <Time>2022-07-09T09:06:24.000Z</Time>
            <Position>
              <LatitudeDegrees>42.819773443043231964111328125</LatitudeDegrees>
              <LongitudeDegrees>-0.13740244321525096893310546875</LongitudeDegrees>
            </Position>
            <AltitudeMeters>1808</AltitudeMeters>
            <DistanceMeters>6420.0470899842</DistanceMeters>
          </Trackpoint>
          <Trackpoint>
            <Time>2022-07-09T09:06:27.000Z</Time>
            <Position>
              <LatitudeDegrees>42.81975139863789081573486328125</LatitudeDegrees>
              <LongitudeDegrees>-0.13741719536483287811279296875</LongitudeDegrees>
            </Position>
            <AltitudeMeters>1808.5999755859375</AltitudeMeters>
            <DistanceMeters>6422.7814826582</DistanceMeters>
          </Trackpoint>
          <Trackpoint>
            <Time>2022-07-09T09:06:29.000Z</Time>
            <Position>
              <LatitudeDegrees>42.8197350539267063140869140625</LatitudeDegrees>
              <LongitudeDegrees>-0.13743328861892223358154296875</LongitudeDegrees>
            </Position>
            <AltitudeMeters>1809</AltitudeMeters>
            <DistanceMeters>6425.024193647</DistanceMeters>
          </Trackpoint>
          <Trackpoint>
            <Time>2022-07-09T09:06:32.000Z</Time>
            <Position>
              <LatitudeDegrees>42.8197209723293781280517578125</LatitudeDegrees>
              <LongitudeDegrees>-0.13744586147367954254150390625</LongitudeDegrees>
            </Position>
            <AltitudeMeters>1810.199951171875</AltitudeMeters>
            <DistanceMeters>6426.9008208911</DistanceMeters>
          </Trackpoint>
          <Trackpoint>
            <Time>2022-07-09T09:06:38.000Z</Time>
            <Position>
              <LatitudeDegrees>42.81969171948730945587158203125</LatitudeDegrees>
              <LongitudeDegrees>-0.13745005242526531219482421875</LongitudeDegrees>
            </Position>
            <AltitudeMeters>1810.5999755859375</AltitudeMeters>
            <DistanceMeters>6430.1761423738</DistanceMeters>
          </Trackpoint>
          <Trackpoint>
            <Time>2022-07-09T09:06:39.000Z</Time>
            <Position>
              <LatitudeDegrees>42.8196894563734531402587890625</LatitudeDegrees>
              <LongitudeDegrees>-0.13744586147367954254150390625</LongitudeDegrees>
            </Position>
            <AltitudeMeters>1810.5999755859375</AltitudeMeters>
            <DistanceMeters>6430.6011147598</DistanceMeters>
          </Trackpoint>
          <Trackpoint>
            <Time>2022-07-09T09:06:40.000Z</Time>
            <Position>
              <LatitudeDegrees>42.81968384049832820892333984375</LatitudeDegrees>
              <LongitudeDegrees>-0.13743974268436431884765625</LongitudeDegrees>
            </Position>
            <AltitudeMeters>1810.800048828125</AltitudeMeters>
            <DistanceMeters>6431.3961652935</DistanceMeters>
          </Trackpoint>
          <Trackpoint>
            <Time>2022-07-09T09:06:41.000Z</Time>
            <Position>
              <LatitudeDegrees>42.8196770511567592620849609375</LatitudeDegrees>
              <LongitudeDegrees>-0.1374415867030620574951171875</LongitudeDegrees>
            </Position>
            <AltitudeMeters>1811.199951171875</AltitudeMeters>
            <DistanceMeters>6432.1681659705</DistanceMeters>
          </Trackpoint>
          <Trackpoint>
            <Time>2022-07-09T09:06:43.000Z</Time>
            <Position>
              <LatitudeDegrees>42.81966540031135082244873046875</LatitudeDegrees>
              <LongitudeDegrees>-0.13744519092142581939697265625</LongitudeDegrees>
            </Position>
            <AltitudeMeters>1811.4000244140625</AltitudeMeters>
            <DistanceMeters>6433.4985399717</DistanceMeters>
          </Trackpoint>
          <Trackpoint>
            <Time>2022-07-09T09:06:45.000Z</Time>
            <Position>
              <LatitudeDegrees>42.81965718604624271392822265625</LatitudeDegrees>
              <LongitudeDegrees>-0.1374415867030620574951171875</LongitudeDegrees>
            </Position>
            <AltitudeMeters>1811.4000244140625</AltitudeMeters>
            <DistanceMeters>6434.4629557916</DistanceMeters>
          </Trackpoint>
          <Trackpoint>
            <Time>2022-07-09T09:06:46.000Z</Time>
            <Position>
              <LatitudeDegrees>42.8196519054472446441650390625</LatitudeDegrees>
              <LongitudeDegrees>-0.1374425925314426422119140625</LongitudeDegrees>
            </Position>
            <AltitudeMeters>1811.5999755859375</AltitudeMeters>
            <DistanceMeters>6435.0639575036</DistanceMeters>
          </Trackpoint>
          <Trackpoint>
            <Time>2022-07-09T09:06:48.000Z</Time>
            <Position>
              <LatitudeDegrees>42.81963966786861419677734375</LatitudeDegrees>
              <LongitudeDegrees>-0.137441419064998626708984375</LongitudeDegrees>
            </Position>
            <AltitudeMeters>1811.800048828125</AltitudeMeters>
            <DistanceMeters>6436.4344522684</DistanceMeters>
          </Trackpoint>
          <Trackpoint>
            <Time>2022-07-09T09:06:51.000Z</Time>
            <Position>
              <LatitudeDegrees>42.81961980275809764862060546875</LatitudeDegrees>
              <LongitudeDegrees>-0.1374385692179203033447265625</LongitudeDegrees>
            </Position>
            <AltitudeMeters>1812.199951171875</AltitudeMeters>
            <DistanceMeters>6438.6589706188</DistanceMeters>
          </Trackpoint>
          <Trackpoint>
            <Time>2022-07-09T09:06:52.000Z</Time>
            <Position>
              <LatitudeDegrees>42.8196059726178646087646484375</LatitudeDegrees>
              <LongitudeDegrees>-0.13741853646934032440185546875</LongitudeDegrees>
            </Position>
            <AltitudeMeters>1812.4000244140625</AltitudeMeters>
            <DistanceMeters>6440.9036939103</DistanceMeters>
          </Trackpoint>
          <Trackpoint>
            <Time>2022-07-09T09:06:53.000Z</Time>
            <Position>
              <LatitudeDegrees>42.81960069201886653900146484375</LatitudeDegrees>
              <LongitudeDegrees>-0.13741820119321346282958984375</LongitudeDegrees>
            </Position>
            <AltitudeMeters>1812.5999755859375</AltitudeMeters>
            <DistanceMeters>6441.4971355514</DistanceMeters>
          </Trackpoint>
          <Trackpoint>
            <Time>2022-07-09T09:06:54.000Z</Time>
            <Position>
              <LatitudeDegrees>42.81959432177245616912841796875</LatitudeDegrees>
              <LongitudeDegrees>-0.137416608631610870361328125</LongitudeDegrees>
            </Position>
            <AltitudeMeters>1812.800048828125</AltitudeMeters>
            <DistanceMeters>6442.220837447</DistanceMeters>
          </Trackpoint>
          <Trackpoint>
            <Time>2022-07-09T09:06:57.000Z</Time>
            <Position>
              <LatitudeDegrees>42.8195853531360626220703125</LatitudeDegrees>
              <LongitudeDegrees>-0.1374218054115772247314453125</LongitudeDegrees>
            </Position>
            <AltitudeMeters>1813.199951171875</AltitudeMeters>
            <DistanceMeters>6443.3084679055</DistanceMeters>
          </Trackpoint>
          <Trackpoint>
            <Time>2022-07-09T09:06:59.000Z</Time>
            <Position>
              <LatitudeDegrees>42.8195768035948276519775390625</LatitudeDegrees>
              <LongitudeDegrees>-0.13742842711508274078369140625</LongitudeDegrees>
            </Position>
            <AltitudeMeters>1813.4000244140625</AltitudeMeters>
            <DistanceMeters>6444.400241733</DistanceMeters>
          </Trackpoint>
          <Trackpoint>
            <Time>2022-07-09T09:07:00.000Z</Time>
            <Position>
              <LatitudeDegrees>42.819572277367115020751953125</LatitudeDegrees>
              <LongitudeDegrees>-0.1374308578670024871826171875</LongitudeDegrees>
            </Position>
            <AltitudeMeters>1813.800048828125</AltitudeMeters>
            <DistanceMeters>6444.937794006</DistanceMeters>
          </Trackpoint>
          <Trackpoint>
            <Time>2022-07-09T09:07:01.000Z</Time>
            <Position>
              <LatitudeDegrees>42.81956582330167293548583984375</LatitudeDegrees>
              <LongitudeDegrees>-0.1374323666095733642578125</LongitudeDegrees>
            </Position>
            <AltitudeMeters>1814</AltitudeMeters>
            <DistanceMeters>6445.6738677704</DistanceMeters>
          </Trackpoint>
          <Trackpoint>
            <Time>2022-07-09T09:07:02.000Z</Time>
            <Position>
              <LatitudeDegrees>42.81955794431269168853759765625</LatitudeDegrees>
              <LongitudeDegrees>-0.1374342106282711029052734375</LongitudeDegrees>
            </Position>
            <AltitudeMeters>1814.199951171875</AltitudeMeters>
            <DistanceMeters>6446.5652973678</DistanceMeters>
          </Trackpoint>
          <Trackpoint>
            <Time>2022-07-09T09:07:03.000Z</Time>
            <Position>
              <LatitudeDegrees>42.8195506520569324493408203125</LatitudeDegrees>
              <LongitudeDegrees>-0.1374358870089054107666015625</LongitudeDegrees>
            </Position>
            <AltitudeMeters>1814.199951171875</AltitudeMeters>
            <DistanceMeters>6447.3827480739</DistanceMeters>
          </Trackpoint>
          <Trackpoint>
            <Time>2022-07-09T09:07:04.000Z</Time>
            <Position>
              <LatitudeDegrees>42.81954386271536350250244140625</LatitudeDegrees>
              <LongitudeDegrees>-0.13743831776082515716552734375</LongitudeDegrees>
            </Position>
            <AltitudeMeters>1814.199951171875</AltitudeMeters>
            <DistanceMeters>6448.1663584351</DistanceMeters>
          </Trackpoint>
          <Trackpoint>
            <Time>2022-07-09T09:07:09.000Z</Time>
            <Position>
              <LatitudeDegrees>42.8195010311901569366455078125</LatitudeDegrees>
              <LongitudeDegrees>-0.1374714262783527374267578125</LongitudeDegrees>
            </Position>
            <AltitudeMeters>1814.5999755859375</AltitudeMeters>
            <DistanceMeters>6453.6458660933</DistanceMeters>
          </Trackpoint>
          <Trackpoint>
            <Time>2022-07-09T09:07:10.000Z</Time>
            <Position>
              <LatitudeDegrees>42.81949474476277828216552734375</LatitudeDegrees>
              <LongitudeDegrees>-0.1374754495918750762939453125</LongitudeDegrees>
            </Position>
            <AltitudeMeters>1814.800048828125</AltitudeMeters>
            <DistanceMeters>6454.4178667703</DistanceMeters>
          </Trackpoint>
          <Trackpoint>
            <Time>2022-07-09T09:07:11.000Z</Time>
            <Position>
              <LatitudeDegrees>42.8194903023540973663330078125</LatitudeDegrees>
              <LongitudeDegrees>-0.13747737742960453033447265625</LongitudeDegrees>
            </Position>
            <AltitudeMeters>1815</AltitudeMeters>
            <DistanceMeters>6454.9469531241</DistanceMeters>
          </Trackpoint>
          <Trackpoint>
            <Time>2022-07-09T09:07:13.000Z</Time>
            <Position>
              <LatitudeDegrees>42.81947714276611804962158203125</LatitudeDegrees>
              <LongitudeDegrees>-0.13746949844062328338623046875</LongitudeDegrees>
            </Position>
            <AltitudeMeters>1815.5999755859375</AltitudeMeters>
            <DistanceMeters>6456.5483717795</DistanceMeters>
          </Trackpoint>
          <Trackpoint>
            <Time>2022-07-09T09:07:18.000Z</Time>
            <Position>
              <LatitudeDegrees>42.81945903785526752471923828125</LatitudeDegrees>
              <LongitudeDegrees>-0.13746530748903751373291015625</LongitudeDegrees>
            </Position>
            <AltitudeMeters>1816.5999755859375</AltitudeMeters>
            <DistanceMeters>6458.5908935829</DistanceMeters>
          </Trackpoint>
          <Trackpoint>
            <Time>2022-07-09T09:07:19.000Z</Time>
            <Position>
              <LatitudeDegrees>42.8194540925323963165283203125</LatitudeDegrees>
              <LongitudeDegrees>-0.13746329583227634429931640625</LongitudeDegrees>
            </Position>
            <AltitudeMeters>1817</AltitudeMeters>
            <DistanceMeters>6459.1689185204</DistanceMeters>
          </Trackpoint>
          <Trackpoint>
            <Time>2022-07-09T09:07:23.000Z</Time>
            <Position>
              <LatitudeDegrees>42.81942903064191341400146484375</LatitudeDegrees>
              <LongitudeDegrees>-0.13743680901825428009033203125</LongitudeDegrees>
            </Position>
            <AltitudeMeters>1818.199951171875</AltitudeMeters>
            <DistanceMeters>6462.6990042832</DistanceMeters>
          </Trackpoint>
          <Trackpoint>
            <Time>2022-07-09T09:07:24.000Z</Time>
            <Position>
              <LatitudeDegrees>42.819426096975803375244140625</LatitudeDegrees>
              <LongitudeDegrees>-0.13743094168603420257568359375</LongitudeDegrees>
            </Position>
            <AltitudeMeters>1818.4000244140625</AltitudeMeters>
            <DistanceMeters>6463.2847882919</DistanceMeters>
          </Trackpoint>
          <Trackpoint>
            <Time>2022-07-09T09:07:29.000Z</Time>
            <Position>
              <LatitudeDegrees>42.81940095126628875732421875</LatitudeDegrees>
              <LongitudeDegrees>-0.137413255870342254638671875</LongitudeDegrees>
            </Position>
            <AltitudeMeters>1819.199951171875</AltitudeMeters>
            <DistanceMeters>6466.4336013914</DistanceMeters>
          </Trackpoint>
          <Trackpoint>
            <Time>2022-07-09T09:07:31.000Z</Time>
            <Position>
              <LatitudeDegrees>42.819385528564453125</LatitudeDegrees>
              <LongitudeDegrees>-0.13741166330873966217041015625</LongitudeDegrees>
            </Position>
            <AltitudeMeters>1819.4000244140625</AltitudeMeters>
            <DistanceMeters>6468.1546083855</DistanceMeters>
          </Trackpoint>
          <Trackpoint>
            <Time>2022-07-09T09:07:37.000Z</Time>
            <Position>
              <LatitudeDegrees>42.8193447925150394439697265625</LatitudeDegrees>
              <LongitudeDegrees>-0.13736707158386707305908203125</LongitudeDegrees>
            </Position>
            <AltitudeMeters>1820.199951171875</AltitudeMeters>
            <DistanceMeters>6473.9699016956</DistanceMeters>
          </Trackpoint>
          <Trackpoint>
            <Time>2022-07-09T09:07:38.000Z</Time>
            <Position>
              <LatitudeDegrees>42.81933389604091644287109375</LatitudeDegrees>
              <LongitudeDegrees>-0.13736103661358356475830078125</LongitudeDegrees>
            </Position>
            <AltitudeMeters>1820.199951171875</AltitudeMeters>
            <DistanceMeters>6475.2797545592</DistanceMeters>
          </Trackpoint>
          <Trackpoint>
            <Time>2022-07-09T09:07:39.000Z</Time>
            <Position>
              <LatitudeDegrees>42.81932224519550800323486328125</LatitudeDegrees>
              <LongitudeDegrees>-0.13735651038587093353271484375</LongitudeDegrees>
            </Position>
            <AltitudeMeters>1820.5999755859375</AltitudeMeters>
            <DistanceMeters>6476.6236352417</DistanceMeters>
          </Trackpoint>
          <Trackpoint>
            <Time>2022-07-09T09:07:44.000Z</Time>
            <Position>
              <LatitudeDegrees>42.81927756965160369873046875</LatitudeDegrees>
              <LongitudeDegrees>-0.13731745071709156036376953125</LongitudeDegrees>
            </Position>
            <AltitudeMeters>1821.5999755859375</AltitudeMeters>
            <DistanceMeters>6482.5305985376</DistanceMeters>
          </Trackpoint>
          <Trackpoint>
            <Time>2022-07-09T09:07:45.000Z</Time>
            <Position>
              <LatitudeDegrees>42.81927681528031826019287109375</LatitudeDegrees>
              <LongitudeDegrees>-0.13730169273912906646728515625</LongitudeDegrees>
            </Position>
            <AltitudeMeters>1822</AltitudeMeters>
            <DistanceMeters>6483.8196036058</DistanceMeters>
          </Trackpoint>
          <Trackpoint>
            <Time>2022-07-09T09:07:48.000Z</Time>
            <Position>
              <LatitudeDegrees>42.8192831017076969146728515625</LatitudeDegrees>
              <LongitudeDegrees>-0.1372783072292804718017578125</LongitudeDegrees>
            </Position>
            <AltitudeMeters>1822.800048828125</AltitudeMeters>
            <DistanceMeters>6485.8532641014</DistanceMeters>
          </Trackpoint>
          <Trackpoint>
            <Time>2022-07-09T09:07:53.000Z</Time>
            <Position>
              <LatitudeDegrees>42.8192733787000179290771484375</LatitudeDegrees>
              <LongitudeDegrees>-0.1372437737882137298583984375</LongitudeDegrees>
            </Position>
            <AltitudeMeters>1823.4000244140625</AltitudeMeters>
            <DistanceMeters>6488.8732603279</DistanceMeters>
          </Trackpoint>
          <Trackpoint>
            <Time>2022-07-09T09:07:55.000Z</Time>
            <Position>
              <LatitudeDegrees>42.81927044503390789031982421875</LatitudeDegrees>
              <LongitudeDegrees>-0.137235224246978759765625</LongitudeDegrees>
            </Position>
            <AltitudeMeters>1823.5999755859375</AltitudeMeters>
            <DistanceMeters>6489.6452610049</DistanceMeters>
          </Trackpoint>
          <Trackpoint>
            <Time>2022-07-09T09:07:58.000Z</Time>
            <Position>
              <LatitudeDegrees>42.8192661702632904052734375</LatitudeDegrees>
              <LongitudeDegrees>-0.1372286863625049591064453125</LongitudeDegrees>
            </Position>
            <AltitudeMeters>1823.800048828125</AltitudeMeters>
            <DistanceMeters>6490.3626969654</DistanceMeters>
          </Trackpoint>
          <Trackpoint>
            <Time>2022-07-09T09:08:00.000Z</Time>
            <Position>
              <LatitudeDegrees>42.81926223076879978179931640625</LatitudeDegrees>
              <LongitudeDegrees>-0.13722223229706287384033203125</LongitudeDegrees>
            </Position>
            <AltitudeMeters>1823.800048828125</AltitudeMeters>
            <DistanceMeters>6491.0479443478</DistanceMeters>
          </Trackpoint>
          <Trackpoint>
            <Time>2022-07-09T09:08:01.000Z</Time>
            <Position>
              <LatitudeDegrees>42.819259129464626312255859375</LatitudeDegrees>
              <LongitudeDegrees>-0.13722005300223827362060546875</LongitudeDegrees>
            </Position>
            <AltitudeMeters>1823.800048828125</AltitudeMeters>
            <DistanceMeters>6491.4511085525</DistanceMeters>
          </Trackpoint>
          <Trackpoint>
            <Time>2022-07-09T09:08:02.000Z</Time>
            <Position>
              <LatitudeDegrees>42.8192554414272308349609375</LatitudeDegrees>
              <LongitudeDegrees>-0.13721921481192111968994140625</LongitudeDegrees>
            </Position>
            <AltitudeMeters>1824</AltitudeMeters>
            <DistanceMeters>6491.8760809385</DistanceMeters>
          </Trackpoint>
          <Trackpoint>
            <Time>2022-07-09T09:08:03.000Z</Time>
            <Position>
              <LatitudeDegrees>42.81924982555210590362548828125</LatitudeDegrees>
              <LongitudeDegrees>-0.13721837662160396575927734375</LongitudeDegrees>
            </Position>
            <AltitudeMeters>1824.199951171875</AltitudeMeters>
            <DistanceMeters>6492.5135395175</DistanceMeters>
          </Trackpoint>
          <Trackpoint>
            <Time>2022-07-09T09:08:05.000Z</Time>
            <Position>
              <LatitudeDegrees>42.8192361630499362945556640625</LatitudeDegrees>
              <LongitudeDegrees>-0.1372192986309528350830078125</LongitudeDegrees>
            </Position>
            <AltitudeMeters>1824.5999755859375</AltitudeMeters>
            <DistanceMeters>6494.036933638</DistanceMeters>
          </Trackpoint>
          <Trackpoint>
            <Time>2022-07-09T09:08:06.000Z</Time>
            <Position>
              <LatitudeDegrees>42.81923021189868450164794921875</LatitudeDegrees>
              <LongitudeDegrees>-0.13721837662160396575927734375</LongitudeDegrees>
            </Position>
            <AltitudeMeters>1824.800048828125</AltitudeMeters>
            <DistanceMeters>6494.7021206385</DistanceMeters>
          </Trackpoint>
          <Trackpoint>
            <Time>2022-07-09T09:08:07.000Z</Time>
            <Position>
              <LatitudeDegrees>42.81922317110002040863037109375</LatitudeDegrees>
              <LongitudeDegrees>-0.1372203044593334197998046875</LongitudeDegrees>
            </Position>
            <AltitudeMeters>1824.800048828125</AltitudeMeters>
            <DistanceMeters>6495.5028299663</DistanceMeters>
          </Trackpoint>
          <Trackpoint>
            <Time>2022-07-09T09:08:10.000Z</Time>
            <Position>
              <LatitudeDegrees>42.81920959241688251495361328125</LatitudeDegrees>
              <LongitudeDegrees>-0.1372270099818706512451171875</LongitudeDegrees>
            </Position>
            <AltitudeMeters>1825.800048828125</AltitudeMeters>
            <DistanceMeters>6497.1098775272</DistanceMeters>
          </Trackpoint>
          <Trackpoint>
            <Time>2022-07-09T09:08:11.000Z</Time>
            <Position>
              <LatitudeDegrees>42.819203473627567291259765625</LatitudeDegrees>
              <LongitudeDegrees>-0.1372312009334564208984375</LongitudeDegrees>
            </Position>
            <AltitudeMeters>1826</AltitudeMeters>
            <DistanceMeters>6497.8700912421</DistanceMeters>
          </Trackpoint>
          <Trackpoint>
            <Time>2022-07-09T09:08:14.000Z</Time>
            <Position>
              <LatitudeDegrees>42.81918562017381191253662109375</LatitudeDegrees>
              <LongitudeDegrees>-0.137238241732120513916015625</LongitudeDegrees>
            </Position>
            <AltitudeMeters>1826.800048828125</AltitudeMeters>
            <DistanceMeters>6499.9389692556</DistanceMeters>
          </Trackpoint>
          <Trackpoint>
            <Time>2022-07-09T09:08:15.000Z</Time>
            <Position>
              <LatitudeDegrees>42.81917891465127468109130859375</LatitudeDegrees>
              <LongitudeDegrees>-0.13724268414080142974853515625</LongitudeDegrees>
            </Position>
            <AltitudeMeters>1827</AltitudeMeters>
            <DistanceMeters>6500.7673929453</DistanceMeters>
          </Trackpoint>
          <Trackpoint>
            <Time>2022-07-09T09:08:21.000Z</Time>
            <Position>
              <LatitudeDegrees>42.81911789439618587493896484375</LatitudeDegrees>
              <LongitudeDegrees>-0.13724117539823055267333984375</LongitudeDegrees>
            </Position>
            <AltitudeMeters>1828.199951171875</AltitudeMeters>
            <DistanceMeters>6507.5603076826</DistanceMeters>
          </Trackpoint>
          <Trackpoint>
            <Time>2022-07-09T09:08:25.000Z</Time>
            <Position>
              <LatitudeDegrees>42.819072715938091278076171875</LatitudeDegrees>
              <LongitudeDegrees>-0.13725257478654384613037109375</LongitudeDegrees>
            </Position>
            <AltitudeMeters>1829.199951171875</AltitudeMeters>
            <DistanceMeters>6512.6741224409</DistanceMeters>
          </Trackpoint>
          <Trackpoint>
            <Time>2022-07-09T09:08:28.000Z</Time>
            <Position>
              <LatitudeDegrees>42.81904949806630611419677734375</LatitudeDegrees>
              <LongitudeDegrees>-0.137267746031284332275390625</LongitudeDegrees>
            </Position>
            <AltitudeMeters>1829.5999755859375</AltitudeMeters>
            <DistanceMeters>6515.5407179066</DistanceMeters>
          </Trackpoint>
          <Trackpoint>
            <Time>2022-07-09T09:08:34.000Z</Time>
            <Position>
              <LatitudeDegrees>42.8190229274332523345947265625</LatitudeDegrees>
              <LongitudeDegrees>-0.137303955852985382080078125</LongitudeDegrees>
            </Position>
            <AltitudeMeters>1830</AltitudeMeters>
            <DistanceMeters>6519.7240524794</DistanceMeters>
          </Trackpoint>
          <Trackpoint>
            <Time>2022-07-09T09:08:36.000Z</Time>
            <Position>
              <LatitudeDegrees>42.81901127658784389495849609375</LatitudeDegrees>
              <LongitudeDegrees>-0.13731426559388637542724609375</LongitudeDegrees>
            </Position>
            <AltitudeMeters>1830.199951171875</AltitudeMeters>
            <DistanceMeters>6521.2738912885</DistanceMeters>
          </Trackpoint>
          <Trackpoint>
            <Time>2022-07-09T09:08:39.000Z</Time>
            <Position>
              <LatitudeDegrees>42.81898948363959789276123046875</LatitudeDegrees>
              <LongitudeDegrees>-0.1373275928199291229248046875</LongitudeDegrees>
            </Position>
            <AltitudeMeters>1830.4000244140625</AltitudeMeters>
            <DistanceMeters>6523.9312433125</DistanceMeters>
          </Trackpoint>
          <Trackpoint>
            <Time>2022-07-09T09:08:43.000Z</Time>
            <Position>
              <LatitudeDegrees>42.81894556246697902679443359375</LatitudeDegrees>
              <LongitudeDegrees>-0.13736891560256481170654296875</LongitudeDegrees>
            </Position>
            <AltitudeMeters>1830.4000244140625</AltitudeMeters>
            <DistanceMeters>6529.8717431856</DistanceMeters>
          </Trackpoint>
          <Trackpoint>
            <Time>2022-07-09T09:08:45.000Z</Time>
            <Position>
              <LatitudeDegrees>42.81892930157482624053955078125</LatitudeDegrees>
              <LongitudeDegrees>-0.1373725198209285736083984375</LongitudeDegrees>
            </Position>
            <AltitudeMeters>1830.5999755859375</AltitudeMeters>
            <DistanceMeters>6531.7094723795</DistanceMeters>
          </Trackpoint>
          <Trackpoint>
            <Time>2022-07-09T09:08:51.000Z</Time>
            <Position>
              <LatitudeDegrees>42.8189082629978656768798828125</LatitudeDegrees>
              <LongitudeDegrees>-0.13738341629505157470703125</LongitudeDegrees>
            </Position>
            <AltitudeMeters>1830.4000244140625</AltitudeMeters>
            <DistanceMeters>6534.2128447154</DistanceMeters>
          </Trackpoint>
          <Trackpoint>
            <Time>2022-07-09T09:08:52.000Z</Time>
            <Position>
              <LatitudeDegrees>42.8189052455127239227294921875</LatitudeDegrees>
              <LongitudeDegrees>-0.1373906247317790985107421875</LongitudeDegrees>
            </Position>
            <AltitudeMeters>1830.4000244140625</AltitudeMeters>
            <DistanceMeters>6534.8847850566</DistanceMeters>
          </Trackpoint>
          <Trackpoint>
            <Time>2022-07-09T09:08:58.000Z</Time>
            <Position>
              <LatitudeDegrees>42.81886509619653224945068359375</LatitudeDegrees>
              <LongitudeDegrees>-0.137446783483028411865234375</LongitudeDegrees>
            </Position>
            <AltitudeMeters>1830.5999755859375</AltitudeMeters>
            <DistanceMeters>6541.2876396587</DistanceMeters>
          </Trackpoint>
          <Trackpoint>
            <Time>2022-07-09T09:08:59.000Z</Time>
            <Position>
              <LatitudeDegrees>42.818854115903377532958984375</LatitudeDegrees>
              <LongitudeDegrees>-0.1374511420726776123046875</LongitudeDegrees>
            </Position>
            <AltitudeMeters>1830.800048828125</AltitudeMeters>
            <DistanceMeters>6542.5590104479</DistanceMeters>
          </Trackpoint>
          <Trackpoint>
            <Time>2022-07-09T09:09:04.000Z</Time>
            <Position>
              <LatitudeDegrees>42.81881245784461498260498046875</LatitudeDegrees>
              <LongitudeDegrees>-0.13746463693678379058837890625</LongitudeDegrees>
            </Position>
            <AltitudeMeters>1831</AltitudeMeters>
            <DistanceMeters>6547.3255261914</DistanceMeters>
          </Trackpoint>
          <Trackpoint>
            <Time>2022-07-09T09:09:05.000Z</Time>
            <Position>
              <LatitudeDegrees>42.818803824484348297119140625</LatitudeDegrees>
              <LongitudeDegrees>-0.137465894222259521484375</LongitudeDegrees>
            </Position>
            <AltitudeMeters>1831.199951171875</AltitudeMeters>
            <DistanceMeters>6548.2946123331</DistanceMeters>
          </Trackpoint>
          <Trackpoint>
            <Time>2022-07-09T09:09:08.000Z</Time>
            <Position>
              <LatitudeDegrees>42.81877976842224597930908203125</LatitudeDegrees>
              <LongitudeDegrees>-0.137481652200222015380859375</LongitudeDegrees>
            </Position>
            <AltitudeMeters>1831.4000244140625</AltitudeMeters>
            <DistanceMeters>6551.2633417936</DistanceMeters>
          </Trackpoint>
          <Trackpoint>
            <Time>2022-07-09T09:09:12.000Z</Time>
            <Position>
              <LatitudeDegrees>42.8187627531588077545166015625</LatitudeDegrees>
              <LongitudeDegrees>-0.13748726807534694671630859375</LongitudeDegrees>
            </Position>
            <AltitudeMeters>1832.199951171875</AltitudeMeters>
            <DistanceMeters>6553.2108099208</DistanceMeters>
          </Trackpoint>
          <Trackpoint>
            <Time>2022-07-09T09:09:13.000Z</Time>
            <Position>
              <LatitudeDegrees>42.8187573887407779693603515625</LatitudeDegrees>
              <LongitudeDegrees>-0.13748827390372753143310546875</LongitudeDegrees>
            </Position>
            <AltitudeMeters>1832.5999755859375</AltitudeMeters>
            <DistanceMeters>6553.826653416</DistanceMeters>
          </Trackpoint>
          <Trackpoint>
            <Time>2022-07-09T09:09:15.000Z</Time>
            <Position>
              <LatitudeDegrees>42.81875051558017730712890625</LatitudeDegrees>
              <LongitudeDegrees>-0.13749179430305957794189453125</LongitudeDegrees>
            </Position>
            <AltitudeMeters>1832.5999755859375</AltitudeMeters>
            <DistanceMeters>6554.6441041221</DistanceMeters>
          </Trackpoint>
          <Trackpoint>
            <Time>2022-07-09T09:09:19.000Z</Time>
            <Position>
              <LatitudeDegrees>42.8187295608222484588623046875</LatitudeDegrees>
              <LongitudeDegrees>-0.137514509260654449462890625</LongitudeDegrees>
            </Position>
            <AltitudeMeters>1832.5999755859375</AltitudeMeters>
            <DistanceMeters>6557.6219447941</DistanceMeters>
          </Trackpoint>
          <Trackpoint>
            <Time>2022-07-09T09:09:21.000Z</Time>
            <Position>
              <LatitudeDegrees>42.81870894134044647216796875</LatitudeDegrees>
              <LongitudeDegrees>-0.13752599246799945831298828125</LongitudeDegrees>
            </Position>
            <AltitudeMeters>1832.4000244140625</AltitudeMeters>
            <DistanceMeters>6560.0999383336</DistanceMeters>
          </Trackpoint>
          <Trackpoint>
            <Time>2022-07-09T09:09:26.000Z</Time>
            <Position>
              <LatitudeDegrees>42.8186705522239208221435546875</LatitudeDegrees>
              <LongitudeDegrees>-0.13756924308836460113525390625</LongitudeDegrees>
            </Position>
            <AltitudeMeters>1832.5999755859375</AltitudeMeters>
            <DistanceMeters>6565.6425297909</DistanceMeters>
          </Trackpoint>
          <Trackpoint>
            <Time>2022-07-09T09:09:31.000Z</Time>
            <Position>
              <LatitudeDegrees>42.8186316601932048797607421875</LatitudeDegrees>
              <LongitudeDegrees>-0.1376343704760074615478515625</LongitudeDegrees>
            </Position>
            <AltitudeMeters>1833</AltitudeMeters>
            <DistanceMeters>6572.4989558255</DistanceMeters>
          </Trackpoint>
          <Trackpoint>
            <Time>2022-07-09T09:09:33.000Z</Time>
            <Position>
              <LatitudeDegrees>42.8186125494539737701416015625</LatitudeDegrees>
              <LongitudeDegrees>-0.13766010291874408721923828125</LongitudeDegrees>
            </Position>
            <AltitudeMeters>1833.199951171875</AltitudeMeters>
            <DistanceMeters>6575.4889015908</DistanceMeters>
          </Trackpoint>
          <Trackpoint>
            <Time>2022-07-09T09:09:35.000Z</Time>
            <Position>
              <LatitudeDegrees>42.818597294390201568603515625</LatitudeDegrees>
              <LongitudeDegrees>-0.13768424279987812042236328125</LongitudeDegrees>
            </Position>
            <AltitudeMeters>1833.4000244140625</AltitudeMeters>
            <DistanceMeters>6578.0878431407</DistanceMeters>
          </Trackpoint>
          <Trackpoint>
            <Time>2022-07-09T09:09:37.000Z</Time>
            <Position>
              <LatitudeDegrees>42.81858162023127079010009765625</LatitudeDegrees>
              <LongitudeDegrees>-0.13770117424428462982177734375</LongitudeDegrees>
            </Position>
            <AltitudeMeters>1833.5999755859375</AltitudeMeters>
            <DistanceMeters>6580.3123614911</DistanceMeters>
          </Trackpoint>
          <Trackpoint>
            <Time>2022-07-09T09:09:39.000Z</Time>
            <Position>
              <LatitudeDegrees>42.81856686808168888092041015625</LatitudeDegrees>
              <LongitudeDegrees>-0.1377178542315959930419921875</LongitudeDegrees>
            </Position>
            <AltitudeMeters>1834.199951171875</AltitudeMeters>
            <DistanceMeters>6582.4457059377</DistanceMeters>
          </Trackpoint>
          <Trackpoint>
            <Time>2022-07-09T09:09:43.000Z</Time>
            <Position>
              <LatitudeDegrees>42.81853652559220790863037109375</LatitudeDegrees>
              <LongitudeDegrees>-0.13774895109236240386962890625</LongitudeDegrees>
            </Position>
            <AltitudeMeters>1834.800048828125</AltitudeMeters>
            <DistanceMeters>6586.6709232256</DistanceMeters>
          </Trackpoint>
          <Trackpoint>
            <Time>2022-07-09T09:09:48.000Z</Time>
            <Position>
              <LatitudeDegrees>42.81849310733377933502197265625</LatitudeDegrees>
              <LongitudeDegrees>-0.13778298161923885345458984375</LongitudeDegrees>
            </Position>
            <AltitudeMeters>1834.800048828125</AltitudeMeters>
            <DistanceMeters>6592.2460037739</DistanceMeters>
          </Trackpoint>
          <Trackpoint>
            <Time>2022-07-09T09:09:50.000Z</Time>
            <Position>
              <LatitudeDegrees>42.81847265549004077911376953125</LatitudeDegrees>
              <LongitudeDegrees>-0.137793458998203277587890625</LongitudeDegrees>
            </Position>
            <AltitudeMeters>1834.800048828125</AltitudeMeters>
            <DistanceMeters>6594.6761622038</DistanceMeters>
          </Trackpoint>
          <Trackpoint>
            <Time>2022-07-09T09:09:51.000Z</Time>
            <Position>
              <LatitudeDegrees>42.8184646926820278167724609375</LatitudeDegrees>
              <LongitudeDegrees>-0.1377916149795055389404296875</LongitudeDegrees>
            </Position>
            <AltitudeMeters>1834.800048828125</AltitudeMeters>
            <DistanceMeters>6595.5726424342</DistanceMeters>
          </Trackpoint>
          <Trackpoint>
            <Time>2022-07-09T09:09:57.000Z</Time>
            <Position>
              <LatitudeDegrees>42.81840308569371700286865234375</LatitudeDegrees>
              <LongitudeDegrees>-0.13778415508568286895751953125</LongitudeDegrees>
            </Position>
            <AltitudeMeters>1834.800048828125</AltitudeMeters>
            <DistanceMeters>6602.4560145076</DistanceMeters>
          </Trackpoint>
          <Trackpoint>
            <Time>2022-07-09T09:09:59.000Z</Time>
            <Position>
              <LatitudeDegrees>42.81838146038353443145751953125</LatitudeDegrees>
              <LongitudeDegrees>-0.13779111206531524658203125</LongitudeDegrees>
            </Position>
            <AltitudeMeters>1835.4000244140625</AltitudeMeters>
            <DistanceMeters>6604.9303612556</DistanceMeters>
          </Trackpoint>
          <Trackpoint>
            <Time>2022-07-09T09:10:01.000Z</Time>
            <Position>
              <LatitudeDegrees>42.8183607570827007293701171875</LatitudeDegrees>
              <LongitudeDegrees>-0.13779706321656703948974609375</LongitudeDegrees>
            </Position>
            <AltitudeMeters>1835.800048828125</AltitudeMeters>
            <DistanceMeters>6607.2850304333</DistanceMeters>
          </Trackpoint>
          <Trackpoint>
            <Time>2022-07-09T09:10:04.000Z</Time>
            <Position>
              <LatitudeDegrees>42.818339802324771881103515625</LatitudeDegrees>
              <LongitudeDegrees>-0.13780913315713405609130859375</LongitudeDegrees>
            </Position>
            <AltitudeMeters>1836.4000244140625</AltitudeMeters>
            <DistanceMeters>6609.8188781698</DistanceMeters>
          </Trackpoint>
          <Trackpoint>
            <Time>2022-07-09T09:10:07.000Z</Time>
            <Position>
              <LatitudeDegrees>42.81831122003495693206787109375</LatitudeDegrees>
              <LongitudeDegrees>-0.1378167606890201568603515625</LongitudeDegrees>
            </Position>
            <AltitudeMeters>1836.800048828125</AltitudeMeters>
            <DistanceMeters>6613.0609467966</DistanceMeters>
          </Trackpoint>
          <Trackpoint>
            <Time>2022-07-09T09:10:09.000Z</Time>
            <Position>
              <LatitudeDegrees>42.8182910196483135223388671875</LatitudeDegrees>
              <LongitudeDegrees>-0.13781164772808551788330078125</LongitudeDegrees>
            </Position>
            <AltitudeMeters>1836.800048828125</AltitudeMeters>
            <DistanceMeters>6615.3475193979</DistanceMeters>
          </Trackpoint>
          <Trackpoint>
            <Time>2022-07-09T09:10:11.000Z</Time>
            <Position>
              <LatitudeDegrees>42.8182665444910526275634765625</LatitudeDegrees>
              <LongitudeDegrees>-0.137794129550457000732421875</LongitudeDegrees>
            </Position>
            <AltitudeMeters>1837</AltitudeMeters>
            <DistanceMeters>6618.4252702308</DistanceMeters>
          </Trackpoint>
          <Trackpoint>
            <Time>2022-07-09T09:10:14.000Z</Time>
            <Position>
              <LatitudeDegrees>42.8182387165725231170654296875</LatitudeDegrees>
              <LongitudeDegrees>-0.13779513537883758544921875</LongitudeDegrees>
            </Position>
            <AltitudeMeters>1837.199951171875</AltitudeMeters>
            <DistanceMeters>6621.5249478489</DistanceMeters>
          </Trackpoint>
          <Trackpoint>
            <Time>2022-07-09T09:10:17.000Z</Time>
            <Position>
              <LatitudeDegrees>42.81820334494113922119140625</LatitudeDegrees>
              <LongitudeDegrees>-0.13780460692942142486572265625</LongitudeDegrees>
            </Position>
            <AltitudeMeters>1838</AltitudeMeters>
            <DistanceMeters>6625.5386314907</DistanceMeters>
          </Trackpoint>
          <Trackpoint>
            <Time>2022-07-09T09:10:21.000Z</Time>
            <Position>
              <LatitudeDegrees>42.818141318857669830322265625</LatitudeDegrees>
              <LongitudeDegrees>-0.13781919144093990325927734375</LongitudeDegrees>
            </Position>
            <AltitudeMeters>1838.5999755859375</AltitudeMeters>
            <DistanceMeters>6632.5448783854</DistanceMeters>
          </Trackpoint>
          <Trackpoint>
            <Time>2022-07-09T09:10:23.000Z</Time>
            <Position>
              <LatitudeDegrees>42.81812061555683612823486328125</LatitudeDegrees>
              <LongitudeDegrees>-0.137833021581172943115234375</LongitudeDegrees>
            </Position>
            <AltitudeMeters>1838.800048828125</AltitudeMeters>
            <DistanceMeters>6635.1123588243</DistanceMeters>
          </Trackpoint>
          <Trackpoint>
            <Time>2022-07-09T09:10:24.000Z</Time>
            <Position>
              <LatitudeDegrees>42.81811122782528400421142578125</LatitudeDegrees>
              <LongitudeDegrees>-0.1378415711224079132080078125</LongitudeDegrees>
            </Position>
            <AltitudeMeters>1839</AltitudeMeters>
            <DistanceMeters>6636.3694440949</DistanceMeters>
          </Trackpoint>
          <Trackpoint>
            <Time>2022-07-09T09:10:25.000Z</Time>
            <Position>
              <LatitudeDegrees>42.81810435466468334197998046875</LatitudeDegrees>
              <LongitudeDegrees>-0.1378499530255794525146484375</LongitudeDegrees>
            </Position>
            <AltitudeMeters>1839</AltitudeMeters>
            <DistanceMeters>6637.3973151685</DistanceMeters>
          </Trackpoint>
          <Trackpoint>
            <Time>2022-07-09T09:10:27.000Z</Time>
            <Position>
              <LatitudeDegrees>42.81809580512344837188720703125</LatitudeDegrees>
              <LongitudeDegrees>-0.137862525880336761474609375</LongitudeDegrees>
            </Position>
            <AltitudeMeters>1839.199951171875</AltitudeMeters>
            <DistanceMeters>6638.8003677922</DistanceMeters>
          </Trackpoint>
          <Trackpoint>
            <Time>2022-07-09T09:10:29.000Z</Time>
            <Position>
              <LatitudeDegrees>42.8180821426212787628173828125</LatitudeDegrees>
              <LongitudeDegrees>-0.1378717459738254547119140625</LongitudeDegrees>
            </Position>
            <AltitudeMeters>1839.199951171875</AltitudeMeters>
            <DistanceMeters>6640.5002573363</DistanceMeters>
          </Trackpoint>
          <Trackpoint>
            <Time>2022-07-09T09:10:31.000Z</Time>
            <Position>
              <LatitudeDegrees>42.81807200051844120025634765625</LatitudeDegrees>
              <LongitudeDegrees>-0.13787702657282352447509765625</LongitudeDegrees>
            </Position>
            <AltitudeMeters>1839.199951171875</AltitudeMeters>
            <DistanceMeters>6641.7097499505</DistanceMeters>
          </Trackpoint>
          <Trackpoint>
            <Time>2022-07-09T09:10:36.000Z</Time>
            <Position>
              <LatitudeDegrees>42.81803629361093044281005859375</LatitudeDegrees>
              <LongitudeDegrees>-0.1378643698990345001220703125</LongitudeDegrees>
            </Position>
            <AltitudeMeters>1839.800048828125</AltitudeMeters>
            <DistanceMeters>6645.8168392845</DistanceMeters>
          </Trackpoint>
          <Trackpoint>
            <Time>2022-07-09T09:10:37.000Z</Time>
            <Position>
              <LatitudeDegrees>42.8180271573364734649658203125</LatitudeDegrees>
              <LongitudeDegrees>-0.137862861156463623046875</LongitudeDegrees>
            </Position>
            <AltitudeMeters>1839.800048828125</AltitudeMeters>
            <DistanceMeters>6646.8447103581</DistanceMeters>
          </Trackpoint>
          <Trackpoint>
            <Time>2022-07-09T09:10:39.000Z</Time>
            <Position>
              <LatitudeDegrees>42.8180083818733692169189453125</LatitudeDegrees>
              <LongitudeDegrees>-0.1378533057868480682373046875</LongitudeDegrees>
            </Position>
            <AltitudeMeters>1839.800048828125</AltitudeMeters>
            <DistanceMeters>6649.0753094078</DistanceMeters>
          </Trackpoint>
          <Trackpoint>
            <Time>2022-07-09T09:10:41.000Z</Time>
            <Position>
              <LatitudeDegrees>42.8179882653057575225830078125</LatitudeDegrees>
              <LongitudeDegrees>-0.1378358714282512664794921875</LongitudeDegrees>
            </Position>
            <AltitudeMeters>1839.800048828125</AltitudeMeters>
            <DistanceMeters>6651.7292611079</DistanceMeters>
          </Trackpoint>
          <Trackpoint>
            <Time>2022-07-09T09:10:42.000Z</Time>
            <Position>
              <LatitudeDegrees>42.817983739078044891357421875</LatitudeDegrees>
              <LongitudeDegrees>-0.1378301717340946197509765625</LongitudeDegrees>
            </Position>
            <AltitudeMeters>1839.800048828125</AltitudeMeters>
            <DistanceMeters>6652.4210660309</DistanceMeters>
          </Trackpoint>
          <Trackpoint>
            <Time>2022-07-09T09:10:46.000Z</Time>
            <Position>
              <LatitudeDegrees>42.81795255839824676513671875</LatitudeDegrees>
              <LongitudeDegrees>-0.13779379427433013916015625</LongitudeDegrees>
            </Position>
            <AltitudeMeters>1840.199951171875</AltitudeMeters>
            <DistanceMeters>6656.9882836287</DistanceMeters>
          </Trackpoint>
          <Trackpoint>
            <Time>2022-07-09T09:10:48.000Z</Time>
            <Position>
              <LatitudeDegrees>42.8179409913718700408935546875</LatitudeDegrees>
              <LongitudeDegrees>-0.137771330773830413818359375</LongitudeDegrees>
            </Position>
            <AltitudeMeters>1840.5999755859375</AltitudeMeters>
            <DistanceMeters>6659.2289805075</DistanceMeters>
          </Trackpoint>
          <Trackpoint>
            <Time>2022-07-09T09:10:49.000Z</Time>
            <Position>
              <LatitudeDegrees>42.817932106554508209228515625</LatitudeDegrees>
              <LongitudeDegrees>-0.13775900937616825103759765625</LongitudeDegrees>
            </Position>
            <AltitudeMeters>1840.5999755859375</AltitudeMeters>
            <DistanceMeters>6660.6384544582</DistanceMeters>
          </Trackpoint>
          <Trackpoint>
            <Time>2022-07-09T09:10:53.000Z</Time>
            <Position>
              <LatitudeDegrees>42.817909307777881622314453125</LatitudeDegrees>
              <LongitudeDegrees>-0.13774375431239604949951171875</LongitudeDegrees>
            </Position>
            <AltitudeMeters>1840.5999755859375</AltitudeMeters>
            <DistanceMeters>6663.4669960841</DistanceMeters>
          </Trackpoint>
          <Trackpoint>
            <Time>2022-07-09T09:10:56.000Z</Time>
            <Position>
              <LatitudeDegrees>42.81789480708539485931396484375</LatitudeDegrees>
              <LongitudeDegrees>-0.137735791504383087158203125</LongitudeDegrees>
            </Position>
            <AltitudeMeters>1841.199951171875</AltitudeMeters>
            <DistanceMeters>6665.2088645307</DistanceMeters>
          </Trackpoint>
          <Trackpoint>
            <Time>2022-07-09T09:10:57.000Z</Time>
            <Position>
              <LatitudeDegrees>42.81788558699190616607666015625</LatitudeDegrees>
              <LongitudeDegrees>-0.13773218728601932525634765625</LongitudeDegrees>
            </Position>
            <AltitudeMeters>1841.4000244140625</AltitudeMeters>
            <DistanceMeters>6666.275536754</DistanceMeters>
          </Trackpoint>
          <Trackpoint>
            <Time>2022-07-09T09:10:59.000Z</Time>
            <Position>
              <LatitudeDegrees>42.81785331666469573974609375</LatitudeDegrees>
              <LongitudeDegrees>-0.13771123252809047698974609375</LongitudeDegrees>
            </Position>
            <AltitudeMeters>1841.5999755859375</AltitudeMeters>
            <DistanceMeters>6670.2541953227</DistanceMeters>
          </Trackpoint>
          <Trackpoint>
            <Time>2022-07-09T09:11:00.000Z</Time>
            <Position>
              <LatitudeDegrees>42.817835547029972076416015625</LatitudeDegrees>
              <LongitudeDegrees>-0.13770435936748981475830078125</LongitudeDegrees>
            </Position>
            <AltitudeMeters>1841.5999755859375</AltitudeMeters>
            <DistanceMeters>6672.3099374699</DistanceMeters>
          </Trackpoint>
          <Trackpoint>
            <Time>2022-07-09T09:11:05.000Z</Time>
            <Position>
              <LatitudeDegrees>42.8177927993237972259521484375</LatitudeDegrees>
              <LongitudeDegrees>-0.13771408237516880035400390625</LongitudeDegrees>
            </Position>
            <AltitudeMeters>1841.800048828125</AltitudeMeters>
            <DistanceMeters>6677.1338888581</DistanceMeters>
          </Trackpoint>
          <Trackpoint>
            <Time>2022-07-09T09:11:07.000Z</Time>
            <Position>
              <LatitudeDegrees>42.8177716769278049468994140625</LatitudeDegrees>
              <LongitudeDegrees>-0.13769798912107944488525390625</LongitudeDegrees>
            </Position>
            <AltitudeMeters>1841.800048828125</AltitudeMeters>
            <DistanceMeters>6679.8266850599</DistanceMeters>
          </Trackpoint>
          <Trackpoint>
            <Time>2022-07-09T09:11:13.000Z</Time>
            <Position>
              <LatitudeDegrees>42.81773404218256473541259765625</LatitudeDegrees>
              <LongitudeDegrees>-0.1376373879611492156982421875</LongitudeDegrees>
            </Position>
            <AltitudeMeters>1841.5999755859375</AltitudeMeters>
            <DistanceMeters>6686.3094295227</DistanceMeters>
          </Trackpoint>
          <Trackpoint>
            <Time>2022-07-09T09:11:14.000Z</Time>
            <Position>
              <LatitudeDegrees>42.8177244029939174652099609375</LatitudeDegrees>
              <LongitudeDegrees>-0.1376290060579776763916015625</LongitudeDegrees>
            </Position>
            <AltitudeMeters>1841.800048828125</AltitudeMeters>
            <DistanceMeters>6687.5843466808</DistanceMeters>
          </Trackpoint>
          <Trackpoint>
            <Time>2022-07-09T09:11:18.000Z</Time>
            <Position>
              <LatitudeDegrees>42.81771023757755756378173828125</LatitudeDegrees>
              <LongitudeDegrees>-0.13759237714111804962158203125</LongitudeDegrees>
            </Position>
            <AltitudeMeters>1842.199951171875</AltitudeMeters>
            <DistanceMeters>6690.9654821081</DistanceMeters>
          </Trackpoint>
          <Trackpoint>
            <Time>2022-07-09T09:11:19.000Z</Time>
            <Position>
              <LatitudeDegrees>42.817706800997257232666015625</LatitudeDegrees>
              <LongitudeDegrees>-0.137583576142787933349609375</LongitudeDegrees>
            </Position>
            <AltitudeMeters>1842.199951171875</AltitudeMeters>
            <DistanceMeters>6691.7773907116</DistanceMeters>
          </Trackpoint>
          <Trackpoint>
            <Time>2022-07-09T09:11:20.000Z</Time>
            <Position>
              <LatitudeDegrees>42.81770001165568828582763671875</LatitudeDegrees>
              <LongitudeDegrees>-0.1375716738402843475341796875</LongitudeDegrees>
            </Position>
            <AltitudeMeters>1842.199951171875</AltitudeMeters>
            <DistanceMeters>6693.0090777021</DistanceMeters>
          </Trackpoint>
          <Trackpoint>
            <Time>2022-07-09T09:11:22.000Z</Time>
            <Position>
              <LatitudeDegrees>42.81769104301929473876953125</LatitudeDegrees>
              <LongitudeDegrees>-0.13752012513577938079833984375</LongitudeDegrees>
            </Position>
            <AltitudeMeters>1842.199951171875</AltitudeMeters>
            <DistanceMeters>6697.3346202567</DistanceMeters>
          </Trackpoint>
          <Trackpoint>
            <Time>2022-07-09T09:11:25.000Z</Time>
            <Position>
              <LatitudeDegrees>42.81778316013514995574951171875</LatitudeDegrees>
              <LongitudeDegrees>-0.13764300383627414703369140625</LongitudeDegrees>
            </Position>
            <AltitudeMeters>1842.199951171875</AltitudeMeters>
            <DistanceMeters>6711.6789334802</DistanceMeters>
          </Trackpoint>
          <Trackpoint>
            <Time>2022-07-09T09:11:29.000Z</Time>
            <Position>
              <LatitudeDegrees>42.81775181181728839874267578125</LatitudeDegrees>
              <LongitudeDegrees>-0.1375958137214183807373046875</LongitudeDegrees>
            </Position>
            <AltitudeMeters>1842.4000244140625</AltitudeMeters>
            <DistanceMeters>6716.8776851377</DistanceMeters>
          </Trackpoint>
          <Trackpoint>
            <Time>2022-07-09T09:11:30.000Z</Time>
            <Position>
              <LatitudeDegrees>42.81774510629475116729736328125</LatitudeDegrees>
              <LongitudeDegrees>-0.1375834085047245025634765625</LongitudeDegrees>
            </Position>
            <AltitudeMeters>1842.4000244140625</AltitudeMeters>
            <DistanceMeters>6718.1347704084</DistanceMeters>
          </Trackpoint>
          <Trackpoint>
            <Time>2022-07-09T09:11:31.000Z</Time>
            <Position>
              <LatitudeDegrees>42.81773219816386699676513671875</LatitudeDegrees>
              <LongitudeDegrees>-0.13757192529737949371337890625</LongitudeDegrees>
            </Position>
            <AltitudeMeters>1842.4000244140625</AltitudeMeters>
            <DistanceMeters>6719.845251267</DistanceMeters>
          </Trackpoint>
          <Trackpoint>
            <Time>2022-07-09T09:11:34.000Z</Time>
            <Position>
              <LatitudeDegrees>42.81765240244567394256591796875</LatitudeDegrees>
              <LongitudeDegrees>-0.13733739964663982391357421875</LongitudeDegrees>
            </Position>
            <AltitudeMeters>1842.4000244140625</AltitudeMeters>
            <DistanceMeters>6740.951880351</DistanceMeters>
          </Trackpoint>
          <Trackpoint>
            <Time>2022-07-09T09:11:37.000Z</Time>
            <Position>
              <LatitudeDegrees>42.81763362698256969451904296875</LatitudeDegrees>
              <LongitudeDegrees>-0.13732172548770904541015625</LongitudeDegrees>
            </Position>
            <AltitudeMeters>1842.199951171875</AltitudeMeters>
            <DistanceMeters>6743.4005474902</DistanceMeters>
          </Trackpoint>
          <Trackpoint>
            <Time>2022-07-09T09:11:40.000Z</Time>
            <Position>
              <LatitudeDegrees>42.817630358040332794189453125</LatitudeDegrees>
              <LongitudeDegrees>-0.13728174380958080291748046875</LongitudeDegrees>
            </Position>
            <AltitudeMeters>1842.800048828125</AltitudeMeters>
            <DistanceMeters>6746.6841295699</DistanceMeters>
          </Trackpoint>
          <Trackpoint>
            <Time>2022-07-09T09:11:43.000Z</Time>
            <Position>
              <LatitudeDegrees>42.817594818770885467529296875</LatitudeDegrees>
              <LongitudeDegrees>-0.13726263307034969329833984375</LongitudeDegrees>
            </Position>
            <AltitudeMeters>1842.800048828125</AltitudeMeters>
            <DistanceMeters>6750.9359777611</DistanceMeters>
          </Trackpoint>
          <Trackpoint>
            <Time>2022-07-09T09:11:49.000Z</Time>
            <Position>
              <LatitudeDegrees>42.81754008494317531585693359375</LatitudeDegrees>
              <LongitudeDegrees>-0.137273781001567840576171875</LongitudeDegrees>
            </Position>
            <AltitudeMeters>1842.800048828125</AltitudeMeters>
            <DistanceMeters>6757.0944127136</DistanceMeters>
          </Trackpoint>
          <Trackpoint>
            <Time>2022-07-09T09:11:53.000Z</Time>
            <Position>
              <LatitudeDegrees>42.81751410104334354400634765625</LatitudeDegrees>
              <LongitudeDegrees>-0.1372607052326202392578125</LongitudeDegrees>
            </Position>
            <AltitudeMeters>1843.199951171875</AltitudeMeters>
            <DistanceMeters>6760.1765613828</DistanceMeters>
          </Trackpoint>
          <Trackpoint>
            <Time>2022-07-09T09:11:57.000Z</Time>
            <Position>
              <LatitudeDegrees>42.8174819983541965484619140625</LatitudeDegrees>
              <LongitudeDegrees>-0.13724050484597682952880859375</LongitudeDegrees>
            </Position>
            <AltitudeMeters>1843.4000244140625</AltitudeMeters>
            <DistanceMeters>6764.1107132641</DistanceMeters>
          </Trackpoint>
          <Trackpoint>
            <Time>2022-07-09T09:12:03.000Z</Time>
            <Position>
              <LatitudeDegrees>42.817467749118804931640625</LatitudeDegrees>
              <LongitudeDegrees>-0.1371596194803714752197265625</LongitudeDegrees>
            </Position>
            <AltitudeMeters>1844</AltitudeMeters>
            <DistanceMeters>6770.9022985338</DistanceMeters>
          </Trackpoint>
          <Trackpoint>
            <Time>2022-07-09T09:12:21.000Z</Time>
            <Position>
              <LatitudeDegrees>42.81741745769977569580078125</LatitudeDegrees>
              <LongitudeDegrees>-0.137057863175868988037109375</LongitudeDegrees>
            </Position>
            <AltitudeMeters>1845</AltitudeMeters>
            <DistanceMeters>6780.9202958186</DistanceMeters>
          </Trackpoint>
          <Trackpoint>
            <Time>2022-07-09T09:17:04.000Z</Time>
            <Position>
              <LatitudeDegrees>42.81571433879435062408447265625</LatitudeDegrees>
              <LongitudeDegrees>-0.13734695501625537872314453125</LongitudeDegrees>
            </Position>
            <AltitudeMeters>1878.800048828125</AltitudeMeters>
            <DistanceMeters>6971.9445560853</DistanceMeters>
          </Trackpoint>
          <Trackpoint>
            <Time>2022-07-09T09:17:07.000Z</Time>
            <Position>
              <LatitudeDegrees>42.81570964492857456207275390625</LatitudeDegrees>
              <LongitudeDegrees>-0.13732365332543849945068359375</LongitudeDegrees>
            </Position>
            <AltitudeMeters>1878.800048828125</AltitudeMeters>
            <DistanceMeters>6973.9196492537</DistanceMeters>
          </Trackpoint>
          <Trackpoint>
            <Time>2022-07-09T09:17:08.000Z</Time>
            <Position>
              <LatitudeDegrees>42.81570545397698879241943359375</LatitudeDegrees>
              <LongitudeDegrees>-0.13731191866099834442138671875</LongitudeDegrees>
            </Position>
            <AltitudeMeters>1878.800048828125</AltitudeMeters>
            <DistanceMeters>6974.986321477</DistanceMeters>
          </Trackpoint>
          <Trackpoint>
            <Time>2022-07-09T09:17:12.000Z</Time>
            <Position>
              <LatitudeDegrees>42.8156788833439350128173828125</LatitudeDegrees>
              <LongitudeDegrees>-0.137282498180866241455078125</LongitudeDegrees>
            </Position>
            <AltitudeMeters>1879.4000244140625</AltitudeMeters>
            <DistanceMeters>6978.7968808745</DistanceMeters>
          </Trackpoint>
          <Trackpoint>
            <Time>2022-07-09T09:17:14.000Z</Time>
            <Position>
              <LatitudeDegrees>42.8156534023582935333251953125</LatitudeDegrees>
              <LongitudeDegrees>-0.137281827628612518310546875</LongitudeDegrees>
            </Position>
            <AltitudeMeters>1879.5999755859375</AltitudeMeters>
            <DistanceMeters>6981.6349837951</DistanceMeters>
          </Trackpoint>
          <Trackpoint>
            <Time>2022-07-09T09:17:15.000Z</Time>
            <Position>
              <LatitudeDegrees>42.8156470321118831634521484375</LatitudeDegrees>
              <LongitudeDegrees>-0.13727822341024875640869140625</LongitudeDegrees>
            </Position>
            <AltitudeMeters>1879.800048828125</AltitudeMeters>
            <DistanceMeters>6982.4069844721</DistanceMeters>
          </Trackpoint>
          <Trackpoint>
            <Time>2022-07-09T09:17:18.000Z</Time>
            <Position>
              <LatitudeDegrees>42.8156255744397640228271484375</LatitudeDegrees>
              <LongitudeDegrees>-0.13726246543228626251220703125</LongitudeDegrees>
            </Position>
            <AltitudeMeters>1880.4000244140625</AltitudeMeters>
            <DistanceMeters>6985.1181617488</DistanceMeters>
          </Trackpoint>
          <Trackpoint>
            <Time>2022-07-09T09:17:19.000Z</Time>
            <Position>
              <LatitudeDegrees>42.815620712935924530029296875</LatitudeDegrees>
              <LongitudeDegrees>-0.137259699404239654541015625</LongitudeDegrees>
            </Position>
            <AltitudeMeters>1880.4000244140625</AltitudeMeters>
            <DistanceMeters>6985.7039457575</DistanceMeters>
          </Trackpoint>
          <Trackpoint>
            <Time>2022-07-09T09:17:20.000Z</Time>
            <Position>
              <LatitudeDegrees>42.81561434268951416015625</LatitudeDegrees>
              <LongitudeDegrees>-0.13725374825298786163330078125</LongitudeDegrees>
            </Position>
            <AltitudeMeters>1880.5999755859375</AltitudeMeters>
            <DistanceMeters>6986.5644492545</DistanceMeters>
          </Trackpoint>
          <Trackpoint>
            <Time>2022-07-09T09:17:22.000Z</Time>
            <Position>
              <LatitudeDegrees>42.81559430994093418121337890625</LatitudeDegrees>
              <LongitudeDegrees>-0.13724167831242084503173828125</LongitudeDegrees>
            </Position>
            <AltitudeMeters>1880.5999755859375</AltitudeMeters>
            <DistanceMeters>6989.0020280327</DistanceMeters>
          </Trackpoint>
          <Trackpoint>
            <Time>2022-07-09T09:17:23.000Z</Time>
            <Position>
              <LatitudeDegrees>42.81559028662741184234619140625</LatitudeDegrees>
              <LongitudeDegrees>-0.13723681680858135223388671875</LongitudeDegrees>
            </Position>
            <AltitudeMeters>1880.800048828125</AltitudeMeters>
            <DistanceMeters>6989.6030297447</DistanceMeters>
          </Trackpoint>
          <Trackpoint>
            <Time>2022-07-09T09:17:25.000Z</Time>
            <Position>
              <LatitudeDegrees>42.8155843354761600494384765625</LatitudeDegrees>
              <LongitudeDegrees>-0.13722407631576061248779296875</LongitudeDegrees>
            </Position>
            <AltitudeMeters>1881.4000244140625</AltitudeMeters>
            <DistanceMeters>6990.8420265144</DistanceMeters>
          </Trackpoint>
          <Trackpoint>
            <Time>2022-07-09T09:17:29.000Z</Time>
            <Position>
              <LatitudeDegrees>42.81557285226881504058837890625</LatitudeDegrees>
              <LongitudeDegrees>-0.137206725776195526123046875</LongitudeDegrees>
            </Position>
            <AltitudeMeters>1882.4000244140625</AltitudeMeters>
            <DistanceMeters>6992.7473062132</DistanceMeters>
          </Trackpoint>
          <Trackpoint>
            <Time>2022-07-09T09:17:31.000Z</Time>
            <Position>
              <LatitudeDegrees>42.815566398203372955322265625</LatitudeDegrees>
              <LongitudeDegrees>-0.13719859533011913299560546875</LongitudeDegrees>
            </Position>
            <AltitudeMeters>1882.4000244140625</AltitudeMeters>
            <DistanceMeters>6993.7256661179</DistanceMeters>
          </Trackpoint>
          <Trackpoint>
            <Time>2022-07-09T09:17:32.000Z</Time>
            <Position>
              <LatitudeDegrees>42.81556271016597747802734375</LatitudeDegrees>
              <LongitudeDegrees>-0.13719809241592884063720703125</LongitudeDegrees>
            </Position>
            <AltitudeMeters>1882.5999755859375</AltitudeMeters>
            <DistanceMeters>6994.1398779627</DistanceMeters>
          </Trackpoint>
          <Trackpoint>
            <Time>2022-07-09T09:17:35.000Z</Time>
            <Position>
              <LatitudeDegrees>42.815546952188014984130859375</LatitudeDegrees>
              <LongitudeDegrees>-0.13719373382627964019775390625</LongitudeDegrees>
            </Position>
            <AltitudeMeters>1882.800048828125</AltitudeMeters>
            <DistanceMeters>6995.9277949242</DistanceMeters>
          </Trackpoint>
          <Trackpoint>
            <Time>2022-07-09T09:17:36.000Z</Time>
            <Position>
              <LatitudeDegrees>42.8155441023409366607666015625</LatitudeDegrees>
              <LongitudeDegrees>-0.13719239272177219390869140625</LongitudeDegrees>
            </Position>
            <AltitudeMeters>1883</AltitudeMeters>
            <DistanceMeters>6996.256977119</DistanceMeters>
          </Trackpoint>
          <Trackpoint>
            <Time>2022-07-09T09:17:38.000Z</Time>
            <Position>
              <LatitudeDegrees>42.81552842818200588226318359375</LatitudeDegrees>
              <LongitudeDegrees>-0.13718384318053722381591796875</LongitudeDegrees>
            </Position>
            <AltitudeMeters>1883.5999755859375</AltitudeMeters>
            <DistanceMeters>6998.1384100745</DistanceMeters>
          </Trackpoint>
          <Trackpoint>
            <Time>2022-07-09T09:17:40.000Z</Time>
            <Position>
              <LatitudeDegrees>42.8155162744224071502685546875</LatitudeDegrees>
              <LongitudeDegrees>-0.1371830888092517852783203125</LongitudeDegrees>
            </Position>
            <AltitudeMeters>1884</AltitudeMeters>
            <DistanceMeters>6999.4956630334</DistanceMeters>
          </Trackpoint>
          <Trackpoint>
            <Time>2022-07-09T09:17:41.000Z</Time>
            <Position>
              <LatitudeDegrees>42.8155065514147281646728515625</LatitudeDegrees>
              <LongitudeDegrees>-0.1371829211711883544921875</LongitudeDegrees>
            </Position>
            <AltitudeMeters>1884.199951171875</AltitudeMeters>
            <DistanceMeters>7000.5791342779</DistanceMeters>
          </Trackpoint>
          <Trackpoint>
            <Time>2022-07-09T09:17:42.000Z</Time>
            <Position>
              <LatitudeDegrees>42.815499007701873779296875</LatitudeDegrees>
              <LongitudeDegrees>-0.13717981986701488494873046875</LongitudeDegrees>
            </Position>
            <AltitudeMeters>1884.4000244140625</AltitudeMeters>
            <DistanceMeters>7001.4500685012</DistanceMeters>
          </Trackpoint>
          <Trackpoint>
            <Time>2022-07-09T09:17:44.000Z</Time>
            <Position>
              <LatitudeDegrees>42.81547595746815204620361328125</LatitudeDegrees>
              <LongitudeDegrees>-0.1371659897267818450927734375</LongitudeDegrees>
            </Position>
            <AltitudeMeters>1884.5999755859375</AltitudeMeters>
            <DistanceMeters>7004.2513425738</DistanceMeters>
          </Trackpoint>
          <Trackpoint>
            <Time>2022-07-09T09:17:49.000Z</Time>
            <Position>
              <LatitudeDegrees>42.81543656252324581146240234375</LatitudeDegrees>
              <LongitudeDegrees>-0.1371535845100879669189453125</LongitudeDegrees>
            </Position>
            <AltitudeMeters>1884.800048828125</AltitudeMeters>
            <DistanceMeters>7008.7518382647</DistanceMeters>
          </Trackpoint>
          <Trackpoint>
            <Time>2022-07-09T09:17:50.000Z</Time>
            <Position>
              <LatitudeDegrees>42.8154334612190723419189453125</LatitudeDegrees>
              <LongitudeDegrees>-0.1371542550623416900634765625</LongitudeDegrees>
            </Position>
            <AltitudeMeters>1885</AltitudeMeters>
            <DistanceMeters>7009.1073956725</DistanceMeters>
          </Trackpoint>
          <Trackpoint>
            <Time>2022-07-09T09:17:55.000Z</Time>
            <Position>
              <LatitudeDegrees>42.81539666466414928436279296875</LatitudeDegrees>
              <LongitudeDegrees>-0.13717152178287506103515625</LongitudeDegrees>
            </Position>
            <AltitudeMeters>1885.5999755859375</AltitudeMeters>
            <DistanceMeters>7013.4391965509</DistanceMeters>
          </Trackpoint>
          <Trackpoint>
            <Time>2022-07-09T09:18:01.000Z</Time>
            <Position>
              <LatitudeDegrees>42.81536397524178028106689453125</LatitudeDegrees>
              <LongitudeDegrees>-0.137171186506748199462890625</LongitudeDegrees>
            </Position>
            <AltitudeMeters>1885.800048828125</AltitudeMeters>
            <DistanceMeters>7017.0776154475</DistanceMeters>
          </Trackpoint>
          <Trackpoint>
            <Time>2022-07-09T09:18:06.000Z</Time>
            <Position>
              <LatitudeDegrees>42.81534637324512004852294921875</LatitudeDegrees>
              <LongitudeDegrees>-0.13716590590775012969970703125</LongitudeDegrees>
            </Position>
            <AltitudeMeters>1886.4000244140625</AltitudeMeters>
            <DistanceMeters>7019.0822061832</DistanceMeters>
          </Trackpoint>
          <Trackpoint>
            <Time>2022-07-09T09:18:07.000Z</Time>
            <Position>
              <LatitudeDegrees>42.81534117646515369415283203125</LatitudeDegrees>
              <LongitudeDegrees>-0.13715836219489574432373046875</LongitudeDegrees>
            </Position>
            <AltitudeMeters>1886.5999755859375</AltitudeMeters>
            <DistanceMeters>7019.9214594004</DistanceMeters>
          </Trackpoint>
          <Trackpoint>
            <Time>2022-07-09T09:18:08.000Z</Time>
            <Position>
              <LatitudeDegrees>42.81533447094261646270751953125</LatitudeDegrees>
              <LongitudeDegrees>-0.1371512375771999359130859375</LongitudeDegrees>
            </Position>
            <AltitudeMeters>1886.800048828125</AltitudeMeters>
            <DistanceMeters>7020.8717265441</DistanceMeters>
          </Trackpoint>
          <Trackpoint>
            <Time>2022-07-09T09:18:10.000Z</Time>
            <Position>
              <LatitudeDegrees>42.81532407738268375396728515625</LatitudeDegrees>
              <LongitudeDegrees>-0.13713221065700054168701171875</LongitudeDegrees>
            </Position>
            <AltitudeMeters>1887</AltitudeMeters>
            <DistanceMeters>7022.807567892</DistanceMeters>
          </Trackpoint>
          <Trackpoint>
            <Time>2022-07-09T09:18:11.000Z</Time>
            <Position>
              <LatitudeDegrees>42.815320976078510284423828125</LatitudeDegrees>
              <LongitudeDegrees>-0.1371277682483196258544921875</LongitudeDegrees>
            </Position>
            <AltitudeMeters>1887</AltitudeMeters>
            <DistanceMeters>7023.3193024099</DistanceMeters>
          </Trackpoint>
          <Trackpoint>
            <Time>2022-07-09T09:18:13.000Z</Time>
            <Position>
              <LatitudeDegrees>42.81530479900538921356201171875</LatitudeDegrees>
              <LongitudeDegrees>-0.13711092062294483184814453125</LongitudeDegrees>
            </Position>
            <AltitudeMeters>1887.199951171875</AltitudeMeters>
            <DistanceMeters>7025.5840503915</DistanceMeters>
          </Trackpoint>
          <Trackpoint>
            <Time>2022-07-09T09:18:14.000Z</Time>
            <Position>
              <LatitudeDegrees>42.8152965009212493896484375</LatitudeDegrees>
              <LongitudeDegrees>-0.13710052706301212310791015625</LongitudeDegrees>
            </Position>
            <AltitudeMeters>1887</AltitudeMeters>
            <DistanceMeters>7026.8375388443</DistanceMeters>
          </Trackpoint>
          <Trackpoint>
            <Time>2022-07-09T09:18:17.000Z</Time>
            <Position>
              <LatitudeDegrees>42.81526925973594188690185546875</LatitudeDegrees>
              <LongitudeDegrees>-0.137079320847988128662109375</LongitudeDegrees>
            </Position>
            <AltitudeMeters>1887.199951171875</AltitudeMeters>
            <DistanceMeters>7030.3290432764</DistanceMeters>
          </Trackpoint>
          <Trackpoint>
            <Time>2022-07-09T09:18:19.000Z</Time>
            <Position>
              <LatitudeDegrees>42.81525836326181888580322265625</LatitudeDegrees>
              <LongitudeDegrees>-0.13707186095416545867919921875</LongitudeDegrees>
            </Position>
            <AltitudeMeters>1887.199951171875</AltitudeMeters>
            <DistanceMeters>7031.6862962354</DistanceMeters>
          </Trackpoint>
          <Trackpoint>
            <Time>2022-07-09T09:18:23.000Z</Time>
            <Position>
              <LatitudeDegrees>42.81523413956165313720703125</LatitudeDegrees>
              <LongitudeDegrees>-0.13708041049540042877197265625</LongitudeDegrees>
            </Position>
            <AltitudeMeters>1887.199951171875</AltitudeMeters>
            <DistanceMeters>7034.4730265312</DistanceMeters>
          </Trackpoint>
          <Trackpoint>
            <Time>2022-07-09T09:18:26.000Z</Time>
            <Position>
              <LatitudeDegrees>42.8152098320424556732177734375</LatitudeDegrees>
              <LongitudeDegrees>-0.13709549792110919952392578125</LongitudeDegrees>
            </Position>
            <AltitudeMeters>1887.4000244140625</AltitudeMeters>
            <DistanceMeters>7037.4463150874</DistanceMeters>
          </Trackpoint>
          <Trackpoint>
            <Time>2022-07-09T09:18:28.000Z</Time>
            <Position>
              <LatitudeDegrees>42.8151893801987171173095703125</LatitudeDegrees>
              <LongitudeDegrees>-0.13710354454815387725830078125</LongitudeDegrees>
            </Position>
            <AltitudeMeters>1887.800048828125</AltitudeMeters>
            <DistanceMeters>7039.8162744854</DistanceMeters>
          </Trackpoint>
          <Trackpoint>
            <Time>2022-07-09T09:18:32.000Z</Time>
            <Position>
              <LatitudeDegrees>42.815149985253810882568359375</LatitudeDegrees>
              <LongitudeDegrees>-0.1371156983077526092529296875</LongitudeDegrees>
            </Position>
            <AltitudeMeters>1888.4000244140625</AltitudeMeters>
            <DistanceMeters>7044.3117512212</DistanceMeters>
          </Trackpoint>
          <Trackpoint>
            <Time>2022-07-09T09:18:38.000Z</Time>
            <Position>
              <LatitudeDegrees>42.8150763921439647674560546875</LatitudeDegrees>
              <LongitudeDegrees>-0.137106142938137054443359375</LongitudeDegrees>
            </Position>
            <AltitudeMeters>1888.800048828125</AltitudeMeters>
            <DistanceMeters>7052.5396600138</DistanceMeters>
          </Trackpoint>
          <Trackpoint>
            <Time>2022-07-09T09:18:44.000Z</Time>
            <Position>
              <LatitudeDegrees>42.8150416910648345947265625</LatitudeDegrees>
              <LongitudeDegrees>-0.1371210627257823944091796875</LongitudeDegrees>
            </Position>
            <AltitudeMeters>1888.800048828125</AltitudeMeters>
            <DistanceMeters>7056.5891808277</DistanceMeters>
          </Trackpoint>
          <Trackpoint>
            <Time>2022-07-09T09:18:45.000Z</Time>
            <Position>
              <LatitudeDegrees>42.81504236161708831787109375</LatitudeDegrees>
              <LongitudeDegrees>-0.1371260918676853179931640625</LongitudeDegrees>
            </Position>
            <AltitudeMeters>1888.800048828125</AltitudeMeters>
            <DistanceMeters>7057.0141532138</DistanceMeters>
          </Trackpoint>
          <Trackpoint>
            <Time>2022-07-09T09:18:46.000Z</Time>
            <Position>
              <LatitudeDegrees>42.81504026614129543304443359375</LatitudeDegrees>
              <LongitudeDegrees>-0.1371311210095882415771484375</LongitudeDegrees>
            </Position>
            <AltitudeMeters>1888.800048828125</AltitudeMeters>
            <DistanceMeters>7057.4892867856</DistanceMeters>
          </Trackpoint>
          <Trackpoint>
            <Time>2022-07-09T09:18:48.000Z</Time>
            <Position>
              <LatitudeDegrees>42.8150318004190921783447265625</LatitudeDegrees>
              <LongitudeDegrees>-0.13713723979890346527099609375</LongitudeDegrees>
            </Position>
            <AltitudeMeters>1889</AltitudeMeters>
            <DistanceMeters>7058.5559590089</DistanceMeters>
          </Trackpoint>
          <Trackpoint>
            <Time>2022-07-09T09:18:52.000Z</Time>
            <Position>
              <LatitudeDegrees>42.815011180937290191650390625</LatitudeDegrees>
              <LongitudeDegrees>-0.137144029140472412109375</LongitudeDegrees>
            </Position>
            <AltitudeMeters>1889.5999755859375</AltitudeMeters>
            <DistanceMeters>7060.9182856676</DistanceMeters>
          </Trackpoint>
          <Trackpoint>
            <Time>2022-07-09T09:18:53.000Z</Time>
            <Position>
              <LatitudeDegrees>42.81500640325248241424560546875</LatitudeDegrees>
              <LongitudeDegrees>-0.13714059256017208099365234375</LongitudeDegrees>
            </Position>
            <AltitudeMeters>1889.800048828125</AltitudeMeters>
            <DistanceMeters>7061.5192873795</DistanceMeters>
          </Trackpoint>
          <Trackpoint>
            <Time>2022-07-09T09:18:57.000Z</Time>
            <Position>
              <LatitudeDegrees>42.81498461030423641204833984375</LatitudeDegrees>
              <LongitudeDegrees>-0.13714293949306011199951171875</LongitudeDegrees>
            </Position>
            <AltitudeMeters>1890.199951171875</AltitudeMeters>
            <DistanceMeters>7063.951303019</DistanceMeters>
          </Trackpoint>
          <Trackpoint>
            <Time>2022-07-09T09:18:58.000Z</Time>
            <Position>
              <LatitudeDegrees>42.8149781562387943267822265625</LatitudeDegrees>
              <LongitudeDegrees>-0.1371418498456478118896484375</LongitudeDegrees>
            </Position>
            <AltitudeMeters>1890.199951171875</AltitudeMeters>
            <DistanceMeters>7064.6812170621</DistanceMeters>
          </Trackpoint>
          <Trackpoint>
            <Time>2022-07-09T09:19:04.000Z</Time>
            <Position>
              <LatitudeDegrees>42.81493985094130039215087890625</LatitudeDegrees>
              <LongitudeDegrees>-0.13713539578020572662353515625</LongitudeDegrees>
            </Position>
            <AltitudeMeters>1890.800048828125</AltitudeMeters>
            <DistanceMeters>7068.9774335663</DistanceMeters>
          </Trackpoint>
          <Trackpoint>
            <Time>2022-07-09T09:19:07.000Z</Time>
            <Position>
              <LatitudeDegrees>42.8149258531630039215087890625</LatitudeDegrees>
              <LongitudeDegrees>-0.1371110044419765472412109375</LongitudeDegrees>
            </Position>
            <AltitudeMeters>1891.199951171875</AltitudeMeters>
            <DistanceMeters>7071.5041436894</DistanceMeters>
          </Trackpoint>
          <Trackpoint>
            <Time>2022-07-09T09:19:09.000Z</Time>
            <Position>
              <LatitudeDegrees>42.81491789035499095916748046875</LatitudeDegrees>
              <LongitudeDegrees>-0.13710438273847103118896484375</LongitudeDegrees>
            </Position>
            <AltitudeMeters>1891.199951171875</AltitudeMeters>
            <DistanceMeters>7072.5451091899</DistanceMeters>
          </Trackpoint>
          <Trackpoint>
            <Time>2022-07-09T09:19:14.000Z</Time>
            <Position>
              <LatitudeDegrees>42.8149157948791980743408203125</LatitudeDegrees>
              <LongitudeDegrees>-0.13712433166801929473876953125</LongitudeDegrees>
            </Position>
            <AltitudeMeters>1891.5999755859375</AltitudeMeters>
            <DistanceMeters>7074.1910201635</DistanceMeters>
          </Trackpoint>
          <Trackpoint>
            <Time>2022-07-09T09:19:19.000Z</Time>
            <Position>
              <LatitudeDegrees>42.814895845949649810791015625</LatitudeDegrees>
              <LongitudeDegrees>-0.13714595697820186614990234375</LongitudeDegrees>
            </Position>
            <AltitudeMeters>1892.4000244140625</AltitudeMeters>
            <DistanceMeters>7077.0291230841</DistanceMeters>
          </Trackpoint>
          <Trackpoint>
            <Time>2022-07-09T09:19:20.000Z</Time>
            <Position>
              <LatitudeDegrees>42.8148923255503177642822265625</LatitudeDegrees>
              <LongitudeDegrees>-0.1371552608907222747802734375</LongitudeDegrees>
            </Position>
            <AltitudeMeters>1892.5999755859375</AltitudeMeters>
            <DistanceMeters>7077.8896265812</DistanceMeters>
          </Trackpoint>
          <Trackpoint>
            <Time>2022-07-09T09:19:21.000Z</Time>
            <Position>
              <LatitudeDegrees>42.8148896433413028717041015625</LatitudeDegrees>
              <LongitudeDegrees>-0.1371596194803714752197265625</LongitudeDegrees>
            </Position>
            <AltitudeMeters>1892.800048828125</AltitudeMeters>
            <DistanceMeters>7078.364760153</DistanceMeters>
          </Trackpoint>
          <Trackpoint>
            <Time>2022-07-09T09:19:25.000Z</Time>
            <Position>
              <LatitudeDegrees>42.8148983605206012725830078125</LatitudeDegrees>
              <LongitudeDegrees>-0.13715006411075592041015625</LongitudeDegrees>
            </Position>
            <AltitudeMeters>1893.199951171875</AltitudeMeters>
            <DistanceMeters>7079.6037569228</DistanceMeters>
          </Trackpoint>
          <Trackpoint>
            <Time>2022-07-09T09:19:27.000Z</Time>
            <Position>
              <LatitudeDegrees>42.81489894725382328033447265625</LatitudeDegrees>
              <LongitudeDegrees>-0.1371525786817073822021484375</LongitudeDegrees>
            </Position>
            <AltitudeMeters>1893</AltitudeMeters>
            <DistanceMeters>7079.8365238849</DistanceMeters>
          </Trackpoint>
          <Trackpoint>
            <Time>2022-07-09T09:19:29.000Z</Time>
            <Position>
              <LatitudeDegrees>42.81489693559706211090087890625</LatitudeDegrees>
              <LongitudeDegrees>-0.13715081848204135894775390625</LongitudeDegrees>
            </Position>
            <AltitudeMeters>1893</AltitudeMeters>
            <DistanceMeters>7080.1053000214</DistanceMeters>
          </Trackpoint>
          <Trackpoint>
            <Time>2022-07-09T09:19:30.000Z</Time>
            <Position>
              <LatitudeDegrees>42.81489618122577667236328125</LatitudeDegrees>
              <LongitudeDegrees>-0.1371478848159313201904296875</LongitudeDegrees>
            </Position>
            <AltitudeMeters>1893</AltitudeMeters>
            <DistanceMeters>7080.3740761579</DistanceMeters>
          </Trackpoint>
          <Trackpoint>
            <Time>2022-07-09T09:19:33.000Z</Time>
            <Position>
              <LatitudeDegrees>42.8148950077593326568603515625</LatitudeDegrees>
              <LongitudeDegrees>-0.13714201748371124267578125</LongitudeDegrees>
            </Position>
            <AltitudeMeters>1892.800048828125</AltitudeMeters>
            <DistanceMeters>7080.86784945</DistanceMeters>
          </Trackpoint>
          <Trackpoint>
            <Time>2022-07-09T09:19:36.000Z</Time>
            <Position>
              <LatitudeDegrees>42.81489995308220386505126953125</LatitudeDegrees>
              <LongitudeDegrees>-0.137140341103076934814453125</LongitudeDegrees>
            </Position>
            <AltitudeMeters>1892.800048828125</AltitudeMeters>
            <DistanceMeters>7081.4300350738</DistanceMeters>
          </Trackpoint>
          <Trackpoint>
            <Time>2022-07-09T09:19:42.000Z</Time>
            <Position>
              <LatitudeDegrees>42.81491051428020000457763671875</LatitudeDegrees>
              <LongitudeDegrees>-0.1371046341955661773681640625</LongitudeDegrees>
            </Position>
            <AltitudeMeters>1892.4000244140625</AltitudeMeters>
            <DistanceMeters>7084.5731073971</DistanceMeters>
          </Trackpoint>
          <Trackpoint>
            <Time>2022-07-09T09:19:44.000Z</Time>
            <Position>
              <LatitudeDegrees>42.81491084955632686614990234375</LatitudeDegrees>
              <LongitudeDegrees>-0.13709197752177715301513671875</LongitudeDegrees>
            </Position>
            <AltitudeMeters>1892.4000244140625</AltitudeMeters>
            <DistanceMeters>7085.6140728976</DistanceMeters>
          </Trackpoint>
          <Trackpoint>
            <Time>2022-07-09T09:19:50.000Z</Time>
            <Position>
              <LatitudeDegrees>42.81494035385549068450927734375</LatitudeDegrees>
              <LongitudeDegrees>-0.1370583660900592803955078125</LongitudeDegrees>
            </Position>
            <AltitudeMeters>1892</AltitudeMeters>
            <DistanceMeters>7089.8934414291</DistanceMeters>
          </Trackpoint>
          <Trackpoint>
            <Time>2022-07-09T09:19:53.000Z</Time>
            <Position>
              <LatitudeDegrees>42.814965583384037017822265625</LatitudeDegrees>
              <LongitudeDegrees>-0.13706347905099391937255859375</LongitudeDegrees>
            </Position>
            <AltitudeMeters>1891.800048828125</AltitudeMeters>
            <DistanceMeters>7092.7315443497</DistanceMeters>
          </Trackpoint>
          <Trackpoint>
            <Time>2022-07-09T09:19:56.000Z</Time>
            <Position>
              <LatitudeDegrees>42.81498729251325130462646484375</LatitudeDegrees>
              <LongitudeDegrees>-0.13705811463296413421630859375</LongitudeDegrees>
            </Position>
            <AltitudeMeters>1891.4000244140625</AltitudeMeters>
            <DistanceMeters>7095.1857368825</DistanceMeters>
          </Trackpoint>
          <Trackpoint>
            <Time>2022-07-09T09:19:59.000Z</Time>
            <Position>
              <LatitudeDegrees>42.815011180937290191650390625</LatitudeDegrees>
              <LongitudeDegrees>-0.1370473019778728485107421875</LongitudeDegrees>
            </Position>
            <AltitudeMeters>1891.199951171875</AltitudeMeters>
            <DistanceMeters>7097.9853987109</DistanceMeters>
          </Trackpoint>
          <Trackpoint>
            <Time>2022-07-09T09:20:00.000Z</Time>
            <Position>
              <LatitudeDegrees>42.81501864083111286163330078125</LatitudeDegrees>
              <LongitudeDegrees>-0.13704084791243076324462890625</LongitudeDegrees>
            </Position>
            <AltitudeMeters>1891.199951171875</AltitudeMeters>
            <DistanceMeters>7098.9683626876</DistanceMeters>
          </Trackpoint>
          <Trackpoint>
            <Time>2022-07-09T09:20:06.000Z</Time>
            <Position>
              <LatitudeDegrees>42.8150188922882080078125</LatitudeDegrees>
              <LongitudeDegrees>-0.13701922260224819183349609375</LongitudeDegrees>
            </Position>
            <AltitudeMeters>1891.4000244140625</AltitudeMeters>
            <DistanceMeters>7100.7359617512</DistanceMeters>
          </Trackpoint>
          <Trackpoint>
            <Time>2022-07-09T09:20:08.000Z</Time>
            <Position>
              <LatitudeDegrees>42.81501092948019504547119140625</LatitudeDegrees>
              <LongitudeDegrees>-0.1370214857161045074462890625</LongitudeDegrees>
            </Position>
            <AltitudeMeters>1891.4000244140625</AltitudeMeters>
            <DistanceMeters>7101.6374643191</DistanceMeters>
          </Trackpoint>
          <Trackpoint>
            <Time>2022-07-09T09:20:14.000Z</Time>
            <Position>
              <LatitudeDegrees>42.8149945847690105438232421875</LatitudeDegrees>
              <LongitudeDegrees>-0.13702492229640483856201171875</LongitudeDegrees>
            </Position>
            <AltitudeMeters>1891.4000244140625</AltitudeMeters>
            <DistanceMeters>7103.4776487301</DistanceMeters>
          </Trackpoint>
          <Trackpoint>
            <Time>2022-07-09T09:20:17.000Z</Time>
            <Position>
              <LatitudeDegrees>42.8149915672838687896728515625</LatitudeDegrees>
              <LongitudeDegrees>-0.1370120979845523834228515625</LongitudeDegrees>
            </Position>
            <AltitudeMeters>1891.4000244140625</AltitudeMeters>
            <DistanceMeters>7104.5776624771</DistanceMeters>
          </Trackpoint>
          <Trackpoint>
            <Time>2022-07-09T09:20:18.000Z</Time>
            <Position>
              <LatitudeDegrees>42.81499274075031280517578125</LatitudeDegrees>
              <LongitudeDegrees>-0.13700782321393489837646484375</LongitudeDegrees>
            </Position>
            <AltitudeMeters>1891.5999755859375</AltitudeMeters>
            <DistanceMeters>7104.9456993593</DistanceMeters>
          </Trackpoint>
          <Trackpoint>
            <Time>2022-07-09T09:20:19.000Z</Time>
            <Position>
              <LatitudeDegrees>42.814994752407073974609375</LatitudeDegrees>
              <LongitudeDegrees>-0.1370050571858882904052734375</LongitudeDegrees>
            </Position>
            <AltitudeMeters>1891.5999755859375</AltitudeMeters>
            <DistanceMeters>7105.2608673159</DistanceMeters>
          </Trackpoint>
          <Trackpoint>
            <Time>2022-07-09T09:20:20.000Z</Time>
            <Position>
              <LatitudeDegrees>42.81499735079705715179443359375</LatitudeDegrees>
              <LongitudeDegrees>-0.137002207338809967041015625</LongitudeDegrees>
            </Position>
            <AltitudeMeters>1891.800048828125</AltitudeMeters>
            <DistanceMeters>7105.6409741734</DistanceMeters>
          </Trackpoint>
          <Trackpoint>
            <Time>2022-07-09T09:20:21.000Z</Time>
            <Position>
              <LatitudeDegrees>42.81500137411057949066162109375</LatitudeDegrees>
              <LongitudeDegrees>-0.1370017044246196746826171875</LongitudeDegrees>
            </Position>
            <AltitudeMeters>1892</AltitudeMeters>
            <DistanceMeters>7106.0866889721</DistanceMeters>
          </Trackpoint>
          <Trackpoint>
            <Time>2022-07-09T09:20:23.000Z</Time>
            <Position>
              <LatitudeDegrees>42.8150081634521484375</LatitudeDegrees>
              <LongitudeDegrees>-0.13700463809072971343994140625</LongitudeDegrees>
            </Position>
            <AltitudeMeters>1892</AltitudeMeters>
            <DistanceMeters>7106.8702993333</DistanceMeters>
          </Trackpoint>
          <Trackpoint>
            <Time>2022-07-09T09:20:26.000Z</Time>
            <Position>
              <LatitudeDegrees>42.81502434052526950836181640625</LatitudeDegrees>
              <LongitudeDegrees>-0.13700614683330059051513671875</LongitudeDegrees>
            </Position>
            <AltitudeMeters>1892</AltitudeMeters>
            <DistanceMeters>7108.6783058799</DistanceMeters>
          </Trackpoint>
          <Trackpoint>
            <Time>2022-07-09T09:20:32.000Z</Time>
            <Position>
              <LatitudeDegrees>42.81506909988820552825927734375</LatitudeDegrees>
              <LongitudeDegrees>-0.13699114322662353515625</LongitudeDegrees>
            </Position>
            <AltitudeMeters>1892.199951171875</AltitudeMeters>
            <DistanceMeters>7113.8097484559</DistanceMeters>
          </Trackpoint>
          <Trackpoint>
            <Time>2022-07-09T09:20:34.000Z</Time>
            <Position>
              <LatitudeDegrees>42.81507630832493305206298828125</LatitudeDegrees>
              <LongitudeDegrees>-0.13698334805667400360107421875</LongitudeDegrees>
            </Position>
            <AltitudeMeters>1892</AltitudeMeters>
            <DistanceMeters>7114.8376195295</DistanceMeters>
          </Trackpoint>
          <Trackpoint>
            <Time>2022-07-09T09:20:38.000Z</Time>
            <Position>
              <LatitudeDegrees>42.8150760568678379058837890625</LatitudeDegrees>
              <LongitudeDegrees>-0.13697982765734195709228515625</LongitudeDegrees>
            </Position>
            <AltitudeMeters>1891.5999755859375</AltitudeMeters>
            <DistanceMeters>7115.1226996726</DistanceMeters>
          </Trackpoint>
          <Trackpoint>
            <Time>2022-07-09T09:20:43.000Z</Time>
            <Position>
              <LatitudeDegrees>42.81506608240306377410888671875</LatitudeDegrees>
              <LongitudeDegrees>-0.13701117597520351409912109375</LongitudeDegrees>
            </Position>
            <AltitudeMeters>1891.5999755859375</AltitudeMeters>
            <DistanceMeters>7117.9126684708</DistanceMeters>
          </Trackpoint>
          <Trackpoint>
            <Time>2022-07-09T09:20:49.000Z</Time>
            <Position>
              <LatitudeDegrees>42.8150264360010623931884765625</LatitudeDegrees>
              <LongitudeDegrees>-0.13702291063964366912841796875</LongitudeDegrees>
            </Position>
            <AltitudeMeters>1891.5999755859375</AltitudeMeters>
            <DistanceMeters>7122.4281875562</DistanceMeters>
          </Trackpoint>
          <Trackpoint>
            <Time>2022-07-09T09:20:53.000Z</Time>
            <Position>
              <LatitudeDegrees>42.81500606797635555267333984375</LatitudeDegrees>
              <LongitudeDegrees>-0.13702123425900936126708984375</LongitudeDegrees>
            </Position>
            <AltitudeMeters>1892</AltitudeMeters>
            <DistanceMeters>7124.6989085098</DistanceMeters>
          </Trackpoint>
          <Trackpoint>
            <Time>2022-07-09T09:20:59.000Z</Time>
            <Position>
              <LatitudeDegrees>42.81496214680373668670654296875</LatitudeDegrees>
              <LongitudeDegrees>-0.13705928809940814971923828125</LongitudeDegrees>
            </Position>
            <AltitudeMeters>1892.4000244140625</AltitudeMeters>
            <DistanceMeters>7130.4916422398</DistanceMeters>
          </Trackpoint>
          <Trackpoint>
            <Time>2022-07-09T09:21:01.000Z</Time>
            <Position>
              <LatitudeDegrees>42.81496214680373668670654296875</LatitudeDegrees>
              <LongitudeDegrees>-0.13706549070775508880615234375</LongitudeDegrees>
            </Position>
            <AltitudeMeters>1893</AltitudeMeters>
            <DistanceMeters>7130.994476348</DistanceMeters>
          </Trackpoint>
          <Trackpoint>
            <Time>2022-07-09T09:21:05.000Z</Time>
            <Position>
              <LatitudeDegrees>42.8149694390594959259033203125</LatitudeDegrees>
              <LongitudeDegrees>-0.1370731182396411895751953125</LongitudeDegrees>
            </Position>
            <AltitudeMeters>1893.5999755859375</AltitudeMeters>
            <DistanceMeters>7132.0135243307</DistanceMeters>
          </Trackpoint>
          <Trackpoint>
            <Time>2022-07-09T09:21:10.000Z</Time>
            <Position>
              <LatitudeDegrees>42.8149868734180927276611328125</LatitudeDegrees>
              <LongitudeDegrees>-0.137080661952495574951171875</LongitudeDegrees>
            </Position>
            <AltitudeMeters>1894.5999755859375</AltitudeMeters>
            <DistanceMeters>7134.0494037691</DistanceMeters>
          </Trackpoint>
          <Trackpoint>
            <Time>2022-07-09T09:21:12.000Z</Time>
            <Position>
              <LatitudeDegrees>42.81498930417001247406005859375</LatitudeDegrees>
              <LongitudeDegrees>-0.13707554899156093597412109375</LongitudeDegrees>
            </Position>
            <AltitudeMeters>1894.800048828125</AltitudeMeters>
            <DistanceMeters>7134.53394684</DistanceMeters>
          </Trackpoint>
          <Trackpoint>
            <Time>2022-07-09T09:21:14.000Z</Time>
            <Position>
              <LatitudeDegrees>42.8149895556271076202392578125</LatitudeDegrees>
              <LongitudeDegrees>-0.13705912046134471893310546875</LongitudeDegrees>
            </Position>
            <AltitudeMeters>1894.4000244140625</AltitudeMeters>
            <DistanceMeters>7135.8778275225</DistanceMeters>
          </Trackpoint>
          <Trackpoint>
            <Time>2022-07-09T09:21:18.000Z</Time>
            <Position>
              <LatitudeDegrees>42.81499332748353481292724609375</LatitudeDegrees>
              <LongitudeDegrees>-0.13703229837119579315185546875</LongitudeDegrees>
            </Position>
            <AltitudeMeters>1894.199951171875</AltitudeMeters>
            <DistanceMeters>7138.1104497918</DistanceMeters>
          </Trackpoint>
          <Trackpoint>
            <Time>2022-07-09T09:21:22.000Z</Time>
            <Position>
              <LatitudeDegrees>42.8149831853806972503662109375</LatitudeDegrees>
              <LongitudeDegrees>-0.13703070580959320068359375</LongitudeDegrees>
            </Position>
            <AltitudeMeters>1894.4000244140625</AltitudeMeters>
            <DistanceMeters>7139.2507703642</DistanceMeters>
          </Trackpoint>
          <Trackpoint>
            <Time>2022-07-09T09:21:25.000Z</Time>
            <Position>
              <LatitudeDegrees>42.814971618354320526123046875</LatitudeDegrees>
              <LongitudeDegrees>-0.13702793978154659271240234375</LongitudeDegrees>
            </Position>
            <AltitudeMeters>1894.5999755859375</AltitudeMeters>
            <DistanceMeters>7140.5537110273</DistanceMeters>
          </Trackpoint>
          <Trackpoint>
            <Time>2022-07-09T09:21:28.000Z</Time>
            <Position>
              <LatitudeDegrees>42.81496885232627391815185546875</LatitudeDegrees>
              <LongitudeDegrees>-0.1370608806610107421875</LongitudeDegrees>
            </Position>
            <AltitudeMeters>1894.5999755859375</AltitudeMeters>
            <DistanceMeters>7143.2615555709</DistanceMeters>
          </Trackpoint>
          <Trackpoint>
            <Time>2022-07-09T09:21:32.000Z</Time>
            <Position>
              <LatitudeDegrees>42.81494672410190105438232421875</LatitudeDegrees>
              <LongitudeDegrees>-0.13707051984965801239013671875</LongitudeDegrees>
            </Position>
            <AltitudeMeters>1894.4000244140625</AltitudeMeters>
            <DistanceMeters>7145.846561677</DistanceMeters>
          </Trackpoint>
          <Trackpoint>
            <Time>2022-07-09T09:21:33.000Z</Time>
            <Position>
              <LatitudeDegrees>42.81493884511291980743408203125</LatitudeDegrees>
              <LongitudeDegrees>-0.13706901110708713531494140625</LongitudeDegrees>
            </Position>
            <AltitudeMeters>1894.4000244140625</AltitudeMeters>
            <DistanceMeters>7146.7329118621</DistanceMeters>
          </Trackpoint>
          <Trackpoint>
            <Time>2022-07-09T09:21:34.000Z</Time>
            <Position>
              <LatitudeDegrees>42.81493012793362140655517578125</LatitudeDegrees>
              <LongitudeDegrees>-0.13706649653613567352294921875</LongitudeDegrees>
            </Position>
            <AltitudeMeters>1894.4000244140625</AltitudeMeters>
            <DistanceMeters>7147.7295604505</DistanceMeters>
          </Trackpoint>
          <Trackpoint>
            <Time>2022-07-09T09:21:36.000Z</Time>
            <Position>
              <LatitudeDegrees>42.8149084188044071197509765625</LatitudeDegrees>
              <LongitudeDegrees>-0.13705794699490070343017578125</LongitudeDegrees>
            </Position>
            <AltitudeMeters>1894.199951171875</AltitudeMeters>
            <DistanceMeters>7150.2437309918</DistanceMeters>
          </Trackpoint>
          <Trackpoint>
            <Time>2022-07-09T09:21:39.000Z</Time>
            <Position>
              <LatitudeDegrees>42.81488008797168731689453125</LatitudeDegrees>
              <LongitudeDegrees>-0.1370466314256191253662109375</LongitudeDegrees>
            </Position>
            <AltitudeMeters>1894</AltitudeMeters>
            <DistanceMeters>7153.5300619896</DistanceMeters>
          </Trackpoint>
          <Trackpoint>
            <Time>2022-07-09T09:21:42.000Z</Time>
            <Position>
              <LatitudeDegrees>42.81485670246183872222900390625</LatitudeDegrees>
              <LongitudeDegrees>-0.1370327174663543701171875</LongitudeDegrees>
            </Position>
            <AltitudeMeters>1893.5999755859375</AltitudeMeters>
            <DistanceMeters>7156.3697553295</DistanceMeters>
          </Trackpoint>
          <Trackpoint>
            <Time>2022-07-09T09:21:48.000Z</Time>
            <Position>
              <LatitudeDegrees>42.81481294892728328704833984375</LatitudeDegrees>
              <LongitudeDegrees>-0.137016959488391876220703125</LongitudeDegrees>
            </Position>
            <AltitudeMeters>1893.5999755859375</AltitudeMeters>
            <DistanceMeters>7161.4070675897</DistanceMeters>
          </Trackpoint>
          <Trackpoint>
            <Time>2022-07-09T09:21:54.000Z</Time>
            <Position>
              <LatitudeDegrees>42.81477439217269420623779296875</LatitudeDegrees>
              <LongitudeDegrees>-0.13702995143830776214599609375</LongitudeDegrees>
            </Position>
            <AltitudeMeters>1894.199951171875</AltitudeMeters>
            <DistanceMeters>7165.8275975834</DistanceMeters>
          </Trackpoint>
          <Trackpoint>
            <Time>2022-07-09T09:21:55.000Z</Time>
            <Position>
              <LatitudeDegrees>42.81476835720241069793701171875</LatitudeDegrees>
              <LongitudeDegrees>-0.1370325498282909393310546875</LongitudeDegrees>
            </Position>
            <AltitudeMeters>1894.4000244140625</AltitudeMeters>
            <DistanceMeters>7166.5323345587</DistanceMeters>
          </Trackpoint>
          <Trackpoint>
            <Time>2022-07-09T09:21:56.000Z</Time>
            <Position>
              <LatitudeDegrees>42.81476341187953948974609375</LatitudeDegrees>
              <LongitudeDegrees>-0.13703565113246440887451171875</LongitudeDegrees>
            </Position>
            <AltitudeMeters>1894.4000244140625</AltitudeMeters>
            <DistanceMeters>7167.1408024167</DistanceMeters>
          </Trackpoint>
          <Trackpoint>
            <Time>2022-07-09T09:21:57.000Z</Time>
            <Position>
              <LatitudeDegrees>42.8147572092711925506591796875</LatitudeDegrees>
              <LongitudeDegrees>-0.13703531585633754730224609375</LongitudeDegrees>
            </Position>
            <AltitudeMeters>1895</AltitudeMeters>
            <DistanceMeters>7167.8326073397</DistanceMeters>
          </Trackpoint>
          <Trackpoint>
            <Time>2022-07-09T09:21:59.000Z</Time>
            <Position>
              <LatitudeDegrees>42.81474572606384754180908203125</LatitudeDegrees>
              <LongitudeDegrees>-0.13703799806535243988037109375</LongitudeDegrees>
            </Position>
            <AltitudeMeters>1896.199951171875</AltitudeMeters>
            <DistanceMeters>7169.1285989364</DistanceMeters>
          </Trackpoint>
          <Trackpoint>
            <Time>2022-07-09T09:22:00.000Z</Time>
            <Position>
              <LatitudeDegrees>42.8147354163229465484619140625</LatitudeDegrees>
              <LongitudeDegrees>-0.13703883625566959381103515625</LongitudeDegrees>
            </Position>
            <AltitudeMeters>1896.4000244140625</AltitudeMeters>
            <DistanceMeters>7170.2768110948</DistanceMeters>
          </Trackpoint>
          <Trackpoint>
            <Time>2022-07-09T09:22:01.000Z</Time>
            <Position>
              <LatitudeDegrees>42.8147300519049167633056640625</LatitudeDegrees>
              <LongitudeDegrees>-0.13704277575016021728515625</LongitudeDegrees>
            </Position>
            <AltitudeMeters>1896.5999755859375</AltitudeMeters>
            <DistanceMeters>7170.9487514361</DistanceMeters>
          </Trackpoint>
          <Trackpoint>
            <Time>2022-07-09T09:22:03.000Z</Time>
            <Position>
              <LatitudeDegrees>42.814715802669525146484375</LatitudeDegrees>
              <LongitudeDegrees>-0.13704587705433368682861328125</LongitudeDegrees>
            </Position>
            <AltitudeMeters>1896.800048828125</AltitudeMeters>
            <DistanceMeters>7172.555798997</DistanceMeters>
          </Trackpoint>
          <Trackpoint>
            <Time>2022-07-09T09:22:05.000Z</Time>
            <Position>
              <LatitudeDegrees>42.81469929032027721405029296875</LatitudeDegrees>
              <LongitudeDegrees>-0.13704478740692138671875</LongitudeDegrees>
            </Position>
            <AltitudeMeters>1897</AltitudeMeters>
            <DistanceMeters>7174.3984353537</DistanceMeters>
          </Trackpoint>
          <Trackpoint>
            <Time>2022-07-09T09:22:06.000Z</Time>
            <Position>
              <LatitudeDegrees>42.814694009721279144287109375</LatitudeDegrees>
              <LongitudeDegrees>-0.13704906217753887176513671875</LongitudeDegrees>
            </Position>
            <AltitudeMeters>1897.199951171875</AltitudeMeters>
            <DistanceMeters>7175.0836827361</DistanceMeters>
          </Trackpoint>
          <Trackpoint>
            <Time>2022-07-09T09:22:08.000Z</Time>
            <Position>
              <LatitudeDegrees>42.8146807663142681121826171875</LatitudeDegrees>
              <LongitudeDegrees>-0.13705979101359844207763671875</LongitudeDegrees>
            </Position>
            <AltitudeMeters>1897.4000244140625</AltitudeMeters>
            <DistanceMeters>7176.7994347347</DistanceMeters>
          </Trackpoint>
          <Trackpoint>
            <Time>2022-07-09T09:22:11.000Z</Time>
            <Position>
              <LatitudeDegrees>42.81465888954699039459228515625</LatitudeDegrees>
              <LongitudeDegrees>-0.1370667479932308197021484375</LongitudeDegrees>
            </Position>
            <AltitudeMeters>1897.800048828125</AltitudeMeters>
            <DistanceMeters>7179.3028070706</DistanceMeters>
          </Trackpoint>
          <Trackpoint>
            <Time>2022-07-09T09:22:13.000Z</Time>
            <Position>
              <LatitudeDegrees>42.814648412168025970458984375</LatitudeDegrees>
              <LongitudeDegrees>-0.13707035221159458160400390625</LongitudeDegrees>
            </Position>
            <AltitudeMeters>1897.800048828125</AltitudeMeters>
            <DistanceMeters>7180.5085609043</DistanceMeters>
          </Trackpoint>
          <Trackpoint>
            <Time>2022-07-09T09:22:15.000Z</Time>
            <Position>
              <LatitudeDegrees>42.81463994644582271575927734375</LatitudeDegrees>
              <LongitudeDegrees>-0.13707387261092662811279296875</LongitudeDegrees>
            </Position>
            <AltitudeMeters>1898.199951171875</AltitudeMeters>
            <DistanceMeters>7181.4961074884</DistanceMeters>
          </Trackpoint>
          <Trackpoint>
            <Time>2022-07-09T09:22:17.000Z</Time>
            <Position>
              <LatitudeDegrees>42.81462930142879486083984375</LatitudeDegrees>
              <LongitudeDegrees>-0.13707722537219524383544921875</LongitudeDegrees>
            </Position>
            <AltitudeMeters>1898.5999755859375</AltitudeMeters>
            <DistanceMeters>7182.7130432044</DistanceMeters>
          </Trackpoint>
          <Trackpoint>
            <Time>2022-07-09T09:22:20.000Z</Time>
            <Position>
              <LatitudeDegrees>42.81461077742278575897216796875</LatitudeDegrees>
              <LongitudeDegrees>-0.13707697391510009765625</LongitudeDegrees>
            </Position>
            <AltitudeMeters>1899</AltitudeMeters>
            <DistanceMeters>7184.7753637433</DistanceMeters>
          </Trackpoint>
          <Trackpoint>
            <Time>2022-07-09T09:22:23.000Z</Time>
            <Position>
              <LatitudeDegrees>42.81460206024348735809326171875</LatitudeDegrees>
              <LongitudeDegrees>-0.13708812184631824493408203125</LongitudeDegrees>
            </Position>
            <AltitudeMeters>1899.199951171875</AltitudeMeters>
            <DistanceMeters>7186.0989327177</DistanceMeters>
          </Trackpoint>
          <Trackpoint>
            <Time>2022-07-09T09:22:24.000Z</Time>
            <Position>
              <LatitudeDegrees>42.81459577381610870361328125</LatitudeDegrees>
              <LongitudeDegrees>-0.13708971440792083740234375</LongitudeDegrees>
            </Position>
            <AltitudeMeters>1899.5999755859375</AltitudeMeters>
            <DistanceMeters>7186.8100475333</DistanceMeters>
          </Trackpoint>
          <Trackpoint>
            <Time>2022-07-09T09:22:26.000Z</Time>
            <Position>
              <LatitudeDegrees>42.814582027494907379150390625</LatitudeDegrees>
              <LongitudeDegrees>-0.13708644546568393707275390625</LongitudeDegrees>
            </Position>
            <AltitudeMeters>1900</AltitudeMeters>
            <DistanceMeters>7188.365701893</DistanceMeters>
          </Trackpoint>
          <Trackpoint>
            <Time>2022-07-09T09:22:27.000Z</Time>
            <Position>
              <LatitudeDegrees>42.8145785070955753326416015625</LatitudeDegrees>
              <LongitudeDegrees>-0.1370831765234470367431640625</LongitudeDegrees>
            </Position>
            <AltitudeMeters>1900.4000244140625</AltitudeMeters>
            <DistanceMeters>7188.8502449639</DistanceMeters>
          </Trackpoint>
          <Trackpoint>
            <Time>2022-07-09T09:22:32.000Z</Time>
            <Position>
              <LatitudeDegrees>42.81457607634365558624267578125</LatitudeDegrees>
              <LongitudeDegrees>-0.13706699945032596588134765625</LongitudeDegrees>
            </Position>
            <AltitudeMeters>1901.4000244140625</AltitudeMeters>
            <DistanceMeters>7190.1941256464</DistanceMeters>
          </Trackpoint>
          <Trackpoint>
            <Time>2022-07-09T09:22:33.000Z</Time>
            <Position>
              <LatitudeDegrees>42.8145788423717021942138671875</LatitudeDegrees>
              <LongitudeDegrees>-0.1370649039745330810546875</LongitudeDegrees>
            </Position>
            <AltitudeMeters>1901.4000244140625</AltitudeMeters>
            <DistanceMeters>7190.5496830542</DistanceMeters>
          </Trackpoint>
          <Trackpoint>
            <Time>2022-07-09T09:22:34.000Z</Time>
            <Position>
              <LatitudeDegrees>42.81458596698939800262451171875</LatitudeDegrees>
              <LongitudeDegrees>-0.1370627246797084808349609375</LongitudeDegrees>
            </Position>
            <AltitudeMeters>1901.5999755859375</AltitudeMeters>
            <DistanceMeters>7191.3671337602</DistanceMeters>
          </Trackpoint>
          <Trackpoint>
            <Time>2022-07-09T09:22:36.000Z</Time>
            <Position>
              <LatitudeDegrees>42.81459384597837924957275390625</LatitudeDegrees>
              <LongitudeDegrees>-0.1370523311197757720947265625</LongitudeDegrees>
            </Position>
            <AltitudeMeters>1902.199951171875</AltitudeMeters>
            <DistanceMeters>7192.5914673299</DistanceMeters>
          </Trackpoint>
          <Trackpoint>
            <Time>2022-07-09T09:22:38.000Z</Time>
            <Position>
              <LatitudeDegrees>42.8145999647676944732666015625</LatitudeDegrees>
              <LongitudeDegrees>-0.13703414238989353179931640625</LongitudeDegrees>
            </Position>
            <AltitudeMeters>1902.5999755859375</AltitudeMeters>
            <DistanceMeters>7194.226368742</DistanceMeters>
          </Trackpoint>
          <Trackpoint>
            <Time>2022-07-09T09:22:40.000Z</Time>
            <Position>
              <LatitudeDegrees>42.814613543450832366943359375</LatitudeDegrees>
              <LongitudeDegrees>-0.137015618383884429931640625</LongitudeDegrees>
            </Position>
            <AltitudeMeters>1902.800048828125</AltitudeMeters>
            <DistanceMeters>7196.3639418239</DistanceMeters>
          </Trackpoint>
          <Trackpoint>
            <Time>2022-07-09T09:22:42.000Z</Time>
            <Position>
              <LatitudeDegrees>42.8146227635443210601806640625</LatitudeDegrees>
              <LongitudeDegrees>-0.1370005309581756591796875</LongitudeDegrees>
            </Position>
            <AltitudeMeters>1902.800048828125</AltitudeMeters>
            <DistanceMeters>7197.9653604794</DistanceMeters>
          </Trackpoint>
          <Trackpoint>
            <Time>2022-07-09T09:22:43.000Z</Time>
            <Position>
              <LatitudeDegrees>42.81462636776268482208251953125</LatitudeDegrees>
              <LongitudeDegrees>-0.13699089176952838897705078125</LongitudeDegrees>
            </Position>
            <AltitudeMeters>1903</AltitudeMeters>
            <DistanceMeters>7198.8466019753</DistanceMeters>
          </Trackpoint>
          <Trackpoint>
            <Time>2022-07-09T09:22:46.000Z</Time>
            <Position>
              <LatitudeDegrees>42.81463894061744213104248046875</LatitudeDegrees>
              <LongitudeDegrees>-0.136968009173870086669921875</LongitudeDegrees>
            </Position>
            <AltitudeMeters>1903</AltitudeMeters>
            <DistanceMeters>7201.1820176069</DistanceMeters>
          </Trackpoint>
          <Trackpoint>
            <Time>2022-07-09T09:22:47.000Z</Time>
            <Position>
              <LatitudeDegrees>42.81464329920709133148193359375</LatitudeDegrees>
              <LongitudeDegrees>-0.13696189038455486297607421875</LongitudeDegrees>
            </Position>
            <AltitudeMeters>1903</AltitudeMeters>
            <DistanceMeters>7201.8803184933</DistanceMeters>
          </Trackpoint>
          <Trackpoint>
            <Time>2022-07-09T09:22:49.000Z</Time>
            <Position>
              <LatitudeDegrees>42.8146586380898952484130859375</LatitudeDegrees>
              <LongitudeDegrees>-0.13695116154849529266357421875</LongitudeDegrees>
            </Position>
            <AltitudeMeters>1903</AltitudeMeters>
            <DistanceMeters>7203.7997640354</DistanceMeters>
          </Trackpoint>
          <Trackpoint>
            <Time>2022-07-09T09:22:51.000Z</Time>
            <Position>
              <LatitudeDegrees>42.814679257571697235107421875</LatitudeDegrees>
              <LongitudeDegrees>-0.13694546185433864593505859375</LongitudeDegrees>
            </Position>
            <AltitudeMeters>1903</AltitudeMeters>
            <DistanceMeters>7206.1429000703</DistanceMeters>
          </Trackpoint>
          <Trackpoint>
            <Time>2022-07-09T09:22:53.000Z</Time>
            <Position>
              <LatitudeDegrees>42.8146955184638500213623046875</LatitudeDegrees>
              <LongitudeDegrees>-0.13694093562662601470947265625</LongitudeDegrees>
            </Position>
            <AltitudeMeters>1903</AltitudeMeters>
            <DistanceMeters>7207.9879851143</DistanceMeters>
          </Trackpoint>
          <Trackpoint>
            <Time>2022-07-09T09:22:55.000Z</Time>
            <Position>
              <LatitudeDegrees>42.81470364890992641448974609375</LatitudeDegrees>
              <LongitudeDegrees>-0.13693012297153472900390625</LongitudeDegrees>
            </Position>
            <AltitudeMeters>1903.800048828125</AltitudeMeters>
            <DistanceMeters>7209.2486569408</DistanceMeters>
          </Trackpoint>
          <Trackpoint>
            <Time>2022-07-09T09:22:56.000Z</Time>
            <Position>
              <LatitudeDegrees>42.81470633111894130706787109375</LatitudeDegrees>
              <LongitudeDegrees>-0.13692266307771205902099609375</LongitudeDegrees>
            </Position>
            <AltitudeMeters>1904.199951171875</AltitudeMeters>
            <DistanceMeters>7209.9272834202</DistanceMeters>
          </Trackpoint>
          <Trackpoint>
            <Time>2022-07-09T09:22:57.000Z</Time>
            <Position>
              <LatitudeDegrees>42.81470683403313159942626953125</LatitudeDegrees>
              <LongitudeDegrees>-0.136913694441318511962890625</LongitudeDegrees>
            </Position>
            <AltitudeMeters>1904.4000244140625</AltitudeMeters>
            <DistanceMeters>7210.6633571846</DistanceMeters>
          </Trackpoint>
          <Trackpoint>
            <Time>2022-07-09T09:22:59.000Z</Time>
            <Position>
              <LatitudeDegrees>42.8146985359489917755126953125</LatitudeDegrees>
              <LongitudeDegrees>-0.136902295053005218505859375</LongitudeDegrees>
            </Position>
            <AltitudeMeters>1905</AltitudeMeters>
            <DistanceMeters>7211.9732100483</DistanceMeters>
          </Trackpoint>
          <Trackpoint>
            <Time>2022-07-09T09:23:01.000Z</Time>
            <Position>
              <LatitudeDegrees>42.814687974750995635986328125</LatitudeDegrees>
              <LongitudeDegrees>-0.13689248822629451751708984375</LongitudeDegrees>
            </Position>
            <AltitudeMeters>1905</AltitudeMeters>
            <DistanceMeters>7213.3954396793</DistanceMeters>
          </Trackpoint>
          <Trackpoint>
            <Time>2022-07-09T09:23:02.000Z</Time>
            <Position>
              <LatitudeDegrees>42.8146822750568389892578125</LatitudeDegrees>
              <LongitudeDegrees>-0.13689165003597736358642578125</LongitudeDegrees>
            </Position>
            <AltitudeMeters>1905.199951171875</AltitudeMeters>
            <DistanceMeters>7214.0399422134</DistanceMeters>
          </Trackpoint>
          <Trackpoint>
            <Time>2022-07-09T09:23:04.000Z</Time>
            <Position>
              <LatitudeDegrees>42.81466945074498653411865234375</LatitudeDegrees>
              <LongitudeDegrees>-0.1368907280266284942626953125</LongitudeDegrees>
            </Position>
            <AltitudeMeters>1905.5999755859375</AltitudeMeters>
            <DistanceMeters>7215.4685069744</DistanceMeters>
          </Trackpoint>
          <Trackpoint>
            <Time>2022-07-09T09:23:05.000Z</Time>
            <Position>
              <LatitudeDegrees>42.8146640025079250335693359375</LatitudeDegrees>
              <LongitudeDegrees>-0.13688854873180389404296875</LongitudeDegrees>
            </Position>
            <AltitudeMeters>1905.5999755859375</AltitudeMeters>
            <DistanceMeters>7216.0988428876</DistanceMeters>
          </Trackpoint>
          <Trackpoint>
            <Time>2022-07-09T09:23:07.000Z</Time>
            <Position>
              <LatitudeDegrees>42.81465117819607257843017578125</LatitudeDegrees>
              <LongitudeDegrees>-0.13688184320926666259765625</LongitudeDegrees>
            </Position>
            <AltitudeMeters>1906</AltitudeMeters>
            <DistanceMeters>7217.628153124</DistanceMeters>
          </Trackpoint>
          <Trackpoint>
            <Time>2022-07-09T09:23:09.000Z</Time>
            <Position>
              <LatitudeDegrees>42.814637012779712677001953125</LatitudeDegrees>
              <LongitudeDegrees>-0.13687974773347377777099609375</LongitudeDegrees>
            </Position>
            <AltitudeMeters>1906</AltitudeMeters>
            <DistanceMeters>7219.2125650816</DistanceMeters>
          </Trackpoint>
          <Trackpoint>
            <Time>2022-07-09T09:23:13.000Z</Time>
            <Position>
              <LatitudeDegrees>42.81460407190024852752685546875</LatitudeDegrees>
              <LongitudeDegrees>-0.1368773169815540313720703125</LongitudeDegrees>
            </Position>
            <AltitudeMeters>1906.5999755859375</AltitudeMeters>
            <DistanceMeters>7222.8843363341</DistanceMeters>
          </Trackpoint>
          <Trackpoint>
            <Time>2022-07-09T09:23:14.000Z</Time>
            <Position>
              <LatitudeDegrees>42.8145942650735378265380859375</LatitudeDegrees>
              <LongitudeDegrees>-0.1368789933621883392333984375</LongitudeDegrees>
            </Position>
            <AltitudeMeters>1906.800048828125</AltitudeMeters>
            <DistanceMeters>7223.984350081</DistanceMeters>
          </Trackpoint>
          <Trackpoint>
            <Time>2022-07-09T09:23:15.000Z</Time>
            <Position>
              <LatitudeDegrees>42.81458504498004913330078125</LatitudeDegrees>
              <LongitudeDegrees>-0.136884860694408416748046875</LongitudeDegrees>
            </Position>
            <AltitudeMeters>1907</AltitudeMeters>
            <DistanceMeters>7225.1167240718</DistanceMeters>
          </Trackpoint>
          <Trackpoint>
            <Time>2022-07-09T09:23:16.000Z</Time>
            <Position>
              <LatitudeDegrees>42.814578674733638763427734375</LatitudeDegrees>
              <LongitudeDegrees>-0.136898942291736602783203125</LongitudeDegrees>
            </Position>
            <AltitudeMeters>1907.199951171875</AltitudeMeters>
            <DistanceMeters>7226.4639602669</DistanceMeters>
          </Trackpoint>
          <Trackpoint>
            <Time>2022-07-09T09:23:18.000Z</Time>
            <Position>
              <LatitudeDegrees>42.81456517986953258514404296875</LatitudeDegrees>
              <LongitudeDegrees>-0.136913023889064788818359375</LongitudeDegrees>
            </Position>
            <AltitudeMeters>1907.4000244140625</AltitudeMeters>
            <DistanceMeters>7228.3549680066</DistanceMeters>
          </Trackpoint>
          <Trackpoint>
            <Time>2022-07-09T09:23:22.000Z</Time>
            <Position>
              <LatitudeDegrees>42.8145503439009189605712890625</LatitudeDegrees>
              <LongitudeDegrees>-0.1369299553334712982177734375</LongitudeDegrees>
            </Position>
            <AltitudeMeters>1908</AltitudeMeters>
            <DistanceMeters>7230.5093726326</DistanceMeters>
          </Trackpoint>
          <Trackpoint>
            <Time>2022-07-09T09:23:25.000Z</Time>
            <Position>
              <LatitudeDegrees>42.81454321928322315216064453125</LatitudeDegrees>
              <LongitudeDegrees>-0.13693724758923053741455078125</LongitudeDegrees>
            </Position>
            <AltitudeMeters>1908.4000244140625</AltitudeMeters>
            <DistanceMeters>7231.4969192168</DistanceMeters>
          </Trackpoint>
          <Trackpoint>
            <Time>2022-07-09T09:23:27.000Z</Time>
            <Position>
              <LatitudeDegrees>42.81453165225684642791748046875</LatitudeDegrees>
              <LongitudeDegrees>-0.1369326375424861907958984375</LongitudeDegrees>
            </Position>
            <AltitudeMeters>1909</AltitudeMeters>
            <DistanceMeters>7232.8407998992</DistanceMeters>
          </Trackpoint>
          <Trackpoint>
            <Time>2022-07-09T09:23:30.000Z</Time>
            <Position>
              <LatitudeDegrees>42.81452360562980175018310546875</LatitudeDegrees>
              <LongitudeDegrees>-0.13691897504031658172607421875</LongitudeDegrees>
            </Position>
            <AltitudeMeters>1910.199951171875</AltitudeMeters>
            <DistanceMeters>7234.2693646602</DistanceMeters>
          </Trackpoint>
          <Trackpoint>
            <Time>2022-07-09T09:23:32.000Z</Time>
            <Position>
              <LatitudeDegrees>42.8145211748778820037841796875</LatitudeDegrees>
              <LongitudeDegrees>-0.1369061507284641265869140625</LongitudeDegrees>
            </Position>
            <AltitudeMeters>1911</AltitudeMeters>
            <DistanceMeters>7235.3528359048</DistanceMeters>
          </Trackpoint>
          <Trackpoint>
            <Time>2022-07-09T09:23:33.000Z</Time>
            <Position>
              <LatitudeDegrees>42.814520336687564849853515625</LatitudeDegrees>
              <LongitudeDegrees>-0.1369024626910686492919921875</LongitudeDegrees>
            </Position>
            <AltitudeMeters>1911.4000244140625</AltitudeMeters>
            <DistanceMeters>7235.6533367607</DistanceMeters>
          </Trackpoint>
          <Trackpoint>
            <Time>2022-07-09T09:23:37.000Z</Time>
            <Position>
              <LatitudeDegrees>42.81450164504349231719970703125</LatitudeDegrees>
              <LongitudeDegrees>-0.1368937455117702484130859375</LongitudeDegrees>
            </Position>
            <AltitudeMeters>1912.199951171875</AltitudeMeters>
            <DistanceMeters>7237.8513110321</DistanceMeters>
          </Trackpoint>
          <Trackpoint>
            <Time>2022-07-09T09:23:39.000Z</Time>
            <Position>
              <LatitudeDegrees>42.81449116766452789306640625</LatitudeDegrees>
              <LongitudeDegrees>-0.1368920691311359405517578125</LongitudeDegrees>
            </Position>
            <AltitudeMeters>1912.4000244140625</AltitudeMeters>
            <DistanceMeters>7239.0228790495</DistanceMeters>
          </Trackpoint>
          <Trackpoint>
            <Time>2022-07-09T09:23:41.000Z</Time>
            <Position>
              <LatitudeDegrees>42.81448303721845149993896484375</LatitudeDegrees>
              <LongitudeDegrees>-0.1368913985788822174072265625</LongitudeDegrees>
            </Position>
            <AltitudeMeters>1912.4000244140625</AltitudeMeters>
            <DistanceMeters>7239.9343432742</DistanceMeters>
          </Trackpoint>
          <Trackpoint>
            <Time>2022-07-09T09:23:43.000Z</Time>
            <Position>
              <LatitudeDegrees>42.81447784043848514556884765625</LatitudeDegrees>
              <LongitudeDegrees>-0.1368927396833896636962890625</LongitudeDegrees>
            </Position>
            <AltitudeMeters>1912.5999755859375</AltitudeMeters>
            <DistanceMeters>7240.5201272829</DistanceMeters>
          </Trackpoint>
          <Trackpoint>
            <Time>2022-07-09T09:23:45.000Z</Time>
            <Position>
              <LatitudeDegrees>42.8144625015556812286376953125</LatitudeDegrees>
              <LongitudeDegrees>-0.13688930310308933258056640625</LongitudeDegrees>
            </Position>
            <AltitudeMeters>1912.800048828125</AltitudeMeters>
            <DistanceMeters>7242.2542020955</DistanceMeters>
          </Trackpoint>
          <Trackpoint>
            <Time>2022-07-09T09:23:48.000Z</Time>
            <Position>
              <LatitudeDegrees>42.8144355118274688720703125</LatitudeDegrees>
              <LongitudeDegrees>-0.136886537075042724609375</LongitudeDegrees>
            </Position>
            <AltitudeMeters>1913.800048828125</AltitudeMeters>
            <DistanceMeters>7245.2652146744</DistanceMeters>
          </Trackpoint>
          <Trackpoint>
            <Time>2022-07-09T09:23:49.000Z</Time>
            <Position>
              <LatitudeDegrees>42.81442704610526561737060546875</LatitudeDegrees>
              <LongitudeDegrees>-0.1368870399892330169677734375</LongitudeDegrees>
            </Position>
            <AltitudeMeters>1913.800048828125</AltitudeMeters>
            <DistanceMeters>7246.2059311521</DistanceMeters>
          </Trackpoint>
          <Trackpoint>
            <Time>2022-07-09T09:23:52.000Z</Time>
            <Position>
              <LatitudeDegrees>42.81440533697605133056640625</LatitudeDegrees>
              <LongitudeDegrees>-0.136890895664691925048828125</LongitudeDegrees>
            </Position>
            <AltitudeMeters>1914.199951171875</AltitudeMeters>
            <DistanceMeters>7248.6416569625</DistanceMeters>
          </Trackpoint>
          <Trackpoint>
            <Time>2022-07-09T09:23:53.000Z</Time>
            <Position>
              <LatitudeDegrees>42.8143981285393238067626953125</LatitudeDegrees>
              <LongitudeDegrees>-0.13688846491277217864990234375</LongitudeDegrees>
            </Position>
            <AltitudeMeters>1914.199951171875</AltitudeMeters>
            <DistanceMeters>7249.4591076686</DistanceMeters>
          </Trackpoint>
          <Trackpoint>
            <Time>2022-07-09T09:23:56.000Z</Time>
            <Position>
              <LatitudeDegrees>42.8143897466361522674560546875</LatitudeDegrees>
              <LongitudeDegrees>-0.1368934102356433868408203125</LongitudeDegrees>
            </Position>
            <AltitudeMeters>1914.5999755859375</AltitudeMeters>
            <DistanceMeters>7250.473715334</DistanceMeters>
          </Trackpoint>
          <Trackpoint>
            <Time>2022-07-09T09:23:57.000Z</Time>
            <Position>
              <LatitudeDegrees>42.81438656151294708251953125</LatitudeDegrees>
              <LongitudeDegrees>-0.13689399696886539459228515625</LongitudeDegrees>
            </Position>
            <AltitudeMeters>1914.800048828125</AltitudeMeters>
            <DistanceMeters>7250.8292727417</DistanceMeters>
          </Trackpoint>
          <Trackpoint>
            <Time>2022-07-09T09:23:58.000Z</Time>
            <Position>
              <LatitudeDegrees>42.81438278965651988983154296875</LatitudeDegrees>
              <LongitudeDegrees>-0.136893577873706817626953125</LongitudeDegrees>
            </Position>
            <AltitudeMeters>1915</AltitudeMeters>
            <DistanceMeters>7251.2542451278</DistanceMeters>
          </Trackpoint>
          <Trackpoint>
            <Time>2022-07-09T09:24:02.000Z</Time>
            <Position>
              <LatitudeDegrees>42.814359404146671295166015625</LatitudeDegrees>
              <LongitudeDegrees>-0.13688142411410808563232421875</LongitudeDegrees>
            </Position>
            <AltitudeMeters>1915.800048828125</AltitudeMeters>
            <DistanceMeters>7254.0393547603</DistanceMeters>
          </Trackpoint>
          <Trackpoint>
            <Time>2022-07-09T09:24:04.000Z</Time>
            <Position>
              <LatitudeDegrees>42.81434607692062854766845703125</LatitudeDegrees>
              <LongitudeDegrees>-0.1368779875338077545166015625</LongitudeDegrees>
            </Position>
            <AltitudeMeters>1916</AltitudeMeters>
            <DistanceMeters>7255.5508471818</DistanceMeters>
          </Trackpoint>
          <Trackpoint>
            <Time>2022-07-09T09:24:08.000Z</Time>
            <Position>
              <LatitudeDegrees>42.81433551572263240814208984375</LatitudeDegrees>
              <LongitudeDegrees>-0.1368739642202854156494140625</LongitudeDegrees>
            </Position>
            <AltitudeMeters>1917</AltitudeMeters>
            <DistanceMeters>7256.7714874291</DistanceMeters>
          </Trackpoint>
          <Trackpoint>
            <Time>2022-07-09T09:24:10.000Z</Time>
            <Position>
              <LatitudeDegrees>42.81432797200977802276611328125</LatitudeDegrees>
              <LongitudeDegrees>-0.1368649117648601531982421875</LongitudeDegrees>
            </Position>
            <AltitudeMeters>1917.4000244140625</AltitudeMeters>
            <DistanceMeters>7257.8877985637</DistanceMeters>
          </Trackpoint>
          <Trackpoint>
            <Time>2022-07-09T09:24:12.000Z</Time>
            <Position>
              <LatitudeDegrees>42.81431959010660648345947265625</LatitudeDegrees>
              <LongitudeDegrees>-0.1368605531752109527587890625</LongitudeDegrees>
            </Position>
            <AltitudeMeters>1917.5999755859375</AltitudeMeters>
            <DistanceMeters>7258.8889671236</DistanceMeters>
          </Trackpoint>
          <Trackpoint>
            <Time>2022-07-09T09:24:14.000Z</Time>
            <Position>
              <LatitudeDegrees>42.8143169917166233062744140625</LatitudeDegrees>
              <LongitudeDegrees>-0.1368583738803863525390625</LongitudeDegrees>
            </Position>
            <AltitudeMeters>1917.800048828125</AltitudeMeters>
            <DistanceMeters>7259.2315908148</DistanceMeters>
          </Trackpoint>
          <Trackpoint>
            <Time>2022-07-09T09:24:19.000Z</Time>
            <Position>
              <LatitudeDegrees>42.81429964117705821990966796875</LatitudeDegrees>
              <LongitudeDegrees>-0.136847980320453643798828125</LongitudeDegrees>
            </Position>
            <AltitudeMeters>1918</AltitudeMeters>
            <DistanceMeters>7261.3393853044</DistanceMeters>
          </Trackpoint>
          <Trackpoint>
            <Time>2022-07-09T09:24:25.000Z</Time>
            <Position>
              <LatitudeDegrees>42.814313471317291259765625</LatitudeDegrees>
              <LongitudeDegrees>-0.1368476450443267822265625</LongitudeDegrees>
            </Position>
            <AltitudeMeters>1919</AltitudeMeters>
            <DistanceMeters>7262.8775270496</DistanceMeters>
          </Trackpoint>
          <Trackpoint>
            <Time>2022-07-09T09:24:28.000Z</Time>
            <Position>
              <LatitudeDegrees>42.814308106899261474609375</LatitudeDegrees>
              <LongitudeDegrees>-0.1368342339992523193359375</LongitudeDegrees>
            </Position>
            <AltitudeMeters>1919.800048828125</AltitudeMeters>
            <DistanceMeters>7264.1274083339</DistanceMeters>
          </Trackpoint>
          <Trackpoint>
            <Time>2022-07-09T09:24:29.000Z</Time>
            <Position>
              <LatitudeDegrees>42.81430416740477085113525390625</LatitudeDegrees>
              <LongitudeDegrees>-0.13683783821761608123779296875</LongitudeDegrees>
            </Position>
            <AltitudeMeters>1920</AltitudeMeters>
            <DistanceMeters>7264.6649606069</DistanceMeters>
          </Trackpoint>
          <Trackpoint>
            <Time>2022-07-09T09:24:31.000Z</Time>
            <Position>
              <LatitudeDegrees>42.814302742481231689453125</LatitudeDegrees>
              <LongitudeDegrees>-0.13683758676052093505859375</LongitudeDegrees>
            </Position>
            <AltitudeMeters>1920.199951171875</AltitudeMeters>
            <DistanceMeters>7264.8550140356</DistanceMeters>
          </Trackpoint>
          <Trackpoint>
            <Time>2022-07-09T09:24:35.000Z</Time>
            <Position>
              <LatitudeDegrees>42.814301736652851104736328125</LatitudeDegrees>
              <LongitudeDegrees>-0.13683079741895198822021484375</LongitudeDegrees>
            </Position>
            <AltitudeMeters>1921.199951171875</AltitudeMeters>
            <DistanceMeters>7265.4251743218</DistanceMeters>
          </Trackpoint>
          <Trackpoint>
            <Time>2022-07-09T09:24:36.000Z</Time>
            <Position>
              <LatitudeDegrees>42.81415580771863460540771484375</LatitudeDegrees>
              <LongitudeDegrees>-0.1368964277207851409912109375</LongitudeDegrees>
            </Position>
            <AltitudeMeters>1921.199951171875</AltitudeMeters>
            <DistanceMeters>7282.528663042</DistanceMeters>
          </Trackpoint>
          <Trackpoint>
            <Time>2022-07-09T09:24:40.000Z</Time>
            <Position>
              <LatitudeDegrees>42.81412613578140735626220703125</LatitudeDegrees>
              <LongitudeDegrees>-0.13691461645066738128662109375</LongitudeDegrees>
            </Position>
            <AltitudeMeters>1920.800048828125</AltitudeMeters>
            <DistanceMeters>7286.1496671841</DistanceMeters>
          </Trackpoint>
          <Trackpoint>
            <Time>2022-07-09T09:24:47.000Z</Time>
            <Position>
              <LatitudeDegrees>42.81407701782882213592529296875</LatitudeDegrees>
              <LongitudeDegrees>-0.13694931752979755401611328125</LongitudeDegrees>
            </Position>
            <AltitudeMeters>1920.5999755859375</AltitudeMeters>
            <DistanceMeters>7292.3081021366</DistanceMeters>
          </Trackpoint>
          <Trackpoint>
            <Time>2022-07-09T09:24:49.000Z</Time>
            <Position>
              <LatitudeDegrees>42.81406628899276256561279296875</LatitudeDegrees>
              <LongitudeDegrees>-0.13696054928004741668701171875</LongitudeDegrees>
            </Position>
            <AltitudeMeters>1920.199951171875</AltitudeMeters>
            <DistanceMeters>7293.813608426</DistanceMeters>
          </Trackpoint>
          <Trackpoint>
            <Time>2022-07-09T09:24:51.000Z</Time>
            <Position>
              <LatitudeDegrees>42.81405556015670299530029296875</LatitudeDegrees>
              <LongitudeDegrees>-0.13697111047804355621337890625</LongitudeDegrees>
            </Position>
            <AltitudeMeters>1920.199951171875</AltitudeMeters>
            <DistanceMeters>7295.2857559548</DistanceMeters>
          </Trackpoint>
          <Trackpoint>
            <Time>2022-07-09T09:24:55.000Z</Time>
            <Position>
              <LatitudeDegrees>42.8141470067203044891357421875</LatitudeDegrees>
              <LongitudeDegrees>-0.13696222566068172454833984375</LongitudeDegrees>
            </Position>
            <AltitudeMeters>1920.5999755859375</AltitudeMeters>
            <DistanceMeters>7305.4895190547</DistanceMeters>
          </Trackpoint>
          <Trackpoint>
            <Time>2022-07-09T09:24:57.000Z</Time>
            <Position>
              <LatitudeDegrees>42.814143486320972442626953125</LatitudeDegrees>
              <LongitudeDegrees>-0.13694311492145061492919921875</LongitudeDegrees>
            </Position>
            <AltitudeMeters>1921.4000244140625</AltitudeMeters>
            <DistanceMeters>7307.1021758737</DistanceMeters>
          </Trackpoint>
          <Trackpoint>
            <Time>2022-07-09T09:24:58.000Z</Time>
            <Position>
              <LatitudeDegrees>42.81414113938808441162109375</LatitudeDegrees>
              <LongitudeDegrees>-0.13692735694348812103271484375</LongitudeDegrees>
            </Position>
            <AltitudeMeters>1921.5999755859375</AltitudeMeters>
            <DistanceMeters>7308.415471195</DistanceMeters>
          </Trackpoint>
          <Trackpoint>
            <Time>2022-07-09T09:24:59.000Z</Time>
            <Position>
              <LatitudeDegrees>42.81413845717906951904296875</LatitudeDegrees>
              <LongitudeDegrees>-0.1369185559451580047607421875</LongitudeDegrees>
            </Position>
            <AltitudeMeters>1921.800048828125</AltitudeMeters>
            <DistanceMeters>7309.1990815562</DistanceMeters>
          </Trackpoint>
          <Trackpoint>
            <Time>2022-07-09T09:25:04.000Z</Time>
            <Position>
              <LatitudeDegrees>42.8140135668218135833740234375</LatitudeDegrees>
              <LongitudeDegrees>-0.137064568698406219482421875</LongitudeDegrees>
            </Position>
            <AltitudeMeters>1922.199951171875</AltitudeMeters>
            <DistanceMeters>7327.511644154</DistanceMeters>
          </Trackpoint>
          <Trackpoint>
            <Time>2022-07-09T09:25:06.000Z</Time>
            <Position>
              <LatitudeDegrees>42.8140170872211456298828125</LatitudeDegrees>
              <LongitudeDegrees>-0.13708158396184444427490234375</LongitudeDegrees>
            </Position>
            <AltitudeMeters>1922.4000244140625</AltitudeMeters>
            <DistanceMeters>7328.9559251718</DistanceMeters>
          </Trackpoint>
          <Trackpoint>
            <Time>2022-07-09T09:25:12.000Z</Time>
            <Position>
              <LatitudeDegrees>42.81402706168591976165771484375</LatitudeDegrees>
              <LongitudeDegrees>-0.13715668581426143646240234375</LongitudeDegrees>
            </Position>
            <AltitudeMeters>1922.5999755859375</AltitudeMeters>
            <DistanceMeters>7335.1872435483</DistanceMeters>
          </Trackpoint>
          <Trackpoint>
            <Time>2022-07-09T09:25:14.000Z</Time>
            <Position>
              <LatitudeDegrees>42.8140117228031158447265625</LatitudeDegrees>
              <LongitudeDegrees>-0.13718484900891780853271484375</LongitudeDegrees>
            </Position>
            <AltitudeMeters>1923</AltitudeMeters>
            <DistanceMeters>7338.0506871764</DistanceMeters>
          </Trackpoint>
          <Trackpoint>
            <Time>2022-07-09T09:25:15.000Z</Time>
            <Position>
              <LatitudeDegrees>42.81400593928992748260498046875</LatitudeDegrees>
              <LongitudeDegrees>-0.13719390146434307098388671875</LongitudeDegrees>
            </Position>
            <AltitudeMeters>1923</AltitudeMeters>
            <DistanceMeters>7339.0290470811</DistanceMeters>
          </Trackpoint>
          <Trackpoint>
            <Time>2022-07-09T09:25:19.000Z</Time>
            <Position>
              <LatitudeDegrees>42.8139800392091274261474609375</LatitudeDegrees>
              <LongitudeDegrees>-0.1372172869741916656494140625</LongitudeDegrees>
            </Position>
            <AltitudeMeters>1923</AltitudeMeters>
            <DistanceMeters>7342.4867661575</DistanceMeters>
          </Trackpoint>
          <Trackpoint>
            <Time>2022-07-09T09:25:20.000Z</Time>
            <Position>
              <LatitudeDegrees>42.81397576443850994110107421875</LatitudeDegrees>
              <LongitudeDegrees>-0.13722541742026805877685546875</LongitudeDegrees>
            </Position>
            <AltitudeMeters>1923</AltitudeMeters>
            <DistanceMeters>7343.3042168636</DistanceMeters>
          </Trackpoint>
          <Trackpoint>
            <Time>2022-07-09T09:25:22.000Z</Time>
            <Position>
              <LatitudeDegrees>42.81396034173667430877685546875</LatitudeDegrees>
              <LongitudeDegrees>-0.13723329640924930572509765625</LongitudeDegrees>
            </Position>
            <AltitudeMeters>1923.199951171875</AltitudeMeters>
            <DistanceMeters>7345.1370257563</DistanceMeters>
          </Trackpoint>
          <Trackpoint>
            <Time>2022-07-09T09:25:25.000Z</Time>
            <Position>
              <LatitudeDegrees>42.81394626013934612274169921875</LatitudeDegrees>
              <LongitudeDegrees>-0.13724218122661113739013671875</LongitudeDegrees>
            </Position>
            <AltitudeMeters>1923.199951171875</AltitudeMeters>
            <DistanceMeters>7346.8632717488</DistanceMeters>
          </Trackpoint>
          <Trackpoint>
            <Time>2022-07-09T09:25:26.000Z</Time>
            <Position>
              <LatitudeDegrees>42.81394123099744319915771484375</LatitudeDegrees>
              <LongitudeDegrees>-0.1372427679598331451416015625</LongitudeDegrees>
            </Position>
            <AltitudeMeters>1923.4000244140625</AltitudeMeters>
            <DistanceMeters>7347.4254573725</DistanceMeters>
          </Trackpoint>
          <Trackpoint>
            <Time>2022-07-09T09:25:32.000Z</Time>
            <Position>
              <LatitudeDegrees>42.81392346136271953582763671875</LatitudeDegrees>
              <LongitudeDegrees>-0.13724268414080142974853515625</LongitudeDegrees>
            </Position>
            <AltitudeMeters>1923.5999755859375</AltitudeMeters>
            <DistanceMeters>7349.4005505409</DistanceMeters>
          </Trackpoint>
          <Trackpoint>
            <Time>2022-07-09T09:25:33.000Z</Time>
            <Position>
              <LatitudeDegrees>42.8139217011630535125732421875</LatitudeDegrees>
              <LongitudeDegrees>-0.13724838383495807647705078125</LongitudeDegrees>
            </Position>
            <AltitudeMeters>1923.800048828125</AltitudeMeters>
            <DistanceMeters>7349.894323833</DistanceMeters>
          </Trackpoint>
          <Trackpoint>
            <Time>2022-07-09T09:25:34.000Z</Time>
            <Position>
              <LatitudeDegrees>42.81391893513500690460205078125</LatitudeDegrees>
              <LongitudeDegrees>-0.13725425116717815399169921875</LongitudeDegrees>
            </Position>
            <AltitudeMeters>1924</AltitudeMeters>
            <DistanceMeters>7350.4565094567</DistanceMeters>
          </Trackpoint>
          <Trackpoint>
            <Time>2022-07-09T09:25:35.000Z</Time>
            <Position>
              <LatitudeDegrees>42.81391449272632598876953125</LatitudeDegrees>
              <LongitudeDegrees>-0.13726137578487396240234375</LongitudeDegrees>
            </Position>
            <AltitudeMeters>1924.199951171875</AltitudeMeters>
            <DistanceMeters>7351.2285101337</DistanceMeters>
          </Trackpoint>
          <Trackpoint>
            <Time>2022-07-09T09:25:36.000Z</Time>
            <Position>
              <LatitudeDegrees>42.81390912830829620361328125</LatitudeDegrees>
              <LongitudeDegrees>-0.13726749457418918609619140625</LongitudeDegrees>
            </Position>
            <AltitudeMeters>1924.5999755859375</AltitudeMeters>
            <DistanceMeters>7352.0063373136</DistanceMeters>
          </Trackpoint>
          <Trackpoint>
            <Time>2022-07-09T09:25:40.000Z</Time>
            <Position>
              <LatitudeDegrees>42.8138938732445240020751953125</LatitudeDegrees>
              <LongitudeDegrees>-0.13728274963796138763427734375</LongitudeDegrees>
            </Position>
            <AltitudeMeters>1925.199951171875</AltitudeMeters>
            <DistanceMeters>7354.1119886461</DistanceMeters>
          </Trackpoint>
          <Trackpoint>
            <Time>2022-07-09T09:25:42.000Z</Time>
            <Position>
              <LatitudeDegrees>42.813883982598781585693359375</LatitudeDegrees>
              <LongitudeDegrees>-0.1372880302369594573974609375</LongitudeDegrees>
            </Position>
            <AltitudeMeters>1925.4000244140625</AltitudeMeters>
            <DistanceMeters>7355.2912391591</DistanceMeters>
          </Trackpoint>
          <Trackpoint>
            <Time>2022-07-09T09:25:47.000Z</Time>
            <Position>
              <LatitudeDegrees>42.8138747625052928924560546875</LatitudeDegrees>
              <LongitudeDegrees>-0.13730320148169994354248046875</LongitudeDegrees>
            </Position>
            <AltitudeMeters>1926.199951171875</AltitudeMeters>
            <DistanceMeters>7356.8982867199</DistanceMeters>
          </Trackpoint>
          <Trackpoint>
            <Time>2022-07-09T09:25:48.000Z</Time>
            <Position>
              <LatitudeDegrees>42.81387132592499256134033203125</LatitudeDegrees>
              <LongitudeDegrees>-0.1373081468045711517333984375</LongitudeDegrees>
            </Position>
            <AltitudeMeters>1926.4000244140625</AltitudeMeters>
            <DistanceMeters>7357.4523829202</DistanceMeters>
          </Trackpoint>
          <Trackpoint>
            <Time>2022-07-09T09:25:52.000Z</Time>
            <Position>
              <LatitudeDegrees>42.8138626925647258758544921875</LatitudeDegrees>
              <LongitudeDegrees>-0.1373359747231006622314453125</LongitudeDegrees>
            </Position>
            <AltitudeMeters>1926.800048828125</AltitudeMeters>
            <DistanceMeters>7359.9194199128</DistanceMeters>
          </Trackpoint>
          <Trackpoint>
            <Time>2022-07-09T09:25:53.000Z</Time>
            <Position>
              <LatitudeDegrees>42.813857495784759521484375</LatitudeDegrees>
              <LongitudeDegrees>-0.1373413391411304473876953125</LongitudeDegrees>
            </Position>
            <AltitudeMeters>1927</AltitudeMeters>
            <DistanceMeters>7360.6431218085</DistanceMeters>
          </Trackpoint>
          <Trackpoint>
            <Time>2022-07-09T09:25:54.000Z</Time>
            <Position>
              <LatitudeDegrees>42.81385003589093685150146484375</LatitudeDegrees>
              <LongitudeDegrees>-0.137348882853984832763671875</LongitudeDegrees>
            </Position>
            <AltitudeMeters>1927.4000244140625</AltitudeMeters>
            <DistanceMeters>7361.6753761475</DistanceMeters>
          </Trackpoint>
          <Trackpoint>
            <Time>2022-07-09T09:25:55.000Z</Time>
            <Position>
              <LatitudeDegrees>42.81384383328258991241455078125</LatitudeDegrees>
              <LongitudeDegrees>-0.1373570971190929412841796875</LongitudeDegrees>
            </Position>
            <AltitudeMeters>1927.4000244140625</AltitudeMeters>
            <DistanceMeters>7362.6350989185</DistanceMeters>
          </Trackpoint>
          <Trackpoint>
            <Time>2022-07-09T09:26:01.000Z</Time>
            <Position>
              <LatitudeDegrees>42.81380427069962024688720703125</LatitudeDegrees>
              <LongitudeDegrees>-0.13739640824496746063232421875</LongitudeDegrees>
            </Position>
            <AltitudeMeters>1928.199951171875</AltitudeMeters>
            <DistanceMeters>7368.0840338005</DistanceMeters>
          </Trackpoint>
          <Trackpoint>
            <Time>2022-07-09T09:26:04.000Z</Time>
            <Position>
              <LatitudeDegrees>42.81378331594169139862060546875</LatitudeDegrees>
              <LongitudeDegrees>-0.13741350732743740081787109375</LongitudeDegrees>
            </Position>
            <AltitudeMeters>1928.5999755859375</AltitudeMeters>
            <DistanceMeters>7370.8018642829</DistanceMeters>
          </Trackpoint>
          <Trackpoint>
            <Time>2022-07-09T09:26:08.000Z</Time>
            <Position>
              <LatitudeDegrees>42.81375649385154247283935546875</LatitudeDegrees>
              <LongitudeDegrees>-0.13743664138019084930419921875</LongitudeDegrees>
            </Position>
            <AltitudeMeters>1929.4000244140625</AltitudeMeters>
            <DistanceMeters>7374.3345071527</DistanceMeters>
          </Trackpoint>
          <Trackpoint>
            <Time>2022-07-09T09:26:09.000Z</Time>
            <Position>
              <LatitudeDegrees>42.81375230289995670318603515625</LatitudeDegrees>
              <LongitudeDegrees>-0.1374439336359500885009765625</LongitudeDegrees>
            </Position>
            <AltitudeMeters>1929.800048828125</AltitudeMeters>
            <DistanceMeters>7375.0827482499</DistanceMeters>
          </Trackpoint>
          <Trackpoint>
            <Time>2022-07-09T09:26:14.000Z</Time>
            <Position>
              <LatitudeDegrees>42.8137121535837650299072265625</LatitudeDegrees>
              <LongitudeDegrees>-0.1374613679945468902587890625</LongitudeDegrees>
            </Position>
            <AltitudeMeters>1930.800048828125</AltitudeMeters>
            <DistanceMeters>7379.7728725785</DistanceMeters>
          </Trackpoint>
          <Trackpoint>
            <Time>2022-07-09T09:26:16.000Z</Time>
            <Position>
              <LatitudeDegrees>42.8136952221393585205078125</LatitudeDegrees>
              <LongitudeDegrees>-0.1374657265841960906982421875</LongitudeDegrees>
            </Position>
            <AltitudeMeters>1931.199951171875</AltitudeMeters>
            <DistanceMeters>7381.6923181206</DistanceMeters>
          </Trackpoint>
          <Trackpoint>
            <Time>2022-07-09T09:26:18.000Z</Time>
            <Position>
              <LatitudeDegrees>42.81367552466690540313720703125</LatitudeDegrees>
              <LongitudeDegrees>-0.13746933080255985260009765625</LongitudeDegrees>
            </Position>
            <AltitudeMeters>1931.199951171875</AltitudeMeters>
            <DistanceMeters>7383.9046249331</DistanceMeters>
          </Trackpoint>
          <Trackpoint>
            <Time>2022-07-09T09:26:20.000Z</Time>
            <Position>
              <LatitudeDegrees>42.81365892849862575531005859375</LatitudeDegrees>
              <LongitudeDegrees>-0.1374707557260990142822265625</LongitudeDegrees>
            </Position>
            <AltitudeMeters>1931.4000244140625</AltitudeMeters>
            <DistanceMeters>7385.7570366175</DistanceMeters>
          </Trackpoint>
          <Trackpoint>
            <Time>2022-07-09T09:26:22.000Z</Time>
            <Position>
              <LatitudeDegrees>42.81364484690129756927490234375</LatitudeDegrees>
              <LongitudeDegrees>-0.137470252811908721923828125</LongitudeDegrees>
            </Position>
            <AltitudeMeters>1931.800048828125</AltitudeMeters>
            <DistanceMeters>7387.3242573399</DistanceMeters>
          </Trackpoint>
          <Trackpoint>
            <Time>2022-07-09T09:26:24.000Z</Time>
            <Position>
              <LatitudeDegrees>42.81363562680780887603759765625</LatitudeDegrees>
              <LongitudeDegrees>-0.13746715150773525238037109375</LongitudeDegrees>
            </Position>
            <AltitudeMeters>1932.199951171875</AltitudeMeters>
            <DistanceMeters>7388.3824300475</DistanceMeters>
          </Trackpoint>
          <Trackpoint>
            <Time>2022-07-09T09:26:25.000Z</Time>
            <Position>
              <LatitudeDegrees>42.81363244168460369110107421875</LatitudeDegrees>
              <LongitudeDegrees>-0.137466900050640106201171875</LongitudeDegrees>
            </Position>
            <AltitudeMeters>1932.199951171875</AltitudeMeters>
            <DistanceMeters>7388.7379874553</DistanceMeters>
          </Trackpoint>
          <Trackpoint>
            <Time>2022-07-09T09:26:26.000Z</Time>
            <Position>
              <LatitudeDegrees>42.8136290051043033599853515625</LatitudeDegrees>
              <LongitudeDegrees>-0.1374653913080692291259765625</LongitudeDegrees>
            </Position>
            <AltitudeMeters>1932.4000244140625</AltitudeMeters>
            <DistanceMeters>7389.14115166</DistanceMeters>
          </Trackpoint>
          <Trackpoint>
            <Time>2022-07-09T09:26:27.000Z</Time>
            <Position>
              <LatitudeDegrees>42.8136279992759227752685546875</LatitudeDegrees>
              <LongitudeDegrees>-0.137465894222259521484375</LongitudeDegrees>
            </Position>
            <AltitudeMeters>1932.4000244140625</AltitudeMeters>
            <DistanceMeters>7389.2361783744</DistanceMeters>
          </Trackpoint>
          <Trackpoint>
            <Time>2022-07-09T09:26:29.000Z</Time>
            <Position>
              <LatitudeDegrees>42.81362213194370269775390625</LatitudeDegrees>
              <LongitudeDegrees>-0.1374685764312744140625</LongitudeDegrees>
            </Position>
            <AltitudeMeters>1932.5999755859375</AltitudeMeters>
            <DistanceMeters>7389.9214257568</DistanceMeters>
          </Trackpoint>
          <Trackpoint>
            <Time>2022-07-09T09:26:30.000Z</Time>
            <Position>
              <LatitudeDegrees>42.81361601315438747406005859375</LatitudeDegrees>
              <LongitudeDegrees>-0.1374690793454647064208984375</LongitudeDegrees>
            </Position>
            <AltitudeMeters>1932.800048828125</AltitudeMeters>
            <DistanceMeters>7390.6066731392</DistanceMeters>
          </Trackpoint>
          <Trackpoint>
            <Time>2022-07-09T09:26:31.000Z</Time>
            <Position>
              <LatitudeDegrees>42.81360737979412078857421875</LatitudeDegrees>
              <LongitudeDegrees>-0.1374700851738452911376953125</LongitudeDegrees>
            </Position>
            <AltitudeMeters>1933</AltitudeMeters>
            <DistanceMeters>7391.575759281</DistanceMeters>
          </Trackpoint>
          <Trackpoint>
            <Time>2022-07-09T09:26:33.000Z</Time>
            <Position>
              <LatitudeDegrees>42.8135931305587291717529296875</LatitudeDegrees>
              <LongitudeDegrees>-0.13748131692409515380859375</LongitudeDegrees>
            </Position>
            <AltitudeMeters>1933.199951171875</AltitudeMeters>
            <DistanceMeters>7393.4085681737</DistanceMeters>
          </Trackpoint>
          <Trackpoint>
            <Time>2022-07-09T09:26:36.000Z</Time>
            <Position>
              <LatitudeDegrees>42.8135710023343563079833984375</LatitudeDegrees>
              <LongitudeDegrees>-0.13749179430305957794189453125</LongitudeDegrees>
            </Position>
            <AltitudeMeters>1933.4000244140625</AltitudeMeters>
            <DistanceMeters>7396.0144494998</DistanceMeters>
          </Trackpoint>
          <Trackpoint>
            <Time>2022-07-09T09:26:37.000Z</Time>
            <Position>
              <LatitudeDegrees>42.81355951912701129913330078125</LatitudeDegrees>
              <LongitudeDegrees>-0.137493722140789031982421875</LongitudeDegrees>
            </Position>
            <AltitudeMeters>1933.4000244140625</AltitudeMeters>
            <DistanceMeters>7397.3034545679</DistanceMeters>
          </Trackpoint>
          <Trackpoint>
            <Time>2022-07-09T09:26:42.000Z</Time>
            <Position>
              <LatitudeDegrees>42.8135220520198345184326171875</LatitudeDegrees>
              <LongitudeDegrees>-0.137506462633609771728515625</LongitudeDegrees>
            </Position>
            <AltitudeMeters>1933.800048828125</AltitudeMeters>
            <DistanceMeters>7401.6017724255</DistanceMeters>
          </Trackpoint>
          <Trackpoint>
            <Time>2022-07-09T09:26:43.000Z</Time>
            <Position>
              <LatitudeDegrees>42.8135140053927898406982421875</LatitudeDegrees>
              <LongitudeDegrees>-0.1375059597194194793701171875</LongitudeDegrees>
            </Position>
            <AltitudeMeters>1934.199951171875</AltitudeMeters>
            <DistanceMeters>7402.4982526559</DistanceMeters>
          </Trackpoint>
          <Trackpoint>
            <Time>2022-07-09T09:26:44.000Z</Time>
            <Position>
              <LatitudeDegrees>42.813505791127681732177734375</LatitudeDegrees>
              <LongitudeDegrees>-0.1375049538910388946533203125</LongitudeDegrees>
            </Position>
            <AltitudeMeters>1934.4000244140625</AltitudeMeters>
            <DistanceMeters>7403.4146571022</DistanceMeters>
          </Trackpoint>
          <Trackpoint>
            <Time>2022-07-09T09:26:45.000Z</Time>
            <Position>
              <LatitudeDegrees>42.81350185163319110870361328125</LatitudeDegrees>
              <LongitudeDegrees>-0.13750612735748291015625</LongitudeDegrees>
            </Position>
            <AltitudeMeters>1934.5999755859375</AltitudeMeters>
            <DistanceMeters>7403.8603719009</DistanceMeters>
          </Trackpoint>
          <Trackpoint>
            <Time>2022-07-09T09:26:47.000Z</Time>
            <Position>
              <LatitudeDegrees>42.8134945593774318695068359375</LatitudeDegrees>
              <LongitudeDegrees>-0.13750771991908550262451171875</LongitudeDegrees>
            </Position>
            <AltitudeMeters>1935</AltitudeMeters>
            <DistanceMeters>7404.6833273877</DistanceMeters>
          </Trackpoint>
          <Trackpoint>
            <Time>2022-07-09T09:26:49.000Z</Time>
            <Position>
              <LatitudeDegrees>42.813492715358734130859375</LatitudeDegrees>
              <LongitudeDegrees>-0.13751660473644733428955078125</LongitudeDegrees>
            </Position>
            <AltitudeMeters>1935</AltitudeMeters>
            <DistanceMeters>7405.4315684849</DistanceMeters>
          </Trackpoint>
          <Trackpoint>
            <Time>2022-07-09T09:26:52.000Z</Time>
            <Position>
              <LatitudeDegrees>42.813483662903308868408203125</LatitudeDegrees>
              <LongitudeDegrees>-0.1375262439250946044921875</LongitudeDegrees>
            </Position>
            <AltitudeMeters>1935</AltitudeMeters>
            <DistanceMeters>7406.706485643</DistanceMeters>
          </Trackpoint>
          <Trackpoint>
            <Time>2022-07-09T09:26:53.000Z</Time>
            <Position>
              <LatitudeDegrees>42.81347955577075481414794921875</LatitudeDegrees>
              <LongitudeDegrees>-0.1375260762870311737060546875</LongitudeDegrees>
            </Position>
            <AltitudeMeters>1935.4000244140625</AltitudeMeters>
            <DistanceMeters>7407.1522004417</DistanceMeters>
          </Trackpoint>
          <Trackpoint>
            <Time>2022-07-09T09:26:59.000Z</Time>
            <Position>
              <LatitudeDegrees>42.813441753387451171875</LatitudeDegrees>
              <LongitudeDegrees>-0.1375572569668292999267578125</LongitudeDegrees>
            </Position>
            <AltitudeMeters>1936.4000244140625</AltitudeMeters>
            <DistanceMeters>7412.0706935842</DistanceMeters>
          </Trackpoint>
          <Trackpoint>
            <Time>2022-07-09T09:27:00.000Z</Time>
            <Position>
              <LatitudeDegrees>42.8134350478649139404296875</LatitudeDegrees>
              <LongitudeDegrees>-0.13755935244262218475341796875</LongitudeDegrees>
            </Position>
            <AltitudeMeters>1936.4000244140625</AltitudeMeters>
            <DistanceMeters>7412.8426942612</DistanceMeters>
          </Trackpoint>
          <Trackpoint>
            <Time>2022-07-09T09:27:06.000Z</Time>
            <Position>
              <LatitudeDegrees>42.813415937125682830810546875</LatitudeDegrees>
              <LongitudeDegrees>-0.13760008849203586578369140625</LongitudeDegrees>
            </Position>
            <AltitudeMeters>1936.5999755859375</AltitudeMeters>
            <DistanceMeters>7416.7905939487</DistanceMeters>
          </Trackpoint>
          <Trackpoint>
            <Time>2022-07-09T09:27:12.000Z</Time>
            <Position>
              <LatitudeDegrees>42.8134087286889553070068359375</LatitudeDegrees>
              <LongitudeDegrees>-0.1376712508499622344970703125</LongitudeDegrees>
            </Position>
            <AltitudeMeters>1937</AltitudeMeters>
            <DistanceMeters>7422.656136656</DistanceMeters>
          </Trackpoint>
          <Trackpoint>
            <Time>2022-07-09T09:27:14.000Z</Time>
            <Position>
              <LatitudeDegrees>42.8134023584425449371337890625</LatitudeDegrees>
              <LongitudeDegrees>-0.13769078068435192108154296875</LongitudeDegrees>
            </Position>
            <AltitudeMeters>1937.4000244140625</AltitudeMeters>
            <DistanceMeters>7424.3980051026</DistanceMeters>
          </Trackpoint>
          <Trackpoint>
            <Time>2022-07-09T09:27:18.000Z</Time>
            <Position>
              <LatitudeDegrees>42.81338609755039215087890625</LatitudeDegrees>
              <LongitudeDegrees>-0.13769991695880889892578125</LongitudeDegrees>
            </Position>
            <AltitudeMeters>1937.800048828125</AltitudeMeters>
            <DistanceMeters>7426.3547249119</DistanceMeters>
          </Trackpoint>
          <Trackpoint>
            <Time>2022-07-09T09:27:24.000Z</Time>
            <Position>
              <LatitudeDegrees>42.81335013918578624725341796875</LatitudeDegrees>
              <LongitudeDegrees>-0.1376900263130664825439453125</LongitudeDegrees>
            </Position>
            <AltitudeMeters>1938</AltitudeMeters>
            <DistanceMeters>7430.4364513897</DistanceMeters>
          </Trackpoint>
          <Trackpoint>
            <Time>2022-07-09T09:27:25.000Z</Time>
            <Position>
              <LatitudeDegrees>42.81334276311099529266357421875</LatitudeDegrees>
              <LongitudeDegrees>-0.13768759556114673614501953125</LongitudeDegrees>
            </Position>
            <AltitudeMeters>1938</AltitudeMeters>
            <DistanceMeters>7431.2810673018</DistanceMeters>
          </Trackpoint>
          <Trackpoint>
            <Time>2022-07-09T09:27:31.000Z</Time>
            <Position>
              <LatitudeDegrees>42.8133088164031505584716796875</LatitudeDegrees>
              <LongitudeDegrees>-0.137667395174503326416015625</LongitudeDegrees>
            </Position>
            <AltitudeMeters>1938.199951171875</AltitudeMeters>
            <DistanceMeters>7435.4035184983</DistanceMeters>
          </Trackpoint>
          <Trackpoint>
            <Time>2022-07-09T09:27:32.000Z</Time>
            <Position>
              <LatitudeDegrees>42.8133057989180088043212890625</LatitudeDegrees>
              <LongitudeDegrees>-0.13766907155513763427734375</LongitudeDegrees>
            </Position>
            <AltitudeMeters>1938.4000244140625</AltitudeMeters>
            <DistanceMeters>7435.7715553805</DistanceMeters>
          </Trackpoint>
          <Trackpoint>
            <Time>2022-07-09T09:27:38.000Z</Time>
            <Position>
              <LatitudeDegrees>42.81328274868428707122802734375</LatitudeDegrees>
              <LongitudeDegrees>-0.137683488428592681884765625</LongitudeDegrees>
            </Position>
            <AltitudeMeters>1939.5999755859375</AltitudeMeters>
            <DistanceMeters>7438.5937048138</DistanceMeters>
          </Trackpoint>
          <Trackpoint>
            <Time>2022-07-09T09:27:44.000Z</Time>
            <Position>
              <LatitudeDegrees>42.81324067153036594390869140625</LatitudeDegrees>
              <LongitudeDegrees>-0.137702263891696929931640625</LongitudeDegrees>
            </Position>
            <AltitudeMeters>1939.4000244140625</AltitudeMeters>
            <DistanceMeters>7443.5204527758</DistanceMeters>
          </Trackpoint>
          <Trackpoint>
            <Time>2022-07-09T09:27:50.000Z</Time>
            <Position>
              <LatitudeDegrees>42.8131901286542415618896484375</LatitudeDegrees>
              <LongitudeDegrees>-0.13769530691206455230712890625</LongitudeDegrees>
            </Position>
            <AltitudeMeters>1940</AltitudeMeters>
            <DistanceMeters>7449.1751411569</DistanceMeters>
          </Trackpoint>
          <Trackpoint>
            <Time>2022-07-09T09:27:54.000Z</Time>
            <Position>
              <LatitudeDegrees>42.8131549246609210968017578125</LatitudeDegrees>
              <LongitudeDegrees>-0.13767183758318424224853515625</LongitudeDegrees>
            </Position>
            <AltitudeMeters>1940</AltitudeMeters>
            <DistanceMeters>7453.5360287949</DistanceMeters>
          </Trackpoint>
          <Trackpoint>
            <Time>2022-07-09T09:27:55.000Z</Time>
            <Position>
              <LatitudeDegrees>42.8131465427577495574951171875</LatitudeDegrees>
              <LongitudeDegrees>-0.13766764663159847259521484375</LongitudeDegrees>
            </Position>
            <AltitudeMeters>1940</AltitudeMeters>
            <DistanceMeters>7454.5326773834</DistanceMeters>
          </Trackpoint>
          <Trackpoint>
            <Time>2022-07-09T09:28:01.000Z</Time>
            <Position>
              <LatitudeDegrees>42.81310723163187503814697265625</LatitudeDegrees>
              <LongitudeDegrees>-0.13763629831373691558837890625</LongitudeDegrees>
            </Position>
            <AltitudeMeters>1939.800048828125</AltitudeMeters>
            <DistanceMeters>7459.6003728563</DistanceMeters>
          </Trackpoint>
          <Trackpoint>
            <Time>2022-07-09T09:28:02.000Z</Time>
            <Position>
              <LatitudeDegrees>42.81310371123254299163818359375</LatitudeDegrees>
              <LongitudeDegrees>-0.13763562776148319244384765625</LongitudeDegrees>
            </Position>
            <AltitudeMeters>1939.800048828125</AltitudeMeters>
            <DistanceMeters>7460.0035370611</DistanceMeters>
          </Trackpoint>
          <Trackpoint>
            <Time>2022-07-09T09:28:06.000Z</Time>
            <Position>
              <LatitudeDegrees>42.8130863606929779052734375</LatitudeDegrees>
              <LongitudeDegrees>-0.13762439601123332977294921875</LongitudeDegrees>
            </Position>
            <AltitudeMeters>1939.5999755859375</AltitudeMeters>
            <DistanceMeters>7462.141110143</DistanceMeters>
          </Trackpoint>
          <Trackpoint>
            <Time>2022-07-09T09:28:08.000Z</Time>
            <Position>
              <LatitudeDegrees>42.81307051889598369598388671875</LatitudeDegrees>
              <LongitudeDegrees>-0.13761919923126697540283203125</LongitudeDegrees>
            </Position>
            <AltitudeMeters>1939.5999755859375</AltitudeMeters>
            <DistanceMeters>7463.9541043034</DistanceMeters>
          </Trackpoint>
          <Trackpoint>
            <Time>2022-07-09T09:28:11.000Z</Time>
            <Position>
              <LatitudeDegrees>42.81304252333939075469970703125</LatitudeDegrees>
              <LongitudeDegrees>-0.1376152597367763519287109375</LongitudeDegrees>
            </Position>
            <AltitudeMeters>1939.5999755859375</AltitudeMeters>
            <DistanceMeters>7467.0871049568</DistanceMeters>
          </Trackpoint>
          <Trackpoint>
            <Time>2022-07-09T09:28:14.000Z</Time>
            <Position>
              <LatitudeDegrees>42.813007570803165435791015625</LatitudeDegrees>
              <LongitudeDegrees>-0.137624479830265045166015625</LongitudeDegrees>
            </Position>
            <AltitudeMeters>1939.5999755859375</AltitudeMeters>
            <DistanceMeters>7471.0498442791</DistanceMeters>
          </Trackpoint>
          <Trackpoint>
            <Time>2022-07-09T09:28:20.000Z</Time>
            <Position>
              <LatitudeDegrees>42.812954597175121307373046875</LatitudeDegrees>
              <LongitudeDegrees>-0.1376876793801784515380859375</LongitudeDegrees>
            </Position>
            <AltitudeMeters>1939.5999755859375</AltitudeMeters>
            <DistanceMeters>7478.8853716859</DistanceMeters>
          </Trackpoint>
          <Trackpoint>
            <Time>2022-07-09T09:28:22.000Z</Time>
            <Position>
              <LatitudeDegrees>42.8129544295370578765869140625</LatitudeDegrees>
              <LongitudeDegrees>-0.137713663280010223388671875</LongitudeDegrees>
            </Position>
            <AltitudeMeters>1939.5999755859375</AltitudeMeters>
            <DistanceMeters>7481.0059796339</DistanceMeters>
          </Trackpoint>
          <Trackpoint>
            <Time>2022-07-09T09:28:28.000Z</Time>
            <Position>
              <LatitudeDegrees>42.81293473206460475921630859375</LatitudeDegrees>
              <LongitudeDegrees>-0.137750543653964996337890625</LongitudeDegrees>
            </Position>
            <AltitudeMeters>1939.800048828125</AltitudeMeters>
            <DistanceMeters>7484.7302510281</DistanceMeters>
          </Trackpoint>
          <Trackpoint>
            <Time>2022-07-09T09:28:31.000Z</Time>
            <Position>
              <LatitudeDegrees>42.81290858052670955657958984375</LatitudeDegrees>
              <LongitudeDegrees>-0.13775515370070934295654296875</LongitudeDegrees>
            </Position>
            <AltitudeMeters>1940</AltitudeMeters>
            <DistanceMeters>7487.6653307421</DistanceMeters>
          </Trackpoint>
          <Trackpoint>
            <Time>2022-07-09T09:28:33.000Z</Time>
            <Position>
              <LatitudeDegrees>42.81289265491068363189697265625</LatitudeDegrees>
              <LongitudeDegrees>-0.1377701573073863983154296875</LongitudeDegrees>
            </Position>
            <AltitudeMeters>1939.800048828125</AltitudeMeters>
            <DistanceMeters>7489.819735368</DistanceMeters>
          </Trackpoint>
          <Trackpoint>
            <Time>2022-07-09T09:28:35.000Z</Time>
            <Position>
              <LatitudeDegrees>42.8128746338188648223876953125</LatitudeDegrees>
              <LongitudeDegrees>-0.13778750784695148468017578125</LongitudeDegrees>
            </Position>
            <AltitudeMeters>1939.5999755859375</AltitudeMeters>
            <DistanceMeters>7492.2757669363</DistanceMeters>
          </Trackpoint>
          <Trackpoint>
            <Time>2022-07-09T09:28:36.000Z</Time>
            <Position>
              <LatitudeDegrees>42.81286667101085186004638671875</LatitudeDegrees>
              <LongitudeDegrees>-0.13779538683593273162841796875</LongitudeDegrees>
            </Position>
            <AltitudeMeters>1939.5999755859375</AltitudeMeters>
            <DistanceMeters>7493.3757806833</DistanceMeters>
          </Trackpoint>
          <Trackpoint>
            <Time>2022-07-09T09:28:41.000Z</Time>
            <Position>
              <LatitudeDegrees>42.81283666379749774932861328125</LatitudeDegrees>
              <LongitudeDegrees>-0.137787759304046630859375</LongitudeDegrees>
            </Position>
            <AltitudeMeters>1939.800048828125</AltitudeMeters>
            <DistanceMeters>7496.7742314733</DistanceMeters>
          </Trackpoint>
          <Trackpoint>
            <Time>2022-07-09T09:28:47.000Z</Time>
            <Position>
              <LatitudeDegrees>42.81283490359783172607421875</LatitudeDegrees>
              <LongitudeDegrees>-0.1377260684967041015625</LongitudeDegrees>
            </Position>
            <AltitudeMeters>1939.800048828125</AltitudeMeters>
            <DistanceMeters>7501.8151277342</DistanceMeters>
          </Trackpoint>
          <Trackpoint>
            <Time>2022-07-09T09:28:51.000Z</Time>
            <Position>
              <LatitudeDegrees>42.8128206543624401092529296875</LatitudeDegrees>
              <LongitudeDegrees>-0.13769924640655517578125</LongitudeDegrees>
            </Position>
            <AltitudeMeters>1939.800048828125</AltitudeMeters>
            <DistanceMeters>7504.5196354379</DistanceMeters>
          </Trackpoint>
          <Trackpoint>
            <Time>2022-07-09T09:28:52.000Z</Time>
            <Position>
              <LatitudeDegrees>42.81281185336410999298095703125</LatitudeDegrees>
              <LongitudeDegrees>-0.137692205607891082763671875</LongitudeDegrees>
            </Position>
            <AltitudeMeters>1939.800048828125</AltitudeMeters>
            <DistanceMeters>7505.6520094287</DistanceMeters>
          </Trackpoint>
          <Trackpoint>
            <Time>2022-07-09T09:28:53.000Z</Time>
            <Position>
              <LatitudeDegrees>42.8128035552799701690673828125</LatitudeDegrees>
              <LongitudeDegrees>-0.1376863382756710052490234375</LongitudeDegrees>
            </Position>
            <AltitudeMeters>1939.800048828125</AltitudeMeters>
            <DistanceMeters>7506.6929749292</DistanceMeters>
          </Trackpoint>
          <Trackpoint>
            <Time>2022-07-09T09:28:54.000Z</Time>
            <Position>
              <LatitudeDegrees>42.81279542483389377593994140625</LatitudeDegrees>
              <LongitudeDegrees>-0.1376792974770069122314453125</LongitudeDegrees>
            </Position>
            <AltitudeMeters>1939.800048828125</AltitudeMeters>
            <DistanceMeters>7507.7680794752</DistanceMeters>
          </Trackpoint>
          <Trackpoint>
            <Time>2022-07-09T09:28:56.000Z</Time>
            <Position>
              <LatitudeDegrees>42.812779247760772705078125</LatitudeDegrees>
              <LongitudeDegrees>-0.13766278512775897979736328125</LongitudeDegrees>
            </Position>
            <AltitudeMeters>1939.800048828125</AltitudeMeters>
            <DistanceMeters>7510.0168219702</DistanceMeters>
          </Trackpoint>
          <Trackpoint>
            <Time>2022-07-09T09:29:00.000Z</Time>
            <Position>
              <LatitudeDegrees>42.812767513096332550048828125</LatitudeDegrees>
              <LongitudeDegrees>-0.13763797469437122344970703125</LongitudeDegrees>
            </Position>
            <AltitudeMeters>1939.5999755859375</AltitudeMeters>
            <DistanceMeters>7512.4245821487</DistanceMeters>
          </Trackpoint>
          <Trackpoint>
            <Time>2022-07-09T09:29:05.000Z</Time>
            <Position>
              <LatitudeDegrees>42.8127403557300567626953125</LatitudeDegrees>
              <LongitudeDegrees>-0.13760914094746112823486328125</LongitudeDegrees>
            </Position>
            <AltitudeMeters>1940.800048828125</AltitudeMeters>
            <DistanceMeters>7516.2564099498</DistanceMeters>
          </Trackpoint>
          <Trackpoint>
            <Time>2022-07-09T09:29:06.000Z</Time>
            <Position>
              <LatitudeDegrees>42.81273029744625091552734375</LatitudeDegrees>
              <LongitudeDegrees>-0.13760427944362163543701171875</LongitudeDegrees>
            </Position>
            <AltitudeMeters>1941</AltitudeMeters>
            <DistanceMeters>7517.4432932319</DistanceMeters>
          </Trackpoint>
          <Trackpoint>
            <Time>2022-07-09T09:29:12.000Z</Time>
            <Position>
              <LatitudeDegrees>42.81267573125660419464111328125</LatitudeDegrees>
              <LongitudeDegrees>-0.13759933412075042724609375</LongitudeDegrees>
            </Position>
            <AltitudeMeters>1941</AltitudeMeters>
            <DistanceMeters>7523.5301975066</DistanceMeters>
          </Trackpoint>
          <Trackpoint>
            <Time>2022-07-09T09:29:13.000Z</Time>
            <Position>
              <LatitudeDegrees>42.812670283019542694091796875</LatitudeDegrees>
              <LongitudeDegrees>-0.137598998844623565673828125</LongitudeDegrees>
            </Position>
            <AltitudeMeters>1940.800048828125</AltitudeMeters>
            <DistanceMeters>7524.1311992186</DistanceMeters>
          </Trackpoint>
          <Trackpoint>
            <Time>2022-07-09T09:29:19.000Z</Time>
            <Position>
              <LatitudeDegrees>42.81263683922588825225830078125</LatitudeDegrees>
              <LongitudeDegrees>-0.137595646083354949951171875</LongitudeDegrees>
            </Position>
            <AltitudeMeters>1941</AltitudeMeters>
            <DistanceMeters>7527.8627374907</DistanceMeters>
          </Trackpoint>
          <Trackpoint>
            <Time>2022-07-09T09:29:20.000Z</Time>
            <Position>
              <LatitudeDegrees>42.81262594275176525115966796875</LatitudeDegrees>
              <LongitudeDegrees>-0.13759371824562549591064453125</LongitudeDegrees>
            </Position>
            <AltitudeMeters>1941</AltitudeMeters>
            <DistanceMeters>7529.0870710603</DistanceMeters>
          </Trackpoint>
          <Trackpoint>
            <Time>2022-07-09T09:29:26.000Z</Time>
            <Position>
              <LatitudeDegrees>42.81258068047463893890380859375</LatitudeDegrees>
              <LongitudeDegrees>-0.1376005075871944427490234375</LongitudeDegrees>
            </Position>
            <AltitudeMeters>1940.4000244140625</AltitudeMeters>
            <DistanceMeters>7534.1556574</DistanceMeters>
          </Trackpoint>
          <Trackpoint>
            <Time>2022-07-09T09:29:27.000Z</Time>
            <Position>
              <LatitudeDegrees>42.81257481314241886138916015625</LatitudeDegrees>
              <LongitudeDegrees>-0.13760008849203586578369140625</LongitudeDegrees>
            </Position>
            <AltitudeMeters>1940.4000244140625</AltitudeMeters>
            <DistanceMeters>7534.8140217895</DistanceMeters>
          </Trackpoint>
          <Trackpoint>
            <Time>2022-07-09T09:29:33.000Z</Time>
            <Position>
              <LatitudeDegrees>42.81253508292138576507568359375</LatitudeDegrees>
              <LongitudeDegrees>-0.13760528527200222015380859375</LongitudeDegrees>
            </Position>
            <AltitudeMeters>1940.5999755859375</AltitudeMeters>
            <DistanceMeters>7539.2569653078</DistanceMeters>
          </Trackpoint>
          <Trackpoint>
            <Time>2022-07-09T09:29:34.000Z</Time>
            <Position>
              <LatitudeDegrees>42.8125286288559436798095703125</LatitudeDegrees>
              <LongitudeDegrees>-0.13761031441390514373779296875</LongitudeDegrees>
            </Position>
            <AltitudeMeters>1940.5999755859375</AltitudeMeters>
            <DistanceMeters>7540.0908213422</DistanceMeters>
          </Trackpoint>
          <Trackpoint>
            <Time>2022-07-09T09:29:40.000Z</Time>
            <Position>
              <LatitudeDegrees>42.8124598972499370574951171875</LatitudeDegrees>
              <LongitudeDegrees>-0.1376420818269252777099609375</LongitudeDegrees>
            </Position>
            <AltitudeMeters>1940.5999755859375</AltitudeMeters>
            <DistanceMeters>7548.168651025</DistanceMeters>
          </Trackpoint>
          <Trackpoint>
            <Time>2022-07-09T09:29:42.000Z</Time>
            <Position>
              <LatitudeDegrees>42.81244439072906970977783203125</LatitudeDegrees>
              <LongitudeDegrees>-0.13762875460088253021240234375</LongitudeDegrees>
            </Position>
            <AltitudeMeters>1940.800048828125</AltitudeMeters>
            <DistanceMeters>7550.2089611094</DistanceMeters>
          </Trackpoint>
          <Trackpoint>
            <Time>2022-07-09T09:29:47.000Z</Time>
            <Position>
              <LatitudeDegrees>42.81240801326930522918701171875</LatitudeDegrees>
              <LongitudeDegrees>-0.137573517858982086181640625</LongitudeDegrees>
            </Position>
            <AltitudeMeters>1941.5999755859375</AltitudeMeters>
            <DistanceMeters>7556.2705929896</DistanceMeters>
          </Trackpoint>
          <Trackpoint>
            <Time>2022-07-09T09:29:48.000Z</Time>
            <Position>
              <LatitudeDegrees>42.81240440905094146728515625</LatitudeDegrees>
              <LongitudeDegrees>-0.13756572268903255462646484375</LongitudeDegrees>
            </Position>
            <AltitudeMeters>1942.199951171875</AltitudeMeters>
            <DistanceMeters>7557.024844152</DistanceMeters>
          </Trackpoint>
          <Trackpoint>
            <Time>2022-07-09T09:29:53.000Z</Time>
            <Position>
              <LatitudeDegrees>42.81236828304827213287353515625</LatitudeDegrees>
              <LongitudeDegrees>-0.13750688172876834869384765625</LongitudeDegrees>
            </Position>
            <AltitudeMeters>1943.199951171875</AltitudeMeters>
            <DistanceMeters>7563.2894041705</DistanceMeters>
          </Trackpoint>
          <Trackpoint>
            <Time>2022-07-09T09:29:56.000Z</Time>
            <Position>
              <LatitudeDegrees>42.81234942376613616943359375</LatitudeDegrees>
              <LongitudeDegrees>-0.13749112375080585479736328125</LongitudeDegrees>
            </Position>
            <AltitudeMeters>1943</AltitudeMeters>
            <DistanceMeters>7565.7527781515</DistanceMeters>
          </Trackpoint>
          <Trackpoint>
            <Time>2022-07-09T09:30:01.000Z</Time>
            <Position>
              <LatitudeDegrees>42.81231044791638851165771484375</LatitudeDegrees>
              <LongitudeDegrees>-0.1374912075698375701904296875</LongitudeDegrees>
            </Position>
            <AltitudeMeters>1943.199951171875</AltitudeMeters>
            <DistanceMeters>7570.0908283252</DistanceMeters>
          </Trackpoint>
          <Trackpoint>
            <Time>2022-07-09T09:30:02.000Z</Time>
            <Position>
              <LatitudeDegrees>42.81230307184159755706787109375</LatitudeDegrees>
              <LongitudeDegrees>-0.13749414123594760894775390625</LongitudeDegrees>
            </Position>
            <AltitudeMeters>1943.199951171875</AltitudeMeters>
            <DistanceMeters>7570.9407730972</DistanceMeters>
          </Trackpoint>
          <Trackpoint>
            <Time>2022-07-09T09:30:04.000Z</Time>
            <Position>
              <LatitudeDegrees>42.812285721302032470703125</LatitudeDegrees>
              <LongitudeDegrees>-0.13749782927334308624267578125</LongitudeDegrees>
            </Position>
            <AltitudeMeters>1943.199951171875</AltitudeMeters>
            <DistanceMeters>7572.8928725463</DistanceMeters>
          </Trackpoint>
          <Trackpoint>
            <Time>2022-07-09T09:30:08.000Z</Time>
            <Position>
              <LatitudeDegrees>42.81225965358316898345947265625</LatitudeDegrees>
              <LongitudeDegrees>-0.13751191087067127227783203125</LongitudeDegrees>
            </Position>
            <AltitudeMeters>1943.800048828125</AltitudeMeters>
            <DistanceMeters>7576.0128761371</DistanceMeters>
          </Trackpoint>
          <Trackpoint>
            <Time>2022-07-09T09:30:11.000Z</Time>
            <Position>
              <LatitudeDegrees>42.812245823442935943603515625</LatitudeDegrees>
              <LongitudeDegrees>-0.13750956393778324127197265625</LongitudeDegrees>
            </Position>
            <AltitudeMeters>1944</AltitudeMeters>
            <DistanceMeters>7577.5627149462</DistanceMeters>
          </Trackpoint>
          <Trackpoint>
            <Time>2022-07-09T09:30:12.000Z</Time>
            <Position>
              <LatitudeDegrees>42.8122387826442718505859375</LatitudeDegrees>
              <LongitudeDegrees>-0.1375103183090686798095703125</LongitudeDegrees>
            </Position>
            <AltitudeMeters>1943.800048828125</AltitudeMeters>
            <DistanceMeters>7578.3463253074</DistanceMeters>
          </Trackpoint>
          <Trackpoint>
            <Time>2022-07-09T09:30:13.000Z</Time>
            <Position>
              <LatitudeDegrees>42.81223031692206859588623046875</LatitudeDegrees>
              <LongitudeDegrees>-0.1375128328800201416015625</LongitudeDegrees>
            </Position>
            <AltitudeMeters>1943.800048828125</AltitudeMeters>
            <DistanceMeters>7579.3060480785</DistanceMeters>
          </Trackpoint>
          <Trackpoint>
            <Time>2022-07-09T09:30:14.000Z</Time>
            <Position>
              <LatitudeDegrees>42.81222227029502391815185546875</LatitudeDegrees>
              <LongitudeDegrees>-0.1375119946897029876708984375</LongitudeDegrees>
            </Position>
            <AltitudeMeters>1943.800048828125</AltitudeMeters>
            <DistanceMeters>7580.2075506464</DistanceMeters>
          </Trackpoint>
          <Trackpoint>
            <Time>2022-07-09T09:30:19.000Z</Time>
            <Position>
              <LatitudeDegrees>42.8121792711317539215087890625</LatitudeDegrees>
              <LongitudeDegrees>-0.13748534023761749267578125</LongitudeDegrees>
            </Position>
            <AltitudeMeters>1942.800048828125</AltitudeMeters>
            <DistanceMeters>7585.4658863214</DistanceMeters>
          </Trackpoint>
          <Trackpoint>
            <Time>2022-07-09T09:30:21.000Z</Time>
            <Position>
              <LatitudeDegrees>42.81216393224895000457763671875</LatitudeDegrees>
              <LongitudeDegrees>-0.137491039931774139404296875</LongitudeDegrees>
            </Position>
            <AltitudeMeters>1942.5999755859375</AltitudeMeters>
            <DistanceMeters>7587.236037876</DistanceMeters>
          </Trackpoint>
          <Trackpoint>
            <Time>2022-07-09T09:30:26.000Z</Time>
            <Position>
              <LatitudeDegrees>42.8121221065521240234375</LatitudeDegrees>
              <LongitudeDegrees>-0.13752800412476062774658203125</LongitudeDegrees>
            </Position>
            <AltitudeMeters>1942.5999755859375</AltitudeMeters>
            <DistanceMeters>7592.7835148269</DistanceMeters>
          </Trackpoint>
          <Trackpoint>
            <Time>2022-07-09T09:30:27.000Z</Time>
            <Position>
              <LatitudeDegrees>42.81211481429636478424072265625</LatitudeDegrees>
              <LongitudeDegrees>-0.137538649141788482666015625</LongitudeDegrees>
            </Position>
            <AltitudeMeters>1942.5999755859375</AltitudeMeters>
            <DistanceMeters>7593.9703981089</DistanceMeters>
          </Trackpoint>
          <Trackpoint>
            <Time>2022-07-09T09:30:31.000Z</Time>
            <Position>
              <LatitudeDegrees>42.8120800293982028961181640625</LatitudeDegrees>
              <LongitudeDegrees>-0.137560777366161346435546875</LongitudeDegrees>
            </Position>
            <AltitudeMeters>1942.4000244140625</AltitudeMeters>
            <DistanceMeters>7598.2434315244</DistanceMeters>
          </Trackpoint>
          <Trackpoint>
            <Time>2022-07-09T09:30:32.000Z</Time>
            <Position>
              <LatitudeDegrees>42.81207625754177570343017578125</LatitudeDegrees>
              <LongitudeDegrees>-0.1375606097280979156494140625</LongitudeDegrees>
            </Position>
            <AltitudeMeters>1942.5999755859375</AltitudeMeters>
            <DistanceMeters>7598.6684039104</DistanceMeters>
          </Trackpoint>
          <Trackpoint>
            <Time>2022-07-09T09:30:33.000Z</Time>
            <Position>
              <LatitudeDegrees>42.8120699711143970489501953125</LatitudeDegrees>
              <LongitudeDegrees>-0.137556754052639007568359375</LongitudeDegrees>
            </Position>
            <AltitudeMeters>1942.800048828125</AltitudeMeters>
            <DistanceMeters>7599.4286176254</DistanceMeters>
          </Trackpoint>
          <Trackpoint>
            <Time>2022-07-09T09:30:38.000Z</Time>
            <Position>
              <LatitudeDegrees>42.8120193444192409515380859375</LatitudeDegrees>
              <LongitudeDegrees>-0.1375287584960460662841796875</LongitudeDegrees>
            </Position>
            <AltitudeMeters>1942.800048828125</AltitudeMeters>
            <DistanceMeters>7605.5103273451</DistanceMeters>
          </Trackpoint>
          <Trackpoint>
            <Time>2022-07-09T09:30:39.000Z</Time>
            <Position>
              <LatitudeDegrees>42.8120079450309276580810546875</LatitudeDegrees>
              <LongitudeDegrees>-0.1375257410109043121337890625</LongitudeDegrees>
            </Position>
            <AltitudeMeters>1943</AltitudeMeters>
            <DistanceMeters>7606.8028303981</DistanceMeters>
          </Trackpoint>
          <Trackpoint>
            <Time>2022-07-09T09:30:43.000Z</Time>
            <Position>
              <LatitudeDegrees>42.811978273093700408935546875</LatitudeDegrees>
              <LongitudeDegrees>-0.13753588311374187469482421875</LongitudeDegrees>
            </Position>
            <AltitudeMeters>1943.199951171875</AltitudeMeters>
            <DistanceMeters>7610.2065912707</DistanceMeters>
          </Trackpoint>
          <Trackpoint>
            <Time>2022-07-09T09:30:47.000Z</Time>
            <Position>
              <LatitudeDegrees>42.8119593299925327301025390625</LatitudeDegrees>
              <LongitudeDegrees>-0.1375528983771800994873046875</LongitudeDegrees>
            </Position>
            <AltitudeMeters>1943.199951171875</AltitudeMeters>
            <DistanceMeters>7612.7315138377</DistanceMeters>
          </Trackpoint>
          <Trackpoint>
            <Time>2022-07-09T09:30:50.000Z</Time>
            <Position>
              <LatitudeDegrees>42.81195136718451976776123046875</LatitudeDegrees>
              <LongitudeDegrees>-0.13757645152509212493896484375</LongitudeDegrees>
            </Position>
            <AltitudeMeters>1943.4000244140625</AltitudeMeters>
            <DistanceMeters>7614.8521217857</DistanceMeters>
          </Trackpoint>
          <Trackpoint>
            <Time>2022-07-09T09:30:56.000Z</Time>
            <Position>
              <LatitudeDegrees>42.81194097362458705902099609375</LatitudeDegrees>
              <LongitudeDegrees>-0.13762858696281909942626953125</LongitudeDegrees>
            </Position>
            <AltitudeMeters>1943.5999755859375</AltitudeMeters>
            <DistanceMeters>7619.2644731784</DistanceMeters>
          </Trackpoint>
          <Trackpoint>
            <Time>2022-07-09T09:30:58.000Z</Time>
            <Position>
              <LatitudeDegrees>42.81192504800856113433837890625</LatitudeDegrees>
              <LongitudeDegrees>-0.1376296766102313995361328125</LongitudeDegrees>
            </Position>
            <AltitudeMeters>1943.5999755859375</AltitudeMeters>
            <DistanceMeters>7621.0422602173</DistanceMeters>
          </Trackpoint>
          <Trackpoint>
            <Time>2022-07-09T09:31:03.000Z</Time>
            <Position>
              <LatitudeDegrees>42.81186486594378948211669921875</LatitudeDegrees>
              <LongitudeDegrees>-0.137632191181182861328125</LongitudeDegrees>
            </Position>
            <AltitudeMeters>1944</AltitudeMeters>
            <DistanceMeters>7627.7441704101</DistanceMeters>
          </Trackpoint>
          <Trackpoint>
            <Time>2022-07-09T09:31:04.000Z</Time>
            <Position>
              <LatitudeDegrees>42.81185246072709560394287109375</LatitudeDegrees>
              <LongitudeDegrees>-0.13763478957116603851318359375</LongitudeDegrees>
            </Position>
            <AltitudeMeters>1944.199951171875</AltitudeMeters>
            <DistanceMeters>7629.1407721829</DistanceMeters>
          </Trackpoint>
          <Trackpoint>
            <Time>2022-07-09T09:31:05.000Z</Time>
            <Position>
              <LatitudeDegrees>42.81184114515781402587890625</LatitudeDegrees>
              <LongitudeDegrees>-0.13763629831373691558837890625</LongitudeDegrees>
            </Position>
            <AltitudeMeters>1944.199951171875</AltitudeMeters>
            <DistanceMeters>7630.4085866831</DistanceMeters>
          </Trackpoint>
          <Trackpoint>
            <Time>2022-07-09T09:31:08.000Z</Time>
            <Position>
              <LatitudeDegrees>42.81180703081190586090087890625</LatitudeDegrees>
              <LongitudeDegrees>-0.13763864524662494659423828125</LongitudeDegrees>
            </Position>
            <AltitudeMeters>1944.4000244140625</AltitudeMeters>
            <DistanceMeters>7634.2096552579</DistanceMeters>
          </Trackpoint>
          <Trackpoint>
            <Time>2022-07-09T09:31:11.000Z</Time>
            <Position>
              <LatitudeDegrees>42.8117769397795200347900390625</LatitudeDegrees>
              <LongitudeDegrees>-0.13765054754912853240966796875</LongitudeDegrees>
            </Position>
            <AltitudeMeters>1944.5999755859375</AltitudeMeters>
            <DistanceMeters>7637.6959832536</DistanceMeters>
          </Trackpoint>
          <Trackpoint>
            <Time>2022-07-09T09:31:15.000Z</Time>
            <Position>
              <LatitudeDegrees>42.81173729337751865386962890625</LatitudeDegrees>
              <LongitudeDegrees>-0.13764903880655765533447265625</LongitudeDegrees>
            </Position>
            <AltitudeMeters>1945.4000244140625</AltitudeMeters>
            <DistanceMeters>7642.111403397</DistanceMeters>
          </Trackpoint>
          <Trackpoint>
            <Time>2022-07-09T09:31:16.000Z</Time>
            <Position>
              <LatitudeDegrees>42.81173159368336200714111328125</LatitudeDegrees>
              <LongitudeDegrees>-0.13764099217951297760009765625</LongitudeDegrees>
            </Position>
            <AltitudeMeters>1945.5999755859375</AltitudeMeters>
            <DistanceMeters>7643.0228676217</DistanceMeters>
          </Trackpoint>
          <Trackpoint>
            <Time>2022-07-09T09:31:17.000Z</Time>
            <Position>
              <LatitudeDegrees>42.8117243014276027679443359375</LatitudeDegrees>
              <LongitudeDegrees>-0.137629173696041107177734375</LongitudeDegrees>
            </Position>
            <AltitudeMeters>1945.800048828125</AltitudeMeters>
            <DistanceMeters>7644.2799528923</DistanceMeters>
          </Trackpoint>
          <Trackpoint>
            <Time>2022-07-09T09:31:20.000Z</Time>
            <Position>
              <LatitudeDegrees>42.81170007772743701934814453125</LatitudeDegrees>
              <LongitudeDegrees>-0.137617774307727813720703125</LongitudeDegrees>
            </Position>
            <AltitudeMeters>1946.199951171875</AltitudeMeters>
            <DistanceMeters>7647.1307543234</DistanceMeters>
          </Trackpoint>
          <Trackpoint>
            <Time>2022-07-09T09:31:22.000Z</Time>
            <Position>
              <LatitudeDegrees>42.81167610548436641693115234375</LatitudeDegrees>
              <LongitudeDegrees>-0.13761752285063266754150390625</LongitudeDegrees>
            </Position>
            <AltitudeMeters>1946.4000244140625</AltitudeMeters>
            <DistanceMeters>7649.7982813126</DistanceMeters>
          </Trackpoint>
          <Trackpoint>
            <Time>2022-07-09T09:31:24.000Z</Time>
            <Position>
              <LatitudeDegrees>42.8116460144519805908203125</LatitudeDegrees>
              <LongitudeDegrees>-0.13761232607066631317138671875</LongitudeDegrees>
            </Position>
            <AltitudeMeters>1946.4000244140625</AltitudeMeters>
            <DistanceMeters>7653.1740710679</DistanceMeters>
          </Trackpoint>
          <Trackpoint>
            <Time>2022-07-09T09:31:26.000Z</Time>
            <Position>
              <LatitudeDegrees>42.81161307357251644134521484375</LatitudeDegrees>
              <LongitudeDegrees>-0.13760729692876338958740234375</LongitudeDegrees>
            </Position>
            <AltitudeMeters>1946.5999755859375</AltitudeMeters>
            <DistanceMeters>7656.8642411558</DistanceMeters>
          </Trackpoint>
          <Trackpoint>
            <Time>2022-07-09T09:31:31.000Z</Time>
            <Position>
              <LatitudeDegrees>42.8115576691925525665283203125</LatitudeDegrees>
              <LongitudeDegrees>-0.1375906169414520263671875</LongitudeDegrees>
            </Position>
            <AltitudeMeters>1946.5999755859375</AltitudeMeters>
            <DistanceMeters>7663.1804803635</DistanceMeters>
          </Trackpoint>
          <Trackpoint>
            <Time>2022-07-09T09:31:35.000Z</Time>
            <Position>
              <LatitudeDegrees>42.81152154318988323211669921875</LatitudeDegrees>
              <LongitudeDegrees>-0.13759237714111804962158203125</LongitudeDegrees>
            </Position>
            <AltitudeMeters>1946.5999755859375</AltitudeMeters>
            <DistanceMeters>7667.2042754706</DistanceMeters>
          </Trackpoint>
          <Trackpoint>
            <Time>2022-07-09T09:31:37.000Z</Time>
            <Position>
              <LatitudeDegrees>42.81149874441325664520263671875</LatitudeDegrees>
              <LongitudeDegrees>-0.1375844143331050872802734375</LongitudeDegrees>
            </Position>
            <AltitudeMeters>1946.5999755859375</AltitudeMeters>
            <DistanceMeters>7669.8239811979</DistanceMeters>
          </Trackpoint>
          <Trackpoint>
            <Time>2022-07-09T09:31:40.000Z</Time>
            <Position>
              <LatitudeDegrees>42.8114691562950611114501953125</LatitudeDegrees>
              <LongitudeDegrees>-0.13754434883594512939453125</LongitudeDegrees>
            </Position>
            <AltitudeMeters>1946.800048828125</AltitudeMeters>
            <DistanceMeters>7674.4657225086</DistanceMeters>
          </Trackpoint>
          <Trackpoint>
            <Time>2022-07-09T09:31:44.000Z</Time>
            <Position>
              <LatitudeDegrees>42.8114416636526584625244140625</LatitudeDegrees>
              <LongitudeDegrees>-0.13750386424362659454345703125</LongitudeDegrees>
            </Position>
            <AltitudeMeters>1947.5999755859375</AltitudeMeters>
            <DistanceMeters>7678.9712315637</DistanceMeters>
          </Trackpoint>
          <Trackpoint>
            <Time>2022-07-09T09:31:46.000Z</Time>
            <Position>
              <LatitudeDegrees>42.81142498366534709930419921875</LatitudeDegrees>
              <LongitudeDegrees>-0.137490369379520416259765625</LongitudeDegrees>
            </Position>
            <AltitudeMeters>1948.199951171875</AltitudeMeters>
            <DistanceMeters>7681.1319142155</DistanceMeters>
          </Trackpoint>
          <Trackpoint>
            <Time>2022-07-09T09:31:47.000Z</Time>
            <Position>
              <LatitudeDegrees>42.8114180266857147216796875</LatitudeDegrees>
              <LongitudeDegrees>-0.13748668134212493896484375</LongitudeDegrees>
            </Position>
            <AltitudeMeters>1948.4000244140625</AltitudeMeters>
            <DistanceMeters>7681.9711674327</DistanceMeters>
          </Trackpoint>
          <Trackpoint>
            <Time>2022-07-09T09:31:48.000Z</Time>
            <Position>
              <LatitudeDegrees>42.81140972860157489776611328125</LatitudeDegrees>
              <LongitudeDegrees>-0.13748894445598125457763671875</LongitudeDegrees>
            </Position>
            <AltitudeMeters>1948.5999755859375</AltitudeMeters>
            <DistanceMeters>7682.9166713026</DistanceMeters>
          </Trackpoint>
          <Trackpoint>
            <Time>2022-07-09T09:31:53.000Z</Time>
            <Position>
              <LatitudeDegrees>42.8113625384867191314697265625</LatitudeDegrees>
              <LongitudeDegrees>-0.1375235617160797119140625</LongitudeDegrees>
            </Position>
            <AltitudeMeters>1949.199951171875</AltitudeMeters>
            <DistanceMeters>7688.8814429821</DistanceMeters>
          </Trackpoint>
          <Trackpoint>
            <Time>2022-07-09T09:31:56.000Z</Time>
            <Position>
              <LatitudeDegrees>42.81134636141359806060791015625</LatitudeDegrees>
              <LongitudeDegrees>-0.1375277526676654815673828125</LongitudeDegrees>
            </Position>
            <AltitudeMeters>1949.199951171875</AltitudeMeters>
            <DistanceMeters>7690.7142518748</DistanceMeters>
          </Trackpoint>
          <Trackpoint>
            <Time>2022-07-09T09:31:59.000Z</Time>
            <Position>
              <LatitudeDegrees>42.81132079660892486572265625</LatitudeDegrees>
              <LongitudeDegrees>-0.1375264115631580352783203125</LongitudeDegrees>
            </Position>
            <AltitudeMeters>1949.199951171875</AltitudeMeters>
            <DistanceMeters>7693.5618839871</DistanceMeters>
          </Trackpoint>
          <Trackpoint>
            <Time>2022-07-09T09:32:00.000Z</Time>
            <Position>
              <LatitudeDegrees>42.8113142587244510650634765625</LatitudeDegrees>
              <LongitudeDegrees>-0.13752934522926807403564453125</LongitudeDegrees>
            </Position>
            <AltitudeMeters>1949.199951171875</AltitudeMeters>
            <DistanceMeters>7694.322097702</DistanceMeters>
          </Trackpoint>
          <Trackpoint>
            <Time>2022-07-09T09:32:02.000Z</Time>
            <Position>
              <LatitudeDegrees>42.81129858456552028656005859375</LatitudeDegrees>
              <LongitudeDegrees>-0.13753823004662990570068359375</LongitudeDegrees>
            </Position>
            <AltitudeMeters>1949.199951171875</AltitudeMeters>
            <DistanceMeters>7696.208324125</DistanceMeters>
          </Trackpoint>
          <Trackpoint>
            <Time>2022-07-09T09:32:06.000Z</Time>
            <Position>
              <LatitudeDegrees>42.81126807443797588348388671875</LatitudeDegrees>
              <LongitudeDegrees>-0.13755633495748043060302734375</LongitudeDegrees>
            </Position>
            <AltitudeMeters>1949.4000244140625</AltitudeMeters>
            <DistanceMeters>7699.9131474939</DistanceMeters>
          </Trackpoint>
          <Trackpoint>
            <Time>2022-07-09T09:32:10.000Z</Time>
            <Position>
              <LatitudeDegrees>42.81124242581427097320556640625</LatitudeDegrees>
              <LongitudeDegrees>-0.137560777366161346435546875</LongitudeDegrees>
            </Position>
            <AltitudeMeters>1949.5999755859375</AltitudeMeters>
            <DistanceMeters>7702.7923158071</DistanceMeters>
          </Trackpoint>
          <Trackpoint>
            <Time>2022-07-09T09:32:12.000Z</Time>
            <Position>
              <LatitudeDegrees>42.81123706139624118804931640625</LatitudeDegrees>
              <LongitudeDegrees>-0.13755641877651214599609375</LongitudeDegrees>
            </Position>
            <AltitudeMeters>1949.800048828125</AltitudeMeters>
            <DistanceMeters>7703.4841207301</DistanceMeters>
          </Trackpoint>
          <Trackpoint>
            <Time>2022-07-09T09:32:14.000Z</Time>
            <Position>
              <LatitudeDegrees>42.81122616492211818695068359375</LatitudeDegrees>
              <LongitudeDegrees>-0.13754879124462604522705078125</LongitudeDegrees>
            </Position>
            <AltitudeMeters>1950.199951171875</AltitudeMeters>
            <DistanceMeters>7704.8480106625</DistanceMeters>
          </Trackpoint>
          <Trackpoint>
            <Time>2022-07-09T09:32:18.000Z</Time>
            <Position>
              <LatitudeDegrees>42.81120051629841327667236328125</LatitudeDegrees>
              <LongitudeDegrees>-0.1375451870262622833251953125</LongitudeDegrees>
            </Position>
            <AltitudeMeters>1950.5999755859375</AltitudeMeters>
            <DistanceMeters>7707.7193273976</DistanceMeters>
          </Trackpoint>
          <Trackpoint>
            <Time>2022-07-09T09:32:20.000Z</Time>
            <Position>
              <LatitudeDegrees>42.81119448132812976837158203125</LatitudeDegrees>
              <LongitudeDegrees>-0.13754694722592830657958984375</LongitudeDegrees>
            </Position>
            <AltitudeMeters>1950.5999755859375</AltitudeMeters>
            <DistanceMeters>7708.40457478</DistanceMeters>
          </Trackpoint>
          <Trackpoint>
            <Time>2022-07-09T09:32:22.000Z</Time>
            <Position>
              <LatitudeDegrees>42.8111835010349750518798828125</LatitudeDegrees>
              <LongitudeDegrees>-0.1375450193881988525390625</LongitudeDegrees>
            </Position>
            <AltitudeMeters>1951</AltitudeMeters>
            <DistanceMeters>7709.6399220668</DistanceMeters>
          </Trackpoint>
          <Trackpoint>
            <Time>2022-07-09T09:32:25.000Z</Time>
            <Position>
              <LatitudeDegrees>42.81116522848606109619140625</LatitudeDegrees>
              <LongitudeDegrees>-0.137527249753475189208984375</LongitudeDegrees>
            </Position>
            <AltitudeMeters>1951.199951171875</AltitudeMeters>
            <DistanceMeters>7712.1396846353</DistanceMeters>
          </Trackpoint>
          <Trackpoint>
            <Time>2022-07-09T09:32:27.000Z</Time>
            <Position>
              <LatitudeDegrees>42.81115374527871608734130859375</LatitudeDegrees>
              <LongitudeDegrees>-0.13752146624028682708740234375</LongitudeDegrees>
            </Position>
            <AltitudeMeters>1951.5999755859375</AltitudeMeters>
            <DistanceMeters>7713.5035745677</DistanceMeters>
          </Trackpoint>
          <Trackpoint>
            <Time>2022-07-09T09:32:32.000Z</Time>
            <Position>
              <LatitudeDegrees>42.81112499535083770751953125</LatitudeDegrees>
              <LongitudeDegrees>-0.13751685619354248046875</LongitudeDegrees>
            </Position>
            <AltitudeMeters>1952.4000244140625</AltitudeMeters>
            <DistanceMeters>7716.726087238</DistanceMeters>
          </Trackpoint>
          <Trackpoint>
            <Time>2022-07-09T09:32:35.000Z</Time>
            <Position>
              <LatitudeDegrees>42.81110144220292568206787109375</LatitudeDegrees>
              <LongitudeDegrees>-0.13753336854279041290283203125</LongitudeDegrees>
            </Position>
            <AltitudeMeters>1952.5999755859375</AltitudeMeters>
            <DistanceMeters>7719.6734476739</DistanceMeters>
          </Trackpoint>
          <Trackpoint>
            <Time>2022-07-09T09:32:39.000Z</Time>
            <Position>
              <LatitudeDegrees>42.8110678307712078094482421875</LatitudeDegrees>
              <LongitudeDegrees>-0.13753739185631275177001953125</LongitudeDegrees>
            </Position>
            <AltitudeMeters>1953</AltitudeMeters>
            <DistanceMeters>7723.4291073237</DistanceMeters>
          </Trackpoint>
          <Trackpoint>
            <Time>2022-07-09T09:32:42.000Z</Time>
            <Position>
              <LatitudeDegrees>42.8110532462596893310546875</LatitudeDegrees>
              <LongitudeDegrees>-0.13755968771874904632568359375</LongitudeDegrees>
            </Position>
            <AltitudeMeters>1953.4000244140625</AltitudeMeters>
            <DistanceMeters>7725.866686102</DistanceMeters>
          </Trackpoint>
          <Trackpoint>
            <Time>2022-07-09T09:32:44.000Z</Time>
            <Position>
              <LatitudeDegrees>42.81103916466236114501953125</LatitudeDegrees>
              <LongitudeDegrees>-0.13757678680121898651123046875</LongitudeDegrees>
            </Position>
            <AltitudeMeters>1953.800048828125</AltitudeMeters>
            <DistanceMeters>7727.965894835</DistanceMeters>
          </Trackpoint>
          <Trackpoint>
            <Time>2022-07-09T09:32:45.000Z</Time>
            <Position>
              <LatitudeDegrees>42.81103312969207763671875</LatitudeDegrees>
              <LongitudeDegrees>-0.13758483342826366424560546875</LongitudeDegrees>
            </Position>
            <AltitudeMeters>1954.199951171875</AltitudeMeters>
            <DistanceMeters>7728.9066113127</DistanceMeters>
          </Trackpoint>
          <Trackpoint>
            <Time>2022-07-09T09:32:50.000Z</Time>
            <Position>
              <LatitudeDegrees>42.81099985353648662567138671875</LatitudeDegrees>
              <LongitudeDegrees>-0.13762657530605792999267578125</LongitudeDegrees>
            </Position>
            <AltitudeMeters>1955</AltitudeMeters>
            <DistanceMeters>7733.9403370206</DistanceMeters>
          </Trackpoint>
          <Trackpoint>
            <Time>2022-07-09T09:32:53.000Z</Time>
            <Position>
              <LatitudeDegrees>42.81098627485334873199462890625</LatitudeDegrees>
              <LongitudeDegrees>-0.13765037991106510162353515625</LongitudeDegrees>
            </Position>
            <AltitudeMeters>1955.4000244140625</AltitudeMeters>
            <DistanceMeters>7736.4037110016</DistanceMeters>
          </Trackpoint>
          <Trackpoint>
            <Time>2022-07-09T09:32:57.000Z</Time>
            <Position>
              <LatitudeDegrees>42.81095962040126323699951171875</LatitudeDegrees>
              <LongitudeDegrees>-0.1377000845968723297119140625</LongitudeDegrees>
            </Position>
            <AltitudeMeters>1956.4000244140625</AltitudeMeters>
            <DistanceMeters>7741.4320520842</DistanceMeters>
          </Trackpoint>
          <Trackpoint>
            <Time>2022-07-09T09:32:58.000Z</Time>
            <Position>
              <LatitudeDegrees>42.8109518252313137054443359375</LatitudeDegrees>
              <LongitudeDegrees>-0.13771207071840763092041015625</LongitudeDegrees>
            </Position>
            <AltitudeMeters>1956.4000244140625</AltitudeMeters>
            <DistanceMeters>7742.7419049478</DistanceMeters>
          </Trackpoint>
          <Trackpoint>
            <Time>2022-07-09T09:32:59.000Z</Time>
            <Position>
              <LatitudeDegrees>42.81094335950911045074462890625</LatitudeDegrees>
              <LongitudeDegrees>-0.13772313483059406280517578125</LongitudeDegrees>
            </Position>
            <AltitudeMeters>1956.800048828125</AltitudeMeters>
            <DistanceMeters>7744.0448456109</DistanceMeters>
          </Trackpoint>
          <Trackpoint>
            <Time>2022-07-09T09:33:03.000Z</Time>
            <Position>
              <LatitudeDegrees>42.810923494398593902587890625</LatitudeDegrees>
              <LongitudeDegrees>-0.1377607695758342742919921875</LongitudeDegrees>
            </Position>
            <AltitudeMeters>1957.5999755859375</AltitudeMeters>
            <DistanceMeters>7747.8316333516</DistanceMeters>
          </Trackpoint>
          <Trackpoint>
            <Time>2022-07-09T09:33:05.000Z</Time>
            <Position>
              <LatitudeDegrees>42.81091318465769290924072265625</LatitudeDegrees>
              <LongitudeDegrees>-0.13777527026832103729248046875</LongitudeDegrees>
            </Position>
            <AltitudeMeters>1957.800048828125</AltitudeMeters>
            <DistanceMeters>7749.480285228</DistanceMeters>
          </Trackpoint>
          <Trackpoint>
            <Time>2022-07-09T09:33:06.000Z</Time>
            <Position>
              <LatitudeDegrees>42.81090865842998027801513671875</LatitudeDegrees>
              <LongitudeDegrees>-0.13778147287666797637939453125</LongitudeDegrees>
            </Position>
            <AltitudeMeters>1958</AltitudeMeters>
            <DistanceMeters>7750.1977211884</DistanceMeters>
          </Trackpoint>
          <Trackpoint>
            <Time>2022-07-09T09:33:10.000Z</Time>
            <Position>
              <LatitudeDegrees>42.8108924813568592071533203125</LatitudeDegrees>
              <LongitudeDegrees>-0.13781315647065639495849609375</LongitudeDegrees>
            </Position>
            <AltitudeMeters>1958.5999755859375</AltitudeMeters>
            <DistanceMeters>7753.3494007547</DistanceMeters>
          </Trackpoint>
          <Trackpoint>
            <Time>2022-07-09T09:33:11.000Z</Time>
            <Position>
              <LatitudeDegrees>42.810886614024639129638671875</LatitudeDegrees>
              <LongitudeDegrees>-0.137818939983844757080078125</LongitudeDegrees>
            </Position>
            <AltitudeMeters>1959</AltitudeMeters>
            <DistanceMeters>7754.1557291642</DistanceMeters>
          </Trackpoint>
          <Trackpoint>
            <Time>2022-07-09T09:33:12.000Z</Time>
            <Position>
              <LatitudeDegrees>42.81088292598724365234375</LatitudeDegrees>
              <LongitudeDegrees>-0.13782329857349395751953125</LongitudeDegrees>
            </Position>
            <AltitudeMeters>1959.199951171875</AltitudeMeters>
            <DistanceMeters>7754.6932814372</DistanceMeters>
          </Trackpoint>
          <Trackpoint>
            <Time>2022-07-09T09:33:15.000Z</Time>
            <Position>
              <LatitudeDegrees>42.81087093986570835113525390625</LatitudeDegrees>
              <LongitudeDegrees>-0.13783243484795093536376953125</LongitudeDegrees>
            </Position>
            <AltitudeMeters>1959.800048828125</AltitudeMeters>
            <DistanceMeters>7756.2225916735</DistanceMeters>
          </Trackpoint>
          <Trackpoint>
            <Time>2022-07-09T09:33:17.000Z</Time>
            <Position>
              <LatitudeDegrees>42.81085836701095104217529296875</LatitudeDegrees>
              <LongitudeDegrees>-0.1378419063985347747802734375</LongitudeDegrees>
            </Position>
            <AltitudeMeters>1960.4000244140625</AltitudeMeters>
            <DistanceMeters>7757.8183615683</DistanceMeters>
          </Trackpoint>
          <Trackpoint>
            <Time>2022-07-09T09:33:19.000Z</Time>
            <Position>
              <LatitudeDegrees>42.8108413517475128173828125</LatitudeDegrees>
              <LongitudeDegrees>-0.137860514223575592041015625</LongitudeDegrees>
            </Position>
            <AltitudeMeters>1960.5999755859375</AltitudeMeters>
            <DistanceMeters>7760.2485199982</DistanceMeters>
          </Trackpoint>
          <Trackpoint>
            <Time>2022-07-09T09:33:20.000Z</Time>
            <Position>
              <LatitudeDegrees>42.810830958187580108642578125</LatitudeDegrees>
              <LongitudeDegrees>-0.1378730870783329010009765625</LongitudeDegrees>
            </Position>
            <AltitudeMeters>1960.5999755859375</AltitudeMeters>
            <DistanceMeters>7761.7983588073</DistanceMeters>
          </Trackpoint>
          <Trackpoint>
            <Time>2022-07-09T09:33:21.000Z</Time>
            <Position>
              <LatitudeDegrees>42.81082064844667911529541015625</LatitudeDegrees>
              <LongitudeDegrees>-0.13788473792374134063720703125</LongitudeDegrees>
            </Position>
            <AltitudeMeters>1961</AltitudeMeters>
            <DistanceMeters>7763.2887945842</DistanceMeters>
          </Trackpoint>
          <Trackpoint>
            <Time>2022-07-09T09:33:26.000Z</Time>
            <Position>
              <LatitudeDegrees>42.8107898868620395660400390625</LatitudeDegrees>
              <LongitudeDegrees>-0.13792379759252071380615234375</LongitudeDegrees>
            </Position>
            <AltitudeMeters>1961.5999755859375</AltitudeMeters>
            <DistanceMeters>7767.9673526206</DistanceMeters>
          </Trackpoint>
          <Trackpoint>
            <Time>2022-07-09T09:33:27.000Z</Time>
            <Position>
              <LatitudeDegrees>42.810783684253692626953125</LatitudeDegrees>
              <LongitudeDegrees>-0.1379290781915187835693359375</LongitudeDegrees>
            </Position>
            <AltitudeMeters>1961.800048828125</AltitudeMeters>
            <DistanceMeters>7768.7736810301</DistanceMeters>
          </Trackpoint>
          <Trackpoint>
            <Time>2022-07-09T09:33:29.000Z</Time>
            <Position>
              <LatitudeDegrees>42.8107707761228084564208984375</LatitudeDegrees>
              <LongitudeDegrees>-0.13794936239719390869140625</LongitudeDegrees>
            </Position>
            <AltitudeMeters>1962</AltitudeMeters>
            <DistanceMeters>7770.9654840934</DistanceMeters>
          </Trackpoint>
          <Trackpoint>
            <Time>2022-07-09T09:33:32.000Z</Time>
            <Position>
              <LatitudeDegrees>42.810748480260372161865234375</LatitudeDegrees>
              <LongitudeDegrees>-0.13798180036246776580810546875</LongitudeDegrees>
            </Position>
            <AltitudeMeters>1963</AltitudeMeters>
            <DistanceMeters>7774.5939619362</DistanceMeters>
          </Trackpoint>
          <Trackpoint>
            <Time>2022-07-09T09:33:33.000Z</Time>
            <Position>
              <LatitudeDegrees>42.8107402659952640533447265625</LatitudeDegrees>
              <LongitudeDegrees>-0.137986242771148681640625</LongitudeDegrees>
            </Position>
            <AltitudeMeters>1963.199951171875</AltitudeMeters>
            <DistanceMeters>7775.5815085203</DistanceMeters>
          </Trackpoint>
          <Trackpoint>
            <Time>2022-07-09T09:33:38.000Z</Time>
            <Position>
              <LatitudeDegrees>42.8107072412967681884765625</LatitudeDegrees>
              <LongitudeDegrees>-0.138025470077991485595703125</LongitudeDegrees>
            </Position>
            <AltitudeMeters>1964.4000244140625</AltitudeMeters>
            <DistanceMeters>7780.4566660768</DistanceMeters>
          </Trackpoint>
          <Trackpoint>
            <Time>2022-07-09T09:33:40.000Z</Time>
            <Position>
              <LatitudeDegrees>42.81069223769009113311767578125</LatitudeDegrees>
              <LongitudeDegrees>-0.1380412280559539794921875</LongitudeDegrees>
            </Position>
            <AltitudeMeters>1964.5999755859375</AltitudeMeters>
            <DistanceMeters>7782.5644605664</DistanceMeters>
          </Trackpoint>
          <Trackpoint>
            <Time>2022-07-09T09:33:41.000Z</Time>
            <Position>
              <LatitudeDegrees>42.81068502925336360931396484375</LatitudeDegrees>
              <LongitudeDegrees>-0.13804583810269832611083984375</LongitudeDegrees>
            </Position>
            <AltitudeMeters>1964.5999755859375</AltitudeMeters>
            <DistanceMeters>7783.4558901638</DistanceMeters>
          </Trackpoint>
          <Trackpoint>
            <Time>2022-07-09T09:33:46.000Z</Time>
            <Position>
              <LatitudeDegrees>42.81066767871379852294921875</LatitudeDegrees>
              <LongitudeDegrees>-0.13807852752506732940673828125</LongitudeDegrees>
            </Position>
            <AltitudeMeters>1965.199951171875</AltitudeMeters>
            <DistanceMeters>7786.7490834179</DistanceMeters>
          </Trackpoint>
          <Trackpoint>
            <Time>2022-07-09T09:33:47.000Z</Time>
            <Position>
              <LatitudeDegrees>42.8106629848480224609375</LatitudeDegrees>
              <LongitudeDegrees>-0.138081125915050506591796875</LongitudeDegrees>
            </Position>
            <AltitudeMeters>1965.199951171875</AltitudeMeters>
            <DistanceMeters>7787.3112690417</DistanceMeters>
          </Trackpoint>
          <Trackpoint>
            <Time>2022-07-09T09:33:48.000Z</Time>
            <Position>
              <LatitudeDegrees>42.8106561116874217987060546875</LatitudeDegrees>
              <LongitudeDegrees>-0.13808037154376506805419921875</LongitudeDegrees>
            </Position>
            <AltitudeMeters>1965.4000244140625</AltitudeMeters>
            <DistanceMeters>7788.0832697187</DistanceMeters>
          </Trackpoint>
          <Trackpoint>
            <Time>2022-07-09T09:33:51.000Z</Time>
            <Position>
              <LatitudeDegrees>42.8106346540153026580810546875</LatitudeDegrees>
              <LongitudeDegrees>-0.138088501989841461181640625</LongitudeDegrees>
            </Position>
            <AltitudeMeters>1966.5999755859375</AltitudeMeters>
            <DistanceMeters>7790.5630846429</DistanceMeters>
          </Trackpoint>
          <Trackpoint>
            <Time>2022-07-09T09:33:55.000Z</Time>
            <Position>
              <LatitudeDegrees>42.8105937503278255462646484375</LatitudeDegrees>
              <LongitudeDegrees>-0.13807131908833980560302734375</LongitudeDegrees>
            </Position>
            <AltitudeMeters>1967.4000244140625</AltitudeMeters>
            <DistanceMeters>7795.3267578164</DistanceMeters>
          </Trackpoint>
          <Trackpoint>
            <Time>2022-07-09T09:33:57.000Z</Time>
            <Position>
              <LatitudeDegrees>42.8105732984840869903564453125</LatitudeDegrees>
              <LongitudeDegrees>-0.13806561939418315887451171875</LongitudeDegrees>
            </Position>
            <AltitudeMeters>1967.5999755859375</AltitudeMeters>
            <DistanceMeters>7797.6505447501</DistanceMeters>
          </Trackpoint>
          <Trackpoint>
            <Time>2022-07-09T09:33:58.000Z</Time>
            <Position>
              <LatitudeDegrees>42.81056843698024749755859375</LatitudeDegrees>
              <LongitudeDegrees>-0.13807249255478382110595703125</LongitudeDegrees>
            </Position>
            <AltitudeMeters>1967.800048828125</AltitudeMeters>
            <DistanceMeters>7798.4225454271</DistanceMeters>
          </Trackpoint>
          <Trackpoint>
            <Time>2022-07-09T09:34:04.000Z</Time>
            <Position>
              <LatitudeDegrees>42.81053717248141765594482421875</LatitudeDegrees>
              <LongitudeDegrees>-0.1380883343517780303955078125</LongitudeDegrees>
            </Position>
            <AltitudeMeters>1968.4000244140625</AltitudeMeters>
            <DistanceMeters>7802.1346737457</DistanceMeters>
          </Trackpoint>
          <Trackpoint>
            <Time>2022-07-09T09:34:05.000Z</Time>
            <Position>
              <LatitudeDegrees>42.810534574091434478759765625</LatitudeDegrees>
              <LongitudeDegrees>-0.138094536960124969482421875</LongitudeDegrees>
            </Position>
            <AltitudeMeters>1968.4000244140625</AltitudeMeters>
            <DistanceMeters>7802.7204577544</DistanceMeters>
          </Trackpoint>
          <Trackpoint>
            <Time>2022-07-09T09:34:07.000Z</Time>
            <Position>
              <LatitudeDegrees>42.8105293773114681243896484375</LatitudeDegrees>
              <LongitudeDegrees>-0.13813099823892116546630859375</LongitudeDegrees>
            </Position>
            <AltitudeMeters>1968.4000244140625</AltitudeMeters>
            <DistanceMeters>7805.7538795676</DistanceMeters>
          </Trackpoint>
          <Trackpoint>
            <Time>2022-07-09T09:34:11.000Z</Time>
            <Position>
              <LatitudeDegrees>42.81050012446939945220947265625</LatitudeDegrees>
              <LongitudeDegrees>-0.1381641067564487457275390625</LongitudeDegrees>
            </Position>
            <AltitudeMeters>1968.4000244140625</AltitudeMeters>
            <DistanceMeters>7809.985503557</DistanceMeters>
          </Trackpoint>
          <Trackpoint>
            <Time>2022-07-09T09:34:17.000Z</Time>
            <Position>
              <LatitudeDegrees>42.81045083887875080108642578125</LatitudeDegrees>
              <LongitudeDegrees>-0.13815346173942089080810546875</LongitudeDegrees>
            </Position>
            <AltitudeMeters>1968.199951171875</AltitudeMeters>
            <DistanceMeters>7815.5394878145</DistanceMeters>
          </Trackpoint>
          <Trackpoint>
            <Time>2022-07-09T09:34:20.000Z</Time>
            <Position>
              <LatitudeDegrees>42.81044530682265758514404296875</LatitudeDegrees>
              <LongitudeDegrees>-0.1381671242415904998779296875</LongitudeDegrees>
            </Position>
            <AltitudeMeters>1968.199951171875</AltitudeMeters>
            <DistanceMeters>7816.8144049726</DistanceMeters>
          </Trackpoint>
          <Trackpoint>
            <Time>2022-07-09T09:34:22.000Z</Time>
            <Position>
              <LatitudeDegrees>42.810450084507465362548828125</LatitudeDegrees>
              <LongitudeDegrees>-0.138176344335079193115234375</LongitudeDegrees>
            </Position>
            <AltitudeMeters>1968.199951171875</AltitudeMeters>
            <DistanceMeters>7817.7357231509</DistanceMeters>
          </Trackpoint>
          <Trackpoint>
            <Time>2022-07-09T09:34:23.000Z</Time>
            <Position>
              <LatitudeDegrees>42.81045016832649707794189453125</LatitudeDegrees>
              <LongitudeDegrees>-0.13816435821354389190673828125</LongitudeDegrees>
            </Position>
            <AltitudeMeters>1968.199951171875</AltitudeMeters>
            <DistanceMeters>7818.7140830556</DistanceMeters>
          </Trackpoint>
          <Trackpoint>
            <Time>2022-07-09T09:34:28.000Z</Time>
            <Position>
              <LatitudeDegrees>42.81041965819895267486572265625</LatitudeDegrees>
              <LongitudeDegrees>-0.1381020806729793548583984375</LongitudeDegrees>
            </Position>
            <AltitudeMeters>1968.199951171875</AltitudeMeters>
            <DistanceMeters>7824.8298476546</DistanceMeters>
          </Trackpoint>
          <Trackpoint>
            <Time>2022-07-09T09:34:32.000Z</Time>
            <Position>
              <LatitudeDegrees>42.81039535067975521087646484375</LatitudeDegrees>
              <LongitudeDegrees>-0.13806603848934173583984375</LongitudeDegrees>
            </Position>
            <AltitudeMeters>1968.5999755859375</AltitudeMeters>
            <DistanceMeters>7828.8277515186</DistanceMeters>
          </Trackpoint>
          <Trackpoint>
            <Time>2022-07-09T09:34:33.000Z</Time>
            <Position>
              <LatitudeDegrees>42.81038562767207622528076171875</LatitudeDegrees>
              <LongitudeDegrees>-0.13806478120386600494384765625</LongitudeDegrees>
            </Position>
            <AltitudeMeters>1968.5999755859375</AltitudeMeters>
            <DistanceMeters>7829.9112227632</DistanceMeters>
          </Trackpoint>
          <Trackpoint>
            <Time>2022-07-09T09:34:34.000Z</Time>
            <Position>
              <LatitudeDegrees>42.81037841923534870147705078125</LatitudeDegrees>
              <LongitudeDegrees>-0.13806561939418315887451171875</LongitudeDegrees>
            </Position>
            <AltitudeMeters>1968.5999755859375</AltitudeMeters>
            <DistanceMeters>7830.7175511727</DistanceMeters>
          </Trackpoint>
          <Trackpoint>
            <Time>2022-07-09T09:34:39.000Z</Time>
            <Position>
              <LatitudeDegrees>42.81033986248075962066650390625</LatitudeDegrees>
              <LongitudeDegrees>-0.1380544714629650115966796875</LongitudeDegrees>
            </Position>
            <AltitudeMeters>1968.4000244140625</AltitudeMeters>
            <DistanceMeters>7835.1032167807</DistanceMeters>
          </Trackpoint>
          <Trackpoint>
            <Time>2022-07-09T09:34:41.000Z</Time>
            <Position>
              <LatitudeDegrees>42.81031991355121135711669921875</LatitudeDegrees>
              <LongitudeDegrees>-0.1380390487611293792724609375</LongitudeDegrees>
            </Position>
            <AltitudeMeters>1968.199951171875</AltitudeMeters>
            <DistanceMeters>7837.6565900775</DistanceMeters>
          </Trackpoint>
          <Trackpoint>
            <Time>2022-07-09T09:34:46.000Z</Time>
            <Position>
              <LatitudeDegrees>42.81026425771415233612060546875</LatitudeDegrees>
              <LongitudeDegrees>-0.13799873180687427520751953125</LongitudeDegrees>
            </Position>
            <AltitudeMeters>1967.4000244140625</AltitudeMeters>
            <DistanceMeters>7844.6724967684</DistanceMeters>
          </Trackpoint>
          <Trackpoint>
            <Time>2022-07-09T09:34:50.000Z</Time>
            <Position>
              <LatitudeDegrees>42.81023223884403705596923828125</LatitudeDegrees>
              <LongitudeDegrees>-0.13795346952974796295166015625</LongitudeDegrees>
            </Position>
            <AltitudeMeters>1967.800048828125</AltitudeMeters>
            <DistanceMeters>7849.8074576462</DistanceMeters>
          </Trackpoint>
          <Trackpoint>
            <Time>2022-07-09T09:34:52.000Z</Time>
            <Position>
              <LatitudeDegrees>42.81021681614220142364501953125</LatitudeDegrees>
              <LongitudeDegrees>-0.13793854974210262298583984375</LongitudeDegrees>
            </Position>
            <AltitudeMeters>1967.800048828125</AltitudeMeters>
            <DistanceMeters>7851.910963638</DistanceMeters>
          </Trackpoint>
          <Trackpoint>
            <Time>2022-07-09T09:34:58.000Z</Time>
            <Position>
              <LatitudeDegrees>42.8102014772593975067138671875</LatitudeDegrees>
              <LongitudeDegrees>-0.13790485449135303497314453125</LongitudeDegrees>
            </Position>
            <AltitudeMeters>1967.5999755859375</AltitudeMeters>
            <DistanceMeters>7855.1488516458</DistanceMeters>
          </Trackpoint>
          <Trackpoint>
            <Time>2022-07-09T09:34:59.000Z</Time>
            <Position>
              <LatitudeDegrees>42.81020105816423892974853515625</LatitudeDegrees>
              <LongitudeDegrees>-0.13789630495011806488037109375</LongitudeDegrees>
            </Position>
            <AltitudeMeters>1967.5999755859375</AltitudeMeters>
            <DistanceMeters>7855.8471525323</DistanceMeters>
          </Trackpoint>
          <Trackpoint>
            <Time>2022-07-09T09:35:01.000Z</Time>
            <Position>
              <LatitudeDegrees>42.81020105816423892974853515625</LatitudeDegrees>
              <LongitudeDegrees>-0.1378764398396015167236328125</LongitudeDegrees>
            </Position>
            <AltitudeMeters>1967.5999755859375</AltitudeMeters>
            <DistanceMeters>7857.4681868457</DistanceMeters>
          </Trackpoint>
          <Trackpoint>
            <Time>2022-07-09T09:35:05.000Z</Time>
            <Position>
              <LatitudeDegrees>42.81018345616757869720458984375</LatitudeDegrees>
              <LongitudeDegrees>-0.13784182257950305938720703125</LongitudeDegrees>
            </Position>
            <AltitudeMeters>1967.4000244140625</AltitudeMeters>
            <DistanceMeters>7860.9075763469</DistanceMeters>
          </Trackpoint>
          <Trackpoint>
            <Time>2022-07-09T09:35:11.000Z</Time>
            <Position>
              <LatitudeDegrees>42.81014640815556049346923828125</LatitudeDegrees>
              <LongitudeDegrees>-0.1378078758716583251953125</LongitudeDegrees>
            </Position>
            <AltitudeMeters>1967.800048828125</AltitudeMeters>
            <DistanceMeters>7865.8763014347</DistanceMeters>
          </Trackpoint>
          <Trackpoint>
            <Time>2022-07-09T09:35:15.000Z</Time>
            <Position>
              <LatitudeDegrees>42.81014330685138702392578125</LatitudeDegrees>
              <LongitudeDegrees>-0.1378023438155651092529296875</LongitudeDegrees>
            </Position>
            <AltitudeMeters>1967.800048828125</AltitudeMeters>
            <DistanceMeters>7866.4464617209</DistanceMeters>
          </Trackpoint>
          <Trackpoint>
            <Time>2022-07-09T09:35:16.000Z</Time>
            <Position>
              <LatitudeDegrees>42.81014691106975078582763671875</LatitudeDegrees>
              <LongitudeDegrees>-0.13780360110104084014892578125</LongitudeDegrees>
            </Position>
            <AltitudeMeters>1967.800048828125</AltitudeMeters>
            <DistanceMeters>7866.8606735658</DistanceMeters>
          </Trackpoint>
          <Trackpoint>
            <Time>2022-07-09T09:35:19.000Z</Time>
            <Position>
              <LatitudeDegrees>42.81015395186841487884521484375</LatitudeDegrees>
              <LongitudeDegrees>-0.1377966441214084625244140625</LongitudeDegrees>
            </Position>
            <AltitudeMeters>1968.4000244140625</AltitudeMeters>
            <DistanceMeters>7867.8203963369</DistanceMeters>
          </Trackpoint>
          <Trackpoint>
            <Time>2022-07-09T09:35:20.000Z</Time>
            <Position>
              <LatitudeDegrees>42.8101545386016368865966796875</LatitudeDegrees>
              <LongitudeDegrees>-0.13779505155980587005615234375</LongitudeDegrees>
            </Position>
            <AltitudeMeters>1968.4000244140625</AltitudeMeters>
            <DistanceMeters>7867.9547844051</DistanceMeters>
          </Trackpoint>
          <Trackpoint>
            <Time>2022-07-09T09:35:21.000Z</Time>
            <Position>
              <LatitudeDegrees>42.81015671789646148681640625</LatitudeDegrees>
              <LongitudeDegrees>-0.1377944648265838623046875</LongitudeDegrees>
            </Position>
            <AltitudeMeters>1968.4000244140625</AltitudeMeters>
            <DistanceMeters>7868.2062014592</DistanceMeters>
          </Trackpoint>
          <Trackpoint>
            <Time>2022-07-09T09:35:26.000Z</Time>
            <Position>
              <LatitudeDegrees>42.81016535125672817230224609375</LatitudeDegrees>
              <LongitudeDegrees>-0.1377864181995391845703125</LongitudeDegrees>
            </Position>
            <AltitudeMeters>1967.800048828125</AltitudeMeters>
            <DistanceMeters>7869.3700362699</DistanceMeters>
          </Trackpoint>
          <Trackpoint>
            <Time>2022-07-09T09:35:32.000Z</Time>
            <Position>
              <LatitudeDegrees>42.810182869434356689453125</LatitudeDegrees>
              <LongitudeDegrees>-0.13778147287666797637939453125</LongitudeDegrees>
            </Position>
            <AltitudeMeters>1967.5999755859375</AltitudeMeters>
            <DistanceMeters>7871.3610670479</DistanceMeters>
          </Trackpoint>
          <Trackpoint>
            <Time>2022-07-09T09:35:34.000Z</Time>
            <Position>
              <LatitudeDegrees>42.81018194742500782012939453125</LatitudeDegrees>
              <LongitudeDegrees>-0.137776024639606475830078125</LongitudeDegrees>
            </Position>
            <AltitudeMeters>1967.5999755859375</AltitudeMeters>
            <DistanceMeters>7871.8266009722</DistanceMeters>
          </Trackpoint>
          <Trackpoint>
            <Time>2022-07-09T09:35:39.000Z</Time>
            <Position>
              <LatitudeDegrees>42.81016970984637737274169921875</LatitudeDegrees>
              <LongitudeDegrees>-0.13778381980955600738525390625</LongitudeDegrees>
            </Position>
            <AltitudeMeters>1967.4000244140625</AltitudeMeters>
            <DistanceMeters>7873.3291052521</DistanceMeters>
          </Trackpoint>
          <Trackpoint>
            <Time>2022-07-09T09:35:43.000Z</Time>
            <Position>
              <LatitudeDegrees>42.8101466596126556396484375</LatitudeDegrees>
              <LongitudeDegrees>-0.13778750784695148468017578125</LongitudeDegrees>
            </Position>
            <AltitudeMeters>1967.4000244140625</AltitudeMeters>
            <DistanceMeters>7875.9123641419</DistanceMeters>
          </Trackpoint>
          <Trackpoint>
            <Time>2022-07-09T09:35:49.000Z</Time>
            <Position>
              <LatitudeDegrees>42.81013316474854946136474609375</LatitudeDegrees>
              <LongitudeDegrees>-0.13781248591840267181396484375</LongitudeDegrees>
            </Position>
            <AltitudeMeters>1967.4000244140625</AltitudeMeters>
            <DistanceMeters>7878.4479931424</DistanceMeters>
          </Trackpoint>
          <Trackpoint>
            <Time>2022-07-09T09:35:55.000Z</Time>
            <Position>
              <LatitudeDegrees>42.810129225254058837890625</LatitudeDegrees>
              <LongitudeDegrees>-0.137835033237934112548828125</LongitudeDegrees>
            </Position>
            <AltitudeMeters>1967.800048828125</AltitudeMeters>
            <DistanceMeters>7880.3413870128</DistanceMeters>
          </Trackpoint>
          <Trackpoint>
            <Time>2022-07-09T09:35:57.000Z</Time>
            <Position>
              <LatitudeDegrees>42.8101220168173313140869140625</LatitudeDegrees>
              <LongitudeDegrees>-0.13784668408334255218505859375</LongitudeDegrees>
            </Position>
            <AltitudeMeters>1967.5999755859375</AltitudeMeters>
            <DistanceMeters>7881.587650688</DistanceMeters>
          </Trackpoint>
          <Trackpoint>
            <Time>2022-07-09T09:36:03.000Z</Time>
            <Position>
              <LatitudeDegrees>42.81010684557259082794189453125</LatitudeDegrees>
              <LongitudeDegrees>-0.13786177150905132293701171875</LongitudeDegrees>
            </Position>
            <AltitudeMeters>1967.4000244140625</AltitudeMeters>
            <DistanceMeters>7883.6782384042</DistanceMeters>
          </Trackpoint>
          <Trackpoint>
            <Time>2022-07-09T09:36:05.000Z</Time>
            <Position>
              <LatitudeDegrees>42.810127548873424530029296875</LatitudeDegrees>
              <LongitudeDegrees>-0.1378630287945270538330078125</LongitudeDegrees>
            </Position>
            <AltitudeMeters>1967.4000244140625</AltitudeMeters>
            <DistanceMeters>7885.9844723527</DistanceMeters>
          </Trackpoint>
          <Trackpoint>
            <Time>2022-07-09T09:36:08.000Z</Time>
            <Position>
              <LatitudeDegrees>42.81014204956591129302978515625</LatitudeDegrees>
              <LongitudeDegrees>-0.137869901955127716064453125</LongitudeDegrees>
            </Position>
            <AltitudeMeters>1967.5999755859375</AltitudeMeters>
            <DistanceMeters>7887.6896657772</DistanceMeters>
          </Trackpoint>
          <Trackpoint>
            <Time>2022-07-09T09:36:14.000Z</Time>
            <Position>
              <LatitudeDegrees>42.81012277118861675262451171875</LatitudeDegrees>
              <LongitudeDegrees>-0.13785288669168949127197265625</LongitudeDegrees>
            </Position>
            <AltitudeMeters>1967.4000244140625</AltitudeMeters>
            <DistanceMeters>7890.2465731564</DistanceMeters>
          </Trackpoint>
          <Trackpoint>
            <Time>2022-07-09T09:36:19.000Z</Time>
            <Position>
              <LatitudeDegrees>42.81010583974421024322509765625</LatitudeDegrees>
              <LongitudeDegrees>-0.13783897273242473602294921875</LongitudeDegrees>
            </Position>
            <AltitudeMeters>1967.199951171875</AltitudeMeters>
            <DistanceMeters>7892.4466006503</DistanceMeters>
          </Trackpoint>
          <Trackpoint>
            <Time>2022-07-09T09:36:25.000Z</Time>
            <Position>
              <LatitudeDegrees>42.81011288054287433624267578125</LatitudeDegrees>
              <LongitudeDegrees>-0.1378105580806732177734375</LongitudeDegrees>
            </Position>
            <AltitudeMeters>1967</AltitudeMeters>
            <DistanceMeters>7894.8971109717</DistanceMeters>
          </Trackpoint>
          <Trackpoint>
            <Time>2022-07-09T09:36:27.000Z</Time>
            <Position>
              <LatitudeDegrees>42.8101086057722568511962890625</LatitudeDegrees>
              <LongitudeDegrees>-0.13781131245195865631103515625</LongitudeDegrees>
            </Position>
            <AltitudeMeters>1967</AltitudeMeters>
            <DistanceMeters>7895.3816540426</DistanceMeters>
          </Trackpoint>
          <Trackpoint>
            <Time>2022-07-09T09:36:28.000Z</Time>
            <Position>
              <LatitudeDegrees>42.81010500155389308929443359375</LatitudeDegrees>
              <LongitudeDegrees>-0.13780879788100719451904296875</LongitudeDegrees>
            </Position>
            <AltitudeMeters>1967</AltitudeMeters>
            <DistanceMeters>7895.8471879668</DistanceMeters>
          </Trackpoint>
          <Trackpoint>
            <Time>2022-07-09T09:36:31.000Z</Time>
            <Position>
              <LatitudeDegrees>42.8101032413542270660400390625</LatitudeDegrees>
              <LongitudeDegrees>-0.13781198300421237945556640625</LongitudeDegrees>
            </Position>
            <AltitudeMeters>1967</AltitudeMeters>
            <DistanceMeters>7896.189811658</DistanceMeters>
          </Trackpoint>
          <Trackpoint>
            <Time>2022-07-09T09:36:33.000Z</Time>
            <Position>
              <LatitudeDegrees>42.81010416336357593536376953125</LatitudeDegrees>
              <LongitudeDegrees>-0.1378132402896881103515625</LongitudeDegrees>
            </Position>
            <AltitudeMeters>1967.4000244140625</AltitudeMeters>
            <DistanceMeters>7896.3544027554</DistanceMeters>
          </Trackpoint>
          <Trackpoint>
            <Time>2022-07-09T09:36:39.000Z</Time>
            <Position>
              <LatitudeDegrees>42.810077928006649017333984375</LatitudeDegrees>
              <LongitudeDegrees>-0.13792329467833042144775390625</LongitudeDegrees>
            </Position>
            <AltitudeMeters>1968</AltitudeMeters>
            <DistanceMeters>7905.8032315612</DistanceMeters>
          </Trackpoint>
          <Trackpoint>
            <Time>2022-07-09T09:36:40.000Z</Time>
            <Position>
              <LatitudeDegrees>42.8100734017789363861083984375</LatitudeDegrees>
              <LongitudeDegrees>-0.1379414834082126617431640625</LongitudeDegrees>
            </Position>
            <AltitudeMeters>1968</AltitudeMeters>
            <DistanceMeters>7907.3704522836</DistanceMeters>
          </Trackpoint>
          <Trackpoint>
            <Time>2022-07-09T09:36:42.000Z</Time>
            <Position>
              <LatitudeDegrees>42.81006476841866970062255859375</LatitudeDegrees>
              <LongitudeDegrees>-0.1379661262035369873046875</LongitudeDegrees>
            </Position>
            <AltitudeMeters>1979</AltitudeMeters>
            <DistanceMeters>7909.599026277</DistanceMeters>
          </Trackpoint>
          <Trackpoint>
            <Time>2022-07-09T09:36:44.000Z</Time>
            <Position>
              <LatitudeDegrees>42.8100640140473842620849609375</LatitudeDegrees>
              <LongitudeDegrees>-0.137977860867977142333984375</LongitudeDegrees>
            </Position>
            <AltitudeMeters>1979</AltitudeMeters>
            <DistanceMeters>7910.5681124188</DistanceMeters>
          </Trackpoint>
          <Trackpoint>
            <Time>2022-07-09T09:36:46.000Z</Time>
            <Position>
              <LatitudeDegrees>42.8100817836821079254150390625</LatitudeDegrees>
              <LongitudeDegrees>-0.13797283172607421875</LongitudeDegrees>
            </Position>
            <AltitudeMeters>1972.800048828125</AltitudeMeters>
            <DistanceMeters>7912.5884080785</DistanceMeters>
          </Trackpoint>
          <Trackpoint>
            <Time>2022-07-09T09:36:47.000Z</Time>
            <Position>
              <LatitudeDegrees>42.81009502708911895751953125</LatitudeDegrees>
              <LongitudeDegrees>-0.137966461479663848876953125</LongitudeDegrees>
            </Position>
            <AltitudeMeters>1969.800048828125</AltitudeMeters>
            <DistanceMeters>7914.1498563293</DistanceMeters>
          </Trackpoint>
          <Trackpoint>
            <Time>2022-07-09T09:36:48.000Z</Time>
            <Position>
              <LatitudeDegrees>42.8101049177348613739013671875</LatitudeDegrees>
              <LongitudeDegrees>-0.1379599235951900482177734375</LongitudeDegrees>
            </Position>
            <AltitudeMeters>1968.199951171875</AltitudeMeters>
            <DistanceMeters>7915.3741898989</DistanceMeters>
          </Trackpoint>
          <Trackpoint>
            <Time>2022-07-09T09:36:50.000Z</Time>
            <Position>
              <LatitudeDegrees>42.81013500876724720001220703125</LatitudeDegrees>
              <LongitudeDegrees>-0.1379270665347576141357421875</LongitudeDegrees>
            </Position>
            <AltitudeMeters>1967.199951171875</AltitudeMeters>
            <DistanceMeters>7919.6651485178</DistanceMeters>
          </Trackpoint>
          <Trackpoint>
            <Time>2022-07-09T09:36:53.000Z</Time>
            <Position>
              <LatitudeDegrees>42.81015940010547637939453125</LatitudeDegrees>
              <LongitudeDegrees>-0.137891359627246856689453125</LongitudeDegrees>
            </Position>
            <AltitudeMeters>1966.800048828125</AltitudeMeters>
            <DistanceMeters>7923.6483437568</DistanceMeters>
          </Trackpoint>
          <Trackpoint>
            <Time>2022-07-09T09:36:59.000Z</Time>
            <Position>
              <LatitudeDegrees>42.81013735570013523101806640625</LatitudeDegrees>
              <LongitudeDegrees>-0.13788306154310703277587890625</LongitudeDegrees>
            </Position>
            <AltitudeMeters>1966.800048828125</AltitudeMeters>
            <DistanceMeters>7926.1946341737</DistanceMeters>
          </Trackpoint>
          <Trackpoint>
            <Time>2022-07-09T09:37:05.000Z</Time>
            <Position>
              <LatitudeDegrees>42.81014188192784786224365234375</LatitudeDegrees>
              <LongitudeDegrees>-0.1378901861608028411865234375</LongitudeDegrees>
            </Position>
            <AltitudeMeters>1966.800048828125</AltitudeMeters>
            <DistanceMeters>7926.9724613535</DistanceMeters>
          </Trackpoint>
          <Trackpoint>
            <Time>2022-07-09T09:37:06.000Z</Time>
            <Position>
              <LatitudeDegrees>42.81014288775622844696044921875</LatitudeDegrees>
              <LongitudeDegrees>-0.1378958858549594879150390625</LongitudeDegrees>
            </Position>
            <AltitudeMeters>1966.800048828125</AltitudeMeters>
            <DistanceMeters>7927.4570044244</DistanceMeters>
          </Trackpoint>
          <Trackpoint>
            <Time>2022-07-09T09:37:11.000Z</Time>
            <Position>
              <LatitudeDegrees>42.81016451306641101837158203125</LatitudeDegrees>
              <LongitudeDegrees>-0.13787350617349147796630859375</LongitudeDegrees>
            </Position>
            <AltitudeMeters>1966.800048828125</AltitudeMeters>
            <DistanceMeters>7930.4799892675</DistanceMeters>
          </Trackpoint>
          <Trackpoint>
            <Time>2022-07-09T09:37:16.000Z</Time>
            <Position>
              <LatitudeDegrees>42.81015613116323947906494140625</LatitudeDegrees>
              <LongitudeDegrees>-0.1378536410629749298095703125</LongitudeDegrees>
            </Position>
            <AltitudeMeters>1966.800048828125</AltitudeMeters>
            <DistanceMeters>7932.3517984619</DistanceMeters>
          </Trackpoint>
          <Trackpoint>
            <Time>2022-07-09T09:37:22.000Z</Time>
            <Position>
              <LatitudeDegrees>42.81014691106975078582763671875</LatitudeDegrees>
              <LongitudeDegrees>-0.1378308422863483428955078125</LongitudeDegrees>
            </Position>
            <AltitudeMeters>1966.800048828125</AltitudeMeters>
            <DistanceMeters>7934.476660392</DistanceMeters>
          </Trackpoint>
          <Trackpoint>
            <Time>2022-07-09T09:37:24.000Z</Time>
            <Position>
              <LatitudeDegrees>42.81013257801532745361328125</LatitudeDegrees>
              <LongitudeDegrees>-0.13783277012407779693603515625</LongitudeDegrees>
            </Position>
            <AltitudeMeters>1966.800048828125</AltitudeMeters>
            <DistanceMeters>7936.080895969</DistanceMeters>
          </Trackpoint>
          <Trackpoint>
            <Time>2022-07-09T09:37:25.000Z</Time>
            <Position>
              <LatitudeDegrees>42.810128889977931976318359375</LatitudeDegrees>
              <LongitudeDegrees>-0.1378375478088855743408203125</LongitudeDegrees>
            </Position>
            <AltitudeMeters>1966.800048828125</AltitudeMeters>
            <DistanceMeters>7936.6430815927</DistanceMeters>
          </Trackpoint>
          <Trackpoint>
            <Time>2022-07-09T09:37:31.000Z</Time>
            <Position>
              <LatitudeDegrees>42.81008656136691570281982421875</LatitudeDegrees>
              <LongitudeDegrees>-0.137927569448947906494140625</LongitudeDegrees>
            </Position>
            <AltitudeMeters>1966.800048828125</AltitudeMeters>
            <DistanceMeters>7945.3741700323</DistanceMeters>
          </Trackpoint>
          <Trackpoint>
            <Time>2022-07-09T09:37:35.000Z</Time>
            <Position>
              <LatitudeDegrees>42.8100646845996379852294921875</LatitudeDegrees>
              <LongitudeDegrees>-0.13794039376080036163330078125</LongitudeDegrees>
            </Position>
            <AltitudeMeters>1966.800048828125</AltitudeMeters>
            <DistanceMeters>7948.0264199356</DistanceMeters>
          </Trackpoint>
          <Trackpoint>
            <Time>2022-07-09T09:37:39.000Z</Time>
            <Position>
              <LatitudeDegrees>42.810096032917499542236328125</LatitudeDegrees>
              <LongitudeDegrees>-0.13790753670036792755126953125</LongitudeDegrees>
            </Position>
            <AltitudeMeters>1966.800048828125</AltitudeMeters>
            <DistanceMeters>7952.4285267095</DistanceMeters>
          </Trackpoint>
          <Trackpoint>
            <Time>2022-07-09T09:37:41.000Z</Time>
            <Position>
              <LatitudeDegrees>42.810103408992290496826171875</LatitudeDegrees>
              <LongitudeDegrees>-0.1379079557955265045166015625</LongitudeDegrees>
            </Position>
            <AltitudeMeters>1966.800048828125</AltitudeMeters>
            <DistanceMeters>7953.2514821964</DistanceMeters>
          </Trackpoint>
          <Trackpoint>
            <Time>2022-07-09T09:37:47.000Z</Time>
            <Position>
              <LatitudeDegrees>42.81013735570013523101806640625</LatitudeDegrees>
              <LongitudeDegrees>-0.1378412358462810516357421875</LongitudeDegrees>
            </Position>
            <AltitudeMeters>1966.800048828125</AltitudeMeters>
            <DistanceMeters>7959.8815962323</DistanceMeters>
          </Trackpoint>
          <Trackpoint>
            <Time>2022-07-09T09:37:48.000Z</Time>
            <Position>
              <LatitudeDegrees>42.81014406122267246246337890625</LatitudeDegrees>
              <LongitudeDegrees>-0.13782790862023830413818359375</LongitudeDegrees>
            </Position>
            <AltitudeMeters>1966.800048828125</AltitudeMeters>
            <DistanceMeters>7961.1983250112</DistanceMeters>
          </Trackpoint>
          <Trackpoint>
            <Time>2022-07-09T09:37:54.000Z</Time>
            <Position>
              <LatitudeDegrees>42.81018622219562530517578125</LatitudeDegrees>
              <LongitudeDegrees>-0.137804858386516571044921875</LongitudeDegrees>
            </Position>
            <AltitudeMeters>1967.199951171875</AltitudeMeters>
            <DistanceMeters>7966.2535318652</DistanceMeters>
          </Trackpoint>
          <Trackpoint>
            <Time>2022-07-09T09:37:56.000Z</Time>
            <Position>
              <LatitudeDegrees>42.810180187225341796875</LatitudeDegrees>
              <LongitudeDegrees>-0.1378097198903560638427734375</LongitudeDegrees>
            </Position>
            <AltitudeMeters>1967.5999755859375</AltitudeMeters>
            <DistanceMeters>7967.0255325422</DistanceMeters>
          </Trackpoint>
          <Trackpoint>
            <Time>2022-07-09T09:38:02.000Z</Time>
            <Position>
              <LatitudeDegrees>42.81016032211482524871826171875</LatitudeDegrees>
              <LongitudeDegrees>-0.13780184090137481689453125</LongitudeDegrees>
            </Position>
            <AltitudeMeters>1967.800048828125</AltitudeMeters>
            <DistanceMeters>7969.3278476537</DistanceMeters>
          </Trackpoint>
          <Trackpoint>
            <Time>2022-07-09T09:38:08.000Z</Time>
            <Position>
              <LatitudeDegrees>42.81014758162200450897216796875</LatitudeDegrees>
              <LongitudeDegrees>-0.1378030143678188323974609375</LongitudeDegrees>
            </Position>
            <AltitudeMeters>1967.800048828125</AltitudeMeters>
            <DistanceMeters>7970.7500772847</DistanceMeters>
          </Trackpoint>
          <Trackpoint>
            <Time>2022-07-09T09:38:13.000Z</Time>
            <Position>
              <LatitudeDegrees>42.8101350925862789154052734375</LatitudeDegrees>
              <LongitudeDegrees>-0.1378238014876842498779296875</LongitudeDegrees>
            </Position>
            <AltitudeMeters>1967.800048828125</AltitudeMeters>
            <DistanceMeters>7972.9439393461</DistanceMeters>
          </Trackpoint>
          <Trackpoint>
            <Time>2022-07-09T09:38:16.000Z</Time>
            <Position>
              <LatitudeDegrees>42.81013785861432552337646484375</LatitudeDegrees>
              <LongitudeDegrees>-0.13782522641122341156005859375</LongitudeDegrees>
            </Position>
            <AltitudeMeters>1967.800048828125</AltitudeMeters>
            <DistanceMeters>7973.2865630373</DistanceMeters>
          </Trackpoint>
          <Trackpoint>
            <Time>2022-07-09T09:38:19.000Z</Time>
            <Position>
              <LatitudeDegrees>42.81014121137559413909912109375</LatitudeDegrees>
              <LongitudeDegrees>-0.1378266513347625732421875</LongitudeDegrees>
            </Position>
            <AltitudeMeters>1968.199951171875</AltitudeMeters>
            <DistanceMeters>7973.6897272421</DistanceMeters>
          </Trackpoint>
          <Trackpoint>
            <Time>2022-07-09T09:38:25.000Z</Time>
            <Position>
              <LatitudeDegrees>42.81014339067041873931884765625</LatitudeDegrees>
              <LongitudeDegrees>-0.13785540126264095306396484375</LongitudeDegrees>
            </Position>
            <AltitudeMeters>1968</AltitudeMeters>
            <DistanceMeters>7976.0520539008</DistanceMeters>
          </Trackpoint>
          <Trackpoint>
            <Time>2022-07-09T09:38:28.000Z</Time>
            <Position>
              <LatitudeDegrees>42.81013903208076953887939453125</LatitudeDegrees>
              <LongitudeDegrees>-0.137867890298366546630859375</LongitudeDegrees>
            </Position>
            <AltitudeMeters>1968</AltitudeMeters>
            <DistanceMeters>7977.1844278916</DistanceMeters>
          </Trackpoint>
          <Trackpoint>
            <Time>2022-07-09T09:38:31.000Z</Time>
            <Position>
              <LatitudeDegrees>42.8101424686610698699951171875</LatitudeDegrees>
              <LongitudeDegrees>-0.1378818042576313018798828125</LongitudeDegrees>
            </Position>
            <AltitudeMeters>1968</AltitudeMeters>
            <DistanceMeters>7978.3864313155</DistanceMeters>
          </Trackpoint>
          <Trackpoint>
            <Time>2022-07-09T09:38:35.000Z</Time>
            <Position>
              <LatitudeDegrees>42.810123525559902191162109375</LatitudeDegrees>
              <LongitudeDegrees>-0.1379042677581310272216796875</LongitudeDegrees>
            </Position>
            <AltitudeMeters>1968.199951171875</AltitudeMeters>
            <DistanceMeters>7981.1796348612</DistanceMeters>
          </Trackpoint>
          <Trackpoint>
            <Time>2022-07-09T09:38:36.000Z</Time>
            <Position>
              <LatitudeDegrees>42.81012453138828277587890625</LatitudeDegrees>
              <LongitudeDegrees>-0.13790233992040157318115234375</LongitudeDegrees>
            </Position>
            <AltitudeMeters>1968.199951171875</AltitudeMeters>
            <DistanceMeters>7981.3921210542</DistanceMeters>
          </Trackpoint>
          <Trackpoint>
            <Time>2022-07-09T09:38:40.000Z</Time>
            <Position>
              <LatitudeDegrees>42.8101183287799358367919921875</LatitudeDegrees>
              <LongitudeDegrees>-0.137911476194858551025390625</LongitudeDegrees>
            </Position>
            <AltitudeMeters>1968</AltitudeMeters>
            <DistanceMeters>7982.4155900901</DistanceMeters>
          </Trackpoint>
          <Trackpoint>
            <Time>2022-07-09T09:38:43.000Z</Time>
            <Position>
              <LatitudeDegrees>42.8101156465709209442138671875</LatitudeDegrees>
              <LongitudeDegrees>-0.1379160024225711822509765625</LongitudeDegrees>
            </Position>
            <AltitudeMeters>1968.4000244140625</AltitudeMeters>
            <DistanceMeters>7982.8907236619</DistanceMeters>
          </Trackpoint>
          <Trackpoint>
            <Time>2022-07-09T09:38:49.000Z</Time>
            <Position>
              <LatitudeDegrees>42.8101421333849430084228515625</LatitudeDegrees>
              <LongitudeDegrees>-0.13795606791973114013671875</LongitudeDegrees>
            </Position>
            <AltitudeMeters>1969.199951171875</AltitudeMeters>
            <DistanceMeters>7987.294881266</DistanceMeters>
          </Trackpoint>
          <Trackpoint>
            <Time>2022-07-09T09:38:53.000Z</Time>
            <Position>
              <LatitudeDegrees>42.81015227548778057098388671875</LatitudeDegrees>
              <LongitudeDegrees>-0.13797459192574024200439453125</LongitudeDegrees>
            </Position>
            <AltitudeMeters>1967.800048828125</AltitudeMeters>
            <DistanceMeters>7989.181107689</DistanceMeters>
          </Trackpoint>
          <Trackpoint>
            <Time>2022-07-09T09:38:55.000Z</Time>
            <Position>
              <LatitudeDegrees>42.8101049177348613739013671875</LatitudeDegrees>
              <LongitudeDegrees>-0.13785975985229015350341796875</LongitudeDegrees>
            </Position>
            <AltitudeMeters>1967.800048828125</AltitudeMeters>
            <DistanceMeters>7999.9376112788</DistanceMeters>
          </Trackpoint>
          <Trackpoint>
            <Time>2022-07-09T09:38:58.000Z</Time>
            <Position>
              <LatitudeDegrees>42.810118496417999267578125</LatitudeDegrees>
              <LongitudeDegrees>-0.13795615173876285552978515625</LongitudeDegrees>
            </Position>
            <AltitudeMeters>1967.800048828125</AltitudeMeters>
            <DistanceMeters>8007.9520316412</DistanceMeters>
          </Trackpoint>
          <Trackpoint>
            <Time>2022-07-09T09:39:02.000Z</Time>
            <Position>
              <LatitudeDegrees>42.81002570874989032745361328125</LatitudeDegrees>
              <LongitudeDegrees>-0.13794743455946445465087890625</LongitudeDegrees>
            </Position>
            <AltitudeMeters>1967.800048828125</AltitudeMeters>
            <DistanceMeters>8018.3042752259</DistanceMeters>
          </Trackpoint>
          <Trackpoint>
            <Time>2022-07-09T09:39:04.000Z</Time>
            <Position>
              <LatitudeDegrees>42.81000517308712005615234375</LatitudeDegrees>
              <LongitudeDegrees>-0.1379320956766605377197265625</LongitudeDegrees>
            </Position>
            <AltitudeMeters>1967.800048828125</AltitudeMeters>
            <DistanceMeters>8020.9136195188</DistanceMeters>
          </Trackpoint>
          <Trackpoint>
            <Time>2022-07-09T09:39:07.000Z</Time>
            <Position>
              <LatitudeDegrees>42.81003157608211040496826171875</LatitudeDegrees>
              <LongitudeDegrees>-0.13795028440654277801513671875</LongitudeDegrees>
            </Position>
            <AltitudeMeters>1967.800048828125</AltitudeMeters>
            <DistanceMeters>8024.206812773</DistanceMeters>
          </Trackpoint>
          <Trackpoint>
            <Time>2022-07-09T09:39:09.000Z</Time>
            <Position>
              <LatitudeDegrees>42.81002956442534923553466796875</LatitudeDegrees>
              <LongitudeDegrees>-0.13795279897749423980712890625</LongitudeDegrees>
            </Position>
            <AltitudeMeters>1967.800048828125</AltitudeMeters>
            <DistanceMeters>8024.5073136289</DistanceMeters>
          </Trackpoint>
          <Trackpoint>
            <Time>2022-07-09T09:39:13.000Z</Time>
            <Position>
              <LatitudeDegrees>42.810184545814990997314453125</LatitudeDegrees>
              <LongitudeDegrees>-0.13783268630504608154296875</LongitudeDegrees>
            </Position>
            <AltitudeMeters>1967.800048828125</AltitudeMeters>
            <DistanceMeters>8044.3503842901</DistanceMeters>
          </Trackpoint>
          <Trackpoint>
            <Time>2022-07-09T09:39:15.000Z</Time>
            <Position>
              <LatitudeDegrees>42.810049764811992645263671875</LatitudeDegrees>
              <LongitudeDegrees>-0.13798029161989688873291015625</LongitudeDegrees>
            </Position>
            <AltitudeMeters>1967.800048828125</AltitudeMeters>
            <DistanceMeters>8063.5934699246</DistanceMeters>
          </Trackpoint>
          <Trackpoint>
            <Time>2022-07-09T09:39:19.000Z</Time>
            <Position>
              <LatitudeDegrees>42.8100609965622425079345703125</LatitudeDegrees>
              <LongitudeDegrees>-0.13794173486530780792236328125</LongitudeDegrees>
            </Position>
            <AltitudeMeters>1967.800048828125</AltitudeMeters>
            <DistanceMeters>8066.9799425856</DistanceMeters>
          </Trackpoint>
          <Trackpoint>
            <Time>2022-07-09T09:39:21.000Z</Time>
            <Position>
              <LatitudeDegrees>42.8100874833762645721435546875</LatitudeDegrees>
              <LongitudeDegrees>-0.13792396523058414459228515625</LongitudeDegrees>
            </Position>
            <AltitudeMeters>1967.800048828125</AltitudeMeters>
            <DistanceMeters>8070.2662735834</DistanceMeters>
          </Trackpoint>
          <Trackpoint>
            <Time>2022-07-09T09:39:25.000Z</Time>
            <Position>
              <LatitudeDegrees>42.8101277165114879608154296875</LatitudeDegrees>
              <LongitudeDegrees>-0.13789932243525981903076171875</LongitudeDegrees>
            </Position>
            <AltitudeMeters>1967</AltitudeMeters>
            <DistanceMeters>8075.174658649</DistanceMeters>
          </Trackpoint>
          <Trackpoint>
            <Time>2022-07-09T09:39:26.000Z</Time>
            <Position>
              <LatitudeDegrees>42.81014221720397472381591796875</LatitudeDegrees>
              <LongitudeDegrees>-0.13790233992040157318115234375</LongitudeDegrees>
            </Position>
            <AltitudeMeters>1966.800048828125</AltitudeMeters>
            <DistanceMeters>8076.804027384</DistanceMeters>
          </Trackpoint>
          <Trackpoint>
            <Time>2022-07-09T09:39:29.000Z</Time>
            <Position>
              <LatitudeDegrees>42.8101645968854427337646484375</LatitudeDegrees>
              <LongitudeDegrees>-0.1379005797207355499267578125</LongitudeDegrees>
            </Position>
            <AltitudeMeters>1966.4000244140625</AltitudeMeters>
            <DistanceMeters>8079.2983655066</DistanceMeters>
          </Trackpoint>
          <Trackpoint>
            <Time>2022-07-09T09:39:35.000Z</Time>
            <Position>
              <LatitudeDegrees>42.8101588971912860870361328125</LatitudeDegrees>
              <LongitudeDegrees>-0.1379124820232391357421875</LongitudeDegrees>
            </Position>
            <AltitudeMeters>1965.800048828125</AltitudeMeters>
            <DistanceMeters>8080.4583143805</DistanceMeters>
          </Trackpoint>
          <Trackpoint>
            <Time>2022-07-09T09:39:37.000Z</Time>
            <Position>
              <LatitudeDegrees>42.8101600706577301025390625</LatitudeDegrees>
              <LongitudeDegrees>-0.1379119791090488433837890625</LongitudeDegrees>
            </Position>
            <AltitudeMeters>1965.800048828125</AltitudeMeters>
            <DistanceMeters>8080.5927024488</DistanceMeters>
          </Trackpoint>
          <Trackpoint>
            <Time>2022-07-09T09:39:38.000Z</Time>
            <Position>
              <LatitudeDegrees>42.8101562149822711944580078125</LatitudeDegrees>
              <LongitudeDegrees>-0.13790653087198734283447265625</LongitudeDegrees>
            </Position>
            <AltitudeMeters>1965.800048828125</AltitudeMeters>
            <DistanceMeters>8081.208545944</DistanceMeters>
          </Trackpoint>
          <Trackpoint>
            <Time>2022-07-09T09:39:39.000Z</Time>
            <Position>
              <LatitudeDegrees>42.8101535327732563018798828125</LatitudeDegrees>
              <LongitudeDegrees>-0.13790099881589412689208984375</LongitudeDegrees>
            </Position>
            <AltitudeMeters>1965.800048828125</AltitudeMeters>
            <DistanceMeters>8081.746098217</DistanceMeters>
          </Trackpoint>
          <Trackpoint>
            <Time>2022-07-09T09:39:40.000Z</Time>
            <Position>
              <LatitudeDegrees>42.81014976091682910919189453125</LatitudeDegrees>
              <LongitudeDegrees>-0.13789529912173748016357421875</LongitudeDegrees>
            </Position>
            <AltitudeMeters>1965.800048828125</AltitudeMeters>
            <DistanceMeters>8082.3692300547</DistanceMeters>
          </Trackpoint>
          <Trackpoint>
            <Time>2022-07-09T09:39:43.000Z</Time>
            <Position>
              <LatitudeDegrees>42.81014062464237213134765625</LatitudeDegrees>
              <LongitudeDegrees>-0.1378985680639743804931640625</LongitudeDegrees>
            </Position>
            <AltitudeMeters>1966.5999755859375</AltitudeMeters>
            <DistanceMeters>8083.4188344212</DistanceMeters>
          </Trackpoint>
          <Trackpoint>
            <Time>2022-07-09T09:39:46.000Z</Time>
            <Position>
              <LatitudeDegrees>42.81008890829980373382568359375</LatitudeDegrees>
              <LongitudeDegrees>-0.13793000020086765289306640625</LongitudeDegrees>
            </Position>
            <AltitudeMeters>1967.4000244140625</AltitudeMeters>
            <DistanceMeters>8089.7207608092</DistanceMeters>
          </Trackpoint>
          <Trackpoint>
            <Time>2022-07-09T09:47:03.000Z</Time>
            <Position>
              <LatitudeDegrees>42.8100190870463848114013671875</LatitudeDegrees>
              <LongitudeDegrees>-0.13787291944026947021484375</LongitudeDegrees>
            </Position>
            <AltitudeMeters>1967.800048828125</AltitudeMeters>
            <DistanceMeters>8098.7827426665</DistanceMeters>
          </Trackpoint>
          <Trackpoint>
            <Time>2022-07-09T09:47:06.000Z</Time>
            <Position>
              <LatitudeDegrees>42.8099952824413776397705078125</LatitudeDegrees>
              <LongitudeDegrees>-0.13785188086330890655517578125</LongitudeDegrees>
            </Position>
            <AltitudeMeters>1967.800048828125</AltitudeMeters>
            <DistanceMeters>8101.9401473593</DistanceMeters>
          </Trackpoint>
          <Trackpoint>
            <Time>2022-07-09T09:47:09.000Z</Time>
            <Position>
              <LatitudeDegrees>42.8099738247692584991455078125</LatitudeDegrees>
              <LongitudeDegrees>-0.1378341950476169586181640625</LongitudeDegrees>
            </Position>
            <AltitudeMeters>1967.800048828125</AltitudeMeters>
            <DistanceMeters>8104.7301161574</DistanceMeters>
          </Trackpoint>
          <Trackpoint>
            <Time>2022-07-09T09:47:13.000Z</Time>
            <Position>
              <LatitudeDegrees>42.80997030436992645263671875</LatitudeDegrees>
              <LongitudeDegrees>-0.13781064189970493316650390625</LongitudeDegrees>
            </Position>
            <AltitudeMeters>1968</AltitudeMeters>
            <DistanceMeters>8106.6914454427</DistanceMeters>
          </Trackpoint>
          <Trackpoint>
            <Time>2022-07-09T09:47:14.000Z</Time>
            <Position>
              <LatitudeDegrees>42.8099671192467212677001953125</LatitudeDegrees>
              <LongitudeDegrees>-0.13780075125396251678466796875</LongitudeDegrees>
            </Position>
            <AltitudeMeters>1968</AltitudeMeters>
            <DistanceMeters>8107.5726869386</DistanceMeters>
          </Trackpoint>
          <Trackpoint>
            <Time>2022-07-09T09:47:16.000Z</Time>
            <Position>
              <LatitudeDegrees>42.8099567256867885589599609375</LatitudeDegrees>
              <LongitudeDegrees>-0.13778298161923885345458984375</LongitudeDegrees>
            </Position>
            <AltitudeMeters>1967.5999755859375</AltitudeMeters>
            <DistanceMeters>8109.4299669933</DistanceMeters>
          </Trackpoint>
          <Trackpoint>
            <Time>2022-07-09T09:47:18.000Z</Time>
            <Position>
              <LatitudeDegrees>42.8099443204700946807861328125</LatitudeDegrees>
              <LongitudeDegrees>-0.137758590281009674072265625</LongitudeDegrees>
            </Position>
            <AltitudeMeters>1967.199951171875</AltitudeMeters>
            <DistanceMeters>8111.8526823478</DistanceMeters>
          </Trackpoint>
          <Trackpoint>
            <Time>2022-07-09T09:47:24.000Z</Time>
            <Position>
              <LatitudeDegrees>42.80993451364338397979736328125</LatitudeDegrees>
              <LongitudeDegrees>-0.13768441043794155120849609375</LongitudeDegrees>
            </Position>
            <AltitudeMeters>1967</AltitudeMeters>
            <DistanceMeters>8118.006716846</DistanceMeters>
          </Trackpoint>
          <Trackpoint>
            <Time>2022-07-09T09:47:25.000Z</Time>
            <Position>
              <LatitudeDegrees>42.8099305741488933563232421875</LatitudeDegrees>
              <LongitudeDegrees>-0.13767032884061336517333984375</LongitudeDegrees>
            </Position>
            <AltitudeMeters>1967</AltitudeMeters>
            <DistanceMeters>8119.2384038365</DistanceMeters>
          </Trackpoint>
          <Trackpoint>
            <Time>2022-07-09T09:47:31.000Z</Time>
            <Position>
              <LatitudeDegrees>42.80990651808679103851318359375</LatitudeDegrees>
              <LongitudeDegrees>-0.13763177208602428436279296875</LongitudeDegrees>
            </Position>
            <AltitudeMeters>1967.4000244140625</AltitudeMeters>
            <DistanceMeters>8123.3696075932</DistanceMeters>
          </Trackpoint>
          <Trackpoint>
            <Time>2022-07-09T09:47:32.000Z</Time>
            <Position>
              <LatitudeDegrees>42.809900231659412384033203125</LatitudeDegrees>
              <LongitudeDegrees>-0.13762992806732654571533203125</LongitudeDegrees>
            </Position>
            <AltitudeMeters>1967.4000244140625</AltitudeMeters>
            <DistanceMeters>8124.0870435536</DistanceMeters>
          </Trackpoint>
          <Trackpoint>
            <Time>2022-07-09T09:47:34.000Z</Time>
            <Position>
              <LatitudeDegrees>42.8098836354911327362060546875</LatitudeDegrees>
              <LongitudeDegrees>-0.1376280002295970916748046875</LongitudeDegrees>
            </Position>
            <AltitudeMeters>1967.4000244140625</AltitudeMeters>
            <DistanceMeters>8125.9394552381</DistanceMeters>
          </Trackpoint>
          <Trackpoint>
            <Time>2022-07-09T09:47:35.000Z</Time>
            <Position>
              <LatitudeDegrees>42.80987131409347057342529296875</LatitudeDegrees>
              <LongitudeDegrees>-0.13762540183961391448974609375</LongitudeDegrees>
            </Position>
            <AltitudeMeters>1967.4000244140625</AltitudeMeters>
            <DistanceMeters>8127.3295762253</DistanceMeters>
          </Trackpoint>
          <Trackpoint>
            <Time>2022-07-09T09:47:38.000Z</Time>
            <Position>
              <LatitudeDegrees>42.8098363615572452545166015625</LatitudeDegrees>
              <LongitudeDegrees>-0.1376293413341045379638671875</LongitudeDegrees>
            </Position>
            <AltitudeMeters>1967.800048828125</AltitudeMeters>
            <DistanceMeters>8131.2326184952</DistanceMeters>
          </Trackpoint>
          <Trackpoint>
            <Time>2022-07-09T09:47:40.000Z</Time>
            <Position>
              <LatitudeDegrees>42.8098195977509021759033203125</LatitudeDegrees>
              <LongitudeDegrees>-0.13762054033577442169189453125</LongitudeDegrees>
            </Position>
            <AltitudeMeters>1967.800048828125</AltitudeMeters>
            <DistanceMeters>8133.2304407566</DistanceMeters>
          </Trackpoint>
          <Trackpoint>
            <Time>2022-07-09T09:47:46.000Z</Time>
            <Position>
              <LatitudeDegrees>42.80979998409748077392578125</LatitudeDegrees>
              <LongitudeDegrees>-0.1375461928546428680419921875</LongitudeDegrees>
            </Position>
            <AltitudeMeters>1968.4000244140625</AltitudeMeters>
            <DistanceMeters>8139.6817679325</DistanceMeters>
          </Trackpoint>
          <Trackpoint>
            <Time>2022-07-09T09:47:50.000Z</Time>
            <Position>
              <LatitudeDegrees>42.8097652830183506011962890625</LatitudeDegrees>
              <LongitudeDegrees>-0.13750612735748291015625</LongitudeDegrees>
            </Position>
            <AltitudeMeters>1968.800048828125</AltitudeMeters>
            <DistanceMeters>8144.7423308256</DistanceMeters>
          </Trackpoint>
          <Trackpoint>
            <Time>2022-07-09T09:47:51.000Z</Time>
            <Position>
              <LatitudeDegrees>42.8097575716674327850341796875</LatitudeDegrees>
              <LongitudeDegrees>-0.13749648816883563995361328125</LongitudeDegrees>
            </Position>
            <AltitudeMeters>1968.800048828125</AltitudeMeters>
            <DistanceMeters>8145.9022796995</DistanceMeters>
          </Trackpoint>
          <Trackpoint>
            <Time>2022-07-09T09:47:54.000Z</Time>
            <Position>
              <LatitudeDegrees>42.8097374550998210906982421875</LatitudeDegrees>
              <LongitudeDegrees>-0.137455500662326812744140625</LongitudeDegrees>
            </Position>
            <AltitudeMeters>1969.4000244140625</AltitudeMeters>
            <DistanceMeters>8149.9294396533</DistanceMeters>
          </Trackpoint>
          <Trackpoint>
            <Time>2022-07-09T09:48:00.000Z</Time>
            <Position>
              <LatitudeDegrees>42.80968791805207729339599609375</LatitudeDegrees>
              <LongitudeDegrees>-0.13734159059822559356689453125</LongitudeDegrees>
            </Position>
            <AltitudeMeters>1969.5999755859375</AltitudeMeters>
            <DistanceMeters>8160.7416258173</DistanceMeters>
          </Trackpoint>
          <Trackpoint>
            <Time>2022-07-09T09:48:02.000Z</Time>
            <Position>
              <LatitudeDegrees>42.80967853032052516937255859375</LatitudeDegrees>
              <LongitudeDegrees>-0.1373011060059070587158203125</LongitudeDegrees>
            </Position>
            <AltitudeMeters>1969.800048828125</AltitudeMeters>
            <DistanceMeters>8164.2071707485</DistanceMeters>
          </Trackpoint>
          <Trackpoint>
            <Time>2022-07-09T09:48:08.000Z</Time>
            <Position>
              <LatitudeDegrees>42.80963838100433349609375</LatitudeDegrees>
              <LongitudeDegrees>-0.1372249983251094818115234375</LongitudeDegrees>
            </Position>
            <AltitudeMeters>1970.800048828125</AltitudeMeters>
            <DistanceMeters>8171.860214314</DistanceMeters>
          </Trackpoint>
          <Trackpoint>
            <Time>2022-07-09T09:48:09.000Z</Time>
            <Position>
              <LatitudeDegrees>42.80962966382503509521484375</LatitudeDegrees>
              <LongitudeDegrees>-0.13721443712711334228515625</LongitudeDegrees>
            </Position>
            <AltitudeMeters>1971.199951171875</AltitudeMeters>
            <DistanceMeters>8173.1562059106</DistanceMeters>
          </Trackpoint>
          <Trackpoint>
            <Time>2022-07-09T09:48:12.000Z</Time>
            <Position>
              <LatitudeDegrees>42.8096016682684421539306640625</LatitudeDegrees>
              <LongitudeDegrees>-0.1371928118169307708740234375</LongitudeDegrees>
            </Position>
            <AltitudeMeters>1972.4000244140625</AltitudeMeters>
            <DistanceMeters>8176.7370868847</DistanceMeters>
          </Trackpoint>
          <Trackpoint>
            <Time>2022-07-09T09:48:15.000Z</Time>
            <Position>
              <LatitudeDegrees>42.80957157723605632781982421875</LatitudeDegrees>
              <LongitudeDegrees>-0.13718602247536182403564453125</LongitudeDegrees>
            </Position>
            <AltitudeMeters>1972.800048828125</AltitudeMeters>
            <DistanceMeters>8180.1315496614</DistanceMeters>
          </Trackpoint>
          <Trackpoint>
            <Time>2022-07-09T09:48:17.000Z</Time>
            <Position>
              <LatitudeDegrees>42.80955187976360321044921875</LatitudeDegrees>
              <LongitudeDegrees>-0.13718401081860065460205078125</LongitudeDegrees>
            </Position>
            <AltitudeMeters>1972.800048828125</AltitudeMeters>
            <DistanceMeters>8182.3315771553</DistanceMeters>
          </Trackpoint>
          <Trackpoint>
            <Time>2022-07-09T09:48:21.000Z</Time>
            <Position>
              <LatitudeDegrees>42.8095108084380626678466796875</LatitudeDegrees>
              <LongitudeDegrees>-0.13716758228838443756103515625</LongitudeDegrees>
            </Position>
            <AltitudeMeters>1972.800048828125</AltitudeMeters>
            <DistanceMeters>8187.0961980406</DistanceMeters>
          </Trackpoint>
          <Trackpoint>
            <Time>2022-07-09T09:48:22.000Z</Time>
            <Position>
              <LatitudeDegrees>42.8095042705535888671875</LatitudeDegrees>
              <LongitudeDegrees>-0.137163139879703521728515625</LongitudeDegrees>
            </Position>
            <AltitudeMeters>1972.5999755859375</AltitudeMeters>
            <DistanceMeters>8187.9136487466</DistanceMeters>
          </Trackpoint>
          <Trackpoint>
            <Time>2022-07-09T09:48:23.000Z</Time>
            <Position>
              <LatitudeDegrees>42.809497900307178497314453125</LatitudeDegrees>
              <LongitudeDegrees>-0.1371555961668491363525390625</LongitudeDegrees>
            </Position>
            <AltitudeMeters>1972.4000244140625</AltitudeMeters>
            <DistanceMeters>8188.8543652244</DistanceMeters>
          </Trackpoint>
          <Trackpoint>
            <Time>2022-07-09T09:48:26.000Z</Time>
            <Position>
              <LatitudeDegrees>42.8094816394150257110595703125</LatitudeDegrees>
              <LongitudeDegrees>-0.13713137246668338775634765625</LongitudeDegrees>
            </Position>
            <AltitudeMeters>1972.4000244140625</AltitudeMeters>
            <DistanceMeters>8191.5353987657</DistanceMeters>
          </Trackpoint>
          <Trackpoint>
            <Time>2022-07-09T09:48:32.000Z</Time>
            <Position>
              <LatitudeDegrees>42.80945205129683017730712890625</LatitudeDegrees>
              <LongitudeDegrees>-0.13709130696952342987060546875</LongitudeDegrees>
            </Position>
            <AltitudeMeters>1972.5999755859375</AltitudeMeters>
            <DistanceMeters>8196.1771400763</DistanceMeters>
          </Trackpoint>
          <Trackpoint>
            <Time>2022-07-09T09:48:33.000Z</Time>
            <Position>
              <LatitudeDegrees>42.8094457648694515228271484375</LatitudeDegrees>
              <LongitudeDegrees>-0.13708091340959072113037109375</LongitudeDegrees>
            </Position>
            <AltitudeMeters>1972.5999755859375</AltitudeMeters>
            <DistanceMeters>8197.2771538233</DistanceMeters>
          </Trackpoint>
          <Trackpoint>
            <Time>2022-07-09T09:48:38.000Z</Time>
            <Position>
              <LatitudeDegrees>42.80939974822103977203369140625</LatitudeDegrees>
              <LongitudeDegrees>-0.13702374882996082305908203125</LongitudeDegrees>
            </Position>
            <AltitudeMeters>1972.5999755859375</AltitudeMeters>
            <DistanceMeters>8204.2069407269</DistanceMeters>
          </Trackpoint>
          <Trackpoint>
            <Time>2022-07-09T09:48:41.000Z</Time>
            <Position>
              <LatitudeDegrees>42.80938566662371158599853515625</LatitudeDegrees>
              <LongitudeDegrees>-0.13699659146368503570556640625</LongitudeDegrees>
            </Position>
            <AltitudeMeters>1973</AltitudeMeters>
            <DistanceMeters>8206.9231094357</DistanceMeters>
          </Trackpoint>
          <Trackpoint>
            <Time>2022-07-09T09:48:43.000Z</Time>
            <Position>
              <LatitudeDegrees>42.8093706630170345306396484375</LatitudeDegrees>
              <LongitudeDegrees>-0.13697094283998012542724609375</LongitudeDegrees>
            </Position>
            <AltitudeMeters>1973.4000244140625</AltitudeMeters>
            <DistanceMeters>8209.600772726</DistanceMeters>
          </Trackpoint>
          <Trackpoint>
            <Time>2022-07-09T09:48:45.000Z</Time>
            <Position>
              <LatitudeDegrees>42.809359766542911529541015625</LatitudeDegrees>
              <LongitudeDegrees>-0.13694479130208492279052734375</LongitudeDegrees>
            </Position>
            <AltitudeMeters>1973.4000244140625</AltitudeMeters>
            <DistanceMeters>8212.0568042943</DistanceMeters>
          </Trackpoint>
          <Trackpoint>
            <Time>2022-07-09T09:48:48.000Z</Time>
            <Position>
              <LatitudeDegrees>42.80933436937630176544189453125</LatitudeDegrees>
              <LongitudeDegrees>-0.13693221844732761383056640625</LongitudeDegrees>
            </Position>
            <AltitudeMeters>1973.4000244140625</AltitudeMeters>
            <DistanceMeters>8215.0648163616</DistanceMeters>
          </Trackpoint>
          <Trackpoint>
            <Time>2022-07-09T09:48:53.000Z</Time>
            <Position>
              <LatitudeDegrees>42.80929061584174633026123046875</LatitudeDegrees>
              <LongitudeDegrees>-0.13685594312846660614013671875</LongitudeDegrees>
            </Position>
            <AltitudeMeters>1974.4000244140625</AltitudeMeters>
            <DistanceMeters>8222.9697596879</DistanceMeters>
          </Trackpoint>
          <Trackpoint>
            <Time>2022-07-09T09:48:56.000Z</Time>
            <Position>
              <LatitudeDegrees>42.80927804298698902130126953125</LatitudeDegrees>
              <LongitudeDegrees>-0.13681537471711635589599609375</LongitudeDegrees>
            </Position>
            <AltitudeMeters>1974.800048828125</AltitudeMeters>
            <DistanceMeters>8226.5657393135</DistanceMeters>
          </Trackpoint>
          <Trackpoint>
            <Time>2022-07-09T09:49:02.000Z</Time>
            <Position>
              <LatitudeDegrees>42.8092285059392452239990234375</LatitudeDegrees>
              <LongitudeDegrees>-0.13674614019691944122314453125</LongitudeDegrees>
            </Position>
            <AltitudeMeters>1975.4000244140625</AltitudeMeters>
            <DistanceMeters>8234.4621104956</DistanceMeters>
          </Trackpoint>
          <Trackpoint>
            <Time>2022-07-09T09:49:03.000Z</Time>
            <Position>
              <LatitudeDegrees>42.809222638607025146484375</LatitudeDegrees>
              <LongitudeDegrees>-0.13673566281795501708984375</LongitudeDegrees>
            </Position>
            <AltitudeMeters>1975.4000244140625</AltitudeMeters>
            <DistanceMeters>8235.5372150416</DistanceMeters>
          </Trackpoint>
          <Trackpoint>
            <Time>2022-07-09T09:49:05.000Z</Time>
            <Position>
              <LatitudeDegrees>42.8092132508754730224609375</LatitudeDegrees>
              <LongitudeDegrees>-0.1367157138884067535400390625</LongitudeDegrees>
            </Position>
            <AltitudeMeters>1975.4000244140625</AltitudeMeters>
            <DistanceMeters>8237.4753873252</DistanceMeters>
          </Trackpoint>
          <Trackpoint>
            <Time>2022-07-09T09:49:10.000Z</Time>
            <Position>
              <LatitudeDegrees>42.8091872669756412506103515625</LatitudeDegrees>
              <LongitudeDegrees>-0.13667003251612186431884765625</LongitudeDegrees>
            </Position>
            <AltitudeMeters>1975.5999755859375</AltitudeMeters>
            <DistanceMeters>8242.1952600551</DistanceMeters>
          </Trackpoint>
          <Trackpoint>
            <Time>2022-07-09T09:49:13.000Z</Time>
            <Position>
              <LatitudeDegrees>42.8091661445796489715576171875</LatitudeDegrees>
              <LongitudeDegrees>-0.13663449324667453765869140625</LongitudeDegrees>
            </Position>
            <AltitudeMeters>1976.4000244140625</AltitudeMeters>
            <DistanceMeters>8245.9304264645</DistanceMeters>
          </Trackpoint>
          <Trackpoint>
            <Time>2022-07-09T09:49:14.000Z</Time>
            <Position>
              <LatitudeDegrees>42.8091601096093654632568359375</LatitudeDegrees>
              <LongitudeDegrees>-0.13662544079124927520751953125</LongitudeDegrees>
            </Position>
            <AltitudeMeters>1976.800048828125</AltitudeMeters>
            <DistanceMeters>8246.927075053</DistanceMeters>
          </Trackpoint>
          <Trackpoint>
            <Time>2022-07-09T09:49:15.000Z</Time>
            <Position>
              <LatitudeDegrees>42.80915365554392337799072265625</LatitudeDegrees>
              <LongitudeDegrees>-0.13661588542163372039794921875</LongitudeDegrees>
            </Position>
            <AltitudeMeters>1977</AltitudeMeters>
            <DistanceMeters>8247.9852477606</DistanceMeters>
          </Trackpoint>
          <Trackpoint>
            <Time>2022-07-09T09:49:17.000Z</Time>
            <Position>
              <LatitudeDegrees>42.809137813746929168701171875</LatitudeDegrees>
              <LongitudeDegrees>-0.13659895397722721099853515625</LongitudeDegrees>
            </Position>
            <AltitudeMeters>1977.4000244140625</AltitudeMeters>
            <DistanceMeters>8250.2259446394</DistanceMeters>
          </Trackpoint>
          <Trackpoint>
            <Time>2022-07-09T09:49:19.000Z</Time>
            <Position>
              <LatitudeDegrees>42.80912331305444240570068359375</LatitudeDegrees>
              <LongitudeDegrees>-0.13658034615218639373779296875</LongitudeDegrees>
            </Position>
            <AltitudeMeters>1977.800048828125</AltitudeMeters>
            <DistanceMeters>8252.4423294403</DistanceMeters>
          </Trackpoint>
          <Trackpoint>
            <Time>2022-07-09T09:49:22.000Z</Time>
            <Position>
              <LatitudeDegrees>42.80910185538232326507568359375</LatitudeDegrees>
              <LongitudeDegrees>-0.13655285350978374481201171875</LongitudeDegrees>
            </Position>
            <AltitudeMeters>1978.199951171875</AltitudeMeters>
            <DistanceMeters>8255.7204067683</DistanceMeters>
          </Trackpoint>
          <Trackpoint>
            <Time>2022-07-09T09:49:23.000Z</Time>
            <Position>
              <LatitudeDegrees>42.809090875089168548583984375</LatitudeDegrees>
              <LongitudeDegrees>-0.13654581271111965179443359375</LongitudeDegrees>
            </Position>
            <AltitudeMeters>1978.4000244140625</AltitudeMeters>
            <DistanceMeters>8257.0743290401</DistanceMeters>
          </Trackpoint>
          <Trackpoint>
            <Time>2022-07-09T09:49:27.000Z</Time>
            <Position>
              <LatitudeDegrees>42.80904469080269336700439453125</LatitudeDegrees>
              <LongitudeDegrees>-0.136508010327816009521484375</LongitudeDegrees>
            </Position>
            <AltitudeMeters>1978.800048828125</AltitudeMeters>
            <DistanceMeters>8263.0700553783</DistanceMeters>
          </Trackpoint>
          <Trackpoint>
            <Time>2022-07-09T09:49:29.000Z</Time>
            <Position>
              <LatitudeDegrees>42.8090347163379192352294921875</LatitudeDegrees>
              <LongitudeDegrees>-0.1364909112453460693359375</LongitudeDegrees>
            </Position>
            <AltitudeMeters>1979.199951171875</AltitudeMeters>
            <DistanceMeters>8264.8529145731</DistanceMeters>
          </Trackpoint>
          <Trackpoint>
            <Time>2022-07-09T09:49:34.000Z</Time>
            <Position>
              <LatitudeDegrees>42.808982245624065399169921875</LatitudeDegrees>
              <LongitudeDegrees>-0.13647641055285930633544921875</LongitudeDegrees>
            </Position>
            <AltitudeMeters>1979.800048828125</AltitudeMeters>
            <DistanceMeters>8270.8116275698</DistanceMeters>
          </Trackpoint>
          <Trackpoint>
            <Time>2022-07-09T09:49:35.000Z</Time>
            <Position>
              <LatitudeDegrees>42.80896623618900775909423828125</LatitudeDegrees>
              <LongitudeDegrees>-0.13646970503032207489013671875</LongitudeDegrees>
            </Position>
            <AltitudeMeters>1979.800048828125</AltitudeMeters>
            <DistanceMeters>8272.6737632669</DistanceMeters>
          </Trackpoint>
          <Trackpoint>
            <Time>2022-07-09T09:49:38.000Z</Time>
            <Position>
              <LatitudeDegrees>42.80893203802406787872314453125</LatitudeDegrees>
              <LongitudeDegrees>-0.13644640333950519561767578125</LongitudeDegrees>
            </Position>
            <AltitudeMeters>1980.199951171875</AltitudeMeters>
            <DistanceMeters>8276.9277347283</DistanceMeters>
          </Trackpoint>
          <Trackpoint>
            <Time>2022-07-09T09:49:42.000Z</Time>
            <Position>
              <LatitudeDegrees>42.80889783985912799835205078125</LatitudeDegrees>
              <LongitudeDegrees>-0.13641689904034137725830078125</LongitudeDegrees>
            </Position>
            <AltitudeMeters>1980.4000244140625</AltitudeMeters>
            <DistanceMeters>8281.4332437834</DistanceMeters>
          </Trackpoint>
          <Trackpoint>
            <Time>2022-07-09T09:49:48.000Z</Time>
            <Position>
              <LatitudeDegrees>42.80883346684277057647705078125</LatitudeDegrees>
              <LongitudeDegrees>-0.13642243109643459320068359375</LongitudeDegrees>
            </Position>
            <AltitudeMeters>1980.199951171875</AltitudeMeters>
            <DistanceMeters>8288.6126362606</DistanceMeters>
          </Trackpoint>
          <Trackpoint>
            <Time>2022-07-09T09:49:49.000Z</Time>
            <Position>
              <LatitudeDegrees>42.80882223509252071380615234375</LatitudeDegrees>
              <LongitudeDegrees>-0.13643265701830387115478515625</LongitudeDegrees>
            </Position>
            <AltitudeMeters>1980.199951171875</AltitudeMeters>
            <DistanceMeters>8290.1151405405</DistanceMeters>
          </Trackpoint>
          <Trackpoint>
            <Time>2022-07-09T09:49:54.000Z</Time>
            <Position>
              <LatitudeDegrees>42.80876171775162220001220703125</LatitudeDegrees>
              <LongitudeDegrees>-0.13644590042531490325927734375</LongitudeDegrees>
            </Position>
            <AltitudeMeters>1980</AltitudeMeters>
            <DistanceMeters>8296.937238018</DistanceMeters>
          </Trackpoint>
          <Trackpoint>
            <Time>2022-07-09T09:49:56.000Z</Time>
            <Position>
              <LatitudeDegrees>42.8087450377643108367919921875</LatitudeDegrees>
              <LongitudeDegrees>-0.13644288294017314910888671875</LongitudeDegrees>
            </Position>
            <AltitudeMeters>1980.199951171875</AltitudeMeters>
            <DistanceMeters>8298.8090472124</DistanceMeters>
          </Trackpoint>
          <Trackpoint>
            <Time>2022-07-09T09:50:00.000Z</Time>
            <Position>
              <LatitudeDegrees>42.80870103277266025543212890625</LatitudeDegrees>
              <LongitudeDegrees>-0.13645939528942108154296875</LongitudeDegrees>
            </Position>
            <AltitudeMeters>1980.800048828125</AltitudeMeters>
            <DistanceMeters>8303.8892006034</DistanceMeters>
          </Trackpoint>
          <Trackpoint>
            <Time>2022-07-09T09:50:01.000Z</Time>
            <Position>
              <LatitudeDegrees>42.8086875379085540771484375</LatitudeDegrees>
              <LongitudeDegrees>-0.13647054322063922882080078125</LongitudeDegrees>
            </Position>
            <AltitudeMeters>1980.800048828125</AltitudeMeters>
            <DistanceMeters>8305.641406639</DistanceMeters>
          </Trackpoint>
          <Trackpoint>
            <Time>2022-07-09T09:50:02.000Z</Time>
            <Position>
              <LatitudeDegrees>42.80867722816765308380126953125</LatitudeDegrees>
              <LongitudeDegrees>-0.13648127205669879913330078125</LongitudeDegrees>
            </Position>
            <AltitudeMeters>1981</AltitudeMeters>
            <DistanceMeters>8307.0825581168</DistanceMeters>
          </Trackpoint>
          <Trackpoint>
            <Time>2022-07-09T09:50:05.000Z</Time>
            <Position>
              <LatitudeDegrees>42.80865711160004138946533203125</LatitudeDegrees>
              <LongitudeDegrees>-0.13651547022163867950439453125</LongitudeDegrees>
            </Position>
            <AltitudeMeters>1981.800048828125</AltitudeMeters>
            <DistanceMeters>8310.6609164552</DistanceMeters>
          </Trackpoint>
          <Trackpoint>
            <Time>2022-07-09T09:50:06.000Z</Time>
            <Position>
              <LatitudeDegrees>42.80865225009620189666748046875</LatitudeDegrees>
              <LongitudeDegrees>-0.13653106056153774261474609375</LongitudeDegrees>
            </Position>
            <AltitudeMeters>1982</AltitudeMeters>
            <DistanceMeters>8312.0445263012</DistanceMeters>
          </Trackpoint>
          <Trackpoint>
            <Time>2022-07-09T09:50:07.000Z</Time>
            <Position>
              <LatitudeDegrees>42.8086481429636478424072265625</LatitudeDegrees>
              <LongitudeDegrees>-0.13653852045536041259765625</LongitudeDegrees>
            </Position>
            <AltitudeMeters>1982</AltitudeMeters>
            <DistanceMeters>8312.8047400162</DistanceMeters>
          </Trackpoint>
          <Trackpoint>
            <Time>2022-07-09T09:50:11.000Z</Time>
            <Position>
              <LatitudeDegrees>42.80861620791256427764892578125</LatitudeDegrees>
              <LongitudeDegrees>-0.1365284621715545654296875</LongitudeDegrees>
            </Position>
            <AltitudeMeters>1982.4000244140625</AltitudeMeters>
            <DistanceMeters>8316.4543102313</DistanceMeters>
          </Trackpoint>
          <Trackpoint>
            <Time>2022-07-09T09:50:13.000Z</Time>
            <Position>
              <LatitudeDegrees>42.8086089156568050384521484375</LatitudeDegrees>
              <LongitudeDegrees>-0.13650390319526195526123046875</LongitudeDegrees>
            </Position>
            <AltitudeMeters>1982.199951171875</AltitudeMeters>
            <DistanceMeters>8318.6170815086</DistanceMeters>
          </Trackpoint>
          <Trackpoint>
            <Time>2022-07-09T09:50:15.000Z</Time>
            <Position>
              <LatitudeDegrees>42.80860665254294872283935546875</LatitudeDegrees>
              <LongitudeDegrees>-0.13648881576955318450927734375</LongitudeDegrees>
            </Position>
            <AltitudeMeters>1982</AltitudeMeters>
            <DistanceMeters>8319.8705699614</DistanceMeters>
          </Trackpoint>
          <Trackpoint>
            <Time>2022-07-09T09:50:20.000Z</Time>
            <Position>
              <LatitudeDegrees>42.808584272861480712890625</LatitudeDegrees>
              <LongitudeDegrees>-0.13648680411279201507568359375</LongitudeDegrees>
            </Position>
            <AltitudeMeters>1981.800048828125</AltitudeMeters>
            <DistanceMeters>8322.364908084</DistanceMeters>
          </Trackpoint>
          <Trackpoint>
            <Time>2022-07-09T09:50:26.000Z</Time>
            <Position>
              <LatitudeDegrees>42.8085857816040515899658203125</LatitudeDegrees>
              <LongitudeDegrees>-0.1364528574049472808837890625</LongitudeDegrees>
            </Position>
            <AltitudeMeters>1981.5999755859375</AltitudeMeters>
            <DistanceMeters>8325.1419002127</DistanceMeters>
          </Trackpoint>
          <Trackpoint>
            <Time>2022-07-09T09:50:28.000Z</Time>
            <Position>
              <LatitudeDegrees>42.80858603306114673614501953125</LatitudeDegrees>
              <LongitudeDegrees>-0.13644321821630001068115234375</LongitudeDegrees>
            </Position>
            <AltitudeMeters>1981.4000244140625</AltitudeMeters>
            <DistanceMeters>8325.9255105739</DistanceMeters>
          </Trackpoint>
          <Trackpoint>
            <Time>2022-07-09T09:50:32.000Z</Time>
            <Position>
              <LatitudeDegrees>42.80858636833727359771728515625</LatitudeDegrees>
              <LongitudeDegrees>-0.136459060013294219970703125</LongitudeDegrees>
            </Position>
            <AltitudeMeters>1981.4000244140625</AltitudeMeters>
            <DistanceMeters>8327.218013627</DistanceMeters>
          </Trackpoint>
          <Trackpoint>
            <Time>2022-07-09T09:50:38.000Z</Time>
            <Position>
              <LatitudeDegrees>42.80860480852425098419189453125</LatitudeDegrees>
              <LongitudeDegrees>-0.13648755848407745361328125</LongitudeDegrees>
            </Position>
            <AltitudeMeters>1981.4000244140625</AltitudeMeters>
            <DistanceMeters>8330.3206031082</DistanceMeters>
          </Trackpoint>
          <Trackpoint>
            <Time>2022-07-09T09:50:40.000Z</Time>
            <Position>
              <LatitudeDegrees>42.80859625898301601409912109375</LatitudeDegrees>
              <LongitudeDegrees>-0.13649585656821727752685546875</LongitudeDegrees>
            </Position>
            <AltitudeMeters>1981.4000244140625</AltitudeMeters>
            <DistanceMeters>8331.4921711257</DistanceMeters>
          </Trackpoint>
          <Trackpoint>
            <Time>2022-07-09T09:50:42.000Z</Time>
            <Position>
              <LatitudeDegrees>42.80859961174428462982177734375</LatitudeDegrees>
              <LongitudeDegrees>-0.13648755848407745361328125</LongitudeDegrees>
            </Position>
            <AltitudeMeters>1981.4000244140625</AltitudeMeters>
            <DistanceMeters>8332.2699983055</DistanceMeters>
          </Trackpoint>
          <Trackpoint>
            <Time>2022-07-09T09:50:48.000Z</Time>
            <Position>
              <LatitudeDegrees>42.8086119331419467926025390625</LatitudeDegrees>
              <LongitudeDegrees>-0.136486552655696868896484375</LongitudeDegrees>
            </Position>
            <AltitudeMeters>1981.4000244140625</AltitudeMeters>
            <DistanceMeters>8333.6470662244</DistanceMeters>
          </Trackpoint>
          <Trackpoint>
            <Time>2022-07-09T09:50:53.000Z</Time>
            <Position>
              <LatitudeDegrees>42.808605730533599853515625</LatitudeDegrees>
              <LongitudeDegrees>-0.136535502970218658447265625</LongitudeDegrees>
            </Position>
            <AltitudeMeters>1981.5999755859375</AltitudeMeters>
            <DistanceMeters>8337.7032712588</DistanceMeters>
          </Trackpoint>
          <Trackpoint>
            <Time>2022-07-09T09:50:54.000Z</Time>
            <Position>
              <LatitudeDegrees>42.80860715545713901519775390625</LatitudeDegrees>
              <LongitudeDegrees>-0.13655100949108600616455078125</LongitudeDegrees>
            </Position>
            <AltitudeMeters>1981.5999755859375</AltitudeMeters>
            <DistanceMeters>8338.9852517239</DistanceMeters>
          </Trackpoint>
          <Trackpoint>
            <Time>2022-07-09T09:50:55.000Z</Time>
            <Position>
              <LatitudeDegrees>42.80860950239002704620361328125</LatitudeDegrees>
              <LongitudeDegrees>-0.1365641690790653228759765625</LongitudeDegrees>
            </Position>
            <AltitudeMeters>1981.5999755859375</AltitudeMeters>
            <DistanceMeters>8340.0934441243</DistanceMeters>
          </Trackpoint>
          <Trackpoint>
            <Time>2022-07-09T09:50:57.000Z</Time>
            <Position>
              <LatitudeDegrees>42.80861377716064453125</LatitudeDegrees>
              <LongitudeDegrees>-0.1365795917809009552001953125</LongitudeDegrees>
            </Position>
            <AltitudeMeters>1981.5999755859375</AltitudeMeters>
            <DistanceMeters>8341.4373248068</DistanceMeters>
          </Trackpoint>
          <Trackpoint>
            <Time>2022-07-09T09:51:03.000Z</Time>
            <Position>
              <LatitudeDegrees>42.8086146153509616851806640625</LatitudeDegrees>
              <LongitudeDegrees>-0.1366439647972583770751953125</LongitudeDegrees>
            </Position>
            <AltitudeMeters>1981.5999755859375</AltitudeMeters>
            <DistanceMeters>8346.6948017677</DistanceMeters>
          </Trackpoint>
          <Trackpoint>
            <Time>2022-07-09T09:51:08.000Z</Time>
            <Position>
              <LatitudeDegrees>42.8086297027766704559326171875</LatitudeDegrees>
              <LongitudeDegrees>-0.1366840302944183349609375</LongitudeDegrees>
            </Position>
            <AltitudeMeters>1982</AltitudeMeters>
            <DistanceMeters>8350.3714883789</DistanceMeters>
          </Trackpoint>
          <Trackpoint>
            <Time>2022-07-09T09:51:13.000Z</Time>
            <Position>
              <LatitudeDegrees>42.80866733752191066741943359375</LatitudeDegrees>
              <LongitudeDegrees>-0.13669853098690509796142578125</LongitudeDegrees>
            </Position>
            <AltitudeMeters>1981.5999755859375</AltitudeMeters>
            <DistanceMeters>8354.7240853484</DistanceMeters>
          </Trackpoint>
          <Trackpoint>
            <Time>2022-07-09T09:51:18.000Z</Time>
            <Position>
              <LatitudeDegrees>42.8087024576961994171142578125</LatitudeDegrees>
              <LongitudeDegrees>-0.13673909939825534820556640625</LongitudeDegrees>
            </Position>
            <AltitudeMeters>1981.5999755859375</AltitudeMeters>
            <DistanceMeters>8359.8476029119</DistanceMeters>
          </Trackpoint>
          <Trackpoint>
            <Time>2022-07-09T09:51:19.000Z</Time>
            <Position>
              <LatitudeDegrees>42.8087078221142292022705078125</LatitudeDegrees>
              <LongitudeDegrees>-0.136746056377887725830078125</LongitudeDegrees>
            </Position>
            <AltitudeMeters>1981.5999755859375</AltitudeMeters>
            <DistanceMeters>8360.6705583987</DistanceMeters>
          </Trackpoint>
          <Trackpoint>
            <Time>2022-07-09T09:51:20.000Z</Time>
            <Position>
              <LatitudeDegrees>42.808715365827083587646484375</LatitudeDegrees>
              <LongitudeDegrees>-0.13675435446202754974365234375</LongitudeDegrees>
            </Position>
            <AltitudeMeters>1981.5999755859375</AltitudeMeters>
            <DistanceMeters>8361.7498544013</DistanceMeters>
          </Trackpoint>
          <Trackpoint>
            <Time>2022-07-09T09:51:25.000Z</Time>
            <Position>
              <LatitudeDegrees>42.80870564281940460205078125</LatitudeDegrees>
              <LongitudeDegrees>-0.1367891393601894378662109375</LongitudeDegrees>
            </Position>
            <AltitudeMeters>1981.800048828125</AltitudeMeters>
            <DistanceMeters>8364.7877382249</DistanceMeters>
          </Trackpoint>
          <Trackpoint>
            <Time>2022-07-09T09:51:27.000Z</Time>
            <Position>
              <LatitudeDegrees>42.80867454595863819122314453125</LatitudeDegrees>
              <LongitudeDegrees>-0.13679140247404575347900390625</LongitudeDegrees>
            </Position>
            <AltitudeMeters>1982</AltitudeMeters>
            <DistanceMeters>8368.2532831561</DistanceMeters>
          </Trackpoint>
          <Trackpoint>
            <Time>2022-07-09T09:51:29.000Z</Time>
            <Position>
              <LatitudeDegrees>42.808645628392696380615234375</LatitudeDegrees>
              <LongitudeDegrees>-0.13677723705768585205078125</LongitudeDegrees>
            </Position>
            <AltitudeMeters>1982</AltitudeMeters>
            <DistanceMeters>8371.6729248033</DistanceMeters>
          </Trackpoint>
          <Trackpoint>
            <Time>2022-07-09T09:51:30.000Z</Time>
            <Position>
              <LatitudeDegrees>42.8086387552320957183837890625</LatitudeDegrees>
              <LongitudeDegrees>-0.136766172945499420166015625</LongitudeDegrees>
            </Position>
            <AltitudeMeters>1982.199951171875</AltitudeMeters>
            <DistanceMeters>8372.8598080854</DistanceMeters>
          </Trackpoint>
          <Trackpoint>
            <Time>2022-07-09T09:51:35.000Z</Time>
            <Position>
              <LatitudeDegrees>42.8086065687239170074462890625</LatitudeDegrees>
              <LongitudeDegrees>-0.1367671787738800048828125</LongitudeDegrees>
            </Position>
            <AltitudeMeters>1982.5999755859375</AltitudeMeters>
            <DistanceMeters>8376.4444696844</DistanceMeters>
          </Trackpoint>
          <Trackpoint>
            <Time>2022-07-09T09:51:36.000Z</Time>
            <Position>
              <LatitudeDegrees>42.808596007525920867919921875</LatitudeDegrees>
              <LongitudeDegrees>-0.13678369112312793731689453125</LongitudeDegrees>
            </Position>
            <AltitudeMeters>1982.5999755859375</AltitudeMeters>
            <DistanceMeters>8378.2323866459</DistanceMeters>
          </Trackpoint>
          <Trackpoint>
            <Time>2022-07-09T09:51:41.000Z</Time>
            <Position>
              <LatitudeDegrees>42.8085582889616489410400390625</LatitudeDegrees>
              <LongitudeDegrees>-0.13686516322195529937744140625</LongitudeDegrees>
            </Position>
            <AltitudeMeters>1982.800048828125</AltitudeMeters>
            <DistanceMeters>8386.0995426725</DistanceMeters>
          </Trackpoint>
          <Trackpoint>
            <Time>2022-07-09T09:51:43.000Z</Time>
            <Position>
              <LatitudeDegrees>42.808535657823085784912109375</LatitudeDegrees>
              <LongitudeDegrees>-0.13689500279724597930908203125</LongitudeDegrees>
            </Position>
            <AltitudeMeters>1982.4000244140625</AltitudeMeters>
            <DistanceMeters>8389.6065305705</DistanceMeters>
          </Trackpoint>
          <Trackpoint>
            <Time>2022-07-09T09:51:45.000Z</Time>
            <Position>
              <LatitudeDegrees>42.80852216295897960662841796875</LatitudeDegrees>
              <LongitudeDegrees>-0.136907659471035003662109375</LongitudeDegrees>
            </Position>
            <AltitudeMeters>1982.199951171875</AltitudeMeters>
            <DistanceMeters>8391.4294590198</DistanceMeters>
          </Trackpoint>
          <Trackpoint>
            <Time>2022-07-09T09:51:47.000Z</Time>
            <Position>
              <LatitudeDegrees>42.808508165180683135986328125</LatitudeDegrees>
              <LongitudeDegrees>-0.13689852319657802581787109375</LongitudeDegrees>
            </Position>
            <AltitudeMeters>1982</AltitudeMeters>
            <DistanceMeters>8393.1583185581</DistanceMeters>
          </Trackpoint>
          <Trackpoint>
            <Time>2022-07-09T09:51:53.000Z</Time>
            <Position>
              <LatitudeDegrees>42.80844622291624546051025390625</LatitudeDegrees>
              <LongitudeDegrees>-0.1368699409067630767822265625</LongitudeDegrees>
            </Position>
            <AltitudeMeters>1981.5999755859375</AltitudeMeters>
            <DistanceMeters>8400.4363971795</DistanceMeters>
          </Trackpoint>
          <Trackpoint>
            <Time>2022-07-09T09:51:54.000Z</Time>
            <Position>
              <LatitudeDegrees>42.80843482352793216705322265625</LatitudeDegrees>
              <LongitudeDegrees>-0.13686365447938442230224609375</LongitudeDegrees>
            </Position>
            <AltitudeMeters>1981.5999755859375</AltitudeMeters>
            <DistanceMeters>8401.8068919443</DistanceMeters>
          </Trackpoint>
          <Trackpoint>
            <Time>2022-07-09T09:51:59.000Z</Time>
            <Position>
              <LatitudeDegrees>42.80837975442409515380859375</LatitudeDegrees>
              <LongitudeDegrees>-0.136814452707767486572265625</LongitudeDegrees>
            </Position>
            <AltitudeMeters>1982</AltitudeMeters>
            <DistanceMeters>8409.1344314042</DistanceMeters>
          </Trackpoint>
          <Trackpoint>
            <Time>2022-07-09T09:52:05.000Z</Time>
            <Position>
              <LatitudeDegrees>42.80833281576633453369140625</LatitudeDegrees>
              <LongitudeDegrees>-0.13681537471711635589599609375</LongitudeDegrees>
            </Position>
            <AltitudeMeters>1982</AltitudeMeters>
            <DistanceMeters>8414.358308414</DistanceMeters>
          </Trackpoint>
          <Trackpoint>
            <Time>2022-07-09T09:52:06.000Z</Time>
            <Position>
              <LatitudeDegrees>42.80832719989120960235595703125</LatitudeDegrees>
              <LongitudeDegrees>-0.1368099264800548553466796875</LongitudeDegrees>
            </Position>
            <AltitudeMeters>1982.199951171875</AltitudeMeters>
            <DistanceMeters>8415.1244382782</DistanceMeters>
          </Trackpoint>
          <Trackpoint>
            <Time>2022-07-09T09:52:12.000Z</Time>
            <Position>
              <LatitudeDegrees>42.80826617963612079620361328125</LatitudeDegrees>
              <LongitudeDegrees>-0.1367629878222942352294921875</LongitudeDegrees>
            </Position>
            <AltitudeMeters>1982.199951171875</AltitudeMeters>
            <DistanceMeters>8422.9235789313</DistanceMeters>
          </Trackpoint>
          <Trackpoint>
            <Time>2022-07-09T09:52:14.000Z</Time>
            <Position>
              <LatitudeDegrees>42.80824656598269939422607421875</LatitudeDegrees>
              <LongitudeDegrees>-0.13675988651812076568603515625</LongitudeDegrees>
            </Position>
            <AltitudeMeters>1982.199951171875</AltitudeMeters>
            <DistanceMeters>8425.1215532027</DistanceMeters>
          </Trackpoint>
          <Trackpoint>
            <Time>2022-07-09T09:52:19.000Z</Time>
            <Position>
              <LatitudeDegrees>42.80821991153061389923095703125</LatitudeDegrees>
              <LongitudeDegrees>-0.13675703667104244232177734375</LongitudeDegrees>
            </Position>
            <AltitudeMeters>1982.4000244140625</AltitudeMeters>
            <DistanceMeters>8428.0963599048</DistanceMeters>
          </Trackpoint>
          <Trackpoint>
            <Time>2022-07-09T09:52:21.000Z</Time>
            <Position>
              <LatitudeDegrees>42.80820096842944622039794921875</LatitudeDegrees>
              <LongitudeDegrees>-0.13676516711711883544921875</LongitudeDegrees>
            </Position>
            <AltitudeMeters>1982.5999755859375</AltitudeMeters>
            <DistanceMeters>8430.3086667173</DistanceMeters>
          </Trackpoint>
          <Trackpoint>
            <Time>2022-07-09T09:52:22.000Z</Time>
            <Position>
              <LatitudeDegrees>42.80818889848887920379638671875</LatitudeDegrees>
              <LongitudeDegrees>-0.136767514050006866455078125</LongitudeDegrees>
            </Position>
            <AltitudeMeters>1982.5999755859375</AltitudeMeters>
            <DistanceMeters>8431.6659196762</DistanceMeters>
          </Trackpoint>
          <Trackpoint>
            <Time>2022-07-09T09:52:25.000Z</Time>
            <Position>
              <LatitudeDegrees>42.80816383659839630126953125</LatitudeDegrees>
              <LongitudeDegrees>-0.13677589595317840576171875</LongitudeDegrees>
            </Position>
            <AltitudeMeters>1982.199951171875</AltitudeMeters>
            <DistanceMeters>8434.5388084436</DistanceMeters>
          </Trackpoint>
          <Trackpoint>
            <Time>2022-07-09T09:52:28.000Z</Time>
            <Position>
              <LatitudeDegrees>42.8081318177282810211181640625</LatitudeDegrees>
              <LongitudeDegrees>-0.13677665032446384429931640625</LongitudeDegrees>
            </Position>
            <AltitudeMeters>1981.800048828125</AltitudeMeters>
            <DistanceMeters>8438.1045268331</DistanceMeters>
          </Trackpoint>
          <Trackpoint>
            <Time>2022-07-09T09:52:29.000Z</Time>
            <Position>
              <LatitudeDegrees>42.8081180714070796966552734375</LatitudeDegrees>
              <LongitudeDegrees>-0.13677547685801982879638671875</LongitudeDegrees>
            </Position>
            <AltitudeMeters>1981.5999755859375</AltitudeMeters>
            <DistanceMeters>8439.6367865615</DistanceMeters>
          </Trackpoint>
          <Trackpoint>
            <Time>2022-07-09T09:52:32.000Z</Time>
            <Position>
              <LatitudeDegrees>42.80807708390057086944580078125</LatitudeDegrees>
              <LongitudeDegrees>-0.13675603084266185760498046875</LongitudeDegrees>
            </Position>
            <AltitudeMeters>1981.5999755859375</AltitudeMeters>
            <DistanceMeters>8444.4654154951</DistanceMeters>
          </Trackpoint>
          <Trackpoint>
            <Time>2022-07-09T09:52:33.000Z</Time>
            <Position>
              <LatitudeDegrees>42.8080681152641773223876953125</LatitudeDegrees>
              <LongitudeDegrees>-0.13674639165401458740234375</LongitudeDegrees>
            </Position>
            <AltitudeMeters>1981.800048828125</AltitudeMeters>
            <DistanceMeters>8445.7332299954</DistanceMeters>
          </Trackpoint>
          <Trackpoint>
            <Time>2022-07-09T09:52:38.000Z</Time>
            <Position>
              <LatitudeDegrees>42.808032073080539703369140625</LatitudeDegrees>
              <LongitudeDegrees>-0.13671093620359897613525390625</LongitudeDegrees>
            </Position>
            <AltitudeMeters>1981</AltitudeMeters>
            <DistanceMeters>8450.6800984152</DistanceMeters>
          </Trackpoint>
          <Trackpoint>
            <Time>2022-07-09T09:52:40.000Z</Time>
            <Position>
              <LatitudeDegrees>42.80801874585449695587158203125</LatitudeDegrees>
              <LongitudeDegrees>-0.1366885565221309661865234375</LongitudeDegrees>
            </Position>
            <AltitudeMeters>1980.5999755859375</AltitudeMeters>
            <DistanceMeters>8453.0347675929</DistanceMeters>
          </Trackpoint>
          <Trackpoint>
            <Time>2022-07-09T09:52:43.000Z</Time>
            <Position>
              <LatitudeDegrees>42.8079960308969020843505859375</LatitudeDegrees>
              <LongitudeDegrees>-0.1366516761481761932373046875</LongitudeDegrees>
            </Position>
            <AltitudeMeters>1981.199951171875</AltitudeMeters>
            <DistanceMeters>8456.9666234998</DistanceMeters>
          </Trackpoint>
          <Trackpoint>
            <Time>2022-07-09T09:52:46.000Z</Time>
            <Position>
              <LatitudeDegrees>42.80797205865383148193359375</LatitudeDegrees>
              <LongitudeDegrees>-0.13665192760527133941650390625</LongitudeDegrees>
            </Position>
            <AltitudeMeters>1981.199951171875</AltitudeMeters>
            <DistanceMeters>8459.6341504889</DistanceMeters>
          </Trackpoint>
          <Trackpoint>
            <Time>2022-07-09T09:52:48.000Z</Time>
            <Position>
              <LatitudeDegrees>42.8079490922391414642333984375</LatitudeDegrees>
              <LongitudeDegrees>-0.13665762729942798614501953125</LongitudeDegrees>
            </Position>
            <AltitudeMeters>1981.4000244140625</AltitudeMeters>
            <DistanceMeters>8462.2313541975</DistanceMeters>
          </Trackpoint>
          <Trackpoint>
            <Time>2022-07-09T09:52:50.000Z</Time>
            <Position>
              <LatitudeDegrees>42.8079232759773731231689453125</LatitudeDegrees>
              <LongitudeDegrees>-0.13665410690009593963623046875</LongitudeDegrees>
            </Position>
            <AltitudeMeters>1981.4000244140625</AltitudeMeters>
            <DistanceMeters>8465.1183527353</DistanceMeters>
          </Trackpoint>
          <Trackpoint>
            <Time>2022-07-09T09:52:52.000Z</Time>
            <Position>
              <LatitudeDegrees>42.8079018183052539825439453125</LatitudeDegrees>
              <LongitudeDegrees>-0.1366473175585269927978515625</LongitudeDegrees>
            </Position>
            <AltitudeMeters>1981.5999755859375</AltitudeMeters>
            <DistanceMeters>8467.5707048536</DistanceMeters>
          </Trackpoint>
          <Trackpoint>
            <Time>2022-07-09T09:52:55.000Z</Time>
            <Position>
              <LatitudeDegrees>42.80786636285483837127685546875</LatitudeDegrees>
              <LongitudeDegrees>-0.13664606027305126190185546875</LongitudeDegrees>
            </Position>
            <AltitudeMeters>1981.4000244140625</AltitudeMeters>
            <DistanceMeters>8471.518604541</DistanceMeters>
          </Trackpoint>
          <Trackpoint>
            <Time>2022-07-09T09:52:58.000Z</Time>
            <Position>
              <LatitudeDegrees>42.8078418038785457611083984375</LatitudeDegrees>
              <LongitudeDegrees>-0.1366526819765567779541015625</LongitudeDegrees>
            </Position>
            <AltitudeMeters>1981.199951171875</AltitudeMeters>
            <DistanceMeters>8474.3053348369</DistanceMeters>
          </Trackpoint>
          <Trackpoint>
            <Time>2022-07-09T09:53:00.000Z</Time>
            <Position>
              <LatitudeDegrees>42.80782227404415607452392578125</LatitudeDegrees>
              <LongitudeDegrees>-0.136665590107440948486328125</LongitudeDegrees>
            </Position>
            <AltitudeMeters>1981.199951171875</AltitudeMeters>
            <DistanceMeters>8476.7224528438</DistanceMeters>
          </Trackpoint>
          <Trackpoint>
            <Time>2022-07-09T09:53:01.000Z</Time>
            <Position>
              <LatitudeDegrees>42.80781439505517482757568359375</LatitudeDegrees>
              <LongitudeDegrees>-0.13667657040059566497802734375</LongitudeDegrees>
            </Position>
            <AltitudeMeters>1981.4000244140625</AltitudeMeters>
            <DistanceMeters>8477.9759412965</DistanceMeters>
          </Trackpoint>
          <Trackpoint>
            <Time>2022-07-09T09:53:03.000Z</Time>
            <Position>
              <LatitudeDegrees>42.80779897235333919525146484375</LatitudeDegrees>
              <LongitudeDegrees>-0.1366862095892429351806640625</LongitudeDegrees>
            </Position>
            <AltitudeMeters>1981.199951171875</AltitudeMeters>
            <DistanceMeters>8479.864559891</DistanceMeters>
          </Trackpoint>
          <Trackpoint>
            <Time>2022-07-09T09:53:04.000Z</Time>
            <Position>
              <LatitudeDegrees>42.807791344821453094482421875</LatitudeDegrees>
              <LongitudeDegrees>-0.1366852037608623504638671875</LongitudeDegrees>
            </Position>
            <AltitudeMeters>1981.199951171875</AltitudeMeters>
            <DistanceMeters>8480.725063388</DistanceMeters>
          </Trackpoint>
          <Trackpoint>
            <Time>2022-07-09T09:53:08.000Z</Time>
            <Position>
              <LatitudeDegrees>42.8077589906752109527587890625</LatitudeDegrees>
              <LongitudeDegrees>-0.13665343634784221649169921875</LongitudeDegrees>
            </Position>
            <AltitudeMeters>1981.199951171875</AltitudeMeters>
            <DistanceMeters>8485.1629228635</DistanceMeters>
          </Trackpoint>
          <Trackpoint>
            <Time>2022-07-09T09:53:09.000Z</Time>
            <Position>
              <LatitudeDegrees>42.80774700455367565155029296875</LatitudeDegrees>
              <LongitudeDegrees>-0.13663751073181629180908203125</LongitudeDegrees>
            </Position>
            <AltitudeMeters>1981</AltitudeMeters>
            <DistanceMeters>8487.0250585606</DistanceMeters>
          </Trackpoint>
          <Trackpoint>
            <Time>2022-07-09T09:53:10.000Z</Time>
            <Position>
              <LatitudeDegrees>42.80773778446018695831298828125</LatitudeDegrees>
              <LongitudeDegrees>-0.13662627898156642913818359375</LongitudeDegrees>
            </Position>
            <AltitudeMeters>1981</AltitudeMeters>
            <DistanceMeters>8488.4021264795</DistanceMeters>
          </Trackpoint>
          <Trackpoint>
            <Time>2022-07-09T09:53:15.000Z</Time>
            <Position>
              <LatitudeDegrees>42.80768573284149169921875</LatitudeDegrees>
              <LongitudeDegrees>-0.13662544079124927520751953125</LongitudeDegrees>
            </Position>
            <AltitudeMeters>1980.800048828125</AltitudeMeters>
            <DistanceMeters>8494.1964188624</DistanceMeters>
          </Trackpoint>
          <Trackpoint>
            <Time>2022-07-09T09:53:16.000Z</Time>
            <Position>
              <LatitudeDegrees>42.807676680386066436767578125</LatitudeDegrees>
              <LongitudeDegrees>-0.13662326149642467498779296875</LongitudeDegrees>
            </Position>
            <AltitudeMeters>1981</AltitudeMeters>
            <DistanceMeters>8495.2198878984</DistanceMeters>
          </Trackpoint>
          <Trackpoint>
            <Time>2022-07-09T09:53:19.000Z</Time>
            <Position>
              <LatitudeDegrees>42.80766067095100879669189453125</LatitudeDegrees>
              <LongitudeDegrees>-0.1365983672440052032470703125</LongitudeDegrees>
            </Position>
            <AltitudeMeters>1981.4000244140625</AltitudeMeters>
            <DistanceMeters>8497.9210546401</DistanceMeters>
          </Trackpoint>
          <Trackpoint>
            <Time>2022-07-09T09:53:23.000Z</Time>
            <Position>
              <LatitudeDegrees>42.807645834982395172119140625</LatitudeDegrees>
              <LongitudeDegrees>-0.13657271862030029296875</LongitudeDegrees>
            </Position>
            <AltitudeMeters>1981.4000244140625</AltitudeMeters>
            <DistanceMeters>8500.5868884987</DistanceMeters>
          </Trackpoint>
          <Trackpoint>
            <Time>2022-07-09T09:53:25.000Z</Time>
            <Position>
              <LatitudeDegrees>42.807628400623798370361328125</LatitudeDegrees>
              <LongitudeDegrees>-0.13656777329742908477783203125</LongitudeDegrees>
            </Position>
            <AltitudeMeters>1981.4000244140625</AltitudeMeters>
            <DistanceMeters>8502.5665483626</DistanceMeters>
          </Trackpoint>
          <Trackpoint>
            <Time>2022-07-09T09:53:26.000Z</Time>
            <Position>
              <LatitudeDegrees>42.8076188452541828155517578125</LatitudeDegrees>
              <LongitudeDegrees>-0.13656877912580966949462890625</LongitudeDegrees>
            </Position>
            <AltitudeMeters>1981.4000244140625</AltitudeMeters>
            <DistanceMeters>8503.6332205858</DistanceMeters>
          </Trackpoint>
          <Trackpoint>
            <Time>2022-07-09T09:53:28.000Z</Time>
            <Position>
              <LatitudeDegrees>42.80759914778172969818115234375</LatitudeDegrees>
              <LongitudeDegrees>-0.13657179661095142364501953125</LongitudeDegrees>
            </Position>
            <AltitudeMeters>1981.4000244140625</AltitudeMeters>
            <DistanceMeters>8505.8373487869</DistanceMeters>
          </Trackpoint>
          <Trackpoint>
            <Time>2022-07-09T09:53:29.000Z</Time>
            <Position>
              <LatitudeDegrees>42.80758942477405071258544921875</LatitudeDegrees>
              <LongitudeDegrees>-0.13657364062964916229248046875</LongitudeDegrees>
            </Position>
            <AltitudeMeters>1981.4000244140625</AltitudeMeters>
            <DistanceMeters>8506.9332503186</DistanceMeters>
          </Trackpoint>
          <Trackpoint>
            <Time>2022-07-09T09:53:31.000Z</Time>
            <Position>
              <LatitudeDegrees>42.80756796710193157196044921875</LatitudeDegrees>
              <LongitudeDegrees>-0.136567689478397369384765625</LongitudeDegrees>
            </Position>
            <AltitudeMeters>1981.4000244140625</AltitudeMeters>
            <DistanceMeters>8509.3708290968</DistanceMeters>
          </Trackpoint>
          <Trackpoint>
            <Time>2022-07-09T09:53:36.000Z</Time>
            <Position>
              <LatitudeDegrees>42.80750133097171783447265625</LatitudeDegrees>
              <LongitudeDegrees>-0.13654815964400768280029296875</LongitudeDegrees>
            </Position>
            <AltitudeMeters>1981.199951171875</AltitudeMeters>
            <DistanceMeters>8516.9575086903</DistanceMeters>
          </Trackpoint>
          <Trackpoint>
            <Time>2022-07-09T09:53:37.000Z</Time>
            <Position>
              <LatitudeDegrees>42.80749001540243625640869140625</LatitudeDegrees>
              <LongitudeDegrees>-0.13655369170010089874267578125</LongitudeDegrees>
            </Position>
            <AltitudeMeters>1981.199951171875</AltitudeMeters>
            <DistanceMeters>8518.2946530863</DistanceMeters>
          </Trackpoint>
          <Trackpoint>
            <Time>2022-07-09T09:53:40.000Z</Time>
            <Position>
              <LatitudeDegrees>42.80745481140911579132080078125</LatitudeDegrees>
              <LongitudeDegrees>-0.13655402697622776031494140625</LongitudeDegrees>
            </Position>
            <AltitudeMeters>1981.5999755859375</AltitudeMeters>
            <DistanceMeters>8522.2127048924</DistanceMeters>
          </Trackpoint>
          <Trackpoint>
            <Time>2022-07-09T09:53:42.000Z</Time>
            <Position>
              <LatitudeDegrees>42.80743938870728015899658203125</LatitudeDegrees>
              <LongitudeDegrees>-0.1365588046610355377197265625</LongitudeDegrees>
            </Position>
            <AltitudeMeters>1981.800048828125</AltitudeMeters>
            <DistanceMeters>8523.9751878842</DistanceMeters>
          </Trackpoint>
          <Trackpoint>
            <Time>2022-07-09T09:53:46.000Z</Time>
            <Position>
              <LatitudeDegrees>42.80741256661713123321533203125</LatitudeDegrees>
              <LongitudeDegrees>-0.1365946792066097259521484375</LongitudeDegrees>
            </Position>
            <AltitudeMeters>1982</AltitudeMeters>
            <DistanceMeters>8528.1585224571</DistanceMeters>
          </Trackpoint>
          <Trackpoint>
            <Time>2022-07-09T09:53:50.000Z</Time>
            <Position>
              <LatitudeDegrees>42.8073690645396709442138671875</LatitudeDegrees>
              <LongitudeDegrees>-0.1366027258336544036865234375</LongitudeDegrees>
            </Position>
            <AltitudeMeters>1982.199951171875</AltitudeMeters>
            <DistanceMeters>8533.044780956</DistanceMeters>
          </Trackpoint>
          <Trackpoint>
            <Time>2022-07-09T09:53:52.000Z</Time>
            <Position>
              <LatitudeDegrees>42.80734903179109096527099609375</LatitudeDegrees>
              <LongitudeDegrees>-0.13662275858223438262939453125</LongitudeDegrees>
            </Position>
            <AltitudeMeters>1982.199951171875</AltitudeMeters>
            <DistanceMeters>8535.8120006481</DistanceMeters>
          </Trackpoint>
          <Trackpoint>
            <Time>2022-07-09T09:53:53.000Z</Time>
            <Position>
              <LatitudeDegrees>42.80733503401279449462890625</LatitudeDegrees>
              <LongitudeDegrees>-0.13663709163665771484375</LongitudeDegrees>
            </Position>
            <AltitudeMeters>1982.199951171875</AltitudeMeters>
            <DistanceMeters>8537.7641000972</DistanceMeters>
          </Trackpoint>
          <Trackpoint>
            <Time>2022-07-09T09:53:54.000Z</Time>
            <Position>
              <LatitudeDegrees>42.8073224611580371856689453125</LatitudeDegrees>
              <LongitudeDegrees>-0.13665125705301761627197265625</LongitudeDegrees>
            </Position>
            <AltitudeMeters>1982.199951171875</AltitudeMeters>
            <DistanceMeters>8539.5795829261</DistanceMeters>
          </Trackpoint>
          <Trackpoint>
            <Time>2022-07-09T09:54:00.000Z</Time>
            <Position>
              <LatitudeDegrees>42.8072688169777393341064453125</LatitudeDegrees>
              <LongitudeDegrees>-0.1366996206343173980712890625</LongitudeDegrees>
            </Position>
            <AltitudeMeters>1982.199951171875</AltitudeMeters>
            <DistanceMeters>8546.7381919963</DistanceMeters>
          </Trackpoint>
          <Trackpoint>
            <Time>2022-07-09T09:54:01.000Z</Time>
            <Position>
              <LatitudeDegrees>42.8072604350745677947998046875</LatitudeDegrees>
              <LongitudeDegrees>-0.13670724816620349884033203125</LongitudeDegrees>
            </Position>
            <AltitudeMeters>1982</AltitudeMeters>
            <DistanceMeters>8547.8625632438</DistanceMeters>
          </Trackpoint>
          <Trackpoint>
            <Time>2022-07-09T09:54:04.000Z</Time>
            <Position>
              <LatitudeDegrees>42.8072364628314971923828125</LatitudeDegrees>
              <LongitudeDegrees>-0.13671831227838993072509765625</LongitudeDegrees>
            </Position>
            <AltitudeMeters>1982</AltitudeMeters>
            <DistanceMeters>8550.6783059731</DistanceMeters>
          </Trackpoint>
          <Trackpoint>
            <Time>2022-07-09T09:54:05.000Z</Time>
            <Position>
              <LatitudeDegrees>42.8072245605289936065673828125</LatitudeDegrees>
              <LongitudeDegrees>-0.136715210974216461181640625</LongitudeDegrees>
            </Position>
            <AltitudeMeters>1982</AltitudeMeters>
            <DistanceMeters>8552.0255421682</DistanceMeters>
          </Trackpoint>
          <Trackpoint>
            <Time>2022-07-09T09:54:07.000Z</Time>
            <Position>
              <LatitudeDegrees>42.8072098083794116973876953125</LatitudeDegrees>
              <LongitudeDegrees>-0.13670640997588634490966796875</LongitudeDegrees>
            </Position>
            <AltitudeMeters>1982</AltitudeMeters>
            <DistanceMeters>8553.818502629</DistanceMeters>
          </Trackpoint>
          <Trackpoint>
            <Time>2022-07-09T09:54:13.000Z</Time>
            <Position>
              <LatitudeDegrees>42.80715742148458957672119140625</LatitudeDegrees>
              <LongitudeDegrees>-0.1366545259952545166015625</LongitudeDegrees>
            </Position>
            <AltitudeMeters>1981.5999755859375</AltitudeMeters>
            <DistanceMeters>8561.0267659329</DistanceMeters>
          </Trackpoint>
          <Trackpoint>
            <Time>2022-07-09T09:54:14.000Z</Time>
            <Position>
              <LatitudeDegrees>42.807150296866893768310546875</LatitudeDegrees>
              <LongitudeDegrees>-0.136650837957859039306640625</LongitudeDegrees>
            </Position>
            <AltitudeMeters>1981.5999755859375</AltitudeMeters>
            <DistanceMeters>8561.8767107049</DistanceMeters>
          </Trackpoint>
          <Trackpoint>
            <Time>2022-07-09T09:54:20.000Z</Time>
            <Position>
              <LatitudeDegrees>42.80707041732966899871826171875</LatitudeDegrees>
              <LongitudeDegrees>-0.13663901947438716888427734375</LongitudeDegrees>
            </Position>
            <AltitudeMeters>1981.800048828125</AltitudeMeters>
            <DistanceMeters>8570.8198302425</DistanceMeters>
          </Trackpoint>
          <Trackpoint>
            <Time>2022-07-09T09:54:23.000Z</Time>
            <Position>
              <LatitudeDegrees>42.80703504569828510284423828125</LatitudeDegrees>
              <LongitudeDegrees>-0.13665125705301761627197265625</LongitudeDegrees>
            </Position>
            <AltitudeMeters>1981.800048828125</AltitudeMeters>
            <DistanceMeters>8574.8804853112</DistanceMeters>
          </Trackpoint>
          <Trackpoint>
            <Time>2022-07-09T09:54:24.000Z</Time>
            <Position>
              <LatitudeDegrees>42.8070230595767498016357421875</LatitudeDegrees>
              <LongitudeDegrees>-0.13665226288139820098876953125</LongitudeDegrees>
            </Position>
            <AltitudeMeters>1981.800048828125</AltitudeMeters>
            <DistanceMeters>8576.2176297073</DistanceMeters>
          </Trackpoint>
          <Trackpoint>
            <Time>2022-07-09T09:54:27.000Z</Time>
            <Position>
              <LatitudeDegrees>42.80698827467858791351318359375</LatitudeDegrees>
              <LongitudeDegrees>-0.13663918711245059967041015625</LongitudeDegrees>
            </Position>
            <AltitudeMeters>1981.800048828125</AltitudeMeters>
            <DistanceMeters>8580.2346866654</DistanceMeters>
          </Trackpoint>
          <Trackpoint>
            <Time>2022-07-09T09:54:30.000Z</Time>
            <Position>
              <LatitudeDegrees>42.806965894997119903564453125</LatitudeDegrees>
              <LongitudeDegrees>-0.13663382269442081451416015625</LongitudeDegrees>
            </Position>
            <AltitudeMeters>1981.800048828125</AltitudeMeters>
            <DistanceMeters>8582.7631830808</DistanceMeters>
          </Trackpoint>
          <Trackpoint>
            <Time>2022-07-09T09:54:32.000Z</Time>
            <Position>
              <LatitudeDegrees>42.80694737099111080169677734375</LatitudeDegrees>
              <LongitudeDegrees>-0.13663432560861110687255859375</LongitudeDegrees>
            </Position>
            <AltitudeMeters>1982</AltitudeMeters>
            <DistanceMeters>8584.8233131564</DistanceMeters>
          </Trackpoint>
          <Trackpoint>
            <Time>2022-07-09T09:54:33.000Z</Time>
            <Position>
              <LatitudeDegrees>42.80693831853568553924560546875</LatitudeDegrees>
              <LongitudeDegrees>-0.13663147576153278350830078125</LongitudeDegrees>
            </Position>
            <AltitudeMeters>1982</AltitudeMeters>
            <DistanceMeters>8585.8555674954</DistanceMeters>
          </Trackpoint>
          <Trackpoint>
            <Time>2022-07-09T09:54:39.000Z</Time>
            <Position>
              <LatitudeDegrees>42.80685701407492160797119140625</LatitudeDegrees>
              <LongitudeDegrees>-0.1366102695465087890625</LongitudeDegrees>
            </Position>
            <AltitudeMeters>1982.4000244140625</AltitudeMeters>
            <DistanceMeters>8595.0687492788</DistanceMeters>
          </Trackpoint>
          <Trackpoint>
            <Time>2022-07-09T09:54:41.000Z</Time>
            <Position>
              <LatitudeDegrees>42.80683035962283611297607421875</LatitudeDegrees>
              <LongitudeDegrees>-0.136602558195590972900390625</LongitudeDegrees>
            </Position>
            <AltitudeMeters>1982.4000244140625</AltitudeMeters>
            <DistanceMeters>8598.1006822959</DistanceMeters>
          </Trackpoint>
          <Trackpoint>
            <Time>2022-07-09T09:54:43.000Z</Time>
            <Position>
              <LatitudeDegrees>42.8068094886839389801025390625</LatitudeDegrees>
              <LongitudeDegrees>-0.1365926675498485565185546875</LongitudeDegrees>
            </Position>
            <AltitudeMeters>1982.5999755859375</AltitudeMeters>
            <DistanceMeters>8600.5603878102</DistanceMeters>
          </Trackpoint>
          <Trackpoint>
            <Time>2022-07-09T09:54:46.000Z</Time>
            <Position>
              <LatitudeDegrees>42.806783504784107208251953125</LatitudeDegrees>
              <LongitudeDegrees>-0.13658956624567508697509765625</LongitudeDegrees>
            </Position>
            <AltitudeMeters>1982.800048828125</AltitudeMeters>
            <DistanceMeters>8603.4629834283</DistanceMeters>
          </Trackpoint>
          <Trackpoint>
            <Time>2022-07-09T09:54:47.000Z</Time>
            <Position>
              <LatitudeDegrees>42.80676866881549358367919921875</LatitudeDegrees>
              <LongitudeDegrees>-0.1365899853408336639404296875</LongitudeDegrees>
            </Position>
            <AltitudeMeters>1983</AltitudeMeters>
            <DistanceMeters>8605.1143716583</DistanceMeters>
          </Trackpoint>
          <Trackpoint>
            <Time>2022-07-09T09:54:50.000Z</Time>
            <Position>
              <LatitudeDegrees>42.80673597939312458038330078125</LatitudeDegrees>
              <LongitudeDegrees>-0.1366010494530200958251953125</LongitudeDegrees>
            </Position>
            <AltitudeMeters>1983</AltitudeMeters>
            <DistanceMeters>8608.8628111932</DistanceMeters>
          </Trackpoint>
          <Trackpoint>
            <Time>2022-07-09T09:54:53.000Z</Time>
            <Position>
              <LatitudeDegrees>42.8067129291594028472900390625</LatitudeDegrees>
              <LongitudeDegrees>-0.136612616479396820068359375</LongitudeDegrees>
            </Position>
            <AltitudeMeters>1983.199951171875</AltitudeMeters>
            <DistanceMeters>8611.5972038672</DistanceMeters>
          </Trackpoint>
          <Trackpoint>
            <Time>2022-07-09T09:54:58.000Z</Time>
            <Position>
              <LatitudeDegrees>42.8066830895841121673583984375</LatitudeDegrees>
              <LongitudeDegrees>-0.1366335712373256683349609375</LongitudeDegrees>
            </Position>
            <AltitudeMeters>1983.4000244140625</AltitudeMeters>
            <DistanceMeters>8615.3335788728</DistanceMeters>
          </Trackpoint>
          <Trackpoint>
            <Time>2022-07-09T09:55:00.000Z</Time>
            <Position>
              <LatitudeDegrees>42.80666640959680080413818359375</LatitudeDegrees>
              <LongitudeDegrees>-0.136640109121799468994140625</LongitudeDegrees>
            </Position>
            <AltitudeMeters>1983.4000244140625</AltitudeMeters>
            <DistanceMeters>8617.267086475</DistanceMeters>
          </Trackpoint>
          <Trackpoint>
            <Time>2022-07-09T09:55:01.000Z</Time>
            <Position>
              <LatitudeDegrees>42.8066529147326946258544921875</LatitudeDegrees>
              <LongitudeDegrees>-0.1366449706256389617919921875</LongitudeDegrees>
            </Position>
            <AltitudeMeters>1983.4000244140625</AltitudeMeters>
            <DistanceMeters>8618.8227408347</DistanceMeters>
          </Trackpoint>
          <Trackpoint>
            <Time>2022-07-09T09:55:05.000Z</Time>
            <Position>
              <LatitudeDegrees>42.806607149541378021240234375</LatitudeDegrees>
              <LongitudeDegrees>-0.136647485196590423583984375</LongitudeDegrees>
            </Position>
            <AltitudeMeters>1983.4000244140625</AltitudeMeters>
            <DistanceMeters>8623.921524031</DistanceMeters>
          </Trackpoint>
          <Trackpoint>
            <Time>2022-07-09T09:55:06.000Z</Time>
            <Position>
              <LatitudeDegrees>42.8065969236195087432861328125</LatitudeDegrees>
              <LongitudeDegrees>-0.13664488680660724639892578125</LongitudeDegrees>
            </Position>
            <AltitudeMeters>1983.4000244140625</AltitudeMeters>
            <DistanceMeters>8625.0853588417</DistanceMeters>
          </Trackpoint>
          <Trackpoint>
            <Time>2022-07-09T09:55:08.000Z</Time>
            <Position>
              <LatitudeDegrees>42.80657705850899219512939453125</LatitudeDegrees>
              <LongitudeDegrees>-0.1366429589688777923583984375</LongitudeDegrees>
            </Position>
            <AltitudeMeters>1983.4000244140625</AltitudeMeters>
            <DistanceMeters>8627.3017436425</DistanceMeters>
          </Trackpoint>
          <Trackpoint>
            <Time>2022-07-09T09:55:12.000Z</Time>
            <Position>
              <LatitudeDegrees>42.80651905573904514312744140625</LatitudeDegrees>
              <LongitudeDegrees>-0.136645473539829254150390625</LongitudeDegrees>
            </Position>
            <AltitudeMeters>1983.4000244140625</AltitudeMeters>
            <DistanceMeters>8633.7614637021</DistanceMeters>
          </Trackpoint>
          <Trackpoint>
            <Time>2022-07-09T09:55:14.000Z</Time>
            <Position>
              <LatitudeDegrees>42.80649508349597454071044921875</LatitudeDegrees>
              <LongitudeDegrees>-0.1366359181702136993408203125</LongitudeDegrees>
            </Position>
            <AltitudeMeters>1984</AltitudeMeters>
            <DistanceMeters>8636.5417056764</DistanceMeters>
          </Trackpoint>
          <Trackpoint>
            <Time>2022-07-09T09:55:15.000Z</Time>
            <Position>
              <LatitudeDegrees>42.8064849413931369781494140625</LatitudeDegrees>
              <LongitudeDegrees>-0.13663080520927906036376953125</LongitudeDegrees>
            </Position>
            <AltitudeMeters>1984.199951171875</AltitudeMeters>
            <DistanceMeters>8637.7474595101</DistanceMeters>
          </Trackpoint>
          <Trackpoint>
            <Time>2022-07-09T09:55:17.000Z</Time>
            <Position>
              <LatitudeDegrees>42.8064658306539058685302734375</LatitudeDegrees>
              <LongitudeDegrees>-0.1366250216960906982421875</LongitudeDegrees>
            </Position>
            <AltitudeMeters>1984.199951171875</AltitudeMeters>
            <DistanceMeters>8639.9268677347</DistanceMeters>
          </Trackpoint>
          <Trackpoint>
            <Time>2022-07-09T09:55:21.000Z</Time>
            <Position>
              <LatitudeDegrees>42.80643473379313945770263671875</LatitudeDegrees>
              <LongitudeDegrees>-0.136607587337493896484375</LongitudeDegrees>
            </Position>
            <AltitudeMeters>1984.5999755859375</AltitudeMeters>
            <DistanceMeters>8643.6680732207</DistanceMeters>
          </Trackpoint>
          <Trackpoint>
            <Time>2022-07-09T09:55:24.000Z</Time>
            <Position>
              <LatitudeDegrees>42.806412018835544586181640625</LatitudeDegrees>
              <LongitudeDegrees>-0.1366137899458408355712890625</LongitudeDegrees>
            </Position>
            <AltitudeMeters>1984.5999755859375</AltitudeMeters>
            <DistanceMeters>8646.2478341281</DistanceMeters>
          </Trackpoint>
          <Trackpoint>
            <Time>2022-07-09T09:55:27.000Z</Time>
            <Position>
              <LatitudeDegrees>42.80638628639280796051025390625</LatitudeDegrees>
              <LongitudeDegrees>-0.13662309385836124420166015625</LongitudeDegrees>
            </Position>
            <AltitudeMeters>1984</AltitudeMeters>
            <DistanceMeters>8649.2104738806</DistanceMeters>
          </Trackpoint>
          <Trackpoint>
            <Time>2022-07-09T09:55:28.000Z</Time>
            <Position>
              <LatitudeDegrees>42.8063754737377166748046875</LatitudeDegrees>
              <LongitudeDegrees>-0.13662879355251789093017578125</LongitudeDegrees>
            </Position>
            <AltitudeMeters>1983.800048828125</AltitudeMeters>
            <DistanceMeters>8650.4994789488</DistanceMeters>
          </Trackpoint>
          <Trackpoint>
            <Time>2022-07-09T09:55:32.000Z</Time>
            <Position>
              <LatitudeDegrees>42.8063406050205230712890625</LatitudeDegrees>
              <LongitudeDegrees>-0.13666198588907718658447265625</LongitudeDegrees>
            </Position>
            <AltitudeMeters>1984</AltitudeMeters>
            <DistanceMeters>8655.2317711609</DistanceMeters>
          </Trackpoint>
          <Trackpoint>
            <Time>2022-07-09T09:55:35.000Z</Time>
            <Position>
              <LatitudeDegrees>42.80632576905190944671630859375</LatitudeDegrees>
              <LongitudeDegrees>-0.13668092899024486541748046875</LongitudeDegrees>
            </Position>
            <AltitudeMeters>1984.5999755859375</AltitudeMeters>
            <DistanceMeters>8657.4945246481</DistanceMeters>
          </Trackpoint>
          <Trackpoint>
            <Time>2022-07-09T09:55:37.000Z</Time>
            <Position>
              <LatitudeDegrees>42.8063070774078369140625</LatitudeDegrees>
              <LongitudeDegrees>-0.13669869862496852874755859375</LongitudeDegrees>
            </Position>
            <AltitudeMeters>1985.4000244140625</AltitudeMeters>
            <DistanceMeters>8660.0301536486</DistanceMeters>
          </Trackpoint>
          <Trackpoint>
            <Time>2022-07-09T09:55:41.000Z</Time>
            <Position>
              <LatitudeDegrees>42.80627556145191192626953125</LatitudeDegrees>
              <LongitudeDegrees>-0.13673122040927410125732421875</LongitudeDegrees>
            </Position>
            <AltitudeMeters>1986</AltitudeMeters>
            <DistanceMeters>8664.4281558931</DistanceMeters>
          </Trackpoint>
          <Trackpoint>
            <Time>2022-07-09T09:55:43.000Z</Time>
            <Position>
              <LatitudeDegrees>42.80626206658780574798583984375</LatitudeDegrees>
              <LongitudeDegrees>-0.136754773557186126708984375</LongitudeDegrees>
            </Position>
            <AltitudeMeters>1986.199951171875</AltitudeMeters>
            <DistanceMeters>8666.8675862316</DistanceMeters>
          </Trackpoint>
          <Trackpoint>
            <Time>2022-07-09T09:55:45.000Z</Time>
            <Position>
              <LatitudeDegrees>42.80624966137111186981201171875</LatitudeDegrees>
              <LongitudeDegrees>-0.136776901781558990478515625</LongitudeDegrees>
            </Position>
            <AltitudeMeters>1986.4000244140625</AltitudeMeters>
            <DistanceMeters>8669.1422804534</DistanceMeters>
          </Trackpoint>
          <Trackpoint>
            <Time>2022-07-09T09:55:47.000Z</Time>
            <Position>
              <LatitudeDegrees>42.80623725615441799163818359375</LatitudeDegrees>
              <LongitudeDegrees>-0.13679911382496356964111328125</LongitudeDegrees>
            </Position>
            <AltitudeMeters>1986.4000244140625</AltitudeMeters>
            <DistanceMeters>8671.4229215982</DistanceMeters>
          </Trackpoint>
          <Trackpoint>
            <Time>2022-07-09T09:55:48.000Z</Time>
            <Position>
              <LatitudeDegrees>42.8062311373651027679443359375</LatitudeDegrees>
              <LongitudeDegrees>-0.13680816628038883209228515625</LongitudeDegrees>
            </Position>
            <AltitudeMeters>1986.199951171875</AltitudeMeters>
            <DistanceMeters>8672.4285898148</DistanceMeters>
          </Trackpoint>
          <Trackpoint>
            <Time>2022-07-09T09:55:53.000Z</Time>
            <Position>
              <LatitudeDegrees>42.806201465427875518798828125</LatitudeDegrees>
              <LongitudeDegrees>-0.13682979159057140350341796875</LongitudeDegrees>
            </Position>
            <AltitudeMeters>1986.199951171875</AltitudeMeters>
            <DistanceMeters>8676.1746195522</DistanceMeters>
          </Trackpoint>
          <Trackpoint>
            <Time>2022-07-09T09:55:55.000Z</Time>
            <Position>
              <LatitudeDegrees>42.80619149096310138702392578125</LatitudeDegrees>
              <LongitudeDegrees>-0.136843621730804443359375</LongitudeDegrees>
            </Position>
            <AltitudeMeters>1986.4000244140625</AltitudeMeters>
            <DistanceMeters>8677.7590315098</DistanceMeters>
          </Trackpoint>
          <Trackpoint>
            <Time>2022-07-09T09:55:59.000Z</Time>
            <Position>
              <LatitudeDegrees>42.80617238022387027740478515625</LatitudeDegrees>
              <LongitudeDegrees>-0.13689584098756313323974609375</LongitudeDegrees>
            </Position>
            <AltitudeMeters>1987.4000244140625</AltitudeMeters>
            <DistanceMeters>8682.5245999184</DistanceMeters>
          </Trackpoint>
          <Trackpoint>
            <Time>2022-07-09T09:56:00.000Z</Time>
            <Position>
              <LatitudeDegrees>42.806168608367443084716796875</LatitudeDegrees>
              <LongitudeDegrees>-0.13690891675651073455810546875</LongitudeDegrees>
            </Position>
            <AltitudeMeters>1987.5999755859375</AltitudeMeters>
            <DistanceMeters>8683.6728120768</DistanceMeters>
          </Trackpoint>
          <Trackpoint>
            <Time>2022-07-09T09:56:04.000Z</Time>
            <Position>
              <LatitudeDegrees>42.80614907853305339813232421875</LatitudeDegrees>
              <LongitudeDegrees>-0.13695199973881244659423828125</LongitudeDegrees>
            </Position>
            <AltitudeMeters>1987.800048828125</AltitudeMeters>
            <DistanceMeters>8687.8083851671</DistanceMeters>
          </Trackpoint>
          <Trackpoint>
            <Time>2022-07-09T09:56:06.000Z</Time>
            <Position>
              <LatitudeDegrees>42.80613684095442295074462890625</LatitudeDegrees>
              <LongitudeDegrees>-0.1369792409241199493408203125</LongitudeDegrees>
            </Position>
            <AltitudeMeters>1988</AltitudeMeters>
            <DistanceMeters>8690.41772946</DistanceMeters>
          </Trackpoint>
          <Trackpoint>
            <Time>2022-07-09T09:56:09.000Z</Time>
            <Position>
              <LatitudeDegrees>42.8061228431761264801025390625</LatitudeDegrees>
              <LongitudeDegrees>-0.13701033778488636016845703125</LongitudeDegrees>
            </Position>
            <AltitudeMeters>1988</AltitudeMeters>
            <DistanceMeters>8693.3970859583</DistanceMeters>
          </Trackpoint>
          <Trackpoint>
            <Time>2022-07-09T09:56:10.000Z</Time>
            <Position>
              <LatitudeDegrees>42.80611538328230381011962890625</LatitudeDegrees>
              <LongitudeDegrees>-0.1370154507458209991455078125</LongitudeDegrees>
            </Position>
            <AltitudeMeters>1988.199951171875</AltitudeMeters>
            <DistanceMeters>8694.3232918006</DistanceMeters>
          </Trackpoint>
          <Trackpoint>
            <Time>2022-07-09T09:56:12.000Z</Time>
            <Position>
              <LatitudeDegrees>42.80610465444624423980712890625</LatitudeDegrees>
              <LongitudeDegrees>-0.1370238326489925384521484375</LongitudeDegrees>
            </Position>
            <AltitudeMeters>1988.199951171875</AltitudeMeters>
            <DistanceMeters>8695.7003597194</DistanceMeters>
          </Trackpoint>
          <Trackpoint>
            <Time>2022-07-09T09:56:18.000Z</Time>
            <Position>
              <LatitudeDegrees>42.806076742708683013916015625</LatitudeDegrees>
              <LongitudeDegrees>-0.137054510414600372314453125</LongitudeDegrees>
            </Position>
            <AltitudeMeters>1988.5999755859375</AltitudeMeters>
            <DistanceMeters>8699.6926128331</DistanceMeters>
          </Trackpoint>
          <Trackpoint>
            <Time>2022-07-09T09:56:19.000Z</Time>
            <Position>
              <LatitudeDegrees>42.80607213266193866729736328125</LatitudeDegrees>
              <LongitudeDegrees>-0.1370622217655181884765625</LongitudeDegrees>
            </Position>
            <AltitudeMeters>1988.5999755859375</AltitudeMeters>
            <DistanceMeters>8700.5100635392</DistanceMeters>
          </Trackpoint>
          <Trackpoint>
            <Time>2022-07-09T09:56:22.000Z</Time>
            <Position>
              <LatitudeDegrees>42.8060507588088512420654296875</LatitudeDegrees>
              <LongitudeDegrees>-0.13708409853279590606689453125</LongitudeDegrees>
            </Position>
            <AltitudeMeters>1988.800048828125</AltitudeMeters>
            <DistanceMeters>8703.4879042112</DistanceMeters>
          </Trackpoint>
          <Trackpoint>
            <Time>2022-07-09T09:56:26.000Z</Time>
            <Position>
              <LatitudeDegrees>42.80602469108998775482177734375</LatitudeDegrees>
              <LongitudeDegrees>-0.13712232001125812530517578125</LongitudeDegrees>
            </Position>
            <AltitudeMeters>1989.199951171875</AltitudeMeters>
            <DistanceMeters>8707.7492987868</DistanceMeters>
          </Trackpoint>
          <Trackpoint>
            <Time>2022-07-09T09:56:27.000Z</Time>
            <Position>
              <LatitudeDegrees>42.8060214221477508544921875</LatitudeDegrees>
              <LongitudeDegrees>-0.13713154010474681854248046875</LongitudeDegrees>
            </Position>
            <AltitudeMeters>1989.199951171875</AltitudeMeters>
            <DistanceMeters>8708.588552004</DistanceMeters>
          </Trackpoint>
          <Trackpoint>
            <Time>2022-07-09T09:56:30.000Z</Time>
            <Position>
              <LatitudeDegrees>42.8060065023601055145263671875</LatitudeDegrees>
              <LongitudeDegrees>-0.13715207576751708984375</LongitudeDegrees>
            </Position>
            <AltitudeMeters>1989.4000244140625</AltitudeMeters>
            <DistanceMeters>8710.9508786627</DistanceMeters>
          </Trackpoint>
          <Trackpoint>
            <Time>2022-07-09T09:56:33.000Z</Time>
            <Position>
              <LatitudeDegrees>42.80599602498114109039306640625</LatitudeDegrees>
              <LongitudeDegrees>-0.13716883957386016845703125</LongitudeDegrees>
            </Position>
            <AltitudeMeters>1989.5999755859375</AltitudeMeters>
            <DistanceMeters>8712.7538837985</DistanceMeters>
          </Trackpoint>
          <Trackpoint>
            <Time>2022-07-09T09:56:34.000Z</Time>
            <Position>
              <LatitudeDegrees>42.8059964440762996673583984375</LatitudeDegrees>
              <LongitudeDegrees>-0.13717152178287506103515625</LongitudeDegrees>
            </Position>
            <AltitudeMeters>1989.5999755859375</AltitudeMeters>
            <DistanceMeters>8712.9663699915</DistanceMeters>
          </Trackpoint>
          <Trackpoint>
            <Time>2022-07-09T09:56:35.000Z</Time>
            <Position>
              <LatitudeDegrees>42.805994935333728790283203125</LatitudeDegrees>
              <LongitudeDegrees>-0.13717495836317539215087890625</LongitudeDegrees>
            </Position>
            <AltitudeMeters>1989.800048828125</AltitudeMeters>
            <DistanceMeters>8713.2955521863</DistanceMeters>
          </Trackpoint>
          <Trackpoint>
            <Time>2022-07-09T09:56:36.000Z</Time>
            <Position>
              <LatitudeDegrees>42.8059907443821430206298828125</LatitudeDegrees>
              <LongitudeDegrees>-0.13717822730541229248046875</LongitudeDegrees>
            </Position>
            <AltitudeMeters>1990</AltitudeMeters>
            <DistanceMeters>8713.8331044593</DistanceMeters>
          </Trackpoint>
          <Trackpoint>
            <Time>2022-07-09T09:56:37.000Z</Time>
            <Position>
              <LatitudeDegrees>42.80598546378314495086669921875</LatitudeDegrees>
              <LongitudeDegrees>-0.13718317262828350067138671875</LongitudeDegrees>
            </Position>
            <AltitudeMeters>1990</AltitudeMeters>
            <DistanceMeters>8714.5505404197</DistanceMeters>
          </Trackpoint>
          <Trackpoint>
            <Time>2022-07-09T09:56:40.000Z</Time>
            <Position>
              <LatitudeDegrees>42.8059645928442478179931640625</LatitudeDegrees>
              <LongitudeDegrees>-0.13722994364798069000244140625</LongitudeDegrees>
            </Position>
            <AltitudeMeters>1990.4000244140625</AltitudeMeters>
            <DistanceMeters>8719.0208378562</DistanceMeters>
          </Trackpoint>
          <Trackpoint>
            <Time>2022-07-09T09:56:42.000Z</Time>
            <Position>
              <LatitudeDegrees>42.8059637546539306640625</LatitudeDegrees>
              <LongitudeDegrees>-0.13726162724196910858154296875</LongitudeDegrees>
            </Position>
            <AltitudeMeters>1990.800048828125</AltitudeMeters>
            <DistanceMeters>8721.6110785395</DistanceMeters>
          </Trackpoint>
          <Trackpoint>
            <Time>2022-07-09T09:56:47.000Z</Time>
            <Position>
              <LatitudeDegrees>42.80596467666327953338623046875</LatitudeDegrees>
              <LongitudeDegrees>-0.13731091283261775970458984375</LongitudeDegrees>
            </Position>
            <AltitudeMeters>1991.4000244140625</AltitudeMeters>
            <DistanceMeters>8725.6359955748</DistanceMeters>
          </Trackpoint>
          <Trackpoint>
            <Time>2022-07-09T09:56:52.000Z</Time>
            <Position>
              <LatitudeDegrees>42.80594472773373126983642578125</LatitudeDegrees>
              <LongitudeDegrees>-0.13736807741224765777587890625</LongitudeDegrees>
            </Position>
            <AltitudeMeters>1991.5999755859375</AltitudeMeters>
            <DistanceMeters>8730.8051344003</DistanceMeters>
          </Trackpoint>
          <Trackpoint>
            <Time>2022-07-09T09:56:58.000Z</Time>
            <Position>
              <LatitudeDegrees>42.8059087693691253662109375</LatitudeDegrees>
              <LongitudeDegrees>-0.13738618232309818267822265625</LongitudeDegrees>
            </Position>
            <AltitudeMeters>1991.800048828125</AltitudeMeters>
            <DistanceMeters>8735.0718232935</DistanceMeters>
          </Trackpoint>
          <Trackpoint>
            <Time>2022-07-09T09:57:01.000Z</Time>
            <Position>
              <LatitudeDegrees>42.8058873116970062255859375</LatitudeDegrees>
              <LongitudeDegrees>-0.13740353286266326904296875</LongitudeDegrees>
            </Position>
            <AltitudeMeters>1991.800048828125</AltitudeMeters>
            <DistanceMeters>8737.8488154222</DistanceMeters>
          </Trackpoint>
          <Trackpoint>
            <Time>2022-07-09T09:57:04.000Z</Time>
            <Position>
              <LatitudeDegrees>42.8058626689016819000244140625</LatitudeDegrees>
              <LongitudeDegrees>-0.13739909045398235321044921875</LongitudeDegrees>
            </Position>
            <AltitudeMeters>1992.199951171875</AltitudeMeters>
            <DistanceMeters>8740.617666249</DistanceMeters>
          </Trackpoint>
          <Trackpoint>
            <Time>2022-07-09T09:57:08.000Z</Time>
            <Position>
              <LatitudeDegrees>42.80583391897380352020263671875</LatitudeDegrees>
              <LongitudeDegrees>-0.13739305548369884490966796875</LongitudeDegrees>
            </Position>
            <AltitudeMeters>1992.800048828125</AltitudeMeters>
            <DistanceMeters>8743.8555542568</DistanceMeters>
          </Trackpoint>
          <Trackpoint>
            <Time>2022-07-09T09:57:09.000Z</Time>
            <Position>
              <LatitudeDegrees>42.80582536943256855010986328125</LatitudeDegrees>
              <LongitudeDegrees>-0.13738903217017650604248046875</LongitudeDegrees>
            </Position>
            <AltitudeMeters>1993</AltitudeMeters>
            <DistanceMeters>8744.8657020867</DistanceMeters>
          </Trackpoint>
          <Trackpoint>
            <Time>2022-07-09T09:57:10.000Z</Time>
            <Position>
              <LatitudeDegrees>42.80581514351069927215576171875</LatitudeDegrees>
              <LongitudeDegrees>-0.13738601468503475189208984375</LongitudeDegrees>
            </Position>
            <AltitudeMeters>1993</AltitudeMeters>
            <DistanceMeters>8746.0295368974</DistanceMeters>
          </Trackpoint>
          <Trackpoint>
            <Time>2022-07-09T09:57:11.000Z</Time>
            <Position>
              <LatitudeDegrees>42.8058046661317348480224609375</LatitudeDegrees>
              <LongitudeDegrees>-0.13738098554313182830810546875</LongitudeDegrees>
            </Position>
            <AltitudeMeters>1993</AltitudeMeters>
            <DistanceMeters>8747.2685336672</DistanceMeters>
          </Trackpoint>
          <Trackpoint>
            <Time>2022-07-09T09:57:15.000Z</Time>
            <Position>
              <LatitudeDegrees>42.8057580627501010894775390625</LatitudeDegrees>
              <LongitudeDegrees>-0.137376375496387481689453125</LongitudeDegrees>
            </Position>
            <AltitudeMeters>1993.5999755859375</AltitudeMeters>
            <DistanceMeters>8752.4698901274</DistanceMeters>
          </Trackpoint>
          <Trackpoint>
            <Time>2022-07-09T09:57:17.000Z</Time>
            <Position>
              <LatitudeDegrees>42.80574322678148746490478515625</LatitudeDegrees>
              <LongitudeDegrees>-0.1373691670596599578857421875</LongitudeDegrees>
            </Position>
            <AltitudeMeters>1993.800048828125</AltitudeMeters>
            <DistanceMeters>8754.2220961629</DistanceMeters>
          </Trackpoint>
          <Trackpoint>
            <Time>2022-07-09T09:57:19.000Z</Time>
            <Position>
              <LatitudeDegrees>42.805739454925060272216796875</LatitudeDegrees>
              <LongitudeDegrees>-0.1373701728880405426025390625</LongitudeDegrees>
            </Position>
            <AltitudeMeters>1994</AltitudeMeters>
            <DistanceMeters>8754.6470685489</DistanceMeters>
          </Trackpoint>
          <Trackpoint>
            <Time>2022-07-09T09:57:20.000Z</Time>
            <Position>
              <LatitudeDegrees>42.80574255622923374176025390625</LatitudeDegrees>
              <LongitudeDegrees>-0.13737377710640430450439453125</LongitudeDegrees>
            </Position>
            <AltitudeMeters>1994</AltitudeMeters>
            <DistanceMeters>8755.0927833476</DistanceMeters>
          </Trackpoint>
          <Trackpoint>
            <Time>2022-07-09T09:57:26.000Z</Time>
            <Position>
              <LatitudeDegrees>42.8057138063013553619384765625</LatitudeDegrees>
              <LongitudeDegrees>-0.13738836161792278289794921875</LongitudeDegrees>
            </Position>
            <AltitudeMeters>1994.800048828125</AltitudeMeters>
            <DistanceMeters>8758.5058169854</DistanceMeters>
          </Trackpoint>
          <Trackpoint>
            <Time>2022-07-09T09:57:27.000Z</Time>
            <Position>
              <LatitudeDegrees>42.805708944797515869140625</LatitudeDegrees>
              <LongitudeDegrees>-0.13739741407334804534912109375</LongitudeDegrees>
            </Position>
            <AltitudeMeters>1994.800048828125</AltitudeMeters>
            <DistanceMeters>8759.4172812101</DistanceMeters>
          </Trackpoint>
          <Trackpoint>
            <Time>2022-07-09T09:57:29.000Z</Time>
            <Position>
              <LatitudeDegrees>42.80569846741855144500732421875</LatitudeDegrees>
              <LongitudeDegrees>-0.13740353286266326904296875</LongitudeDegrees>
            </Position>
            <AltitudeMeters>1995</AltitudeMeters>
            <DistanceMeters>8760.6850957103</DistanceMeters>
          </Trackpoint>
          <Trackpoint>
            <Time>2022-07-09T09:57:31.000Z</Time>
            <Position>
              <LatitudeDegrees>42.80567717738449573516845703125</LatitudeDegrees>
              <LongitudeDegrees>-0.137407220900058746337890625</LongitudeDegrees>
            </Position>
            <AltitudeMeters>1995.199951171875</AltitudeMeters>
            <DistanceMeters>8763.0740302662</DistanceMeters>
          </Trackpoint>
          <Trackpoint>
            <Time>2022-07-09T09:57:33.000Z</Time>
            <Position>
              <LatitudeDegrees>42.8056618385016918182373046875</LatitudeDegrees>
              <LongitudeDegrees>-0.13742054812610149383544921875</LongitudeDegrees>
            </Position>
            <AltitudeMeters>1995.5999755859375</AltitudeMeters>
            <DistanceMeters>8765.0987906732</DistanceMeters>
          </Trackpoint>
          <Trackpoint>
            <Time>2022-07-09T09:57:38.000Z</Time>
            <Position>
              <LatitudeDegrees>42.80563627369701862335205078125</LatitudeDegrees>
              <LongitudeDegrees>-0.1374335400760173797607421875</LongitudeDegrees>
            </Position>
            <AltitudeMeters>1996</AltitudeMeters>
            <DistanceMeters>8768.1366744968</DistanceMeters>
          </Trackpoint>
          <Trackpoint>
            <Time>2022-07-09T09:57:39.000Z</Time>
            <Position>
              <LatitudeDegrees>42.8056427277624607086181640625</LatitudeDegrees>
              <LongitudeDegrees>-0.13742423616349697113037109375</LongitudeDegrees>
            </Position>
            <AltitudeMeters>1996</AltitudeMeters>
            <DistanceMeters>8769.1862788633</DistanceMeters>
          </Trackpoint>
          <Trackpoint>
            <Time>2022-07-09T09:57:40.000Z</Time>
            <Position>
              <LatitudeDegrees>42.80565018765628337860107421875</LatitudeDegrees>
              <LongitudeDegrees>-0.13741099275648593902587890625</LongitudeDegrees>
            </Position>
            <AltitudeMeters>1996.199951171875</AltitudeMeters>
            <DistanceMeters>8770.5567736281</DistanceMeters>
          </Trackpoint>
          <Trackpoint>
            <Time>2022-07-09T09:57:46.000Z</Time>
            <Position>
              <LatitudeDegrees>42.8056048415601253509521484375</LatitudeDegrees>
              <LongitudeDegrees>-0.13741702772676944732666015625</LongitudeDegrees>
            </Position>
            <AltitudeMeters>1997</AltitudeMeters>
            <DistanceMeters>8775.6280316291</DistanceMeters>
          </Trackpoint>
          <Trackpoint>
            <Time>2022-07-09T09:57:48.000Z</Time>
            <Position>
              <LatitudeDegrees>42.8055869042873382568359375</LatitudeDegrees>
              <LongitudeDegrees>-0.1374243199825286865234375</LongitudeDegrees>
            </Position>
            <AltitudeMeters>1997.4000244140625</AltitudeMeters>
            <DistanceMeters>8777.7121301799</DistanceMeters>
          </Trackpoint>
          <Trackpoint>
            <Time>2022-07-09T09:57:51.000Z</Time>
            <Position>
              <LatitudeDegrees>42.80556368641555309295654296875</LatitudeDegrees>
              <LongitudeDegrees>-0.1374365575611591339111328125</LongitudeDegrees>
            </Position>
            <AltitudeMeters>1997.5999755859375</AltitudeMeters>
            <DistanceMeters>8780.482611181</DistanceMeters>
          </Trackpoint>
          <Trackpoint>
            <Time>2022-07-09T09:57:53.000Z</Time>
            <Position>
              <LatitudeDegrees>42.8055575676262378692626953125</LatitudeDegrees>
              <LongitudeDegrees>-0.13745038770139217376708984375</LongitudeDegrees>
            </Position>
            <AltitudeMeters>1997.800048828125</AltitudeMeters>
            <DistanceMeters>8781.7993399599</DistanceMeters>
          </Trackpoint>
          <Trackpoint>
            <Time>2022-07-09T09:57:56.000Z</Time>
            <Position>
              <LatitudeDegrees>42.80554273165762424468994140625</LatitudeDegrees>
              <LongitudeDegrees>-0.1374731026589870452880859375</LongitudeDegrees>
            </Position>
            <AltitudeMeters>1998</AltitudeMeters>
            <DistanceMeters>8784.282793646</DistanceMeters>
          </Trackpoint>
          <Trackpoint>
            <Time>2022-07-09T09:57:59.000Z</Time>
            <Position>
              <LatitudeDegrees>42.80553996562957763671875</LatitudeDegrees>
              <LongitudeDegrees>-0.13754057697951793670654296875</LongitudeDegrees>
            </Position>
            <AltitudeMeters>1998.199951171875</AltitudeMeters>
            <DistanceMeters>8789.8008927543</DistanceMeters>
          </Trackpoint>
          <Trackpoint>
            <Time>2022-07-09T09:58:04.000Z</Time>
            <Position>
              <LatitudeDegrees>42.80552797950804233551025390625</LatitudeDegrees>
              <LongitudeDegrees>-0.13761274516582489013671875</LongitudeDegrees>
            </Position>
            <AltitudeMeters>1998.4000244140625</AltitudeMeters>
            <DistanceMeters>8795.8431273627</DistanceMeters>
          </Trackpoint>
          <Trackpoint>
            <Time>2022-07-09T09:58:05.000Z</Time>
            <Position>
              <LatitudeDegrees>42.80553124845027923583984375</LatitudeDegrees>
              <LongitudeDegrees>-0.13760310597717761993408203125</LongitudeDegrees>
            </Position>
            <AltitudeMeters>1998.4000244140625</AltitudeMeters>
            <DistanceMeters>8796.7088619322</DistanceMeters>
          </Trackpoint>
          <Trackpoint>
            <Time>2022-07-09T09:58:10.000Z</Time>
            <Position>
              <LatitudeDegrees>42.80552194453775882720947265625</LatitudeDegrees>
              <LongitudeDegrees>-0.13759137131273746490478515625</LongitudeDegrees>
            </Position>
            <AltitudeMeters>1999.199951171875</AltitudeMeters>
            <DistanceMeters>8798.1183358829</DistanceMeters>
          </Trackpoint>
          <Trackpoint>
            <Time>2022-07-09T09:58:11.000Z</Time>
            <Position>
              <LatitudeDegrees>42.8055169992148876190185546875</LatitudeDegrees>
              <LongitudeDegrees>-0.137588270008563995361328125</LongitudeDegrees>
            </Position>
            <AltitudeMeters>1999.199951171875</AltitudeMeters>
            <DistanceMeters>8798.7193375949</DistanceMeters>
          </Trackpoint>
          <Trackpoint>
            <Time>2022-07-09T09:58:15.000Z</Time>
            <Position>
              <LatitudeDegrees>42.80549160204827785491943359375</LatitudeDegrees>
              <LongitudeDegrees>-0.1375699974596500396728515625</LongitudeDegrees>
            </Position>
            <AltitudeMeters>1999.4000244140625</AltitudeMeters>
            <DistanceMeters>8801.9165311352</DistanceMeters>
          </Trackpoint>
          <Trackpoint>
            <Time>2022-07-09T09:58:18.000Z</Time>
            <Position>
              <LatitudeDegrees>42.80547894537448883056640625</LatitudeDegrees>
              <LongitudeDegrees>-0.13755775988101959228515625</LongitudeDegrees>
            </Position>
            <AltitudeMeters>1999.5999755859375</AltitudeMeters>
            <DistanceMeters>8803.6427771277</DistanceMeters>
          </Trackpoint>
          <Trackpoint>
            <Time>2022-07-09T09:58:19.000Z</Time>
            <Position>
              <LatitudeDegrees>42.8054760955274105072021484375</LatitudeDegrees>
              <LongitudeDegrees>-0.13755348511040210723876953125</LongitudeDegrees>
            </Position>
            <AltitudeMeters>1999.5999755859375</AltitudeMeters>
            <DistanceMeters>8804.108311052</DistanceMeters>
          </Trackpoint>
          <Trackpoint>
            <Time>2022-07-09T09:58:21.000Z</Time>
            <Position>
              <LatitudeDegrees>42.805472575128078460693359375</LatitudeDegrees>
              <LongitudeDegrees>-0.13754032552242279052734375</LongitudeDegrees>
            </Position>
            <AltitudeMeters>1999.5999755859375</AltitudeMeters>
            <DistanceMeters>8805.2565232104</DistanceMeters>
          </Trackpoint>
          <Trackpoint>
            <Time>2022-07-09T09:58:24.000Z</Time>
            <Position>
              <LatitudeDegrees>42.805466540157794952392578125</LatitudeDegrees>
              <LongitudeDegrees>-0.13752381317317485809326171875</LongitudeDegrees>
            </Position>
            <AltitudeMeters>1999.800048828125</AltitudeMeters>
            <DistanceMeters>8806.7620294998</DistanceMeters>
          </Trackpoint>
          <Trackpoint>
            <Time>2022-07-09T09:58:27.000Z</Time>
            <Position>
              <LatitudeDegrees>42.8054487705230712890625</LatitudeDegrees>
              <LongitudeDegrees>-0.13750973157584667205810546875</LongitudeDegrees>
            </Position>
            <AltitudeMeters>2000.199951171875</AltitudeMeters>
            <DistanceMeters>8809.050575837</DistanceMeters>
          </Trackpoint>
          <Trackpoint>
            <Time>2022-07-09T09:58:32.000Z</Time>
            <Position>
              <LatitudeDegrees>42.80539202503859996795654296875</LatitudeDegrees>
              <LongitudeDegrees>-0.1375316083431243896484375</LongitudeDegrees>
            </Position>
            <AltitudeMeters>2000.5999755859375</AltitudeMeters>
            <DistanceMeters>8815.6149893516</DistanceMeters>
          </Trackpoint>
          <Trackpoint>
            <Time>2022-07-09T09:58:37.000Z</Time>
            <Position>
              <LatitudeDegrees>42.8053419850766658782958984375</LatitudeDegrees>
              <LongitudeDegrees>-0.13751962222158908843994140625</LongitudeDegrees>
            </Position>
            <AltitudeMeters>2001.5999755859375</AltitudeMeters>
            <DistanceMeters>8821.2688792172</DistanceMeters>
          </Trackpoint>
          <Trackpoint>
            <Time>2022-07-09T09:58:38.000Z</Time>
            <Position>
              <LatitudeDegrees>42.8053342737257480621337890625</LatitudeDegrees>
              <LongitudeDegrees>-0.13751928694546222686767578125</LongitudeDegrees>
            </Position>
            <AltitudeMeters>2002</AltitudeMeters>
            <DistanceMeters>8822.1293827142</DistanceMeters>
          </Trackpoint>
          <Trackpoint>
            <Time>2022-07-09T09:58:41.000Z</Time>
            <Position>
              <LatitudeDegrees>42.805318348109722137451171875</LatitudeDegrees>
              <LongitudeDegrees>-0.13750411570072174072265625</LongitudeDegrees>
            </Position>
            <AltitudeMeters>2002.800048828125</AltitudeMeters>
            <DistanceMeters>8824.2921539915</DistanceMeters>
          </Trackpoint>
          <Trackpoint>
            <Time>2022-07-09T09:58:43.000Z</Time>
            <Position>
              <LatitudeDegrees>42.80530418269336223602294921875</LatitudeDegrees>
              <LongitudeDegrees>-0.13748911209404468536376953125</LongitudeDegrees>
            </Position>
            <AltitudeMeters>2003</AltitudeMeters>
            <DistanceMeters>8826.2899762529</DistanceMeters>
          </Trackpoint>
          <Trackpoint>
            <Time>2022-07-09T09:58:44.000Z</Time>
            <Position>
              <LatitudeDegrees>42.80529680661857128143310546875</LatitudeDegrees>
              <LongitudeDegrees>-0.13748542405664920806884765625</LongitudeDegrees>
            </Position>
            <AltitudeMeters>2003.199951171875</AltitudeMeters>
            <DistanceMeters>8827.1609104762</DistanceMeters>
          </Trackpoint>
          <Trackpoint>
            <Time>2022-07-09T09:58:47.000Z</Time>
            <Position>
              <LatitudeDegrees>42.80527786351740360260009765625</LatitudeDegrees>
              <LongitudeDegrees>-0.1374791376292705535888671875</LongitudeDegrees>
            </Position>
            <AltitudeMeters>2003.800048828125</AltitudeMeters>
            <DistanceMeters>8829.3278529653</DistanceMeters>
          </Trackpoint>
          <Trackpoint>
            <Time>2022-07-09T09:58:50.000Z</Time>
            <Position>
              <LatitudeDegrees>42.8052652068436145782470703125</LatitudeDegrees>
              <LongitudeDegrees>-0.1374603621661663055419921875</LongitudeDegrees>
            </Position>
            <AltitudeMeters>2004</AltitudeMeters>
            <DistanceMeters>8831.4097839663</DistanceMeters>
          </Trackpoint>
          <Trackpoint>
            <Time>2022-07-09T09:58:53.000Z</Time>
            <Position>
              <LatitudeDegrees>42.8052524663507938385009765625</LatitudeDegrees>
              <LongitudeDegrees>-0.1374565064907073974609375</LongitudeDegrees>
            </Position>
            <AltitudeMeters>2004.199951171875</AltitudeMeters>
            <DistanceMeters>8832.8603038081</DistanceMeters>
          </Trackpoint>
          <Trackpoint>
            <Time>2022-07-09T09:58:57.000Z</Time>
            <Position>
              <LatitudeDegrees>42.805229164659976959228515625</LatitudeDegrees>
              <LongitudeDegrees>-0.13743027113378047943115234375</LongitudeDegrees>
            </Position>
            <AltitudeMeters>2004.4000244140625</AltitudeMeters>
            <DistanceMeters>8836.2240347403</DistanceMeters>
          </Trackpoint>
          <Trackpoint>
            <Time>2022-07-09T09:58:59.000Z</Time>
            <Position>
              <LatitudeDegrees>42.805213071405887603759765625</LatitudeDegrees>
              <LongitudeDegrees>-0.13741920702159404754638671875</LongitudeDegrees>
            </Position>
            <AltitudeMeters>2004.800048828125</AltitudeMeters>
            <DistanceMeters>8838.2308765612</DistanceMeters>
          </Trackpoint>
          <Trackpoint>
            <Time>2022-07-09T09:59:02.000Z</Time>
            <Position>
              <LatitudeDegrees>42.8051924519240856170654296875</LatitudeDegrees>
              <LongitudeDegrees>-0.13741568662226200103759765625</LongitudeDegrees>
            </Position>
            <AltitudeMeters>2006.199951171875</AltitudeMeters>
            <DistanceMeters>8840.5429763114</DistanceMeters>
          </Trackpoint>
          <Trackpoint>
            <Time>2022-07-09T09:59:08.000Z</Time>
            <Position>
              <LatitudeDegrees>42.805146016180515289306640625</LatitudeDegrees>
              <LongitudeDegrees>-0.13737402856349945068359375</LongitudeDegrees>
            </Position>
            <AltitudeMeters>2006.5999755859375</AltitudeMeters>
            <DistanceMeters>8846.7306676516</DistanceMeters>
          </Trackpoint>
          <Trackpoint>
            <Time>2022-07-09T09:59:14.000Z</Time>
            <Position>
              <LatitudeDegrees>42.8051160089671611785888671875</LatitudeDegrees>
              <LongitudeDegrees>-0.13734242878854274749755859375</LongitudeDegrees>
            </Position>
            <AltitudeMeters>2007.4000244140625</AltitudeMeters>
            <DistanceMeters>8850.9505385913</DistanceMeters>
          </Trackpoint>
          <Trackpoint>
            <Time>2022-07-09T09:59:15.000Z</Time>
            <Position>
              <LatitudeDegrees>42.80510620214045047760009765625</LatitudeDegrees>
              <LongitudeDegrees>-0.13733941130340099334716796875</LongitudeDegrees>
            </Position>
            <AltitudeMeters>2007.5999755859375</AltitudeMeters>
            <DistanceMeters>8852.0668497259</DistanceMeters>
          </Trackpoint>
          <Trackpoint>
            <Time>2022-07-09T09:59:17.000Z</Time>
            <Position>
              <LatitudeDegrees>42.8050871752202510833740234375</LatitudeDegrees>
              <LongitudeDegrees>-0.13733404688537120819091796875</LongitudeDegrees>
            </Position>
            <AltitudeMeters>2007.800048828125</AltitudeMeters>
            <DistanceMeters>8854.2296210032</DistanceMeters>
          </Trackpoint>
          <Trackpoint>
            <Time>2022-07-09T09:59:19.000Z</Time>
            <Position>
              <LatitudeDegrees>42.80506932176649570465087890625</LatitudeDegrees>
              <LongitudeDegrees>-0.13734477572143077850341796875</LongitudeDegrees>
            </Position>
            <AltitudeMeters>2008.199951171875</AltitudeMeters>
            <DistanceMeters>8856.4007266901</DistanceMeters>
          </Trackpoint>
          <Trackpoint>
            <Time>2022-07-09T09:59:21.000Z</Time>
            <Position>
              <LatitudeDegrees>42.80504669062793254852294921875</LatitudeDegrees>
              <LongitudeDegrees>-0.137355588376522064208984375</LongitudeDegrees>
            </Position>
            <AltitudeMeters>2008.5999755859375</AltitudeMeters>
            <DistanceMeters>8859.0682536793</DistanceMeters>
          </Trackpoint>
          <Trackpoint>
            <Time>2022-07-09T09:59:23.000Z</Time>
            <Position>
              <LatitudeDegrees>42.8050268255174160003662109375</LatitudeDegrees>
              <LongitudeDegrees>-0.1373564265668392181396484375</LongitudeDegrees>
            </Position>
            <AltitudeMeters>2009.199951171875</AltitudeMeters>
            <DistanceMeters>8861.2826004247</DistanceMeters>
          </Trackpoint>
          <Trackpoint>
            <Time>2022-07-09T09:59:25.000Z</Time>
            <Position>
              <LatitudeDegrees>42.80501089990139007568359375</LatitudeDegrees>
              <LongitudeDegrees>-0.13735391199588775634765625</LongitudeDegrees>
            </Position>
            <AltitudeMeters>2009.4000244140625</AltitudeMeters>
            <DistanceMeters>8863.0654596195</DistanceMeters>
          </Trackpoint>
          <Trackpoint>
            <Time>2022-07-09T09:59:26.000Z</Time>
            <Position>
              <LatitudeDegrees>42.805003188550472259521484375</LatitudeDegrees>
              <LongitudeDegrees>-0.137356258928775787353515625</LongitudeDegrees>
            </Position>
            <AltitudeMeters>2009.800048828125</AltitudeMeters>
            <DistanceMeters>8863.9467011154</DistanceMeters>
          </Trackpoint>
          <Trackpoint>
            <Time>2022-07-09T09:59:29.000Z</Time>
            <Position>
              <LatitudeDegrees>42.8049731813371181488037109375</LatitudeDegrees>
              <LongitudeDegrees>-0.1373517327010631561279296875</LongitudeDegrees>
            </Position>
            <AltitudeMeters>2010.4000244140625</AltitudeMeters>
            <DistanceMeters>8867.3064028217</DistanceMeters>
          </Trackpoint>
          <Trackpoint>
            <Time>2022-07-09T09:59:34.000Z</Time>
            <Position>
              <LatitudeDegrees>42.80491836369037628173828125</LatitudeDegrees>
              <LongitudeDegrees>-0.13735550455749034881591796875</LongitudeDegrees>
            </Position>
            <AltitudeMeters>2011</AltitudeMeters>
            <DistanceMeters>8873.416258468</DistanceMeters>
          </Trackpoint>
          <Trackpoint>
            <Time>2022-07-09T09:59:35.000Z</Time>
            <Position>
              <LatitudeDegrees>42.80490118078887462615966796875</LatitudeDegrees>
              <LongitudeDegrees>-0.13736271299421787261962890625</LongitudeDegrees>
            </Position>
            <AltitudeMeters>2011.199951171875</AltitudeMeters>
            <DistanceMeters>8875.4163394325</DistanceMeters>
          </Trackpoint>
          <Trackpoint>
            <Time>2022-07-09T09:59:37.000Z</Time>
            <Position>
              <LatitudeDegrees>42.804880477488040924072265625</LatitudeDegrees>
              <LongitudeDegrees>-0.13736623339354991912841796875</LongitudeDegrees>
            </Position>
            <AltitudeMeters>2011.4000244140625</AltitudeMeters>
            <DistanceMeters>8877.7362371804</DistanceMeters>
          </Trackpoint>
          <Trackpoint>
            <Time>2022-07-09T09:59:41.000Z</Time>
            <Position>
              <LatitudeDegrees>42.80484703369438648223876953125</LatitudeDegrees>
              <LongitudeDegrees>-0.1373594440519809722900390625</LongitudeDegrees>
            </Position>
            <AltitudeMeters>2012</AltitudeMeters>
            <DistanceMeters>8881.4991030914</DistanceMeters>
          </Trackpoint>
          <Trackpoint>
            <Time>2022-07-09T09:59:42.000Z</Time>
            <Position>
              <LatitudeDegrees>42.804832868278026580810546875</LatitudeDegrees>
              <LongitudeDegrees>-0.1373554207384586334228515625</LongitudeDegrees>
            </Position>
            <AltitudeMeters>2012.199951171875</AltitudeMeters>
            <DistanceMeters>8883.1061506523</DistanceMeters>
          </Trackpoint>
          <Trackpoint>
            <Time>2022-07-09T09:59:44.000Z</Time>
            <Position>
              <LatitudeDegrees>42.8048144280910491943359375</LatitudeDegrees>
              <LongitudeDegrees>-0.137361623346805572509765625</LongitudeDegrees>
            </Position>
            <AltitudeMeters>2012.4000244140625</AltitudeMeters>
            <DistanceMeters>8885.2203615783</DistanceMeters>
          </Trackpoint>
          <Trackpoint>
            <Time>2022-07-09T09:59:48.000Z</Time>
            <Position>
              <LatitudeDegrees>42.80479590408504009246826171875</LatitudeDegrees>
              <LongitudeDegrees>-0.137373022735118865966796875</LongitudeDegrees>
            </Position>
            <AltitudeMeters>2013</AltitudeMeters>
            <DistanceMeters>8887.4811188115</DistanceMeters>
          </Trackpoint>
          <Trackpoint>
            <Time>2022-07-09T09:59:50.000Z</Time>
            <Position>
              <LatitudeDegrees>42.8047820739448070526123046875</LatitudeDegrees>
              <LongitudeDegrees>-0.13737947680056095123291015625</LongitudeDegrees>
            </Position>
            <AltitudeMeters>2013.199951171875</AltitudeMeters>
            <DistanceMeters>8889.1104875465</DistanceMeters>
          </Trackpoint>
          <Trackpoint>
            <Time>2022-07-09T09:59:52.000Z</Time>
            <Position>
              <LatitudeDegrees>42.8047661483287811279296875</LatitudeDegrees>
              <LongitudeDegrees>-0.137381069362163543701171875</LongitudeDegrees>
            </Position>
            <AltitudeMeters>2013.199951171875</AltitudeMeters>
            <DistanceMeters>8890.8882745853</DistanceMeters>
          </Trackpoint>
          <Trackpoint>
            <Time>2022-07-09T09:59:55.000Z</Time>
            <Position>
              <LatitudeDegrees>42.80474829487502574920654296875</LatitudeDegrees>
              <LongitudeDegrees>-0.137364976108074188232421875</LongitudeDegrees>
            </Position>
            <AltitudeMeters>2013.199951171875</AltitudeMeters>
            <DistanceMeters>8893.2696372219</DistanceMeters>
          </Trackpoint>
          <Trackpoint>
            <Time>2022-07-09T09:59:59.000Z</Time>
            <Position>
              <LatitudeDegrees>42.8047160245478153228759765625</LatitudeDegrees>
              <LongitudeDegrees>-0.13736288063228130340576171875</LongitudeDegrees>
            </Position>
            <AltitudeMeters>2013.4000244140625</AltitudeMeters>
            <DistanceMeters>8896.8656168475</DistanceMeters>
          </Trackpoint>
          <Trackpoint>
            <Time>2022-07-09T10:00:02.000Z</Time>
            <Position>
              <LatitudeDegrees>42.804700098931789398193359375</LatitudeDegrees>
              <LongitudeDegrees>-0.1373832486569881439208984375</LongitudeDegrees>
            </Position>
            <AltitudeMeters>2013.5999755859375</AltitudeMeters>
            <DistanceMeters>8899.2957752773</DistanceMeters>
          </Trackpoint>
          <Trackpoint>
            <Time>2022-07-09T10:00:03.000Z</Time>
            <Position>
              <LatitudeDegrees>42.80469347722828388214111328125</LatitudeDegrees>
              <LongitudeDegrees>-0.13738936744630336761474609375</LongitudeDegrees>
            </Position>
            <AltitudeMeters>2013.5999755859375</AltitudeMeters>
            <DistanceMeters>8900.1821254624</DistanceMeters>
          </Trackpoint>
          <Trackpoint>
            <Time>2022-07-09T10:00:04.000Z</Time>
            <Position>
              <LatitudeDegrees>42.80468995682895183563232421875</LatitudeDegrees>
              <LongitudeDegrees>-0.1373943127691745758056640625</LongitudeDegrees>
            </Position>
            <AltitudeMeters>2014</AltitudeMeters>
            <DistanceMeters>8900.7522857487</DistanceMeters>
          </Trackpoint>
          <Trackpoint>
            <Time>2022-07-09T10:00:05.000Z</Time>
            <Position>
              <LatitudeDegrees>42.80468509532511234283447265625</LatitudeDegrees>
              <LongitudeDegrees>-0.13740085065364837646484375</LongitudeDegrees>
            </Position>
            <AltitudeMeters>2014.199951171875</AltitudeMeters>
            <DistanceMeters>8901.5242864257</DistanceMeters>
          </Trackpoint>
          <Trackpoint>
            <Time>2022-07-09T10:00:07.000Z</Time>
            <Position>
              <LatitudeDegrees>42.8046731092035770416259765625</LatitudeDegrees>
              <LongitudeDegrees>-0.137405209243297576904296875</LongitudeDegrees>
            </Position>
            <AltitudeMeters>2014.800048828125</AltitudeMeters>
            <DistanceMeters>8902.9078962717</DistanceMeters>
          </Trackpoint>
          <Trackpoint>
            <Time>2022-07-09T10:00:08.000Z</Time>
            <Position>
              <LatitudeDegrees>42.80466766096651554107666015625</LatitudeDegrees>
              <LongitudeDegrees>-0.1374100707471370697021484375</LongitudeDegrees>
            </Position>
            <AltitudeMeters>2015</AltitudeMeters>
            <DistanceMeters>8903.6315981674</DistanceMeters>
          </Trackpoint>
          <Trackpoint>
            <Time>2022-07-09T10:00:11.000Z</Time>
            <Position>
              <LatitudeDegrees>42.80465374700725078582763671875</LatitudeDegrees>
              <LongitudeDegrees>-0.137431360781192779541015625</LongitudeDegrees>
            </Position>
            <AltitudeMeters>2015.4000244140625</AltitudeMeters>
            <DistanceMeters>8905.9592677888</DistanceMeters>
          </Trackpoint>
          <Trackpoint>
            <Time>2022-07-09T10:00:13.000Z</Time>
            <Position>
              <LatitudeDegrees>42.804644107818603515625</LatitudeDegrees>
              <LongitudeDegrees>-0.13742691837251186370849609375</LongitudeDegrees>
            </Position>
            <AltitudeMeters>2015.800048828125</AltitudeMeters>
            <DistanceMeters>8907.0916417796</DistanceMeters>
          </Trackpoint>
          <Trackpoint>
            <Time>2022-07-09T10:00:15.000Z</Time>
            <Position>
              <LatitudeDegrees>42.8046342171728610992431640625</LatitudeDegrees>
              <LongitudeDegrees>-0.13741836883127689361572265625</LongitudeDegrees>
            </Position>
            <AltitudeMeters>2016.4000244140625</AltitudeMeters>
            <DistanceMeters>8908.3945824426</DistanceMeters>
          </Trackpoint>
          <Trackpoint>
            <Time>2022-07-09T10:00:16.000Z</Time>
            <Position>
              <LatitudeDegrees>42.8046322055160999298095703125</LatitudeDegrees>
              <LongitudeDegrees>-0.1374149322509765625</LongitudeDegrees>
            </Position>
            <AltitudeMeters>2016.800048828125</AltitudeMeters>
            <DistanceMeters>8908.7626193248</DistanceMeters>
          </Trackpoint>
          <Trackpoint>
            <Time>2022-07-09T10:00:19.000Z</Time>
            <Position>
              <LatitudeDegrees>42.80461837537586688995361328125</LatitudeDegrees>
              <LongitudeDegrees>-0.13739489950239658355712890625</LongitudeDegrees>
            </Position>
            <AltitudeMeters>2017.199951171875</AltitudeMeters>
            <DistanceMeters>8911.0093531168</DistanceMeters>
          </Trackpoint>
          <Trackpoint>
            <Time>2022-07-09T10:00:24.000Z</Time>
            <Position>
              <LatitudeDegrees>42.80456255190074443817138671875</LatitudeDegrees>
              <LongitudeDegrees>-0.13737763278186321258544921875</LongitudeDegrees>
            </Position>
            <AltitudeMeters>2018</AltitudeMeters>
            <DistanceMeters>8917.3803964863</DistanceMeters>
          </Trackpoint>
          <Trackpoint>
            <Time>2022-07-09T10:00:26.000Z</Time>
            <Position>
              <LatitudeDegrees>42.80454419553279876708984375</LatitudeDegrees>
              <LongitudeDegrees>-0.1373788900673389434814453125</LongitudeDegrees>
            </Position>
            <AltitudeMeters>2018.199951171875</AltitudeMeters>
            <DistanceMeters>8919.4273345582</DistanceMeters>
          </Trackpoint>
          <Trackpoint>
            <Time>2022-07-09T10:00:30.000Z</Time>
            <Position>
              <LatitudeDegrees>42.80450874008238315582275390625</LatitudeDegrees>
              <LongitudeDegrees>-0.13738743960857391357421875</LongitudeDegrees>
            </Position>
            <AltitudeMeters>2019.199951171875</AltitudeMeters>
            <DistanceMeters>8923.4342630473</DistanceMeters>
          </Trackpoint>
          <Trackpoint>
            <Time>2022-07-09T10:00:32.000Z</Time>
            <Position>
              <LatitudeDegrees>42.80449415557086467742919921875</LatitudeDegrees>
              <LongitudeDegrees>-0.1373896189033985137939453125</LongitudeDegrees>
            </Position>
            <AltitudeMeters>2019.4000244140625</AltitudeMeters>
            <DistanceMeters>8925.0691644595</DistanceMeters>
          </Trackpoint>
          <Trackpoint>
            <Time>2022-07-09T10:00:38.000Z</Time>
            <Position>
              <LatitudeDegrees>42.80445107258856296539306640625</LatitudeDegrees>
              <LongitudeDegrees>-0.13736288063228130340576171875</LongitudeDegrees>
            </Position>
            <AltitudeMeters>2019.5999755859375</AltitudeMeters>
            <DistanceMeters>8930.3377937868</DistanceMeters>
          </Trackpoint>
          <Trackpoint>
            <Time>2022-07-09T10:00:39.000Z</Time>
            <Position>
              <LatitudeDegrees>42.80444956384599208831787109375</LatitudeDegrees>
              <LongitudeDegrees>-0.13735768385231494903564453125</LongitudeDegrees>
            </Position>
            <AltitudeMeters>2019.5999755859375</AltitudeMeters>
            <DistanceMeters>8930.8033277111</DistanceMeters>
          </Trackpoint>
          <Trackpoint>
            <Time>2022-07-09T10:00:45.000Z</Time>
            <Position>
              <LatitudeDegrees>42.80443548224866390228271484375</LatitudeDegrees>
              <LongitudeDegrees>-0.13731577433645725250244140625</LongitudeDegrees>
            </Position>
            <AltitudeMeters>2020.199951171875</AltitudeMeters>
            <DistanceMeters>8934.5661936221</DistanceMeters>
          </Trackpoint>
          <Trackpoint>
            <Time>2022-07-09T10:00:46.000Z</Time>
            <Position>
              <LatitudeDegrees>42.80442659743130207061767578125</LatitudeDegrees>
              <LongitudeDegrees>-0.1373198814690113067626953125</LongitudeDegrees>
            </Position>
            <AltitudeMeters>2020.4000244140625</AltitudeMeters>
            <DistanceMeters>8935.6071591226</DistanceMeters>
          </Trackpoint>
          <Trackpoint>
            <Time>2022-07-09T10:00:50.000Z</Time>
            <Position>
              <LatitudeDegrees>42.80439692549407482147216796875</LatitudeDegrees>
              <LongitudeDegrees>-0.13734209351241588592529296875</LongitudeDegrees>
            </Position>
            <AltitudeMeters>2021</AltitudeMeters>
            <DistanceMeters>8939.3748215504</DistanceMeters>
          </Trackpoint>
          <Trackpoint>
            <Time>2022-07-09T10:00:51.000Z</Time>
            <Position>
              <LatitudeDegrees>42.80438770540058612823486328125</LatitudeDegrees>
              <LongitudeDegrees>-0.13735047541558742523193359375</LongitudeDegrees>
            </Position>
            <AltitudeMeters>2021.4000244140625</AltitudeMeters>
            <DistanceMeters>8940.6065085409</DistanceMeters>
          </Trackpoint>
          <Trackpoint>
            <Time>2022-07-09T10:00:52.000Z</Time>
            <Position>
              <LatitudeDegrees>42.80437965877354145050048828125</LatitudeDegrees>
              <LongitudeDegrees>-0.13735801912844181060791015625</LongitudeDegrees>
            </Position>
            <AltitudeMeters>2021.5999755859375</AltitudeMeters>
            <DistanceMeters>8941.6941389993</DistanceMeters>
          </Trackpoint>
          <Trackpoint>
            <Time>2022-07-09T10:00:53.000Z</Time>
            <Position>
              <LatitudeDegrees>42.80437119305133819580078125</LatitudeDegrees>
              <LongitudeDegrees>-0.13736288063228130340576171875</LongitudeDegrees>
            </Position>
            <AltitudeMeters>2021.5999755859375</AltitudeMeters>
            <DistanceMeters>8942.7176080353</DistanceMeters>
          </Trackpoint>
          <Trackpoint>
            <Time>2022-07-09T10:00:59.000Z</Time>
            <Position>
              <LatitudeDegrees>42.80433054082095623016357421875</LatitudeDegrees>
              <LongitudeDegrees>-0.13739054091274738311767578125</LongitudeDegrees>
            </Position>
            <AltitudeMeters>2022.199951171875</AltitudeMeters>
            <DistanceMeters>8947.7746008659</DistanceMeters>
          </Trackpoint>
          <Trackpoint>
            <Time>2022-07-09T10:01:00.000Z</Time>
            <Position>
              <LatitudeDegrees>42.80432567931711673736572265625</LatitudeDegrees>
              <LongitudeDegrees>-0.1374001801013946533203125</LongitudeDegrees>
            </Position>
            <AltitudeMeters>2022.199951171875</AltitudeMeters>
            <DistanceMeters>8948.729607526</DistanceMeters>
          </Trackpoint>
          <Trackpoint>
            <Time>2022-07-09T10:01:04.000Z</Time>
            <Position>
              <LatitudeDegrees>42.80431310646235942840576171875</LatitudeDegrees>
              <LongitudeDegrees>-0.1373969949781894683837890625</LongitudeDegrees>
            </Position>
            <AltitudeMeters>2022.4000244140625</AltitudeMeters>
            <DistanceMeters>8950.1518371571</DistanceMeters>
          </Trackpoint>
          <Trackpoint>
            <Time>2022-07-09T10:01:09.000Z</Time>
            <Position>
              <LatitudeDegrees>42.80428796075284481048583984375</LatitudeDegrees>
              <LongitudeDegrees>-0.137387104332447052001953125</LongitudeDegrees>
            </Position>
            <AltitudeMeters>2022.4000244140625</AltitudeMeters>
            <DistanceMeters>8953.0653010503</DistanceMeters>
          </Trackpoint>
          <Trackpoint>
            <Time>2022-07-09T10:01:12.000Z</Time>
            <Position>
              <LatitudeDegrees>42.8042645752429962158203125</LatitudeDegrees>
              <LongitudeDegrees>-0.1373866014182567596435546875</LongitudeDegrees>
            </Position>
            <AltitudeMeters>2023</AltitudeMeters>
            <DistanceMeters>8955.6677148016</DistanceMeters>
          </Trackpoint>
          <Trackpoint>
            <Time>2022-07-09T10:01:15.000Z</Time>
            <Position>
              <LatitudeDegrees>42.80425258912146091461181640625</LatitudeDegrees>
              <LongitudeDegrees>-0.13738148845732212066650390625</LongitudeDegrees>
            </Position>
            <AltitudeMeters>2023.4000244140625</AltitudeMeters>
            <DistanceMeters>8957.0578357888</DistanceMeters>
          </Trackpoint>
          <Trackpoint>
            <Time>2022-07-09T10:01:20.000Z</Time>
            <Position>
              <LatitudeDegrees>42.8042446263134479522705078125</LatitudeDegrees>
              <LongitudeDegrees>-0.1373292692005634307861328125</LongitudeDegrees>
            </Position>
            <AltitudeMeters>2024.800048828125</AltitudeMeters>
            <DistanceMeters>8961.4125069053</DistanceMeters>
          </Trackpoint>
          <Trackpoint>
            <Time>2022-07-09T10:01:21.000Z</Time>
            <Position>
              <LatitudeDegrees>42.80424177646636962890625</LatitudeDegrees>
              <LongitudeDegrees>-0.13732080347836017608642578125</LongitudeDegrees>
            </Position>
            <AltitudeMeters>2025</AltitudeMeters>
            <DistanceMeters>8962.1727206202</DistanceMeters>
          </Trackpoint>
          <Trackpoint>
            <Time>2022-07-09T10:01:25.000Z</Time>
            <Position>
              <LatitudeDegrees>42.80420682393014430999755859375</LatitudeDegrees>
              <LongitudeDegrees>-0.137310661375522613525390625</LongitudeDegrees>
            </Position>
            <AltitudeMeters>2025.800048828125</AltitudeMeters>
            <DistanceMeters>8966.1502442128</DistanceMeters>
          </Trackpoint>
          <Trackpoint>
            <Time>2022-07-09T10:01:27.000Z</Time>
            <Position>
              <LatitudeDegrees>42.80418989248573780059814453125</LatitudeDegrees>
              <LongitudeDegrees>-0.137309990823268890380859375</LongitudeDegrees>
            </Position>
            <AltitudeMeters>2026</AltitudeMeters>
            <DistanceMeters>8968.0364706359</DistanceMeters>
          </Trackpoint>
          <Trackpoint>
            <Time>2022-07-09T10:01:31.000Z</Time>
            <Position>
              <LatitudeDegrees>42.8041601367294788360595703125</LatitudeDegrees>
              <LongitudeDegrees>-0.13728685677051544189453125</LongitudeDegrees>
            </Position>
            <AltitudeMeters>2027</AltitudeMeters>
            <DistanceMeters>8971.8493990478</DistanceMeters>
          </Trackpoint>
          <Trackpoint>
            <Time>2022-07-09T10:01:34.000Z</Time>
            <Position>
              <LatitudeDegrees>42.80413390137255191802978515625</LatitudeDegrees>
              <LongitudeDegrees>-0.13727989979088306427001953125</LongitudeDegrees>
            </Position>
            <AltitudeMeters>2027.800048828125</AltitudeMeters>
            <DistanceMeters>8974.82420575</DistanceMeters>
          </Trackpoint>
          <Trackpoint>
            <Time>2022-07-09T10:01:37.000Z</Time>
            <Position>
              <LatitudeDegrees>42.804104983806610107421875</LatitudeDegrees>
              <LongitudeDegrees>-0.13729314319789409637451171875</LongitudeDegrees>
            </Position>
            <AltitudeMeters>2028.199951171875</AltitudeMeters>
            <DistanceMeters>8978.2213277224</DistanceMeters>
          </Trackpoint>
          <Trackpoint>
            <Time>2022-07-09T10:01:42.000Z</Time>
            <Position>
              <LatitudeDegrees>42.80407212674617767333984375</LatitudeDegrees>
              <LongitudeDegrees>-0.13735198415815830230712890625</LongitudeDegrees>
            </Position>
            <AltitudeMeters>2028.800048828125</AltitudeMeters>
            <DistanceMeters>8984.2598249428</DistanceMeters>
          </Trackpoint>
          <Trackpoint>
            <Time>2022-07-09T10:01:43.000Z</Time>
            <Position>
              <LatitudeDegrees>42.8040649183094501495361328125</LatitudeDegrees>
              <LongitudeDegrees>-0.13736329972743988037109375</LongitudeDegrees>
            </Position>
            <AltitudeMeters>2028.800048828125</AltitudeMeters>
            <DistanceMeters>8985.4841585124</DistanceMeters>
          </Trackpoint>
          <Trackpoint>
            <Time>2022-07-09T10:01:45.000Z</Time>
            <Position>
              <LatitudeDegrees>42.80405745841562747955322265625</LatitudeDegrees>
              <LongitudeDegrees>-0.1373775489628314971923828125</LongitudeDegrees>
            </Position>
            <AltitudeMeters>2029.4000244140625</AltitudeMeters>
            <DistanceMeters>8986.9127232734</DistanceMeters>
          </Trackpoint>
          <Trackpoint>
            <Time>2022-07-09T10:01:48.000Z</Time>
            <Position>
              <LatitudeDegrees>42.80404237098991870880126953125</LatitudeDegrees>
              <LongitudeDegrees>-0.13738903217017650604248046875</LongitudeDegrees>
            </Position>
            <AltitudeMeters>2029.800048828125</AltitudeMeters>
            <DistanceMeters>8988.8368675876</DistanceMeters>
          </Trackpoint>
          <Trackpoint>
            <Time>2022-07-09T10:01:52.000Z</Time>
            <Position>
              <LatitudeDegrees>42.80403784476220607757568359375</LatitudeDegrees>
              <LongitudeDegrees>-0.1373902894556522369384765625</LongitudeDegrees>
            </Position>
            <AltitudeMeters>2030.5999755859375</AltitudeMeters>
            <DistanceMeters>8989.3573503379</DistanceMeters>
          </Trackpoint>
          <Trackpoint>
            <Time>2022-07-09T10:01:55.000Z</Time>
            <Position>
              <LatitudeDegrees>42.80401982367038726806640625</LatitudeDegrees>
              <LongitudeDegrees>-0.13742390088737010955810546875</LongitudeDegrees>
            </Position>
            <AltitudeMeters>2031.199951171875</AltitudeMeters>
            <DistanceMeters>8992.757129426</DistanceMeters>
          </Trackpoint>
          <Trackpoint>
            <Time>2022-07-09T10:01:58.000Z</Time>
            <Position>
              <LatitudeDegrees>42.8039955161511898040771484375</LatitudeDegrees>
              <LongitudeDegrees>-0.13743898831307888031005859375</LongitudeDegrees>
            </Position>
            <AltitudeMeters>2031.4000244140625</AltitudeMeters>
            <DistanceMeters>8995.7304179823</DistanceMeters>
          </Trackpoint>
          <Trackpoint>
            <Time>2022-07-09T10:02:02.000Z</Time>
            <Position>
              <LatitudeDegrees>42.80396374873816967010498046875</LatitudeDegrees>
              <LongitudeDegrees>-0.13744619674980640411376953125</LongitudeDegrees>
            </Position>
            <AltitudeMeters>2031</AltitudeMeters>
            <DistanceMeters>8999.3138198162</DistanceMeters>
          </Trackpoint>
          <Trackpoint>
            <Time>2022-07-09T10:02:08.000Z</Time>
            <Position>
              <LatitudeDegrees>42.80390557833015918731689453125</LatitudeDegrees>
              <LongitudeDegrees>-0.13744820840656757354736328125</LongitudeDegrees>
            </Position>
            <AltitudeMeters>2031.199951171875</AltitudeMeters>
            <DistanceMeters>9005.7895958319</DistanceMeters>
          </Trackpoint>
          <Trackpoint>
            <Time>2022-07-09T10:02:10.000Z</Time>
            <Position>
              <LatitudeDegrees>42.8038902394473552703857421875</LatitudeDegrees>
              <LongitudeDegrees>-0.13745960779488086700439453125</LongitudeDegrees>
            </Position>
            <AltitudeMeters>2031.5999755859375</AltitudeMeters>
            <DistanceMeters>9007.732421597</DistanceMeters>
          </Trackpoint>
          <Trackpoint>
            <Time>2022-07-09T10:02:11.000Z</Time>
            <Position>
              <LatitudeDegrees>42.80388227663934230804443359375</LatitudeDegrees>
              <LongitudeDegrees>-0.13746497221291065216064453125</LongitudeDegrees>
            </Position>
            <AltitudeMeters>2031.800048828125</AltitudeMeters>
            <DistanceMeters>9008.7199681812</DistanceMeters>
          </Trackpoint>
          <Trackpoint>
            <Time>2022-07-09T10:02:14.000Z</Time>
            <Position>
              <LatitudeDegrees>42.8038422949612140655517578125</LatitudeDegrees>
              <LongitudeDegrees>-0.137472935020923614501953125</LongitudeDegrees>
            </Position>
            <AltitudeMeters>2032.199951171875</AltitudeMeters>
            <DistanceMeters>9013.2174531711</DistanceMeters>
          </Trackpoint>
          <Trackpoint>
            <Time>2022-07-09T10:02:15.000Z</Time>
            <Position>
              <LatitudeDegrees>42.80383131466805934906005859375</LatitudeDegrees>
              <LongitudeDegrees>-0.13747771270573139190673828125</LongitudeDegrees>
            </Position>
            <AltitudeMeters>2032.4000244140625</AltitudeMeters>
            <DistanceMeters>9014.4994336362</DistanceMeters>
          </Trackpoint>
          <Trackpoint>
            <Time>2022-07-09T10:02:16.000Z</Time>
            <Position>
              <LatitudeDegrees>42.80382209457457065582275390625</LatitudeDegrees>
              <LongitudeDegrees>-0.137481652200222015380859375</LongitudeDegrees>
            </Position>
            <AltitudeMeters>2032.4000244140625</AltitudeMeters>
            <DistanceMeters>9015.5745381822</DistanceMeters>
          </Trackpoint>
          <Trackpoint>
            <Time>2022-07-09T10:02:17.000Z</Time>
            <Position>
              <LatitudeDegrees>42.8038148023188114166259765625</LatitudeDegrees>
              <LongitudeDegrees>-0.13748374767601490020751953125</LongitudeDegrees>
            </Position>
            <AltitudeMeters>2032.5999755859375</AltitudeMeters>
            <DistanceMeters>9016.4029618719</DistanceMeters>
          </Trackpoint>
          <Trackpoint>
            <Time>2022-07-09T10:02:19.000Z</Time>
            <Position>
              <LatitudeDegrees>42.80379317700862884521484375</LatitudeDegrees>
              <LongitudeDegrees>-0.13748793862760066986083984375</LongitudeDegrees>
            </Position>
            <AltitudeMeters>2033</AltitudeMeters>
            <DistanceMeters>9018.8331203018</DistanceMeters>
          </Trackpoint>
          <Trackpoint>
            <Time>2022-07-09T10:02:21.000Z</Time>
            <Position>
              <LatitudeDegrees>42.80377096496522426605224609375</LatitudeDegrees>
              <LongitudeDegrees>-0.13749648816883563995361328125</LongitudeDegrees>
            </Position>
            <AltitudeMeters>2033.199951171875</AltitudeMeters>
            <DistanceMeters>9021.4023586871</DistanceMeters>
          </Trackpoint>
          <Trackpoint>
            <Time>2022-07-09T10:02:24.000Z</Time>
            <Position>
              <LatitudeDegrees>42.80374296940863132476806640625</LatitudeDegrees>
              <LongitudeDegrees>-0.13751442544162273406982421875</LongitudeDegrees>
            </Position>
            <AltitudeMeters>2033.199951171875</AltitudeMeters>
            <DistanceMeters>9024.8443726752</DistanceMeters>
          </Trackpoint>
          <Trackpoint>
            <Time>2022-07-09T10:02:26.000Z</Time>
            <Position>
              <LatitudeDegrees>42.803719751536846160888671875</LatitudeDegrees>
              <LongitudeDegrees>-0.1375316083431243896484375</LongitudeDegrees>
            </Position>
            <AltitudeMeters>2033</AltitudeMeters>
            <DistanceMeters>9027.7825273819</DistanceMeters>
          </Trackpoint>
          <Trackpoint>
            <Time>2022-07-09T10:02:27.000Z</Time>
            <Position>
              <LatitudeDegrees>42.80370734632015228271484375</LatitudeDegrees>
              <LongitudeDegrees>-0.1375391520559787750244140625</LongitudeDegrees>
            </Position>
            <AltitudeMeters>2033</AltitudeMeters>
            <DistanceMeters>9029.2940198034</DistanceMeters>
          </Trackpoint>
          <Trackpoint>
            <Time>2022-07-09T10:02:30.000Z</Time>
            <Position>
              <LatitudeDegrees>42.8036776743829250335693359375</LatitudeDegrees>
              <LongitudeDegrees>-0.13756035827100276947021484375</LongitudeDegrees>
            </Position>
            <AltitudeMeters>2033.4000244140625</AltitudeMeters>
            <DistanceMeters>9033.0231373564</DistanceMeters>
          </Trackpoint>
          <Trackpoint>
            <Time>2022-07-09T10:02:33.000Z</Time>
            <Position>
              <LatitudeDegrees>42.8036525286734104156494140625</LatitudeDegrees>
              <LongitudeDegrees>-0.13758801855146884918212890625</LongitudeDegrees>
            </Position>
            <AltitudeMeters>2033.800048828125</AltitudeMeters>
            <DistanceMeters>9036.619116982</DistanceMeters>
          </Trackpoint>
          <Trackpoint>
            <Time>2022-07-09T10:02:35.000Z</Time>
            <Position>
              <LatitudeDegrees>42.80362931080162525177001953125</LatitudeDegrees>
              <LongitudeDegrees>-0.13760243542492389678955078125</LongitudeDegrees>
            </Position>
            <AltitudeMeters>2033.800048828125</AltitudeMeters>
            <DistanceMeters>9039.4588103218</DistanceMeters>
          </Trackpoint>
          <Trackpoint>
            <Time>2022-07-09T10:02:36.000Z</Time>
            <Position>
              <LatitudeDegrees>42.80362428165972232818603515625</LatitudeDegrees>
              <LongitudeDegrees>-0.13761484064161777496337890625</LongitudeDegrees>
            </Position>
            <AltitudeMeters>2034.199951171875</AltitudeMeters>
            <DistanceMeters>9040.6226451325</DistanceMeters>
          </Trackpoint>
          <Trackpoint>
            <Time>2022-07-09T10:02:40.000Z</Time>
            <Position>
              <LatitudeDegrees>42.8036089427769184112548828125</LatitudeDegrees>
              <LongitudeDegrees>-0.13762741349637508392333984375</LongitudeDegrees>
            </Position>
            <AltitudeMeters>2034.4000244140625</AltitudeMeters>
            <DistanceMeters>9042.6159423094</DistanceMeters>
          </Trackpoint>
          <Trackpoint>
            <Time>2022-07-09T10:02:45.000Z</Time>
            <Position>
              <LatitudeDegrees>42.803570888936519622802734375</LatitudeDegrees>
              <LongitudeDegrees>-0.13761542737483978271484375</LongitudeDegrees>
            </Position>
            <AltitudeMeters>2034.4000244140625</AltitudeMeters>
            <DistanceMeters>9046.9623108995</DistanceMeters>
          </Trackpoint>
          <Trackpoint>
            <Time>2022-07-09T10:02:50.000Z</Time>
            <Position>
              <LatitudeDegrees>42.80353124253451824188232421875</LatitudeDegrees>
              <LongitudeDegrees>-0.13762858696281909942626953125</LongitudeDegrees>
            </Position>
            <AltitudeMeters>2034.4000244140625</AltitudeMeters>
            <DistanceMeters>9051.5037528069</DistanceMeters>
          </Trackpoint>
          <Trackpoint>
            <Time>2022-07-09T10:02:56.000Z</Time>
            <Position>
              <LatitudeDegrees>42.80347927473485469818115234375</LatitudeDegrees>
              <LongitudeDegrees>-0.1376997493207454681396484375</LongitudeDegrees>
            </Position>
            <AltitudeMeters>2034.5999755859375</AltitudeMeters>
            <DistanceMeters>9059.7025264376</DistanceMeters>
          </Trackpoint>
          <Trackpoint>
            <Time>2022-07-09T10:03:00.000Z</Time>
            <Position>
              <LatitudeDegrees>42.80345111154019832611083984375</LatitudeDegrees>
              <LongitudeDegrees>-0.13774459250271320343017578125</LongitudeDegrees>
            </Position>
            <AltitudeMeters>2035</AltitudeMeters>
            <DistanceMeters>9064.5236691203</DistanceMeters>
          </Trackpoint>
          <Trackpoint>
            <Time>2022-07-09T10:03:01.000Z</Time>
            <Position>
              <LatitudeDegrees>42.8034439869225025177001953125</LatitudeDegrees>
              <LongitudeDegrees>-0.13775029219686985015869140625</LongitudeDegrees>
            </Position>
            <AltitudeMeters>2035.199951171875</AltitudeMeters>
            <DistanceMeters>9065.4449872986</DistanceMeters>
          </Trackpoint>
          <Trackpoint>
            <Time>2022-07-09T10:03:02.000Z</Time>
            <Position>
              <LatitudeDegrees>42.8034356050193309783935546875</LatitudeDegrees>
              <LongitudeDegrees>-0.1377542316913604736328125</LongitudeDegrees>
            </Position>
            <AltitudeMeters>2035.199951171875</AltitudeMeters>
            <DistanceMeters>9066.4325338828</DistanceMeters>
          </Trackpoint>
          <Trackpoint>
            <Time>2022-07-09T10:03:03.000Z</Time>
            <Position>
              <LatitudeDegrees>42.8034255467355251312255859375</LatitudeDegrees>
              <LongitudeDegrees>-0.1377590931951999664306640625</LongitudeDegrees>
            </Position>
            <AltitudeMeters>2035.4000244140625</AltitudeMeters>
            <DistanceMeters>9067.6194171649</DistanceMeters>
          </Trackpoint>
          <Trackpoint>
            <Time>2022-07-09T10:03:07.000Z</Time>
            <Position>
              <LatitudeDegrees>42.8033987246453762054443359375</LatitudeDegrees>
              <LongitudeDegrees>-0.13779588975012302398681640625</LongitudeDegrees>
            </Position>
            <AltitudeMeters>2035.5999755859375</AltitudeMeters>
            <DistanceMeters>9071.8553069055</DistanceMeters>
          </Trackpoint>
          <Trackpoint>
            <Time>2022-07-09T10:03:09.000Z</Time>
            <Position>
              <LatitudeDegrees>42.80339294113218784332275390625</LatitudeDegrees>
              <LongitudeDegrees>-0.1378026790916919708251953125</LongitudeDegrees>
            </Position>
            <AltitudeMeters>2035.800048828125</AltitudeMeters>
            <DistanceMeters>9072.7052516775</DistanceMeters>
          </Trackpoint>
          <Trackpoint>
            <Time>2022-07-09T10:03:13.000Z</Time>
            <Position>
              <LatitudeDegrees>42.80337165109813213348388671875</LatitudeDegrees>
              <LongitudeDegrees>-0.13782329857349395751953125</LongitudeDegrees>
            </Position>
            <AltitudeMeters>2036.199951171875</AltitudeMeters>
            <DistanceMeters>9075.6109566651</DistanceMeters>
          </Trackpoint>
          <Trackpoint>
            <Time>2022-07-09T10:03:15.000Z</Time>
            <Position>
              <LatitudeDegrees>42.8033568151295185089111328125</LatitudeDegrees>
              <LongitudeDegrees>-0.13783872127532958984375</LongitudeDegrees>
            </Position>
            <AltitudeMeters>2036.199951171875</AltitudeMeters>
            <DistanceMeters>9077.6841948056</DistanceMeters>
          </Trackpoint>
          <Trackpoint>
            <Time>2022-07-09T10:03:21.000Z</Time>
            <Position>
              <LatitudeDegrees>42.80330694280564785003662109375</LatitudeDegrees>
              <LongitudeDegrees>-0.13788155280053615570068359375</LongitudeDegrees>
            </Position>
            <AltitudeMeters>2036.199951171875</AltitudeMeters>
            <DistanceMeters>9084.2458565224</DistanceMeters>
          </Trackpoint>
          <Trackpoint>
            <Time>2022-07-09T10:03:23.000Z</Time>
            <Position>
              <LatitudeDegrees>42.80328732915222644805908203125</LatitudeDegrees>
              <LongitudeDegrees>-0.13788498938083648681640625</LongitudeDegrees>
            </Position>
            <AltitudeMeters>2036.4000244140625</AltitudeMeters>
            <DistanceMeters>9086.4458840163</DistanceMeters>
          </Trackpoint>
          <Trackpoint>
            <Time>2022-07-09T10:03:25.000Z</Time>
            <Position>
              <LatitudeDegrees>42.8032612614333629608154296875</LatitudeDegrees>
              <LongitudeDegrees>-0.13788406737148761749267578125</LongitudeDegrees>
            </Position>
            <AltitudeMeters>2036.800048828125</AltitudeMeters>
            <DistanceMeters>9089.3500347353</DistanceMeters>
          </Trackpoint>
          <Trackpoint>
            <Time>2022-07-09T10:03:26.000Z</Time>
            <Position>
              <LatitudeDegrees>42.8032485209405422210693359375</LatitudeDegrees>
              <LongitudeDegrees>-0.13788607902824878692626953125</LongitudeDegrees>
            </Position>
            <AltitudeMeters>2037</AltitudeMeters>
            <DistanceMeters>9090.7785994963</DistanceMeters>
          </Trackpoint>
          <Trackpoint>
            <Time>2022-07-09T10:03:28.000Z</Time>
            <Position>
              <LatitudeDegrees>42.80323150567710399627685546875</LatitudeDegrees>
              <LongitudeDegrees>-0.1378932036459445953369140625</LongitudeDegrees>
            </Position>
            <AltitudeMeters>2037</AltitudeMeters>
            <DistanceMeters>9092.7582593602</DistanceMeters>
          </Trackpoint>
          <Trackpoint>
            <Time>2022-07-09T10:03:30.000Z</Time>
            <Position>
              <LatitudeDegrees>42.8032196871936321258544921875</LatitudeDegrees>
              <LongitudeDegrees>-0.13790334574878215789794921875</LongitudeDegrees>
            </Position>
            <AltitudeMeters>2037.199951171875</AltitudeMeters>
            <DistanceMeters>9094.3139137199</DistanceMeters>
          </Trackpoint>
          <Trackpoint>
            <Time>2022-07-09T10:03:31.000Z</Time>
            <Position>
              <LatitudeDegrees>42.80321457423269748687744140625</LatitudeDegrees>
              <LongitudeDegrees>-0.13790778815746307373046875</LongitudeDegrees>
            </Position>
            <AltitudeMeters>2037.199951171875</AltitudeMeters>
            <DistanceMeters>9094.9991611023</DistanceMeters>
          </Trackpoint>
          <Trackpoint>
            <Time>2022-07-09T10:03:32.000Z</Time>
            <Position>
              <LatitudeDegrees>42.8032116405665874481201171875</LatitudeDegrees>
              <LongitudeDegrees>-0.1379086263477802276611328125</LongitudeDegrees>
            </Position>
            <AltitudeMeters>2037.4000244140625</AltitudeMeters>
            <DistanceMeters>9095.3547185101</DistanceMeters>
          </Trackpoint>
          <Trackpoint>
            <Time>2022-07-09T10:03:35.000Z</Time>
            <Position>
              <LatitudeDegrees>42.8031858243048191070556640625</LatitudeDegrees>
              <LongitudeDegrees>-0.1379097998142242431640625</LongitudeDegrees>
            </Position>
            <AltitudeMeters>2038</AltitudeMeters>
            <DistanceMeters>9098.2307487642</DistanceMeters>
          </Trackpoint>
          <Trackpoint>
            <Time>2022-07-09T10:03:37.000Z</Time>
            <Position>
              <LatitudeDegrees>42.80316629447042942047119140625</LatitudeDegrees>
              <LongitudeDegrees>-0.13791122473776340484619140625</LongitudeDegrees>
            </Position>
            <AltitudeMeters>2038.199951171875</AltitudeMeters>
            <DistanceMeters>9100.4060096811</DistanceMeters>
          </Trackpoint>
          <Trackpoint>
            <Time>2022-07-09T10:03:39.000Z</Time>
            <Position>
              <LatitudeDegrees>42.80314735136926174163818359375</LatitudeDegrees>
              <LongitudeDegrees>-0.13791759498417377471923828125</LongitudeDegrees>
            </Position>
            <AltitudeMeters>2038.199951171875</AltitudeMeters>
            <DistanceMeters>9102.577115368</DistanceMeters>
          </Trackpoint>
          <Trackpoint>
            <Time>2022-07-09T10:03:41.000Z</Time>
            <Position>
              <LatitudeDegrees>42.80312396585941314697265625</LatitudeDegrees>
              <LongitudeDegrees>-0.13791977427899837493896484375</LongitudeDegrees>
            </Position>
            <AltitudeMeters>2038.4000244140625</AltitudeMeters>
            <DistanceMeters>9105.1864596609</DistanceMeters>
          </Trackpoint>
          <Trackpoint>
            <Time>2022-07-09T10:03:46.000Z</Time>
            <Position>
              <LatitudeDegrees>42.80307493172585964202880859375</LatitudeDegrees>
              <LongitudeDegrees>-0.13794458471238613128662109375</LongitudeDegrees>
            </Position>
            <AltitudeMeters>2038.800048828125</AltitudeMeters>
            <DistanceMeters>9111.0087364467</DistanceMeters>
          </Trackpoint>
          <Trackpoint>
            <Time>2022-07-09T10:03:49.000Z</Time>
            <Position>
              <LatitudeDegrees>42.80305112712085247039794921875</LatitudeDegrees>
              <LongitudeDegrees>-0.137959420680999755859375</LongitudeDegrees>
            </Position>
            <AltitudeMeters>2039.5999755859375</AltitudeMeters>
            <DistanceMeters>9113.92220034</DistanceMeters>
          </Trackpoint>
          <Trackpoint>
            <Time>2022-07-09T10:03:51.000Z</Time>
            <Position>
              <LatitudeDegrees>42.8030388057231903076171875</LatitudeDegrees>
              <LongitudeDegrees>-0.13796470127999782562255859375</LongitudeDegrees>
            </Position>
            <AltitudeMeters>2040</AltitudeMeters>
            <DistanceMeters>9115.3570722608</DistanceMeters>
          </Trackpoint>
          <Trackpoint>
            <Time>2022-07-09T10:03:53.000Z</Time>
            <Position>
              <LatitudeDegrees>42.80302832834422588348388671875</LatitudeDegrees>
              <LongitudeDegrees>-0.1379686407744884490966796875</LongitudeDegrees>
            </Position>
            <AltitudeMeters>2040</AltitudeMeters>
            <DistanceMeters>9116.5628260945</DistanceMeters>
          </Trackpoint>
          <Trackpoint>
            <Time>2022-07-09T10:03:59.000Z</Time>
            <Position>
              <LatitudeDegrees>42.80299924314022064208984375</LatitudeDegrees>
              <LongitudeDegrees>-0.13793771155178546905517578125</LongitudeDegrees>
            </Position>
            <AltitudeMeters>2040.4000244140625</AltitudeMeters>
            <DistanceMeters>9120.6677161837</DistanceMeters>
          </Trackpoint>
          <Trackpoint>
            <Time>2022-07-09T10:04:02.000Z</Time>
            <Position>
              <LatitudeDegrees>42.8029851615428924560546875</LatitudeDegrees>
              <LongitudeDegrees>-0.13792681507766246795654296875</LongitudeDegrees>
            </Position>
            <AltitudeMeters>2040.5999755859375</AltitudeMeters>
            <DistanceMeters>9122.4707213195</DistanceMeters>
          </Trackpoint>
          <Trackpoint>
            <Time>2022-07-09T10:04:03.000Z</Time>
            <Position>
              <LatitudeDegrees>42.80297753401100635528564453125</LatitudeDegrees>
              <LongitudeDegrees>-0.1379290781915187835693359375</LongitudeDegrees>
            </Position>
            <AltitudeMeters>2040.800048828125</AltitudeMeters>
            <DistanceMeters>9123.3416555428</DistanceMeters>
          </Trackpoint>
          <Trackpoint>
            <Time>2022-07-09T10:04:06.000Z</Time>
            <Position>
              <LatitudeDegrees>42.802947945892810821533203125</LatitudeDegrees>
              <LongitudeDegrees>-0.13793922029435634613037109375</LongitudeDegrees>
            </Position>
            <AltitudeMeters>2041.199951171875</AltitudeMeters>
            <DistanceMeters>9126.7374481777</DistanceMeters>
          </Trackpoint>
          <Trackpoint>
            <Time>2022-07-09T10:04:08.000Z</Time>
            <Position>
              <LatitudeDegrees>42.802918441593647003173828125</LatitudeDegrees>
              <LongitudeDegrees>-0.1379562355577945709228515625</LongitudeDegrees>
            </Position>
            <AltitudeMeters>2041.800048828125</AltitudeMeters>
            <DistanceMeters>9130.3031665671</DistanceMeters>
          </Trackpoint>
          <Trackpoint>
            <Time>2022-07-09T10:04:09.000Z</Time>
            <Position>
              <LatitudeDegrees>42.802908383309841156005859375</LatitudeDegrees>
              <LongitudeDegrees>-0.1379619352519512176513671875</LongitudeDegrees>
            </Position>
            <AltitudeMeters>2041.800048828125</AltitudeMeters>
            <DistanceMeters>9131.5126591814</DistanceMeters>
          </Trackpoint>
          <Trackpoint>
            <Time>2022-07-09T10:04:12.000Z</Time>
            <Position>
              <LatitudeDegrees>42.80287745408713817596435546875</LatitudeDegrees>
              <LongitudeDegrees>-0.13797350227832794189453125</LongitudeDegrees>
            </Position>
            <AltitudeMeters>2042</AltitudeMeters>
            <DistanceMeters>9135.0821742552</DistanceMeters>
          </Trackpoint>
          <Trackpoint>
            <Time>2022-07-09T10:04:17.000Z</Time>
            <Position>
              <LatitudeDegrees>42.8028210438787937164306640625</LatitudeDegrees>
              <LongitudeDegrees>-0.1379646174609661102294921875</LongitudeDegrees>
            </Position>
            <AltitudeMeters>2042.800048828125</AltitudeMeters>
            <DistanceMeters>9141.4027009887</DistanceMeters>
          </Trackpoint>
          <Trackpoint>
            <Time>2022-07-09T10:04:18.000Z</Time>
            <Position>
              <LatitudeDegrees>42.80281358398497104644775390625</LatitudeDegrees>
              <LongitudeDegrees>-0.13797475956380367279052734375</LongitudeDegrees>
            </Position>
            <AltitudeMeters>2043</AltitudeMeters>
            <DistanceMeters>9142.5742690061</DistanceMeters>
          </Trackpoint>
          <Trackpoint>
            <Time>2022-07-09T10:04:21.000Z</Time>
            <Position>
              <LatitudeDegrees>42.8027861751616001129150390625</LatitudeDegrees>
              <LongitudeDegrees>-0.1380082033574581146240234375</LongitudeDegrees>
            </Position>
            <AltitudeMeters>2043.199951171875</AltitudeMeters>
            <DistanceMeters>9146.6681451498</DistanceMeters>
          </Trackpoint>
          <Trackpoint>
            <Time>2022-07-09T10:04:23.000Z</Time>
            <Position>
              <LatitudeDegrees>42.802762202918529510498046875</LatitudeDegrees>
              <LongitudeDegrees>-0.1380331814289093017578125</LongitudeDegrees>
            </Position>
            <AltitudeMeters>2043.199951171875</AltitudeMeters>
            <DistanceMeters>9150.0251580187</DistanceMeters>
          </Trackpoint>
          <Trackpoint>
            <Time>2022-07-09T10:04:27.000Z</Time>
            <Position>
              <LatitudeDegrees>42.80271953903138637542724609375</LatitudeDegrees>
              <LongitudeDegrees>-0.1380698941648006439208984375</LongitudeDegrees>
            </Position>
            <AltitudeMeters>2042.199951171875</AltitudeMeters>
            <DistanceMeters>9155.6405856019</DistanceMeters>
          </Trackpoint>
          <Trackpoint>
            <Time>2022-07-09T10:04:30.000Z</Time>
            <Position>
              <LatitudeDegrees>42.80268802307546138763427734375</LatitudeDegrees>
              <LongitudeDegrees>-0.1380799524486064910888671875</LongitudeDegrees>
            </Position>
            <AltitudeMeters>2042.800048828125</AltitudeMeters>
            <DistanceMeters>9159.2440908297</DistanceMeters>
          </Trackpoint>
          <Trackpoint>
            <Time>2022-07-09T10:04:36.000Z</Time>
            <Position>
              <LatitudeDegrees>42.802634797990322113037109375</LatitudeDegrees>
              <LongitudeDegrees>-0.1380963809788227081298828125</LongitudeDegrees>
            </Position>
            <AltitudeMeters>2043.4000244140625</AltitudeMeters>
            <DistanceMeters>9165.3183720505</DistanceMeters>
          </Trackpoint>
          <Trackpoint>
            <Time>2022-07-09T10:04:38.000Z</Time>
            <Position>
              <LatitudeDegrees>42.80261442996561527252197265625</LatitudeDegrees>
              <LongitudeDegrees>-0.1381121389567852020263671875</LongitudeDegrees>
            </Position>
            <AltitudeMeters>2043.199951171875</AltitudeMeters>
            <DistanceMeters>9167.9277163434</DistanceMeters>
          </Trackpoint>
          <Trackpoint>
            <Time>2022-07-09T10:04:44.000Z</Time>
            <Position>
              <LatitudeDegrees>42.80257704667747020721435546875</LatitudeDegrees>
              <LongitudeDegrees>-0.13816519640386104583740234375</LongitudeDegrees>
            </Position>
            <AltitudeMeters>2042.5999755859375</AltitudeMeters>
            <DistanceMeters>9173.9347277027</DistanceMeters>
          </Trackpoint>
          <Trackpoint>
            <Time>2022-07-09T10:04:47.000Z</Time>
            <Position>
              <LatitudeDegrees>42.80256900005042552947998046875</LatitudeDegrees>
              <LongitudeDegrees>-0.13819755055010318756103515625</LongitudeDegrees>
            </Position>
            <AltitudeMeters>2042.800048828125</AltitudeMeters>
            <DistanceMeters>9176.7246965008</DistanceMeters>
          </Trackpoint>
          <Trackpoint>
            <Time>2022-07-09T10:04:50.000Z</Time>
            <Position>
              <LatitudeDegrees>42.8025491349399089813232421875</LatitudeDegrees>
              <LongitudeDegrees>-0.13823057524859905242919921875</LongitudeDegrees>
            </Position>
            <AltitudeMeters>2043.199951171875</AltitudeMeters>
            <DistanceMeters>9180.2110244965</DistanceMeters>
          </Trackpoint>
          <Trackpoint>
            <Time>2022-07-09T10:04:55.000Z</Time>
            <Position>
              <LatitudeDegrees>42.80251242220401763916015625</LatitudeDegrees>
              <LongitudeDegrees>-0.13830902986228466033935546875</LongitudeDegrees>
            </Position>
            <AltitudeMeters>2043</AltitudeMeters>
            <DistanceMeters>9187.8107856069</DistanceMeters>
          </Trackpoint>
          <Trackpoint>
            <Time>2022-07-09T10:04:56.000Z</Time>
            <Position>
              <LatitudeDegrees>42.80250479467213153839111328125</LatitudeDegrees>
              <LongitudeDegrees>-0.13832210563123226165771484375</LongitudeDegrees>
            </Position>
            <AltitudeMeters>2043</AltitudeMeters>
            <DistanceMeters>9189.1812803717</DistanceMeters>
          </Trackpoint>
          <Trackpoint>
            <Time>2022-07-09T10:04:57.000Z</Time>
            <Position>
              <LatitudeDegrees>42.80249901115894317626953125</LatitudeDegrees>
              <LongitudeDegrees>-0.1383309066295623779296875</LongitudeDegrees>
            </Position>
            <AltitudeMeters>2042.800048828125</AltitudeMeters>
            <DistanceMeters>9190.1456961917</DistanceMeters>
          </Trackpoint>
          <Trackpoint>
            <Time>2022-07-09T10:04:59.000Z</Time>
            <Position>
              <LatitudeDegrees>42.80249255709350109100341796875</LatitudeDegrees>
              <LongitudeDegrees>-0.13835781253874301910400390625</LongitudeDegrees>
            </Position>
            <AltitudeMeters>2042.800048828125</AltitudeMeters>
            <DistanceMeters>9192.4558423295</DistanceMeters>
          </Trackpoint>
          <Trackpoint>
            <Time>2022-07-09T10:05:00.000Z</Time>
            <Position>
              <LatitudeDegrees>42.80248970724642276763916015625</LatitudeDegrees>
              <LongitudeDegrees>-0.1383703015744686126708984375</LongitudeDegrees>
            </Position>
            <AltitudeMeters>2042.800048828125</AltitudeMeters>
            <DistanceMeters>9193.5225145528</DistanceMeters>
          </Trackpoint>
          <Trackpoint>
            <Time>2022-07-09T10:05:02.000Z</Time>
            <Position>
              <LatitudeDegrees>42.80248031951487064361572265625</LatitudeDegrees>
              <LongitudeDegrees>-0.13838698156177997589111328125</LongitudeDegrees>
            </Position>
            <AltitudeMeters>2042.800048828125</AltitudeMeters>
            <DistanceMeters>9195.2382665514</DistanceMeters>
          </Trackpoint>
          <Trackpoint>
            <Time>2022-07-09T10:05:08.000Z</Time>
            <Position>
              <LatitudeDegrees>42.8024314530193805694580078125</LatitudeDegrees>
              <LongitudeDegrees>-0.13844163157045841217041015625</LongitudeDegrees>
            </Position>
            <AltitudeMeters>2042.5999755859375</AltitudeMeters>
            <DistanceMeters>9202.2734530443</DistanceMeters>
          </Trackpoint>
          <Trackpoint>
            <Time>2022-07-09T10:05:10.000Z</Time>
            <Position>
              <LatitudeDegrees>42.8024110011756420135498046875</LatitudeDegrees>
              <LongitudeDegrees>-0.13844154775142669677734375</LongitudeDegrees>
            </Position>
            <AltitudeMeters>2042.5999755859375</AltitudeMeters>
            <DistanceMeters>9204.5501312997</DistanceMeters>
          </Trackpoint>
          <Trackpoint>
            <Time>2022-07-09T10:05:13.000Z</Time>
            <Position>
              <LatitudeDegrees>42.80237655155360698699951171875</LatitudeDegrees>
              <LongitudeDegrees>-0.13844422996044158935546875</LongitudeDegrees>
            </Position>
            <AltitudeMeters>2042.5999755859375</AltitudeMeters>
            <DistanceMeters>9208.3913739254</DistanceMeters>
          </Trackpoint>
          <Trackpoint>
            <Time>2022-07-09T10:05:15.000Z</Time>
            <Position>
              <LatitudeDegrees>42.802343778312206268310546875</LatitudeDegrees>
              <LongitudeDegrees>-0.13843727298080921173095703125</LongitudeDegrees>
            </Position>
            <AltitudeMeters>2042.5999755859375</AltitudeMeters>
            <DistanceMeters>9212.0839902649</DistanceMeters>
          </Trackpoint>
          <Trackpoint>
            <Time>2022-07-09T10:05:17.000Z</Time>
            <Position>
              <LatitudeDegrees>42.80230111442506313323974609375</LatitudeDegrees>
              <LongitudeDegrees>-0.1384169049561023712158203125</LongitudeDegrees>
            </Position>
            <AltitudeMeters>2042.5999755859375</AltitudeMeters>
            <DistanceMeters>9217.1150243805</DistanceMeters>
          </Trackpoint>
          <Trackpoint>
            <Time>2022-07-09T10:05:18.000Z</Time>
            <Position>
              <LatitudeDegrees>42.8022939898073673248291015625</LatitudeDegrees>
              <LongitudeDegrees>-0.1384381949901580810546875</LongitudeDegrees>
            </Position>
            <AltitudeMeters>2042.5999755859375</AltitudeMeters>
            <DistanceMeters>9219.0250377007</DistanceMeters>
          </Trackpoint>
          <Trackpoint>
            <Time>2022-07-09T10:05:19.000Z</Time>
            <Position>
              <LatitudeDegrees>42.8022851049900054931640625</LatitudeDegrees>
              <LongitudeDegrees>-0.13844816945493221282958984375</LongitudeDegrees>
            </Position>
            <AltitudeMeters>2042.5999755859375</AltitudeMeters>
            <DistanceMeters>9220.2999548588</DistanceMeters>
          </Trackpoint>
          <Trackpoint>
            <Time>2022-07-09T10:05:25.000Z</Time>
            <Position>
              <LatitudeDegrees>42.80223481357097625732421875</LatitudeDegrees>
              <LongitudeDegrees>-0.13857155106961727142333984375</LongitudeDegrees>
            </Position>
            <AltitudeMeters>2042.4000244140625</AltitudeMeters>
            <DistanceMeters>9231.8260333178</DistanceMeters>
          </Trackpoint>
          <Trackpoint>
            <Time>2022-07-09T10:05:29.000Z</Time>
            <Position>
              <LatitudeDegrees>42.80220371671020984649658203125</LatitudeDegrees>
              <LongitudeDegrees>-0.1386583037674427032470703125</LongitudeDegrees>
            </Position>
            <AltitudeMeters>2041.800048828125</AltitudeMeters>
            <DistanceMeters>9239.7103878405</DistanceMeters>
          </Trackpoint>
          <Trackpoint>
            <Time>2022-07-09T10:05:31.000Z</Time>
            <Position>
              <LatitudeDegrees>42.8021769784390926361083984375</LatitudeDegrees>
              <LongitudeDegrees>-0.1387236826121807098388671875</LongitudeDegrees>
            </Position>
            <AltitudeMeters>2041.5999755859375</AltitudeMeters>
            <DistanceMeters>9245.8231986772</DistanceMeters>
          </Trackpoint>
          <Trackpoint>
            <Time>2022-07-09T10:05:36.000Z</Time>
            <Position>
              <LatitudeDegrees>42.8021434508264064788818359375</LatitudeDegrees>
              <LongitudeDegrees>-0.1388172246515750885009765625</LongitudeDegrees>
            </Position>
            <AltitudeMeters>2041.5999755859375</AltitudeMeters>
            <DistanceMeters>9254.324770994</DistanceMeters>
          </Trackpoint>
          <Trackpoint>
            <Time>2022-07-09T10:05:37.000Z</Time>
            <Position>
              <LatitudeDegrees>42.80214336700737476348876953125</LatitudeDegrees>
              <LongitudeDegrees>-0.138803981244564056396484375</LongitudeDegrees>
            </Position>
            <AltitudeMeters>2041.5999755859375</AltitudeMeters>
            <DistanceMeters>9255.4082422385</DistanceMeters>
          </Trackpoint>
          <Trackpoint>
            <Time>2022-07-09T10:05:43.000Z</Time>
            <Position>
              <LatitudeDegrees>42.8021085821092128753662109375</LatitudeDegrees>
              <LongitudeDegrees>-0.13876953162252902984619140625</LongitudeDegrees>
            </Position>
            <AltitudeMeters>2041.800048828125</AltitudeMeters>
            <DistanceMeters>9260.1936652984</DistanceMeters>
          </Trackpoint>
          <Trackpoint>
            <Time>2022-07-09T10:05:44.000Z</Time>
            <Position>
              <LatitudeDegrees>42.80209391377866268157958984375</LatitudeDegrees>
              <LongitudeDegrees>-0.1387707889080047607421875</LongitudeDegrees>
            </Position>
            <AltitudeMeters>2041.800048828125</AltitudeMeters>
            <DistanceMeters>9261.8258027163</DistanceMeters>
          </Trackpoint>
          <Trackpoint>
            <Time>2022-07-09T10:05:50.000Z</Time>
            <Position>
              <LatitudeDegrees>42.80201512388885021209716796875</LatitudeDegrees>
              <LongitudeDegrees>-0.13878076337277889251708984375</LongitudeDegrees>
            </Position>
            <AltitudeMeters>2042</AltitudeMeters>
            <DistanceMeters>9270.6325800257</DistanceMeters>
          </Trackpoint>
          <Trackpoint>
            <Time>2022-07-09T10:05:53.000Z</Time>
            <Position>
              <LatitudeDegrees>42.8019717894494533538818359375</LatitudeDegrees>
              <LongitudeDegrees>-0.13879216276109218597412109375</LongitudeDegrees>
            </Position>
            <AltitudeMeters>2042</AltitudeMeters>
            <DistanceMeters>9275.5446431623</DistanceMeters>
          </Trackpoint>
          <Trackpoint>
            <Time>2022-07-09T10:05:55.000Z</Time>
            <Position>
              <LatitudeDegrees>42.8019499965012073516845703125</LatitudeDegrees>
              <LongitudeDegrees>-0.1387922465801239013671875</LongitudeDegrees>
            </Position>
            <AltitudeMeters>2042.199951171875</AltitudeMeters>
            <DistanceMeters>9277.9692214277</DistanceMeters>
          </Trackpoint>
          <Trackpoint>
            <Time>2022-07-09T10:05:56.000Z</Time>
            <Position>
              <LatitudeDegrees>42.801936082541942596435546875</LatitudeDegrees>
              <LongitudeDegrees>-0.13878528960049152374267578125</LongitudeDegrees>
            </Position>
            <AltitudeMeters>2042.199951171875</AltitudeMeters>
            <DistanceMeters>9279.6178733041</DistanceMeters>
          </Trackpoint>
          <Trackpoint>
            <Time>2022-07-09T10:06:02.000Z</Time>
            <Position>
              <LatitudeDegrees>42.80188118107616901397705078125</LatitudeDegrees>
              <LongitudeDegrees>-0.13880607672035694122314453125</LongitudeDegrees>
            </Position>
            <AltitudeMeters>2042.199951171875</AltitudeMeters>
            <DistanceMeters>9285.9597941867</DistanceMeters>
          </Trackpoint>
          <Trackpoint>
            <Time>2022-07-09T10:06:08.000Z</Time>
            <Position>
              <LatitudeDegrees>42.801814042031764984130859375</LatitudeDegrees>
              <LongitudeDegrees>-0.13886810280382633209228515625</LongitudeDegrees>
            </Position>
            <AltitudeMeters>2041.800048828125</AltitudeMeters>
            <DistanceMeters>9294.9878321786</DistanceMeters>
          </Trackpoint>
          <Trackpoint>
            <Time>2022-07-09T10:06:10.000Z</Time>
            <Position>
              <LatitudeDegrees>42.8017974458634853363037109375</LatitudeDegrees>
              <LongitudeDegrees>-0.1388862915337085723876953125</LongitudeDegrees>
            </Position>
            <AltitudeMeters>2041.800048828125</AltitudeMeters>
            <DistanceMeters>9297.3577915766</DistanceMeters>
          </Trackpoint>
          <Trackpoint>
            <Time>2022-07-09T10:06:11.000Z</Time>
            <Position>
              <LatitudeDegrees>42.80179015360772609710693359375</LatitudeDegrees>
              <LongitudeDegrees>-0.138895511627197265625</LongitudeDegrees>
            </Position>
            <AltitudeMeters>2041.5999755859375</AltitudeMeters>
            <DistanceMeters>9298.4700507518</DistanceMeters>
          </Trackpoint>
          <Trackpoint>
            <Time>2022-07-09T10:06:13.000Z</Time>
            <Position>
              <LatitudeDegrees>42.8017756529152393341064453125</LatitudeDegrees>
              <LongitudeDegrees>-0.138903222978115081787109375</LongitudeDegrees>
            </Position>
            <AltitudeMeters>2041.5999755859375</AltitudeMeters>
            <DistanceMeters>9300.2067273286</DistanceMeters>
          </Trackpoint>
          <Trackpoint>
            <Time>2022-07-09T10:06:15.000Z</Time>
            <Position>
              <LatitudeDegrees>42.8017558716237545013427734375</LatitudeDegrees>
              <LongitudeDegrees>-0.13891101814806461334228515625</LongitudeDegrees>
            </Position>
            <AltitudeMeters>2041.5999755859375</AltitudeMeters>
            <DistanceMeters>9302.4992160397</DistanceMeters>
          </Trackpoint>
          <Trackpoint>
            <Time>2022-07-09T10:06:17.000Z</Time>
            <Position>
              <LatitudeDegrees>42.80174153856933116912841796875</LatitudeDegrees>
              <LongitudeDegrees>-0.1389131136238574981689453125</LongitudeDegrees>
            </Position>
            <AltitudeMeters>2041.4000244140625</AltitudeMeters>
            <DistanceMeters>9304.1006346951</DistanceMeters>
          </Trackpoint>
          <Trackpoint>
            <Time>2022-07-09T10:06:23.000Z</Time>
            <Position>
              <LatitudeDegrees>42.80167062766849994659423828125</LatitudeDegrees>
              <LongitudeDegrees>-0.13884983025491237640380859375</LongitudeDegrees>
            </Position>
            <AltitudeMeters>2041.5999755859375</AltitudeMeters>
            <DistanceMeters>9313.534638799</DistanceMeters>
          </Trackpoint>
          <Trackpoint>
            <Time>2022-07-09T10:06:24.000Z</Time>
            <Position>
              <LatitudeDegrees>42.8016619943082332611083984375</LatitudeDegrees>
              <LongitudeDegrees>-0.13884077779948711395263671875</LongitudeDegrees>
            </Position>
            <AltitudeMeters>2041.5999755859375</AltitudeMeters>
            <DistanceMeters>9314.7441314132</DistanceMeters>
          </Trackpoint>
          <Trackpoint>
            <Time>2022-07-09T10:06:26.000Z</Time>
            <Position>
              <LatitudeDegrees>42.80165067873895168304443359375</LatitudeDegrees>
              <LongitudeDegrees>-0.13884563930332660675048828125</LongitudeDegrees>
            </Position>
            <AltitudeMeters>2041.4000244140625</AltitudeMeters>
            <DistanceMeters>9316.0642847201</DistanceMeters>
          </Trackpoint>
          <Trackpoint>
            <Time>2022-07-09T10:06:29.000Z</Time>
            <Position>
              <LatitudeDegrees>42.8016127087175846099853515625</LatitudeDegrees>
              <LongitudeDegrees>-0.1388487406075000762939453125</LongitudeDegrees>
            </Position>
            <AltitudeMeters>2041</AltitudeMeters>
            <DistanceMeters>9320.2980421224</DistanceMeters>
          </Trackpoint>
          <Trackpoint>
            <Time>2022-07-09T10:06:33.000Z</Time>
            <Position>
              <LatitudeDegrees>42.8015788458287715911865234375</LatitudeDegrees>
              <LongitudeDegrees>-0.1388155482709407806396484375</LongitudeDegrees>
            </Position>
            <AltitudeMeters>2040.800048828125</AltitudeMeters>
            <DistanceMeters>9324.9407560347</DistanceMeters>
          </Trackpoint>
          <Trackpoint>
            <Time>2022-07-09T10:06:36.000Z</Time>
            <Position>
              <LatitudeDegrees>42.8015412949025630950927734375</LatitudeDegrees>
              <LongitudeDegrees>-0.138810686767101287841796875</LongitudeDegrees>
            </Position>
            <AltitudeMeters>2041</AltitudeMeters>
            <DistanceMeters>9329.1380979486</DistanceMeters>
          </Trackpoint>
          <Trackpoint>
            <Time>2022-07-09T10:06:40.000Z</Time>
            <Position>
              <LatitudeDegrees>42.80148471705615520477294921875</LatitudeDegrees>
              <LongitudeDegrees>-0.13878646306693553924560546875</LongitudeDegrees>
            </Position>
            <AltitudeMeters>2041.199951171875</AltitudeMeters>
            <DistanceMeters>9335.7381804303</DistanceMeters>
          </Trackpoint>
          <Trackpoint>
            <Time>2022-07-09T10:06:42.000Z</Time>
            <Position>
              <LatitudeDegrees>42.801457308232784271240234375</LatitudeDegrees>
              <LongitudeDegrees>-0.13879333622753620147705078125</LongitudeDegrees>
            </Position>
            <AltitudeMeters>2041.199951171875</AltitudeMeters>
            <DistanceMeters>9338.8407699116</DistanceMeters>
          </Trackpoint>
          <Trackpoint>
            <Time>2022-07-09T10:06:43.000Z</Time>
            <Position>
              <LatitudeDegrees>42.80144448392093181610107421875</LatitudeDegrees>
              <LongitudeDegrees>-0.13880004175007343292236328125</LongitudeDegrees>
            </Position>
            <AltitudeMeters>2041.4000244140625</AltitudeMeters>
            <DistanceMeters>9340.3671249563</DistanceMeters>
          </Trackpoint>
          <Trackpoint>
            <Time>2022-07-09T10:06:45.000Z</Time>
            <Position>
              <LatitudeDegrees>42.80141715891659259796142578125</LatitudeDegrees>
              <LongitudeDegrees>-0.1388137042522430419921875</LongitudeDegrees>
            </Position>
            <AltitudeMeters>2041.800048828125</AltitudeMeters>
            <DistanceMeters>9343.6064071033</DistanceMeters>
          </Trackpoint>
          <Trackpoint>
            <Time>2022-07-09T10:06:49.000Z</Time>
            <Position>
              <LatitudeDegrees>42.8013780154287815093994140625</LatitudeDegrees>
              <LongitudeDegrees>-0.1388333179056644439697265625</LongitudeDegrees>
            </Position>
            <AltitudeMeters>2042.199951171875</AltitudeMeters>
            <DistanceMeters>9348.248148414</DistanceMeters>
          </Trackpoint>
          <Trackpoint>
            <Time>2022-07-09T10:06:53.000Z</Time>
            <Position>
              <LatitudeDegrees>42.80134943313896656036376953125</LatitudeDegrees>
              <LongitudeDegrees>-0.1388212479650974273681640625</LongitudeDegrees>
            </Position>
            <AltitudeMeters>2042.199951171875</AltitudeMeters>
            <DistanceMeters>9351.5808641274</DistanceMeters>
          </Trackpoint>
          <Trackpoint>
            <Time>2022-07-09T10:06:55.000Z</Time>
            <Position>
              <LatitudeDegrees>42.80132093466818332672119140625</LatitudeDegrees>
              <LongitudeDegrees>-0.1388175599277019500732421875</LongitudeDegrees>
            </Position>
            <AltitudeMeters>2042.199951171875</AltitudeMeters>
            <DistanceMeters>9354.766740133</DistanceMeters>
          </Trackpoint>
          <Trackpoint>
            <Time>2022-07-09T10:06:56.000Z</Time>
            <Position>
              <LatitudeDegrees>42.80130769126117229461669921875</LatitudeDegrees>
              <LongitudeDegrees>-0.138812363147735595703125</LongitudeDegrees>
            </Position>
            <AltitudeMeters>2042.199951171875</AltitudeMeters>
            <DistanceMeters>9356.3019436868</DistanceMeters>
          </Trackpoint>
          <Trackpoint>
            <Time>2022-07-09T10:07:01.000Z</Time>
            <Position>
              <LatitudeDegrees>42.8012563101947307586669921875</LatitudeDegrees>
              <LongitudeDegrees>-0.138791240751743316650390625</LongitudeDegrees>
            </Position>
            <AltitudeMeters>2042</AltitudeMeters>
            <DistanceMeters>9362.2742800767</DistanceMeters>
          </Trackpoint>
          <Trackpoint>
            <Time>2022-07-09T10:07:07.000Z</Time>
            <Position>
              <LatitudeDegrees>42.80118380673229694366455078125</LatitudeDegrees>
              <LongitudeDegrees>-0.13878797180950641632080078125</LongitudeDegrees>
            </Position>
            <AltitudeMeters>2042.5999755859375</AltitudeMeters>
            <DistanceMeters>9370.3481962175</DistanceMeters>
          </Trackpoint>
          <Trackpoint>
            <Time>2022-07-09T10:07:09.000Z</Time>
            <Position>
              <LatitudeDegrees>42.80116058886051177978515625</LatitudeDegrees>
              <LongitudeDegrees>-0.13878378085792064666748046875</LongitudeDegrees>
            </Position>
            <AltitudeMeters>2042.5999755859375</AltitudeMeters>
            <DistanceMeters>9372.9540775436</DistanceMeters>
          </Trackpoint>
          <Trackpoint>
            <Time>2022-07-09T10:07:14.000Z</Time>
            <Position>
              <LatitudeDegrees>42.80111767351627349853515625</LatitudeDegrees>
              <LongitudeDegrees>-0.1387627422809600830078125</LongitudeDegrees>
            </Position>
            <AltitudeMeters>2042.800048828125</AltitudeMeters>
            <DistanceMeters>9378.0297851884</DistanceMeters>
          </Trackpoint>
          <Trackpoint>
            <Time>2022-07-09T10:07:16.000Z</Time>
            <Position>
              <LatitudeDegrees>42.801091186702251434326171875</LatitudeDegrees>
              <LongitudeDegrees>-0.13876718468964099884033203125</LongitudeDegrees>
            </Position>
            <AltitudeMeters>2043</AltitudeMeters>
            <DistanceMeters>9381.0000351249</DistanceMeters>
          </Trackpoint>
          <Trackpoint>
            <Time>2022-07-09T10:07:20.000Z</Time>
            <Position>
              <LatitudeDegrees>42.80102505348622798919677734375</LatitudeDegrees>
              <LongitudeDegrees>-0.13874656520783901214599609375</LongitudeDegrees>
            </Position>
            <AltitudeMeters>2043.199951171875</AltitudeMeters>
            <DistanceMeters>9388.5509226666</DistanceMeters>
          </Trackpoint>
          <Trackpoint>
            <Time>2022-07-09T10:07:23.000Z</Time>
            <Position>
              <LatitudeDegrees>42.80099772848188877105712890625</LatitudeDegrees>
              <LongitudeDegrees>-0.13873751275241374969482421875</LongitudeDegrees>
            </Position>
            <AltitudeMeters>2043</AltitudeMeters>
            <DistanceMeters>9391.679596965</DistanceMeters>
          </Trackpoint>
          <Trackpoint>
            <Time>2022-07-09T10:07:28.000Z</Time>
            <Position>
              <LatitudeDegrees>42.8009961359202861785888671875</LatitudeDegrees>
              <LongitudeDegrees>-0.13876249082386493682861328125</LongitudeDegrees>
            </Position>
            <AltitudeMeters>2043.199951171875</AltitudeMeters>
            <DistanceMeters>9393.7265350368</DistanceMeters>
          </Trackpoint>
          <Trackpoint>
            <Time>2022-07-09T10:07:30.000Z</Time>
            <Position>
              <LatitudeDegrees>42.80099093914031982421875</LatitudeDegrees>
              <LongitudeDegrees>-0.13878093101084232330322265625</LongitudeDegrees>
            </Position>
            <AltitudeMeters>2043.4000244140625</AltitudeMeters>
            <DistanceMeters>9395.3391918558</DistanceMeters>
          </Trackpoint>
          <Trackpoint>
            <Time>2022-07-09T10:07:33.000Z</Time>
            <Position>
              <LatitudeDegrees>42.80097811482846736907958984375</LatitudeDegrees>
              <LongitudeDegrees>-0.1388061605393886566162109375</LongitudeDegrees>
            </Position>
            <AltitudeMeters>2043.5999755859375</AltitudeMeters>
            <DistanceMeters>9397.8461687614</DistanceMeters>
          </Trackpoint>
          <Trackpoint>
            <Time>2022-07-09T10:07:37.000Z</Time>
            <Position>
              <LatitudeDegrees>42.80094525776803493499755859375</LatitudeDegrees>
              <LongitudeDegrees>-0.1388601399958133697509765625</LongitudeDegrees>
            </Position>
            <AltitudeMeters>2043.5999755859375</AltitudeMeters>
            <DistanceMeters>9403.5730560175</DistanceMeters>
          </Trackpoint>
          <Trackpoint>
            <Time>2022-07-09T10:07:39.000Z</Time>
            <Position>
              <LatitudeDegrees>42.80093796551227569580078125</LatitudeDegrees>
              <LongitudeDegrees>-0.13886139728128910064697265625</LongitudeDegrees>
            </Position>
            <AltitudeMeters>2043.199951171875</AltitudeMeters>
            <DistanceMeters>9404.3905067236</DistanceMeters>
          </Trackpoint>
          <Trackpoint>
            <Time>2022-07-09T10:07:43.000Z</Time>
            <Position>
              <LatitudeDegrees>42.800902426242828369140625</LatitudeDegrees>
              <LongitudeDegrees>-0.13881680555641651153564453125</LongitudeDegrees>
            </Position>
            <AltitudeMeters>2043</AltitudeMeters>
            <DistanceMeters>9409.767709042</DistanceMeters>
          </Trackpoint>
          <Trackpoint>
            <Time>2022-07-09T10:07:49.000Z</Time>
            <Position>
              <LatitudeDegrees>42.8009143285453319549560546875</LatitudeDegrees>
              <LongitudeDegrees>-0.13881898485124111175537109375</LongitudeDegrees>
            </Position>
            <AltitudeMeters>2043</AltitudeMeters>
            <DistanceMeters>9411.1048534381</DistanceMeters>
          </Trackpoint>
          <Trackpoint>
            <Time>2022-07-09T10:07:50.000Z</Time>
            <Position>
              <LatitudeDegrees>42.80092497356235980987548828125</LatitudeDegrees>
              <LongitudeDegrees>-0.13881999067962169647216796875</LongitudeDegrees>
            </Position>
            <AltitudeMeters>2043</AltitudeMeters>
            <DistanceMeters>9412.2917367202</DistanceMeters>
          </Trackpoint>
          <Trackpoint>
            <Time>2022-07-09T10:07:56.000Z</Time>
            <Position>
              <LatitudeDegrees>42.80097124166786670684814453125</LatitudeDegrees>
              <LongitudeDegrees>-0.13881144113838672637939453125</LongitudeDegrees>
            </Position>
            <AltitudeMeters>2043.5999755859375</AltitudeMeters>
            <DistanceMeters>9417.4887511173</DistanceMeters>
          </Trackpoint>
          <Trackpoint>
            <Time>2022-07-09T10:07:58.000Z</Time>
            <Position>
              <LatitudeDegrees>42.80097953975200653076171875</LatitudeDegrees>
              <LongitudeDegrees>-0.13881026767194271087646484375</LongitudeDegrees>
            </Position>
            <AltitudeMeters>2043.800048828125</AltitudeMeters>
            <DistanceMeters>9418.4198189658</DistanceMeters>
          </Trackpoint>
          <Trackpoint>
            <Time>2022-07-09T10:07:59.000Z</Time>
            <Position>
              <LatitudeDegrees>42.8009854070842266082763671875</LatitudeDegrees>
              <LongitudeDegrees>-0.1388108544051647186279296875</LongitudeDegrees>
            </Position>
            <AltitudeMeters>2044</AltitudeMeters>
            <DistanceMeters>9419.0712892974</DistanceMeters>
          </Trackpoint>
          <Trackpoint>
            <Time>2022-07-09T10:08:04.000Z</Time>
            <Position>
              <LatitudeDegrees>42.80099789611995220184326171875</LatitudeDegrees>
              <LongitudeDegrees>-0.1388064958155155181884765625</LongitudeDegrees>
            </Position>
            <AltitudeMeters>2044</AltitudeMeters>
            <DistanceMeters>9420.5061612182</DistanceMeters>
          </Trackpoint>
          <Trackpoint>
            <Time>2022-07-09T10:08:07.000Z</Time>
            <Position>
              <LatitudeDegrees>42.800992615520954132080078125</LatitudeDegrees>
              <LongitudeDegrees>-0.138799957931041717529296875</LongitudeDegrees>
            </Position>
            <AltitudeMeters>2043.800048828125</AltitudeMeters>
            <DistanceMeters>9421.3012117519</DistanceMeters>
          </Trackpoint>
          <Trackpoint>
            <Time>2022-07-09T10:08:10.000Z</Time>
            <Position>
              <LatitudeDegrees>42.8009981475770473480224609375</LatitudeDegrees>
              <LongitudeDegrees>-0.1388232596218585968017578125</LongitudeDegrees>
            </Position>
            <AltitudeMeters>2044.199951171875</AltitudeMeters>
            <DistanceMeters>9423.2990340133</DistanceMeters>
          </Trackpoint>
          <Trackpoint>
            <Time>2022-07-09T10:08:13.000Z</Time>
            <Position>
              <LatitudeDegrees>42.80100510455667972564697265625</LatitudeDegrees>
              <LongitudeDegrees>-0.13886508531868457794189453125</LongitudeDegrees>
            </Position>
            <AltitudeMeters>2044.4000244140625</AltitudeMeters>
            <DistanceMeters>9426.8008683627</DistanceMeters>
          </Trackpoint>
          <Trackpoint>
            <Time>2022-07-09T10:08:19.000Z</Time>
            <Position>
              <LatitudeDegrees>42.8009654581546783447265625</LatitudeDegrees>
              <LongitudeDegrees>-0.1388916559517383575439453125</LongitudeDegrees>
            </Position>
            <AltitudeMeters>2044.800048828125</AltitudeMeters>
            <DistanceMeters>9431.7184434478</DistanceMeters>
          </Trackpoint>
          <Trackpoint>
            <Time>2022-07-09T10:08:20.000Z</Time>
            <Position>
              <LatitudeDegrees>42.80095883645117282867431640625</LatitudeDegrees>
              <LongitudeDegrees>-0.13888905756175518035888671875</LongitudeDegrees>
            </Position>
            <AltitudeMeters>2045</AltitudeMeters>
            <DistanceMeters>9432.4904441248</DistanceMeters>
          </Trackpoint>
          <Trackpoint>
            <Time>2022-07-09T10:08:21.000Z</Time>
            <Position>
              <LatitudeDegrees>42.80095196329057216644287109375</LatitudeDegrees>
              <LongitudeDegrees>-0.13888545334339141845703125</LongitudeDegrees>
            </Position>
            <AltitudeMeters>2045.199951171875</AltitudeMeters>
            <DistanceMeters>9433.3188678145</DistanceMeters>
          </Trackpoint>
          <Trackpoint>
            <Time>2022-07-09T10:08:27.000Z</Time>
            <Position>
              <LatitudeDegrees>42.80096612870693206787109375</LatitudeDegrees>
              <LongitudeDegrees>-0.1388232596218585968017578125</LongitudeDegrees>
            </Position>
            <AltitudeMeters>2044.800048828125</AltitudeMeters>
            <DistanceMeters>9438.6369689251</DistanceMeters>
          </Trackpoint>
          <Trackpoint>
            <Time>2022-07-09T10:08:29.000Z</Time>
            <Position>
              <LatitudeDegrees>42.8009626083076000213623046875</LatitudeDegrees>
              <LongitudeDegrees>-0.1387997902929782867431640625</LongitudeDegrees>
            </Position>
            <AltitudeMeters>2044.800048828125</AltitudeMeters>
            <DistanceMeters>9440.5936887345</DistanceMeters>
          </Trackpoint>
          <Trackpoint>
            <Time>2022-07-09T10:08:35.000Z</Time>
            <Position>
              <LatitudeDegrees>42.80094240792095661163330078125</LatitudeDegrees>
              <LongitudeDegrees>-0.13879618607461452484130859375</LongitudeDegrees>
            </Position>
            <AltitudeMeters>2044.5999755859375</AltitudeMeters>
            <DistanceMeters>9442.8584367161</DistanceMeters>
          </Trackpoint>
          <Trackpoint>
            <Time>2022-07-09T10:08:36.000Z</Time>
            <Position>
              <LatitudeDegrees>42.80094332993030548095703125</LatitudeDegrees>
              <LongitudeDegrees>-0.13879425823688507080078125</LongitudeDegrees>
            </Position>
            <AltitudeMeters>2044.4000244140625</AltitudeMeters>
            <DistanceMeters>9443.0484901448</DistanceMeters>
          </Trackpoint>
          <Trackpoint>
            <Time>2022-07-09T10:08:41.000Z</Time>
            <Position>
              <LatitudeDegrees>42.800944335758686065673828125</LatitudeDegrees>
              <LongitudeDegrees>-0.1388286240398883819580078125</LongitudeDegrees>
            </Position>
            <AltitudeMeters>2044.5999755859375</AltitudeMeters>
            <DistanceMeters>9445.8578115597</DistanceMeters>
          </Trackpoint>
          <Trackpoint>
            <Time>2022-07-09T10:08:44.000Z</Time>
            <Position>
              <LatitudeDegrees>42.80092589557170867919921875</LatitudeDegrees>
              <LongitudeDegrees>-0.13886265456676483154296875</LongitudeDegrees>
            </Position>
            <AltitudeMeters>2044.5999755859375</AltitudeMeters>
            <DistanceMeters>9449.3129180788</DistanceMeters>
          </Trackpoint>
          <Trackpoint>
            <Time>2022-07-09T10:08:50.000Z</Time>
            <Position>
              <LatitudeDegrees>42.80084677040576934814453125</LatitudeDegrees>
              <LongitudeDegrees>-0.13893817551434040069580078125</LongitudeDegrees>
            </Position>
            <AltitudeMeters>2046</AltitudeMeters>
            <DistanceMeters>9460.0648034314</DistanceMeters>
          </Trackpoint>
          <Trackpoint>
            <Time>2022-07-09T10:08:52.000Z</Time>
            <Position>
              <LatitudeDegrees>42.80082522891461849212646484375</LatitudeDegrees>
              <LongitudeDegrees>-0.13895711861550807952880859375</LongitudeDegrees>
            </Position>
            <AltitudeMeters>2046.199951171875</AltitudeMeters>
            <DistanceMeters>9462.9187706619</DistanceMeters>
          </Trackpoint>
          <Trackpoint>
            <Time>2022-07-09T10:08:57.000Z</Time>
            <Position>
              <LatitudeDegrees>42.8007969819009304046630859375</LatitudeDegrees>
              <LongitudeDegrees>-0.1389647461473941802978515625</LongitudeDegrees>
            </Position>
            <AltitudeMeters>2046.4000244140625</AltitudeMeters>
            <DistanceMeters>9466.1230173622</DistanceMeters>
          </Trackpoint>
          <Trackpoint>
            <Time>2022-07-09T10:09:00.000Z</Time>
            <Position>
              <LatitudeDegrees>42.80078507959842681884765625</LatitudeDegrees>
              <LongitudeDegrees>-0.138970948755741119384765625</LongitudeDegrees>
            </Position>
            <AltitudeMeters>2046.199951171875</AltitudeMeters>
            <DistanceMeters>9467.5420688226</DistanceMeters>
          </Trackpoint>
          <Trackpoint>
            <Time>2022-07-09T10:09:03.000Z</Time>
            <Position>
              <LatitudeDegrees>42.80075700022280216217041015625</LatitudeDegrees>
              <LongitudeDegrees>-0.1389902271330356597900390625</LongitudeDegrees>
            </Position>
            <AltitudeMeters>2046</AltitudeMeters>
            <DistanceMeters>9471.0413235515</DistanceMeters>
          </Trackpoint>
          <Trackpoint>
            <Time>2022-07-09T10:09:08.000Z</Time>
            <Position>
              <LatitudeDegrees>42.80070838518440723419189453125</LatitudeDegrees>
              <LongitudeDegrees>-0.138999782502651214599609375</LongitudeDegrees>
            </Position>
            <AltitudeMeters>2045.5999755859375</AltitudeMeters>
            <DistanceMeters>9476.5084574468</DistanceMeters>
          </Trackpoint>
          <Trackpoint>
            <Time>2022-07-09T10:09:09.000Z</Time>
            <Position>
              <LatitudeDegrees>42.800698913633823394775390625</LatitudeDegrees>
              <LongitudeDegrees>-0.13899902813136577606201171875</LongitudeDegrees>
            </Position>
            <AltitudeMeters>2045.5999755859375</AltitudeMeters>
            <DistanceMeters>9477.5708884119</DistanceMeters>
          </Trackpoint>
          <Trackpoint>
            <Time>2022-07-09T10:09:11.000Z</Time>
            <Position>
              <LatitudeDegrees>42.80068323947489261627197265625</LatitudeDegrees>
              <LongitudeDegrees>-0.13899081386625766754150390625</LongitudeDegrees>
            </Position>
            <AltitudeMeters>2045.5999755859375</AltitudeMeters>
            <DistanceMeters>9479.4402839248</DistanceMeters>
          </Trackpoint>
          <Trackpoint>
            <Time>2022-07-09T10:09:13.000Z</Time>
            <Position>
              <LatitudeDegrees>42.80066982842981815338134765625</LatitudeDegrees>
              <LongitudeDegrees>-0.138978324830532073974609375</LongitudeDegrees>
            </Position>
            <AltitudeMeters>2045.800048828125</AltitudeMeters>
            <DistanceMeters>9481.2482904715</DistanceMeters>
          </Trackpoint>
          <Trackpoint>
            <Time>2022-07-09T10:09:14.000Z</Time>
            <Position>
              <LatitudeDegrees>42.80066479928791522979736328125</LatitudeDegrees>
              <LongitudeDegrees>-0.138975642621517181396484375</LongitudeDegrees>
            </Position>
            <AltitudeMeters>2045.800048828125</AltitudeMeters>
            <DistanceMeters>9481.8492921834</DistanceMeters>
          </Trackpoint>
          <Trackpoint>
            <Time>2022-07-09T10:09:15.000Z</Time>
            <Position>
              <LatitudeDegrees>42.80065574683248996734619140625</LatitudeDegrees>
              <LongitudeDegrees>-0.1389737986028194427490234375</LongitudeDegrees>
            </Position>
            <AltitudeMeters>2045.800048828125</AltitudeMeters>
            <DistanceMeters>9482.8727612193</DistanceMeters>
          </Trackpoint>
          <Trackpoint>
            <Time>2022-07-09T10:09:19.000Z</Time>
            <Position>
              <LatitudeDegrees>42.800606377422809600830078125</LatitudeDegrees>
              <LongitudeDegrees>-0.1389714516699314117431640625</LongitudeDegrees>
            </Position>
            <AltitudeMeters>2046</AltitudeMeters>
            <DistanceMeters>9488.3711878974</DistanceMeters>
          </Trackpoint>
          <Trackpoint>
            <Time>2022-07-09T10:09:21.000Z</Time>
            <Position>
              <LatitudeDegrees>42.80058165080845355987548828125</LatitudeDegrees>
              <LongitudeDegrees>-0.13897019438445568084716796875</LongitudeDegrees>
            </Position>
            <AltitudeMeters>2046</AltitudeMeters>
            <DistanceMeters>9491.1253237352</DistanceMeters>
          </Trackpoint>
          <Trackpoint>
            <Time>2022-07-09T10:09:23.000Z</Time>
            <Position>
              <LatitudeDegrees>42.80055616982281208038330078125</LatitudeDegrees>
              <LongitudeDegrees>-0.13896298594772815704345703125</LongitudeDegrees>
            </Position>
            <AltitudeMeters>2046.199951171875</AltitudeMeters>
            <DistanceMeters>9494.0216906002</DistanceMeters>
          </Trackpoint>
          <Trackpoint>
            <Time>2022-07-09T10:09:25.000Z</Time>
            <Position>
              <LatitudeDegrees>42.80053119175136089324951171875</LatitudeDegrees>
              <LongitudeDegrees>-0.138963572680950164794921875</LongitudeDegrees>
            </Position>
            <AltitudeMeters>2046.199951171875</AltitudeMeters>
            <DistanceMeters>9496.8019325745</DistanceMeters>
          </Trackpoint>
          <Trackpoint>
            <Time>2022-07-09T10:09:31.000Z</Time>
            <Position>
              <LatitudeDegrees>42.8004606999456882476806640625</LatitudeDegrees>
              <LongitudeDegrees>-0.1389882154762744903564453125</LongitudeDegrees>
            </Position>
            <AltitudeMeters>2046</AltitudeMeters>
            <DistanceMeters>9504.9009742023</DistanceMeters>
          </Trackpoint>
          <Trackpoint>
            <Time>2022-07-09T10:09:34.000Z</Time>
            <Position>
              <LatitudeDegrees>42.8004509769380092620849609375</LatitudeDegrees>
              <LongitudeDegrees>-0.1389667578041553497314453125</LongitudeDegrees>
            </Position>
            <AltitudeMeters>2046</AltitudeMeters>
            <DistanceMeters>9506.9567163495</DistanceMeters>
          </Trackpoint>
          <Trackpoint>
            <Time>2022-07-09T10:09:36.000Z</Time>
            <Position>
              <LatitudeDegrees>42.8004295192658901214599609375</LatitudeDegrees>
              <LongitudeDegrees>-0.1389577053487300872802734375</LongitudeDegrees>
            </Position>
            <AltitudeMeters>2046</AltitudeMeters>
            <DistanceMeters>9509.4546720783</DistanceMeters>
          </Trackpoint>
          <Trackpoint>
            <Time>2022-07-09T10:09:37.000Z</Time>
            <Position>
              <LatitudeDegrees>42.8004156053066253662109375</LatitudeDegrees>
              <LongitudeDegrees>-0.13895510695874691009521484375</LongitudeDegrees>
            </Position>
            <AltitudeMeters>2046.199951171875</AltitudeMeters>
            <DistanceMeters>9511.0161203291</DistanceMeters>
          </Trackpoint>
          <Trackpoint>
            <Time>2022-07-09T10:09:38.000Z</Time>
            <Position>
              <LatitudeDegrees>42.8004006855189800262451171875</LatitudeDegrees>
              <LongitudeDegrees>-0.13895452022552490234375</LongitudeDegrees>
            </Position>
            <AltitudeMeters>2046.199951171875</AltitudeMeters>
            <DistanceMeters>9512.6756905491</DistanceMeters>
          </Trackpoint>
          <Trackpoint>
            <Time>2022-07-09T10:09:39.000Z</Time>
            <Position>
              <LatitudeDegrees>42.800385095179080963134765625</LatitudeDegrees>
              <LongitudeDegrees>-0.13895309530198574066162109375</LongitudeDegrees>
            </Position>
            <AltitudeMeters>2046.199951171875</AltitudeMeters>
            <DistanceMeters>9514.4123671259</DistanceMeters>
          </Trackpoint>
          <Trackpoint>
            <Time>2022-07-09T10:09:40.000Z</Time>
            <Position>
              <LatitudeDegrees>42.800371013581752777099609375</LatitudeDegrees>
              <LongitudeDegrees>-0.13894982635974884033203125</LongitudeDegrees>
            </Position>
            <AltitudeMeters>2046.199951171875</AltitudeMeters>
            <DistanceMeters>9515.9996261873</DistanceMeters>
          </Trackpoint>
          <Trackpoint>
            <Time>2022-07-09T10:09:44.000Z</Time>
            <Position>
              <LatitudeDegrees>42.80033438466489315032958984375</LatitudeDegrees>
              <LongitudeDegrees>-0.1389491558074951171875</LongitudeDegrees>
            </Position>
            <AltitudeMeters>2045.800048828125</AltitudeMeters>
            <DistanceMeters>9520.0780328381</DistanceMeters>
          </Trackpoint>
          <Trackpoint>
            <Time>2022-07-09T10:09:46.000Z</Time>
            <Position>
              <LatitudeDegrees>42.8003071434795856475830078125</LatitudeDegrees>
              <LongitudeDegrees>-0.1389402709901332855224609375</LongitudeDegrees>
            </Position>
            <AltitudeMeters>2045.800048828125</AltitudeMeters>
            <DistanceMeters>9523.1951408333</DistanceMeters>
          </Trackpoint>
          <Trackpoint>
            <Time>2022-07-09T10:09:49.000Z</Time>
            <Position>
              <LatitudeDegrees>42.80028526671230792999267578125</LatitudeDegrees>
              <LongitudeDegrees>-0.13891336508095264434814453125</LongitudeDegrees>
            </Position>
            <AltitudeMeters>2046.4000244140625</AltitudeMeters>
            <DistanceMeters>9526.4759716917</DistanceMeters>
          </Trackpoint>
          <Trackpoint>
            <Time>2022-07-09T10:09:50.000Z</Time>
            <Position>
              <LatitudeDegrees>42.8002726100385189056396484375</LatitudeDegrees>
              <LongitudeDegrees>-0.13890498317778110504150390625</LongitudeDegrees>
            </Position>
            <AltitudeMeters>2046.5999755859375</AltitudeMeters>
            <DistanceMeters>9528.0431924141</DistanceMeters>
          </Trackpoint>
          <Trackpoint>
            <Time>2022-07-09T10:09:54.000Z</Time>
            <Position>
              <LatitudeDegrees>42.8002075664699077606201171875</LatitudeDegrees>
              <LongitudeDegrees>-0.1389010436832904815673828125</LongitudeDegrees>
            </Position>
            <AltitudeMeters>2046.800048828125</AltitudeMeters>
            <DistanceMeters>9535.2901865909</DistanceMeters>
          </Trackpoint>
          <Trackpoint>
            <Time>2022-07-09T10:09:57.000Z</Time>
            <Position>
              <LatitudeDegrees>42.8001626394689083099365234375</LatitudeDegrees>
              <LongitudeDegrees>-0.1388950087130069732666015625</LongitudeDegrees>
            </Position>
            <AltitudeMeters>2046.800048828125</AltitudeMeters>
            <DistanceMeters>9540.3149347176</DistanceMeters>
          </Trackpoint>
          <Trackpoint>
            <Time>2022-07-09T10:10:03.000Z</Time>
            <Position>
              <LatitudeDegrees>42.800092063844203948974609375</LatitudeDegrees>
              <LongitudeDegrees>-0.13889878056943416595458984375</LongitudeDegrees>
            </Position>
            <AltitudeMeters>2046.800048828125</AltitudeMeters>
            <DistanceMeters>9548.176349551</DistanceMeters>
          </Trackpoint>
          <Trackpoint>
            <Time>2022-07-09T10:10:04.000Z</Time>
            <Position>
              <LatitudeDegrees>42.80008527450263500213623046875</LatitudeDegrees>
              <LongitudeDegrees>-0.138894505798816680908203125</LongitudeDegrees>
            </Position>
            <AltitudeMeters>2047</AltitudeMeters>
            <DistanceMeters>9549.0047732407</DistanceMeters>
          </Trackpoint>
          <Trackpoint>
            <Time>2022-07-09T10:10:10.000Z</Time>
            <Position>
              <LatitudeDegrees>42.79998938553035259246826171875</LatitudeDegrees>
              <LongitudeDegrees>-0.13891051523387432098388671875</LongitudeDegrees>
            </Position>
            <AltitudeMeters>2046.800048828125</AltitudeMeters>
            <DistanceMeters>9559.7574984204</DistanceMeters>
          </Trackpoint>
          <Trackpoint>
            <Time>2022-07-09T10:10:12.000Z</Time>
            <Position>
              <LatitudeDegrees>42.7999618090689182281494140625</LatitudeDegrees>
              <LongitudeDegrees>-0.13891135342419147491455078125</LongitudeDegrees>
            </Position>
            <AltitudeMeters>2046.800048828125</AltitudeMeters>
            <DistanceMeters>9562.8293756777</DistanceMeters>
          </Trackpoint>
          <Trackpoint>
            <Time>2022-07-09T10:10:16.000Z</Time>
            <Position>
              <LatitudeDegrees>42.79990606941282749176025390625</LatitudeDegrees>
              <LongitudeDegrees>-0.13892727904021739959716796875</LongitudeDegrees>
            </Position>
            <AltitudeMeters>2046.5999755859375</AltitudeMeters>
            <DistanceMeters>9569.1684481789</DistanceMeters>
          </Trackpoint>
          <Trackpoint>
            <Time>2022-07-09T10:10:19.000Z</Time>
            <Position>
              <LatitudeDegrees>42.79988628812134265899658203125</LatitudeDegrees>
              <LongitudeDegrees>-0.1389288716018199920654296875</LongitudeDegrees>
            </Position>
            <AltitudeMeters>2046.5999755859375</AltitudeMeters>
            <DistanceMeters>9571.3746238752</DistanceMeters>
          </Trackpoint>
          <Trackpoint>
            <Time>2022-07-09T10:10:21.000Z</Time>
            <Position>
              <LatitudeDegrees>42.79985208995640277862548828125</LatitudeDegrees>
              <LongitudeDegrees>-0.13894722796976566314697265625</LongitudeDegrees>
            </Position>
            <AltitudeMeters>2046.5999755859375</AltitudeMeters>
            <DistanceMeters>9575.4651900525</DistanceMeters>
          </Trackpoint>
          <Trackpoint>
            <Time>2022-07-09T10:10:23.000Z</Time>
            <Position>
              <LatitudeDegrees>42.79982895590364933013916015625</LatitudeDegrees>
              <LongitudeDegrees>-0.13896633870899677276611328125</LongitudeDegrees>
            </Position>
            <AltitudeMeters>2046.5999755859375</AltitudeMeters>
            <DistanceMeters>9578.4762026313</DistanceMeters>
          </Trackpoint>
          <Trackpoint>
            <Time>2022-07-09T10:10:24.000Z</Time>
            <Position>
              <LatitudeDegrees>42.7998223342001438140869140625</LatitudeDegrees>
              <LongitudeDegrees>-0.13897396624088287353515625</LongitudeDegrees>
            </Position>
            <AltitudeMeters>2046.800048828125</AltitudeMeters>
            <DistanceMeters>9579.4359254024</DistanceMeters>
          </Trackpoint>
          <Trackpoint>
            <Time>2022-07-09T10:10:30.000Z</Time>
            <Position>
              <LatitudeDegrees>42.79977648518979549407958984375</LatitudeDegrees>
              <LongitudeDegrees>-0.13899114914238452911376953125</LongitudeDegrees>
            </Position>
            <AltitudeMeters>2046.800048828125</AltitudeMeters>
            <DistanceMeters>9584.7284953952</DistanceMeters>
          </Trackpoint>
          <Trackpoint>
            <Time>2022-07-09T10:10:31.000Z</Time>
            <Position>
              <LatitudeDegrees>42.79976827092468738555908203125</LatitudeDegrees>
              <LongitudeDegrees>-0.13899818994104862213134765625</LongitudeDegrees>
            </Position>
            <AltitudeMeters>2046.800048828125</AltitudeMeters>
            <DistanceMeters>9585.8119666397</DistanceMeters>
          </Trackpoint>
          <Trackpoint>
            <Time>2022-07-09T10:10:37.000Z</Time>
            <Position>
              <LatitudeDegrees>42.7996935881674289703369140625</LatitudeDegrees>
              <LongitudeDegrees>-0.1390606351196765899658203125</LongitudeDegrees>
            </Position>
            <AltitudeMeters>2046.199951171875</AltitudeMeters>
            <DistanceMeters>9595.5641338403</DistanceMeters>
          </Trackpoint>
          <Trackpoint>
            <Time>2022-07-09T10:10:39.000Z</Time>
            <Position>
              <LatitudeDegrees>42.7996645867824554443359375</LatitudeDegrees>
              <LongitudeDegrees>-0.1390881277620792388916015625</LongitudeDegrees>
            </Position>
            <AltitudeMeters>2046</AltitudeMeters>
            <DistanceMeters>9599.4959897471</DistanceMeters>
          </Trackpoint>
          <Trackpoint>
            <Time>2022-07-09T10:10:41.000Z</Time>
            <Position>
              <LatitudeDegrees>42.79964648187160491943359375</LatitudeDegrees>
              <LongitudeDegrees>-0.1391072385013103485107421875</LongitudeDegrees>
            </Position>
            <AltitudeMeters>2046</AltitudeMeters>
            <DistanceMeters>9602.0458240633</DistanceMeters>
          </Trackpoint>
          <Trackpoint>
            <Time>2022-07-09T10:10:47.000Z</Time>
            <Position>
              <LatitudeDegrees>42.79959694482386112213134765625</LatitudeDegrees>
              <LongitudeDegrees>-0.13913012109696865081787109375</LongitudeDegrees>
            </Position>
            <AltitudeMeters>2046.4000244140625</AltitudeMeters>
            <DistanceMeters>9607.8681008491</DistanceMeters>
          </Trackpoint>
          <Trackpoint>
            <Time>2022-07-09T10:10:50.000Z</Time>
            <Position>
              <LatitudeDegrees>42.7995688654482364654541015625</LatitudeDegrees>
              <LongitudeDegrees>-0.1391538418829441070556640625</LongitudeDegrees>
            </Position>
            <AltitudeMeters>2046.4000244140625</AltitudeMeters>
            <DistanceMeters>9611.5447874602</DistanceMeters>
          </Trackpoint>
          <Trackpoint>
            <Time>2022-07-09T10:10:51.000Z</Time>
            <Position>
              <LatitudeDegrees>42.79955905862152576446533203125</LatitudeDegrees>
              <LongitudeDegrees>-0.13916046358644962310791015625</LongitudeDegrees>
            </Position>
            <AltitudeMeters>2046.4000244140625</AltitudeMeters>
            <DistanceMeters>9612.7617231762</DistanceMeters>
          </Trackpoint>
          <Trackpoint>
            <Time>2022-07-09T10:10:57.000Z</Time>
            <Position>
              <LatitudeDegrees>42.799499966204166412353515625</LatitudeDegrees>
              <LongitudeDegrees>-0.13919700868427753448486328125</LongitudeDegrees>
            </Position>
            <AltitudeMeters>2046.800048828125</AltitudeMeters>
            <DistanceMeters>9619.9837534683</DistanceMeters>
          </Trackpoint>
          <Trackpoint>
            <Time>2022-07-09T10:11:03.000Z</Time>
            <Position>
              <LatitudeDegrees>42.79941958375275135040283203125</LatitudeDegrees>
              <LongitudeDegrees>-0.13921595178544521331787109375</LongitudeDegrees>
            </Position>
            <AltitudeMeters>2046.5999755859375</AltitudeMeters>
            <DistanceMeters>9629.0631569651</DistanceMeters>
          </Trackpoint>
          <Trackpoint>
            <Time>2022-07-09T10:11:04.000Z</Time>
            <Position>
              <LatitudeDegrees>42.7994132973253726959228515625</LatitudeDegrees>
              <LongitudeDegrees>-0.13922383077442646026611328125</LongitudeDegrees>
            </Position>
            <AltitudeMeters>2046.5999755859375</AltitudeMeters>
            <DistanceMeters>9630.0134241088</DistanceMeters>
          </Trackpoint>
          <Trackpoint>
            <Time>2022-07-09T10:11:10.000Z</Time>
            <Position>
              <LatitudeDegrees>42.79936996288597583770751953125</LatitudeDegrees>
              <LongitudeDegrees>-0.13916498981416225433349609375</LongitudeDegrees>
            </Position>
            <AltitudeMeters>2046.5999755859375</AltitudeMeters>
            <DistanceMeters>9636.8222722098</DistanceMeters>
          </Trackpoint>
          <Trackpoint>
            <Time>2022-07-09T10:11:14.000Z</Time>
            <Position>
              <LatitudeDegrees>42.79931430704891681671142578125</LatitudeDegrees>
              <LongitudeDegrees>-0.13918912969529628753662109375</LongitudeDegrees>
            </Position>
            <AltitudeMeters>2046.800048828125</AltitudeMeters>
            <DistanceMeters>9643.323099677</DistanceMeters>
          </Trackpoint>
          <Trackpoint>
            <Time>2022-07-09T10:11:20.000Z</Time>
            <Position>
              <LatitudeDegrees>42.799251861870288848876953125</LatitudeDegrees>
              <LongitudeDegrees>-0.139212347567081451416015625</LongitudeDegrees>
            </Position>
            <AltitudeMeters>2047.199951171875</AltitudeMeters>
            <DistanceMeters>9650.527603782</DistanceMeters>
          </Trackpoint>
          <Trackpoint>
            <Time>2022-07-09T10:11:21.000Z</Time>
            <Position>
              <LatitudeDegrees>42.7992419712245464324951171875</LatitudeDegrees>
              <LongitudeDegrees>-0.1392121799290180206298828125</LongitudeDegrees>
            </Position>
            <AltitudeMeters>2047.4000244140625</AltitudeMeters>
            <DistanceMeters>9651.627617529</DistanceMeters>
          </Trackpoint>
          <Trackpoint>
            <Time>2022-07-09T10:11:23.000Z</Time>
            <Position>
              <LatitudeDegrees>42.7992151491343975067138671875</LatitudeDegrees>
              <LongitudeDegrees>-0.139220394194126129150390625</LongitudeDegrees>
            </Position>
            <AltitudeMeters>2047.4000244140625</AltitudeMeters>
            <DistanceMeters>9654.6862380017</DistanceMeters>
          </Trackpoint>
          <Trackpoint>
            <Time>2022-07-09T10:11:29.000Z</Time>
            <Position>
              <LatitudeDegrees>42.79913862235844135284423828125</LatitudeDegrees>
              <LongitudeDegrees>-0.13928082771599292755126953125</LongitudeDegrees>
            </Position>
            <AltitudeMeters>2047.4000244140625</AltitudeMeters>
            <DistanceMeters>9664.530106668</DistanceMeters>
          </Trackpoint>
          <Trackpoint>
            <Time>2022-07-09T10:11:31.000Z</Time>
            <Position>
              <LatitudeDegrees>42.7991254627704620361328125</LatitudeDegrees>
              <LongitudeDegrees>-0.1393040455877780914306640625</LongitudeDegrees>
            </Position>
            <AltitudeMeters>2047.4000244140625</AltitudeMeters>
            <DistanceMeters>9666.9247044509</DistanceMeters>
          </Trackpoint>
          <Trackpoint>
            <Time>2022-07-09T10:11:37.000Z</Time>
            <Position>
              <LatitudeDegrees>42.7990568988025188446044921875</LatitudeDegrees>
              <LongitudeDegrees>-0.13930027373135089874267578125</LongitudeDegrees>
            </Position>
            <AltitudeMeters>2047.4000244140625</AltitudeMeters>
            <DistanceMeters>9674.5623934881</DistanceMeters>
          </Trackpoint>
          <Trackpoint>
            <Time>2022-07-09T10:11:41.000Z</Time>
            <Position>
              <LatitudeDegrees>42.79900811612606048583984375</LatitudeDegrees>
              <LongitudeDegrees>-0.13930387794971466064453125</LongitudeDegrees>
            </Position>
            <AltitudeMeters>2047.4000244140625</AltitudeMeters>
            <DistanceMeters>9679.9997154647</DistanceMeters>
          </Trackpoint>
          <Trackpoint>
            <Time>2022-07-09T10:11:47.000Z</Time>
            <Position>
              <LatitudeDegrees>42.798936367034912109375</LatitudeDegrees>
              <LongitudeDegrees>-0.13931594789028167724609375</LongitudeDegrees>
            </Position>
            <AltitudeMeters>2047</AltitudeMeters>
            <DistanceMeters>9688.0461835161</DistanceMeters>
          </Trackpoint>
          <Trackpoint>
            <Time>2022-07-09T10:11:50.000Z</Time>
            <Position>
              <LatitudeDegrees>42.798903845250606536865234375</LatitudeDegrees>
              <LongitudeDegrees>-0.13934134505689144134521484375</LongitudeDegrees>
            </Position>
            <AltitudeMeters>2047.199951171875</AltitudeMeters>
            <DistanceMeters>9692.2187112133</DistanceMeters>
          </Trackpoint>
          <Trackpoint>
            <Time>2022-07-09T10:11:55.000Z</Time>
            <Position>
              <LatitudeDegrees>42.79884626157581806182861328125</LatitudeDegrees>
              <LongitudeDegrees>-0.139361880719661712646484375</LongitudeDegrees>
            </Position>
            <AltitudeMeters>2047.4000244140625</AltitudeMeters>
            <DistanceMeters>9698.8433750929</DistanceMeters>
          </Trackpoint>
          <Trackpoint>
            <Time>2022-07-09T10:11:56.000Z</Time>
            <Position>
              <LatitudeDegrees>42.7988336049020290374755859375</LatitudeDegrees>
              <LongitudeDegrees>-0.1393700949847698211669921875</LongitudeDegrees>
            </Position>
            <AltitudeMeters>2047.4000244140625</AltitudeMeters>
            <DistanceMeters>9700.4048233437</DistanceMeters>
          </Trackpoint>
          <Trackpoint>
            <Time>2022-07-09T10:11:59.000Z</Time>
            <Position>
              <LatitudeDegrees>42.79877870343625545501708984375</LatitudeDegrees>
              <LongitudeDegrees>-0.13938962481915950775146484375</LongitudeDegrees>
            </Position>
            <AltitudeMeters>2047.5999755859375</AltitudeMeters>
            <DistanceMeters>9706.7210625515</DistanceMeters>
          </Trackpoint>
          <Trackpoint>
            <Time>2022-07-09T10:12:05.000Z</Time>
            <Position>
              <LatitudeDegrees>42.79870427213609218597412109375</LatitudeDegrees>
              <LongitudeDegrees>-0.1393989287316799163818359375</LongitudeDegrees>
            </Position>
            <AltitudeMeters>2047.800048828125</AltitudeMeters>
            <DistanceMeters>9715.0401073203</DistanceMeters>
          </Trackpoint>
          <Trackpoint>
            <Time>2022-07-09T10:12:08.000Z</Time>
            <Position>
              <LatitudeDegrees>42.79866219498217105865478515625</LatitudeDegrees>
              <LongitudeDegrees>-0.13940437696874141693115234375</LongitudeDegrees>
            </Position>
            <AltitudeMeters>2047.800048828125</AltitudeMeters>
            <DistanceMeters>9719.7436897091</DistanceMeters>
          </Trackpoint>
          <Trackpoint>
            <Time>2022-07-09T10:12:09.000Z</Time>
            <Position>
              <LatitudeDegrees>42.7986505441367626190185546875</LatitudeDegrees>
              <LongitudeDegrees>-0.1393918879330158233642578125</LongitudeDegrees>
            </Position>
            <AltitudeMeters>2047.800048828125</AltitudeMeters>
            <DistanceMeters>9721.3923415855</DistanceMeters>
          </Trackpoint>
          <Trackpoint>
            <Time>2022-07-09T10:12:15.000Z</Time>
            <Position>
              <LatitudeDegrees>42.798590697348117828369140625</LatitudeDegrees>
              <LongitudeDegrees>-0.1393757946789264678955078125</LongitudeDegrees>
            </Position>
            <AltitudeMeters>2047.800048828125</AltitudeMeters>
            <DistanceMeters>9728.1812671389</DistanceMeters>
          </Trackpoint>
          <Trackpoint>
            <Time>2022-07-09T10:12:17.000Z</Time>
            <Position>
              <LatitudeDegrees>42.7985610254108905792236328125</LatitudeDegrees>
              <LongitudeDegrees>-0.13937319628894329071044921875</LongitudeDegrees>
            </Position>
            <AltitudeMeters>2047.800048828125</AltitudeMeters>
            <DistanceMeters>9731.4895072527</DistanceMeters>
          </Trackpoint>
          <Trackpoint>
            <Time>2022-07-09T10:12:20.000Z</Time>
            <Position>
              <LatitudeDegrees>42.7985355444252490997314453125</LatitudeDegrees>
              <LongitudeDegrees>-0.13936732895672321319580078125</LongitudeDegrees>
            </Position>
            <AltitudeMeters>2048.39990234375</AltitudeMeters>
            <DistanceMeters>9734.3655375068</DistanceMeters>
          </Trackpoint>
          <Trackpoint>
            <Time>2022-07-09T10:12:23.000Z</Time>
            <Position>
              <LatitudeDegrees>42.79850176535546779632568359375</LatitudeDegrees>
              <LongitudeDegrees>-0.13936079107224941253662109375</LongitudeDegrees>
            </Position>
            <AltitudeMeters>2048.60009765625</AltitudeMeters>
            <DistanceMeters>9738.1642296709</DistanceMeters>
          </Trackpoint>
          <Trackpoint>
            <Time>2022-07-09T10:12:27.000Z</Time>
            <Position>
              <LatitudeDegrees>42.798462621867656707763671875</LatitudeDegrees>
              <LongitudeDegrees>-0.13936582021415233612060546875</LongitudeDegrees>
            </Position>
            <AltitudeMeters>2047.800048828125</AltitudeMeters>
            <DistanceMeters>9742.5395881774</DistanceMeters>
          </Trackpoint>
          <Trackpoint>
            <Time>2022-07-09T10:12:29.000Z</Time>
            <Position>
              <LatitudeDegrees>42.79844074510037899017333984375</LatitudeDegrees>
              <LongitudeDegrees>-0.1394073106348514556884765625</LongitudeDegrees>
            </Position>
            <AltitudeMeters>2048</AltitudeMeters>
            <DistanceMeters>9746.7121158747</DistanceMeters>
          </Trackpoint>
          <Trackpoint>
            <Time>2022-07-09T10:12:30.000Z</Time>
            <Position>
              <LatitudeDegrees>42.79842649586498737335205078125</LatitudeDegrees>
              <LongitudeDegrees>-0.13941116631031036376953125</LongitudeDegrees>
            </Position>
            <AltitudeMeters>2048</AltitudeMeters>
            <DistanceMeters>9748.3303625087</DistanceMeters>
          </Trackpoint>
          <Trackpoint>
            <Time>2022-07-09T10:12:31.000Z</Time>
            <Position>
              <LatitudeDegrees>42.7984111569821834564208984375</LatitudeDegrees>
              <LongitudeDegrees>-0.1394113339483737945556640625</LongitudeDegrees>
            </Position>
            <AltitudeMeters>2048.199951171875</AltitudeMeters>
            <DistanceMeters>9750.0382016965</DistanceMeters>
          </Trackpoint>
          <Trackpoint>
            <Time>2022-07-09T10:12:37.000Z</Time>
            <Position>
              <LatitudeDegrees>42.79836782254278659820556640625</LatitudeDegrees>
              <LongitudeDegrees>-0.1394145190715789794921875</LongitudeDegrees>
            </Position>
            <AltitudeMeters>2048.60009765625</AltitudeMeters>
            <DistanceMeters>9754.86870038</DistanceMeters>
          </Trackpoint>
          <Trackpoint>
            <Time>2022-07-09T10:12:39.000Z</Time>
            <Position>
              <LatitudeDegrees>42.798345945775508880615234375</LatitudeDegrees>
              <LongitudeDegrees>-0.13945047743618488311767578125</LongitudeDegrees>
            </Position>
            <AltitudeMeters>2049</AltitudeMeters>
            <DistanceMeters>9758.681628792</DistanceMeters>
          </Trackpoint>
          <Trackpoint>
            <Time>2022-07-09T10:12:42.000Z</Time>
            <Position>
              <LatitudeDegrees>42.798307053744792938232421875</LatitudeDegrees>
              <LongitudeDegrees>-0.139523483812808990478515625</LongitudeDegrees>
            </Position>
            <AltitudeMeters>2049.39990234375</AltitudeMeters>
            <DistanceMeters>9766.0497234969</DistanceMeters>
          </Trackpoint>
          <Trackpoint>
            <Time>2022-07-09T10:12:46.000Z</Time>
            <Position>
              <LatitudeDegrees>42.79827813617885112762451171875</LatitudeDegrees>
              <LongitudeDegrees>-0.13955659233033657073974609375</LongitudeDegrees>
            </Position>
            <AltitudeMeters>2049.60009765625</AltitudeMeters>
            <DistanceMeters>9770.254588498</DistanceMeters>
          </Trackpoint>
          <Trackpoint>
            <Time>2022-07-09T10:12:48.000Z</Time>
            <Position>
              <LatitudeDegrees>42.79827092774212360382080078125</LatitudeDegrees>
              <LongitudeDegrees>-0.13957687653601169586181640625</LongitudeDegrees>
            </Position>
            <AltitudeMeters>2049.800048828125</AltitudeMeters>
            <DistanceMeters>9772.094772909</DistanceMeters>
          </Trackpoint>
          <Trackpoint>
            <Time>2022-07-09T10:12:51.000Z</Time>
            <Position>
              <LatitudeDegrees>42.7982629649341106414794921875</LatitudeDegrees>
              <LongitudeDegrees>-0.13960068114101886749267578125</LongitudeDegrees>
            </Position>
            <AltitudeMeters>2050</AltitudeMeters>
            <DistanceMeters>9774.23023272</DistanceMeters>
          </Trackpoint>
          <Trackpoint>
            <Time>2022-07-09T10:12:53.000Z</Time>
            <Position>
              <LatitudeDegrees>42.7982555888593196868896484375</LatitudeDegrees>
              <LongitudeDegrees>-0.139629431068897247314453125</LongitudeDegrees>
            </Position>
            <AltitudeMeters>2050</AltitudeMeters>
            <DistanceMeters>9776.7191345743</DistanceMeters>
          </Trackpoint>
          <Trackpoint>
            <Time>2022-07-09T10:12:54.000Z</Time>
            <Position>
              <LatitudeDegrees>42.7982495538890361785888671875</LatitudeDegrees>
              <LongitudeDegrees>-0.139639489352703094482421875</LongitudeDegrees>
            </Position>
            <AltitudeMeters>2050</AltitudeMeters>
            <DistanceMeters>9777.7815655394</DistanceMeters>
          </Trackpoint>
          <Trackpoint>
            <Time>2022-07-09T10:12:59.000Z</Time>
            <Position>
              <LatitudeDegrees>42.7982156910002231597900390625</LatitudeDegrees>
              <LongitudeDegrees>-0.1396839134395122528076171875</LongitudeDegrees>
            </Position>
            <AltitudeMeters>2049.60009765625</AltitudeMeters>
            <DistanceMeters>9783.0123524424</DistanceMeters>
          </Trackpoint>
          <Trackpoint>
            <Time>2022-07-09T10:13:05.000Z</Time>
            <Position>
              <LatitudeDegrees>42.7981942333281040191650390625</LatitudeDegrees>
              <LongitudeDegrees>-0.13967880047857761383056640625</LongitudeDegrees>
            </Position>
            <AltitudeMeters>2049.60009765625</AltitudeMeters>
            <DistanceMeters>9785.4387921885</DistanceMeters>
          </Trackpoint>
          <Trackpoint>
            <Time>2022-07-09T10:13:06.000Z</Time>
            <Position>
              <LatitudeDegrees>42.798187024891376495361328125</LatitudeDegrees>
              <LongitudeDegrees>-0.13968600891530513763427734375</LongitudeDegrees>
            </Position>
            <AltitudeMeters>2049.800048828125</AltitudeMeters>
            <DistanceMeters>9786.435440777</DistanceMeters>
          </Trackpoint>
          <Trackpoint>
            <Time>2022-07-09T10:13:10.000Z</Time>
            <Position>
              <LatitudeDegrees>42.79815919697284698486328125</LatitudeDegrees>
              <LongitudeDegrees>-0.13974334113299846649169921875</LongitudeDegrees>
            </Position>
            <AltitudeMeters>2050.39990234375</AltitudeMeters>
            <DistanceMeters>9792.0492600464</DistanceMeters>
          </Trackpoint>
          <Trackpoint>
            <Time>2022-07-09T10:13:12.000Z</Time>
            <Position>
              <LatitudeDegrees>42.7981464564800262451171875</LatitudeDegrees>
              <LongitudeDegrees>-0.1397684030234813690185546875</LongitudeDegrees>
            </Position>
            <AltitudeMeters>2050.60009765625</AltitudeMeters>
            <DistanceMeters>9794.5381619007</DistanceMeters>
          </Trackpoint>
          <Trackpoint>
            <Time>2022-07-09T10:13:15.000Z</Time>
            <Position>
              <LatitudeDegrees>42.7981151081621646881103515625</LatitudeDegrees>
              <LongitudeDegrees>-0.1397927105426788330078125</LongitudeDegrees>
            </Position>
            <AltitudeMeters>2051</AltitudeMeters>
            <DistanceMeters>9798.5518455424</DistanceMeters>
          </Trackpoint>
          <Trackpoint>
            <Time>2022-07-09T10:13:17.000Z</Time>
            <Position>
              <LatitudeDegrees>42.79809474013745784759521484375</LatitudeDegrees>
              <LongitudeDegrees>-0.13981391675770282745361328125</LongitudeDegrees>
            </Position>
            <AltitudeMeters>2051.39990234375</AltitudeMeters>
            <DistanceMeters>9801.4026469735</DistanceMeters>
          </Trackpoint>
          <Trackpoint>
            <Time>2022-07-09T10:13:18.000Z</Time>
            <Position>
              <LatitudeDegrees>42.79808652587234973907470703125</LatitudeDegrees>
              <LongitudeDegrees>-0.1398230530321598052978515625</LongitudeDegrees>
            </Position>
            <AltitudeMeters>2051.800048828125</AltitudeMeters>
            <DistanceMeters>9802.5818974865</DistanceMeters>
          </Trackpoint>
          <Trackpoint>
            <Time>2022-07-09T10:13:24.000Z</Time>
            <Position>
              <LatitudeDegrees>42.79804897494614124298095703125</LatitudeDegrees>
              <LongitudeDegrees>-0.1398458518087863922119140625</LongitudeDegrees>
            </Position>
            <AltitudeMeters>2051.60009765625</AltitudeMeters>
            <DistanceMeters>9807.1580036122</DistanceMeters>
          </Trackpoint>
          <Trackpoint>
            <Time>2022-07-09T10:13:26.000Z</Time>
            <Position>
              <LatitudeDegrees>42.7980131842195987701416015625</LatitudeDegrees>
              <LongitudeDegrees>-0.139831937849521636962890625</LongitudeDegrees>
            </Position>
            <AltitudeMeters>2051.39990234375</AltitudeMeters>
            <DistanceMeters>9811.300122061</DistanceMeters>
          </Trackpoint>
          <Trackpoint>
            <Time>2022-07-09T10:13:27.000Z</Time>
            <Position>
              <LatitudeDegrees>42.79799868352711200714111328125</LatitudeDegrees>
              <LongitudeDegrees>-0.13983973301947116851806640625</LongitudeDegrees>
            </Position>
            <AltitudeMeters>2051.199951171875</AltitudeMeters>
            <DistanceMeters>9813.0367986377</DistanceMeters>
          </Trackpoint>
          <Trackpoint>
            <Time>2022-07-09T10:13:31.000Z</Time>
            <Position>
              <LatitudeDegrees>42.79795995913445949554443359375</LatitudeDegrees>
              <LongitudeDegrees>-0.1398478634655475616455078125</LongitudeDegrees>
            </Position>
            <AltitudeMeters>2051.39990234375</AltitudeMeters>
            <DistanceMeters>9817.3976862757</DistanceMeters>
          </Trackpoint>
          <Trackpoint>
            <Time>2022-07-09T10:13:34.000Z</Time>
            <Position>
              <LatitudeDegrees>42.79793322086334228515625</LatitudeDegrees>
              <LongitudeDegrees>-0.13985565863549709320068359375</LongitudeDegrees>
            </Position>
            <AltitudeMeters>2051.60009765625</AltitudeMeters>
            <DistanceMeters>9820.4415092718</DistanceMeters>
          </Trackpoint>
          <Trackpoint>
            <Time>2022-07-09T10:13:37.000Z</Time>
            <Position>
              <LatitudeDegrees>42.7979075722396373748779296875</LatitudeDegrees>
              <LongitudeDegrees>-0.139877535402774810791015625</LongitudeDegrees>
            </Position>
            <AltitudeMeters>2051.60009765625</AltitudeMeters>
            <DistanceMeters>9823.8119448766</DistanceMeters>
          </Trackpoint>
          <Trackpoint>
            <Time>2022-07-09T10:13:38.000Z</Time>
            <Position>
              <LatitudeDegrees>42.7978991903364658355712890625</LatitudeDegrees>
              <LongitudeDegrees>-0.13988667167723178863525390625</LongitudeDegrees>
            </Position>
            <AltitudeMeters>2051.60009765625</AltitudeMeters>
            <DistanceMeters>9825.0064121546</DistanceMeters>
          </Trackpoint>
          <Trackpoint>
            <Time>2022-07-09T10:13:40.000Z</Time>
            <Position>
              <LatitudeDegrees>42.79788200743496417999267578125</LatitudeDegrees>
              <LongitudeDegrees>-0.13990192674100399017333984375</LongitudeDegrees>
            </Position>
            <AltitudeMeters>2051.60009765625</AltitudeMeters>
            <DistanceMeters>9827.2910093148</DistanceMeters>
          </Trackpoint>
          <Trackpoint>
            <Time>2022-07-09T10:13:44.000Z</Time>
            <Position>
              <LatitudeDegrees>42.79784479178488254547119140625</LatitudeDegrees>
              <LongitudeDegrees>-0.13991768471896648406982421875</LongitudeDegrees>
            </Position>
            <AltitudeMeters>2052.199951171875</AltitudeMeters>
            <DistanceMeters>9831.6290594885</DistanceMeters>
          </Trackpoint>
          <Trackpoint>
            <Time>2022-07-09T10:13:45.000Z</Time>
            <Position>
              <LatitudeDegrees>42.7978361584246158599853515625</LatitudeDegrees>
              <LongitudeDegrees>-0.139922797679901123046875</LongitudeDegrees>
            </Position>
            <AltitudeMeters>2052.199951171875</AltitudeMeters>
            <DistanceMeters>9832.678663855</DistanceMeters>
          </Trackpoint>
          <Trackpoint>
            <Time>2022-07-09T10:13:50.000Z</Time>
            <Position>
              <LatitudeDegrees>42.79780858196318149566650390625</LatitudeDegrees>
              <LongitudeDegrees>-0.13994853012263774871826171875</LongitudeDegrees>
            </Position>
            <AltitudeMeters>2052.39990234375</AltitudeMeters>
            <DistanceMeters>9836.3992964878</DistanceMeters>
          </Trackpoint>
          <Trackpoint>
            <Time>2022-07-09T10:13:54.000Z</Time>
            <Position>
              <LatitudeDegrees>42.79776013456284999847412109375</LatitudeDegrees>
              <LongitudeDegrees>-0.13997887261211872100830078125</LongitudeDegrees>
            </Position>
            <AltitudeMeters>2052.39990234375</AltitudeMeters>
            <DistanceMeters>9842.3337128982</DistanceMeters>
          </Trackpoint>
          <Trackpoint>
            <Time>2022-07-09T10:13:56.000Z</Time>
            <Position>
              <LatitudeDegrees>42.79773582704365253448486328125</LatitudeDegrees>
              <LongitudeDegrees>-0.13998524285852909088134765625</LongitudeDegrees>
            </Position>
            <AltitudeMeters>2052.60009765625</AltitudeMeters>
            <DistanceMeters>9845.0911255198</DistanceMeters>
          </Trackpoint>
          <Trackpoint>
            <Time>2022-07-09T10:13:57.000Z</Time>
            <Position>
              <LatitudeDegrees>42.7977214939892292022705078125</LatitudeDegrees>
              <LongitudeDegrees>-0.13998381793498992919921875</LongitudeDegrees>
            </Position>
            <AltitudeMeters>2052.800048828125</AltitudeMeters>
            <DistanceMeters>9846.6925441753</DistanceMeters>
          </Trackpoint>
          <Trackpoint>
            <Time>2022-07-09T10:13:58.000Z</Time>
            <Position>
              <LatitudeDegrees>42.7977065742015838623046875</LatitudeDegrees>
              <LongitudeDegrees>-0.1399858295917510986328125</LongitudeDegrees>
            </Position>
            <AltitudeMeters>2052.800048828125</AltitudeMeters>
            <DistanceMeters>9848.3602562442</DistanceMeters>
          </Trackpoint>
          <Trackpoint>
            <Time>2022-07-09T10:14:01.000Z</Time>
            <Position>
              <LatitudeDegrees>42.79768452979624271392822265625</LatitudeDegrees>
              <LongitudeDegrees>-0.1399938762187957763671875</LongitudeDegrees>
            </Position>
            <AltitudeMeters>2052.800048828125</AltitudeMeters>
            <DistanceMeters>9850.8994440239</DistanceMeters>
          </Trackpoint>
          <Trackpoint>
            <Time>2022-07-09T10:14:03.000Z</Time>
            <Position>
              <LatitudeDegrees>42.7976785786449909210205078125</LatitudeDegrees>
              <LongitudeDegrees>-0.13999320566654205322265625</LongitudeDegrees>
            </Position>
            <AltitudeMeters>2052.800048828125</AltitudeMeters>
            <DistanceMeters>9851.5713843652</DistanceMeters>
          </Trackpoint>
          <Trackpoint>
            <Time>2022-07-09T10:14:04.000Z</Time>
            <Position>
              <LatitudeDegrees>42.79767665080726146697998046875</LatitudeDegrees>
              <LongitudeDegrees>-0.1399940438568592071533203125</LongitudeDegrees>
            </Position>
            <AltitudeMeters>2052.800048828125</AltitudeMeters>
            <DistanceMeters>9851.8041513273</DistanceMeters>
          </Trackpoint>
          <Trackpoint>
            <Time>2022-07-09T10:14:05.000Z</Time>
            <Position>
              <LatitudeDegrees>42.7976742200553417205810546875</LatitudeDegrees>
              <LongitudeDegrees>-0.1399970613420009613037109375</LongitudeDegrees>
            </Position>
            <AltitudeMeters>2052.800048828125</AltitudeMeters>
            <DistanceMeters>9852.1597087351</DistanceMeters>
          </Trackpoint>
          <Trackpoint>
            <Time>2022-07-09T10:14:11.000Z</Time>
            <Position>
              <LatitudeDegrees>42.79761613346636295318603515625</LatitudeDegrees>
              <LongitudeDegrees>-0.140029750764369964599609375</LongitudeDegrees>
            </Position>
            <AltitudeMeters>2053</AltitudeMeters>
            <DistanceMeters>9859.1543462649</DistanceMeters>
          </Trackpoint>
          <Trackpoint>
            <Time>2022-07-09T10:14:12.000Z</Time>
            <Position>
              <LatitudeDegrees>42.7976095117628574371337890625</LatitudeDegrees>
              <LongitudeDegrees>-0.14003989286720752716064453125</LongitudeDegrees>
            </Position>
            <AltitudeMeters>2053</AltitudeMeters>
            <DistanceMeters>9860.2666054401</DistanceMeters>
          </Trackpoint>
          <Trackpoint>
            <Time>2022-07-09T10:14:16.000Z</Time>
            <Position>
              <LatitudeDegrees>42.79757841490209102630615234375</LatitudeDegrees>
              <LongitudeDegrees>-0.14008632861077785491943359375</LongitudeDegrees>
            </Position>
            <AltitudeMeters>2053.199951171875</AltitudeMeters>
            <DistanceMeters>9865.4015663179</DistanceMeters>
          </Trackpoint>
          <Trackpoint>
            <Time>2022-07-09T10:14:18.000Z</Time>
            <Position>
              <LatitudeDegrees>42.79756106436252593994140625</LatitudeDegrees>
              <LongitudeDegrees>-0.14010778628289699554443359375</LongitudeDegrees>
            </Position>
            <AltitudeMeters>2053.199951171875</AltitudeMeters>
            <DistanceMeters>9868.0109106108</DistanceMeters>
          </Trackpoint>
          <Trackpoint>
            <Time>2022-07-09T10:14:19.000Z</Time>
            <Position>
              <LatitudeDegrees>42.79755377210676670074462890625</LatitudeDegrees>
              <LongitudeDegrees>-0.1401134021580219268798828125</LongitudeDegrees>
            </Position>
            <AltitudeMeters>2053.199951171875</AltitudeMeters>
            <DistanceMeters>9868.9419784593</DistanceMeters>
          </Trackpoint>
          <Trackpoint>
            <Time>2022-07-09T10:14:22.000Z</Time>
            <Position>
              <LatitudeDegrees>42.7975308895111083984375</LatitudeDegrees>
              <LongitudeDegrees>-0.1401118934154510498046875</LongitudeDegrees>
            </Position>
            <AltitudeMeters>2053.199951171875</AltitudeMeters>
            <DistanceMeters>9871.4918127754</DistanceMeters>
          </Trackpoint>
          <Trackpoint>
            <Time>2022-07-09T10:14:24.000Z</Time>
            <Position>
              <LatitudeDegrees>42.79752175323665142059326171875</LatitudeDegrees>
              <LongitudeDegrees>-0.14011147432029247283935546875</LongitudeDegrees>
            </Position>
            <AltitudeMeters>2053.199951171875</AltitudeMeters>
            <DistanceMeters>9872.5064204408</DistanceMeters>
          </Trackpoint>
          <Trackpoint>
            <Time>2022-07-09T10:14:26.000Z</Time>
            <Position>
              <LatitudeDegrees>42.79751010239124298095703125</LatitudeDegrees>
              <LongitudeDegrees>-0.14011256396770477294921875</LongitudeDegrees>
            </Position>
            <AltitudeMeters>2053.39990234375</AltitudeMeters>
            <DistanceMeters>9873.8093611039</DistanceMeters>
          </Trackpoint>
          <Trackpoint>
            <Time>2022-07-09T10:14:28.000Z</Time>
            <Position>
              <LatitudeDegrees>42.79749962501227855682373046875</LatitudeDegrees>
              <LongitudeDegrees>-0.1401197724044322967529296875</LongitudeDegrees>
            </Position>
            <AltitudeMeters>2053.60009765625</AltitudeMeters>
            <DistanceMeters>9875.1123017669</DistanceMeters>
          </Trackpoint>
          <Trackpoint>
            <Time>2022-07-09T10:14:32.000Z</Time>
            <Position>
              <LatitudeDegrees>42.797464840114116668701171875</LatitudeDegrees>
              <LongitudeDegrees>-0.140135027468204498291015625</LongitudeDegrees>
            </Position>
            <AltitudeMeters>2054</AltitudeMeters>
            <DistanceMeters>9879.1796227581</DistanceMeters>
          </Trackpoint>
          <Trackpoint>
            <Time>2022-07-09T10:14:33.000Z</Time>
            <Position>
              <LatitudeDegrees>42.797451429069042205810546875</LatitudeDegrees>
              <LongitudeDegrees>-0.14014064334332942962646484375</LongitudeDegrees>
            </Position>
            <AltitudeMeters>2054.199951171875</AltitudeMeters>
            <DistanceMeters>9880.7410710089</DistanceMeters>
          </Trackpoint>
          <Trackpoint>
            <Time>2022-07-09T10:14:35.000Z</Time>
            <Position>
              <LatitudeDegrees>42.797431983053684234619140625</LatitudeDegrees>
              <LongitudeDegrees>-0.14016159810125827789306640625</LongitudeDegrees>
            </Position>
            <AltitudeMeters>2054.39990234375</AltitudeMeters>
            <DistanceMeters>9883.4984836305</DistanceMeters>
          </Trackpoint>
          <Trackpoint>
            <Time>2022-07-09T10:14:41.000Z</Time>
            <Position>
              <LatitudeDegrees>42.79738395474851131439208984375</LatitudeDegrees>
              <LongitudeDegrees>-0.14018523506820201873779296875</LongitudeDegrees>
            </Position>
            <AltitudeMeters>2054.800048828125</AltitudeMeters>
            <DistanceMeters>9889.1810493682</DistanceMeters>
          </Trackpoint>
          <Trackpoint>
            <Time>2022-07-09T10:14:42.000Z</Time>
            <Position>
              <LatitudeDegrees>42.7973744831979274749755859375</LatitudeDegrees>
              <LongitudeDegrees>-0.14019009657204151153564453125</LongitudeDegrees>
            </Position>
            <AltitudeMeters>2055</AltitudeMeters>
            <DistanceMeters>9890.3054206157</DistanceMeters>
          </Trackpoint>
          <Trackpoint>
            <Time>2022-07-09T10:14:43.000Z</Time>
            <Position>
              <LatitudeDegrees>42.797362245619297027587890625</LatitudeDegrees>
              <LongitudeDegrees>-0.14020233415067195892333984375</LongitudeDegrees>
            </Position>
            <AltitudeMeters>2055</AltitudeMeters>
            <DistanceMeters>9891.99465244</DistanceMeters>
          </Trackpoint>
          <Trackpoint>
            <Time>2022-07-09T10:14:48.000Z</Time>
            <Position>
              <LatitudeDegrees>42.79733651317656040191650390625</LatitudeDegrees>
              <LongitudeDegrees>-0.140254385769367218017578125</LongitudeDegrees>
            </Position>
            <AltitudeMeters>2055.800048828125</AltitudeMeters>
            <DistanceMeters>9897.1199321763</DistanceMeters>
          </Trackpoint>
          <Trackpoint>
            <Time>2022-07-09T10:14:51.000Z</Time>
            <Position>
              <LatitudeDegrees>42.7973144687712192535400390625</LatitudeDegrees>
              <LongitudeDegrees>-0.14027324505150318145751953125</LongitudeDegrees>
            </Position>
            <AltitudeMeters>2056</AltitudeMeters>
            <DistanceMeters>9900.0162990413</DistanceMeters>
          </Trackpoint>
          <Trackpoint>
            <Time>2022-07-09T10:14:52.000Z</Time>
            <Position>
              <LatitudeDegrees>42.79730516485869884490966796875</LatitudeDegrees>
              <LongitudeDegrees>-0.14027425087988376617431640625</LongitudeDegrees>
            </Position>
            <AltitudeMeters>2056.199951171875</AltitudeMeters>
            <DistanceMeters>9901.0572645418</DistanceMeters>
          </Trackpoint>
          <Trackpoint>
            <Time>2022-07-09T10:14:55.000Z</Time>
            <Position>
              <LatitudeDegrees>42.7972801029682159423828125</LatitudeDegrees>
              <LongitudeDegrees>-0.1402674615383148193359375</LongitudeDegrees>
            </Position>
            <AltitudeMeters>2056.199951171875</AltitudeMeters>
            <DistanceMeters>9903.9017238039</DistanceMeters>
          </Trackpoint>
          <Trackpoint>
            <Time>2022-07-09T10:15:01.000Z</Time>
            <Position>
              <LatitudeDegrees>42.79719854705035686492919921875</LatitudeDegrees>
              <LongitudeDegrees>-0.14028347097337245941162109375</LongitudeDegrees>
            </Position>
            <AltitudeMeters>2056.60009765625</AltitudeMeters>
            <DistanceMeters>9913.0736479288</DistanceMeters>
          </Trackpoint>
          <Trackpoint>
            <Time>2022-07-09T10:15:02.000Z</Time>
            <Position>
              <LatitudeDegrees>42.797191254794597625732421875</LatitudeDegrees>
              <LongitudeDegrees>-0.1403014920651912689208984375</LongitudeDegrees>
            </Position>
            <AltitudeMeters>2056.800048828125</AltitudeMeters>
            <DistanceMeters>9914.7575255975</DistanceMeters>
          </Trackpoint>
          <Trackpoint>
            <Time>2022-07-09T10:15:03.000Z</Time>
            <Position>
              <LatitudeDegrees>42.79718480072915554046630859375</LatitudeDegrees>
              <LongitudeDegrees>-0.14032085426151752471923828125</LongitudeDegrees>
            </Position>
            <AltitudeMeters>2056.800048828125</AltitudeMeters>
            <DistanceMeters>9916.4942021743</DistanceMeters>
          </Trackpoint>
          <Trackpoint>
            <Time>2022-07-09T10:15:07.000Z</Time>
            <Position>
              <LatitudeDegrees>42.7971679531037807464599609375</LatitudeDegrees>
              <LongitudeDegrees>-0.14038003049790859222412109375</LongitudeDegrees>
            </Position>
            <AltitudeMeters>2057.199951171875</AltitudeMeters>
            <DistanceMeters>9921.6781685609</DistanceMeters>
          </Trackpoint>
          <Trackpoint>
            <Time>2022-07-09T10:15:10.000Z</Time>
            <Position>
              <LatitudeDegrees>42.7971689589321613311767578125</LatitudeDegrees>
              <LongitudeDegrees>-0.14040450565516948699951171875</LongitudeDegrees>
            </Position>
            <AltitudeMeters>2057.199951171875</AltitudeMeters>
            <DistanceMeters>9923.6805056806</DistanceMeters>
          </Trackpoint>
          <Trackpoint>
            <Time>2022-07-09T10:15:13.000Z</Time>
            <Position>
              <LatitudeDegrees>42.797165773808956146240234375</LatitudeDegrees>
              <LongitudeDegrees>-0.14043149538338184356689453125</LongitudeDegrees>
            </Position>
            <AltitudeMeters>2057.39990234375</AltitudeMeters>
            <DistanceMeters>9925.9131279499</DistanceMeters>
          </Trackpoint>
          <Trackpoint>
            <Time>2022-07-09T10:15:15.000Z</Time>
            <Position>
              <LatitudeDegrees>42.7971532009541988372802734375</LatitudeDegrees>
              <LongitudeDegrees>-0.1404433138668537139892578125</LongitudeDegrees>
            </Position>
            <AltitudeMeters>2057.39990234375</AltitudeMeters>
            <DistanceMeters>9927.6103593382</DistanceMeters>
          </Trackpoint>
          <Trackpoint>
            <Time>2022-07-09T10:15:16.000Z</Time>
            <Position>
              <LatitudeDegrees>42.7971468307077884674072265625</LatitudeDegrees>
              <LongitudeDegrees>-0.1404382847249507904052734375</LongitudeDegrees>
            </Position>
            <AltitudeMeters>2057.39990234375</AltitudeMeters>
            <DistanceMeters>9928.433314825</DistanceMeters>
          </Trackpoint>
          <Trackpoint>
            <Time>2022-07-09T10:15:22.000Z</Time>
            <Position>
              <LatitudeDegrees>42.7970896661281585693359375</LatitudeDegrees>
              <LongitudeDegrees>-0.14045312069356441497802734375</LongitudeDegrees>
            </Position>
            <AltitudeMeters>2057.199951171875</AltitudeMeters>
            <DistanceMeters>9934.911182162</DistanceMeters>
          </Trackpoint>
          <Trackpoint>
            <Time>2022-07-09T10:15:24.000Z</Time>
            <Position>
              <LatitudeDegrees>42.79707399196922779083251953125</LatitudeDegrees>
              <LongitudeDegrees>-0.14046317897737026214599609375</LongitudeDegrees>
            </Position>
            <AltitudeMeters>2057.39990234375</AltitudeMeters>
            <DistanceMeters>9936.8400138018</DistanceMeters>
          </Trackpoint>
          <Trackpoint>
            <Time>2022-07-09T10:15:27.000Z</Time>
            <Position>
              <LatitudeDegrees>42.7970601618289947509765625</LatitudeDegrees>
              <LongitudeDegrees>-0.14048916287720203399658203125</LongitudeDegrees>
            </Position>
            <AltitudeMeters>2057.800048828125</AltitudeMeters>
            <DistanceMeters>9939.4614424531</DistanceMeters>
          </Trackpoint>
          <Trackpoint>
            <Time>2022-07-09T10:15:29.000Z</Time>
            <Position>
              <LatitudeDegrees>42.79704381711781024932861328125</LatitudeDegrees>
              <LongitudeDegrees>-0.1404962874948978424072265625</LongitudeDegrees>
            </Position>
            <AltitudeMeters>2058.199951171875</AltitudeMeters>
            <DistanceMeters>9941.3714557733</DistanceMeters>
          </Trackpoint>
          <Trackpoint>
            <Time>2022-07-09T10:15:30.000Z</Time>
            <Position>
              <LatitudeDegrees>42.79703493230044841766357421875</LatitudeDegrees>
              <LongitudeDegrees>-0.14050123281776905059814453125</LongitudeDegrees>
            </Position>
            <AltitudeMeters>2058.39990234375</AltitudeMeters>
            <DistanceMeters>9942.4381279966</DistanceMeters>
          </Trackpoint>
          <Trackpoint>
            <Time>2022-07-09T10:15:32.000Z</Time>
            <Position>
              <LatitudeDegrees>42.7970199286937713623046875</LatitudeDegrees>
              <LongitudeDegrees>-0.14050391502678394317626953125</LongitudeDegrees>
            </Position>
            <AltitudeMeters>2058.800048828125</AltitudeMeters>
            <DistanceMeters>9944.1193221933</DistanceMeters>
          </Trackpoint>
          <Trackpoint>
            <Time>2022-07-09T10:15:35.000Z</Time>
            <Position>
              <LatitudeDegrees>42.79700207524001598358154296875</LatitudeDegrees>
              <LongitudeDegrees>-0.14051615260541439056396484375</LongitudeDegrees>
            </Position>
            <AltitudeMeters>2058.800048828125</AltitudeMeters>
            <DistanceMeters>9946.3418099469</DistanceMeters>
          </Trackpoint>
          <Trackpoint>
            <Time>2022-07-09T10:15:38.000Z</Time>
            <Position>
              <LatitudeDegrees>42.79698531143367290496826171875</LatitudeDegrees>
              <LongitudeDegrees>-0.14052956365048885345458984375</LongitudeDegrees>
            </Position>
            <AltitudeMeters>2059</AltitudeMeters>
            <DistanceMeters>9948.5045812242</DistanceMeters>
          </Trackpoint>
          <Trackpoint>
            <Time>2022-07-09T10:15:40.000Z</Time>
            <Position>
              <LatitudeDegrees>42.79697743244469165802001953125</LatitudeDegrees>
              <LongitudeDegrees>-0.14053559862077236175537109375</LongitudeDegrees>
            </Position>
            <AltitudeMeters>2059.199951171875</AltitudeMeters>
            <DistanceMeters>9949.5102494407</DistanceMeters>
          </Trackpoint>
          <Trackpoint>
            <Time>2022-07-09T10:15:43.000Z</Time>
            <Position>
              <LatitudeDegrees>42.79693652875721454620361328125</LatitudeDegrees>
              <LongitudeDegrees>-0.14056359417736530303955078125</LongitudeDegrees>
            </Position>
            <AltitudeMeters>2059.60009765625</AltitudeMeters>
            <DistanceMeters>9954.6046031485</DistanceMeters>
          </Trackpoint>
          <Trackpoint>
            <Time>2022-07-09T10:15:45.000Z</Time>
            <Position>
              <LatitudeDegrees>42.7969168312847614288330078125</LatitudeDegrees>
              <LongitudeDegrees>-0.14058354310691356658935546875</LongitudeDegrees>
            </Position>
            <AltitudeMeters>2060</AltitudeMeters>
            <DistanceMeters>9957.3356914193</DistanceMeters>
          </Trackpoint>
          <Trackpoint>
            <Time>2022-07-09T10:15:46.000Z</Time>
            <Position>
              <LatitudeDegrees>42.79690501280128955841064453125</LatitudeDegrees>
              <LongitudeDegrees>-0.1405837945640087127685546875</LongitudeDegrees>
            </Position>
            <AltitudeMeters>2060.199951171875</AltitudeMeters>
            <DistanceMeters>9958.6524201982</DistanceMeters>
          </Trackpoint>
          <Trackpoint>
            <Time>2022-07-09T10:15:47.000Z</Time>
            <Position>
              <LatitudeDegrees>42.79689646326005458831787109375</LatitudeDegrees>
              <LongitudeDegrees>-0.14059075154364109039306640625</LongitudeDegrees>
            </Position>
            <AltitudeMeters>2060.60009765625</AltitudeMeters>
            <DistanceMeters>9959.7606125986</DistanceMeters>
          </Trackpoint>
          <Trackpoint>
            <Time>2022-07-09T10:15:50.000Z</Time>
            <Position>
              <LatitudeDegrees>42.79686880297958850860595703125</LatitudeDegrees>
              <LongitudeDegrees>-0.14060080982744693756103515625</LongitudeDegrees>
            </Position>
            <AltitudeMeters>2061</AltitudeMeters>
            <DistanceMeters>9962.9464886042</DistanceMeters>
          </Trackpoint>
          <Trackpoint>
            <Time>2022-07-09T10:15:51.000Z</Time>
            <Position>
              <LatitudeDegrees>42.796857655048370361328125</LatitudeDegrees>
              <LongitudeDegrees>-0.1406025700271129608154296875</LongitudeDegrees>
            </Position>
            <AltitudeMeters>2061.199951171875</AltitudeMeters>
            <DistanceMeters>9964.199977057</DistanceMeters>
          </Trackpoint>
          <Trackpoint>
            <Time>2022-07-09T10:15:52.000Z</Time>
            <Position>
              <LatitudeDegrees>42.7968480996787548065185546875</LatitudeDegrees>
              <LongitudeDegrees>-0.14060567133128643035888671875</LongitudeDegrees>
            </Position>
            <AltitudeMeters>2061.39990234375</AltitudeMeters>
            <DistanceMeters>9965.2958785886</DistanceMeters>
          </Trackpoint>
          <Trackpoint>
            <Time>2022-07-09T10:15:53.000Z</Time>
            <Position>
              <LatitudeDegrees>42.7968400530517101287841796875</LatitudeDegrees>
              <LongitudeDegrees>-0.14060952700674533843994140625</LongitudeDegrees>
            </Position>
            <AltitudeMeters>2061.60009765625</AltitudeMeters>
            <DistanceMeters>9966.2461457323</DistanceMeters>
          </Trackpoint>
          <Trackpoint>
            <Time>2022-07-09T10:15:56.000Z</Time>
            <Position>
              <LatitudeDegrees>42.7968206070363521575927734375</LatitudeDegrees>
              <LongitudeDegrees>-0.1406376063823699951171875</LongitudeDegrees>
            </Position>
            <AltitudeMeters>2061.60009765625</AltitudeMeters>
            <DistanceMeters>9969.4006891607</DistanceMeters>
          </Trackpoint>
          <Trackpoint>
            <Time>2022-07-09T10:16:02.000Z</Time>
            <Position>
              <LatitudeDegrees>42.7967817150056362152099609375</LatitudeDegrees>
              <LongitudeDegrees>-0.1406515203416347503662109375</LongitudeDegrees>
            </Position>
            <AltitudeMeters>2061.800048828125</AltitudeMeters>
            <DistanceMeters>9973.8760337902</DistanceMeters>
          </Trackpoint>
          <Trackpoint>
            <Time>2022-07-09T10:16:04.000Z</Time>
            <Position>
              <LatitudeDegrees>42.79676905833184719085693359375</LatitudeDegrees>
              <LongitudeDegrees>-0.14065026305615901947021484375</LongitudeDegrees>
            </Position>
            <AltitudeMeters>2061.800048828125</AltitudeMeters>
            <DistanceMeters>9975.2918999458</DistanceMeters>
          </Trackpoint>
          <Trackpoint>
            <Time>2022-07-09T10:16:06.000Z</Time>
            <Position>
              <LatitudeDegrees>42.79674659483134746551513671875</LatitudeDegrees>
              <LongitudeDegrees>-0.14064724557101726531982421875</LongitudeDegrees>
            </Position>
            <AltitudeMeters>2061.800048828125</AltitudeMeters>
            <DistanceMeters>9977.8024762457</DistanceMeters>
          </Trackpoint>
          <Trackpoint>
            <Time>2022-07-09T10:16:11.000Z</Time>
            <Position>
              <LatitudeDegrees>42.79671843163669109344482421875</LatitudeDegrees>
              <LongitudeDegrees>-0.14063693583011627197265625</LongitudeDegrees>
            </Position>
            <AltitudeMeters>2061.800048828125</AltitudeMeters>
            <DistanceMeters>9981.0487201075</DistanceMeters>
          </Trackpoint>
          <Trackpoint>
            <Time>2022-07-09T10:16:12.000Z</Time>
            <Position>
              <LatitudeDegrees>42.79670946300029754638671875</LatitudeDegrees>
              <LongitudeDegrees>-0.14063517563045024871826171875</LongitudeDegrees>
            </Position>
            <AltitudeMeters>2061.800048828125</AltitudeMeters>
            <DistanceMeters>9982.054388324</DistanceMeters>
          </Trackpoint>
          <Trackpoint>
            <Time>2022-07-09T10:16:16.000Z</Time>
            <Position>
              <LatitudeDegrees>42.796695716679096221923828125</LatitudeDegrees>
              <LongitudeDegrees>-0.14063215814530849456787109375</LongitudeDegrees>
            </Position>
            <AltitudeMeters>2062.39990234375</AltitudeMeters>
            <DistanceMeters>9983.6042271331</DistanceMeters>
          </Trackpoint>
          <Trackpoint>
            <Time>2022-07-09T10:16:17.000Z</Time>
            <Position>
              <LatitudeDegrees>42.79668574221432209014892578125</LatitudeDegrees>
              <LongitudeDegrees>-0.140634588897228240966796875</LongitudeDegrees>
            </Position>
            <AltitudeMeters>2062.60009765625</AltitudeMeters>
            <DistanceMeters>9984.7326068469</DistanceMeters>
          </Trackpoint>
          <Trackpoint>
            <Time>2022-07-09T10:16:18.000Z</Time>
            <Position>
              <LatitudeDegrees>42.7966727502644062042236328125</LatitudeDegrees>
              <LongitudeDegrees>-0.14063551090657711029052734375</LongitudeDegrees>
            </Position>
            <AltitudeMeters>2062.60009765625</AltitudeMeters>
            <DistanceMeters>9986.1800106382</DistanceMeters>
          </Trackpoint>
          <Trackpoint>
            <Time>2022-07-09T10:16:21.000Z</Time>
            <Position>
              <LatitudeDegrees>42.7966311760246753692626953125</LatitudeDegrees>
              <LongitudeDegrees>-0.14065445400774478912353515625</LongitudeDegrees>
            </Position>
            <AltitudeMeters>2063.199951171875</AltitudeMeters>
            <DistanceMeters>9991.0579457987</DistanceMeters>
          </Trackpoint>
          <Trackpoint>
            <Time>2022-07-09T10:16:25.000Z</Time>
            <Position>
              <LatitudeDegrees>42.79659521766006946563720703125</LatitudeDegrees>
              <LongitudeDegrees>-0.14064691029489040374755859375</LongitudeDegrees>
            </Position>
            <AltitudeMeters>2063.60009765625</AltitudeMeters>
            <DistanceMeters>9995.1074666126</DistanceMeters>
          </Trackpoint>
          <Trackpoint>
            <Time>2022-07-09T10:16:26.000Z</Time>
            <Position>
              <LatitudeDegrees>42.79659572057425975799560546875</LatitudeDegrees>
              <LongitudeDegrees>-0.1406464911997318267822265625</LongitudeDegrees>
            </Position>
            <AltitudeMeters>2063.800048828125</AltitudeMeters>
            <DistanceMeters>9995.1074666126</DistanceMeters>
          </Trackpoint>
          <Trackpoint>
            <Time>2022-07-09T10:16:28.000Z</Time>
            <Position>
              <LatitudeDegrees>42.79658817686140537261962890625</LatitudeDegrees>
              <LongitudeDegrees>-0.140644647181034088134765625</LongitudeDegrees>
            </Position>
            <AltitudeMeters>2064</AltitudeMeters>
            <DistanceMeters>9995.9679701096</DistanceMeters>
          </Trackpoint>
          <Trackpoint>
            <Time>2022-07-09T10:16:31.000Z</Time>
            <Position>
              <LatitudeDegrees>42.7965664677321910858154296875</LatitudeDegrees>
              <LongitudeDegrees>-0.140657387673854827880859375</LongitudeDegrees>
            </Position>
            <AltitudeMeters>2064.60009765625</AltitudeMeters>
            <DistanceMeters>9998.5979964509</DistanceMeters>
          </Trackpoint>
          <Trackpoint>
            <Time>2022-07-09T10:16:33.000Z</Time>
            <Position>
              <LatitudeDegrees>42.79653755016624927520751953125</LatitudeDegrees>
              <LongitudeDegrees>-0.1406773366034030914306640625</LongitudeDegrees>
            </Position>
            <AltitudeMeters>2064.800048828125</AltitudeMeters>
            <DistanceMeters>10002.206510027</DistanceMeters>
          </Trackpoint>
          <Trackpoint>
            <Time>2022-07-09T10:16:36.000Z</Time>
            <Position>
              <LatitudeDegrees>42.79650368727743625640869140625</LatitudeDegrees>
              <LongitudeDegrees>-0.14071446843445301055908203125</LongitudeDegrees>
            </Position>
            <AltitudeMeters>2064.800048828125</AltitudeMeters>
            <DistanceMeters>10007.044480484</DistanceMeters>
          </Trackpoint>
          <Trackpoint>
            <Time>2022-07-09T10:16:37.000Z</Time>
            <Position>
              <LatitudeDegrees>42.796492874622344970703125</LatitudeDegrees>
              <LongitudeDegrees>-0.14072167687118053436279296875</LongitudeDegrees>
            </Position>
            <AltitudeMeters>2064.800048828125</AltitudeMeters>
            <DistanceMeters>10008.381624881</DistanceMeters>
          </Trackpoint>
          <Trackpoint>
            <Time>2022-07-09T10:16:38.000Z</Time>
            <Position>
              <LatitudeDegrees>42.7964843250811100006103515625</LatitudeDegrees>
              <LongitudeDegrees>-0.1407222636044025421142578125</LongitudeDegrees>
            </Position>
            <AltitudeMeters>2065</AltitudeMeters>
            <DistanceMeters>10009.331892024</DistanceMeters>
          </Trackpoint>
          <Trackpoint>
            <Time>2022-07-09T10:16:40.000Z</Time>
            <Position>
              <LatitudeDegrees>42.79648088850080966949462890625</LatitudeDegrees>
              <LongitudeDegrees>-0.14072821475565433502197265625</LongitudeDegrees>
            </Position>
            <AltitudeMeters>2064.800048828125</AltitudeMeters>
            <DistanceMeters>10009.947735519</DistanceMeters>
          </Trackpoint>
          <Trackpoint>
            <Time>2022-07-09T10:16:42.000Z</Time>
            <Position>
              <LatitudeDegrees>42.79647820629179477691650390625</LatitudeDegrees>
              <LongitudeDegrees>-0.14073609374463558197021484375</LongitudeDegrees>
            </Position>
            <AltitudeMeters>2064.800048828125</AltitudeMeters>
            <DistanceMeters>10010.658850335</DistanceMeters>
          </Trackpoint>
          <Trackpoint>
            <Time>2022-07-09T10:16:46.000Z</Time>
            <Position>
              <LatitudeDegrees>42.79646093957126140594482421875</LatitudeDegrees>
              <LongitudeDegrees>-0.14075838960707187652587890625</LongitudeDegrees>
            </Position>
            <AltitudeMeters>2066</AltitudeMeters>
            <DistanceMeters>10013.305988284</DistanceMeters>
          </Trackpoint>
          <Trackpoint>
            <Time>2022-07-09T10:16:50.000Z</Time>
            <Position>
              <LatitudeDegrees>42.796459682285785675048828125</LatitudeDegrees>
              <LongitudeDegrees>-0.14078085310757160186767578125</LongitudeDegrees>
            </Position>
            <AltitudeMeters>2066.39990234375</AltitudeMeters>
            <DistanceMeters>10015.146172695</DistanceMeters>
          </Trackpoint>
          <Trackpoint>
            <Time>2022-07-09T10:16:53.000Z</Time>
            <Position>
              <LatitudeDegrees>42.79643319547176361083984375</LatitudeDegrees>
              <LongitudeDegrees>-0.14080717228353023529052734375</LongitudeDegrees>
            </Position>
            <AltitudeMeters>2066.39990234375</AltitudeMeters>
            <DistanceMeters>10018.794505558</DistanceMeters>
          </Trackpoint>
          <Trackpoint>
            <Time>2022-07-09T10:16:58.000Z</Time>
            <Position>
              <LatitudeDegrees>42.79638952575623989105224609375</LatitudeDegrees>
              <LongitudeDegrees>-0.14087154529988765716552734375</LongitudeDegrees>
            </Position>
            <AltitudeMeters>2066.39990234375</AltitudeMeters>
            <DistanceMeters>10025.954375946</DistanceMeters>
          </Trackpoint>
          <Trackpoint>
            <Time>2022-07-09T10:17:04.000Z</Time>
            <Position>
              <LatitudeDegrees>42.7963683195412158966064453125</LatitudeDegrees>
              <LongitudeDegrees>-0.14089384116232395172119140625</LongitudeDegrees>
            </Position>
            <AltitudeMeters>2066.60009765625</AltitudeMeters>
            <DistanceMeters>10028.933732444</DistanceMeters>
          </Trackpoint>
          <Trackpoint>
            <Time>2022-07-09T10:17:10.000Z</Time>
            <Position>
              <LatitudeDegrees>42.796345017850399017333984375</LatitudeDegrees>
              <LongitudeDegrees>-0.14092016033828258514404296875</LongitudeDegrees>
            </Position>
            <AltitudeMeters>2066.800048828125</AltitudeMeters>
            <DistanceMeters>10032.301487782</DistanceMeters>
          </Trackpoint>
          <Trackpoint>
            <Time>2022-07-09T10:17:11.000Z</Time>
            <Position>
              <LatitudeDegrees>42.79634526930749416351318359375</LatitudeDegrees>
              <LongitudeDegrees>-0.14092661440372467041015625</LongitudeDegrees>
            </Position>
            <AltitudeMeters>2066.800048828125</AltitudeMeters>
            <DistanceMeters>10032.839040055</DistanceMeters>
          </Trackpoint>
          <Trackpoint>
            <Time>2022-07-09T10:17:13.000Z</Time>
            <Position>
              <LatitudeDegrees>42.796342335641384124755859375</LatitudeDegrees>
              <LongitudeDegrees>-0.14091764576733112335205078125</LongitudeDegrees>
            </Position>
            <AltitudeMeters>2067.199951171875</AltitudeMeters>
            <DistanceMeters>10033.634090588</DistanceMeters>
          </Trackpoint>
          <Trackpoint>
            <Time>2022-07-09T10:17:19.000Z</Time>
            <Position>
              <LatitudeDegrees>42.79632196761667728424072265625</LatitudeDegrees>
              <LongitudeDegrees>-0.140928290784358978271484375</LongitudeDegrees>
            </Position>
            <AltitudeMeters>2067.60009765625</AltitudeMeters>
            <DistanceMeters>10036.060530334</DistanceMeters>
          </Trackpoint>
          <Trackpoint>
            <Time>2022-07-09T10:17:25.000Z</Time>
            <Position>
              <LatitudeDegrees>42.79628793708980083465576171875</LatitudeDegrees>
              <LongitudeDegrees>-0.14095720835030078887939453125</LongitudeDegrees>
            </Position>
            <AltitudeMeters>2068.39990234375</AltitudeMeters>
            <DistanceMeters>10040.523752112</DistanceMeters>
          </Trackpoint>
          <Trackpoint>
            <Time>2022-07-09T10:17:26.000Z</Time>
            <Position>
              <LatitudeDegrees>42.7962868474423885345458984375</LatitudeDegrees>
              <LongitudeDegrees>-0.14096173457801342010498046875</LongitudeDegrees>
            </Position>
            <AltitudeMeters>2068.60009765625</AltitudeMeters>
            <DistanceMeters>10040.903858969</DistanceMeters>
          </Trackpoint>
          <Trackpoint>
            <Time>2022-07-09T10:17:32.000Z</Time>
            <Position>
              <LatitudeDegrees>42.796259857714176177978515625</LatitudeDegrees>
              <LongitudeDegrees>-0.1409227587282657623291015625</LongitudeDegrees>
            </Position>
            <AltitudeMeters>2069.39990234375</AltitudeMeters>
            <DistanceMeters>10045.280249279</DistanceMeters>
          </Trackpoint>
          <Trackpoint>
            <Time>2022-07-09T10:17:37.000Z</Time>
            <Position>
              <LatitudeDegrees>42.79628726653754711151123046875</LatitudeDegrees>
              <LongitudeDegrees>-0.14090658165514469146728515625</LongitudeDegrees>
            </Position>
            <AltitudeMeters>2069.800048828125</AltitudeMeters>
            <DistanceMeters>10048.60482648</DistanceMeters>
          </Trackpoint>
          <Trackpoint>
            <Time>2022-07-09T10:17:39.000Z</Time>
            <Position>
              <LatitudeDegrees>42.796294055879116058349609375</LatitudeDegrees>
              <LongitudeDegrees>-0.14091546647250652313232421875</LongitudeDegrees>
            </Position>
            <AltitudeMeters>2070.39990234375</AltitudeMeters>
            <DistanceMeters>10049.654430846</DistanceMeters>
          </Trackpoint>
          <Trackpoint>
            <Time>2022-07-09T10:17:45.000Z</Time>
            <Position>
              <LatitudeDegrees>42.79625348746776580810546875</LatitudeDegrees>
              <LongitudeDegrees>-0.14091588556766510009765625</LongitudeDegrees>
            </Position>
            <AltitudeMeters>2071.199951171875</AltitudeMeters>
            <DistanceMeters>10054.169949932</DistanceMeters>
          </Trackpoint>
          <Trackpoint>
            <Time>2022-07-09T10:17:47.000Z</Time>
            <Position>
              <LatitudeDegrees>42.7962479554116725921630859375</LatitudeDegrees>
              <LongitudeDegrees>-0.14092820696532726287841796875</LongitudeDegrees>
            </Position>
            <AltitudeMeters>2071.39990234375</AltitudeMeters>
            <DistanceMeters>10055.349200445</DistanceMeters>
          </Trackpoint>
          <Trackpoint>
            <Time>2022-07-09T10:17:51.000Z</Time>
            <Position>
              <LatitudeDegrees>42.79625776223838329315185546875</LatitudeDegrees>
              <LongitudeDegrees>-0.140937007963657379150390625</LongitudeDegrees>
            </Position>
            <AltitudeMeters>2071.60009765625</AltitudeMeters>
            <DistanceMeters>10056.65560178</DistanceMeters>
          </Trackpoint>
          <Trackpoint>
            <Time>2022-07-09T10:17:53.000Z</Time>
            <Position>
              <LatitudeDegrees>42.7962556667625904083251953125</LatitudeDegrees>
              <LongitudeDegrees>-0.14092451892793178558349609375</LongitudeDegrees>
            </Position>
            <AltitudeMeters>2071.800048828125</AltitudeMeters>
            <DistanceMeters>10057.700895638</DistanceMeters>
          </Trackpoint>
          <Trackpoint>
            <Time>2022-07-09T10:17:56.000Z</Time>
            <Position>
              <LatitudeDegrees>42.7962420880794525146484375</LatitudeDegrees>
              <LongitudeDegrees>-0.1408763229846954345703125</LongitudeDegrees>
            </Position>
            <AltitudeMeters>2072</AltitudeMeters>
            <DistanceMeters>10061.917555515</DistanceMeters>
          </Trackpoint>
          <Trackpoint>
            <Time>2022-07-09T10:18:00.000Z</Time>
            <Position>
              <LatitudeDegrees>42.79622054658830165863037109375</LatitudeDegrees>
              <LongitudeDegrees>-0.14085930772125720977783203125</LongitudeDegrees>
            </Position>
            <AltitudeMeters>2072.60009765625</AltitudeMeters>
            <DistanceMeters>10064.688036516</DistanceMeters>
          </Trackpoint>
          <Trackpoint>
            <Time>2022-07-09T10:18:03.000Z</Time>
            <Position>
              <LatitudeDegrees>42.79619120992720127105712890625</LatitudeDegrees>
              <LongitudeDegrees>-0.140882693231105804443359375</LongitudeDegrees>
            </Position>
            <AltitudeMeters>2072.800048828125</AltitudeMeters>
            <DistanceMeters>10068.472438878</DistanceMeters>
          </Trackpoint>
          <Trackpoint>
            <Time>2022-07-09T10:18:07.000Z</Time>
            <Position>
              <LatitudeDegrees>42.79615064151585102081298828125</LatitudeDegrees>
              <LongitudeDegrees>-0.140904821455478668212890625</LongitudeDegrees>
            </Position>
            <AltitudeMeters>2072.39990234375</AltitudeMeters>
            <DistanceMeters>10073.336470157</DistanceMeters>
          </Trackpoint>
          <Trackpoint>
            <Time>2022-07-09T10:18:11.000Z</Time>
            <Position>
              <LatitudeDegrees>42.7960950694978237152099609375</LatitudeDegrees>
              <LongitudeDegrees>-0.14095100574195384979248046875</LongitudeDegrees>
            </Position>
            <AltitudeMeters>2072.39990234375</AltitudeMeters>
            <DistanceMeters>10080.580348553</DistanceMeters>
          </Trackpoint>
          <Trackpoint>
            <Time>2022-07-09T10:18:17.000Z</Time>
            <Position>
              <LatitudeDegrees>42.796041928231716156005859375</LatitudeDegrees>
              <LongitudeDegrees>-0.14101118780672550201416015625</LongitudeDegrees>
            </Position>
            <AltitudeMeters>2072.199951171875</AltitudeMeters>
            <DistanceMeters>10088.27047018</DistanceMeters>
          </Trackpoint>
          <Trackpoint>
            <Time>2022-07-09T10:18:23.000Z</Time>
            <Position>
              <LatitudeDegrees>42.7959790639579296112060546875</LatitudeDegrees>
              <LongitudeDegrees>-0.14104840345680713653564453125</LongitudeDegrees>
            </Position>
            <AltitudeMeters>2073</AltitudeMeters>
            <DistanceMeters>10095.898694914</DistanceMeters>
          </Trackpoint>
          <Trackpoint>
            <Time>2022-07-09T10:18:25.000Z</Time>
            <Position>
              <LatitudeDegrees>42.79596380889415740966796875</LatitudeDegrees>
              <LongitudeDegrees>-0.141060389578342437744140625</LongitudeDegrees>
            </Position>
            <AltitudeMeters>2073.60009765625</AltitudeMeters>
            <DistanceMeters>10097.8600242</DistanceMeters>
          </Trackpoint>
          <Trackpoint>
            <Time>2022-07-09T10:18:26.000Z</Time>
            <Position>
              <LatitudeDegrees>42.79596003703773021697998046875</LatitudeDegrees>
              <LongitudeDegrees>-0.1410726271569728851318359375</LongitudeDegrees>
            </Position>
            <AltitudeMeters>2073.60009765625</AltitudeMeters>
            <DistanceMeters>10098.943495444</DistanceMeters>
          </Trackpoint>
          <Trackpoint>
            <Time>2022-07-09T10:18:27.000Z</Time>
            <Position>
              <LatitudeDegrees>42.79595651663839817047119140625</LatitudeDegrees>
              <LongitudeDegrees>-0.14108981005847454071044921875</LongitudeDegrees>
            </Position>
            <AltitudeMeters>2073.800048828125</AltitudeMeters>
            <DistanceMeters>10100.400227391</DistanceMeters>
          </Trackpoint>
          <Trackpoint>
            <Time>2022-07-09T10:18:28.000Z</Time>
            <Position>
              <LatitudeDegrees>42.79595199041068553924560546875</LatitudeDegrees>
              <LongitudeDegrees>-0.14111042954027652740478515625</LongitudeDegrees>
            </Position>
            <AltitudeMeters>2074</AltitudeMeters>
            <DistanceMeters>10102.155008308</DistanceMeters>
          </Trackpoint>
          <Trackpoint>
            <Time>2022-07-09T10:18:32.000Z</Time>
            <Position>
              <LatitudeDegrees>42.7959405072033405303955078125</LatitudeDegrees>
              <LongitudeDegrees>-0.14118536375463008880615234375</LongitudeDegrees>
            </Position>
            <AltitudeMeters>2074.800048828125</AltitudeMeters>
            <DistanceMeters>10108.406581778</DistanceMeters>
          </Trackpoint>
          <Trackpoint>
            <Time>2022-07-09T10:18:34.000Z</Time>
            <Position>
              <LatitudeDegrees>42.79593589715659618377685546875</LatitudeDegrees>
              <LongitudeDegrees>-0.1412144489586353302001953125</LongitudeDegrees>
            </Position>
            <AltitudeMeters>2075</AltitudeMeters>
            <DistanceMeters>10110.836740208</DistanceMeters>
          </Trackpoint>
          <Trackpoint>
            <Time>2022-07-09T10:18:36.000Z</Time>
            <Position>
              <LatitudeDegrees>42.7959267608821392059326171875</LatitudeDegrees>
              <LongitudeDegrees>-0.141234062612056732177734375</LongitudeDegrees>
            </Position>
            <AltitudeMeters>2075.199951171875</AltitudeMeters>
            <DistanceMeters>10112.734897341</DistanceMeters>
          </Trackpoint>
          <Trackpoint>
            <Time>2022-07-09T10:18:38.000Z</Time>
            <Position>
              <LatitudeDegrees>42.7959220670163631439208984375</LatitudeDegrees>
              <LongitudeDegrees>-0.14125711284577846527099609375</LongitudeDegrees>
            </Position>
            <AltitudeMeters>2075.60009765625</AltitudeMeters>
            <DistanceMeters>10114.69161715</DistanceMeters>
          </Trackpoint>
          <Trackpoint>
            <Time>2022-07-09T10:18:40.000Z</Time>
            <Position>
              <LatitudeDegrees>42.7959207259118556976318359375</LatitudeDegrees>
              <LongitudeDegrees>-0.14127739705145359039306640625</LongitudeDegrees>
            </Position>
            <AltitudeMeters>2075.800048828125</AltitudeMeters>
            <DistanceMeters>10116.353905751</DistanceMeters>
          </Trackpoint>
          <Trackpoint>
            <Time>2022-07-09T10:18:43.000Z</Time>
            <Position>
              <LatitudeDegrees>42.7959140203893184661865234375</LatitudeDegrees>
              <LongitudeDegrees>-0.14129868708550930023193359375</LongitudeDegrees>
            </Position>
            <AltitudeMeters>2076.39990234375</AltitudeMeters>
            <DistanceMeters>10118.247299621</DistanceMeters>
          </Trackpoint>
          <Trackpoint>
            <Time>2022-07-09T10:18:46.000Z</Time>
            <Position>
              <LatitudeDegrees>42.79590345919132232666015625</LatitudeDegrees>
              <LongitudeDegrees>-0.14131427742540836334228515625</LongitudeDegrees>
            </Position>
            <AltitudeMeters>2077</AltitudeMeters>
            <DistanceMeters>10119.97876876</DistanceMeters>
          </Trackpoint>
          <Trackpoint>
            <Time>2022-07-09T10:18:48.000Z</Time>
            <Position>
              <LatitudeDegrees>42.79589273035526275634765625</LatitudeDegrees>
              <LongitudeDegrees>-0.141324587166309356689453125</LongitudeDegrees>
            </Position>
            <AltitudeMeters>2077.39990234375</AltitudeMeters>
            <DistanceMeters>10121.444769508</DistanceMeters>
          </Trackpoint>
          <Trackpoint>
            <Time>2022-07-09T10:18:50.000Z</Time>
            <Position>
              <LatitudeDegrees>42.79587437398731708526611328125</LatitudeDegrees>
              <LongitudeDegrees>-0.14133296906948089599609375</LongitudeDegrees>
            </Position>
            <AltitudeMeters>2077.60009765625</AltitudeMeters>
            <DistanceMeters>10123.60126884</DistanceMeters>
          </Trackpoint>
          <Trackpoint>
            <Time>2022-07-09T10:18:51.000Z</Time>
            <Position>
              <LatitudeDegrees>42.79586666263639926910400390625</LatitudeDegrees>
              <LongitudeDegrees>-0.1413378305733203887939453125</LongitudeDegrees>
            </Position>
            <AltitudeMeters>2078</AltitudeMeters>
            <DistanceMeters>10124.54677271</DistanceMeters>
          </Trackpoint>
          <Trackpoint>
            <Time>2022-07-09T10:18:53.000Z</Time>
            <Position>
              <LatitudeDegrees>42.79586054384708404541015625</LatitudeDegrees>
              <LongitudeDegrees>-0.141356103122234344482421875</LongitudeDegrees>
            </Position>
            <AltitudeMeters>2078.39990234375</AltitudeMeters>
            <DistanceMeters>10126.189938209</DistanceMeters>
          </Trackpoint>
          <Trackpoint>
            <Time>2022-07-09T10:18:54.000Z</Time>
            <Position>
              <LatitudeDegrees>42.79585945419967174530029296875</LatitudeDegrees>
              <LongitudeDegrees>-0.1413656584918498992919921875</LongitudeDegrees>
            </Position>
            <AltitudeMeters>2078.60009765625</AltitudeMeters>
            <DistanceMeters>10126.979289382</DistanceMeters>
          </Trackpoint>
          <Trackpoint>
            <Time>2022-07-09T10:18:55.000Z</Time>
            <Position>
              <LatitudeDegrees>42.79585861600935459136962890625</LatitudeDegrees>
              <LongitudeDegrees>-0.1413804106414318084716796875</LongitudeDegrees>
            </Position>
            <AltitudeMeters>2078.800048828125</AltitudeMeters>
            <DistanceMeters>10128.188781996</DistanceMeters>
          </Trackpoint>
          <Trackpoint>
            <Time>2022-07-09T10:18:58.000Z</Time>
            <Position>
              <LatitudeDegrees>42.79585408978164196014404296875</LatitudeDegrees>
              <LongitudeDegrees>-0.1414263434708118438720703125</LongitudeDegrees>
            </Position>
            <AltitudeMeters>2079.199951171875</AltitudeMeters>
            <DistanceMeters>10131.973184359</DistanceMeters>
          </Trackpoint>
          <Trackpoint>
            <Time>2022-07-09T10:19:02.000Z</Time>
            <Position>
              <LatitudeDegrees>42.795859538018703460693359375</LatitudeDegrees>
              <LongitudeDegrees>-0.14147789217531681060791015625</LongitudeDegrees>
            </Position>
            <AltitudeMeters>2079.800048828125</AltitudeMeters>
            <DistanceMeters>10136.22715582</DistanceMeters>
          </Trackpoint>
          <Trackpoint>
            <Time>2022-07-09T10:19:08.000Z</Time>
            <Position>
              <LatitudeDegrees>42.79588242061436176300048828125</LatitudeDegrees>
              <LongitudeDegrees>-0.14154008589684963226318359375</LongitudeDegrees>
            </Position>
            <AltitudeMeters>2080.39990234375</AltitudeMeters>
            <DistanceMeters>10141.90892696</DistanceMeters>
          </Trackpoint>
          <Trackpoint>
            <Time>2022-07-09T10:19:09.000Z</Time>
            <Position>
              <LatitudeDegrees>42.79588962905108928680419921875</LatitudeDegrees>
              <LongitudeDegrees>-0.14154913835227489471435546875</LongitudeDegrees>
            </Position>
            <AltitudeMeters>2080.60009765625</AltitudeMeters>
            <DistanceMeters>10142.996557419</DistanceMeters>
          </Trackpoint>
          <Trackpoint>
            <Time>2022-07-09T10:19:10.000Z</Time>
            <Position>
              <LatitudeDegrees>42.79589884914457798004150390625</LatitudeDegrees>
              <LongitudeDegrees>-0.14155802316963672637939453125</LongitudeDegrees>
            </Position>
            <AltitudeMeters>2080.60009765625</AltitudeMeters>
            <DistanceMeters>10144.250045871</DistanceMeters>
          </Trackpoint>
          <Trackpoint>
            <Time>2022-07-09T10:19:13.000Z</Time>
            <Position>
              <LatitudeDegrees>42.7959254197776317596435546875</LatitudeDegrees>
              <LongitudeDegrees>-0.14157411642372608184814453125</LongitudeDegrees>
            </Position>
            <AltitudeMeters>2081</AltitudeMeters>
            <DistanceMeters>10147.485143798</DistanceMeters>
          </Trackpoint>
          <Trackpoint>
            <Time>2022-07-09T10:19:15.000Z</Time>
            <Position>
              <LatitudeDegrees>42.79593824408948421478271484375</LatitudeDegrees>
              <LongitudeDegrees>-0.1415701769292354583740234375</LongitudeDegrees>
            </Position>
            <AltitudeMeters>2081.39990234375</AltitudeMeters>
            <DistanceMeters>10148.944971885</DistanceMeters>
          </Trackpoint>
          <Trackpoint>
            <Time>2022-07-09T10:19:16.000Z</Time>
            <Position>
              <LatitudeDegrees>42.79594226740300655364990234375</LatitudeDegrees>
              <LongitudeDegrees>-0.14156489633023738861083984375</LongitudeDegrees>
            </Position>
            <AltitudeMeters>2081.60009765625</AltitudeMeters>
            <DistanceMeters>10149.56081538</DistanceMeters>
          </Trackpoint>
          <Trackpoint>
            <Time>2022-07-09T10:19:21.000Z</Time>
            <Position>
              <LatitudeDegrees>42.79595953412353992462158203125</LatitudeDegrees>
              <LongitudeDegrees>-0.141558609902858734130859375</LongitudeDegrees>
            </Position>
            <AltitudeMeters>2082.199951171875</AltitudeMeters>
            <DistanceMeters>10151.549577176</DistanceMeters>
          </Trackpoint>
          <Trackpoint>
            <Time>2022-07-09T10:19:24.000Z</Time>
            <Position>
              <LatitudeDegrees>42.79597009532153606414794921875</LatitudeDegrees>
              <LongitudeDegrees>-0.1415782235562801361083984375</LongitudeDegrees>
            </Position>
            <AltitudeMeters>2082.199951171875</AltitudeMeters>
            <DistanceMeters>10153.538338972</DistanceMeters>
          </Trackpoint>
          <Trackpoint>
            <Time>2022-07-09T10:19:27.000Z</Time>
            <Position>
              <LatitudeDegrees>42.79596875421702861785888671875</LatitudeDegrees>
              <LongitudeDegrees>-0.14161485247313976287841796875</LongitudeDegrees>
            </Position>
            <AltitudeMeters>2082.39990234375</AltitudeMeters>
            <DistanceMeters>10156.532811532</DistanceMeters>
          </Trackpoint>
          <Trackpoint>
            <Time>2022-07-09T10:19:28.000Z</Time>
            <Position>
              <LatitudeDegrees>42.7959639765322208404541015625</LatitudeDegrees>
              <LongitudeDegrees>-0.14162507839500904083251953125</LongitudeDegrees>
            </Position>
            <AltitudeMeters>2082.60009765625</AltitudeMeters>
            <DistanceMeters>10157.520358116</DistanceMeters>
          </Trackpoint>
          <Trackpoint>
            <Time>2022-07-09T10:19:30.000Z</Time>
            <Position>
              <LatitudeDegrees>42.79595584608614444732666015625</LatitudeDegrees>
              <LongitudeDegrees>-0.1416265033185482025146484375</LongitudeDegrees>
            </Position>
            <AltitudeMeters>2082.800048828125</AltitudeMeters>
            <DistanceMeters>10158.431822341</DistanceMeters>
          </Trackpoint>
          <Trackpoint>
            <Time>2022-07-09T10:19:32.000Z</Time>
            <Position>
              <LatitudeDegrees>42.79594042338430881500244140625</LatitudeDegrees>
              <LongitudeDegrees>-0.14162289910018444061279296875</LongitudeDegrees>
            </Position>
            <AltitudeMeters>2083.199951171875</AltitudeMeters>
            <DistanceMeters>10160.173690787</DistanceMeters>
          </Trackpoint>
          <Trackpoint>
            <Time>2022-07-09T10:19:36.000Z</Time>
            <Position>
              <LatitudeDegrees>42.795909829437732696533203125</LatitudeDegrees>
              <LongitudeDegrees>-0.1416147686541080474853515625</LongitudeDegrees>
            </Position>
            <AltitudeMeters>2083.60009765625</AltitudeMeters>
            <DistanceMeters>10163.644443152</DistanceMeters>
          </Trackpoint>
          <Trackpoint>
            <Time>2022-07-09T10:19:38.000Z</Time>
            <Position>
              <LatitudeDegrees>42.7958848513662815093994140625</LatitudeDegrees>
              <LongitudeDegrees>-0.14163010753691196441650390625</LongitudeDegrees>
            </Position>
            <AltitudeMeters>2083.60009765625</AltitudeMeters>
            <DistanceMeters>10166.694193754</DistanceMeters>
          </Trackpoint>
          <Trackpoint>
            <Time>2022-07-09T10:19:44.000Z</Time>
            <Position>
              <LatitudeDegrees>42.7958476357161998748779296875</LatitudeDegrees>
              <LongitudeDegrees>-0.141656510531902313232421875</LongitudeDegrees>
            </Position>
            <AltitudeMeters>2084.800048828125</AltitudeMeters>
            <DistanceMeters>10171.364058272</DistanceMeters>
          </Trackpoint>
          <Trackpoint>
            <Time>2022-07-09T10:19:46.000Z</Time>
            <Position>
              <LatitudeDegrees>42.795838415622711181640625</LatitudeDegrees>
              <LongitudeDegrees>-0.14166631735861301422119140625</LongitudeDegrees>
            </Position>
            <AltitudeMeters>2085</AltitudeMeters>
            <DistanceMeters>10172.666998935</DistanceMeters>
          </Trackpoint>
          <Trackpoint>
            <Time>2022-07-09T10:19:50.000Z</Time>
            <Position>
              <LatitudeDegrees>42.7958048880100250244140625</LatitudeDegrees>
              <LongitudeDegrees>-0.141714513301849365234375</LongitudeDegrees>
            </Position>
            <AltitudeMeters>2085.60009765625</AltitudeMeters>
            <DistanceMeters>10178.091018575</DistanceMeters>
          </Trackpoint>
          <Trackpoint>
            <Time>2022-07-09T10:19:52.000Z</Time>
            <Position>
              <LatitudeDegrees>42.795791812241077423095703125</LatitudeDegrees>
              <LongitudeDegrees>-0.14172398485243320465087890625</LongitudeDegrees>
            </Position>
            <AltitudeMeters>2086</AltitudeMeters>
            <DistanceMeters>10179.742406805</DistanceMeters>
          </Trackpoint>
          <Trackpoint>
            <Time>2022-07-09T10:19:54.000Z</Time>
            <Position>
              <LatitudeDegrees>42.79577605426311492919921875</LatitudeDegrees>
              <LongitudeDegrees>-0.14173907227814197540283203125</LongitudeDegrees>
            </Position>
            <AltitudeMeters>2086.39990234375</AltitudeMeters>
            <DistanceMeters>10181.886307201</DistanceMeters>
          </Trackpoint>
          <Trackpoint>
            <Time>2022-07-09T10:19:56.000Z</Time>
            <Position>
              <LatitudeDegrees>42.79575920663774013519287109375</LatitudeDegrees>
              <LongitudeDegrees>-0.14174410142004489898681640625</LongitudeDegrees>
            </Position>
            <AltitudeMeters>2086.60009765625</AltitudeMeters>
            <DistanceMeters>10183.805752743</DistanceMeters>
          </Trackpoint>
          <Trackpoint>
            <Time>2022-07-09T10:19:57.000Z</Time>
            <Position>
              <LatitudeDegrees>42.79575333930552005767822265625</LatitudeDegrees>
              <LongitudeDegrees>-0.14173940755426883697509765625</LongitudeDegrees>
            </Position>
            <AltitudeMeters>2086.60009765625</AltitudeMeters>
            <DistanceMeters>10184.565966458</DistanceMeters>
          </Trackpoint>
          <Trackpoint>
            <Time>2022-07-09T10:19:59.000Z</Time>
            <Position>
              <LatitudeDegrees>42.7957380004227161407470703125</LatitudeDegrees>
              <LongitudeDegrees>-0.1417354680597782135009765625</LongitudeDegrees>
            </Position>
            <AltitudeMeters>2087.199951171875</AltitudeMeters>
            <DistanceMeters>10186.300041271</DistanceMeters>
          </Trackpoint>
          <Trackpoint>
            <Time>2022-07-09T10:20:04.000Z</Time>
            <Position>
              <LatitudeDegrees>42.79570790939033031463623046875</LatitudeDegrees>
              <LongitudeDegrees>-0.14173370786011219024658203125</LongitudeDegrees>
            </Position>
            <AltitudeMeters>2087.800048828125</AltitudeMeters>
            <DistanceMeters>10189.651669994</DistanceMeters>
          </Trackpoint>
          <Trackpoint>
            <Time>2022-07-09T10:20:07.000Z</Time>
            <Position>
              <LatitudeDegrees>42.79569935984909534454345703125</LatitudeDegrees>
              <LongitudeDegrees>-0.14170956797897815704345703125</LongitudeDegrees>
            </Position>
            <AltitudeMeters>2088.39990234375</AltitudeMeters>
            <DistanceMeters>10191.839349247</DistanceMeters>
          </Trackpoint>
          <Trackpoint>
            <Time>2022-07-09T10:20:12.000Z</Time>
            <Position>
              <LatitudeDegrees>42.7956655807793140411376953125</LatitudeDegrees>
              <LongitudeDegrees>-0.14170235954225063323974609375</LongitudeDegrees>
            </Position>
            <AltitudeMeters>2088.800048828125</AltitudeMeters>
            <DistanceMeters>10195.642792748</DistanceMeters>
          </Trackpoint>
          <Trackpoint>
            <Time>2022-07-09T10:20:14.000Z</Time>
            <Position>
              <LatitudeDegrees>42.79565728269517421722412109375</LatitudeDegrees>
              <LongitudeDegrees>-0.1417022757232189178466796875</LongitudeDegrees>
            </Position>
            <AltitudeMeters>2089</AltitudeMeters>
            <DistanceMeters>10196.564110926</DistanceMeters>
          </Trackpoint>
          <Trackpoint>
            <Time>2022-07-09T10:20:16.000Z</Time>
            <Position>
              <LatitudeDegrees>42.79564730823040008544921875</LatitudeDegrees>
              <LongitudeDegrees>-0.14169230125844478607177734375</LongitudeDegrees>
            </Position>
            <AltitudeMeters>2089.199951171875</AltitudeMeters>
            <DistanceMeters>10197.941178845</DistanceMeters>
          </Trackpoint>
          <Trackpoint>
            <Time>2022-07-09T10:20:19.000Z</Time>
            <Position>
              <LatitudeDegrees>42.79562811367213726043701171875</LatitudeDegrees>
              <LongitudeDegrees>-0.1416734419763088226318359375</LongitudeDegrees>
            </Position>
            <AltitudeMeters>2089.60009765625</AltitudeMeters>
            <DistanceMeters>10200.574636403</DistanceMeters>
          </Trackpoint>
          <Trackpoint>
            <Time>2022-07-09T10:20:25.000Z</Time>
            <Position>
              <LatitudeDegrees>42.79556541703641414642333984375</LatitudeDegrees>
              <LongitudeDegrees>-0.141698084771633148193359375</LongitudeDegrees>
            </Position>
            <AltitudeMeters>2090.199951171875</AltitudeMeters>
            <DistanceMeters>10207.837811093</DistanceMeters>
          </Trackpoint>
          <Trackpoint>
            <Time>2022-07-09T10:20:27.000Z</Time>
            <Position>
              <LatitudeDegrees>42.79554613865911960601806640625</LatitudeDegrees>
              <LongitudeDegrees>-0.14170713722705841064453125</LongitudeDegrees>
            </Position>
            <AltitudeMeters>2090.60009765625</AltitudeMeters>
            <DistanceMeters>10210.106542804</DistanceMeters>
          </Trackpoint>
          <Trackpoint>
            <Time>2022-07-09T10:20:28.000Z</Time>
            <Position>
              <LatitudeDegrees>42.79553507454693317413330078125</LatitudeDegrees>
              <LongitudeDegrees>-0.1417086459696292877197265625</LongitudeDegrees>
            </Position>
            <AltitudeMeters>2090.60009765625</AltitudeMeters>
            <DistanceMeters>10211.345539573</DistanceMeters>
          </Trackpoint>
          <Trackpoint>
            <Time>2022-07-09T10:20:33.000Z</Time>
            <Position>
              <LatitudeDegrees>42.79547237791121006011962890625</LatitudeDegrees>
              <LongitudeDegrees>-0.14172054827213287353515625</LongitudeDegrees>
            </Position>
            <AltitudeMeters>2091</AltitudeMeters>
            <DistanceMeters>10218.39162787</DistanceMeters>
          </Trackpoint>
          <Trackpoint>
            <Time>2022-07-09T10:20:37.000Z</Time>
            <Position>
              <LatitudeDegrees>42.79544505290687084197998046875</LatitudeDegrees>
              <LongitudeDegrees>-0.1417103223502635955810546875</LongitudeDegrees>
            </Position>
            <AltitudeMeters>2091.60009765625</AltitudeMeters>
            <DistanceMeters>10221.544739693</DistanceMeters>
          </Trackpoint>
          <Trackpoint>
            <Time>2022-07-09T10:20:40.000Z</Time>
            <Position>
              <LatitudeDegrees>42.795423008501529693603515625</LatitudeDegrees>
              <LongitudeDegrees>-0.141726918518543243408203125</LongitudeDegrees>
            </Position>
            <AltitudeMeters>2092</AltitudeMeters>
            <DistanceMeters>10224.347625082</DistanceMeters>
          </Trackpoint>
          <Trackpoint>
            <Time>2022-07-09T10:20:44.000Z</Time>
            <Position>
              <LatitudeDegrees>42.79537975788116455078125</LatitudeDegrees>
              <LongitudeDegrees>-0.14172314666211605072021484375</LongitudeDegrees>
            </Position>
            <AltitudeMeters>2092.39990234375</AltitudeMeters>
            <DistanceMeters>10229.171576471</DistanceMeters>
          </Trackpoint>
          <Trackpoint>
            <Time>2022-07-09T10:20:45.000Z</Time>
            <Position>
              <LatitudeDegrees>42.7953702025115489959716796875</LatitudeDegrees>
              <LongitudeDegrees>-0.14171157963573932647705078125</LongitudeDegrees>
            </Position>
            <AltitudeMeters>2092.800048828125</AltitudeMeters>
            <DistanceMeters>10230.593806102</DistanceMeters>
          </Trackpoint>
          <Trackpoint>
            <Time>2022-07-09T10:20:46.000Z</Time>
            <Position>
              <LatitudeDegrees>42.7953623235225677490234375</LatitudeDegrees>
              <LongitudeDegrees>-0.1417012698948383331298828125</LongitudeDegrees>
            </Position>
            <AltitudeMeters>2092.800048828125</AltitudeMeters>
            <DistanceMeters>10231.810741818</DistanceMeters>
          </Trackpoint>
          <Trackpoint>
            <Time>2022-07-09T10:20:48.000Z</Time>
            <Position>
              <LatitudeDegrees>42.7953542768955230712890625</LatitudeDegrees>
              <LongitudeDegrees>-0.14169037342071533203125</LongitudeDegrees>
            </Position>
            <AltitudeMeters>2093.199951171875</AltitudeMeters>
            <DistanceMeters>10233.074990025</DistanceMeters>
          </Trackpoint>
          <Trackpoint>
            <Time>2022-07-09T10:20:50.000Z</Time>
            <Position>
              <LatitudeDegrees>42.79534497298300266265869140625</LatitudeDegrees>
              <LongitudeDegrees>-0.1416824944317340850830078125</LongitudeDegrees>
            </Position>
            <AltitudeMeters>2093.800048828125</AltitudeMeters>
            <DistanceMeters>10234.299323595</DistanceMeters>
          </Trackpoint>
          <Trackpoint>
            <Time>2022-07-09T10:20:54.000Z</Time>
            <Position>
              <LatitudeDegrees>42.795293591916561126708984375</LatitudeDegrees>
              <LongitudeDegrees>-0.14168475754559040069580078125</LongitudeDegrees>
            </Position>
            <AltitudeMeters>2094.199951171875</AltitudeMeters>
            <DistanceMeters>10240.022267528</DistanceMeters>
          </Trackpoint>
          <Trackpoint>
            <Time>2022-07-09T10:21:00.000Z</Time>
            <Position>
              <LatitudeDegrees>42.795243971049785614013671875</LatitudeDegrees>
              <LongitudeDegrees>-0.14171359129250049591064453125</LongitudeDegrees>
            </Position>
            <AltitudeMeters>2094.39990234375</AltitudeMeters>
            <DistanceMeters>10246.026271622</DistanceMeters>
          </Trackpoint>
          <Trackpoint>
            <Time>2022-07-09T10:21:02.000Z</Time>
            <Position>
              <LatitudeDegrees>42.79523500241339206695556640625</LatitudeDegrees>
              <LongitudeDegrees>-0.1417203806340694427490234375</LongitudeDegrees>
            </Position>
            <AltitudeMeters>2094.800048828125</AltitudeMeters>
            <DistanceMeters>10247.166592195</DistanceMeters>
          </Trackpoint>
          <Trackpoint>
            <Time>2022-07-09T10:21:06.000Z</Time>
            <Position>
              <LatitudeDegrees>42.79519577510654926300048828125</LatitudeDegrees>
              <LongitudeDegrees>-0.14174074865877628326416015625</LongitudeDegrees>
            </Position>
            <AltitudeMeters>2095.39990234375</AltitudeMeters>
            <DistanceMeters>10251.839356349</DistanceMeters>
          </Trackpoint>
          <Trackpoint>
            <Time>2022-07-09T10:21:08.000Z</Time>
            <Position>
              <LatitudeDegrees>42.79519510455429553985595703125</LatitudeDegrees>
              <LongitudeDegrees>-0.1417679898440837860107421875</LongitudeDegrees>
            </Position>
            <AltitudeMeters>2095.60009765625</AltitudeMeters>
            <DistanceMeters>10254.065903444</DistanceMeters>
          </Trackpoint>
          <Trackpoint>
            <Time>2022-07-09T10:21:12.000Z</Time>
            <Position>
              <LatitudeDegrees>42.79517280869185924530029296875</LatitudeDegrees>
              <LongitudeDegrees>-0.141784586012363433837890625</LongitudeDegrees>
            </Position>
            <AltitudeMeters>2095.800048828125</AltitudeMeters>
            <DistanceMeters>10256.896040863</DistanceMeters>
          </Trackpoint>
          <Trackpoint>
            <Time>2022-07-09T10:21:13.000Z</Time>
            <Position>
              <LatitudeDegrees>42.7951643429696559906005859375</LatitudeDegrees>
              <LongitudeDegrees>-0.1417820714414119720458984375</LongitudeDegrees>
            </Position>
            <AltitudeMeters>2096.199951171875</AltitudeMeters>
            <DistanceMeters>10257.865127004</DistanceMeters>
          </Trackpoint>
          <Trackpoint>
            <Time>2022-07-09T10:21:18.000Z</Time>
            <Position>
              <LatitudeDegrees>42.79512226581573486328125</LatitudeDegrees>
              <LongitudeDegrees>-0.141768492758274078369140625</LongitudeDegrees>
            </Position>
            <AltitudeMeters>2097.199951171875</AltitudeMeters>
            <DistanceMeters>10262.676895494</DistanceMeters>
          </Trackpoint>
          <Trackpoint>
            <Time>2022-07-09T10:21:19.000Z</Time>
            <Position>
              <LatitudeDegrees>42.7951117046177387237548828125</LatitudeDegrees>
              <LongitudeDegrees>-0.14176405034959316253662109375</LongitudeDegrees>
            </Position>
            <AltitudeMeters>2097.39990234375</AltitudeMeters>
            <DistanceMeters>10263.904911279</DistanceMeters>
          </Trackpoint>
          <Trackpoint>
            <Time>2022-07-09T10:21:20.000Z</Time>
            <Position>
              <LatitudeDegrees>42.79510281980037689208984375</LatitudeDegrees>
              <LongitudeDegrees>-0.1417606137692928314208984375</LongitudeDegrees>
            </Position>
            <AltitudeMeters>2097.39990234375</AltitudeMeters>
            <DistanceMeters>10264.928380315</DistanceMeters>
          </Trackpoint>
          <Trackpoint>
            <Time>2022-07-09T10:21:22.000Z</Time>
            <Position>
              <LatitudeDegrees>42.795089073479175567626953125</LatitudeDegrees>
              <LongitudeDegrees>-0.141745693981647491455078125</LongitudeDegrees>
            </Position>
            <AltitudeMeters>2097.60009765625</AltitudeMeters>
            <DistanceMeters>10266.880479764</DistanceMeters>
          </Trackpoint>
          <Trackpoint>
            <Time>2022-07-09T10:21:25.000Z</Time>
            <Position>
              <LatitudeDegrees>42.79505076818168163299560546875</LatitudeDegrees>
              <LongitudeDegrees>-0.14172448776662349700927734375</LongitudeDegrees>
            </Position>
            <AltitudeMeters>2097.800048828125</AltitudeMeters>
            <DistanceMeters>10271.481186143</DistanceMeters>
          </Trackpoint>
          <Trackpoint>
            <Time>2022-07-09T10:21:26.000Z</Time>
            <Position>
              <LatitudeDegrees>42.7950417995452880859375</LatitudeDegrees>
              <LongitudeDegrees>-0.14172582887113094329833984375</LongitudeDegrees>
            </Position>
            <AltitudeMeters>2098</AltitudeMeters>
            <DistanceMeters>10272.482354702</DistanceMeters>
          </Trackpoint>
          <Trackpoint>
            <Time>2022-07-09T10:21:27.000Z</Time>
            <Position>
              <LatitudeDegrees>42.79503501020371913909912109375</LatitudeDegrees>
              <LongitudeDegrees>-0.14172934927046298980712890625</LongitudeDegrees>
            </Position>
            <AltitudeMeters>2098</AltitudeMeters>
            <DistanceMeters>10273.288683112</DistanceMeters>
          </Trackpoint>
          <Trackpoint>
            <Time>2022-07-09T10:21:28.000Z</Time>
            <Position>
              <LatitudeDegrees>42.7950298972427845001220703125</LatitudeDegrees>
              <LongitudeDegrees>-0.14173404313623905181884765625</LongitudeDegrees>
            </Position>
            <AltitudeMeters>2098</AltitudeMeters>
            <DistanceMeters>10273.980488035</DistanceMeters>
          </Trackpoint>
          <Trackpoint>
            <Time>2022-07-09T10:21:31.000Z</Time>
            <Position>
              <LatitudeDegrees>42.79501372016966342926025390625</LatitudeDegrees>
              <LongitudeDegrees>-0.1417582668364048004150390625</LongitudeDegrees>
            </Position>
            <AltitudeMeters>2098.199951171875</AltitudeMeters>
            <DistanceMeters>10276.656464608</DistanceMeters>
          </Trackpoint>
          <Trackpoint>
            <Time>2022-07-09T10:21:32.000Z</Time>
            <Position>
              <LatitudeDegrees>42.79500533826649188995361328125</LatitudeDegrees>
              <LongitudeDegrees>-0.1417602784931659698486328125</LongitudeDegrees>
            </Position>
            <AltitudeMeters>2098.39990234375</AltitudeMeters>
            <DistanceMeters>10277.606731752</DistanceMeters>
          </Trackpoint>
          <Trackpoint>
            <Time>2022-07-09T10:21:33.000Z</Time>
            <Position>
              <LatitudeDegrees>42.79499729163944721221923828125</LatitudeDegrees>
              <LongitudeDegrees>-0.1417629607021808624267578125</LongitudeDegrees>
            </Position>
            <AltitudeMeters>2098.60009765625</AltitudeMeters>
            <DistanceMeters>10278.52804993</DistanceMeters>
          </Trackpoint>
          <Trackpoint>
            <Time>2022-07-09T10:21:35.000Z</Time>
            <Position>
              <LatitudeDegrees>42.79498086310923099517822265625</LatitudeDegrees>
              <LongitudeDegrees>-0.14176924712955951690673828125</LongitudeDegrees>
            </Position>
            <AltitudeMeters>2099.199951171875</AltitudeMeters>
            <DistanceMeters>10280.428584218</DistanceMeters>
          </Trackpoint>
          <Trackpoint>
            <Time>2022-07-09T10:21:37.000Z</Time>
            <Position>
              <LatitudeDegrees>42.79495856724679470062255859375</LatitudeDegrees>
              <LongitudeDegrees>-0.1417716778814792633056640625</LongitudeDegrees>
            </Position>
            <AltitudeMeters>2099.39990234375</AltitudeMeters>
            <DistanceMeters>10282.917486072</DistanceMeters>
          </Trackpoint>
          <Trackpoint>
            <Time>2022-07-09T10:21:39.000Z</Time>
            <Position>
              <LatitudeDegrees>42.7949385344982147216796875</LatitudeDegrees>
              <LongitudeDegrees>-0.141773857176303863525390625</LongitudeDegrees>
            </Position>
            <AltitudeMeters>2099.800048828125</AltitudeMeters>
            <DistanceMeters>10285.15414929</DistanceMeters>
          </Trackpoint>
          <Trackpoint>
            <Time>2022-07-09T10:21:42.000Z</Time>
            <Position>
              <LatitudeDegrees>42.79490207321941852569580078125</LatitudeDegrees>
              <LongitudeDegrees>-0.1417837478220462799072265625</LongitudeDegrees>
            </Position>
            <AltitudeMeters>2100.39990234375</AltitudeMeters>
            <DistanceMeters>10289.290813992</DistanceMeters>
          </Trackpoint>
          <Trackpoint>
            <Time>2022-07-09T10:21:44.000Z</Time>
            <Position>
              <LatitudeDegrees>42.79488195665180683135986328125</LatitudeDegrees>
              <LongitudeDegrees>-0.14179590158164501190185546875</LongitudeDegrees>
            </Position>
            <AltitudeMeters>2100.800048828125</AltitudeMeters>
            <DistanceMeters>10291.739481131</DistanceMeters>
          </Trackpoint>
          <Trackpoint>
            <Time>2022-07-09T10:21:45.000Z</Time>
            <Position>
              <LatitudeDegrees>42.7948676235973834991455078125</LatitudeDegrees>
              <LongitudeDegrees>-0.14180579222738742828369140625</LongitudeDegrees>
            </Position>
            <AltitudeMeters>2100.800048828125</AltitudeMeters>
            <DistanceMeters>10293.527398093</DistanceMeters>
          </Trackpoint>
          <Trackpoint>
            <Time>2022-07-09T10:21:51.000Z</Time>
            <Position>
              <LatitudeDegrees>42.794800736010074615478515625</LatitudeDegrees>
              <LongitudeDegrees>-0.1418682374060153961181640625</LongitudeDegrees>
            </Position>
            <AltitudeMeters>2101.39990234375</AltitudeMeters>
            <DistanceMeters>10302.551434295</DistanceMeters>
          </Trackpoint>
          <Trackpoint>
            <Time>2022-07-09T10:21:52.000Z</Time>
            <Position>
              <LatitudeDegrees>42.7947965450584888458251953125</LatitudeDegrees>
              <LongitudeDegrees>-0.1418772898614406585693359375</LongitudeDegrees>
            </Position>
            <AltitudeMeters>2101.39990234375</AltitudeMeters>
            <DistanceMeters>10303.422368518</DistanceMeters>
          </Trackpoint>
          <Trackpoint>
            <Time>2022-07-09T10:21:53.000Z</Time>
            <Position>
              <LatitudeDegrees>42.79479009099304676055908203125</LatitudeDegrees>
              <LongitudeDegrees>-0.14188776724040508270263671875</LongitudeDegrees>
            </Position>
            <AltitudeMeters>2101.60009765625</AltitudeMeters>
            <DistanceMeters>10304.538679653</DistanceMeters>
          </Trackpoint>
          <Trackpoint>
            <Time>2022-07-09T10:21:58.000Z</Time>
            <Position>
              <LatitudeDegrees>42.79478556476533412933349609375</LatitudeDegrees>
              <LongitudeDegrees>-0.14193336479365825653076171875</LongitudeDegrees>
            </Position>
            <AltitudeMeters>2102</AltitudeMeters>
            <DistanceMeters>10308.296742925</DistanceMeters>
          </Trackpoint>
          <Trackpoint>
            <Time>2022-07-09T10:22:04.000Z</Time>
            <Position>
              <LatitudeDegrees>42.79479696415364742279052734375</LatitudeDegrees>
              <LongitudeDegrees>-0.14195582829415798187255859375</LongitudeDegrees>
            </Position>
            <AltitudeMeters>2102.39990234375</AltitudeMeters>
            <DistanceMeters>10310.529365194</DistanceMeters>
          </Trackpoint>
          <Trackpoint>
            <Time>2022-07-09T10:22:05.000Z</Time>
            <Position>
              <LatitudeDegrees>42.79479838907718658447265625</LatitudeDegrees>
              <LongitudeDegrees>-0.14195566065609455108642578125</LongitudeDegrees>
            </Position>
            <AltitudeMeters>2102.60009765625</AltitudeMeters>
            <DistanceMeters>10310.663753262</DistanceMeters>
          </Trackpoint>
          <Trackpoint>
            <Time>2022-07-09T10:22:06.000Z</Time>
            <Position>
              <LatitudeDegrees>42.79479168355464935302734375</LatitudeDegrees>
              <LongitudeDegrees>-0.14195951633155345916748046875</LongitudeDegrees>
            </Position>
            <AltitudeMeters>2102.800048828125</AltitudeMeters>
            <DistanceMeters>10311.470081672</DistanceMeters>
          </Trackpoint>
          <Trackpoint>
            <Time>2022-07-09T10:22:07.000Z</Time>
            <Position>
              <LatitudeDegrees>42.79478522948920726776123046875</LatitudeDegrees>
              <LongitudeDegrees>-0.1419621147215366363525390625</LongitudeDegrees>
            </Position>
            <AltitudeMeters>2102.800048828125</AltitudeMeters>
            <DistanceMeters>10312.224332834</DistanceMeters>
          </Trackpoint>
          <Trackpoint>
            <Time>2022-07-09T10:22:11.000Z</Time>
            <Position>
              <LatitudeDegrees>42.794776260852813720703125</LatitudeDegrees>
              <LongitudeDegrees>-0.14196605421602725982666015625</LongitudeDegrees>
            </Position>
            <AltitudeMeters>2103.39990234375</AltitudeMeters>
            <DistanceMeters>10313.273937201</DistanceMeters>
          </Trackpoint>
          <Trackpoint>
            <Time>2022-07-09T10:22:12.000Z</Time>
            <Position>
              <LatitudeDegrees>42.7947717346251010894775390625</LatitudeDegrees>
              <LongitudeDegrees>-0.14197141863405704498291015625</LongitudeDegrees>
            </Position>
            <AltitudeMeters>2103.60009765625</AltitudeMeters>
            <DistanceMeters>10313.93230159</DistanceMeters>
          </Trackpoint>
          <Trackpoint>
            <Time>2022-07-09T10:22:13.000Z</Time>
            <Position>
              <LatitudeDegrees>42.7947673760354518890380859375</LatitudeDegrees>
              <LongitudeDegrees>-0.14197560958564281463623046875</LongitudeDegrees>
            </Position>
            <AltitudeMeters>2103.60009765625</AltitudeMeters>
            <DistanceMeters>10314.533303302</DistanceMeters>
          </Trackpoint>
          <Trackpoint>
            <Time>2022-07-09T10:22:16.000Z</Time>
            <Position>
              <LatitudeDegrees>42.79474474489688873291015625</LatitudeDegrees>
              <LongitudeDegrees>-0.1419949717819690704345703125</LongitudeDegrees>
            </Position>
            <AltitudeMeters>2103.60009765625</AltitudeMeters>
            <DistanceMeters>10317.508110004</DistanceMeters>
          </Trackpoint>
          <Trackpoint>
            <Time>2022-07-09T10:22:17.000Z</Time>
            <Position>
              <LatitudeDegrees>42.79473577626049518585205078125</LatitudeDegrees>
              <LongitudeDegrees>-0.142002515494823455810546875</LongitudeDegrees>
            </Position>
            <AltitudeMeters>2103.60009765625</AltitudeMeters>
            <DistanceMeters>10318.679678022</DistanceMeters>
          </Trackpoint>
          <Trackpoint>
            <Time>2022-07-09T10:22:23.000Z</Time>
            <Position>
              <LatitudeDegrees>42.79469378292560577392578125</LatitudeDegrees>
              <LongitudeDegrees>-0.1420167647302150726318359375</LongitudeDegrees>
            </Position>
            <AltitudeMeters>2104.39990234375</AltitudeMeters>
            <DistanceMeters>10323.497073216</DistanceMeters>
          </Trackpoint>
          <Trackpoint>
            <Time>2022-07-09T10:22:25.000Z</Time>
            <Position>
              <LatitudeDegrees>42.7946734987199306488037109375</LatitudeDegrees>
              <LongitudeDegrees>-0.142025649547576904296875</LongitudeDegrees>
            </Position>
            <AltitudeMeters>2104.60009765625</AltitudeMeters>
            <DistanceMeters>10325.867032614</DistanceMeters>
          </Trackpoint>
          <Trackpoint>
            <Time>2022-07-09T10:22:29.000Z</Time>
            <Position>
              <LatitudeDegrees>42.7946493588387966156005859375</LatitudeDegrees>
              <LongitudeDegrees>-0.1420082151889801025390625</LongitudeDegrees>
            </Position>
            <AltitudeMeters>2104.800048828125</AltitudeMeters>
            <DistanceMeters>10328.909371904</DistanceMeters>
          </Trackpoint>
          <Trackpoint>
            <Time>2022-07-09T10:22:34.000Z</Time>
            <Position>
              <LatitudeDegrees>42.79464122839272022247314453125</LatitudeDegrees>
              <LongitudeDegrees>-0.1419926248490810394287109375</LongitudeDegrees>
            </Position>
            <AltitudeMeters>2105.60009765625</AltitudeMeters>
            <DistanceMeters>10330.470820155</DistanceMeters>
          </Trackpoint>
          <Trackpoint>
            <Time>2022-07-09T10:22:36.000Z</Time>
            <Position>
              <LatitudeDegrees>42.79461993835866451263427734375</LatitudeDegrees>
              <LongitudeDegrees>-0.14200729317963123321533203125</LongitudeDegrees>
            </Position>
            <AltitudeMeters>2105.60009765625</AltitudeMeters>
            <DistanceMeters>10333.126472561</DistanceMeters>
          </Trackpoint>
          <Trackpoint>
            <Time>2022-07-09T10:22:41.000Z</Time>
            <Position>
              <LatitudeDegrees>42.79456009157001972198486328125</LatitudeDegrees>
              <LongitudeDegrees>-0.1420070417225360870361328125</LongitudeDegrees>
            </Position>
            <AltitudeMeters>2106.39990234375</AltitudeMeters>
            <DistanceMeters>10339.787838461</DistanceMeters>
          </Trackpoint>
          <Trackpoint>
            <Time>2022-07-09T10:22:44.000Z</Time>
            <Position>
              <LatitudeDegrees>42.79452254064381122589111328125</LatitudeDegrees>
              <LongitudeDegrees>-0.14201416634023189544677734375</LongitudeDegrees>
            </Position>
            <AltitudeMeters>2106.60009765625</AltitudeMeters>
            <DistanceMeters>10344.0077094</DistanceMeters>
          </Trackpoint>
          <Trackpoint>
            <Time>2022-07-09T10:22:47.000Z</Time>
            <Position>
              <LatitudeDegrees>42.79449538327753543853759765625</LatitudeDegrees>
              <LongitudeDegrees>-0.14202539809048175811767578125</LongitudeDegrees>
            </Position>
            <AltitudeMeters>2107.199951171875</AltitudeMeters>
            <DistanceMeters>10347.166543754</DistanceMeters>
          </Trackpoint>
          <Trackpoint>
            <Time>2022-07-09T10:22:50.000Z</Time>
            <Position>
              <LatitudeDegrees>42.79447744600474834442138671875</LatitudeDegrees>
              <LongitudeDegrees>-0.142035372555255889892578125</LongitudeDegrees>
            </Position>
            <AltitudeMeters>2107.800048828125</AltitudeMeters>
            <DistanceMeters>10349.320948379</DistanceMeters>
          </Trackpoint>
          <Trackpoint>
            <Time>2022-07-09T10:22:52.000Z</Time>
            <Position>
              <LatitudeDegrees>42.79448582790791988372802734375</LatitudeDegrees>
              <LongitudeDegrees>-0.1420435868203639984130859375</LongitudeDegrees>
            </Position>
            <AltitudeMeters>2108.39990234375</AltitudeMeters>
            <DistanceMeters>10350.469160538</DistanceMeters>
          </Trackpoint>
          <Trackpoint>
            <Time>2022-07-09T10:22:53.000Z</Time>
            <Position>
              <LatitudeDegrees>42.7944958023726940155029296875</LatitudeDegrees>
              <LongitudeDegrees>-0.142049454152584075927734375</LongitudeDegrees>
            </Position>
            <AltitudeMeters>2108.60009765625</AltitudeMeters>
            <DistanceMeters>10351.678653152</DistanceMeters>
          </Trackpoint>
          <Trackpoint>
            <Time>2022-07-09T10:22:55.000Z</Time>
            <Position>
              <LatitudeDegrees>42.794513739645481109619140625</LatitudeDegrees>
              <LongitudeDegrees>-0.1420452632009983062744140625</LongitudeDegrees>
            </Position>
            <AltitudeMeters>2109.199951171875</AltitudeMeters>
            <DistanceMeters>10353.703413559</DistanceMeters>
          </Trackpoint>
          <Trackpoint>
            <Time>2022-07-09T10:22:56.000Z</Time>
            <Position>
              <LatitudeDegrees>42.79451583512127399444580078125</LatitudeDegrees>
              <LongitudeDegrees>-0.14204484410583972930908203125</LongitudeDegrees>
            </Position>
            <AltitudeMeters>2109.60009765625</AltitudeMeters>
            <DistanceMeters>10353.936180521</DistanceMeters>
          </Trackpoint>
          <Trackpoint>
            <Time>2022-07-09T10:22:59.000Z</Time>
            <Position>
              <LatitudeDegrees>42.794524468481540679931640625</LatitudeDegrees>
              <LongitudeDegrees>-0.14205758459866046905517578125</LongitudeDegrees>
            </Position>
            <AltitudeMeters>2110</AltitudeMeters>
            <DistanceMeters>10355.352046677</DistanceMeters>
          </Trackpoint>
          <Trackpoint>
            <Time>2022-07-09T10:23:02.000Z</Time>
            <Position>
              <LatitudeDegrees>42.79452438466250896453857421875</LatitudeDegrees>
              <LongitudeDegrees>-0.14207300730049610137939453125</LongitudeDegrees>
            </Position>
            <AltitudeMeters>2109.800048828125</AltitudeMeters>
            <DistanceMeters>10356.609131947</DistanceMeters>
          </Trackpoint>
          <Trackpoint>
            <Time>2022-07-09T10:23:06.000Z</Time>
            <Position>
              <LatitudeDegrees>42.79453662224113941192626953125</LatitudeDegrees>
              <LongitudeDegrees>-0.1421123184263706207275390625</LongitudeDegrees>
            </Position>
            <AltitudeMeters>2109.800048828125</AltitudeMeters>
            <DistanceMeters>10360.098049121</DistanceMeters>
          </Trackpoint>
          <Trackpoint>
            <Time>2022-07-09T10:23:11.000Z</Time>
            <Position>
              <LatitudeDegrees>42.79454626142978668212890625</LatitudeDegrees>
              <LongitudeDegrees>-0.14215867035090923309326171875</LongitudeDegrees>
            </Position>
            <AltitudeMeters>2110.39990234375</AltitudeMeters>
            <DistanceMeters>10364.032201003</DistanceMeters>
          </Trackpoint>
          <Trackpoint>
            <Time>2022-07-09T10:23:13.000Z</Time>
            <Position>
              <LatitudeDegrees>42.79455137439072132110595703125</LatitudeDegrees>
              <LongitudeDegrees>-0.14216990210115909576416015625</LongitudeDegrees>
            </Position>
            <AltitudeMeters>2111.39990234375</AltitudeMeters>
            <DistanceMeters>10365.111497005</DistanceMeters>
          </Trackpoint>
          <Trackpoint>
            <Time>2022-07-09T10:23:17.000Z</Time>
            <Position>
              <LatitudeDegrees>42.79457417316734790802001953125</LatitudeDegrees>
              <LongitudeDegrees>-0.14219387434422969818115234375</LongitudeDegrees>
            </Position>
            <AltitudeMeters>2112.39990234375</AltitudeMeters>
            <DistanceMeters>10368.317152475</DistanceMeters>
          </Trackpoint>
          <Trackpoint>
            <Time>2022-07-09T10:23:18.000Z</Time>
            <Position>
              <LatitudeDegrees>42.7945802919566631317138671875</LatitudeDegrees>
              <LongitudeDegrees>-0.14220745302736759185791015625</LongitudeDegrees>
            </Position>
            <AltitudeMeters>2112.39990234375</AltitudeMeters>
            <DistanceMeters>10369.620093138</DistanceMeters>
          </Trackpoint>
          <Trackpoint>
            <Time>2022-07-09T10:23:20.000Z</Time>
            <Position>
              <LatitudeDegrees>42.7945812977850437164306640625</LatitudeDegrees>
              <LongitudeDegrees>-0.142224133014678955078125</LongitudeDegrees>
            </Position>
            <AltitudeMeters>2112.60009765625</AltitudeMeters>
            <DistanceMeters>10370.987289475</DistanceMeters>
          </Trackpoint>
          <Trackpoint>
            <Time>2022-07-09T10:23:24.000Z</Time>
            <Position>
              <LatitudeDegrees>42.7945709042251110076904296875</LatitudeDegrees>
              <LongitudeDegrees>-0.14226143248379230499267578125</LongitudeDegrees>
            </Position>
            <AltitudeMeters>2113</AltitudeMeters>
            <DistanceMeters>10374.246026945</DistanceMeters>
          </Trackpoint>
          <Trackpoint>
            <Time>2022-07-09T10:23:27.000Z</Time>
            <Position>
              <LatitudeDegrees>42.79455288313329219818115234375</LatitudeDegrees>
              <LongitudeDegrees>-0.14228205196559429168701171875</LongitudeDegrees>
            </Position>
            <AltitudeMeters>2113.199951171875</AltitudeMeters>
            <DistanceMeters>10376.864008615</DistanceMeters>
          </Trackpoint>
          <Trackpoint>
            <Time>2022-07-09T10:23:28.000Z</Time>
            <Position>
              <LatitudeDegrees>42.79454668052494525909423828125</LatitudeDegrees>
              <LongitudeDegrees>-0.14228171668946743011474609375</LongitudeDegrees>
            </Position>
            <AltitudeMeters>2113.199951171875</AltitudeMeters>
            <DistanceMeters>10377.549255997</DistanceMeters>
          </Trackpoint>
          <Trackpoint>
            <Time>2022-07-09T10:23:29.000Z</Time>
            <Position>
              <LatitudeDegrees>42.7945363707840442657470703125</LatitudeDegrees>
              <LongitudeDegrees>-0.14227735809981822967529296875</LongitudeDegrees>
            </Position>
            <AltitudeMeters>2113.60009765625</AltitudeMeters>
            <DistanceMeters>10378.747497273</DistanceMeters>
          </Trackpoint>
          <Trackpoint>
            <Time>2022-07-09T10:23:33.000Z</Time>
            <Position>
              <LatitudeDegrees>42.794508039951324462890625</LatitudeDegrees>
              <LongitudeDegrees>-0.1422792859375476837158203125</LongitudeDegrees>
            </Position>
            <AltitudeMeters>2114.60009765625</AltitudeMeters>
            <DistanceMeters>10381.904901966</DistanceMeters>
          </Trackpoint>
          <Trackpoint>
            <Time>2022-07-09T10:23:34.000Z</Time>
            <Position>
              <LatitudeDegrees>42.794503681361675262451171875</LatitudeDegrees>
              <LongitudeDegrees>-0.1422812975943088531494140625</LongitudeDegrees>
            </Position>
            <AltitudeMeters>2114.800048828125</AltitudeMeters>
            <DistanceMeters>10382.416636484</DistanceMeters>
          </Trackpoint>
          <Trackpoint>
            <Time>2022-07-09T10:23:38.000Z</Time>
            <Position>
              <LatitudeDegrees>42.79448465444147586822509765625</LatitudeDegrees>
              <LongitudeDegrees>-0.14227978885173797607421875</LongitudeDegrees>
            </Position>
            <AltitudeMeters>2115.39990234375</AltitudeMeters>
            <DistanceMeters>10384.537244432</DistanceMeters>
          </Trackpoint>
          <Trackpoint>
            <Time>2022-07-09T10:23:41.000Z</Time>
            <Position>
              <LatitudeDegrees>42.79448130168020725250244140625</LatitudeDegrees>
              <LongitudeDegrees>-0.14228590764105319976806640625</LongitudeDegrees>
            </Position>
            <AltitudeMeters>2115.60009765625</AltitudeMeters>
            <DistanceMeters>10385.160376269</DistanceMeters>
          </Trackpoint>
          <Trackpoint>
            <Time>2022-07-09T10:23:47.000Z</Time>
            <Position>
              <LatitudeDegrees>42.79450292699038982391357421875</LatitudeDegrees>
              <LongitudeDegrees>-0.14229990541934967041015625</LongitudeDegrees>
            </Position>
            <AltitudeMeters>2116.60009765625</AltitudeMeters>
            <DistanceMeters>10387.826210128</DistanceMeters>
          </Trackpoint>
          <Trackpoint>
            <Time>2022-07-09T10:23:48.000Z</Time>
            <Position>
              <LatitudeDegrees>42.79450745321810245513916015625</LatitudeDegrees>
              <LongitudeDegrees>-0.14230116270482540130615234375</LongitudeDegrees>
            </Position>
            <AltitudeMeters>2117</AltitudeMeters>
            <DistanceMeters>10388.329044236</DistanceMeters>
          </Trackpoint>
          <Trackpoint>
            <Time>2022-07-09T10:23:54.000Z</Time>
            <Position>
              <LatitudeDegrees>42.79456411488354206085205078125</LatitudeDegrees>
              <LongitudeDegrees>-0.1422997377812862396240234375</LongitudeDegrees>
            </Position>
            <AltitudeMeters>2117.60009765625</AltitudeMeters>
            <DistanceMeters>10394.636699649</DistanceMeters>
          </Trackpoint>
          <Trackpoint>
            <Time>2022-07-09T10:23:56.000Z</Time>
            <Position>
              <LatitudeDegrees>42.79459093697369098663330078125</LatitudeDegrees>
              <LongitudeDegrees>-0.1422970555722713470458984375</LongitudeDegrees>
            </Position>
            <AltitudeMeters>2117.800048828125</AltitudeMeters>
            <DistanceMeters>10397.629664038</DistanceMeters>
          </Trackpoint>
          <Trackpoint>
            <Time>2022-07-09T10:24:00.000Z</Time>
            <Position>
              <LatitudeDegrees>42.79464340768754482269287109375</LatitudeDegrees>
              <LongitudeDegrees>-0.1422737538814544677734375</LongitudeDegrees>
            </Position>
            <AltitudeMeters>2117.60009765625</AltitudeMeters>
            <DistanceMeters>10403.771948579</DistanceMeters>
          </Trackpoint>
          <Trackpoint>
            <Time>2022-07-09T10:24:06.000Z</Time>
            <Position>
              <LatitudeDegrees>42.79469780623912811279296875</LatitudeDegrees>
              <LongitudeDegrees>-0.1422388851642608642578125</LongitudeDegrees>
            </Position>
            <AltitudeMeters>2118.60009765625</AltitudeMeters>
            <DistanceMeters>10410.463070982</DistanceMeters>
          </Trackpoint>
          <Trackpoint>
            <Time>2022-07-09T10:24:07.000Z</Time>
            <Position>
              <LatitudeDegrees>42.79470317065715789794921875</LatitudeDegrees>
              <LongitudeDegrees>-0.1422283239662647247314453125</LongitudeDegrees>
            </Position>
            <AltitudeMeters>2119</AltitudeMeters>
            <DistanceMeters>10411.512675348</DistanceMeters>
          </Trackpoint>
          <Trackpoint>
            <Time>2022-07-09T10:24:08.000Z</Time>
            <Position>
              <LatitudeDegrees>42.7947060205042362213134765625</LatitudeDegrees>
              <LongitudeDegrees>-0.14222086407244205474853515625</LongitudeDegrees>
            </Position>
            <AltitudeMeters>2119.39990234375</AltitudeMeters>
            <DistanceMeters>10412.197922731</DistanceMeters>
          </Trackpoint>
          <Trackpoint>
            <Time>2022-07-09T10:24:10.000Z</Time>
            <Position>
              <LatitudeDegrees>42.7947132289409637451171875</LatitudeDegrees>
              <LongitudeDegrees>-0.14221751131117343902587890625</LongitudeDegrees>
            </Position>
            <AltitudeMeters>2120</AltitudeMeters>
            <DistanceMeters>10413.042538643</DistanceMeters>
          </Trackpoint>
          <Trackpoint>
            <Time>2022-07-09T10:24:11.000Z</Time>
            <Position>
              <LatitudeDegrees>42.794718928635120391845703125</LatitudeDegrees>
              <LongitudeDegrees>-0.14221566729247570037841796875</LongitudeDegrees>
            </Position>
            <AltitudeMeters>2120.39990234375</AltitudeMeters>
            <DistanceMeters>10413.700903032</DistanceMeters>
          </Trackpoint>
          <Trackpoint>
            <Time>2022-07-09T10:24:13.000Z</Time>
            <Position>
              <LatitudeDegrees>42.7947321720421314239501953125</LatitudeDegrees>
              <LongitudeDegrees>-0.14221533201634883880615234375</LongitudeDegrees>
            </Position>
            <AltitudeMeters>2121</AltitudeMeters>
            <DistanceMeters>10415.173050561</DistanceMeters>
          </Trackpoint>
          <Trackpoint>
            <Time>2022-07-09T10:24:15.000Z</Time>
            <Position>
              <LatitudeDegrees>42.7947475947439670562744140625</LatitudeDegrees>
              <LongitudeDegrees>-0.142215751111507415771484375</LongitudeDegrees>
            </Position>
            <AltitudeMeters>2121.39990234375</AltitudeMeters>
            <DistanceMeters>10416.88880256</DistanceMeters>
          </Trackpoint>
          <Trackpoint>
            <Time>2022-07-09T10:24:20.000Z</Time>
            <Position>
              <LatitudeDegrees>42.7947965450584888458251953125</LatitudeDegrees>
              <LongitudeDegrees>-0.14219974167644977569580078125</LongitudeDegrees>
            </Position>
            <AltitudeMeters>2121.60009765625</AltitudeMeters>
            <DistanceMeters>10422.492156537</DistanceMeters>
          </Trackpoint>
          <Trackpoint>
            <Time>2022-07-09T10:24:22.000Z</Time>
            <Position>
              <LatitudeDegrees>42.794812805950641632080078125</LatitudeDegrees>
              <LongitudeDegrees>-0.142186917364597320556640625</LongitudeDegrees>
            </Position>
            <AltitudeMeters>2121.800048828125</AltitudeMeters>
            <DistanceMeters>10424.584902837</DistanceMeters>
          </Trackpoint>
          <Trackpoint>
            <Time>2022-07-09T10:24:23.000Z</Time>
            <Position>
              <LatitudeDegrees>42.79481674544513225555419921875</LatitudeDegrees>
              <LongitudeDegrees>-0.14218482188880443572998046875</LongitudeDegrees>
            </Position>
            <AltitudeMeters>2121.800048828125</AltitudeMeters>
            <DistanceMeters>10425.050436761</DistanceMeters>
          </Trackpoint>
          <Trackpoint>
            <Time>2022-07-09T10:24:28.000Z</Time>
            <Position>
              <LatitudeDegrees>42.79483870603144168853759765625</LatitudeDegrees>
              <LongitudeDegrees>-0.14217660762369632720947265625</LongitudeDegrees>
            </Position>
            <AltitudeMeters>2122.39990234375</AltitudeMeters>
            <DistanceMeters>10427.586065762</DistanceMeters>
          </Trackpoint>
          <Trackpoint>
            <Time>2022-07-09T10:24:34.000Z</Time>
            <Position>
              <LatitudeDegrees>42.79485982842743396759033203125</LatitudeDegrees>
              <LongitudeDegrees>-0.14216856099665164947509765625</LongitudeDegrees>
            </Position>
            <AltitudeMeters>2123.60009765625</AltitudeMeters>
            <DistanceMeters>10430.027346256</DistanceMeters>
          </Trackpoint>
          <Trackpoint>
            <Time>2022-07-09T10:24:35.000Z</Time>
            <Position>
              <LatitudeDegrees>42.79486485756933689117431640625</LatitudeDegrees>
              <LongitudeDegrees>-0.142158754169940948486328125</LongitudeDegrees>
            </Position>
            <AltitudeMeters>2124</AltitudeMeters>
            <DistanceMeters>10431.005706161</DistanceMeters>
          </Trackpoint>
          <Trackpoint>
            <Time>2022-07-09T10:24:40.000Z</Time>
            <Position>
              <LatitudeDegrees>42.79489084146916866302490234375</LatitudeDegrees>
              <LongitudeDegrees>-0.14214710332453250885009765625</LongitudeDegrees>
            </Position>
            <AltitudeMeters>2124.199951171875</AltitudeMeters>
            <DistanceMeters>10434.049529157</DistanceMeters>
          </Trackpoint>
          <Trackpoint>
            <Time>2022-07-09T10:24:41.000Z</Time>
            <Position>
              <LatitudeDegrees>42.79489872045814990997314453125</LatitudeDegrees>
              <LongitudeDegrees>-0.14214978553354740142822265625</LongitudeDegrees>
            </Position>
            <AltitudeMeters>2124.199951171875</AltitudeMeters>
            <DistanceMeters>10434.951031725</DistanceMeters>
          </Trackpoint>
          <Trackpoint>
            <Time>2022-07-09T10:24:44.000Z</Time>
            <Position>
              <LatitudeDegrees>42.7949128858745098114013671875</LatitudeDegrees>
              <LongitudeDegrees>-0.1421689800918102264404296875</LongitudeDegrees>
            </Position>
            <AltitudeMeters>2124.39990234375</AltitudeMeters>
            <DistanceMeters>10437.175550075</DistanceMeters>
          </Trackpoint>
          <Trackpoint>
            <Time>2022-07-09T10:24:45.000Z</Time>
            <Position>
              <LatitudeDegrees>42.79490877874195575714111328125</LatitudeDegrees>
              <LongitudeDegrees>-0.14218054711818695068359375</LongitudeDegrees>
            </Position>
            <AltitudeMeters>2124.60009765625</AltitudeMeters>
            <DistanceMeters>10438.225154442</DistanceMeters>
          </Trackpoint>
          <Trackpoint>
            <Time>2022-07-09T10:24:46.000Z</Time>
            <Position>
              <LatitudeDegrees>42.794899307191371917724609375</LatitudeDegrees>
              <LongitudeDegrees>-0.1421941258013248443603515625</LongitudeDegrees>
            </Position>
            <AltitudeMeters>2124.60009765625</AltitudeMeters>
            <DistanceMeters>10439.75741417</DistanceMeters>
          </Trackpoint>
          <Trackpoint>
            <Time>2022-07-09T10:24:52.000Z</Time>
            <Position>
              <LatitudeDegrees>42.79479864053428173065185546875</LatitudeDegrees>
              <LongitudeDegrees>-0.1422598399221897125244140625</LongitudeDegrees>
            </Position>
            <AltitudeMeters>2124.39990234375</AltitudeMeters>
            <DistanceMeters>10452.180862427</DistanceMeters>
          </Trackpoint>
          <Trackpoint>
            <Time>2022-07-09T10:24:53.000Z</Time>
            <Position>
              <LatitudeDegrees>42.79480048455297946929931640625</LatitudeDegrees>
              <LongitudeDegrees>-0.14226344414055347442626953125</LongitudeDegrees>
            </Position>
            <AltitudeMeters>2124.39990234375</AltitudeMeters>
            <DistanceMeters>10452.536419834</DistanceMeters>
          </Trackpoint>
          <Trackpoint>
            <Time>2022-07-09T10:24:59.000Z</Time>
            <Position>
              <LatitudeDegrees>42.79479713179171085357666015625</LatitudeDegrees>
              <LongitudeDegrees>-0.14227048493921756744384765625</LongitudeDegrees>
            </Position>
            <AltitudeMeters>2123.800048828125</AltitudeMeters>
            <DistanceMeters>10453.221667217</DistanceMeters>
          </Trackpoint>
          <Trackpoint>
            <Time>2022-07-09T10:25:04.000Z</Time>
            <Position>
              <LatitudeDegrees>42.7947603352367877960205078125</LatitudeDegrees>
              <LongitudeDegrees>-0.142325721681118011474609375</LongitudeDegrees>
            </Position>
            <AltitudeMeters>2123.60009765625</AltitudeMeters>
            <DistanceMeters>10459.315243698</DistanceMeters>
          </Trackpoint>
          <Trackpoint>
            <Time>2022-07-09T10:25:10.000Z</Time>
            <Position>
              <LatitudeDegrees>42.79476075433194637298583984375</LatitudeDegrees>
              <LongitudeDegrees>-0.14234441332519054412841796875</LongitudeDegrees>
            </Position>
            <AltitudeMeters>2123.800048828125</AltitudeMeters>
            <DistanceMeters>10460.841598743</DistanceMeters>
          </Trackpoint>
          <Trackpoint>
            <Time>2022-07-09T10:25:11.000Z</Time>
            <Position>
              <LatitudeDegrees>42.79476477764546871185302734375</LatitudeDegrees>
              <LongitudeDegrees>-0.1423476822674274444580078125</LongitudeDegrees>
            </Position>
            <AltitudeMeters>2124</AltitudeMeters>
            <DistanceMeters>10461.362081493</DistanceMeters>
          </Trackpoint>
          <Trackpoint>
            <Time>2022-07-09T10:25:16.000Z</Time>
            <Position>
              <LatitudeDegrees>42.79477827250957489013671875</LatitudeDegrees>
              <LongitudeDegrees>-0.14238682575523853302001953125</LongitudeDegrees>
            </Position>
            <AltitudeMeters>2124.60009765625</AltitudeMeters>
            <DistanceMeters>10464.894724363</DistanceMeters>
          </Trackpoint>
          <Trackpoint>
            <Time>2022-07-09T10:25:17.000Z</Time>
            <Position>
              <LatitudeDegrees>42.7947856485843658447265625</LatitudeDegrees>
              <LongitudeDegrees>-0.142395794391632080078125</LongitudeDegrees>
            </Position>
            <AltitudeMeters>2124.800048828125</AltitudeMeters>
            <DistanceMeters>10465.99473811</DistanceMeters>
          </Trackpoint>
          <Trackpoint>
            <Time>2022-07-09T10:25:19.000Z</Time>
            <Position>
              <LatitudeDegrees>42.79480551369488239288330078125</LatitudeDegrees>
              <LongitudeDegrees>-0.14240124262869358062744140625</LongitudeDegrees>
            </Position>
            <AltitudeMeters>2125.199951171875</AltitudeMeters>
            <DistanceMeters>10468.251497538</DistanceMeters>
          </Trackpoint>
          <Trackpoint>
            <Time>2022-07-09T10:25:21.000Z</Time>
            <Position>
              <LatitudeDegrees>42.79482110403478145599365234375</LatitudeDegrees>
              <LongitudeDegrees>-0.14240719377994537353515625</LongitudeDegrees>
            </Position>
            <AltitudeMeters>2125.60009765625</AltitudeMeters>
            <DistanceMeters>10470.057005111</DistanceMeters>
          </Trackpoint>
          <Trackpoint>
            <Time>2022-07-09T10:25:23.000Z</Time>
            <Position>
              <LatitudeDegrees>42.79483325779438018798828125</LatitudeDegrees>
              <LongitudeDegrees>-0.14241524040699005126953125</LongitudeDegrees>
            </Position>
            <AltitudeMeters>2125.800048828125</AltitudeMeters>
            <DistanceMeters>10471.559509391</DistanceMeters>
          </Trackpoint>
          <Trackpoint>
            <Time>2022-07-09T10:25:27.000Z</Time>
            <Position>
              <LatitudeDegrees>42.79486938379704952239990234375</LatitudeDegrees>
              <LongitudeDegrees>-0.1424467563629150390625</LongitudeDegrees>
            </Position>
            <AltitudeMeters>2126.199951171875</AltitudeMeters>
            <DistanceMeters>10476.333597046</DistanceMeters>
          </Trackpoint>
          <Trackpoint>
            <Time>2022-07-09T10:25:31.000Z</Time>
            <Position>
              <LatitudeDegrees>42.7948937751352787017822265625</LatitudeDegrees>
              <LongitudeDegrees>-0.142484642565250396728515625</LongitudeDegrees>
            </Position>
            <AltitudeMeters>2127</AltitudeMeters>
            <DistanceMeters>10480.449471608</DistanceMeters>
          </Trackpoint>
          <Trackpoint>
            <Time>2022-07-09T10:25:34.000Z</Time>
            <Position>
              <LatitudeDegrees>42.7949145622551441192626953125</LatitudeDegrees>
              <LongitudeDegrees>-0.14249838888645172119140625</LongitudeDegrees>
            </Position>
            <AltitudeMeters>2127.199951171875</AltitudeMeters>
            <DistanceMeters>10483.020466738</DistanceMeters>
          </Trackpoint>
          <Trackpoint>
            <Time>2022-07-09T10:25:37.000Z</Time>
            <Position>
              <LatitudeDegrees>42.7949353493750095367431640625</LatitudeDegrees>
              <LongitudeDegrees>-0.1425240375101566314697265625</LongitudeDegrees>
            </Position>
            <AltitudeMeters>2127.60009765625</AltitudeMeters>
            <DistanceMeters>10486.140470329</DistanceMeters>
          </Trackpoint>
          <Trackpoint>
            <Time>2022-07-09T10:25:39.000Z</Time>
            <Position>
              <LatitudeDegrees>42.7949433960020542144775390625</LatitudeDegrees>
              <LongitudeDegrees>-0.14255044050514698028564453125</LongitudeDegrees>
            </Position>
            <AltitudeMeters>2128</AltitudeMeters>
            <DistanceMeters>10488.47588596</DistanceMeters>
          </Trackpoint>
          <Trackpoint>
            <Time>2022-07-09T10:25:40.000Z</Time>
            <Position>
              <LatitudeDegrees>42.7949454076588153839111328125</LatitudeDegrees>
              <LongitudeDegrees>-0.14256016351282596588134765625</LongitudeDegrees>
            </Position>
            <AltitudeMeters>2128</AltitudeMeters>
            <DistanceMeters>10489.30430965</DistanceMeters>
          </Trackpoint>
          <Trackpoint>
            <Time>2022-07-09T10:25:41.000Z</Time>
            <Position>
              <LatitudeDegrees>42.79494482092559337615966796875</LatitudeDegrees>
              <LongitudeDegrees>-0.142567455768585205078125</LongitudeDegrees>
            </Position>
            <AltitudeMeters>2128.199951171875</AltitudeMeters>
            <DistanceMeters>10489.897751291</DistanceMeters>
          </Trackpoint>
          <Trackpoint>
            <Time>2022-07-09T10:25:43.000Z</Time>
            <Position>
              <LatitudeDegrees>42.79494549147784709930419921875</LatitudeDegrees>
              <LongitudeDegrees>-0.1425755023956298828125</LongitudeDegrees>
            </Position>
            <AltitudeMeters>2128.199951171875</AltitudeMeters>
            <DistanceMeters>10490.562938292</DistanceMeters>
          </Trackpoint>
          <Trackpoint>
            <Time>2022-07-09T10:25:44.000Z</Time>
            <Position>
              <LatitudeDegrees>42.79494197107851505279541015625</LatitudeDegrees>
              <LongitudeDegrees>-0.14257407747209072113037109375</LongitudeDegrees>
            </Position>
            <AltitudeMeters>2128.60009765625</AltitudeMeters>
            <DistanceMeters>10490.966102496</DistanceMeters>
          </Trackpoint>
          <Trackpoint>
            <Time>2022-07-09T10:25:45.000Z</Time>
            <Position>
              <LatitudeDegrees>42.79493794776499271392822265625</LatitudeDegrees>
              <LongitudeDegrees>-0.1425755023956298828125</LongitudeDegrees>
            </Position>
            <AltitudeMeters>2129</AltitudeMeters>
            <DistanceMeters>10491.421834609</DistanceMeters>
          </Trackpoint>
          <Trackpoint>
            <Time>2022-07-09T10:25:46.000Z</Time>
            <Position>
              <LatitudeDegrees>42.794935517013072967529296875</LatitudeDegrees>
              <LongitudeDegrees>-0.14257525093853473663330078125</LongitudeDegrees>
            </Position>
            <AltitudeMeters>2129.199951171875</AltitudeMeters>
            <DistanceMeters>10491.690610745</DistanceMeters>
          </Trackpoint>
          <Trackpoint>
            <Time>2022-07-09T10:25:49.000Z</Time>
            <Position>
              <LatitudeDegrees>42.794914059340953826904296875</LatitudeDegrees>
              <LongitudeDegrees>-0.14257625676691532135009765625</LongitudeDegrees>
            </Position>
            <AltitudeMeters>2129.800048828125</AltitudeMeters>
            <DistanceMeters>10494.079545301</DistanceMeters>
          </Trackpoint>
          <Trackpoint>
            <Time>2022-07-09T10:25:51.000Z</Time>
            <Position>
              <LatitudeDegrees>42.79489536769688129425048828125</LatitudeDegrees>
              <LongitudeDegrees>-0.142569802701473236083984375</LongitudeDegrees>
            </Position>
            <AltitudeMeters>2130.199951171875</AltitudeMeters>
            <DistanceMeters>10496.227653553</DistanceMeters>
          </Trackpoint>
          <Trackpoint>
            <Time>2022-07-09T10:25:54.000Z</Time>
            <Position>
              <LatitudeDegrees>42.7948646061122417449951171875</LatitudeDegrees>
              <LongitudeDegrees>-0.1425421424210071563720703125</LongitudeDegrees>
            </Position>
            <AltitudeMeters>2130.800048828125</AltitudeMeters>
            <DistanceMeters>10500.330343219</DistanceMeters>
          </Trackpoint>
          <Trackpoint>
            <Time>2022-07-09T10:25:56.000Z</Time>
            <Position>
              <LatitudeDegrees>42.794835269451141357421875</LatitudeDegrees>
              <LongitudeDegrees>-0.14253870584070682525634765625</LongitudeDegrees>
            </Position>
            <AltitudeMeters>2131</AltitudeMeters>
            <DistanceMeters>10503.608420547</DistanceMeters>
          </Trackpoint>
          <Trackpoint>
            <Time>2022-07-09T10:25:57.000Z</Time>
            <Position>
              <LatitudeDegrees>42.794820182025432586669921875</LatitudeDegrees>
              <LongitudeDegrees>-0.142541639506816864013671875</LongitudeDegrees>
            </Position>
            <AltitudeMeters>2131.199951171875</AltitudeMeters>
            <DistanceMeters>10505.30298961</DistanceMeters>
          </Trackpoint>
          <Trackpoint>
            <Time>2022-07-09T10:26:00.000Z</Time>
            <Position>
              <LatitudeDegrees>42.79480333440005779266357421875</LatitudeDegrees>
              <LongitudeDegrees>-0.14254993759095668792724609375</LongitudeDegrees>
            </Position>
            <AltitudeMeters>2131.39990234375</AltitudeMeters>
            <DistanceMeters>10507.298550612</DistanceMeters>
          </Trackpoint>
          <Trackpoint>
            <Time>2022-07-09T10:26:01.000Z</Time>
            <Position>
              <LatitudeDegrees>42.794801406562328338623046875</LatitudeDegrees>
              <LongitudeDegrees>-0.14255295507609844207763671875</LongitudeDegrees>
            </Position>
            <AltitudeMeters>2131.39990234375</AltitudeMeters>
            <DistanceMeters>10507.613718568</DistanceMeters>
          </Trackpoint>
          <Trackpoint>
            <Time>2022-07-09T10:26:07.000Z</Time>
            <Position>
              <LatitudeDegrees>42.79475270770490169525146484375</LatitudeDegrees>
              <LongitudeDegrees>-0.142576508224010467529296875</LongitudeDegrees>
            </Position>
            <AltitudeMeters>2132</AltitudeMeters>
            <DistanceMeters>10513.365779077</DistanceMeters>
          </Trackpoint>
          <Trackpoint>
            <Time>2022-07-09T10:26:08.000Z</Time>
            <Position>
              <LatitudeDegrees>42.79474474489688873291015625</LatitudeDegrees>
              <LongitudeDegrees>-0.14258556067943572998046875</LongitudeDegrees>
            </Position>
            <AltitudeMeters>2132.199951171875</AltitudeMeters>
            <DistanceMeters>10514.513991235</DistanceMeters>
          </Trackpoint>
          <Trackpoint>
            <Time>2022-07-09T10:26:10.000Z</Time>
            <Position>
              <LatitudeDegrees>42.794724963605403900146484375</LatitudeDegrees>
              <LongitudeDegrees>-0.1426115445792675018310546875</LongitudeDegrees>
            </Position>
            <AltitudeMeters>2132.39990234375</AltitudeMeters>
            <DistanceMeters>10517.572611708</DistanceMeters>
          </Trackpoint>
          <Trackpoint>
            <Time>2022-07-09T10:26:14.000Z</Time>
            <Position>
              <LatitudeDegrees>42.7946999855339527130126953125</LatitudeDegrees>
              <LongitudeDegrees>-0.14267885126173496246337890625</LongitudeDegrees>
            </Position>
            <AltitudeMeters>2133.39990234375</AltitudeMeters>
            <DistanceMeters>10523.73251278</DistanceMeters>
          </Trackpoint>
          <Trackpoint>
            <Time>2022-07-09T10:26:20.000Z</Time>
            <Position>
              <LatitudeDegrees>42.794647179543972015380859375</LatitudeDegrees>
              <LongitudeDegrees>-0.1426765881478786468505859375</LongitudeDegrees>
            </Position>
            <AltitudeMeters>2134.39990234375</AltitudeMeters>
            <DistanceMeters>10529.611894773</DistanceMeters>
          </Trackpoint>
          <Trackpoint>
            <Time>2022-07-09T10:26:26.000Z</Time>
            <Position>
              <LatitudeDegrees>42.7945980615913867950439453125</LatitudeDegrees>
              <LongitudeDegrees>-0.14265404082834720611572265625</LongitudeDegrees>
            </Position>
            <AltitudeMeters>2135</AltitudeMeters>
            <DistanceMeters>10535.379632772</DistanceMeters>
          </Trackpoint>
          <Trackpoint>
            <Time>2022-07-09T10:26:28.000Z</Time>
            <Position>
              <LatitudeDegrees>42.7945833094418048858642578125</LatitudeDegrees>
              <LongitudeDegrees>-0.14263694174587726593017578125</LongitudeDegrees>
            </Position>
            <AltitudeMeters>2135.199951171875</AltitudeMeters>
            <DistanceMeters>10537.534037398</DistanceMeters>
          </Trackpoint>
          <Trackpoint>
            <Time>2022-07-09T10:26:30.000Z</Time>
            <Position>
              <LatitudeDegrees>42.79456160031259059906005859375</LatitudeDegrees>
              <LongitudeDegrees>-0.14262570999562740325927734375</LongitudeDegrees>
            </Position>
            <AltitudeMeters>2135.39990234375</AltitudeMeters>
            <DistanceMeters>10540.119043504</DistanceMeters>
          </Trackpoint>
          <Trackpoint>
            <Time>2022-07-09T10:26:33.000Z</Time>
            <Position>
              <LatitudeDegrees>42.7945269830524921417236328125</LatitudeDegrees>
              <LongitudeDegrees>-0.1426363550126552581787109375</LongitudeDegrees>
            </Position>
            <AltitudeMeters>2135.39990234375</AltitudeMeters>
            <DistanceMeters>10544.068086682</DistanceMeters>
          </Trackpoint>
          <Trackpoint>
            <Time>2022-07-09T10:26:34.000Z</Time>
            <Position>
              <LatitudeDegrees>42.79451851733028888702392578125</LatitudeDegrees>
              <LongitudeDegrees>-0.14264113269746303558349609375</LongitudeDegrees>
            </Position>
            <AltitudeMeters>2135.39990234375</AltitudeMeters>
            <DistanceMeters>10545.087134664</DistanceMeters>
          </Trackpoint>
          <Trackpoint>
            <Time>2022-07-09T10:26:35.000Z</Time>
            <Position>
              <LatitudeDegrees>42.7945088781416416168212890625</LatitudeDegrees>
              <LongitudeDegrees>-0.14264666475355625152587890625</LongitudeDegrees>
            </Position>
            <AltitudeMeters>2135.39990234375</AltitudeMeters>
            <DistanceMeters>10546.25484248</DistanceMeters>
          </Trackpoint>
          <Trackpoint>
            <Time>2022-07-09T10:26:38.000Z</Time>
            <Position>
              <LatitudeDegrees>42.79447694309055805206298828125</LatitudeDegrees>
              <LongitudeDegrees>-0.14265320263803005218505859375</LongitudeDegrees>
            </Position>
            <AltitudeMeters>2135.39990234375</AltitudeMeters>
            <DistanceMeters>10549.850822106</DistanceMeters>
          </Trackpoint>
          <Trackpoint>
            <Time>2022-07-09T10:26:39.000Z</Time>
            <Position>
              <LatitudeDegrees>42.79447258450090885162353515625</LatitudeDegrees>
              <LongitudeDegrees>-0.1426584832370281219482421875</LongitudeDegrees>
            </Position>
            <AltitudeMeters>2135.60009765625</AltitudeMeters>
            <DistanceMeters>10550.49532464</DistanceMeters>
          </Trackpoint>
          <Trackpoint>
            <Time>2022-07-09T10:26:45.000Z</Time>
            <Position>
              <LatitudeDegrees>42.79442581348121166229248046875</LatitudeDegrees>
              <LongitudeDegrees>-0.14264054596424102783203125</LongitudeDegrees>
            </Position>
            <AltitudeMeters>2135.800048828125</AltitudeMeters>
            <DistanceMeters>10555.90267034</DistanceMeters>
          </Trackpoint>
          <Trackpoint>
            <Time>2022-07-09T10:26:51.000Z</Time>
            <Position>
              <LatitudeDegrees>42.7944203652441501617431640625</LatitudeDegrees>
              <LongitudeDegrees>-0.14261229895055294036865234375</LongitudeDegrees>
            </Position>
            <AltitudeMeters>2136</AltitudeMeters>
            <DistanceMeters>10558.291604896</DistanceMeters>
          </Trackpoint>
          <Trackpoint>
            <Time>2022-07-09T10:26:53.000Z</Time>
            <Position>
              <LatitudeDegrees>42.79441391117870807647705078125</LatitudeDegrees>
              <LongitudeDegrees>-0.14263912104070186614990234375</LongitudeDegrees>
            </Position>
            <AltitudeMeters>2135.60009765625</AltitudeMeters>
            <DistanceMeters>10560.597838845</DistanceMeters>
          </Trackpoint>
          <Trackpoint>
            <Time>2022-07-09T10:26:55.000Z</Time>
            <Position>
              <LatitudeDegrees>42.794409804046154022216796875</LatitudeDegrees>
              <LongitudeDegrees>-0.1426061801612377166748046875</LongitudeDegrees>
            </Position>
            <AltitudeMeters>2135.60009765625</AltitudeMeters>
            <DistanceMeters>10563.327273414</DistanceMeters>
          </Trackpoint>
          <Trackpoint>
            <Time>2022-07-09T10:26:59.000Z</Time>
            <Position>
              <LatitudeDegrees>42.79438658617436885833740234375</LatitudeDegrees>
              <LongitudeDegrees>-0.14251138083636760711669921875</LongitudeDegrees>
            </Position>
            <AltitudeMeters>2135.39990234375</AltitudeMeters>
            <DistanceMeters>10571.489620135</DistanceMeters>
          </Trackpoint>
          <Trackpoint>
            <Time>2022-07-09T10:27:00.000Z</Time>
            <Position>
              <LatitudeDegrees>42.79437786899507045745849609375</LatitudeDegrees>
              <LongitudeDegrees>-0.14249277301132678985595703125</LongitudeDegrees>
            </Position>
            <AltitudeMeters>2135.39990234375</AltitudeMeters>
            <DistanceMeters>10573.292625271</DistanceMeters>
          </Trackpoint>
          <Trackpoint>
            <Time>2022-07-09T10:27:01.000Z</Time>
            <Position>
              <LatitudeDegrees>42.79437057673931121826171875</LatitudeDegrees>
              <LongitudeDegrees>-0.142485313117504119873046875</LongitudeDegrees>
            </Position>
            <AltitudeMeters>2135.199951171875</AltitudeMeters>
            <DistanceMeters>10574.302773101</DistanceMeters>
          </Trackpoint>
          <Trackpoint>
            <Time>2022-07-09T10:27:07.000Z</Time>
            <Position>
              <LatitudeDegrees>42.7942949719727039337158203125</LatitudeDegrees>
              <LongitudeDegrees>-0.142459832131862640380859375</LongitudeDegrees>
            </Position>
            <AltitudeMeters>2134.800048828125</AltitudeMeters>
            <DistanceMeters>10582.971584794</DistanceMeters>
          </Trackpoint>
          <Trackpoint>
            <Time>2022-07-09T10:27:08.000Z</Time>
            <Position>
              <LatitudeDegrees>42.7942818962037563323974609375</LatitudeDegrees>
              <LongitudeDegrees>-0.1424561440944671630859375</LongitudeDegrees>
            </Position>
            <AltitudeMeters>2134.60009765625</AltitudeMeters>
            <DistanceMeters>10584.462020571</DistanceMeters>
          </Trackpoint>
          <Trackpoint>
            <Time>2022-07-09T10:27:14.000Z</Time>
            <Position>
              <LatitudeDegrees>42.79422171413898468017578125</LatitudeDegrees>
              <LongitudeDegrees>-0.14243594370782375335693359375</LongitudeDegrees>
            </Position>
            <AltitudeMeters>2135.800048828125</AltitudeMeters>
            <DistanceMeters>10591.361117101</DistanceMeters>
          </Trackpoint>
          <Trackpoint>
            <Time>2022-07-09T10:27:15.000Z</Time>
            <Position>
              <LatitudeDegrees>42.7942108176648616790771484375</LatitudeDegrees>
              <LongitudeDegrees>-0.14244097284972667694091796875</LongitudeDegrees>
            </Position>
            <AltitudeMeters>2136.199951171875</AltitudeMeters>
            <DistanceMeters>10592.643097566</DistanceMeters>
          </Trackpoint>
          <Trackpoint>
            <Time>2022-07-09T10:27:17.000Z</Time>
            <Position>
              <LatitudeDegrees>42.7941930480301380157470703125</LatitudeDegrees>
              <LongitudeDegrees>-0.142451785504817962646484375</LongitudeDegrees>
            </Position>
            <AltitudeMeters>2136.39990234375</AltitudeMeters>
            <DistanceMeters>10594.807955454</DistanceMeters>
          </Trackpoint>
          <Trackpoint>
            <Time>2022-07-09T10:27:18.000Z</Time>
            <Position>
              <LatitudeDegrees>42.7941848337650299072265625</LatitudeDegrees>
              <LongitudeDegrees>-0.1424559764564037322998046875</LongitudeDegrees>
            </Position>
            <AltitudeMeters>2136.39990234375</AltitudeMeters>
            <DistanceMeters>10595.786315359</DistanceMeters>
          </Trackpoint>
          <Trackpoint>
            <Time>2022-07-09T10:27:20.000Z</Time>
            <Position>
              <LatitudeDegrees>42.79416672885417938232421875</LatitudeDegrees>
              <LongitudeDegrees>-0.14246561564505100250244140625</LongitudeDegrees>
            </Position>
            <AltitudeMeters>2136.60009765625</AltitudeMeters>
            <DistanceMeters>10597.949086636</DistanceMeters>
          </Trackpoint>
          <Trackpoint>
            <Time>2022-07-09T10:27:21.000Z</Time>
            <Position>
              <LatitudeDegrees>42.79415868222713470458984375</LatitudeDegrees>
              <LongitudeDegrees>-0.14246888458728790283203125</LongitudeDegrees>
            </Position>
            <AltitudeMeters>2136.800048828125</AltitudeMeters>
            <DistanceMeters>10598.880154485</DistanceMeters>
          </Trackpoint>
          <Trackpoint>
            <Time>2022-07-09T10:27:26.000Z</Time>
            <Position>
              <LatitudeDegrees>42.7941139228641986846923828125</LatitudeDegrees>
              <LongitudeDegrees>-0.1424727402627468109130859375</LongitudeDegrees>
            </Position>
            <AltitudeMeters>2136.800048828125</AltitudeMeters>
            <DistanceMeters>10603.870640516</DistanceMeters>
          </Trackpoint>
          <Trackpoint>
            <Time>2022-07-09T10:27:27.000Z</Time>
            <Position>
              <LatitudeDegrees>42.79410772025585174560546875</LatitudeDegrees>
              <LongitudeDegrees>-0.14247559010982513427734375</LongitudeDegrees>
            </Position>
            <AltitudeMeters>2136.800048828125</AltitudeMeters>
            <DistanceMeters>10604.594342412</DistanceMeters>
          </Trackpoint>
          <Trackpoint>
            <Time>2022-07-09T10:27:31.000Z</Time>
            <Position>
              <LatitudeDegrees>42.7940535731613636016845703125</LatitudeDegrees>
              <LongitudeDegrees>-0.14248137362301349639892578125</LongitudeDegrees>
            </Position>
            <AltitudeMeters>2136</AltitudeMeters>
            <DistanceMeters>10610.639565267</DistanceMeters>
          </Trackpoint>
          <Trackpoint>
            <Time>2022-07-09T10:27:33.000Z</Time>
            <Position>
              <LatitudeDegrees>42.7940113283693790435791015625</LatitudeDegrees>
              <LongitudeDegrees>-0.1424871571362018585205078125</LongitudeDegrees>
            </Position>
            <AltitudeMeters>2135.60009765625</AltitudeMeters>
            <DistanceMeters>10615.365174122</DistanceMeters>
          </Trackpoint>
          <Trackpoint>
            <Time>2022-07-09T10:27:34.000Z</Time>
            <Position>
              <LatitudeDegrees>42.7939972467720508575439453125</LatitudeDegrees>
              <LongitudeDegrees>-0.142483301460742950439453125</LongitudeDegrees>
            </Position>
            <AltitudeMeters>2135.39990234375</AltitudeMeters>
            <DistanceMeters>10616.966592777</DistanceMeters>
          </Trackpoint>
          <Trackpoint>
            <Time>2022-07-09T10:27:39.000Z</Time>
            <Position>
              <LatitudeDegrees>42.79396648518741130828857421875</LatitudeDegrees>
              <LongitudeDegrees>-0.14248422347009181976318359375</LongitudeDegrees>
            </Position>
            <AltitudeMeters>2134.800048828125</AltitudeMeters>
            <DistanceMeters>10620.392829689</DistanceMeters>
          </Trackpoint>
          <Trackpoint>
            <Time>2022-07-09T10:27:40.000Z</Time>
            <Position>
              <LatitudeDegrees>42.79396564699709415435791015625</LatitudeDegrees>
              <LongitudeDegrees>-0.14247986488044261932373046875</LongitudeDegrees>
            </Position>
            <AltitudeMeters>2134.60009765625</AltitudeMeters>
            <DistanceMeters>10620.760866571</DistanceMeters>
          </Trackpoint>
          <Trackpoint>
            <Time>2022-07-09T10:27:42.000Z</Time>
            <Position>
              <LatitudeDegrees>42.79396799392998218536376953125</LatitudeDegrees>
              <LongitudeDegrees>-0.14247701503336429595947265625</LongitudeDegrees>
            </Position>
            <AltitudeMeters>2134.39990234375</AltitudeMeters>
            <DistanceMeters>10621.116423979</DistanceMeters>
          </Trackpoint>
          <Trackpoint>
            <Time>2022-07-09T10:27:44.000Z</Time>
            <Position>
              <LatitudeDegrees>42.79396933503448963165283203125</LatitudeDegrees>
              <LongitudeDegrees>-0.1424613408744335174560546875</LongitudeDegrees>
            </Position>
            <AltitudeMeters>2134</AltitudeMeters>
            <DistanceMeters>10622.405429047</DistanceMeters>
          </Trackpoint>
          <Trackpoint>
            <Time>2022-07-09T10:27:47.000Z</Time>
            <Position>
              <LatitudeDegrees>42.79396883212029933929443359375</LatitudeDegrees>
              <LongitudeDegrees>-0.14240342192351818084716796875</LongitudeDegrees>
            </Position>
            <AltitudeMeters>2133.60009765625</AltitudeMeters>
            <DistanceMeters>10627.135812692</DistanceMeters>
          </Trackpoint>
          <Trackpoint>
            <Time>2022-07-09T10:27:49.000Z</Time>
            <Position>
              <LatitudeDegrees>42.793962545692920684814453125</LatitudeDegrees>
              <LongitudeDegrees>-0.142371654510498046875</LongitudeDegrees>
            </Position>
            <AltitudeMeters>2133.199951171875</AltitudeMeters>
            <DistanceMeters>10629.823574057</DistanceMeters>
          </Trackpoint>
          <Trackpoint>
            <Time>2022-07-09T10:27:52.000Z</Time>
            <Position>
              <LatitudeDegrees>42.79393605887889862060546875</LatitudeDegrees>
              <LongitudeDegrees>-0.1423610933125019073486328125</LongitudeDegrees>
            </Position>
            <AltitudeMeters>2133</AltitudeMeters>
            <DistanceMeters>10632.893981165</DistanceMeters>
          </Trackpoint>
          <Trackpoint>
            <Time>2022-07-09T10:27:56.000Z</Time>
            <Position>
              <LatitudeDegrees>42.79390948824584484100341796875</LatitudeDegrees>
              <LongitudeDegrees>-0.14235128648579120635986328125</LongitudeDegrees>
            </Position>
            <AltitudeMeters>2132.60009765625</AltitudeMeters>
            <DistanceMeters>10635.957026941</DistanceMeters>
          </Trackpoint>
          <Trackpoint>
            <Time>2022-07-09T10:27:58.000Z</Time>
            <Position>
              <LatitudeDegrees>42.79389842413365840911865234375</LatitudeDegrees>
              <LongitudeDegrees>-0.1423503644764423370361328125</LongitudeDegrees>
            </Position>
            <AltitudeMeters>2132.39990234375</AltitudeMeters>
            <DistanceMeters>10637.192374228</DistanceMeters>
          </Trackpoint>
          <Trackpoint>
            <Time>2022-07-09T10:28:01.000Z</Time>
            <Position>
              <LatitudeDegrees>42.7938638068735599517822265625</LatitudeDegrees>
              <LongitudeDegrees>-0.14236000366508960723876953125</LongitudeDegrees>
            </Position>
            <AltitudeMeters>2132.39990234375</AltitudeMeters>
            <DistanceMeters>10641.124230134</DistanceMeters>
          </Trackpoint>
          <Trackpoint>
            <Time>2022-07-09T10:28:03.000Z</Time>
            <Position>
              <LatitudeDegrees>42.793837822973728179931640625</LatitudeDegrees>
              <LongitudeDegrees>-0.14237358234822750091552734375</LongitudeDegrees>
            </Position>
            <AltitudeMeters>2132</AltitudeMeters>
            <DistanceMeters>10644.220993151</DistanceMeters>
          </Trackpoint>
          <Trackpoint>
            <Time>2022-07-09T10:28:09.000Z</Time>
            <Position>
              <LatitudeDegrees>42.79378141276538372039794921875</LatitudeDegrees>
              <LongitudeDegrees>-0.14238598756492137908935546875</LongitudeDegrees>
            </Position>
            <AltitudeMeters>2131</AltitudeMeters>
            <DistanceMeters>10650.581397421</DistanceMeters>
          </Trackpoint>
          <Trackpoint>
            <Time>2022-07-09T10:28:10.000Z</Time>
            <Position>
              <LatitudeDegrees>42.79377303086221218109130859375</LatitudeDegrees>
              <LongitudeDegrees>-0.14238464646041393280029296875</LongitudeDegrees>
            </Position>
            <AltitudeMeters>2131</AltitudeMeters>
            <DistanceMeters>10651.522113899</DistanceMeters>
          </Trackpoint>
          <Trackpoint>
            <Time>2022-07-09T10:28:11.000Z</Time>
            <Position>
              <LatitudeDegrees>42.7937638945877552032470703125</LatitudeDegrees>
              <LongitudeDegrees>-0.1423822157084941864013671875</LongitudeDegrees>
            </Position>
            <AltitudeMeters>2131</AltitudeMeters>
            <DistanceMeters>10652.558732969</DistanceMeters>
          </Trackpoint>
          <Trackpoint>
            <Time>2022-07-09T10:28:12.000Z</Time>
            <Position>
              <LatitudeDegrees>42.7937541715800762176513671875</LatitudeDegrees>
              <LongitudeDegrees>-0.1423798687756061553955078125</LongitudeDegrees>
            </Position>
            <AltitudeMeters>2131</AltitudeMeters>
            <DistanceMeters>10653.658746716</DistanceMeters>
          </Trackpoint>
          <Trackpoint>
            <Time>2022-07-09T10:28:14.000Z</Time>
            <Position>
              <LatitudeDegrees>42.7937350608408451080322265625</LatitudeDegrees>
              <LongitudeDegrees>-0.1423553936183452606201171875</LongitudeDegrees>
            </Position>
            <AltitudeMeters>2131.199951171875</AltitudeMeters>
            <DistanceMeters>10656.578402888</DistanceMeters>
          </Trackpoint>
          <Trackpoint>
            <Time>2022-07-09T10:28:16.000Z</Time>
            <Position>
              <LatitudeDegrees>42.79371435754001140594482421875</LatitudeDegrees>
              <LongitudeDegrees>-0.1423258893191814422607421875</LongitudeDegrees>
            </Position>
            <AltitudeMeters>2131.39990234375</AltitudeMeters>
            <DistanceMeters>10659.911118601</DistanceMeters>
          </Trackpoint>
          <Trackpoint>
            <Time>2022-07-09T10:28:22.000Z</Time>
            <Position>
              <LatitudeDegrees>42.79364730231463909149169921875</LatitudeDegrees>
              <LongitudeDegrees>-0.14230049215257167816162109375</LongitudeDegrees>
            </Position>
            <AltitudeMeters>2130.60009765625</AltitudeMeters>
            <DistanceMeters>10667.657981711</DistanceMeters>
          </Trackpoint>
          <Trackpoint>
            <Time>2022-07-09T10:28:23.000Z</Time>
            <Position>
              <LatitudeDegrees>42.793636322021484375</LatitudeDegrees>
              <LongitudeDegrees>-0.142298899590969085693359375</LongitudeDegrees>
            </Position>
            <AltitudeMeters>2130.39990234375</AltitudeMeters>
            <DistanceMeters>10668.889668702</DistanceMeters>
          </Trackpoint>
          <Trackpoint>
            <Time>2022-07-09T10:28:24.000Z</Time>
            <Position>
              <LatitudeDegrees>42.7936247549951076507568359375</LatitudeDegrees>
              <LongitudeDegrees>-0.14229915104806423187255859375</LongitudeDegrees>
            </Position>
            <AltitudeMeters>2130.199951171875</AltitudeMeters>
            <DistanceMeters>10670.17867377</DistanceMeters>
          </Trackpoint>
          <Trackpoint>
            <Time>2022-07-09T10:28:30.000Z</Time>
            <Position>
              <LatitudeDegrees>42.7935617230832576751708984375</LatitudeDegrees>
              <LongitudeDegrees>-0.14229764230549335479736328125</LongitudeDegrees>
            </Position>
            <AltitudeMeters>2130.39990234375</AltitudeMeters>
            <DistanceMeters>10677.195223974</DistanceMeters>
          </Trackpoint>
          <Trackpoint>
            <Time>2022-07-09T10:28:32.000Z</Time>
            <Position>
              <LatitudeDegrees>42.7935483120381832122802734375</LatitudeDegrees>
              <LongitudeDegrees>-0.1422957144677639007568359375</LongitudeDegrees>
            </Position>
            <AltitudeMeters>2130.800048828125</AltitudeMeters>
            <DistanceMeters>10678.697728254</DistanceMeters>
          </Trackpoint>
          <Trackpoint>
            <Time>2022-07-09T10:28:37.000Z</Time>
            <Position>
              <LatitudeDegrees>42.79351855628192424774169921875</LatitudeDegrees>
              <LongitudeDegrees>-0.142274089157581329345703125</LongitudeDegrees>
            </Position>
            <AltitudeMeters>2131.199951171875</AltitudeMeters>
            <DistanceMeters>10682.450982742</DistanceMeters>
          </Trackpoint>
          <Trackpoint>
            <Time>2022-07-09T10:28:42.000Z</Time>
            <Position>
              <LatitudeDegrees>42.7935090847313404083251953125</LatitudeDegrees>
              <LongitudeDegrees>-0.14223058708012104034423828125</LongitudeDegrees>
            </Position>
            <AltitudeMeters>2130.60009765625</AltitudeMeters>
            <DistanceMeters>10686.155806111</DistanceMeters>
          </Trackpoint>
          <Trackpoint>
            <Time>2022-07-09T10:28:48.000Z</Time>
            <Position>
              <LatitudeDegrees>42.79342710971832275390625</LatitudeDegrees>
              <LongitudeDegrees>-0.14222103171050548553466796875</LongitudeDegrees>
            </Position>
            <AltitudeMeters>2130.800048828125</AltitudeMeters>
            <DistanceMeters>10695.312950309</DistanceMeters>
          </Trackpoint>
          <Trackpoint>
            <Time>2022-07-09T10:28:49.000Z</Time>
            <Position>
              <LatitudeDegrees>42.7934172190725803375244140625</LatitudeDegrees>
              <LongitudeDegrees>-0.1422216184437274932861328125</LongitudeDegrees>
            </Position>
            <AltitudeMeters>2131</AltitudeMeters>
            <DistanceMeters>10696.412964056</DistanceMeters>
          </Trackpoint>
          <Trackpoint>
            <Time>2022-07-09T10:28:53.000Z</Time>
            <Position>
              <LatitudeDegrees>42.7933971025049686431884765625</LatitudeDegrees>
              <LongitudeDegrees>-0.14222212135791778564453125</LongitudeDegrees>
            </Position>
            <AltitudeMeters>2131</AltitudeMeters>
            <DistanceMeters>10698.653660935</DistanceMeters>
          </Trackpoint>
          <Trackpoint>
            <Time>2022-07-09T10:28:54.000Z</Time>
            <Position>
              <LatitudeDegrees>42.79339282773435115814208984375</LatitudeDegrees>
              <LongitudeDegrees>-0.142224468290805816650390625</LongitudeDegrees>
            </Position>
            <AltitudeMeters>2130.800048828125</AltitudeMeters>
            <DistanceMeters>10699.165395453</DistanceMeters>
          </Trackpoint>
          <Trackpoint>
            <Time>2022-07-09T10:28:56.000Z</Time>
            <Position>
              <LatitudeDegrees>42.7934313006699085235595703125</LatitudeDegrees>
              <LongitudeDegrees>-0.14221365563571453094482421875</LongitudeDegrees>
            </Position>
            <AltitudeMeters>2130.800048828125</AltitudeMeters>
            <DistanceMeters>10703.536624314</DistanceMeters>
          </Trackpoint>
          <Trackpoint>
            <Time>2022-07-09T10:28:58.000Z</Time>
            <Position>
              <LatitudeDegrees>42.79339903034269809722900390625</LatitudeDegrees>
              <LongitudeDegrees>-0.142221115529537200927734375</LongitudeDegrees>
            </Position>
            <AltitudeMeters>2130.39990234375</AltitudeMeters>
            <DistanceMeters>10707.17876411</DistanceMeters>
          </Trackpoint>
          <Trackpoint>
            <Time>2022-07-09T10:29:00.000Z</Time>
            <Position>
              <LatitudeDegrees>42.79338394291698932647705078125</LatitudeDegrees>
              <LongitudeDegrees>-0.1422120630741119384765625</LongitudeDegrees>
            </Position>
            <AltitudeMeters>2130.39990234375</AltitudeMeters>
            <DistanceMeters>10709.014034802</DistanceMeters>
          </Trackpoint>
          <Trackpoint>
            <Time>2022-07-09T10:29:03.000Z</Time>
            <Position>
              <LatitudeDegrees>42.7933788299560546875</LatitudeDegrees>
              <LongitudeDegrees>-0.14221767894923686981201171875</LongitudeDegrees>
            </Position>
            <AltitudeMeters>2130.60009765625</AltitudeMeters>
            <DistanceMeters>10709.750108567</DistanceMeters>
          </Trackpoint>
          <Trackpoint>
            <Time>2022-07-09T10:29:08.000Z</Time>
            <Position>
              <LatitudeDegrees>42.79337279498577117919921875</LatitudeDegrees>
              <LongitudeDegrees>-0.14225623570382595062255859375</LongitudeDegrees>
            </Position>
            <AltitudeMeters>2130.39990234375</AltitudeMeters>
            <DistanceMeters>10712.969817833</DistanceMeters>
          </Trackpoint>
          <Trackpoint>
            <Time>2022-07-09T10:29:09.000Z</Time>
            <Position>
              <LatitudeDegrees>42.79337774030864238739013671875</LatitudeDegrees>
              <LongitudeDegrees>-0.14225724153220653533935546875</LongitudeDegrees>
            </Position>
            <AltitudeMeters>2130.199951171875</AltitudeMeters>
            <DistanceMeters>10713.523914033</DistanceMeters>
          </Trackpoint>
          <Trackpoint>
            <Time>2022-07-09T10:29:13.000Z</Time>
            <Position>
              <LatitudeDegrees>42.79338511638343334197998046875</LatitudeDegrees>
              <LongitudeDegrees>-0.142245590686798095703125</LongitudeDegrees>
            </Position>
            <AltitudeMeters>2130</AltitudeMeters>
            <DistanceMeters>10714.777402486</DistanceMeters>
          </Trackpoint>
          <Trackpoint>
            <Time>2022-07-09T10:29:18.000Z</Time>
            <Position>
              <LatitudeDegrees>42.793370448052883148193359375</LatitudeDegrees>
              <LongitudeDegrees>-0.14222681522369384765625</LongitudeDegrees>
            </Position>
            <AltitudeMeters>2129.800048828125</AltitudeMeters>
            <DistanceMeters>10717.016083443</DistanceMeters>
          </Trackpoint>
          <Trackpoint>
            <Time>2022-07-09T10:29:24.000Z</Time>
            <Position>
              <LatitudeDegrees>42.7933598868548870086669921875</LatitudeDegrees>
              <LongitudeDegrees>-0.142211727797985076904296875</LongitudeDegrees>
            </Position>
            <AltitudeMeters>2129.39990234375</AltitudeMeters>
            <DistanceMeters>10718.718626992</DistanceMeters>
          </Trackpoint>
          <Trackpoint>
            <Time>2022-07-09T10:29:25.000Z</Time>
            <Position>
              <LatitudeDegrees>42.79336214996874332427978515625</LatitudeDegrees>
              <LongitudeDegrees>-0.14221063815057277679443359375</LongitudeDegrees>
            </Position>
            <AltitudeMeters>2129.39990234375</AltitudeMeters>
            <DistanceMeters>10718.970044046</DistanceMeters>
          </Trackpoint>
          <Trackpoint>
            <Time>2022-07-09T10:29:28.000Z</Time>
            <Position>
              <LatitudeDegrees>42.7933706156909465789794921875</LatitudeDegrees>
              <LongitudeDegrees>-0.1422132365405559539794921875</LongitudeDegrees>
            </Position>
            <AltitudeMeters>2129.199951171875</AltitudeMeters>
            <DistanceMeters>10719.929766817</DistanceMeters>
          </Trackpoint>
          <Trackpoint>
            <Time>2022-07-09T10:29:31.000Z</Time>
            <Position>
              <LatitudeDegrees>42.7933924086391925811767578125</LatitudeDegrees>
              <LongitudeDegrees>-0.14226771891117095947265625</LongitudeDegrees>
            </Position>
            <AltitudeMeters>2129.39990234375</AltitudeMeters>
            <DistanceMeters>10724.99746229</DistanceMeters>
          </Trackpoint>
          <Trackpoint>
            <Time>2022-07-09T10:29:33.000Z</Time>
            <Position>
              <LatitudeDegrees>42.79340104199945926666259765625</LatitudeDegrees>
              <LongitudeDegrees>-0.1422957144677639007568359375</LongitudeDegrees>
            </Position>
            <AltitudeMeters>2129.39990234375</AltitudeMeters>
            <DistanceMeters>10727.479097263</DistanceMeters>
          </Trackpoint>
          <Trackpoint>
            <Time>2022-07-09T10:29:39.000Z</Time>
            <Position>
              <LatitudeDegrees>42.79338293708860874176025390625</LatitudeDegrees>
              <LongitudeDegrees>-0.1423086225986480712890625</LongitudeDegrees>
            </Position>
            <AltitudeMeters>2129.199951171875</AltitudeMeters>
            <DistanceMeters>10729.751805719</DistanceMeters>
          </Trackpoint>
          <Trackpoint>
            <Time>2022-07-09T10:29:41.000Z</Time>
            <Position>
              <LatitudeDegrees>42.79336969368159770965576171875</LatitudeDegrees>
              <LongitudeDegrees>-0.14229722321033477783203125</LongitudeDegrees>
            </Position>
            <AltitudeMeters>2129.199951171875</AltitudeMeters>
            <DistanceMeters>10731.493674165</DistanceMeters>
          </Trackpoint>
          <Trackpoint>
            <Time>2022-07-09T10:29:46.000Z</Time>
            <Position>
              <LatitudeDegrees>42.7933753095567226409912109375</LatitudeDegrees>
              <LongitudeDegrees>-0.14227819629013538360595703125</LongitudeDegrees>
            </Position>
            <AltitudeMeters>2129.199951171875</AltitudeMeters>
            <DistanceMeters>10733.1721806</DistanceMeters>
          </Trackpoint>
          <Trackpoint>
            <Time>2022-07-09T10:29:49.000Z</Time>
            <Position>
              <LatitudeDegrees>42.79339492321014404296875</LatitudeDegrees>
              <LongitudeDegrees>-0.1422605104744434356689453125</LongitudeDegrees>
            </Position>
            <AltitudeMeters>2129.199951171875</AltitudeMeters>
            <DistanceMeters>10735.788437075</DistanceMeters>
          </Trackpoint>
          <Trackpoint>
            <Time>2022-07-09T10:29:54.000Z</Time>
            <Position>
              <LatitudeDegrees>42.79337204061448574066162109375</LatitudeDegrees>
              <LongitudeDegrees>-0.14219471253454685211181640625</LongitudeDegrees>
            </Position>
            <AltitudeMeters>2129.199951171875</AltitudeMeters>
            <DistanceMeters>10741.735014187</DistanceMeters>
          </Trackpoint>
          <Trackpoint>
            <Time>2022-07-09T10:29:55.000Z</Time>
            <Position>
              <LatitudeDegrees>42.79337002895772457122802734375</LatitudeDegrees>
              <LongitudeDegrees>-0.14218314550817012786865234375</LongitudeDegrees>
            </Position>
            <AltitudeMeters>2129.199951171875</AltitudeMeters>
            <DistanceMeters>10742.704100329</DistanceMeters>
          </Trackpoint>
          <Trackpoint>
            <Time>2022-07-09T10:29:56.000Z</Time>
            <Position>
              <LatitudeDegrees>42.793368436396121978759765625</LatitudeDegrees>
              <LongitudeDegrees>-0.142178200185298919677734375</LongitudeDegrees>
            </Position>
            <AltitudeMeters>2129.199951171875</AltitudeMeters>
            <DistanceMeters>10743.139567441</DistanceMeters>
          </Trackpoint>
          <Trackpoint>
            <Time>2022-07-09T10:30:02.000Z</Time>
            <Position>
              <LatitudeDegrees>42.7933592163026332855224609375</LatitudeDegrees>
              <LongitudeDegrees>-0.1422236301004886627197265625</LongitudeDegrees>
            </Position>
            <AltitudeMeters>2129</AltitudeMeters>
            <DistanceMeters>10746.989029149</DistanceMeters>
          </Trackpoint>
          <Trackpoint>
            <Time>2022-07-09T10:30:06.000Z</Time>
            <Position>
              <LatitudeDegrees>42.79335108585655689239501953125</LatitudeDegrees>
              <LongitudeDegrees>-0.14221608638763427734375</LongitudeDegrees>
            </Position>
            <AltitudeMeters>2129.199951171875</AltitudeMeters>
            <DistanceMeters>10748.080802977</DistanceMeters>
          </Trackpoint>
          <Trackpoint>
            <Time>2022-07-09T10:30:12.000Z</Time>
            <Position>
              <LatitudeDegrees>42.79336114414036273956298828125</LatitudeDegrees>
              <LongitudeDegrees>-0.1421807147562503814697265625</LongitudeDegrees>
            </Position>
            <AltitudeMeters>2129.39990234375</AltitudeMeters>
            <DistanceMeters>10751.179023637</DistanceMeters>
          </Trackpoint>
          <Trackpoint>
            <Time>2022-07-09T10:30:16.000Z</Time>
            <Position>
              <LatitudeDegrees>42.79335267841815948486328125</LatitudeDegrees>
              <LongitudeDegrees>-0.14216772280633449554443359375</LongitudeDegrees>
            </Position>
            <AltitudeMeters>2129.39990234375</AltitudeMeters>
            <DistanceMeters>10752.601253268</DistanceMeters>
          </Trackpoint>
          <Trackpoint>
            <Time>2022-07-09T10:30:22.000Z</Time>
            <Position>
              <LatitudeDegrees>42.7932143770158290863037109375</LatitudeDegrees>
              <LongitudeDegrees>-0.14214777387678623199462890625</LongitudeDegrees>
            </Position>
            <AltitudeMeters>2128.800048828125</AltitudeMeters>
            <DistanceMeters>10768.080402094</DistanceMeters>
          </Trackpoint>
          <Trackpoint>
            <Time>2022-07-09T10:30:25.000Z</Time>
            <Position>
              <LatitudeDegrees>42.79323239810764789581298828125</LatitudeDegrees>
              <LongitudeDegrees>-0.14220158569514751434326171875</LongitudeDegrees>
            </Position>
            <AltitudeMeters>2128.60009765625</AltitudeMeters>
            <DistanceMeters>10772.911835381</DistanceMeters>
          </Trackpoint>
          <Trackpoint>
            <Time>2022-07-09T10:30:31.000Z</Time>
            <Position>
              <LatitudeDegrees>42.79338377527892589569091796875</LatitudeDegrees>
              <LongitudeDegrees>-0.14220644719898700714111328125</LongitudeDegrees>
            </Position>
            <AltitudeMeters>2128.800048828125</AltitudeMeters>
            <DistanceMeters>10789.765085052</DistanceMeters>
          </Trackpoint>
          <Trackpoint>
            <Time>2022-07-09T10:30:35.000Z</Time>
            <Position>
              <LatitudeDegrees>42.79326827265322208404541015625</LatitudeDegrees>
              <LongitudeDegrees>-0.14235648326575756072998046875</LongitudeDegrees>
            </Position>
            <AltitudeMeters>2129</AltitudeMeters>
            <DistanceMeters>10807.525422894</DistanceMeters>
          </Trackpoint>
          <Trackpoint>
            <Time>2022-07-09T10:30:41.000Z</Time>
            <Position>
              <LatitudeDegrees>42.79334186576306819915771484375</LatitudeDegrees>
              <LongitudeDegrees>-0.1422427408397197723388671875</LongitudeDegrees>
            </Position>
            <AltitudeMeters>2128.60009765625</AltitudeMeters>
            <DistanceMeters>10819.911016889</DistanceMeters>
          </Trackpoint>
          <Trackpoint>
            <Time>2022-07-09T10:30:45.000Z</Time>
            <Position>
              <LatitudeDegrees>42.79334756545722484588623046875</LatitudeDegrees>
              <LongitudeDegrees>-0.14219806529581546783447265625</LongitudeDegrees>
            </Position>
            <AltitudeMeters>2128.60009765625</AltitudeMeters>
            <DistanceMeters>10823.613402072</DistanceMeters>
          </Trackpoint>
          <Trackpoint>
            <Time>2022-07-09T10:30:51.000Z</Time>
            <Position>
              <LatitudeDegrees>42.79335913248360157012939453125</LatitudeDegrees>
              <LongitudeDegrees>-0.14220762066543102264404296875</LongitudeDegrees>
            </Position>
            <AltitudeMeters>2128.39990234375</AltitudeMeters>
            <DistanceMeters>10825.118908362</DistanceMeters>
          </Trackpoint>
          <Trackpoint>
            <Time>2022-07-09T10:30:57.000Z</Time>
            <Position>
              <LatitudeDegrees>42.79337807558476924896240234375</LatitudeDegrees>
              <LongitudeDegrees>-0.142250955104827880859375</LongitudeDegrees>
            </Position>
            <AltitudeMeters>2129</AltitudeMeters>
            <DistanceMeters>10829.238072553</DistanceMeters>
          </Trackpoint>
          <Trackpoint>
            <Time>2022-07-09T10:31:01.000Z</Time>
            <Position>
              <LatitudeDegrees>42.79339450411498546600341796875</LatitudeDegrees>
              <LongitudeDegrees>-0.14228515326976776123046875</LongitudeDegrees>
            </Position>
            <AltitudeMeters>2128.60009765625</AltitudeMeters>
            <DistanceMeters>10832.576202918</DistanceMeters>
          </Trackpoint>
          <Trackpoint>
            <Time>2022-07-09T10:31:05.000Z</Time>
            <Position>
              <LatitudeDegrees>42.79341512359678745269775390625</LatitudeDegrees>
              <LongitudeDegrees>-0.14232848770916461944580078125</LongitudeDegrees>
            </Position>
            <AltitudeMeters>2128.800048828125</AltitudeMeters>
            <DistanceMeters>10836.793933421</DistanceMeters>
          </Trackpoint>
          <Trackpoint>
            <Time>2022-07-09T10:31:11.000Z</Time>
            <Position>
              <LatitudeDegrees>42.7934121899306774139404296875</LatitudeDegrees>
              <LongitudeDegrees>-0.14229596592485904693603515625</LongitudeDegrees>
            </Position>
            <AltitudeMeters>2129</AltitudeMeters>
            <DistanceMeters>10839.469909994</DistanceMeters>
          </Trackpoint>
          <Trackpoint>
            <Time>2022-07-09T10:31:17.000Z</Time>
            <Position>
              <LatitudeDegrees>42.793427444994449615478515625</LatitudeDegrees>
              <LongitudeDegrees>-0.142253302037715911865234375</LongitudeDegrees>
            </Position>
            <AltitudeMeters>2129</AltitudeMeters>
            <DistanceMeters>10843.347419153</DistanceMeters>
          </Trackpoint>
          <Trackpoint>
            <Time>2022-07-09T10:31:19.000Z</Time>
            <Position>
              <LatitudeDegrees>42.793414704501628875732421875</LatitudeDegrees>
              <LongitudeDegrees>-0.142180882394313812255859375</LongitudeDegrees>
            </Position>
            <AltitudeMeters>2129</AltitudeMeters>
            <DistanceMeters>10849.429128873</DistanceMeters>
          </Trackpoint>
          <Trackpoint>
            <Time>2022-07-09T10:31:24.000Z</Time>
            <Position>
              <LatitudeDegrees>42.79343574307858943939208984375</LatitudeDegrees>
              <LongitudeDegrees>-0.1420459337532520294189453125</LongitudeDegrees>
            </Position>
            <AltitudeMeters>2129</AltitudeMeters>
            <DistanceMeters>10860.696909258</DistanceMeters>
          </Trackpoint>
          <Trackpoint>
            <Time>2022-07-09T10:31:30.000Z</Time>
            <Position>
              <LatitudeDegrees>42.7934353239834308624267578125</LatitudeDegrees>
              <LongitudeDegrees>-0.1419466920197010040283203125</LongitudeDegrees>
            </Position>
            <AltitudeMeters>2129.199951171875</AltitudeMeters>
            <DistanceMeters>10868.801523749</DistanceMeters>
          </Trackpoint>
          <Trackpoint>
            <Time>2022-07-09T10:31:33.000Z</Time>
            <Position>
              <LatitudeDegrees>42.7933977730572223663330078125</LatitudeDegrees>
              <LongitudeDegrees>-0.141918025910854339599609375</LongitudeDegrees>
            </Position>
            <AltitudeMeters>2129.60009765625</AltitudeMeters>
            <DistanceMeters>10873.591661977</DistanceMeters>
          </Trackpoint>
          <Trackpoint>
            <Time>2022-07-09T10:31:34.000Z</Time>
            <Position>
              <LatitudeDegrees>42.79338293708860874176025390625</LatitudeDegrees>
              <LongitudeDegrees>-0.1419108174741268157958984375</LongitudeDegrees>
            </Position>
            <AltitudeMeters>2129.800048828125</AltitudeMeters>
            <DistanceMeters>10875.341289342</DistanceMeters>
          </Trackpoint>
          <Trackpoint>
            <Time>2022-07-09T10:31:35.000Z</Time>
            <Position>
              <LatitudeDegrees>42.79337237589061260223388671875</LatitudeDegrees>
              <LongitudeDegrees>-0.14190419577062129974365234375</LongitudeDegrees>
            </Position>
            <AltitudeMeters>2129.800048828125</AltitudeMeters>
            <DistanceMeters>10876.633792395</DistanceMeters>
          </Trackpoint>
          <Trackpoint>
            <Time>2022-07-09T10:31:38.000Z</Time>
            <Position>
              <LatitudeDegrees>42.7933250181376934051513671875</LatitudeDegrees>
              <LongitudeDegrees>-0.1419021002948284149169921875</LongitudeDegrees>
            </Position>
            <AltitudeMeters>2130.199951171875</AltitudeMeters>
            <DistanceMeters>10881.907561014</DistanceMeters>
          </Trackpoint>
          <Trackpoint>
            <Time>2022-07-09T10:31:39.000Z</Time>
            <Position>
              <LatitudeDegrees>42.7933082543313503265380859375</LatitudeDegrees>
              <LongitudeDegrees>-0.1419064588844776153564453125</LongitudeDegrees>
            </Position>
            <AltitudeMeters>2130.60009765625</AltitudeMeters>
            <DistanceMeters>10883.805718147</DistanceMeters>
          </Trackpoint>
          <Trackpoint>
            <Time>2022-07-09T10:31:40.000Z</Time>
            <Position>
              <LatitudeDegrees>42.79329442419111728668212890625</LatitudeDegrees>
              <LongitudeDegrees>-0.1419089734554290771484375</LongitudeDegrees>
            </Position>
            <AltitudeMeters>2130.800048828125</AltitudeMeters>
            <DistanceMeters>10885.358467454</DistanceMeters>
          </Trackpoint>
          <Trackpoint>
            <Time>2022-07-09T10:31:41.000Z</Time>
            <Position>
              <LatitudeDegrees>42.793284617364406585693359375</LatitudeDegrees>
              <LongitudeDegrees>-0.1419111527502536773681640625</LongitudeDegrees>
            </Position>
            <AltitudeMeters>2130.800048828125</AltitudeMeters>
            <DistanceMeters>10886.466659854</DistanceMeters>
          </Trackpoint>
          <Trackpoint>
            <Time>2022-07-09T10:31:45.000Z</Time>
            <Position>
              <LatitudeDegrees>42.79325871728360652923583984375</LatitudeDegrees>
              <LongitudeDegrees>-0.1418888568878173828125</LongitudeDegrees>
            </Position>
            <AltitudeMeters>2131</AltitudeMeters>
            <DistanceMeters>10889.875722538</DistanceMeters>
          </Trackpoint>
          <Trackpoint>
            <Time>2022-07-09T10:31:47.000Z</Time>
            <Position>
              <LatitudeDegrees>42.79324480332434177398681640625</LatitudeDegrees>
              <LongitudeDegrees>-0.14186379499733448028564453125</LongitudeDegrees>
            </Position>
            <AltitudeMeters>2131</AltitudeMeters>
            <DistanceMeters>10892.441443826</DistanceMeters>
          </Trackpoint>
          <Trackpoint>
            <Time>2022-07-09T10:31:48.000Z</Time>
            <Position>
              <LatitudeDegrees>42.79323709197342395782470703125</LatitudeDegrees>
              <LongitudeDegrees>-0.14185423962771892547607421875</LongitudeDegrees>
            </Position>
            <AltitudeMeters>2131</AltitudeMeters>
            <DistanceMeters>10893.597493701</DistanceMeters>
          </Trackpoint>
          <Trackpoint>
            <Time>2022-07-09T10:31:51.000Z</Time>
            <Position>
              <LatitudeDegrees>42.7932080067694187164306640625</LatitudeDegrees>
              <LongitudeDegrees>-0.1418236456811428070068359375</LongitudeDegrees>
            </Position>
            <AltitudeMeters>2131.199951171875</AltitudeMeters>
            <DistanceMeters>10897.685851745</DistanceMeters>
          </Trackpoint>
          <Trackpoint>
            <Time>2022-07-09T10:31:52.000Z</Time>
            <Position>
              <LatitudeDegrees>42.7931966073811054229736328125</LatitudeDegrees>
              <LongitudeDegrees>-0.14181182719767093658447265625</LongitudeDegrees>
            </Position>
            <AltitudeMeters>2131.199951171875</AltitudeMeters>
            <DistanceMeters>10899.28162164</DistanceMeters>
          </Trackpoint>
          <Trackpoint>
            <Time>2022-07-09T10:31:54.000Z</Time>
            <Position>
              <LatitudeDegrees>42.79316768981516361236572265625</LatitudeDegrees>
              <LongitudeDegrees>-0.14179238118231296539306640625</LongitudeDegrees>
            </Position>
            <AltitudeMeters>2131</AltitudeMeters>
            <DistanceMeters>10902.870059881</DistanceMeters>
          </Trackpoint>
          <Trackpoint>
            <Time>2022-07-09T10:31:58.000Z</Time>
            <Position>
              <LatitudeDegrees>42.79311941005289554595947265625</LatitudeDegrees>
              <LongitudeDegrees>-0.1417673192918300628662109375</LongitudeDegrees>
            </Position>
            <AltitudeMeters>2131</AltitudeMeters>
            <DistanceMeters>10908.62055029</DistanceMeters>
          </Trackpoint>
          <Trackpoint>
            <Time>2022-07-09T10:32:00.000Z</Time>
            <Position>
              <LatitudeDegrees>42.7930896542966365814208984375</LatitudeDegrees>
              <LongitudeDegrees>-0.1417535729706287384033203125</LongitudeDegrees>
            </Position>
            <AltitudeMeters>2131</AltitudeMeters>
            <DistanceMeters>10912.117223495</DistanceMeters>
          </Trackpoint>
          <Trackpoint>
            <Time>2022-07-09T10:32:06.000Z</Time>
            <Position>
              <LatitudeDegrees>42.79298529960215091705322265625</LatitudeDegrees>
              <LongitudeDegrees>-0.14173555187880992889404296875</LongitudeDegrees>
            </Position>
            <AltitudeMeters>2130.800048828125</AltitudeMeters>
            <DistanceMeters>10923.825193448</DistanceMeters>
          </Trackpoint>
          <Trackpoint>
            <Time>2022-07-09T10:32:10.000Z</Time>
            <Position>
              <LatitudeDegrees>42.79292947612702846527099609375</LatitudeDegrees>
              <LongitudeDegrees>-0.14171040616929531097412109375</LongitudeDegrees>
            </Position>
            <AltitudeMeters>2130.800048828125</AltitudeMeters>
            <DistanceMeters>10930.368940272</DistanceMeters>
          </Trackpoint>
          <Trackpoint>
            <Time>2022-07-09T10:32:12.000Z</Time>
            <Position>
              <LatitudeDegrees>42.7929153107106685638427734375</LatitudeDegrees>
              <LongitudeDegrees>-0.1416995935142040252685546875</LongitudeDegrees>
            </Position>
            <AltitudeMeters>2131</AltitudeMeters>
            <DistanceMeters>10932.176946819</DistanceMeters>
          </Trackpoint>
          <Trackpoint>
            <Time>2022-07-09T10:32:15.000Z</Time>
            <Position>
              <LatitudeDegrees>42.79287993907928466796875</LatitudeDegrees>
              <LongitudeDegrees>-0.14168945141136646270751953125</LongitudeDegrees>
            </Position>
            <AltitudeMeters>2131.39990234375</AltitudeMeters>
            <DistanceMeters>10936.199619685</DistanceMeters>
          </Trackpoint>
          <Trackpoint>
            <Time>2022-07-09T10:32:16.000Z</Time>
            <Position>
              <LatitudeDegrees>42.79286879114806652069091796875</LatitudeDegrees>
              <LongitudeDegrees>-0.14168391935527324676513671875</LongitudeDegrees>
            </Position>
            <AltitudeMeters>2131.39990234375</AltitudeMeters>
            <DistanceMeters>10937.523188659</DistanceMeters>
          </Trackpoint>
          <Trackpoint>
            <Time>2022-07-09T10:32:22.000Z</Time>
            <Position>
              <LatitudeDegrees>42.7927976287901401519775390625</LatitudeDegrees>
              <LongitudeDegrees>-0.14166447333991527557373046875</LongitudeDegrees>
            </Position>
            <AltitudeMeters>2130</AltitudeMeters>
            <DistanceMeters>10945.601018342</DistanceMeters>
          </Trackpoint>
          <Trackpoint>
            <Time>2022-07-09T10:32:23.000Z</Time>
            <Position>
              <LatitudeDegrees>42.7927855588495731353759765625</LatitudeDegrees>
              <LongitudeDegrees>-0.14166279695928096771240234375</LongitudeDegrees>
            </Position>
            <AltitudeMeters>2130</AltitudeMeters>
            <DistanceMeters>10946.951601713</DistanceMeters>
          </Trackpoint>
          <Trackpoint>
            <Time>2022-07-09T10:32:26.000Z</Time>
            <Position>
              <LatitudeDegrees>42.79276284389197826385498046875</LatitudeDegrees>
              <LongitudeDegrees>-0.141653828322887420654296875</LongitudeDegrees>
            </Position>
            <AltitudeMeters>2129.800048828125</AltitudeMeters>
            <DistanceMeters>10949.581628054</DistanceMeters>
          </Trackpoint>
          <Trackpoint>
            <Time>2022-07-09T10:32:28.000Z</Time>
            <Position>
              <LatitudeDegrees>42.79274356551468372344970703125</LatitudeDegrees>
              <LongitudeDegrees>-0.1416372321546077728271484375</LongitudeDegrees>
            </Position>
            <AltitudeMeters>2129.800048828125</AltitudeMeters>
            <DistanceMeters>10952.120815834</DistanceMeters>
          </Trackpoint>
          <Trackpoint>
            <Time>2022-07-09T10:32:29.000Z</Time>
            <Position>
              <LatitudeDegrees>42.79272579587996006011962890625</LatitudeDegrees>
              <LongitudeDegrees>-0.14162859879434108734130859375</LongitudeDegrees>
            </Position>
            <AltitudeMeters>2129.800048828125</AltitudeMeters>
            <DistanceMeters>10954.220024567</DistanceMeters>
          </Trackpoint>
          <Trackpoint>
            <Time>2022-07-09T10:32:31.000Z</Time>
            <Position>
              <LatitudeDegrees>42.7926950342953205108642578125</LatitudeDegrees>
              <LongitudeDegrees>-0.14159222133457660675048828125</LongitudeDegrees>
            </Position>
            <AltitudeMeters>2129.800048828125</AltitudeMeters>
            <DistanceMeters>10958.751513708</DistanceMeters>
          </Trackpoint>
          <Trackpoint>
            <Time>2022-07-09T10:32:37.000Z</Time>
            <Position>
              <LatitudeDegrees>42.792700566351413726806640625</LatitudeDegrees>
              <LongitudeDegrees>-0.14151108451187610626220703125</LongitudeDegrees>
            </Position>
            <AltitudeMeters>2130.800048828125</AltitudeMeters>
            <DistanceMeters>10965.406098209</DistanceMeters>
          </Trackpoint>
          <Trackpoint>
            <Time>2022-07-09T10:32:38.000Z</Time>
            <Position>
              <LatitudeDegrees>42.792701907455921173095703125</LatitudeDegrees>
              <LongitudeDegrees>-0.141509659588336944580078125</LongitudeDegrees>
            </Position>
            <AltitudeMeters>2131</AltitudeMeters>
            <DistanceMeters>10965.618584402</DistanceMeters>
          </Trackpoint>
          <Trackpoint>
            <Time>2022-07-09T10:32:42.000Z</Time>
            <Position>
              <LatitudeDegrees>42.792711295187473297119140625</LatitudeDegrees>
              <LongitudeDegrees>-0.1414913870394229888916015625</LongitudeDegrees>
            </Position>
            <AltitudeMeters>2131.199951171875</AltitudeMeters>
            <DistanceMeters>10967.441512851</DistanceMeters>
          </Trackpoint>
          <Trackpoint>
            <Time>2022-07-09T10:32:45.000Z</Time>
            <Position>
              <LatitudeDegrees>42.792713642120361328125</LatitudeDegrees>
              <LongitudeDegrees>-0.14146347530186176300048828125</LongitudeDegrees>
            </Position>
            <AltitudeMeters>2131.60009765625</AltitudeMeters>
            <DistanceMeters>10969.735970209</DistanceMeters>
          </Trackpoint>
          <Trackpoint>
            <Time>2022-07-09T10:32:50.000Z</Time>
            <Position>
              <LatitudeDegrees>42.7927191741764545440673828125</LatitudeDegrees>
              <LongitudeDegrees>-0.1414417661726474761962890625</LongitudeDegrees>
            </Position>
            <AltitudeMeters>2131.800048828125</AltitudeMeters>
            <DistanceMeters>10971.612597453</DistanceMeters>
          </Trackpoint>
          <Trackpoint>
            <Time>2022-07-09T10:32:52.000Z</Time>
            <Position>
              <LatitudeDegrees>42.79271858744323253631591796875</LatitudeDegrees>
              <LongitudeDegrees>-0.14143330045044422149658203125</LongitudeDegrees>
            </Position>
            <AltitudeMeters>2132</AltitudeMeters>
            <DistanceMeters>10972.304402376</DistanceMeters>
          </Trackpoint>
          <Trackpoint>
            <Time>2022-07-09T10:32:58.000Z</Time>
            <Position>
              <LatitudeDegrees>42.79269763268530368804931640625</LatitudeDegrees>
              <LongitudeDegrees>-0.141415782272815704345703125</LongitudeDegrees>
            </Position>
            <AltitudeMeters>2131.800048828125</AltitudeMeters>
            <DistanceMeters>10975.03879505</DistanceMeters>
          </Trackpoint>
          <Trackpoint>
            <Time>2022-07-09T10:32:59.000Z</Time>
            <Position>
              <LatitudeDegrees>42.792694866657257080078125</LatitudeDegrees>
              <LongitudeDegrees>-0.1414154469966888427734375</LongitudeDegrees>
            </Position>
            <AltitudeMeters>2132</AltitudeMeters>
            <DistanceMeters>10975.339295906</DistanceMeters>
          </Trackpoint>
          <Trackpoint>
            <Time>2022-07-09T10:33:03.000Z</Time>
            <Position>
              <LatitudeDegrees>42.792691849172115325927734375</LatitudeDegrees>
              <LongitudeDegrees>-0.14141905121505260467529296875</LongitudeDegrees>
            </Position>
            <AltitudeMeters>2133.199951171875</AltitudeMeters>
            <DistanceMeters>10975.795028018</DistanceMeters>
          </Trackpoint>
          <Trackpoint>
            <Time>2022-07-09T10:33:05.000Z</Time>
            <Position>
              <LatitudeDegrees>42.79269092716276645660400390625</LatitudeDegrees>
              <LongitudeDegrees>-0.141408741474151611328125</LongitudeDegrees>
            </Position>
            <AltitudeMeters>2133.39990234375</AltitudeMeters>
            <DistanceMeters>10976.64497279</DistanceMeters>
          </Trackpoint>
          <Trackpoint>
            <Time>2022-07-09T10:33:06.000Z</Time>
            <Position>
              <LatitudeDegrees>42.7927030809223651885986328125</LatitudeDegrees>
              <LongitudeDegrees>-0.14140815474092960357666015625</LongitudeDegrees>
            </Position>
            <AltitudeMeters>2133.800048828125</AltitudeMeters>
            <DistanceMeters>10977.995556161</DistanceMeters>
          </Trackpoint>
          <Trackpoint>
            <Time>2022-07-09T10:33:08.000Z</Time>
            <Position>
              <LatitudeDegrees>42.7927123010158538818359375</LatitudeDegrees>
              <LongitudeDegrees>-0.14139709062874317169189453125</LongitudeDegrees>
            </Position>
            <AltitudeMeters>2134.39990234375</AltitudeMeters>
            <DistanceMeters>10979.359446094</DistanceMeters>
          </Trackpoint>
          <Trackpoint>
            <Time>2022-07-09T10:33:11.000Z</Time>
            <Position>
              <LatitudeDegrees>42.79273669235408306121826171875</LatitudeDegrees>
              <LongitudeDegrees>-0.1413525827229022979736328125</LongitudeDegrees>
            </Position>
            <AltitudeMeters>2134.800048828125</AltitudeMeters>
            <DistanceMeters>10983.896909514</DistanceMeters>
          </Trackpoint>
          <Trackpoint>
            <Time>2022-07-09T10:33:16.000Z</Time>
            <Position>
              <LatitudeDegrees>42.792762257158756256103515625</LatitudeDegrees>
              <LongitudeDegrees>-0.141367502510547637939453125</LongitudeDegrees>
            </Position>
            <AltitudeMeters>2135.199951171875</AltitudeMeters>
            <DistanceMeters>10986.990755184</DistanceMeters>
          </Trackpoint>
          <Trackpoint>
            <Time>2022-07-09T10:33:17.000Z</Time>
            <Position>
              <LatitudeDegrees>42.79273702763020992279052734375</LatitudeDegrees>
              <LongitudeDegrees>-0.141369514167308807373046875</LongitudeDegrees>
            </Position>
            <AltitudeMeters>2135.199951171875</AltitudeMeters>
            <DistanceMeters>10989.801683303</DistanceMeters>
          </Trackpoint>
          <Trackpoint>
            <Time>2022-07-09T10:33:23.000Z</Time>
            <Position>
              <LatitudeDegrees>42.792775668203830718994140625</LatitudeDegrees>
              <LongitudeDegrees>-0.14138250611722469329833984375</LongitudeDegrees>
            </Position>
            <AltitudeMeters>2135.199951171875</AltitudeMeters>
            <DistanceMeters>10994.230376794</DistanceMeters>
          </Trackpoint>
          <Trackpoint>
            <Time>2022-07-09T10:33:26.000Z</Time>
            <Position>
              <LatitudeDegrees>42.79278136789798736572265625</LatitudeDegrees>
              <LongitudeDegrees>-0.1413633115589618682861328125</LongitudeDegrees>
            </Position>
            <AltitudeMeters>2135.199951171875</AltitudeMeters>
            <DistanceMeters>10995.922279342</DistanceMeters>
          </Trackpoint>
          <Trackpoint>
            <Time>2022-07-09T10:33:31.000Z</Time>
            <Position>
              <LatitudeDegrees>42.79281330294907093048095703125</LatitudeDegrees>
              <LongitudeDegrees>-0.14135350473225116729736328125</LongitudeDegrees>
            </Position>
            <AltitudeMeters>2135.39990234375</AltitudeMeters>
            <DistanceMeters>10999.565658594</DistanceMeters>
          </Trackpoint>
          <Trackpoint>
            <Time>2022-07-09T10:33:33.000Z</Time>
            <Position>
              <LatitudeDegrees>42.7928194217383861541748046875</LatitudeDegrees>
              <LongitudeDegrees>-0.14135216362774372100830078125</LongitudeDegrees>
            </Position>
            <AltitudeMeters>2135.800048828125</AltitudeMeters>
            <DistanceMeters>11000.250905976</DistanceMeters>
          </Trackpoint>
          <Trackpoint>
            <Time>2022-07-09T10:33:36.000Z</Time>
            <Position>
              <LatitudeDegrees>42.79281917028129100799560546875</LatitudeDegrees>
              <LongitudeDegrees>-0.1413663290441036224365234375</LongitudeDegrees>
            </Position>
            <AltitudeMeters>2136.60009765625</AltitudeMeters>
            <DistanceMeters>11001.406955851</DistanceMeters>
          </Trackpoint>
          <Trackpoint>
            <Time>2022-07-09T10:33:39.000Z</Time>
            <Position>
              <LatitudeDegrees>42.79280508868396282196044921875</LatitudeDegrees>
              <LongitudeDegrees>-0.14138602651655673980712890625</LongitudeDegrees>
            </Position>
            <AltitudeMeters>2137.199951171875</AltitudeMeters>
            <DistanceMeters>11003.651679143</DistanceMeters>
          </Trackpoint>
          <Trackpoint>
            <Time>2022-07-09T10:33:44.000Z</Time>
            <Position>
              <LatitudeDegrees>42.7927922643721103668212890625</LatitudeDegrees>
              <LongitudeDegrees>-0.1413938216865062713623046875</LongitudeDegrees>
            </Position>
            <AltitudeMeters>2137.60009765625</AltitudeMeters>
            <DistanceMeters>11005.213127394</DistanceMeters>
          </Trackpoint>
          <Trackpoint>
            <Time>2022-07-09T10:33:46.000Z</Time>
            <Position>
              <LatitudeDegrees>42.79277558438479900360107421875</LatitudeDegrees>
              <LongitudeDegrees>-0.141400359570980072021484375</LongitudeDegrees>
            </Position>
            <AltitudeMeters>2137.800048828125</AltitudeMeters>
            <DistanceMeters>11007.146634996</DistanceMeters>
          </Trackpoint>
          <Trackpoint>
            <Time>2022-07-09T10:33:52.000Z</Time>
            <Position>
              <LatitudeDegrees>42.7927812002599239349365234375</LatitudeDegrees>
              <LongitudeDegrees>-0.14141435734927654266357421875</LongitudeDegrees>
            </Position>
            <AltitudeMeters>2137.800048828125</AltitudeMeters>
            <DistanceMeters>11008.449575659</DistanceMeters>
          </Trackpoint>
          <Trackpoint>
            <Time>2022-07-09T10:33:57.000Z</Time>
            <Position>
              <LatitudeDegrees>42.792788408696651458740234375</LatitudeDegrees>
              <LongitudeDegrees>-0.14141921885311603546142578125</LongitudeDegrees>
            </Position>
            <AltitudeMeters>2138</AltitudeMeters>
            <DistanceMeters>11009.341005256</DistanceMeters>
          </Trackpoint>
          <Trackpoint>
            <Time>2022-07-09T10:34:03.000Z</Time>
            <Position>
              <LatitudeDegrees>42.7927808649837970733642578125</LatitudeDegrees>
              <LongitudeDegrees>-0.14143480919301509857177734375</LongitudeDegrees>
            </Position>
            <AltitudeMeters>2137.800048828125</AltitudeMeters>
            <DistanceMeters>11010.861432686</DistanceMeters>
          </Trackpoint>
          <Trackpoint>
            <Time>2022-07-09T10:34:04.000Z</Time>
            <Position>
              <LatitudeDegrees>42.7927842177450656890869140625</LatitudeDegrees>
              <LongitudeDegrees>-0.1414320431649684906005859375</LongitudeDegrees>
            </Position>
            <AltitudeMeters>2137.800048828125</AltitudeMeters>
            <DistanceMeters>11011.286405072</DistanceMeters>
          </Trackpoint>
          <Trackpoint>
            <Time>2022-07-09T10:34:08.000Z</Time>
            <Position>
              <LatitudeDegrees>42.79279285110533237457275390625</LatitudeDegrees>
              <LongitudeDegrees>-0.14143313281238079071044921875</LongitudeDegrees>
            </Position>
            <AltitudeMeters>2137.199951171875</AltitudeMeters>
            <DistanceMeters>11012.255491214</DistanceMeters>
          </Trackpoint>
          <Trackpoint>
            <Time>2022-07-09T10:34:14.000Z</Time>
            <Position>
              <LatitudeDegrees>42.79281313531100749969482421875</LatitudeDegrees>
              <LongitudeDegrees>-0.14138468541204929351806640625</LongitudeDegrees>
            </Position>
            <AltitudeMeters>2137.60009765625</AltitudeMeters>
            <DistanceMeters>11016.810830462</DistanceMeters>
          </Trackpoint>
          <Trackpoint>
            <Time>2022-07-09T10:34:16.000Z</Time>
            <Position>
              <LatitudeDegrees>42.79282025992870330810546875</LatitudeDegrees>
              <LongitudeDegrees>-0.14138401485979557037353515625</LongitudeDegrees>
            </Position>
            <AltitudeMeters>2137.60009765625</AltitudeMeters>
            <DistanceMeters>11017.617158872</DistanceMeters>
          </Trackpoint>
          <Trackpoint>
            <Time>2022-07-09T10:34:19.000Z</Time>
            <Position>
              <LatitudeDegrees>42.7928180806338787078857421875</LatitudeDegrees>
              <LongitudeDegrees>-0.14137714169919490814208984375</LongitudeDegrees>
            </Position>
            <AltitudeMeters>2137.199951171875</AltitudeMeters>
            <DistanceMeters>11018.233002367</DistanceMeters>
          </Trackpoint>
          <Trackpoint>
            <Time>2022-07-09T10:34:20.000Z</Time>
            <Position>
              <LatitudeDegrees>42.7928102016448974609375</LatitudeDegrees>
              <LongitudeDegrees>-0.14137311838567256927490234375</LongitudeDegrees>
            </Position>
            <AltitudeMeters>2137.199951171875</AltitudeMeters>
            <DistanceMeters>11019.168906964</DistanceMeters>
          </Trackpoint>
          <Trackpoint>
            <Time>2022-07-09T10:34:23.000Z</Time>
            <Position>
              <LatitudeDegrees>42.7928023226559162139892578125</LatitudeDegrees>
              <LongitudeDegrees>-0.14137328602373600006103515625</LongitudeDegrees>
            </Position>
            <AltitudeMeters>2137</AltitudeMeters>
            <DistanceMeters>11020.039841188</DistanceMeters>
          </Trackpoint>
          <Trackpoint>
            <Time>2022-07-09T10:34:29.000Z</Time>
            <Position>
              <LatitudeDegrees>42.79279653914272785186767578125</LatitudeDegrees>
              <LongitudeDegrees>-0.14140815474092960357666015625</LongitudeDegrees>
            </Position>
            <AltitudeMeters>2137</AltitudeMeters>
            <DistanceMeters>11022.957950522</DistanceMeters>
          </Trackpoint>
          <Trackpoint>
            <Time>2022-07-09T10:34:33.000Z</Time>
            <Position>
              <LatitudeDegrees>42.79280894435942173004150390625</LatitudeDegrees>
              <LongitudeDegrees>-0.1414115913212299346923828125</LongitudeDegrees>
            </Position>
            <AltitudeMeters>2137.199951171875</AltitudeMeters>
            <DistanceMeters>11024.367424473</DistanceMeters>
          </Trackpoint>
          <Trackpoint>
            <Time>2022-07-09T10:34:39.000Z</Time>
            <Position>
              <LatitudeDegrees>42.79279788024723529815673828125</LatitudeDegrees>
              <LongitudeDegrees>-0.14142374508082866668701171875</LongitudeDegrees>
            </Position>
            <AltitudeMeters>2137.199951171875</AltitudeMeters>
            <DistanceMeters>11025.948984201</DistanceMeters>
          </Trackpoint>
          <Trackpoint>
            <Time>2022-07-09T10:34:41.000Z</Time>
            <Position>
              <LatitudeDegrees>42.79279285110533237457275390625</LatitudeDegrees>
              <LongitudeDegrees>-0.1414266787469387054443359375</LongitudeDegrees>
            </Position>
            <AltitudeMeters>2137.60009765625</AltitudeMeters>
            <DistanceMeters>11026.549985913</DistanceMeters>
          </Trackpoint>
          <Trackpoint>
            <Time>2022-07-09T10:34:43.000Z</Time>
            <Position>
              <LatitudeDegrees>42.79278815723955631256103515625</LatitudeDegrees>
              <LongitudeDegrees>-0.141424499452114105224609375</LongitudeDegrees>
            </Position>
            <AltitudeMeters>2138</AltitudeMeters>
            <DistanceMeters>11027.104082113</DistanceMeters>
          </Trackpoint>
          <Trackpoint>
            <Time>2022-07-09T10:34:47.000Z</Time>
            <Position>
              <LatitudeDegrees>42.79278648085892200469970703125</LatitudeDegrees>
              <LongitudeDegrees>-0.14141854830086231231689453125</LongitudeDegrees>
            </Position>
            <AltitudeMeters>2138.199951171875</AltitudeMeters>
            <DistanceMeters>11027.624564864</DistanceMeters>
          </Trackpoint>
          <Trackpoint>
            <Time>2022-07-09T10:34:50.000Z</Time>
            <Position>
              <LatitudeDegrees>42.79276284389197826385498046875</LatitudeDegrees>
              <LongitudeDegrees>-0.14140781946480274200439453125</LongitudeDegrees>
            </Position>
            <AltitudeMeters>2137.800048828125</AltitudeMeters>
            <DistanceMeters>11030.39667508</DistanceMeters>
          </Trackpoint>
          <Trackpoint>
            <Time>2022-07-09T10:34:54.000Z</Time>
            <Position>
              <LatitudeDegrees>42.7927614189684391021728515625</LatitudeDegrees>
              <LongitudeDegrees>-0.14141905121505260467529296875</LongitudeDegrees>
            </Position>
            <AltitudeMeters>2137.39990234375</AltitudeMeters>
            <DistanceMeters>11031.327742929</DistanceMeters>
          </Trackpoint>
          <Trackpoint>
            <Time>2022-07-09T10:35:00.000Z</Time>
            <Position>
              <LatitudeDegrees>42.7927694655954837799072265625</LatitudeDegrees>
              <LongitudeDegrees>-0.1414239965379238128662109375</LongitudeDegrees>
            </Position>
            <AltitudeMeters>2137.39990234375</AltitudeMeters>
            <DistanceMeters>11032.315289513</DistanceMeters>
          </Trackpoint>
          <Trackpoint>
            <Time>2022-07-09T10:35:01.000Z</Time>
            <Position>
              <LatitudeDegrees>42.792771644890308380126953125</LatitudeDegrees>
              <LongitudeDegrees>-0.1414286904036998748779296875</LongitudeDegrees>
            </Position>
            <AltitudeMeters>2137.39990234375</AltitudeMeters>
            <DistanceMeters>11032.761004312</DistanceMeters>
          </Trackpoint>
          <Trackpoint>
            <Time>2022-07-09T10:35:07.000Z</Time>
            <Position>
              <LatitudeDegrees>42.79278539121150970458984375</LatitudeDegrees>
              <LongitudeDegrees>-0.14146733097732067108154296875</LongitudeDegrees>
            </Position>
            <AltitudeMeters>2136</AltitudeMeters>
            <DistanceMeters>11036.269279414</DistanceMeters>
          </Trackpoint>
          <Trackpoint>
            <Time>2022-07-09T10:35:08.000Z</Time>
            <Position>
              <LatitudeDegrees>42.792786397039890289306640625</LatitudeDegrees>
              <LongitudeDegrees>-0.14147303067147731781005859375</LongitudeDegrees>
            </Position>
            <AltitudeMeters>2136</AltitudeMeters>
            <DistanceMeters>11036.753822485</DistanceMeters>
          </Trackpoint>
          <Trackpoint>
            <Time>2022-07-09T10:35:14.000Z</Time>
            <Position>
              <LatitudeDegrees>42.792789749801158905029296875</LatitudeDegrees>
              <LongitudeDegrees>-0.14148325659334659576416015625</LongitudeDegrees>
            </Position>
            <AltitudeMeters>2137</AltitudeMeters>
            <DistanceMeters>11037.670226931</DistanceMeters>
          </Trackpoint>
          <Trackpoint>
            <Time>2022-07-09T10:35:17.000Z</Time>
            <Position>
              <LatitudeDegrees>42.7928117103874683380126953125</LatitudeDegrees>
              <LongitudeDegrees>-0.14147579669952392578125</LongitudeDegrees>
            </Position>
            <AltitudeMeters>2137.199951171875</AltitudeMeters>
            <DistanceMeters>11040.187986583</DistanceMeters>
          </Trackpoint>
          <Trackpoint>
            <Time>2022-07-09T10:35:19.000Z</Time>
            <Position>
              <LatitudeDegrees>42.7928003109991550445556640625</LatitudeDegrees>
              <LongitudeDegrees>-0.14146842062473297119140625</LongitudeDegrees>
            </Position>
            <AltitudeMeters>2137.199951171875</AltitudeMeters>
            <DistanceMeters>11041.591039207</DistanceMeters>
          </Trackpoint>
          <Trackpoint>
            <Time>2022-07-09T10:35:21.000Z</Time>
            <Position>
              <LatitudeDegrees>42.79277944006025791168212890625</LatitudeDegrees>
              <LongitudeDegrees>-0.1414575241506099700927734375</LongitudeDegrees>
            </Position>
            <AltitudeMeters>2137.199951171875</AltitudeMeters>
            <DistanceMeters>11044.079941061</DistanceMeters>
          </Trackpoint>
          <Trackpoint>
            <Time>2022-07-09T10:35:23.000Z</Time>
            <Position>
              <LatitudeDegrees>42.7927426435053348541259765625</LatitudeDegrees>
              <LongitudeDegrees>-0.1414404250681400299072265625</LongitudeDegrees>
            </Position>
            <AltitudeMeters>2137.199951171875</AltitudeMeters>
            <DistanceMeters>11048.407570729</DistanceMeters>
          </Trackpoint>
          <Trackpoint>
            <Time>2022-07-09T10:35:24.000Z</Time>
            <Position>
              <LatitudeDegrees>42.79271942563354969024658203125</LatitudeDegrees>
              <LongitudeDegrees>-0.14142307452857494354248046875</LongitudeDegrees>
            </Position>
            <AltitudeMeters>2137.199951171875</AltitudeMeters>
            <DistanceMeters>11051.354931165</DistanceMeters>
          </Trackpoint>
          <Trackpoint>
            <Time>2022-07-09T10:35:26.000Z</Time>
            <Position>
              <LatitudeDegrees>42.7926802821457386016845703125</LatitudeDegrees>
              <LongitudeDegrees>-0.14139960519969463348388671875</LongitudeDegrees>
            </Position>
            <AltitudeMeters>2137.199951171875</AltitudeMeters>
            <DistanceMeters>11056.114811605</DistanceMeters>
          </Trackpoint>
          <Trackpoint>
            <Time>2022-07-09T10:35:32.000Z</Time>
            <Position>
              <LatitudeDegrees>42.7927205152809619903564453125</LatitudeDegrees>
              <LongitudeDegrees>-0.14144570566713809967041015625</LongitudeDegrees>
            </Position>
            <AltitudeMeters>2137.199951171875</AltitudeMeters>
            <DistanceMeters>11061.96493893</DistanceMeters>
          </Trackpoint>
          <Trackpoint>
            <Time>2022-07-09T10:35:34.000Z</Time>
            <Position>
              <LatitudeDegrees>42.79272831045091152191162109375</LatitudeDegrees>
              <LongitudeDegrees>-0.141465403139591217041015625</LongitudeDegrees>
            </Position>
            <AltitudeMeters>2137.199951171875</AltitudeMeters>
            <DistanceMeters>11063.790342504</DistanceMeters>
          </Trackpoint>
          <Trackpoint>
            <Time>2022-07-09T10:35:40.000Z</Time>
            <Position>
              <LatitudeDegrees>42.7927989698946475982666015625</LatitudeDegrees>
              <LongitudeDegrees>-0.14147789217531681060791015625</LongitudeDegrees>
            </Position>
            <AltitudeMeters>2137.199951171875</AltitudeMeters>
            <DistanceMeters>11071.720946669</DistanceMeters>
          </Trackpoint>
          <Trackpoint>
            <Time>2022-07-09T10:35:41.000Z</Time>
            <Position>
              <LatitudeDegrees>42.7928117103874683380126953125</LatitudeDegrees>
              <LongitudeDegrees>-0.1414783112704753875732421875</LongitudeDegrees>
            </Position>
            <AltitudeMeters>2137.199951171875</AltitudeMeters>
            <DistanceMeters>11073.136812825</DistanceMeters>
          </Trackpoint>
          <Trackpoint>
            <Time>2022-07-09T10:35:47.000Z</Time>
            <Position>
              <LatitudeDegrees>42.79276988469064235687255859375</LatitudeDegrees>
              <LongitudeDegrees>-0.14143489301204681396484375</LongitudeDegrees>
            </Position>
            <AltitudeMeters>2137.199951171875</AltitudeMeters>
            <DistanceMeters>11078.989255046</DistanceMeters>
          </Trackpoint>
          <Trackpoint>
            <Time>2022-07-09T10:35:49.000Z</Time>
            <Position>
              <LatitudeDegrees>42.79277239926159381866455078125</LatitudeDegrees>
              <LongitudeDegrees>-0.14143732376396656036376953125</LongitudeDegrees>
            </Position>
            <AltitudeMeters>2137.199951171875</AltitudeMeters>
            <DistanceMeters>11079.318437241</DistanceMeters>
          </Trackpoint>
          <Trackpoint>
            <Time>2022-07-09T10:35:54.000Z</Time>
            <Position>
              <LatitudeDegrees>42.79279410839080810546875</LatitudeDegrees>
              <LongitudeDegrees>-0.14145006425678730010986328125</LongitudeDegrees>
            </Position>
            <AltitudeMeters>2137.199951171875</AltitudeMeters>
            <DistanceMeters>11081.948463582</DistanceMeters>
          </Trackpoint>
          <Trackpoint>
            <Time>2022-07-09T10:36:00.000Z</Time>
            <Position>
              <LatitudeDegrees>42.79282872565090656280517578125</LatitudeDegrees>
              <LongitudeDegrees>-0.14145157299935817718505859375</LongitudeDegrees>
            </Position>
            <AltitudeMeters>2137.199951171875</AltitudeMeters>
            <DistanceMeters>11085.803785336</DistanceMeters>
          </Trackpoint>
          <Trackpoint>
            <Time>2022-07-09T10:36:05.000Z</Time>
            <Position>
              <LatitudeDegrees>42.79281917028129100799560546875</LatitudeDegrees>
              <LongitudeDegrees>-0.141447298228740692138671875</LongitudeDegrees>
            </Position>
            <AltitudeMeters>2137.199951171875</AltitudeMeters>
            <DistanceMeters>11086.920096471</DistanceMeters>
          </Trackpoint>
          <Trackpoint>
            <Time>2022-07-09T10:36:11.000Z</Time>
            <Position>
              <LatitudeDegrees>42.79286141507327556610107421875</LatitudeDegrees>
              <LongitudeDegrees>-0.14137865044176578521728515625</LongitudeDegrees>
            </Position>
            <AltitudeMeters>2137.199951171875</AltitudeMeters>
            <DistanceMeters>11094.237153477</DistanceMeters>
          </Trackpoint>
          <Trackpoint>
            <Time>2022-07-09T10:36:16.000Z</Time>
            <Position>
              <LatitudeDegrees>42.792871557176113128662109375</LatitudeDegrees>
              <LongitudeDegrees>-0.14140731655061244964599609375</LongitudeDegrees>
            </Position>
            <AltitudeMeters>2137.199951171875</AltitudeMeters>
            <DistanceMeters>11096.836095027</DistanceMeters>
          </Trackpoint>
          <Trackpoint>
            <Time>2022-07-09T10:36:22.000Z</Time>
            <Position>
              <LatitudeDegrees>42.79285001568496227264404296875</LatitudeDegrees>
              <LongitudeDegrees>-0.14139306731522083282470703125</LongitudeDegrees>
            </Position>
            <AltitudeMeters>2137.199951171875</AltitudeMeters>
            <DistanceMeters>11099.500234679</DistanceMeters>
          </Trackpoint>
          <Trackpoint>
            <Time>2022-07-09T10:36:28.000Z</Time>
            <Position>
              <LatitudeDegrees>42.7928730659186840057373046875</LatitudeDegrees>
              <LongitudeDegrees>-0.14134327881038188934326171875</LongitudeDegrees>
            </Position>
            <AltitudeMeters>2137.199951171875</AltitudeMeters>
            <DistanceMeters>11104.308248375</DistanceMeters>
          </Trackpoint>
          <Trackpoint>
            <Time>2022-07-09T10:36:33.000Z</Time>
            <Position>
              <LatitudeDegrees>42.79285672120749950408935546875</LatitudeDegrees>
              <LongitudeDegrees>-0.141414441168308258056640625</LongitudeDegrees>
            </Position>
            <AltitudeMeters>2137.199951171875</AltitudeMeters>
            <DistanceMeters>11110.398860334</DistanceMeters>
          </Trackpoint>
          <Trackpoint>
            <Time>2022-07-09T10:36:37.000Z</Time>
            <Position>
              <LatitudeDegrees>42.79283375479280948638916015625</LatitudeDegrees>
              <LongitudeDegrees>-0.14137496240437030792236328125</LongitudeDegrees>
            </Position>
            <AltitudeMeters>2137.199951171875</AltitudeMeters>
            <DistanceMeters>11114.512540347</DistanceMeters>
          </Trackpoint>
          <Trackpoint>
            <Time>2022-07-09T10:36:43.000Z</Time>
            <Position>
              <LatitudeDegrees>42.79282403178513050079345703125</LatitudeDegrees>
              <LongitudeDegrees>-0.14137479476630687713623046875</LongitudeDegrees>
            </Position>
            <AltitudeMeters>2137.199951171875</AltitudeMeters>
            <DistanceMeters>11115.587644893</DistanceMeters>
          </Trackpoint>
          <Trackpoint>
            <Time>2022-07-09T10:36:44.000Z</Time>
            <Position>
              <LatitudeDegrees>42.7928241156041622161865234375</LatitudeDegrees>
              <LongitudeDegrees>-0.14136943034827709197998046875</LongitudeDegrees>
            </Position>
            <AltitudeMeters>2137.199951171875</AltitudeMeters>
            <DistanceMeters>11116.033359692</DistanceMeters>
          </Trackpoint>
          <Trackpoint>
            <Time>2022-07-09T10:36:48.000Z</Time>
            <Position>
              <LatitudeDegrees>42.79281782917678356170654296875</LatitudeDegrees>
              <LongitudeDegrees>-0.141344703733921051025390625</LongitudeDegrees>
            </Position>
            <AltitudeMeters>2137.199951171875</AltitudeMeters>
            <DistanceMeters>11118.170932774</DistanceMeters>
          </Trackpoint>
          <Trackpoint>
            <Time>2022-07-09T10:36:52.000Z</Time>
            <Position>
              <LatitudeDegrees>42.7928143925964832305908203125</LatitudeDegrees>
              <LongitudeDegrees>-0.1413364894688129425048828125</LongitudeDegrees>
            </Position>
            <AltitudeMeters>2137.199951171875</AltitudeMeters>
            <DistanceMeters>11118.942933451</DistanceMeters>
          </Trackpoint>
          <Trackpoint>
            <Time>2022-07-09T10:36:57.000Z</Time>
            <Position>
              <LatitudeDegrees>42.79280290938913822174072265625</LatitudeDegrees>
              <LongitudeDegrees>-0.1413317956030368804931640625</LongitudeDegrees>
            </Position>
            <AltitudeMeters>2137.199951171875</AltitudeMeters>
            <DistanceMeters>11120.273307452</DistanceMeters>
          </Trackpoint>
          <Trackpoint>
            <Time>2022-07-09T10:37:03.000Z</Time>
            <Position>
              <LatitudeDegrees>42.79282839037477970123291015625</LatitudeDegrees>
              <LongitudeDegrees>-0.14132735319435596466064453125</LongitudeDegrees>
            </Position>
            <AltitudeMeters>2137.199951171875</AltitudeMeters>
            <DistanceMeters>11123.133595769</DistanceMeters>
          </Trackpoint>
          <Trackpoint>
            <Time>2022-07-09T10:37:04.000Z</Time>
            <Position>
              <LatitudeDegrees>42.7928314916789531707763671875</LatitudeDegrees>
              <LongitudeDegrees>-0.14132383279502391815185546875</LongitudeDegrees>
            </Position>
            <AltitudeMeters>2137.199951171875</AltitudeMeters>
            <DistanceMeters>11123.579310568</DistanceMeters>
          </Trackpoint>
          <Trackpoint>
            <Time>2022-07-09T10:37:08.000Z</Time>
            <Position>
              <LatitudeDegrees>42.79284129850566387176513671875</LatitudeDegrees>
              <LongitudeDegrees>-0.14132031239569187164306640625</LongitudeDegrees>
            </Position>
            <AltitudeMeters>2137.199951171875</AltitudeMeters>
            <DistanceMeters>11124.707690282</DistanceMeters>
          </Trackpoint>
          <Trackpoint>
            <Time>2022-07-09T10:37:10.000Z</Time>
            <Position>
              <LatitudeDegrees>42.79283341951668262481689453125</LatitudeDegrees>
              <LongitudeDegrees>-0.14132048003375530242919921875</LongitudeDegrees>
            </Position>
            <AltitudeMeters>2137.199951171875</AltitudeMeters>
            <DistanceMeters>11125.578624505</DistanceMeters>
          </Trackpoint>
          <Trackpoint>
            <Time>2022-07-09T10:37:13.000Z</Time>
            <Position>
              <LatitudeDegrees>42.7928214333951473236083984375</LatitudeDegrees>
              <LongitudeDegrees>-0.141335316002368927001953125</LongitudeDegrees>
            </Position>
            <AltitudeMeters>2137.199951171875</AltitudeMeters>
            <DistanceMeters>11127.381629641</DistanceMeters>
          </Trackpoint>
          <Trackpoint>
            <Time>2022-07-09T10:37:16.000Z</Time>
            <Position>
              <LatitudeDegrees>42.79279989190399646759033203125</LatitudeDegrees>
              <LongitudeDegrees>-0.14134906232357025146484375</LongitudeDegrees>
            </Position>
            <AltitudeMeters>2137.199951171875</AltitudeMeters>
            <DistanceMeters>11130.02876759</DistanceMeters>
          </Trackpoint>
          <Trackpoint>
            <Time>2022-07-09T10:37:22.000Z</Time>
            <Position>
              <LatitudeDegrees>42.79281196184456348419189453125</LatitudeDegrees>
              <LongitudeDegrees>-0.14143531210720539093017578125</LongitudeDegrees>
            </Position>
            <AltitudeMeters>2137.199951171875</AltitudeMeters>
            <DistanceMeters>11137.199350221</DistanceMeters>
          </Trackpoint>
          <Trackpoint>
            <Time>2022-07-09T10:37:23.000Z</Time>
            <Position>
              <LatitudeDegrees>42.792821265757083892822265625</LatitudeDegrees>
              <LongitudeDegrees>-0.1414400897920131683349609375</LongitudeDegrees>
            </Position>
            <AltitudeMeters>2137.199951171875</AltitudeMeters>
            <DistanceMeters>11138.307542622</DistanceMeters>
          </Trackpoint>
          <Trackpoint>
            <Time>2022-07-09T10:37:28.000Z</Time>
            <Position>
              <LatitudeDegrees>42.79284347780048847198486328125</LatitudeDegrees>
              <LongitudeDegrees>-0.14143900014460086822509765625</LongitudeDegrees>
            </Position>
            <AltitudeMeters>2137.199951171875</AltitudeMeters>
            <DistanceMeters>11140.78188937</DistanceMeters>
          </Trackpoint>
          <Trackpoint>
            <Time>2022-07-09T10:37:34.000Z</Time>
            <Position>
              <LatitudeDegrees>42.79282235540449619293212890625</LatitudeDegrees>
              <LongitudeDegrees>-0.1414313726127147674560546875</LongitudeDegrees>
            </Position>
            <AltitudeMeters>2137.199951171875</AltitudeMeters>
            <DistanceMeters>11143.213905009</DistanceMeters>
          </Trackpoint>
          <Trackpoint>
            <Time>2022-07-09T10:37:39.000Z</Time>
            <Position>
              <LatitudeDegrees>42.79284129850566387176513671875</LatitudeDegrees>
              <LongitudeDegrees>-0.14142223633825778961181640625</LongitudeDegrees>
            </Position>
            <AltitudeMeters>2137.199951171875</AltitudeMeters>
            <DistanceMeters>11145.452585966</DistanceMeters>
          </Trackpoint>
          <Trackpoint>
            <Time>2022-07-09T10:37:40.000Z</Time>
            <Position>
              <LatitudeDegrees>42.79284230433404445648193359375</LatitudeDegrees>
              <LongitudeDegrees>-0.1414196379482746124267578125</LongitudeDegrees>
            </Position>
            <AltitudeMeters>2137.199951171875</AltitudeMeters>
            <DistanceMeters>11145.685352928</DistanceMeters>
          </Trackpoint>
          <Trackpoint>
            <Time>2022-07-09T10:37:41.000Z</Time>
            <Position>
              <LatitudeDegrees>42.79283962212502956390380859375</LatitudeDegrees>
              <LongitudeDegrees>-0.14142005704343318939208984375</LongitudeDegrees>
            </Position>
            <AltitudeMeters>2137.199951171875</AltitudeMeters>
            <DistanceMeters>11145.985853784</DistanceMeters>
          </Trackpoint>
          <Trackpoint>
            <Time>2022-07-09T10:37:43.000Z</Time>
            <Position>
              <LatitudeDegrees>42.79283769428730010986328125</LatitudeDegrees>
              <LongitudeDegrees>-0.141423828899860382080078125</LongitudeDegrees>
            </Position>
            <AltitudeMeters>2137.199951171875</AltitudeMeters>
            <DistanceMeters>11146.365960642</DistanceMeters>
          </Trackpoint>
          <Trackpoint>
            <Time>2022-07-09T10:37:45.000Z</Time>
            <Position>
              <LatitudeDegrees>42.79283643700182437896728515625</LatitudeDegrees>
              <LongitudeDegrees>-0.14143095351755619049072265625</LongitudeDegrees>
            </Position>
            <AltitudeMeters>2137.39990234375</AltitudeMeters>
            <DistanceMeters>11146.966962353</DistanceMeters>
          </Trackpoint>
          <Trackpoint>
            <Time>2022-07-09T10:37:47.000Z</Time>
            <Position>
              <LatitudeDegrees>42.7928351797163486480712890625</LatitudeDegrees>
              <LongitudeDegrees>-0.14143497683107852935791015625</LongitudeDegrees>
            </Position>
            <AltitudeMeters>2138</AltitudeMeters>
            <DistanceMeters>11147.322519761</DistanceMeters>
          </Trackpoint>
          <Trackpoint>
            <Time>2022-07-09T10:37:53.000Z</Time>
            <Position>
              <LatitudeDegrees>42.7927905879914760589599609375</LatitudeDegrees>
              <LongitudeDegrees>-0.14144017361104488372802734375</LongitudeDegrees>
            </Position>
            <AltitudeMeters>2137.800048828125</AltitudeMeters>
            <DistanceMeters>11152.303043829</DistanceMeters>
          </Trackpoint>
          <Trackpoint>
            <Time>2022-07-09T10:37:54.000Z</Time>
            <Position>
              <LatitudeDegrees>42.79278807342052459716796875</LatitudeDegrees>
              <LongitudeDegrees>-0.14144386164844036102294921875</LongitudeDegrees>
            </Position>
            <AltitudeMeters>2137.800048828125</AltitudeMeters>
            <DistanceMeters>11152.706208034</DistanceMeters>
          </Trackpoint>
          <Trackpoint>
            <Time>2022-07-09T10:38:00.000Z</Time>
            <Position>
              <LatitudeDegrees>42.79270634986460208892822265625</LatitudeDegrees>
              <LongitudeDegrees>-0.1414471305906772613525390625</LongitudeDegrees>
            </Position>
            <AltitudeMeters>2138.199951171875</AltitudeMeters>
            <DistanceMeters>11161.805977316</DistanceMeters>
          </Trackpoint>
          <Trackpoint>
            <Time>2022-07-09T10:38:02.000Z</Time>
            <Position>
              <LatitudeDegrees>42.7927191741764545440673828125</LatitudeDegrees>
              <LongitudeDegrees>-0.14144050888717174530029296875</LongitudeDegrees>
            </Position>
            <AltitudeMeters>2138.39990234375</AltitudeMeters>
            <DistanceMeters>11163.332332361</DistanceMeters>
          </Trackpoint>
          <Trackpoint>
            <Time>2022-07-09T10:38:08.000Z</Time>
            <Position>
              <LatitudeDegrees>42.7927902527153491973876953125</LatitudeDegrees>
              <LongitudeDegrees>-0.1414374075829982757568359375</LongitudeDegrees>
            </Position>
            <AltitudeMeters>2137.800048828125</AltitudeMeters>
            <DistanceMeters>11171.247550006</DistanceMeters>
          </Trackpoint>
          <Trackpoint>
            <Time>2022-07-09T10:38:09.000Z</Time>
            <Position>
              <LatitudeDegrees>42.7927981317043304443359375</LatitudeDegrees>
              <LongitudeDegrees>-0.14144034124910831451416015625</LongitudeDegrees>
            </Position>
            <AltitudeMeters>2137.800048828125</AltitudeMeters>
            <DistanceMeters>11172.154047086</DistanceMeters>
          </Trackpoint>
          <Trackpoint>
            <Time>2022-07-09T10:38:15.000Z</Time>
            <Position>
              <LatitudeDegrees>42.79281447641551494598388671875</LatitudeDegrees>
              <LongitudeDegrees>-0.1414625532925128936767578125</LongitudeDegrees>
            </Position>
            <AltitudeMeters>2137.60009765625</AltitudeMeters>
            <DistanceMeters>11174.725042216</DistanceMeters>
          </Trackpoint>
          <Trackpoint>
            <Time>2022-07-09T10:38:17.000Z</Time>
            <Position>
              <LatitudeDegrees>42.79280525632202625274658203125</LatitudeDegrees>
              <LongitudeDegrees>-0.1414712704718112945556640625</LongitudeDegrees>
            </Position>
            <AltitudeMeters>2137.800048828125</AltitudeMeters>
            <DistanceMeters>11175.971305891</DistanceMeters>
          </Trackpoint>
          <Trackpoint>
            <Time>2022-07-09T10:38:23.000Z</Time>
            <Position>
              <LatitudeDegrees>42.79280022718012332916259765625</LatitudeDegrees>
              <LongitudeDegrees>-0.14147470705211162567138671875</LongitudeDegrees>
            </Position>
            <AltitudeMeters>2137.39990234375</AltitudeMeters>
            <DistanceMeters>11176.594437729</DistanceMeters>
          </Trackpoint>
          <Trackpoint>
            <Time>2022-07-09T10:38:24.000Z</Time>
            <Position>
              <LatitudeDegrees>42.79280014336109161376953125</LatitudeDegrees>
              <LongitudeDegrees>-0.141472779214382171630859375</LongitudeDegrees>
            </Position>
            <AltitudeMeters>2137.39990234375</AltitudeMeters>
            <DistanceMeters>11176.728825797</DistanceMeters>
          </Trackpoint>
          <Trackpoint>
            <Time>2022-07-09T10:38:25.000Z</Time>
            <Position>
              <LatitudeDegrees>42.79279855079948902130126953125</LatitudeDegrees>
              <LongitudeDegrees>-0.1414726115763187408447265625</LongitudeDegrees>
            </Position>
            <AltitudeMeters>2137.199951171875</AltitudeMeters>
            <DistanceMeters>11176.893416894</DistanceMeters>
          </Trackpoint>
          <Trackpoint>
            <Time>2022-07-09T10:38:26.000Z</Time>
            <Position>
              <LatitudeDegrees>42.79279855079948902130126953125</LatitudeDegrees>
              <LongitudeDegrees>-0.14147336594760417938232421875</LongitudeDegrees>
            </Position>
            <AltitudeMeters>2137.199951171875</AltitudeMeters>
            <DistanceMeters>11176.893416894</DistanceMeters>
          </Trackpoint>
          <Trackpoint>
            <Time>2022-07-09T10:38:32.000Z</Time>
            <Position>
              <LatitudeDegrees>42.79279301874339580535888671875</LatitudeDegrees>
              <LongitudeDegrees>-0.14147051610052585601806640625</LongitudeDegrees>
            </Position>
            <AltitudeMeters>2137</AltitudeMeters>
            <DistanceMeters>11177.551781284</DistanceMeters>
          </Trackpoint>
          <Trackpoint>
            <Time>2022-07-09T10:38:36.000Z</Time>
            <Position>
              <LatitudeDegrees>42.7928013168275356292724609375</LatitudeDegrees>
              <LongitudeDegrees>-0.14146163128316402435302734375</LongitudeDegrees>
            </Position>
            <AltitudeMeters>2136.800048828125</AltitudeMeters>
            <DistanceMeters>11178.723349301</DistanceMeters>
          </Trackpoint>
          <Trackpoint>
            <Time>2022-07-09T10:38:37.000Z</Time>
            <Position>
              <LatitudeDegrees>42.7928060106933116912841796875</LatitudeDegrees>
              <LongitudeDegrees>-0.141463391482830047607421875</LongitudeDegrees>
            </Position>
            <AltitudeMeters>2136.800048828125</AltitudeMeters>
            <DistanceMeters>11179.260901574</DistanceMeters>
          </Trackpoint>
          <Trackpoint>
            <Time>2022-07-09T10:38:38.000Z</Time>
            <Position>
              <LatitudeDegrees>42.7928090281784534454345703125</LatitudeDegrees>
              <LongitudeDegrees>-0.141462050378322601318359375</LongitudeDegrees>
            </Position>
            <AltitudeMeters>2136.800048828125</AltitudeMeters>
            <DistanceMeters>11179.616458982</DistanceMeters>
          </Trackpoint>
          <Trackpoint>
            <Time>2022-07-09T10:38:44.000Z</Time>
            <Position>
              <LatitudeDegrees>42.79279771260917186737060546875</LatitudeDegrees>
              <LongitudeDegrees>-0.14148727990686893463134765625</LongitudeDegrees>
            </Position>
            <AltitudeMeters>2137</AltitudeMeters>
            <DistanceMeters>11182.031708324</DistanceMeters>
          </Trackpoint>
          <Trackpoint>
            <Time>2022-07-09T10:38:45.000Z</Time>
            <Position>
              <LatitudeDegrees>42.7927959524095058441162109375</LatitudeDegrees>
              <LongitudeDegrees>-0.14149515889585018157958984375</LongitudeDegrees>
            </Position>
            <AltitudeMeters>2137</AltitudeMeters>
            <DistanceMeters>11182.703648665</DistanceMeters>
          </Trackpoint>
          <Trackpoint>
            <Time>2022-07-09T10:38:47.000Z</Time>
            <Position>
              <LatitudeDegrees>42.79280022718012332916259765625</LatitudeDegrees>
              <LongitudeDegrees>-0.1415012776851654052734375</LongitudeDegrees>
            </Position>
            <AltitudeMeters>2137.199951171875</AltitudeMeters>
            <DistanceMeters>11183.382275145</DistanceMeters>
          </Trackpoint>
          <Trackpoint>
            <Time>2022-07-09T10:38:49.000Z</Time>
            <Position>
              <LatitudeDegrees>42.79280693270266056060791015625</LatitudeDegrees>
              <LongitudeDegrees>-0.1415074802935123443603515625</LongitudeDegrees>
            </Position>
            <AltitudeMeters>2137.199951171875</AltitudeMeters>
            <DistanceMeters>11184.283777712</DistanceMeters>
          </Trackpoint>
          <Trackpoint>
            <Time>2022-07-09T10:38:53.000Z</Time>
            <Position>
              <LatitudeDegrees>42.79282151721417903900146484375</LatitudeDegrees>
              <LongitudeDegrees>-0.1415068097412586212158203125</LongitudeDegrees>
            </Position>
            <AltitudeMeters>2137.199951171875</AltitudeMeters>
            <DistanceMeters>11185.910373052</DistanceMeters>
          </Trackpoint>
          <Trackpoint>
            <Time>2022-07-09T10:38:59.000Z</Time>
            <Position>
              <LatitudeDegrees>42.79282336123287677764892578125</LatitudeDegrees>
              <LongitudeDegrees>-0.1415121741592884063720703125</LongitudeDegrees>
            </Position>
            <AltitudeMeters>2137.199951171875</AltitudeMeters>
            <DistanceMeters>11186.394916123</DistanceMeters>
          </Trackpoint>
          <Trackpoint>
            <Time>2022-07-09T10:39:04.000Z</Time>
            <Position>
              <LatitudeDegrees>42.7928063459694385528564453125</LatitudeDegrees>
              <LongitudeDegrees>-0.1415041275322437286376953125</LongitudeDegrees>
            </Position>
            <AltitudeMeters>2137.199951171875</AltitudeMeters>
            <DistanceMeters>11188.397253242</DistanceMeters>
          </Trackpoint>
          <Trackpoint>
            <Time>2022-07-09T10:39:06.000Z</Time>
            <Position>
              <LatitudeDegrees>42.7927976287901401519775390625</LatitudeDegrees>
              <LongitudeDegrees>-0.1414940692484378814697265625</LongitudeDegrees>
            </Position>
            <AltitudeMeters>2137.199951171875</AltitudeMeters>
            <DistanceMeters>11189.665067743</DistanceMeters>
          </Trackpoint>
          <Trackpoint>
            <Time>2022-07-09T10:39:12.000Z</Time>
            <Position>
              <LatitudeDegrees>42.79279285110533237457275390625</LatitudeDegrees>
              <LongitudeDegrees>-0.1414717733860015869140625</LongitudeDegrees>
            </Position>
            <AltitudeMeters>2137.199951171875</AltitudeMeters>
            <DistanceMeters>11191.56084474</DistanceMeters>
          </Trackpoint>
          <Trackpoint>
            <Time>2022-07-09T10:39:14.000Z</Time>
            <Position>
              <LatitudeDegrees>42.79279234819114208221435546875</LatitudeDegrees>
              <LongitudeDegrees>-0.1414806582033634185791015625</LongitudeDegrees>
            </Position>
            <AltitudeMeters>2137.199951171875</AltitudeMeters>
            <DistanceMeters>11192.290758783</DistanceMeters>
          </Trackpoint>
          <Trackpoint>
            <Time>2022-07-09T10:39:15.000Z</Time>
            <Position>
              <LatitudeDegrees>42.79279151000082492828369140625</LatitudeDegrees>
              <LongitudeDegrees>-0.14148811809718608856201171875</LongitudeDegrees>
            </Position>
            <AltitudeMeters>2137.199951171875</AltitudeMeters>
            <DistanceMeters>11192.913890621</DistanceMeters>
          </Trackpoint>
          <Trackpoint>
            <Time>2022-07-09T10:39:16.000Z</Time>
            <Position>
              <LatitudeDegrees>42.79279385693371295928955078125</LatitudeDegrees>
              <LongitudeDegrees>-0.14149264432489871978759765625</LongitudeDegrees>
            </Position>
            <AltitudeMeters>2137.199951171875</AltitudeMeters>
            <DistanceMeters>11193.35960542</DistanceMeters>
          </Trackpoint>
          <Trackpoint>
            <Time>2022-07-09T10:39:22.000Z</Time>
            <Position>
              <LatitudeDegrees>42.7928061783313751220703125</LatitudeDegrees>
              <LongitudeDegrees>-0.1414873637259006500244140625</LongitudeDegrees>
            </Position>
            <AltitudeMeters>2137.199951171875</AltitudeMeters>
            <DistanceMeters>11194.794477341</DistanceMeters>
          </Trackpoint>
          <Trackpoint>
            <Time>2022-07-09T10:39:23.000Z</Time>
            <Position>
              <LatitudeDegrees>42.79280559159815311431884765625</LatitudeDegrees>
              <LongitudeDegrees>-0.1414893753826618194580078125</LongitudeDegrees>
            </Position>
            <AltitudeMeters>2137.199951171875</AltitudeMeters>
            <DistanceMeters>11194.984530769</DistanceMeters>
          </Trackpoint>
          <Trackpoint>
            <Time>2022-07-09T10:39:29.000Z</Time>
            <Position>
              <LatitudeDegrees>42.7928247861564159393310546875</LatitudeDegrees>
              <LongitudeDegrees>-0.14149130322039127349853515625</LongitudeDegrees>
            </Position>
            <AltitudeMeters>2137.199951171875</AltitudeMeters>
            <DistanceMeters>11197.126324138</DistanceMeters>
          </Trackpoint>
          <Trackpoint>
            <Time>2022-07-09T10:39:35.000Z</Time>
            <Position>
              <LatitudeDegrees>42.79280609451234340667724609375</LatitudeDegrees>
              <LongitudeDegrees>-0.1414954103529453277587890625</LongitudeDegrees>
            </Position>
            <AltitudeMeters>2137.199951171875</AltitudeMeters>
            <DistanceMeters>11199.22983013</DistanceMeters>
          </Trackpoint>
          <Trackpoint>
            <Time>2022-07-09T10:39:39.000Z</Time>
            <Position>
              <LatitudeDegrees>42.79276619665324687957763671875</LatitudeDegrees>
              <LongitudeDegrees>-0.14147671870887279510498046875</LongitudeDegrees>
            </Position>
            <AltitudeMeters>2137.199951171875</AltitudeMeters>
            <DistanceMeters>11203.924765337</DistanceMeters>
          </Trackpoint>
          <Trackpoint>
            <Time>2022-07-09T10:39:44.000Z</Time>
            <Position>
              <LatitudeDegrees>42.792748846113681793212890625</LatitudeDegrees>
              <LongitudeDegrees>-0.14145643450319766998291015625</LongitudeDegrees>
            </Position>
            <AltitudeMeters>2137.199951171875</AltitudeMeters>
            <DistanceMeters>11206.467506915</DistanceMeters>
          </Trackpoint>
          <Trackpoint>
            <Time>2022-07-09T10:39:49.000Z</Time>
            <Position>
              <LatitudeDegrees>42.79278899542987346649169921875</LatitudeDegrees>
              <LongitudeDegrees>-0.14148124493658542633056640625</LongitudeDegrees>
            </Position>
            <AltitudeMeters>2137.199951171875</AltitudeMeters>
            <DistanceMeters>11211.374051911</DistanceMeters>
          </Trackpoint>
          <Trackpoint>
            <Time>2022-07-09T10:39:55.000Z</Time>
            <Position>
              <LatitudeDegrees>42.79277759604156017303466796875</LatitudeDegrees>
              <LongitudeDegrees>-0.141467750072479248046875</LongitudeDegrees>
            </Position>
            <AltitudeMeters>2137.199951171875</AltitudeMeters>
            <DistanceMeters>11213.05792958</DistanceMeters>
          </Trackpoint>
          <Trackpoint>
            <Time>2022-07-09T10:40:01.000Z</Time>
            <Position>
              <LatitudeDegrees>42.792807854712009429931640625</LatitudeDegrees>
              <LongitudeDegrees>-0.14147906564176082611083984375</LongitudeDegrees>
            </Position>
            <AltitudeMeters>2137.199951171875</AltitudeMeters>
            <DistanceMeters>11216.550726923</DistanceMeters>
          </Trackpoint>
          <Trackpoint>
            <Time>2022-07-09T10:40:05.000Z</Time>
            <Position>
              <LatitudeDegrees>42.79283174313604831695556640625</LatitudeDegrees>
              <LongitudeDegrees>-0.141489543020725250244140625</LongitudeDegrees>
            </Position>
            <AltitudeMeters>2137.199951171875</AltitudeMeters>
            <DistanceMeters>11219.343930468</DistanceMeters>
          </Trackpoint>
          <Trackpoint>
            <Time>2022-07-09T10:40:06.000Z</Time>
            <Position>
              <LatitudeDegrees>42.79283476062119007110595703125</LatitudeDegrees>
              <LongitudeDegrees>-0.14149281196296215057373046875</LongitudeDegrees>
            </Position>
            <AltitudeMeters>2137.199951171875</AltitudeMeters>
            <DistanceMeters>11219.77939758</DistanceMeters>
          </Trackpoint>
          <Trackpoint>
            <Time>2022-07-09T10:40:12.000Z</Time>
            <Position>
              <LatitudeDegrees>42.79284649528563022613525390625</LatitudeDegrees>
              <LongitudeDegrees>-0.14150018803775310516357421875</LongitudeDegrees>
            </Position>
            <AltitudeMeters>2137.199951171875</AltitudeMeters>
            <DistanceMeters>11221.217412707</DistanceMeters>
          </Trackpoint>
          <Trackpoint>
            <Time>2022-07-09T10:40:16.000Z</Time>
            <Position>
              <LatitudeDegrees>42.79283945448696613311767578125</LatitudeDegrees>
              <LongitudeDegrees>-0.1415041275322437286376953125</LongitudeDegrees>
            </Position>
            <AltitudeMeters>2137.199951171875</AltitudeMeters>
            <DistanceMeters>11222.056665924</DistanceMeters>
          </Trackpoint>
          <Trackpoint>
            <Time>2022-07-09T10:40:17.000Z</Time>
            <Position>
              <LatitudeDegrees>42.79283442534506320953369140625</LatitudeDegrees>
              <LongitudeDegrees>-0.14150102622807025909423828125</LongitudeDegrees>
            </Position>
            <AltitudeMeters>2137.199951171875</AltitudeMeters>
            <DistanceMeters>11222.672509419</DistanceMeters>
          </Trackpoint>
          <Trackpoint>
            <Time>2022-07-09T10:40:21.000Z</Time>
            <Position>
              <LatitudeDegrees>42.79280408285558223724365234375</LatitudeDegrees>
              <LongitudeDegrees>-0.14148258604109287261962890625</LongitudeDegrees>
            </Position>
            <AltitudeMeters>2137.199951171875</AltitudeMeters>
            <DistanceMeters>11226.370013407</DistanceMeters>
          </Trackpoint>
          <Trackpoint>
            <Time>2022-07-09T10:40:22.000Z</Time>
            <Position>
              <LatitudeDegrees>42.79280106537044048309326171875</LatitudeDegrees>
              <LongitudeDegrees>-0.1414783112704753875732421875</LongitudeDegrees>
            </Position>
            <AltitudeMeters>2137.199951171875</AltitudeMeters>
            <DistanceMeters>11226.854556478</DistanceMeters>
          </Trackpoint>
          <Trackpoint>
            <Time>2022-07-09T10:40:25.000Z</Time>
            <Position>
              <LatitudeDegrees>42.79280073009431362152099609375</LatitudeDegrees>
              <LongitudeDegrees>-0.14147252775728702545166015625</LongitudeDegrees>
            </Position>
            <AltitudeMeters>2137.199951171875</AltitudeMeters>
            <DistanceMeters>11227.339099548</DistanceMeters>
          </Trackpoint>
          <Trackpoint>
            <Time>2022-07-09T10:40:26.000Z</Time>
            <Position>
              <LatitudeDegrees>42.79280014336109161376953125</LatitudeDegrees>
              <LongitudeDegrees>-0.14146682806313037872314453125</LongitudeDegrees>
            </Position>
            <AltitudeMeters>2137.199951171875</AltitudeMeters>
            <DistanceMeters>11227.81423312</DistanceMeters>
          </Trackpoint>
          <Trackpoint>
            <Time>2022-07-09T10:40:32.000Z</Time>
            <Position>
              <LatitudeDegrees>42.79279603622853755950927734375</LatitudeDegrees>
              <LongitudeDegrees>-0.14147386886179447174072265625</LongitudeDegrees>
            </Position>
            <AltitudeMeters>2137.199951171875</AltitudeMeters>
            <DistanceMeters>11228.550306885</DistanceMeters>
          </Trackpoint>
          <Trackpoint>
            <Time>2022-07-09T10:40:34.000Z</Time>
            <Position>
              <LatitudeDegrees>42.792798466980457305908203125</LatitudeDegrees>
              <LongitudeDegrees>-0.1414789818227291107177734375</LongitudeDegrees>
            </Position>
            <AltitudeMeters>2137.199951171875</AltitudeMeters>
            <DistanceMeters>11229.044080177</DistanceMeters>
          </Trackpoint>
          <Trackpoint>
            <Time>2022-07-09T10:40:35.000Z</Time>
            <Position>
              <LatitudeDegrees>42.7927999757230281829833984375</LatitudeDegrees>
              <LongitudeDegrees>-0.14147822745144367218017578125</LongitudeDegrees>
            </Position>
            <AltitudeMeters>2137.199951171875</AltitudeMeters>
            <DistanceMeters>11229.234133606</DistanceMeters>
          </Trackpoint>
          <Trackpoint>
            <Time>2022-07-09T10:40:37.000Z</Time>
            <Position>
              <LatitudeDegrees>42.79280693270266056060791015625</LatitudeDegrees>
              <LongitudeDegrees>-0.14147554524242877960205078125</LongitudeDegrees>
            </Position>
            <AltitudeMeters>2137.199951171875</AltitudeMeters>
            <DistanceMeters>11230.040462015</DistanceMeters>
          </Trackpoint>
          <Trackpoint>
            <Time>2022-07-09T10:40:41.000Z</Time>
            <Position>
              <LatitudeDegrees>42.7928019873797893524169921875</LatitudeDegrees>
              <LongitudeDegrees>-0.14147839508950710296630859375</LongitudeDegrees>
            </Position>
            <AltitudeMeters>2137.199951171875</AltitudeMeters>
            <DistanceMeters>11230.641463727</DistanceMeters>
          </Trackpoint>
          <Trackpoint>
            <Time>2022-07-09T10:40:43.000Z</Time>
            <Position>
              <LatitudeDegrees>42.792795114219188690185546875</LatitudeDegrees>
              <LongitudeDegrees>-0.14148359186947345733642578125</LongitudeDegrees>
            </Position>
            <AltitudeMeters>2137.199951171875</AltitudeMeters>
            <DistanceMeters>11231.51239795</DistanceMeters>
          </Trackpoint>
          <Trackpoint>
            <Time>2022-07-09T10:40:48.000Z</Time>
            <Position>
              <LatitudeDegrees>42.79278597794473171234130859375</LatitudeDegrees>
              <LongitudeDegrees>-0.1414744555950164794921875</LongitudeDegrees>
            </Position>
            <AltitudeMeters>2137.199951171875</AltitudeMeters>
            <DistanceMeters>11232.776646158</DistanceMeters>
          </Trackpoint>
          <Trackpoint>
            <Time>2022-07-09T10:40:50.000Z</Time>
            <Position>
              <LatitudeDegrees>42.79279167763888835906982421875</LatitudeDegrees>
              <LongitudeDegrees>-0.1414705999195575714111328125</LongitudeDegrees>
            </Position>
            <AltitudeMeters>2137.199951171875</AltitudeMeters>
            <DistanceMeters>11233.487760973</DistanceMeters>
          </Trackpoint>
          <Trackpoint>
            <Time>2022-07-09T10:40:56.000Z</Time>
            <Position>
              <LatitudeDegrees>42.79277021996676921844482421875</LatitudeDegrees>
              <LongitudeDegrees>-0.14143346808850765228271484375</LongitudeDegrees>
            </Position>
            <AltitudeMeters>2137.199951171875</AltitudeMeters>
            <DistanceMeters>11237.347764359</DistanceMeters>
          </Trackpoint>
          <Trackpoint>
            <Time>2022-07-09T10:40:58.000Z</Time>
            <Position>
              <LatitudeDegrees>42.79278027825057506561279296875</LatitudeDegrees>
              <LongitudeDegrees>-0.141427516937255859375</LongitudeDegrees>
            </Position>
            <AltitudeMeters>2137.199951171875</AltitudeMeters>
            <DistanceMeters>11238.564700075</DistanceMeters>
          </Trackpoint>
          <Trackpoint>
            <Time>2022-07-09T10:41:02.000Z</Time>
            <Position>
              <LatitudeDegrees>42.7928039990365505218505859375</LatitudeDegrees>
              <LongitudeDegrees>-0.14138393104076385498046875</LongitudeDegrees>
            </Position>
            <AltitudeMeters>2137.199951171875</AltitudeMeters>
            <DistanceMeters>11242.99543209</DistanceMeters>
          </Trackpoint>
          <Trackpoint>
            <Time>2022-07-09T10:41:06.000Z</Time>
            <Position>
              <LatitudeDegrees>42.792850434780120849609375</LatitudeDegrees>
              <LongitudeDegrees>-0.14133372344076633453369140625</LongitudeDegrees>
            </Position>
            <AltitudeMeters>2137.199951171875</AltitudeMeters>
            <DistanceMeters>11249.592777651</DistanceMeters>
          </Trackpoint>
          <Trackpoint>
            <Time>2022-07-09T10:41:11.000Z</Time>
            <Position>
              <LatitudeDegrees>42.792884297668933868408203125</LatitudeDegrees>
              <LongitudeDegrees>-0.14133472926914691925048828125</LongitudeDegrees>
            </Position>
            <AltitudeMeters>2137.199951171875</AltitudeMeters>
            <DistanceMeters>11253.362836049</DistanceMeters>
          </Trackpoint>
          <Trackpoint>
            <Time>2022-07-09T10:41:12.000Z</Time>
            <Position>
              <LatitudeDegrees>42.792880944907665252685546875</LatitudeDegrees>
              <LongitudeDegrees>-0.14133724384009838104248046875</LongitudeDegrees>
            </Position>
            <AltitudeMeters>2137.199951171875</AltitudeMeters>
            <DistanceMeters>11253.787808435</DistanceMeters>
          </Trackpoint>
          <Trackpoint>
            <Time>2022-07-09T10:41:13.000Z</Time>
            <Position>
              <LatitudeDegrees>42.79287398792803287506103515625</LatitudeDegrees>
              <LongitudeDegrees>-0.14132785610854625701904296875</LongitudeDegrees>
            </Position>
            <AltitudeMeters>2137.199951171875</AltitudeMeters>
            <DistanceMeters>11254.875438893</DistanceMeters>
          </Trackpoint>
          <Trackpoint>
            <Time>2022-07-09T10:41:16.000Z</Time>
            <Position>
              <LatitudeDegrees>42.79287465848028659820556640625</LatitudeDegrees>
              <LongitudeDegrees>-0.1413150317966938018798828125</LongitudeDegrees>
            </Position>
            <AltitudeMeters>2137.199951171875</AltitudeMeters>
            <DistanceMeters>11255.92504326</DistanceMeters>
          </Trackpoint>
          <Trackpoint>
            <Time>2022-07-09T10:41:17.000Z</Time>
            <Position>
              <LatitudeDegrees>42.79287348501384258270263671875</LatitudeDegrees>
              <LongitudeDegrees>-0.141312181949615478515625</LongitudeDegrees>
            </Position>
            <AltitudeMeters>2137.199951171875</AltitudeMeters>
            <DistanceMeters>11256.193819396</DistanceMeters>
          </Trackpoint>
          <Trackpoint>
            <Time>2022-07-09T10:41:20.000Z</Time>
            <Position>
              <LatitudeDegrees>42.7928745746612548828125</LatitudeDegrees>
              <LongitudeDegrees>-0.14130271039903163909912109375</LongitudeDegrees>
            </Position>
            <AltitudeMeters>2137.199951171875</AltitudeMeters>
            <DistanceMeters>11256.977429758</DistanceMeters>
          </Trackpoint>
          <Trackpoint>
            <Time>2022-07-09T10:41:22.000Z</Time>
            <Position>
              <LatitudeDegrees>42.792877256870269775390625</LatitudeDegrees>
              <LongitudeDegrees>-0.1412947475910186767578125</LongitudeDegrees>
            </Position>
            <AltitudeMeters>2137.39990234375</AltitudeMeters>
            <DistanceMeters>11257.694865718</DistanceMeters>
          </Trackpoint>
          <Trackpoint>
            <Time>2022-07-09T10:41:24.000Z</Time>
            <Position>
              <LatitudeDegrees>42.792893685400485992431640625</LatitudeDegrees>
              <LongitudeDegrees>-0.14127287082374095916748046875</LongitudeDegrees>
            </Position>
            <AltitudeMeters>2138.199951171875</AltitudeMeters>
            <DistanceMeters>11260.251773097</DistanceMeters>
          </Trackpoint>
          <Trackpoint>
            <Time>2022-07-09T10:41:25.000Z</Time>
            <Position>
              <LatitudeDegrees>42.7928998880088329315185546875</LatitudeDegrees>
              <LongitudeDegrees>-0.14125979505479335784912109375</LongitudeDegrees>
            </Position>
            <AltitudeMeters>2138.199951171875</AltitudeMeters>
            <DistanceMeters>11261.526690255</DistanceMeters>
          </Trackpoint>
          <Trackpoint>
            <Time>2022-07-09T10:41:28.000Z</Time>
            <Position>
              <LatitudeDegrees>42.7928606607019901275634765625</LatitudeDegrees>
              <LongitudeDegrees>-0.14129164628684520721435546875</LongitudeDegrees>
            </Position>
            <AltitudeMeters>2137.800048828125</AltitudeMeters>
            <DistanceMeters>11266.608620856</DistanceMeters>
          </Trackpoint>
          <Trackpoint>
            <Time>2022-07-09T10:41:34.000Z</Time>
            <Position>
              <LatitudeDegrees>42.79280844144523143768310546875</LatitudeDegrees>
              <LongitudeDegrees>-0.1414015330374240875244140625</LongitudeDegrees>
            </Position>
            <AltitudeMeters>2137.800048828125</AltitudeMeters>
            <DistanceMeters>11277.301554407</DistanceMeters>
          </Trackpoint>
          <Trackpoint>
            <Time>2022-07-09T10:41:36.000Z</Time>
            <Position>
              <LatitudeDegrees>42.792799472808837890625</LatitudeDegrees>
              <LongitudeDegrees>-0.141413100063800811767578125</LongitudeDegrees>
            </Position>
            <AltitudeMeters>2137.800048828125</AltitudeMeters>
            <DistanceMeters>11278.678622326</DistanceMeters>
          </Trackpoint>
          <Trackpoint>
            <Time>2022-07-09T10:41:40.000Z</Time>
            <Position>
              <LatitudeDegrees>42.7928043343126773834228515625</LatitudeDegrees>
              <LongitudeDegrees>-0.1414236612617969512939453125</LongitudeDegrees>
            </Position>
            <AltitudeMeters>2137.800048828125</AltitudeMeters>
            <DistanceMeters>11279.693229992</DistanceMeters>
          </Trackpoint>
          <Trackpoint>
            <Time>2022-07-09T10:41:42.000Z</Time>
            <Position>
              <LatitudeDegrees>42.79280609451234340667724609375</LatitudeDegrees>
              <LongitudeDegrees>-0.14144369401037693023681640625</LongitudeDegrees>
            </Position>
            <AltitudeMeters>2138.199951171875</AltitudeMeters>
            <DistanceMeters>11281.341881868</DistanceMeters>
          </Trackpoint>
          <Trackpoint>
            <Time>2022-07-09T10:41:44.000Z</Time>
            <Position>
              <LatitudeDegrees>42.79284129850566387176513671875</LatitudeDegrees>
              <LongitudeDegrees>-0.1413220725953578948974609375</LongitudeDegrees>
            </Position>
            <AltitudeMeters>2138.39990234375</AltitudeMeters>
            <DistanceMeters>11292.020449437</DistanceMeters>
          </Trackpoint>
          <Trackpoint>
            <Time>2022-07-09T11:29:15.000Z</Time>
            <Position>
              <LatitudeDegrees>42.7924657054245471954345703125</LatitudeDegrees>
              <LongitudeDegrees>-0.14044591225683689117431640625</LongitudeDegrees>
            </Position>
            <AltitudeMeters>2146.39990234375</AltitudeMeters>
            <DistanceMeters>11374.897038324</DistanceMeters>
          </Trackpoint>
          <Trackpoint>
            <Time>2022-07-09T11:29:18.000Z</Time>
            <Position>
              <LatitudeDegrees>42.7924465946853160858154296875</LatitudeDegrees>
              <LongitudeDegrees>-0.14042495749890804290771484375</LongitudeDegrees>
            </Position>
            <AltitudeMeters>2147.199951171875</AltitudeMeters>
            <DistanceMeters>11377.626472893</DistanceMeters>
          </Trackpoint>
          <Trackpoint>
            <Time>2022-07-09T11:29:20.000Z</Time>
            <Position>
              <LatitudeDegrees>42.7924331836402416229248046875</LatitudeDegrees>
              <LongitudeDegrees>-0.14041322283446788787841796875</LongitudeDegrees>
            </Position>
            <AltitudeMeters>2147.60009765625</AltitudeMeters>
            <DistanceMeters>11379.399173263</DistanceMeters>
          </Trackpoint>
          <Trackpoint>
            <Time>2022-07-09T11:29:21.000Z</Time>
            <Position>
              <LatitudeDegrees>42.79242639429867267608642578125</LatitudeDegrees>
              <LongitudeDegrees>-0.1404050923883914947509765625</LongitudeDegrees>
            </Position>
            <AltitudeMeters>2147.800048828125</AltitudeMeters>
            <DistanceMeters>11380.40484148</DistanceMeters>
          </Trackpoint>
          <Trackpoint>
            <Time>2022-07-09T11:29:24.000Z</Time>
            <Position>
              <LatitudeDegrees>42.79241365380585193634033203125</LatitudeDegrees>
              <LongitudeDegrees>-0.14037902466952800750732421875</LongitudeDegrees>
            </Position>
            <AltitudeMeters>2148.199951171875</AltitudeMeters>
            <DistanceMeters>11382.961748859</DistanceMeters>
          </Trackpoint>
          <Trackpoint>
            <Time>2022-07-09T11:29:26.000Z</Time>
            <Position>
              <LatitudeDegrees>42.79240443371236324310302734375</LatitudeDegrees>
              <LongitudeDegrees>-0.14036796055734157562255859375</LongitudeDegrees>
            </Position>
            <AltitudeMeters>2148.60009765625</AltitudeMeters>
            <DistanceMeters>11384.325638791</DistanceMeters>
          </Trackpoint>
          <Trackpoint>
            <Time>2022-07-09T11:29:28.000Z</Time>
            <Position>
              <LatitudeDegrees>42.79239714145660400390625</LatitudeDegrees>
              <LongitudeDegrees>-0.140354298055171966552734375</LongitudeDegrees>
            </Position>
            <AltitudeMeters>2148.800048828125</AltitudeMeters>
            <DistanceMeters>11385.705981549</DistanceMeters>
          </Trackpoint>
          <Trackpoint>
            <Time>2022-07-09T11:29:33.000Z</Time>
            <Position>
              <LatitudeDegrees>42.792381383478641510009765625</LatitudeDegrees>
              <LongitudeDegrees>-0.14034457504749298095703125</LongitudeDegrees>
            </Position>
            <AltitudeMeters>2150</AltitudeMeters>
            <DistanceMeters>11387.632470952</DistanceMeters>
          </Trackpoint>
          <Trackpoint>
            <Time>2022-07-09T11:29:34.000Z</Time>
            <Position>
              <LatitudeDegrees>42.79237727634608745574951171875</LatitudeDegrees>
              <LongitudeDegrees>-0.14033895917236804962158203125</LongitudeDegrees>
            </Position>
            <AltitudeMeters>2150</AltitudeMeters>
            <DistanceMeters>11388.276973486</DistanceMeters>
          </Trackpoint>
          <Trackpoint>
            <Time>2022-07-09T11:29:37.000Z</Time>
            <Position>
              <LatitudeDegrees>42.79236805625259876251220703125</LatitudeDegrees>
              <LongitudeDegrees>-0.14031775295734405517578125</LongitudeDegrees>
            </Position>
            <AltitudeMeters>2150.60009765625</AltitudeMeters>
            <DistanceMeters>11390.288309919</DistanceMeters>
          </Trackpoint>
          <Trackpoint>
            <Time>2022-07-09T11:29:39.000Z</Time>
            <Position>
              <LatitudeDegrees>42.7923654578626155853271484375</LatitudeDegrees>
              <LongitudeDegrees>-0.14031213708221912384033203125</LongitudeDegrees>
            </Position>
            <AltitudeMeters>2151</AltitudeMeters>
            <DistanceMeters>11390.825862192</DistanceMeters>
          </Trackpoint>
          <Trackpoint>
            <Time>2022-07-09T11:29:42.000Z</Time>
            <Position>
              <LatitudeDegrees>42.792353890836238861083984375</LatitudeDegrees>
              <LongitudeDegrees>-0.14031666330993175506591796875</LongitudeDegrees>
            </Position>
            <AltitudeMeters>2151.39990234375</AltitudeMeters>
            <DistanceMeters>11392.163006588</DistanceMeters>
          </Trackpoint>
          <Trackpoint>
            <Time>2022-07-09T11:29:44.000Z</Time>
            <Position>
              <LatitudeDegrees>42.792348526418209075927734375</LatitudeDegrees>
              <LongitudeDegrees>-0.14031582511961460113525390625</LongitudeDegrees>
            </Position>
            <AltitudeMeters>2151.60009765625</AltitudeMeters>
            <DistanceMeters>11392.771474446</DistanceMeters>
          </Trackpoint>
          <Trackpoint>
            <Time>2022-07-09T11:29:46.000Z</Time>
            <Position>
              <LatitudeDegrees>42.79234156943857669830322265625</LatitudeDegrees>
              <LongitudeDegrees>-0.14030124060809612274169921875</LongitudeDegrees>
            </Position>
            <AltitudeMeters>2151.800048828125</AltitudeMeters>
            <DistanceMeters>11394.193704077</DistanceMeters>
          </Trackpoint>
          <Trackpoint>
            <Time>2022-07-09T11:29:47.000Z</Time>
            <Position>
              <LatitudeDegrees>42.7923386357724666595458984375</LatitudeDegrees>
              <LongitudeDegrees>-0.14029369689524173736572265625</LongitudeDegrees>
            </Position>
            <AltitudeMeters>2152.199951171875</AltitudeMeters>
            <DistanceMeters>11394.892004964</DistanceMeters>
          </Trackpoint>
          <Trackpoint>
            <Time>2022-07-09T11:29:49.000Z</Time>
            <Position>
              <LatitudeDegrees>42.79232882894575595855712890625</LatitudeDegrees>
              <LongitudeDegrees>-0.14027877710759639739990234375</LongitudeDegrees>
            </Position>
            <AltitudeMeters>2152.60009765625</AltitudeMeters>
            <DistanceMeters>11396.526906376</DistanceMeters>
          </Trackpoint>
          <Trackpoint>
            <Time>2022-07-09T11:29:50.000Z</Time>
            <Position>
              <LatitudeDegrees>42.7923235483467578887939453125</LatitudeDegrees>
              <LongitudeDegrees>-0.14027290977537631988525390625</LongitudeDegrees>
            </Position>
            <AltitudeMeters>2152.800048828125</AltitudeMeters>
            <DistanceMeters>11397.281157538</DistanceMeters>
          </Trackpoint>
          <Trackpoint>
            <Time>2022-07-09T11:29:54.000Z</Time>
            <Position>
              <LatitudeDegrees>42.79230150394141674041748046875</LatitudeDegrees>
              <LongitudeDegrees>-0.140248350799083709716796875</LongitudeDegrees>
            </Position>
            <AltitudeMeters>2153.39990234375</AltitudeMeters>
            <DistanceMeters>11400.449981453</DistanceMeters>
          </Trackpoint>
          <Trackpoint>
            <Time>2022-07-09T11:29:57.000Z</Time>
            <Position>
              <LatitudeDegrees>42.7922816388309001922607421875</LatitudeDegrees>
              <LongitudeDegrees>-0.14022714458405971527099609375</LongitudeDegrees>
            </Position>
            <AltitudeMeters>2153.60009765625</AltitudeMeters>
            <DistanceMeters>11403.259302868</DistanceMeters>
          </Trackpoint>
          <Trackpoint>
            <Time>2022-07-09T11:29:58.000Z</Time>
            <Position>
              <LatitudeDegrees>42.79227669350802898406982421875</LatitudeDegrees>
              <LongitudeDegrees>-0.14021985232830047607421875</LongitudeDegrees>
            </Position>
            <AltitudeMeters>2153.60009765625</AltitudeMeters>
            <DistanceMeters>11404.065631278</DistanceMeters>
          </Trackpoint>
          <Trackpoint>
            <Time>2022-07-09T11:29:59.000Z</Time>
            <Position>
              <LatitudeDegrees>42.79227174818515777587890625</LatitudeDegrees>
              <LongitudeDegrees>-0.140213482081890106201171875</LongitudeDegrees>
            </Position>
            <AltitudeMeters>2153.800048828125</AltitudeMeters>
            <DistanceMeters>11404.825844993</DistanceMeters>
          </Trackpoint>
          <Trackpoint>
            <Time>2022-07-09T11:30:03.000Z</Time>
            <Position>
              <LatitudeDegrees>42.7922511287033557891845703125</LatitudeDegrees>
              <LongitudeDegrees>-0.140192024409770965576171875</LongitudeDegrees>
            </Position>
            <AltitudeMeters>2154.199951171875</AltitudeMeters>
            <DistanceMeters>11407.71284353</DistanceMeters>
          </Trackpoint>
          <Trackpoint>
            <Time>2022-07-09T11:30:05.000Z</Time>
            <Position>
              <LatitudeDegrees>42.79223126359283924102783203125</LatitudeDegrees>
              <LongitudeDegrees>-0.14018691144883632659912109375</LongitudeDegrees>
            </Position>
            <AltitudeMeters>2154.199951171875</AltitudeMeters>
            <DistanceMeters>11409.961586025</DistanceMeters>
          </Trackpoint>
          <Trackpoint>
            <Time>2022-07-09T11:30:08.000Z</Time>
            <Position>
              <LatitudeDegrees>42.79221600852906703948974609375</LatitudeDegrees>
              <LongitudeDegrees>-0.140172578394412994384765625</LongitudeDegrees>
            </Position>
            <AltitudeMeters>2154.39990234375</AltitudeMeters>
            <DistanceMeters>11412.023906564</DistanceMeters>
          </Trackpoint>
          <Trackpoint>
            <Time>2022-07-09T11:30:10.000Z</Time>
            <Position>
              <LatitudeDegrees>42.7922058664262294769287109375</LatitudeDegrees>
              <LongitudeDegrees>-0.1401633583009243011474609375</LongitudeDegrees>
            </Position>
            <AltitudeMeters>2154.39990234375</AltitudeMeters>
            <DistanceMeters>11413.381159523</DistanceMeters>
          </Trackpoint>
          <Trackpoint>
            <Time>2022-07-09T11:30:13.000Z</Time>
            <Position>
              <LatitudeDegrees>42.79218549840152263641357421875</LatitudeDegrees>
              <LongitudeDegrees>-0.14015254564583301544189453125</LongitudeDegrees>
            </Position>
            <AltitudeMeters>2154.199951171875</AltitudeMeters>
            <DistanceMeters>11415.813175163</DistanceMeters>
          </Trackpoint>
          <Trackpoint>
            <Time>2022-07-09T11:30:16.000Z</Time>
            <Position>
              <LatitudeDegrees>42.79216043651103973388671875</LatitudeDegrees>
              <LongitudeDegrees>-0.14013645239174365997314453125</LongitudeDegrees>
            </Position>
            <AltitudeMeters>2154.199951171875</AltitudeMeters>
            <DistanceMeters>11418.89825224</DistanceMeters>
          </Trackpoint>
          <Trackpoint>
            <Time>2022-07-09T11:30:22.000Z</Time>
            <Position>
              <LatitudeDegrees>42.79212196357548236846923828125</LatitudeDegrees>
              <LongitudeDegrees>-0.14009890146553516387939453125</LongitudeDegrees>
            </Position>
            <AltitudeMeters>2154.199951171875</AltitudeMeters>
            <DistanceMeters>11424.165167356</DistanceMeters>
          </Trackpoint>
          <Trackpoint>
            <Time>2022-07-09T11:30:26.000Z</Time>
            <Position>
              <LatitudeDegrees>42.792096398770809173583984375</LatitudeDegrees>
              <LongitudeDegrees>-0.14008632861077785491943359375</LongitudeDegrees>
            </Position>
            <AltitudeMeters>2154.800048828125</AltitudeMeters>
            <DistanceMeters>11427.191137863</DistanceMeters>
          </Trackpoint>
          <Trackpoint>
            <Time>2022-07-09T11:30:28.000Z</Time>
            <Position>
              <LatitudeDegrees>42.7920831553637981414794921875</LatitudeDegrees>
              <LongitudeDegrees>-0.14008197002112865447998046875</LongitudeDegrees>
            </Position>
            <AltitudeMeters>2154.60009765625</AltitudeMeters>
            <DistanceMeters>11428.705614478</DistanceMeters>
          </Trackpoint>
          <Trackpoint>
            <Time>2022-07-09T11:30:34.000Z</Time>
            <Position>
              <LatitudeDegrees>42.79204602353274822235107421875</LatitudeDegrees>
              <LongitudeDegrees>-0.1400694809854030609130859375</LongitudeDegrees>
            </Position>
            <AltitudeMeters>2154.39990234375</AltitudeMeters>
            <DistanceMeters>11432.96170815</DistanceMeters>
          </Trackpoint>
          <Trackpoint>
            <Time>2022-07-09T11:30:39.000Z</Time>
            <Position>
              <LatitudeDegrees>42.79200545512139797210693359375</LatitudeDegrees>
              <LongitudeDegrees>-0.140033103525638580322265625</LongitudeDegrees>
            </Position>
            <AltitudeMeters>2154.39990234375</AltitudeMeters>
            <DistanceMeters>11438.367383628</DistanceMeters>
          </Trackpoint>
          <Trackpoint>
            <Time>2022-07-09T11:30:40.000Z</Time>
            <Position>
              <LatitudeDegrees>42.79199791140854358673095703125</LatitudeDegrees>
              <LongitudeDegrees>-0.14002463780343532562255859375</LongitudeDegrees>
            </Position>
            <AltitudeMeters>2154.39990234375</AltitudeMeters>
            <DistanceMeters>11439.459157456</DistanceMeters>
          </Trackpoint>
          <Trackpoint>
            <Time>2022-07-09T11:30:42.000Z</Time>
            <Position>
              <LatitudeDegrees>42.79197762720286846160888671875</LatitudeDegrees>
              <LongitudeDegrees>-0.140012986958026885986328125</LongitudeDegrees>
            </Position>
            <AltitudeMeters>2154.800048828125</AltitudeMeters>
            <DistanceMeters>11441.909667777</DistanceMeters>
          </Trackpoint>
          <Trackpoint>
            <Time>2022-07-09T11:30:46.000Z</Time>
            <Position>
              <LatitudeDegrees>42.7919510565698146820068359375</LatitudeDegrees>
              <LongitudeDegrees>-0.1400017552077770233154296875</LongitudeDegrees>
            </Position>
            <AltitudeMeters>2155</AltitudeMeters>
            <DistanceMeters>11445.006430794</DistanceMeters>
          </Trackpoint>
          <Trackpoint>
            <Time>2022-07-09T11:30:48.000Z</Time>
            <Position>
              <LatitudeDegrees>42.79194309376180171966552734375</LatitudeDegrees>
              <LongitudeDegrees>-0.13999161310493946075439453125</LongitudeDegrees>
            </Position>
            <AltitudeMeters>2155.39990234375</AltitudeMeters>
            <DistanceMeters>11446.219650667</DistanceMeters>
          </Trackpoint>
          <Trackpoint>
            <Time>2022-07-09T11:30:51.000Z</Time>
            <Position>
              <LatitudeDegrees>42.79193018563091754913330078125</LatitudeDegrees>
              <LongitudeDegrees>-0.139976777136325836181640625</LongitudeDegrees>
            </Position>
            <AltitudeMeters>2155.800048828125</AltitudeMeters>
            <DistanceMeters>11448.101083623</DistanceMeters>
          </Trackpoint>
          <Trackpoint>
            <Time>2022-07-09T11:30:53.000Z</Time>
            <Position>
              <LatitudeDegrees>42.7919249050319194793701171875</LatitudeDegrees>
              <LongitudeDegrees>-0.13996948488056659698486328125</LongitudeDegrees>
            </Position>
            <AltitudeMeters>2156.199951171875</AltitudeMeters>
            <DistanceMeters>11448.94033684</DistanceMeters>
          </Trackpoint>
          <Trackpoint>
            <Time>2022-07-09T11:30:54.000Z</Time>
            <Position>
              <LatitudeDegrees>42.7919225580990314483642578125</LatitudeDegrees>
              <LongitudeDegrees>-0.13996680267155170440673828125</LongitudeDegrees>
            </Position>
            <AltitudeMeters>2156.39990234375</AltitudeMeters>
            <DistanceMeters>11449.282960531</DistanceMeters>
          </Trackpoint>
          <Trackpoint>
            <Time>2022-07-09T11:30:55.000Z</Time>
            <Position>
              <LatitudeDegrees>42.79191962443292140960693359375</LatitudeDegrees>
              <LongitudeDegrees>-0.139962695538997650146484375</LongitudeDegrees>
            </Position>
            <AltitudeMeters>2156.39990234375</AltitudeMeters>
            <DistanceMeters>11449.748494456</DistanceMeters>
          </Trackpoint>
          <Trackpoint>
            <Time>2022-07-09T11:30:59.000Z</Time>
            <Position>
              <LatitudeDegrees>42.79191233217716217041015625</LatitudeDegrees>
              <LongitudeDegrees>-0.13993176631629467010498046875</LongitudeDegrees>
            </Position>
            <AltitudeMeters>2157</AltitudeMeters>
            <DistanceMeters>11452.402446156</DistanceMeters>
          </Trackpoint>
          <Trackpoint>
            <Time>2022-07-09T11:31:05.000Z</Time>
            <Position>
              <LatitudeDegrees>42.791887857019901275634765625</LatitudeDegrees>
              <LongitudeDegrees>-0.13987116515636444091796875</LongitudeDegrees>
            </Position>
            <AltitudeMeters>2157.39990234375</AltitudeMeters>
            <DistanceMeters>11458.05314083</DistanceMeters>
          </Trackpoint>
          <Trackpoint>
            <Time>2022-07-09T11:31:06.000Z</Time>
            <Position>
              <LatitudeDegrees>42.791885174810886383056640625</LatitudeDegrees>
              <LongitudeDegrees>-0.13986437581479549407958984375</LongitudeDegrees>
            </Position>
            <AltitudeMeters>2157.39990234375</AltitudeMeters>
            <DistanceMeters>11458.683476744</DistanceMeters>
          </Trackpoint>
          <Trackpoint>
            <Time>2022-07-09T11:31:08.000Z</Time>
            <Position>
              <LatitudeDegrees>42.791880480945110321044921875</LatitudeDegrees>
              <LongitudeDegrees>-0.13985716737806797027587890625</LongitudeDegrees>
            </Position>
            <AltitudeMeters>2158</AltitudeMeters>
            <DistanceMeters>11459.467087105</DistanceMeters>
          </Trackpoint>
          <Trackpoint>
            <Time>2022-07-09T11:31:10.000Z</Time>
            <Position>
              <LatitudeDegrees>42.7918752841651439666748046875</LatitudeDegrees>
              <LongitudeDegrees>-0.13985062949359416961669921875</LongitudeDegrees>
            </Position>
            <AltitudeMeters>2158.39990234375</AltitudeMeters>
            <DistanceMeters>11460.250697466</DistanceMeters>
          </Trackpoint>
          <Trackpoint>
            <Time>2022-07-09T11:31:12.000Z</Time>
            <Position>
              <LatitudeDegrees>42.791867740452289581298828125</LatitudeDegrees>
              <LongitudeDegrees>-0.13984057120978832244873046875</LongitudeDegrees>
            </Position>
            <AltitudeMeters>2158.60009765625</AltitudeMeters>
            <DistanceMeters>11461.426113008</DistanceMeters>
          </Trackpoint>
          <Trackpoint>
            <Time>2022-07-09T11:31:15.000Z</Time>
            <Position>
              <LatitudeDegrees>42.7918491326272487640380859375</LatitudeDegrees>
              <LongitudeDegrees>-0.13982162810862064361572265625</LongitudeDegrees>
            </Position>
            <AltitudeMeters>2159</AltitudeMeters>
            <DistanceMeters>11464.011119114</DistanceMeters>
          </Trackpoint>
          <Trackpoint>
            <Time>2022-07-09T11:31:19.000Z</Time>
            <Position>
              <LatitudeDegrees>42.79181183315813541412353515625</LatitudeDegrees>
              <LongitudeDegrees>-0.1397900283336639404296875</LongitudeDegrees>
            </Position>
            <AltitudeMeters>2159.60009765625</AltitudeMeters>
            <DistanceMeters>11468.899225319</DistanceMeters>
          </Trackpoint>
          <Trackpoint>
            <Time>2022-07-09T11:31:20.000Z</Time>
            <Position>
              <LatitudeDegrees>42.79180160723626613616943359375</LatitudeDegrees>
              <LongitudeDegrees>-0.13978642411530017852783203125</LongitudeDegrees>
            </Position>
            <AltitudeMeters>2159.800048828125</AltitudeMeters>
            <DistanceMeters>11470.078475832</DistanceMeters>
          </Trackpoint>
          <Trackpoint>
            <Time>2022-07-09T11:31:21.000Z</Time>
            <Position>
              <LatitudeDegrees>42.791793644428253173828125</LatitudeDegrees>
              <LongitudeDegrees>-0.1397831551730632781982421875</LongitudeDegrees>
            </Position>
            <AltitudeMeters>2159.800048828125</AltitudeMeters>
            <DistanceMeters>11471.00954368</DistanceMeters>
          </Trackpoint>
          <Trackpoint>
            <Time>2022-07-09T11:31:24.000Z</Time>
            <Position>
              <LatitudeDegrees>42.791777886450290679931640625</LatitudeDegrees>
              <LongitudeDegrees>-0.139772593975067138671875</LongitudeDegrees>
            </Position>
            <AltitudeMeters>2160.199951171875</AltitudeMeters>
            <DistanceMeters>11472.961643129</DistanceMeters>
          </Trackpoint>
          <Trackpoint>
            <Time>2022-07-09T11:31:26.000Z</Time>
            <Position>
              <LatitudeDegrees>42.79176749289035797119140625</LatitudeDegrees>
              <LongitudeDegrees>-0.13976655900478363037109375</LongitudeDegrees>
            </Position>
            <AltitudeMeters>2160.60009765625</AltitudeMeters>
            <DistanceMeters>11474.222314956</DistanceMeters>
          </Trackpoint>
          <Trackpoint>
            <Time>2022-07-09T11:31:29.000Z</Time>
            <Position>
              <LatitudeDegrees>42.7917505614459514617919921875</LatitudeDegrees>
              <LongitudeDegrees>-0.1397596858441829681396484375</LongitudeDegrees>
            </Position>
            <AltitudeMeters>2161</AltitudeMeters>
            <DistanceMeters>11476.188242909</DistanceMeters>
          </Trackpoint>
          <Trackpoint>
            <Time>2022-07-09T11:31:32.000Z</Time>
            <Position>
              <LatitudeDegrees>42.79172617010772228240966796875</LatitudeDegrees>
              <LongitudeDegrees>-0.13973839581012725830078125</LongitudeDegrees>
            </Position>
            <AltitudeMeters>2161.60009765625</AltitudeMeters>
            <DistanceMeters>11479.412156368</DistanceMeters>
          </Trackpoint>
          <Trackpoint>
            <Time>2022-07-09T11:31:33.000Z</Time>
            <Position>
              <LatitudeDegrees>42.79171946458518505096435546875</LatitudeDegrees>
              <LongitudeDegrees>-0.13973026536405086517333984375</LongitudeDegrees>
            </Position>
            <AltitudeMeters>2161.800048828125</AltitudeMeters>
            <DistanceMeters>11480.408804956</DistanceMeters>
          </Trackpoint>
          <Trackpoint>
            <Time>2022-07-09T11:31:37.000Z</Time>
            <Position>
              <LatitudeDegrees>42.7916979230940341949462890625</LatitudeDegrees>
              <LongitudeDegrees>-0.13969941996037960052490234375</LongitudeDegrees>
            </Position>
            <AltitudeMeters>2162.60009765625</AltitudeMeters>
            <DistanceMeters>11483.886055646</DistanceMeters>
          </Trackpoint>
          <Trackpoint>
            <Time>2022-07-09T11:31:38.000Z</Time>
            <Position>
              <LatitudeDegrees>42.7916944026947021484375</LatitudeDegrees>
              <LongitudeDegrees>-0.13969439081847667694091796875</LongitudeDegrees>
            </Position>
            <AltitudeMeters>2162.800048828125</AltitudeMeters>
            <DistanceMeters>11484.456215932</DistanceMeters>
          </Trackpoint>
          <Trackpoint>
            <Time>2022-07-09T11:31:42.000Z</Time>
            <Position>
              <LatitudeDegrees>42.79167906381189823150634765625</LatitudeDegrees>
              <LongitudeDegrees>-0.13968315906822681427001953125</LongitudeDegrees>
            </Position>
            <AltitudeMeters>2162.39990234375</AltitudeMeters>
            <DistanceMeters>11486.394388216</DistanceMeters>
          </Trackpoint>
          <Trackpoint>
            <Time>2022-07-09T11:31:44.000Z</Time>
            <Position>
              <LatitudeDegrees>42.79167286120355129241943359375</LatitudeDegrees>
              <LongitudeDegrees>-0.139676369726657867431640625</LongitudeDegrees>
            </Position>
            <AltitudeMeters>2162.199951171875</AltitudeMeters>
            <DistanceMeters>11487.285817813</DistanceMeters>
          </Trackpoint>
          <Trackpoint>
            <Time>2022-07-09T11:31:50.000Z</Time>
            <Position>
              <LatitudeDegrees>42.79163665138185024261474609375</LatitudeDegrees>
              <LongitudeDegrees>-0.13965415768325328826904296875</LongitudeDegrees>
            </Position>
            <AltitudeMeters>2163.39990234375</AltitudeMeters>
            <DistanceMeters>11491.706347807</DistanceMeters>
          </Trackpoint>
          <Trackpoint>
            <Time>2022-07-09T11:31:53.000Z</Time>
            <Position>
              <LatitudeDegrees>42.7916179597377777099609375</LatitudeDegrees>
              <LongitudeDegrees>-0.13964661397039890289306640625</LongitudeDegrees>
            </Position>
            <AltitudeMeters>2163.800048828125</AltitudeMeters>
            <DistanceMeters>11493.877453493</DistanceMeters>
          </Trackpoint>
          <Trackpoint>
            <Time>2022-07-09T11:31:57.000Z</Time>
            <Position>
              <LatitudeDegrees>42.7915871143341064453125</LatitudeDegrees>
              <LongitudeDegrees>-0.13963781297206878662109375</LongitudeDegrees>
            </Position>
            <AltitudeMeters>2164.199951171875</AltitudeMeters>
            <DistanceMeters>11497.385728596</DistanceMeters>
          </Trackpoint>
          <Trackpoint>
            <Time>2022-07-09T11:32:01.000Z</Time>
            <Position>
              <LatitudeDegrees>42.79156356118619441986083984375</LatitudeDegrees>
              <LongitudeDegrees>-0.1396148465573787689208984375</LongitudeDegrees>
            </Position>
            <AltitudeMeters>2165</AltitudeMeters>
            <DistanceMeters>11500.611042234</DistanceMeters>
          </Trackpoint>
          <Trackpoint>
            <Time>2022-07-09T11:32:02.000Z</Time>
            <Position>
              <LatitudeDegrees>42.791560627520084381103515625</LatitudeDegrees>
              <LongitudeDegrees>-0.13960671611130237579345703125</LongitudeDegrees>
            </Position>
            <AltitudeMeters>2165.199951171875</AltitudeMeters>
            <DistanceMeters>11501.347115998</DistanceMeters>
          </Trackpoint>
          <Trackpoint>
            <Time>2022-07-09T11:32:06.000Z</Time>
            <Position>
              <LatitudeDegrees>42.791546545922756195068359375</LatitudeDegrees>
              <LongitudeDegrees>-0.1395622082054615020751953125</LongitudeDegrees>
            </Position>
            <AltitudeMeters>2166</AltitudeMeters>
            <DistanceMeters>11505.306435726</DistanceMeters>
          </Trackpoint>
          <Trackpoint>
            <Time>2022-07-09T11:32:08.000Z</Time>
            <Position>
              <LatitudeDegrees>42.79153690673410892486572265625</LatitudeDegrees>
              <LongitudeDegrees>-0.13954267837107181549072265625</LongitudeDegrees>
            </Position>
            <AltitudeMeters>2166.800048828125</AltitudeMeters>
            <DistanceMeters>11507.23058004</DistanceMeters>
          </Trackpoint>
          <Trackpoint>
            <Time>2022-07-09T11:32:09.000Z</Time>
            <Position>
              <LatitudeDegrees>42.79153204523026943206787109375</LatitudeDegrees>
              <LongitudeDegrees>-0.139531195163726806640625</LongitudeDegrees>
            </Position>
            <AltitudeMeters>2167</AltitudeMeters>
            <DistanceMeters>11508.314051285</DistanceMeters>
          </Trackpoint>
          <Trackpoint>
            <Time>2022-07-09T11:32:11.000Z</Time>
            <Position>
              <LatitudeDegrees>42.791520059108734130859375</LatitudeDegrees>
              <LongitudeDegrees>-0.13952004723250865936279296875</LongitudeDegrees>
            </Position>
            <AltitudeMeters>2167.39990234375</AltitudeMeters>
            <DistanceMeters>11509.926708104</DistanceMeters>
          </Trackpoint>
          <Trackpoint>
            <Time>2022-07-09T11:32:14.000Z</Time>
            <Position>
              <LatitudeDegrees>42.79150195419788360595703125</LatitudeDegrees>
              <LongitudeDegrees>-0.13950076885521411895751953125</LongitudeDegrees>
            </Position>
            <AltitudeMeters>2167.800048828125</AltitudeMeters>
            <DistanceMeters>11512.485380693</DistanceMeters>
          </Trackpoint>
          <Trackpoint>
            <Time>2022-07-09T11:32:16.000Z</Time>
            <Position>
              <LatitudeDegrees>42.791484855115413665771484375</LatitudeDegrees>
              <LongitudeDegrees>-0.139491297304630279541015625</LongitudeDegrees>
            </Position>
            <AltitudeMeters>2168.199951171875</AltitudeMeters>
            <DistanceMeters>11514.541122841</DistanceMeters>
          </Trackpoint>
          <Trackpoint>
            <Time>2022-07-09T11:32:17.000Z</Time>
            <Position>
              <LatitudeDegrees>42.79147538356482982635498046875</LatitudeDegrees>
              <LongitudeDegrees>-0.13948626816272735595703125</LongitudeDegrees>
            </Position>
            <AltitudeMeters>2168.39990234375</AltitudeMeters>
            <DistanceMeters>11515.673496831</DistanceMeters>
          </Trackpoint>
          <Trackpoint>
            <Time>2022-07-09T11:32:18.000Z</Time>
            <Position>
              <LatitudeDegrees>42.79146700166165828704833984375</LatitudeDegrees>
              <LongitudeDegrees>-0.13948081992566585540771484375</LongitudeDegrees>
            </Position>
            <AltitudeMeters>2168.39990234375</AltitudeMeters>
            <DistanceMeters>11516.70575117</DistanceMeters>
          </Trackpoint>
          <Trackpoint>
            <Time>2022-07-09T11:32:21.000Z</Time>
            <Position>
              <LatitudeDegrees>42.7914390899240970611572265625</LatitudeDegrees>
              <LongitudeDegrees>-0.139472186565399169921875</LongitudeDegrees>
            </Position>
            <AltitudeMeters>2168.800048828125</AltitudeMeters>
            <DistanceMeters>11519.891627176</DistanceMeters>
          </Trackpoint>
          <Trackpoint>
            <Time>2022-07-09T11:32:23.000Z</Time>
            <Position>
              <LatitudeDegrees>42.79142014682292938232421875</LatitudeDegrees>
              <LongitudeDegrees>-0.13946858234703540802001953125</LongitudeDegrees>
            </Position>
            <AltitudeMeters>2169.39990234375</AltitudeMeters>
            <DistanceMeters>11522.020734589</DistanceMeters>
          </Trackpoint>
          <Trackpoint>
            <Time>2022-07-09T11:32:24.000Z</Time>
            <Position>
              <LatitudeDegrees>42.79141067527234554290771484375</LatitudeDegrees>
              <LongitudeDegrees>-0.139462463557720184326171875</LongitudeDegrees>
            </Position>
            <AltitudeMeters>2169.60009765625</AltitudeMeters>
            <DistanceMeters>11523.184569399</DistanceMeters>
          </Trackpoint>
          <Trackpoint>
            <Time>2022-07-09T11:32:30.000Z</Time>
            <Position>
              <LatitudeDegrees>42.79137999750673770904541015625</LatitudeDegrees>
              <LongitudeDegrees>-0.13942097313702106475830078125</LongitudeDegrees>
            </Position>
            <AltitudeMeters>2170</AltitudeMeters>
            <DistanceMeters>11527.994460859</DistanceMeters>
          </Trackpoint>
          <Trackpoint>
            <Time>2022-07-09T11:32:33.000Z</Time>
            <Position>
              <LatitudeDegrees>42.791369520127773284912109375</LatitudeDegrees>
              <LongitudeDegrees>-0.1394118368625640869140625</LongitudeDegrees>
            </Position>
            <AltitudeMeters>2170.39990234375</AltitudeMeters>
            <DistanceMeters>11529.378070705</DistanceMeters>
          </Trackpoint>
          <Trackpoint>
            <Time>2022-07-09T11:32:34.000Z</Time>
            <Position>
              <LatitudeDegrees>42.79136675409972667694091796875</LatitudeDegrees>
              <LongitudeDegrees>-0.13940689153969287872314453125</LongitudeDegrees>
            </Position>
            <AltitudeMeters>2170.800048828125</AltitudeMeters>
            <DistanceMeters>11529.880904813</DistanceMeters>
          </Trackpoint>
          <Trackpoint>
            <Time>2022-07-09T11:32:40.000Z</Time>
            <Position>
              <LatitudeDegrees>42.79134227894246578216552734375</LatitudeDegrees>
              <LongitudeDegrees>-0.13938342221081256866455078125</LongitudeDegrees>
            </Position>
            <AltitudeMeters>2171.800048828125</AltitudeMeters>
            <DistanceMeters>11533.210909899</DistanceMeters>
          </Trackpoint>
          <Trackpoint>
            <Time>2022-07-09T11:32:42.000Z</Time>
            <Position>
              <LatitudeDegrees>42.79133121483027935028076171875</LatitudeDegrees>
              <LongitudeDegrees>-0.1393825002014636993408203125</LongitudeDegrees>
            </Position>
            <AltitudeMeters>2172.199951171875</AltitudeMeters>
            <DistanceMeters>11534.44259689</DistanceMeters>
          </Trackpoint>
          <Trackpoint>
            <Time>2022-07-09T11:32:44.000Z</Time>
            <Position>
              <LatitudeDegrees>42.79131897725164890289306640625</LatitudeDegrees>
              <LongitudeDegrees>-0.13937638141214847564697265625</LongitudeDegrees>
            </Position>
            <AltitudeMeters>2172.60009765625</AltitudeMeters>
            <DistanceMeters>11535.890000681</DistanceMeters>
          </Trackpoint>
          <Trackpoint>
            <Time>2022-07-09T11:32:45.000Z</Time>
            <Position>
              <LatitudeDegrees>42.79131160117685794830322265625</LatitudeDegrees>
              <LongitudeDegrees>-0.13937286101281642913818359375</LongitudeDegrees>
            </Position>
            <AltitudeMeters>2173</AltitudeMeters>
            <DistanceMeters>11536.760934904</DistanceMeters>
          </Trackpoint>
          <Trackpoint>
            <Time>2022-07-09T11:32:47.000Z</Time>
            <Position>
              <LatitudeDegrees>42.79129542410373687744140625</LatitudeDegrees>
              <LongitudeDegrees>-0.1393680833280086517333984375</LongitudeDegrees>
            </Position>
            <AltitudeMeters>2173.199951171875</AltitudeMeters>
            <DistanceMeters>11538.603571261</DistanceMeters>
          </Trackpoint>
          <Trackpoint>
            <Time>2022-07-09T11:32:50.000Z</Time>
            <Position>
              <LatitudeDegrees>42.79127924703061580657958984375</LatitudeDegrees>
              <LongitudeDegrees>-0.13935894705355167388916015625</LongitudeDegrees>
            </Position>
            <AltitudeMeters>2174</AltitudeMeters>
            <DistanceMeters>11540.553356424</DistanceMeters>
          </Trackpoint>
          <Trackpoint>
            <Time>2022-07-09T11:32:54.000Z</Time>
            <Position>
              <LatitudeDegrees>42.7912667579948902130126953125</LatitudeDegrees>
              <LongitudeDegrees>-0.139326341450214385986328125</LongitudeDegrees>
            </Position>
            <AltitudeMeters>2174.199951171875</AltitudeMeters>
            <DistanceMeters>11543.555358471</DistanceMeters>
          </Trackpoint>
          <Trackpoint>
            <Time>2022-07-09T11:33:00.000Z</Time>
            <Position>
              <LatitudeDegrees>42.7912335656583309173583984375</LatitudeDegrees>
              <LongitudeDegrees>-0.13929859735071659088134765625</LongitudeDegrees>
            </Position>
            <AltitudeMeters>2175</AltitudeMeters>
            <DistanceMeters>11547.889243449</DistanceMeters>
          </Trackpoint>
          <Trackpoint>
            <Time>2022-07-09T11:33:06.000Z</Time>
            <Position>
              <LatitudeDegrees>42.79120481573045253753662109375</LatitudeDegrees>
              <LongitudeDegrees>-0.13926859013736248016357421875</LongitudeDegrees>
            </Position>
            <AltitudeMeters>2175.199951171875</AltitudeMeters>
            <DistanceMeters>11551.919765441</DistanceMeters>
          </Trackpoint>
          <Trackpoint>
            <Time>2022-07-09T11:33:08.000Z</Time>
            <Position>
              <LatitudeDegrees>42.7911903150379657745361328125</LatitudeDegrees>
              <LongitudeDegrees>-0.13925802893936634063720703125</LongitudeDegrees>
            </Position>
            <AltitudeMeters>2175.39990234375</AltitudeMeters>
            <DistanceMeters>11553.750109223</DistanceMeters>
          </Trackpoint>
          <Trackpoint>
            <Time>2022-07-09T11:33:11.000Z</Time>
            <Position>
              <LatitudeDegrees>42.79117128811776638031005859375</LatitudeDegrees>
              <LongitudeDegrees>-0.1392400078475475311279296875</LongitudeDegrees>
            </Position>
            <AltitudeMeters>2176.199951171875</AltitudeMeters>
            <DistanceMeters>11556.331619714</DistanceMeters>
          </Trackpoint>
          <Trackpoint>
            <Time>2022-07-09T11:33:15.000Z</Time>
            <Position>
              <LatitudeDegrees>42.79114547185599803924560546875</LatitudeDegrees>
              <LongitudeDegrees>-0.139231123030185699462890625</LongitudeDegrees>
            </Position>
            <AltitudeMeters>2177.60009765625</AltitudeMeters>
            <DistanceMeters>11559.294259466</DistanceMeters>
          </Trackpoint>
          <Trackpoint>
            <Time>2022-07-09T11:33:20.000Z</Time>
            <Position>
              <LatitudeDegrees>42.79111898504197597503662109375</LatitudeDegrees>
              <LongitudeDegrees>-0.1392252556979656219482421875</LongitudeDegrees>
            </Position>
            <AltitudeMeters>2178.60009765625</AltitudeMeters>
            <DistanceMeters>11562.278158824</DistanceMeters>
          </Trackpoint>
          <Trackpoint>
            <Time>2022-07-09T11:33:21.000Z</Time>
            <Position>
              <LatitudeDegrees>42.7911108545958995819091796875</LatitudeDegrees>
              <LongitudeDegrees>-0.13922533951699733734130859375</LongitudeDegrees>
            </Position>
            <AltitudeMeters>2178.60009765625</AltitudeMeters>
            <DistanceMeters>11563.184655904</DistanceMeters>
          </Trackpoint>
          <Trackpoint>
            <Time>2022-07-09T11:33:26.000Z</Time>
            <Position>
              <LatitudeDegrees>42.791068442165851593017578125</LatitudeDegrees>
              <LongitudeDegrees>-0.13918728567659854888916015625</LongitudeDegrees>
            </Position>
            <AltitudeMeters>2179.199951171875</AltitudeMeters>
            <DistanceMeters>11568.8369484</DistanceMeters>
          </Trackpoint>
          <Trackpoint>
            <Time>2022-07-09T11:33:30.000Z</Time>
            <Position>
              <LatitudeDegrees>42.79104329645633697509765625</LatitudeDegrees>
              <LongitudeDegrees>-0.1391525007784366607666015625</LongitudeDegrees>
            </Position>
            <AltitudeMeters>2179.60009765625</AltitudeMeters>
            <DistanceMeters>11572.825807221</DistanceMeters>
          </Trackpoint>
          <Trackpoint>
            <Time>2022-07-09T11:33:31.000Z</Time>
            <Position>
              <LatitudeDegrees>42.791037261486053466796875</LatitudeDegrees>
              <LongitudeDegrees>-0.139145292341709136962890625</LongitudeDegrees>
            </Position>
            <AltitudeMeters>2179.800048828125</AltitudeMeters>
            <DistanceMeters>11573.712157406</DistanceMeters>
          </Trackpoint>
          <Trackpoint>
            <Time>2022-07-09T11:33:37.000Z</Time>
            <Position>
              <LatitudeDegrees>42.7910018898546695709228515625</LatitudeDegrees>
              <LongitudeDegrees>-0.139098353683948516845703125</LongitudeDegrees>
            </Position>
            <AltitudeMeters>2180</AltitudeMeters>
            <DistanceMeters>11579.207298499</DistanceMeters>
          </Trackpoint>
          <Trackpoint>
            <Time>2022-07-09T11:33:38.000Z</Time>
            <Position>
              <LatitudeDegrees>42.79099769890308380126953125</LatitudeDegrees>
              <LongitudeDegrees>-0.13909122906625270843505859375</LongitudeDegrees>
            </Position>
            <AltitudeMeters>2180.199951171875</AltitudeMeters>
            <DistanceMeters>11579.955539596</DistanceMeters>
          </Trackpoint>
          <Trackpoint>
            <Time>2022-07-09T11:33:41.000Z</Time>
            <Position>
              <LatitudeDegrees>42.7909822762012481689453125</LatitudeDegrees>
              <LongitudeDegrees>-0.13907664455473423004150390625</LongitudeDegrees>
            </Position>
            <AltitudeMeters>2180.39990234375</AltitudeMeters>
            <DistanceMeters>11582.043966497</DistanceMeters>
          </Trackpoint>
          <Trackpoint>
            <Time>2022-07-09T11:33:44.000Z</Time>
            <Position>
              <LatitudeDegrees>42.79096408747136592864990234375</LatitudeDegrees>
              <LongitudeDegrees>-0.13905602507293224334716796875</LongitudeDegrees>
            </Position>
            <AltitudeMeters>2180.60009765625</AltitudeMeters>
            <DistanceMeters>11584.677424055</DistanceMeters>
          </Trackpoint>
          <Trackpoint>
            <Time>2022-07-09T11:33:47.000Z</Time>
            <Position>
              <LatitudeDegrees>42.790943719446659088134765625</LatitudeDegrees>
              <LongitudeDegrees>-0.13903959654271602630615234375</LongitudeDegrees>
            </Position>
            <AltitudeMeters>2180.800048828125</AltitudeMeters>
            <DistanceMeters>11587.312595546</DistanceMeters>
          </Trackpoint>
          <Trackpoint>
            <Time>2022-07-09T11:33:49.000Z</Time>
            <Position>
              <LatitudeDegrees>42.79093273915350437164306640625</LatitudeDegrees>
              <LongitudeDegrees>-0.13903339393436908721923828125</LongitudeDegrees>
            </Position>
            <AltitudeMeters>2181.199951171875</AltitudeMeters>
            <DistanceMeters>11588.642969547</DistanceMeters>
          </Trackpoint>
          <Trackpoint>
            <Time>2022-07-09T11:33:51.000Z</Time>
            <Position>
              <LatitudeDegrees>42.79092536307871341705322265625</LatitudeDegrees>
              <LongitudeDegrees>-0.13902333565056324005126953125</LongitudeDegrees>
            </Position>
            <AltitudeMeters>2181.800048828125</AltitudeMeters>
            <DistanceMeters>11589.806804357</DistanceMeters>
          </Trackpoint>
          <Trackpoint>
            <Time>2022-07-09T11:33:52.000Z</Time>
            <Position>
              <LatitudeDegrees>42.79092133976519107818603515625</LatitudeDegrees>
              <LongitudeDegrees>-0.13901830650866031646728515625</LongitudeDegrees>
            </Position>
            <AltitudeMeters>2181.800048828125</AltitudeMeters>
            <DistanceMeters>11590.422647853</DistanceMeters>
          </Trackpoint>
          <Trackpoint>
            <Time>2022-07-09T11:33:57.000Z</Time>
            <Position>
              <LatitudeDegrees>42.79088236391544342041015625</LatitudeDegrees>
              <LongitudeDegrees>-0.13897874392569065093994140625</LongitudeDegrees>
            </Position>
            <AltitudeMeters>2182.199951171875</AltitudeMeters>
            <DistanceMeters>11595.83249792</DistanceMeters>
          </Trackpoint>
          <Trackpoint>
            <Time>2022-07-09T11:34:00.000Z</Time>
            <Position>
              <LatitudeDegrees>42.79085311107337474822998046875</LatitudeDegrees>
              <LongitudeDegrees>-0.1389486528933048248291015625</LongitudeDegrees>
            </Position>
            <AltitudeMeters>2182.800048828125</AltitudeMeters>
            <DistanceMeters>11599.913118089</DistanceMeters>
          </Trackpoint>
          <Trackpoint>
            <Time>2022-07-09T11:34:04.000Z</Time>
            <Position>
              <LatitudeDegrees>42.79081153683364391326904296875</LatitudeDegrees>
              <LongitudeDegrees>-0.1389183104038238525390625</LongitudeDegrees>
            </Position>
            <AltitudeMeters>2183.199951171875</AltitudeMeters>
            <DistanceMeters>11605.162860303</DistanceMeters>
          </Trackpoint>
          <Trackpoint>
            <Time>2022-07-09T11:34:07.000Z</Time>
            <Position>
              <LatitudeDegrees>42.7907853014767169952392578125</LatitudeDegrees>
              <LongitudeDegrees>-0.1389010436832904815673828125</LongitudeDegrees>
            </Position>
            <AltitudeMeters>2183.39990234375</AltitudeMeters>
            <DistanceMeters>11608.404928929</DistanceMeters>
          </Trackpoint>
          <Trackpoint>
            <Time>2022-07-09T11:34:09.000Z</Time>
            <Position>
              <LatitudeDegrees>42.7907757461071014404296875</LatitudeDegrees>
              <LongitudeDegrees>-0.13889308087527751922607421875</LongitudeDegrees>
            </Position>
            <AltitudeMeters>2183.60009765625</AltitudeMeters>
            <DistanceMeters>11609.651192605</DistanceMeters>
          </Trackpoint>
          <Trackpoint>
            <Time>2022-07-09T11:34:10.000Z</Time>
            <Position>
              <LatitudeDegrees>42.7907718904316425323486328125</LatitudeDegrees>
              <LongitudeDegrees>-0.138890482485294342041015625</LongitudeDegrees>
            </Position>
            <AltitudeMeters>2183.60009765625</AltitudeMeters>
            <DistanceMeters>11610.116726529</DistanceMeters>
          </Trackpoint>
          <Trackpoint>
            <Time>2022-07-09T11:34:11.000Z</Time>
            <Position>
              <LatitudeDegrees>42.790768705308437347412109375</LatitudeDegrees>
              <LongitudeDegrees>-0.13888503424823284149169921875</LongitudeDegrees>
            </Position>
            <AltitudeMeters>2184.199951171875</AltitudeMeters>
            <DistanceMeters>11610.678912153</DistanceMeters>
          </Trackpoint>
          <Trackpoint>
            <Time>2022-07-09T11:34:17.000Z</Time>
            <Position>
              <LatitudeDegrees>42.7907621674239635467529296875</LatitudeDegrees>
              <LongitudeDegrees>-0.13884228654205799102783203125</LongitudeDegrees>
            </Position>
            <AltitudeMeters>2185</AltitudeMeters>
            <DistanceMeters>11614.244630542</DistanceMeters>
          </Trackpoint>
          <Trackpoint>
            <Time>2022-07-09T11:34:18.000Z</Time>
            <Position>
              <LatitudeDegrees>42.79075856320559978485107421875</LatitudeDegrees>
              <LongitudeDegrees>-0.13883977197110652923583984375</LongitudeDegrees>
            </Position>
            <AltitudeMeters>2185.199951171875</AltitudeMeters>
            <DistanceMeters>11614.700362655</DistanceMeters>
          </Trackpoint>
          <Trackpoint>
            <Time>2022-07-09T11:34:19.000Z</Time>
            <Position>
              <LatitudeDegrees>42.7907564677298069000244140625</LatitudeDegrees>
              <LongitudeDegrees>-0.13883574865758419036865234375</LongitudeDegrees>
            </Position>
            <AltitudeMeters>2185.199951171875</AltitudeMeters>
            <DistanceMeters>11615.103526859</DistanceMeters>
          </Trackpoint>
          <Trackpoint>
            <Time>2022-07-09T11:34:24.000Z</Time>
            <Position>
              <LatitudeDegrees>42.79073023237287998199462890625</LatitudeDegrees>
              <LongitudeDegrees>-0.13881437480449676513671875</LongitudeDegrees>
            </Position>
            <AltitudeMeters>2185.800048828125</AltitudeMeters>
            <DistanceMeters>11618.505960988</DistanceMeters>
          </Trackpoint>
          <Trackpoint>
            <Time>2022-07-09T11:34:29.000Z</Time>
            <Position>
              <LatitudeDegrees>42.79070106334984302520751953125</LatitudeDegrees>
              <LongitudeDegrees>-0.13879165984690189361572265625</LongitudeDegrees>
            </Position>
            <AltitudeMeters>2186.39990234375</AltitudeMeters>
            <DistanceMeters>11622.244752014</DistanceMeters>
          </Trackpoint>
          <Trackpoint>
            <Time>2022-07-09T11:34:31.000Z</Time>
            <Position>
              <LatitudeDegrees>42.79068178497254848480224609375</LatitudeDegrees>
              <LongitudeDegrees>-0.1387895643711090087890625</LongitudeDegrees>
            </Position>
            <AltitudeMeters>2186.60009765625</AltitudeMeters>
            <DistanceMeters>11624.39915664</DistanceMeters>
          </Trackpoint>
          <Trackpoint>
            <Time>2022-07-09T11:34:34.000Z</Time>
            <Position>
              <LatitudeDegrees>42.79065345413982868194580078125</LatitudeDegrees>
              <LongitudeDegrees>-0.13879953883588314056396484375</LongitudeDegrees>
            </Position>
            <AltitudeMeters>2187.199951171875</AltitudeMeters>
            <DistanceMeters>11627.655121896</DistanceMeters>
          </Trackpoint>
          <Trackpoint>
            <Time>2022-07-09T11:34:35.000Z</Time>
            <Position>
              <LatitudeDegrees>42.790643312036991119384765625</LatitudeDegrees>
              <LongitudeDegrees>-0.138806998729705810546875</LongitudeDegrees>
            </Position>
            <AltitudeMeters>2187.39990234375</AltitudeMeters>
            <DistanceMeters>11628.937102361</DistanceMeters>
          </Trackpoint>
          <Trackpoint>
            <Time>2022-07-09T11:34:36.000Z</Time>
            <Position>
              <LatitudeDegrees>42.790631912648677825927734375</LatitudeDegrees>
              <LongitudeDegrees>-0.138817727565765380859375</LongitudeDegrees>
            </Position>
            <AltitudeMeters>2187.39990234375</AltitudeMeters>
            <DistanceMeters>11630.481103715</DistanceMeters>
          </Trackpoint>
          <Trackpoint>
            <Time>2022-07-09T11:34:38.000Z</Time>
            <Position>
              <LatitudeDegrees>42.7906106226146221160888671875</LatitudeDegrees>
              <LongitudeDegrees>-0.1388440467417240142822265625</LongitudeDegrees>
            </Position>
            <AltitudeMeters>2187.60009765625</AltitudeMeters>
            <DistanceMeters>11633.681120384</DistanceMeters>
          </Trackpoint>
          <Trackpoint>
            <Time>2022-07-09T11:34:44.000Z</Time>
            <Position>
              <LatitudeDegrees>42.79055018909275531768798828125</LatitudeDegrees>
              <LongitudeDegrees>-0.13892157934606075286865234375</LongitudeDegrees>
            </Position>
            <AltitudeMeters>2188.39990234375</AltitudeMeters>
            <DistanceMeters>11642.919261565</DistanceMeters>
          </Trackpoint>
          <Trackpoint>
            <Time>2022-07-09T11:34:45.000Z</Time>
            <Position>
              <LatitudeDegrees>42.79054163955152034759521484375</LatitudeDegrees>
              <LongitudeDegrees>-0.13893364928662776947021484375</LongitudeDegrees>
            </Position>
            <AltitudeMeters>2188.60009765625</AltitudeMeters>
            <DistanceMeters>11644.28975633</DistanceMeters>
          </Trackpoint>
          <Trackpoint>
            <Time>2022-07-09T11:34:47.000Z</Time>
            <Position>
              <LatitudeDegrees>42.7905271388590335845947265625</LatitudeDegrees>
              <LongitudeDegrees>-0.13894672505557537078857421875</LongitudeDegrees>
            </Position>
            <AltitudeMeters>2189.39990234375</AltitudeMeters>
            <DistanceMeters>11646.227928613</DistanceMeters>
          </Trackpoint>
          <Trackpoint>
            <Time>2022-07-09T11:34:49.000Z</Time>
            <Position>
              <LatitudeDegrees>42.79051481746137142181396484375</LatitudeDegrees>
              <LongitudeDegrees>-0.13895678333938121795654296875</LongitudeDegrees>
            </Position>
            <AltitudeMeters>2189.800048828125</AltitudeMeters>
            <DistanceMeters>11647.829347269</DistanceMeters>
          </Trackpoint>
          <Trackpoint>
            <Time>2022-07-09T11:34:50.000Z</Time>
            <Position>
              <LatitudeDegrees>42.7905097045004367828369140625</LatitudeDegrees>
              <LongitudeDegrees>-0.1389603875577449798583984375</LongitudeDegrees>
            </Position>
            <AltitudeMeters>2190</AltitudeMeters>
            <DistanceMeters>11648.459683182</DistanceMeters>
          </Trackpoint>
          <Trackpoint>
            <Time>2022-07-09T11:34:51.000Z</Time>
            <Position>
              <LatitudeDegrees>42.79050542972981929779052734375</LatitudeDegrees>
              <LongitudeDegrees>-0.13896248303353786468505859375</LongitudeDegrees>
            </Position>
            <AltitudeMeters>2190.199951171875</AltitudeMeters>
            <DistanceMeters>11648.953456474</DistanceMeters>
          </Trackpoint>
          <Trackpoint>
            <Time>2022-07-09T11:34:55.000Z</Time>
            <Position>
              <LatitudeDegrees>42.790476344525814056396484375</LatitudeDegrees>
              <LongitudeDegrees>-0.13897220604121685028076171875</LongitudeDegrees>
            </Position>
            <AltitudeMeters>2190.60009765625</AltitudeMeters>
            <DistanceMeters>11652.286172188</DistanceMeters>
          </Trackpoint>
          <Trackpoint>
            <Time>2022-07-09T11:35:01.000Z</Time>
            <Position>
              <LatitudeDegrees>42.7904216945171356201171875</LatitudeDegrees>
              <LongitudeDegrees>-0.13895376585423946380615234375</LongitudeDegrees>
            </Position>
            <AltitudeMeters>2190.800048828125</AltitudeMeters>
            <DistanceMeters>11658.552173494</DistanceMeters>
          </Trackpoint>
          <Trackpoint>
            <Time>2022-07-09T11:35:02.000Z</Time>
            <Position>
              <LatitudeDegrees>42.79041473753750324249267578125</LatitudeDegrees>
              <LongitudeDegrees>-0.1389456354081630706787109375</LongitudeDegrees>
            </Position>
            <AltitudeMeters>2190.800048828125</AltitudeMeters>
            <DistanceMeters>11659.57564253</DistanceMeters>
          </Trackpoint>
          <Trackpoint>
            <Time>2022-07-09T11:35:08.000Z</Time>
            <Position>
              <LatitudeDegrees>42.79035522602498531341552734375</LatitudeDegrees>
              <LongitudeDegrees>-0.13891520909965038299560546875</LongitudeDegrees>
            </Position>
            <AltitudeMeters>2190.60009765625</AltitudeMeters>
            <DistanceMeters>11666.649869248</DistanceMeters>
          </Trackpoint>
          <Trackpoint>
            <Time>2022-07-09T11:35:09.000Z</Time>
            <Position>
              <LatitudeDegrees>42.79034902341663837432861328125</LatitudeDegrees>
              <LongitudeDegrees>-0.1389183104038238525390625</LongitudeDegrees>
            </Position>
            <AltitudeMeters>2190.39990234375</AltitudeMeters>
            <DistanceMeters>11667.373571144</DistanceMeters>
          </Trackpoint>
          <Trackpoint>
            <Time>2022-07-09T11:35:11.000Z</Time>
            <Position>
              <LatitudeDegrees>42.79034751467406749725341796875</LatitudeDegrees>
              <LongitudeDegrees>-0.13893800787627696990966796875</LongitudeDegrees>
            </Position>
            <AltitudeMeters>2190.39990234375</AltitudeMeters>
            <DistanceMeters>11668.986227963</DistanceMeters>
          </Trackpoint>
          <Trackpoint>
            <Time>2022-07-09T11:35:13.000Z</Time>
            <Position>
              <LatitudeDegrees>42.7903407253324985504150390625</LatitudeDegrees>
              <LongitudeDegrees>-0.13894580304622650146484375</LongitudeDegrees>
            </Position>
            <AltitudeMeters>2190.39990234375</AltitudeMeters>
            <DistanceMeters>11669.973774547</DistanceMeters>
          </Trackpoint>
          <Trackpoint>
            <Time>2022-07-09T11:35:14.000Z</Time>
            <Position>
              <LatitudeDegrees>42.7903356961905956268310546875</LatitudeDegrees>
              <LongitudeDegrees>-0.138945467770099639892578125</LongitudeDegrees>
            </Position>
            <AltitudeMeters>2190.39990234375</AltitudeMeters>
            <DistanceMeters>11670.535960171</DistanceMeters>
          </Trackpoint>
          <Trackpoint>
            <Time>2022-07-09T11:35:15.000Z</Time>
            <Position>
              <LatitudeDegrees>42.79033024795353412628173828125</LatitudeDegrees>
              <LongitudeDegrees>-0.1389432884752750396728515625</LongitudeDegrees>
            </Position>
            <AltitudeMeters>2190.60009765625</AltitudeMeters>
            <DistanceMeters>11671.17341875</DistanceMeters>
          </Trackpoint>
          <Trackpoint>
            <Time>2022-07-09T11:35:21.000Z</Time>
            <Position>
              <LatitudeDegrees>42.79027794487774372100830078125</LatitudeDegrees>
              <LongitudeDegrees>-0.1389298774302005767822265625</LongitudeDegrees>
            </Position>
            <AltitudeMeters>2190.39990234375</AltitudeMeters>
            <DistanceMeters>11677.097174067</DistanceMeters>
          </Trackpoint>
          <Trackpoint>
            <Time>2022-07-09T11:35:25.000Z</Time>
            <Position>
              <LatitudeDegrees>42.79025204479694366455078125</LatitudeDegrees>
              <LongitudeDegrees>-0.1389208249747753143310546875</LongitudeDegrees>
            </Position>
            <AltitudeMeters>2189.800048828125</AltitudeMeters>
            <DistanceMeters>11680.073498141</DistanceMeters>
          </Trackpoint>
          <Trackpoint>
            <Time>2022-07-09T11:35:30.000Z</Time>
            <Position>
              <LatitudeDegrees>42.7902113087475299835205078125</LatitudeDegrees>
              <LongitudeDegrees>-0.1388893090188503265380859375</LongitudeDegrees>
            </Position>
            <AltitudeMeters>2189.60009765625</AltitudeMeters>
            <DistanceMeters>11685.287859096</DistanceMeters>
          </Trackpoint>
          <Trackpoint>
            <Time>2022-07-09T11:35:31.000Z</Time>
            <Position>
              <LatitudeDegrees>42.79020435176789760589599609375</LatitudeDegrees>
              <LongitudeDegrees>-0.1388852857053279876708984375</LongitudeDegrees>
            </Position>
            <AltitudeMeters>2189.60009765625</AltitudeMeters>
            <DistanceMeters>11686.132475008</DistanceMeters>
          </Trackpoint>
          <Trackpoint>
            <Time>2022-07-09T11:35:32.000Z</Time>
            <Position>
              <LatitudeDegrees>42.7901972271502017974853515625</LatitudeDegrees>
              <LongitudeDegrees>-0.1388822682201862335205078125</LongitudeDegrees>
            </Position>
            <AltitudeMeters>2189.800048828125</AltitudeMeters>
            <DistanceMeters>11686.960898698</DistanceMeters>
          </Trackpoint>
          <Trackpoint>
            <Time>2022-07-09T11:35:33.000Z</Time>
            <Position>
              <LatitudeDegrees>42.79018641449511051177978515625</LatitudeDegrees>
              <LongitudeDegrees>-0.1388802565634250640869140625</LongitudeDegrees>
            </Position>
            <AltitudeMeters>2190</AltitudeMeters>
            <DistanceMeters>11688.177834414</DistanceMeters>
          </Trackpoint>
          <Trackpoint>
            <Time>2022-07-09T11:35:36.000Z</Time>
            <Position>
              <LatitudeDegrees>42.790127657353878021240234375</LatitudeDegrees>
              <LongitudeDegrees>-0.1388859562575817108154296875</LongitudeDegrees>
            </Position>
            <AltitudeMeters>2190.60009765625</AltitudeMeters>
            <DistanceMeters>11694.73398907</DistanceMeters>
          </Trackpoint>
          <Trackpoint>
            <Time>2022-07-09T11:35:37.000Z</Time>
            <Position>
              <LatitudeDegrees>42.79011533595621585845947265625</LatitudeDegrees>
              <LongitudeDegrees>-0.13888134621083736419677734375</LongitudeDegrees>
            </Position>
            <AltitudeMeters>2191</AltitudeMeters>
            <DistanceMeters>11696.156218701</DistanceMeters>
          </Trackpoint>
          <Trackpoint>
            <Time>2022-07-09T11:35:40.000Z</Time>
            <Position>
              <LatitudeDegrees>42.79007594101130962371826171875</LatitudeDegrees>
              <LongitudeDegrees>-0.138865001499652862548828125</LongitudeDegrees>
            </Position>
            <AltitudeMeters>2192</AltitudeMeters>
            <DistanceMeters>11700.739226208</DistanceMeters>
          </Trackpoint>
          <Trackpoint>
            <Time>2022-07-09T11:35:41.000Z</Time>
            <Position>
              <LatitudeDegrees>42.79006236232817173004150390625</LatitudeDegrees>
              <LongitudeDegrees>-0.1388598047196865081787109375</LongitudeDegrees>
            </Position>
            <AltitudeMeters>2192.39990234375</AltitudeMeters>
            <DistanceMeters>11702.30644693</DistanceMeters>
          </Trackpoint>
          <Trackpoint>
            <Time>2022-07-09T11:35:47.000Z</Time>
            <Position>
              <LatitudeDegrees>42.7899940498173236846923828125</LatitudeDegrees>
              <LongitudeDegrees>-0.13884228654205799102783203125</LongitudeDegrees>
            </Position>
            <AltitudeMeters>2193</AltitudeMeters>
            <DistanceMeters>11710.042812141</DistanceMeters>
          </Trackpoint>
          <Trackpoint>
            <Time>2022-07-09T11:35:49.000Z</Time>
            <Position>
              <LatitudeDegrees>42.78997569344937801361083984375</LatitudeDegrees>
              <LongitudeDegrees>-0.13883390463888645172119140625</LongitudeDegrees>
            </Position>
            <AltitudeMeters>2193.199951171875</AltitudeMeters>
            <DistanceMeters>11712.197216767</DistanceMeters>
          </Trackpoint>
          <Trackpoint>
            <Time>2022-07-09T11:35:55.000Z</Time>
            <Position>
              <LatitudeDegrees>42.789943255484104156494140625</LatitudeDegrees>
              <LongitudeDegrees>-0.138847567141056060791015625</LongitudeDegrees>
            </Position>
            <AltitudeMeters>2193.199951171875</AltitudeMeters>
            <DistanceMeters>11715.975649095</DistanceMeters>
          </Trackpoint>
          <Trackpoint>
            <Time>2022-07-09T11:35:56.000Z</Time>
            <Position>
              <LatitudeDegrees>42.7899410761892795562744140625</LatitudeDegrees>
              <LongitudeDegrees>-0.1388490758836269378662109375</LongitudeDegrees>
            </Position>
            <AltitudeMeters>2193.199951171875</AltitudeMeters>
            <DistanceMeters>11716.244425231</DistanceMeters>
          </Trackpoint>
          <Trackpoint>
            <Time>2022-07-09T11:35:57.000Z</Time>
            <Position>
              <LatitudeDegrees>42.78993965126574039459228515625</LatitudeDegrees>
              <LongitudeDegrees>-0.1388450525701045989990234375</LongitudeDegrees>
            </Position>
            <AltitudeMeters>2193.39990234375</AltitudeMeters>
            <DistanceMeters>11716.612462114</DistanceMeters>
          </Trackpoint>
          <Trackpoint>
            <Time>2022-07-09T11:35:58.000Z</Time>
            <Position>
              <LatitudeDegrees>42.78993914835155010223388671875</LatitudeDegrees>
              <LongitudeDegrees>-0.138840191066265106201171875</LongitudeDegrees>
            </Position>
            <AltitudeMeters>2193.60009765625</AltitudeMeters>
            <DistanceMeters>11717.015626318</DistanceMeters>
          </Trackpoint>
          <Trackpoint>
            <Time>2022-07-09T11:36:01.000Z</Time>
            <Position>
              <LatitudeDegrees>42.78995708562433719635009765625</LatitudeDegrees>
              <LongitudeDegrees>-0.13882569037377834320068359375</LongitudeDegrees>
            </Position>
            <AltitudeMeters>2194.199951171875</AltitudeMeters>
            <DistanceMeters>11719.335524066</DistanceMeters>
          </Trackpoint>
          <Trackpoint>
            <Time>2022-07-09T11:36:03.000Z</Time>
            <Position>
              <LatitudeDegrees>42.78996362350881099700927734375</LatitudeDegrees>
              <LongitudeDegrees>-0.13882510364055633544921875</LongitudeDegrees>
            </Position>
            <AltitudeMeters>2194.60009765625</AltitudeMeters>
            <DistanceMeters>11720.059225962</DistanceMeters>
          </Trackpoint>
          <Trackpoint>
            <Time>2022-07-09T11:36:07.000Z</Time>
            <Position>
              <LatitudeDegrees>42.7899766154587268829345703125</LatitudeDegrees>
              <LongitudeDegrees>-0.1388121955096721649169921875</LongitudeDegrees>
            </Position>
            <AltitudeMeters>2195.60009765625</AltitudeMeters>
            <DistanceMeters>11721.847142923</DistanceMeters>
          </Trackpoint>
          <Trackpoint>
            <Time>2022-07-09T11:36:10.000Z</Time>
            <Position>
              <LatitudeDegrees>42.7899813093245029449462890625</LatitudeDegrees>
              <LongitudeDegrees>-0.13880523853003978729248046875</LongitudeDegrees>
            </Position>
            <AltitudeMeters>2196.39990234375</AltitudeMeters>
            <DistanceMeters>11722.624970103</DistanceMeters>
          </Trackpoint>
          <Trackpoint>
            <Time>2022-07-09T11:36:13.000Z</Time>
            <Position>
              <LatitudeDegrees>42.7899792976677417755126953125</LatitudeDegrees>
              <LongitudeDegrees>-0.1387974433600902557373046875</LongitudeDegrees>
            </Position>
            <AltitudeMeters>2196.800048828125</AltitudeMeters>
            <DistanceMeters>11723.296910444</DistanceMeters>
          </Trackpoint>
          <Trackpoint>
            <Time>2022-07-09T11:36:15.000Z</Time>
            <Position>
              <LatitudeDegrees>42.78998876921832561492919921875</LatitudeDegrees>
              <LongitudeDegrees>-0.13878026045858860015869140625</LongitudeDegrees>
            </Position>
            <AltitudeMeters>2197.199951171875</AltitudeMeters>
            <DistanceMeters>11725.051691362</DistanceMeters>
          </Trackpoint>
          <Trackpoint>
            <Time>2022-07-09T11:36:17.000Z</Time>
            <Position>
              <LatitudeDegrees>42.7899876795709133148193359375</LatitudeDegrees>
              <LongitudeDegrees>-0.13876718468964099884033203125</LongitudeDegrees>
            </Position>
            <AltitudeMeters>2197.60009765625</AltitudeMeters>
            <DistanceMeters>11726.130987364</DistanceMeters>
          </Trackpoint>
          <Trackpoint>
            <Time>2022-07-09T11:36:19.000Z</Time>
            <Position>
              <LatitudeDegrees>42.789980806410312652587890625</LatitudeDegrees>
              <LongitudeDegrees>-0.1387619040906429290771484375</LongitudeDegrees>
            </Position>
            <AltitudeMeters>2198</AltitudeMeters>
            <DistanceMeters>11727.001921588</DistanceMeters>
          </Trackpoint>
          <Trackpoint>
            <Time>2022-07-09T11:36:22.000Z</Time>
            <Position>
              <LatitudeDegrees>42.7899684011936187744140625</LatitudeDegrees>
              <LongitudeDegrees>-0.13875092379748821258544921875</LongitudeDegrees>
            </Position>
            <AltitudeMeters>2198.60009765625</AltitudeMeters>
            <DistanceMeters>11728.647832561</DistanceMeters>
          </Trackpoint>
          <Trackpoint>
            <Time>2022-07-09T11:36:25.000Z</Time>
            <Position>
              <LatitudeDegrees>42.78995339758694171905517578125</LatitudeDegrees>
              <LongitudeDegrees>-0.13873700983822345733642578125</LongitudeDegrees>
            </Position>
            <AltitudeMeters>2199</AltitudeMeters>
            <DistanceMeters>11730.668128221</DistanceMeters>
          </Trackpoint>
          <Trackpoint>
            <Time>2022-07-09T11:36:29.000Z</Time>
            <Position>
              <LatitudeDegrees>42.78991634957492351531982421875</LatitudeDegrees>
              <LongitudeDegrees>-0.13871513307094573974609375</LongitudeDegrees>
            </Position>
            <AltitudeMeters>2199.39990234375</AltitudeMeters>
            <DistanceMeters>11735.163604957</DistanceMeters>
          </Trackpoint>
          <Trackpoint>
            <Time>2022-07-09T11:36:31.000Z</Time>
            <Position>
              <LatitudeDegrees>42.7899013459682464599609375</LatitudeDegrees>
              <LongitudeDegrees>-0.13870247639715671539306640625</LongitudeDegrees>
            </Position>
            <AltitudeMeters>2199.60009765625</AltitudeMeters>
            <DistanceMeters>11737.124934242</DistanceMeters>
          </Trackpoint>
          <Trackpoint>
            <Time>2022-07-09T11:36:33.000Z</Time>
            <Position>
              <LatitudeDegrees>42.78988298960030078887939453125</LatitudeDegrees>
              <LongitudeDegrees>-0.13869711197912693023681640625</LongitudeDegrees>
            </Position>
            <AltitudeMeters>2200</AltitudeMeters>
            <DistanceMeters>11739.213361143</DistanceMeters>
          </Trackpoint>
          <Trackpoint>
            <Time>2022-07-09T11:36:34.000Z</Time>
            <Position>
              <LatitudeDegrees>42.78987460769712924957275390625</LatitudeDegrees>
              <LongitudeDegrees>-0.13869493268430233001708984375</LongitudeDegrees>
            </Position>
            <AltitudeMeters>2200.199951171875</AltitudeMeters>
            <DistanceMeters>11740.163628287</DistanceMeters>
          </Trackpoint>
          <Trackpoint>
            <Time>2022-07-09T11:36:36.000Z</Time>
            <Position>
              <LatitudeDegrees>42.789857424795627593994140625</LatitudeDegrees>
              <LongitudeDegrees>-0.13869459740817546844482421875</LongitudeDegrees>
            </Position>
            <AltitudeMeters>2200.199951171875</AltitudeMeters>
            <DistanceMeters>11742.076004024</DistanceMeters>
          </Trackpoint>
          <Trackpoint>
            <Time>2022-07-09T11:36:42.000Z</Time>
            <Position>
              <LatitudeDegrees>42.78981794603168964385986328125</LatitudeDegrees>
              <LongitudeDegrees>-0.13867531903088092803955078125</LongitudeDegrees>
            </Position>
            <AltitudeMeters>2201.199951171875</AltitudeMeters>
            <DistanceMeters>11746.74393445</DistanceMeters>
          </Trackpoint>
          <Trackpoint>
            <Time>2022-07-09T11:36:44.000Z</Time>
            <Position>
              <LatitudeDegrees>42.7898056246340274810791015625</LatitudeDegrees>
              <LongitudeDegrees>-0.13867062516510486602783203125</LongitudeDegrees>
            </Position>
            <AltitudeMeters>2201.800048828125</AltitudeMeters>
            <DistanceMeters>11748.166164081</DistanceMeters>
          </Trackpoint>
          <Trackpoint>
            <Time>2022-07-09T11:36:48.000Z</Time>
            <Position>
              <LatitudeDegrees>42.7897969074547290802001953125</LatitudeDegrees>
              <LongitudeDegrees>-0.138658471405506134033203125</LongitudeDegrees>
            </Position>
            <AltitudeMeters>2202.60009765625</AltitudeMeters>
            <DistanceMeters>11749.553033319</DistanceMeters>
          </Trackpoint>
          <Trackpoint>
            <Time>2022-07-09T11:36:51.000Z</Time>
            <Position>
              <LatitudeDegrees>42.7898002602159976959228515625</LatitudeDegrees>
              <LongitudeDegrees>-0.1386629976332187652587890625</LongitudeDegrees>
            </Position>
            <AltitudeMeters>2203.39990234375</AltitudeMeters>
            <DistanceMeters>11750.082119672</DistanceMeters>
          </Trackpoint>
          <Trackpoint>
            <Time>2022-07-09T11:36:55.000Z</Time>
            <Position>
              <LatitudeDegrees>42.78979816474020481109619140625</LatitudeDegrees>
              <LongitudeDegrees>-0.138646401464939117431640625</LongitudeDegrees>
            </Position>
            <AltitudeMeters>2203.60009765625</AltitudeMeters>
            <DistanceMeters>11751.459187591</DistanceMeters>
          </Trackpoint>
          <Trackpoint>
            <Time>2022-07-09T11:36:58.000Z</Time>
            <Position>
              <LatitudeDegrees>42.78979766182601451873779296875</LatitudeDegrees>
              <LongitudeDegrees>-0.1386217586696147918701171875</LongitudeDegrees>
            </Position>
            <AltitudeMeters>2204</AltitudeMeters>
            <DistanceMeters>11753.475008615</DistanceMeters>
          </Trackpoint>
          <Trackpoint>
            <Time>2022-07-09T11:37:03.000Z</Time>
            <Position>
              <LatitudeDegrees>42.78976120054721832275390625</LatitudeDegrees>
              <LongitudeDegrees>-0.13863776810467243194580078125</LongitudeDegrees>
            </Position>
            <AltitudeMeters>2204.39990234375</AltitudeMeters>
            <DistanceMeters>11757.73958057</DistanceMeters>
          </Trackpoint>
          <Trackpoint>
            <Time>2022-07-09T11:37:05.000Z</Time>
            <Position>
              <LatitudeDegrees>42.78973999433219432830810546875</LatitudeDegrees>
              <LongitudeDegrees>-0.13864028267562389373779296875</LongitudeDegrees>
            </Position>
            <AltitudeMeters>2204.39990234375</AltitudeMeters>
            <DistanceMeters>11760.109539968</DistanceMeters>
          </Trackpoint>
          <Trackpoint>
            <Time>2022-07-09T11:37:07.000Z</Time>
            <Position>
              <LatitudeDegrees>42.7897288464009761810302734375</LatitudeDegrees>
              <LongitudeDegrees>-0.138626284897327423095703125</LongitudeDegrees>
            </Position>
            <AltitudeMeters>2204.800048828125</AltitudeMeters>
            <DistanceMeters>11761.796096839</DistanceMeters>
          </Trackpoint>
          <Trackpoint>
            <Time>2022-07-09T11:37:09.000Z</Time>
            <Position>
              <LatitudeDegrees>42.7897189557552337646484375</LatitudeDegrees>
              <LongitudeDegrees>-0.13862201012670993804931640625</LongitudeDegrees>
            </Position>
            <AltitudeMeters>2205.199951171875</AltitudeMeters>
            <DistanceMeters>11762.948234521</DistanceMeters>
          </Trackpoint>
          <Trackpoint>
            <Time>2022-07-09T11:37:12.000Z</Time>
            <Position>
              <LatitudeDegrees>42.789712250232696533203125</LatitudeDegrees>
              <LongitudeDegrees>-0.13861857354640960693359375</LongitudeDegrees>
            </Position>
            <AltitudeMeters>2205.60009765625</AltitudeMeters>
            <DistanceMeters>11763.743285054</DistanceMeters>
          </Trackpoint>
          <Trackpoint>
            <Time>2022-07-09T11:37:15.000Z</Time>
            <Position>
              <LatitudeDegrees>42.78969188220798969268798828125</LatitudeDegrees>
              <LongitudeDegrees>-0.13861580751836299896240234375</LongitudeDegrees>
            </Position>
            <AltitudeMeters>2205.60009765625</AltitudeMeters>
            <DistanceMeters>11766.021945616</DistanceMeters>
          </Trackpoint>
          <Trackpoint>
            <Time>2022-07-09T11:37:19.000Z</Time>
            <Position>
              <LatitudeDegrees>42.78966539539396762847900390625</LatitudeDegrees>
              <LongitudeDegrees>-0.1385949365794658660888671875</LongitudeDegrees>
            </Position>
            <AltitudeMeters>2206</AltitudeMeters>
            <DistanceMeters>11769.427032715</DistanceMeters>
          </Trackpoint>
          <Trackpoint>
            <Time>2022-07-09T11:37:21.000Z</Time>
            <Position>
              <LatitudeDegrees>42.78964695520699024200439453125</LatitudeDegrees>
              <LongitudeDegrees>-0.13859787024557590484619140625</LongitudeDegrees>
            </Position>
            <AltitudeMeters>2206.39990234375</AltitudeMeters>
            <DistanceMeters>11771.491541393</DistanceMeters>
          </Trackpoint>
          <Trackpoint>
            <Time>2022-07-09T11:37:23.000Z</Time>
            <Position>
              <LatitudeDegrees>42.78962767682969570159912109375</LatitudeDegrees>
              <LongitudeDegrees>-0.13859703205525875091552734375</LongitudeDegrees>
            </Position>
            <AltitudeMeters>2207.199951171875</AltitudeMeters>
            <DistanceMeters>11773.641750485</DistanceMeters>
          </Trackpoint>
          <Trackpoint>
            <Time>2022-07-09T11:37:27.000Z</Time>
            <Position>
              <LatitudeDegrees>42.78959758579730987548828125</LatitudeDegrees>
              <LongitudeDegrees>-0.13856953941285610198974609375</LongitudeDegrees>
            </Position>
            <AltitudeMeters>2207.800048828125</AltitudeMeters>
            <DistanceMeters>11777.674512278</DistanceMeters>
          </Trackpoint>
          <Trackpoint>
            <Time>2022-07-09T11:37:29.000Z</Time>
            <Position>
              <LatitudeDegrees>42.78958576731383800506591796875</LatitudeDegrees>
              <LongitudeDegrees>-0.13854640536010265350341796875</LongitudeDegrees>
            </Position>
            <AltitudeMeters>2208.199951171875</AltitudeMeters>
            <DistanceMeters>11779.974865467</DistanceMeters>
          </Trackpoint>
          <Trackpoint>
            <Time>2022-07-09T11:37:32.000Z</Time>
            <Position>
              <LatitudeDegrees>42.78956866823136806488037109375</LatitudeDegrees>
              <LongitudeDegrees>-0.13851539231836795806884765625</LongitudeDegrees>
            </Position>
            <AltitudeMeters>2209.199951171875</AltitudeMeters>
            <DistanceMeters>11783.140838438</DistanceMeters>
          </Trackpoint>
          <Trackpoint>
            <Time>2022-07-09T11:37:34.000Z</Time>
            <Position>
              <LatitudeDegrees>42.7895692549645900726318359375</LatitudeDegrees>
              <LongitudeDegrees>-0.13849561102688312530517578125</LongitudeDegrees>
            </Position>
            <AltitudeMeters>2210</AltitudeMeters>
            <DistanceMeters>11784.759085072</DistanceMeters>
          </Trackpoint>
          <Trackpoint>
            <Time>2022-07-09T11:37:35.000Z</Time>
            <Position>
              <LatitudeDegrees>42.78957135044038295745849609375</LatitudeDegrees>
              <LongitudeDegrees>-0.13848848640918731689453125</LongitudeDegrees>
            </Position>
            <AltitudeMeters>2210.39990234375</AltitudeMeters>
            <DistanceMeters>11785.389420986</DistanceMeters>
          </Trackpoint>
          <Trackpoint>
            <Time>2022-07-09T11:37:38.000Z</Time>
            <Position>
              <LatitudeDegrees>42.7895850129425525665283203125</LatitudeDegrees>
              <LongitudeDegrees>-0.13847398571670055389404296875</LongitudeDegrees>
            </Position>
            <AltitudeMeters>2211.39990234375</AltitudeMeters>
            <DistanceMeters>11787.318252625</DistanceMeters>
          </Trackpoint>
          <Trackpoint>
            <Time>2022-07-09T11:37:39.000Z</Time>
            <Position>
              <LatitudeDegrees>42.78958777897059917449951171875</LatitudeDegrees>
              <LongitudeDegrees>-0.13847281225025653839111328125</LongitudeDegrees>
            </Position>
            <AltitudeMeters>2211.60009765625</AltitudeMeters>
            <DistanceMeters>11787.633420582</DistanceMeters>
          </Trackpoint>
          <Trackpoint>
            <Time>2022-07-09T11:37:40.000Z</Time>
            <Position>
              <LatitudeDegrees>42.78959624469280242919921875</LatitudeDegrees>
              <LongitudeDegrees>-0.13847851194441318511962890625</LongitudeDegrees>
            </Position>
            <AltitudeMeters>2211.800048828125</AltitudeMeters>
            <DistanceMeters>11788.683024949</DistanceMeters>
          </Trackpoint>
          <Trackpoint>
            <Time>2022-07-09T11:37:41.000Z</Time>
            <Position>
              <LatitudeDegrees>42.7896051295101642608642578125</LatitudeDegrees>
              <LongitudeDegrees>-0.13848504982888698577880859375</LongitudeDegrees>
            </Position>
            <AltitudeMeters>2211.800048828125</AltitudeMeters>
            <DistanceMeters>11789.807396196</DistanceMeters>
          </Trackpoint>
          <Trackpoint>
            <Time>2022-07-09T11:37:44.000Z</Time>
            <Position>
              <LatitudeDegrees>42.78963111340999603271484375</LatitudeDegrees>
              <LongitudeDegrees>-0.138506256043910980224609375</LongitudeDegrees>
            </Position>
            <AltitudeMeters>2212.39990234375</AltitudeMeters>
            <DistanceMeters>11793.177831801</DistanceMeters>
          </Trackpoint>
          <Trackpoint>
            <Time>2022-07-09T11:37:45.000Z</Time>
            <Position>
              <LatitudeDegrees>42.78964125551283359527587890625</LatitudeDegrees>
              <LongitudeDegrees>-0.13850918971002101898193359375</LongitudeDegrees>
            </Position>
            <AltitudeMeters>2212.60009765625</AltitudeMeters>
            <DistanceMeters>11794.326043959</DistanceMeters>
          </Trackpoint>
          <Trackpoint>
            <Time>2022-07-09T11:37:48.000Z</Time>
            <Position>
              <LatitudeDegrees>42.78967000544071197509765625</LatitudeDegrees>
              <LongitudeDegrees>-0.13849762268364429473876953125</LongitudeDegrees>
            </Position>
            <AltitudeMeters>2213.39990234375</AltitudeMeters>
            <DistanceMeters>11797.661468097</DistanceMeters>
          </Trackpoint>
          <Trackpoint>
            <Time>2022-07-09T11:37:49.000Z</Time>
            <Position>
              <LatitudeDegrees>42.78967629186809062957763671875</LatitudeDegrees>
              <LongitudeDegrees>-0.1384923420846462249755859375</LongitudeDegrees>
            </Position>
            <AltitudeMeters>2213.60009765625</AltitudeMeters>
            <DistanceMeters>11798.478918803</DistanceMeters>
          </Trackpoint>
          <Trackpoint>
            <Time>2022-07-09T11:37:53.000Z</Time>
            <Position>
              <LatitudeDegrees>42.7897197939455509185791015625</LatitudeDegrees>
              <LongitudeDegrees>-0.13845026493072509765625</LongitudeDegrees>
            </Position>
            <AltitudeMeters>2214</AltitudeMeters>
            <DistanceMeters>11804.416377724</DistanceMeters>
          </Trackpoint>
          <Trackpoint>
            <Time>2022-07-09T11:37:54.000Z</Time>
            <Position>
              <LatitudeDegrees>42.7897251583635807037353515625</LatitudeDegrees>
              <LongitudeDegrees>-0.1384397037327289581298828125</LongitudeDegrees>
            </Position>
            <AltitudeMeters>2214.60009765625</AltitudeMeters>
            <DistanceMeters>11805.461671582</DistanceMeters>
          </Trackpoint>
          <Trackpoint>
            <Time>2022-07-09T11:37:58.000Z</Time>
            <Position>
              <LatitudeDegrees>42.78972557745873928070068359375</LatitudeDegrees>
              <LongitudeDegrees>-0.1384095288813114166259765625</LongitudeDegrees>
            </Position>
            <AltitudeMeters>2215.800048828125</AltitudeMeters>
            <DistanceMeters>11807.926877749</DistanceMeters>
          </Trackpoint>
          <Trackpoint>
            <Time>2022-07-09T11:37:59.000Z</Time>
            <Position>
              <LatitudeDegrees>42.78972088359296321868896484375</LatitudeDegrees>
              <LongitudeDegrees>-0.13840223662555217742919921875</LongitudeDegrees>
            </Position>
            <AltitudeMeters>2216</AltitudeMeters>
            <DistanceMeters>11808.710488111</DistanceMeters>
          </Trackpoint>
          <Trackpoint>
            <Time>2022-07-09T11:38:02.000Z</Time>
            <Position>
              <LatitudeDegrees>42.789701186120510101318359375</LatitudeDegrees>
              <LongitudeDegrees>-0.13838379643857479095458984375</LongitudeDegrees>
            </Position>
            <AltitudeMeters>2216.199951171875</AltitudeMeters>
            <DistanceMeters>11811.369538666</DistanceMeters>
          </Trackpoint>
          <Trackpoint>
            <Time>2022-07-09T11:38:03.000Z</Time>
            <Position>
              <LatitudeDegrees>42.78969238512217998504638671875</LatitudeDegrees>
              <LongitudeDegrees>-0.13837449252605438232421875</LongitudeDegrees>
            </Position>
            <AltitudeMeters>2216.39990234375</AltitudeMeters>
            <DistanceMeters>11812.6121742</DistanceMeters>
          </Trackpoint>
          <Trackpoint>
            <Time>2022-07-09T11:38:05.000Z</Time>
            <Position>
              <LatitudeDegrees>42.78967796824872493743896484375</LatitudeDegrees>
              <LongitudeDegrees>-0.1383518613874912261962890625</LongitudeDegrees>
            </Position>
            <AltitudeMeters>2216.800048828125</AltitudeMeters>
            <DistanceMeters>11815.06084134</DistanceMeters>
          </Trackpoint>
          <Trackpoint>
            <Time>2022-07-09T11:38:06.000Z</Time>
            <Position>
              <LatitudeDegrees>42.78966598212718963623046875</LatitudeDegrees>
              <LongitudeDegrees>-0.13834507204592227935791015625</LongitudeDegrees>
            </Position>
            <AltitudeMeters>2217</AltitudeMeters>
            <DistanceMeters>11816.505122358</DistanceMeters>
          </Trackpoint>
          <Trackpoint>
            <Time>2022-07-09T11:38:07.000Z</Time>
            <Position>
              <LatitudeDegrees>42.78965299017727375030517578125</LatitudeDegrees>
              <LongitudeDegrees>-0.1383414678275585174560546875</LongitudeDegrees>
            </Position>
            <AltitudeMeters>2217.199951171875</AltitudeMeters>
            <DistanceMeters>11817.983391108</DistanceMeters>
          </Trackpoint>
          <Trackpoint>
            <Time>2022-07-09T11:38:10.000Z</Time>
            <Position>
              <LatitudeDegrees>42.78963287360966205596923828125</LatitudeDegrees>
              <LongitudeDegrees>-0.138321854174137115478515625</LongitudeDegrees>
            </Position>
            <AltitudeMeters>2217.39990234375</AltitudeMeters>
            <DistanceMeters>11820.734246259</DistanceMeters>
          </Trackpoint>
          <Trackpoint>
            <Time>2022-07-09T11:38:11.000Z</Time>
            <Position>
              <LatitudeDegrees>42.78962532989680767059326171875</LatitudeDegrees>
              <LongitudeDegrees>-0.13831908814609050750732421875</LongitudeDegrees>
            </Position>
            <AltitudeMeters>2217.39990234375</AltitudeMeters>
            <DistanceMeters>11821.594749756</DistanceMeters>
          </Trackpoint>
          <Trackpoint>
            <Time>2022-07-09T11:38:13.000Z</Time>
            <Position>
              <LatitudeDegrees>42.78960940428078174591064453125</LatitudeDegrees>
              <LongitudeDegrees>-0.1383119635283946990966796875</LongitudeDegrees>
            </Position>
            <AltitudeMeters>2217.800048828125</AltitudeMeters>
            <DistanceMeters>11823.459308533</DistanceMeters>
          </Trackpoint>
          <Trackpoint>
            <Time>2022-07-09T11:38:15.000Z</Time>
            <Position>
              <LatitudeDegrees>42.78959892690181732177734375</LatitudeDegrees>
              <LongitudeDegrees>-0.1382884941995143890380859375</LongitudeDegrees>
            </Position>
            <AltitudeMeters>2218</AltitudeMeters>
            <DistanceMeters>11825.700005411</DistanceMeters>
          </Trackpoint>
          <Trackpoint>
            <Time>2022-07-09T11:38:19.000Z</Time>
            <Position>
              <LatitudeDegrees>42.78957470320165157318115234375</LatitudeDegrees>
              <LongitudeDegrees>-0.1382583193480968475341796875</LongitudeDegrees>
            </Position>
            <AltitudeMeters>2219</AltitudeMeters>
            <DistanceMeters>11829.353285169</DistanceMeters>
          </Trackpoint>
          <Trackpoint>
            <Time>2022-07-09T11:38:23.000Z</Time>
            <Position>
              <LatitudeDegrees>42.789555005729198455810546875</LatitudeDegrees>
              <LongitudeDegrees>-0.138229317963123321533203125</LongitudeDegrees>
            </Position>
            <AltitudeMeters>2219.39990234375</AltitudeMeters>
            <DistanceMeters>11832.581397344</DistanceMeters>
          </Trackpoint>
          <Trackpoint>
            <Time>2022-07-09T11:38:24.000Z</Time>
            <Position>
              <LatitudeDegrees>42.789547629654407501220703125</LatitudeDegrees>
              <LongitudeDegrees>-0.138222612440586090087890625</LongitudeDegrees>
            </Position>
            <AltitudeMeters>2219.60009765625</AltitudeMeters>
            <DistanceMeters>11833.564361321</DistanceMeters>
          </Trackpoint>
          <Trackpoint>
            <Time>2022-07-09T11:38:25.000Z</Time>
            <Position>
              <LatitudeDegrees>42.78954251669347286224365234375</LatitudeDegrees>
              <LongitudeDegrees>-0.1382154040038585662841796875</LongitudeDegrees>
            </Position>
            <AltitudeMeters>2219.60009765625</AltitudeMeters>
            <DistanceMeters>11834.381812027</DistanceMeters>
          </Trackpoint>
          <Trackpoint>
            <Time>2022-07-09T11:38:27.000Z</Time>
            <Position>
              <LatitudeDegrees>42.7895303629338741302490234375</LatitudeDegrees>
              <LongitudeDegrees>-0.1382086984813213348388671875</LongitudeDegrees>
            </Position>
            <AltitudeMeters>2219.60009765625</AltitudeMeters>
            <DistanceMeters>11835.841640113</DistanceMeters>
          </Trackpoint>
          <Trackpoint>
            <Time>2022-07-09T11:38:29.000Z</Time>
            <Position>
              <LatitudeDegrees>42.789510749280452728271484375</LatitudeDegrees>
              <LongitudeDegrees>-0.1382140628993511199951171875</LongitudeDegrees>
            </Position>
            <AltitudeMeters>2219.60009765625</AltitudeMeters>
            <DistanceMeters>11838.068187208</DistanceMeters>
          </Trackpoint>
          <Trackpoint>
            <Time>2022-07-09T11:38:30.000Z</Time>
            <Position>
              <LatitudeDegrees>42.78950463049113750457763671875</LatitudeDegrees>
              <LongitudeDegrees>-0.1382097043097019195556640625</LongitudeDegrees>
            </Position>
            <AltitudeMeters>2219.60009765625</AltitudeMeters>
            <DistanceMeters>11838.828400923</DistanceMeters>
          </Trackpoint>
          <Trackpoint>
            <Time>2022-07-09T11:38:31.000Z</Time>
            <Position>
              <LatitudeDegrees>42.78950035572052001953125</LatitudeDegrees>
              <LongitudeDegrees>-0.1382029987871646881103515625</LongitudeDegrees>
            </Position>
            <AltitudeMeters>2219.60009765625</AltitudeMeters>
            <DistanceMeters>11839.552102819</DistanceMeters>
          </Trackpoint>
          <Trackpoint>
            <Time>2022-07-09T11:38:32.000Z</Time>
            <Position>
              <LatitudeDegrees>42.789494656026363372802734375</LatitudeDegrees>
              <LongitudeDegrees>-0.1381972990930080413818359375</LongitudeDegrees>
            </Position>
            <AltitudeMeters>2219.60009765625</AltitudeMeters>
            <DistanceMeters>11840.33571318</DistanceMeters>
          </Trackpoint>
          <Trackpoint>
            <Time>2022-07-09T11:38:37.000Z</Time>
            <Position>
              <LatitudeDegrees>42.789459787309169769287109375</LatitudeDegrees>
              <LongitudeDegrees>-0.13817408122122287750244140625</LongitudeDegrees>
            </Position>
            <AltitudeMeters>2219.800048828125</AltitudeMeters>
            <DistanceMeters>11844.656033539</DistanceMeters>
          </Trackpoint>
          <Trackpoint>
            <Time>2022-07-09T11:38:40.000Z</Time>
            <Position>
              <LatitudeDegrees>42.78942734934389591217041015625</LatitudeDegrees>
              <LongitudeDegrees>-0.13816569931805133819580078125</LongitudeDegrees>
            </Position>
            <AltitudeMeters>2220</AltitudeMeters>
            <DistanceMeters>11848.331491927</DistanceMeters>
          </Trackpoint>
          <Trackpoint>
            <Time>2022-07-09T11:38:44.000Z</Time>
            <Position>
              <LatitudeDegrees>42.789401449263095855712890625</LatitudeDegrees>
              <LongitudeDegrees>-0.13814893551170825958251953125</LongitudeDegrees>
            </Position>
            <AltitudeMeters>2220.39990234375</AltitudeMeters>
            <DistanceMeters>11851.523031717</DistanceMeters>
          </Trackpoint>
          <Trackpoint>
            <Time>2022-07-09T11:38:48.000Z</Time>
            <Position>
              <LatitudeDegrees>42.78937035240232944488525390625</LatitudeDegrees>
              <LongitudeDegrees>-0.1381483487784862518310546875</LongitudeDegrees>
            </Position>
            <AltitudeMeters>2220.800048828125</AltitudeMeters>
            <DistanceMeters>11854.983361378</DistanceMeters>
          </Trackpoint>
          <Trackpoint>
            <Time>2022-07-09T11:38:51.000Z</Time>
            <Position>
              <LatitudeDegrees>42.78934545814990997314453125</LatitudeDegrees>
              <LongitudeDegrees>-0.13813351280987262725830078125</LongitudeDegrees>
            </Position>
            <AltitudeMeters>2221.199951171875</AltitudeMeters>
            <DistanceMeters>11858.006346221</DistanceMeters>
          </Trackpoint>
          <Trackpoint>
            <Time>2022-07-09T11:38:53.000Z</Time>
            <Position>
              <LatitudeDegrees>42.7893201448023319244384765625</LatitudeDegrees>
              <LongitudeDegrees>-0.13812596909701824188232421875</LongitudeDegrees>
            </Position>
            <AltitudeMeters>2221.199951171875</AltitudeMeters>
            <DistanceMeters>11860.888649177</DistanceMeters>
          </Trackpoint>
          <Trackpoint>
            <Time>2022-07-09T11:38:54.000Z</Time>
            <Position>
              <LatitudeDegrees>42.78930882923305034637451171875</LatitudeDegrees>
              <LongitudeDegrees>-0.13812446035444736480712890625</LongitudeDegrees>
            </Position>
            <AltitudeMeters>2221.199951171875</AltitudeMeters>
            <DistanceMeters>11862.156463677</DistanceMeters>
          </Trackpoint>
          <Trackpoint>
            <Time>2022-07-09T11:38:57.000Z</Time>
            <Position>
              <LatitudeDegrees>42.78930279426276683807373046875</LatitudeDegrees>
              <LongitudeDegrees>-0.1380947045981884002685546875</LongitudeDegrees>
            </Position>
            <AltitudeMeters>2221.60009765625</AltitudeMeters>
            <DistanceMeters>11864.67780733</DistanceMeters>
          </Trackpoint>
          <Trackpoint>
            <Time>2022-07-09T11:39:00.000Z</Time>
            <Position>
              <LatitudeDegrees>42.78929256834089756011962890625</LatitudeDegrees>
              <LongitudeDegrees>-0.1380920223891735076904296875</LongitudeDegrees>
            </Position>
            <AltitudeMeters>2222.39990234375</AltitudeMeters>
            <DistanceMeters>11865.833857205</DistanceMeters>
          </Trackpoint>
          <Trackpoint>
            <Time>2022-07-09T11:39:06.000Z</Time>
            <Position>
              <LatitudeDegrees>42.7892725355923175811767578125</LatitudeDegrees>
              <LongitudeDegrees>-0.13807299546897411346435546875</LongitudeDegrees>
            </Position>
            <AltitudeMeters>2223.199951171875</AltitudeMeters>
            <DistanceMeters>11868.551687688</DistanceMeters>
          </Trackpoint>
          <Trackpoint>
            <Time>2022-07-09T11:39:08.000Z</Time>
            <Position>
              <LatitudeDegrees>42.7892594598233699798583984375</LatitudeDegrees>
              <LongitudeDegrees>-0.13807676732540130615234375</LongitudeDegrees>
            </Position>
            <AltitudeMeters>2223.39990234375</AltitudeMeters>
            <DistanceMeters>11870.042123464</DistanceMeters>
          </Trackpoint>
          <Trackpoint>
            <Time>2022-07-09T11:39:09.000Z</Time>
            <Position>
              <LatitudeDegrees>42.78924697078764438629150390625</LatitudeDegrees>
              <LongitudeDegrees>-0.13807953335344791412353515625</LongitudeDegrees>
            </Position>
            <AltitudeMeters>2223.60009765625</AltitudeMeters>
            <DistanceMeters>11871.448390417</DistanceMeters>
          </Trackpoint>
          <Trackpoint>
            <Time>2022-07-09T11:39:13.000Z</Time>
            <Position>
              <LatitudeDegrees>42.7892091684043407440185546875</LatitudeDegrees>
              <LongitudeDegrees>-0.1380618475377559661865234375</LongitudeDegrees>
            </Position>
            <AltitudeMeters>2224.60009765625</AltitudeMeters>
            <DistanceMeters>11875.897427118</DistanceMeters>
          </Trackpoint>
          <Trackpoint>
            <Time>2022-07-09T11:39:15.000Z</Time>
            <Position>
              <LatitudeDegrees>42.7891810052096843719482421875</LatitudeDegrees>
              <LongitudeDegrees>-0.13805589638650417327880859375</LongitudeDegrees>
            </Position>
            <AltitudeMeters>2225</AltitudeMeters>
            <DistanceMeters>11879.069099414</DistanceMeters>
          </Trackpoint>
          <Trackpoint>
            <Time>2022-07-09T11:39:16.000Z</Time>
            <Position>
              <LatitudeDegrees>42.7891618944704532623291015625</LatitudeDegrees>
              <LongitudeDegrees>-0.1380554772913455963134765625</LongitudeDegrees>
            </Position>
            <AltitudeMeters>2226</AltitudeMeters>
            <DistanceMeters>11881.193961345</DistanceMeters>
          </Trackpoint>
          <Trackpoint>
            <Time>2022-07-09T11:39:19.000Z</Time>
            <Position>
              <LatitudeDegrees>42.789124511182308197021484375</LatitudeDegrees>
              <LongitudeDegrees>-0.1380400545895099639892578125</LongitudeDegrees>
            </Position>
            <AltitudeMeters>2227</AltitudeMeters>
            <DistanceMeters>11885.540329935</DistanceMeters>
          </Trackpoint>
          <Trackpoint>
            <Time>2022-07-09T11:39:22.000Z</Time>
            <Position>
              <LatitudeDegrees>42.78910271823406219482421875</LatitudeDegrees>
              <LongitudeDegrees>-0.13802773319184780120849609375</LongitudeDegrees>
            </Position>
            <AltitudeMeters>2227.60009765625</AltitudeMeters>
            <DistanceMeters>11888.165201041</DistanceMeters>
          </Trackpoint>
          <Trackpoint>
            <Time>2022-07-09T11:39:24.000Z</Time>
            <Position>
              <LatitudeDegrees>42.789082936942577362060546875</LatitudeDegrees>
              <LongitudeDegrees>-0.13803712092339992523193359375</LongitudeDegrees>
            </Position>
            <AltitudeMeters>2228.199951171875</AltitudeMeters>
            <DistanceMeters>11890.49480958</DistanceMeters>
          </Trackpoint>
          <Trackpoint>
            <Time>2022-07-09T11:39:27.000Z</Time>
            <Position>
              <LatitudeDegrees>42.78905821032822132110595703125</LatitudeDegrees>
              <LongitudeDegrees>-0.138039886951446533203125</LongitudeDegrees>
            </Position>
            <AltitudeMeters>2228.60009765625</AltitudeMeters>
            <DistanceMeters>11893.255495096</DistanceMeters>
          </Trackpoint>
          <Trackpoint>
            <Time>2022-07-09T11:39:29.000Z</Time>
            <Position>
              <LatitudeDegrees>42.78904907405376434326171875</LatitudeDegrees>
              <LongitudeDegrees>-0.13803242705762386322021484375</LongitudeDegrees>
            </Position>
            <AltitudeMeters>2228.800048828125</AltitudeMeters>
            <DistanceMeters>11894.442378378</DistanceMeters>
          </Trackpoint>
          <Trackpoint>
            <Time>2022-07-09T11:39:30.000Z</Time>
            <Position>
              <LatitudeDegrees>42.78904546983540058135986328125</LatitudeDegrees>
              <LongitudeDegrees>-0.138029493391513824462890625</LongitudeDegrees>
            </Position>
            <AltitudeMeters>2229</AltitudeMeters>
            <DistanceMeters>11894.907912302</DistanceMeters>
          </Trackpoint>
          <Trackpoint>
            <Time>2022-07-09T11:39:31.000Z</Time>
            <Position>
              <LatitudeDegrees>42.78903960250318050384521484375</LatitudeDegrees>
              <LongitudeDegrees>-0.138028152287006378173828125</LongitudeDegrees>
            </Position>
            <AltitudeMeters>2229</AltitudeMeters>
            <DistanceMeters>11895.566276692</DistanceMeters>
          </Trackpoint>
          <Trackpoint>
            <Time>2022-07-09T11:39:33.000Z</Time>
            <Position>
              <LatitudeDegrees>42.78902384452521800994873046875</LatitudeDegrees>
              <LongitudeDegrees>-0.138032175600528717041015625</LongitudeDegrees>
            </Position>
            <AltitudeMeters>2229.199951171875</AltitudeMeters>
            <DistanceMeters>11897.349135887</DistanceMeters>
          </Trackpoint>
          <Trackpoint>
            <Time>2022-07-09T11:39:34.000Z</Time>
            <Position>
              <LatitudeDegrees>42.7890135347843170166015625</LatitudeDegrees>
              <LongitudeDegrees>-0.13803661800920963287353515625</LongitudeDegrees>
            </Position>
            <AltitudeMeters>2229.39990234375</AltitudeMeters>
            <DistanceMeters>11898.55113931</DistanceMeters>
          </Trackpoint>
          <Trackpoint>
            <Time>2022-07-09T11:39:38.000Z</Time>
            <Position>
              <LatitudeDegrees>42.7889741398394107818603515625</LatitudeDegrees>
              <LongitudeDegrees>-0.13805589638650417327880859375</LongitudeDegrees>
            </Position>
            <AltitudeMeters>2230.39990234375</AltitudeMeters>
            <DistanceMeters>11903.210356387</DistanceMeters>
          </Trackpoint>
          <Trackpoint>
            <Time>2022-07-09T11:39:41.000Z</Time>
            <Position>
              <LatitudeDegrees>42.788955867290496826171875</LatitudeDegrees>
              <LongitudeDegrees>-0.1380517892539501190185546875</LongitudeDegrees>
            </Position>
            <AltitudeMeters>2231.199951171875</AltitudeMeters>
            <DistanceMeters>11905.270486463</DistanceMeters>
          </Trackpoint>
          <Trackpoint>
            <Time>2022-07-09T11:39:42.000Z</Time>
            <Position>
              <LatitudeDegrees>42.7889463119208812713623046875</LatitudeDegrees>
              <LongitudeDegrees>-0.1380492746829986572265625</LongitudeDegrees>
            </Position>
            <AltitudeMeters>2231.60009765625</AltitudeMeters>
            <DistanceMeters>11906.353957708</DistanceMeters>
          </Trackpoint>
          <Trackpoint>
            <Time>2022-07-09T11:39:46.000Z</Time>
            <Position>
              <LatitudeDegrees>42.78888286091387271881103515625</LatitudeDegrees>
              <LongitudeDegrees>-0.13804080896079540252685546875</LongitudeDegrees>
            </Position>
            <AltitudeMeters>2233.199951171875</AltitudeMeters>
            <DistanceMeters>11913.449851327</DistanceMeters>
          </Trackpoint>
          <Trackpoint>
            <Time>2022-07-09T11:39:47.000Z</Time>
            <Position>
              <LatitudeDegrees>42.78886492364108562469482421875</LatitudeDegrees>
              <LongitudeDegrees>-0.13803410343825817108154296875</LongitudeDegrees>
            </Position>
            <AltitudeMeters>2233.800048828125</AltitudeMeters>
            <DistanceMeters>11915.523089467</DistanceMeters>
          </Trackpoint>
          <Trackpoint>
            <Time>2022-07-09T11:39:48.000Z</Time>
            <Position>
              <LatitudeDegrees>42.78885235078632831573486328125</LatitudeDegrees>
              <LongitudeDegrees>-0.13802982866764068603515625</LongitudeDegrees>
            </Position>
            <AltitudeMeters>2234.199951171875</AltitudeMeters>
            <DistanceMeters>11916.964240945</DistanceMeters>
          </Trackpoint>
          <Trackpoint>
            <Time>2022-07-09T11:39:52.000Z</Time>
            <Position>
              <LatitudeDegrees>42.78884195722639560699462890625</LatitudeDegrees>
              <LongitudeDegrees>-0.13800258748233318328857421875</LongitudeDegrees>
            </Position>
            <AltitudeMeters>2234.60009765625</AltitudeMeters>
            <DistanceMeters>11919.471217851</DistanceMeters>
          </Trackpoint>
          <Trackpoint>
            <Time>2022-07-09T11:39:58.000Z</Time>
            <Position>
              <LatitudeDegrees>42.788761742413043975830078125</LatitudeDegrees>
              <LongitudeDegrees>-0.13803745619952678680419921875</LongitudeDegrees>
            </Position>
            <AltitudeMeters>2235.199951171875</AltitudeMeters>
            <DistanceMeters>11928.841834871</DistanceMeters>
          </Trackpoint>
          <Trackpoint>
            <Time>2022-07-09T11:39:59.000Z</Time>
            <Position>
              <LatitudeDegrees>42.78874623589217662811279296875</LatitudeDegrees>
              <LongitudeDegrees>-0.1380430720746517181396484375</LongitudeDegrees>
            </Position>
            <AltitudeMeters>2235.60009765625</AltitudeMeters>
            <DistanceMeters>11930.629751832</DistanceMeters>
          </Trackpoint>
          <Trackpoint>
            <Time>2022-07-09T11:40:02.000Z</Time>
            <Position>
              <LatitudeDegrees>42.788714133203029632568359375</LatitudeDegrees>
              <LongitudeDegrees>-0.13804726302623748779296875</LongitudeDegrees>
            </Position>
            <AltitudeMeters>2236.199951171875</AltitudeMeters>
            <DistanceMeters>11934.220705628</DistanceMeters>
          </Trackpoint>
          <Trackpoint>
            <Time>2022-07-09T11:40:03.000Z</Time>
            <Position>
              <LatitudeDegrees>42.78870834968984127044677734375</LatitudeDegrees>
              <LongitudeDegrees>-0.13805128633975982666015625</LongitudeDegrees>
            </Position>
            <AltitudeMeters>2236.199951171875</AltitudeMeters>
            <DistanceMeters>11934.944407524</DistanceMeters>
          </Trackpoint>
          <Trackpoint>
            <Time>2022-07-09T11:40:06.000Z</Time>
            <Position>
              <LatitudeDegrees>42.78869728557765483856201171875</LatitudeDegrees>
              <LongitudeDegrees>-0.13804969377815723419189453125</LongitudeDegrees>
            </Position>
            <AltitudeMeters>2236.39990234375</AltitudeMeters>
            <DistanceMeters>11936.183404293</DistanceMeters>
          </Trackpoint>
          <Trackpoint>
            <Time>2022-07-09T11:40:08.000Z</Time>
            <Position>
              <LatitudeDegrees>42.78869141824543476104736328125</LatitudeDegrees>
              <LongitudeDegrees>-0.13804256916046142578125</LongitudeDegrees>
            </Position>
            <AltitudeMeters>2236.60009765625</AltitudeMeters>
            <DistanceMeters>11937.064645789</DistanceMeters>
          </Trackpoint>
          <Trackpoint>
            <Time>2022-07-09T11:40:12.000Z</Time>
            <Position>
              <LatitudeDegrees>42.7886579744517803192138671875</LatitudeDegrees>
              <LongitudeDegrees>-0.1380544714629650115966796875</LongitudeDegrees>
            </Position>
            <AltitudeMeters>2237.199951171875</AltitudeMeters>
            <DistanceMeters>11940.91176098</DistanceMeters>
          </Trackpoint>
          <Trackpoint>
            <Time>2022-07-09T11:40:13.000Z</Time>
            <Position>
              <LatitudeDegrees>42.78864297084510326385498046875</LatitudeDegrees>
              <LongitudeDegrees>-0.13805874623358249664306640625</LongitudeDegrees>
            </Position>
            <AltitudeMeters>2237.39990234375</AltitudeMeters>
            <DistanceMeters>11942.616954405</DistanceMeters>
          </Trackpoint>
          <Trackpoint>
            <Time>2022-07-09T11:40:14.000Z</Time>
            <Position>
              <LatitudeDegrees>42.78862721286714076995849609375</LatitudeDegrees>
              <LongitudeDegrees>-0.1380625180900096893310546875</LongitudeDegrees>
            </Position>
            <AltitudeMeters>2237.39990234375</AltitudeMeters>
            <DistanceMeters>11944.399813599</DistanceMeters>
          </Trackpoint>
          <Trackpoint>
            <Time>2022-07-09T11:40:16.000Z</Time>
            <Position>
              <LatitudeDegrees>42.788601480424404144287109375</LatitudeDegrees>
              <LongitudeDegrees>-0.13806075789034366607666015625</LongitudeDegrees>
            </Position>
            <AltitudeMeters>2237.800048828125</AltitudeMeters>
            <DistanceMeters>11947.266409065</DistanceMeters>
          </Trackpoint>
          <Trackpoint>
            <Time>2022-07-09T11:40:18.000Z</Time>
            <Position>
              <LatitudeDegrees>42.788575328886508941650390625</LatitudeDegrees>
              <LongitudeDegrees>-0.1380601711571216583251953125</LongitudeDegrees>
            </Position>
            <AltitudeMeters>2238</AltitudeMeters>
            <DistanceMeters>11950.176771878</DistanceMeters>
          </Trackpoint>
          <Trackpoint>
            <Time>2022-07-09T11:40:20.000Z</Time>
            <Position>
              <LatitudeDegrees>42.7885575592517852783203125</LatitudeDegrees>
              <LongitudeDegrees>-0.13806344009935855865478515625</LongitudeDegrees>
            </Position>
            <AltitudeMeters>2238.199951171875</AltitudeMeters>
            <DistanceMeters>11952.17459414</DistanceMeters>
          </Trackpoint>
          <Trackpoint>
            <Time>2022-07-09T11:40:22.000Z</Time>
            <Position>
              <LatitudeDegrees>42.78855328448116779327392578125</LatitudeDegrees>
              <LongitudeDegrees>-0.13806494884192943572998046875</LongitudeDegrees>
            </Position>
            <AltitudeMeters>2238.39990234375</AltitudeMeters>
            <DistanceMeters>11952.668367432</DistanceMeters>
          </Trackpoint>
          <Trackpoint>
            <Time>2022-07-09T11:40:23.000Z</Time>
            <Position>
              <LatitudeDegrees>42.7885513566434383392333984375</LatitudeDegrees>
              <LongitudeDegrees>-0.138067714869976043701171875</LongitudeDegrees>
            </Position>
            <AltitudeMeters>2238.60009765625</AltitudeMeters>
            <DistanceMeters>11952.968868288</DistanceMeters>
          </Trackpoint>
          <Trackpoint>
            <Time>2022-07-09T11:40:25.000Z</Time>
            <Position>
              <LatitudeDegrees>42.78854758478701114654541015625</LatitudeDegrees>
              <LongitudeDegrees>-0.138068385422229766845703125</LongitudeDegrees>
            </Position>
            <AltitudeMeters>2239</AltitudeMeters>
            <DistanceMeters>11953.404335399</DistanceMeters>
          </Trackpoint>
          <Trackpoint>
            <Time>2022-07-09T11:40:26.000Z</Time>
            <Position>
              <LatitudeDegrees>42.78854724951088428497314453125</LatitudeDegrees>
              <LongitudeDegrees>-0.13806947506964206695556640625</LongitudeDegrees>
            </Position>
            <AltitudeMeters>2239.199951171875</AltitudeMeters>
            <DistanceMeters>11953.404335399</DistanceMeters>
          </Trackpoint>
          <Trackpoint>
            <Time>2022-07-09T11:40:29.000Z</Time>
            <Position>
              <LatitudeDegrees>42.78853819705545902252197265625</LatitudeDegrees>
              <LongitudeDegrees>-0.13807198964059352874755859375</LongitudeDegrees>
            </Position>
            <AltitudeMeters>2239.199951171875</AltitudeMeters>
            <DistanceMeters>11954.427804435</DistanceMeters>
          </Trackpoint>
          <Trackpoint>
            <Time>2022-07-09T11:40:31.000Z</Time>
            <Position>
              <LatitudeDegrees>42.7885188348591327667236328125</LatitudeDegrees>
              <LongitudeDegrees>-0.13806813396513462066650390625</LongitudeDegrees>
            </Position>
            <AltitudeMeters>2239</AltitudeMeters>
            <DistanceMeters>11956.603065352</DistanceMeters>
          </Trackpoint>
          <Trackpoint>
            <Time>2022-07-09T11:40:32.000Z</Time>
            <Position>
              <LatitudeDegrees>42.7885044179856777191162109375</LatitudeDegrees>
              <LongitudeDegrees>-0.13806008733808994293212890625</LongitudeDegrees>
            </Position>
            <AltitudeMeters>2239</AltitudeMeters>
            <DistanceMeters>11958.339741929</DistanceMeters>
          </Trackpoint>
          <Trackpoint>
            <Time>2022-07-09T11:40:36.000Z</Time>
            <Position>
              <LatitudeDegrees>42.78841934166848659515380859375</LatitudeDegrees>
              <LongitudeDegrees>-0.13806226663291454315185546875</LongitudeDegrees>
            </Position>
            <AltitudeMeters>2238.800048828125</AltitudeMeters>
            <DistanceMeters>11967.811002637</DistanceMeters>
          </Trackpoint>
          <Trackpoint>
            <Time>2022-07-09T11:40:40.000Z</Time>
            <Position>
              <LatitudeDegrees>42.78833133168518543243408203125</LatitudeDegrees>
              <LongitudeDegrees>-0.1380734145641326904296875</LongitudeDegrees>
            </Position>
            <AltitudeMeters>2238.800048828125</AltitudeMeters>
            <DistanceMeters>11977.649365783</DistanceMeters>
          </Trackpoint>
          <Trackpoint>
            <Time>2022-07-09T11:40:41.000Z</Time>
            <Position>
              <LatitudeDegrees>42.788315825164318084716796875</LatitudeDegrees>
              <LongitudeDegrees>-0.13807131908833980560302734375</LongitudeDegrees>
            </Position>
            <AltitudeMeters>2239</AltitudeMeters>
            <DistanceMeters>11979.38604236</DistanceMeters>
          </Trackpoint>
          <Trackpoint>
            <Time>2022-07-09T11:40:43.000Z</Time>
            <Position>
              <LatitudeDegrees>42.788292355835437774658203125</LatitudeDegrees>
              <LongitudeDegrees>-0.13806863687932491302490234375</LongitudeDegrees>
            </Position>
            <AltitudeMeters>2239</AltitudeMeters>
            <DistanceMeters>11982.005748087</DistanceMeters>
          </Trackpoint>
          <Trackpoint>
            <Time>2022-07-09T11:40:46.000Z</Time>
            <Position>
              <LatitudeDegrees>42.78826058842241764068603515625</LatitudeDegrees>
              <LongitudeDegrees>-0.13806411065161228179931640625</LongitudeDegrees>
            </Position>
            <AltitudeMeters>2239</AltitudeMeters>
            <DistanceMeters>11985.56005209</DistanceMeters>
          </Trackpoint>
          <Trackpoint>
            <Time>2022-07-09T11:40:47.000Z</Time>
            <Position>
              <LatitudeDegrees>42.7882506139576435089111328125</LatitudeDegrees>
              <LongitudeDegrees>-0.13806427828967571258544921875</LongitudeDegrees>
            </Position>
            <AltitudeMeters>2239</AltitudeMeters>
            <DistanceMeters>11986.672311265</DistanceMeters>
          </Trackpoint>
          <Trackpoint>
            <Time>2022-07-09T11:40:50.000Z</Time>
            <Position>
              <LatitudeDegrees>42.7882315032184123992919921875</LatitudeDegrees>
              <LongitudeDegrees>-0.138061679899692535400390625</LongitudeDegrees>
            </Position>
            <AltitudeMeters>2238.800048828125</AltitudeMeters>
            <DistanceMeters>11988.809884347</DistanceMeters>
          </Trackpoint>
          <Trackpoint>
            <Time>2022-07-09T11:40:53.000Z</Time>
            <Position>
              <LatitudeDegrees>42.78821616433560848236083984375</LatitudeDegrees>
              <LongitudeDegrees>-0.13803393580019474029541015625</LongitudeDegrees>
            </Position>
            <AltitudeMeters>2238.800048828125</AltitudeMeters>
            <DistanceMeters>11991.647987268</DistanceMeters>
          </Trackpoint>
          <Trackpoint>
            <Time>2022-07-09T11:40:56.000Z</Time>
            <Position>
              <LatitudeDegrees>42.78820526786148548126220703125</LatitudeDegrees>
              <LongitudeDegrees>-0.13800526969134807586669921875</LongitudeDegrees>
            </Position>
            <AltitudeMeters>2238.60009765625</AltitudeMeters>
            <DistanceMeters>11994.284871577</DistanceMeters>
          </Trackpoint>
          <Trackpoint>
            <Time>2022-07-09T11:40:59.000Z</Time>
            <Position>
              <LatitudeDegrees>42.78820283710956573486328125</LatitudeDegrees>
              <LongitudeDegrees>-0.13797350227832794189453125</LongitudeDegrees>
            </Position>
            <AltitudeMeters>2239</AltitudeMeters>
            <DistanceMeters>11996.890752904</DistanceMeters>
          </Trackpoint>
          <Trackpoint>
            <Time>2022-07-09T11:41:00.000Z</Time>
            <Position>
              <LatitudeDegrees>42.7882019989192485809326171875</LatitudeDegrees>
              <LongitudeDegrees>-0.13796134851872920989990234375</LongitudeDegrees>
            </Position>
            <AltitudeMeters>2239</AltitudeMeters>
            <DistanceMeters>11997.887401492</DistanceMeters>
          </Trackpoint>
          <Trackpoint>
            <Time>2022-07-09T11:41:02.000Z</Time>
            <Position>
              <LatitudeDegrees>42.78820359148085117340087890625</LatitudeDegrees>
              <LongitudeDegrees>-0.1379391364753246307373046875</LongitudeDegrees>
            </Position>
            <AltitudeMeters>2239.39990234375</AltitudeMeters>
            <DistanceMeters>11999.710329941</DistanceMeters>
          </Trackpoint>
          <Trackpoint>
            <Time>2022-07-09T11:41:03.000Z</Time>
            <Position>
              <LatitudeDegrees>42.78820660896599292755126953125</LatitudeDegrees>
              <LongitudeDegrees>-0.13793184421956539154052734375</LongitudeDegrees>
            </Position>
            <AltitudeMeters>2239.60009765625</AltitudeMeters>
            <DistanceMeters>12000.395577324</DistanceMeters>
          </Trackpoint>
          <Trackpoint>
            <Time>2022-07-09T11:41:05.000Z</Time>
            <Position>
              <LatitudeDegrees>42.7882142364978790283203125</LatitudeDegrees>
              <LongitudeDegrees>-0.13791558332741260528564453125</LongitudeDegrees>
            </Position>
            <AltitudeMeters>2239.800048828125</AltitudeMeters>
            <DistanceMeters>12001.968549334</DistanceMeters>
          </Trackpoint>
          <Trackpoint>
            <Time>2022-07-09T11:41:07.000Z</Time>
            <Position>
              <LatitudeDegrees>42.78821784071624279022216796875</LatitudeDegrees>
              <LongitudeDegrees>-0.13789035379886627197265625</LongitudeDegrees>
            </Position>
            <AltitudeMeters>2240</AltitudeMeters>
            <DistanceMeters>12004.063451993</DistanceMeters>
          </Trackpoint>
          <Trackpoint>
            <Time>2022-07-09T11:41:09.000Z</Time>
            <Position>
              <LatitudeDegrees>42.7882196009159088134765625</LatitudeDegrees>
              <LongitudeDegrees>-0.13786864466965198516845703125</LongitudeDegrees>
            </Position>
            <AltitudeMeters>2240</AltitudeMeters>
            <DistanceMeters>12005.846311188</DistanceMeters>
          </Trackpoint>
          <Trackpoint>
            <Time>2022-07-09T11:41:11.000Z</Time>
            <Position>
              <LatitudeDegrees>42.78821289539337158203125</LatitudeDegrees>
              <LongitudeDegrees>-0.13784534297883510589599609375</LongitudeDegrees>
            </Position>
            <AltitudeMeters>2240.60009765625</AltitudeMeters>
            <DistanceMeters>12007.891042318</DistanceMeters>
          </Trackpoint>
          <Trackpoint>
            <Time>2022-07-09T11:41:13.000Z</Time>
            <Position>
              <LatitudeDegrees>42.7881986461579799652099609375</LatitudeDegrees>
              <LongitudeDegrees>-0.13782220892608165740966796875</LongitudeDegrees>
            </Position>
            <AltitudeMeters>2240.800048828125</AltitudeMeters>
            <DistanceMeters>12010.358079311</DistanceMeters>
          </Trackpoint>
          <Trackpoint>
            <Time>2022-07-09T11:41:14.000Z</Time>
            <Position>
              <LatitudeDegrees>42.78818917460739612579345703125</LatitudeDegrees>
              <LongitudeDegrees>-0.1378130726516246795654296875</LongitudeDegrees>
            </Position>
            <AltitudeMeters>2241</AltitudeMeters>
            <DistanceMeters>12011.654070907</DistanceMeters>
          </Trackpoint>
          <Trackpoint>
            <Time>2022-07-09T11:41:17.000Z</Time>
            <Position>
              <LatitudeDegrees>42.7881678007543087005615234375</LatitudeDegrees>
              <LongitudeDegrees>-0.137798152863979339599609375</LongitudeDegrees>
            </Position>
            <AltitudeMeters>2241.60009765625</AltitudeMeters>
            <DistanceMeters>12014.326670853</DistanceMeters>
          </Trackpoint>
          <Trackpoint>
            <Time>2022-07-09T11:41:20.000Z</Time>
            <Position>
              <LatitudeDegrees>42.788143493235111236572265625</LatitudeDegrees>
              <LongitudeDegrees>-0.13778901658952236175537109375</LongitudeDegrees>
            </Position>
            <AltitudeMeters>2242.199951171875</AltitudeMeters>
            <DistanceMeters>12017.1327761</DistanceMeters>
          </Trackpoint>
          <Trackpoint>
            <Time>2022-07-09T11:41:23.000Z</Time>
            <Position>
              <LatitudeDegrees>42.78811289928853511810302734375</LatitudeDegrees>
              <LongitudeDegrees>-0.13777778483927249908447265625</LongitudeDegrees>
            </Position>
            <AltitudeMeters>2242.800048828125</AltitudeMeters>
            <DistanceMeters>12020.659022725</DistanceMeters>
          </Trackpoint>
          <Trackpoint>
            <Time>2022-07-09T11:41:25.000Z</Time>
            <Position>
              <LatitudeDegrees>42.7880983985960483551025390625</LatitudeDegrees>
              <LongitudeDegrees>-0.137759260833263397216796875</LongitudeDegrees>
            </Position>
            <AltitudeMeters>2243.39990234375</AltitudeMeters>
            <DistanceMeters>12022.871329538</DistanceMeters>
          </Trackpoint>
          <Trackpoint>
            <Time>2022-07-09T11:41:26.000Z</Time>
            <Position>
              <LatitudeDegrees>42.78809110634028911590576171875</LatitudeDegrees>
              <LongitudeDegrees>-0.13775096274912357330322265625</LongitudeDegrees>
            </Position>
            <AltitudeMeters>2243.800048828125</AltitudeMeters>
            <DistanceMeters>12023.929502245</DistanceMeters>
          </Trackpoint>
          <Trackpoint>
            <Time>2022-07-09T11:41:27.000Z</Time>
            <Position>
              <LatitudeDegrees>42.7880828082561492919921875</LatitudeDegrees>
              <LongitudeDegrees>-0.13774593360722064971923828125</LongitudeDegrees>
            </Position>
            <AltitudeMeters>2244.199951171875</AltitudeMeters>
            <DistanceMeters>12024.939650075</DistanceMeters>
          </Trackpoint>
          <Trackpoint>
            <Time>2022-07-09T11:41:30.000Z</Time>
            <Position>
              <LatitudeDegrees>42.788065373897552490234375</LatitudeDegrees>
              <LongitudeDegrees>-0.1377336122095584869384765625</LongitudeDegrees>
            </Position>
            <AltitudeMeters>2245</AltitudeMeters>
            <DistanceMeters>12027.125264506</DistanceMeters>
          </Trackpoint>
          <Trackpoint>
            <Time>2022-07-09T11:41:34.000Z</Time>
            <Position>
              <LatitudeDegrees>42.78805422596633434295654296875</LatitudeDegrees>
              <LongitudeDegrees>-0.1377262361347675323486328125</LongitudeDegrees>
            </Position>
            <AltitudeMeters>2246</AltitudeMeters>
            <DistanceMeters>12028.505607264</DistanceMeters>
          </Trackpoint>
          <Trackpoint>
            <Time>2022-07-09T11:41:35.000Z</Time>
            <Position>
              <LatitudeDegrees>42.78805254958570003509521484375</LatitudeDegrees>
              <LongitudeDegrees>-0.1377295888960361480712890625</LongitudeDegrees>
            </Position>
            <AltitudeMeters>2246.60009765625</AltitudeMeters>
            <DistanceMeters>12028.834789459</DistanceMeters>
          </Trackpoint>
          <Trackpoint>
            <Time>2022-07-09T11:41:37.000Z</Time>
            <Position>
              <LatitudeDegrees>42.7880504541099071502685546875</LatitudeDegrees>
              <LongitudeDegrees>-0.1377435028553009033203125</LongitudeDegrees>
            </Position>
            <AltitudeMeters>2247.199951171875</AltitudeMeters>
            <DistanceMeters>12029.998624269</DistanceMeters>
          </Trackpoint>
          <Trackpoint>
            <Time>2022-07-09T11:41:39.000Z</Time>
            <Position>
              <LatitudeDegrees>42.78805187903344631195068359375</LatitudeDegrees>
              <LongitudeDegrees>-0.13771676458418369293212890625</LongitudeDegrees>
            </Position>
            <AltitudeMeters>2247.39990234375</AltitudeMeters>
            <DistanceMeters>12032.186303523</DistanceMeters>
          </Trackpoint>
          <Trackpoint>
            <Time>2022-07-09T11:41:42.000Z</Time>
            <Position>
              <LatitudeDegrees>42.7880953811109066009521484375</LatitudeDegrees>
              <LongitudeDegrees>-0.13766345568001270294189453125</LongitudeDegrees>
            </Position>
            <AltitudeMeters>2248.39990234375</AltitudeMeters>
            <DistanceMeters>12038.698234034</DistanceMeters>
          </Trackpoint>
          <Trackpoint>
            <Time>2022-07-09T11:41:43.000Z</Time>
            <Position>
              <LatitudeDegrees>42.7881114743649959564208984375</LatitudeDegrees>
              <LongitudeDegrees>-0.13764032162725925445556640625</LongitudeDegrees>
            </Position>
            <AltitudeMeters>2248.60009765625</AltitudeMeters>
            <DistanceMeters>12041.300647785</DistanceMeters>
          </Trackpoint>
          <Trackpoint>
            <Time>2022-07-09T11:41:48.000Z</Time>
            <Position>
              <LatitudeDegrees>42.78818816877901554107666015625</LatitudeDegrees>
              <LongitudeDegrees>-0.137550048530101776123046875</LongitudeDegrees>
            </Position>
            <AltitudeMeters>2249.39990234375</AltitudeMeters>
            <DistanceMeters>12052.580843137</DistanceMeters>
          </Trackpoint>
          <Trackpoint>
            <Time>2022-07-09T11:41:50.000Z</Time>
            <Position>
              <LatitudeDegrees>42.78821666724979877471923828125</LatitudeDegrees>
              <LongitudeDegrees>-0.13752381317317485809326171875</LongitudeDegrees>
            </Position>
            <AltitudeMeters>2249.60009765625</AltitudeMeters>
            <DistanceMeters>12056.40795484</DistanceMeters>
          </Trackpoint>
          <Trackpoint>
            <Time>2022-07-09T11:41:51.000Z</Time>
            <Position>
              <LatitudeDegrees>42.78822789900004863739013671875</LatitudeDegrees>
              <LongitudeDegrees>-0.13751476071774959564208984375</LongitudeDegrees>
            </Position>
            <AltitudeMeters>2250</AltitudeMeters>
            <DistanceMeters>12057.861584053</DistanceMeters>
          </Trackpoint>
          <Trackpoint>
            <Time>2022-07-09T11:41:53.000Z</Time>
            <Position>
              <LatitudeDegrees>42.78825245797634124755859375</LatitudeDegrees>
              <LongitudeDegrees>-0.13750755228102207183837890625</LongitudeDegrees>
            </Position>
            <AltitudeMeters>2250.39990234375</AltitudeMeters>
            <DistanceMeters>12060.656403568</DistanceMeters>
          </Trackpoint>
          <Trackpoint>
            <Time>2022-07-09T11:41:55.000Z</Time>
            <Position>
              <LatitudeDegrees>42.78826477937400341033935546875</LatitudeDegrees>
              <LongitudeDegrees>-0.1375083066523075103759765625</LongitudeDegrees>
            </Position>
            <AltitudeMeters>2250.800048828125</AltitudeMeters>
            <DistanceMeters>12062.030188842</DistanceMeters>
          </Trackpoint>
          <Trackpoint>
            <Time>2022-07-09T11:41:57.000Z</Time>
            <Position>
              <LatitudeDegrees>42.78826452791690826416015625</LatitudeDegrees>
              <LongitudeDegrees>-0.137505121529102325439453125</LongitudeDegrees>
            </Position>
            <AltitudeMeters>2251.39990234375</AltitudeMeters>
            <DistanceMeters>12062.298964978</DistanceMeters>
          </Trackpoint>
          <Trackpoint>
            <Time>2022-07-09T11:41:58.000Z</Time>
            <Position>
              <LatitudeDegrees>42.7882603369653224945068359375</LatitudeDegrees>
              <LongitudeDegrees>-0.1375016011297702789306640625</LongitudeDegrees>
            </Position>
            <AltitudeMeters>2251.800048828125</AltitudeMeters>
            <DistanceMeters>12062.836517251</DistanceMeters>
          </Trackpoint>
          <Trackpoint>
            <Time>2022-07-09T11:41:59.000Z</Time>
            <Position>
              <LatitudeDegrees>42.78825337998569011688232421875</LatitudeDegrees>
              <LongitudeDegrees>-0.13750411570072174072265625</LongitudeDegrees>
            </Position>
            <AltitudeMeters>2252.199951171875</AltitudeMeters>
            <DistanceMeters>12063.631567785</DistanceMeters>
          </Trackpoint>
          <Trackpoint>
            <Time>2022-07-09T11:42:01.000Z</Time>
            <Position>
              <LatitudeDegrees>42.7882415615022182464599609375</LatitudeDegrees>
              <LongitudeDegrees>-0.1375126652419567108154296875</LongitudeDegrees>
            </Position>
            <AltitudeMeters>2253</AltitudeMeters>
            <DistanceMeters>12065.122003562</DistanceMeters>
          </Trackpoint>
          <Trackpoint>
            <Time>2022-07-09T11:42:02.000Z</Time>
            <Position>
              <LatitudeDegrees>42.788240052759647369384765625</LatitudeDegrees>
              <LongitudeDegrees>-0.13751593418419361114501953125</LongitudeDegrees>
            </Position>
            <AltitudeMeters>2253.39990234375</AltitudeMeters>
            <DistanceMeters>12065.422504418</DistanceMeters>
          </Trackpoint>
          <Trackpoint>
            <Time>2022-07-09T11:42:06.000Z</Time>
            <Position>
              <LatitudeDegrees>42.78825924731791019439697265625</LatitudeDegrees>
              <LongitudeDegrees>-0.137489028275012969970703125</LongitudeDegrees>
            </Position>
            <AltitudeMeters>2254.60009765625</AltitudeMeters>
            <DistanceMeters>12068.487023874</DistanceMeters>
          </Trackpoint>
          <Trackpoint>
            <Time>2022-07-09T11:42:08.000Z</Time>
            <Position>
              <LatitudeDegrees>42.78828690759837627410888671875</LatitudeDegrees>
              <LongitudeDegrees>-0.1374613679945468902587890625</LongitudeDegrees>
            </Position>
            <AltitudeMeters>2255</AltitudeMeters>
            <DistanceMeters>12072.304685905</DistanceMeters>
          </Trackpoint>
          <Trackpoint>
            <Time>2022-07-09T11:42:10.000Z</Time>
            <Position>
              <LatitudeDegrees>42.7883146516978740692138671875</LatitudeDegrees>
              <LongitudeDegrees>-0.137436054646968841552734375</LongitudeDegrees>
            </Position>
            <AltitudeMeters>2255.60009765625</AltitudeMeters>
            <DistanceMeters>12076.020461313</DistanceMeters>
          </Trackpoint>
          <Trackpoint>
            <Time>2022-07-09T11:42:11.000Z</Time>
            <Position>
              <LatitudeDegrees>42.7883250452578067779541015625</LatitudeDegrees>
              <LongitudeDegrees>-0.137428343296051025390625</LongitudeDegrees>
            </Position>
            <AltitudeMeters>2256.199951171875</AltitudeMeters>
            <DistanceMeters>12077.337190092</DistanceMeters>
          </Trackpoint>
          <Trackpoint>
            <Time>2022-07-09T11:42:13.000Z</Time>
            <Position>
              <LatitudeDegrees>42.7883376181125640869140625</LatitudeDegrees>
              <LongitudeDegrees>-0.13741618953645229339599609375</LongitudeDegrees>
            </Position>
            <AltitudeMeters>2256.60009765625</AltitudeMeters>
            <DistanceMeters>12079.052942091</DistanceMeters>
          </Trackpoint>
          <Trackpoint>
            <Time>2022-07-09T11:42:15.000Z</Time>
            <Position>
              <LatitudeDegrees>42.78834222815930843353271484375</LatitudeDegrees>
              <LongitudeDegrees>-0.13741618953645229339599609375</LongitudeDegrees>
            </Position>
            <AltitudeMeters>2257.199951171875</AltitudeMeters>
            <DistanceMeters>12079.564676609</DistanceMeters>
          </Trackpoint>
          <Trackpoint>
            <Time>2022-07-09T11:42:17.000Z</Time>
            <Position>
              <LatitudeDegrees>42.78834164142608642578125</LatitudeDegrees>
              <LongitudeDegrees>-0.13741937465965747833251953125</LongitudeDegrees>
            </Position>
            <AltitudeMeters>2257.800048828125</AltitudeMeters>
            <DistanceMeters>12079.849756752</DistanceMeters>
          </Trackpoint>
          <Trackpoint>
            <Time>2022-07-09T11:42:20.000Z</Time>
            <Position>
              <LatitudeDegrees>42.78834474273025989532470703125</LatitudeDegrees>
              <LongitudeDegrees>-0.13743144460022449493408203125</LongitudeDegrees>
            </Position>
            <AltitudeMeters>2258.199951171875</AltitudeMeters>
            <DistanceMeters>12080.899361118</DistanceMeters>
          </Trackpoint>
          <Trackpoint>
            <Time>2022-07-09T11:42:21.000Z</Time>
            <Position>
              <LatitudeDegrees>42.7883515320718288421630859375</LatitudeDegrees>
              <LongitudeDegrees>-0.1374281756579875946044921875</LongitudeDegrees>
            </Position>
            <AltitudeMeters>2258.39990234375</AltitudeMeters>
            <DistanceMeters>12081.694411652</DistanceMeters>
          </Trackpoint>
          <Trackpoint>
            <Time>2022-07-09T11:42:25.000Z</Time>
            <Position>
              <LatitudeDegrees>42.7884021587669849395751953125</LatitudeDegrees>
              <LongitudeDegrees>-0.137377716600894927978515625</LongitudeDegrees>
            </Position>
            <AltitudeMeters>2259</AltitudeMeters>
            <DistanceMeters>12088.674833737</DistanceMeters>
          </Trackpoint>
          <Trackpoint>
            <Time>2022-07-09T11:42:26.000Z</Time>
            <Position>
              <LatitudeDegrees>42.78841682709753513336181640625</LatitudeDegrees>
              <LongitudeDegrees>-0.13736070133745670318603515625</LongitudeDegrees>
            </Position>
            <AltitudeMeters>2259.39990234375</AltitudeMeters>
            <DistanceMeters>12090.818734134</DistanceMeters>
          </Trackpoint>
          <Trackpoint>
            <Time>2022-07-09T11:42:30.000Z</Time>
            <Position>
              <LatitudeDegrees>42.7884615026414394378662109375</LatitudeDegrees>
              <LongitudeDegrees>-0.13734192587435245513916015625</LongitudeDegrees>
            </Position>
            <AltitudeMeters>2260.199951171875</AltitudeMeters>
            <DistanceMeters>12096.022694093</DistanceMeters>
          </Trackpoint>
          <Trackpoint>
            <Time>2022-07-09T11:42:36.000Z</Time>
            <Position>
              <LatitudeDegrees>42.78846007771790027618408203125</LatitudeDegrees>
              <LongitudeDegrees>-0.13731074519455432891845703125</LongitudeDegrees>
            </Position>
            <AltitudeMeters>2261</AltitudeMeters>
            <DistanceMeters>12098.572528409</DistanceMeters>
          </Trackpoint>
          <Trackpoint>
            <Time>2022-07-09T11:42:37.000Z</Time>
            <Position>
              <LatitudeDegrees>42.78847617097198963165283203125</LatitudeDegrees>
              <LongitudeDegrees>-0.137301273643970489501953125</LongitudeDegrees>
            </Position>
            <AltitudeMeters>2261.60009765625</AltitudeMeters>
            <DistanceMeters>12100.524627858</DistanceMeters>
          </Trackpoint>
          <Trackpoint>
            <Time>2022-07-09T11:42:39.000Z</Time>
            <Position>
              <LatitudeDegrees>42.7885119616985321044921875</LatitudeDegrees>
              <LongitudeDegrees>-0.13729297555983066558837890625</LongitudeDegrees>
            </Position>
            <AltitudeMeters>2262.60009765625</AltitudeMeters>
            <DistanceMeters>12104.5674534</DistanceMeters>
          </Trackpoint>
          <Trackpoint>
            <Time>2022-07-09T11:42:42.000Z</Time>
            <Position>
              <LatitudeDegrees>42.788547165691852569580078125</LatitudeDegrees>
              <LongitudeDegrees>-0.13729356229305267333984375</LongitudeDegrees>
            </Position>
            <AltitudeMeters>2263.199951171875</AltitudeMeters>
            <DistanceMeters>12108.485505206</DistanceMeters>
          </Trackpoint>
          <Trackpoint>
            <Time>2022-07-09T11:42:46.000Z</Time>
            <Position>
              <LatitudeDegrees>42.7885828725993633270263671875</LatitudeDegrees>
              <LongitudeDegrees>-0.137309320271015167236328125</LongitudeDegrees>
            </Position>
            <AltitudeMeters>2263.60009765625</AltitudeMeters>
            <DistanceMeters>12112.662359009</DistanceMeters>
          </Trackpoint>
          <Trackpoint>
            <Time>2022-07-09T11:42:47.000Z</Time>
            <Position>
              <LatitudeDegrees>42.78859385289251804351806640625</LatitudeDegrees>
              <LongitudeDegrees>-0.13731007464230060577392578125</LongitudeDegrees>
            </Position>
            <AltitudeMeters>2264</AltitudeMeters>
            <DistanceMeters>12113.886692579</DistanceMeters>
          </Trackpoint>
          <Trackpoint>
            <Time>2022-07-09T11:42:49.000Z</Time>
            <Position>
              <LatitudeDegrees>42.7886150591075420379638671875</LatitudeDegrees>
              <LongitudeDegrees>-0.13730253092944622039794921875</LongitudeDegrees>
            </Position>
            <AltitudeMeters>2264.800048828125</AltitudeMeters>
            <DistanceMeters>12116.327973073</DistanceMeters>
          </Trackpoint>
          <Trackpoint>
            <Time>2022-07-09T11:42:54.000Z</Time>
            <Position>
              <LatitudeDegrees>42.78866359032690525054931640625</LatitudeDegrees>
              <LongitudeDegrees>-0.1372947357594966888427734375</LongitudeDegrees>
            </Position>
            <AltitudeMeters>2265</AltitudeMeters>
            <DistanceMeters>12121.766955554</DistanceMeters>
          </Trackpoint>
          <Trackpoint>
            <Time>2022-07-09T11:42:56.000Z</Time>
            <Position>
              <LatitudeDegrees>42.7886874787509441375732421875</LatitudeDegrees>
              <LongitudeDegrees>-0.13728358782827854156494140625</LongitudeDegrees>
            </Position>
            <AltitudeMeters>2265.199951171875</AltitudeMeters>
            <DistanceMeters>12124.577883673</DistanceMeters>
          </Trackpoint>
          <Trackpoint>
            <Time>2022-07-09T11:42:57.000Z</Time>
            <Position>
              <LatitudeDegrees>42.7887065894901752471923828125</LatitudeDegrees>
              <LongitudeDegrees>-0.13726808130741119384765625</LongitudeDegrees>
            </Position>
            <AltitudeMeters>2265.39990234375</AltitudeMeters>
            <DistanceMeters>12127.054054488</DistanceMeters>
          </Trackpoint>
          <Trackpoint>
            <Time>2022-07-09T11:42:58.000Z</Time>
            <Position>
              <LatitudeDegrees>42.788722179830074310302734375</LatitudeDegrees>
              <LongitudeDegrees>-0.13725475408136844635009765625</LongitudeDegrees>
            </Position>
            <AltitudeMeters>2265.39990234375</AltitudeMeters>
            <DistanceMeters>12129.103197125</DistanceMeters>
          </Trackpoint>
          <Trackpoint>
            <Time>2022-07-09T11:43:00.000Z</Time>
            <Position>
              <LatitudeDegrees>42.78873751871287822723388671875</LatitudeDegrees>
              <LongitudeDegrees>-0.13723731972277164459228515625</LongitudeDegrees>
            </Position>
            <AltitudeMeters>2265.800048828125</AltitudeMeters>
            <DistanceMeters>12131.327715475</DistanceMeters>
          </Trackpoint>
          <Trackpoint>
            <Time>2022-07-09T11:43:02.000Z</Time>
            <Position>
              <LatitudeDegrees>42.7887629158794879913330078125</LatitudeDegrees>
              <LongitudeDegrees>-0.13721854425966739654541015625</LongitudeDegrees>
            </Position>
            <AltitudeMeters>2266.60009765625</AltitudeMeters>
            <DistanceMeters>12134.544618894</DistanceMeters>
          </Trackpoint>
          <Trackpoint>
            <Time>2022-07-09T11:43:04.000Z</Time>
            <Position>
              <LatitudeDegrees>42.78879962861537933349609375</LatitudeDegrees>
              <LongitudeDegrees>-0.137198008596897125244140625</LongitudeDegrees>
            </Position>
            <AltitudeMeters>2267</AltitudeMeters>
            <DistanceMeters>12138.962083687</DistanceMeters>
          </Trackpoint>
          <Trackpoint>
            <Time>2022-07-09T11:43:06.000Z</Time>
            <Position>
              <LatitudeDegrees>42.78882049955427646636962890625</LatitudeDegrees>
              <LongitudeDegrees>-0.1371928118169307708740234375</LongitudeDegrees>
            </Position>
            <AltitudeMeters>2267.800048828125</AltitudeMeters>
            <DistanceMeters>12141.322498304</DistanceMeters>
          </Trackpoint>
          <Trackpoint>
            <Time>2022-07-09T11:43:07.000Z</Time>
            <Position>
              <LatitudeDegrees>42.78882921673357486724853515625</LatitudeDegrees>
              <LongitudeDegrees>-0.1371995173394680023193359375</LongitudeDegrees>
            </Position>
            <AltitudeMeters>2268</AltitudeMeters>
            <DistanceMeters>12142.430690705</DistanceMeters>
          </Trackpoint>
          <Trackpoint>
            <Time>2022-07-09T11:43:12.000Z</Time>
            <Position>
              <LatitudeDegrees>42.78885453008115291595458984375</LatitudeDegrees>
              <LongitudeDegrees>-0.1372203044593334197998046875</LongitudeDegrees>
            </Position>
            <AltitudeMeters>2268.800048828125</AltitudeMeters>
            <DistanceMeters>12145.719768323</DistanceMeters>
          </Trackpoint>
          <Trackpoint>
            <Time>2022-07-09T11:43:13.000Z</Time>
            <Position>
              <LatitudeDegrees>42.78886442072689533233642578125</LatitudeDegrees>
              <LongitudeDegrees>-0.137216784060001373291015625</LongitudeDegrees>
            </Position>
            <AltitudeMeters>2269</AltitudeMeters>
            <DistanceMeters>12146.852142314</DistanceMeters>
          </Trackpoint>
          <Trackpoint>
            <Time>2022-07-09T11:43:19.000Z</Time>
            <Position>
              <LatitudeDegrees>42.7889255248010158538818359375</LatitudeDegrees>
              <LongitudeDegrees>-0.137216784060001373291015625</LongitudeDegrees>
            </Position>
            <AltitudeMeters>2269.800048828125</AltitudeMeters>
            <DistanceMeters>12153.653028399</DistanceMeters>
          </Trackpoint>
          <Trackpoint>
            <Time>2022-07-09T11:43:20.000Z</Time>
            <Position>
              <LatitudeDegrees>42.788934074342250823974609375</LatitudeDegrees>
              <LongitudeDegrees>-0.13721175491809844970703125</LongitudeDegrees>
            </Position>
            <AltitudeMeters>2270</AltitudeMeters>
            <DistanceMeters>12154.68964747</DistanceMeters>
          </Trackpoint>
          <Trackpoint>
            <Time>2022-07-09T11:43:25.000Z</Time>
            <Position>
              <LatitudeDegrees>42.7889825217425823211669921875</LatitudeDegrees>
              <LongitudeDegrees>-0.13719859533011913299560546875</LongitudeDegrees>
            </Position>
            <AltitudeMeters>2270.60009765625</AltitudeMeters>
            <DistanceMeters>12160.188074148</DistanceMeters>
          </Trackpoint>
          <Trackpoint>
            <Time>2022-07-09T11:43:26.000Z</Time>
            <Position>
              <LatitudeDegrees>42.7889976091682910919189453125</LatitudeDegrees>
              <LongitudeDegrees>-0.13719926588237285614013671875</LongitudeDegrees>
            </Position>
            <AltitudeMeters>2270.60009765625</AltitudeMeters>
            <DistanceMeters>12161.869268344</DistanceMeters>
          </Trackpoint>
          <Trackpoint>
            <Time>2022-07-09T11:43:30.000Z</Time>
            <Position>
              <LatitudeDegrees>42.78905670158565044403076171875</LatitudeDegrees>
              <LongitudeDegrees>-0.13718686066567897796630859375</LongitudeDegrees>
            </Position>
            <AltitudeMeters>2271.60009765625</AltitudeMeters>
            <DistanceMeters>12168.523852845</DistanceMeters>
          </Trackpoint>
          <Trackpoint>
            <Time>2022-07-09T11:43:32.000Z</Time>
            <Position>
              <LatitudeDegrees>42.7890797518193721771240234375</LatitudeDegrees>
              <LongitudeDegrees>-0.13718116097152233123779296875</LongitudeDegrees>
            </Position>
            <AltitudeMeters>2272</AltitudeMeters>
            <DistanceMeters>12171.13146623</DistanceMeters>
          </Trackpoint>
          <Trackpoint>
            <Time>2022-07-09T11:43:35.000Z</Time>
            <Position>
              <LatitudeDegrees>42.7891079150140285491943359375</LatitudeDegrees>
              <LongitudeDegrees>-0.13718501664698123931884765625</LongitudeDegrees>
            </Position>
            <AltitudeMeters>2272.800048828125</AltitudeMeters>
            <DistanceMeters>12174.281712889</DistanceMeters>
          </Trackpoint>
          <Trackpoint>
            <Time>2022-07-09T11:43:38.000Z</Time>
            <Position>
              <LatitudeDegrees>42.7891414426267147064208984375</LatitudeDegrees>
              <LongitudeDegrees>-0.13717110268771648406982421875</LongitudeDegrees>
            </Position>
            <AltitudeMeters>2273.800048828125</AltitudeMeters>
            <DistanceMeters>12178.182440873</DistanceMeters>
          </Trackpoint>
          <Trackpoint>
            <Time>2022-07-09T11:43:39.000Z</Time>
            <Position>
              <LatitudeDegrees>42.78915309347212314605712890625</LatitudeDegrees>
              <LongitudeDegrees>-0.1371646486222743988037109375</LongitudeDegrees>
            </Position>
            <AltitudeMeters>2274.39990234375</AltitudeMeters>
            <DistanceMeters>12179.585493497</DistanceMeters>
          </Trackpoint>
          <Trackpoint>
            <Time>2022-07-09T11:43:40.000Z</Time>
            <Position>
              <LatitudeDegrees>42.78916415758430957794189453125</LatitudeDegrees>
              <LongitudeDegrees>-0.13715811073780059814453125</LongitudeDegrees>
            </Position>
            <AltitudeMeters>2274.60009765625</AltitudeMeters>
            <DistanceMeters>12180.929374179</DistanceMeters>
          </Trackpoint>
          <Trackpoint>
            <Time>2022-07-09T11:43:42.000Z</Time>
            <Position>
              <LatitudeDegrees>42.7891873754560947418212890625</LatitudeDegrees>
              <LongitudeDegrees>-0.137151069939136505126953125</LongitudeDegrees>
            </Position>
            <AltitudeMeters>2275.199951171875</AltitudeMeters>
            <DistanceMeters>12183.576512128</DistanceMeters>
          </Trackpoint>
          <Trackpoint>
            <Time>2022-07-09T11:43:45.000Z</Time>
            <Position>
              <LatitudeDegrees>42.7892279438674449920654296875</LatitudeDegrees>
              <LongitudeDegrees>-0.13714461587369441986083984375</LongitudeDegrees>
            </Position>
            <AltitudeMeters>2276.39990234375</AltitudeMeters>
            <DistanceMeters>12188.122922248</DistanceMeters>
          </Trackpoint>
          <Trackpoint>
            <Time>2022-07-09T11:43:48.000Z</Time>
            <Position>
              <LatitudeDegrees>42.789267003536224365234375</LatitudeDegrees>
              <LongitudeDegrees>-0.1371252536773681640625</LongitudeDegrees>
            </Position>
            <AltitudeMeters>2277</AltitudeMeters>
            <DistanceMeters>12192.749074123</DistanceMeters>
          </Trackpoint>
          <Trackpoint>
            <Time>2022-07-09T11:43:49.000Z</Time>
            <Position>
              <LatitudeDegrees>42.78928100131452083587646484375</LatitudeDegrees>
              <LongitudeDegrees>-0.137118212878704071044921875</LongitudeDegrees>
            </Position>
            <AltitudeMeters>2277.39990234375</AltitudeMeters>
            <DistanceMeters>12194.411362724</DistanceMeters>
          </Trackpoint>
          <Trackpoint>
            <Time>2022-07-09T11:43:55.000Z</Time>
            <Position>
              <LatitudeDegrees>42.78933866880834102630615234375</LatitudeDegrees>
              <LongitudeDegrees>-0.137098096311092376708984375</LongitudeDegrees>
            </Position>
            <AltitudeMeters>2278.39990234375</AltitudeMeters>
            <DistanceMeters>12201.036708118</DistanceMeters>
          </Trackpoint>
          <Trackpoint>
            <Time>2022-07-09T11:43:58.000Z</Time>
            <Position>
              <LatitudeDegrees>42.7893687598407268524169921875</LatitudeDegrees>
              <LongitudeDegrees>-0.13708460144698619842529296875</LongitudeDegrees>
            </Position>
            <AltitudeMeters>2278.60009765625</AltitudeMeters>
            <DistanceMeters>12204.56423492</DistanceMeters>
          </Trackpoint>
          <Trackpoint>
            <Time>2022-07-09T11:44:00.000Z</Time>
            <Position>
              <LatitudeDegrees>42.789386697113513946533203125</LatitudeDegrees>
              <LongitudeDegrees>-0.1370778121054172515869140625</LongitudeDegrees>
            </Position>
            <AltitudeMeters>2279.199951171875</AltitudeMeters>
            <DistanceMeters>12206.637473061</DistanceMeters>
          </Trackpoint>
          <Trackpoint>
            <Time>2022-07-09T11:44:01.000Z</Time>
            <Position>
              <LatitudeDegrees>42.7893992699682712554931640625</LatitudeDegrees>
              <LongitudeDegrees>-0.13707135803997516632080078125</LongitudeDegrees>
            </Position>
            <AltitudeMeters>2279.60009765625</AltitudeMeters>
            <DistanceMeters>12208.133955255</DistanceMeters>
          </Trackpoint>
          <Trackpoint>
            <Time>2022-07-09T11:44:02.000Z</Time>
            <Position>
              <LatitudeDegrees>42.78941251337528228759765625</LatitudeDegrees>
              <LongitudeDegrees>-0.13706163503229618072509765625</LongitudeDegrees>
            </Position>
            <AltitudeMeters>2280.199951171875</AltitudeMeters>
            <DistanceMeters>12209.807073212</DistanceMeters>
          </Trackpoint>
          <Trackpoint>
            <Time>2022-07-09T11:44:08.000Z</Time>
            <Position>
              <LatitudeDegrees>42.78948686085641384124755859375</LatitudeDegrees>
              <LongitudeDegrees>-0.13703481294214725494384765625</LongitudeDegrees>
            </Position>
            <AltitudeMeters>2280.800048828125</AltitudeMeters>
            <DistanceMeters>12218.366865281</DistanceMeters>
          </Trackpoint>
          <Trackpoint>
            <Time>2022-07-09T11:44:09.000Z</Time>
            <Position>
              <LatitudeDegrees>42.78949457220733165740966796875</LatitudeDegrees>
              <LongitudeDegrees>-0.13703330419957637786865234375</LongitudeDegrees>
            </Position>
            <AltitudeMeters>2280.800048828125</AltitudeMeters>
            <DistanceMeters>12219.237799505</DistanceMeters>
          </Trackpoint>
          <Trackpoint>
            <Time>2022-07-09T11:44:13.000Z</Time>
            <Position>
              <LatitudeDegrees>42.7895312011241912841796875</LatitudeDegrees>
              <LongitudeDegrees>-0.1369939930737018585205078125</LongitudeDegrees>
            </Position>
            <AltitudeMeters>2281.199951171875</AltitudeMeters>
            <DistanceMeters>12224.426989032</DistanceMeters>
          </Trackpoint>
          <Trackpoint>
            <Time>2022-07-09T11:44:15.000Z</Time>
            <Position>
              <LatitudeDegrees>42.789534889161586761474609375</LatitudeDegrees>
              <LongitudeDegrees>-0.13697463087737560272216796875</LongitudeDegrees>
            </Position>
            <AltitudeMeters>2281.199951171875</AltitudeMeters>
            <DistanceMeters>12226.05912645</DistanceMeters>
          </Trackpoint>
          <Trackpoint>
            <Time>2022-07-09T11:44:16.000Z</Time>
            <Position>
              <LatitudeDegrees>42.78953866101801395416259765625</LatitudeDegrees>
              <LongitudeDegrees>-0.1369535923004150390625</LongitudeDegrees>
            </Position>
            <AltitudeMeters>2281.39990234375</AltitudeMeters>
            <DistanceMeters>12227.829278005</DistanceMeters>
          </Trackpoint>
          <Trackpoint>
            <Time>2022-07-09T11:44:18.000Z</Time>
            <Position>
              <LatitudeDegrees>42.789544947445392608642578125</LatitudeDegrees>
              <LongitudeDegrees>-0.13691662810742855072021484375</LongitudeDegrees>
            </Position>
            <AltitudeMeters>2281.60009765625</AltitudeMeters>
            <DistanceMeters>12230.928955623</DistanceMeters>
          </Trackpoint>
          <Trackpoint>
            <Time>2022-07-09T11:44:21.000Z</Time>
            <Position>
              <LatitudeDegrees>42.78956380672752857208251953125</LatitudeDegrees>
              <LongitudeDegrees>-0.1368793286383152008056640625</LongitudeDegrees>
            </Position>
            <AltitudeMeters>2281.60009765625</AltitudeMeters>
            <DistanceMeters>12234.628901013</DistanceMeters>
          </Trackpoint>
          <Trackpoint>
            <Time>2022-07-09T11:44:25.000Z</Time>
            <Position>
              <LatitudeDegrees>42.78960253112018108367919921875</LatitudeDegrees>
              <LongitudeDegrees>-0.13686030171811580657958984375</LongitudeDegrees>
            </Position>
            <AltitudeMeters>2281.800048828125</AltitudeMeters>
            <DistanceMeters>12239.21190852</DistanceMeters>
          </Trackpoint>
          <Trackpoint>
            <Time>2022-07-09T11:44:27.000Z</Time>
            <Position>
              <LatitudeDegrees>42.7896346338093280792236328125</LatitudeDegrees>
              <LongitudeDegrees>-0.13685644604265689849853515625</LongitudeDegrees>
            </Position>
            <AltitudeMeters>2281.800048828125</AltitudeMeters>
            <DistanceMeters>12242.800346761</DistanceMeters>
          </Trackpoint>
          <Trackpoint>
            <Time>2022-07-09T11:44:28.000Z</Time>
            <Position>
              <LatitudeDegrees>42.78965014033019542694091796875</LatitudeDegrees>
              <LongitudeDegrees>-0.136850662529468536376953125</LongitudeDegrees>
            </Position>
            <AltitudeMeters>2281.800048828125</AltitudeMeters>
            <DistanceMeters>12244.588263722</DistanceMeters>
          </Trackpoint>
          <Trackpoint>
            <Time>2022-07-09T11:44:32.000Z</Time>
            <Position>
              <LatitudeDegrees>42.78969607315957546234130859375</LatitudeDegrees>
              <LongitudeDegrees>-0.13683666475117206573486328125</LongitudeDegrees>
            </Position>
            <AltitudeMeters>2281.800048828125</AltitudeMeters>
            <DistanceMeters>12249.827675177</DistanceMeters>
          </Trackpoint>
          <Trackpoint>
            <Time>2022-07-09T11:44:33.000Z</Time>
            <Position>
              <LatitudeDegrees>42.78970629908144474029541015625</LatitudeDegrees>
              <LongitudeDegrees>-0.136835575103759765625</LongitudeDegrees>
            </Position>
            <AltitudeMeters>2281.800048828125</AltitudeMeters>
            <DistanceMeters>12250.967995749</DistanceMeters>
          </Trackpoint>
          <Trackpoint>
            <Time>2022-07-09T11:44:35.000Z</Time>
            <Position>
              <LatitudeDegrees>42.78972725383937358856201171875</LatitudeDegrees>
              <LongitudeDegrees>-0.13684093952178955078125</LongitudeDegrees>
            </Position>
            <AltitudeMeters>2282.199951171875</AltitudeMeters>
            <DistanceMeters>12253.341762313</DistanceMeters>
          </Trackpoint>
          <Trackpoint>
            <Time>2022-07-09T11:44:37.000Z</Time>
            <Position>
              <LatitudeDegrees>42.78974904678761959075927734375</LatitudeDegrees>
              <LongitudeDegrees>-0.136852003633975982666015625</LongitudeDegrees>
            </Position>
            <AltitudeMeters>2283.199951171875</AltitudeMeters>
            <DistanceMeters>12255.930259314</DistanceMeters>
          </Trackpoint>
          <Trackpoint>
            <Time>2022-07-09T11:44:38.000Z</Time>
            <Position>
              <LatitudeDegrees>42.78975717723369598388671875</LatitudeDegrees>
              <LongitudeDegrees>-0.1368691027164459228515625</LongitudeDegrees>
            </Position>
            <AltitudeMeters>2283.39990234375</AltitudeMeters>
            <DistanceMeters>12257.592547915</DistanceMeters>
          </Trackpoint>
          <Trackpoint>
            <Time>2022-07-09T11:44:41.000Z</Time>
            <Position>
              <LatitudeDegrees>42.789780981838703155517578125</LatitudeDegrees>
              <LongitudeDegrees>-0.13689483515918254852294921875</LongitudeDegrees>
            </Position>
            <AltitudeMeters>2283.800048828125</AltitudeMeters>
            <DistanceMeters>12260.973683342</DistanceMeters>
          </Trackpoint>
          <Trackpoint>
            <Time>2022-07-09T11:44:42.000Z</Time>
            <Position>
              <LatitudeDegrees>42.789789028465747833251953125</LatitudeDegrees>
              <LongitudeDegrees>-0.13689751736819744110107421875</LongitudeDegrees>
            </Position>
            <AltitudeMeters>2284</AltitudeMeters>
            <DistanceMeters>12261.885147567</DistanceMeters>
          </Trackpoint>
          <Trackpoint>
            <Time>2022-07-09T11:44:44.000Z</Time>
            <Position>
              <LatitudeDegrees>42.7898128330707550048828125</LatitudeDegrees>
              <LongitudeDegrees>-0.13690640218555927276611328125</LongitudeDegrees>
            </Position>
            <AltitudeMeters>2284.39990234375</AltitudeMeters>
            <DistanceMeters>12264.629429577</DistanceMeters>
          </Trackpoint>
          <Trackpoint>
            <Time>2022-07-09T11:44:49.000Z</Time>
            <Position>
              <LatitudeDegrees>42.789874859154224395751953125</LatitudeDegrees>
              <LongitudeDegrees>-0.13690103776752948760986328125</LongitudeDegrees>
            </Position>
            <AltitudeMeters>2285</AltitudeMeters>
            <DistanceMeters>12271.546826131</DistanceMeters>
          </Trackpoint>
          <Trackpoint>
            <Time>2022-07-09T11:44:51.000Z</Time>
            <Position>
              <LatitudeDegrees>42.78989455662667751312255859375</LatitudeDegrees>
              <LongitudeDegrees>-0.13689131475985050201416015625</LongitudeDegrees>
            </Position>
            <AltitudeMeters>2285.39990234375</AltitudeMeters>
            <DistanceMeters>12273.88030767</DistanceMeters>
          </Trackpoint>
          <Trackpoint>
            <Time>2022-07-09T11:44:53.000Z</Time>
            <Position>
              <LatitudeDegrees>42.78990780003368854522705078125</LatitudeDegrees>
              <LongitudeDegrees>-0.13689257204532623291015625</LongitudeDegrees>
            </Position>
            <AltitudeMeters>2285.60009765625</AltitudeMeters>
            <DistanceMeters>12275.358576421</DistanceMeters>
          </Trackpoint>
          <Trackpoint>
            <Time>2022-07-09T11:44:55.000Z</Time>
            <Position>
              <LatitudeDegrees>42.78992204926908016204833984375</LatitudeDegrees>
              <LongitudeDegrees>-0.136880837380886077880859375</LongitudeDegrees>
            </Position>
            <AltitudeMeters>2286</AltitudeMeters>
            <DistanceMeters>12277.210988105</DistanceMeters>
          </Trackpoint>
          <Trackpoint>
            <Time>2022-07-09T11:44:57.000Z</Time>
            <Position>
              <LatitudeDegrees>42.78993646614253520965576171875</LatitudeDegrees>
              <LongitudeDegrees>-0.1368712820112705230712890625</LongitudeDegrees>
            </Position>
            <AltitudeMeters>2286.199951171875</AltitudeMeters>
            <DistanceMeters>12278.9938473</DistanceMeters>
          </Trackpoint>
          <Trackpoint>
            <Time>2022-07-09T11:44:58.000Z</Time>
            <Position>
              <LatitudeDegrees>42.78994719497859477996826171875</LatitudeDegrees>
              <LongitudeDegrees>-0.1368608884513378143310546875</LongitudeDegrees>
            </Position>
            <AltitudeMeters>2286.60009765625</AltitudeMeters>
            <DistanceMeters>12280.459848048</DistanceMeters>
          </Trackpoint>
          <Trackpoint>
            <Time>2022-07-09T11:45:01.000Z</Time>
            <Position>
              <LatitudeDegrees>42.78997384943068027496337890625</LatitudeDegrees>
              <LongitudeDegrees>-0.1368313841521739959716796875</LongitudeDegrees>
            </Position>
            <AltitudeMeters>2287</AltitudeMeters>
            <DistanceMeters>12284.282237836</DistanceMeters>
          </Trackpoint>
          <Trackpoint>
            <Time>2022-07-09T11:45:07.000Z</Time>
            <Position>
              <LatitudeDegrees>42.79002229683101177215576171875</LatitudeDegrees>
              <LongitudeDegrees>-0.13679073192179203033447265625</LongitudeDegrees>
            </Position>
            <AltitudeMeters>2287.199951171875</AltitudeMeters>
            <DistanceMeters>12290.615609731</DistanceMeters>
          </Trackpoint>
          <Trackpoint>
            <Time>2022-07-09T11:45:11.000Z</Time>
            <Position>
              <LatitudeDegrees>42.7900476939976215362548828125</LatitudeDegrees>
              <LongitudeDegrees>-0.13677245937287807464599609375</LongitudeDegrees>
            </Position>
            <AltitudeMeters>2287.800048828125</AltitudeMeters>
            <DistanceMeters>12293.812803271</DistanceMeters>
          </Trackpoint>
          <Trackpoint>
            <Time>2022-07-09T11:45:15.000Z</Time>
            <Position>
              <LatitudeDegrees>42.79008164070546627044677734375</LatitudeDegrees>
              <LongitudeDegrees>-0.13676860369741916656494140625</LongitudeDegrees>
            </Position>
            <AltitudeMeters>2288.39990234375</AltitudeMeters>
            <DistanceMeters>12297.604357267</DistanceMeters>
          </Trackpoint>
          <Trackpoint>
            <Time>2022-07-09T11:45:17.000Z</Time>
            <Position>
              <LatitudeDegrees>42.79009588994085788726806640625</LatitudeDegrees>
              <LongitudeDegrees>-0.136766172945499420166015625</LongitudeDegrees>
            </Position>
            <AltitudeMeters>2288.800048828125</AltitudeMeters>
            <DistanceMeters>12299.202954037</DistanceMeters>
          </Trackpoint>
          <Trackpoint>
            <Time>2022-07-09T11:45:21.000Z</Time>
            <Position>
              <LatitudeDegrees>42.7901254780590534210205078125</LatitudeDegrees>
              <LongitudeDegrees>-0.136752426624298095703125</LongitudeDegrees>
            </Position>
            <AltitudeMeters>2289.39990234375</AltitudeMeters>
            <DistanceMeters>12302.681502935</DistanceMeters>
          </Trackpoint>
          <Trackpoint>
            <Time>2022-07-09T11:45:22.000Z</Time>
            <Position>
              <LatitudeDegrees>42.7901325188577175140380859375</LatitudeDegrees>
              <LongitudeDegrees>-0.1367479003965854644775390625</LongitudeDegrees>
            </Position>
            <AltitudeMeters>2289.39990234375</AltitudeMeters>
            <DistanceMeters>12303.547237504</DistanceMeters>
          </Trackpoint>
          <Trackpoint>
            <Time>2022-07-09T11:45:25.000Z</Time>
            <Position>
              <LatitudeDegrees>42.79016696847975254058837890625</LatitudeDegrees>
              <LongitudeDegrees>-0.13673256151378154754638671875</LongitudeDegrees>
            </Position>
            <AltitudeMeters>2290</AltitudeMeters>
            <DistanceMeters>12307.581118731</DistanceMeters>
          </Trackpoint>
          <Trackpoint>
            <Time>2022-07-09T11:45:30.000Z</Time>
            <Position>
              <LatitudeDegrees>42.790224887430667877197265625</LatitudeDegrees>
              <LongitudeDegrees>-0.1366945914924144744873046875</LongitudeDegrees>
            </Position>
            <AltitudeMeters>2291.199951171875</AltitudeMeters>
            <DistanceMeters>12314.735311438</DistanceMeters>
          </Trackpoint>
          <Trackpoint>
            <Time>2022-07-09T11:45:34.000Z</Time>
            <Position>
              <LatitudeDegrees>42.790231592953205108642578125</LatitudeDegrees>
              <LongitudeDegrees>-0.13666450046002864837646484375</LongitudeDegrees>
            </Position>
            <AltitudeMeters>2291.39990234375</AltitudeMeters>
            <DistanceMeters>12317.304549823</DistanceMeters>
          </Trackpoint>
          <Trackpoint>
            <Time>2022-07-09T11:45:36.000Z</Time>
            <Position>
              <LatitudeDegrees>42.79021323658525943756103515625</LatitudeDegrees>
              <LongitudeDegrees>-0.1366453059017658233642578125</LongitudeDegrees>
            </Position>
            <AltitudeMeters>2291.60009765625</AltitudeMeters>
            <DistanceMeters>12319.879054845</DistanceMeters>
          </Trackpoint>
          <Trackpoint>
            <Time>2022-07-09T11:45:37.000Z</Time>
            <Position>
              <LatitudeDegrees>42.790205776691436767578125</LatitudeDegrees>
              <LongitudeDegrees>-0.1366399414837360382080078125</LongitudeDegrees>
            </Position>
            <AltitudeMeters>2291.60009765625</AltitudeMeters>
            <DistanceMeters>12320.819771323</DistanceMeters>
          </Trackpoint>
          <Trackpoint>
            <Time>2022-07-09T11:45:41.000Z</Time>
            <Position>
              <LatitudeDegrees>42.79017367400228977203369140625</LatitudeDegrees>
              <LongitudeDegrees>-0.1366137899458408355712890625</LongitudeDegrees>
            </Position>
            <AltitudeMeters>2291.800048828125</AltitudeMeters>
            <DistanceMeters>12324.981464082</DistanceMeters>
          </Trackpoint>
          <Trackpoint>
            <Time>2022-07-09T11:45:44.000Z</Time>
            <Position>
              <LatitudeDegrees>42.79015481472015380859375</LatitudeDegrees>
              <LongitudeDegrees>-0.13659727759659290313720703125</LongitudeDegrees>
            </Position>
            <AltitudeMeters>2292.199951171875</AltitudeMeters>
            <DistanceMeters>12327.475802205</DistanceMeters>
          </Trackpoint>
          <Trackpoint>
            <Time>2022-07-09T11:45:45.000Z</Time>
            <Position>
              <LatitudeDegrees>42.790146768093109130859375</LatitudeDegrees>
              <LongitudeDegrees>-0.1365909911692142486572265625</LongitudeDegrees>
            </Position>
            <AltitudeMeters>2292.39990234375</AltitudeMeters>
            <DistanceMeters>12328.508056544</DistanceMeters>
          </Trackpoint>
          <Trackpoint>
            <Time>2022-07-09T11:45:49.000Z</Time>
            <Position>
              <LatitudeDegrees>42.79011919163167476654052734375</LatitudeDegrees>
              <LongitudeDegrees>-0.1365584693849086761474609375</LongitudeDegrees>
            </Position>
            <AltitudeMeters>2292.60009765625</AltitudeMeters>
            <DistanceMeters>12332.566487205</DistanceMeters>
          </Trackpoint>
          <Trackpoint>
            <Time>2022-07-09T11:45:54.000Z</Time>
            <Position>
              <LatitudeDegrees>42.79007912613451480865478515625</LatitudeDegrees>
              <LongitudeDegrees>-0.13652904890477657318115234375</LongitudeDegrees>
            </Position>
            <AltitudeMeters>2293</AltitudeMeters>
            <DistanceMeters>12337.632400474</DistanceMeters>
          </Trackpoint>
          <Trackpoint>
            <Time>2022-07-09T11:45:56.000Z</Time>
            <Position>
              <LatitudeDegrees>42.790068648755550384521484375</LatitudeDegrees>
              <LongitudeDegrees>-0.1365118660032749176025390625</LongitudeDegrees>
            </Position>
            <AltitudeMeters>2293.60009765625</AltitudeMeters>
            <DistanceMeters>12339.457804048</DistanceMeters>
          </Trackpoint>
          <Trackpoint>
            <Time>2022-07-09T11:46:02.000Z</Time>
            <Position>
              <LatitudeDegrees>42.79004149138927459716796875</LatitudeDegrees>
              <LongitudeDegrees>-0.1364776678383350372314453125</LongitudeDegrees>
            </Position>
            <AltitudeMeters>2294.39990234375</AltitudeMeters>
            <DistanceMeters>12343.57367861</DistanceMeters>
          </Trackpoint>
          <Trackpoint>
            <Time>2022-07-09T11:46:06.000Z</Time>
            <Position>
              <LatitudeDegrees>42.79005213640630245208740234375</LatitudeDegrees>
              <LongitudeDegrees>-0.136465094983577728271484375</LongitudeDegrees>
            </Position>
            <AltitudeMeters>2294.800048828125</AltitudeMeters>
            <DistanceMeters>12345.140899333</DistanceMeters>
          </Trackpoint>
          <Trackpoint>
            <Time>2022-07-09T11:46:07.000Z</Time>
            <Position>
              <LatitudeDegrees>42.79005934484302997589111328125</LatitudeDegrees>
              <LongitudeDegrees>-0.13645998202264308929443359375</LongitudeDegrees>
            </Position>
            <AltitudeMeters>2295.199951171875</AltitudeMeters>
            <DistanceMeters>12346.042401901</DistanceMeters>
          </Trackpoint>
          <Trackpoint>
            <Time>2022-07-09T11:46:11.000Z</Time>
            <Position>
              <LatitudeDegrees>42.79009404592216014862060546875</LatitudeDegrees>
              <LongitudeDegrees>-0.13644103892147541046142578125</LongitudeDegrees>
            </Position>
            <AltitudeMeters>2295.800048828125</AltitudeMeters>
            <DistanceMeters>12350.203009614</DistanceMeters>
          </Trackpoint>
          <Trackpoint>
            <Time>2022-07-09T11:46:13.000Z</Time>
            <Position>
              <LatitudeDegrees>42.79011751525104045867919921875</LatitudeDegrees>
              <LongitudeDegrees>-0.13644120655953884124755859375</LongitudeDegrees>
            </Position>
            <AltitudeMeters>2296.39990234375</AltitudeMeters>
            <DistanceMeters>12352.815812284</DistanceMeters>
          </Trackpoint>
          <Trackpoint>
            <Time>2022-07-09T11:46:15.000Z</Time>
            <Position>
              <LatitudeDegrees>42.79013863764703273773193359375</LatitudeDegrees>
              <LongitudeDegrees>-0.136441290378570556640625</LongitudeDegrees>
            </Position>
            <AltitudeMeters>2296.800048828125</AltitudeMeters>
            <DistanceMeters>12355.166643367</DistanceMeters>
          </Trackpoint>
          <Trackpoint>
            <Time>2022-07-09T11:46:19.000Z</Time>
            <Position>
              <LatitudeDegrees>42.79018121771514415740966796875</LatitudeDegrees>
              <LongitudeDegrees>-0.136436261236667633056640625</LongitudeDegrees>
            </Position>
            <AltitudeMeters>2297.60009765625</AltitudeMeters>
            <DistanceMeters>12359.923677272</DistanceMeters>
          </Trackpoint>
          <Trackpoint>
            <Time>2022-07-09T11:46:20.000Z</Time>
            <Position>
              <LatitudeDegrees>42.7901910245418548583984375</LatitudeDegrees>
              <LongitudeDegrees>-0.13643533922731876373291015625</LongitudeDegrees>
            </Position>
            <AltitudeMeters>2298</AltitudeMeters>
            <DistanceMeters>12361.019578803</DistanceMeters>
          </Trackpoint>
          <Trackpoint>
            <Time>2022-07-09T11:46:24.000Z</Time>
            <Position>
              <LatitudeDegrees>42.790227234363555908203125</LatitudeDegrees>
              <LongitudeDegrees>-0.1364273764193058013916015625</LongitudeDegrees>
            </Position>
            <AltitudeMeters>2298.800048828125</AltitudeMeters>
            <DistanceMeters>12365.10241129</DistanceMeters>
          </Trackpoint>
          <Trackpoint>
            <Time>2022-07-09T11:46:25.000Z</Time>
            <Position>
              <LatitudeDegrees>42.79023595154285430908203125</LatitudeDegrees>
              <LongitudeDegrees>-0.13642863370478153228759765625</LongitudeDegrees>
            </Position>
            <AltitudeMeters>2299</AltitudeMeters>
            <DistanceMeters>12366.080771195</DistanceMeters>
          </Trackpoint>
          <Trackpoint>
            <Time>2022-07-09T11:46:26.000Z</Time>
            <Position>
              <LatitudeDegrees>42.79024240560829639434814453125</LatitudeDegrees>
              <LongitudeDegrees>-0.13642461039125919342041015625</LongitudeDegrees>
            </Position>
            <AltitudeMeters>2299.39990234375</AltitudeMeters>
            <DistanceMeters>12366.875821729</DistanceMeters>
          </Trackpoint>
          <Trackpoint>
            <Time>2022-07-09T11:46:27.000Z</Time>
            <Position>
              <LatitudeDegrees>42.7902488596737384796142578125</LatitudeDegrees>
              <LongitudeDegrees>-0.1364149712026119232177734375</LongitudeDegrees>
            </Position>
            <AltitudeMeters>2299.800048828125</AltitudeMeters>
            <DistanceMeters>12367.938252694</DistanceMeters>
          </Trackpoint>
          <Trackpoint>
            <Time>2022-07-09T11:46:29.000Z</Time>
            <Position>
              <LatitudeDegrees>42.79025866650044918060302734375</LatitudeDegrees>
              <LongitudeDegrees>-0.13640902005136013031005859375</LongitudeDegrees>
            </Position>
            <AltitudeMeters>2300.199951171875</AltitudeMeters>
            <DistanceMeters>12369.132719972</DistanceMeters>
          </Trackpoint>
          <Trackpoint>
            <Time>2022-07-09T11:46:30.000Z</Time>
            <Position>
              <LatitudeDegrees>42.79026302509009838104248046875</LatitudeDegrees>
              <LongitudeDegrees>-0.13640834949910640716552734375</LongitudeDegrees>
            </Position>
            <AltitudeMeters>2300.39990234375</AltitudeMeters>
            <DistanceMeters>12369.617263042</DistanceMeters>
          </Trackpoint>
          <Trackpoint>
            <Time>2022-07-09T11:46:33.000Z</Time>
            <Position>
              <LatitudeDegrees>42.79027844779193401336669921875</LatitudeDegrees>
              <LongitudeDegrees>-0.13639292679727077484130859375</LongitudeDegrees>
            </Position>
            <AltitudeMeters>2301</AltitudeMeters>
            <DistanceMeters>12371.746370455</DistanceMeters>
          </Trackpoint>
          <Trackpoint>
            <Time>2022-07-09T11:46:35.000Z</Time>
            <Position>
              <LatitudeDegrees>42.7902956306934356689453125</LatitudeDegrees>
              <LongitudeDegrees>-0.1363943517208099365234375</LongitudeDegrees>
            </Position>
            <AltitudeMeters>2301.39990234375</AltitudeMeters>
            <DistanceMeters>12373.665815997</DistanceMeters>
          </Trackpoint>
          <Trackpoint>
            <Time>2022-07-09T11:46:38.000Z</Time>
            <Position>
              <LatitudeDegrees>42.790318094193935394287109375</LatitudeDegrees>
              <LongitudeDegrees>-0.13640147633850574493408203125</LongitudeDegrees>
            </Position>
            <AltitudeMeters>2302.39990234375</AltitudeMeters>
            <DistanceMeters>12376.233296436</DistanceMeters>
          </Trackpoint>
          <Trackpoint>
            <Time>2022-07-09T11:46:39.000Z</Time>
            <Position>
              <LatitudeDegrees>42.7903199382126331329345703125</LatitudeDegrees>
              <LongitudeDegrees>-0.13639636337757110595703125</LongitudeDegrees>
            </Position>
            <AltitudeMeters>2302.60009765625</AltitudeMeters>
            <DistanceMeters>12376.69883036</DistanceMeters>
          </Trackpoint>
          <Trackpoint>
            <Time>2022-07-09T11:46:40.000Z</Time>
            <Position>
              <LatitudeDegrees>42.790318764746189117431640625</LatitudeDegrees>
              <LongitudeDegrees>-0.1363901607692241668701171875</LongitudeDegrees>
            </Position>
            <AltitudeMeters>2302.60009765625</AltitudeMeters>
            <DistanceMeters>12377.236382633</DistanceMeters>
          </Trackpoint>
          <Trackpoint>
            <Time>2022-07-09T11:46:42.000Z</Time>
            <Position>
              <LatitudeDegrees>42.79030510224401950836181640625</LatitudeDegrees>
              <LongitudeDegrees>-0.13636861927807331085205078125</LongitudeDegrees>
            </Position>
            <AltitudeMeters>2302.800048828125</AltitudeMeters>
            <DistanceMeters>12379.560169567</DistanceMeters>
          </Trackpoint>
          <Trackpoint>
            <Time>2022-07-09T11:46:45.000Z</Time>
            <Position>
              <LatitudeDegrees>42.7902753464877605438232421875</LatitudeDegrees>
              <LongitudeDegrees>-0.13634112663567066192626953125</LongitudeDegrees>
            </Position>
            <AltitudeMeters>2303</AltitudeMeters>
            <DistanceMeters>12383.560331496</DistanceMeters>
          </Trackpoint>
          <Trackpoint>
            <Time>2022-07-09T11:46:48.000Z</Time>
            <Position>
              <LatitudeDegrees>42.7902515418827533721923828125</LatitudeDegrees>
              <LongitudeDegrees>-0.13631765730679035186767578125</LongitudeDegrees>
            </Position>
            <AltitudeMeters>2303.199951171875</AltitudeMeters>
            <DistanceMeters>12386.830134321</DistanceMeters>
          </Trackpoint>
          <Trackpoint>
            <Time>2022-07-09T11:46:49.000Z</Time>
            <Position>
              <LatitudeDegrees>42.790239639580249786376953125</LatitudeDegrees>
              <LongitudeDegrees>-0.136306174099445343017578125</LongitudeDegrees>
            </Position>
            <AltitudeMeters>2303.39990234375</AltitudeMeters>
            <DistanceMeters>12388.453951528</DistanceMeters>
          </Trackpoint>
          <Trackpoint>
            <Time>2022-07-09T11:46:51.000Z</Time>
            <Position>
              <LatitudeDegrees>42.790226899087429046630859375</LatitudeDegrees>
              <LongitudeDegrees>-0.1362875662744045257568359375</LongitudeDegrees>
            </Position>
            <AltitudeMeters>2303.60009765625</AltitudeMeters>
            <DistanceMeters>12390.531540645</DistanceMeters>
          </Trackpoint>
          <Trackpoint>
            <Time>2022-07-09T11:46:52.000Z</Time>
            <Position>
              <LatitudeDegrees>42.79021960683166980743408203125</LatitudeDegrees>
              <LongitudeDegrees>-0.13628563843667507171630859375</LongitudeDegrees>
            </Position>
            <AltitudeMeters>2304</AltitudeMeters>
            <DistanceMeters>12391.354496132</DistanceMeters>
          </Trackpoint>
          <Trackpoint>
            <Time>2022-07-09T11:46:54.000Z</Time>
            <Position>
              <LatitudeDegrees>42.79020099900662899017333984375</LatitudeDegrees>
              <LongitudeDegrees>-0.13627273030579090118408203125</LongitudeDegrees>
            </Position>
            <AltitudeMeters>2304.199951171875</AltitudeMeters>
            <DistanceMeters>12393.678283065</DistanceMeters>
          </Trackpoint>
          <Trackpoint>
            <Time>2022-07-09T11:46:55.000Z</Time>
            <Position>
              <LatitudeDegrees>42.7901923656463623046875</LatitudeDegrees>
              <LongitudeDegrees>-0.136269964277744293212890625</LongitudeDegrees>
            </Position>
            <AltitudeMeters>2304.199951171875</AltitudeMeters>
            <DistanceMeters>12394.661247042</DistanceMeters>
          </Trackpoint>
          <Trackpoint>
            <Time>2022-07-09T11:46:57.000Z</Time>
            <Position>
              <LatitudeDegrees>42.790181636810302734375</LatitudeDegrees>
              <LongitudeDegrees>-0.136276669800281524658203125</LongitudeDegrees>
            </Position>
            <AltitudeMeters>2304.800048828125</AltitudeMeters>
            <DistanceMeters>12395.977975821</DistanceMeters>
          </Trackpoint>
          <Trackpoint>
            <Time>2022-07-09T11:47:01.000Z</Time>
            <Position>
              <LatitudeDegrees>42.7901519648730754852294921875</LatitudeDegrees>
              <LongitudeDegrees>-0.13625730760395526885986328125</LongitudeDegrees>
            </Position>
            <AltitudeMeters>2305.800048828125</AltitudeMeters>
            <DistanceMeters>12399.641129325</DistanceMeters>
          </Trackpoint>
          <Trackpoint>
            <Time>2022-07-09T11:47:03.000Z</Time>
            <Position>
              <LatitudeDegrees>42.79013947583734989166259765625</LatitudeDegrees>
              <LongitudeDegrees>-0.1362560503184795379638671875</LongitudeDegrees>
            </Position>
            <AltitudeMeters>2306.199951171875</AltitudeMeters>
            <DistanceMeters>12401.037731098</DistanceMeters>
          </Trackpoint>
          <Trackpoint>
            <Time>2022-07-09T11:47:05.000Z</Time>
            <Position>
              <LatitudeDegrees>42.79012086801230907440185546875</LatitudeDegrees>
              <LongitudeDegrees>-0.13624926097691059112548828125</LongitudeDegrees>
            </Position>
            <AltitudeMeters>2306.800048828125</AltitudeMeters>
            <DistanceMeters>12403.181631495</DistanceMeters>
          </Trackpoint>
          <Trackpoint>
            <Time>2022-07-09T11:47:09.000Z</Time>
            <Position>
              <LatitudeDegrees>42.79009438119828701019287109375</LatitudeDegrees>
              <LongitudeDegrees>-0.13622067868709564208984375</LongitudeDegrees>
            </Position>
            <AltitudeMeters>2307.39990234375</AltitudeMeters>
            <DistanceMeters>12406.942096853</DistanceMeters>
          </Trackpoint>
          <Trackpoint>
            <Time>2022-07-09T11:47:10.000Z</Time>
            <Position>
              <LatitudeDegrees>42.79008398763835430145263671875</LatitudeDegrees>
              <LongitudeDegrees>-0.1362119615077972412109375</LongitudeDegrees>
            </Position>
            <AltitudeMeters>2307.39990234375</AltitudeMeters>
            <DistanceMeters>12408.299349812</DistanceMeters>
          </Trackpoint>
          <Trackpoint>
            <Time>2022-07-09T11:47:11.000Z</Time>
            <Position>
              <LatitudeDegrees>42.7900765277445316314697265625</LatitudeDegrees>
              <LongitudeDegrees>-0.13620181940495967864990234375</LongitudeDegrees>
            </Position>
            <AltitudeMeters>2307.39990234375</AltitudeMeters>
            <DistanceMeters>12409.474765354</DistanceMeters>
          </Trackpoint>
          <Trackpoint>
            <Time>2022-07-09T11:47:12.000Z</Time>
            <Position>
              <LatitudeDegrees>42.79006605036556720733642578125</LatitudeDegrees>
              <LongitudeDegrees>-0.136200226843357086181640625</LongitudeDegrees>
            </Position>
            <AltitudeMeters>2307.60009765625</AltitudeMeters>
            <DistanceMeters>12410.654015867</DistanceMeters>
          </Trackpoint>
          <Trackpoint>
            <Time>2022-07-09T11:47:13.000Z</Time>
            <Position>
              <LatitudeDegrees>42.79005666263401508331298828125</LatitudeDegrees>
              <LongitudeDegrees>-0.1361963711678981781005859375</LongitudeDegrees>
            </Position>
            <AltitudeMeters>2307.800048828125</AltitudeMeters>
            <DistanceMeters>12411.745789694</DistanceMeters>
          </Trackpoint>
          <Trackpoint>
            <Time>2022-07-09T11:47:15.000Z</Time>
            <Position>
              <LatitudeDegrees>42.79004509560763835906982421875</LatitudeDegrees>
              <LongitudeDegrees>-0.1361839659512042999267578125</LongitudeDegrees>
            </Position>
            <AltitudeMeters>2307.800048828125</AltitudeMeters>
            <DistanceMeters>12413.380691106</DistanceMeters>
          </Trackpoint>
          <Trackpoint>
            <Time>2022-07-09T11:47:16.000Z</Time>
            <Position>
              <LatitudeDegrees>42.7900419943034648895263671875</LatitudeDegrees>
              <LongitudeDegrees>-0.1361718960106372833251953125</LongitudeDegrees>
            </Position>
            <AltitudeMeters>2307.800048828125</AltitudeMeters>
            <DistanceMeters>12414.425984964</DistanceMeters>
          </Trackpoint>
          <Trackpoint>
            <Time>2022-07-09T11:47:17.000Z</Time>
            <Position>
              <LatitudeDegrees>42.79003671370446681976318359375</LatitudeDegrees>
              <LongitudeDegrees>-0.1361618377268314361572265625</LongitudeDegrees>
            </Position>
            <AltitudeMeters>2307.800048828125</AltitudeMeters>
            <DistanceMeters>12415.44059263</DistanceMeters>
          </Trackpoint>
          <Trackpoint>
            <Time>2022-07-09T11:47:21.000Z</Time>
            <Position>
              <LatitudeDegrees>42.7900259010493755340576171875</LatitudeDegrees>
              <LongitudeDegrees>-0.136138536036014556884765625</LongitudeDegrees>
            </Position>
            <AltitudeMeters>2308.800048828125</AltitudeMeters>
            <DistanceMeters>12417.691342035</DistanceMeters>
          </Trackpoint>
          <Trackpoint>
            <Time>2022-07-09T11:47:22.000Z</Time>
            <Position>
              <LatitudeDegrees>42.790029086172580718994140625</LatitudeDegrees>
              <LongitudeDegrees>-0.1361336745321750640869140625</LongitudeDegrees>
            </Position>
            <AltitudeMeters>2309.199951171875</AltitudeMeters>
            <DistanceMeters>12418.228894308</DistanceMeters>
          </Trackpoint>
          <Trackpoint>
            <Time>2022-07-09T11:47:23.000Z</Time>
            <Position>
              <LatitudeDegrees>42.79003386385738849639892578125</LatitudeDegrees>
              <LongitudeDegrees>-0.13613090850412845611572265625</LongitudeDegrees>
            </Position>
            <AltitudeMeters>2309.199951171875</AltitudeMeters>
            <DistanceMeters>12418.806919246</DistanceMeters>
          </Trackpoint>
          <Trackpoint>
            <Time>2022-07-09T11:47:27.000Z</Time>
            <Position>
              <LatitudeDegrees>42.7900668047368526458740234375</LatitudeDegrees>
              <LongitudeDegrees>-0.1361038349568843841552734375</LongitudeDegrees>
            </Position>
            <AltitudeMeters>2309.800048828125</AltitudeMeters>
            <DistanceMeters>12423.089451821</DistanceMeters>
          </Trackpoint>
          <Trackpoint>
            <Time>2022-07-09T11:47:28.000Z</Time>
            <Position>
              <LatitudeDegrees>42.79007770121097564697265625</LatitudeDegrees>
              <LongitudeDegrees>-0.1361034996807575225830078125</LongitudeDegrees>
            </Position>
            <AltitudeMeters>2310.199951171875</AltitudeMeters>
            <DistanceMeters>12424.298944435</DistanceMeters>
          </Trackpoint>
          <Trackpoint>
            <Time>2022-07-09T11:47:29.000Z</Time>
            <Position>
              <LatitudeDegrees>42.79008901678025722503662109375</LatitudeDegrees>
              <LongitudeDegrees>-0.13610207475721836090087890625</LongitudeDegrees>
            </Position>
            <AltitudeMeters>2310.199951171875</AltitudeMeters>
            <DistanceMeters>12425.559616261</DistanceMeters>
          </Trackpoint>
          <Trackpoint>
            <Time>2022-07-09T11:47:31.000Z</Time>
            <Position>
              <LatitudeDegrees>42.79010628350079059600830078125</LatitudeDegrees>
              <LongitudeDegrees>-0.1361105404794216156005859375</LongitudeDegrees>
            </Position>
            <AltitudeMeters>2310.60009765625</AltitudeMeters>
            <DistanceMeters>12427.602138065</DistanceMeters>
          </Trackpoint>
          <Trackpoint>
            <Time>2022-07-09T11:47:33.000Z</Time>
            <Position>
              <LatitudeDegrees>42.790110893547534942626953125</LatitudeDegrees>
              <LongitudeDegrees>-0.1361299864947795867919921875</LongitudeDegrees>
            </Position>
            <AltitudeMeters>2310.60009765625</AltitudeMeters>
            <DistanceMeters>12429.269850134</DistanceMeters>
          </Trackpoint>
          <Trackpoint>
            <Time>2022-07-09T11:47:35.000Z</Time>
            <Position>
              <LatitudeDegrees>42.79013344086706638336181640625</LatitudeDegrees>
              <LongitudeDegrees>-0.13614985160529613494873046875</LongitudeDegrees>
            </Position>
            <AltitudeMeters>2310.39990234375</AltitudeMeters>
            <DistanceMeters>12432.256774225</DistanceMeters>
          </Trackpoint>
          <Trackpoint>
            <Time>2022-07-09T11:47:38.000Z</Time>
            <Position>
              <LatitudeDegrees>42.7901626937091350555419921875</LatitudeDegrees>
              <LongitudeDegrees>-0.13614381663501262664794921875</LongitudeDegrees>
            </Position>
            <AltitudeMeters>2310.60009765625</AltitudeMeters>
            <DistanceMeters>12435.548596172</DistanceMeters>
          </Trackpoint>
          <Trackpoint>
            <Time>2022-07-09T11:47:40.000Z</Time>
            <Position>
              <LatitudeDegrees>42.79018364846706390380859375</LatitudeDegrees>
              <LongitudeDegrees>-0.13613409362733364105224609375</LongitudeDegrees>
            </Position>
            <AltitudeMeters>2311.199951171875</AltitudeMeters>
            <DistanceMeters>12438.010136603</DistanceMeters>
          </Trackpoint>
          <Trackpoint>
            <Time>2022-07-09T11:47:41.000Z</Time>
            <Position>
              <LatitudeDegrees>42.79019529931247234344482421875</LatitudeDegrees>
              <LongitudeDegrees>-0.13613459654152393341064453125</LongitudeDegrees>
            </Position>
            <AltitudeMeters>2311.39990234375</AltitudeMeters>
            <DistanceMeters>12439.302639656</DistanceMeters>
          </Trackpoint>
          <Trackpoint>
            <Time>2022-07-09T11:47:43.000Z</Time>
            <Position>
              <LatitudeDegrees>42.7902178466320037841796875</LatitudeDegrees>
              <LongitudeDegrees>-0.13613442890346050262451171875</LongitudeDegrees>
            </Position>
            <AltitudeMeters>2312</AltitudeMeters>
            <DistanceMeters>12441.809616562</DistanceMeters>
          </Trackpoint>
          <Trackpoint>
            <Time>2022-07-09T11:47:44.000Z</Time>
            <Position>
              <LatitudeDegrees>42.79022513888776302337646484375</LatitudeDegrees>
              <LongitudeDegrees>-0.13613157905638217926025390625</LongitudeDegrees>
            </Position>
            <AltitudeMeters>2312.39990234375</AltitudeMeters>
            <DistanceMeters>12442.654232474</DistanceMeters>
          </Trackpoint>
          <Trackpoint>
            <Time>2022-07-09T11:47:47.000Z</Time>
            <Position>
              <LatitudeDegrees>42.79024508781731128692626953125</LatitudeDegrees>
              <LongitudeDegrees>-0.13612805865705013275146484375</LongitudeDegrees>
            </Position>
            <AltitudeMeters>2312.60009765625</AltitudeMeters>
            <DistanceMeters>12444.892913431</DistanceMeters>
          </Trackpoint>
          <Trackpoint>
            <Time>2022-07-09T11:47:52.000Z</Time>
            <Position>
              <LatitudeDegrees>42.79027559794485569000244140625</LatitudeDegrees>
              <LongitudeDegrees>-0.13612269423902034759521484375</LongitudeDegrees>
            </Position>
            <AltitudeMeters>2313.199951171875</AltitudeMeters>
            <DistanceMeters>12448.316513762</DistanceMeters>
          </Trackpoint>
          <Trackpoint>
            <Time>2022-07-09T11:47:53.000Z</Time>
            <Position>
              <LatitudeDegrees>42.79027978889644145965576171875</LatitudeDegrees>
              <LongitudeDegrees>-0.1361209340393543243408203125</LongitudeDegrees>
            </Position>
            <AltitudeMeters>2313.39990234375</AltitudeMeters>
            <DistanceMeters>12448.801056832</DistanceMeters>
          </Trackpoint>
          <Trackpoint>
            <Time>2022-07-09T11:47:57.000Z</Time>
            <Position>
              <LatitudeDegrees>42.79030811972916126251220703125</LatitudeDegrees>
              <LongitudeDegrees>-0.136125124990940093994140625</LongitudeDegrees>
            </Position>
            <AltitudeMeters>2313.60009765625</AltitudeMeters>
            <DistanceMeters>12451.974152361</DistanceMeters>
          </Trackpoint>
          <Trackpoint>
            <Time>2022-07-09T11:47:58.000Z</Time>
            <Position>
              <LatitudeDegrees>42.79031985439360141754150390625</LatitudeDegrees>
              <LongitudeDegrees>-0.13612470589578151702880859375</LongitudeDegrees>
            </Position>
            <AltitudeMeters>2313.60009765625</AltitudeMeters>
            <DistanceMeters>12453.284005225</DistanceMeters>
          </Trackpoint>
          <Trackpoint>
            <Time>2022-07-09T11:48:04.000Z</Time>
            <Position>
              <LatitudeDegrees>42.79037299565970897674560546875</LatitudeDegrees>
              <LongitudeDegrees>-0.13608455657958984375</LongitudeDegrees>
            </Position>
            <AltitudeMeters>2314</AltitudeMeters>
            <DistanceMeters>12460.04627608</DistanceMeters>
          </Trackpoint>
          <Trackpoint>
            <Time>2022-07-09T11:48:06.000Z</Time>
            <Position>
              <LatitudeDegrees>42.79036981053650379180908203125</LatitudeDegrees>
              <LongitudeDegrees>-0.13605982996523380279541015625</LongitudeDegrees>
            </Position>
            <AltitudeMeters>2314.60009765625</AltitudeMeters>
            <DistanceMeters>12462.097620912</DistanceMeters>
          </Trackpoint>
          <Trackpoint>
            <Time>2022-07-09T11:48:08.000Z</Time>
            <Position>
              <LatitudeDegrees>42.79035271145403385162353515625</LatitudeDegrees>
              <LongitudeDegrees>-0.136033929884433746337890625</LongitudeDegrees>
            </Position>
            <AltitudeMeters>2315.800048828125</AltitudeMeters>
            <DistanceMeters>12464.942080174</DistanceMeters>
          </Trackpoint>
          <Trackpoint>
            <Time>2022-07-09T11:48:09.000Z</Time>
            <Position>
              <LatitudeDegrees>42.79034768231213092803955078125</LatitudeDegrees>
              <LongitudeDegrees>-0.1360260508954524993896484375</LongitudeDegrees>
            </Position>
            <AltitudeMeters>2316.199951171875</AltitudeMeters>
            <DistanceMeters>12465.797320604</DistanceMeters>
          </Trackpoint>
          <Trackpoint>
            <Time>2022-07-09T11:48:12.000Z</Time>
            <Position>
              <LatitudeDegrees>42.79035354964435100555419921875</LatitudeDegrees>
              <LongitudeDegrees>-0.1360300742089748382568359375</LongitudeDegrees>
            </Position>
            <AltitudeMeters>2316.800048828125</AltitudeMeters>
            <DistanceMeters>12466.533394368</DistanceMeters>
          </Trackpoint>
          <Trackpoint>
            <Time>2022-07-09T11:48:14.000Z</Time>
            <Position>
              <LatitudeDegrees>42.7903722412884235382080078125</LatitudeDegrees>
              <LongitudeDegrees>-0.13602554798126220703125</LongitudeDegrees>
            </Position>
            <AltitudeMeters>2317.39990234375</AltitudeMeters>
            <DistanceMeters>12468.645468648</DistanceMeters>
          </Trackpoint>
          <Trackpoint>
            <Time>2022-07-09T11:48:16.000Z</Time>
            <Position>
              <LatitudeDegrees>42.7903879992663860321044921875</LatitudeDegrees>
              <LongitudeDegrees>-0.13600853271782398223876953125</LongitudeDegrees>
            </Position>
            <AltitudeMeters>2317.800048828125</AltitudeMeters>
            <DistanceMeters>12470.884149605</DistanceMeters>
          </Trackpoint>
          <Trackpoint>
            <Time>2022-07-09T11:48:20.000Z</Time>
            <Position>
              <LatitudeDegrees>42.790410630404949188232421875</LatitudeDegrees>
              <LongitudeDegrees>-0.13597198761999607086181640625</LongitudeDegrees>
            </Position>
            <AltitudeMeters>2318.199951171875</AltitudeMeters>
            <DistanceMeters>12474.790660732</DistanceMeters>
          </Trackpoint>
          <Trackpoint>
            <Time>2022-07-09T11:48:23.000Z</Time>
            <Position>
              <LatitudeDegrees>42.79043535701930522918701171875</LatitudeDegrees>
              <LongitudeDegrees>-0.1359814591705799102783203125</LongitudeDegrees>
            </Position>
            <AltitudeMeters>2318.60009765625</AltitudeMeters>
            <DistanceMeters>12477.647790254</DistanceMeters>
          </Trackpoint>
          <Trackpoint>
            <Time>2022-07-09T11:48:25.000Z</Time>
            <Position>
              <LatitudeDegrees>42.7904486842453479766845703125</LatitudeDegrees>
              <LongitudeDegrees>-0.1359839737415313720703125</LongitudeDegrees>
            </Position>
            <AltitudeMeters>2319</AltitudeMeters>
            <DistanceMeters>12479.144272449</DistanceMeters>
          </Trackpoint>
          <Trackpoint>
            <Time>2022-07-09T11:48:28.000Z</Time>
            <Position>
              <LatitudeDegrees>42.79044575057923793792724609375</LatitudeDegrees>
              <LongitudeDegrees>-0.1359812915325164794921875</LongitudeDegrees>
            </Position>
            <AltitudeMeters>2319.800048828125</AltitudeMeters>
            <DistanceMeters>12479.547436653</DistanceMeters>
          </Trackpoint>
          <Trackpoint>
            <Time>2022-07-09T11:48:31.000Z</Time>
            <Position>
              <LatitudeDegrees>42.79041322879493236541748046875</LatitudeDegrees>
              <LongitudeDegrees>-0.1359462551772594451904296875</LongitudeDegrees>
            </Position>
            <AltitudeMeters>2320.60009765625</AltitudeMeters>
            <DistanceMeters>12484.161861889</DistanceMeters>
          </Trackpoint>
          <Trackpoint>
            <Time>2022-07-09T11:48:32.000Z</Time>
            <Position>
              <LatitudeDegrees>42.79039847664535045623779296875</LatitudeDegrees>
              <LongitudeDegrees>-0.13593862764537334442138671875</LongitudeDegrees>
            </Position>
            <AltitudeMeters>2320.60009765625</AltitudeMeters>
            <DistanceMeters>12485.916642806</DistanceMeters>
          </Trackpoint>
          <Trackpoint>
            <Time>2022-07-09T11:48:34.000Z</Time>
            <Position>
              <LatitudeDegrees>42.7903910167515277862548828125</LatitudeDegrees>
              <LongitudeDegrees>-0.1359358616173267364501953125</LongitudeDegrees>
            </Position>
            <AltitudeMeters>2320.800048828125</AltitudeMeters>
            <DistanceMeters>12486.777146303</DistanceMeters>
          </Trackpoint>
          <Trackpoint>
            <Time>2022-07-09T11:48:35.000Z</Time>
            <Position>
              <LatitudeDegrees>42.79039026238024234771728515625</LatitudeDegrees>
              <LongitudeDegrees>-0.1359358616173267364501953125</LongitudeDegrees>
            </Position>
            <AltitudeMeters>2321</AltitudeMeters>
            <DistanceMeters>12486.777146303</DistanceMeters>
          </Trackpoint>
          <Trackpoint>
            <Time>2022-07-09T11:48:37.000Z</Time>
            <Position>
              <LatitudeDegrees>42.79038883745670318603515625</LatitudeDegrees>
              <LongitudeDegrees>-0.1359335146844387054443359375</LongitudeDegrees>
            </Position>
            <AltitudeMeters>2321.60009765625</AltitudeMeters>
            <DistanceMeters>12487.009913265</DistanceMeters>
          </Trackpoint>
          <Trackpoint>
            <Time>2022-07-09T11:48:38.000Z</Time>
            <Position>
              <LatitudeDegrees>42.790389843285083770751953125</LatitudeDegrees>
              <LongitudeDegrees>-0.135926641523838043212890625</LongitudeDegrees>
            </Position>
            <AltitudeMeters>2321.800048828125</AltitudeMeters>
            <DistanceMeters>12487.587938203</DistanceMeters>
          </Trackpoint>
          <Trackpoint>
            <Time>2022-07-09T11:48:40.000Z</Time>
            <Position>
              <LatitudeDegrees>42.79039562679827213287353515625</LatitudeDegrees>
              <LongitudeDegrees>-0.13591230846941471099853515625</LongitudeDegrees>
            </Position>
            <AltitudeMeters>2322.199951171875</AltitudeMeters>
            <DistanceMeters>12488.925082599</DistanceMeters>
          </Trackpoint>
          <Trackpoint>
            <Time>2022-07-09T11:48:41.000Z</Time>
            <Position>
              <LatitudeDegrees>42.790401242673397064208984375</LatitudeDegrees>
              <LongitudeDegrees>-0.1359107159078121185302734375</LongitudeDegrees>
            </Position>
            <AltitudeMeters>2322.60009765625</AltitudeMeters>
            <DistanceMeters>12489.562541178</DistanceMeters>
          </Trackpoint>
          <Trackpoint>
            <Time>2022-07-09T11:48:43.000Z</Time>
            <Position>
              <LatitudeDegrees>42.79041222296655178070068359375</LatitudeDegrees>
              <LongitudeDegrees>-0.13590241782367229461669921875</LongitudeDegrees>
            </Position>
            <AltitudeMeters>2323</AltitudeMeters>
            <DistanceMeters>12490.965593802</DistanceMeters>
          </Trackpoint>
          <Trackpoint>
            <Time>2022-07-09T11:48:45.000Z</Time>
            <Position>
              <LatitudeDegrees>42.79042496345937252044677734375</LatitudeDegrees>
              <LongitudeDegrees>-0.1359117217361927032470703125</LongitudeDegrees>
            </Position>
            <AltitudeMeters>2323.39990234375</AltitudeMeters>
            <DistanceMeters>12492.578250621</DistanceMeters>
          </Trackpoint>
          <Trackpoint>
            <Time>2022-07-09T11:48:48.000Z</Time>
            <Position>
              <LatitudeDegrees>42.79044508002698421478271484375</LatitudeDegrees>
              <LongitudeDegrees>-0.13590862043201923370361328125</LongitudeDegrees>
            </Position>
            <AltitudeMeters>2323.39990234375</AltitudeMeters>
            <DistanceMeters>12494.831005148</DistanceMeters>
          </Trackpoint>
          <Trackpoint>
            <Time>2022-07-09T11:48:53.000Z</Time>
            <Position>
              <LatitudeDegrees>42.7905128896236419677734375</LatitudeDegrees>
              <LongitudeDegrees>-0.13591683469712734222412109375</LongitudeDegrees>
            </Position>
            <AltitudeMeters>2324.60009765625</AltitudeMeters>
            <DistanceMeters>12502.408156726</DistanceMeters>
          </Trackpoint>
          <Trackpoint>
            <Time>2022-07-09T11:48:59.000Z</Time>
            <Position>
              <LatitudeDegrees>42.79055890627205371856689453125</LatitudeDegrees>
              <LongitudeDegrees>-0.1359415613114833831787109375</LongitudeDegrees>
            </Position>
            <AltitudeMeters>2325.39990234375</AltitudeMeters>
            <DistanceMeters>12507.914788791</DistanceMeters>
          </Trackpoint>
          <Trackpoint>
            <Time>2022-07-09T11:49:00.000Z</Time>
            <Position>
              <LatitudeDegrees>42.79056393541395664215087890625</LatitudeDegrees>
              <LongitudeDegrees>-0.13594952411949634552001953125</LongitudeDegrees>
            </Position>
            <AltitudeMeters>2325.39990234375</AltitudeMeters>
            <DistanceMeters>12508.775292288</DistanceMeters>
          </Trackpoint>
          <Trackpoint>
            <Time>2022-07-09T11:49:01.000Z</Time>
            <Position>
              <LatitudeDegrees>42.79056812636554241180419921875</LatitudeDegrees>
              <LongitudeDegrees>-0.13595622964203357696533203125</LongitudeDegrees>
            </Position>
            <AltitudeMeters>2325.60009765625</AltitudeMeters>
            <DistanceMeters>12509.492728248</DistanceMeters>
          </Trackpoint>
          <Trackpoint>
            <Time>2022-07-09T11:49:05.000Z</Time>
            <Position>
              <LatitudeDegrees>42.79058338142931461334228515625</LatitudeDegrees>
              <LongitudeDegrees>-0.13597064651548862457275390625</LongitudeDegrees>
            </Position>
            <AltitudeMeters>2327</AltitudeMeters>
            <DistanceMeters>12511.557236926</DistanceMeters>
          </Trackpoint>
          <Trackpoint>
            <Time>2022-07-09T11:49:07.000Z</Time>
            <Position>
              <LatitudeDegrees>42.7905911765992641448974609375</LatitudeDegrees>
              <LongitudeDegrees>-0.13596720993518829345703125</LongitudeDegrees>
            </Position>
            <AltitudeMeters>2327.39990234375</AltitudeMeters>
            <DistanceMeters>12512.468701151</DistanceMeters>
          </Trackpoint>
          <Trackpoint>
            <Time>2022-07-09T11:49:09.000Z</Time>
            <Position>
              <LatitudeDegrees>42.79060333035886287689208984375</LatitudeDegrees>
              <LongitudeDegrees>-0.13595606200397014617919921875</LongitudeDegrees>
            </Position>
            <AltitudeMeters>2327.800048828125</AltitudeMeters>
            <DistanceMeters>12514.100838569</DistanceMeters>
          </Trackpoint>
          <Trackpoint>
            <Time>2022-07-09T11:49:11.000Z</Time>
            <Position>
              <LatitudeDegrees>42.79062009416520595550537109375</LatitudeDegrees>
              <LongitudeDegrees>-0.1359328441321849822998046875</LongitudeDegrees>
            </Position>
            <AltitudeMeters>2328</AltitudeMeters>
            <DistanceMeters>12516.761586571</DistanceMeters>
          </Trackpoint>
          <Trackpoint>
            <Time>2022-07-09T11:49:14.000Z</Time>
            <Position>
              <LatitudeDegrees>42.79064364731311798095703125</LatitudeDegrees>
              <LongitudeDegrees>-0.13590241782367229461669921875</LongitudeDegrees>
            </Position>
            <AltitudeMeters>2328.60009765625</AltitudeMeters>
            <DistanceMeters>12520.372601717</DistanceMeters>
          </Trackpoint>
          <Trackpoint>
            <Time>2022-07-09T11:49:17.000Z</Time>
            <Position>
              <LatitudeDegrees>42.79067046940326690673828125</LatitudeDegrees>
              <LongitudeDegrees>-0.13589747250080108642578125</LongitudeDegrees>
            </Position>
            <AltitudeMeters>2329</AltitudeMeters>
            <DistanceMeters>12523.386611821</DistanceMeters>
          </Trackpoint>
          <Trackpoint>
            <Time>2022-07-09T11:49:21.000Z</Time>
            <Position>
              <LatitudeDegrees>42.7906877361238002777099609375</LatitudeDegrees>
              <LongitudeDegrees>-0.135868974030017852783203125</LongitudeDegrees>
            </Position>
            <AltitudeMeters>2329.199951171875</AltitudeMeters>
            <DistanceMeters>12526.40361647</DistanceMeters>
          </Trackpoint>
          <Trackpoint>
            <Time>2022-07-09T11:49:26.000Z</Time>
            <Position>
              <LatitudeDegrees>42.79068279080092906951904296875</LatitudeDegrees>
              <LongitudeDegrees>-0.13586587272584438323974609375</LongitudeDegrees>
            </Position>
            <AltitudeMeters>2329.39990234375</AltitudeMeters>
            <DistanceMeters>12527.012084328</DistanceMeters>
          </Trackpoint>
          <Trackpoint>
            <Time>2022-07-09T11:49:30.000Z</Time>
            <Position>
              <LatitudeDegrees>42.790668122470378875732421875</LatitudeDegrees>
              <LongitudeDegrees>-0.13588548637926578521728515625</LongitudeDegrees>
            </Position>
            <AltitudeMeters>2330.199951171875</AltitudeMeters>
            <DistanceMeters>12529.300630665</DistanceMeters>
          </Trackpoint>
          <Trackpoint>
            <Time>2022-07-09T11:49:33.000Z</Time>
            <Position>
              <LatitudeDegrees>42.79065093956887722015380859375</LatitudeDegrees>
              <LongitudeDegrees>-0.1358698122203350067138671875</LongitudeDegrees>
            </Position>
            <AltitudeMeters>2331.199951171875</AltitudeMeters>
            <DistanceMeters>12531.600983855</DistanceMeters>
          </Trackpoint>
          <Trackpoint>
            <Time>2022-07-09T11:49:35.000Z</Time>
            <Position>
              <LatitudeDegrees>42.79063685797154903411865234375</LatitudeDegrees>
              <LongitudeDegrees>-0.13584927655756473541259765625</LongitudeDegrees>
            </Position>
            <AltitudeMeters>2331.800048828125</AltitudeMeters>
            <DistanceMeters>12533.897408172</DistanceMeters>
          </Trackpoint>
          <Trackpoint>
            <Time>2022-07-09T11:49:41.000Z</Time>
            <Position>
              <LatitudeDegrees>42.79059746302664279937744140625</LatitudeDegrees>
              <LongitudeDegrees>-0.135777108371257781982421875</LongitudeDegrees>
            </Position>
            <AltitudeMeters>2332.199951171875</AltitudeMeters>
            <DistanceMeters>12541.243409589</DistanceMeters>
          </Trackpoint>
          <Trackpoint>
            <Time>2022-07-09T11:49:42.000Z</Time>
            <Position>
              <LatitudeDegrees>42.79059008695185184478759765625</LatitudeDegrees>
              <LongitudeDegrees>-0.13576378114521503448486328125</LongitudeDegrees>
            </Position>
            <AltitudeMeters>2332.199951171875</AltitudeMeters>
            <DistanceMeters>12542.607299522</DistanceMeters>
          </Trackpoint>
          <Trackpoint>
            <Time>2022-07-09T11:49:48.000Z</Time>
            <Position>
              <LatitudeDegrees>42.7905496023595333099365234375</LatitudeDegrees>
              <LongitudeDegrees>-0.135708041489124298095703125</LongitudeDegrees>
            </Position>
            <AltitudeMeters>2333</AltitudeMeters>
            <DistanceMeters>12549.012974144</DistanceMeters>
          </Trackpoint>
          <Trackpoint>
            <Time>2022-07-09T11:49:49.000Z</Time>
            <Position>
              <LatitudeDegrees>42.7905428968369960784912109375</LatitudeDegrees>
              <LongitudeDegrees>-0.13569974340498447418212890625</LongitudeDegrees>
            </Position>
            <AltitudeMeters>2333</AltitudeMeters>
            <DistanceMeters>12550.027581809</DistanceMeters>
          </Trackpoint>
          <Trackpoint>
            <Time>2022-07-09T11:49:53.000Z</Time>
            <Position>
              <LatitudeDegrees>42.790511883795261383056640625</LatitudeDegrees>
              <LongitudeDegrees>-0.13568247668445110321044921875</LongitudeDegrees>
            </Position>
            <AltitudeMeters>2333.39990234375</AltitudeMeters>
            <DistanceMeters>12553.755488413</DistanceMeters>
          </Trackpoint>
          <Trackpoint>
            <Time>2022-07-09T11:49:56.000Z</Time>
            <Position>
              <LatitudeDegrees>42.790491096675395965576171875</LatitudeDegrees>
              <LongitudeDegrees>-0.13565917499363422393798828125</LongitudeDegrees>
            </Position>
            <AltitudeMeters>2334.39990234375</AltitudeMeters>
            <DistanceMeters>12556.749960972</DistanceMeters>
          </Trackpoint>
          <Trackpoint>
            <Time>2022-07-09T11:49:57.000Z</Time>
            <Position>
              <LatitudeDegrees>42.7904862351715564727783203125</LatitudeDegrees>
              <LongitudeDegrees>-0.1356508769094944000244140625</LongitudeDegrees>
            </Position>
            <AltitudeMeters>2334.60009765625</AltitudeMeters>
            <DistanceMeters>12557.615695542</DistanceMeters>
          </Trackpoint>
          <Trackpoint>
            <Time>2022-07-09T11:50:03.000Z</Time>
            <Position>
              <LatitudeDegrees>42.79046259820461273193359375</LatitudeDegrees>
              <LongitudeDegrees>-0.13562330044806003570556640625</LongitudeDegrees>
            </Position>
            <AltitudeMeters>2335.60009765625</AltitudeMeters>
            <DistanceMeters>12561.07863382</DistanceMeters>
          </Trackpoint>
          <Trackpoint>
            <Time>2022-07-09T11:50:07.000Z</Time>
            <Position>
              <LatitudeDegrees>42.7904574014246463775634765625</LatitudeDegrees>
              <LongitudeDegrees>-0.13559513725340366363525390625</LongitudeDegrees>
            </Position>
            <AltitudeMeters>2336.800048828125</AltitudeMeters>
            <DistanceMeters>12563.452400384</DistanceMeters>
          </Trackpoint>
          <Trackpoint>
            <Time>2022-07-09T11:50:09.000Z</Time>
            <Position>
              <LatitudeDegrees>42.7904624305665493011474609375</LatitudeDegrees>
              <LongitudeDegrees>-0.13557032682001590728759765625</LongitudeDegrees>
            </Position>
            <AltitudeMeters>2337.39990234375</AltitudeMeters>
            <DistanceMeters>12565.555906376</DistanceMeters>
          </Trackpoint>
          <Trackpoint>
            <Time>2022-07-09T11:50:10.000Z</Time>
            <Position>
              <LatitudeDegrees>42.79046905227005481719970703125</LatitudeDegrees>
              <LongitudeDegrees>-0.13556580059230327606201171875</LongitudeDegrees>
            </Position>
            <AltitudeMeters>2337.39990234375</AltitudeMeters>
            <DistanceMeters>12566.378861863</DistanceMeters>
          </Trackpoint>
          <Trackpoint>
            <Time>2022-07-09T11:50:16.000Z</Time>
            <Position>
              <LatitudeDegrees>42.790503837168216705322265625</LatitudeDegrees>
              <LongitudeDegrees>-0.13556999154388904571533203125</LongitudeDegrees>
            </Position>
            <AltitudeMeters>2337.800048828125</AltitudeMeters>
            <DistanceMeters>12570.266836653</DistanceMeters>
          </Trackpoint>
          <Trackpoint>
            <Time>2022-07-09T11:50:22.000Z</Time>
            <Position>
              <LatitudeDegrees>42.79055647552013397216796875</LatitudeDegrees>
              <LongitudeDegrees>-0.1355425827205181121826171875</LongitudeDegrees>
            </Position>
            <AltitudeMeters>2338.60009765625</AltitudeMeters>
            <DistanceMeters>12576.538599801</DistanceMeters>
          </Trackpoint>
          <Trackpoint>
            <Time>2022-07-09T11:50:23.000Z</Time>
            <Position>
              <LatitudeDegrees>42.7905660308897495269775390625</LatitudeDegrees>
              <LongitudeDegrees>-0.1355409063398838043212890625</LongitudeDegrees>
            </Position>
            <AltitudeMeters>2339</AltitudeMeters>
            <DistanceMeters>12577.605272024</DistanceMeters>
          </Trackpoint>
          <Trackpoint>
            <Time>2022-07-09T11:50:24.000Z</Time>
            <Position>
              <LatitudeDegrees>42.79057684354484081268310546875</LatitudeDegrees>
              <LongitudeDegrees>-0.135540068149566650390625</LongitudeDegrees>
            </Position>
            <AltitudeMeters>2339.39990234375</AltitudeMeters>
            <DistanceMeters>12578.814764638</DistanceMeters>
          </Trackpoint>
          <Trackpoint>
            <Time>2022-07-09T11:50:28.000Z</Time>
            <Position>
              <LatitudeDegrees>42.79061003588140010833740234375</LatitudeDegrees>
              <LongitudeDegrees>-0.13552732765674591064453125</LongitudeDegrees>
            </Position>
            <AltitudeMeters>2340.199951171875</AltitudeMeters>
            <DistanceMeters>12582.652479412</DistanceMeters>
          </Trackpoint>
          <Trackpoint>
            <Time>2022-07-09T11:50:33.000Z</Time>
            <Position>
              <LatitudeDegrees>42.79063157737255096435546875</LatitudeDegrees>
              <LongitudeDegrees>-0.13550293631851673126220703125</LongitudeDegrees>
            </Position>
            <AltitudeMeters>2340.800048828125</AltitudeMeters>
            <DistanceMeters>12585.769587407</DistanceMeters>
          </Trackpoint>
          <Trackpoint>
            <Time>2022-07-09T11:50:35.000Z</Time>
            <Position>
              <LatitudeDegrees>42.79064239002764225006103515625</LatitudeDegrees>
              <LongitudeDegrees>-0.13550360687077045440673828125</LongitudeDegrees>
            </Position>
            <AltitudeMeters>2341.39990234375</AltitudeMeters>
            <DistanceMeters>12586.971590831</DistanceMeters>
          </Trackpoint>
          <Trackpoint>
            <Time>2022-07-09T11:50:40.000Z</Time>
            <Position>
              <LatitudeDegrees>42.79065747745335102081298828125</LatitudeDegrees>
              <LongitudeDegrees>-0.1354829035699367523193359375</LongitudeDegrees>
            </Position>
            <AltitudeMeters>2342.199951171875</AltitudeMeters>
            <DistanceMeters>12589.354848702</DistanceMeters>
          </Trackpoint>
          <Trackpoint>
            <Time>2022-07-09T11:50:42.000Z</Time>
            <Position>
              <LatitudeDegrees>42.79065680690109729766845703125</LatitudeDegrees>
              <LongitudeDegrees>-0.13546756468713283538818359375</LongitudeDegrees>
            </Position>
            <AltitudeMeters>2342.39990234375</AltitudeMeters>
            <DistanceMeters>12590.611933973</DistanceMeters>
          </Trackpoint>
          <Trackpoint>
            <Time>2022-07-09T11:50:46.000Z</Time>
            <Position>
              <LatitudeDegrees>42.7906320802867412567138671875</LatitudeDegrees>
              <LongitudeDegrees>-0.13544828630983829498291015625</LongitudeDegrees>
            </Position>
            <AltitudeMeters>2343</AltitudeMeters>
            <DistanceMeters>12593.78360627</DistanceMeters>
          </Trackpoint>
          <Trackpoint>
            <Time>2022-07-09T11:50:49.000Z</Time>
            <Position>
              <LatitudeDegrees>42.7905826270580291748046875</LatitudeDegrees>
              <LongitudeDegrees>-0.135423056781291961669921875</LongitudeDegrees>
            </Position>
            <AltitudeMeters>2343.60009765625</AltitudeMeters>
            <DistanceMeters>12599.660683979</DistanceMeters>
          </Trackpoint>
          <Trackpoint>
            <Time>2022-07-09T11:50:53.000Z</Time>
            <Position>
              <LatitudeDegrees>42.79051515273749828338623046875</LatitudeDegrees>
              <LongitudeDegrees>-0.135370753705501556396484375</LongitudeDegrees>
            </Position>
            <AltitudeMeters>2344.800048828125</AltitudeMeters>
            <DistanceMeters>12608.301324698</DistanceMeters>
          </Trackpoint>
          <Trackpoint>
            <Time>2022-07-09T11:50:54.000Z</Time>
            <Position>
              <LatitudeDegrees>42.7905076928436756134033203125</LatitudeDegrees>
              <LongitudeDegrees>-0.1353652216494083404541015625</LongitudeDegrees>
            </Position>
            <AltitudeMeters>2345</AltitudeMeters>
            <DistanceMeters>12609.251591842</DistanceMeters>
          </Trackpoint>
          <Trackpoint>
            <Time>2022-07-09T11:50:58.000Z</Time>
            <Position>
              <LatitudeDegrees>42.7904996462166309356689453125</LatitudeDegrees>
              <LongitudeDegrees>-0.13536865822970867156982421875</LongitudeDegrees>
            </Position>
            <AltitudeMeters>2345.60009765625</AltitudeMeters>
            <DistanceMeters>12610.19230832</DistanceMeters>
          </Trackpoint>
          <Trackpoint>
            <Time>2022-07-09T11:50:59.000Z</Time>
            <Position>
              <LatitudeDegrees>42.79049805365502834320068359375</LatitudeDegrees>
              <LongitudeDegrees>-0.13537251390516757965087890625</LongitudeDegrees>
            </Position>
            <AltitudeMeters>2345.800048828125</AltitudeMeters>
            <DistanceMeters>12610.547865727</DistanceMeters>
          </Trackpoint>
          <Trackpoint>
            <Time>2022-07-09T11:51:05.000Z</Time>
            <Position>
              <LatitudeDegrees>42.79042764566838741302490234375</LatitudeDegrees>
              <LongitudeDegrees>-0.13535826466977596282958984375</LongitudeDegrees>
            </Position>
            <AltitudeMeters>2346.39990234375</AltitudeMeters>
            <DistanceMeters>12618.469925515</DistanceMeters>
          </Trackpoint>
          <Trackpoint>
            <Time>2022-07-09T11:51:10.000Z</Time>
            <Position>
              <LatitudeDegrees>42.79038925655186176300048828125</LatitudeDegrees>
              <LongitudeDegrees>-0.13534217141568660736083984375</LongitudeDegrees>
            </Position>
            <AltitudeMeters>2347</AltitudeMeters>
            <DistanceMeters>12622.940222952</DistanceMeters>
          </Trackpoint>
          <Trackpoint>
            <Time>2022-07-09T11:51:12.000Z</Time>
            <Position>
              <LatitudeDegrees>42.79038305394351482391357421875</LatitudeDegrees>
              <LongitudeDegrees>-0.13534468598663806915283203125</LongitudeDegrees>
            </Position>
            <AltitudeMeters>2347.199951171875</AltitudeMeters>
            <DistanceMeters>12623.663924848</DistanceMeters>
          </Trackpoint>
          <Trackpoint>
            <Time>2022-07-09T11:51:18.000Z</Time>
            <Position>
              <LatitudeDegrees>42.79032119549810886383056640625</LatitudeDegrees>
              <LongitudeDegrees>-0.13529489748179912567138671875</LongitudeDegrees>
            </Position>
            <AltitudeMeters>2348</AltitudeMeters>
            <DistanceMeters>12631.660861847</DistanceMeters>
          </Trackpoint>
          <Trackpoint>
            <Time>2022-07-09T11:51:19.000Z</Time>
            <Position>
              <LatitudeDegrees>42.7903145737946033477783203125</LatitudeDegrees>
              <LongitudeDegrees>-0.135289616882801055908203125</LongitudeDegrees>
            </Position>
            <AltitudeMeters>2348.199951171875</AltitudeMeters>
            <DistanceMeters>12632.510806619</DistanceMeters>
          </Trackpoint>
          <Trackpoint>
            <Time>2022-07-09T11:51:20.000Z</Time>
            <Position>
              <LatitudeDegrees>42.790309377014636993408203125</LatitudeDegrees>
              <LongitudeDegrees>-0.135288275778293609619140625</LongitudeDegrees>
            </Position>
            <AltitudeMeters>2348.39990234375</AltitudeMeters>
            <DistanceMeters>12633.096590628</DistanceMeters>
          </Trackpoint>
          <Trackpoint>
            <Time>2022-07-09T11:51:26.000Z</Time>
            <Position>
              <LatitudeDegrees>42.79027618467807769775390625</LatitudeDegrees>
              <LongitudeDegrees>-0.1352934725582599639892578125</LongitudeDegrees>
            </Position>
            <AltitudeMeters>2349</AltitudeMeters>
            <DistanceMeters>12636.814795442</DistanceMeters>
          </Trackpoint>
          <Trackpoint>
            <Time>2022-07-09T11:51:27.000Z</Time>
            <Position>
              <LatitudeDegrees>42.7902662940323352813720703125</LatitudeDegrees>
              <LongitudeDegrees>-0.13528768904507160186767578125</LongitudeDegrees>
            </Position>
            <AltitudeMeters>2349.39990234375</AltitudeMeters>
            <DistanceMeters>12638.016798865</DistanceMeters>
          </Trackpoint>
          <Trackpoint>
            <Time>2022-07-09T11:51:28.000Z</Time>
            <Position>
              <LatitudeDegrees>42.7902559004724025726318359375</LatitudeDegrees>
              <LongitudeDegrees>-0.135280229151248931884765625</LongitudeDegrees>
            </Position>
            <AltitudeMeters>2349.60009765625</AltitudeMeters>
            <DistanceMeters>12639.3232002</DistanceMeters>
          </Trackpoint>
          <Trackpoint>
            <Time>2022-07-09T11:51:30.000Z</Time>
            <Position>
              <LatitudeDegrees>42.79024173505604267120361328125</LatitudeDegrees>
              <LongitudeDegrees>-0.1352777145802974700927734375</LongitudeDegrees>
            </Position>
            <AltitudeMeters>2350.60009765625</AltitudeMeters>
            <DistanceMeters>12640.913301268</DistanceMeters>
          </Trackpoint>
          <Trackpoint>
            <Time>2022-07-09T11:51:36.000Z</Time>
            <Position>
              <LatitudeDegrees>42.79019211418926715850830078125</LatitudeDegrees>
              <LongitudeDegrees>-0.13524829410016536712646484375</LongitudeDegrees>
            </Position>
            <AltitudeMeters>2351.199951171875</AltitudeMeters>
            <DistanceMeters>12646.936825747</DistanceMeters>
          </Trackpoint>
          <Trackpoint>
            <Time>2022-07-09T11:51:41.000Z</Time>
            <Position>
              <LatitudeDegrees>42.79015121050179004669189453125</LatitudeDegrees>
              <LongitudeDegrees>-0.13525114394724369049072265625</LongitudeDegrees>
            </Position>
            <AltitudeMeters>2351.60009765625</AltitudeMeters>
            <DistanceMeters>12651.495137485</DistanceMeters>
          </Trackpoint>
          <Trackpoint>
            <Time>2022-07-09T11:51:43.000Z</Time>
            <Position>
              <LatitudeDegrees>42.7901345305144786834716796875</LatitudeDegrees>
              <LongitudeDegrees>-0.1352438516914844512939453125</LongitudeDegrees>
            </Position>
            <AltitudeMeters>2352</AltitudeMeters>
            <DistanceMeters>12653.442605612</DistanceMeters>
          </Trackpoint>
          <Trackpoint>
            <Time>2022-07-09T11:51:49.000Z</Time>
            <Position>
              <LatitudeDegrees>42.79008382000029087066650390625</LatitudeDegrees>
              <LongitudeDegrees>-0.13521057553589344024658203125</LongitudeDegrees>
            </Position>
            <AltitudeMeters>2352.60009765625</AltitudeMeters>
            <DistanceMeters>12659.70716563</DistanceMeters>
          </Trackpoint>
          <Trackpoint>
            <Time>2022-07-09T11:51:51.000Z</Time>
            <Position>
              <LatitudeDegrees>42.79006890021264553070068359375</LatitudeDegrees>
              <LongitudeDegrees>-0.13519230298697948455810546875</LongitudeDegrees>
            </Position>
            <AltitudeMeters>2353</AltitudeMeters>
            <DistanceMeters>12661.9397879</DistanceMeters>
          </Trackpoint>
          <Trackpoint>
            <Time>2022-07-09T11:51:57.000Z</Time>
            <Position>
              <LatitudeDegrees>42.79001877643167972564697265625</LatitudeDegrees>
              <LongitudeDegrees>-0.1351900398731231689453125</LongitudeDegrees>
            </Position>
            <AltitudeMeters>2353.800048828125</AltitudeMeters>
            <DistanceMeters>12667.521343573</DistanceMeters>
          </Trackpoint>
          <Trackpoint>
            <Time>2022-07-09T11:51:59.000Z</Time>
            <Position>
              <LatitudeDegrees>42.790009975433349609375</LatitudeDegrees>
              <LongitudeDegrees>-0.1351892016828060150146484375</LongitudeDegrees>
            </Position>
            <AltitudeMeters>2354</AltitudeMeters>
            <DistanceMeters>12668.504307549</DistanceMeters>
          </Trackpoint>
          <Trackpoint>
            <Time>2022-07-09T11:52:03.000Z</Time>
            <Position>
              <LatitudeDegrees>42.78998960740864276885986328125</LatitudeDegrees>
              <LongitudeDegrees>-0.13517595827579498291015625</LongitudeDegrees>
            </Position>
            <AltitudeMeters>2355</AltitudeMeters>
            <DistanceMeters>12671.018478091</DistanceMeters>
          </Trackpoint>
          <Trackpoint>
            <Time>2022-07-09T11:52:05.000Z</Time>
            <Position>
              <LatitudeDegrees>42.78998105786740779876708984375</LatitudeDegrees>
              <LongitudeDegrees>-0.1351865194737911224365234375</LongitudeDegrees>
            </Position>
            <AltitudeMeters>2355.60009765625</AltitudeMeters>
            <DistanceMeters>12672.300458556</DistanceMeters>
          </Trackpoint>
          <Trackpoint>
            <Time>2022-07-09T11:52:08.000Z</Time>
            <Position>
              <LatitudeDegrees>42.78994987718760967254638671875</LatitudeDegrees>
              <LongitudeDegrees>-0.1351902075111865997314453125</LongitudeDegrees>
            </Position>
            <AltitudeMeters>2356.199951171875</AltitudeMeters>
            <DistanceMeters>12675.785491241</DistanceMeters>
          </Trackpoint>
          <Trackpoint>
            <Time>2022-07-09T11:52:13.000Z</Time>
            <Position>
              <LatitudeDegrees>42.78988935984671115875244140625</LatitudeDegrees>
              <LongitudeDegrees>-0.13520755805075168609619140625</LongitudeDegrees>
            </Position>
            <AltitudeMeters>2357</AltitudeMeters>
            <DistanceMeters>12682.668207349</DistanceMeters>
          </Trackpoint>
          <Trackpoint>
            <Time>2022-07-09T11:52:15.000Z</Time>
            <Position>
              <LatitudeDegrees>42.789866141974925994873046875</LatitudeDegrees>
              <LongitudeDegrees>-0.1352140121161937713623046875</LongitudeDegrees>
            </Position>
            <AltitudeMeters>2357.39990234375</AltitudeMeters>
            <DistanceMeters>12685.305091659</DistanceMeters>
          </Trackpoint>
          <Trackpoint>
            <Time>2022-07-09T11:52:17.000Z</Time>
            <Position>
              <LatitudeDegrees>42.78985164128243923187255859375</LatitudeDegrees>
              <LongitudeDegrees>-0.13521216809749603271484375</LongitudeDegrees>
            </Position>
            <AltitudeMeters>2357.800048828125</AltitudeMeters>
            <DistanceMeters>12686.923338293</DistanceMeters>
          </Trackpoint>
          <Trackpoint>
            <Time>2022-07-09T11:52:19.000Z</Time>
            <Position>
              <LatitudeDegrees>42.78983655385673046112060546875</LatitudeDegrees>
              <LongitudeDegrees>-0.13518878258764743804931640625</LongitudeDegrees>
            </Position>
            <AltitudeMeters>2358</AltitudeMeters>
            <DistanceMeters>12689.466079871</DistanceMeters>
          </Trackpoint>
          <Trackpoint>
            <Time>2022-07-09T11:52:20.000Z</Time>
            <Position>
              <LatitudeDegrees>42.78983035124838352203369140625</LatitudeDegrees>
              <LongitudeDegrees>-0.13517000712454319000244140625</LongitudeDegrees>
            </Position>
            <AltitudeMeters>2358</AltitudeMeters>
            <DistanceMeters>12691.147274068</DistanceMeters>
          </Trackpoint>
          <Trackpoint>
            <Time>2022-07-09T11:52:24.000Z</Time>
            <Position>
              <LatitudeDegrees>42.78981543146073818206787109375</LatitudeDegrees>
              <LongitudeDegrees>-0.13513698242604732513427734375</LongitudeDegrees>
            </Position>
            <AltitudeMeters>2358.800048828125</AltitudeMeters>
            <DistanceMeters>12694.314672831</DistanceMeters>
          </Trackpoint>
          <Trackpoint>
            <Time>2022-07-09T11:52:28.000Z</Time>
            <Position>
              <LatitudeDegrees>42.78979363851249217987060546875</LatitudeDegrees>
              <LongitudeDegrees>-0.13509389944374561309814453125</LongitudeDegrees>
            </Position>
            <AltitudeMeters>2359.800048828125</AltitudeMeters>
            <DistanceMeters>12698.588762752</DistanceMeters>
          </Trackpoint>
          <Trackpoint>
            <Time>2022-07-09T11:52:29.000Z</Time>
            <Position>
              <LatitudeDegrees>42.78978961519896984100341796875</LatitudeDegrees>
              <LongitudeDegrees>-0.13509104959666728973388671875</LongitudeDegrees>
            </Position>
            <AltitudeMeters>2360</AltitudeMeters>
            <DistanceMeters>12699.09159686</DistanceMeters>
          </Trackpoint>
          <Trackpoint>
            <Time>2022-07-09T11:52:34.000Z</Time>
            <Position>
              <LatitudeDegrees>42.78974334709346294403076171875</LatitudeDegrees>
              <LongitudeDegrees>-0.1350564323365688323974609375</LongitudeDegrees>
            </Position>
            <AltitudeMeters>2360.39990234375</AltitudeMeters>
            <DistanceMeters>12704.966369381</DistanceMeters>
          </Trackpoint>
          <Trackpoint>
            <Time>2022-07-09T11:52:37.000Z</Time>
            <Position>
              <LatitudeDegrees>42.7897228114306926727294921875</LatitudeDegrees>
              <LongitudeDegrees>-0.135046876966953277587890625</LongitudeDegrees>
            </Position>
            <AltitudeMeters>2361</AltitudeMeters>
            <DistanceMeters>12707.37974861</DistanceMeters>
          </Trackpoint>
          <Trackpoint>
            <Time>2022-07-09T11:52:40.000Z</Time>
            <Position>
              <LatitudeDegrees>42.78971132822334766387939453125</LatitudeDegrees>
              <LongitudeDegrees>-0.1350430212914943695068359375</LongitudeDegrees>
            </Position>
            <AltitudeMeters>2361.199951171875</AltitudeMeters>
            <DistanceMeters>12708.696477389</DistanceMeters>
          </Trackpoint>
          <Trackpoint>
            <Time>2022-07-09T11:52:41.000Z</Time>
            <Position>
              <LatitudeDegrees>42.78971836902201175689697265625</LatitudeDegrees>
              <LongitudeDegrees>-0.135040841996669769287109375</LongitudeDegrees>
            </Position>
            <AltitudeMeters>2361.39990234375</AltitudeMeters>
            <DistanceMeters>12709.502805799</DistanceMeters>
          </Trackpoint>
          <Trackpoint>
            <Time>2022-07-09T11:52:45.000Z</Time>
            <Position>
              <LatitudeDegrees>42.789742760360240936279296875</LatitudeDegrees>
              <LongitudeDegrees>-0.13502215035259723663330078125</LongitudeDegrees>
            </Position>
            <AltitudeMeters>2362</AltitudeMeters>
            <DistanceMeters>12712.617015506</DistanceMeters>
          </Trackpoint>
          <Trackpoint>
            <Time>2022-07-09T11:52:46.000Z</Time>
            <Position>
              <LatitudeDegrees>42.7897566743195056915283203125</LatitudeDegrees>
              <LongitudeDegrees>-0.135009996592998504638671875</LongitudeDegrees>
            </Position>
            <AltitudeMeters>2362.199951171875</AltitudeMeters>
            <DistanceMeters>12714.4547447</DistanceMeters>
          </Trackpoint>
          <Trackpoint>
            <Time>2022-07-09T11:52:50.000Z</Time>
            <Position>
              <LatitudeDegrees>42.78979875147342681884765625</LatitudeDegrees>
              <LongitudeDegrees>-0.13498141430318355560302734375</LongitudeDegrees>
            </Position>
            <AltitudeMeters>2362.800048828125</AltitudeMeters>
            <DistanceMeters>12719.688120461</DistanceMeters>
          </Trackpoint>
          <Trackpoint>
            <Time>2022-07-09T11:52:52.000Z</Time>
            <Position>
              <LatitudeDegrees>42.78981979005038738250732421875</LatitudeDegrees>
              <LongitudeDegrees>-0.134982168674468994140625</LongitudeDegrees>
            </Position>
            <AltitudeMeters>2363.199951171875</AltitudeMeters>
            <DistanceMeters>12722.029328781</DistanceMeters>
          </Trackpoint>
          <Trackpoint>
            <Time>2022-07-09T11:52:53.000Z</Time>
            <Position>
              <LatitudeDegrees>42.78982984833419322967529296875</LatitudeDegrees>
              <LongitudeDegrees>-0.13497906737029552459716796875</LongitudeDegrees>
            </Position>
            <AltitudeMeters>2363.60009765625</AltitudeMeters>
            <DistanceMeters>12723.17754094</DistanceMeters>
          </Trackpoint>
          <Trackpoint>
            <Time>2022-07-09T11:52:56.000Z</Time>
            <Position>
              <LatitudeDegrees>42.78986471705138683319091796875</LatitudeDegrees>
              <LongitudeDegrees>-0.1349766366183757781982421875</LongitudeDegrees>
            </Position>
            <AltitudeMeters>2364.39990234375</AltitudeMeters>
            <DistanceMeters>12727.06319247</DistanceMeters>
          </Trackpoint>
          <Trackpoint>
            <Time>2022-07-09T11:52:58.000Z</Time>
            <Position>
              <LatitudeDegrees>42.7898830734193325042724609375</LatitudeDegrees>
              <LongitudeDegrees>-0.1349699310958385467529296875</LongitudeDegrees>
            </Position>
            <AltitudeMeters>2364.60009765625</AltitudeMeters>
            <DistanceMeters>12729.179537885</DistanceMeters>
          </Trackpoint>
          <Trackpoint>
            <Time>2022-07-09T11:53:01.000Z</Time>
            <Position>
              <LatitudeDegrees>42.78990335762500762939453125</LatitudeDegrees>
              <LongitudeDegrees>-0.1349796541035175323486328125</LongitudeDegrees>
            </Position>
            <AltitudeMeters>2365.199951171875</AltitudeMeters>
            <DistanceMeters>12731.572249415</DistanceMeters>
          </Trackpoint>
          <Trackpoint>
            <Time>2022-07-09T11:53:02.000Z</Time>
            <Position>
              <LatitudeDegrees>42.7899142540991306304931640625</LatitudeDegrees>
              <LongitudeDegrees>-0.13498325832188129425048828125</LongitudeDegrees>
            </Position>
            <AltitudeMeters>2365.199951171875</AltitudeMeters>
            <DistanceMeters>12732.818513091</DistanceMeters>
          </Trackpoint>
          <Trackpoint>
            <Time>2022-07-09T11:53:04.000Z</Time>
            <Position>
              <LatitudeDegrees>42.789924144744873046875</LatitudeDegrees>
              <LongitudeDegrees>-0.134971775114536285400390625</LongitudeDegrees>
            </Position>
            <AltitudeMeters>2365.39990234375</AltitudeMeters>
            <DistanceMeters>12734.265916882</DistanceMeters>
          </Trackpoint>
          <Trackpoint>
            <Time>2022-07-09T11:53:07.000Z</Time>
            <Position>
              <LatitudeDegrees>42.78994224965572357177734375</LatitudeDegrees>
              <LongitudeDegrees>-0.13494738377630710601806640625</LongitudeDegrees>
            </Position>
            <AltitudeMeters>2366</AltitudeMeters>
            <DistanceMeters>12737.099243188</DistanceMeters>
          </Trackpoint>
          <Trackpoint>
            <Time>2022-07-09T11:53:10.000Z</Time>
            <Position>
              <LatitudeDegrees>42.78996898792684078216552734375</LatitudeDegrees>
              <LongitudeDegrees>-0.13492927886545658111572265625</LongitudeDegrees>
            </Position>
            <AltitudeMeters>2366.60009765625</AltitudeMeters>
            <DistanceMeters>12740.42382039</DistanceMeters>
          </Trackpoint>
          <Trackpoint>
            <Time>2022-07-09T11:53:15.000Z</Time>
            <Position>
              <LatitudeDegrees>42.7900242246687412261962890625</LatitudeDegrees>
              <LongitudeDegrees>-0.1348898001015186309814453125</LongitudeDegrees>
            </Position>
            <AltitudeMeters>2367.199951171875</AltitudeMeters>
            <DistanceMeters>12747.365325119</DistanceMeters>
          </Trackpoint>
          <Trackpoint>
            <Time>2022-07-09T11:53:19.000Z</Time>
            <Position>
              <LatitudeDegrees>42.79007728211581707000732421875</LatitudeDegrees>
              <LongitudeDegrees>-0.13485384173691272735595703125</LongitudeDegrees>
            </Position>
            <AltitudeMeters>2367.60009765625</AltitudeMeters>
            <DistanceMeters>12753.959932624</DistanceMeters>
          </Trackpoint>
          <Trackpoint>
            <Time>2022-07-09T11:53:25.000Z</Time>
            <Position>
              <LatitudeDegrees>42.79013025574386119842529296875</LatitudeDegrees>
              <LongitudeDegrees>-0.13482458889484405517578125</LongitudeDegrees>
            </Position>
            <AltitudeMeters>2368.39990234375</AltitudeMeters>
            <DistanceMeters>12760.321046721</DistanceMeters>
          </Trackpoint>
          <Trackpoint>
            <Time>2022-07-09T11:53:27.000Z</Time>
            <Position>
              <LatitudeDegrees>42.79014953412115573883056640625</LatitudeDegrees>
              <LongitudeDegrees>-0.1348214037716388702392578125</LongitudeDegrees>
            </Position>
            <AltitudeMeters>2368.800048828125</AltitudeMeters>
            <DistanceMeters>12762.483817998</DistanceMeters>
          </Trackpoint>
          <Trackpoint>
            <Time>2022-07-09T11:53:33.000Z</Time>
            <Position>
              <LatitudeDegrees>42.790192030370235443115234375</LatitudeDegrees>
              <LongitudeDegrees>-0.1347975991666316986083984375</LongitudeDegrees>
            </Position>
            <AltitudeMeters>2369.60009765625</AltitudeMeters>
            <DistanceMeters>12767.595866631</DistanceMeters>
          </Trackpoint>
          <Trackpoint>
            <Time>2022-07-09T11:53:35.000Z</Time>
            <Position>
              <LatitudeDegrees>42.7902103029191493988037109375</LatitudeDegrees>
              <LongitudeDegrees>-0.1347912289202213287353515625</LongitudeDegrees>
            </Position>
            <AltitudeMeters>2369.800048828125</AltitudeMeters>
            <DistanceMeters>12769.695075364</DistanceMeters>
          </Trackpoint>
          <Trackpoint>
            <Time>2022-07-09T11:53:40.000Z</Time>
            <Position>
              <LatitudeDegrees>42.790253721177577972412109375</LatitudeDegrees>
              <LongitudeDegrees>-0.13477119617164134979248046875</LongitudeDegrees>
            </Position>
            <AltitudeMeters>2371.199951171875</AltitudeMeters>
            <DistanceMeters>12774.798284204</DistanceMeters>
          </Trackpoint>
          <Trackpoint>
            <Time>2022-07-09T11:53:41.000Z</Time>
            <Position>
              <LatitudeDegrees>42.79026503674685955047607421875</LatitudeDegrees>
              <LongitudeDegrees>-0.1347704418003559112548828125</LongitudeDegrees>
            </Position>
            <AltitudeMeters>2371.199951171875</AltitudeMeters>
            <DistanceMeters>12776.066098704</DistanceMeters>
          </Trackpoint>
          <Trackpoint>
            <Time>2022-07-09T11:53:44.000Z</Time>
            <Position>
              <LatitudeDegrees>42.790290601551532745361328125</LatitudeDegrees>
              <LongitudeDegrees>-0.1347649097442626953125</LongitudeDegrees>
            </Position>
            <AltitudeMeters>2372.199951171875</AltitudeMeters>
            <DistanceMeters>12778.94840166</DistanceMeters>
          </Trackpoint>
          <Trackpoint>
            <Time>2022-07-09T11:53:48.000Z</Time>
            <Position>
              <LatitudeDegrees>42.79032521881163120269775390625</LatitudeDegrees>
              <LongitudeDegrees>-0.13474412262439727783203125</LongitudeDegrees>
            </Position>
            <AltitudeMeters>2372.60009765625</AltitudeMeters>
            <DistanceMeters>12783.159704325</DistanceMeters>
          </Trackpoint>
          <Trackpoint>
            <Time>2022-07-09T11:53:51.000Z</Time>
            <Position>
              <LatitudeDegrees>42.79034751467406749725341796875</LatitudeDegrees>
              <LongitudeDegrees>-0.1347308792173862457275390625</LongitudeDegrees>
            </Position>
            <AltitudeMeters>2373.60009765625</AltitudeMeters>
            <DistanceMeters>12785.867548869</DistanceMeters>
          </Trackpoint>
          <Trackpoint>
            <Time>2022-07-09T11:53:54.000Z</Time>
            <Position>
              <LatitudeDegrees>42.7903776057064533233642578125</LatitudeDegrees>
              <LongitudeDegrees>-0.13472358696162700653076171875</LongitudeDegrees>
            </Position>
            <AltitudeMeters>2374</AltitudeMeters>
            <DistanceMeters>12789.268655736</DistanceMeters>
          </Trackpoint>
          <Trackpoint>
            <Time>2022-07-09T11:53:58.000Z</Time>
            <Position>
              <LatitudeDegrees>42.79042378999292850494384765625</LatitudeDegrees>
              <LongitudeDegrees>-0.13471185229718685150146484375</LongitudeDegrees>
            </Position>
            <AltitudeMeters>2374.60009765625</AltitudeMeters>
            <DistanceMeters>12794.497716022</DistanceMeters>
          </Trackpoint>
          <Trackpoint>
            <Time>2022-07-09T11:54:01.000Z</Time>
            <Position>
              <LatitudeDegrees>42.79045329429209232330322265625</LatitudeDegrees>
              <LongitudeDegrees>-0.1347047276794910430908203125</LongitudeDegrees>
            </Position>
            <AltitudeMeters>2375.39990234375</AltitudeMeters>
            <DistanceMeters>12797.83314016</DistanceMeters>
          </Trackpoint>
          <Trackpoint>
            <Time>2022-07-09T11:54:03.000Z</Time>
            <Position>
              <LatitudeDegrees>42.79047274030745029449462890625</LatitudeDegrees>
              <LongitudeDegrees>-0.1347037218511104583740234375</LongitudeDegrees>
            </Position>
            <AltitudeMeters>2376</AltitudeMeters>
            <DistanceMeters>12800.000082649</DistanceMeters>
          </Trackpoint>
          <Trackpoint>
            <Time>2022-07-09T11:54:09.000Z</Time>
            <Position>
              <LatitudeDegrees>42.79051749967038631439208984375</LatitudeDegrees>
              <LongitudeDegrees>-0.1347117684781551361083984375</LongitudeDegrees>
            </Position>
            <AltitudeMeters>2377.199951171875</AltitudeMeters>
            <DistanceMeters>12805.024830776</DistanceMeters>
          </Trackpoint>
          <Trackpoint>
            <Time>2022-07-09T11:54:13.000Z</Time>
            <Position>
              <LatitudeDegrees>42.7905504405498504638671875</LatitudeDegrees>
              <LongitudeDegrees>-0.1347144506871700286865234375</LongitudeDegrees>
            </Position>
            <AltitudeMeters>2378.199951171875</AltitudeMeters>
            <DistanceMeters>12808.69537216</DistanceMeters>
          </Trackpoint>
          <Trackpoint>
            <Time>2022-07-09T11:54:15.000Z</Time>
            <Position>
              <LatitudeDegrees>42.79057282023131847381591796875</LatitudeDegrees>
              <LongitudeDegrees>-0.13471327722072601318359375</LongitudeDegrees>
            </Position>
            <AltitudeMeters>2378.800048828125</AltitudeMeters>
            <DistanceMeters>12811.187899511</DistanceMeters>
          </Trackpoint>
          <Trackpoint>
            <Time>2022-07-09T11:54:19.000Z</Time>
            <Position>
              <LatitudeDegrees>42.7906112931668758392333984375</LatitudeDegrees>
              <LongitudeDegrees>-0.13470162637531757354736328125</LongitudeDegrees>
            </Position>
            <AltitudeMeters>2379.199951171875</AltitudeMeters>
            <DistanceMeters>12815.574594497</DistanceMeters>
          </Trackpoint>
          <Trackpoint>
            <Time>2022-07-09T11:54:22.000Z</Time>
            <Position>
              <LatitudeDegrees>42.79062495566904544830322265625</LatitudeDegrees>
              <LongitudeDegrees>-0.1346725411713123321533203125</LongitudeDegrees>
            </Position>
            <AltitudeMeters>2379.800048828125</AltitudeMeters>
            <DistanceMeters>12818.395143618</DistanceMeters>
          </Trackpoint>
          <Trackpoint>
            <Time>2022-07-09T11:54:25.000Z</Time>
            <Position>
              <LatitudeDegrees>42.79063048772513866424560546875</LatitudeDegrees>
              <LongitudeDegrees>-0.13463255949318408966064453125</LongitudeDegrees>
            </Position>
            <AltitudeMeters>2380.39990234375</AltitudeMeters>
            <DistanceMeters>12821.718362463</DistanceMeters>
          </Trackpoint>
          <Trackpoint>
            <Time>2022-07-09T11:54:28.000Z</Time>
            <Position>
              <LatitudeDegrees>42.79061858542263507843017578125</LatitudeDegrees>
              <LongitudeDegrees>-0.13458897359669208526611328125</LongitudeDegrees>
            </Position>
            <AltitudeMeters>2380.39990234375</AltitudeMeters>
            <DistanceMeters>12825.517054627</DistanceMeters>
          </Trackpoint>
          <Trackpoint>
            <Time>2022-07-09T11:54:32.000Z</Time>
            <Position>
              <LatitudeDegrees>42.7905677072703838348388671875</LatitudeDegrees>
              <LongitudeDegrees>-0.13455343432724475860595703125</LongitudeDegrees>
            </Position>
            <AltitudeMeters>2380.60009765625</AltitudeMeters>
            <DistanceMeters>12831.88100724</DistanceMeters>
          </Trackpoint>
          <Trackpoint>
            <Time>2022-07-09T11:54:34.000Z</Time>
            <Position>
              <LatitudeDegrees>42.790544070303440093994140625</LatitudeDegrees>
              <LongitudeDegrees>-0.134553350508213043212890625</LongitudeDegrees>
            </Position>
            <AltitudeMeters>2381</AltitudeMeters>
            <DistanceMeters>12834.511033581</DistanceMeters>
          </Trackpoint>
          <Trackpoint>
            <Time>2022-07-09T11:54:37.000Z</Time>
            <Position>
              <LatitudeDegrees>42.79051280580461025238037109375</LatitudeDegrees>
              <LongitudeDegrees>-0.13454966247081756591796875</LongitudeDegrees>
            </Position>
            <AltitudeMeters>2381.39990234375</AltitudeMeters>
            <DistanceMeters>12838.005123355</DistanceMeters>
          </Trackpoint>
          <Trackpoint>
            <Time>2022-07-09T11:54:42.000Z</Time>
            <Position>
              <LatitudeDegrees>42.79045312665402889251708984375</LatitudeDegrees>
              <LongitudeDegrees>-0.13452175073325634002685546875</LongitudeDegrees>
            </Position>
            <AltitudeMeters>2382.199951171875</AltitudeMeters>
            <DistanceMeters>12845.028748318</DistanceMeters>
          </Trackpoint>
          <Trackpoint>
            <Time>2022-07-09T11:54:44.000Z</Time>
            <Position>
              <LatitudeDegrees>42.7904238738119602203369140625</LatitudeDegrees>
              <LongitudeDegrees>-0.13450347818434238433837890625</LongitudeDegrees>
            </Position>
            <AltitudeMeters>2382.39990234375</AltitudeMeters>
            <DistanceMeters>12848.610889944</DistanceMeters>
          </Trackpoint>
          <Trackpoint>
            <Time>2022-07-09T11:54:49.000Z</Time>
            <Position>
              <LatitudeDegrees>42.79035665094852447509765625</LatitudeDegrees>
              <LongitudeDegrees>-0.13448621146380901336669921875</LongitudeDegrees>
            </Position>
            <AltitudeMeters>2382.199951171875</AltitudeMeters>
            <DistanceMeters>12856.224896167</DistanceMeters>
          </Trackpoint>
          <Trackpoint>
            <Time>2022-07-09T11:54:55.000Z</Time>
            <Position>
              <LatitudeDegrees>42.79026755131781101226806640625</LatitudeDegrees>
              <LongitudeDegrees>-0.13446710072457790374755859375</LongitudeDegrees>
            </Position>
            <AltitudeMeters>2382.199951171875</AltitudeMeters>
            <DistanceMeters>12866.264503394</DistanceMeters>
          </Trackpoint>
          <Trackpoint>
            <Time>2022-07-09T11:54:56.000Z</Time>
            <Position>
              <LatitudeDegrees>42.79025816358625888824462890625</LatitudeDegrees>
              <LongitudeDegrees>-0.1344572938978672027587890625</LongitudeDegrees>
            </Position>
            <AltitudeMeters>2382.199951171875</AltitudeMeters>
            <DistanceMeters>12867.581232173</DistanceMeters>
          </Trackpoint>
          <Trackpoint>
            <Time>2022-07-09T11:55:00.000Z</Time>
            <Position>
              <LatitudeDegrees>42.7902113087475299835205078125</LatitudeDegrees>
              <LongitudeDegrees>-0.13445553369820117950439453125</LongitudeDegrees>
            </Position>
            <AltitudeMeters>2382.39990234375</AltitudeMeters>
            <DistanceMeters>12872.798190137</DistanceMeters>
          </Trackpoint>
          <Trackpoint>
            <Time>2022-07-09T11:55:04.000Z</Time>
            <Position>
              <LatitudeDegrees>42.7901811338961124420166015625</LatitudeDegrees>
              <LongitudeDegrees>-0.1344401948153972625732421875</LongitudeDegrees>
            </Position>
            <AltitudeMeters>2382.199951171875</AltitudeMeters>
            <DistanceMeters>12876.384111059</DistanceMeters>
          </Trackpoint>
          <Trackpoint>
            <Time>2022-07-09T11:55:09.000Z</Time>
            <Position>
              <LatitudeDegrees>42.7901526354253292083740234375</LatitudeDegrees>
              <LongitudeDegrees>-0.13442787341773509979248046875</LongitudeDegrees>
            </Position>
            <AltitudeMeters>2383.60009765625</AltitudeMeters>
            <DistanceMeters>12879.711403309</DistanceMeters>
          </Trackpoint>
          <Trackpoint>
            <Time>2022-07-09T11:55:11.000Z</Time>
            <Position>
              <LatitudeDegrees>42.79015841893851757049560546875</LatitudeDegrees>
              <LongitudeDegrees>-0.1343982852995395660400390625</LongitudeDegrees>
            </Position>
            <AltitudeMeters>2383.39990234375</AltitudeMeters>
            <DistanceMeters>12882.211165878</DistanceMeters>
          </Trackpoint>
          <Trackpoint>
            <Time>2022-07-09T11:55:12.000Z</Time>
            <Position>
              <LatitudeDegrees>42.79016084969043731689453125</LatitudeDegrees>
              <LongitudeDegrees>-0.1343808509409427642822265625</LongitudeDegrees>
            </Position>
            <AltitudeMeters>2383.39990234375</AltitudeMeters>
            <DistanceMeters>12883.658569669</DistanceMeters>
          </Trackpoint>
          <Trackpoint>
            <Time>2022-07-09T11:55:18.000Z</Time>
            <Position>
              <LatitudeDegrees>42.7901579998433589935302734375</LatitudeDegrees>
              <LongitudeDegrees>-0.1342889852821826934814453125</LongitudeDegrees>
            </Position>
            <AltitudeMeters>2383.800048828125</AltitudeMeters>
            <DistanceMeters>12891.168686677</DistanceMeters>
          </Trackpoint>
          <Trackpoint>
            <Time>2022-07-09T11:55:24.000Z</Time>
            <Position>
              <LatitudeDegrees>42.79019529931247234344482421875</LatitudeDegrees>
              <LongitudeDegrees>-0.13422704301774501800537109375</LongitudeDegrees>
            </Position>
            <AltitudeMeters>2384.60009765625</AltitudeMeters>
            <DistanceMeters>12897.713123442</DistanceMeters>
          </Trackpoint>
          <Trackpoint>
            <Time>2022-07-09T11:55:27.000Z</Time>
            <Position>
              <LatitudeDegrees>42.79022119939327239990234375</LatitudeDegrees>
              <LongitudeDegrees>-0.13420793227851390838623046875</LongitudeDegrees>
            </Position>
            <AltitudeMeters>2385.199951171875</AltitudeMeters>
            <DistanceMeters>12900.99120077</DistanceMeters>
          </Trackpoint>
          <Trackpoint>
            <Time>2022-07-09T11:55:29.000Z</Time>
            <Position>
              <LatitudeDegrees>42.79024240560829639434814453125</LatitudeDegrees>
              <LongitudeDegrees>-0.13418932445347309112548828125</LongitudeDegrees>
            </Position>
            <AltitudeMeters>2385.60009765625</AltitudeMeters>
            <DistanceMeters>12903.798914562</DistanceMeters>
          </Trackpoint>
          <Trackpoint>
            <Time>2022-07-09T11:55:31.000Z</Time>
            <Position>
              <LatitudeDegrees>42.79026411473751068115234375</LatitudeDegrees>
              <LongitudeDegrees>-0.13416937552392482757568359375</LongitudeDegrees>
            </Position>
            <AltitudeMeters>2385.800048828125</AltitudeMeters>
            <DistanceMeters>12906.713927758</DistanceMeters>
          </Trackpoint>
          <Trackpoint>
            <Time>2022-07-09T11:55:35.000Z</Time>
            <Position>
              <LatitudeDegrees>42.79030258767306804656982421875</LatitudeDegrees>
              <LongitudeDegrees>-0.1341357640922069549560546875</LongitudeDegrees>
            </Position>
            <AltitudeMeters>2386.39990234375</AltitudeMeters>
            <DistanceMeters>12911.801186262</DistanceMeters>
          </Trackpoint>
          <Trackpoint>
            <Time>2022-07-09T11:55:37.000Z</Time>
            <Position>
              <LatitudeDegrees>42.79032337479293346405029296875</LatitudeDegrees>
              <LongitudeDegrees>-0.13412646017968654632568359375</LongitudeDegrees>
            </Position>
            <AltitudeMeters>2386.800048828125</AltitudeMeters>
            <DistanceMeters>12914.23876504</DistanceMeters>
          </Trackpoint>
          <Trackpoint>
            <Time>2022-07-09T11:55:43.000Z</Time>
            <Position>
              <LatitudeDegrees>42.79037970118224620819091796875</LatitudeDegrees>
              <LongitudeDegrees>-0.13409393839538097381591796875</LongitudeDegrees>
            </Position>
            <AltitudeMeters>2387.800048828125</AltitudeMeters>
            <DistanceMeters>12921.046949995</DistanceMeters>
          </Trackpoint>
          <Trackpoint>
            <Time>2022-07-09T11:55:44.000Z</Time>
            <Position>
              <LatitudeDegrees>42.79038825072348117828369140625</LatitudeDegrees>
              <LongitudeDegrees>-0.1340821199119091033935546875</LongitudeDegrees>
            </Position>
            <AltitudeMeters>2388</AltitudeMeters>
            <DistanceMeters>12922.397533366</DistanceMeters>
          </Trackpoint>
          <Trackpoint>
            <Time>2022-07-09T11:55:50.000Z</Time>
            <Position>
              <LatitudeDegrees>42.790436111390590667724609375</LatitudeDegrees>
              <LongitudeDegrees>-0.13401883654296398162841796875</LongitudeDegrees>
            </Position>
            <AltitudeMeters>2388.800048828125</AltitudeMeters>
            <DistanceMeters>12929.82057361</DistanceMeters>
          </Trackpoint>
          <Trackpoint>
            <Time>2022-07-09T11:55:51.000Z</Time>
            <Position>
              <LatitudeDegrees>42.7904446609318256378173828125</LatitudeDegrees>
              <LongitudeDegrees>-0.13401431031525135040283203125</LongitudeDegrees>
            </Position>
            <AltitudeMeters>2389</AltitudeMeters>
            <DistanceMeters>12930.839621593</DistanceMeters>
          </Trackpoint>
          <Trackpoint>
            <Time>2022-07-09T11:55:56.000Z</Time>
            <Position>
              <LatitudeDegrees>42.7904966287314891815185546875</LatitudeDegrees>
              <LongitudeDegrees>-0.133989416062831878662109375</LongitudeDegrees>
            </Position>
            <AltitudeMeters>2390</AltitudeMeters>
            <DistanceMeters>12936.970133656</DistanceMeters>
          </Trackpoint>
          <Trackpoint>
            <Time>2022-07-09T11:55:57.000Z</Time>
            <Position>
              <LatitudeDegrees>42.79050978831946849822998046875</LatitudeDegrees>
              <LongitudeDegrees>-0.133981369435787200927734375</LongitudeDegrees>
            </Position>
            <AltitudeMeters>2390</AltitudeMeters>
            <DistanceMeters>12938.574369233</DistanceMeters>
          </Trackpoint>
          <Trackpoint>
            <Time>2022-07-09T11:56:03.000Z</Time>
            <Position>
              <LatitudeDegrees>42.7905707247555255889892578125</LatitudeDegrees>
              <LongitudeDegrees>-0.1339466683566570281982421875</LongitudeDegrees>
            </Position>
            <AltitudeMeters>2391</AltitudeMeters>
            <DistanceMeters>12945.925286009</DistanceMeters>
          </Trackpoint>
          <Trackpoint>
            <Time>2022-07-09T11:56:04.000Z</Time>
            <Position>
              <LatitudeDegrees>42.79058061540126800537109375</LatitudeDegrees>
              <LongitudeDegrees>-0.13394490815699100494384765625</LongitudeDegrees>
            </Position>
            <AltitudeMeters>2391</AltitudeMeters>
            <DistanceMeters>12947.033478409</DistanceMeters>
          </Trackpoint>
          <Trackpoint>
            <Time>2022-07-09T11:56:05.000Z</Time>
            <Position>
              <LatitudeDegrees>42.79058933258056640625</LatitudeDegrees>
              <LongitudeDegrees>-0.1339376159012317657470703125</LongitudeDegrees>
            </Position>
            <AltitudeMeters>2391.199951171875</AltitudeMeters>
            <DistanceMeters>12948.173798982</DistanceMeters>
          </Trackpoint>
          <Trackpoint>
            <Time>2022-07-09T11:56:10.000Z</Time>
            <Position>
              <LatitudeDegrees>42.79062495566904544830322265625</LatitudeDegrees>
              <LongitudeDegrees>-0.1338910125195980072021484375</LongitudeDegrees>
            </Position>
            <AltitudeMeters>2392.199951171875</AltitudeMeters>
            <DistanceMeters>12953.670583113</DistanceMeters>
          </Trackpoint>
          <Trackpoint>
            <Time>2022-07-09T11:56:14.000Z</Time>
            <Position>
              <LatitudeDegrees>42.79064834117889404296875</LatitudeDegrees>
              <LongitudeDegrees>-0.13386779464781284332275390625</LongitudeDegrees>
            </Position>
            <AltitudeMeters>2393.199951171875</AltitudeMeters>
            <DistanceMeters>12956.893095783</DistanceMeters>
          </Trackpoint>
          <Trackpoint>
            <Time>2022-07-09T11:56:15.000Z</Time>
            <Position>
              <LatitudeDegrees>42.7906535379588603973388671875</LatitudeDegrees>
              <LongitudeDegrees>-0.1338574849069118499755859375</LongitudeDegrees>
            </Position>
            <AltitudeMeters>2393.39990234375</AltitudeMeters>
            <DistanceMeters>12957.920966856</DistanceMeters>
          </Trackpoint>
          <Trackpoint>
            <Time>2022-07-09T11:56:18.000Z</Time>
            <Position>
              <LatitudeDegrees>42.7906743250787258148193359375</LatitudeDegrees>
              <LongitudeDegrees>-0.13381582684814929962158203125</LongitudeDegrees>
            </Position>
            <AltitudeMeters>2394.199951171875</AltitudeMeters>
            <DistanceMeters>12962.036841418</DistanceMeters>
          </Trackpoint>
          <Trackpoint>
            <Time>2022-07-09T11:56:23.000Z</Time>
            <Position>
              <LatitudeDegrees>42.7906931005418300628662109375</LatitudeDegrees>
              <LongitudeDegrees>-0.13379118405282497406005859375</LongitudeDegrees>
            </Position>
            <AltitudeMeters>2395</AltitudeMeters>
            <DistanceMeters>12964.937881102</DistanceMeters>
          </Trackpoint>
          <Trackpoint>
            <Time>2022-07-09T11:56:26.000Z</Time>
            <Position>
              <LatitudeDegrees>42.7906817011535167694091796875</LatitudeDegrees>
              <LongitudeDegrees>-0.13376637361943721771240234375</LongitudeDegrees>
            </Position>
            <AltitudeMeters>2395.39990234375</AltitudeMeters>
            <DistanceMeters>12967.328704891</DistanceMeters>
          </Trackpoint>
          <Trackpoint>
            <Time>2022-07-09T11:56:27.000Z</Time>
            <Position>
              <LatitudeDegrees>42.79067189432680606842041015625</LatitudeDegrees>
              <LongitudeDegrees>-0.13375698588788509368896484375</LongitudeDegrees>
            </Position>
            <AltitudeMeters>2395.39990234375</AltitudeMeters>
            <DistanceMeters>12968.662468385</DistanceMeters>
          </Trackpoint>
          <Trackpoint>
            <Time>2022-07-09T11:56:28.000Z</Time>
            <Position>
              <LatitudeDegrees>42.790660075843334197998046875</LatitudeDegrees>
              <LongitudeDegrees>-0.13374759815633296966552734375</LongitudeDegrees>
            </Position>
            <AltitudeMeters>2395.60009765625</AltitudeMeters>
            <DistanceMeters>12970.18882343</DistanceMeters>
          </Trackpoint>
          <Trackpoint>
            <Time>2022-07-09T11:56:32.000Z</Time>
            <Position>
              <LatitudeDegrees>42.79062277637422084808349609375</LatitudeDegrees>
              <LongitudeDegrees>-0.13373200781643390655517578125</LongitudeDegrees>
            </Position>
            <AltitudeMeters>2396.60009765625</AltitudeMeters>
            <DistanceMeters>12974.532074481</DistanceMeters>
          </Trackpoint>
          <Trackpoint>
            <Time>2022-07-09T11:56:35.000Z</Time>
            <Position>
              <LatitudeDegrees>42.7905955351889133453369140625</LatitudeDegrees>
              <LongitudeDegrees>-0.13372412882745265960693359375</LongitudeDegrees>
            </Position>
            <AltitudeMeters>2397.800048828125</AltitudeMeters>
            <DistanceMeters>12977.631752099</DistanceMeters>
          </Trackpoint>
          <Trackpoint>
            <Time>2022-07-09T11:56:37.000Z</Time>
            <Position>
              <LatitudeDegrees>42.79057851992547512054443359375</LatitudeDegrees>
              <LongitudeDegrees>-0.133721865713596343994140625</LongitudeDegrees>
            </Position>
            <AltitudeMeters>2398.199951171875</AltitudeMeters>
            <DistanceMeters>12979.537031798</DistanceMeters>
          </Trackpoint>
          <Trackpoint>
            <Time>2022-07-09T11:56:40.000Z</Time>
            <Position>
              <LatitudeDegrees>42.7905559726059436798095703125</LatitudeDegrees>
              <LongitudeDegrees>-0.13369848020374774932861328125</LongitudeDegrees>
            </Position>
            <AltitudeMeters>2398.60009765625</AltitudeMeters>
            <DistanceMeters>12982.69014362</DistanceMeters>
          </Trackpoint>
          <Trackpoint>
            <Time>2022-07-09T11:56:43.000Z</Time>
            <Position>
              <LatitudeDegrees>42.79053074307739734649658203125</LatitudeDegrees>
              <LongitudeDegrees>-0.13368741609156131744384765625</LongitudeDegrees>
            </Position>
            <AltitudeMeters>2399</AltitudeMeters>
            <DistanceMeters>12985.64056625</DistanceMeters>
          </Trackpoint>
          <Trackpoint>
            <Time>2022-07-09T11:56:45.000Z</Time>
            <Position>
              <LatitudeDegrees>42.79051263816654682159423828125</LatitudeDegrees>
              <LongitudeDegrees>-0.13367249630391597747802734375</LongitudeDegrees>
            </Position>
            <AltitudeMeters>2399.800048828125</AltitudeMeters>
            <DistanceMeters>12987.995235427</DistanceMeters>
          </Trackpoint>
          <Trackpoint>
            <Time>2022-07-09T11:56:47.000Z</Time>
            <Position>
              <LatitudeDegrees>42.79049319215118885040283203125</LatitudeDegrees>
              <LongitudeDegrees>-0.13366780243813991546630859375</LongitudeDegrees>
            </Position>
            <AltitudeMeters>2400.199951171875</AltitudeMeters>
            <DistanceMeters>12990.193209699</DistanceMeters>
          </Trackpoint>
          <Trackpoint>
            <Time>2022-07-09T11:56:48.000Z</Time>
            <Position>
              <LatitudeDegrees>42.790483050048351287841796875</LatitudeDegrees>
              <LongitudeDegrees>-0.13366595841944217681884765625</LongitudeDegrees>
            </Position>
            <AltitudeMeters>2400.199951171875</AltitudeMeters>
            <DistanceMeters>12991.333530271</DistanceMeters>
          </Trackpoint>
          <Trackpoint>
            <Time>2022-07-09T11:56:50.000Z</Time>
            <Position>
              <LatitudeDegrees>42.79046259820461273193359375</LatitudeDegrees>
              <LongitudeDegrees>-0.13366227038204669952392578125</LongitudeDegrees>
            </Position>
            <AltitudeMeters>2400.60009765625</AltitudeMeters>
            <DistanceMeters>12993.629954588</DistanceMeters>
          </Trackpoint>
          <Trackpoint>
            <Time>2022-07-09T11:56:54.000Z</Time>
            <Position>
              <LatitudeDegrees>42.79042529873549938201904296875</LatitudeDegrees>
              <LongitudeDegrees>-0.13366830535233020782470703125</LongitudeDegrees>
            </Position>
            <AltitudeMeters>2401.39990234375</AltitudeMeters>
            <DistanceMeters>12997.81113002</DistanceMeters>
          </Trackpoint>
          <Trackpoint>
            <Time>2022-07-09T11:56:58.000Z</Time>
            <Position>
              <LatitudeDegrees>42.7903906814754009246826171875</LatitudeDegrees>
              <LongitudeDegrees>-0.1336432434618473052978515625</LongitudeDegrees>
            </Position>
            <AltitudeMeters>2402.39990234375</AltitudeMeters>
            <DistanceMeters>13002.174087864</DistanceMeters>
          </Trackpoint>
          <Trackpoint>
            <Time>2022-07-09T11:56:59.000Z</Time>
            <Position>
              <LatitudeDegrees>42.79038405977189540863037109375</LatitudeDegrees>
              <LongitudeDegrees>-0.1336358673870563507080078125</LongitudeDegrees>
            </Position>
            <AltitudeMeters>2402.60009765625</AltitudeMeters>
            <DistanceMeters>13003.129094524</DistanceMeters>
          </Trackpoint>
          <Trackpoint>
            <Time>2022-07-09T11:57:01.000Z</Time>
            <Position>
              <LatitudeDegrees>42.79036981053650379180908203125</LatitudeDegrees>
              <LongitudeDegrees>-0.1336276531219482421875</LongitudeDegrees>
            </Position>
            <AltitudeMeters>2402.60009765625</AltitudeMeters>
            <DistanceMeters>13004.852723008</DistanceMeters>
          </Trackpoint>
          <Trackpoint>
            <Time>2022-07-09T11:57:06.000Z</Time>
            <Position>
              <LatitudeDegrees>42.79032655991613864898681640625</LatitudeDegrees>
              <LongitudeDegrees>-0.13361449353396892547607421875</LongitudeDegrees>
            </Position>
            <AltitudeMeters>2402.800048828125</AltitudeMeters>
            <DistanceMeters>13009.784966507</DistanceMeters>
          </Trackpoint>
          <Trackpoint>
            <Time>2022-07-09T11:57:12.000Z</Time>
            <Position>
              <LatitudeDegrees>42.7902726642787456512451171875</LatitudeDegrees>
              <LongitudeDegrees>-0.1336073689162731170654296875</LongitudeDegrees>
            </Position>
            <AltitudeMeters>2403.199951171875</AltitudeMeters>
            <DistanceMeters>13015.811488511</DistanceMeters>
          </Trackpoint>
          <Trackpoint>
            <Time>2022-07-09T11:57:13.000Z</Time>
            <Position>
              <LatitudeDegrees>42.79026520438492298126220703125</LatitudeDegrees>
              <LongitudeDegrees>-0.1336026750504970550537109375</LongitudeDegrees>
            </Position>
            <AltitudeMeters>2403.39990234375</AltitudeMeters>
            <DistanceMeters>13016.722952735</DistanceMeters>
          </Trackpoint>
          <Trackpoint>
            <Time>2022-07-09T11:57:14.000Z</Time>
            <Position>
              <LatitudeDegrees>42.790257073938846588134765625</LatitudeDegrees>
              <LongitudeDegrees>-0.13359722681343555450439453125</LongitudeDegrees>
            </Position>
            <AltitudeMeters>2403.39990234375</AltitudeMeters>
            <DistanceMeters>13017.728620952</DistanceMeters>
          </Trackpoint>
          <Trackpoint>
            <Time>2022-07-09T11:57:15.000Z</Time>
            <Position>
              <LatitudeDegrees>42.79024944640696048736572265625</LatitudeDegrees>
              <LongitudeDegrees>-0.13359345495700836181640625</LongitudeDegrees>
            </Position>
            <AltitudeMeters>2403.60009765625</AltitudeMeters>
            <DistanceMeters>13018.640085177</DistanceMeters>
          </Trackpoint>
          <Trackpoint>
            <Time>2022-07-09T11:57:17.000Z</Time>
            <Position>
              <LatitudeDegrees>42.79024391435086727142333984375</LatitudeDegrees>
              <LongitudeDegrees>-0.13357761316001415252685546875</LongitudeDegrees>
            </Position>
            <AltitudeMeters>2404.199951171875</AltitudeMeters>
            <DistanceMeters>13020.071806991</DistanceMeters>
          </Trackpoint>
          <Trackpoint>
            <Time>2022-07-09T11:57:20.000Z</Time>
            <Position>
              <LatitudeDegrees>42.79024793766438961029052734375</LatitudeDegrees>
              <LongitudeDegrees>-0.13355783186852931976318359375</LongitudeDegrees>
            </Position>
            <AltitudeMeters>2404.60009765625</AltitudeMeters>
            <DistanceMeters>13021.750313425</DistanceMeters>
          </Trackpoint>
          <Trackpoint>
            <Time>2022-07-09T11:57:21.000Z</Time>
            <Position>
              <LatitudeDegrees>42.79024994932115077972412109375</LatitudeDegrees>
              <LongitudeDegrees>-0.1335594244301319122314453125</LongitudeDegrees>
            </Position>
            <AltitudeMeters>2404.800048828125</AltitudeMeters>
            <DistanceMeters>13022.019089562</DistanceMeters>
          </Trackpoint>
          <Trackpoint>
            <Time>2022-07-09T11:57:27.000Z</Time>
            <Position>
              <LatitudeDegrees>42.7902743406593799591064453125</LatitudeDegrees>
              <LongitudeDegrees>-0.1335507072508335113525390625</LongitudeDegrees>
            </Position>
            <AltitudeMeters>2405.39990234375</AltitudeMeters>
            <DistanceMeters>13024.825194809</DistanceMeters>
          </Trackpoint>
          <Trackpoint>
            <Time>2022-07-09T11:57:29.000Z</Time>
            <Position>
              <LatitudeDegrees>42.7902833931148052215576171875</LatitudeDegrees>
              <LongitudeDegrees>-0.1335289143025875091552734375</LongitudeDegrees>
            </Position>
            <AltitudeMeters>2405.60009765625</AltitudeMeters>
            <DistanceMeters>13026.869925939</DistanceMeters>
          </Trackpoint>
          <Trackpoint>
            <Time>2022-07-09T11:57:32.000Z</Time>
            <Position>
              <LatitudeDegrees>42.79031080193817615509033203125</LatitudeDegrees>
              <LongitudeDegrees>-0.13351994566619396209716796875</LongitudeDegrees>
            </Position>
            <AltitudeMeters>2406</AltitudeMeters>
            <DistanceMeters>13030.007246981</DistanceMeters>
          </Trackpoint>
          <Trackpoint>
            <Time>2022-07-09T11:57:33.000Z</Time>
            <Position>
              <LatitudeDegrees>42.79031901620328426361083984375</LatitudeDegrees>
              <LongitudeDegrees>-0.13351793400943279266357421875</LongitudeDegrees>
            </Position>
            <AltitudeMeters>2406.199951171875</AltitudeMeters>
            <DistanceMeters>13030.93831483</DistanceMeters>
          </Trackpoint>
          <Trackpoint>
            <Time>2022-07-09T11:57:36.000Z</Time>
            <Position>
              <LatitudeDegrees>42.79034365899860858917236328125</LatitudeDegrees>
              <LongitudeDegrees>-0.13350519351661205291748046875</LongitudeDegrees>
            </Position>
            <AltitudeMeters>2407</AltitudeMeters>
            <DistanceMeters>13033.873394544</DistanceMeters>
          </Trackpoint>
          <Trackpoint>
            <Time>2022-07-09T11:57:41.000Z</Time>
            <Position>
              <LatitudeDegrees>42.79038305394351482391357421875</LatitudeDegrees>
              <LongitudeDegrees>-0.133488178253173828125</LongitudeDegrees>
            </Position>
            <AltitudeMeters>2408.39990234375</AltitudeMeters>
            <DistanceMeters>13038.473119439</DistanceMeters>
          </Trackpoint>
          <Trackpoint>
            <Time>2022-07-09T11:57:45.000Z</Time>
            <Position>
              <LatitudeDegrees>42.79041222296655178070068359375</LatitudeDegrees>
              <LongitudeDegrees>-0.13346931897103786468505859375</LongitudeDegrees>
            </Position>
            <AltitudeMeters>2409.60009765625</AltitudeMeters>
            <DistanceMeters>13042.066587028</DistanceMeters>
          </Trackpoint>
          <Trackpoint>
            <Time>2022-07-09T11:57:49.000Z</Time>
            <Position>
              <LatitudeDegrees>42.79044977389276027679443359375</LatitudeDegrees>
              <LongitudeDegrees>-0.13345959596335887908935546875</LongitudeDegrees>
            </Position>
            <AltitudeMeters>2411</AltitudeMeters>
            <DistanceMeters>13046.321619727</DistanceMeters>
          </Trackpoint>
          <Trackpoint>
            <Time>2022-07-09T11:57:53.000Z</Time>
            <Position>
              <LatitudeDegrees>42.7904969640076160430908203125</LatitudeDegrees>
              <LongitudeDegrees>-0.13343025930225849151611328125</LongitudeDegrees>
            </Position>
            <AltitudeMeters>2412</AltitudeMeters>
            <DistanceMeters>13052.09405267</DistanceMeters>
          </Trackpoint>
          <Trackpoint>
            <Time>2022-07-09T11:57:54.000Z</Time>
            <Position>
              <LatitudeDegrees>42.790509201586246490478515625</LatitudeDegrees>
              <LongitudeDegrees>-0.13342170976102352142333984375</LongitudeDegrees>
            </Position>
            <AltitudeMeters>2412.39990234375</AltitudeMeters>
            <DistanceMeters>13053.626312398</DistanceMeters>
          </Trackpoint>
          <Trackpoint>
            <Time>2022-07-09T11:57:58.000Z</Time>
            <Position>
              <LatitudeDegrees>42.79054465703666210174560546875</LatitudeDegrees>
              <LongitudeDegrees>-0.133398659527301788330078125</LongitudeDegrees>
            </Position>
            <AltitudeMeters>2413.199951171875</AltitudeMeters>
            <DistanceMeters>13057.999606569</DistanceMeters>
          </Trackpoint>
          <Trackpoint>
            <Time>2022-07-09T11:58:02.000Z</Time>
            <Position>
              <LatitudeDegrees>42.7905767597258090972900390625</LatitudeDegrees>
              <LongitudeDegrees>-0.13337510637938976287841796875</LongitudeDegrees>
            </Position>
            <AltitudeMeters>2413.800048828125</AltitudeMeters>
            <DistanceMeters>13062.058037231</DistanceMeters>
          </Trackpoint>
          <Trackpoint>
            <Time>2022-07-09T11:58:04.000Z</Time>
            <Position>
              <LatitudeDegrees>42.7905901707708835601806640625</LatitudeDegrees>
              <LongitudeDegrees>-0.13336144387722015380859375</LongitudeDegrees>
            </Position>
            <AltitudeMeters>2414.199951171875</AltitudeMeters>
            <DistanceMeters>13063.922596007</DistanceMeters>
          </Trackpoint>
          <Trackpoint>
            <Time>2022-07-09T11:58:10.000Z</Time>
            <Position>
              <LatitudeDegrees>42.79063099063932895660400390625</LatitudeDegrees>
              <LongitudeDegrees>-0.13335498981177806854248046875</LongitudeDegrees>
            </Position>
            <AltitudeMeters>2414.800048828125</AltitudeMeters>
            <DistanceMeters>13068.497715372</DistanceMeters>
          </Trackpoint>
          <Trackpoint>
            <Time>2022-07-09T11:58:12.000Z</Time>
            <Position>
              <LatitudeDegrees>42.79063828289508819580078125</LatitudeDegrees>
              <LongitudeDegrees>-0.13333688490092754364013671875</LongitudeDegrees>
            </Position>
            <AltitudeMeters>2415</AltitudeMeters>
            <DistanceMeters>13070.18159304</DistanceMeters>
          </Trackpoint>
          <Trackpoint>
            <Time>2022-07-09T11:58:13.000Z</Time>
            <Position>
              <LatitudeDegrees>42.790635935962200164794921875</LatitudeDegrees>
              <LongitudeDegrees>-0.13332230038940906524658203125</LongitudeDegrees>
            </Position>
            <AltitudeMeters>2415.199951171875</AltitudeMeters>
            <DistanceMeters>13071.398528756</DistanceMeters>
          </Trackpoint>
          <Trackpoint>
            <Time>2022-07-09T11:58:14.000Z</Time>
            <Position>
              <LatitudeDegrees>42.7906330861151218414306640625</LatitudeDegrees>
              <LongitudeDegrees>-0.13330821879208087921142578125</LongitudeDegrees>
            </Position>
            <AltitudeMeters>2415.199951171875</AltitudeMeters>
            <DistanceMeters>13072.589210075</DistanceMeters>
          </Trackpoint>
          <Trackpoint>
            <Time>2022-07-09T11:58:18.000Z</Time>
            <Position>
              <LatitudeDegrees>42.790607102215290069580078125</LatitudeDegrees>
              <LongitudeDegrees>-0.1332710869610309600830078125</LongitudeDegrees>
            </Position>
            <AltitudeMeters>2415.39990234375</AltitudeMeters>
            <DistanceMeters>13076.779015393</DistanceMeters>
          </Trackpoint>
          <Trackpoint>
            <Time>2022-07-09T11:58:19.000Z</Time>
            <Position>
              <LatitudeDegrees>42.790597379207611083984375</LatitudeDegrees>
              <LongitudeDegrees>-0.1332650519907474517822265625</LongitudeDegrees>
            </Position>
            <AltitudeMeters>2415.60009765625</AltitudeMeters>
            <DistanceMeters>13077.969696711</DistanceMeters>
          </Trackpoint>
          <Trackpoint>
            <Time>2022-07-09T11:58:22.000Z</Time>
            <Position>
              <LatitudeDegrees>42.7905646897852420806884765625</LatitudeDegrees>
              <LongitudeDegrees>-0.13325088657438755035400390625</LongitudeDegrees>
            </Position>
            <AltitudeMeters>2415.800048828125</AltitudeMeters>
            <DistanceMeters>13081.787358742</DistanceMeters>
          </Trackpoint>
          <Trackpoint>
            <Time>2022-07-09T11:58:23.000Z</Time>
            <Position>
              <LatitudeDegrees>42.7905549667775630950927734375</LatitudeDegrees>
              <LongitudeDegrees>-0.13325147330760955810546875</LongitudeDegrees>
            </Position>
            <AltitudeMeters>2416</AltitudeMeters>
            <DistanceMeters>13082.870829987</DistanceMeters>
          </Trackpoint>
          <Trackpoint>
            <Time>2022-07-09T11:58:24.000Z</Time>
            <Position>
              <LatitudeDegrees>42.79053962789475917816162109375</LatitudeDegrees>
              <LongitudeDegrees>-0.133255831897258758544921875</LongitudeDegrees>
            </Position>
            <AltitudeMeters>2416.39990234375</AltitudeMeters>
            <DistanceMeters>13084.617874874</DistanceMeters>
          </Trackpoint>
          <Trackpoint>
            <Time>2022-07-09T11:58:27.000Z</Time>
            <Position>
              <LatitudeDegrees>42.7905009873211383819580078125</LatitudeDegrees>
              <LongitudeDegrees>-0.13325608335435390472412109375</LongitudeDegrees>
            </Position>
            <AltitudeMeters>2417.60009765625</AltitudeMeters>
            <DistanceMeters>13088.919342837</DistanceMeters>
          </Trackpoint>
          <Trackpoint>
            <Time>2022-07-09T11:58:30.000Z</Time>
            <Position>
              <LatitudeDegrees>42.79046921990811824798583984375</LatitudeDegrees>
              <LongitudeDegrees>-0.13325893320143222808837890625</LongitudeDegrees>
            </Position>
            <AltitudeMeters>2418.39990234375</AltitudeMeters>
            <DistanceMeters>13092.464743577</DistanceMeters>
          </Trackpoint>
          <Trackpoint>
            <Time>2022-07-09T11:58:31.000Z</Time>
            <Position>
              <LatitudeDegrees>42.7904570661485195159912109375</LatitudeDegrees>
              <LongitudeDegrees>-0.133261196315288543701171875</LongitudeDegrees>
            </Position>
            <AltitudeMeters>2418.60009765625</AltitudeMeters>
            <DistanceMeters>13093.831939914</DistanceMeters>
          </Trackpoint>
          <Trackpoint>
            <Time>2022-07-09T11:58:37.000Z</Time>
            <Position>
              <LatitudeDegrees>42.79039495624601840972900390625</LatitudeDegrees>
              <LongitudeDegrees>-0.1332885213196277618408203125</LongitudeDegrees>
            </Position>
            <AltitudeMeters>2419.199951171875</AltitudeMeters>
            <DistanceMeters>13101.096357767</DistanceMeters>
          </Trackpoint>
          <Trackpoint>
            <Time>2022-07-09T11:58:38.000Z</Time>
            <Position>
              <LatitudeDegrees>42.79038489796221256256103515625</LatitudeDegrees>
              <LongitudeDegrees>-0.13328944332897663116455078125</LongitudeDegrees>
            </Position>
            <AltitudeMeters>2419.39990234375</AltitudeMeters>
            <DistanceMeters>13102.220729014</DistanceMeters>
          </Trackpoint>
          <Trackpoint>
            <Time>2022-07-09T11:58:40.000Z</Time>
            <Position>
              <LatitudeDegrees>42.79036863707005977630615234375</LatitudeDegrees>
              <LongitudeDegrees>-0.13328894041478633880615234375</LongitudeDegrees>
            </Position>
            <AltitudeMeters>2419.60009765625</AltitudeMeters>
            <DistanceMeters>13104.031231085</DistanceMeters>
          </Trackpoint>
          <Trackpoint>
            <Time>2022-07-09T11:58:42.000Z</Time>
            <Position>
              <LatitudeDegrees>42.79035103507339954376220703125</LatitudeDegrees>
              <LongitudeDegrees>-0.1332935504615306854248046875</LongitudeDegrees>
            </Position>
            <AltitudeMeters>2419.800048828125</AltitudeMeters>
            <DistanceMeters>13106.026792087</DistanceMeters>
          </Trackpoint>
          <Trackpoint>
            <Time>2022-07-09T11:58:45.000Z</Time>
            <Position>
              <LatitudeDegrees>42.7903353609144687652587890625</LatitudeDegrees>
              <LongitudeDegrees>-0.1332935504615306854248046875</LongitudeDegrees>
            </Position>
            <AltitudeMeters>2420.199951171875</AltitudeMeters>
            <DistanceMeters>13107.773836974</DistanceMeters>
          </Trackpoint>
          <Trackpoint>
            <Time>2022-07-09T11:58:49.000Z</Time>
            <Position>
              <LatitudeDegrees>42.790362350642681121826171875</LatitudeDegrees>
              <LongitudeDegrees>-0.13325407169759273529052734375</LongitudeDegrees>
            </Position>
            <AltitudeMeters>2420.800048828125</AltitudeMeters>
            <DistanceMeters>13112.180044454</DistanceMeters>
          </Trackpoint>
          <Trackpoint>
            <Time>2022-07-09T11:58:51.000Z</Time>
            <Position>
              <LatitudeDegrees>42.7903873287141323089599609375</LatitudeDegrees>
              <LongitudeDegrees>-0.13324803672730922698974609375</LongitudeDegrees>
            </Position>
            <AltitudeMeters>2421.199951171875</AltitudeMeters>
            <DistanceMeters>13115.002193887</DistanceMeters>
          </Trackpoint>
          <Trackpoint>
            <Time>2022-07-09T11:58:53.000Z</Time>
            <Position>
              <LatitudeDegrees>42.7904067747294902801513671875</LatitudeDegrees>
              <LongitudeDegrees>-0.13324200175702571868896484375</LongitudeDegrees>
            </Position>
            <AltitudeMeters>2422</AltitudeMeters>
            <DistanceMeters>13117.222649187</DistanceMeters>
          </Trackpoint>
          <Trackpoint>
            <Time>2022-07-09T11:58:56.000Z</Time>
            <Position>
              <LatitudeDegrees>42.79043653048574924468994140625</LatitudeDegrees>
              <LongitudeDegrees>-0.1332097314298152923583984375</LongitudeDegrees>
            </Position>
            <AltitudeMeters>2423.199951171875</AltitudeMeters>
            <DistanceMeters>13121.456406589</DistanceMeters>
          </Trackpoint>
          <Trackpoint>
            <Time>2022-07-09T11:58:57.000Z</Time>
            <Position>
              <LatitudeDegrees>42.79044290073215961456298828125</LatitudeDegrees>
              <LongitudeDegrees>-0.13319917023181915283203125</LongitudeDegrees>
            </Position>
            <AltitudeMeters>2423.39990234375</AltitudeMeters>
            <DistanceMeters>13122.572717724</DistanceMeters>
          </Trackpoint>
          <Trackpoint>
            <Time>2022-07-09T11:58:58.000Z</Time>
            <Position>
              <LatitudeDegrees>42.790448181331157684326171875</LatitudeDegrees>
              <LongitudeDegrees>-0.13319757767021656036376953125</LongitudeDegrees>
            </Position>
            <AltitudeMeters>2423.60009765625</AltitudeMeters>
            <DistanceMeters>13123.173719436</DistanceMeters>
          </Trackpoint>
          <Trackpoint>
            <Time>2022-07-09T11:59:00.000Z</Time>
            <Position>
              <LatitudeDegrees>42.79046335257589817047119140625</LatitudeDegrees>
              <LongitudeDegrees>-0.1331899501383304595947265625</LongitudeDegrees>
            </Position>
            <AltitudeMeters>2424.199951171875</AltitudeMeters>
            <DistanceMeters>13124.976724572</DistanceMeters>
          </Trackpoint>
          <Trackpoint>
            <Time>2022-07-09T11:59:04.000Z</Time>
            <Position>
              <LatitudeDegrees>42.7904983051121234893798828125</LatitudeDegrees>
              <LongitudeDegrees>-0.13317880220711231231689453125</LongitudeDegrees>
            </Position>
            <AltitudeMeters>2424.60009765625</AltitudeMeters>
            <DistanceMeters>13128.972369094</DistanceMeters>
          </Trackpoint>
          <Trackpoint>
            <Time>2022-07-09T11:59:07.000Z</Time>
            <Position>
              <LatitudeDegrees>42.790519930422306060791015625</LatitudeDegrees>
              <LongitudeDegrees>-0.13315114192664623260498046875</LongitudeDegrees>
            </Position>
            <AltitudeMeters>2425.39990234375</AltitudeMeters>
            <DistanceMeters>13132.272410335</DistanceMeters>
          </Trackpoint>
          <Trackpoint>
            <Time>2022-07-09T11:59:09.000Z</Time>
            <Position>
              <LatitudeDegrees>42.7905291505157947540283203125</LatitudeDegrees>
              <LongitudeDegrees>-0.1331220567226409912109375</LongitudeDegrees>
            </Position>
            <AltitudeMeters>2426.60009765625</AltitudeMeters>
            <DistanceMeters>13134.859162477</DistanceMeters>
          </Trackpoint>
          <Trackpoint>
            <Time>2022-07-09T11:59:11.000Z</Time>
            <Position>
              <LatitudeDegrees>42.7905408851802349090576171875</LatitudeDegrees>
              <LongitudeDegrees>-0.13310638256371021270751953125</LongitudeDegrees>
            </Position>
            <AltitudeMeters>2427.199951171875</AltitudeMeters>
            <DistanceMeters>13136.687037824</DistanceMeters>
          </Trackpoint>
          <Trackpoint>
            <Time>2022-07-09T11:59:13.000Z</Time>
            <Position>
              <LatitudeDegrees>42.79054800979793071746826171875</LatitudeDegrees>
              <LongitudeDegrees>-0.1330910436809062957763671875</LongitudeDegrees>
            </Position>
            <AltitudeMeters>2427.39990234375</AltitudeMeters>
            <DistanceMeters>13138.171402555</DistanceMeters>
          </Trackpoint>
          <Trackpoint>
            <Time>2022-07-09T11:59:16.000Z</Time>
            <Position>
              <LatitudeDegrees>42.7905261330306529998779296875</LatitudeDegrees>
              <LongitudeDegrees>-0.133059024810791015625</LongitudeDegrees>
            </Position>
            <AltitudeMeters>2428</AltitudeMeters>
            <DistanceMeters>13141.742182293</DistanceMeters>
          </Trackpoint>
          <Trackpoint>
            <Time>2022-07-09T11:59:17.000Z</Time>
            <Position>
              <LatitudeDegrees>42.79050995595753192901611328125</LatitudeDegrees>
              <LongitudeDegrees>-0.1330521516501903533935546875</LongitudeDegrees>
            </Position>
            <AltitudeMeters>2428</AltitudeMeters>
            <DistanceMeters>13143.628408716</DistanceMeters>
          </Trackpoint>
          <Trackpoint>
            <Time>2022-07-09T11:59:18.000Z</Time>
            <Position>
              <LatitudeDegrees>42.7904967963695526123046875</LatitudeDegrees>
              <LongitudeDegrees>-0.1330496370792388916015625</LongitudeDegrees>
            </Position>
            <AltitudeMeters>2428.199951171875</AltitudeMeters>
            <DistanceMeters>13145.109728592</DistanceMeters>
          </Trackpoint>
          <Trackpoint>
            <Time>2022-07-09T11:59:20.000Z</Time>
            <Position>
              <LatitudeDegrees>42.79047760181128978729248046875</LatitudeDegrees>
              <LongitudeDegrees>-0.1330415904521942138671875</LongitudeDegrees>
            </Position>
            <AltitudeMeters>2428.39990234375</AltitudeMeters>
            <DistanceMeters>13147.34639181</DistanceMeters>
          </Trackpoint>
          <Trackpoint>
            <Time>2022-07-09T11:59:22.000Z</Time>
            <Position>
              <LatitudeDegrees>42.79045547358691692352294921875</LatitudeDegrees>
              <LongitudeDegrees>-0.13304150663316249847412109375</LongitudeDegrees>
            </Position>
            <AltitudeMeters>2428.39990234375</AltitudeMeters>
            <DistanceMeters>13149.809765791</DistanceMeters>
          </Trackpoint>
          <Trackpoint>
            <Time>2022-07-09T11:59:24.000Z</Time>
            <Position>
              <LatitudeDegrees>42.79043016023933887481689453125</LatitudeDegrees>
              <LongitudeDegrees>-0.1330471225082874298095703125</LongitudeDegrees>
            </Position>
            <AltitudeMeters>2428.39990234375</AltitudeMeters>
            <DistanceMeters>13152.663733022</DistanceMeters>
          </Trackpoint>
          <Trackpoint>
            <Time>2022-07-09T11:59:25.000Z</Time>
            <Position>
              <LatitudeDegrees>42.7904171682894229888916015625</LatitudeDegrees>
              <LongitudeDegrees>-0.1330523192882537841796875</LongitudeDegrees>
            </Position>
            <AltitudeMeters>2429</AltitudeMeters>
            <DistanceMeters>13154.172235346</DistanceMeters>
          </Trackpoint>
          <Trackpoint>
            <Time>2022-07-09T11:59:28.000Z</Time>
            <Position>
              <LatitudeDegrees>42.79038975946605205535888671875</LatitudeDegrees>
              <LongitudeDegrees>-0.133059024810791015625</LongitudeDegrees>
            </Position>
            <AltitudeMeters>2429.60009765625</AltitudeMeters>
            <DistanceMeters>13157.271912964</DistanceMeters>
          </Trackpoint>
          <Trackpoint>
            <Time>2022-07-09T11:59:29.000Z</Time>
            <Position>
              <LatitudeDegrees>42.790379114449024200439453125</LatitudeDegrees>
              <LongitudeDegrees>-0.13306103646755218505859375</LongitudeDegrees>
            </Position>
            <AltitudeMeters>2429.800048828125</AltitudeMeters>
            <DistanceMeters>13158.466380242</DistanceMeters>
          </Trackpoint>
          <Trackpoint>
            <Time>2022-07-09T11:59:30.000Z</Time>
            <Position>
              <LatitudeDegrees>42.79036964289844036102294921875</LatitudeDegrees>
              <LongitudeDegrees>-0.13306547887623310089111328125</LongitudeDegrees>
            </Position>
            <AltitudeMeters>2429.800048828125</AltitudeMeters>
            <DistanceMeters>13159.582691377</DistanceMeters>
          </Trackpoint>
          <Trackpoint>
            <Time>2022-07-09T11:59:31.000Z</Time>
            <Position>
              <LatitudeDegrees>42.7903574891388416290283203125</LatitudeDegrees>
              <LongitudeDegrees>-0.13307017274200916290283203125</LongitudeDegrees>
            </Position>
            <AltitudeMeters>2430.199951171875</AltitudeMeters>
            <DistanceMeters>13160.985744001</DistanceMeters>
          </Trackpoint>
          <Trackpoint>
            <Time>2022-07-09T11:59:35.000Z</Time>
            <Position>
              <LatitudeDegrees>42.790323793888092041015625</LatitudeDegrees>
              <LongitudeDegrees>-0.1330850087106227874755859375</LongitudeDegrees>
            </Position>
            <AltitudeMeters>2431.199951171875</AltitudeMeters>
            <DistanceMeters>13164.92677578</DistanceMeters>
          </Trackpoint>
          <Trackpoint>
            <Time>2022-07-09T11:59:37.000Z</Time>
            <Position>
              <LatitudeDegrees>42.7903112210333347320556640625</LatitudeDegrees>
              <LongitudeDegrees>-0.13308928348124027252197265625</LongitudeDegrees>
            </Position>
            <AltitudeMeters>2431.60009765625</AltitudeMeters>
            <DistanceMeters>13166.367927258</DistanceMeters>
          </Trackpoint>
          <Trackpoint>
            <Time>2022-07-09T11:59:40.000Z</Time>
            <Position>
              <LatitudeDegrees>42.7903036773204803466796875</LatitudeDegrees>
              <LongitudeDegrees>-0.1330739445984363555908203125</LongitudeDegrees>
            </Position>
            <AltitudeMeters>2432</AltitudeMeters>
            <DistanceMeters>13167.876429582</DistanceMeters>
          </Trackpoint>
          <Trackpoint>
            <Time>2022-07-09T11:59:41.000Z</Time>
            <Position>
              <LatitudeDegrees>42.7902983129024505615234375</LatitudeDegrees>
              <LongitudeDegrees>-0.13307000510394573211669921875</LongitudeDegrees>
            </Position>
            <AltitudeMeters>2432.199951171875</AltitudeMeters>
            <DistanceMeters>13168.548369924</DistanceMeters>
          </Trackpoint>
          <Trackpoint>
            <Time>2022-07-09T11:59:42.000Z</Time>
            <Position>
              <LatitudeDegrees>42.79029169119894504547119140625</LatitudeDegrees>
              <LongitudeDegrees>-0.133065395057201385498046875</LongitudeDegrees>
            </Position>
            <AltitudeMeters>2432.39990234375</AltitudeMeters>
            <DistanceMeters>13169.37132541</DistanceMeters>
          </Trackpoint>
          <Trackpoint>
            <Time>2022-07-09T11:59:43.000Z</Time>
            <Position>
              <LatitudeDegrees>42.79028515331447124481201171875</LatitudeDegrees>
              <LongitudeDegrees>-0.1330612041056156158447265625</LongitudeDegrees>
            </Position>
            <AltitudeMeters>2432.60009765625</AltitudeMeters>
            <DistanceMeters>13170.17765382</DistanceMeters>
          </Trackpoint>
          <Trackpoint>
            <Time>2022-07-09T11:59:44.000Z</Time>
            <Position>
              <LatitudeDegrees>42.7902770228683948516845703125</LatitudeDegrees>
              <LongitudeDegrees>-0.13305877335369586944580078125</LongitudeDegrees>
            </Position>
            <AltitudeMeters>2432.60009765625</AltitudeMeters>
            <DistanceMeters>13171.103859662</DistanceMeters>
          </Trackpoint>
          <Trackpoint>
            <Time>2022-07-09T11:59:46.000Z</Time>
            <Position>
              <LatitudeDegrees>42.790258415043354034423828125</LatitudeDegrees>
              <LongitudeDegrees>-0.13305366039276123046875</LongitudeDegrees>
            </Position>
            <AltitudeMeters>2433</AltitudeMeters>
            <DistanceMeters>13173.215933942</DistanceMeters>
          </Trackpoint>
          <Trackpoint>
            <Time>2022-07-09T11:59:49.000Z</Time>
            <Position>
              <LatitudeDegrees>42.7902327664196491241455078125</LatitudeDegrees>
              <LongitudeDegrees>-0.1330571807920932769775390625</LongitudeDegrees>
            </Position>
            <AltitudeMeters>2433.60009765625</AltitudeMeters>
            <DistanceMeters>13176.085677784</DistanceMeters>
          </Trackpoint>
          <Trackpoint>
            <Time>2022-07-09T11:59:50.000Z</Time>
            <Position>
              <LatitudeDegrees>42.79022329486906528472900390625</LatitudeDegrees>
              <LongitudeDegrees>-0.13305793516337871551513671875</LongitudeDegrees>
            </Position>
            <AltitudeMeters>2434</AltitudeMeters>
            <DistanceMeters>13177.143850491</DistanceMeters>
          </Trackpoint>
          <Trackpoint>
            <Time>2022-07-09T11:59:52.000Z</Time>
            <Position>
              <LatitudeDegrees>42.7901985682547092437744140625</LatitudeDegrees>
              <LongitudeDegrees>-0.13307050801813602447509765625</LongitudeDegrees>
            </Position>
            <AltitudeMeters>2434.39990234375</AltitudeMeters>
            <DistanceMeters>13180.082005198</DistanceMeters>
          </Trackpoint>
          <Trackpoint>
            <Time>2022-07-09T11:59:53.000Z</Time>
            <Position>
              <LatitudeDegrees>42.79018842615187168121337890625</LatitudeDegrees>
              <LongitudeDegrees>-0.1330776326358318328857421875</LongitudeDegrees>
            </Position>
            <AltitudeMeters>2434.39990234375</AltitudeMeters>
            <DistanceMeters>13181.353375987</DistanceMeters>
          </Trackpoint>
          <Trackpoint>
            <Time>2022-07-09T11:59:54.000Z</Time>
            <Position>
              <LatitudeDegrees>42.79018289409577846527099609375</LatitudeDegrees>
              <LongitudeDegrees>-0.133076794445514678955078125</LongitudeDegrees>
            </Position>
            <AltitudeMeters>2434.800048828125</AltitudeMeters>
            <DistanceMeters>13181.9837119</DistanceMeters>
          </Trackpoint>
          <Trackpoint>
            <Time>2022-07-09T11:59:55.000Z</Time>
            <Position>
              <LatitudeDegrees>42.79017803259193897247314453125</LatitudeDegrees>
              <LongitudeDegrees>-0.1330762915313243865966796875</LongitudeDegrees>
            </Position>
            <AltitudeMeters>2435</AltitudeMeters>
            <DistanceMeters>13182.529598814</DistanceMeters>
          </Trackpoint>
          <Trackpoint>
            <Time>2022-07-09T11:59:56.000Z</Time>
            <Position>
              <LatitudeDegrees>42.79017065651714801788330078125</LatitudeDegrees>
              <LongitudeDegrees>-0.1330786384642124176025390625</LongitudeDegrees>
            </Position>
            <AltitudeMeters>2435.60009765625</AltitudeMeters>
            <DistanceMeters>13183.379543586</DistanceMeters>
          </Trackpoint>
          <Trackpoint>
            <Time>2022-07-09T11:59:57.000Z</Time>
            <Position>
              <LatitudeDegrees>42.7901633642613887786865234375</LatitudeDegrees>
              <LongitudeDegrees>-0.13308257795870304107666015625</LongitudeDegrees>
            </Position>
            <AltitudeMeters>2436.199951171875</AltitudeMeters>
            <DistanceMeters>13184.250477809</DistanceMeters>
          </Trackpoint>
          <Trackpoint>
            <Time>2022-07-09T12:00:02.000Z</Time>
            <Position>
              <LatitudeDegrees>42.79011667706072330474853515625</LatitudeDegrees>
              <LongitudeDegrees>-0.13309934176504611968994140625</LongitudeDegrees>
            </Position>
            <AltitudeMeters>2437.199951171875</AltitudeMeters>
            <DistanceMeters>13189.624320426</DistanceMeters>
          </Trackpoint>
          <Trackpoint>
            <Time>2022-07-09T12:00:04.000Z</Time>
            <Position>
              <LatitudeDegrees>42.79010125435888767242431640625</LatitudeDegrees>
              <LongitudeDegrees>-0.13309431262314319610595703125</LongitudeDegrees>
            </Position>
            <AltitudeMeters>2437.800048828125</AltitudeMeters>
            <DistanceMeters>13191.389363307</DistanceMeters>
          </Trackpoint>
          <Trackpoint>
            <Time>2022-07-09T12:00:08.000Z</Time>
            <Position>
              <LatitudeDegrees>42.79006504453718662261962890625</LatitudeDegrees>
              <LongitudeDegrees>-0.133084170520305633544921875</LongitudeDegrees>
            </Position>
            <AltitudeMeters>2438</AltitudeMeters>
            <DistanceMeters>13195.503043321</DistanceMeters>
          </Trackpoint>
          <Trackpoint>
            <Time>2022-07-09T12:00:09.000Z</Time>
            <Position>
              <LatitudeDegrees>42.79005783610045909881591796875</LatitudeDegrees>
              <LongitudeDegrees>-0.133077800273895263671875</LongitudeDegrees>
            </Position>
            <AltitudeMeters>2438.199951171875</AltitudeMeters>
            <DistanceMeters>13196.458049981</DistanceMeters>
          </Trackpoint>
          <Trackpoint>
            <Time>2022-07-09T12:00:10.000Z</Time>
            <Position>
              <LatitudeDegrees>42.790049202740192413330078125</LatitudeDegrees>
              <LongitudeDegrees>-0.13307604007422924041748046875</LongitudeDegrees>
            </Position>
            <AltitudeMeters>2438.39990234375</AltitudeMeters>
            <DistanceMeters>13197.427136123</DistanceMeters>
          </Trackpoint>
          <Trackpoint>
            <Time>2022-07-09T12:00:16.000Z</Time>
            <Position>
              <LatitudeDegrees>42.7899766154587268829345703125</LatitudeDegrees>
              <LongitudeDegrees>-0.13308249413967132568359375</LongitudeDegrees>
            </Position>
            <AltitudeMeters>2438.800048828125</AltitudeMeters>
            <DistanceMeters>13205.522832191</DistanceMeters>
          </Trackpoint>
          <Trackpoint>
            <Time>2022-07-09T12:00:18.000Z</Time>
            <Position>
              <LatitudeDegrees>42.78995222412049770355224609375</LatitudeDegrees>
              <LongitudeDegrees>-0.1330845057964324951171875</LongitudeDegrees>
            </Position>
            <AltitudeMeters>2438.800048828125</AltitudeMeters>
            <DistanceMeters>13208.242323432</DistanceMeters>
          </Trackpoint>
          <Trackpoint>
            <Time>2022-07-09T12:00:20.000Z</Time>
            <Position>
              <LatitudeDegrees>42.789930514991283416748046875</LatitudeDegrees>
              <LongitudeDegrees>-0.13308576308190822601318359375</LongitudeDegrees>
            </Position>
            <AltitudeMeters>2439.199951171875</AltitudeMeters>
            <DistanceMeters>13210.659441439</DistanceMeters>
          </Trackpoint>
          <Trackpoint>
            <Time>2022-07-09T12:00:23.000Z</Time>
            <Position>
              <LatitudeDegrees>42.7899025194346904754638671875</LatitudeDegrees>
              <LongitudeDegrees>-0.1330833323299884796142578125</LongitudeDegrees>
            </Position>
            <AltitudeMeters>2439.60009765625</AltitudeMeters>
            <DistanceMeters>13213.77944503</DistanceMeters>
          </Trackpoint>
          <Trackpoint>
            <Time>2022-07-09T12:00:24.000Z</Time>
            <Position>
              <LatitudeDegrees>42.78989388607442378997802734375</LatitudeDegrees>
              <LongitudeDegrees>-0.13308811001479625701904296875</LongitudeDegrees>
            </Position>
            <AltitudeMeters>2439.800048828125</AltitudeMeters>
            <DistanceMeters>13214.82041053</DistanceMeters>
          </Trackpoint>
          <Trackpoint>
            <Time>2022-07-09T12:00:26.000Z</Time>
            <Position>
              <LatitudeDegrees>42.78987829573452472686767578125</LatitudeDegrees>
              <LongitudeDegrees>-0.13309431262314319610595703125</LongitudeDegrees>
            </Position>
            <AltitudeMeters>2440.60009765625</AltitudeMeters>
            <DistanceMeters>13216.628417077</DistanceMeters>
          </Trackpoint>
          <Trackpoint>
            <Time>2022-07-09T12:00:29.000Z</Time>
            <Position>
              <LatitudeDegrees>42.78986941091716289520263671875</LatitudeDegrees>
              <LongitudeDegrees>-0.1330957375466823577880859375</LongitudeDegrees>
            </Position>
            <AltitudeMeters>2441.199951171875</AltitudeMeters>
            <DistanceMeters>13217.625065665</DistanceMeters>
          </Trackpoint>
          <Trackpoint>
            <Time>2022-07-09T12:00:31.000Z</Time>
            <Position>
              <LatitudeDegrees>42.78987376950681209564208984375</LatitudeDegrees>
              <LongitudeDegrees>-0.13308785855770111083984375</LongitudeDegrees>
            </Position>
            <AltitudeMeters>2441.60009765625</AltitudeMeters>
            <DistanceMeters>13218.431394075</DistanceMeters>
          </Trackpoint>
          <Trackpoint>
            <Time>2022-07-09T12:00:37.000Z</Time>
            <Position>
              <LatitudeDegrees>42.78990427963435649871826171875</LatitudeDegrees>
              <LongitudeDegrees>-0.13304536230862140655517578125</LongitudeDegrees>
            </Position>
            <AltitudeMeters>2442</AltitudeMeters>
            <DistanceMeters>13223.287993674</DistanceMeters>
          </Trackpoint>
          <Trackpoint>
            <Time>2022-07-09T12:00:38.000Z</Time>
            <Position>
              <LatitudeDegrees>42.78991014696657657623291015625</LatitudeDegrees>
              <LongitudeDegrees>-0.13304301537573337554931640625</LongitudeDegrees>
            </Position>
            <AltitudeMeters>2442.199951171875</AltitudeMeters>
            <DistanceMeters>13223.966620154</DistanceMeters>
          </Trackpoint>
          <Trackpoint>
            <Time>2022-07-09T12:00:40.000Z</Time>
            <Position>
              <LatitudeDegrees>42.789921127259731292724609375</LatitudeDegrees>
              <LongitudeDegrees>-0.1330283470451831817626953125</LongitudeDegrees>
            </Position>
            <AltitudeMeters>2442.800048828125</AltitudeMeters>
            <DistanceMeters>13225.677101013</DistanceMeters>
          </Trackpoint>
          <Trackpoint>
            <Time>2022-07-09T12:00:44.000Z</Time>
            <Position>
              <LatitudeDegrees>42.7899511344730854034423828125</LatitudeDegrees>
              <LongitudeDegrees>-0.132969506084918975830078125</LongitudeDegrees>
            </Position>
            <AltitudeMeters>2444</AltitudeMeters>
            <DistanceMeters>13231.530314662</DistanceMeters>
          </Trackpoint>
          <Trackpoint>
            <Time>2022-07-09T12:00:50.000Z</Time>
            <Position>
              <LatitudeDegrees>42.78999530710279941558837890625</LatitudeDegrees>
              <LongitudeDegrees>-0.13288593851029872894287109375</LongitudeDegrees>
            </Position>
            <AltitudeMeters>2445</AltitudeMeters>
            <DistanceMeters>13239.943265344</DistanceMeters>
          </Trackpoint>
          <Trackpoint>
            <Time>2022-07-09T12:00:56.000Z</Time>
            <Position>
              <LatitudeDegrees>42.7900433354079723358154296875</LatitudeDegrees>
              <LongitudeDegrees>-0.13280756771564483642578125</LongitudeDegrees>
            </Position>
            <AltitudeMeters>2446</AltitudeMeters>
            <DistanceMeters>13248.282908548</DistanceMeters>
          </Trackpoint>
          <Trackpoint>
            <Time>2022-07-09T12:01:02.000Z</Time>
            <Position>
              <LatitudeDegrees>42.79009421356022357940673828125</LatitudeDegrees>
              <LongitudeDegrees>-0.132740847766399383544921875</LongitudeDegrees>
            </Position>
            <AltitudeMeters>2446.800048828125</AltitudeMeters>
            <DistanceMeters>13256.142025729</DistanceMeters>
          </Trackpoint>
          <Trackpoint>
            <Time>2022-07-09T12:01:04.000Z</Time>
            <Position>
              <LatitudeDegrees>42.790103852748870849609375</LatitudeDegrees>
              <LongitudeDegrees>-0.13272953219711780548095703125</LongitudeDegrees>
            </Position>
            <AltitudeMeters>2447</AltitudeMeters>
            <DistanceMeters>13257.557891885</DistanceMeters>
          </Trackpoint>
          <Trackpoint>
            <Time>2022-07-09T12:01:06.000Z</Time>
            <Position>
              <LatitudeDegrees>42.7900971472263336181640625</LatitudeDegrees>
              <LongitudeDegrees>-0.1327125169336795806884765625</LongitudeDegrees>
            </Position>
            <AltitudeMeters>2447</AltitudeMeters>
            <DistanceMeters>13259.133731668</DistanceMeters>
          </Trackpoint>
          <Trackpoint>
            <Time>2022-07-09T12:01:09.000Z</Time>
            <Position>
              <LatitudeDegrees>42.79007099568843841552734375</LatitudeDegrees>
              <LongitudeDegrees>-0.1326836831867694854736328125</LongitudeDegrees>
            </Position>
            <AltitudeMeters>2447.60009765625</AltitudeMeters>
            <DistanceMeters>13262.877350057</DistanceMeters>
          </Trackpoint>
          <Trackpoint>
            <Time>2022-07-09T12:01:13.000Z</Time>
            <Position>
              <LatitudeDegrees>42.790034115314483642578125</LatitudeDegrees>
              <LongitudeDegrees>-0.1326531730592250823974609375</LongitudeDegrees>
            </Position>
            <AltitudeMeters>2448.199951171875</AltitudeMeters>
            <DistanceMeters>13267.679726056</DistanceMeters>
          </Trackpoint>
          <Trackpoint>
            <Time>2022-07-09T12:01:16.000Z</Time>
            <Position>
              <LatitudeDegrees>42.79001039452850818634033203125</LatitudeDegrees>
              <LongitudeDegrees>-0.13265174813568592071533203125</LongitudeDegrees>
            </Position>
            <AltitudeMeters>2448.60009765625</AltitudeMeters>
            <DistanceMeters>13270.32174216</DistanceMeters>
          </Trackpoint>
          <Trackpoint>
            <Time>2022-07-09T12:01:20.000Z</Time>
            <Position>
              <LatitudeDegrees>42.7899846620857715606689453125</LatitudeDegrees>
              <LongitudeDegrees>-0.13266029767692089080810546875</LongitudeDegrees>
            </Position>
            <AltitudeMeters>2449.199951171875</AltitudeMeters>
            <DistanceMeters>13273.269102596</DistanceMeters>
          </Trackpoint>
          <Trackpoint>
            <Time>2022-07-09T12:01:22.000Z</Time>
            <Position>
              <LatitudeDegrees>42.7899685688316822052001953125</LatitudeDegrees>
              <LongitudeDegrees>-0.13265862129628658294677734375</LongitudeDegrees>
            </Position>
            <AltitudeMeters>2449.199951171875</AltitudeMeters>
            <DistanceMeters>13275.067092408</DistanceMeters>
          </Trackpoint>
          <Trackpoint>
            <Time>2022-07-09T12:01:23.000Z</Time>
            <Position>
              <LatitudeDegrees>42.78995758853852748870849609375</LatitudeDegrees>
              <LongitudeDegrees>-0.132657699286937713623046875</LongitudeDegrees>
            </Position>
            <AltitudeMeters>2449.39990234375</AltitudeMeters>
            <DistanceMeters>13276.295108193</DistanceMeters>
          </Trackpoint>
          <Trackpoint>
            <Time>2022-07-09T12:01:24.000Z</Time>
            <Position>
              <LatitudeDegrees>42.7899477817118167877197265625</LatitudeDegrees>
              <LongitudeDegrees>-0.132653005421161651611328125</LongitudeDegrees>
            </Position>
            <AltitudeMeters>2449.39990234375</AltitudeMeters>
            <DistanceMeters>13277.451158068</DistanceMeters>
          </Trackpoint>
          <Trackpoint>
            <Time>2022-07-09T12:01:30.000Z</Time>
            <Position>
              <LatitudeDegrees>42.7899182774126529693603515625</LatitudeDegrees>
              <LongitudeDegrees>-0.13260212726891040802001953125</LongitudeDegrees>
            </Position>
            <AltitudeMeters>2450.199951171875</AltitudeMeters>
            <DistanceMeters>13282.747991793</DistanceMeters>
          </Trackpoint>
          <Trackpoint>
            <Time>2022-07-09T12:01:31.000Z</Time>
            <Position>
              <LatitudeDegrees>42.78992121107876300811767578125</LatitudeDegrees>
              <LongitudeDegrees>-0.13259391300380229949951171875</LongitudeDegrees>
            </Position>
            <AltitudeMeters>2450.199951171875</AltitudeMeters>
            <DistanceMeters>13283.49623289</DistanceMeters>
          </Trackpoint>
          <Trackpoint>
            <Time>2022-07-09T12:01:33.000Z</Time>
            <Position>
              <LatitudeDegrees>42.78992774896323680877685546875</LatitudeDegrees>
              <LongitudeDegrees>-0.13257555663585662841796875</LongitudeDegrees>
            </Position>
            <AltitudeMeters>2450.39990234375</AltitudeMeters>
            <DistanceMeters>13285.163944959</DistanceMeters>
          </Trackpoint>
          <Trackpoint>
            <Time>2022-07-09T12:01:37.000Z</Time>
            <Position>
              <LatitudeDegrees>42.78992305509746074676513671875</LatitudeDegrees>
              <LongitudeDegrees>-0.13254999183118343353271484375</LongitudeDegrees>
            </Position>
            <AltitudeMeters>2451.199951171875</AltitudeMeters>
            <DistanceMeters>13287.31625284</DistanceMeters>
          </Trackpoint>
          <Trackpoint>
            <Time>2022-07-09T12:01:38.000Z</Time>
            <Position>
              <LatitudeDegrees>42.78991769067943096160888671875</LatitudeDegrees>
              <LongitudeDegrees>-0.132547058165073394775390625</LongitudeDegrees>
            </Position>
            <AltitudeMeters>2451.39990234375</AltitudeMeters>
            <DistanceMeters>13287.960755374</DistanceMeters>
          </Trackpoint>
          <Trackpoint>
            <Time>2022-07-09T12:01:39.000Z</Time>
            <Position>
              <LatitudeDegrees>42.7899109013378620147705078125</LatitudeDegrees>
              <LongitudeDegrees>-0.13254060409963130950927734375</LongitudeDegrees>
            </Position>
            <AltitudeMeters>2451.60009765625</AltitudeMeters>
            <DistanceMeters>13288.882073552</DistanceMeters>
          </Trackpoint>
          <Trackpoint>
            <Time>2022-07-09T12:01:42.000Z</Time>
            <Position>
              <LatitudeDegrees>42.78988416306674480438232421875</LatitudeDegrees>
              <LongitudeDegrees>-0.13254462741315364837646484375</LongitudeDegrees>
            </Position>
            <AltitudeMeters>2452.199951171875</AltitudeMeters>
            <DistanceMeters>13291.876546112</DistanceMeters>
          </Trackpoint>
          <Trackpoint>
            <Time>2022-07-09T12:01:43.000Z</Time>
            <Position>
              <LatitudeDegrees>42.7898746915161609649658203125</LatitudeDegrees>
              <LongitudeDegrees>-0.1325482316315174102783203125</LongitudeDegrees>
            </Position>
            <AltitudeMeters>2452.39990234375</AltitudeMeters>
            <DistanceMeters>13292.976559859</DistanceMeters>
          </Trackpoint>
          <Trackpoint>
            <Time>2022-07-09T12:01:49.000Z</Time>
            <Position>
              <LatitudeDegrees>42.78981928713619709014892578125</LatitudeDegrees>
              <LongitudeDegrees>-0.1325596310198307037353515625</LongitudeDegrees>
            </Position>
            <AltitudeMeters>2453</AltitudeMeters>
            <DistanceMeters>13299.213672117</DistanceMeters>
          </Trackpoint>
          <Trackpoint>
            <Time>2022-07-09T12:01:50.000Z</Time>
            <Position>
              <LatitudeDegrees>42.78981082141399383544921875</LatitudeDegrees>
              <LongitudeDegrees>-0.1325613074004650115966796875</LongitudeDegrees>
            </Position>
            <AltitudeMeters>2453.199951171875</AltitudeMeters>
            <DistanceMeters>13300.163939261</DistanceMeters>
          </Trackpoint>
          <Trackpoint>
            <Time>2022-07-09T12:01:53.000Z</Time>
            <Position>
              <LatitudeDegrees>42.78979212976992130279541015625</LatitudeDegrees>
              <LongitudeDegrees>-0.1325722038745880126953125</LongitudeDegrees>
            </Position>
            <AltitudeMeters>2453.199951171875</AltitudeMeters>
            <DistanceMeters>13302.426692748</DistanceMeters>
          </Trackpoint>
          <Trackpoint>
            <Time>2022-07-09T12:01:54.000Z</Time>
            <Position>
              <LatitudeDegrees>42.78978726826608180999755859375</LatitudeDegrees>
              <LongitudeDegrees>-0.13258016668260097503662109375</LongitudeDegrees>
            </Position>
            <AltitudeMeters>2453.60009765625</AltitudeMeters>
            <DistanceMeters>13303.265945965</DistanceMeters>
          </Trackpoint>
          <Trackpoint>
            <Time>2022-07-09T12:01:57.000Z</Time>
            <Position>
              <LatitudeDegrees>42.78977570123970508575439453125</LatitudeDegrees>
              <LongitudeDegrees>-0.1326035521924495697021484375</LongitudeDegrees>
            </Position>
            <AltitudeMeters>2454.199951171875</AltitudeMeters>
            <DistanceMeters>13305.570221328</DistanceMeters>
          </Trackpoint>
          <Trackpoint>
            <Time>2022-07-09T12:01:58.000Z</Time>
            <Position>
              <LatitudeDegrees>42.7897714264690876007080078125</LatitudeDegrees>
              <LongitudeDegrees>-0.13260497711598873138427734375</LongitudeDegrees>
            </Position>
            <AltitudeMeters>2454.39990234375</AltitudeMeters>
            <DistanceMeters>13306.073055436</DistanceMeters>
          </Trackpoint>
          <Trackpoint>
            <Time>2022-07-09T12:02:00.000Z</Time>
            <Position>
              <LatitudeDegrees>42.78975826688110828399658203125</LatitudeDegrees>
              <LongitudeDegrees>-0.1326139457523822784423828125</LongitudeDegrees>
            </Position>
            <AltitudeMeters>2454.800048828125</AltitudeMeters>
            <DistanceMeters>13307.707956849</DistanceMeters>
          </Trackpoint>
          <Trackpoint>
            <Time>2022-07-09T12:02:06.000Z</Time>
            <Position>
              <LatitudeDegrees>42.78969657607376575469970703125</LatitudeDegrees>
              <LongitudeDegrees>-0.13262794353067874908447265625</LongitudeDegrees>
            </Position>
            <AltitudeMeters>2455.800048828125</AltitudeMeters>
            <DistanceMeters>13314.668947453</DistanceMeters>
          </Trackpoint>
          <Trackpoint>
            <Time>2022-07-09T12:02:12.000Z</Time>
            <Position>
              <LatitudeDegrees>42.7896559238433837890625</LatitudeDegrees>
              <LongitudeDegrees>-0.1325914822518825531005859375</LongitudeDegrees>
            </Position>
            <AltitudeMeters>2456.800048828125</AltitudeMeters>
            <DistanceMeters>13320.086303676</DistanceMeters>
          </Trackpoint>
          <Trackpoint>
            <Time>2022-07-09T12:02:13.000Z</Time>
            <Position>
              <LatitudeDegrees>42.789647541940212249755859375</LatitudeDegrees>
              <LongitudeDegrees>-0.132590644061565399169921875</LongitudeDegrees>
            </Position>
            <AltitudeMeters>2457</AltitudeMeters>
            <DistanceMeters>13321.027020154</DistanceMeters>
          </Trackpoint>
          <Trackpoint>
            <Time>2022-07-09T12:02:14.000Z</Time>
            <Position>
              <LatitudeDegrees>42.7896411716938018798828125</LatitudeDegrees>
              <LongitudeDegrees>-0.132587961852550506591796875</LongitudeDegrees>
            </Position>
            <AltitudeMeters>2457.39990234375</AltitudeMeters>
            <DistanceMeters>13321.763093918</DistanceMeters>
          </Trackpoint>
          <Trackpoint>
            <Time>2022-07-09T12:02:17.000Z</Time>
            <Position>
              <LatitudeDegrees>42.78961661271750926971435546875</LatitudeDegrees>
              <LongitudeDegrees>-0.1325800828635692596435546875</LongitudeDegrees>
            </Position>
            <AltitudeMeters>2458</AltitudeMeters>
            <DistanceMeters>13324.572415333</DistanceMeters>
          </Trackpoint>
          <Trackpoint>
            <Time>2022-07-09T12:02:21.000Z</Time>
            <Position>
              <LatitudeDegrees>42.78959163464605808258056640625</LatitudeDegrees>
              <LongitudeDegrees>-0.13258703984320163726806640625</LongitudeDegrees>
            </Position>
            <AltitudeMeters>2458.60009765625</AltitudeMeters>
            <DistanceMeters>13327.410518253</DistanceMeters>
          </Trackpoint>
          <Trackpoint>
            <Time>2022-07-09T12:02:24.000Z</Time>
            <Position>
              <LatitudeDegrees>42.78957386501133441925048828125</LatitudeDegrees>
              <LongitudeDegrees>-0.1325884647667407989501953125</LongitudeDegrees>
            </Position>
            <AltitudeMeters>2459.199951171875</AltitudeMeters>
            <DistanceMeters>13329.392457519</DistanceMeters>
          </Trackpoint>
          <Trackpoint>
            <Time>2022-07-09T12:02:29.000Z</Time>
            <Position>
              <LatitudeDegrees>42.7895400859415531158447265625</LatitudeDegrees>
              <LongitudeDegrees>-0.13258033432066440582275390625</LongitudeDegrees>
            </Position>
            <AltitudeMeters>2460</AltitudeMeters>
            <DistanceMeters>13333.21011955</DistanceMeters>
          </Trackpoint>
          <Trackpoint>
            <Time>2022-07-09T12:02:30.000Z</Time>
            <Position>
              <LatitudeDegrees>42.78953145258128643035888671875</LatitudeDegrees>
              <LongitudeDegrees>-0.132571868598461151123046875</LongitudeDegrees>
            </Position>
            <AltitudeMeters>2460.39990234375</AltitudeMeters>
            <DistanceMeters>13334.393192603</DistanceMeters>
          </Trackpoint>
          <Trackpoint>
            <Time>2022-07-09T12:02:31.000Z</Time>
            <Position>
              <LatitudeDegrees>42.78952474705874919891357421875</LatitudeDegrees>
              <LongitudeDegrees>-0.13256323523819446563720703125</LongitudeDegrees>
            </Position>
            <AltitudeMeters>2460.60009765625</AltitudeMeters>
            <DistanceMeters>13335.421063677</DistanceMeters>
          </Trackpoint>
          <Trackpoint>
            <Time>2022-07-09T12:02:36.000Z</Time>
            <Position>
              <LatitudeDegrees>42.78951108455657958984375</LatitudeDegrees>
              <LongitudeDegrees>-0.13250942341983318328857421875</LongitudeDegrees>
            </Position>
            <AltitudeMeters>2461.199951171875</AltitudeMeters>
            <DistanceMeters>13340.072521852</DistanceMeters>
          </Trackpoint>
          <Trackpoint>
            <Time>2022-07-09T12:02:37.000Z</Time>
            <Position>
              <LatitudeDegrees>42.78950613923370838165283203125</LatitudeDegrees>
              <LongitudeDegrees>-0.13250271789729595184326171875</LongitudeDegrees>
            </Position>
            <AltitudeMeters>2461.60009765625</AltitudeMeters>
            <DistanceMeters>13340.844522529</DistanceMeters>
          </Trackpoint>
          <Trackpoint>
            <Time>2022-07-09T12:02:38.000Z</Time>
            <Position>
              <LatitudeDegrees>42.78949658386409282684326171875</LatitudeDegrees>
              <LongitudeDegrees>-0.132501460611820220947265625</LongitudeDegrees>
            </Position>
            <AltitudeMeters>2462</AltitudeMeters>
            <DistanceMeters>13341.911194752</DistanceMeters>
          </Trackpoint>
          <Trackpoint>
            <Time>2022-07-09T12:02:40.000Z</Time>
            <Position>
              <LatitudeDegrees>42.7894747070968151092529296875</LatitudeDegrees>
              <LongitudeDegrees>-0.1324959285557270050048828125</LongitudeDegrees>
            </Position>
            <AltitudeMeters>2462.199951171875</AltitudeMeters>
            <DistanceMeters>13344.389188292</DistanceMeters>
          </Trackpoint>
          <Trackpoint>
            <Time>2022-07-09T12:02:41.000Z</Time>
            <Position>
              <LatitudeDegrees>42.78946490027010440826416015625</LatitudeDegrees>
              <LongitudeDegrees>-0.132494755089282989501953125</LongitudeDegrees>
            </Position>
            <AltitudeMeters>2462.199951171875</AltitudeMeters>
            <DistanceMeters>13345.489202039</DistanceMeters>
          </Trackpoint>
          <Trackpoint>
            <Time>2022-07-09T12:02:42.000Z</Time>
            <Position>
              <LatitudeDegrees>42.7894552610814571380615234375</LatitudeDegrees>
              <LongitudeDegrees>-0.13249249197542667388916015625</LongitudeDegrees>
            </Position>
            <AltitudeMeters>2462.199951171875</AltitudeMeters>
            <DistanceMeters>13346.572673283</DistanceMeters>
          </Trackpoint>
          <Trackpoint>
            <Time>2022-07-09T12:02:44.000Z</Time>
            <Position>
              <LatitudeDegrees>42.7894307859241962432861328125</LatitudeDegrees>
              <LongitudeDegrees>-0.1324863731861114501953125</LongitudeDegrees>
            </Position>
            <AltitudeMeters>2462.60009765625</AltitudeMeters>
            <DistanceMeters>13349.339892976</DistanceMeters>
          </Trackpoint>
          <Trackpoint>
            <Time>2022-07-09T12:02:49.000Z</Time>
            <Position>
              <LatitudeDegrees>42.78936448507010936737060546875</LatitudeDegrees>
              <LongitudeDegrees>-0.132482685148715972900390625</LongitudeDegrees>
            </Position>
            <AltitudeMeters>2463.39990234375</AltitudeMeters>
            <DistanceMeters>13356.725125655</DistanceMeters>
          </Trackpoint>
          <Trackpoint>
            <Time>2022-07-09T12:02:50.000Z</Time>
            <Position>
              <LatitudeDegrees>42.7893514931201934814453125</LatitudeDegrees>
              <LongitudeDegrees>-0.1324949227273464202880859375</LongitudeDegrees>
            </Position>
            <AltitudeMeters>2463.800048828125</AltitudeMeters>
            <DistanceMeters>13358.482477681</DistanceMeters>
          </Trackpoint>
          <Trackpoint>
            <Time>2022-07-09T12:02:56.000Z</Time>
            <Position>
              <LatitudeDegrees>42.78931503184139728546142578125</LatitudeDegrees>
              <LongitudeDegrees>-0.13250472955405712127685546875</LongitudeDegrees>
            </Position>
            <AltitudeMeters>2464.39990234375</AltitudeMeters>
            <DistanceMeters>13362.619142383</DistanceMeters>
          </Trackpoint>
          <Trackpoint>
            <Time>2022-07-09T12:02:57.000Z</Time>
            <Position>
              <LatitudeDegrees>42.78931151144206523895263671875</LatitudeDegrees>
              <LongitudeDegrees>-0.132504813373088836669921875</LongitudeDegrees>
            </Position>
            <AltitudeMeters>2464.39990234375</AltitudeMeters>
            <DistanceMeters>13362.999249241</DistanceMeters>
          </Trackpoint>
          <Trackpoint>
            <Time>2022-07-09T12:02:59.000Z</Time>
            <Position>
              <LatitudeDegrees>42.78931117616593837738037109375</LatitudeDegrees>
              <LongitudeDegrees>-0.13250757940113544464111328125</LongitudeDegrees>
            </Position>
            <AltitudeMeters>2464.800048828125</AltitudeMeters>
            <DistanceMeters>13363.232016203</DistanceMeters>
          </Trackpoint>
          <Trackpoint>
            <Time>2022-07-09T12:03:02.000Z</Time>
            <Position>
              <LatitudeDegrees>42.78930832631886005401611328125</LatitudeDegrees>
              <LongitudeDegrees>-0.132499448955059051513671875</LongitudeDegrees>
            </Position>
            <AltitudeMeters>2465.39990234375</AltitudeMeters>
            <DistanceMeters>13363.974198568</DistanceMeters>
          </Trackpoint>
          <Trackpoint>
            <Time>2022-07-09T12:03:04.000Z</Time>
            <Position>
              <LatitudeDegrees>42.7893033809959888458251953125</LatitudeDegrees>
              <LongitudeDegrees>-0.13250288553535938262939453125</LongitudeDegrees>
            </Position>
            <AltitudeMeters>2466</AltitudeMeters>
            <DistanceMeters>13364.590042063</DistanceMeters>
          </Trackpoint>
          <Trackpoint>
            <Time>2022-07-09T12:03:05.000Z</Time>
            <Position>
              <LatitudeDegrees>42.78929759748280048370361328125</LatitudeDegrees>
              <LongitudeDegrees>-0.13251042924821376800537109375</LongitudeDegrees>
            </Position>
            <AltitudeMeters>2466.199951171875</AltitudeMeters>
            <DistanceMeters>13365.481471661</DistanceMeters>
          </Trackpoint>
          <Trackpoint>
            <Time>2022-07-09T12:03:09.000Z</Time>
            <Position>
              <LatitudeDegrees>42.78927044011652469635009765625</LatitudeDegrees>
              <LongitudeDegrees>-0.1325535960495471954345703125</LongitudeDegrees>
            </Position>
            <AltitudeMeters>2467.199951171875</AltitudeMeters>
            <DistanceMeters>13370.126130165</DistanceMeters>
          </Trackpoint>
          <Trackpoint>
            <Time>2022-07-09T12:03:11.000Z</Time>
            <Position>
              <LatitudeDegrees>42.78925359249114990234375</LatitudeDegrees>
              <LongitudeDegrees>-0.13256482779979705810546875</LongitudeDegrees>
            </Position>
            <AltitudeMeters>2467.800048828125</AltitudeMeters>
            <DistanceMeters>13372.214557067</DistanceMeters>
          </Trackpoint>
          <Trackpoint>
            <Time>2022-07-09T12:03:13.000Z</Time>
            <Position>
              <LatitudeDegrees>42.78923020698130130767822265625</LatitudeDegrees>
              <LongitudeDegrees>-0.13257555663585662841796875</LongitudeDegrees>
            </Position>
            <AltitudeMeters>2468.199951171875</AltitudeMeters>
            <DistanceMeters>13374.962127613</DistanceMeters>
          </Trackpoint>
          <Trackpoint>
            <Time>2022-07-09T12:03:19.000Z</Time>
            <Position>
              <LatitudeDegrees>42.7891930751502513885498046875</LatitudeDegrees>
              <LongitudeDegrees>-0.1326017081737518310546875</LongitudeDegrees>
            </Position>
            <AltitudeMeters>2469.199951171875</AltitudeMeters>
            <DistanceMeters>13379.613585789</DistanceMeters>
          </Trackpoint>
          <Trackpoint>
            <Time>2022-07-09T12:03:20.000Z</Time>
            <Position>
              <LatitudeDegrees>42.78918989002704620361328125</LatitudeDegrees>
              <LongitudeDegrees>-0.1326022110879421234130859375</LongitudeDegrees>
            </Position>
            <AltitudeMeters>2469.39990234375</AltitudeMeters>
            <DistanceMeters>13379.969143196</DistanceMeters>
          </Trackpoint>
          <Trackpoint>
            <Time>2022-07-09T12:03:24.000Z</Time>
            <Position>
              <LatitudeDegrees>42.7891555242240428924560546875</LatitudeDegrees>
              <LongitudeDegrees>-0.13260615058243274688720703125</LongitudeDegrees>
            </Position>
            <AltitudeMeters>2469.60009765625</AltitudeMeters>
            <DistanceMeters>13383.805681298</DistanceMeters>
          </Trackpoint>
          <Trackpoint>
            <Time>2022-07-09T12:03:25.000Z</Time>
            <Position>
              <LatitudeDegrees>42.7891401015222072601318359375</LatitudeDegrees>
              <LongitudeDegrees>-0.13260078616440296173095703125</LongitudeDegrees>
            </Position>
            <AltitudeMeters>2469.60009765625</AltitudeMeters>
            <DistanceMeters>13385.575832852</DistanceMeters>
          </Trackpoint>
          <Trackpoint>
            <Time>2022-07-09T12:03:28.000Z</Time>
            <Position>
              <LatitudeDegrees>42.78910414315760135650634765625</LatitudeDegrees>
              <LongitudeDegrees>-0.13260011561214923858642578125</LongitudeDegrees>
            </Position>
            <AltitudeMeters>2469.800048828125</AltitudeMeters>
            <DistanceMeters>13389.579379491</DistanceMeters>
          </Trackpoint>
          <Trackpoint>
            <Time>2022-07-09T12:03:32.000Z</Time>
            <Position>
              <LatitudeDegrees>42.78906458057463169097900390625</LatitudeDegrees>
              <LongitudeDegrees>-0.13260967098176479339599609375</LongitudeDegrees>
            </Position>
            <AltitudeMeters>2470.39990234375</AltitudeMeters>
            <DistanceMeters>13394.050686822</DistanceMeters>
          </Trackpoint>
          <Trackpoint>
            <Time>2022-07-09T12:03:33.000Z</Time>
            <Position>
              <LatitudeDegrees>42.78905083425343036651611328125</LatitudeDegrees>
              <LongitudeDegrees>-0.13261034153401851654052734375</LongitudeDegrees>
            </Position>
            <AltitudeMeters>2470.39990234375</AltitudeMeters>
            <DistanceMeters>13395.58294655</DistanceMeters>
          </Trackpoint>
          <Trackpoint>
            <Time>2022-07-09T12:03:35.000Z</Time>
            <Position>
              <LatitudeDegrees>42.789030633866786956787109375</LatitudeDegrees>
              <LongitudeDegrees>-0.13263012282550334930419921875</LongitudeDegrees>
            </Position>
            <AltitudeMeters>2470.800048828125</AltitudeMeters>
            <DistanceMeters>13398.353427551</DistanceMeters>
          </Trackpoint>
          <Trackpoint>
            <Time>2022-07-09T12:03:38.000Z</Time>
            <Position>
              <LatitudeDegrees>42.7890133671462535858154296875</LatitudeDegrees>
              <LongitudeDegrees>-0.1326618902385234832763671875</LongitudeDegrees>
            </Position>
            <AltitudeMeters>2471.199951171875</AltitudeMeters>
            <DistanceMeters>13401.581539727</DistanceMeters>
          </Trackpoint>
          <Trackpoint>
            <Time>2022-07-09T12:03:39.000Z</Time>
            <Position>
              <LatitudeDegrees>42.78901093639433383941650390625</LatitudeDegrees>
              <LongitudeDegrees>-0.132675468921661376953125</LongitudeDegrees>
            </Position>
            <AltitudeMeters>2471.199951171875</AltitudeMeters>
            <DistanceMeters>13402.721860299</DistanceMeters>
          </Trackpoint>
          <Trackpoint>
            <Time>2022-07-09T12:03:41.000Z</Time>
            <Position>
              <LatitudeDegrees>42.7890056557953357696533203125</LatitudeDegrees>
              <LongitudeDegrees>-0.13269516639411449432373046875</LongitudeDegrees>
            </Position>
            <AltitudeMeters>2471.60009765625</AltitudeMeters>
            <DistanceMeters>13404.434978755</DistanceMeters>
          </Trackpoint>
          <Trackpoint>
            <Time>2022-07-09T12:03:44.000Z</Time>
            <Position>
              <LatitudeDegrees>42.7890033088624477386474609375</LatitudeDegrees>
              <LongitudeDegrees>-0.132730789482593536376953125</LongitudeDegrees>
            </Position>
            <AltitudeMeters>2471.800048828125</AltitudeMeters>
            <DistanceMeters>13407.356180946</DistanceMeters>
          </Trackpoint>
          <Trackpoint>
            <Time>2022-07-09T12:03:47.000Z</Time>
            <Position>
              <LatitudeDegrees>42.78899869881570339202880859375</LatitudeDegrees>
              <LongitudeDegrees>-0.132761299610137939453125</LongitudeDegrees>
            </Position>
            <AltitudeMeters>2471.800048828125</AltitudeMeters>
            <DistanceMeters>13409.902471363</DistanceMeters>
          </Trackpoint>
          <Trackpoint>
            <Time>2022-07-09T12:03:52.000Z</Time>
            <Position>
              <LatitudeDegrees>42.78897397220134735107421875</LatitudeDegrees>
              <LongitudeDegrees>-0.13281821273267269134521484375</LongitudeDegrees>
            </Position>
            <AltitudeMeters>2471.60009765625</AltitudeMeters>
            <DistanceMeters>13415.304804846</DistanceMeters>
          </Trackpoint>
          <Trackpoint>
            <Time>2022-07-09T12:03:58.000Z</Time>
            <Position>
              <LatitudeDegrees>42.78890515677630901336669921875</LatitudeDegrees>
              <LongitudeDegrees>-0.13291418552398681640625</LongitudeDegrees>
            </Position>
            <AltitudeMeters>2470.39990234375</AltitudeMeters>
            <DistanceMeters>13426.264644118</DistanceMeters>
          </Trackpoint>
          <Trackpoint>
            <Time>2022-07-09T12:04:00.000Z</Time>
            <Position>
              <LatitudeDegrees>42.7888767421245574951171875</LatitudeDegrees>
              <LongitudeDegrees>-0.13293958269059658050537109375</LongitudeDegrees>
            </Position>
            <AltitudeMeters>2470.199951171875</AltitudeMeters>
            <DistanceMeters>13430.04904648</DistanceMeters>
          </Trackpoint>
          <Trackpoint>
            <Time>2022-07-09T12:04:06.000Z</Time>
            <Position>
              <LatitudeDegrees>42.78882385231554508209228515625</LatitudeDegrees>
              <LongitudeDegrees>-0.1330159418284893035888671875</LongitudeDegrees>
            </Position>
            <AltitudeMeters>2470.199951171875</AltitudeMeters>
            <DistanceMeters>13438.625700998</DistanceMeters>
          </Trackpoint>
          <Trackpoint>
            <Time>2022-07-09T12:04:07.000Z</Time>
            <Position>
              <LatitudeDegrees>42.7888172306120395660400390625</LatitudeDegrees>
              <LongitudeDegrees>-0.1330263353884220123291015625</LongitudeDegrees>
            </Position>
            <AltitudeMeters>2470.39990234375</AltitudeMeters>
            <DistanceMeters>13439.750072245</DistanceMeters>
          </Trackpoint>
          <Trackpoint>
            <Time>2022-07-09T12:04:13.000Z</Time>
            <Position>
              <LatitudeDegrees>42.788765095174312591552734375</LatitudeDegrees>
              <LongitudeDegrees>-0.133098922669887542724609375</LongitudeDegrees>
            </Position>
            <AltitudeMeters>2470.39990234375</AltitudeMeters>
            <DistanceMeters>13448.045746574</DistanceMeters>
          </Trackpoint>
          <Trackpoint>
            <Time>2022-07-09T12:04:14.000Z</Time>
            <Position>
              <LatitudeDegrees>42.78875830583274364471435546875</LatitudeDegrees>
              <LongitudeDegrees>-0.1331057958304882049560546875</LongitudeDegrees>
            </Position>
            <AltitudeMeters>2470.60009765625</AltitudeMeters>
            <DistanceMeters>13448.986463052</DistanceMeters>
          </Trackpoint>
          <Trackpoint>
            <Time>2022-07-09T12:04:15.000Z</Time>
            <Position>
              <LatitudeDegrees>42.78875092975795269012451171875</LatitudeDegrees>
              <LongitudeDegrees>-0.13310789130628108978271484375</LongitudeDegrees>
            </Position>
            <AltitudeMeters>2470.800048828125</AltitudeMeters>
            <DistanceMeters>13449.825716269</DistanceMeters>
          </Trackpoint>
          <Trackpoint>
            <Time>2022-07-09T12:04:19.000Z</Time>
            <Position>
              <LatitudeDegrees>42.78871907852590084075927734375</LatitudeDegrees>
              <LongitudeDegrees>-0.13308123685419559478759765625</LongitudeDegrees>
            </Position>
            <AltitudeMeters>2471.199951171875</AltitudeMeters>
            <DistanceMeters>13453.985238654</DistanceMeters>
          </Trackpoint>
          <Trackpoint>
            <Time>2022-07-09T12:04:20.000Z</Time>
            <Position>
              <LatitudeDegrees>42.788706757128238677978515625</LatitudeDegrees>
              <LongitudeDegrees>-0.13307402841746807098388671875</LongitudeDegrees>
            </Position>
            <AltitudeMeters>2471.39990234375</AltitudeMeters>
            <DistanceMeters>13455.475674431</DistanceMeters>
          </Trackpoint>
          <Trackpoint>
            <Time>2022-07-09T12:04:21.000Z</Time>
            <Position>
              <LatitudeDegrees>42.7886951901018619537353515625</LatitudeDegrees>
              <LongitudeDegrees>-0.13307352550327777862548828125</LongitudeDegrees>
            </Position>
            <AltitudeMeters>2471.60009765625</AltitudeMeters>
            <DistanceMeters>13456.764679499</DistanceMeters>
          </Trackpoint>
          <Trackpoint>
            <Time>2022-07-09T12:04:24.000Z</Time>
            <Position>
              <LatitudeDegrees>42.78867733664810657501220703125</LatitudeDegrees>
              <LongitudeDegrees>-0.133105628192424774169921875</LongitudeDegrees>
            </Position>
            <AltitudeMeters>2472.60009765625</AltitudeMeters>
            <DistanceMeters>13460.056501446</DistanceMeters>
          </Trackpoint>
          <Trackpoint>
            <Time>2022-07-09T12:04:26.000Z</Time>
            <Position>
              <LatitudeDegrees>42.78867012821137905120849609375</LatitudeDegrees>
              <LongitudeDegrees>-0.1331301033496856689453125</LongitudeDegrees>
            </Position>
            <AltitudeMeters>2473</AltitudeMeters>
            <DistanceMeters>13462.210906072</DistanceMeters>
          </Trackpoint>
          <Trackpoint>
            <Time>2022-07-09T12:04:27.000Z</Time>
            <Position>
              <LatitudeDegrees>42.78866409324109554290771484375</LatitudeDegrees>
              <LongitudeDegrees>-0.13313588686287403106689453125</LongitudeDegrees>
            </Position>
            <AltitudeMeters>2473.60009765625</AltitudeMeters>
            <DistanceMeters>13463.039329762</DistanceMeters>
          </Trackpoint>
          <Trackpoint>
            <Time>2022-07-09T12:04:30.000Z</Time>
            <Position>
              <LatitudeDegrees>42.78864431194961071014404296875</LatitudeDegrees>
              <LongitudeDegrees>-0.13315700925886631011962890625</LongitudeDegrees>
            </Position>
            <AltitudeMeters>2475</AltitudeMeters>
            <DistanceMeters>13465.837378417</DistanceMeters>
          </Trackpoint>
          <Trackpoint>
            <Time>2022-07-09T12:04:32.000Z</Time>
            <Position>
              <LatitudeDegrees>42.78862587176263332366943359375</LatitudeDegrees>
              <LongitudeDegrees>-0.13315784744918346405029296875</LongitudeDegrees>
            </Position>
            <AltitudeMeters>2475.60009765625</AltitudeMeters>
            <DistanceMeters>13467.893120564</DistanceMeters>
          </Trackpoint>
          <Trackpoint>
            <Time>2022-07-09T12:04:33.000Z</Time>
            <Position>
              <LatitudeDegrees>42.7886207588016986846923828125</LatitudeDegrees>
              <LongitudeDegrees>-0.133151896297931671142578125</LongitudeDegrees>
            </Position>
            <AltitudeMeters>2475.800048828125</AltitudeMeters>
            <DistanceMeters>13468.641361661</DistanceMeters>
          </Trackpoint>
          <Trackpoint>
            <Time>2022-07-09T12:04:34.000Z</Time>
            <Position>
              <LatitudeDegrees>42.7886164002120494842529296875</LatitudeDegrees>
              <LongitudeDegrees>-0.133141167461872100830078125</LongitudeDegrees>
            </Position>
            <AltitudeMeters>2475.800048828125</AltitudeMeters>
            <DistanceMeters>13469.642530221</DistanceMeters>
          </Trackpoint>
          <Trackpoint>
            <Time>2022-07-09T12:04:36.000Z</Time>
            <Position>
              <LatitudeDegrees>42.78860793448984622955322265625</LatitudeDegrees>
              <LongitudeDegrees>-0.13311761431396007537841796875</LongitudeDegrees>
            </Position>
            <AltitudeMeters>2476</AltitudeMeters>
            <DistanceMeters>13471.78432359</DistanceMeters>
          </Trackpoint>
          <Trackpoint>
            <Time>2022-07-09T12:04:37.000Z</Time>
            <Position>
              <LatitudeDegrees>42.78860424645245075225830078125</LatitudeDegrees>
              <LongitudeDegrees>-0.1331051252782344818115234375</LongitudeDegrees>
            </Position>
            <AltitudeMeters>2476</AltitudeMeters>
            <DistanceMeters>13472.884337337</DistanceMeters>
          </Trackpoint>
          <Trackpoint>
            <Time>2022-07-09T12:04:38.000Z</Time>
            <Position>
              <LatitudeDegrees>42.78859980404376983642578125</LatitudeDegrees>
              <LongitudeDegrees>-0.133090205490589141845703125</LongitudeDegrees>
            </Position>
            <AltitudeMeters>2476.199951171875</AltitudeMeters>
            <DistanceMeters>13474.197632658</DistanceMeters>
          </Trackpoint>
          <Trackpoint>
            <Time>2022-07-09T12:04:39.000Z</Time>
            <Position>
              <LatitudeDegrees>42.78859737329185009002685546875</LatitudeDegrees>
              <LongitudeDegrees>-0.13307201676070690155029296875</LongitudeDegrees>
            </Position>
            <AltitudeMeters>2476.39990234375</AltitudeMeters>
            <DistanceMeters>13475.706134983</DistanceMeters>
          </Trackpoint>
          <Trackpoint>
            <Time>2022-07-09T12:04:40.000Z</Time>
            <Position>
              <LatitudeDegrees>42.78859787620604038238525390625</LatitudeDegrees>
              <LongitudeDegrees>-0.13305240310728549957275390625</LongitudeDegrees>
            </Position>
            <AltitudeMeters>2476.60009765625</AltitudeMeters>
            <DistanceMeters>13477.307553638</DistanceMeters>
          </Trackpoint>
          <Trackpoint>
            <Time>2022-07-09T12:04:43.000Z</Time>
            <Position>
              <LatitudeDegrees>42.7885982953011989593505859375</LatitudeDegrees>
              <LongitudeDegrees>-0.1330115832388401031494140625</LongitudeDegrees>
            </Position>
            <AltitudeMeters>2477.199951171875</AltitudeMeters>
            <DistanceMeters>13480.642977776</DistanceMeters>
          </Trackpoint>
          <Trackpoint>
            <Time>2022-07-09T12:04:45.000Z</Time>
            <Position>
              <LatitudeDegrees>42.788591422140598297119140625</LatitudeDegrees>
              <LongitudeDegrees>-0.13298400677740573883056640625</LongitudeDegrees>
            </Position>
            <AltitudeMeters>2477.39990234375</AltitudeMeters>
            <DistanceMeters>13483.022443668</DistanceMeters>
          </Trackpoint>
          <Trackpoint>
            <Time>2022-07-09T12:04:46.000Z</Time>
            <Position>
              <LatitudeDegrees>42.78858312405645847320556640625</LatitudeDegrees>
              <LongitudeDegrees>-0.13297746889293193817138671875</LongitudeDegrees>
            </Position>
            <AltitudeMeters>2477.800048828125</AltitudeMeters>
            <DistanceMeters>13484.089115891</DistanceMeters>
          </Trackpoint>
          <Trackpoint>
            <Time>2022-07-09T12:04:49.000Z</Time>
            <Position>
              <LatitudeDegrees>42.78854624368250370025634765625</LatitudeDegrees>
              <LongitudeDegrees>-0.1329797320067882537841796875</LongitudeDegrees>
            </Position>
            <AltitudeMeters>2478.199951171875</AltitudeMeters>
            <DistanceMeters>13488.198403293</DistanceMeters>
          </Trackpoint>
          <Trackpoint>
            <Time>2022-07-09T12:04:52.000Z</Time>
            <Position>
              <LatitudeDegrees>42.78852897696197032928466796875</LatitudeDegrees>
              <LongitudeDegrees>-0.133005715906620025634765625</LongitudeDegrees>
            </Position>
            <AltitudeMeters>2479.39990234375</AltitudeMeters>
            <DistanceMeters>13491.061846921</DistanceMeters>
          </Trackpoint>
          <Trackpoint>
            <Time>2022-07-09T12:04:54.000Z</Time>
            <Position>
              <LatitudeDegrees>42.78852562420070171356201171875</LatitudeDegrees>
              <LongitudeDegrees>-0.1330162771046161651611328125</LongitudeDegrees>
            </Position>
            <AltitudeMeters>2480.39990234375</AltitudeMeters>
            <DistanceMeters>13492.002563399</DistanceMeters>
          </Trackpoint>
          <Trackpoint>
            <Time>2022-07-09T12:04:58.000Z</Time>
            <Position>
              <LatitudeDegrees>42.788528390228748321533203125</LatitudeDegrees>
              <LongitudeDegrees>-0.13303781859576702117919921875</LongitudeDegrees>
            </Position>
            <AltitudeMeters>2482</AltitudeMeters>
            <DistanceMeters>13493.79048036</DistanceMeters>
          </Trackpoint>
          <Trackpoint>
            <Time>2022-07-09T12:04:59.000Z</Time>
            <Position>
              <LatitudeDegrees>42.788528390228748321533203125</LatitudeDegrees>
              <LongitudeDegrees>-0.1330387406051158905029296875</LongitudeDegrees>
            </Position>
            <AltitudeMeters>2482.39990234375</AltitudeMeters>
            <DistanceMeters>13493.885507075</DistanceMeters>
          </Trackpoint>
          <Trackpoint>
            <Time>2022-07-09T12:05:03.000Z</Time>
            <Position>
              <LatitudeDegrees>42.78848874382674694061279296875</LatitudeDegrees>
              <LongitudeDegrees>-0.13301233761012554168701171875</LongitudeDegrees>
            </Position>
            <AltitudeMeters>2482.800048828125</AltitudeMeters>
            <DistanceMeters>13498.796650952</DistanceMeters>
          </Trackpoint>
          <Trackpoint>
            <Time>2022-07-09T12:05:05.000Z</Time>
            <Position>
              <LatitudeDegrees>42.78846762143075466156005859375</LatitudeDegrees>
              <LongitudeDegrees>-0.132999010384082794189453125</LongitudeDegrees>
            </Position>
            <AltitudeMeters>2482.800048828125</AltitudeMeters>
            <DistanceMeters>13501.386891635</DistanceMeters>
          </Trackpoint>
          <Trackpoint>
            <Time>2022-07-09T12:05:11.000Z</Time>
            <Position>
              <LatitudeDegrees>42.78841129504144191741943359375</LatitudeDegrees>
              <LongitudeDegrees>-0.13296539895236492156982421875</LongitudeDegrees>
            </Position>
            <AltitudeMeters>2483</AltitudeMeters>
            <DistanceMeters>13508.231454192</DistanceMeters>
          </Trackpoint>
          <Trackpoint>
            <Time>2022-07-09T12:05:13.000Z</Time>
            <Position>
              <LatitudeDegrees>42.78839134611189365386962890625</LatitudeDegrees>
              <LongitudeDegrees>-0.1329555921256542205810546875</LongitudeDegrees>
            </Position>
            <AltitudeMeters>2482.800048828125</AltitudeMeters>
            <DistanceMeters>13510.59378085</DistanceMeters>
          </Trackpoint>
          <Trackpoint>
            <Time>2022-07-09T12:05:17.000Z</Time>
            <Position>
              <LatitudeDegrees>42.78835446573793888092041015625</LatitudeDegrees>
              <LongitudeDegrees>-0.13294159434735774993896484375</LongitudeDegrees>
            </Position>
            <AltitudeMeters>2483.39990234375</AltitudeMeters>
            <DistanceMeters>13514.856234816</DistanceMeters>
          </Trackpoint>
          <Trackpoint>
            <Time>2022-07-09T12:05:19.000Z</Time>
            <Position>
              <LatitudeDegrees>42.7883324213325977325439453125</LatitudeDegrees>
              <LongitudeDegrees>-0.1329287700355052947998046875</LongitudeDegrees>
            </Position>
            <AltitudeMeters>2484</AltitudeMeters>
            <DistanceMeters>13517.527144846</DistanceMeters>
          </Trackpoint>
          <Trackpoint>
            <Time>2022-07-09T12:05:21.000Z</Time>
            <Position>
              <LatitudeDegrees>42.78831825591623783111572265625</LatitudeDegrees>
              <LongitudeDegrees>-0.1329053007066249847412109375</LongitudeDegrees>
            </Position>
            <AltitudeMeters>2484.60009765625</AltitudeMeters>
            <DistanceMeters>13520.008779818</DistanceMeters>
          </Trackpoint>
          <Trackpoint>
            <Time>2022-07-09T12:05:26.000Z</Time>
            <Position>
              <LatitudeDegrees>42.7882663719356060028076171875</LatitudeDegrees>
              <LongitudeDegrees>-0.132834054529666900634765625</LongitudeDegrees>
            </Position>
            <AltitudeMeters>2485.800048828125</AltitudeMeters>
            <DistanceMeters>13528.207553449</DistanceMeters>
          </Trackpoint>
          <Trackpoint>
            <Time>2022-07-09T12:05:28.000Z</Time>
            <Position>
              <LatitudeDegrees>42.78824969194829463958740234375</LatitudeDegrees>
              <LongitudeDegrees>-0.1328050531446933746337890625</LongitudeDegrees>
            </Position>
            <AltitudeMeters>2486</AltitudeMeters>
            <DistanceMeters>13531.218566028</DistanceMeters>
          </Trackpoint>
          <Trackpoint>
            <Time>2022-07-09T12:05:32.000Z</Time>
            <Position>
              <LatitudeDegrees>42.78823426924645900726318359375</LatitudeDegrees>
              <LongitudeDegrees>-0.13274721801280975341796875</LongitudeDegrees>
            </Position>
            <AltitudeMeters>2485.800048828125</AltitudeMeters>
            <DistanceMeters>13536.244212634</DistanceMeters>
          </Trackpoint>
          <Trackpoint>
            <Time>2022-07-09T12:05:33.000Z</Time>
            <Position>
              <LatitudeDegrees>42.7882258035242557525634765625</LatitudeDegrees>
              <LongitudeDegrees>-0.1327349804341793060302734375</LongitudeDegrees>
            </Position>
            <AltitudeMeters>2485.60009765625</AltitudeMeters>
            <DistanceMeters>13537.614707399</DistanceMeters>
          </Trackpoint>
          <Trackpoint>
            <Time>2022-07-09T12:05:39.000Z</Time>
            <Position>
              <LatitudeDegrees>42.7881728298962116241455078125</LatitudeDegrees>
              <LongitudeDegrees>-0.13265560381114482879638671875</LongitudeDegrees>
            </Position>
            <AltitudeMeters>2485.800048828125</AltitudeMeters>
            <DistanceMeters>13546.378313972</DistanceMeters>
          </Trackpoint>
          <Trackpoint>
            <Time>2022-07-09T12:05:42.000Z</Time>
            <Position>
              <LatitudeDegrees>42.78815212659537792205810546875</LatitudeDegrees>
              <LongitudeDegrees>-0.1326189748942852020263671875</LongitudeDegrees>
            </Position>
            <AltitudeMeters>2486.199951171875</AltitudeMeters>
            <DistanceMeters>13550.15555116</DistanceMeters>
          </Trackpoint>
          <Trackpoint>
            <Time>2022-07-09T12:05:43.000Z</Time>
            <Position>
              <LatitudeDegrees>42.78814374469220638275146484375</LatitudeDegrees>
              <LongitudeDegrees>-0.1326085813343524932861328125</LongitudeDegrees>
            </Position>
            <AltitudeMeters>2486.199951171875</AltitudeMeters>
            <DistanceMeters>13551.416222987</DistanceMeters>
          </Trackpoint>
          <Trackpoint>
            <Time>2022-07-09T12:05:46.000Z</Time>
            <Position>
              <LatitudeDegrees>42.7881114743649959564208984375</LatitudeDegrees>
              <LongitudeDegrees>-0.13258536346256732940673828125</LongitudeDegrees>
            </Position>
            <AltitudeMeters>2486.39990234375</AltitudeMeters>
            <DistanceMeters>13555.479101245</DistanceMeters>
          </Trackpoint>
          <Trackpoint>
            <Time>2022-07-09T12:05:47.000Z</Time>
            <Position>
              <LatitudeDegrees>42.7880989015102386474609375</LatitudeDegrees>
              <LongitudeDegrees>-0.13258620165288448333740234375</LongitudeDegrees>
            </Position>
            <AltitudeMeters>2486.39990234375</AltitudeMeters>
            <DistanceMeters>13556.882153869</DistanceMeters>
          </Trackpoint>
          <Trackpoint>
            <Time>2022-07-09T12:05:49.000Z</Time>
            <Position>
              <LatitudeDegrees>42.78807920403778553009033203125</LatitudeDegrees>
              <LongitudeDegrees>-0.13259978033602237701416015625</LongitudeDegrees>
            </Position>
            <AltitudeMeters>2487</AltitudeMeters>
            <DistanceMeters>13559.338185437</DistanceMeters>
          </Trackpoint>
          <Trackpoint>
            <Time>2022-07-09T12:05:53.000Z</Time>
            <Position>
              <LatitudeDegrees>42.788047604262828826904296875</LatitudeDegrees>
              <LongitudeDegrees>-0.13263397850096225738525390625</LongitudeDegrees>
            </Position>
            <AltitudeMeters>2487.60009765625</AltitudeMeters>
            <DistanceMeters>13563.829642971</DistanceMeters>
          </Trackpoint>
          <Trackpoint>
            <Time>2022-07-09T12:05:54.000Z</Time>
            <Position>
              <LatitudeDegrees>42.78804316185414791107177734375</LatitudeDegrees>
              <LongitudeDegrees>-0.132643282413482666015625</LongitudeDegrees>
            </Position>
            <AltitudeMeters>2488.199951171875</AltitudeMeters>
            <DistanceMeters>13564.741107195</DistanceMeters>
          </Trackpoint>
          <Trackpoint>
            <Time>2022-07-09T12:05:59.000Z</Time>
            <Position>
              <LatitudeDegrees>42.7880544774234294891357421875</LatitudeDegrees>
              <LongitudeDegrees>-0.1327202282845973968505859375</LongitudeDegrees>
            </Position>
            <AltitudeMeters>2489.199951171875</AltitudeMeters>
            <DistanceMeters>13571.151009521</DistanceMeters>
          </Trackpoint>
          <Trackpoint>
            <Time>2022-07-09T12:06:01.000Z</Time>
            <Position>
              <LatitudeDegrees>42.78806981630623340606689453125</LatitudeDegrees>
              <LongitudeDegrees>-0.132766664028167724609375</LongitudeDegrees>
            </Position>
            <AltitudeMeters>2489.199951171875</AltitudeMeters>
            <DistanceMeters>13575.310531905</DistanceMeters>
          </Trackpoint>
          <Trackpoint>
            <Time>2022-07-09T12:06:05.000Z</Time>
            <Position>
              <LatitudeDegrees>42.7880836464464664459228515625</LatitudeDegrees>
              <LongitudeDegrees>-0.1328298635780811309814453125</LongitudeDegrees>
            </Position>
            <AltitudeMeters>2489.800048828125</AltitudeMeters>
            <DistanceMeters>13580.697800758</DistanceMeters>
          </Trackpoint>
          <Trackpoint>
            <Time>2022-07-09T12:06:06.000Z</Time>
            <Position>
              <LatitudeDegrees>42.78808272443711757659912109375</LatitudeDegrees>
              <LongitudeDegrees>-0.13284201733767986297607421875</LongitudeDegrees>
            </Position>
            <AltitudeMeters>2489.800048828125</AltitudeMeters>
            <DistanceMeters>13581.694449346</DistanceMeters>
          </Trackpoint>
          <Trackpoint>
            <Time>2022-07-09T12:06:11.000Z</Time>
            <Position>
              <LatitudeDegrees>42.7880578301846981048583984375</LatitudeDegrees>
              <LongitudeDegrees>-0.1329153589904308319091796875</LongitudeDegrees>
            </Position>
            <AltitudeMeters>2490.39990234375</AltitudeMeters>
            <DistanceMeters>13588.294531828</DistanceMeters>
          </Trackpoint>
          <Trackpoint>
            <Time>2022-07-09T12:06:12.000Z</Time>
            <Position>
              <LatitudeDegrees>42.78805196285247802734375</LatitudeDegrees>
              <LongitudeDegrees>-0.1329425163567066192626953125</LongitudeDegrees>
            </Position>
            <AltitudeMeters>2490.39990234375</AltitudeMeters>
            <DistanceMeters>13590.606631578</DistanceMeters>
          </Trackpoint>
          <Trackpoint>
            <Time>2022-07-09T12:06:15.000Z</Time>
            <Position>
              <LatitudeDegrees>42.7880318462848663330078125</LatitudeDegrees>
              <LongitudeDegrees>-0.1329783909022808074951171875</LongitudeDegrees>
            </Position>
            <AltitudeMeters>2491</AltitudeMeters>
            <DistanceMeters>13594.294353792</DistanceMeters>
          </Trackpoint>
          <Trackpoint>
            <Time>2022-07-09T12:06:17.000Z</Time>
            <Position>
              <LatitudeDegrees>42.78801885433495044708251953125</LatitudeDegrees>
              <LongitudeDegrees>-0.13300328515470027923583984375</LongitudeDegrees>
            </Position>
            <AltitudeMeters>2491.199951171875</AltitudeMeters>
            <DistanceMeters>13596.790501373</DistanceMeters>
          </Trackpoint>
          <Trackpoint>
            <Time>2022-07-09T12:06:19.000Z</Time>
            <Position>
              <LatitudeDegrees>42.78800477273762226104736328125</LatitudeDegrees>
              <LongitudeDegrees>-0.13303413055837154388427734375</LongitudeDegrees>
            </Position>
            <AltitudeMeters>2491.39990234375</AltitudeMeters>
            <DistanceMeters>13599.759230833</DistanceMeters>
          </Trackpoint>
          <Trackpoint>
            <Time>2022-07-09T12:06:23.000Z</Time>
            <Position>
              <LatitudeDegrees>42.78795766644179821014404296875</LatitudeDegrees>
              <LongitudeDegrees>-0.133083164691925048828125</LongitudeDegrees>
            </Position>
            <AltitudeMeters>2490.60009765625</AltitudeMeters>
            <DistanceMeters>13606.357260731</DistanceMeters>
          </Trackpoint>
          <Trackpoint>
            <Time>2022-07-09T12:06:29.000Z</Time>
            <Position>
              <LatitudeDegrees>42.78789966367185115814208984375</LatitudeDegrees>
              <LongitudeDegrees>-0.13316036202013492584228515625</LongitudeDegrees>
            </Position>
            <AltitudeMeters>2491</AltitudeMeters>
            <DistanceMeters>13615.381797254</DistanceMeters>
          </Trackpoint>
          <Trackpoint>
            <Time>2022-07-09T12:06:30.000Z</Time>
            <Position>
              <LatitudeDegrees>42.7878962270915508270263671875</LatitudeDegrees>
              <LongitudeDegrees>-0.1331792213022708892822265625</LongitudeDegrees>
            </Position>
            <AltitudeMeters>2491</AltitudeMeters>
            <DistanceMeters>13616.971898321</DistanceMeters>
          </Trackpoint>
          <Trackpoint>
            <Time>2022-07-09T12:06:32.000Z</Time>
            <Position>
              <LatitudeDegrees>42.78788407333195209503173828125</LatitudeDegrees>
              <LongitudeDegrees>-0.13321249745786190032958984375</LongitudeDegrees>
            </Position>
            <AltitudeMeters>2491.39990234375</AltitudeMeters>
            <DistanceMeters>13620.0068082</DistanceMeters>
          </Trackpoint>
          <Trackpoint>
            <Time>2022-07-09T12:06:35.000Z</Time>
            <Position>
              <LatitudeDegrees>42.7878724224865436553955078125</LatitudeDegrees>
              <LongitudeDegrees>-0.1332459412515163421630859375</LongitudeDegrees>
            </Position>
            <AltitudeMeters>2491.800048828125</AltitudeMeters>
            <DistanceMeters>13623.029793043</DistanceMeters>
          </Trackpoint>
          <Trackpoint>
            <Time>2022-07-09T12:06:36.000Z</Time>
            <Position>
              <LatitudeDegrees>42.787864208221435546875</LatitudeDegrees>
              <LongitudeDegrees>-0.13324568979442119598388671875</LongitudeDegrees>
            </Position>
            <AltitudeMeters>2492</AltitudeMeters>
            <DistanceMeters>13623.941257268</DistanceMeters>
          </Trackpoint>
          <Trackpoint>
            <Time>2022-07-09T12:06:39.000Z</Time>
            <Position>
              <LatitudeDegrees>42.78784199617803096771240234375</LatitudeDegrees>
              <LongitudeDegrees>-0.13323445804417133331298828125</LongitudeDegrees>
            </Position>
            <AltitudeMeters>2492.199951171875</AltitudeMeters>
            <DistanceMeters>13626.578141577</DistanceMeters>
          </Trackpoint>
          <Trackpoint>
            <Time>2022-07-09T12:06:41.000Z</Time>
            <Position>
              <LatitudeDegrees>42.78783403337001800537109375</LatitudeDegrees>
              <LongitudeDegrees>-0.1332040317356586456298828125</LongitudeDegrees>
            </Position>
            <AltitudeMeters>2492.60009765625</AltitudeMeters>
            <DistanceMeters>13629.216737594</DistanceMeters>
          </Trackpoint>
          <Trackpoint>
            <Time>2022-07-09T12:06:42.000Z</Time>
            <Position>
              <LatitudeDegrees>42.78782992623746395111083984375</LatitudeDegrees>
              <LongitudeDegrees>-0.13318634591996669769287109375</LongitudeDegrees>
            </Position>
            <AltitudeMeters>2492.800048828125</AltitudeMeters>
            <DistanceMeters>13630.731214208</DistanceMeters>
          </Trackpoint>
          <Trackpoint>
            <Time>2022-07-09T12:06:46.000Z</Time>
            <Position>
              <LatitudeDegrees>42.78780763037502765655517578125</LatitudeDegrees>
              <LongitudeDegrees>-0.13313622213900089263916015625</LongitudeDegrees>
            </Position>
            <AltitudeMeters>2493.60009765625</AltitudeMeters>
            <DistanceMeters>13635.518523893</DistanceMeters>
          </Trackpoint>
          <Trackpoint>
            <Time>2022-07-09T12:06:47.000Z</Time>
            <Position>
              <LatitudeDegrees>42.78779690153896808624267578125</LatitudeDegrees>
              <LongitudeDegrees>-0.133126415312290191650390625</LongitudeDegrees>
            </Position>
            <AltitudeMeters>2493.800048828125</AltitudeMeters>
            <DistanceMeters>13636.959675371</DistanceMeters>
          </Trackpoint>
          <Trackpoint>
            <Time>2022-07-09T12:06:49.000Z</Time>
            <Position>
              <LatitudeDegrees>42.7877808921039104461669921875</LatitudeDegrees>
              <LongitudeDegrees>-0.13310956768691539764404296875</LongitudeDegrees>
            </Position>
            <AltitudeMeters>2494.199951171875</AltitudeMeters>
            <DistanceMeters>13639.212429898</DistanceMeters>
          </Trackpoint>
          <Trackpoint>
            <Time>2022-07-09T12:06:51.000Z</Time>
            <Position>
              <LatitudeDegrees>42.78776303865015506744384765625</LatitudeDegrees>
              <LongitudeDegrees>-0.13309833593666553497314453125</LongitudeDegrees>
            </Position>
            <AltitudeMeters>2494.800048828125</AltitudeMeters>
            <DistanceMeters>13641.400109152</DistanceMeters>
          </Trackpoint>
          <Trackpoint>
            <Time>2022-07-09T12:06:53.000Z</Time>
            <Position>
              <LatitudeDegrees>42.78773956932127475738525390625</LatitudeDegrees>
              <LongitudeDegrees>-0.1331017725169658660888671875</LongitudeDegrees>
            </Position>
            <AltitudeMeters>2495.199951171875</AltitudeMeters>
            <DistanceMeters>13644.030135493</DistanceMeters>
          </Trackpoint>
          <Trackpoint>
            <Time>2022-07-09T12:06:54.000Z</Time>
            <Position>
              <LatitudeDegrees>42.7877275831997394561767578125</LatitudeDegrees>
              <LongitudeDegrees>-0.13310101814568042755126953125</LongitudeDegrees>
            </Position>
            <AltitudeMeters>2495.39990234375</AltitudeMeters>
            <DistanceMeters>13645.370652264</DistanceMeters>
          </Trackpoint>
          <Trackpoint>
            <Time>2022-07-09T12:06:55.000Z</Time>
            <Position>
              <LatitudeDegrees>42.78771291486918926239013671875</LatitudeDegrees>
              <LongitudeDegrees>-0.1331005990505218505859375</LongitudeDegrees>
            </Position>
            <AltitudeMeters>2495.60009765625</AltitudeMeters>
            <DistanceMeters>13647.002789682</DistanceMeters>
          </Trackpoint>
          <Trackpoint>
            <Time>2022-07-09T12:06:56.000Z</Time>
            <Position>
              <LatitudeDegrees>42.78770084492862224578857421875</LatitudeDegrees>
              <LongitudeDegrees>-0.1331000961363315582275390625</LongitudeDegrees>
            </Position>
            <AltitudeMeters>2496</AltitudeMeters>
            <DistanceMeters>13648.346670364</DistanceMeters>
          </Trackpoint>
          <Trackpoint>
            <Time>2022-07-09T12:07:01.000Z</Time>
            <Position>
              <LatitudeDegrees>42.78764887712895870208740234375</LatitudeDegrees>
              <LongitudeDegrees>-0.1331252418458461761474609375</LongitudeDegrees>
            </Position>
            <AltitudeMeters>2497</AltitudeMeters>
            <DistanceMeters>13654.483071489</DistanceMeters>
          </Trackpoint>
          <Trackpoint>
            <Time>2022-07-09T12:07:03.000Z</Time>
            <Position>
              <LatitudeDegrees>42.78763814829289913177490234375</LatitudeDegrees>
              <LongitudeDegrees>-0.13313253410160541534423828125</LongitudeDegrees>
            </Position>
            <AltitudeMeters>2497.60009765625</AltitudeMeters>
            <DistanceMeters>13655.816834984</DistanceMeters>
          </Trackpoint>
          <Trackpoint>
            <Time>2022-07-09T12:07:06.000Z</Time>
            <Position>
              <LatitudeDegrees>42.7876290120184421539306640625</LatitudeDegrees>
              <LongitudeDegrees>-0.13314728625118732452392578125</LongitudeDegrees>
            </Position>
            <AltitudeMeters>2498</AltitudeMeters>
            <DistanceMeters>13657.39553733</DistanceMeters>
          </Trackpoint>
          <Trackpoint>
            <Time>2022-07-09T12:07:07.000Z</Time>
            <Position>
              <LatitudeDegrees>42.78762406669557094573974609375</LatitudeDegrees>
              <LongitudeDegrees>-0.13315466232597827911376953125</LongitudeDegrees>
            </Position>
            <AltitudeMeters>2498.199951171875</AltitudeMeters>
            <DistanceMeters>13658.212988036</DistanceMeters>
          </Trackpoint>
          <Trackpoint>
            <Time>2022-07-09T12:07:08.000Z</Time>
            <Position>
              <LatitudeDegrees>42.78761669062077999114990234375</LatitudeDegrees>
              <LongitudeDegrees>-0.1331574283540248870849609375</LongitudeDegrees>
            </Position>
            <AltitudeMeters>2498.60009765625</AltitudeMeters>
            <DistanceMeters>13659.062932808</DistanceMeters>
          </Trackpoint>
          <Trackpoint>
            <Time>2022-07-09T12:07:12.000Z</Time>
            <Position>
              <LatitudeDegrees>42.78758986853063106536865234375</LatitudeDegrees>
              <LongitudeDegrees>-0.13317863456904888153076171875</LongitudeDegrees>
            </Position>
            <AltitudeMeters>2499.39990234375</AltitudeMeters>
            <DistanceMeters>13662.512808278</DistanceMeters>
          </Trackpoint>
          <Trackpoint>
            <Time>2022-07-09T12:07:15.000Z</Time>
            <Position>
              <LatitudeDegrees>42.787560783326625823974609375</LatitudeDegrees>
              <LongitudeDegrees>-0.1331513933837413787841796875</LongitudeDegrees>
            </Position>
            <AltitudeMeters>2499.800048828125</AltitudeMeters>
            <DistanceMeters>13666.441217707</DistanceMeters>
          </Trackpoint>
          <Trackpoint>
            <Time>2022-07-09T12:07:19.000Z</Time>
            <Position>
              <LatitudeDegrees>42.7875458635389804840087890625</LatitudeDegrees>
              <LongitudeDegrees>-0.1331047900021076202392578125</LongitudeDegrees>
            </Position>
            <AltitudeMeters>2500.39990234375</AltitudeMeters>
            <DistanceMeters>13670.594222162</DistanceMeters>
          </Trackpoint>
          <Trackpoint>
            <Time>2022-07-09T12:07:21.000Z</Time>
            <Position>
              <LatitudeDegrees>42.7875275909900665283203125</LatitudeDegrees>
              <LongitudeDegrees>-0.13310705311596393585205078125</LongitudeDegrees>
            </Position>
            <AltitudeMeters>2500.39990234375</AltitudeMeters>
            <DistanceMeters>13672.636743966</DistanceMeters>
          </Trackpoint>
          <Trackpoint>
            <Time>2022-07-09T12:07:26.000Z</Time>
            <Position>
              <LatitudeDegrees>42.787485010921955108642578125</LatitudeDegrees>
              <LongitudeDegrees>-0.1331208832561969757080078125</LongitudeDegrees>
            </Position>
            <AltitudeMeters>2501.199951171875</AltitudeMeters>
            <DistanceMeters>13677.508195587</DistanceMeters>
          </Trackpoint>
          <Trackpoint>
            <Time>2022-07-09T12:07:28.000Z</Time>
            <Position>
              <LatitudeDegrees>42.787474282085895538330078125</LatitudeDegrees>
              <LongitudeDegrees>-0.1331225596368312835693359375</LongitudeDegrees>
            </Position>
            <AltitudeMeters>2501.39990234375</AltitudeMeters>
            <DistanceMeters>13678.71019901</DistanceMeters>
          </Trackpoint>
          <Trackpoint>
            <Time>2022-07-09T12:07:34.000Z</Time>
            <Position>
              <LatitudeDegrees>42.7874684147536754608154296875</LatitudeDegrees>
              <LongitudeDegrees>-0.13314108364284038543701171875</LongitudeDegrees>
            </Position>
            <AltitudeMeters>2501.800048828125</AltitudeMeters>
            <DistanceMeters>13680.358850887</DistanceMeters>
          </Trackpoint>
          <Trackpoint>
            <Time>2022-07-09T12:07:35.000Z</Time>
            <Position>
              <LatitudeDegrees>42.7874647267162799835205078125</LatitudeDegrees>
              <LongitudeDegrees>-0.1331381499767303466796875</LongitudeDegrees>
            </Position>
            <AltitudeMeters>2502</AltitudeMeters>
            <DistanceMeters>13680.824384811</DistanceMeters>
          </Trackpoint>
          <Trackpoint>
            <Time>2022-07-09T12:07:41.000Z</Time>
            <Position>
              <LatitudeDegrees>42.78749406337738037109375</LatitudeDegrees>
              <LongitudeDegrees>-0.1331624574959278106689453125</LongitudeDegrees>
            </Position>
            <AltitudeMeters>2502</AltitudeMeters>
            <DistanceMeters>13684.645593208</DistanceMeters>
          </Trackpoint>
          <Trackpoint>
            <Time>2022-07-09T12:07:44.000Z</Time>
            <Position>
              <LatitudeDegrees>42.78751979582011699676513671875</LatitudeDegrees>
              <LongitudeDegrees>-0.1331601105630397796630859375</LongitudeDegrees>
            </Position>
            <AltitudeMeters>2501.60009765625</AltitudeMeters>
            <DistanceMeters>13687.515337049</DistanceMeters>
          </Trackpoint>
          <Trackpoint>
            <Time>2022-07-09T12:07:45.000Z</Time>
            <Position>
              <LatitudeDegrees>42.787524573504924774169921875</LatitudeDegrees>
              <LongitudeDegrees>-0.13315784744918346405029296875</LongitudeDegrees>
            </Position>
            <AltitudeMeters>2501.60009765625</AltitudeMeters>
            <DistanceMeters>13688.085497336</DistanceMeters>
          </Trackpoint>
          <Trackpoint>
            <Time>2022-07-09T12:07:51.000Z</Time>
            <Position>
              <LatitudeDegrees>42.78747260570526123046875</LatitudeDegrees>
              <LongitudeDegrees>-0.13313613831996917724609375</LongitudeDegrees>
            </Position>
            <AltitudeMeters>2501</AltitudeMeters>
            <DistanceMeters>13694.134453423</DistanceMeters>
          </Trackpoint>
          <Trackpoint>
            <Time>2022-07-09T12:07:52.000Z</Time>
            <Position>
              <LatitudeDegrees>42.7874734438955783843994140625</LatitudeDegrees>
              <LongitudeDegrees>-0.13313907198607921600341796875</LongitudeDegrees>
            </Position>
            <AltitudeMeters>2501</AltitudeMeters>
            <DistanceMeters>13694.367220385</DistanceMeters>
          </Trackpoint>
          <Trackpoint>
            <Time>2022-07-09T12:07:54.000Z</Time>
            <Position>
              <LatitudeDegrees>42.78748668730258941650390625</LatitudeDegrees>
              <LongitudeDegrees>-0.13315332122147083282470703125</LongitudeDegrees>
            </Position>
            <AltitudeMeters>2501</AltitudeMeters>
            <DistanceMeters>13696.24384763</DistanceMeters>
          </Trackpoint>
          <Trackpoint>
            <Time>2022-07-09T12:07:55.000Z</Time>
            <Position>
              <LatitudeDegrees>42.78749532066285610198974609375</LatitudeDegrees>
              <LongitudeDegrees>-0.13315181247889995574951171875</LongitudeDegrees>
            </Position>
            <AltitudeMeters>2501</AltitudeMeters>
            <DistanceMeters>13697.212933771</DistanceMeters>
          </Trackpoint>
          <Trackpoint>
            <Time>2022-07-09T12:08:01.000Z</Time>
            <Position>
              <LatitudeDegrees>42.78748266398906707763671875</LatitudeDegrees>
              <LongitudeDegrees>-0.1331614516675472259521484375</LongitudeDegrees>
            </Position>
            <AltitudeMeters>2501</AltitudeMeters>
            <DistanceMeters>13698.822788404</DistanceMeters>
          </Trackpoint>
          <Trackpoint>
            <Time>2022-07-09T12:08:02.000Z</Time>
            <Position>
              <LatitudeDegrees>42.7874771319329738616943359375</LatitudeDegrees>
              <LongitudeDegrees>-0.13316002674400806427001953125</LongitudeDegrees>
            </Position>
            <AltitudeMeters>2501</AltitudeMeters>
            <DistanceMeters>13699.453124318</DistanceMeters>
          </Trackpoint>
          <Trackpoint>
            <Time>2022-07-09T12:08:06.000Z</Time>
            <Position>
              <LatitudeDegrees>42.787483669817447662353515625</LatitudeDegrees>
              <LongitudeDegrees>-0.13317167758941650390625</LongitudeDegrees>
            </Position>
            <AltitudeMeters>2501.39990234375</AltitudeMeters>
            <DistanceMeters>13700.655127741</DistanceMeters>
          </Trackpoint>
          <Trackpoint>
            <Time>2022-07-09T12:08:08.000Z</Time>
            <Position>
              <LatitudeDegrees>42.78749062679708003997802734375</LatitudeDegrees>
              <LongitudeDegrees>-0.13316321186721324920654296875</LongitudeDegrees>
            </Position>
            <AltitudeMeters>2501.60009765625</AltitudeMeters>
            <DistanceMeters>13701.691746812</DistanceMeters>
          </Trackpoint>
          <Trackpoint>
            <Time>2022-07-09T12:08:10.000Z</Time>
            <Position>
              <LatitudeDegrees>42.78749230317771434783935546875</LatitudeDegrees>
              <LongitudeDegrees>-0.13316698372364044189453125</LongitudeDegrees>
            </Position>
            <AltitudeMeters>2501.800048828125</AltitudeMeters>
            <DistanceMeters>13702.047304219</DistanceMeters>
          </Trackpoint>
          <Trackpoint>
            <Time>2022-07-09T12:08:13.000Z</Time>
            <Position>
              <LatitudeDegrees>42.7874885313212871551513671875</LatitudeDegrees>
              <LongitudeDegrees>-0.133160613477230072021484375</LongitudeDegrees>
            </Position>
            <AltitudeMeters>2502.199951171875</AltitudeMeters>
            <DistanceMeters>13702.719244561</DistanceMeters>
          </Trackpoint>
          <Trackpoint>
            <Time>2022-07-09T12:08:14.000Z</Time>
            <Position>
              <LatitudeDegrees>42.78748660348355770111083984375</LatitudeDegrees>
              <LongitudeDegrees>-0.1331517286598682403564453125</LongitudeDegrees>
            </Position>
            <AltitudeMeters>2502.39990234375</AltitudeMeters>
            <DistanceMeters>13703.479458276</DistanceMeters>
          </Trackpoint>
          <Trackpoint>
            <Time>2022-07-09T12:08:20.000Z</Time>
            <Position>
              <LatitudeDegrees>42.78750051744282245635986328125</LatitudeDegrees>
              <LongitudeDegrees>-0.133140496909618377685546875</LongitudeDegrees>
            </Position>
            <AltitudeMeters>2503.39990234375</AltitudeMeters>
            <DistanceMeters>13705.279957496</DistanceMeters>
          </Trackpoint>
          <Trackpoint>
            <Time>2022-07-09T12:08:22.000Z</Time>
            <Position>
              <LatitudeDegrees>42.78750236146152019500732421875</LatitudeDegrees>
              <LongitudeDegrees>-0.13314426876604557037353515625</LongitudeDegrees>
            </Position>
            <AltitudeMeters>2503.39990234375</AltitudeMeters>
            <DistanceMeters>13705.660064354</DistanceMeters>
          </Trackpoint>
          <Trackpoint>
            <Time>2022-07-09T12:08:23.000Z</Time>
            <Position>
              <LatitudeDegrees>42.78750278055667877197265625</LatitudeDegrees>
              <LongitudeDegrees>-0.13315030373632907867431640625</LongitudeDegrees>
            </Position>
            <AltitudeMeters>2503.60009765625</AltitudeMeters>
            <DistanceMeters>13706.144607425</DistanceMeters>
          </Trackpoint>
          <Trackpoint>
            <Time>2022-07-09T12:08:25.000Z</Time>
            <Position>
              <LatitudeDegrees>42.7875049598515033721923828125</LatitudeDegrees>
              <LongitudeDegrees>-0.1331534050405025482177734375</LongitudeDegrees>
            </Position>
            <AltitudeMeters>2503.39990234375</AltitudeMeters>
            <DistanceMeters>13706.500164832</DistanceMeters>
          </Trackpoint>
          <Trackpoint>
            <Time>2022-07-09T12:08:31.000Z</Time>
            <Position>
              <LatitudeDegrees>42.787521891295909881591796875</LatitudeDegrees>
              <LongitudeDegrees>-0.1331527344882488250732421875</LongitudeDegrees>
            </Position>
            <AltitudeMeters>2503</AltitudeMeters>
            <DistanceMeters>13708.386391255</DistanceMeters>
          </Trackpoint>
          <Trackpoint>
            <Time>2022-07-09T12:08:37.000Z</Time>
            <Position>
              <LatitudeDegrees>42.787511833012104034423828125</LatitudeDegrees>
              <LongitudeDegrees>-0.1331470347940921783447265625</LongitudeDegrees>
            </Position>
            <AltitudeMeters>2503.39990234375</AltitudeMeters>
            <DistanceMeters>13709.599611128</DistanceMeters>
          </Trackpoint>
          <Trackpoint>
            <Time>2022-07-09T12:08:39.000Z</Time>
            <Position>
              <LatitudeDegrees>42.78750814497470855712890625</LatitudeDegrees>
              <LongitudeDegrees>-0.13314896263182163238525390625</LongitudeDegrees>
            </Position>
            <AltitudeMeters>2503</AltitudeMeters>
            <DistanceMeters>13710.045325927</DistanceMeters>
          </Trackpoint>
          <Trackpoint>
            <Time>2022-07-09T12:08:42.000Z</Time>
            <Position>
              <LatitudeDegrees>42.787503115832805633544921875</LatitudeDegrees>
              <LongitudeDegrees>-0.1331503875553607940673828125</LongitudeDegrees>
            </Position>
            <AltitudeMeters>2502.60009765625</AltitudeMeters>
            <DistanceMeters>13710.631109936</DistanceMeters>
          </Trackpoint>
          <Trackpoint>
            <Time>2022-07-09T12:08:48.000Z</Time>
            <Position>
              <LatitudeDegrees>42.7875140123069286346435546875</LatitudeDegrees>
              <LongitudeDegrees>-0.133167989552021026611328125</LongitudeDegrees>
            </Position>
            <AltitudeMeters>2502.39990234375</AltitudeMeters>
            <DistanceMeters>13712.512542891</DistanceMeters>
          </Trackpoint>
          <Trackpoint>
            <Time>2022-07-09T12:08:50.000Z</Time>
            <Position>
              <LatitudeDegrees>42.78752851299941539764404296875</LatitudeDegrees>
              <LongitudeDegrees>-0.133166648447513580322265625</LongitudeDegrees>
            </Position>
            <AltitudeMeters>2502.39990234375</AltitudeMeters>
            <DistanceMeters>13714.130789525</DistanceMeters>
          </Trackpoint>
          <Trackpoint>
            <Time>2022-07-09T12:08:56.000Z</Time>
            <Position>
              <LatitudeDegrees>42.7875187061727046966552734375</LatitudeDegrees>
              <LongitudeDegrees>-0.13316254131495952606201171875</LongitudeDegrees>
            </Position>
            <AltitudeMeters>2502.60009765625</AltitudeMeters>
            <DistanceMeters>13715.271110098</DistanceMeters>
          </Trackpoint>
          <Trackpoint>
            <Time>2022-07-09T12:09:01.000Z</Time>
            <Position>
              <LatitudeDegrees>42.78750118799507617950439453125</LatitudeDegrees>
              <LongitudeDegrees>-0.13316237367689609527587890625</LongitudeDegrees>
            </Position>
            <AltitudeMeters>2502.199951171875</AltitudeMeters>
            <DistanceMeters>13717.218578225</DistanceMeters>
          </Trackpoint>
          <Trackpoint>
            <Time>2022-07-09T12:09:02.000Z</Time>
            <Position>
              <LatitudeDegrees>42.78750353492796421051025390625</LatitudeDegrees>
              <LongitudeDegrees>-0.13316606171429157257080078125</LongitudeDegrees>
            </Position>
            <AltitudeMeters>2502.199951171875</AltitudeMeters>
            <DistanceMeters>13717.62174243</DistanceMeters>
          </Trackpoint>
          <Trackpoint>
            <Time>2022-07-09T12:09:08.000Z</Time>
            <Position>
              <LatitudeDegrees>42.7875316143035888671875</LatitudeDegrees>
              <LongitudeDegrees>-0.133164636790752410888671875</LongitudeDegrees>
            </Position>
            <AltitudeMeters>2502.39990234375</AltitudeMeters>
            <DistanceMeters>13720.750416728</DistanceMeters>
          </Trackpoint>
          <Trackpoint>
            <Time>2022-07-09T12:09:14.000Z</Time>
            <Position>
              <LatitudeDegrees>42.78752197511494159698486328125</LatitudeDegrees>
              <LongitudeDegrees>-0.13315332122147083282470703125</LongitudeDegrees>
            </Position>
            <AltitudeMeters>2502.60009765625</AltitudeMeters>
            <DistanceMeters>13722.166282884</DistanceMeters>
          </Trackpoint>
          <Trackpoint>
            <Time>2022-07-09T12:09:19.000Z</Time>
            <Position>
              <LatitudeDegrees>42.7875007688999176025390625</LatitudeDegrees>
              <LongitudeDegrees>-0.13316421769559383392333984375</LongitudeDegrees>
            </Position>
            <AltitudeMeters>2502.199951171875</AltitudeMeters>
            <DistanceMeters>13724.687626537</DistanceMeters>
          </Trackpoint>
          <Trackpoint>
            <Time>2022-07-09T12:09:20.000Z</Time>
            <Position>
              <LatitudeDegrees>42.78750009834766387939453125</LatitudeDegrees>
              <LongitudeDegrees>-0.13316296041011810302734375</LongitudeDegrees>
            </Position>
            <AltitudeMeters>2502.199951171875</AltitudeMeters>
            <DistanceMeters>13724.782653251</DistanceMeters>
          </Trackpoint>
          <Trackpoint>
            <Time>2022-07-09T12:09:22.000Z</Time>
            <Position>
              <LatitudeDegrees>42.78750236146152019500732421875</LatitudeDegrees>
              <LongitudeDegrees>-0.13316698372364044189453125</LongitudeDegrees>
            </Position>
            <AltitudeMeters>2502.199951171875</AltitudeMeters>
            <DistanceMeters>13725.196865096</DistanceMeters>
          </Trackpoint>
          <Trackpoint>
            <Time>2022-07-09T12:09:24.000Z</Time>
            <Position>
              <LatitudeDegrees>42.7874989248812198638916015625</LatitudeDegrees>
              <LongitudeDegrees>-0.13316103257238864898681640625</LongitudeDegrees>
            </Position>
            <AltitudeMeters>2502.199951171875</AltitudeMeters>
            <DistanceMeters>13725.812708591</DistanceMeters>
          </Trackpoint>
          <Trackpoint>
            <Time>2022-07-09T12:09:25.000Z</Time>
            <Position>
              <LatitudeDegrees>42.78749196790158748626708984375</LatitudeDegrees>
              <LongitudeDegrees>-0.13316120021045207977294921875</LongitudeDegrees>
            </Position>
            <AltitudeMeters>2502.199951171875</AltitudeMeters>
            <DistanceMeters>13726.584709268</DistanceMeters>
          </Trackpoint>
          <Trackpoint>
            <Time>2022-07-09T12:09:26.000Z</Time>
            <Position>
              <LatitudeDegrees>42.78748492710292339324951171875</LatitudeDegrees>
              <LongitudeDegrees>-0.13316036202013492584228515625</LongitudeDegrees>
            </Position>
            <AltitudeMeters>2502.199951171875</AltitudeMeters>
            <DistanceMeters>13727.374060442</DistanceMeters>
          </Trackpoint>
          <Trackpoint>
            <Time>2022-07-09T12:09:27.000Z</Time>
            <Position>
              <LatitudeDegrees>42.78747671283781528472900390625</LatitudeDegrees>
              <LongitudeDegrees>-0.13316094875335693359375</LongitudeDegrees>
            </Position>
            <AltitudeMeters>2502.199951171875</AltitudeMeters>
            <DistanceMeters>13728.285524666</DistanceMeters>
          </Trackpoint>
          <Trackpoint>
            <Time>2022-07-09T12:09:29.000Z</Time>
            <Position>
              <LatitudeDegrees>42.787463553249835968017578125</LatitudeDegrees>
              <LongitudeDegrees>-0.13316472060978412628173828125</LongitudeDegrees>
            </Position>
            <AltitudeMeters>2502.199951171875</AltitudeMeters>
            <DistanceMeters>13729.782006861</DistanceMeters>
          </Trackpoint>
          <Trackpoint>
            <Time>2022-07-09T12:09:35.000Z</Time>
            <Position>
              <LatitudeDegrees>42.7874828316271305084228515625</LatitudeDegrees>
              <LongitudeDegrees>-0.133164636790752410888671875</LongitudeDegrees>
            </Position>
            <AltitudeMeters>2501.800048828125</AltitudeMeters>
            <DistanceMeters>13731.928012216</DistanceMeters>
          </Trackpoint>
          <Trackpoint>
            <Time>2022-07-09T12:09:39.000Z</Time>
            <Position>
              <LatitudeDegrees>42.78748400509357452392578125</LatitudeDegrees>
              <LongitudeDegrees>-0.1331775449216365814208984375</LongitudeDegrees>
            </Position>
            <AltitudeMeters>2501.60009765625</AltitudeMeters>
            <DistanceMeters>13732.986184924</DistanceMeters>
          </Trackpoint>
          <Trackpoint>
            <Time>2022-07-09T12:09:45.000Z</Time>
            <Position>
              <LatitudeDegrees>42.7874848432838916778564453125</LatitudeDegrees>
              <LongitudeDegrees>-0.1331570930778980255126953125</LongitudeDegrees>
            </Position>
            <AltitudeMeters>2501.60009765625</AltitudeMeters>
            <DistanceMeters>13734.659302881</DistanceMeters>
          </Trackpoint>
          <Trackpoint>
            <Time>2022-07-09T12:09:51.000Z</Time>
            <Position>
              <LatitudeDegrees>42.7874660678207874298095703125</LatitudeDegrees>
              <LongitudeDegrees>-0.133165307343006134033203125</LongitudeDegrees>
            </Position>
            <AltitudeMeters>2501</AltitudeMeters>
            <DistanceMeters>13736.85522201</DistanceMeters>
          </Trackpoint>
          <Trackpoint>
            <Time>2022-07-09T12:09:57.000Z</Time>
            <Position>
              <LatitudeDegrees>42.78749196790158748626708984375</LatitudeDegrees>
              <LongitudeDegrees>-0.13314913026988506317138671875</LongitudeDegrees>
            </Position>
            <AltitudeMeters>2501.199951171875</AltitudeMeters>
            <DistanceMeters>13740.025470436</DistanceMeters>
          </Trackpoint>
          <Trackpoint>
            <Time>2022-07-09T12:10:00.000Z</Time>
            <Position>
              <LatitudeDegrees>42.78749263845384120941162109375</LatitudeDegrees>
              <LongitudeDegrees>-0.1331503875553607940673828125</LongitudeDegrees>
            </Position>
            <AltitudeMeters>2501.800048828125</AltitudeMeters>
            <DistanceMeters>13740.12049715</DistanceMeters>
          </Trackpoint>
          <Trackpoint>
            <Time>2022-07-09T12:10:03.000Z</Time>
            <Position>
              <LatitudeDegrees>42.7874838374555110931396484375</LatitudeDegrees>
              <LongitudeDegrees>-0.13316220603883266448974609375</LongitudeDegrees>
            </Position>
            <AltitudeMeters>2502</AltitudeMeters>
            <DistanceMeters>13741.497565069</DistanceMeters>
          </Trackpoint>
          <Trackpoint>
            <Time>2022-07-09T12:10:05.000Z</Time>
            <Position>
              <LatitudeDegrees>42.7874886989593505859375</LatitudeDegrees>
              <LongitudeDegrees>-0.133172012865543365478515625</LongitudeDegrees>
            </Position>
            <AltitudeMeters>2502</AltitudeMeters>
            <DistanceMeters>13742.466651211</DistanceMeters>
          </Trackpoint>
          <Trackpoint>
            <Time>2022-07-09T12:10:08.000Z</Time>
            <Position>
              <LatitudeDegrees>42.7874999307096004486083984375</LatitudeDegrees>
              <LongitudeDegrees>-0.1331530697643756866455078125</LongitudeDegrees>
            </Position>
            <AltitudeMeters>2501.800048828125</AltitudeMeters>
            <DistanceMeters>13744.455413007</DistanceMeters>
          </Trackpoint>
          <Trackpoint>
            <Time>2022-07-09T12:10:10.000Z</Time>
            <Position>
              <LatitudeDegrees>42.78750336728990077972412109375</LatitudeDegrees>
              <LongitudeDegrees>-0.1331386528909206390380859375</LongitudeDegrees>
            </Position>
            <AltitudeMeters>2502</AltitudeMeters>
            <DistanceMeters>13745.687099997</DistanceMeters>
          </Trackpoint>
          <Trackpoint>
            <Time>2022-07-09T12:10:16.000Z</Time>
            <Position>
              <LatitudeDegrees>42.7874885313212871551513671875</LatitudeDegrees>
              <LongitudeDegrees>-0.133149884641170501708984375</LongitudeDegrees>
            </Position>
            <AltitudeMeters>2502</AltitudeMeters>
            <DistanceMeters>13747.575718592</DistanceMeters>
          </Trackpoint>
          <Trackpoint>
            <Time>2022-07-09T12:10:22.000Z</Time>
            <Position>
              <LatitudeDegrees>42.7874793112277984619140625</LatitudeDegrees>
              <LongitudeDegrees>-0.13314913026988506317138671875</LongitudeDegrees>
            </Position>
            <AltitudeMeters>2502</AltitudeMeters>
            <DistanceMeters>13748.612337662</DistanceMeters>
          </Trackpoint>
          <Trackpoint>
            <Time>2022-07-09T12:10:27.000Z</Time>
            <Position>
              <LatitudeDegrees>42.7874811552464962005615234375</LatitudeDegrees>
              <LongitudeDegrees>-0.133141167461872100830078125</LongitudeDegrees>
            </Position>
            <AltitudeMeters>2502</AltitudeMeters>
            <DistanceMeters>13749.297585045</DistanceMeters>
          </Trackpoint>
          <Trackpoint>
            <Time>2022-07-09T12:10:33.000Z</Time>
            <Position>
              <LatitudeDegrees>42.7875006012618541717529296875</LatitudeDegrees>
              <LongitudeDegrees>-0.1331597752869129180908203125</LongitudeDegrees>
            </Position>
            <AltitudeMeters>2502</AltitudeMeters>
            <DistanceMeters>13751.941309532</DistanceMeters>
          </Trackpoint>
          <Trackpoint>
            <Time>2022-07-09T12:10:36.000Z</Time>
            <Position>
              <LatitudeDegrees>42.78748693875968456268310546875</LatitudeDegrees>
              <LongitudeDegrees>-0.133172683417797088623046875</LongitudeDegrees>
            </Position>
            <AltitudeMeters>2502</AltitudeMeters>
            <DistanceMeters>13753.788840018</DistanceMeters>
          </Trackpoint>
          <Trackpoint>
            <Time>2022-07-09T12:10:42.000Z</Time>
            <Position>
              <LatitudeDegrees>42.78747403062880039215087890625</LatitudeDegrees>
              <LongitudeDegrees>-0.1331882737576961517333984375</LongitudeDegrees>
            </Position>
            <AltitudeMeters>2502.39990234375</AltitudeMeters>
            <DistanceMeters>13755.70828556</DistanceMeters>
          </Trackpoint>
          <Trackpoint>
            <Time>2022-07-09T12:10:43.000Z</Time>
            <Position>
              <LatitudeDegrees>42.787475623190402984619140625</LatitudeDegrees>
              <LongitudeDegrees>-0.13319288380444049835205078125</LongitudeDegrees>
            </Position>
            <AltitudeMeters>2502.800048828125</AltitudeMeters>
            <DistanceMeters>13756.133257946</DistanceMeters>
          </Trackpoint>
          <Trackpoint>
            <Time>2022-07-09T12:10:48.000Z</Time>
            <Position>
              <LatitudeDegrees>42.7874781377613544464111328125</LatitudeDegrees>
              <LongitudeDegrees>-0.13320243917405605316162109375</LongitudeDegrees>
            </Position>
            <AltitudeMeters>2503.800048828125</AltitudeMeters>
            <DistanceMeters>13756.961681636</DistanceMeters>
          </Trackpoint>
          <Trackpoint>
            <Time>2022-07-09T12:10:54.000Z</Time>
            <Position>
              <LatitudeDegrees>42.78747268952429294586181640625</LatitudeDegrees>
              <LongitudeDegrees>-0.13319254852831363677978515625</LongitudeDegrees>
            </Position>
            <AltitudeMeters>2504.60009765625</AltitudeMeters>
            <DistanceMeters>13757.967349853</DistanceMeters>
          </Trackpoint>
          <Trackpoint>
            <Time>2022-07-09T12:10:57.000Z</Time>
            <Position>
              <LatitudeDegrees>42.78747000731527805328369140625</LatitudeDegrees>
              <LongitudeDegrees>-0.133180730044841766357421875</LongitudeDegrees>
            </Position>
            <AltitudeMeters>2504.800048828125</AltitudeMeters>
            <DistanceMeters>13758.973018069</DistanceMeters>
          </Trackpoint>
          <Trackpoint>
            <Time>2022-07-09T12:10:59.000Z</Time>
            <Position>
              <LatitudeDegrees>42.7874751202762126922607421875</LatitudeDegrees>
              <LongitudeDegrees>-0.13317410834133625030517578125</LongitudeDegrees>
            </Position>
            <AltitudeMeters>2504.800048828125</AltitudeMeters>
            <DistanceMeters>13759.75662843</DistanceMeters>
          </Trackpoint>
          <Trackpoint>
            <Time>2022-07-09T12:11:00.000Z</Time>
            <Position>
              <LatitudeDegrees>42.78747872449457645416259765625</LatitudeDegrees>
              <LongitudeDegrees>-0.1331751979887485504150390625</LongitudeDegrees>
            </Position>
            <AltitudeMeters>2504.800048828125</AltitudeMeters>
            <DistanceMeters>13760.181600816</DistanceMeters>
          </Trackpoint>
          <Trackpoint>
            <Time>2022-07-09T12:11:06.000Z</Time>
            <Position>
              <LatitudeDegrees>42.787480987608432769775390625</LatitudeDegrees>
              <LongitudeDegrees>-0.13317494653165340423583984375</LongitudeDegrees>
            </Position>
            <AltitudeMeters>2504.800048828125</AltitudeMeters>
            <DistanceMeters>13760.43301787</DistanceMeters>
          </Trackpoint>
          <Trackpoint>
            <Time>2022-07-09T12:11:12.000Z</Time>
            <Position>
              <LatitudeDegrees>42.78746380470693111419677734375</LatitudeDegrees>
              <LongitudeDegrees>-0.1331688277423381805419921875</LongitudeDegrees>
            </Position>
            <AltitudeMeters>2504.60009765625</AltitudeMeters>
            <DistanceMeters>13762.410395705</DistanceMeters>
          </Trackpoint>
          <Trackpoint>
            <Time>2022-07-09T12:11:18.000Z</Time>
            <Position>
              <LatitudeDegrees>42.78747235424816608428955078125</LatitudeDegrees>
              <LongitudeDegrees>-0.1331463642418384552001953125</LongitudeDegrees>
            </Position>
            <AltitudeMeters>2503.800048828125</AltitudeMeters>
            <DistanceMeters>13764.477090205</DistanceMeters>
          </Trackpoint>
          <Trackpoint>
            <Time>2022-07-09T12:11:23.000Z</Time>
            <Position>
              <LatitudeDegrees>42.7874992601573467254638671875</LatitudeDegrees>
              <LongitudeDegrees>-0.13315516524016857147216796875</LongitudeDegrees>
            </Position>
            <AltitudeMeters>2503.60009765625</AltitudeMeters>
            <DistanceMeters>13767.556307682</DistanceMeters>
          </Trackpoint>
          <Trackpoint>
            <Time>2022-07-09T12:11:29.000Z</Time>
            <Position>
              <LatitudeDegrees>42.787491716444492340087890625</LatitudeDegrees>
              <LongitudeDegrees>-0.13314644806087017059326171875</LongitudeDegrees>
            </Position>
            <AltitudeMeters>2503.60009765625</AltitudeMeters>
            <DistanceMeters>13768.656321429</DistanceMeters>
          </Trackpoint>
          <Trackpoint>
            <Time>2022-07-09T12:11:35.000Z</Time>
            <Position>
              <LatitudeDegrees>42.78750286437571048736572265625</LatitudeDegrees>
              <LongitudeDegrees>-0.1331389881670475006103515625</LongitudeDegrees>
            </Position>
            <AltitudeMeters>2503.60009765625</AltitudeMeters>
            <DistanceMeters>13770.039931275</DistanceMeters>
          </Trackpoint>
          <Trackpoint>
            <Time>2022-07-09T12:11:38.000Z</Time>
            <Position>
              <LatitudeDegrees>42.78750789351761341094970703125</LatitudeDegrees>
              <LongitudeDegrees>-0.1331487111747264862060546875</LongitudeDegrees>
            </Position>
            <AltitudeMeters>2502.800048828125</AltitudeMeters>
            <DistanceMeters>13771.013665338</DistanceMeters>
          </Trackpoint>
          <Trackpoint>
            <Time>2022-07-09T12:11:39.000Z</Time>
            <Position>
              <LatitudeDegrees>42.78750814497470855712890625</LatitudeDegrees>
              <LongitudeDegrees>-0.13314711861312389373779296875</LongitudeDegrees>
            </Position>
            <AltitudeMeters>2502.60009765625</AltitudeMeters>
            <DistanceMeters>13771.148053406</DistanceMeters>
          </Trackpoint>
          <Trackpoint>
            <Time>2022-07-09T12:11:44.000Z</Time>
            <Position>
              <LatitudeDegrees>42.7875007688999176025390625</LatitudeDegrees>
              <LongitudeDegrees>-0.133152902126312255859375</LongitudeDegrees>
            </Position>
            <AltitudeMeters>2502.60009765625</AltitudeMeters>
            <DistanceMeters>13772.09832055</DistanceMeters>
          </Trackpoint>
          <Trackpoint>
            <Time>2022-07-09T12:11:50.000Z</Time>
            <Position>
              <LatitudeDegrees>42.78748794458806514739990234375</LatitudeDegrees>
              <LongitudeDegrees>-0.1331651397049427032470703125</LongitudeDegrees>
            </Position>
            <AltitudeMeters>2502.39990234375</AltitudeMeters>
            <DistanceMeters>13773.840188997</DistanceMeters>
          </Trackpoint>
          <Trackpoint>
            <Time>2022-07-09T12:11:53.000Z</Time>
            <Position>
              <LatitudeDegrees>42.7874871902167797088623046875</LatitudeDegrees>
              <LongitudeDegrees>-0.13314259238541126251220703125</LongitudeDegrees>
            </Position>
            <AltitudeMeters>2502.60009765625</AltitudeMeters>
            <DistanceMeters>13775.682825353</DistanceMeters>
          </Trackpoint>
          <Trackpoint>
            <Time>2022-07-09T12:11:59.000Z</Time>
            <Position>
              <LatitudeDegrees>42.7874902077019214630126953125</LatitudeDegrees>
              <LongitudeDegrees>-0.13314695097506046295166015625</LongitudeDegrees>
            </Position>
            <AltitudeMeters>2503</AltitudeMeters>
            <DistanceMeters>13776.167368424</DistanceMeters>
          </Trackpoint>
          <Trackpoint>
            <Time>2022-07-09T12:12:00.000Z</Time>
            <Position>
              <LatitudeDegrees>42.7874900400638580322265625</LatitudeDegrees>
              <LongitudeDegrees>-0.133147872984409332275390625</LongitudeDegrees>
            </Position>
            <AltitudeMeters>2503</AltitudeMeters>
            <DistanceMeters>13776.262395139</DistanceMeters>
          </Trackpoint>
          <Trackpoint>
            <Time>2022-07-09T12:12:01.000Z</Time>
            <Position>
              <LatitudeDegrees>42.787489034235477447509765625</LatitudeDegrees>
              <LongitudeDegrees>-0.1331413350999355316162109375</LongitudeDegrees>
            </Position>
            <AltitudeMeters>2503</AltitudeMeters>
            <DistanceMeters>13776.816491339</DistanceMeters>
          </Trackpoint>
          <Trackpoint>
            <Time>2022-07-09T12:12:02.000Z</Time>
            <Position>
              <LatitudeDegrees>42.78748727403581142425537109375</LatitudeDegrees>
              <LongitudeDegrees>-0.1331386528909206390380859375</LongitudeDegrees>
            </Position>
            <AltitudeMeters>2503</AltitudeMeters>
            <DistanceMeters>13777.085267475</DistanceMeters>
          </Trackpoint>
          <Trackpoint>
            <Time>2022-07-09T12:12:04.000Z</Time>
            <Position>
              <LatitudeDegrees>42.78748978860676288604736328125</LatitudeDegrees>
              <LongitudeDegrees>-0.13313622213900089263916015625</LongitudeDegrees>
            </Position>
            <AltitudeMeters>2502.800048828125</AltitudeMeters>
            <DistanceMeters>13777.427891167</DistanceMeters>
          </Trackpoint>
          <Trackpoint>
            <Time>2022-07-09T12:12:05.000Z</Time>
            <Position>
              <LatitudeDegrees>42.78749079443514347076416015625</LatitudeDegrees>
              <LongitudeDegrees>-0.13313588686287403106689453125</LongitudeDegrees>
            </Position>
            <AltitudeMeters>2502.60009765625</AltitudeMeters>
            <DistanceMeters>13777.562279235</DistanceMeters>
          </Trackpoint>
          <Trackpoint>
            <Time>2022-07-09T12:12:06.000Z</Time>
            <Position>
              <LatitudeDegrees>42.78749196790158748626708984375</LatitudeDegrees>
              <LongitudeDegrees>-0.13313488103449344635009765625</LongitudeDegrees>
            </Position>
            <AltitudeMeters>2502.60009765625</AltitudeMeters>
            <DistanceMeters>13777.696667303</DistanceMeters>
          </Trackpoint>
          <Trackpoint>
            <Time>2022-07-09T12:12:08.000Z</Time>
            <Position>
              <LatitudeDegrees>42.7874972485005855560302734375</LatitudeDegrees>
              <LongitudeDegrees>-0.13313655741512775421142578125</LongitudeDegrees>
            </Position>
            <AltitudeMeters>2502.39990234375</AltitudeMeters>
            <DistanceMeters>13778.297669015</DistanceMeters>
          </Trackpoint>
          <Trackpoint>
            <Time>2022-07-09T12:12:10.000Z</Time>
            <Position>
              <LatitudeDegrees>42.78750286437571048736572265625</LatitudeDegrees>
              <LongitudeDegrees>-0.13314091600477695465087890625</LongitudeDegrees>
            </Position>
            <AltitudeMeters>2502.39990234375</AltitudeMeters>
            <DistanceMeters>13779.021370911</DistanceMeters>
          </Trackpoint>
          <Trackpoint>
            <Time>2022-07-09T12:12:11.000Z</Time>
            <Position>
              <LatitudeDegrees>42.7875034511089324951171875</LatitudeDegrees>
              <LongitudeDegrees>-0.133144520223140716552734375</LongitudeDegrees>
            </Position>
            <AltitudeMeters>2502.39990234375</AltitudeMeters>
            <DistanceMeters>13779.336538867</DistanceMeters>
          </Trackpoint>
          <Trackpoint>
            <Time>2022-07-09T12:12:15.000Z</Time>
            <Position>
              <LatitudeDegrees>42.787497751414775848388671875</LatitudeDegrees>
              <LongitudeDegrees>-0.1331376470625400543212890625</LongitudeDegrees>
            </Position>
            <AltitudeMeters>2502.800048828125</AltitudeMeters>
            <DistanceMeters>13780.186483639</DistanceMeters>
          </Trackpoint>
          <Trackpoint>
            <Time>2022-07-09T12:12:19.000Z</Time>
            <Position>
              <LatitudeDegrees>42.7874788083136081695556640625</LatitudeDegrees>
              <LongitudeDegrees>-0.13314150273799896240234375</LongitudeDegrees>
            </Position>
            <AltitudeMeters>2503</AltitudeMeters>
            <DistanceMeters>13782.319828086</DistanceMeters>
          </Trackpoint>
          <Trackpoint>
            <Time>2022-07-09T12:12:25.000Z</Time>
            <Position>
              <LatitudeDegrees>42.78747201897203922271728515625</LatitudeDegrees>
              <LongitudeDegrees>-0.13317100703716278076171875</LongitudeDegrees>
            </Position>
            <AltitudeMeters>2503</AltitudeMeters>
            <DistanceMeters>13784.844750653</DistanceMeters>
          </Trackpoint>
          <Trackpoint>
            <Time>2022-07-09T12:12:29.000Z</Time>
            <Position>
              <LatitudeDegrees>42.787482328712940216064453125</LatitudeDegrees>
              <LongitudeDegrees>-0.13318232260644435882568359375</LongitudeDegrees>
            </Position>
            <AltitudeMeters>2503</AltitudeMeters>
            <DistanceMeters>13786.319961968</DistanceMeters>
          </Trackpoint>
          <Trackpoint>
            <Time>2022-07-09T12:12:32.000Z</Time>
            <Position>
              <LatitudeDegrees>42.78748576529324054718017578125</LatitudeDegrees>
              <LongitudeDegrees>-0.1331637986004352569580078125</LongitudeDegrees>
            </Position>
            <AltitudeMeters>2503</AltitudeMeters>
            <DistanceMeters>13787.881410218</DistanceMeters>
          </Trackpoint>
          <Trackpoint>
            <Time>2022-07-09T12:12:34.000Z</Time>
            <Position>
              <LatitudeDegrees>42.787489704787731170654296875</LatitudeDegrees>
              <LongitudeDegrees>-0.13316161930561065673828125</LongitudeDegrees>
            </Position>
            <AltitudeMeters>2503.39990234375</AltitudeMeters>
            <DistanceMeters>13788.35654379</DistanceMeters>
          </Trackpoint>
          <Trackpoint>
            <Time>2022-07-09T12:12:39.000Z</Time>
            <Position>
              <LatitudeDegrees>42.78748174197971820831298828125</LatitudeDegrees>
              <LongitudeDegrees>-0.133147872984409332275390625</LongitudeDegrees>
            </Position>
            <AltitudeMeters>2503.60009765625</AltitudeMeters>
            <DistanceMeters>13789.785108551</DistanceMeters>
          </Trackpoint>
          <Trackpoint>
            <Time>2022-07-09T12:12:40.000Z</Time>
            <Position>
              <LatitudeDegrees>42.7874793112277984619140625</LatitudeDegrees>
              <LongitudeDegrees>-0.13315013609826564788818359375</LongitudeDegrees>
            </Position>
            <AltitudeMeters>2503.60009765625</AltitudeMeters>
            <DistanceMeters>13790.127732242</DistanceMeters>
          </Trackpoint>
          <Trackpoint>
            <Time>2022-07-09T12:12:42.000Z</Time>
            <Position>
              <LatitudeDegrees>42.7874739468097686767578125</LatitudeDegrees>
              <LongitudeDegrees>-0.13315625488758087158203125</LongitudeDegrees>
            </Position>
            <AltitudeMeters>2503.39990234375</AltitudeMeters>
            <DistanceMeters>13790.905559422</DistanceMeters>
          </Trackpoint>
          <Trackpoint>
            <Time>2022-07-09T12:12:43.000Z</Time>
            <Position>
              <LatitudeDegrees>42.78747151605784893035888671875</LatitudeDegrees>
              <LongitudeDegrees>-0.13315717689692974090576171875</LongitudeDegrees>
            </Position>
            <AltitudeMeters>2503.39990234375</AltitudeMeters>
            <DistanceMeters>13791.206060278</DistanceMeters>
          </Trackpoint>
          <Trackpoint>
            <Time>2022-07-09T12:12:45.000Z</Time>
            <Position>
              <LatitudeDegrees>42.78747235424816608428955078125</LatitudeDegrees>
              <LongitudeDegrees>-0.1331567578017711639404296875</LongitudeDegrees>
            </Position>
            <AltitudeMeters>2503.199951171875</AltitudeMeters>
            <DistanceMeters>13791.340448347</DistanceMeters>
          </Trackpoint>
          <Trackpoint>
            <Time>2022-07-09T12:12:46.000Z</Time>
            <Position>
              <LatitudeDegrees>42.7874766290187835693359375</LatitudeDegrees>
              <LongitudeDegrees>-0.1331544108688831329345703125</LongitudeDegrees>
            </Position>
            <AltitudeMeters>2503.199951171875</AltitudeMeters>
            <DistanceMeters>13791.852182864</DistanceMeters>
          </Trackpoint>
          <Trackpoint>
            <Time>2022-07-09T12:12:47.000Z</Time>
            <Position>
              <LatitudeDegrees>42.78748174197971820831298828125</LatitudeDegrees>
              <LongitudeDegrees>-0.13315466232597827911376953125</LongitudeDegrees>
            </Position>
            <AltitudeMeters>2510.60009765625</AltitudeMeters>
            <DistanceMeters>13792.422343151</DistanceMeters>
          </Trackpoint>
          <Trackpoint>
            <Time>2022-07-09T12:12:50.000Z</Time>
            <Position>
              <LatitudeDegrees>42.78749129734933376312255859375</LatitudeDegrees>
              <LongitudeDegrees>-0.13315181247889995574951171875</LongitudeDegrees>
            </Position>
            <AltitudeMeters>2510.60009765625</AltitudeMeters>
            <DistanceMeters>13793.509973609</DistanceMeters>
          </Trackpoint>
          <Trackpoint>
            <Time>2022-07-09T12:12:51.000Z</Time>
            <Position>
              <LatitudeDegrees>42.7874895371496677398681640625</LatitudeDegrees>
              <LongitudeDegrees>-0.13315482996404170989990234375</LongitudeDegrees>
            </Position>
            <AltitudeMeters>2506.800048828125</AltitudeMeters>
            <DistanceMeters>13793.810474465</DistanceMeters>
          </Trackpoint>
          <Trackpoint>
            <Time>2022-07-09T12:12:52.000Z</Time>
            <Position>
              <LatitudeDegrees>42.78748593293130397796630859375</LatitudeDegrees>
              <LongitudeDegrees>-0.1331557519733905792236328125</LongitudeDegrees>
            </Position>
            <AltitudeMeters>2504.800048828125</AltitudeMeters>
            <DistanceMeters>13794.235446851</DistanceMeters>
          </Trackpoint>
          <Trackpoint>
            <Time>2022-07-09T12:12:54.000Z</Time>
            <Position>
              <LatitudeDegrees>42.78748174197971820831298828125</LatitudeDegrees>
              <LongitudeDegrees>-0.13315784744918346405029296875</LongitudeDegrees>
            </Position>
            <AltitudeMeters>2503.39990234375</AltitudeMeters>
            <DistanceMeters>13794.729220143</DistanceMeters>
          </Trackpoint>
          <Trackpoint>
            <Time>2022-07-09T12:12:56.000Z</Time>
            <Position>
              <LatitudeDegrees>42.78748400509357452392578125</LatitudeDegrees>
              <LongitudeDegrees>-0.13316187076270580291748046875</LongitudeDegrees>
            </Position>
            <AltitudeMeters>2503</AltitudeMeters>
            <DistanceMeters>13795.154192529</DistanceMeters>
          </Trackpoint>
          <Trackpoint>
            <Time>2022-07-09T12:12:57.000Z</Time>
            <Position>
              <LatitudeDegrees>42.7874841727316379547119140625</LatitudeDegrees>
              <LongitudeDegrees>-0.13316455297172069549560546875</LongitudeDegrees>
            </Position>
            <AltitudeMeters>2503</AltitudeMeters>
            <DistanceMeters>13795.386959491</DistanceMeters>
          </Trackpoint>
          <Trackpoint>
            <Time>2022-07-09T12:12:58.000Z</Time>
            <Position>
              <LatitudeDegrees>42.787487693130970001220703125</LatitudeDegrees>
              <LongitudeDegrees>-0.1331661455333232879638671875</LongitudeDegrees>
            </Position>
            <AltitudeMeters>2503</AltitudeMeters>
            <DistanceMeters>13795.811931877</DistanceMeters>
          </Trackpoint>
          <Trackpoint>
            <Time>2022-07-09T12:13:04.000Z</Time>
            <Position>
              <LatitudeDegrees>42.78749347664415836334228515625</LatitudeDegrees>
              <LongitudeDegrees>-0.13317192904651165008544921875</LongitudeDegrees>
            </Position>
            <AltitudeMeters>2502.800048828125</AltitudeMeters>
            <DistanceMeters>13796.612641205</DistanceMeters>
          </Trackpoint>
          <Trackpoint>
            <Time>2022-07-09T12:13:05.000Z</Time>
            <Position>
              <LatitudeDegrees>42.78748794458806514739990234375</LatitudeDegrees>
              <LongitudeDegrees>-0.13317234814167022705078125</LongitudeDegrees>
            </Position>
            <AltitudeMeters>2502.800048828125</AltitudeMeters>
            <DistanceMeters>13797.235773043</DistanceMeters>
          </Trackpoint>
          <Trackpoint>
            <Time>2022-07-09T12:13:06.000Z</Time>
            <Position>
              <LatitudeDegrees>42.78748308308422565460205078125</LatitudeDegrees>
              <LongitudeDegrees>-0.13317444361746311187744140625</LongitudeDegrees>
            </Position>
            <AltitudeMeters>2502.800048828125</AltitudeMeters>
            <DistanceMeters>13797.805933329</DistanceMeters>
          </Trackpoint>
          <Trackpoint>
            <Time>2022-07-09T12:13:12.000Z</Time>
            <Position>
              <LatitudeDegrees>42.78748258017003536224365234375</LatitudeDegrees>
              <LongitudeDegrees>-0.1331580989062786102294921875</LongitudeDegrees>
            </Position>
            <AltitudeMeters>2502.800048828125</AltitudeMeters>
            <DistanceMeters>13799.143077725</DistanceMeters>
          </Trackpoint>
          <Trackpoint>
            <Time>2022-07-09T12:13:18.000Z</Time>
            <Position>
              <LatitudeDegrees>42.78748610056936740875244140625</LatitudeDegrees>
              <LongitudeDegrees>-0.13314628042280673980712890625</LongitudeDegrees>
            </Position>
            <AltitudeMeters>2502.800048828125</AltitudeMeters>
            <DistanceMeters>13800.184043226</DistanceMeters>
          </Trackpoint>
          <Trackpoint>
            <Time>2022-07-09T12:13:19.000Z</Time>
            <Position>
              <LatitudeDegrees>42.7874900400638580322265625</LatitudeDegrees>
              <LongitudeDegrees>-0.13314896263182163238525390625</LongitudeDegrees>
            </Position>
            <AltitudeMeters>2502.800048828125</AltitudeMeters>
            <DistanceMeters>13800.677816518</DistanceMeters>
          </Trackpoint>
          <Trackpoint>
            <Time>2022-07-09T12:13:21.000Z</Time>
            <Position>
              <LatitudeDegrees>42.78749481774866580963134765625</LatitudeDegrees>
              <LongitudeDegrees>-0.1331483758985996246337890625</LongitudeDegrees>
            </Position>
            <AltitudeMeters>2502.800048828125</AltitudeMeters>
            <DistanceMeters>13801.206902871</DistanceMeters>
          </Trackpoint>
          <Trackpoint>
            <Time>2022-07-09T12:13:23.000Z</Time>
            <Position>
              <LatitudeDegrees>42.78749381192028522491455078125</LatitudeDegrees>
              <LongitudeDegrees>-0.1331523992121219635009765625</LongitudeDegrees>
            </Position>
            <AltitudeMeters>2502.800048828125</AltitudeMeters>
            <DistanceMeters>13801.549526563</DistanceMeters>
          </Trackpoint>
          <Trackpoint>
            <Time>2022-07-09T12:13:24.000Z</Time>
            <Position>
              <LatitudeDegrees>42.787491716444492340087890625</LatitudeDegrees>
              <LongitudeDegrees>-0.13315600343048572540283203125</LongitudeDegrees>
            </Position>
            <AltitudeMeters>2502.800048828125</AltitudeMeters>
            <DistanceMeters>13801.92963342</DistanceMeters>
          </Trackpoint>
          <Trackpoint>
            <Time>2022-07-09T12:13:26.000Z</Time>
            <Position>
              <LatitudeDegrees>42.78748936951160430908203125</LatitudeDegrees>
              <LongitudeDegrees>-0.1331569254398345947265625</LongitudeDegrees>
            </Position>
            <AltitudeMeters>2502.800048828125</AltitudeMeters>
            <DistanceMeters>13802.214713563</DistanceMeters>
          </Trackpoint>
          <Trackpoint>
            <Time>2022-07-09T12:13:29.000Z</Time>
            <Position>
              <LatitudeDegrees>42.78749129734933376312255859375</LatitudeDegrees>
              <LongitudeDegrees>-0.13316161930561065673828125</LongitudeDegrees>
            </Position>
            <AltitudeMeters>2502.800048828125</AltitudeMeters>
            <DistanceMeters>13802.650180675</DistanceMeters>
          </Trackpoint>
          <Trackpoint>
            <Time>2022-07-09T12:13:33.000Z</Time>
            <Position>
              <LatitudeDegrees>42.78749297372996807098388671875</LatitudeDegrees>
              <LongitudeDegrees>-0.1331661455333232879638671875</LongitudeDegrees>
            </Position>
            <AltitudeMeters>2502.800048828125</AltitudeMeters>
            <DistanceMeters>13803.075153061</DistanceMeters>
          </Trackpoint>
          <Trackpoint>
            <Time>2022-07-09T12:13:39.000Z</Time>
            <Position>
              <LatitudeDegrees>42.787456512451171875</LatitudeDegrees>
              <LongitudeDegrees>-0.1331316120922565460205078125</LongitudeDegrees>
            </Position>
            <AltitudeMeters>2502.800048828125</AltitudeMeters>
            <DistanceMeters>13808.017455842</DistanceMeters>
          </Trackpoint>
          <Trackpoint>
            <Time>2022-07-09T12:13:43.000Z</Time>
            <Position>
              <LatitudeDegrees>42.7874600328505039215087890625</LatitudeDegrees>
              <LongitudeDegrees>-0.13314024545252323150634765625</LongitudeDegrees>
            </Position>
            <AltitudeMeters>2502.800048828125</AltitudeMeters>
            <DistanceMeters>13808.81816517</DistanceMeters>
          </Trackpoint>
          <Trackpoint>
            <Time>2022-07-09T12:13:45.000Z</Time>
            <Position>
              <LatitudeDegrees>42.7874710969626903533935546875</LatitudeDegrees>
              <LongitudeDegrees>-0.13314091600477695465087890625</LongitudeDegrees>
            </Position>
            <AltitudeMeters>2502.800048828125</AltitudeMeters>
            <DistanceMeters>13810.04985216</DistanceMeters>
          </Trackpoint>
          <Trackpoint>
            <Time>2022-07-09T12:13:48.000Z</Time>
            <Position>
              <LatitudeDegrees>42.7874814905226230621337890625</LatitudeDegrees>
              <LongitudeDegrees>-0.13314611278474330902099609375</LongitudeDegrees>
            </Position>
            <AltitudeMeters>2502.800048828125</AltitudeMeters>
            <DistanceMeters>13811.281539151</DistanceMeters>
          </Trackpoint>
          <Trackpoint>
            <Time>2022-07-09T12:13:51.000Z</Time>
            <Position>
              <LatitudeDegrees>42.78749062679708003997802734375</LatitudeDegrees>
              <LongitudeDegrees>-0.133152902126312255859375</LongitudeDegrees>
            </Position>
            <AltitudeMeters>2502.800048828125</AltitudeMeters>
            <DistanceMeters>13812.441488025</DistanceMeters>
          </Trackpoint>
          <Trackpoint>
            <Time>2022-07-09T12:13:57.000Z</Time>
            <Position>
              <LatitudeDegrees>42.78750889934599399566650390625</LatitudeDegrees>
              <LongitudeDegrees>-0.13314896263182163238525390625</LongitudeDegrees>
            </Position>
            <AltitudeMeters>2502.800048828125</AltitudeMeters>
            <DistanceMeters>13814.499425306</DistanceMeters>
          </Trackpoint>
          <Trackpoint>
            <Time>2022-07-09T12:14:01.000Z</Time>
            <Position>
              <LatitudeDegrees>42.787503115832805633544921875</LatitudeDegrees>
              <LongitudeDegrees>-0.13315047137439250946044921875</LongitudeDegrees>
            </Position>
            <AltitudeMeters>2502.800048828125</AltitudeMeters>
            <DistanceMeters>13815.157789695</DistanceMeters>
          </Trackpoint>
          <Trackpoint>
            <Time>2022-07-09T12:14:07.000Z</Time>
            <Position>
              <LatitudeDegrees>42.7874846756458282470703125</LatitudeDegrees>
              <LongitudeDegrees>-0.13316706754267215728759765625</LongitudeDegrees>
            </Position>
            <AltitudeMeters>2502.800048828125</AltitudeMeters>
            <DistanceMeters>13817.619330126</DistanceMeters>
          </Trackpoint>
          <Trackpoint>
            <Time>2022-07-09T12:14:11.000Z</Time>
            <Position>
              <LatitudeDegrees>42.787484340369701385498046875</LatitudeDegrees>
              <LongitudeDegrees>-0.13316421769559383392333984375</LongitudeDegrees>
            </Position>
            <AltitudeMeters>2502.800048828125</AltitudeMeters>
            <DistanceMeters>13817.852097088</DistanceMeters>
          </Trackpoint>
          <Trackpoint>
            <Time>2022-07-09T12:14:13.000Z</Time>
            <Position>
              <LatitudeDegrees>42.78748073615133762359619140625</LatitudeDegrees>
              <LongitudeDegrees>-0.13316237367689609527587890625</LongitudeDegrees>
            </Position>
            <AltitudeMeters>2502.800048828125</AltitudeMeters>
            <DistanceMeters>13818.2875642</DistanceMeters>
          </Trackpoint>
          <Trackpoint>
            <Time>2022-07-09T12:14:16.000Z</Time>
            <Position>
              <LatitudeDegrees>42.78747788630425930023193359375</LatitudeDegrees>
              <LongitudeDegrees>-0.13316840864717960357666015625</LongitudeDegrees>
            </Position>
            <AltitudeMeters>2502.800048828125</AltitudeMeters>
            <DistanceMeters>13818.873348209</DistanceMeters>
          </Trackpoint>
          <Trackpoint>
            <Time>2022-07-09T12:14:22.000Z</Time>
            <Position>
              <LatitudeDegrees>42.7874828316271305084228515625</LatitudeDegrees>
              <LongitudeDegrees>-0.1331664808094501495361328125</LongitudeDegrees>
            </Position>
            <AltitudeMeters>2502.800048828125</AltitudeMeters>
            <DistanceMeters>13819.443508495</DistanceMeters>
          </Trackpoint>
          <Trackpoint>
            <Time>2022-07-09T12:14:25.000Z</Time>
            <Position>
              <LatitudeDegrees>42.7874801494181156158447265625</LatitudeDegrees>
              <LongitudeDegrees>-0.13315851800143718719482421875</LongitudeDegrees>
            </Position>
            <AltitudeMeters>2502.800048828125</AltitudeMeters>
            <DistanceMeters>13820.154623311</DistanceMeters>
          </Trackpoint>
          <Trackpoint>
            <Time>2022-07-09T12:14:31.000Z</Time>
            <Position>
              <LatitudeDegrees>42.787486352026462554931640625</LatitudeDegrees>
              <LongitudeDegrees>-0.13315759599208831787109375</LongitudeDegrees>
            </Position>
            <AltitudeMeters>2502.800048828125</AltitudeMeters>
            <DistanceMeters>13820.846428234</DistanceMeters>
          </Trackpoint>
          <Trackpoint>
            <Time>2022-07-09T12:14:35.000Z</Time>
            <Position>
              <LatitudeDegrees>42.78748006559908390045166015625</LatitudeDegrees>
              <LongitudeDegrees>-0.13316069729626178741455078125</LongitudeDegrees>
            </Position>
            <AltitudeMeters>2502.800048828125</AltitudeMeters>
            <DistanceMeters>13821.582501998</DistanceMeters>
          </Trackpoint>
          <Trackpoint>
            <Time>2022-07-09T12:14:41.000Z</Time>
            <Position>
              <LatitudeDegrees>42.78748895041644573211669921875</LatitudeDegrees>
              <LongitudeDegrees>-0.13316321186721324920654296875</LongitudeDegrees>
            </Position>
            <AltitudeMeters>2502.800048828125</AltitudeMeters>
            <DistanceMeters>13822.588170214</DistanceMeters>
          </Trackpoint>
          <Trackpoint>
            <Time>2022-07-09T12:14:47.000Z</Time>
            <Position>
              <LatitudeDegrees>42.78750269673764705657958984375</LatitudeDegrees>
              <LongitudeDegrees>-0.13315214775502681732177734375</LongitudeDegrees>
            </Position>
            <AltitudeMeters>2502.800048828125</AltitudeMeters>
            <DistanceMeters>13824.365957253</DistanceMeters>
          </Trackpoint>
          <Trackpoint>
            <Time>2022-07-09T12:14:49.000Z</Time>
            <Position>
              <LatitudeDegrees>42.787496410310268402099609375</LatitudeDegrees>
              <LongitudeDegrees>-0.133163630962371826171875</LongitudeDegrees>
            </Position>
            <AltitudeMeters>2502.800048828125</AltitudeMeters>
            <DistanceMeters>13825.537525271</DistanceMeters>
          </Trackpoint>
          <Trackpoint>
            <Time>2022-07-09T12:14:55.000Z</Time>
            <Position>
              <LatitudeDegrees>42.78749062679708003997802734375</LatitudeDegrees>
              <LongitudeDegrees>-0.1331567578017711639404296875</LongitudeDegrees>
            </Position>
            <AltitudeMeters>2502.800048828125</AltitudeMeters>
            <DistanceMeters>13826.3927657</DistanceMeters>
          </Trackpoint>
          <Trackpoint>
            <Time>2022-07-09T12:15:01.000Z</Time>
            <Position>
              <LatitudeDegrees>42.78747403062880039215087890625</LatitudeDegrees>
              <LongitudeDegrees>-0.13315550051629543304443359375</LongitudeDegrees>
            </Position>
            <AltitudeMeters>2502.800048828125</AltitudeMeters>
            <DistanceMeters>13828.245177385</DistanceMeters>
          </Trackpoint>
          <Trackpoint>
            <Time>2022-07-09T12:15:07.000Z</Time>
            <Position>
              <LatitudeDegrees>42.7874945662915706634521484375</LatitudeDegrees>
              <LongitudeDegrees>-0.133152902126312255859375</LongitudeDegrees>
            </Position>
            <AltitudeMeters>2502.800048828125</AltitudeMeters>
            <DistanceMeters>13830.541601701</DistanceMeters>
          </Trackpoint>
          <Trackpoint>
            <Time>2022-07-09T12:15:12.000Z</Time>
            <Position>
              <LatitudeDegrees>42.78748643584549427032470703125</LatitudeDegrees>
              <LongitudeDegrees>-0.13315365649759769439697265625</LongitudeDegrees>
            </Position>
            <AltitudeMeters>2502.800048828125</AltitudeMeters>
            <DistanceMeters>13831.453065926</DistanceMeters>
          </Trackpoint>
          <Trackpoint>
            <Time>2022-07-09T12:15:18.000Z</Time>
            <Position>
              <LatitudeDegrees>42.7875120006501674652099609375</LatitudeDegrees>
              <LongitudeDegrees>-0.13315432704985141754150390625</LongitudeDegrees>
            </Position>
            <AltitudeMeters>2502.800048828125</AltitudeMeters>
            <DistanceMeters>13834.300698038</DistanceMeters>
          </Trackpoint>
          <Trackpoint>
            <Time>2022-07-09T12:15:24.000Z</Time>
            <Position>
              <LatitudeDegrees>42.78748534619808197021484375</LatitudeDegrees>
              <LongitudeDegrees>-0.133150555193424224853515625</LongitudeDegrees>
            </Position>
            <AltitudeMeters>2502.800048828125</AltitudeMeters>
            <DistanceMeters>13837.284597395</DistanceMeters>
          </Trackpoint>
          <Trackpoint>
            <Time>2022-07-09T12:15:30.000Z</Time>
            <Position>
              <LatitudeDegrees>42.7874851785600185394287109375</LatitudeDegrees>
              <LongitudeDegrees>-0.13314980082213878631591796875</LongitudeDegrees>
            </Position>
            <AltitudeMeters>2502.800048828125</AltitudeMeters>
            <DistanceMeters>13837.284597395</DistanceMeters>
          </Trackpoint>
          <Trackpoint>
            <Time>2022-07-09T12:15:36.000Z</Time>
            <Position>
              <LatitudeDegrees>42.78748341836035251617431640625</LatitudeDegrees>
              <LongitudeDegrees>-0.1331540755927562713623046875</LongitudeDegrees>
            </Position>
            <AltitudeMeters>2502.800048828125</AltitudeMeters>
            <DistanceMeters>13837.664704253</DistanceMeters>
          </Trackpoint>
          <Trackpoint>
            <Time>2022-07-09T12:15:39.000Z</Time>
            <Position>
              <LatitudeDegrees>42.78748475946485996246337890625</LatitudeDegrees>
              <LongitudeDegrees>-0.133147202432155609130859375</LongitudeDegrees>
            </Position>
            <AltitudeMeters>2502.800048828125</AltitudeMeters>
            <DistanceMeters>13838.242729191</DistanceMeters>
          </Trackpoint>
          <Trackpoint>
            <Time>2022-07-09T12:15:45.000Z</Time>
            <Position>
              <LatitudeDegrees>42.7874858491122722625732421875</LatitudeDegrees>
              <LongitudeDegrees>-0.133155919611454010009765625</LongitudeDegrees>
            </Position>
            <AltitudeMeters>2502.800048828125</AltitudeMeters>
            <DistanceMeters>13838.966431086</DistanceMeters>
          </Trackpoint>
          <Trackpoint>
            <Time>2022-07-09T12:15:48.000Z</Time>
            <Position>
              <LatitudeDegrees>42.7874945662915706634521484375</LatitudeDegrees>
              <LongitudeDegrees>-0.13316488824784755706787109375</LongitudeDegrees>
            </Position>
            <AltitudeMeters>2502.800048828125</AltitudeMeters>
            <DistanceMeters>13840.179650959</DistanceMeters>
          </Trackpoint>
          <Trackpoint>
            <Time>2022-07-09T12:15:50.000Z</Time>
            <Position>
              <LatitudeDegrees>42.78750143945217132568359375</LatitudeDegrees>
              <LongitudeDegrees>-0.13316321186721324920654296875</LongitudeDegrees>
            </Position>
            <AltitudeMeters>2502.800048828125</AltitudeMeters>
            <DistanceMeters>13840.957478139</DistanceMeters>
          </Trackpoint>
          <Trackpoint>
            <Time>2022-07-09T12:15:54.000Z</Time>
            <Position>
              <LatitudeDegrees>42.78750470839440822601318359375</LatitudeDegrees>
              <LongitudeDegrees>-0.133145861327648162841796875</LongitudeDegrees>
            </Position>
            <AltitudeMeters>2502.800048828125</AltitudeMeters>
            <DistanceMeters>13842.420395812</DistanceMeters>
          </Trackpoint>
          <Trackpoint>
            <Time>2022-07-09T12:15:56.000Z</Time>
            <Position>
              <LatitudeDegrees>42.7874955721199512481689453125</LatitudeDegrees>
              <LongitudeDegrees>-0.13314276002347469329833984375</LongitudeDegrees>
            </Position>
            <AltitudeMeters>2502.800048828125</AltitudeMeters>
            <DistanceMeters>13843.470000178</DistanceMeters>
          </Trackpoint>
          <Trackpoint>
            <Time>2022-07-09T12:15:59.000Z</Time>
            <Position>
              <LatitudeDegrees>42.78748132288455963134765625</LatitudeDegrees>
              <LongitudeDegrees>-0.1331433467566967010498046875</LongitudeDegrees>
            </Position>
            <AltitudeMeters>2502.800048828125</AltitudeMeters>
            <DistanceMeters>13845.054412136</DistanceMeters>
          </Trackpoint>
          <Trackpoint>
            <Time>2022-07-09T12:16:00.000Z</Time>
            <Position>
              <LatitudeDegrees>42.78748190961778163909912109375</LatitudeDegrees>
              <LongitudeDegrees>-0.133143849670886993408203125</LongitudeDegrees>
            </Position>
            <AltitudeMeters>2502.800048828125</AltitudeMeters>
            <DistanceMeters>13845.054412136</DistanceMeters>
          </Trackpoint>
          <Trackpoint>
            <Time>2022-07-09T12:16:03.000Z</Time>
            <Position>
              <LatitudeDegrees>42.78747989796102046966552734375</LatitudeDegrees>
              <LongitudeDegrees>-0.13314762152731418609619140625</LongitudeDegrees>
            </Position>
            <AltitudeMeters>2502.800048828125</AltitudeMeters>
            <DistanceMeters>13845.434518993</DistanceMeters>
          </Trackpoint>
          <Trackpoint>
            <Time>2022-07-09T12:16:06.000Z</Time>
            <Position>
              <LatitudeDegrees>42.78747864067554473876953125</LatitudeDegrees>
              <LongitudeDegrees>-0.1331517286598682403564453125</LongitudeDegrees>
            </Position>
            <AltitudeMeters>2502.800048828125</AltitudeMeters>
            <DistanceMeters>13845.777142685</DistanceMeters>
          </Trackpoint>
          <Trackpoint>
            <Time>2022-07-09T12:16:11.000Z</Time>
            <Position>
              <LatitudeDegrees>42.7874922193586826324462890625</LatitudeDegrees>
              <LongitudeDegrees>-0.13317368924617767333984375</LongitudeDegrees>
            </Position>
            <AltitudeMeters>2502.800048828125</AltitudeMeters>
            <DistanceMeters>13848.124129398</DistanceMeters>
          </Trackpoint>
          <Trackpoint>
            <Time>2022-07-09T12:16:12.000Z</Time>
            <Position>
              <LatitudeDegrees>42.78749297372996807098388671875</LatitudeDegrees>
              <LongitudeDegrees>-0.1331765390932559967041015625</LongitudeDegrees>
            </Position>
            <AltitudeMeters>2502.800048828125</AltitudeMeters>
            <DistanceMeters>13848.392905534</DistanceMeters>
          </Trackpoint>
          <Trackpoint>
            <Time>2022-07-09T12:16:13.000Z</Time>
            <Position>
              <LatitudeDegrees>42.7874935604631900787353515625</LatitudeDegrees>
              <LongitudeDegrees>-0.13317712582647800445556640625</LongitudeDegrees>
            </Position>
            <AltitudeMeters>2502.800048828125</AltitudeMeters>
            <DistanceMeters>13848.487932248</DistanceMeters>
          </Trackpoint>
          <Trackpoint>
            <Time>2022-07-09T12:16:15.000Z</Time>
            <Position>
              <LatitudeDegrees>42.787491381168365478515625</LatitudeDegrees>
              <LongitudeDegrees>-0.13316639699041843414306640625</LongitudeDegrees>
            </Position>
            <AltitudeMeters>2502.800048828125</AltitudeMeters>
            <DistanceMeters>13849.399396473</DistanceMeters>
          </Trackpoint>
          <Trackpoint>
            <Time>2022-07-09T12:16:21.000Z</Time>
            <Position>
              <LatitudeDegrees>42.78746296651661396026611328125</LatitudeDegrees>
              <LongitudeDegrees>-0.13314745388925075531005859375</LongitudeDegrees>
            </Position>
            <AltitudeMeters>2502.800048828125</AltitudeMeters>
            <DistanceMeters>13852.919235231</DistanceMeters>
          </Trackpoint>
          <Trackpoint>
            <Time>2022-07-09T12:16:27.000Z</Time>
            <Position>
              <LatitudeDegrees>42.78748056851327419281005859375</LatitudeDegrees>
              <LongitudeDegrees>-0.13315969146788120269775390625</LongitudeDegrees>
            </Position>
            <AltitudeMeters>2502.800048828125</AltitudeMeters>
            <DistanceMeters>13855.11515436</DistanceMeters>
          </Trackpoint>
          <Trackpoint>
            <Time>2022-07-09T12:16:33.000Z</Time>
            <Position>
              <LatitudeDegrees>42.7874979190528392791748046875</LatitudeDegrees>
              <LongitudeDegrees>-0.13315181247889995574951171875</LongitudeDegrees>
            </Position>
            <AltitudeMeters>2502.800048828125</AltitudeMeters>
            <DistanceMeters>13857.151033798</DistanceMeters>
          </Trackpoint>
          <Trackpoint>
            <Time>2022-07-09T12:16:39.000Z</Time>
            <Position>
              <LatitudeDegrees>42.7874982543289661407470703125</LatitudeDegrees>
              <LongitudeDegrees>-0.133149214088916778564453125</LongitudeDegrees>
            </Position>
            <AltitudeMeters>2502.800048828125</AltitudeMeters>
            <DistanceMeters>13857.363519991</DistanceMeters>
          </Trackpoint>
          <Trackpoint>
            <Time>2022-07-09T12:16:42.000Z</Time>
            <Position>
              <LatitudeDegrees>42.78748794458806514739990234375</LatitudeDegrees>
              <LongitudeDegrees>-0.13315885327756404876708984375</LongitudeDegrees>
            </Position>
            <AltitudeMeters>2502.800048828125</AltitudeMeters>
            <DistanceMeters>13858.756885139</DistanceMeters>
          </Trackpoint>
          <Trackpoint>
            <Time>2022-07-09T12:16:44.000Z</Time>
            <Position>
              <LatitudeDegrees>42.78747939504683017730712890625</LatitudeDegrees>
              <LongitudeDegrees>-0.1331537403166294097900390625</LongitudeDegrees>
            </Position>
            <AltitudeMeters>2502.800048828125</AltitudeMeters>
            <DistanceMeters>13859.79785064</DistanceMeters>
          </Trackpoint>
          <Trackpoint>
            <Time>2022-07-09T12:16:50.000Z</Time>
            <Position>
              <LatitudeDegrees>42.78746581636369228363037109375</LatitudeDegrees>
              <LongitudeDegrees>-0.13314259238541126251220703125</LongitudeDegrees>
            </Position>
            <AltitudeMeters>2502.800048828125</AltitudeMeters>
            <DistanceMeters>13861.565449703</DistanceMeters>
          </Trackpoint>
          <Trackpoint>
            <Time>2022-07-09T12:16:53.000Z</Time>
            <Position>
              <LatitudeDegrees>42.78745743446052074432373046875</LatitudeDegrees>
              <LongitudeDegrees>-0.13315415941178798675537109375</LongitudeDegrees>
            </Position>
            <AltitudeMeters>2502.800048828125</AltitudeMeters>
            <DistanceMeters>13862.895823705</DistanceMeters>
          </Trackpoint>
          <Trackpoint>
            <Time>2022-07-09T12:16:59.000Z</Time>
            <Position>
              <LatitudeDegrees>42.78744284994900226593017578125</LatitudeDegrees>
              <LongitudeDegrees>-0.13315030373632907867431640625</LongitudeDegrees>
            </Position>
            <AltitudeMeters>2502.800048828125</AltitudeMeters>
            <DistanceMeters>13864.549943761</DistanceMeters>
          </Trackpoint>
          <Trackpoint>
            <Time>2022-07-09T12:17:05.000Z</Time>
            <Position>
              <LatitudeDegrees>42.787451483309268951416015625</LatitudeDegrees>
              <LongitudeDegrees>-0.13316270895302295684814453125</LongitudeDegrees>
            </Position>
            <AltitudeMeters>2502.800048828125</AltitudeMeters>
            <DistanceMeters>13865.946545534</DistanceMeters>
          </Trackpoint>
          <Trackpoint>
            <Time>2022-07-09T12:17:11.000Z</Time>
            <Position>
              <LatitudeDegrees>42.78743430040776729583740234375</LatitudeDegrees>
              <LongitudeDegrees>-0.1331591047346591949462890625</LongitudeDegrees>
            </Position>
            <AltitudeMeters>2502.800048828125</AltitudeMeters>
            <DistanceMeters>13867.884717818</DistanceMeters>
          </Trackpoint>
          <Trackpoint>
            <Time>2022-07-09T12:17:12.000Z</Time>
            <Position>
              <LatitudeDegrees>42.7874338813126087188720703125</LatitudeDegrees>
              <LongitudeDegrees>-0.1331591047346591949462890625</LongitudeDegrees>
            </Position>
            <AltitudeMeters>2502.800048828125</AltitudeMeters>
            <DistanceMeters>13867.884717818</DistanceMeters>
          </Trackpoint>
          <Trackpoint>
            <Time>2022-07-09T12:17:13.000Z</Time>
            <Position>
              <LatitudeDegrees>42.787437401711940765380859375</LatitudeDegrees>
              <LongitudeDegrees>-0.1331649720668792724609375</LongitudeDegrees>
            </Position>
            <AltitudeMeters>2502.800048828125</AltitudeMeters>
            <DistanceMeters>13868.500561313</DistanceMeters>
          </Trackpoint>
          <Trackpoint>
            <Time>2022-07-09T12:17:18.000Z</Time>
            <Position>
              <LatitudeDegrees>42.78746631927788257598876953125</LatitudeDegrees>
              <LongitudeDegrees>-0.13317444361746311187744140625</LongitudeDegrees>
            </Position>
            <AltitudeMeters>2502.800048828125</AltitudeMeters>
            <DistanceMeters>13871.808801427</DistanceMeters>
          </Trackpoint>
          <Trackpoint>
            <Time>2022-07-09T12:17:22.000Z</Time>
            <Position>
              <LatitudeDegrees>42.78748911805450916290283203125</LatitudeDegrees>
              <LongitudeDegrees>-0.1331939734518527984619140625</LongitudeDegrees>
            </Position>
            <AltitudeMeters>2502.800048828125</AltitudeMeters>
            <DistanceMeters>13874.806288051</DistanceMeters>
          </Trackpoint>
          <Trackpoint>
            <Time>2022-07-09T12:17:24.000Z</Time>
            <Position>
              <LatitudeDegrees>42.787486016750335693359375</LatitudeDegrees>
              <LongitudeDegrees>-0.13320545665919780731201171875</LongitudeDegrees>
            </Position>
            <AltitudeMeters>2502.800048828125</AltitudeMeters>
            <DistanceMeters>13875.802936639</DistanceMeters>
          </Trackpoint>
          <Trackpoint>
            <Time>2022-07-09T12:17:25.000Z</Time>
            <Position>
              <LatitudeDegrees>42.78748241253197193145751953125</LatitudeDegrees>
              <LongitudeDegrees>-0.1332100667059421539306640625</LongitudeDegrees>
            </Position>
            <AltitudeMeters>2502.800048828125</AltitudeMeters>
            <DistanceMeters>13876.35703284</DistanceMeters>
          </Trackpoint>
          <Trackpoint>
            <Time>2022-07-09T12:17:26.000Z</Time>
            <Position>
              <LatitudeDegrees>42.7874804846942424774169921875</LatitudeDegrees>
              <LongitudeDegrees>-0.1332132518291473388671875</LongitudeDegrees>
            </Position>
            <AltitudeMeters>2502.800048828125</AltitudeMeters>
            <DistanceMeters>13876.699656531</DistanceMeters>
          </Trackpoint>
          <Trackpoint>
            <Time>2022-07-09T12:17:28.000Z</Time>
            <Position>
              <LatitudeDegrees>42.787475623190402984619140625</LatitudeDegrees>
              <LongitudeDegrees>-0.13320964761078357696533203125</LongitudeDegrees>
            </Position>
            <AltitudeMeters>2502.800048828125</AltitudeMeters>
            <DistanceMeters>13877.315500026</DistanceMeters>
          </Trackpoint>
          <Trackpoint>
            <Time>2022-07-09T12:17:30.000Z</Time>
            <Position>
              <LatitudeDegrees>42.78746665455400943756103515625</LatitudeDegrees>
              <LongitudeDegrees>-0.13320210389792919158935546875</LongitudeDegrees>
            </Position>
            <AltitudeMeters>2502.800048828125</AltitudeMeters>
            <DistanceMeters>13878.487068043</DistanceMeters>
          </Trackpoint>
          <Trackpoint>
            <Time>2022-07-09T12:17:31.000Z</Time>
            <Position>
              <LatitudeDegrees>42.787462882697582244873046875</LatitudeDegrees>
              <LongitudeDegrees>-0.13319648802280426025390625</LongitudeDegrees>
            </Position>
            <AltitudeMeters>2502.800048828125</AltitudeMeters>
            <DistanceMeters>13879.102911539</DistanceMeters>
          </Trackpoint>
          <Trackpoint>
            <Time>2022-07-09T12:17:32.000Z</Time>
            <Position>
              <LatitudeDegrees>42.7874607034027576446533203125</LatitudeDegrees>
              <LongitudeDegrees>-0.1331933028995990753173828125</LongitudeDegrees>
            </Position>
            <AltitudeMeters>2502.800048828125</AltitudeMeters>
            <DistanceMeters>13879.458468946</DistanceMeters>
          </Trackpoint>
          <Trackpoint>
            <Time>2022-07-09T12:17:34.000Z</Time>
            <Position>
              <LatitudeDegrees>42.787460200488567352294921875</LatitudeDegrees>
              <LongitudeDegrees>-0.13319154269993305206298828125</LongitudeDegrees>
            </Position>
            <AltitudeMeters>2502.800048828125</AltitudeMeters>
            <DistanceMeters>13879.592857015</DistanceMeters>
          </Trackpoint>
          <Trackpoint>
            <Time>2022-07-09T12:17:38.000Z</Time>
            <Position>
              <LatitudeDegrees>42.787464894354343414306640625</LatitudeDegrees>
              <LongitudeDegrees>-0.133189447224140167236328125</LongitudeDegrees>
            </Position>
            <AltitudeMeters>2502.800048828125</AltitudeMeters>
            <DistanceMeters>13880.138743928</DistanceMeters>
          </Trackpoint>
          <Trackpoint>
            <Time>2022-07-09T12:17:44.000Z</Time>
            <Position>
              <LatitudeDegrees>42.78746648691594600677490234375</LatitudeDegrees>
              <LongitudeDegrees>-0.13316824100911617279052734375</LongitudeDegrees>
            </Position>
            <AltitudeMeters>2502.800048828125</AltitudeMeters>
            <DistanceMeters>13881.878018377</DistanceMeters>
          </Trackpoint>
          <Trackpoint>
            <Time>2022-07-09T12:17:49.000Z</Time>
            <Position>
              <LatitudeDegrees>42.78746497817337512969970703125</LatitudeDegrees>
              <LongitudeDegrees>-0.13316941447556018829345703125</LongitudeDegrees>
            </Position>
            <AltitudeMeters>2502.800048828125</AltitudeMeters>
            <DistanceMeters>13882.068071806</DistanceMeters>
          </Trackpoint>
          <Trackpoint>
            <Time>2022-07-09T12:17:55.000Z</Time>
            <Position>
              <LatitudeDegrees>42.787468917667865753173828125</LatitudeDegrees>
              <LongitudeDegrees>-0.133161284029483795166015625</LongitudeDegrees>
            </Position>
            <AltitudeMeters>2502.800048828125</AltitudeMeters>
            <DistanceMeters>13882.86312234</DistanceMeters>
          </Trackpoint>
          <Trackpoint>
            <Time>2022-07-09T12:17:58.000Z</Time>
            <Position>
              <LatitudeDegrees>42.78747352771461009979248046875</LatitudeDegrees>
              <LongitudeDegrees>-0.13316161930561065673828125</LongitudeDegrees>
            </Position>
            <AltitudeMeters>2502.800048828125</AltitudeMeters>
            <DistanceMeters>13883.38360509</DistanceMeters>
          </Trackpoint>
          <Trackpoint>
            <Time>2022-07-09T12:18:04.000Z</Time>
            <Position>
              <LatitudeDegrees>42.78746330179274082183837890625</LatitudeDegrees>
              <LongitudeDegrees>-0.133163295686244964599609375</LongitudeDegrees>
            </Position>
            <AltitudeMeters>2502.800048828125</AltitudeMeters>
            <DistanceMeters>13884.531817249</DistanceMeters>
          </Trackpoint>
          <Trackpoint>
            <Time>2022-07-09T12:18:10.000Z</Time>
            <Position>
              <LatitudeDegrees>42.7874684147536754608154296875</LatitudeDegrees>
              <LongitudeDegrees>-0.13315231539309024810791015625</LongitudeDegrees>
            </Position>
            <AltitudeMeters>2502.800048828125</AltitudeMeters>
            <DistanceMeters>13885.594248214</DistanceMeters>
          </Trackpoint>
          <Trackpoint>
            <Time>2022-07-09T12:18:16.000Z</Time>
            <Position>
              <LatitudeDegrees>42.7874949015676975250244140625</LatitudeDegrees>
              <LongitudeDegrees>-0.1331302709877490997314453125</LongitudeDegrees>
            </Position>
            <AltitudeMeters>2502.800048828125</AltitudeMeters>
            <DistanceMeters>13889.049354733</DistanceMeters>
          </Trackpoint>
          <Trackpoint>
            <Time>2022-07-09T12:18:22.000Z</Time>
            <Position>
              <LatitudeDegrees>42.787474952638149261474609375</LatitudeDegrees>
              <LongitudeDegrees>-0.133112333714962005615234375</LongitudeDegrees>
            </Position>
            <AltitudeMeters>2502.800048828125</AltitudeMeters>
            <DistanceMeters>13891.710102735</DistanceMeters>
          </Trackpoint>
          <Trackpoint>
            <Time>2022-07-09T12:18:25.000Z</Time>
            <Position>
              <LatitudeDegrees>42.787474282085895538330078125</LatitudeDegrees>
              <LongitudeDegrees>-0.133116357028484344482421875</LongitudeDegrees>
            </Position>
            <AltitudeMeters>2502.800048828125</AltitudeMeters>
            <DistanceMeters>13892.03928493</DistanceMeters>
          </Trackpoint>
          <Trackpoint>
            <Time>2022-07-09T12:18:31.000Z</Time>
            <Position>
              <LatitudeDegrees>42.78748626820743083953857421875</LatitudeDegrees>
              <LongitudeDegrees>-0.133174024522304534912109375</LongitudeDegrees>
            </Position>
            <AltitudeMeters>2502.800048828125</AltitudeMeters>
            <DistanceMeters>13896.934774985</DistanceMeters>
          </Trackpoint>
          <Trackpoint>
            <Time>2022-07-09T12:18:37.000Z</Time>
            <Position>
              <LatitudeDegrees>42.78747419826686382293701171875</LatitudeDegrees>
              <LongitudeDegrees>-0.13317176140844821929931640625</LongitudeDegrees>
            </Position>
            <AltitudeMeters>2502.800048828125</AltitudeMeters>
            <DistanceMeters>13898.288697257</DistanceMeters>
          </Trackpoint>
          <Trackpoint>
            <Time>2022-07-09T12:18:43.000Z</Time>
            <Position>
              <LatitudeDegrees>42.78747553937137126922607421875</LatitudeDegrees>
              <LongitudeDegrees>-0.1331728510558605194091796875</LongitudeDegrees>
            </Position>
            <AltitudeMeters>2502.800048828125</AltitudeMeters>
            <DistanceMeters>13898.478750686</DistanceMeters>
          </Trackpoint>
          <Trackpoint>
            <Time>2022-07-09T12:18:48.000Z</Time>
            <Position>
              <LatitudeDegrees>42.7874784730374813079833984375</LatitudeDegrees>
              <LongitudeDegrees>-0.13320042751729488372802734375</LongitudeDegrees>
            </Position>
            <AltitudeMeters>2502.800048828125</AltitudeMeters>
            <DistanceMeters>13900.755428941</DistanceMeters>
          </Trackpoint>
          <Trackpoint>
            <Time>2022-07-09T12:18:51.000Z</Time>
            <Position>
              <LatitudeDegrees>42.78748207725584506988525390625</LatitudeDegrees>
              <LongitudeDegrees>-0.13317796401679515838623046875</LongitudeDegrees>
            </Position>
            <AltitudeMeters>2502.800048828125</AltitudeMeters>
            <DistanceMeters>13902.632056185</DistanceMeters>
          </Trackpoint>
          <Trackpoint>
            <Time>2022-07-09T12:18:52.000Z</Time>
            <Position>
              <LatitudeDegrees>42.787482999265193939208984375</LatitudeDegrees>
              <LongitudeDegrees>-0.13317109085619449615478515625</LongitudeDegrees>
            </Position>
            <AltitudeMeters>2502.800048828125</AltitudeMeters>
            <DistanceMeters>13903.210081123</DistanceMeters>
          </Trackpoint>
          <Trackpoint>
            <Time>2022-07-09T12:18:58.000Z</Time>
            <Position>
              <LatitudeDegrees>42.78747168369591236114501953125</LatitudeDegrees>
              <LongitudeDegrees>-0.1331658102571964263916015625</LongitudeDegrees>
            </Position>
            <AltitudeMeters>2502.800048828125</AltitudeMeters>
            <DistanceMeters>13904.540455124</DistanceMeters>
          </Trackpoint>
          <Trackpoint>
            <Time>2022-07-09T12:19:02.000Z</Time>
            <Position>
              <LatitudeDegrees>42.78747973032295703887939453125</LatitudeDegrees>
              <LongitudeDegrees>-0.133162625133991241455078125</LongitudeDegrees>
            </Position>
            <AltitudeMeters>2502.800048828125</AltitudeMeters>
            <DistanceMeters>13905.476359721</DistanceMeters>
          </Trackpoint>
          <Trackpoint>
            <Time>2022-07-09T12:19:06.000Z</Time>
            <Position>
              <LatitudeDegrees>42.787489034235477447509765625</LatitudeDegrees>
              <LongitudeDegrees>-0.13316153548657894134521484375</LongitudeDegrees>
            </Position>
            <AltitudeMeters>2502.800048828125</AltitudeMeters>
            <DistanceMeters>13906.512978792</DistanceMeters>
          </Trackpoint>
          <Trackpoint>
            <Time>2022-07-09T12:19:12.000Z</Time>
            <Position>
              <LatitudeDegrees>42.78748375363647937774658203125</LatitudeDegrees>
              <LongitudeDegrees>-0.13318299315869808197021484375</LongitudeDegrees>
            </Position>
            <AltitudeMeters>2502.800048828125</AltitudeMeters>
            <DistanceMeters>13908.360509277</DistanceMeters>
          </Trackpoint>
          <Trackpoint>
            <Time>2022-07-09T12:19:18.000Z</Time>
            <Position>
              <LatitudeDegrees>42.787451483309268951416015625</LatitudeDegrees>
              <LongitudeDegrees>-0.1331986673176288604736328125</LongitudeDegrees>
            </Position>
            <AltitudeMeters>2502.800048828125</AltitudeMeters>
            <DistanceMeters>13912.173437689</DistanceMeters>
          </Trackpoint>
          <Trackpoint>
            <Time>2022-07-09T12:19:23.000Z</Time>
            <Position>
              <LatitudeDegrees>42.78748995624482631683349609375</LatitudeDegrees>
              <LongitudeDegrees>-0.13316505588591098785400390625</LongitudeDegrees>
            </Position>
            <AltitudeMeters>2502.800048828125</AltitudeMeters>
            <DistanceMeters>13917.260696193</DistanceMeters>
          </Trackpoint>
          <Trackpoint>
            <Time>2022-07-09T12:19:27.000Z</Time>
            <Position>
              <LatitudeDegrees>42.7874942310154438018798828125</LatitudeDegrees>
              <LongitudeDegrees>-0.1331627927720546722412109375</LongitudeDegrees>
            </Position>
            <AltitudeMeters>2502.800048828125</AltitudeMeters>
            <DistanceMeters>13917.763530302</DistanceMeters>
          </Trackpoint>
          <Trackpoint>
            <Time>2022-07-09T12:19:33.000Z</Time>
            <Position>
              <LatitudeDegrees>42.787499763071537017822265625</LatitudeDegrees>
              <LongitudeDegrees>-0.1331353001296520233154296875</LongitudeDegrees>
            </Position>
            <AltitudeMeters>2502.800048828125</AltitudeMeters>
            <DistanceMeters>13920.091199923</DistanceMeters>
          </Trackpoint>
          <Trackpoint>
            <Time>2022-07-09T12:19:39.000Z</Time>
            <Position>
              <LatitudeDegrees>42.78749850578606128692626953125</LatitudeDegrees>
              <LongitudeDegrees>-0.13314141891896724700927734375</LongitudeDegrees>
            </Position>
            <AltitudeMeters>2502.800048828125</AltitudeMeters>
            <DistanceMeters>13920.611682673</DistanceMeters>
          </Trackpoint>
          <Trackpoint>
            <Time>2022-07-09T12:19:45.000Z</Time>
            <Position>
              <LatitudeDegrees>42.78748677112162113189697265625</LatitudeDegrees>
              <LongitudeDegrees>-0.13317058794200420379638671875</LongitudeDegrees>
            </Position>
            <AltitudeMeters>2502.800048828125</AltitudeMeters>
            <DistanceMeters>13923.329513156</DistanceMeters>
          </Trackpoint>
          <Trackpoint>
            <Time>2022-07-09T12:19:51.000Z</Time>
            <Position>
              <LatitudeDegrees>42.78749029152095317840576171875</LatitudeDegrees>
              <LongitudeDegrees>-0.13315432704985141754150390625</LongitudeDegrees>
            </Position>
            <AltitudeMeters>2502.800048828125</AltitudeMeters>
            <DistanceMeters>13924.713123002</DistanceMeters>
          </Trackpoint>
          <Trackpoint>
            <Time>2022-07-09T12:19:57.000Z</Time>
            <Position>
              <LatitudeDegrees>42.78750789351761341094970703125</LatitudeDegrees>
              <LongitudeDegrees>-0.1331567578017711639404296875</LongitudeDegrees>
            </Position>
            <AltitudeMeters>2502.800048828125</AltitudeMeters>
            <DistanceMeters>13926.679050955</DistanceMeters>
          </Trackpoint>
          <Trackpoint>
            <Time>2022-07-09T12:20:02.000Z</Time>
            <Position>
              <LatitudeDegrees>42.7875061333179473876953125</LatitudeDegrees>
              <LongitudeDegrees>-0.1331503875553607940673828125</LongitudeDegrees>
            </Position>
            <AltitudeMeters>2502.800048828125</AltitudeMeters>
            <DistanceMeters>13927.241236579</DistanceMeters>
          </Trackpoint>
          <Trackpoint>
            <Time>2022-07-09T12:20:04.000Z</Time>
            <Position>
              <LatitudeDegrees>42.787493728101253509521484375</LatitudeDegrees>
              <LongitudeDegrees>-0.13315566815435886383056640625</LongitudeDegrees>
            </Position>
            <AltitudeMeters>2502.800048828125</AltitudeMeters>
            <DistanceMeters>13928.685517597</DistanceMeters>
          </Trackpoint>
          <Trackpoint>
            <Time>2022-07-09T12:20:10.000Z</Time>
            <Position>
              <LatitudeDegrees>42.78747654519975185394287109375</LatitudeDegrees>
              <LongitudeDegrees>-0.13314963318407535552978515625</LongitudeDegrees>
            </Position>
            <AltitudeMeters>2502.800048828125</AltitudeMeters>
            <DistanceMeters>13930.658323453</DistanceMeters>
          </Trackpoint>
          <Trackpoint>
            <Time>2022-07-09T12:20:16.000Z</Time>
            <Position>
              <LatitudeDegrees>42.78750152327120304107666015625</LatitudeDegrees>
              <LongitudeDegrees>-0.13314443640410900115966796875</LongitudeDegrees>
            </Position>
            <AltitudeMeters>2502.800048828125</AltitudeMeters>
            <DistanceMeters>13933.470857358</DistanceMeters>
          </Trackpoint>
          <Trackpoint>
            <Time>2022-07-09T12:20:18.000Z</Time>
            <Position>
              <LatitudeDegrees>42.78751074336469173431396484375</LatitudeDegrees>
              <LongitudeDegrees>-0.1331381499767303466796875</LongitudeDegrees>
            </Position>
            <AltitudeMeters>2502.800048828125</AltitudeMeters>
            <DistanceMeters>13934.619069516</DistanceMeters>
          </Trackpoint>
          <Trackpoint>
            <Time>2022-07-09T12:20:22.000Z</Time>
            <Position>
              <LatitudeDegrees>42.787499763071537017822265625</LatitudeDegrees>
              <LongitudeDegrees>-0.13314778916537761688232421875</LongitudeDegrees>
            </Position>
            <AltitudeMeters>2502.800048828125</AltitudeMeters>
            <DistanceMeters>13936.069589358</DistanceMeters>
          </Trackpoint>
          <Trackpoint>
            <Time>2022-07-09T12:20:26.000Z</Time>
            <Position>
              <LatitudeDegrees>42.7874766290187835693359375</LatitudeDegrees>
              <LongitudeDegrees>-0.1331557519733905792236328125</LongitudeDegrees>
            </Position>
            <AltitudeMeters>2502.800048828125</AltitudeMeters>
            <DistanceMeters>13938.723541058</DistanceMeters>
          </Trackpoint>
          <Trackpoint>
            <Time>2022-07-09T12:20:32.000Z</Time>
            <Position>
              <LatitudeDegrees>42.78749146498739719390869140625</LatitudeDegrees>
              <LongitudeDegrees>-0.1331688277423381805419921875</LongitudeDegrees>
            </Position>
            <AltitudeMeters>2502.800048828125</AltitudeMeters>
            <DistanceMeters>13940.694056948</DistanceMeters>
          </Trackpoint>
          <Trackpoint>
            <Time>2022-07-09T12:20:37.000Z</Time>
            <Position>
              <LatitudeDegrees>42.7874982543289661407470703125</LatitudeDegrees>
              <LongitudeDegrees>-0.13316170312464237213134765625</LongitudeDegrees>
            </Position>
            <AltitudeMeters>2502.800048828125</AltitudeMeters>
            <DistanceMeters>13941.653779719</DistanceMeters>
          </Trackpoint>
          <Trackpoint>
            <Time>2022-07-09T12:20:38.000Z</Time>
            <Position>
              <LatitudeDegrees>42.787497751414775848388671875</LatitudeDegrees>
              <LongitudeDegrees>-0.13315650634467601776123046875</LongitudeDegrees>
            </Position>
            <AltitudeMeters>2502.800048828125</AltitudeMeters>
            <DistanceMeters>13942.089246831</DistanceMeters>
          </Trackpoint>
          <Trackpoint>
            <Time>2022-07-09T12:20:43.000Z</Time>
            <Position>
              <LatitudeDegrees>42.78751107864081859588623046875</LatitudeDegrees>
              <LongitudeDegrees>-0.13314460404217243194580078125</LongitudeDegrees>
            </Position>
            <AltitudeMeters>2502.800048828125</AltitudeMeters>
            <DistanceMeters>13943.861947201</DistanceMeters>
          </Trackpoint>
          <Trackpoint>
            <Time>2022-07-09T12:20:45.000Z</Time>
            <Position>
              <LatitudeDegrees>42.78751644305884838104248046875</LatitudeDegrees>
              <LongitudeDegrees>-0.1331369765102863311767578125</LongitudeDegrees>
            </Position>
            <AltitudeMeters>2502.800048828125</AltitudeMeters>
            <DistanceMeters>13944.722450698</DistanceMeters>
          </Trackpoint>
          <Trackpoint>
            <Time>2022-07-09T12:20:49.000Z</Time>
            <Position>
              <LatitudeDegrees>42.78752381913363933563232421875</LatitudeDegrees>
              <LongitudeDegrees>-0.13312918134033679962158203125</LongitudeDegrees>
            </Position>
            <AltitudeMeters>2502.800048828125</AltitudeMeters>
            <DistanceMeters>13945.763416198</DistanceMeters>
          </Trackpoint>
          <Trackpoint>
            <Time>2022-07-09T12:20:55.000Z</Time>
            <Position>
              <LatitudeDegrees>42.787509821355342864990234375</LatitudeDegrees>
              <LongitudeDegrees>-0.133139826357364654541015625</LongitudeDegrees>
            </Position>
            <AltitudeMeters>2502.800048828125</AltitudeMeters>
            <DistanceMeters>13947.546275393</DistanceMeters>
          </Trackpoint>
          <Trackpoint>
            <Time>2022-07-09T12:20:58.000Z</Time>
            <Position>
              <LatitudeDegrees>42.78749951161444187164306640625</LatitudeDegrees>
              <LongitudeDegrees>-0.133119039237499237060546875</LongitudeDegrees>
            </Position>
            <AltitudeMeters>2502.800048828125</AltitudeMeters>
            <DistanceMeters>13949.593213465</DistanceMeters>
          </Trackpoint>
          <Trackpoint>
            <Time>2022-07-09T12:21:04.000Z</Time>
            <Position>
              <LatitudeDegrees>42.7874764613807201385498046875</LatitudeDegrees>
              <LongitudeDegrees>-0.1331165246665477752685546875</LongitudeDegrees>
            </Position>
            <AltitudeMeters>2502.800048828125</AltitudeMeters>
            <DistanceMeters>13952.165964139</DistanceMeters>
          </Trackpoint>
          <Trackpoint>
            <Time>2022-07-09T12:21:07.000Z</Time>
            <Position>
              <LatitudeDegrees>42.78747470118105411529541015625</LatitudeDegrees>
              <LongitudeDegrees>-0.13310118578374385833740234375</LongitudeDegrees>
            </Position>
            <AltitudeMeters>2502.800048828125</AltitudeMeters>
            <DistanceMeters>13953.43377864</DistanceMeters>
          </Trackpoint>
          <Trackpoint>
            <Time>2022-07-09T12:21:08.000Z</Time>
            <Position>
              <LatitudeDegrees>42.78747889213263988494873046875</LatitudeDegrees>
              <LongitudeDegrees>-0.1330964080989360809326171875</LongitudeDegrees>
            </Position>
            <AltitudeMeters>2502.800048828125</AltitudeMeters>
            <DistanceMeters>13954.042246498</DistanceMeters>
          </Trackpoint>
          <Trackpoint>
            <Time>2022-07-09T12:21:09.000Z</Time>
            <Position>
              <LatitudeDegrees>42.7874831669032573699951171875</LatitudeDegrees>
              <LongitudeDegrees>-0.13309297151863574981689453125</LongitudeDegrees>
            </Position>
            <AltitudeMeters>2502.800048828125</AltitudeMeters>
            <DistanceMeters>13954.596342698</DistanceMeters>
          </Trackpoint>
          <Trackpoint>
            <Time>2022-07-09T12:21:10.000Z</Time>
            <Position>
              <LatitudeDegrees>42.78748425655066967010498046875</LatitudeDegrees>
              <LongitudeDegrees>-0.1330920495092868804931640625</LongitudeDegrees>
            </Position>
            <AltitudeMeters>2502.800048828125</AltitudeMeters>
            <DistanceMeters>13954.730730766</DistanceMeters>
          </Trackpoint>
          <Trackpoint>
            <Time>2022-07-09T12:21:12.000Z</Time>
            <Position>
              <LatitudeDegrees>42.78748392127454280853271484375</LatitudeDegrees>
              <LongitudeDegrees>-0.13309380970895290374755859375</LongitudeDegrees>
            </Position>
            <AltitudeMeters>2502.800048828125</AltitudeMeters>
            <DistanceMeters>13954.895321863</DistanceMeters>
          </Trackpoint>
          <Trackpoint>
            <Time>2022-07-09T12:21:14.000Z</Time>
            <Position>
              <LatitudeDegrees>42.78748308308422565460205078125</LatitudeDegrees>
              <LongitudeDegrees>-0.13307620771229267120361328125</LongitudeDegrees>
            </Position>
            <AltitudeMeters>2502.800048828125</AltitudeMeters>
            <DistanceMeters>13956.336473341</DistanceMeters>
          </Trackpoint>
          <Trackpoint>
            <Time>2022-07-09T12:21:16.000Z</Time>
            <Position>
              <LatitudeDegrees>42.78748442418873310089111328125</LatitudeDegrees>
              <LongitudeDegrees>-0.1330417580902576446533203125</LongitudeDegrees>
            </Position>
            <AltitudeMeters>2502.800048828125</AltitudeMeters>
            <DistanceMeters>13959.155421243</DistanceMeters>
          </Trackpoint>
          <Trackpoint>
            <Time>2022-07-09T12:21:22.000Z</Time>
            <Position>
              <LatitudeDegrees>42.7874861843883991241455078125</LatitudeDegrees>
              <LongitudeDegrees>-0.13307872228324413299560546875</LongitudeDegrees>
            </Position>
            <AltitudeMeters>2502.800048828125</AltitudeMeters>
            <DistanceMeters>13962.181391751</DistanceMeters>
          </Trackpoint>
          <Trackpoint>
            <Time>2022-07-09T12:21:28.000Z</Time>
            <Position>
              <LatitudeDegrees>42.78748844750225543975830078125</LatitudeDegrees>
              <LongitudeDegrees>-0.133116357028484344482421875</LongitudeDegrees>
            </Position>
            <AltitudeMeters>2502.800048828125</AltitudeMeters>
            <DistanceMeters>13965.26354042</DistanceMeters>
          </Trackpoint>
          <Trackpoint>
            <Time>2022-07-09T12:21:31.000Z</Time>
            <Position>
              <LatitudeDegrees>42.7874954044818878173828125</LatitudeDegrees>
              <LongitudeDegrees>-0.13312515802681446075439453125</LongitudeDegrees>
            </Position>
            <AltitudeMeters>2502.800048828125</AltitudeMeters>
            <DistanceMeters>13966.321713127</DistanceMeters>
          </Trackpoint>
          <Trackpoint>
            <Time>2022-07-09T12:21:33.000Z</Time>
            <Position>
              <LatitudeDegrees>42.78749381192028522491455078125</LatitudeDegrees>
              <LongitudeDegrees>-0.1331426762044429779052734375</LongitudeDegrees>
            </Position>
            <AltitudeMeters>2502.800048828125</AltitudeMeters>
            <DistanceMeters>13967.765994145</DistanceMeters>
          </Trackpoint>
          <Trackpoint>
            <Time>2022-07-09T12:21:39.000Z</Time>
            <Position>
              <LatitudeDegrees>42.78748844750225543975830078125</LatitudeDegrees>
              <LongitudeDegrees>-0.13315357267856597900390625</LongitudeDegrees>
            </Position>
            <AltitudeMeters>2502.800048828125</AltitudeMeters>
            <DistanceMeters>13968.836890829</DistanceMeters>
          </Trackpoint>
          <Trackpoint>
            <Time>2022-07-09T12:21:45.000Z</Time>
            <Position>
              <LatitudeDegrees>42.78747252188622951507568359375</LatitudeDegrees>
              <LongitudeDegrees>-0.13313773088157176971435546875</LongitudeDegrees>
            </Position>
            <AltitudeMeters>2502.800048828125</AltitudeMeters>
            <DistanceMeters>13971.028693893</DistanceMeters>
          </Trackpoint>
          <Trackpoint>
            <Time>2022-07-09T12:21:46.000Z</Time>
            <Position>
              <LatitudeDegrees>42.7874744497239589691162109375</LatitudeDegrees>
              <LongitudeDegrees>-0.133138485252857208251953125</LongitudeDegrees>
            </Position>
            <AltitudeMeters>2502.800048828125</AltitudeMeters>
            <DistanceMeters>13971.280110947</DistanceMeters>
          </Trackpoint>
          <Trackpoint>
            <Time>2022-07-09T12:21:47.000Z</Time>
            <Position>
              <LatitudeDegrees>42.78747889213263988494873046875</LatitudeDegrees>
              <LongitudeDegrees>-0.1331369765102863311767578125</LongitudeDegrees>
            </Position>
            <AltitudeMeters>2502.800048828125</AltitudeMeters>
            <DistanceMeters>13971.791845465</DistanceMeters>
          </Trackpoint>
          <Trackpoint>
            <Time>2022-07-09T12:21:48.000Z</Time>
            <Position>
              <LatitudeDegrees>42.78748543001711368560791015625</LatitudeDegrees>
              <LongitudeDegrees>-0.13313437812030315399169921875</LongitudeDegrees>
            </Position>
            <AltitudeMeters>2502.800048828125</AltitudeMeters>
            <DistanceMeters>13972.55205918</DistanceMeters>
          </Trackpoint>
          <Trackpoint>
            <Time>2022-07-09T12:21:51.000Z</Time>
            <Position>
              <LatitudeDegrees>42.7874972485005855560302734375</LatitudeDegrees>
              <LongitudeDegrees>-0.1331329531967639923095703125</LongitudeDegrees>
            </Position>
            <AltitudeMeters>2502.800048828125</AltitudeMeters>
            <DistanceMeters>13973.875628154</DistanceMeters>
          </Trackpoint>
          <Trackpoint>
            <Time>2022-07-09T12:21:56.000Z</Time>
            <Position>
              <LatitudeDegrees>42.78749330900609493255615234375</LatitudeDegrees>
              <LongitudeDegrees>-0.1331542432308197021484375</LongitudeDegrees>
            </Position>
            <AltitudeMeters>2502.800048828125</AltitudeMeters>
            <DistanceMeters>13975.668588615</DistanceMeters>
          </Trackpoint>
          <Trackpoint>
            <Time>2022-07-09T12:21:57.000Z</Time>
            <Position>
              <LatitudeDegrees>42.78749096207320690155029296875</LatitudeDegrees>
              <LongitudeDegrees>-0.1331584341824054718017578125</LongitudeDegrees>
            </Position>
            <AltitudeMeters>2502.800048828125</AltitudeMeters>
            <DistanceMeters>13976.093561001</DistanceMeters>
          </Trackpoint>
          <Trackpoint>
            <Time>2022-07-09T12:22:03.000Z</Time>
            <Position>
              <LatitudeDegrees>42.78747503645718097686767578125</LatitudeDegrees>
              <LongitudeDegrees>-0.1331671513617038726806640625</LongitudeDegrees>
            </Position>
            <AltitudeMeters>2502.800048828125</AltitudeMeters>
            <DistanceMeters>13978.003574321</DistanceMeters>
          </Trackpoint>
          <Trackpoint>
            <Time>2022-07-09T12:22:09.000Z</Time>
            <Position>
              <LatitudeDegrees>42.7874794788658618927001953125</LatitudeDegrees>
              <LongitudeDegrees>-0.13314820826053619384765625</LongitudeDegrees>
            </Position>
            <AltitudeMeters>2502.800048828125</AltitudeMeters>
            <DistanceMeters>13979.627391528</DistanceMeters>
          </Trackpoint>
          <Trackpoint>
            <Time>2022-07-09T12:22:15.000Z</Time>
            <Position>
              <LatitudeDegrees>42.7874972485005855560302734375</LatitudeDegrees>
              <LongitudeDegrees>-0.1331399939954280853271484375</LongitudeDegrees>
            </Position>
            <AltitudeMeters>2502.800048828125</AltitudeMeters>
            <DistanceMeters>13981.713655377</DistanceMeters>
          </Trackpoint>
          <Trackpoint>
            <Time>2022-07-09T12:22:21.000Z</Time>
            <Position>
              <LatitudeDegrees>42.78748408891260623931884765625</LatitudeDegrees>
              <LongitudeDegrees>-0.13315298594534397125244140625</LongitudeDegrees>
            </Position>
            <AltitudeMeters>2502.800048828125</AltitudeMeters>
            <DistanceMeters>13983.521661923</DistanceMeters>
          </Trackpoint>
          <Trackpoint>
            <Time>2022-07-09T12:22:22.000Z</Time>
            <Position>
              <LatitudeDegrees>42.78748408891260623931884765625</LatitudeDegrees>
              <LongitudeDegrees>-0.13315214775502681732177734375</LongitudeDegrees>
            </Position>
            <AltitudeMeters>2502.800048828125</AltitudeMeters>
            <DistanceMeters>13983.616688638</DistanceMeters>
          </Trackpoint>
          <Trackpoint>
            <Time>2022-07-09T12:22:28.000Z</Time>
            <Position>
              <LatitudeDegrees>42.78747922740876674652099609375</LatitudeDegrees>
              <LongitudeDegrees>-0.13313437812030315399169921875</LongitudeDegrees>
            </Position>
            <AltitudeMeters>2502.800048828125</AltitudeMeters>
            <DistanceMeters>13985.160689992</DistanceMeters>
          </Trackpoint>
          <Trackpoint>
            <Time>2022-07-09T12:22:31.000Z</Time>
            <Position>
              <LatitudeDegrees>42.78747084550559520721435546875</LatitudeDegrees>
              <LongitudeDegrees>-0.1331383176147937774658203125</LongitudeDegrees>
            </Position>
            <AltitudeMeters>2502.800048828125</AltitudeMeters>
            <DistanceMeters>13986.139049896</DistanceMeters>
          </Trackpoint>
          <Trackpoint>
            <Time>2022-07-09T12:22:34.000Z</Time>
            <Position>
              <LatitudeDegrees>42.78746665455400943756103515625</LatitudeDegrees>
              <LongitudeDegrees>-0.13313219882547855377197265625</LongitudeDegrees>
            </Position>
            <AltitudeMeters>2502.800048828125</AltitudeMeters>
            <DistanceMeters>13986.817676376</DistanceMeters>
          </Trackpoint>
          <Trackpoint>
            <Time>2022-07-09T12:22:38.000Z</Time>
            <Position>
              <LatitudeDegrees>42.787480317056179046630859375</LatitudeDegrees>
              <LongitudeDegrees>-0.13314594514667987823486328125</LongitudeDegrees>
            </Position>
            <AltitudeMeters>2502.800048828125</AltitudeMeters>
            <DistanceMeters>13988.703902799</DistanceMeters>
          </Trackpoint>
          <Trackpoint>
            <Time>2022-07-09T12:22:44.000Z</Time>
            <Position>
              <LatitudeDegrees>42.7874741144478321075439453125</LatitudeDegrees>
              <LongitudeDegrees>-0.13312381692230701446533203125</LongitudeDegrees>
            </Position>
            <AltitudeMeters>2502.800048828125</AltitudeMeters>
            <DistanceMeters>13990.637410401</DistanceMeters>
          </Trackpoint>
          <Trackpoint>
            <Time>2022-07-09T12:22:47.000Z</Time>
            <Position>
              <LatitudeDegrees>42.787494398653507232666015625</LatitudeDegrees>
              <LongitudeDegrees>-0.133111663162708282470703125</LongitudeDegrees>
            </Position>
            <AltitudeMeters>2502.800048828125</AltitudeMeters>
            <DistanceMeters>13993.104447394</DistanceMeters>
          </Trackpoint>
          <Trackpoint>
            <Time>2022-07-09T12:22:51.000Z</Time>
            <Position>
              <LatitudeDegrees>42.7875042892992496490478515625</LatitudeDegrees>
              <LongitudeDegrees>-0.1331151835620403289794921875</LongitudeDegrees>
            </Position>
            <AltitudeMeters>2502.800048828125</AltitudeMeters>
            <DistanceMeters>13994.240801622</DistanceMeters>
          </Trackpoint>
          <Trackpoint>
            <Time>2022-07-09T12:22:53.000Z</Time>
            <Position>
              <LatitudeDegrees>42.7874975837767124176025390625</LatitudeDegrees>
              <LongitudeDegrees>-0.1331239007413387298583984375</LongitudeDegrees>
            </Position>
            <AltitudeMeters>2502.800048828125</AltitudeMeters>
            <DistanceMeters>13995.273055961</DistanceMeters>
          </Trackpoint>
          <Trackpoint>
            <Time>2022-07-09T12:22:59.000Z</Time>
            <Position>
              <LatitudeDegrees>42.7874900400638580322265625</LatitudeDegrees>
              <LongitudeDegrees>-0.1331322826445102691650390625</LongitudeDegrees>
            </Position>
            <AltitudeMeters>2502.800048828125</AltitudeMeters>
            <DistanceMeters>13996.356527205</DistanceMeters>
          </Trackpoint>
          <Trackpoint>
            <Time>2022-07-09T12:23:05.000Z</Time>
            <Position>
              <LatitudeDegrees>42.787508480250835418701171875</LatitudeDegrees>
              <LongitudeDegrees>-0.13312675058841705322265625</LongitudeDegrees>
            </Position>
            <AltitudeMeters>2502.800048828125</AltitudeMeters>
            <DistanceMeters>13998.460033197</DistanceMeters>
          </Trackpoint>
          <Trackpoint>
            <Time>2022-07-09T12:23:11.000Z</Time>
            <Position>
              <LatitudeDegrees>42.78750051744282245635986328125</LatitudeDegrees>
              <LongitudeDegrees>-0.1331359706819057464599609375</LongitudeDegrees>
            </Position>
            <AltitudeMeters>2502.800048828125</AltitudeMeters>
            <DistanceMeters>13999.623868008</DistanceMeters>
          </Trackpoint>
          <Trackpoint>
            <Time>2022-07-09T12:23:17.000Z</Time>
            <Position>
              <LatitudeDegrees>42.78748006559908390045166015625</LatitudeDegrees>
              <LongitudeDegrees>-0.13314192183315753936767578125</LongitudeDegrees>
            </Position>
            <AltitudeMeters>2502.800048828125</AltitudeMeters>
            <DistanceMeters>14001.951537629</DistanceMeters>
          </Trackpoint>
          <Trackpoint>
            <Time>2022-07-09T12:23:20.000Z</Time>
            <Position>
              <LatitudeDegrees>42.7874767966568470001220703125</LatitudeDegrees>
              <LongitudeDegrees>-0.13314686715602874755859375</LongitudeDegrees>
            </Position>
            <AltitudeMeters>2502.800048828125</AltitudeMeters>
            <DistanceMeters>14002.489089902</DistanceMeters>
          </Trackpoint>
          <Trackpoint>
            <Time>2022-07-09T12:23:24.000Z</Time>
            <Position>
              <LatitudeDegrees>42.7874761261045932769775390625</LatitudeDegrees>
              <LongitudeDegrees>-0.133142508566379547119140625</LongitudeDegrees>
            </Position>
            <AltitudeMeters>2502.800048828125</AltitudeMeters>
            <DistanceMeters>14002.831713593</DistanceMeters>
          </Trackpoint>
          <Trackpoint>
            <Time>2022-07-09T12:23:30.000Z</Time>
            <Position>
              <LatitudeDegrees>42.78745793737471103668212890625</LatitudeDegrees>
              <LongitudeDegrees>-0.1331319473683834075927734375</LongitudeDegrees>
            </Position>
            <AltitudeMeters>2502.800048828125</AltitudeMeters>
            <DistanceMeters>14005.031741087</DistanceMeters>
          </Trackpoint>
          <Trackpoint>
            <Time>2022-07-09T12:23:36.000Z</Time>
            <Position>
              <LatitudeDegrees>42.787460200488567352294921875</LatitudeDegrees>
              <LongitudeDegrees>-0.13312767259776592254638671875</LongitudeDegrees>
            </Position>
            <AltitudeMeters>2502.800048828125</AltitudeMeters>
            <DistanceMeters>14005.456713473</DistanceMeters>
          </Trackpoint>
          <Trackpoint>
            <Time>2022-07-09T12:23:42.000Z</Time>
            <Position>
              <LatitudeDegrees>42.787459194660186767578125</LatitudeDegrees>
              <LongitudeDegrees>-0.13312281109392642974853515625</LongitudeDegrees>
            </Position>
            <AltitudeMeters>2502.800048828125</AltitudeMeters>
            <DistanceMeters>14005.859877678</DistanceMeters>
          </Trackpoint>
          <Trackpoint>
            <Time>2022-07-09T12:23:46.000Z</Time>
            <Position>
              <LatitudeDegrees>42.7874620445072650909423828125</LatitudeDegrees>
              <LongitudeDegrees>-0.1331161893904209136962890625</LongitudeDegrees>
            </Position>
            <AltitudeMeters>2502.800048828125</AltitudeMeters>
            <DistanceMeters>14006.483009516</DistanceMeters>
          </Trackpoint>
          <Trackpoint>
            <Time>2022-07-09T12:23:52.000Z</Time>
            <Position>
              <LatitudeDegrees>42.7874908782541751861572265625</LatitudeDegrees>
              <LongitudeDegrees>-0.133186765015125274658203125</LongitudeDegrees>
            </Position>
            <AltitudeMeters>2502.800048828125</AltitudeMeters>
            <DistanceMeters>14013.080355077</DistanceMeters>
          </Trackpoint>
          <Trackpoint>
            <Time>2022-07-09T12:23:58.000Z</Time>
            <Position>
              <LatitudeDegrees>42.78750789351761341094970703125</LatitudeDegrees>
              <LongitudeDegrees>-0.13316488824784755706787109375</LongitudeDegrees>
            </Position>
            <AltitudeMeters>2502.800048828125</AltitudeMeters>
            <DistanceMeters>14015.684503193</DistanceMeters>
          </Trackpoint>
          <Trackpoint>
            <Time>2022-07-09T12:24:04.000Z</Time>
            <Position>
              <LatitudeDegrees>42.78749397955834865570068359375</LatitudeDegrees>
              <LongitudeDegrees>-0.13315851800143718719482421875</LongitudeDegrees>
            </Position>
            <AltitudeMeters>2502.800048828125</AltitudeMeters>
            <DistanceMeters>14017.319404605</DistanceMeters>
          </Trackpoint>
          <Trackpoint>
            <Time>2022-07-09T12:24:05.000Z</Time>
            <Position>
              <LatitudeDegrees>42.78749381192028522491455078125</LatitudeDegrees>
              <LongitudeDegrees>-0.13316136784851551055908203125</LongitudeDegrees>
            </Position>
            <AltitudeMeters>2502.800048828125</AltitudeMeters>
            <DistanceMeters>14017.552171568</DistanceMeters>
          </Trackpoint>
          <Trackpoint>
            <Time>2022-07-09T12:24:09.000Z</Time>
            <Position>
              <LatitudeDegrees>42.78748668730258941650390625</LatitudeDegrees>
              <LongitudeDegrees>-0.13315784744918346405029296875</LongitudeDegrees>
            </Position>
            <AltitudeMeters>2502.800048828125</AltitudeMeters>
            <DistanceMeters>14018.391424785</DistanceMeters>
          </Trackpoint>
          <Trackpoint>
            <Time>2022-07-09T12:24:15.000Z</Time>
            <Position>
              <LatitudeDegrees>42.7874881960451602935791015625</LatitudeDegrees>
              <LongitudeDegrees>-0.133166648447513580322265625</LongitudeDegrees>
            </Position>
            <AltitudeMeters>2502.800048828125</AltitudeMeters>
            <DistanceMeters>14019.13360715</DistanceMeters>
          </Trackpoint>
          <Trackpoint>
            <Time>2022-07-09T12:24:21.000Z</Time>
            <Position>
              <LatitudeDegrees>42.78748962096869945526123046875</LatitudeDegrees>
              <LongitudeDegrees>-0.13315198011696338653564453125</LongitudeDegrees>
            </Position>
            <AltitudeMeters>2502.800048828125</AltitudeMeters>
            <DistanceMeters>14020.343099764</DistanceMeters>
          </Trackpoint>
          <Trackpoint>
            <Time>2022-07-09T12:24:23.000Z</Time>
            <Position>
              <LatitudeDegrees>42.7874918840825557708740234375</LatitudeDegrees>
              <LongitudeDegrees>-0.13315516524016857147216796875</LongitudeDegrees>
            </Position>
            <AltitudeMeters>2502.800048828125</AltitudeMeters>
            <DistanceMeters>14020.698657172</DistanceMeters>
          </Trackpoint>
          <Trackpoint>
            <Time>2022-07-09T12:24:29.000Z</Time>
            <Position>
              <LatitudeDegrees>42.78749163262546062469482421875</LatitudeDegrees>
              <LongitudeDegrees>-0.13315315358340740203857421875</LongitudeDegrees>
            </Position>
            <AltitudeMeters>2502.800048828125</AltitudeMeters>
            <DistanceMeters>14020.83304524</DistanceMeters>
          </Trackpoint>
          <Trackpoint>
            <Time>2022-07-09T12:24:35.000Z</Time>
            <Position>
              <LatitudeDegrees>42.78747118078172206878662109375</LatitudeDegrees>
              <LongitudeDegrees>-0.13314762152731418609619140625</LongitudeDegrees>
            </Position>
            <AltitudeMeters>2502.800048828125</AltitudeMeters>
            <DistanceMeters>14023.152942988</DistanceMeters>
          </Trackpoint>
          <Trackpoint>
            <Time>2022-07-09T12:24:37.000Z</Time>
            <Position>
              <LatitudeDegrees>42.7874684147536754608154296875</LatitudeDegrees>
              <LongitudeDegrees>-0.133140496909618377685546875</LongitudeDegrees>
            </Position>
            <AltitudeMeters>2502.800048828125</AltitudeMeters>
            <DistanceMeters>14023.811307378</DistanceMeters>
          </Trackpoint>
          <Trackpoint>
            <Time>2022-07-09T12:24:43.000Z</Time>
            <Position>
              <LatitudeDegrees>42.78748534619808197021484375</LatitudeDegrees>
              <LongitudeDegrees>-0.13314913026988506317138671875</LongitudeDegrees>
            </Position>
            <AltitudeMeters>2502.800048828125</AltitudeMeters>
            <DistanceMeters>14025.822643811</DistanceMeters>
          </Trackpoint>
          <Trackpoint>
            <Time>2022-07-09T12:24:49.000Z</Time>
            <Position>
              <LatitudeDegrees>42.78748559765517711639404296875</LatitudeDegrees>
              <LongitudeDegrees>-0.13318332843482494354248046875</LongitudeDegrees>
            </Position>
            <AltitudeMeters>2502.800048828125</AltitudeMeters>
            <DistanceMeters>14028.615847356</DistanceMeters>
          </Trackpoint>
          <Trackpoint>
            <Time>2022-07-09T12:24:55.000Z</Time>
            <Position>
              <LatitudeDegrees>42.7874875254929065704345703125</LatitudeDegrees>
              <LongitudeDegrees>-0.13316941447556018829345703125</LongitudeDegrees>
            </Position>
            <AltitudeMeters>2502.800048828125</AltitudeMeters>
            <DistanceMeters>14029.771897231</DistanceMeters>
          </Trackpoint>
          <Trackpoint>
            <Time>2022-07-09T12:25:00.000Z</Time>
            <Position>
              <LatitudeDegrees>42.78748492710292339324951171875</LatitudeDegrees>
              <LongitudeDegrees>-0.1331440173089504241943359375</LongitudeDegrees>
            </Position>
            <AltitudeMeters>2502.800048828125</AltitudeMeters>
            <DistanceMeters>14031.866799891</DistanceMeters>
          </Trackpoint>
          <Trackpoint>
            <Time>2022-07-09T12:25:06.000Z</Time>
            <Position>
              <LatitudeDegrees>42.78747822158038616180419921875</LatitudeDegrees>
              <LongitudeDegrees>-0.1331621222198009490966796875</LongitudeDegrees>
            </Position>
            <AltitudeMeters>2502.800048828125</AltitudeMeters>
            <DistanceMeters>14033.52364727</DistanceMeters>
          </Trackpoint>
          <Trackpoint>
            <Time>2022-07-09T12:25:12.000Z</Time>
            <Position>
              <LatitudeDegrees>42.78750085271894931793212890625</LatitudeDegrees>
              <LongitudeDegrees>-0.13315684162080287933349609375</LongitudeDegrees>
            </Position>
            <AltitudeMeters>2502.800048828125</AltitudeMeters>
            <DistanceMeters>14036.078788219</DistanceMeters>
          </Trackpoint>
          <Trackpoint>
            <Time>2022-07-09T12:25:18.000Z</Time>
            <Position>
              <LatitudeDegrees>42.7874824963510036468505859375</LatitudeDegrees>
              <LongitudeDegrees>-0.13314058072865009307861328125</LongitudeDegrees>
            </Position>
            <AltitudeMeters>2502.800048828125</AltitudeMeters>
            <DistanceMeters>14038.516366997</DistanceMeters>
          </Trackpoint>
          <Trackpoint>
            <Time>2022-07-09T12:25:20.000Z</Time>
            <Position>
              <LatitudeDegrees>42.78748760931193828582763671875</LatitudeDegrees>
              <LongitudeDegrees>-0.1331403292715549468994140625</LongitudeDegrees>
            </Position>
            <AltitudeMeters>2502.800048828125</AltitudeMeters>
            <DistanceMeters>14039.078552621</DistanceMeters>
          </Trackpoint>
          <Trackpoint>
            <Time>2022-07-09T12:25:22.000Z</Time>
            <Position>
              <LatitudeDegrees>42.7874954044818878173828125</LatitudeDegrees>
              <LongitudeDegrees>-0.13314913026988506317138671875</LongitudeDegrees>
            </Position>
            <AltitudeMeters>2502.800048828125</AltitudeMeters>
            <DistanceMeters>14040.202923869</DistanceMeters>
          </Trackpoint>
          <Trackpoint>
            <Time>2022-07-09T12:25:28.000Z</Time>
            <Position>
              <LatitudeDegrees>42.7875093184411525726318359375</LatitudeDegrees>
              <LongitudeDegrees>-0.1331470347940921783447265625</LongitudeDegrees>
            </Position>
            <AltitudeMeters>2502.800048828125</AltitudeMeters>
            <DistanceMeters>14041.764372119</DistanceMeters>
          </Trackpoint>
          <Trackpoint>
            <Time>2022-07-09T12:25:30.000Z</Time>
            <Position>
              <LatitudeDegrees>42.787502445280551910400390625</LatitudeDegrees>
              <LongitudeDegrees>-0.13314242474734783172607421875</LongitudeDegrees>
            </Position>
            <AltitudeMeters>2502.800048828125</AltitudeMeters>
            <DistanceMeters>14042.624875616</DistanceMeters>
          </Trackpoint>
          <Trackpoint>
            <Time>2022-07-09T12:25:36.000Z</Time>
            <Position>
              <LatitudeDegrees>42.787485010921955108642578125</LatitudeDegrees>
              <LongitudeDegrees>-0.13311065733432769775390625</LongitudeDegrees>
            </Position>
            <AltitudeMeters>2502.800048828125</AltitudeMeters>
            <DistanceMeters>14045.864157763</DistanceMeters>
          </Trackpoint>
          <Trackpoint>
            <Time>2022-07-09T12:25:42.000Z</Time>
            <Position>
              <LatitudeDegrees>42.7875016070902347564697265625</LatitudeDegrees>
              <LongitudeDegrees>-0.133132450282573699951171875</LongitudeDegrees>
            </Position>
            <AltitudeMeters>2502.800048828125</AltitudeMeters>
            <DistanceMeters>14048.428118693</DistanceMeters>
          </Trackpoint>
          <Trackpoint>
            <Time>2022-07-09T12:25:46.000Z</Time>
            <Position>
              <LatitudeDegrees>42.7874972485005855560302734375</LatitudeDegrees>
              <LongitudeDegrees>-0.13314544223248958587646484375</LongitudeDegrees>
            </Position>
            <AltitudeMeters>2502.800048828125</AltitudeMeters>
            <DistanceMeters>14049.591953504</DistanceMeters>
          </Trackpoint>
          <Trackpoint>
            <Time>2022-07-09T12:25:52.000Z</Time>
            <Position>
              <LatitudeDegrees>42.78749682940542697906494140625</LatitudeDegrees>
              <LongitudeDegrees>-0.133129768073558807373046875</LongitudeDegrees>
            </Position>
            <AltitudeMeters>2502.800048828125</AltitudeMeters>
            <DistanceMeters>14050.873933969</DistanceMeters>
          </Trackpoint>
          <Trackpoint>
            <Time>2022-07-09T12:25:58.000Z</Time>
            <Position>
              <LatitudeDegrees>42.78749934397637844085693359375</LatitudeDegrees>
              <LongitudeDegrees>-0.133139155805110931396484375</LongitudeDegrees>
            </Position>
            <AltitudeMeters>2502.800048828125</AltitudeMeters>
            <DistanceMeters>14051.691384675</DistanceMeters>
          </Trackpoint>
          <Trackpoint>
            <Time>2022-07-09T12:26:02.000Z</Time>
            <Position>
              <LatitudeDegrees>42.7874687500298023223876953125</LatitudeDegrees>
              <LongitudeDegrees>-0.1331363059580326080322265625</LongitudeDegrees>
            </Position>
            <AltitudeMeters>2502.800048828125</AltitudeMeters>
            <DistanceMeters>14055.104418313</DistanceMeters>
          </Trackpoint>
          <Trackpoint>
            <Time>2022-07-09T12:26:08.000Z</Time>
            <Position>
              <LatitudeDegrees>42.78746129013597965240478515625</LatitudeDegrees>
              <LongitudeDegrees>-0.13308475725352764129638671875</LongitudeDegrees>
            </Position>
            <AltitudeMeters>2502.800048828125</AltitudeMeters>
            <DistanceMeters>14059.396429024</DistanceMeters>
          </Trackpoint>
          <Trackpoint>
            <Time>2022-07-09T12:26:09.000Z</Time>
            <Position>
              <LatitudeDegrees>42.78746045194566249847412109375</LatitudeDegrees>
              <LongitudeDegrees>-0.133082158863544464111328125</LongitudeDegrees>
            </Position>
            <AltitudeMeters>2502.800048828125</AltitudeMeters>
            <DistanceMeters>14059.629195986</DistanceMeters>
          </Trackpoint>
          <Trackpoint>
            <Time>2022-07-09T12:26:11.000Z</Time>
            <Position>
              <LatitudeDegrees>42.78746330179274082183837890625</LatitudeDegrees>
              <LongitudeDegrees>-0.1330870203673839569091796875</LongitudeDegrees>
            </Position>
            <AltitudeMeters>2502.800048828125</AltitudeMeters>
            <DistanceMeters>14060.132030095</DistanceMeters>
          </Trackpoint>
          <Trackpoint>
            <Time>2022-07-09T12:26:13.000Z</Time>
            <Position>
              <LatitudeDegrees>42.78746397234499454498291015625</LatitudeDegrees>
              <LongitudeDegrees>-0.1330957375466823577880859375</LongitudeDegrees>
            </Position>
            <AltitudeMeters>2502.800048828125</AltitudeMeters>
            <DistanceMeters>14060.85573199</DistanceMeters>
          </Trackpoint>
          <Trackpoint>
            <Time>2022-07-09T12:26:19.000Z</Time>
            <Position>
              <LatitudeDegrees>42.78747084550559520721435546875</LatitudeDegrees>
              <LongitudeDegrees>-0.13312675058841705322265625</LongitudeDegrees>
            </Position>
            <AltitudeMeters>2502.800048828125</AltitudeMeters>
            <DistanceMeters>14063.499456478</DistanceMeters>
          </Trackpoint>
          <Trackpoint>
            <Time>2022-07-09T12:26:25.000Z</Time>
            <Position>
              <LatitudeDegrees>42.78747805394232273101806640625</LatitudeDegrees>
              <LongitudeDegrees>-0.13312197290360927581787109375</LongitudeDegrees>
            </Position>
            <AltitudeMeters>2502.800048828125</AltitudeMeters>
            <DistanceMeters>14064.390886076</DistanceMeters>
          </Trackpoint>
          <Trackpoint>
            <Time>2022-07-09T12:26:31.000Z</Time>
            <Position>
              <LatitudeDegrees>42.78746615163981914520263671875</LatitudeDegrees>
              <LongitudeDegrees>-0.13311359100043773651123046875</LongitudeDegrees>
            </Position>
            <AltitudeMeters>2502.800048828125</AltitudeMeters>
            <DistanceMeters>14065.881321853</DistanceMeters>
          </Trackpoint>
          <Trackpoint>
            <Time>2022-07-09T12:26:37.000Z</Time>
            <Position>
              <LatitudeDegrees>42.7874744497239589691162109375</LatitudeDegrees>
              <LongitudeDegrees>-0.13314225710928440093994140625</LongitudeDegrees>
            </Position>
            <AltitudeMeters>2502.800048828125</AltitudeMeters>
            <DistanceMeters>14068.399081504</DistanceMeters>
          </Trackpoint>
          <Trackpoint>
            <Time>2022-07-09T12:26:43.000Z</Time>
            <Position>
              <LatitudeDegrees>42.78746430762112140655517578125</LatitudeDegrees>
              <LongitudeDegrees>-0.1331490464508533477783203125</LongitudeDegrees>
            </Position>
            <AltitudeMeters>2502.800048828125</AltitudeMeters>
            <DistanceMeters>14069.656166775</DistanceMeters>
          </Trackpoint>
          <Trackpoint>
            <Time>2022-07-09T12:26:49.000Z</Time>
            <Position>
              <LatitudeDegrees>42.78747470118105411529541015625</LatitudeDegrees>
              <LongitudeDegrees>-0.1331168599426746368408203125</LongitudeDegrees>
            </Position>
            <AltitudeMeters>2502.800048828125</AltitudeMeters>
            <DistanceMeters>14072.525910617</DistanceMeters>
          </Trackpoint>
          <Trackpoint>
            <Time>2022-07-09T12:26:51.000Z</Time>
            <Position>
              <LatitudeDegrees>42.78747905977070331573486328125</LatitudeDegrees>
              <LongitudeDegrees>-0.133116357028484344482421875</LongitudeDegrees>
            </Position>
            <AltitudeMeters>2502.800048828125</AltitudeMeters>
            <DistanceMeters>14073.010453687</DistanceMeters>
          </Trackpoint>
          <Trackpoint>
            <Time>2022-07-09T12:26:57.000Z</Time>
            <Position>
              <LatitudeDegrees>42.78749045915901660919189453125</LatitudeDegrees>
              <LongitudeDegrees>-0.13312867842614650726318359375</LongitudeDegrees>
            </Position>
            <AltitudeMeters>2502.800048828125</AltitudeMeters>
            <DistanceMeters>14074.628700322</DistanceMeters>
          </Trackpoint>
          <Trackpoint>
            <Time>2022-07-09T12:27:03.000Z</Time>
            <Position>
              <LatitudeDegrees>42.78749942779541015625</LatitudeDegrees>
              <LongitudeDegrees>-0.13314963318407535552978515625</LongitudeDegrees>
            </Position>
            <AltitudeMeters>2502.800048828125</AltitudeMeters>
            <DistanceMeters>14076.608360185</DistanceMeters>
          </Trackpoint>
          <Trackpoint>
            <Time>2022-07-09T12:27:09.000Z</Time>
            <Position>
              <LatitudeDegrees>42.78749180026352405548095703125</LatitudeDegrees>
              <LongitudeDegrees>-0.133138485252857208251953125</LongitudeDegrees>
            </Position>
            <AltitudeMeters>2502.800048828125</AltitudeMeters>
            <DistanceMeters>14077.854623861</DistanceMeters>
          </Trackpoint>
          <Trackpoint>
            <Time>2022-07-09T12:27:14.000Z</Time>
            <Position>
              <LatitudeDegrees>42.7874875254929065704345703125</LatitudeDegrees>
              <LongitudeDegrees>-0.1331416703760623931884765625</LongitudeDegrees>
            </Position>
            <AltitudeMeters>2502.800048828125</AltitudeMeters>
            <DistanceMeters>14078.400510775</DistanceMeters>
          </Trackpoint>
          <Trackpoint>
            <Time>2022-07-09T12:27:20.000Z</Time>
            <Position>
              <LatitudeDegrees>42.7874915488064289093017578125</LatitudeDegrees>
              <LongitudeDegrees>-0.13316622935235500335693359375</LongitudeDegrees>
            </Position>
            <AltitudeMeters>2502.800048828125</AltitudeMeters>
            <DistanceMeters>14080.456252922</DistanceMeters>
          </Trackpoint>
          <Trackpoint>
            <Time>2022-07-09T12:27:21.000Z</Time>
            <Position>
              <LatitudeDegrees>42.78748895041644573211669921875</LatitudeDegrees>
              <LongitudeDegrees>-0.133158266544342041015625</LongitudeDegrees>
            </Position>
            <AltitudeMeters>2502.800048828125</AltitudeMeters>
            <DistanceMeters>14081.167367737</DistanceMeters>
          </Trackpoint>
          <Trackpoint>
            <Time>2022-07-09T12:27:22.000Z</Time>
            <Position>
              <LatitudeDegrees>42.78748895041644573211669921875</LatitudeDegrees>
              <LongitudeDegrees>-0.1331520639359951019287109375</LongitudeDegrees>
            </Position>
            <AltitudeMeters>2502.800048828125</AltitudeMeters>
            <DistanceMeters>14081.679102255</DistanceMeters>
          </Trackpoint>
          <Trackpoint>
            <Time>2022-07-09T12:27:24.000Z</Time>
            <Position>
              <LatitudeDegrees>42.7874995954334735870361328125</LatitudeDegrees>
              <LongitudeDegrees>-0.13314678333699703216552734375</LongitudeDegrees>
            </Position>
            <AltitudeMeters>2502.800048828125</AltitudeMeters>
            <DistanceMeters>14082.936187526</DistanceMeters>
          </Trackpoint>
          <Trackpoint>
            <Time>2022-07-09T12:27:25.000Z</Time>
            <Position>
              <LatitudeDegrees>42.787502110004425048828125</LatitudeDegrees>
              <LongitudeDegrees>-0.13314695097506046295166015625</LongitudeDegrees>
            </Position>
            <AltitudeMeters>2502.800048828125</AltitudeMeters>
            <DistanceMeters>14083.236688382</DistanceMeters>
          </Trackpoint>
          <Trackpoint>
            <Time>2022-07-09T12:27:26.000Z</Time>
            <Position>
              <LatitudeDegrees>42.7875099889934062957763671875</LatitudeDegrees>
              <LongitudeDegrees>-0.133152902126312255859375</LongitudeDegrees>
            </Position>
            <AltitudeMeters>2502.800048828125</AltitudeMeters>
            <DistanceMeters>14084.242356598</DistanceMeters>
          </Trackpoint>
          <Trackpoint>
            <Time>2022-07-09T12:27:28.000Z</Time>
            <Position>
              <LatitudeDegrees>42.7875141799449920654296875</LatitudeDegrees>
              <LongitudeDegrees>-0.13314862735569477081298828125</LongitudeDegrees>
            </Position>
            <AltitudeMeters>2502.800048828125</AltitudeMeters>
            <DistanceMeters>14084.820381536</DistanceMeters>
          </Trackpoint>
          <Trackpoint>
            <Time>2022-07-09T12:27:30.000Z</Time>
            <Position>
              <LatitudeDegrees>42.78750537894666194915771484375</LatitudeDegrees>
              <LongitudeDegrees>-0.1331406645476818084716796875</LongitudeDegrees>
            </Position>
            <AltitudeMeters>2502.800048828125</AltitudeMeters>
            <DistanceMeters>14085.999632049</DistanceMeters>
          </Trackpoint>
          <Trackpoint>
            <Time>2022-07-09T12:27:33.000Z</Time>
            <Position>
              <LatitudeDegrees>42.787496410310268402099609375</LatitudeDegrees>
              <LongitudeDegrees>-0.13313722796738147735595703125</LongitudeDegrees>
            </Position>
            <AltitudeMeters>2502.800048828125</AltitudeMeters>
            <DistanceMeters>14087.040597549</DistanceMeters>
          </Trackpoint>
          <Trackpoint>
            <Time>2022-07-09T12:27:35.000Z</Time>
            <Position>
              <LatitudeDegrees>42.7874959073960781097412109375</LatitudeDegrees>
              <LongitudeDegrees>-0.13314879499375820159912109375</LongitudeDegrees>
            </Position>
            <AltitudeMeters>2502.800048828125</AltitudeMeters>
            <DistanceMeters>14087.990864693</DistanceMeters>
          </Trackpoint>
          <Trackpoint>
            <Time>2022-07-09T12:27:37.000Z</Time>
            <Position>
              <LatitudeDegrees>42.78749599121510982513427734375</LatitudeDegrees>
              <LongitudeDegrees>-0.13316790573298931121826171875</LongitudeDegrees>
            </Position>
            <AltitudeMeters>2502.800048828125</AltitudeMeters>
            <DistanceMeters>14089.552312944</DistanceMeters>
          </Trackpoint>
          <Trackpoint>
            <Time>2022-07-09T12:27:40.000Z</Time>
            <Position>
              <LatitudeDegrees>42.787505798041820526123046875</LatitudeDegrees>
              <LongitudeDegrees>-0.1331721805036067962646484375</LongitudeDegrees>
            </Position>
            <AltitudeMeters>2502.800048828125</AltitudeMeters>
            <DistanceMeters>14090.692633516</DistanceMeters>
          </Trackpoint>
          <Trackpoint>
            <Time>2022-07-09T12:27:46.000Z</Time>
            <Position>
              <LatitudeDegrees>42.78751912526786327362060546875</LatitudeDegrees>
              <LongitudeDegrees>-0.1331735216081142425537109375</LongitudeDegrees>
            </Position>
            <AltitudeMeters>2502.800048828125</AltitudeMeters>
            <DistanceMeters>14092.176998247</DistanceMeters>
          </Trackpoint>
          <Trackpoint>
            <Time>2022-07-09T12:27:52.000Z</Time>
            <Position>
              <LatitudeDegrees>42.7875227294862270355224609375</LatitudeDegrees>
              <LongitudeDegrees>-0.1331594400107860565185546875</LongitudeDegrees>
            </Position>
            <AltitudeMeters>2502.800048828125</AltitudeMeters>
            <DistanceMeters>14093.393933963</DistanceMeters>
          </Trackpoint>
          <Trackpoint>
            <Time>2022-07-09T12:27:58.000Z</Time>
            <Position>
              <LatitudeDegrees>42.787539996206760406494140625</LatitudeDegrees>
              <LongitudeDegrees>-0.1331487111747264862060546875</LongitudeDegrees>
            </Position>
            <AltitudeMeters>2502.800048828125</AltitudeMeters>
            <DistanceMeters>14095.506008242</DistanceMeters>
          </Trackpoint>
          <Trackpoint>
            <Time>2022-07-09T12:28:02.000Z</Time>
            <Position>
              <LatitudeDegrees>42.78751845471560955047607421875</LatitudeDegrees>
              <LongitudeDegrees>-0.13316405005753040313720703125</LongitudeDegrees>
            </Position>
            <AltitudeMeters>2502.800048828125</AltitudeMeters>
            <DistanceMeters>14098.210515946</DistanceMeters>
          </Trackpoint>
          <Trackpoint>
            <Time>2022-07-09T12:28:05.000Z</Time>
            <Position>
              <LatitudeDegrees>42.78749146498739719390869140625</LatitudeDegrees>
              <LongitudeDegrees>-0.13315223157405853271484375</LongitudeDegrees>
            </Position>
            <AltitudeMeters>2502.800048828125</AltitudeMeters>
            <DistanceMeters>14101.366490331</DistanceMeters>
          </Trackpoint>
          <Trackpoint>
            <Time>2022-07-09T12:28:10.000Z</Time>
            <Position>
              <LatitudeDegrees>42.78748844750225543975830078125</LatitudeDegrees>
              <LongitudeDegrees>-0.13313706032931804656982421875</LongitudeDegrees>
            </Position>
            <AltitudeMeters>2502.800048828125</AltitudeMeters>
            <DistanceMeters>14102.648470796</DistanceMeters>
          </Trackpoint>
          <Trackpoint>
            <Time>2022-07-09T12:28:16.000Z</Time>
            <Position>
              <LatitudeDegrees>42.787504456937313079833984375</LatitudeDegrees>
              <LongitudeDegrees>-0.13312272727489471435546875</LongitudeDegrees>
            </Position>
            <AltitudeMeters>2502.800048828125</AltitudeMeters>
            <DistanceMeters>14104.777578209</DistanceMeters>
          </Trackpoint>
          <Trackpoint>
            <Time>2022-07-09T12:28:18.000Z</Time>
            <Position>
              <LatitudeDegrees>42.78748677112162113189697265625</LatitudeDegrees>
              <LongitudeDegrees>-0.1331239007413387298583984375</LongitudeDegrees>
            </Position>
            <AltitudeMeters>2502.800048828125</AltitudeMeters>
            <DistanceMeters>14106.748094098</DistanceMeters>
          </Trackpoint>
          <Trackpoint>
            <Time>2022-07-09T12:28:19.000Z</Time>
            <Position>
              <LatitudeDegrees>42.78747838921844959259033203125</LatitudeDegrees>
              <LongitudeDegrees>-0.133117027580738067626953125</LongitudeDegrees>
            </Position>
            <AltitudeMeters>2502.800048828125</AltitudeMeters>
            <DistanceMeters>14107.835724557</DistanceMeters>
          </Trackpoint>
          <Trackpoint>
            <Time>2022-07-09T12:28:22.000Z</Time>
            <Position>
              <LatitudeDegrees>42.78746254742145538330078125</LatitudeDegrees>
              <LongitudeDegrees>-0.133104287087917327880859375</LongitudeDegrees>
            </Position>
            <AltitudeMeters>2502.800048828125</AltitudeMeters>
            <DistanceMeters>14109.882662628</DistanceMeters>
          </Trackpoint>
          <Trackpoint>
            <Time>2022-07-09T12:28:28.000Z</Time>
            <Position>
              <LatitudeDegrees>42.78746380470693111419677734375</LatitudeDegrees>
              <LongitudeDegrees>-0.13308919966220855712890625</LongitudeDegrees>
            </Position>
            <AltitudeMeters>2502.800048828125</AltitudeMeters>
            <DistanceMeters>14111.121659398</DistanceMeters>
          </Trackpoint>
          <Trackpoint>
            <Time>2022-07-09T12:28:32.000Z</Time>
            <Position>
              <LatitudeDegrees>42.78746346943080425262451171875</LatitudeDegrees>
              <LongitudeDegrees>-0.13310789130628108978271484375</LongitudeDegrees>
            </Position>
            <AltitudeMeters>2502.800048828125</AltitudeMeters>
            <DistanceMeters>14112.648014443</DistanceMeters>
          </Trackpoint>
          <Trackpoint>
            <Time>2022-07-09T12:28:38.000Z</Time>
            <Position>
              <LatitudeDegrees>42.787427343428134918212890625</LatitudeDegrees>
              <LongitudeDegrees>-0.13310755603015422821044921875</LongitudeDegrees>
            </Position>
            <AltitudeMeters>2502.800048828125</AltitudeMeters>
            <DistanceMeters>14116.668441887</DistanceMeters>
          </Trackpoint>
          <Trackpoint>
            <Time>2022-07-09T12:28:39.000Z</Time>
            <Position>
              <LatitudeDegrees>42.787423990666866302490234375</LatitudeDegrees>
              <LongitudeDegrees>-0.13311308808624744415283203125</LongitudeDegrees>
            </Position>
            <AltitudeMeters>2502.800048828125</AltitudeMeters>
            <DistanceMeters>14117.254225896</DistanceMeters>
          </Trackpoint>
          <Trackpoint>
            <Time>2022-07-09T12:28:40.000Z</Time>
            <Position>
              <LatitudeDegrees>42.78741988353431224822998046875</LatitudeDegrees>
              <LongitudeDegrees>-0.1331188715994358062744140625</LongitudeDegrees>
            </Position>
            <AltitudeMeters>2502.800048828125</AltitudeMeters>
            <DistanceMeters>14117.912590285</DistanceMeters>
          </Trackpoint>
          <Trackpoint>
            <Time>2022-07-09T12:28:45.000Z</Time>
            <Position>
              <LatitudeDegrees>42.7873775549232959747314453125</LatitudeDegrees>
              <LongitudeDegrees>-0.13314192183315753936767578125</LongitudeDegrees>
            </Position>
            <AltitudeMeters>2502.800048828125</AltitudeMeters>
            <DistanceMeters>14122.985628612</DistanceMeters>
          </Trackpoint>
          <Trackpoint>
            <Time>2022-07-09T12:28:47.000Z</Time>
            <Position>
              <LatitudeDegrees>42.7873661555349826812744140625</LatitudeDegrees>
              <LongitudeDegrees>-0.1331389881670475006103515625</LongitudeDegrees>
            </Position>
            <AltitudeMeters>2502.800048828125</AltitudeMeters>
            <DistanceMeters>14124.27463368</DistanceMeters>
          </Trackpoint>
          <Trackpoint>
            <Time>2022-07-09T12:28:49.000Z</Time>
            <Position>
              <LatitudeDegrees>42.78734981082379817962646484375</LatitudeDegrees>
              <LongitudeDegrees>-0.1331488788127899169921875</LongitudeDegrees>
            </Position>
            <AltitudeMeters>2502.800048828125</AltitudeMeters>
            <DistanceMeters>14126.265664458</DistanceMeters>
          </Trackpoint>
          <Trackpoint>
            <Time>2022-07-09T12:28:50.000Z</Time>
            <Position>
              <LatitudeDegrees>42.78734059073030948638916015625</LatitudeDegrees>
              <LongitudeDegrees>-0.13314829207956790924072265625</LongitudeDegrees>
            </Position>
            <AltitudeMeters>2502.800048828125</AltitudeMeters>
            <DistanceMeters>14127.297918797</DistanceMeters>
          </Trackpoint>
          <Trackpoint>
            <Time>2022-07-09T12:28:52.000Z</Time>
            <Position>
              <LatitudeDegrees>42.7873195521533489227294921875</LatitudeDegrees>
              <LongitudeDegrees>-0.13315382413566112518310546875</LongitudeDegrees>
            </Position>
            <AltitudeMeters>2502.800048828125</AltitudeMeters>
            <DistanceMeters>14129.683070398</DistanceMeters>
          </Trackpoint>
          <Trackpoint>
            <Time>2022-07-09T12:28:56.000Z</Time>
            <Position>
              <LatitudeDegrees>42.78729968704283237457275390625</LatitudeDegrees>
              <LongitudeDegrees>-0.1331597752869129180908203125</LongitudeDegrees>
            </Position>
            <AltitudeMeters>2504.800048828125</AltitudeMeters>
            <DistanceMeters>14131.945823886</DistanceMeters>
          </Trackpoint>
          <Trackpoint>
            <Time>2022-07-09T12:29:00.000Z</Time>
            <Position>
              <LatitudeDegrees>42.7872756309807300567626953125</LatitudeDegrees>
              <LongitudeDegrees>-0.1331919617950916290283203125</LongitudeDegrees>
            </Position>
            <AltitudeMeters>2505.800048828125</AltitudeMeters>
            <DistanceMeters>14135.69667167</DistanceMeters>
          </Trackpoint>
          <Trackpoint>
            <Time>2022-07-09T12:29:01.000Z</Time>
            <Position>
              <LatitudeDegrees>42.78727521188557147979736328125</LatitudeDegrees>
              <LongitudeDegrees>-0.13319992460310459136962890625</LongitudeDegrees>
            </Position>
            <AltitudeMeters>2506</AltitudeMeters>
            <DistanceMeters>14136.341174204</DistanceMeters>
          </Trackpoint>
          <Trackpoint>
            <Time>2022-07-09T12:29:06.000Z</Time>
            <Position>
              <LatitudeDegrees>42.7872481383383274078369140625</LatitudeDegrees>
              <LongitudeDegrees>-0.13322289101779460906982421875</LongitudeDegrees>
            </Position>
            <AltitudeMeters>2507</AltitudeMeters>
            <DistanceMeters>14139.891665256</DistanceMeters>
          </Trackpoint>
          <Trackpoint>
            <Time>2022-07-09T12:29:07.000Z</Time>
            <Position>
              <LatitudeDegrees>42.7872405946254730224609375</LatitudeDegrees>
              <LongitudeDegrees>-0.1332268305122852325439453125</LongitudeDegrees>
            </Position>
            <AltitudeMeters>2507.199951171875</AltitudeMeters>
            <DistanceMeters>14140.788145487</DistanceMeters>
          </Trackpoint>
          <Trackpoint>
            <Time>2022-07-09T12:29:12.000Z</Time>
            <Position>
              <LatitudeDegrees>42.7871948294341564178466796875</LatitudeDegrees>
              <LongitudeDegrees>-0.13324652798473834991455078125</LongitudeDegrees>
            </Position>
            <AltitudeMeters>2508</AltitudeMeters>
            <DistanceMeters>14146.129965548</DistanceMeters>
          </Trackpoint>
          <Trackpoint>
            <Time>2022-07-09T12:29:15.000Z</Time>
            <Position>
              <LatitudeDegrees>42.7871737070381641387939453125</LatitudeDegrees>
              <LongitudeDegrees>-0.133249126374721527099609375</LongitudeDegrees>
            </Position>
            <AltitudeMeters>2508.39990234375</AltitudeMeters>
            <DistanceMeters>14148.490380165</DistanceMeters>
          </Trackpoint>
          <Trackpoint>
            <Time>2022-07-09T12:29:17.000Z</Time>
            <Position>
              <LatitudeDegrees>42.78715283609926700592041015625</LatitudeDegrees>
              <LongitudeDegrees>-0.1332506351172924041748046875</LongitudeDegrees>
            </Position>
            <AltitudeMeters>2508.39990234375</AltitudeMeters>
            <DistanceMeters>14150.816109253</DistanceMeters>
          </Trackpoint>
          <Trackpoint>
            <Time>2022-07-09T12:29:21.000Z</Time>
            <Position>
              <LatitudeDegrees>42.787121571600437164306640625</LatitudeDegrees>
              <LongitudeDegrees>-0.13327066786587238311767578125</LongitudeDegrees>
            </Position>
            <AltitudeMeters>2509</AltitudeMeters>
            <DistanceMeters>14154.662050648</DistanceMeters>
          </Trackpoint>
          <Trackpoint>
            <Time>2022-07-09T12:29:22.000Z</Time>
            <Position>
              <LatitudeDegrees>42.78711126185953617095947265625</LatitudeDegrees>
              <LongitudeDegrees>-0.13327402062714099884033203125</LongitudeDegrees>
            </Position>
            <AltitudeMeters>2509</AltitudeMeters>
            <DistanceMeters>14155.841301161</DistanceMeters>
          </Trackpoint>
          <Trackpoint>
            <Time>2022-07-09T12:29:23.000Z</Time>
            <Position>
              <LatitudeDegrees>42.78710120357573032379150390625</LatitudeDegrees>
              <LongitudeDegrees>-0.13327737338840961456298828125</LongitudeDegrees>
            </Position>
            <AltitudeMeters>2509.199951171875</AltitudeMeters>
            <DistanceMeters>14156.997351036</DistanceMeters>
          </Trackpoint>
          <Trackpoint>
            <Time>2022-07-09T12:29:26.000Z</Time>
            <Position>
              <LatitudeDegrees>42.787070609629154205322265625</LatitudeDegrees>
              <LongitudeDegrees>-0.1332948915660381317138671875</LongitudeDegrees>
            </Position>
            <AltitudeMeters>2509.39990234375</AltitudeMeters>
            <DistanceMeters>14160.692412008</DistanceMeters>
          </Trackpoint>
          <Trackpoint>
            <Time>2022-07-09T12:29:29.000Z</Time>
            <Position>
              <LatitudeDegrees>42.78702802956104278564453125</LatitudeDegrees>
              <LongitudeDegrees>-0.13331056572496891021728515625</LongitudeDegrees>
            </Position>
            <AltitudeMeters>2510</AltitudeMeters>
            <DistanceMeters>14165.602636453</DistanceMeters>
          </Trackpoint>
          <Trackpoint>
            <Time>2022-07-09T12:29:32.000Z</Time>
            <Position>
              <LatitudeDegrees>42.78698503039777278900146484375</LatitudeDegrees>
              <LongitudeDegrees>-0.133316516876220703125</LongitudeDegrees>
            </Position>
            <AltitudeMeters>2510.199951171875</AltitudeMeters>
            <DistanceMeters>14170.413466519</DistanceMeters>
          </Trackpoint>
          <Trackpoint>
            <Time>2022-07-09T12:29:36.000Z</Time>
            <Position>
              <LatitudeDegrees>42.78692468069493770599365234375</LatitudeDegrees>
              <LongitudeDegrees>-0.1332868449389934539794921875</LongitudeDegrees>
            </Position>
            <AltitudeMeters>2510.800048828125</AltitudeMeters>
            <DistanceMeters>14177.555025996</DistanceMeters>
          </Trackpoint>
          <Trackpoint>
            <Time>2022-07-09T12:29:42.000Z</Time>
            <Position>
              <LatitudeDegrees>42.78686382807791233062744140625</LatitudeDegrees>
              <LongitudeDegrees>-0.133272595703601837158203125</LongitudeDegrees>
            </Position>
            <AltitudeMeters>2511.199951171875</AltitudeMeters>
            <DistanceMeters>14184.427238144</DistanceMeters>
          </Trackpoint>
          <Trackpoint>
            <Time>2022-07-09T12:29:44.000Z</Time>
            <Position>
              <LatitudeDegrees>42.78684304095804691314697265625</LatitudeDegrees>
              <LongitudeDegrees>-0.1332710869610309600830078125</LongitudeDegrees>
            </Position>
            <AltitudeMeters>2511.199951171875</AltitudeMeters>
            <DistanceMeters>14186.743240175</DistanceMeters>
          </Trackpoint>
          <Trackpoint>
            <Time>2022-07-09T12:29:46.000Z</Time>
            <Position>
              <LatitudeDegrees>42.78681672178208827972412109375</LatitudeDegrees>
              <LongitudeDegrees>-0.13327133841812610626220703125</LongitudeDegrees>
            </Position>
            <AltitudeMeters>2511.199951171875</AltitudeMeters>
            <DistanceMeters>14189.672160218</DistanceMeters>
          </Trackpoint>
          <Trackpoint>
            <Time>2022-07-09T12:29:50.000Z</Time>
            <Position>
              <LatitudeDegrees>42.78675251640379428863525390625</LatitudeDegrees>
              <LongitudeDegrees>-0.13326178304851055145263671875</LongitudeDegrees>
            </Position>
            <AltitudeMeters>2512.199951171875</AltitudeMeters>
            <DistanceMeters>14196.860351744</DistanceMeters>
          </Trackpoint>
          <Trackpoint>
            <Time>2022-07-09T12:29:51.000Z</Time>
            <Position>
              <LatitudeDegrees>42.786738015711307525634765625</LatitudeDegrees>
              <LongitudeDegrees>-0.13326429761946201324462890625</LongitudeDegrees>
            </Position>
            <AltitudeMeters>2512.39990234375</AltitudeMeters>
            <DistanceMeters>14198.489720479</DistanceMeters>
          </Trackpoint>
          <Trackpoint>
            <Time>2022-07-09T12:29:54.000Z</Time>
            <Position>
              <LatitudeDegrees>42.7867046557366847991943359375</LatitudeDegrees>
              <LongitudeDegrees>-0.13325658626854419708251953125</LongitudeDegrees>
            </Position>
            <AltitudeMeters>2512.800048828125</AltitudeMeters>
            <DistanceMeters>14202.254985412</DistanceMeters>
          </Trackpoint>
          <Trackpoint>
            <Time>2022-07-09T12:29:56.000Z</Time>
            <Position>
              <LatitudeDegrees>42.7866885624825954437255859375</LatitudeDegrees>
              <LongitudeDegrees>-0.1332561671733856201171875</LongitudeDegrees>
            </Position>
            <AltitudeMeters>2513.60009765625</AltitudeMeters>
            <DistanceMeters>14204.047945873</DistanceMeters>
          </Trackpoint>
          <Trackpoint>
            <Time>2022-07-09T12:29:58.000Z</Time>
            <Position>
              <LatitudeDegrees>42.7866694517433643341064453125</LatitudeDegrees>
              <LongitudeDegrees>-0.13326144777238368988037109375</LongitudeDegrees>
            </Position>
            <AltitudeMeters>2514.199951171875</AltitudeMeters>
            <DistanceMeters>14206.21905156</DistanceMeters>
          </Trackpoint>
          <Trackpoint>
            <Time>2022-07-09T12:30:00.000Z</Time>
            <Position>
              <LatitudeDegrees>42.7866570465266704559326171875</LatitudeDegrees>
              <LongitudeDegrees>-0.13327435590326786041259765625</LongitudeDegrees>
            </Position>
            <AltitudeMeters>2514.60009765625</AltitudeMeters>
            <DistanceMeters>14207.955728137</DistanceMeters>
          </Trackpoint>
          <Trackpoint>
            <Time>2022-07-09T12:30:01.000Z</Time>
            <Position>
              <LatitudeDegrees>42.78665377758443355560302734375</LatitudeDegrees>
              <LongitudeDegrees>-0.13327485881745815277099609375</LongitudeDegrees>
            </Position>
            <AltitudeMeters>2514.800048828125</AltitudeMeters>
            <DistanceMeters>14208.311285544</DistanceMeters>
          </Trackpoint>
          <Trackpoint>
            <Time>2022-07-09T12:30:04.000Z</Time>
            <Position>
              <LatitudeDegrees>42.7866317331790924072265625</LatitudeDegrees>
              <LongitudeDegrees>-0.1332841627299785614013671875</LongitudeDegrees>
            </Position>
            <AltitudeMeters>2515</AltitudeMeters>
            <DistanceMeters>14210.88052393</DistanceMeters>
          </Trackpoint>
          <Trackpoint>
            <Time>2022-07-09T12:30:07.000Z</Time>
            <Position>
              <LatitudeDegrees>42.78660482726991176605224609375</LatitudeDegrees>
              <LongitudeDegrees>-0.13329698704183101654052734375</LongitudeDegrees>
            </Position>
            <AltitudeMeters>2515.60009765625</AltitudeMeters>
            <DistanceMeters>14214.053619459</DistanceMeters>
          </Trackpoint>
          <Trackpoint>
            <Time>2022-07-09T12:30:08.000Z</Time>
            <Position>
              <LatitudeDegrees>42.78659912757575511932373046875</LatitudeDegrees>
              <LongitudeDegrees>-0.13329816050827503204345703125</LongitudeDegrees>
            </Position>
            <AltitudeMeters>2515.800048828125</AltitudeMeters>
            <DistanceMeters>14214.698121993</DistanceMeters>
          </Trackpoint>
          <Trackpoint>
            <Time>2022-07-09T12:30:10.000Z</Time>
            <Position>
              <LatitudeDegrees>42.786590494215488433837890625</LatitudeDegrees>
              <LongitudeDegrees>-0.1332990825176239013671875</LongitudeDegrees>
            </Position>
            <AltitudeMeters>2515.800048828125</AltitudeMeters>
            <DistanceMeters>14215.667208134</DistanceMeters>
          </Trackpoint>
          <Trackpoint>
            <Time>2022-07-09T12:30:13.000Z</Time>
            <Position>
              <LatitudeDegrees>42.786578424274921417236328125</LatitudeDegrees>
              <LongitudeDegrees>-0.13329866342246532440185546875</LongitudeDegrees>
            </Position>
            <AltitudeMeters>2516.39990234375</AltitudeMeters>
            <DistanceMeters>14217.007724905</DistanceMeters>
          </Trackpoint>
          <Trackpoint>
            <Time>2022-07-09T12:30:14.000Z</Time>
            <Position>
              <LatitudeDegrees>42.78657180257141590118408203125</LatitudeDegrees>
              <LongitudeDegrees>-0.13329841196537017822265625</LongitudeDegrees>
            </Position>
            <AltitudeMeters>2516.800048828125</AltitudeMeters>
            <DistanceMeters>14217.743798669</DistanceMeters>
          </Trackpoint>
          <Trackpoint>
            <Time>2022-07-09T12:30:19.000Z</Time>
            <Position>
              <LatitudeDegrees>42.78651732020080089569091796875</LatitudeDegrees>
              <LongitudeDegrees>-0.13330134563148021697998046875</LongitudeDegrees>
            </Position>
            <AltitudeMeters>2518</AltitudeMeters>
            <DistanceMeters>14223.812130544</DistanceMeters>
          </Trackpoint>
          <Trackpoint>
            <Time>2022-07-09T12:30:21.000Z</Time>
            <Position>
              <LatitudeDegrees>42.786493599414825439453125</LatitudeDegrees>
              <LongitudeDegrees>-0.133308805525302886962890625</LongitudeDegrees>
            </Position>
            <AltitudeMeters>2518</AltitudeMeters>
            <DistanceMeters>14226.521641966</DistanceMeters>
          </Trackpoint>
          <Trackpoint>
            <Time>2022-07-09T12:30:23.000Z</Time>
            <Position>
              <LatitudeDegrees>42.7864790149033069610595703125</LatitudeDegrees>
              <LongitudeDegrees>-0.13331492431461811065673828125</LongitudeDegrees>
            </Position>
            <AltitudeMeters>2518.39990234375</AltitudeMeters>
            <DistanceMeters>14228.216211029</DistanceMeters>
          </Trackpoint>
          <Trackpoint>
            <Time>2022-07-09T12:30:26.000Z</Time>
            <Position>
              <LatitudeDegrees>42.7864521928131580352783203125</LatitudeDegrees>
              <LongitudeDegrees>-0.133329927921295166015625</LongitudeDegrees>
            </Position>
            <AltitudeMeters>2519</AltitudeMeters>
            <DistanceMeters>14231.441524667</DistanceMeters>
          </Trackpoint>
          <Trackpoint>
            <Time>2022-07-09T12:30:27.000Z</Time>
            <Position>
              <LatitudeDegrees>42.786438949406147003173828125</LatitudeDegrees>
              <LongitudeDegrees>-0.13333420269191265106201171875</LongitudeDegrees>
            </Position>
            <AltitudeMeters>2519</AltitudeMeters>
            <DistanceMeters>14232.956001282</DistanceMeters>
          </Trackpoint>
          <Trackpoint>
            <Time>2022-07-09T12:30:33.000Z</Time>
            <Position>
              <LatitudeDegrees>42.78634750284254550933837890625</LatitudeDegrees>
              <LongitudeDegrees>-0.133355073630809783935546875</LongitudeDegrees>
            </Position>
            <AltitudeMeters>2519.60009765625</AltitudeMeters>
            <DistanceMeters>14243.275919963</DistanceMeters>
          </Trackpoint>
          <Trackpoint>
            <Time>2022-07-09T12:30:34.000Z</Time>
            <Position>
              <LatitudeDegrees>42.786334343254566192626953125</LatitudeDegrees>
              <LongitudeDegrees>-0.13336571864783763885498046875</LongitudeDegrees>
            </Position>
            <AltitudeMeters>2519.60009765625</AltitudeMeters>
            <DistanceMeters>14244.975809507</DistanceMeters>
          </Trackpoint>
          <Trackpoint>
            <Time>2022-07-09T12:30:40.000Z</Time>
            <Position>
              <LatitudeDegrees>42.78626334853470325469970703125</LatitudeDegrees>
              <LongitudeDegrees>-0.1334269903600215911865234375</LongitudeDegrees>
            </Position>
            <AltitudeMeters>2520</AltitudeMeters>
            <DistanceMeters>14254.329064587</DistanceMeters>
          </Trackpoint>
          <Trackpoint>
            <Time>2022-07-09T12:30:41.000Z</Time>
            <Position>
              <LatitudeDegrees>42.78625421226024627685546875</LatitudeDegrees>
              <LongitudeDegrees>-0.13343176804482936859130859375</LongitudeDegrees>
            </Position>
            <AltitudeMeters>2520.199951171875</AltitudeMeters>
            <DistanceMeters>14255.412535832</DistanceMeters>
          </Trackpoint>
          <Trackpoint>
            <Time>2022-07-09T12:30:45.000Z</Time>
            <Position>
              <LatitudeDegrees>42.78621406294405460357666015625</LatitudeDegrees>
              <LongitudeDegrees>-0.13344216160476207733154296875</LongitudeDegrees>
            </Position>
            <AltitudeMeters>2520.39990234375</AltitudeMeters>
            <DistanceMeters>14259.961924275</DistanceMeters>
          </Trackpoint>
          <Trackpoint>
            <Time>2022-07-09T12:30:47.000Z</Time>
            <Position>
              <LatitudeDegrees>42.78619444929063320159912109375</LatitudeDegrees>
              <LongitudeDegrees>-0.133450962603092193603515625</LongitudeDegrees>
            </Position>
            <AltitudeMeters>2520.60009765625</AltitudeMeters>
            <DistanceMeters>14262.262277464</DistanceMeters>
          </Trackpoint>
          <Trackpoint>
            <Time>2022-07-09T12:30:51.000Z</Time>
            <Position>
              <LatitudeDegrees>42.78615522198379039764404296875</LatitudeDegrees>
              <LongitudeDegrees>-0.1334678940474987030029296875</LongitudeDegrees>
            </Position>
            <AltitudeMeters>2521.199951171875</AltitudeMeters>
            <DistanceMeters>14266.84232851</DistanceMeters>
          </Trackpoint>
          <Trackpoint>
            <Time>2022-07-09T12:30:52.000Z</Time>
            <Position>
              <LatitudeDegrees>42.78614558279514312744140625</LatitudeDegrees>
              <LongitudeDegrees>-0.13347552157938480377197265625</LongitudeDegrees>
            </Position>
            <AltitudeMeters>2521.60009765625</AltitudeMeters>
            <DistanceMeters>14268.08132528</DistanceMeters>
          </Trackpoint>
          <Trackpoint>
            <Time>2022-07-09T12:30:54.000Z</Time>
            <Position>
              <LatitudeDegrees>42.78612521477043628692626953125</LatitudeDegrees>
              <LongitudeDegrees>-0.13350251130759716033935546875</LongitudeDegrees>
            </Position>
            <AltitudeMeters>2522.39990234375</AltitudeMeters>
            <DistanceMeters>14271.244444737</DistanceMeters>
          </Trackpoint>
          <Trackpoint>
            <Time>2022-07-09T12:30:56.000Z</Time>
            <Position>
              <LatitudeDegrees>42.78609956614673137664794921875</LatitudeDegrees>
              <LongitudeDegrees>-0.133524052798748016357421875</LongitudeDegrees>
            </Position>
            <AltitudeMeters>2522.800048828125</AltitudeMeters>
            <DistanceMeters>14274.598766613</DistanceMeters>
          </Trackpoint>
          <Trackpoint>
            <Time>2022-07-09T12:30:59.000Z</Time>
            <Position>
              <LatitudeDegrees>42.78607710264623165130615234375</LatitudeDegrees>
              <LongitudeDegrees>-0.13353369198739528656005859375</LongitudeDegrees>
            </Position>
            <AltitudeMeters>2523</AltitudeMeters>
            <DistanceMeters>14277.21847234</DistanceMeters>
          </Trackpoint>
          <Trackpoint>
            <Time>2022-07-09T12:31:01.000Z</Time>
            <Position>
              <LatitudeDegrees>42.78606687672436237335205078125</LatitudeDegrees>
              <LongitudeDegrees>-0.13352715410292148590087890625</LongitudeDegrees>
            </Position>
            <AltitudeMeters>2523</AltitudeMeters>
            <DistanceMeters>14278.479144167</DistanceMeters>
          </Trackpoint>
          <Trackpoint>
            <Time>2022-07-09T12:31:03.000Z</Time>
            <Position>
              <LatitudeDegrees>42.78605497442185878753662109375</LatitudeDegrees>
              <LongitudeDegrees>-0.13352329842746257781982421875</LongitudeDegrees>
            </Position>
            <AltitudeMeters>2523.39990234375</AltitudeMeters>
            <DistanceMeters>14279.839719659</DistanceMeters>
          </Trackpoint>
          <Trackpoint>
            <Time>2022-07-09T12:31:09.000Z</Time>
            <Position>
              <LatitudeDegrees>42.78601189143955707550048828125</LatitudeDegrees>
              <LongitudeDegrees>-0.13354785740375518798828125</LongitudeDegrees>
            </Position>
            <AltitudeMeters>2524</AltitudeMeters>
            <DistanceMeters>14285.036734056</DistanceMeters>
          </Trackpoint>
          <Trackpoint>
            <Time>2022-07-09T12:31:10.000Z</Time>
            <Position>
              <LatitudeDegrees>42.78600208461284637451171875</LatitudeDegrees>
              <LongitudeDegrees>-0.1335523836314678192138671875</LongitudeDegrees>
            </Position>
            <AltitudeMeters>2524.199951171875</AltitudeMeters>
            <DistanceMeters>14286.192783932</DistanceMeters>
          </Trackpoint>
          <Trackpoint>
            <Time>2022-07-09T12:31:11.000Z</Time>
            <Position>
              <LatitudeDegrees>42.78599135577678680419921875</LatitudeDegrees>
              <LongitudeDegrees>-0.1335550658404827117919921875</LongitudeDegrees>
            </Position>
            <AltitudeMeters>2524.39990234375</AltitudeMeters>
            <DistanceMeters>14287.406003805</DistanceMeters>
          </Trackpoint>
          <Trackpoint>
            <Time>2022-07-09T12:31:17.000Z</Time>
            <Position>
              <LatitudeDegrees>42.785909883677959442138671875</LatitudeDegrees>
              <LongitudeDegrees>-0.133555233478546142578125</LongitudeDegrees>
            </Position>
            <AltitudeMeters>2525.39990234375</AltitudeMeters>
            <DistanceMeters>14296.473962566</DistanceMeters>
          </Trackpoint>
          <Trackpoint>
            <Time>2022-07-09T12:31:18.000Z</Time>
            <Position>
              <LatitudeDegrees>42.78590284287929534912109375</LatitudeDegrees>
              <LongitudeDegrees>-0.13355615548789501190185546875</LongitudeDegrees>
            </Position>
            <AltitudeMeters>2525.39990234375</AltitudeMeters>
            <DistanceMeters>14297.2690131</DistanceMeters>
          </Trackpoint>
          <Trackpoint>
            <Time>2022-07-09T12:31:20.000Z</Time>
            <Position>
              <LatitudeDegrees>42.78588985092937946319580078125</LatitudeDegrees>
              <LongitudeDegrees>-0.13355867005884647369384765625</LongitudeDegrees>
            </Position>
            <AltitudeMeters>2525.39990234375</AltitudeMeters>
            <DistanceMeters>14298.728841186</DistanceMeters>
          </Trackpoint>
          <Trackpoint>
            <Time>2022-07-09T12:31:26.000Z</Time>
            <Position>
              <LatitudeDegrees>42.78586286120116710662841796875</LatitudeDegrees>
              <LongitudeDegrees>-0.13362027704715728759765625</LongitudeDegrees>
            </Position>
            <AltitudeMeters>2525.800048828125</AltitudeMeters>
            <DistanceMeters>14304.589763536</DistanceMeters>
          </Trackpoint>
          <Trackpoint>
            <Time>2022-07-09T12:31:27.000Z</Time>
            <Position>
              <LatitudeDegrees>42.78586126863956451416015625</LatitudeDegrees>
              <LongitudeDegrees>-0.133633352816104888916015625</LongitudeDegrees>
            </Position>
            <AltitudeMeters>2525.800048828125</AltitudeMeters>
            <DistanceMeters>14305.67323478</DistanceMeters>
          </Trackpoint>
          <Trackpoint>
            <Time>2022-07-09T12:31:28.000Z</Time>
            <Position>
              <LatitudeDegrees>42.78586034663021564483642578125</LatitudeDegrees>
              <LongitudeDegrees>-0.13364483602344989776611328125</LongitudeDegrees>
            </Position>
            <AltitudeMeters>2526</AltitudeMeters>
            <DistanceMeters>14306.613951258</DistanceMeters>
          </Trackpoint>
          <Trackpoint>
            <Time>2022-07-09T12:31:30.000Z</Time>
            <Position>
              <LatitudeDegrees>42.78585112653672695159912109375</LatitudeDegrees>
              <LongitudeDegrees>-0.1336549781262874603271484375</LongitudeDegrees>
            </Position>
            <AltitudeMeters>2526</AltitudeMeters>
            <DistanceMeters>14307.930680037</DistanceMeters>
          </Trackpoint>
          <Trackpoint>
            <Time>2022-07-09T12:31:32.000Z</Time>
            <Position>
              <LatitudeDegrees>42.78583838604390621185302734375</LatitudeDegrees>
              <LongitudeDegrees>-0.13367450796067714691162109375</LongitudeDegrees>
            </Position>
            <AltitudeMeters>2526.39990234375</AltitudeMeters>
            <DistanceMeters>14310.068253119</DistanceMeters>
          </Trackpoint>
          <Trackpoint>
            <Time>2022-07-09T12:31:33.000Z</Time>
            <Position>
              <LatitudeDegrees>42.7858315967023372650146484375</LatitudeDegrees>
              <LongitudeDegrees>-0.13368138112127780914306640625</LongitudeDegrees>
            </Position>
            <AltitudeMeters>2527</AltitudeMeters>
            <DistanceMeters>14311.013756989</DistanceMeters>
          </Trackpoint>
          <Trackpoint>
            <Time>2022-07-09T12:31:34.000Z</Time>
            <Position>
              <LatitudeDegrees>42.78582396917045116424560546875</LatitudeDegrees>
              <LongitudeDegrees>-0.13369026593863964080810546875</LongitudeDegrees>
            </Position>
            <AltitudeMeters>2527.39990234375</AltitudeMeters>
            <DistanceMeters>14312.130068123</DistanceMeters>
          </Trackpoint>
          <Trackpoint>
            <Time>2022-07-09T12:31:38.000Z</Time>
            <Position>
              <LatitudeDegrees>42.78579748235642910003662109375</LatitudeDegrees>
              <LongitudeDegrees>-0.133735947310924530029296875</LongitudeDegrees>
            </Position>
            <AltitudeMeters>2528</AltitudeMeters>
            <DistanceMeters>14316.885203391</DistanceMeters>
          </Trackpoint>
          <Trackpoint>
            <Time>2022-07-09T12:31:39.000Z</Time>
            <Position>
              <LatitudeDegrees>42.78579161502420902252197265625</LatitudeDegrees>
              <LongitudeDegrees>-0.133747346699237823486328125</LongitudeDegrees>
            </Position>
            <AltitudeMeters>2528.199951171875</AltitudeMeters>
            <DistanceMeters>14318.021557619</DistanceMeters>
          </Trackpoint>
          <Trackpoint>
            <Time>2022-07-09T12:31:41.000Z</Time>
            <Position>
              <LatitudeDegrees>42.7857761085033416748046875</LatitudeDegrees>
              <LongitudeDegrees>-0.133759416639804840087890625</LongitudeDegrees>
            </Position>
            <AltitudeMeters>2528.199951171875</AltitudeMeters>
            <DistanceMeters>14320.010319415</DistanceMeters>
          </Trackpoint>
          <Trackpoint>
            <Time>2022-07-09T12:31:42.000Z</Time>
            <Position>
              <LatitudeDegrees>42.78576747514307498931884765625</LatitudeDegrees>
              <LongitudeDegrees>-0.13376712799072265625</LongitudeDegrees>
            </Position>
            <AltitudeMeters>2528.39990234375</AltitudeMeters>
            <DistanceMeters>14321.162457097</DistanceMeters>
          </Trackpoint>
          <Trackpoint>
            <Time>2022-07-09T12:31:46.000Z</Time>
            <Position>
              <LatitudeDegrees>42.78573193587362766265869140625</LatitudeDegrees>
              <LongitudeDegrees>-0.1338132284581661224365234375</LongitudeDegrees>
            </Position>
            <AltitudeMeters>2528.800048828125</AltitudeMeters>
            <DistanceMeters>14326.624633639</DistanceMeters>
          </Trackpoint>
          <Trackpoint>
            <Time>2022-07-09T12:31:48.000Z</Time>
            <Position>
              <LatitudeDegrees>42.78571936301887035369873046875</LatitudeDegrees>
              <LongitudeDegrees>-0.13383527286350727081298828125</LongitudeDegrees>
            </Position>
            <AltitudeMeters>2529.199951171875</AltitudeMeters>
            <DistanceMeters>14328.905274783</DistanceMeters>
          </Trackpoint>
          <Trackpoint>
            <Time>2022-07-09T12:31:54.000Z</Time>
            <Position>
              <LatitudeDegrees>42.78567485511302947998046875</LatitudeDegrees>
              <LongitudeDegrees>-0.1338792778551578521728515625</LongitudeDegrees>
            </Position>
            <AltitudeMeters>2529.800048828125</AltitudeMeters>
            <DistanceMeters>14335.026205037</DistanceMeters>
          </Trackpoint>
          <Trackpoint>
            <Time>2022-07-09T12:31:55.000Z</Time>
            <Position>
              <LatitudeDegrees>42.78567024506628513336181640625</LatitudeDegrees>
              <LongitudeDegrees>-0.13389176689088344573974609375</LongitudeDegrees>
            </Position>
            <AltitudeMeters>2529.800048828125</AltitudeMeters>
            <DistanceMeters>14336.166525609</DistanceMeters>
          </Trackpoint>
          <Trackpoint>
            <Time>2022-07-09T12:31:58.000Z</Time>
            <Position>
              <LatitudeDegrees>42.78565381653606891632080078125</LatitudeDegrees>
              <LongitudeDegrees>-0.1339255459606647491455078125</LongitudeDegrees>
            </Position>
            <AltitudeMeters>2530.199951171875</AltitudeMeters>
            <DistanceMeters>14339.477494169</DistanceMeters>
          </Trackpoint>
          <Trackpoint>
            <Time>2022-07-09T12:32:01.000Z</Time>
            <Position>
              <LatitudeDegrees>42.78563328087329864501953125</LatitudeDegrees>
              <LongitudeDegrees>-0.1339508593082427978515625</LongitudeDegrees>
            </Position>
            <AltitudeMeters>2531.199951171875</AltitudeMeters>
            <DistanceMeters>14342.559642838</DistanceMeters>
          </Trackpoint>
          <Trackpoint>
            <Time>2022-07-09T12:32:03.000Z</Time>
            <Position>
              <LatitudeDegrees>42.78562531806528568267822265625</LatitudeDegrees>
              <LongitudeDegrees>-0.133967958390712738037109375</LongitudeDegrees>
            </Position>
            <AltitudeMeters>2532</AltitudeMeters>
            <DistanceMeters>14344.213762895</DistanceMeters>
          </Trackpoint>
          <Trackpoint>
            <Time>2022-07-09T12:32:05.000Z</Time>
            <Position>
              <LatitudeDegrees>42.78561961837112903594970703125</LatitudeDegrees>
              <LongitudeDegrees>-0.13398614712059497833251953125</LongitudeDegrees>
            </Position>
            <AltitudeMeters>2532.199951171875</AltitudeMeters>
            <DistanceMeters>14345.829217039</DistanceMeters>
          </Trackpoint>
          <Trackpoint>
            <Time>2022-07-09T12:32:10.000Z</Time>
            <Position>
              <LatitudeDegrees>42.785568572580814361572265625</LatitudeDegrees>
              <LongitudeDegrees>-0.134006850421428680419921875</LongitudeDegrees>
            </Position>
            <AltitudeMeters>2532.60009765625</AltitudeMeters>
            <DistanceMeters>14351.757543744</DistanceMeters>
          </Trackpoint>
          <Trackpoint>
            <Time>2022-07-09T12:32:13.000Z</Time>
            <Position>
              <LatitudeDegrees>42.7855305187404155731201171875</LatitudeDegrees>
              <LongitudeDegrees>-0.1340375281870365142822265625</LongitudeDegrees>
            </Position>
            <AltitudeMeters>2533.39990234375</AltitudeMeters>
            <DistanceMeters>14356.677872488</DistanceMeters>
          </Trackpoint>
          <Trackpoint>
            <Time>2022-07-09T12:32:17.000Z</Time>
            <Position>
              <LatitudeDegrees>42.78549154289066791534423828125</LatitudeDegrees>
              <LongitudeDegrees>-0.1340680383145809173583984375</LongitudeDegrees>
            </Position>
            <AltitudeMeters>2534</AltitudeMeters>
            <DistanceMeters>14361.681008694</DistanceMeters>
          </Trackpoint>
          <Trackpoint>
            <Time>2022-07-09T12:32:20.000Z</Time>
            <Position>
              <LatitudeDegrees>42.78545650653541088104248046875</LatitudeDegrees>
              <LongitudeDegrees>-0.1340734027326107025146484375</LongitudeDegrees>
            </Position>
            <AltitudeMeters>2533.60009765625</AltitudeMeters>
            <DistanceMeters>14365.603667265</DistanceMeters>
          </Trackpoint>
          <Trackpoint>
            <Time>2022-07-09T12:32:26.000Z</Time>
            <Position>
              <LatitudeDegrees>42.78536505997180938720703125</LatitudeDegrees>
              <LongitudeDegrees>-0.1340995542705059051513671875</LongitudeDegrees>
            </Position>
            <AltitudeMeters>2533</AltitudeMeters>
            <DistanceMeters>14376.003341566</DistanceMeters>
          </Trackpoint>
          <Trackpoint>
            <Time>2022-07-09T12:32:27.000Z</Time>
            <Position>
              <LatitudeDegrees>42.78535525314509868621826171875</LatitudeDegrees>
              <LongitudeDegrees>-0.1341015659272670745849609375</LongitudeDegrees>
            </Position>
            <AltitudeMeters>2533</AltitudeMeters>
            <DistanceMeters>14377.111533967</DistanceMeters>
          </Trackpoint>
          <Trackpoint>
            <Time>2022-07-09T12:32:29.000Z</Time>
            <Position>
              <LatitudeDegrees>42.78533496893942356109619140625</LatitudeDegrees>
              <LongitudeDegrees>-0.134106762707233428955078125</LongitudeDegrees>
            </Position>
            <AltitudeMeters>2533</AltitudeMeters>
            <DistanceMeters>14379.407958283</DistanceMeters>
          </Trackpoint>
          <Trackpoint>
            <Time>2022-07-09T12:32:33.000Z</Time>
            <Position>
              <LatitudeDegrees>42.78530797921121120452880859375</LatitudeDegrees>
              <LongitudeDegrees>-0.1341377757489681243896484375</LongitudeDegrees>
            </Position>
            <AltitudeMeters>2533.199951171875</AltitudeMeters>
            <DistanceMeters>14383.337516874</DistanceMeters>
          </Trackpoint>
          <Trackpoint>
            <Time>2022-07-09T12:32:38.000Z</Time>
            <Position>
              <LatitudeDegrees>42.78525777161121368408203125</LatitudeDegrees>
              <LongitudeDegrees>-0.1341360993683338165283203125</LongitudeDegrees>
            </Position>
            <AltitudeMeters>2533.60009765625</AltitudeMeters>
            <DistanceMeters>14388.927155905</DistanceMeters>
          </Trackpoint>
          <Trackpoint>
            <Time>2022-07-09T12:32:39.000Z</Time>
            <Position>
              <LatitudeDegrees>42.78524570167064666748046875</LatitudeDegrees>
              <LongitudeDegrees>-0.13413836248219013214111328125</LongitudeDegrees>
            </Position>
            <AltitudeMeters>2533.60009765625</AltitudeMeters>
            <DistanceMeters>14390.284408864</DistanceMeters>
          </Trackpoint>
          <Trackpoint>
            <Time>2022-07-09T12:32:40.000Z</Time>
            <Position>
              <LatitudeDegrees>42.78523572720587253570556640625</LatitudeDegrees>
              <LongitudeDegrees>-0.1341439783573150634765625</LongitudeDegrees>
            </Position>
            <AltitudeMeters>2533.800048828125</AltitudeMeters>
            <DistanceMeters>14391.48265014</DistanceMeters>
          </Trackpoint>
          <Trackpoint>
            <Time>2022-07-09T12:32:43.000Z</Time>
            <Position>
              <LatitudeDegrees>42.7852099947631359100341796875</LatitudeDegrees>
              <LongitudeDegrees>-0.13417105190455913543701171875</LongitudeDegrees>
            </Position>
            <AltitudeMeters>2534.199951171875</AltitudeMeters>
            <DistanceMeters>14395.101159618</DistanceMeters>
          </Trackpoint>
          <Trackpoint>
            <Time>2022-07-09T12:32:45.000Z</Time>
            <Position>
              <LatitudeDegrees>42.78519432060420513153076171875</LatitudeDegrees>
              <LongitudeDegrees>-0.1341897435486316680908203125</LongitudeDegrees>
            </Position>
            <AltitudeMeters>2534.199951171875</AltitudeMeters>
            <DistanceMeters>14397.421057366</DistanceMeters>
          </Trackpoint>
          <Trackpoint>
            <Time>2022-07-09T12:32:47.000Z</Time>
            <Position>
              <LatitudeDegrees>42.78518007136881351470947265625</LatitudeDegrees>
              <LongitudeDegrees>-0.1342075131833553314208984375</LongitudeDegrees>
            </Position>
            <AltitudeMeters>2534.800048828125</AltitudeMeters>
            <DistanceMeters>14399.571266458</DistanceMeters>
          </Trackpoint>
          <Trackpoint>
            <Time>2022-07-09T12:32:51.000Z</Time>
            <Position>
              <LatitudeDegrees>42.785176299512386322021484375</LatitudeDegrees>
              <LongitudeDegrees>-0.1342641748487949371337890625</LongitudeDegrees>
            </Position>
            <AltitudeMeters>2535.199951171875</AltitudeMeters>
            <DistanceMeters>14404.218840325</DistanceMeters>
          </Trackpoint>
          <Trackpoint>
            <Time>2022-07-09T12:32:53.000Z</Time>
            <Position>
              <LatitudeDegrees>42.7851711027324199676513671875</LatitudeDegrees>
              <LongitudeDegrees>-0.1342861354351043701171875</LongitudeDegrees>
            </Position>
            <AltitudeMeters>2535.800048828125</AltitudeMeters>
            <DistanceMeters>14406.105066748</DistanceMeters>
          </Trackpoint>
          <Trackpoint>
            <Time>2022-07-09T12:32:59.000Z</Time>
            <Position>
              <LatitudeDegrees>42.7851308695971965789794921875</LatitudeDegrees>
              <LongitudeDegrees>-0.134332068264484405517578125</LongitudeDegrees>
            </Position>
            <AltitudeMeters>2536.800048828125</AltitudeMeters>
            <DistanceMeters>14411.94747113</DistanceMeters>
          </Trackpoint>
          <Trackpoint>
            <Time>2022-07-09T12:33:00.000Z</Time>
            <Position>
              <LatitudeDegrees>42.78512475080788135528564453125</LatitudeDegrees>
              <LongitudeDegrees>-0.13434204272925853729248046875</LongitudeDegrees>
            </Position>
            <AltitudeMeters>2537</AltitudeMeters>
            <DistanceMeters>14413.009902095</DistanceMeters>
          </Trackpoint>
          <Trackpoint>
            <Time>2022-07-09T12:33:01.000Z</Time>
            <Position>
              <LatitudeDegrees>42.78511838056147098541259765625</LatitudeDegrees>
              <LongitudeDegrees>-0.134348832070827484130859375</LongitudeDegrees>
            </Position>
            <AltitudeMeters>2537.199951171875</AltitudeMeters>
            <DistanceMeters>14413.911404663</DistanceMeters>
          </Trackpoint>
          <Trackpoint>
            <Time>2022-07-09T12:33:06.000Z</Time>
            <Position>
              <LatitudeDegrees>42.78507647104561328887939453125</LatitudeDegrees>
              <LongitudeDegrees>-0.13438311405479907989501953125</LongitudeDegrees>
            </Position>
            <AltitudeMeters>2537.60009765625</AltitudeMeters>
            <DistanceMeters>14419.352047142</DistanceMeters>
          </Trackpoint>
          <Trackpoint>
            <Time>2022-07-09T12:33:08.000Z</Time>
            <Position>
              <LatitudeDegrees>42.7850624732673168182373046875</LatitudeDegrees>
              <LongitudeDegrees>-0.1343785040080547332763671875</LongitudeDegrees>
            </Position>
            <AltitudeMeters>2537.800048828125</AltitudeMeters>
            <DistanceMeters>14420.953465797</DistanceMeters>
          </Trackpoint>
          <Trackpoint>
            <Time>2022-07-09T12:33:09.000Z</Time>
            <Position>
              <LatitudeDegrees>42.78505803085863590240478515625</LatitudeDegrees>
              <LongitudeDegrees>-0.1343774981796741485595703125</LongitudeDegrees>
            </Position>
            <AltitudeMeters>2538</AltitudeMeters>
            <DistanceMeters>14421.456299906</DistanceMeters>
          </Trackpoint>
          <Trackpoint>
            <Time>2022-07-09T12:33:10.000Z</Time>
            <Position>
              <LatitudeDegrees>42.78505467809736728668212890625</LatitudeDegrees>
              <LongitudeDegrees>-0.13438495807349681854248046875</LongitudeDegrees>
            </Position>
            <AltitudeMeters>2538.199951171875</AltitudeMeters>
            <DistanceMeters>14422.167414721</DistanceMeters>
          </Trackpoint>
          <Trackpoint>
            <Time>2022-07-09T12:33:14.000Z</Time>
            <Position>
              <LatitudeDegrees>42.7850312925875186920166015625</LatitudeDegrees>
              <LongitudeDegrees>-0.13441018760204315185546875</LongitudeDegrees>
            </Position>
            <AltitudeMeters>2539</AltitudeMeters>
            <DistanceMeters>14425.486555161</DistanceMeters>
          </Trackpoint>
          <Trackpoint>
            <Time>2022-07-09T12:33:16.000Z</Time>
            <Position>
              <LatitudeDegrees>42.7850108407437801361083984375</LatitudeDegrees>
              <LongitudeDegrees>-0.1344153843820095062255859375</LongitudeDegrees>
            </Position>
            <AltitudeMeters>2539.39990234375</AltitudeMeters>
            <DistanceMeters>14427.802557192</DistanceMeters>
          </Trackpoint>
          <Trackpoint>
            <Time>2022-07-09T12:33:18.000Z</Time>
            <Position>
              <LatitudeDegrees>42.78499315492808818817138671875</LatitudeDegrees>
              <LongitudeDegrees>-0.13441815041005611419677734375</LongitudeDegrees>
            </Position>
            <AltitudeMeters>2540.199951171875</AltitudeMeters>
            <DistanceMeters>14429.784496458</DistanceMeters>
          </Trackpoint>
          <Trackpoint>
            <Time>2022-07-09T12:33:20.000Z</Time>
            <Position>
              <LatitudeDegrees>42.78497588820755481719970703125</LatitudeDegrees>
              <LongitudeDegrees>-0.1344214193522930145263671875</LongitudeDegrees>
            </Position>
            <AltitudeMeters>2540.60009765625</AltitudeMeters>
            <DistanceMeters>14431.727322223</DistanceMeters>
          </Trackpoint>
          <Trackpoint>
            <Time>2022-07-09T12:33:26.000Z</Time>
            <Position>
              <LatitudeDegrees>42.78492894954979419708251953125</LatitudeDegrees>
              <LongitudeDegrees>-0.13444128446280956268310546875</LongitudeDegrees>
            </Position>
            <AltitudeMeters>2541.199951171875</AltitudeMeters>
            <DistanceMeters>14437.19693311</DistanceMeters>
          </Trackpoint>
          <Trackpoint>
            <Time>2022-07-09T12:33:27.000Z</Time>
            <Position>
              <LatitudeDegrees>42.78493045829236507415771484375</LatitudeDegrees>
              <LongitudeDegrees>-0.13443969190120697021484375</LongitudeDegrees>
            </Position>
            <AltitudeMeters>2541.39990234375</AltitudeMeters>
            <DistanceMeters>14437.386986539</DistanceMeters>
          </Trackpoint>
          <Trackpoint>
            <Time>2022-07-09T12:33:31.000Z</Time>
            <Position>
              <LatitudeDegrees>42.78494353406131267547607421875</LatitudeDegrees>
              <LongitudeDegrees>-0.13439317233860492706298828125</LongitudeDegrees>
            </Position>
            <AltitudeMeters>2542.60009765625</AltitudeMeters>
            <DistanceMeters>14441.455417456</DistanceMeters>
          </Trackpoint>
          <Trackpoint>
            <Time>2022-07-09T12:33:33.000Z</Time>
            <Position>
              <LatitudeDegrees>42.7849555201828479766845703125</LatitudeDegrees>
              <LongitudeDegrees>-0.1343878917396068572998046875</LongitudeDegrees>
            </Position>
            <AltitudeMeters>2543</AltitudeMeters>
            <DistanceMeters>14442.858470079</DistanceMeters>
          </Trackpoint>
          <Trackpoint>
            <Time>2022-07-09T12:33:36.000Z</Time>
            <Position>
              <LatitudeDegrees>42.78496599756181240081787109375</LatitudeDegrees>
              <LongitudeDegrees>-0.13436727225780487060546875</LongitudeDegrees>
            </Position>
            <AltitudeMeters>2543.60009765625</AltitudeMeters>
            <DistanceMeters>14444.905408151</DistanceMeters>
          </Trackpoint>
          <Trackpoint>
            <Time>2022-07-09T12:33:39.000Z</Time>
            <Position>
              <LatitudeDegrees>42.78497345745563507080078125</LatitudeDegrees>
              <LongitudeDegrees>-0.13432997278869152069091796875</LongitudeDegrees>
            </Position>
            <AltitudeMeters>2544.199951171875</AltitudeMeters>
            <DistanceMeters>14448.062812844</DistanceMeters>
          </Trackpoint>
          <Trackpoint>
            <Time>2022-07-09T12:33:43.000Z</Time>
            <Position>
              <LatitudeDegrees>42.78495468199253082275390625</LatitudeDegrees>
              <LongitudeDegrees>-0.13429409824311733245849609375</LongitudeDegrees>
            </Position>
            <AltitudeMeters>2545</AltitudeMeters>
            <DistanceMeters>14451.662557237</DistanceMeters>
          </Trackpoint>
          <Trackpoint>
            <Time>2022-07-09T12:33:45.000Z</Time>
            <Position>
              <LatitudeDegrees>42.78493766672909259796142578125</LatitudeDegrees>
              <LongitudeDegrees>-0.134267695248126983642578125</LongitudeDegrees>
            </Position>
            <AltitudeMeters>2545.39990234375</AltitudeMeters>
            <DistanceMeters>14454.532301079</DistanceMeters>
          </Trackpoint>
          <Trackpoint>
            <Time>2022-07-09T12:33:49.000Z</Time>
            <Position>
              <LatitudeDegrees>42.7849159575998783111572265625</LatitudeDegrees>
              <LongitudeDegrees>-0.13424347154796123504638671875</LongitudeDegrees>
            </Position>
            <AltitudeMeters>2546.199951171875</AltitudeMeters>
            <DistanceMeters>14457.658087814</DistanceMeters>
          </Trackpoint>
          <Trackpoint>
            <Time>2022-07-09T12:33:51.000Z</Time>
            <Position>
              <LatitudeDegrees>42.78490330092608928680419921875</LatitudeDegrees>
              <LongitudeDegrees>-0.13424883596599102020263671875</LongitudeDegrees>
            </Position>
            <AltitudeMeters>2546.39990234375</AltitudeMeters>
            <DistanceMeters>14459.133299129</DistanceMeters>
          </Trackpoint>
          <Trackpoint>
            <Time>2022-07-09T12:33:55.000Z</Time>
            <Position>
              <LatitudeDegrees>42.78488921932876110076904296875</LatitudeDegrees>
              <LongitudeDegrees>-0.1342765800654888153076171875</LongitudeDegrees>
            </Position>
            <AltitudeMeters>2547.199951171875</AltitudeMeters>
            <DistanceMeters>14461.889073845</DistanceMeters>
          </Trackpoint>
          <Trackpoint>
            <Time>2022-07-09T12:33:58.000Z</Time>
            <Position>
              <LatitudeDegrees>42.7848804183304309844970703125</LatitudeDegrees>
              <LongitudeDegrees>-0.1342960260808467864990234375</LongitudeDegrees>
            </Position>
            <AltitudeMeters>2547.39990234375</AltitudeMeters>
            <DistanceMeters>14463.756052556</DistanceMeters>
          </Trackpoint>
          <Trackpoint>
            <Time>2022-07-09T12:34:03.000Z</Time>
            <Position>
              <LatitudeDegrees>42.784865833818912506103515625</LatitudeDegrees>
              <LongitudeDegrees>-0.13429476879537105560302734375</LongitudeDegrees>
            </Position>
            <AltitudeMeters>2548</AltitudeMeters>
            <DistanceMeters>14465.385421291</DistanceMeters>
          </Trackpoint>
          <Trackpoint>
            <Time>2022-07-09T12:34:04.000Z</Time>
            <Position>
              <LatitudeDegrees>42.7848603017628192901611328125</LatitudeDegrees>
              <LongitudeDegrees>-0.13429082930088043212890625</LongitudeDegrees>
            </Position>
            <AltitudeMeters>2548.199951171875</AltitudeMeters>
            <DistanceMeters>14466.083722178</DistanceMeters>
          </Trackpoint>
          <Trackpoint>
            <Time>2022-07-09T12:34:05.000Z</Time>
            <Position>
              <LatitudeDegrees>42.7848525904119014739990234375</LatitudeDegrees>
              <LongitudeDegrees>-0.13428001664578914642333984375</LongitudeDegrees>
            </Position>
            <AltitudeMeters>2548.39990234375</AltitudeMeters>
            <DistanceMeters>14467.315409168</DistanceMeters>
          </Trackpoint>
          <Trackpoint>
            <Time>2022-07-09T12:34:06.000Z</Time>
            <Position>
              <LatitudeDegrees>42.7848465554416179656982421875</LatitudeDegrees>
              <LongitudeDegrees>-0.13427674770355224609375</LongitudeDegrees>
            </Position>
            <AltitudeMeters>2548.800048828125</AltitudeMeters>
            <DistanceMeters>14468.039111064</DistanceMeters>
          </Trackpoint>
          <Trackpoint>
            <Time>2022-07-09T12:34:10.000Z</Time>
            <Position>
              <LatitudeDegrees>42.78483205474913120269775390625</LatitudeDegrees>
              <LongitudeDegrees>-0.13425990007817745208740234375</LongitudeDegrees>
            </Position>
            <AltitudeMeters>2549.60009765625</AltitudeMeters>
            <DistanceMeters>14470.159719012</DistanceMeters>
          </Trackpoint>
          <Trackpoint>
            <Time>2022-07-09T12:34:14.000Z</Time>
            <Position>
              <LatitudeDegrees>42.78483188711106777191162109375</LatitudeDegrees>
              <LongitudeDegrees>-0.13421497307717800140380859375</LongitudeDegrees>
            </Position>
            <AltitudeMeters>2550.39990234375</AltitudeMeters>
            <DistanceMeters>14473.829030116</DistanceMeters>
          </Trackpoint>
          <Trackpoint>
            <Time>2022-07-09T12:34:16.000Z</Time>
            <Position>
              <LatitudeDegrees>42.78482283465564250946044921875</LatitudeDegrees>
              <LongitudeDegrees>-0.13418731279671192169189453125</LongitudeDegrees>
            </Position>
            <AltitudeMeters>2550.800048828125</AltitudeMeters>
            <DistanceMeters>14476.305200931</DistanceMeters>
          </Trackpoint>
          <Trackpoint>
            <Time>2022-07-09T12:34:19.000Z</Time>
            <Position>
              <LatitudeDegrees>42.784798108041286468505859375</LatitudeDegrees>
              <LongitudeDegrees>-0.13416300527751445770263671875</LongitudeDegrees>
            </Position>
            <AltitudeMeters>2551.800048828125</AltitudeMeters>
            <DistanceMeters>14479.699663708</DistanceMeters>
          </Trackpoint>
          <Trackpoint>
            <Time>2022-07-09T12:34:21.000Z</Time>
            <Position>
              <LatitudeDegrees>42.78477706946432590484619140625</LatitudeDegrees>
              <LongitudeDegrees>-0.134186558425426483154296875</LongitudeDegrees>
            </Position>
            <AltitudeMeters>2552.199951171875</AltitudeMeters>
            <DistanceMeters>14482.731596725</DistanceMeters>
          </Trackpoint>
          <Trackpoint>
            <Time>2022-07-09T12:34:25.000Z</Time>
            <Position>
              <LatitudeDegrees>42.784777320921421051025390625</LatitudeDegrees>
              <LongitudeDegrees>-0.134249590337276458740234375</LongitudeDegrees>
            </Position>
            <AltitudeMeters>2553.199951171875</AltitudeMeters>
            <DistanceMeters>14487.880606769</DistanceMeters>
          </Trackpoint>
          <Trackpoint>
            <Time>2022-07-09T12:34:29.000Z</Time>
            <Position>
              <LatitudeDegrees>42.7847788296639919281005859375</LatitudeDegrees>
              <LongitudeDegrees>-0.13428286649286746978759765625</LongitudeDegrees>
            </Position>
            <AltitudeMeters>2553.800048828125</AltitudeMeters>
            <DistanceMeters>14490.601757754</DistanceMeters>
          </Trackpoint>
          <Trackpoint>
            <Time>2022-07-09T12:34:30.000Z</Time>
            <Position>
              <LatitudeDegrees>42.78477673418819904327392578125</LatitudeDegrees>
              <LongitudeDegrees>-0.13429426588118076324462890625</LongitudeDegrees>
            </Position>
            <AltitudeMeters>2553.800048828125</AltitudeMeters>
            <DistanceMeters>14491.561480526</DistanceMeters>
          </Trackpoint>
          <Trackpoint>
            <Time>2022-07-09T12:34:34.000Z</Time>
            <Position>
              <LatitudeDegrees>42.78476558625698089599609375</LatitudeDegrees>
              <LongitudeDegrees>-0.13434723950922489166259765625</LongitudeDegrees>
            </Position>
            <AltitudeMeters>2554.39990234375</AltitudeMeters>
            <DistanceMeters>14496.064984905</DistanceMeters>
          </Trackpoint>
          <Trackpoint>
            <Time>2022-07-09T12:34:35.000Z</Time>
            <Position>
              <LatitudeDegrees>42.784760892391204833984375</LatitudeDegrees>
              <LongitudeDegrees>-0.13435981236398220062255859375</LongitudeDegrees>
            </Position>
            <AltitudeMeters>2554.60009765625</AltitudeMeters>
            <DistanceMeters>14497.217122586</DistanceMeters>
          </Trackpoint>
          <Trackpoint>
            <Time>2022-07-09T12:34:41.000Z</Time>
            <Position>
              <LatitudeDegrees>42.784724347293376922607421875</LatitudeDegrees>
              <LongitudeDegrees>-0.13441027142107486724853515625</LongitudeDegrees>
            </Position>
            <AltitudeMeters>2555.39990234375</AltitudeMeters>
            <DistanceMeters>14503.006737751</DistanceMeters>
          </Trackpoint>
          <Trackpoint>
            <Time>2022-07-09T12:34:42.000Z</Time>
            <Position>
              <LatitudeDegrees>42.784717641770839691162109375</LatitudeDegrees>
              <LongitudeDegrees>-0.13441178016364574432373046875</LongitudeDegrees>
            </Position>
            <AltitudeMeters>2555.39990234375</AltitudeMeters>
            <DistanceMeters>14503.766951466</DistanceMeters>
          </Trackpoint>
          <Trackpoint>
            <Time>2022-07-09T12:34:44.000Z</Time>
            <Position>
              <LatitudeDegrees>42.784696854650974273681640625</LatitudeDegrees>
              <LongitudeDegrees>-0.1344116963446140289306640625</LongitudeDegrees>
            </Position>
            <AltitudeMeters>2555.60009765625</AltitudeMeters>
            <DistanceMeters>14506.079051217</DistanceMeters>
          </Trackpoint>
          <Trackpoint>
            <Time>2022-07-09T12:34:47.000Z</Time>
            <Position>
              <LatitudeDegrees>42.784670032560825347900390625</LatitudeDegrees>
              <LongitudeDegrees>-0.13442401774227619171142578125</LongitudeDegrees>
            </Position>
            <AltitudeMeters>2556</AltitudeMeters>
            <DistanceMeters>14509.227864316</DistanceMeters>
          </Trackpoint>
          <Trackpoint>
            <Time>2022-07-09T12:34:50.000Z</Time>
            <Position>
              <LatitudeDegrees>42.78463977389037609100341796875</LatitudeDegrees>
              <LongitudeDegrees>-0.134451426565647125244140625</LongitudeDegrees>
            </Position>
            <AltitudeMeters>2556.199951171875</AltitudeMeters>
            <DistanceMeters>14513.271806506</DistanceMeters>
          </Trackpoint>
          <Trackpoint>
            <Time>2022-07-09T12:34:53.000Z</Time>
            <Position>
              <LatitudeDegrees>42.7846135385334491729736328125</LatitudeDegrees>
              <LongitudeDegrees>-0.1344774104654788970947265625</LongitudeDegrees>
            </Position>
            <AltitudeMeters>2556.800048828125</AltitudeMeters>
            <DistanceMeters>14516.881571084</DistanceMeters>
          </Trackpoint>
          <Trackpoint>
            <Time>2022-07-09T12:34:57.000Z</Time>
            <Position>
              <LatitudeDegrees>42.78459065593779087066650390625</LatitudeDegrees>
              <LongitudeDegrees>-0.13448889367282390594482421875</LongitudeDegrees>
            </Position>
            <AltitudeMeters>2557.39990234375</AltitudeMeters>
            <DistanceMeters>14519.596077002</DistanceMeters>
          </Trackpoint>
          <Trackpoint>
            <Time>2022-07-09T12:34:58.000Z</Time>
            <Position>
              <LatitudeDegrees>42.784582190215587615966796875</LatitudeDegrees>
              <LongitudeDegrees>-0.13448403216898441314697265625</LongitudeDegrees>
            </Position>
            <AltitudeMeters>2557.60009765625</AltitudeMeters>
            <DistanceMeters>14520.619546038</DistanceMeters>
          </Trackpoint>
          <Trackpoint>
            <Time>2022-07-09T12:35:01.000Z</Time>
            <Position>
              <LatitudeDegrees>42.78455327264964580535888671875</LatitudeDegrees>
              <LongitudeDegrees>-0.13448797166347503662109375</LongitudeDegrees>
            </Position>
            <AltitudeMeters>2557.800048828125</AltitudeMeters>
            <DistanceMeters>14523.853248022</DistanceMeters>
          </Trackpoint>
          <Trackpoint>
            <Time>2022-07-09T12:35:06.000Z</Time>
            <Position>
              <LatitudeDegrees>42.78451002202928066253662109375</LatitudeDegrees>
              <LongitudeDegrees>-0.134492330253124237060546875</LongitudeDegrees>
            </Position>
            <AltitudeMeters>2558.39990234375</AltitudeMeters>
            <DistanceMeters>14528.680006482</DistanceMeters>
          </Trackpoint>
          <Trackpoint>
            <Time>2022-07-09T12:35:11.000Z</Time>
            <Position>
              <LatitudeDegrees>42.7844532765448093414306640625</LatitudeDegrees>
              <LongitudeDegrees>-0.134488306939601898193359375</LongitudeDegrees>
            </Position>
            <AltitudeMeters>2558.39990234375</AltitudeMeters>
            <DistanceMeters>14535.004817834</DistanceMeters>
          </Trackpoint>
          <Trackpoint>
            <Time>2022-07-09T12:35:13.000Z</Time>
            <Position>
              <LatitudeDegrees>42.7844296395778656005859375</LatitudeDegrees>
              <LongitudeDegrees>-0.1344827748835086822509765625</LongitudeDegrees>
            </Position>
            <AltitudeMeters>2558.199951171875</AltitudeMeters>
            <DistanceMeters>14537.675727865</DistanceMeters>
          </Trackpoint>
          <Trackpoint>
            <Time>2022-07-09T12:35:14.000Z</Time>
            <Position>
              <LatitudeDegrees>42.78441916219890117645263671875</LatitudeDegrees>
              <LongitudeDegrees>-0.1344824396073818206787109375</LongitudeDegrees>
            </Position>
            <AltitudeMeters>2558.199951171875</AltitudeMeters>
            <DistanceMeters>14538.843435681</DistanceMeters>
          </Trackpoint>
          <Trackpoint>
            <Time>2022-07-09T12:35:15.000Z</Time>
            <Position>
              <LatitudeDegrees>42.78440927155315876007080078125</LatitudeDegrees>
              <LongitudeDegrees>-0.13448134995996952056884765625</LongitudeDegrees>
            </Position>
            <AltitudeMeters>2558.199951171875</AltitudeMeters>
            <DistanceMeters>14539.951628081</DistanceMeters>
          </Trackpoint>
          <Trackpoint>
            <Time>2022-07-09T12:35:18.000Z</Time>
            <Position>
              <LatitudeDegrees>42.78437356464564800262451171875</LatitudeDegrees>
              <LongitudeDegrees>-0.134487636387348175048828125</LongitudeDegrees>
            </Position>
            <AltitudeMeters>2558.199951171875</AltitudeMeters>
            <DistanceMeters>14543.95855657</DistanceMeters>
          </Trackpoint>
          <Trackpoint>
            <Time>2022-07-09T12:35:20.000Z</Time>
            <Position>
              <LatitudeDegrees>42.784348838031291961669921875</LatitudeDegrees>
              <LongitudeDegrees>-0.13448956422507762908935546875</LongitudeDegrees>
            </Position>
            <AltitudeMeters>2558.199951171875</AltitudeMeters>
            <DistanceMeters>14546.715969192</DistanceMeters>
          </Trackpoint>
          <Trackpoint>
            <Time>2022-07-09T12:35:21.000Z</Time>
            <Position>
              <LatitudeDegrees>42.78434020467102527618408203125</LatitudeDegrees>
              <LongitudeDegrees>-0.13449601829051971435546875</LongitudeDegrees>
            </Position>
            <AltitudeMeters>2558.199951171875</AltitudeMeters>
            <DistanceMeters>14547.815982939</DistanceMeters>
          </Trackpoint>
          <Trackpoint>
            <Time>2022-07-09T12:35:23.000Z</Time>
            <Position>
              <LatitudeDegrees>42.78432092629373073577880859375</LatitudeDegrees>
              <LongitudeDegrees>-0.13449626974761486053466796875</LongitudeDegrees>
            </Position>
            <AltitudeMeters>2558.39990234375</AltitudeMeters>
            <DistanceMeters>14549.961988295</DistanceMeters>
          </Trackpoint>
          <Trackpoint>
            <Time>2022-07-09T12:35:24.000Z</Time>
            <Position>
              <LatitudeDegrees>42.78431237675249576568603515625</LatitudeDegrees>
              <LongitudeDegrees>-0.13449325226247310638427734375</LongitudeDegrees>
            </Position>
            <AltitudeMeters>2558.39990234375</AltitudeMeters>
            <DistanceMeters>14550.940348199</DistanceMeters>
          </Trackpoint>
          <Trackpoint>
            <Time>2022-07-09T12:35:25.000Z</Time>
            <Position>
              <LatitudeDegrees>42.78430131264030933380126953125</LatitudeDegrees>
              <LongitudeDegrees>-0.13449006713926792144775390625</LongitudeDegrees>
            </Position>
            <AltitudeMeters>2558.39990234375</AltitudeMeters>
            <DistanceMeters>14552.201020026</DistanceMeters>
          </Trackpoint>
          <Trackpoint>
            <Time>2022-07-09T12:35:28.000Z</Time>
            <Position>
              <LatitudeDegrees>42.78426711447536945343017578125</LatitudeDegrees>
              <LongitudeDegrees>-0.13449040241539478302001953125</LongitudeDegrees>
            </Position>
            <AltitudeMeters>2558.39990234375</AltitudeMeters>
            <DistanceMeters>14556.008023137</DistanceMeters>
          </Trackpoint>
          <Trackpoint>
            <Time>2022-07-09T12:35:31.000Z</Time>
            <Position>
              <LatitudeDegrees>42.7842309884727001190185546875</LatitudeDegrees>
              <LongitudeDegrees>-0.13448688201606273651123046875</LongitudeDegrees>
            </Position>
            <AltitudeMeters>2558.800048828125</AltitudeMeters>
            <DistanceMeters>14560.038545129</DistanceMeters>
          </Trackpoint>
          <Trackpoint>
            <Time>2022-07-09T12:35:35.000Z</Time>
            <Position>
              <LatitudeDegrees>42.7841810323297977447509765625</LatitudeDegrees>
              <LongitudeDegrees>-0.13447799719870090484619140625</LongitudeDegrees>
            </Position>
            <AltitudeMeters>2558.800048828125</AltitudeMeters>
            <DistanceMeters>14565.645121277</DistanceMeters>
          </Trackpoint>
          <Trackpoint>
            <Time>2022-07-09T12:35:37.000Z</Time>
            <Position>
              <LatitudeDegrees>42.78415563516318798065185546875</LatitudeDegrees>
              <LongitudeDegrees>-0.13446777127683162689208984375</LongitudeDegrees>
            </Position>
            <AltitudeMeters>2558.800048828125</AltitudeMeters>
            <DistanceMeters>14568.592481712</DistanceMeters>
          </Trackpoint>
          <Trackpoint>
            <Time>2022-07-09T12:35:38.000Z</Time>
            <Position>
              <LatitudeDegrees>42.78414423577487468719482421875</LatitudeDegrees>
              <LongitudeDegrees>-0.1344658434391021728515625</LongitudeDegrees>
            </Position>
            <AltitudeMeters>2559</AltitudeMeters>
            <DistanceMeters>14569.870935402</DistanceMeters>
          </Trackpoint>
          <Trackpoint>
            <Time>2022-07-09T12:35:42.000Z</Time>
            <Position>
              <LatitudeDegrees>42.7841019071638584136962890625</LatitudeDegrees>
              <LongitudeDegrees>-0.1344606466591358184814453125</LongitudeDegrees>
            </Position>
            <AltitudeMeters>2559.60009765625</AltitudeMeters>
            <DistanceMeters>14574.601319047</DistanceMeters>
          </Trackpoint>
          <Trackpoint>
            <Time>2022-07-09T12:35:43.000Z</Time>
            <Position>
              <LatitudeDegrees>42.78409344144165515899658203125</LatitudeDegrees>
              <LongitudeDegrees>-0.1344566233456134796142578125</LongitudeDegrees>
            </Position>
            <AltitudeMeters>2559.800048828125</AltitudeMeters>
            <DistanceMeters>14575.597967635</DistanceMeters>
          </Trackpoint>
          <Trackpoint>
            <Time>2022-07-09T12:35:45.000Z</Time>
            <Position>
              <LatitudeDegrees>42.7840781025588512420654296875</LatitudeDegrees>
              <LongitudeDegrees>-0.13445234857499599456787109375</LongitudeDegrees>
            </Position>
            <AltitudeMeters>2560.199951171875</AltitudeMeters>
            <DistanceMeters>14577.339836082</DistanceMeters>
          </Trackpoint>
          <Trackpoint>
            <Time>2022-07-09T12:35:50.000Z</Time>
            <Position>
              <LatitudeDegrees>42.7840308286249637603759765625</LatitudeDegrees>
              <LongitudeDegrees>-0.13442896306514739990234375</LongitudeDegrees>
            </Position>
            <AltitudeMeters>2560.60009765625</AltitudeMeters>
            <DistanceMeters>14582.936740153</DistanceMeters>
          </Trackpoint>
          <Trackpoint>
            <Time>2022-07-09T12:35:53.000Z</Time>
            <Position>
              <LatitudeDegrees>42.7840112149715423583984375</LatitudeDegrees>
              <LongitudeDegrees>-0.13443055562674999237060546875</LongitudeDegrees>
            </Position>
            <AltitudeMeters>2561.39990234375</AltitudeMeters>
            <DistanceMeters>14585.124419407</DistanceMeters>
          </Trackpoint>
          <Trackpoint>
            <Time>2022-07-09T12:35:57.000Z</Time>
            <Position>
              <LatitudeDegrees>42.78397374786436557769775390625</LatitudeDegrees>
              <LongitudeDegrees>-0.13443742878735065460205078125</LongitudeDegrees>
            </Position>
            <AltitudeMeters>2562</AltitudeMeters>
            <DistanceMeters>14589.332504471</DistanceMeters>
          </Trackpoint>
          <Trackpoint>
            <Time>2022-07-09T12:35:58.000Z</Time>
            <Position>
              <LatitudeDegrees>42.7839667908847332000732421875</LatitudeDegrees>
              <LongitudeDegrees>-0.13443876989185810089111328125</LongitudeDegrees>
            </Position>
            <AltitudeMeters>2562.39990234375</AltitudeMeters>
            <DistanceMeters>14590.116114832</DistanceMeters>
          </Trackpoint>
          <Trackpoint>
            <Time>2022-07-09T12:36:03.000Z</Time>
            <Position>
              <LatitudeDegrees>42.783925719559192657470703125</LatitudeDegrees>
              <LongitudeDegrees>-0.134448744356632232666015625</LongitudeDegrees>
            </Position>
            <AltitudeMeters>2563.60009765625</AltitudeMeters>
            <DistanceMeters>14594.759801142</DistanceMeters>
          </Trackpoint>
          <Trackpoint>
            <Time>2022-07-09T12:36:05.000Z</Time>
            <Position>
              <LatitudeDegrees>42.78390786610543727874755859375</LatitudeDegrees>
              <LongitudeDegrees>-0.13445788063108921051025390625</LongitudeDegrees>
            </Position>
            <AltitudeMeters>2563.800048828125</AltitudeMeters>
            <DistanceMeters>14596.882537147</DistanceMeters>
          </Trackpoint>
          <Trackpoint>
            <Time>2022-07-09T12:36:09.000Z</Time>
            <Position>
              <LatitudeDegrees>42.78387509286403656005859375</LatitudeDegrees>
              <LongitudeDegrees>-0.134469531476497650146484375</LongitudeDegrees>
            </Position>
            <AltitudeMeters>2564.60009765625</AltitudeMeters>
            <DistanceMeters>14600.65139775</DistanceMeters>
          </Trackpoint>
          <Trackpoint>
            <Time>2022-07-09T12:36:12.000Z</Time>
            <Position>
              <LatitudeDegrees>42.7838403917849063873291015625</LatitudeDegrees>
              <LongitudeDegrees>-0.13448637910187244415283203125</LongitudeDegrees>
            </Position>
            <AltitudeMeters>2565.199951171875</AltitudeMeters>
            <DistanceMeters>14604.751885811</DistanceMeters>
          </Trackpoint>
          <Trackpoint>
            <Time>2022-07-09T12:36:13.000Z</Time>
            <Position>
              <LatitudeDegrees>42.78383217751979827880859375</LatitudeDegrees>
              <LongitudeDegrees>-0.13448587618768215179443359375</LongitudeDegrees>
            </Position>
            <AltitudeMeters>2565.39990234375</AltitudeMeters>
            <DistanceMeters>14605.663350036</DistanceMeters>
          </Trackpoint>
          <Trackpoint>
            <Time>2022-07-09T12:36:15.000Z</Time>
            <Position>
              <LatitudeDegrees>42.78382119722664356231689453125</LatitudeDegrees>
              <LongitudeDegrees>-0.13448956422507762908935546875</LongitudeDegrees>
            </Position>
            <AltitudeMeters>2565.800048828125</AltitudeMeters>
            <DistanceMeters>14606.916838489</DistanceMeters>
          </Trackpoint>
          <Trackpoint>
            <Time>2022-07-09T12:36:20.000Z</Time>
            <Position>
              <LatitudeDegrees>42.78380141593515872955322265625</LatitudeDegrees>
              <LongitudeDegrees>-0.13450012542307376861572265625</LongitudeDegrees>
            </Position>
            <AltitudeMeters>2566.60009765625</AltitudeMeters>
            <DistanceMeters>14609.281075642</DistanceMeters>
          </Trackpoint>
          <Trackpoint>
            <Time>2022-07-09T12:36:21.000Z</Time>
            <Position>
              <LatitudeDegrees>42.7837954647839069366455078125</LatitudeDegrees>
              <LongitudeDegrees>-0.13450347818434238433837890625</LongitudeDegrees>
            </Position>
            <AltitudeMeters>2566.800048828125</AltitudeMeters>
            <DistanceMeters>14609.998511603</DistanceMeters>
          </Trackpoint>
          <Trackpoint>
            <Time>2022-07-09T12:36:27.000Z</Time>
            <Position>
              <LatitudeDegrees>42.78375573456287384033203125</LatitudeDegrees>
              <LongitudeDegrees>-0.13454186730086803436279296875</LongitudeDegrees>
            </Position>
            <AltitudeMeters>2567.60009765625</AltitudeMeters>
            <DistanceMeters>14615.419200558</DistanceMeters>
          </Trackpoint>
          <Trackpoint>
            <Time>2022-07-09T12:36:28.000Z</Time>
            <Position>
              <LatitudeDegrees>42.78374793939292430877685546875</LatitudeDegrees>
              <LongitudeDegrees>-0.1345431245863437652587890625</LongitudeDegrees>
            </Position>
            <AltitudeMeters>2567.800048828125</AltitudeMeters>
            <DistanceMeters>14616.290134781</DistanceMeters>
          </Trackpoint>
          <Trackpoint>
            <Time>2022-07-09T12:36:32.000Z</Time>
            <Position>
              <LatitudeDegrees>42.78370971791446208953857421875</LatitudeDegrees>
              <LongitudeDegrees>-0.13455477543175220489501953125</LongitudeDegrees>
            </Position>
            <AltitudeMeters>2568.800048828125</AltitudeMeters>
            <DistanceMeters>14620.64895123</DistanceMeters>
          </Trackpoint>
          <Trackpoint>
            <Time>2022-07-09T12:36:37.000Z</Time>
            <Position>
              <LatitudeDegrees>42.78368423692882061004638671875</LatitudeDegrees>
              <LongitudeDegrees>-0.13454203493893146514892578125</LongitudeDegrees>
            </Position>
            <AltitudeMeters>2569.60009765625</AltitudeMeters>
            <DistanceMeters>14623.670442135</DistanceMeters>
          </Trackpoint>
          <Trackpoint>
            <Time>2022-07-09T12:36:38.000Z</Time>
            <Position>
              <LatitudeDegrees>42.78368306346237659454345703125</LatitudeDegrees>
              <LongitudeDegrees>-0.13453801162540912628173828125</LongitudeDegrees>
            </Position>
            <AltitudeMeters>2569.800048828125</AltitudeMeters>
            <DistanceMeters>14624.025999542</DistanceMeters>
          </Trackpoint>
          <Trackpoint>
            <Time>2022-07-09T12:36:44.000Z</Time>
            <Position>
              <LatitudeDegrees>42.783649452030658721923828125</LatitudeDegrees>
              <LongitudeDegrees>-0.13451336883008480072021484375</LongitudeDegrees>
            </Position>
            <AltitudeMeters>2570.800048828125</AltitudeMeters>
            <DistanceMeters>14628.274660839</DistanceMeters>
          </Trackpoint>
          <Trackpoint>
            <Time>2022-07-09T12:36:45.000Z</Time>
            <Position>
              <LatitudeDegrees>42.7836445905268192291259765625</LatitudeDegrees>
              <LongitudeDegrees>-0.1345045678317546844482421875</LongitudeDegrees>
            </Position>
            <AltitudeMeters>2571</AltitudeMeters>
            <DistanceMeters>14629.171141069</DistanceMeters>
          </Trackpoint>
          <Trackpoint>
            <Time>2022-07-09T12:36:51.000Z</Time>
            <Position>
              <LatitudeDegrees>42.78363746590912342071533203125</LatitudeDegrees>
              <LongitudeDegrees>-0.13445955701172351837158203125</LongitudeDegrees>
            </Position>
            <AltitudeMeters>2571.60009765625</AltitudeMeters>
            <DistanceMeters>14632.931606427</DistanceMeters>
          </Trackpoint>
          <Trackpoint>
            <Time>2022-07-09T12:36:55.000Z</Time>
            <Position>
              <LatitudeDegrees>42.78360418975353240966796875</LatitudeDegrees>
              <LongitudeDegrees>-0.134415216743946075439453125</LongitudeDegrees>
            </Position>
            <AltitudeMeters>2572</AltitudeMeters>
            <DistanceMeters>14638.112087794</DistanceMeters>
          </Trackpoint>
          <Trackpoint>
            <Time>2022-07-09T12:36:58.000Z</Time>
            <Position>
              <LatitudeDegrees>42.783587761223316192626953125</LatitudeDegrees>
              <LongitudeDegrees>-0.13437439687550067901611328125</LongitudeDegrees>
            </Position>
            <AltitudeMeters>2572.39990234375</AltitudeMeters>
            <DistanceMeters>14641.915531295</DistanceMeters>
          </Trackpoint>
          <Trackpoint>
            <Time>2022-07-09T12:37:02.000Z</Time>
            <Position>
              <LatitudeDegrees>42.78357879258692264556884765625</LatitudeDegrees>
              <LongitudeDegrees>-0.13431991450488567352294921875</LongitudeDegrees>
            </Position>
            <AltitudeMeters>2572.800048828125</AltitudeMeters>
            <DistanceMeters>14646.476813585</DistanceMeters>
          </Trackpoint>
          <Trackpoint>
            <Time>2022-07-09T12:37:05.000Z</Time>
            <Position>
              <LatitudeDegrees>42.78357074595987796783447265625</LatitudeDegrees>
              <LongitudeDegrees>-0.13428814709186553955078125</LongitudeDegrees>
            </Position>
            <AltitudeMeters>2572.800048828125</AltitudeMeters>
            <DistanceMeters>14649.221095595</DistanceMeters>
          </Trackpoint>
          <Trackpoint>
            <Time>2022-07-09T12:37:08.000Z</Time>
            <Position>
              <LatitudeDegrees>42.78355733491480350494384765625</LatitudeDegrees>
              <LongitudeDegrees>-0.13426442630589008331298828125</LongitudeDegrees>
            </Position>
            <AltitudeMeters>2572.800048828125</AltitudeMeters>
            <DistanceMeters>14651.666072202</DistanceMeters>
          </Trackpoint>
          <Trackpoint>
            <Time>2022-07-09T12:37:09.000Z</Time>
            <Position>
              <LatitudeDegrees>42.7835497073829174041748046875</LatitudeDegrees>
              <LongitudeDegrees>-0.134257972240447998046875</LongitudeDegrees>
            </Position>
            <AltitudeMeters>2573</AltitudeMeters>
            <DistanceMeters>14652.66272079</DistanceMeters>
          </Trackpoint>
          <Trackpoint>
            <Time>2022-07-09T12:37:10.000Z</Time>
            <Position>
              <LatitudeDegrees>42.78354115784168243408203125</LatitudeDegrees>
              <LongitudeDegrees>-0.13425772078335285186767578125</LongitudeDegrees>
            </Position>
            <AltitudeMeters>2573.39990234375</AltitudeMeters>
            <DistanceMeters>14653.612987934</DistanceMeters>
          </Trackpoint>
          <Trackpoint>
            <Time>2022-07-09T12:37:14.000Z</Time>
            <Position>
              <LatitudeDegrees>42.7835054509341716766357421875</LatitudeDegrees>
              <LongitudeDegrees>-0.13425034470856189727783203125</LongitudeDegrees>
            </Position>
            <AltitudeMeters>2573.60009765625</AltitudeMeters>
            <DistanceMeters>14657.631168702</DistanceMeters>
          </Trackpoint>
          <Trackpoint>
            <Time>2022-07-09T12:37:15.000Z</Time>
            <Position>
              <LatitudeDegrees>42.783497236669063568115234375</LatitudeDegrees>
              <LongitudeDegrees>-0.13425218872725963592529296875</LongitudeDegrees>
            </Position>
            <AltitudeMeters>2573.800048828125</AltitudeMeters>
            <DistanceMeters>14658.56223655</DistanceMeters>
          </Trackpoint>
          <Trackpoint>
            <Time>2022-07-09T12:37:16.000Z</Time>
            <Position>
              <LatitudeDegrees>42.78348910622298717498779296875</LatitudeDegrees>
              <LongitudeDegrees>-0.1342531107366085052490234375</LongitudeDegrees>
            </Position>
            <AltitudeMeters>2573.800048828125</AltitudeMeters>
            <DistanceMeters>14659.473700775</DistanceMeters>
          </Trackpoint>
          <Trackpoint>
            <Time>2022-07-09T12:37:22.000Z</Time>
            <Position>
              <LatitudeDegrees>42.78342783451080322265625</LatitudeDegrees>
              <LongitudeDegrees>-0.134247243404388427734375</LongitudeDegrees>
            </Position>
            <AltitudeMeters>2573.39990234375</AltitudeMeters>
            <DistanceMeters>14666.310342909</DistanceMeters>
          </Trackpoint>
          <Trackpoint>
            <Time>2022-07-09T12:37:24.000Z</Time>
            <Position>
              <LatitudeDegrees>42.78339958749711513519287109375</LatitudeDegrees>
              <LongitudeDegrees>-0.1342514343559741973876953125</LongitudeDegrees>
            </Position>
            <AltitudeMeters>2573.39990234375</AltitudeMeters>
            <DistanceMeters>14669.473462366</DistanceMeters>
          </Trackpoint>
          <Trackpoint>
            <Time>2022-07-09T12:37:27.000Z</Time>
            <Position>
              <LatitudeDegrees>42.78335952199995517730712890625</LatitudeDegrees>
              <LongitudeDegrees>-0.13427901081740856170654296875</LongitudeDegrees>
            </Position>
            <AltitudeMeters>2573.60009765625</AltitudeMeters>
            <DistanceMeters>14674.469373824</DistanceMeters>
          </Trackpoint>
          <Trackpoint>
            <Time>2022-07-09T12:37:28.000Z</Time>
            <Position>
              <LatitudeDegrees>42.78334912844002246856689453125</LatitudeDegrees>
              <LongitudeDegrees>-0.1342899911105632781982421875</LongitudeDegrees>
            </Position>
            <AltitudeMeters>2573.60009765625</AltitudeMeters>
            <DistanceMeters>14675.932291497</DistanceMeters>
          </Trackpoint>
          <Trackpoint>
            <Time>2022-07-09T12:37:29.000Z</Time>
            <Position>
              <LatitudeDegrees>42.7833384834229946136474609375</LatitudeDegrees>
              <LongitudeDegrees>-0.1342970319092273712158203125</LongitudeDegrees>
            </Position>
            <AltitudeMeters>2573.800048828125</AltitudeMeters>
            <DistanceMeters>14677.249020276</DistanceMeters>
          </Trackpoint>
          <Trackpoint>
            <Time>2022-07-09T12:37:31.000Z</Time>
            <Position>
              <LatitudeDegrees>42.78332054615020751953125</LatitudeDegrees>
              <LongitudeDegrees>-0.13430532999336719512939453125</LongitudeDegrees>
            </Position>
            <AltitudeMeters>2574</AltitudeMeters>
            <DistanceMeters>14679.356814765</DistanceMeters>
          </Trackpoint>
          <Trackpoint>
            <Time>2022-07-09T12:37:33.000Z</Time>
            <Position>
              <LatitudeDegrees>42.7833056263625621795654296875</LatitudeDegrees>
              <LongitudeDegrees>-0.1343218423426151275634765625</LongitudeDegrees>
            </Position>
            <AltitudeMeters>2574.199951171875</AltitudeMeters>
            <DistanceMeters>14681.494387847</DistanceMeters>
          </Trackpoint>
          <Trackpoint>
            <Time>2022-07-09T12:37:36.000Z</Time>
            <Position>
              <LatitudeDegrees>42.7833009324967861175537109375</LatitudeDegrees>
              <LongitudeDegrees>-0.1343560405075550079345703125</LongitudeDegrees>
            </Position>
            <AltitudeMeters>2574.199951171875</AltitudeMeters>
            <DistanceMeters>14684.335670716</DistanceMeters>
          </Trackpoint>
          <Trackpoint>
            <Time>2022-07-09T12:37:42.000Z</Time>
            <Position>
              <LatitudeDegrees>42.78326313011348247528076171875</LatitudeDegrees>
              <LongitudeDegrees>-0.134393759071826934814453125</LongitudeDegrees>
            </Position>
            <AltitudeMeters>2575.199951171875</AltitudeMeters>
            <DistanceMeters>14689.550897485</DistanceMeters>
          </Trackpoint>
          <Trackpoint>
            <Time>2022-07-09T12:37:43.000Z</Time>
            <Position>
              <LatitudeDegrees>42.783258855342864990234375</LatitudeDegrees>
              <LongitudeDegrees>-0.1343961060047149658203125</LongitudeDegrees>
            </Position>
            <AltitudeMeters>2575.39990234375</AltitudeMeters>
            <DistanceMeters>14690.062632003</DistanceMeters>
          </Trackpoint>
          <Trackpoint>
            <Time>2022-07-09T12:37:48.000Z</Time>
            <Position>
              <LatitudeDegrees>42.783218286931514739990234375</LatitudeDegrees>
              <LongitudeDegrees>-0.13442502357065677642822265625</LongitudeDegrees>
            </Position>
            <AltitudeMeters>2576.199951171875</AltitudeMeters>
            <DistanceMeters>14695.158757968</DistanceMeters>
          </Trackpoint>
          <Trackpoint>
            <Time>2022-07-09T12:37:50.000Z</Time>
            <Position>
              <LatitudeDegrees>42.78320009820163249969482421875</LatitudeDegrees>
              <LongitudeDegrees>-0.13444765470921993255615234375</LongitudeDegrees>
            </Position>
            <AltitudeMeters>2576.39990234375</AltitudeMeters>
            <DistanceMeters>14697.901394232</DistanceMeters>
          </Trackpoint>
          <Trackpoint>
            <Time>2022-07-09T12:37:54.000Z</Time>
            <Position>
              <LatitudeDegrees>42.7831902913749217987060546875</LatitudeDegrees>
              <LongitudeDegrees>-0.134477578103542327880859375</LongitudeDegrees>
            </Position>
            <AltitudeMeters>2576.800048828125</AltitudeMeters>
            <DistanceMeters>14700.579057522</DistanceMeters>
          </Trackpoint>
          <Trackpoint>
            <Time>2022-07-09T12:37:58.000Z</Time>
            <Position>
              <LatitudeDegrees>42.78316506184637546539306640625</LatitudeDegrees>
              <LongitudeDegrees>-0.13447380624711513519287109375</LongitudeDegrees>
            </Position>
            <AltitudeMeters>2577.60009765625</AltitudeMeters>
            <DistanceMeters>14703.40440486</DistanceMeters>
          </Trackpoint>
          <Trackpoint>
            <Time>2022-07-09T12:38:01.000Z</Time>
            <Position>
              <LatitudeDegrees>42.783155925571918487548828125</LatitudeDegrees>
              <LongitudeDegrees>-0.134453438222408294677734375</LongitudeDegrees>
            </Position>
            <AltitudeMeters>2578</AltitudeMeters>
            <DistanceMeters>14705.351872987</DistanceMeters>
          </Trackpoint>
          <Trackpoint>
            <Time>2022-07-09T12:38:07.000Z</Time>
            <Position>
              <LatitudeDegrees>42.783121056854724884033203125</LatitudeDegrees>
              <LongitudeDegrees>-0.1344023086130619049072265625</LongitudeDegrees>
            </Position>
            <AltitudeMeters>2578.39990234375</AltitudeMeters>
            <DistanceMeters>14711.053475849</DistanceMeters>
          </Trackpoint>
          <Trackpoint>
            <Time>2022-07-09T12:38:08.000Z</Time>
            <Position>
              <LatitudeDegrees>42.783108986914157867431640625</LatitudeDegrees>
              <LongitudeDegrees>-0.13440473936498165130615234375</LongitudeDegrees>
            </Position>
            <AltitudeMeters>2578.60009765625</AltitudeMeters>
            <DistanceMeters>14712.410728808</DistanceMeters>
          </Trackpoint>
          <Trackpoint>
            <Time>2022-07-09T12:38:09.000Z</Time>
            <Position>
              <LatitudeDegrees>42.78309616260230541229248046875</LatitudeDegrees>
              <LongitudeDegrees>-0.13440239243209362030029296875</LongitudeDegrees>
            </Position>
            <AltitudeMeters>2578.60009765625</AltitudeMeters>
            <DistanceMeters>14713.851880286</DistanceMeters>
          </Trackpoint>
          <Trackpoint>
            <Time>2022-07-09T12:38:11.000Z</Time>
            <Position>
              <LatitudeDegrees>42.783079482614994049072265625</LatitudeDegrees>
              <LongitudeDegrees>-0.1344013027846813201904296875</LongitudeDegrees>
            </Position>
            <AltitudeMeters>2578.800048828125</AltitudeMeters>
            <DistanceMeters>14715.709160341</DistanceMeters>
          </Trackpoint>
          <Trackpoint>
            <Time>2022-07-09T12:38:14.000Z</Time>
            <Position>
              <LatitudeDegrees>42.7830643951892852783203125</LatitudeDegrees>
              <LongitudeDegrees>-0.13440557755529880523681640625</LongitudeDegrees>
            </Position>
            <AltitudeMeters>2579.39990234375</AltitudeMeters>
            <DistanceMeters>14717.422278797</DistanceMeters>
          </Trackpoint>
          <Trackpoint>
            <Time>2022-07-09T12:38:15.000Z</Time>
            <Position>
              <LatitudeDegrees>42.78305542655289173126220703125</LatitudeDegrees>
              <LongitudeDegrees>-0.1344116963446140289306640625</LongitudeDegrees>
            </Position>
            <AltitudeMeters>2579.60009765625</AltitudeMeters>
            <DistanceMeters>14718.534537972</DistanceMeters>
          </Trackpoint>
          <Trackpoint>
            <Time>2022-07-09T12:38:16.000Z</Time>
            <Position>
              <LatitudeDegrees>42.783045284450054168701171875</LatitudeDegrees>
              <LongitudeDegrees>-0.13441747985780239105224609375</LongitudeDegrees>
            </Position>
            <AltitudeMeters>2579.800048828125</AltitudeMeters>
            <DistanceMeters>14719.758871541</DistanceMeters>
          </Trackpoint>
          <Trackpoint>
            <Time>2022-07-09T12:38:17.000Z</Time>
            <Position>
              <LatitudeDegrees>42.78303631581366062164306640625</LatitudeDegrees>
              <LongitudeDegrees>-0.13441613875329494476318359375</LongitudeDegrees>
            </Position>
            <AltitudeMeters>2579.800048828125</AltitudeMeters>
            <DistanceMeters>14720.764539758</DistanceMeters>
          </Trackpoint>
          <Trackpoint>
            <Time>2022-07-09T12:38:21.000Z</Time>
            <Position>
              <LatitudeDegrees>42.782999686896800994873046875</LatitudeDegrees>
              <LongitudeDegrees>-0.13439803384244441986083984375</LongitudeDegrees>
            </Position>
            <AltitudeMeters>2580</AltitudeMeters>
            <DistanceMeters>14725.101549008</DistanceMeters>
          </Trackpoint>
          <Trackpoint>
            <Time>2022-07-09T12:38:26.000Z</Time>
            <Position>
              <LatitudeDegrees>42.782952748239040374755859375</LatitudeDegrees>
              <LongitudeDegrees>-0.13435654342174530029296875</LongitudeDegrees>
            </Position>
            <AltitudeMeters>2580</AltitudeMeters>
            <DistanceMeters>14731.328518435</DistanceMeters>
          </Trackpoint>
          <Trackpoint>
            <Time>2022-07-09T12:38:28.000Z</Time>
            <Position>
              <LatitudeDegrees>42.782935313880443572998046875</LatitudeDegrees>
              <LongitudeDegrees>-0.13435260392725467681884765625</LongitudeDegrees>
            </Position>
            <AltitudeMeters>2580.39990234375</AltitudeMeters>
            <DistanceMeters>14733.294446389</DistanceMeters>
          </Trackpoint>
          <Trackpoint>
            <Time>2022-07-09T12:38:33.000Z</Time>
            <Position>
              <LatitudeDegrees>42.7828808315098285675048828125</LatitudeDegrees>
              <LongitudeDegrees>-0.1343225128948688507080078125</LongitudeDegrees>
            </Position>
            <AltitudeMeters>2580.39990234375</AltitudeMeters>
            <DistanceMeters>14739.838193213</DistanceMeters>
          </Trackpoint>
          <Trackpoint>
            <Time>2022-07-09T12:38:36.000Z</Time>
            <Position>
              <LatitudeDegrees>42.78284001164138317108154296875</LatitudeDegrees>
              <LongitudeDegrees>-0.13432108797132968902587890625</LongitudeDegrees>
            </Position>
            <AltitudeMeters>2580.199951171875</AltitudeMeters>
            <DistanceMeters>14744.383610125</DistanceMeters>
          </Trackpoint>
          <Trackpoint>
            <Time>2022-07-09T12:38:39.000Z</Time>
            <Position>
              <LatitudeDegrees>42.78280430473387241363525390625</LatitudeDegrees>
              <LongitudeDegrees>-0.134317986667156219482421875</LongitudeDegrees>
            </Position>
            <AltitudeMeters>2580.199951171875</AltitudeMeters>
            <DistanceMeters>14748.365671681</DistanceMeters>
          </Trackpoint>
          <Trackpoint>
            <Time>2022-07-09T12:38:40.000Z</Time>
            <Position>
              <LatitudeDegrees>42.782794497907161712646484375</LatitudeDegrees>
              <LongitudeDegrees>-0.13432175852358341217041015625</LongitudeDegrees>
            </Position>
            <AltitudeMeters>2580.199951171875</AltitudeMeters>
            <DistanceMeters>14749.498045671</DistanceMeters>
          </Trackpoint>
          <Trackpoint>
            <Time>2022-07-09T12:38:43.000Z</Time>
            <Position>
              <LatitudeDegrees>42.78276725672185420989990234375</LatitudeDegrees>
              <LongitudeDegrees>-0.13434170745313167572021484375</LongitudeDegrees>
            </Position>
            <AltitudeMeters>2580.60009765625</AltitudeMeters>
            <DistanceMeters>14752.938747666</DistanceMeters>
          </Trackpoint>
          <Trackpoint>
            <Time>2022-07-09T12:38:44.000Z</Time>
            <Position>
              <LatitudeDegrees>42.78275786899030208587646484375</LatitudeDegrees>
              <LongitudeDegrees>-0.13433902524411678314208984375</LongitudeDegrees>
            </Position>
            <AltitudeMeters>2580.800048828125</AltitudeMeters>
            <DistanceMeters>14754.00541989</DistanceMeters>
          </Trackpoint>
          <Trackpoint>
            <Time>2022-07-09T12:38:48.000Z</Time>
            <Position>
              <LatitudeDegrees>42.78272551484405994415283203125</LatitudeDegrees>
              <LongitudeDegrees>-0.13434673659503459930419921875</LongitudeDegrees>
            </Position>
            <AltitudeMeters>2581</AltitudeMeters>
            <DistanceMeters>14757.661170584</DistanceMeters>
          </Trackpoint>
          <Trackpoint>
            <Time>2022-07-09T12:38:49.000Z</Time>
            <Position>
              <LatitudeDegrees>42.7827155403792858123779296875</LatitudeDegrees>
              <LongitudeDegrees>-0.13434807769954204559326171875</LongitudeDegrees>
            </Position>
            <AltitudeMeters>2581</AltitudeMeters>
            <DistanceMeters>14758.777481718</DistanceMeters>
          </Trackpoint>
          <Trackpoint>
            <Time>2022-07-09T12:38:55.000Z</Time>
            <Position>
              <LatitudeDegrees>42.78265175409615039825439453125</LatitudeDegrees>
              <LongitudeDegrees>-0.13436115346848964691162109375</LongitudeDegrees>
            </Position>
            <AltitudeMeters>2581.800048828125</AltitudeMeters>
            <DistanceMeters>14765.957503057</DistanceMeters>
          </Trackpoint>
          <Trackpoint>
            <Time>2022-07-09T12:38:56.000Z</Time>
            <Position>
              <LatitudeDegrees>42.782640941441059112548828125</LatitudeDegrees>
              <LongitudeDegrees>-0.1343667693436145782470703125</LongitudeDegrees>
            </Position>
            <AltitudeMeters>2582</AltitudeMeters>
            <DistanceMeters>14767.246508125</DistanceMeters>
          </Trackpoint>
          <Trackpoint>
            <Time>2022-07-09T12:38:59.000Z</Time>
            <Position>
              <LatitudeDegrees>42.78262384235858917236328125</LatitudeDegrees>
              <LongitudeDegrees>-0.13437439687550067901611328125</LongitudeDegrees>
            </Position>
            <AltitudeMeters>2582.60009765625</AltitudeMeters>
            <DistanceMeters>14769.25109886</DistanceMeters>
          </Trackpoint>
          <Trackpoint>
            <Time>2022-07-09T12:39:03.000Z</Time>
            <Position>
              <LatitudeDegrees>42.78261252678930759429931640625</LatitudeDegrees>
              <LongitudeDegrees>-0.13439803384244441986083984375</LongitudeDegrees>
            </Position>
            <AltitudeMeters>2583</AltitudeMeters>
            <DistanceMeters>14771.559289733</DistanceMeters>
          </Trackpoint>
          <Trackpoint>
            <Time>2022-07-09T12:39:09.000Z</Time>
            <Position>
              <LatitudeDegrees>42.78257145546376705169677734375</LatitudeDegrees>
              <LongitudeDegrees>-0.13442787341773509979248046875</LongitudeDegrees>
            </Position>
            <AltitudeMeters>2584.199951171875</AltitudeMeters>
            <DistanceMeters>14776.739771099</DistanceMeters>
          </Trackpoint>
          <Trackpoint>
            <Time>2022-07-09T12:39:10.000Z</Time>
            <Position>
              <LatitudeDegrees>42.78256240300834178924560546875</LatitudeDegrees>
              <LongitudeDegrees>-0.13442887924611568450927734375</LongitudeDegrees>
            </Position>
            <AltitudeMeters>2584.60009765625</AltitudeMeters>
            <DistanceMeters>14777.754378765</DistanceMeters>
          </Trackpoint>
          <Trackpoint>
            <Time>2022-07-09T12:39:11.000Z</Time>
            <Position>
              <LatitudeDegrees>42.78255804441869258880615234375</LatitudeDegrees>
              <LongitudeDegrees>-0.13442871160805225372314453125</LongitudeDegrees>
            </Position>
            <AltitudeMeters>2585</AltitudeMeters>
            <DistanceMeters>14778.248152057</DistanceMeters>
          </Trackpoint>
          <Trackpoint>
            <Time>2022-07-09T12:39:13.000Z</Time>
            <Position>
              <LatitudeDegrees>42.782547734677791595458984375</LatitudeDegrees>
              <LongitudeDegrees>-0.1344336569309234619140625</LongitudeDegrees>
            </Position>
            <AltitudeMeters>2585.39990234375</AltitudeMeters>
            <DistanceMeters>14779.465087773</DistanceMeters>
          </Trackpoint>
          <Trackpoint>
            <Time>2022-07-09T12:39:19.000Z</Time>
            <Position>
              <LatitudeDegrees>42.7824922464787960052490234375</LatitudeDegrees>
              <LongitudeDegrees>-0.1344309747219085693359375</LongitudeDegrees>
            </Position>
            <AltitudeMeters>2586.39990234375</AltitudeMeters>
            <DistanceMeters>14785.644016742</DistanceMeters>
          </Trackpoint>
          <Trackpoint>
            <Time>2022-07-09T12:39:23.000Z</Time>
            <Position>
              <LatitudeDegrees>42.78246182017028331756591796875</LatitudeDegrees>
              <LongitudeDegrees>-0.1344256103038787841796875</LongitudeDegrees>
            </Position>
            <AltitudeMeters>2587</AltitudeMeters>
            <DistanceMeters>14789.05705038</DistanceMeters>
          </Trackpoint>
          <Trackpoint>
            <Time>2022-07-09T12:39:25.000Z</Time>
            <Position>
              <LatitudeDegrees>42.78244815766811370849609375</LatitudeDegrees>
              <LongitudeDegrees>-0.13441597111523151397705078125</LongitudeDegrees>
            </Position>
            <AltitudeMeters>2587.39990234375</AltitudeMeters>
            <DistanceMeters>14790.767531238</DistanceMeters>
          </Trackpoint>
          <Trackpoint>
            <Time>2022-07-09T12:39:26.000Z</Time>
            <Position>
              <LatitudeDegrees>42.78244254179298877716064453125</LatitudeDegrees>
              <LongitudeDegrees>-0.1344103552401065826416015625</LongitudeDegrees>
            </Position>
            <AltitudeMeters>2587.800048828125</AltitudeMeters>
            <DistanceMeters>14791.545358418</DistanceMeters>
          </Trackpoint>
          <Trackpoint>
            <Time>2022-07-09T12:39:27.000Z</Time>
            <Position>
              <LatitudeDegrees>42.7824355848133563995361328125</LatitudeDegrees>
              <LongitudeDegrees>-0.1344059966504573822021484375</LongitudeDegrees>
            </Position>
            <AltitudeMeters>2587.800048828125</AltitudeMeters>
            <DistanceMeters>14792.405861915</DistanceMeters>
          </Trackpoint>
          <Trackpoint>
            <Time>2022-07-09T12:39:32.000Z</Time>
            <Position>
              <LatitudeDegrees>42.78238604776561260223388671875</LatitudeDegrees>
              <LongitudeDegrees>-0.13440708629786968231201171875</LongitudeDegrees>
            </Position>
            <AltitudeMeters>2588.60009765625</AltitudeMeters>
            <DistanceMeters>14797.920687158</DistanceMeters>
          </Trackpoint>
          <Trackpoint>
            <Time>2022-07-09T12:39:33.000Z</Time>
            <Position>
              <LatitudeDegrees>42.7823755703866481781005859375</LatitudeDegrees>
              <LongitudeDegrees>-0.13440708629786968231201171875</LongitudeDegrees>
            </Position>
            <AltitudeMeters>2588.60009765625</AltitudeMeters>
            <DistanceMeters>14799.092255176</DistanceMeters>
          </Trackpoint>
          <Trackpoint>
            <Time>2022-07-09T12:39:34.000Z</Time>
            <Position>
              <LatitudeDegrees>42.782364003360271453857421875</LatitudeDegrees>
              <LongitudeDegrees>-0.13441362418234348297119140625</LongitudeDegrees>
            </Position>
            <AltitudeMeters>2588.60009765625</AltitudeMeters>
            <DistanceMeters>14800.488856949</DistanceMeters>
          </Trackpoint>
          <Trackpoint>
            <Time>2022-07-09T12:39:37.000Z</Time>
            <Position>
              <LatitudeDegrees>42.78233148157596588134765625</LatitudeDegrees>
              <LongitudeDegrees>-0.1344261132180690765380859375</LongitudeDegrees>
            </Position>
            <AltitudeMeters>2589</AltitudeMeters>
            <DistanceMeters>14804.249322307</DistanceMeters>
          </Trackpoint>
          <Trackpoint>
            <Time>2022-07-09T12:39:40.000Z</Time>
            <Position>
              <LatitudeDegrees>42.782305665314197540283203125</LatitudeDegrees>
              <LongitudeDegrees>-0.134431980550289154052734375</LongitudeDegrees>
            </Position>
            <AltitudeMeters>2589.60009765625</AltitudeMeters>
            <DistanceMeters>14807.161236073</DistanceMeters>
          </Trackpoint>
          <Trackpoint>
            <Time>2022-07-09T12:39:41.000Z</Time>
            <Position>
              <LatitudeDegrees>42.7822971157729625701904296875</LatitudeDegrees>
              <LongitudeDegrees>-0.13443508185446262359619140625</LongitudeDegrees>
            </Position>
            <AltitudeMeters>2589.60009765625</AltitudeMeters>
            <DistanceMeters>14808.148782657</DistanceMeters>
          </Trackpoint>
          <Trackpoint>
            <Time>2022-07-09T12:39:46.000Z</Time>
            <Position>
              <LatitudeDegrees>42.7822592295706272125244140625</LatitudeDegrees>
              <LongitudeDegrees>-0.13444731943309307098388671875</LongitudeDegrees>
            </Position>
            <AltitudeMeters>2590.39990234375</AltitudeMeters>
            <DistanceMeters>14812.481625711</DistanceMeters>
          </Trackpoint>
          <Trackpoint>
            <Time>2022-07-09T12:39:47.000Z</Time>
            <Position>
              <LatitudeDegrees>42.782249338924884796142578125</LatitudeDegrees>
              <LongitudeDegrees>-0.13445184566080570220947265625</LongitudeDegrees>
            </Position>
            <AltitudeMeters>2590.60009765625</AltitudeMeters>
            <DistanceMeters>14813.645460521</DistanceMeters>
          </Trackpoint>
          <Trackpoint>
            <Time>2022-07-09T12:39:48.000Z</Time>
            <Position>
              <LatitudeDegrees>42.78224037028849124908447265625</LatitudeDegrees>
              <LongitudeDegrees>-0.134456120431423187255859375</LongitudeDegrees>
            </Position>
            <AltitudeMeters>2590.800048828125</AltitudeMeters>
            <DistanceMeters>14814.703633229</DistanceMeters>
          </Trackpoint>
          <Trackpoint>
            <Time>2022-07-09T12:39:49.000Z</Time>
            <Position>
              <LatitudeDegrees>42.7822310663759708404541015625</LatitudeDegrees>
              <LongitudeDegrees>-0.13445670716464519500732421875</LongitudeDegrees>
            </Position>
            <AltitudeMeters>2591</AltitudeMeters>
            <DistanceMeters>14815.74459873</DistanceMeters>
          </Trackpoint>
          <Trackpoint>
            <Time>2022-07-09T12:39:52.000Z</Time>
            <Position>
              <LatitudeDegrees>42.78220550157129764556884765625</LatitudeDegrees>
              <LongitudeDegrees>-0.13444983400404453277587890625</LongitudeDegrees>
            </Position>
            <AltitudeMeters>2591.800048828125</AltitudeMeters>
            <DistanceMeters>14818.645638413</DistanceMeters>
          </Trackpoint>
          <Trackpoint>
            <Time>2022-07-09T12:39:53.000Z</Time>
            <Position>
              <LatitudeDegrees>42.78219779022037982940673828125</LatitudeDegrees>
              <LongitudeDegrees>-0.13444698415696620941162109375</LongitudeDegrees>
            </Position>
            <AltitudeMeters>2592</AltitudeMeters>
            <DistanceMeters>14819.531988598</DistanceMeters>
          </Trackpoint>
          <Trackpoint>
            <Time>2022-07-09T12:39:56.000Z</Time>
            <Position>
              <LatitudeDegrees>42.78217314742505550384521484375</LatitudeDegrees>
              <LongitudeDegrees>-0.1344368420541286468505859375</LongitudeDegrees>
            </Position>
            <AltitudeMeters>2592.60009765625</AltitudeMeters>
            <DistanceMeters>14822.398584064</DistanceMeters>
          </Trackpoint>
          <Trackpoint>
            <Time>2022-07-09T12:39:59.000Z</Time>
            <Position>
              <LatitudeDegrees>42.78216124512255191802978515625</LatitudeDegrees>
              <LongitudeDegrees>-0.13442669995129108428955078125</LongitudeDegrees>
            </Position>
            <AltitudeMeters>2592.800048828125</AltitudeMeters>
            <DistanceMeters>14823.960032315</DistanceMeters>
          </Trackpoint>
          <Trackpoint>
            <Time>2022-07-09T12:40:04.000Z</Time>
            <Position>
              <LatitudeDegrees>42.78212453238666057586669921875</LatitudeDegrees>
              <LongitudeDegrees>-0.1344442181289196014404296875</LongitudeDegrees>
            </Position>
            <AltitudeMeters>2593.60009765625</AltitudeMeters>
            <DistanceMeters>14828.28974809</DistanceMeters>
          </Trackpoint>
          <Trackpoint>
            <Time>2022-07-09T12:40:05.000Z</Time>
            <Position>
              <LatitudeDegrees>42.78211581520736217498779296875</LatitudeDegrees>
              <LongitudeDegrees>-0.13444514013826847076416015625</LongitudeDegrees>
            </Position>
            <AltitudeMeters>2593.800048828125</AltitudeMeters>
            <DistanceMeters>14829.258834232</DistanceMeters>
          </Trackpoint>
          <Trackpoint>
            <Time>2022-07-09T12:40:07.000Z</Time>
            <Position>
              <LatitudeDegrees>42.782105505466461181640625</LatitudeDegrees>
              <LongitudeDegrees>-0.134439356625080108642578125</LongitudeDegrees>
            </Position>
            <AltitudeMeters>2594</AltitudeMeters>
            <DistanceMeters>14830.497831002</DistanceMeters>
          </Trackpoint>
          <Trackpoint>
            <Time>2022-07-09T12:40:12.000Z</Time>
            <Position>
              <LatitudeDegrees>42.7820738218724727630615234375</LatitudeDegrees>
              <LongitudeDegrees>-0.1344113610684871673583984375</LongitudeDegrees>
            </Position>
            <AltitudeMeters>2594.60009765625</AltitudeMeters>
            <DistanceMeters>14834.700547924</DistanceMeters>
          </Trackpoint>
          <Trackpoint>
            <Time>2022-07-09T12:40:13.000Z</Time>
            <Position>
              <LatitudeDegrees>42.78206569142639636993408203125</LatitudeDegrees>
              <LongitudeDegrees>-0.13441412709653377532958984375</LongitudeDegrees>
            </Position>
            <AltitudeMeters>2595</AltitudeMeters>
            <DistanceMeters>14835.631615772</DistanceMeters>
          </Trackpoint>
          <Trackpoint>
            <Time>2022-07-09T12:40:17.000Z</Time>
            <Position>
              <LatitudeDegrees>42.78202948160469532012939453125</LatitudeDegrees>
              <LongitudeDegrees>-0.134445726871490478515625</LongitudeDegrees>
            </Position>
            <AltitudeMeters>2595.60009765625</AltitudeMeters>
            <DistanceMeters>14840.417038832</DistanceMeters>
          </Trackpoint>
          <Trackpoint>
            <Time>2022-07-09T12:40:18.000Z</Time>
            <Position>
              <LatitudeDegrees>42.7820195071399211883544921875</LatitudeDegrees>
              <LongitudeDegrees>-0.13444882817566394805908203125</LongitudeDegrees>
            </Position>
            <AltitudeMeters>2595.60009765625</AltitudeMeters>
            <DistanceMeters>14841.55339306</DistanceMeters>
          </Trackpoint>
          <Trackpoint>
            <Time>2022-07-09T12:40:19.000Z</Time>
            <Position>
              <LatitudeDegrees>42.782009951770305633544921875</LatitudeDegrees>
              <LongitudeDegrees>-0.13445000164210796356201171875</LongitudeDegrees>
            </Position>
            <AltitudeMeters>2595.60009765625</AltitudeMeters>
            <DistanceMeters>14842.620065283</DistanceMeters>
          </Trackpoint>
          <Trackpoint>
            <Time>2022-07-09T12:40:22.000Z</Time>
            <Position>
              <LatitudeDegrees>42.7819879911839962005615234375</LatitudeDegrees>
              <LongitudeDegrees>-0.13444329611957073211669921875</LongitudeDegrees>
            </Position>
            <AltitudeMeters>2596</AltitudeMeters>
            <DistanceMeters>14845.127042189</DistanceMeters>
          </Trackpoint>
          <Trackpoint>
            <Time>2022-07-09T12:40:26.000Z</Time>
            <Position>
              <LatitudeDegrees>42.7819846384227275848388671875</LatitudeDegrees>
              <LongitudeDegrees>-0.1344220899045467376708984375</LongitudeDegrees>
            </Position>
            <AltitudeMeters>2596.800048828125</AltitudeMeters>
            <DistanceMeters>14846.899742559</DistanceMeters>
          </Trackpoint>
          <Trackpoint>
            <Time>2022-07-09T12:40:28.000Z</Time>
            <Position>
              <LatitudeDegrees>42.7819839678704738616943359375</LatitudeDegrees>
              <LongitudeDegrees>-0.1344096846878528594970703125</LongitudeDegrees>
            </Position>
            <AltitudeMeters>2597</AltitudeMeters>
            <DistanceMeters>14847.914350224</DistanceMeters>
          </Trackpoint>
          <Trackpoint>
            <Time>2022-07-09T12:40:32.000Z</Time>
            <Position>
              <LatitudeDegrees>42.781975753605365753173828125</LatitudeDegrees>
              <LongitudeDegrees>-0.1343853771686553955078125</LongitudeDegrees>
            </Position>
            <AltitudeMeters>2597.800048828125</AltitudeMeters>
            <DistanceMeters>14850.102029478</DistanceMeters>
          </Trackpoint>
          <Trackpoint>
            <Time>2022-07-09T12:40:33.000Z</Time>
            <Position>
              <LatitudeDegrees>42.78196946717798709869384765625</LatitudeDegrees>
              <LongitudeDegrees>-0.1343835331499576568603515625</LongitudeDegrees>
            </Position>
            <AltitudeMeters>2598</AltitudeMeters>
            <DistanceMeters>14850.825731373</DistanceMeters>
          </Trackpoint>
          <Trackpoint>
            <Time>2022-07-09T12:40:36.000Z</Time>
            <Position>
              <LatitudeDegrees>42.781946249306201934814453125</LatitudeDegrees>
              <LongitudeDegrees>-0.1343719661235809326171875</LongitudeDegrees>
            </Position>
            <AltitudeMeters>2598.199951171875</AltitudeMeters>
            <DistanceMeters>14853.576586524</DistanceMeters>
          </Trackpoint>
          <Trackpoint>
            <Time>2022-07-09T12:40:40.000Z</Time>
            <Position>
              <LatitudeDegrees>42.78190224431455135345458984375</LatitudeDegrees>
              <LongitudeDegrees>-0.134352855384349822998046875</LongitudeDegrees>
            </Position>
            <AltitudeMeters>2599</AltitudeMeters>
            <DistanceMeters>14858.716820339</DistanceMeters>
          </Trackpoint>
          <Trackpoint>
            <Time>2022-07-09T12:40:46.000Z</Time>
            <Position>
              <LatitudeDegrees>42.7818475104868412017822265625</LatitudeDegrees>
              <LongitudeDegrees>-0.134303905069828033447265625</LongitudeDegrees>
            </Position>
            <AltitudeMeters>2598.60009765625</AltitudeMeters>
            <DistanceMeters>14866.003578843</DistanceMeters>
          </Trackpoint>
          <Trackpoint>
            <Time>2022-07-09T12:40:48.000Z</Time>
            <Position>
              <LatitudeDegrees>42.781826220452785491943359375</LatitudeDegrees>
              <LongitudeDegrees>-0.13428705744445323944091796875</LongitudeDegrees>
            </Position>
            <AltitudeMeters>2598.39990234375</AltitudeMeters>
            <DistanceMeters>14868.744568373</DistanceMeters>
          </Trackpoint>
          <Trackpoint>
            <Time>2022-07-09T12:40:53.000Z</Time>
            <Position>
              <LatitudeDegrees>42.78178188018500804901123046875</LatitudeDegrees>
              <LongitudeDegrees>-0.1342712156474590301513671875</LongitudeDegrees>
            </Position>
            <AltitudeMeters>2598.39990234375</AltitudeMeters>
            <DistanceMeters>14873.846007416</DistanceMeters>
          </Trackpoint>
          <Trackpoint>
            <Time>2022-07-09T12:40:56.000Z</Time>
            <Position>
              <LatitudeDegrees>42.7817589975893497467041015625</LatitudeDegrees>
              <LongitudeDegrees>-0.13427549041807651519775390625</LongitudeDegrees>
            </Position>
            <AltitudeMeters>2598.800048828125</AltitudeMeters>
            <DistanceMeters>14876.413487855</DistanceMeters>
          </Trackpoint>
          <Trackpoint>
            <Time>2022-07-09T12:40:59.000Z</Time>
            <Position>
              <LatitudeDegrees>42.78173200786113739013671875</LatitudeDegrees>
              <LongitudeDegrees>-0.13426912017166614532470703125</LongitudeDegrees>
            </Position>
            <AltitudeMeters>2599.199951171875</AltitudeMeters>
            <DistanceMeters>14879.461757636</DistanceMeters>
          </Trackpoint>
          <Trackpoint>
            <Time>2022-07-09T12:41:00.000Z</Time>
            <Position>
              <LatitudeDegrees>42.78172672726213932037353515625</LatitudeDegrees>
              <LongitudeDegrees>-0.1342661865055561065673828125</LongitudeDegrees>
            </Position>
            <AltitudeMeters>2599.199951171875</AltitudeMeters>
            <DistanceMeters>14880.099216215</DistanceMeters>
          </Trackpoint>
          <Trackpoint>
            <Time>2022-07-09T12:41:02.000Z</Time>
            <Position>
              <LatitudeDegrees>42.78171851299703121185302734375</LatitudeDegrees>
              <LongitudeDegrees>-0.13425403274595737457275390625</LongitudeDegrees>
            </Position>
            <AltitudeMeters>2599.199951171875</AltitudeMeters>
            <DistanceMeters>14881.44645241</DistanceMeters>
          </Trackpoint>
          <Trackpoint>
            <Time>2022-07-09T12:41:04.000Z</Time>
            <Position>
              <LatitudeDegrees>42.7817147411406040191650390625</LatitudeDegrees>
              <LongitudeDegrees>-0.13423056341707706451416015625</LongitudeDegrees>
            </Position>
            <AltitudeMeters>2599.199951171875</AltitudeMeters>
            <DistanceMeters>14883.407781695</DistanceMeters>
          </Trackpoint>
          <Trackpoint>
            <Time>2022-07-09T12:41:07.000Z</Time>
            <Position>
              <LatitudeDegrees>42.78169705532491207122802734375</LatitudeDegrees>
              <LongitudeDegrees>-0.1342001371085643768310546875</LongitudeDegrees>
            </Position>
            <AltitudeMeters>2599.199951171875</AltitudeMeters>
            <DistanceMeters>14886.576605611</DistanceMeters>
          </Trackpoint>
          <Trackpoint>
            <Time>2022-07-09T12:41:08.000Z</Time>
            <Position>
              <LatitudeDegrees>42.78168833814561367034912109375</LatitudeDegrees>
              <LongitudeDegrees>-0.134189911186695098876953125</LongitudeDegrees>
            </Position>
            <AltitudeMeters>2599.199951171875</AltitudeMeters>
            <DistanceMeters>14887.8550593</DistanceMeters>
          </Trackpoint>
          <Trackpoint>
            <Time>2022-07-09T12:41:12.000Z</Time>
            <Position>
              <LatitudeDegrees>42.78164626099169254302978515625</LatitudeDegrees>
              <LongitudeDegrees>-0.13416551984846591949462890625</LongitudeDegrees>
            </Position>
            <AltitudeMeters>2599.39990234375</AltitudeMeters>
            <DistanceMeters>14892.944092533</DistanceMeters>
          </Trackpoint>
          <Trackpoint>
            <Time>2022-07-09T12:41:15.000Z</Time>
            <Position>
              <LatitudeDegrees>42.78162128292024135589599609375</LatitudeDegrees>
              <LongitudeDegrees>-0.1341575570404529571533203125</LongitudeDegrees>
            </Position>
            <AltitudeMeters>2599.800048828125</AltitudeMeters>
            <DistanceMeters>14895.798059763</DistanceMeters>
          </Trackpoint>
          <Trackpoint>
            <Time>2022-07-09T12:41:19.000Z</Time>
            <Position>
              <LatitudeDegrees>42.78159923851490020751953125</LatitudeDegrees>
              <LongitudeDegrees>-0.13413953594863414764404296875</LongitudeDegrees>
            </Position>
            <AltitudeMeters>2600.60009765625</AltitudeMeters>
            <DistanceMeters>14898.661503391</DistanceMeters>
          </Trackpoint>
          <Trackpoint>
            <Time>2022-07-09T12:41:24.000Z</Time>
            <Position>
              <LatitudeDegrees>42.78158423490822315216064453125</LatitudeDegrees>
              <LongitudeDegrees>-0.13407851569354534149169921875</LongitudeDegrees>
            </Position>
            <AltitudeMeters>2601.60009765625</AltitudeMeters>
            <DistanceMeters>14903.918121498</DistanceMeters>
          </Trackpoint>
          <Trackpoint>
            <Time>2022-07-09T12:41:26.000Z</Time>
            <Position>
              <LatitudeDegrees>42.781578116118907928466796875</LatitudeDegrees>
              <LongitudeDegrees>-0.13406175188720226287841796875</LongitudeDegrees>
            </Position>
            <AltitudeMeters>2601.800048828125</AltitudeMeters>
            <DistanceMeters>14905.447431734</DistanceMeters>
          </Trackpoint>
          <Trackpoint>
            <Time>2022-07-09T12:41:31.000Z</Time>
            <Position>
              <LatitudeDegrees>42.78154517523944377899169921875</LatitudeDegrees>
              <LongitudeDegrees>-0.134012885391712188720703125</LongitudeDegrees>
            </Position>
            <AltitudeMeters>2602.39990234375</AltitudeMeters>
            <DistanceMeters>14910.868120689</DistanceMeters>
          </Trackpoint>
          <Trackpoint>
            <Time>2022-07-09T12:41:33.000Z</Time>
            <Position>
              <LatitudeDegrees>42.78152908198535442352294921875</LatitudeDegrees>
              <LongitudeDegrees>-0.13400475494563579559326171875</LongitudeDegrees>
            </Position>
            <AltitudeMeters>2602.800048828125</AltitudeMeters>
            <DistanceMeters>14912.77813401</DistanceMeters>
          </Trackpoint>
          <Trackpoint>
            <Time>2022-07-09T12:41:38.000Z</Time>
            <Position>
              <LatitudeDegrees>42.78150008060038089752197265625</LatitudeDegrees>
              <LongitudeDegrees>-0.13397835195064544677734375</LongitudeDegrees>
            </Position>
            <AltitudeMeters>2603.800048828125</AltitudeMeters>
            <DistanceMeters>14916.659134848</DistanceMeters>
          </Trackpoint>
          <Trackpoint>
            <Time>2022-07-09T12:41:44.000Z</Time>
            <Position>
              <LatitudeDegrees>42.781486921012401580810546875</LatitudeDegrees>
              <LongitudeDegrees>-0.13395010493695735931396484375</LongitudeDegrees>
            </Position>
            <AltitudeMeters>2604.60009765625</AltitudeMeters>
            <DistanceMeters>14919.393527522</DistanceMeters>
          </Trackpoint>
          <Trackpoint>
            <Time>2022-07-09T12:41:45.000Z</Time>
            <Position>
              <LatitudeDegrees>42.78148524463176727294921875</LatitudeDegrees>
              <LongitudeDegrees>-0.13394323177635669708251953125</LongitudeDegrees>
            </Position>
            <AltitudeMeters>2605</AltitudeMeters>
            <DistanceMeters>14919.979311531</DistanceMeters>
          </Trackpoint>
          <Trackpoint>
            <Time>2022-07-09T12:41:51.000Z</Time>
            <Position>
              <LatitudeDegrees>42.7814689837396144866943359375</LatitudeDegrees>
              <LongitudeDegrees>-0.1338843069970607757568359375</LongitudeDegrees>
            </Position>
            <AltitudeMeters>2605.800048828125</AltitudeMeters>
            <DistanceMeters>14925.122179787</DistanceMeters>
          </Trackpoint>
          <Trackpoint>
            <Time>2022-07-09T12:41:52.000Z</Time>
            <Position>
              <LatitudeDegrees>42.78146605007350444793701171875</LatitudeDegrees>
              <LongitudeDegrees>-0.13388045132160186767578125</LongitudeDegrees>
            </Position>
            <AltitudeMeters>2606.199951171875</AltitudeMeters>
            <DistanceMeters>14925.587713712</DistanceMeters>
          </Trackpoint>
          <Trackpoint>
            <Time>2022-07-09T12:41:54.000Z</Time>
            <Position>
              <LatitudeDegrees>42.7814577519893646240234375</LatitudeDegrees>
              <LongitudeDegrees>-0.13387399725615978240966796875</LongitudeDegrees>
            </Position>
            <AltitudeMeters>2606.60009765625</AltitudeMeters>
            <DistanceMeters>14926.654385935</DistanceMeters>
          </Trackpoint>
          <Trackpoint>
            <Time>2022-07-09T12:41:56.000Z</Time>
            <Position>
              <LatitudeDegrees>42.78144903481006622314453125</LatitudeDegrees>
              <LongitudeDegrees>-0.13386477716267108917236328125</LongitudeDegrees>
            </Position>
            <AltitudeMeters>2607.199951171875</AltitudeMeters>
            <DistanceMeters>14927.886072925</DistanceMeters>
          </Trackpoint>
          <Trackpoint>
            <Time>2022-07-09T12:42:00.000Z</Time>
            <Position>
              <LatitudeDegrees>42.78142380528151988983154296875</LatitudeDegrees>
              <LongitudeDegrees>-0.13382337056100368499755859375</LongitudeDegrees>
            </Position>
            <AltitudeMeters>2608.199951171875</AltitudeMeters>
            <DistanceMeters>14932.282021468</DistanceMeters>
          </Trackpoint>
          <Trackpoint>
            <Time>2022-07-09T12:42:02.000Z</Time>
            <Position>
              <LatitudeDegrees>42.78142112307250499725341796875</LatitudeDegrees>
              <LongitudeDegrees>-0.1338075287640094757080078125</LongitudeDegrees>
            </Position>
            <AltitudeMeters>2608.60009765625</AltitudeMeters>
            <DistanceMeters>14933.605590443</DistanceMeters>
          </Trackpoint>
          <Trackpoint>
            <Time>2022-07-09T12:42:06.000Z</Time>
            <Position>
              <LatitudeDegrees>42.78141391463577747344970703125</LatitudeDegrees>
              <LongitudeDegrees>-0.13378120958805084228515625</LongitudeDegrees>
            </Position>
            <AltitudeMeters>2609</AltitudeMeters>
            <DistanceMeters>14935.902014759</DistanceMeters>
          </Trackpoint>
          <Trackpoint>
            <Time>2022-07-09T12:42:08.000Z</Time>
            <Position>
              <LatitudeDegrees>42.78141408227384090423583984375</LatitudeDegrees>
              <LongitudeDegrees>-0.13376888819038867950439453125</LongitudeDegrees>
            </Position>
            <AltitudeMeters>2609.39990234375</AltitudeMeters>
            <DistanceMeters>14936.907682976</DistanceMeters>
          </Trackpoint>
          <Trackpoint>
            <Time>2022-07-09T12:42:09.000Z</Time>
            <Position>
              <LatitudeDegrees>42.7814146690070629119873046875</LatitudeDegrees>
              <LongitudeDegrees>-0.13376184739172458648681640625</LongitudeDegrees>
            </Position>
            <AltitudeMeters>2609.60009765625</AltitudeMeters>
            <DistanceMeters>14937.485707914</DistanceMeters>
          </Trackpoint>
          <Trackpoint>
            <Time>2022-07-09T12:42:13.000Z</Time>
            <Position>
              <LatitudeDegrees>42.78141492046415805816650390625</LatitudeDegrees>
              <LongitudeDegrees>-0.13372580520808696746826171875</LongitudeDegrees>
            </Position>
            <AltitudeMeters>2610.39990234375</AltitudeMeters>
            <DistanceMeters>14940.430002971</DistanceMeters>
          </Trackpoint>
          <Trackpoint>
            <Time>2022-07-09T12:42:19.000Z</Time>
            <Position>
              <LatitudeDegrees>42.78138826601207256317138671875</LatitudeDegrees>
              <LongitudeDegrees>-0.13368892483413219451904296875</LongitudeDegrees>
            </Position>
            <AltitudeMeters>2611.60009765625</AltitudeMeters>
            <DistanceMeters>14944.658424823</DistanceMeters>
          </Trackpoint>
          <Trackpoint>
            <Time>2022-07-09T12:42:23.000Z</Time>
            <Position>
              <LatitudeDegrees>42.78136462904512882232666015625</LatitudeDegrees>
              <LongitudeDegrees>-0.13366126455366611480712890625</LongitudeDegrees>
            </Position>
            <AltitudeMeters>2612.60009765625</AltitudeMeters>
            <DistanceMeters>14948.126574448</DistanceMeters>
          </Trackpoint>
          <Trackpoint>
            <Time>2022-07-09T12:42:28.000Z</Time>
            <Position>
              <LatitudeDegrees>42.78136680833995342254638671875</LatitudeDegrees>
              <LongitudeDegrees>-0.133623294532299041748046875</LongitudeDegrees>
            </Position>
            <AltitudeMeters>2613.39990234375</AltitudeMeters>
            <DistanceMeters>14951.239334</DistanceMeters>
          </Trackpoint>
          <Trackpoint>
            <Time>2022-07-09T12:42:30.000Z</Time>
            <Position>
              <LatitudeDegrees>42.78137552551925182342529296875</LatitudeDegrees>
              <LongitudeDegrees>-0.13360611163079738616943359375</LongitudeDegrees>
            </Position>
            <AltitudeMeters>2613.800048828125</AltitudeMeters>
            <DistanceMeters>14952.947173188</DistanceMeters>
          </Trackpoint>
          <Trackpoint>
            <Time>2022-07-09T12:42:35.000Z</Time>
            <Position>
              <LatitudeDegrees>42.78138390742242336273193359375</LatitudeDegrees>
              <LongitudeDegrees>-0.13357459567487239837646484375</LongitudeDegrees>
            </Position>
            <AltitudeMeters>2614.800048828125</AltitudeMeters>
            <DistanceMeters>14955.686514993</DistanceMeters>
          </Trackpoint>
          <Trackpoint>
            <Time>2022-07-09T12:42:41.000Z</Time>
            <Position>
              <LatitudeDegrees>42.781405113637447357177734375</LatitudeDegrees>
              <LongitudeDegrees>-0.13355464674532413482666015625</LongitudeDegrees>
            </Position>
            <AltitudeMeters>2616</AltitudeMeters>
            <DistanceMeters>14958.556258834</DistanceMeters>
          </Trackpoint>
          <Trackpoint>
            <Time>2022-07-09T12:42:43.000Z</Time>
            <Position>
              <LatitudeDegrees>42.78142179362475872039794921875</LatitudeDegrees>
              <LongitudeDegrees>-0.13355028815567493438720703125</LongitudeDegrees>
            </Position>
            <AltitudeMeters>2616.60009765625</AltitudeMeters>
            <DistanceMeters>14960.447266574</DistanceMeters>
          </Trackpoint>
          <Trackpoint>
            <Time>2022-07-09T12:42:45.000Z</Time>
            <Position>
              <LatitudeDegrees>42.7814389765262603759765625</LatitudeDegrees>
              <LongitudeDegrees>-0.13354173861443996429443359375</LongitudeDegrees>
            </Position>
            <AltitudeMeters>2617</AltitudeMeters>
            <DistanceMeters>14962.485362539</DistanceMeters>
          </Trackpoint>
          <Trackpoint>
            <Time>2022-07-09T12:42:48.000Z</Time>
            <Position>
              <LatitudeDegrees>42.78144325129687786102294921875</LatitudeDegrees>
              <LongitudeDegrees>-0.133518017828464508056640625</LongitudeDegrees>
            </Position>
            <AltitudeMeters>2618</AltitudeMeters>
            <DistanceMeters>14964.480923541</DistanceMeters>
          </Trackpoint>
          <Trackpoint>
            <Time>2022-07-09T12:42:54.000Z</Time>
            <Position>
              <LatitudeDegrees>42.7814287506043910980224609375</LatitudeDegrees>
              <LongitudeDegrees>-0.13350552879273891448974609375</LongitudeDegrees>
            </Position>
            <AltitudeMeters>2619</AltitudeMeters>
            <DistanceMeters>14966.390936861</DistanceMeters>
          </Trackpoint>
          <Trackpoint>
            <Time>2022-07-09T12:42:55.000Z</Time>
            <Position>
              <LatitudeDegrees>42.781422547996044158935546875</LatitudeDegrees>
              <LongitudeDegrees>-0.1334990747272968292236328125</LongitudeDegrees>
            </Position>
            <AltitudeMeters>2619.199951171875</AltitudeMeters>
            <DistanceMeters>14967.261871085</DistanceMeters>
          </Trackpoint>
          <Trackpoint>
            <Time>2022-07-09T12:43:01.000Z</Time>
            <Position>
              <LatitudeDegrees>42.7813784591853618621826171875</LatitudeDegrees>
              <LongitudeDegrees>-0.133469067513942718505859375</LongitudeDegrees>
            </Position>
            <AltitudeMeters>2620.39990234375</AltitudeMeters>
            <DistanceMeters>14972.747143613</DistanceMeters>
          </Trackpoint>
          <Trackpoint>
            <Time>2022-07-09T12:43:02.000Z</Time>
            <Position>
              <LatitudeDegrees>42.78137351386249065399169921875</LatitudeDegrees>
              <LongitudeDegrees>-0.13346747495234012603759765625</LongitudeDegrees>
            </Position>
            <AltitudeMeters>2620.60009765625</AltitudeMeters>
            <DistanceMeters>14973.317303899</DistanceMeters>
          </Trackpoint>
          <Trackpoint>
            <Time>2022-07-09T12:43:08.000Z</Time>
            <Position>
              <LatitudeDegrees>42.7813358791172504425048828125</LatitudeDegrees>
              <LongitudeDegrees>-0.1334360428154468536376953125</LongitudeDegrees>
            </Position>
            <AltitudeMeters>2621.60009765625</AltitudeMeters>
            <DistanceMeters>14978.229367036</DistanceMeters>
          </Trackpoint>
          <Trackpoint>
            <Time>2022-07-09T12:43:09.000Z</Time>
            <Position>
              <LatitudeDegrees>42.78132967650890350341796875</LatitudeDegrees>
              <LongitudeDegrees>-0.13342916965484619140625</LongitudeDegrees>
            </Position>
            <AltitudeMeters>2621.800048828125</AltitudeMeters>
            <DistanceMeters>14979.120796633</DistanceMeters>
          </Trackpoint>
          <Trackpoint>
            <Time>2022-07-09T12:43:14.000Z</Time>
            <Position>
              <LatitudeDegrees>42.7812959812581539154052734375</LatitudeDegrees>
              <LongitudeDegrees>-0.13339874334633350372314453125</LongitudeDegrees>
            </Position>
            <AltitudeMeters>2622.60009765625</AltitudeMeters>
            <DistanceMeters>14983.620288981</DistanceMeters>
          </Trackpoint>
          <Trackpoint>
            <Time>2022-07-09T12:43:17.000Z</Time>
            <Position>
              <LatitudeDegrees>42.781271673738956451416015625</LatitudeDegrees>
              <LongitudeDegrees>-0.1333768665790557861328125</LongitudeDegrees>
            </Position>
            <AltitudeMeters>2623.199951171875</AltitudeMeters>
            <DistanceMeters>14986.862357608</DistanceMeters>
          </Trackpoint>
          <Trackpoint>
            <Time>2022-07-09T12:43:21.000Z</Time>
            <Position>
              <LatitudeDegrees>42.78123571537435054779052734375</LatitudeDegrees>
              <LongitudeDegrees>-0.1333622820675373077392578125</LongitudeDegrees>
            </Position>
            <AltitudeMeters>2623.60009765625</AltitudeMeters>
            <DistanceMeters>14991.038130304</DistanceMeters>
          </Trackpoint>
          <Trackpoint>
            <Time>2022-07-09T12:43:23.000Z</Time>
            <Position>
              <LatitudeDegrees>42.7812141738831996917724609375</LatitudeDegrees>
              <LongitudeDegrees>-0.1333575882017612457275390625</LongitudeDegrees>
            </Position>
            <AltitudeMeters>2624</AltitudeMeters>
            <DistanceMeters>14993.464570051</DistanceMeters>
          </Trackpoint>
          <Trackpoint>
            <Time>2022-07-09T12:43:25.000Z</Time>
            <Position>
              <LatitudeDegrees>42.78119632042944431304931640625</LatitudeDegrees>
              <LongitudeDegrees>-0.13335406780242919921875</LongitudeDegrees>
            </Position>
            <AltitudeMeters>2624.39990234375</AltitudeMeters>
            <DistanceMeters>14995.471411871</DistanceMeters>
          </Trackpoint>
          <Trackpoint>
            <Time>2022-07-09T12:43:26.000Z</Time>
            <Position>
              <LatitudeDegrees>42.78118911199271678924560546875</LatitudeDegrees>
              <LongitudeDegrees>-0.13335482217371463775634765625</LongitudeDegrees>
            </Position>
            <AltitudeMeters>2624.60009765625</AltitudeMeters>
            <DistanceMeters>14996.277740281</DistanceMeters>
          </Trackpoint>
          <Trackpoint>
            <Time>2022-07-09T12:43:31.000Z</Time>
            <Position>
              <LatitudeDegrees>42.78115290217101573944091796875</LatitudeDegrees>
              <LongitudeDegrees>-0.13336186297237873077392578125</LongitudeDegrees>
            </Position>
            <AltitudeMeters>2625</AltitudeMeters>
            <DistanceMeters>15000.34839014</DistanceMeters>
          </Trackpoint>
          <Trackpoint>
            <Time>2022-07-09T12:43:35.000Z</Time>
            <Position>
              <LatitudeDegrees>42.78113999404013156890869140625</LatitudeDegrees>
              <LongitudeDegrees>-0.1333569176495075225830078125</LongitudeDegrees>
            </Position>
            <AltitudeMeters>2625.800048828125</AltitudeMeters>
            <DistanceMeters>15001.838825917</DistanceMeters>
          </Trackpoint>
          <Trackpoint>
            <Time>2022-07-09T12:43:37.000Z</Time>
            <Position>
              <LatitudeDegrees>42.78113295324146747589111328125</LatitudeDegrees>
              <LongitudeDegrees>-0.13334828428924083709716796875</LongitudeDegrees>
            </Position>
            <AltitudeMeters>2626</AltitudeMeters>
            <DistanceMeters>15002.888430283</DistanceMeters>
          </Trackpoint>
          <Trackpoint>
            <Time>2022-07-09T12:43:41.000Z</Time>
            <Position>
              <LatitudeDegrees>42.78112859465181827545166015625</LatitudeDegrees>
              <LongitudeDegrees>-0.13332531787455081939697265625</LongitudeDegrees>
            </Position>
            <AltitudeMeters>2626.800048828125</AltitudeMeters>
            <DistanceMeters>15004.824271631</DistanceMeters>
          </Trackpoint>
          <Trackpoint>
            <Time>2022-07-09T12:43:45.000Z</Time>
            <Position>
              <LatitudeDegrees>42.78115575201809406280517578125</LatitudeDegrees>
              <LongitudeDegrees>-0.13330436311662197113037109375</LongitudeDegrees>
            </Position>
            <AltitudeMeters>2627.60009765625</AltitudeMeters>
            <DistanceMeters>15008.295023996</DistanceMeters>
          </Trackpoint>
          <Trackpoint>
            <Time>2022-07-09T12:43:47.000Z</Time>
            <Position>
              <LatitudeDegrees>42.78117586858570575714111328125</LatitudeDegrees>
              <LongitudeDegrees>-0.13329162262380123138427734375</LongitudeDegrees>
            </Position>
            <AltitudeMeters>2628.199951171875</AltitudeMeters>
            <DistanceMeters>15010.76571857</DistanceMeters>
          </Trackpoint>
          <Trackpoint>
            <Time>2022-07-09T12:43:51.000Z</Time>
            <Position>
              <LatitudeDegrees>42.78122046031057834625244140625</LatitudeDegrees>
              <LongitudeDegrees>-0.13327418826520442962646484375</LongitudeDegrees>
            </Position>
            <AltitudeMeters>2628.800048828125</AltitudeMeters>
            <DistanceMeters>15015.928739552</DistanceMeters>
          </Trackpoint>
          <Trackpoint>
            <Time>2022-07-09T12:43:55.000Z</Time>
            <Position>
              <LatitudeDegrees>42.78126035816967487335205078125</LatitudeDegrees>
              <LongitudeDegrees>-0.133259184658527374267578125</LongitudeDegrees>
            </Position>
            <AltitudeMeters>2629.39990234375</AltitudeMeters>
            <DistanceMeters>15020.535330443</DistanceMeters>
          </Trackpoint>
          <Trackpoint>
            <Time>2022-07-09T12:43:59.000Z</Time>
            <Position>
              <LatitudeDegrees>42.7812834084033966064453125</LatitudeDegrees>
              <LongitudeDegrees>-0.13325625099241733551025390625</LongitudeDegrees>
            </Position>
            <AltitudeMeters>2630</AltitudeMeters>
            <DistanceMeters>15023.111588619</DistanceMeters>
          </Trackpoint>
          <Trackpoint>
            <Time>2022-07-09T12:44:01.000Z</Time>
            <Position>
              <LatitudeDegrees>42.78130285441875457763671875</LatitudeDegrees>
              <LongitudeDegrees>-0.13324652798473834991455078125</LongitudeDegrees>
            </Position>
            <AltitudeMeters>2630.39990234375</AltitudeMeters>
            <DistanceMeters>15025.415863982</DistanceMeters>
          </Trackpoint>
          <Trackpoint>
            <Time>2022-07-09T12:44:05.000Z</Time>
            <Position>
              <LatitudeDegrees>42.7813435904681682586669921875</LatitudeDegrees>
              <LongitudeDegrees>-0.1332295127213001251220703125</LongitudeDegrees>
            </Position>
            <AltitudeMeters>2630.60009765625</AltitudeMeters>
            <DistanceMeters>15030.157687507</DistanceMeters>
          </Trackpoint>
          <Trackpoint>
            <Time>2022-07-09T12:44:06.000Z</Time>
            <Position>
              <LatitudeDegrees>42.78135138563811779022216796875</LatitudeDegrees>
              <LongitudeDegrees>-0.133229009807109832763671875</LongitudeDegrees>
            </Position>
            <AltitudeMeters>2630.800048828125</AltitudeMeters>
            <DistanceMeters>15031.028621731</DistanceMeters>
          </Trackpoint>
          <Trackpoint>
            <Time>2022-07-09T12:44:11.000Z</Time>
            <Position>
              <LatitudeDegrees>42.78137418441474437713623046875</LatitudeDegrees>
              <LongitudeDegrees>-0.133206881582736968994140625</LongitudeDegrees>
            </Position>
            <AltitudeMeters>2631.199951171875</AltitudeMeters>
            <DistanceMeters>15034.145729726</DistanceMeters>
          </Trackpoint>
          <Trackpoint>
            <Time>2022-07-09T12:44:12.000Z</Time>
            <Position>
              <LatitudeDegrees>42.78137259185314178466796875</LatitudeDegrees>
              <LongitudeDegrees>-0.13319313526153564453125</LongitudeDegrees>
            </Position>
            <AltitudeMeters>2631.60009765625</AltitudeMeters>
            <DistanceMeters>15035.286050298</DistanceMeters>
          </Trackpoint>
          <Trackpoint>
            <Time>2022-07-09T12:44:13.000Z</Time>
            <Position>
              <LatitudeDegrees>42.781373597681522369384765625</LatitudeDegrees>
              <LongitudeDegrees>-0.13318751938641071319580078125</LongitudeDegrees>
            </Position>
            <AltitudeMeters>2631.800048828125</AltitudeMeters>
            <DistanceMeters>15035.751584222</DistanceMeters>
          </Trackpoint>
          <Trackpoint>
            <Time>2022-07-09T12:44:18.000Z</Time>
            <Position>
              <LatitudeDegrees>42.7813399024307727813720703125</LatitudeDegrees>
              <LongitudeDegrees>-0.13317410834133625030517578125</LongitudeDegrees>
            </Position>
            <AltitudeMeters>2632.60009765625</AltitudeMeters>
            <DistanceMeters>15039.659250952</DistanceMeters>
          </Trackpoint>
          <Trackpoint>
            <Time>2022-07-09T12:44:21.000Z</Time>
            <Position>
              <LatitudeDegrees>42.78130377642810344696044921875</LatitudeDegrees>
              <LongitudeDegrees>-0.1331596076488494873046875</LongitudeDegrees>
            </Position>
            <AltitudeMeters>2633.199951171875</AltitudeMeters>
            <DistanceMeters>15043.850133756</DistanceMeters>
          </Trackpoint>
          <Trackpoint>
            <Time>2022-07-09T12:44:24.000Z</Time>
            <Position>
              <LatitudeDegrees>42.78127645142376422882080078125</LatitudeDegrees>
              <LongitudeDegrees>-0.13315759599208831787109375</LongitudeDegrees>
            </Position>
            <AltitudeMeters>2633.800048828125</AltitudeMeters>
            <DistanceMeters>15046.896921997</DistanceMeters>
          </Trackpoint>
          <Trackpoint>
            <Time>2022-07-09T12:44:28.000Z</Time>
            <Position>
              <LatitudeDegrees>42.78124107979238033294677734375</LatitudeDegrees>
              <LongitudeDegrees>-0.13313471339643001556396484375</LongitudeDegrees>
            </Position>
            <AltitudeMeters>2634.39990234375</AltitudeMeters>
            <DistanceMeters>15051.255738446</DistanceMeters>
          </Trackpoint>
          <Trackpoint>
            <Time>2022-07-09T12:44:31.000Z</Time>
            <Position>
              <LatitudeDegrees>42.78122481890022754669189453125</LatitudeDegrees>
              <LongitudeDegrees>-0.13312465511262416839599609375</LongitudeDegrees>
            </Position>
            <AltitudeMeters>2635</AltitudeMeters>
            <DistanceMeters>15053.244500243</DistanceMeters>
          </Trackpoint>
          <Trackpoint>
            <Time>2022-07-09T12:44:35.000Z</Time>
            <Position>
              <LatitudeDegrees>42.78121090494096279144287109375</LatitudeDegrees>
              <LongitudeDegrees>-0.13309724628925323486328125</LongitudeDegrees>
            </Position>
            <AltitudeMeters>2635.60009765625</AltitudeMeters>
            <DistanceMeters>15055.967309961</DistanceMeters>
          </Trackpoint>
          <Trackpoint>
            <Time>2022-07-09T12:44:40.000Z</Time>
            <Position>
              <LatitudeDegrees>42.78118642978370189666748046875</LatitudeDegrees>
              <LongitudeDegrees>-0.13305357657372951507568359375</LongitudeDegrees>
            </Position>
            <AltitudeMeters>2636.199951171875</AltitudeMeters>
            <DistanceMeters>15060.455750731</DistanceMeters>
          </Trackpoint>
          <Trackpoint>
            <Time>2022-07-09T12:44:41.000Z</Time>
            <Position>
              <LatitudeDegrees>42.781178466975688934326171875</LatitudeDegrees>
              <LongitudeDegrees>-0.13304469175636768341064453125</LongitudeDegrees>
            </Position>
            <AltitudeMeters>2636.199951171875</AltitudeMeters>
            <DistanceMeters>15061.600023899</DistanceMeters>
          </Trackpoint>
          <Trackpoint>
            <Time>2022-07-09T12:44:46.000Z</Time>
            <Position>
              <LatitudeDegrees>42.781144939363002777099609375</LatitudeDegrees>
              <LongitudeDegrees>-0.1330065540969371795654296875</LongitudeDegrees>
            </Position>
            <AltitudeMeters>2637.199951171875</AltitudeMeters>
            <DistanceMeters>15066.46126963</DistanceMeters>
          </Trackpoint>
          <Trackpoint>
            <Time>2022-07-09T12:44:47.000Z</Time>
            <Position>
              <LatitudeDegrees>42.7811412513256072998046875</LatitudeDegrees>
              <LongitudeDegrees>-0.133002363145351409912109375</LongitudeDegrees>
            </Position>
            <AltitudeMeters>2637.199951171875</AltitudeMeters>
            <DistanceMeters>15066.990355984</DistanceMeters>
          </Trackpoint>
          <Trackpoint>
            <Time>2022-07-09T12:44:53.000Z</Time>
            <Position>
              <LatitudeDegrees>42.7811162732541561126708984375</LatitudeDegrees>
              <LongitudeDegrees>-0.13296321965754032135009765625</LongitudeDegrees>
            </Position>
            <AltitudeMeters>2638</AltitudeMeters>
            <DistanceMeters>15071.227311491</DistanceMeters>
          </Trackpoint>
          <Trackpoint>
            <Time>2022-07-09T12:44:54.000Z</Time>
            <Position>
              <LatitudeDegrees>42.7811109088361263275146484375</LatitudeDegrees>
              <LongitudeDegrees>-0.13296070508658885955810546875</LongitudeDegrees>
            </Position>
            <AltitudeMeters>2638.199951171875</AltitudeMeters>
            <DistanceMeters>15071.857647404</DistanceMeters>
          </Trackpoint>
          <Trackpoint>
            <Time>2022-07-09T12:45:00.000Z</Time>
            <Position>
              <LatitudeDegrees>42.7810703404247760772705078125</LatitudeDegrees>
              <LongitudeDegrees>-0.13292432762682437896728515625</LongitudeDegrees>
            </Position>
            <AltitudeMeters>2639</AltitudeMeters>
            <DistanceMeters>15077.263322882</DistanceMeters>
          </Trackpoint>
          <Trackpoint>
            <Time>2022-07-09T12:45:03.000Z</Time>
            <Position>
              <LatitudeDegrees>42.78104896657168865203857421875</LatitudeDegrees>
              <LongitudeDegrees>-0.1329016126692295074462890625</LongitudeDegrees>
            </Position>
            <AltitudeMeters>2639.39990234375</AltitudeMeters>
            <DistanceMeters>15080.280327532</DistanceMeters>
          </Trackpoint>
          <Trackpoint>
            <Time>2022-07-09T12:45:06.000Z</Time>
            <Position>
              <LatitudeDegrees>42.78102650307118892669677734375</LatitudeDegrees>
              <LongitudeDegrees>-0.13287906534969806671142578125</LongitudeDegrees>
            </Position>
            <AltitudeMeters>2639.800048828125</AltitudeMeters>
            <DistanceMeters>15083.385826146</DistanceMeters>
          </Trackpoint>
          <Trackpoint>
            <Time>2022-07-09T12:45:12.000Z</Time>
            <Position>
              <LatitudeDegrees>42.7809757925570011138916015625</LatitudeDegrees>
              <LongitudeDegrees>-0.1328399218618869781494140625</LongitudeDegrees>
            </Position>
            <AltitudeMeters>2640</AltitudeMeters>
            <DistanceMeters>15089.873444068</DistanceMeters>
          </Trackpoint>
          <Trackpoint>
            <Time>2022-07-09T12:45:16.000Z</Time>
            <Position>
              <LatitudeDegrees>42.78092742897570133209228515625</LatitudeDegrees>
              <LongitudeDegrees>-0.1328171230852603912353515625</LongitudeDegrees>
            </Position>
            <AltitudeMeters>2640.39990234375</AltitudeMeters>
            <DistanceMeters>15095.569501008</DistanceMeters>
          </Trackpoint>
          <Trackpoint>
            <Time>2022-07-09T12:45:17.000Z</Time>
            <Position>
              <LatitudeDegrees>42.780915610492229461669921875</LatitudeDegrees>
              <LongitudeDegrees>-0.1328117586672306060791015625</LongitudeDegrees>
            </Position>
            <AltitudeMeters>2640.60009765625</AltitudeMeters>
            <DistanceMeters>15096.959621995</DistanceMeters>
          </Trackpoint>
          <Trackpoint>
            <Time>2022-07-09T12:45:19.000Z</Time>
            <Position>
              <LatitudeDegrees>42.7808986790478229522705078125</LatitudeDegrees>
              <LongitudeDegrees>-0.1328100822865962982177734375</LongitudeDegrees>
            </Position>
            <AltitudeMeters>2641</AltitudeMeters>
            <DistanceMeters>15098.84824059</DistanceMeters>
          </Trackpoint>
          <Trackpoint>
            <Time>2022-07-09T12:45:22.000Z</Time>
            <Position>
              <LatitudeDegrees>42.78087797574698925018310546875</LatitudeDegrees>
              <LongitudeDegrees>-0.1328097470104694366455078125</LongitudeDegrees>
            </Position>
            <AltitudeMeters>2641.39990234375</AltitudeMeters>
            <DistanceMeters>15101.152515953</DistanceMeters>
          </Trackpoint>
          <Trackpoint>
            <Time>2022-07-09T12:45:26.000Z</Time>
            <Position>
              <LatitudeDegrees>42.78085685335099697113037109375</LatitudeDegrees>
              <LongitudeDegrees>-0.1327908039093017578125</LongitudeDegrees>
            </Position>
            <AltitudeMeters>2641.800048828125</AltitudeMeters>
            <DistanceMeters>15103.968258682</DistanceMeters>
          </Trackpoint>
          <Trackpoint>
            <Time>2022-07-09T12:45:27.000Z</Time>
            <Position>
              <LatitudeDegrees>42.780857272446155548095703125</LatitudeDegrees>
              <LongitudeDegrees>-0.1327886246144771575927734375</LongitudeDegrees>
            </Position>
            <AltitudeMeters>2642</AltitudeMeters>
            <DistanceMeters>15104.158312111</DistanceMeters>
          </Trackpoint>
          <Trackpoint>
            <Time>2022-07-09T12:45:30.000Z</Time>
            <Position>
              <LatitudeDegrees>42.78084360994398593902587890625</LatitudeDegrees>
              <LongitudeDegrees>-0.1327611319720745086669921875</LongitudeDegrees>
            </Position>
            <AltitudeMeters>2642.39990234375</AltitudeMeters>
            <DistanceMeters>15106.871154219</DistanceMeters>
          </Trackpoint>
          <Trackpoint>
            <Time>2022-07-09T12:45:31.000Z</Time>
            <Position>
              <LatitudeDegrees>42.78083673678338527679443359375</LatitudeDegrees>
              <LongitudeDegrees>-0.13275484554469585418701171875</LongitudeDegrees>
            </Position>
            <AltitudeMeters>2642.60009765625</AltitudeMeters>
            <DistanceMeters>15107.792472397</DistanceMeters>
          </Trackpoint>
          <Trackpoint>
            <Time>2022-07-09T12:45:33.000Z</Time>
            <Position>
              <LatitudeDegrees>42.78081527911126613616943359375</LatitudeDegrees>
              <LongitudeDegrees>-0.13274126686155796051025390625</LongitudeDegrees>
            </Position>
            <AltitudeMeters>2643</AltitudeMeters>
            <DistanceMeters>15110.425929955</DistanceMeters>
          </Trackpoint>
          <Trackpoint>
            <Time>2022-07-09T12:45:35.000Z</Time>
            <Position>
              <LatitudeDegrees>42.78079767711460590362548828125</LatitudeDegrees>
              <LongitudeDegrees>-0.13273179531097412109375</LongitudeDegrees>
            </Position>
            <AltitudeMeters>2643.199951171875</AltitudeMeters>
            <DistanceMeters>15112.533724445</DistanceMeters>
          </Trackpoint>
          <Trackpoint>
            <Time>2022-07-09T12:45:38.000Z</Time>
            <Position>
              <LatitudeDegrees>42.78077504597604274749755859375</LatitudeDegrees>
              <LongitudeDegrees>-0.1327215693891048431396484375</LongitudeDegrees>
            </Position>
            <AltitudeMeters>2643.800048828125</AltitudeMeters>
            <DistanceMeters>15115.187676145</DistanceMeters>
          </Trackpoint>
          <Trackpoint>
            <Time>2022-07-09T12:45:39.000Z</Time>
            <Position>
              <LatitudeDegrees>42.7807685919106006622314453125</LatitudeDegrees>
              <LongitudeDegrees>-0.1327198930084705352783203125</LongitudeDegrees>
            </Position>
            <AltitudeMeters>2643.800048828125</AltitudeMeters>
            <DistanceMeters>15115.917590188</DistanceMeters>
          </Trackpoint>
          <Trackpoint>
            <Time>2022-07-09T12:45:45.000Z</Time>
            <Position>
              <LatitudeDegrees>42.7807343937456607818603515625</LatitudeDegrees>
              <LongitudeDegrees>-0.13272249139845371246337890625</LongitudeDegrees>
            </Position>
            <AltitudeMeters>2644.800048828125</AltitudeMeters>
            <DistanceMeters>15119.729334277</DistanceMeters>
          </Trackpoint>
          <Trackpoint>
            <Time>2022-07-09T12:45:51.000Z</Time>
            <Position>
              <LatitudeDegrees>42.7806713618338108062744140625</LatitudeDegrees>
              <LongitudeDegrees>-0.13272165320813655853271484375</LongitudeDegrees>
            </Position>
            <AltitudeMeters>2646</AltitudeMeters>
            <DistanceMeters>15126.744597395</DistanceMeters>
          </Trackpoint>
          <Trackpoint>
            <Time>2022-07-09T12:45:53.000Z</Time>
            <Position>
              <LatitudeDegrees>42.780650742352008819580078125</LatitudeDegrees>
              <LongitudeDegrees>-0.1327229104936122894287109375</LongitudeDegrees>
            </Position>
            <AltitudeMeters>2646.39990234375</AltitudeMeters>
            <DistanceMeters>15129.041021712</DistanceMeters>
          </Trackpoint>
          <Trackpoint>
            <Time>2022-07-09T12:45:55.000Z</Time>
            <Position>
              <LatitudeDegrees>42.7806264348328113555908203125</LatitudeDegrees>
              <LongitudeDegrees>-0.13272869400680065155029296875</LongitudeDegrees>
            </Position>
            <AltitudeMeters>2647</AltitudeMeters>
            <DistanceMeters>15131.788592258</DistanceMeters>
          </Trackpoint>
          <Trackpoint>
            <Time>2022-07-09T12:46:01.000Z</Time>
            <Position>
              <LatitudeDegrees>42.7805815078318119049072265625</LatitudeDegrees>
              <LongitudeDegrees>-0.13270287774503231048583984375</LongitudeDegrees>
            </Position>
            <AltitudeMeters>2648.199951171875</AltitudeMeters>
            <DistanceMeters>15137.21510857</DistanceMeters>
          </Trackpoint>
          <Trackpoint>
            <Time>2022-07-09T12:46:02.000Z</Time>
            <Position>
              <LatitudeDegrees>42.78057354502379894256591796875</LatitudeDegrees>
              <LongitudeDegrees>-0.13269701041281223297119140625</LongitudeDegrees>
            </Position>
            <AltitudeMeters>2648.39990234375</AltitudeMeters>
            <DistanceMeters>15138.220776787</DistanceMeters>
          </Trackpoint>
          <Trackpoint>
            <Time>2022-07-09T12:46:03.000Z</Time>
            <Position>
              <LatitudeDegrees>42.780565582215785980224609375</LatitudeDegrees>
              <LongitudeDegrees>-0.1326930709183216094970703125</LongitudeDegrees>
            </Position>
            <AltitudeMeters>2648.39990234375</AltitudeMeters>
            <DistanceMeters>15139.161493264</DistanceMeters>
          </Trackpoint>
          <Trackpoint>
            <Time>2022-07-09T12:46:07.000Z</Time>
            <Position>
              <LatitudeDegrees>42.78053230606019496917724609375</LatitudeDegrees>
              <LongitudeDegrees>-0.1326628960669040679931640625</LongitudeDegrees>
            </Position>
            <AltitudeMeters>2649.39990234375</AltitudeMeters>
            <DistanceMeters>15143.610529965</DistanceMeters>
          </Trackpoint>
          <Trackpoint>
            <Time>2022-07-09T12:46:08.000Z</Time>
            <Position>
              <LatitudeDegrees>42.78052501380443572998046875</LatitudeDegrees>
              <LongitudeDegrees>-0.1326580345630645751953125</LongitudeDegrees>
            </Position>
            <AltitudeMeters>2649.60009765625</AltitudeMeters>
            <DistanceMeters>15144.512032533</DistanceMeters>
          </Trackpoint>
          <Trackpoint>
            <Time>2022-07-09T12:46:09.000Z</Time>
            <Position>
              <LatitudeDegrees>42.78051386587321758270263671875</LatitudeDegrees>
              <LongitudeDegrees>-0.132650993764400482177734375</LongitudeDegrees>
            </Position>
            <AltitudeMeters>2649.800048828125</AltitudeMeters>
            <DistanceMeters>15145.875922465</DistanceMeters>
          </Trackpoint>
          <Trackpoint>
            <Time>2022-07-09T12:46:10.000Z</Time>
            <Position>
              <LatitudeDegrees>42.78050489723682403564453125</LatitudeDegrees>
              <LongitudeDegrees>-0.13264588080346584320068359375</LongitudeDegrees>
            </Position>
            <AltitudeMeters>2649.800048828125</AltitudeMeters>
            <DistanceMeters>15146.95939371</DistanceMeters>
          </Trackpoint>
          <Trackpoint>
            <Time>2022-07-09T12:46:12.000Z</Time>
            <Position>
              <LatitudeDegrees>42.7804839424788951873779296875</LatitudeDegrees>
              <LongitudeDegrees>-0.1326338946819305419921875</LongitudeDegrees>
            </Position>
            <AltitudeMeters>2650</AltitudeMeters>
            <DistanceMeters>15149.487890125</DistanceMeters>
          </Trackpoint>
          <Trackpoint>
            <Time>2022-07-09T12:46:15.000Z</Time>
            <Position>
              <LatitudeDegrees>42.78045653365552425384521484375</LatitudeDegrees>
              <LongitudeDegrees>-0.13262794353067874908447265625</LongitudeDegrees>
            </Position>
            <AltitudeMeters>2650.39990234375</AltitudeMeters>
            <DistanceMeters>15152.575892833</DistanceMeters>
          </Trackpoint>
          <Trackpoint>
            <Time>2022-07-09T12:46:17.000Z</Time>
            <Position>
              <LatitudeDegrees>42.78044161386787891387939453125</LatitudeDegrees>
              <LongitudeDegrees>-0.1326280273497104644775390625</LongitudeDegrees>
            </Position>
            <AltitudeMeters>2650.60009765625</AltitudeMeters>
            <DistanceMeters>15154.235463053</DistanceMeters>
          </Trackpoint>
          <Trackpoint>
            <Time>2022-07-09T12:46:21.000Z</Time>
            <Position>
              <LatitudeDegrees>42.7804155461490154266357421875</LatitudeDegrees>
              <LongitudeDegrees>-0.1326126046478748321533203125</LongitudeDegrees>
            </Position>
            <AltitudeMeters>2651.60009765625</AltitudeMeters>
            <DistanceMeters>15157.39858251</DistanceMeters>
          </Trackpoint>
          <Trackpoint>
            <Time>2022-07-09T12:46:23.000Z</Time>
            <Position>
              <LatitudeDegrees>42.78039517812430858612060546875</LatitudeDegrees>
              <LongitudeDegrees>-0.13260229490697383880615234375</LongitudeDegrees>
            </Position>
            <AltitudeMeters>2651.60009765625</AltitudeMeters>
            <DistanceMeters>15159.817567739</DistanceMeters>
          </Trackpoint>
          <Trackpoint>
            <Time>2022-07-09T12:46:28.000Z</Time>
            <Position>
              <LatitudeDegrees>42.780359052121639251708984375</LatitudeDegrees>
              <LongitudeDegrees>-0.132590644061565399169921875</LongitudeDegrees>
            </Position>
            <AltitudeMeters>2652.60009765625</AltitudeMeters>
            <DistanceMeters>15163.95095674</DistanceMeters>
          </Trackpoint>
          <Trackpoint>
            <Time>2022-07-09T12:46:30.000Z</Time>
            <Position>
              <LatitudeDegrees>42.780348993837833404541015625</LatitudeDegrees>
              <LongitudeDegrees>-0.1325871236622333526611328125</LongitudeDegrees>
            </Position>
            <AltitudeMeters>2652.800048828125</AltitudeMeters>
            <DistanceMeters>15165.107006615</DistanceMeters>
          </Trackpoint>
          <Trackpoint>
            <Time>2022-07-09T12:46:36.000Z</Time>
            <Position>
              <LatitudeDegrees>42.78030934743583202362060546875</LatitudeDegrees>
              <LongitudeDegrees>-0.1325603015720844268798828125</LongitudeDegrees>
            </Position>
            <AltitudeMeters>2653.800048828125</AltitudeMeters>
            <DistanceMeters>15170.033754577</DistanceMeters>
          </Trackpoint>
          <Trackpoint>
            <Time>2022-07-09T12:46:39.000Z</Time>
            <Position>
              <LatitudeDegrees>42.78028168715536594390869140625</LatitudeDegrees>
              <LongitudeDegrees>-0.13254831545054912567138671875</LongitudeDegrees>
            </Position>
            <AltitudeMeters>2654.199951171875</AltitudeMeters>
            <DistanceMeters>15173.264662865</DistanceMeters>
          </Trackpoint>
          <Trackpoint>
            <Time>2022-07-09T12:46:44.000Z</Time>
            <Position>
              <LatitudeDegrees>42.78023927472531795501708984375</LatitudeDegrees>
              <LongitudeDegrees>-0.13253071345388889312744140625</LongitudeDegrees>
            </Position>
            <AltitudeMeters>2654.800048828125</AltitudeMeters>
            <DistanceMeters>15178.199651839</DistanceMeters>
          </Trackpoint>
          <Trackpoint>
            <Time>2022-07-09T12:46:46.000Z</Time>
            <Position>
              <LatitudeDegrees>42.78022888116538524627685546875</LatitudeDegrees>
              <LongitudeDegrees>-0.13252501375973224639892578125</LongitudeDegrees>
            </Position>
            <AltitudeMeters>2655</AltitudeMeters>
            <DistanceMeters>15179.445915514</DistanceMeters>
          </Trackpoint>
          <Trackpoint>
            <Time>2022-07-09T12:46:50.000Z</Time>
            <Position>
              <LatitudeDegrees>42.78019937686622142791748046875</LatitudeDegrees>
              <LongitudeDegrees>-0.132524259388446807861328125</LongitudeDegrees>
            </Position>
            <AltitudeMeters>2655.60009765625</AltitudeMeters>
            <DistanceMeters>15182.730872341</DistanceMeters>
          </Trackpoint>
          <Trackpoint>
            <Time>2022-07-09T12:46:52.000Z</Time>
            <Position>
              <LatitudeDegrees>42.78017842210829257965087890625</LatitudeDegrees>
              <LongitudeDegrees>-0.1325292885303497314453125</LongitudeDegrees>
            </Position>
            <AltitudeMeters>2655.800048828125</AltitudeMeters>
            <DistanceMeters>15185.09892586</DistanceMeters>
          </Trackpoint>
          <Trackpoint>
            <Time>2022-07-09T12:46:53.000Z</Time>
            <Position>
              <LatitudeDegrees>42.780167274177074432373046875</LatitudeDegrees>
              <LongitudeDegrees>-0.13253188692033290863037109375</LongitudeDegrees>
            </Position>
            <AltitudeMeters>2656</AltitudeMeters>
            <DistanceMeters>15186.356011131</DistanceMeters>
          </Trackpoint>
          <Trackpoint>
            <Time>2022-07-09T12:46:59.000Z</Time>
            <Position>
              <LatitudeDegrees>42.78013609349727630615234375</LatitudeDegrees>
              <LongitudeDegrees>-0.132490061223506927490234375</LongitudeDegrees>
            </Position>
            <AltitudeMeters>2657.39990234375</AltitudeMeters>
            <DistanceMeters>15191.227462752</DistanceMeters>
          </Trackpoint>
          <Trackpoint>
            <Time>2022-07-09T12:47:00.000Z</Time>
            <Position>
              <LatitudeDegrees>42.7801327407360076904296875</LatitudeDegrees>
              <LongitudeDegrees>-0.13248159550130367279052734375</LongitudeDegrees>
            </Position>
            <AltitudeMeters>2657.60009765625</AltitudeMeters>
            <DistanceMeters>15192.022513285</DistanceMeters>
          </Trackpoint>
          <Trackpoint>
            <Time>2022-07-09T12:47:05.000Z</Time>
            <Position>
              <LatitudeDegrees>42.78009720146656036376953125</LatitudeDegrees>
              <LongitudeDegrees>-0.132435746490955352783203125</LongitudeDegrees>
            </Position>
            <AltitudeMeters>2658.60009765625</AltitudeMeters>
            <DistanceMeters>15197.469790697</DistanceMeters>
          </Trackpoint>
          <Trackpoint>
            <Time>2022-07-09T12:47:07.000Z</Time>
            <Position>
              <LatitudeDegrees>42.78008043766021728515625</LatitudeDegrees>
              <LongitudeDegrees>-0.13241571374237537384033203125</LongitudeDegrees>
            </Position>
            <AltitudeMeters>2659</AltitudeMeters>
            <DistanceMeters>15199.953244383</DistanceMeters>
          </Trackpoint>
          <Trackpoint>
            <Time>2022-07-09T12:47:10.000Z</Time>
            <Position>
              <LatitudeDegrees>42.78006233274936676025390625</LatitudeDegrees>
              <LongitudeDegrees>-0.132416971027851104736328125</LongitudeDegrees>
            </Position>
            <AltitudeMeters>2659.60009765625</AltitudeMeters>
            <DistanceMeters>15201.969065406</DistanceMeters>
          </Trackpoint>
          <Trackpoint>
            <Time>2022-07-09T12:47:11.000Z</Time>
            <Position>
              <LatitudeDegrees>42.78005286119878292083740234375</LatitudeDegrees>
              <LongitudeDegrees>-0.13241571374237537384033203125</LongitudeDegrees>
            </Position>
            <AltitudeMeters>2660</AltitudeMeters>
            <DistanceMeters>15203.031496372</DistanceMeters>
          </Trackpoint>
          <Trackpoint>
            <Time>2022-07-09T12:47:13.000Z</Time>
            <Position>
              <LatitudeDegrees>42.780041210353374481201171875</LatitudeDegrees>
              <LongitudeDegrees>-0.13240716420114040374755859375</LongitudeDegrees>
            </Position>
            <AltitudeMeters>2660.39990234375</AltitudeMeters>
            <DistanceMeters>15204.509765122</DistanceMeters>
          </Trackpoint>
          <Trackpoint>
            <Time>2022-07-09T12:47:14.000Z</Time>
            <Position>
              <LatitudeDegrees>42.78003542684018611907958984375</LatitudeDegrees>
              <LongitudeDegrees>-0.132402889430522918701171875</LongitudeDegrees>
            </Position>
            <AltitudeMeters>2660.60009765625</AltitudeMeters>
            <DistanceMeters>15205.239679165</DistanceMeters>
          </Trackpoint>
          <Trackpoint>
            <Time>2022-07-09T12:47:15.000Z</Time>
            <Position>
              <LatitudeDegrees>42.7800286374986171722412109375</LatitudeDegrees>
              <LongitudeDegrees>-0.132396854460239410400390625</LongitudeDegrees>
            </Position>
            <AltitudeMeters>2660.60009765625</AltitudeMeters>
            <DistanceMeters>15206.146176246</DistanceMeters>
          </Trackpoint>
          <Trackpoint>
            <Time>2022-07-09T12:47:17.000Z</Time>
            <Position>
              <LatitudeDegrees>42.780011706054210662841796875</LatitudeDegrees>
              <LongitudeDegrees>-0.13238687999546527862548828125</LongitudeDegrees>
            </Position>
            <AltitudeMeters>2661</AltitudeMeters>
            <DistanceMeters>15208.199720913</DistanceMeters>
          </Trackpoint>
          <Trackpoint>
            <Time>2022-07-09T12:47:22.000Z</Time>
            <Position>
              <LatitudeDegrees>42.779968120157718658447265625</LatitudeDegrees>
              <LongitudeDegrees>-0.13235502876341342926025390625</LongitudeDegrees>
            </Position>
            <AltitudeMeters>2661.39990234375</AltitudeMeters>
            <DistanceMeters>15213.704712879</DistanceMeters>
          </Trackpoint>
          <Trackpoint>
            <Time>2022-07-09T12:47:24.000Z</Time>
            <Position>
              <LatitudeDegrees>42.7799495123326778411865234375</LatitudeDegrees>
              <LongitudeDegrees>-0.13233457691967487335205078125</LongitudeDegrees>
            </Position>
            <AltitudeMeters>2662</AltitudeMeters>
            <DistanceMeters>15216.365460881</DistanceMeters>
          </Trackpoint>
          <Trackpoint>
            <Time>2022-07-09T12:47:29.000Z</Time>
            <Position>
              <LatitudeDegrees>42.7799310721457004547119140625</LatitudeDegrees>
              <LongitudeDegrees>-0.13229836709797382354736328125</LongitudeDegrees>
            </Position>
            <AltitudeMeters>2663</AltitudeMeters>
            <DistanceMeters>15219.966459322</DistanceMeters>
          </Trackpoint>
          <Trackpoint>
            <Time>2022-07-09T12:47:30.000Z</Time>
            <Position>
              <LatitudeDegrees>42.77992545627057552337646484375</LatitudeDegrees>
              <LongitudeDegrees>-0.13230171985924243927001953125</LongitudeDegrees>
            </Position>
            <AltitudeMeters>2663.199951171875</AltitudeMeters>
            <DistanceMeters>15220.645085802</DistanceMeters>
          </Trackpoint>
          <Trackpoint>
            <Time>2022-07-09T12:47:31.000Z</Time>
            <Position>
              <LatitudeDegrees>42.7799179963767528533935546875</LatitudeDegrees>
              <LongitudeDegrees>-0.13230465352535247802734375</LongitudeDegrees>
            </Position>
            <AltitudeMeters>2663.39990234375</AltitudeMeters>
            <DistanceMeters>15221.505589299</DistanceMeters>
          </Trackpoint>
          <Trackpoint>
            <Time>2022-07-09T12:47:37.000Z</Time>
            <Position>
              <LatitudeDegrees>42.77988488785922527313232421875</LatitudeDegrees>
              <LongitudeDegrees>-0.1322890631854534149169921875</LongitudeDegrees>
            </Position>
            <AltitudeMeters>2664.199951171875</AltitudeMeters>
            <DistanceMeters>15225.402843278</DistanceMeters>
          </Trackpoint>
          <Trackpoint>
            <Time>2022-07-09T12:47:38.000Z</Time>
            <Position>
              <LatitudeDegrees>42.77987834997475147247314453125</LatitudeDegrees>
              <LongitudeDegrees>-0.13228277675807476043701171875</LongitudeDegrees>
            </Position>
            <AltitudeMeters>2664.60009765625</AltitudeMeters>
            <DistanceMeters>15226.294272875</DistanceMeters>
          </Trackpoint>
          <Trackpoint>
            <Time>2022-07-09T12:47:40.000Z</Time>
            <Position>
              <LatitudeDegrees>42.77986560948193073272705078125</LatitudeDegrees>
              <LongitudeDegrees>-0.1322679407894611358642578125</LongitudeDegrees>
            </Position>
            <AltitudeMeters>2664.800048828125</AltitudeMeters>
            <DistanceMeters>15228.158831652</DistanceMeters>
          </Trackpoint>
          <Trackpoint>
            <Time>2022-07-09T12:47:46.000Z</Time>
            <Position>
              <LatitudeDegrees>42.779825963079929351806640625</LatitudeDegrees>
              <LongitudeDegrees>-0.13224539346992969512939453125</LongitudeDegrees>
            </Position>
            <AltitudeMeters>2665.39990234375</AltitudeMeters>
            <DistanceMeters>15232.940479229</DistanceMeters>
          </Trackpoint>
          <Trackpoint>
            <Time>2022-07-09T12:47:48.000Z</Time>
            <Position>
              <LatitudeDegrees>42.77980945073068141937255859375</LatitudeDegrees>
              <LongitudeDegrees>-0.13225042261183261871337890625</LongitudeDegrees>
            </Position>
            <AltitudeMeters>2665.39990234375</AltitudeMeters>
            <DistanceMeters>15234.821912185</DistanceMeters>
          </Trackpoint>
          <Trackpoint>
            <Time>2022-07-09T12:47:50.000Z</Time>
            <Position>
              <LatitudeDegrees>42.779797129333019256591796875</LatitudeDegrees>
              <LongitudeDegrees>-0.1322468183934688568115234375</LongitudeDegrees>
            </Position>
            <AltitudeMeters>2665.60009765625</AltitudeMeters>
            <DistanceMeters>15236.224964808</DistanceMeters>
          </Trackpoint>
          <Trackpoint>
            <Time>2022-07-09T12:47:56.000Z</Time>
            <Position>
              <LatitudeDegrees>42.779773660004138946533203125</LatitudeDegrees>
              <LongitudeDegrees>-0.13220264576375484466552734375</LongitudeDegrees>
            </Position>
            <AltitudeMeters>2666.39990234375</AltitudeMeters>
            <DistanceMeters>15240.679072794</DistanceMeters>
          </Trackpoint>
          <Trackpoint>
            <Time>2022-07-09T12:47:57.000Z</Time>
            <Position>
              <LatitudeDegrees>42.77976837940514087677001953125</LatitudeDegrees>
              <LongitudeDegrees>-0.13219493441283702850341796875</LongitudeDegrees>
            </Position>
            <AltitudeMeters>2666.800048828125</AltitudeMeters>
            <DistanceMeters>15241.539576291</DistanceMeters>
          </Trackpoint>
          <Trackpoint>
            <Time>2022-07-09T12:48:01.000Z</Time>
            <Position>
              <LatitudeDegrees>42.779750525951385498046875</LatitudeDegrees>
              <LongitudeDegrees>-0.13217465020716190338134765625</LongitudeDegrees>
            </Position>
            <AltitudeMeters>2667.800048828125</AltitudeMeters>
            <DistanceMeters>15244.124582397</DistanceMeters>
          </Trackpoint>
          <Trackpoint>
            <Time>2022-07-09T12:48:05.000Z</Time>
            <Position>
              <LatitudeDegrees>42.77971875853836536407470703125</LatitudeDegrees>
              <LongitudeDegrees>-0.1321556232869625091552734375</LongitudeDegrees>
            </Position>
            <AltitudeMeters>2668.39990234375</AltitudeMeters>
            <DistanceMeters>15247.985755303</DistanceMeters>
          </Trackpoint>
          <Trackpoint>
            <Time>2022-07-09T12:48:09.000Z</Time>
            <Position>
              <LatitudeDegrees>42.77968816459178924560546875</LatitudeDegrees>
              <LongitudeDegrees>-0.13213357888162136077880859375</LongitudeDegrees>
            </Position>
            <AltitudeMeters>2668.800048828125</AltitudeMeters>
            <DistanceMeters>15251.837562099</DistanceMeters>
          </Trackpoint>
          <Trackpoint>
            <Time>2022-07-09T12:48:14.000Z</Time>
            <Position>
              <LatitudeDegrees>42.779667712748050689697265625</LatitudeDegrees>
              <LongitudeDegrees>-0.13210885226726531982421875</LongitudeDegrees>
            </Position>
            <AltitudeMeters>2670</AltitudeMeters>
            <DistanceMeters>15254.881385096</DistanceMeters>
          </Trackpoint>
          <Trackpoint>
            <Time>2022-07-09T12:48:19.000Z</Time>
            <Position>
              <LatitudeDegrees>42.779648602008819580078125</LatitudeDegrees>
              <LongitudeDegrees>-0.13205965049564838409423828125</LongitudeDegrees>
            </Position>
            <AltitudeMeters>2671</AltitudeMeters>
            <DistanceMeters>15259.427795216</DistanceMeters>
          </Trackpoint>
          <Trackpoint>
            <Time>2022-07-09T12:48:23.000Z</Time>
            <Position>
              <LatitudeDegrees>42.7796216122806072235107421875</LatitudeDegrees>
              <LongitudeDegrees>-0.13204271905124187469482421875</LongitudeDegrees>
            </Position>
            <AltitudeMeters>2671.60009765625</AltitudeMeters>
            <DistanceMeters>15262.733304631</DistanceMeters>
          </Trackpoint>
          <Trackpoint>
            <Time>2022-07-09T12:48:26.000Z</Time>
            <Position>
              <LatitudeDegrees>42.77961130253970623016357421875</LatitudeDegrees>
              <LongitudeDegrees>-0.1320178247988224029541015625</LongitudeDegrees>
            </Position>
            <AltitudeMeters>2672</AltitudeMeters>
            <DistanceMeters>15265.068720263</DistanceMeters>
          </Trackpoint>
          <Trackpoint>
            <Time>2022-07-09T12:48:27.000Z</Time>
            <Position>
              <LatitudeDegrees>42.77960778214037418365478515625</LatitudeDegrees>
              <LongitudeDegrees>-0.13201095163822174072265625</LongitudeDegrees>
            </Position>
            <AltitudeMeters>2672.199951171875</AltitudeMeters>
            <DistanceMeters>15265.753967645</DistanceMeters>
          </Trackpoint>
          <Trackpoint>
            <Time>2022-07-09T12:48:28.000Z</Time>
            <Position>
              <LatitudeDegrees>42.77960493229329586029052734375</LatitudeDegrees>
              <LongitudeDegrees>-0.13200650922954082489013671875</LongitudeDegrees>
            </Position>
            <AltitudeMeters>2672.800048828125</AltitudeMeters>
            <DistanceMeters>15266.238510716</DistanceMeters>
          </Trackpoint>
          <Trackpoint>
            <Time>2022-07-09T12:48:30.000Z</Time>
            <Position>
              <LatitudeDegrees>42.7796021662652492523193359375</LatitudeDegrees>
              <LongitudeDegrees>-0.13200365938246250152587890625</LongitudeDegrees>
            </Position>
            <AltitudeMeters>2673.39990234375</AltitudeMeters>
            <DistanceMeters>15266.618617574</DistanceMeters>
          </Trackpoint>
          <Trackpoint>
            <Time>2022-07-09T12:48:32.000Z</Time>
            <Position>
              <LatitudeDegrees>42.77960057370364665985107421875</LatitudeDegrees>
              <LongitudeDegrees>-0.131995864212512969970703125</LongitudeDegrees>
            </Position>
            <AltitudeMeters>2673.800048828125</AltitudeMeters>
            <DistanceMeters>15267.276981963</DistanceMeters>
          </Trackpoint>
          <Trackpoint>
            <Time>2022-07-09T12:48:36.000Z</Time>
            <Position>
              <LatitudeDegrees>42.77959403581917285919189453125</LatitudeDegrees>
              <LongitudeDegrees>-0.13197365216910839080810546875</LongitudeDegrees>
            </Position>
            <AltitudeMeters>2674.60009765625</AltitudeMeters>
            <DistanceMeters>15269.233701772</DistanceMeters>
          </Trackpoint>
          <Trackpoint>
            <Time>2022-07-09T12:48:39.000Z</Time>
            <Position>
              <LatitudeDegrees>42.7796004898846149444580078125</LatitudeDegrees>
              <LongitudeDegrees>-0.131961666047573089599609375</LongitudeDegrees>
            </Position>
            <AltitudeMeters>2674.60009765625</AltitudeMeters>
            <DistanceMeters>15270.450637488</DistanceMeters>
          </Trackpoint>
          <Trackpoint>
            <Time>2022-07-09T12:48:42.000Z</Time>
            <Position>
              <LatitudeDegrees>42.77961633168160915374755859375</LatitudeDegrees>
              <LongitudeDegrees>-0.13195370323956012725830078125</LongitudeDegrees>
            </Position>
            <AltitudeMeters>2675.60009765625</AltitudeMeters>
            <DistanceMeters>15272.332070444</DistanceMeters>
          </Trackpoint>
          <Trackpoint>
            <Time>2022-07-09T12:48:45.000Z</Time>
            <Position>
              <LatitudeDegrees>42.7796330116689205169677734375</LatitudeDegrees>
              <LongitudeDegrees>-0.1319343410432338714599609375</LongitudeDegrees>
            </Position>
            <AltitudeMeters>2676.60009765625</AltitudeMeters>
            <DistanceMeters>15274.771500782</DistanceMeters>
          </Trackpoint>
          <Trackpoint>
            <Time>2022-07-09T12:48:46.000Z</Time>
            <Position>
              <LatitudeDegrees>42.77963594533503055572509765625</LatitudeDegrees>
              <LongitudeDegrees>-0.13192252255976200103759765625</LongitudeDegrees>
            </Position>
            <AltitudeMeters>2677</AltitudeMeters>
            <DistanceMeters>15275.786108448</DistanceMeters>
          </Trackpoint>
          <Trackpoint>
            <Time>2022-07-09T12:48:47.000Z</Time>
            <Position>
              <LatitudeDegrees>42.7796366997063159942626953125</LatitudeDegrees>
              <LongitudeDegrees>-0.131913721561431884765625</LongitudeDegrees>
            </Position>
            <AltitudeMeters>2677.60009765625</AltitudeMeters>
            <DistanceMeters>15276.509810343</DistanceMeters>
          </Trackpoint>
          <Trackpoint>
            <Time>2022-07-09T12:48:52.000Z</Time>
            <Position>
              <LatitudeDegrees>42.77963493950664997100830078125</LatitudeDegrees>
              <LongitudeDegrees>-0.131906010210514068603515625</LongitudeDegrees>
            </Position>
            <AltitudeMeters>2678.39990234375</AltitudeMeters>
            <DistanceMeters>15277.168174733</DistanceMeters>
          </Trackpoint>
          <Trackpoint>
            <Time>2022-07-09T12:48:57.000Z</Time>
            <Position>
              <LatitudeDegrees>42.77961432002484798431396484375</LatitudeDegrees>
              <LongitudeDegrees>-0.13189016841351985931396484375</LongitudeDegrees>
            </Position>
            <AltitudeMeters>2678.800048828125</AltitudeMeters>
            <DistanceMeters>15279.801632291</DistanceMeters>
          </Trackpoint>
          <Trackpoint>
            <Time>2022-07-09T12:49:00.000Z</Time>
            <Position>
              <LatitudeDegrees>42.77961197309195995330810546875</LatitudeDegrees>
              <LongitudeDegrees>-0.1318833790719509124755859375</LongitudeDegrees>
            </Position>
            <AltitudeMeters>2679</AltitudeMeters>
            <DistanceMeters>15280.417475786</DistanceMeters>
          </Trackpoint>
          <Trackpoint>
            <Time>2022-07-09T12:49:05.000Z</Time>
            <Position>
              <LatitudeDegrees>42.7796212770044803619384765625</LatitudeDegrees>
              <LongitudeDegrees>-0.131857395172119140625</LongitudeDegrees>
            </Position>
            <AltitudeMeters>2680</AltitudeMeters>
            <DistanceMeters>15282.779802445</DistanceMeters>
          </Trackpoint>
          <Trackpoint>
            <Time>2022-07-09T12:49:07.000Z</Time>
            <Position>
              <LatitudeDegrees>42.779622115194797515869140625</LatitudeDegrees>
              <LongitudeDegrees>-0.1318421401083469390869140625</LongitudeDegrees>
            </Position>
            <AltitudeMeters>2680.60009765625</AltitudeMeters>
            <DistanceMeters>15284.02606612</DistanceMeters>
          </Trackpoint>
          <Trackpoint>
            <Time>2022-07-09T12:49:08.000Z</Time>
            <Position>
              <LatitudeDegrees>42.77962236665189266204833984375</LatitudeDegrees>
              <LongitudeDegrees>-0.13183434493839740753173828125</LongitudeDegrees>
            </Position>
            <AltitudeMeters>2681.199951171875</AltitudeMeters>
            <DistanceMeters>15284.663524699</DistanceMeters>
          </Trackpoint>
          <Trackpoint>
            <Time>2022-07-09T12:49:12.000Z</Time>
            <Position>
              <LatitudeDegrees>42.779614068567752838134765625</LatitudeDegrees>
              <LongitudeDegrees>-0.13182319700717926025390625</LongitudeDegrees>
            </Position>
            <AltitudeMeters>2682.199951171875</AltitudeMeters>
            <DistanceMeters>15285.962995474</DistanceMeters>
          </Trackpoint>
          <Trackpoint>
            <Time>2022-07-09T12:49:14.000Z</Time>
            <Position>
              <LatitudeDegrees>42.77961281128227710723876953125</LatitudeDegrees>
              <LongitudeDegrees>-0.13182965107262134552001953125</LongitudeDegrees>
            </Position>
            <AltitudeMeters>2682.39990234375</AltitudeMeters>
            <DistanceMeters>15286.500547747</DistanceMeters>
          </Trackpoint>
          <Trackpoint>
            <Time>2022-07-09T12:49:20.000Z</Time>
            <Position>
              <LatitudeDegrees>42.77957509271800518035888671875</LatitudeDegrees>
              <LongitudeDegrees>-0.13181917369365692138671875</LongitudeDegrees>
            </Position>
            <AltitudeMeters>2682.800048828125</AltitudeMeters>
            <DistanceMeters>15290.785188387</DistanceMeters>
          </Trackpoint>
          <Trackpoint>
            <Time>2022-07-09T12:49:22.000Z</Time>
            <Position>
              <LatitudeDegrees>42.77956922538578510284423828125</LatitudeDegrees>
              <LongitudeDegrees>-0.13181439600884914398193359375</LongitudeDegrees>
            </Position>
            <AltitudeMeters>2683</AltitudeMeters>
            <DistanceMeters>15291.545402102</DistanceMeters>
          </Trackpoint>
          <Trackpoint>
            <Time>2022-07-09T12:49:25.000Z</Time>
            <Position>
              <LatitudeDegrees>42.77956251986324787139892578125</LatitudeDegrees>
              <LongitudeDegrees>-0.1318009011447429656982421875</LongitudeDegrees>
            </Position>
            <AltitudeMeters>2683.39990234375</AltitudeMeters>
            <DistanceMeters>15292.882546498</DistanceMeters>
          </Trackpoint>
          <Trackpoint>
            <Time>2022-07-09T12:49:29.000Z</Time>
            <Position>
              <LatitudeDegrees>42.7795522101223468780517578125</LatitudeDegrees>
              <LongitudeDegrees>-0.13177466578781604766845703125</LongitudeDegrees>
            </Position>
            <AltitudeMeters>2684.199951171875</AltitudeMeters>
            <DistanceMeters>15295.314562137</DistanceMeters>
          </Trackpoint>
          <Trackpoint>
            <Time>2022-07-09T12:49:32.000Z</Time>
            <Position>
              <LatitudeDegrees>42.77955003082752227783203125</LatitudeDegrees>
              <LongitudeDegrees>-0.13175941072404384613037109375</LongitudeDegrees>
            </Position>
            <AltitudeMeters>2684.39990234375</AltitudeMeters>
            <DistanceMeters>15296.589479295</DistanceMeters>
          </Trackpoint>
          <Trackpoint>
            <Time>2022-07-09T12:49:36.000Z</Time>
            <Position>
              <LatitudeDegrees>42.7795522101223468780517578125</LatitudeDegrees>
              <LongitudeDegrees>-0.131751112639904022216796875</LongitudeDegrees>
            </Position>
            <AltitudeMeters>2685.60009765625</AltitudeMeters>
            <DistanceMeters>15297.313181191</DistanceMeters>
          </Trackpoint>
          <Trackpoint>
            <Time>2022-07-09T12:49:40.000Z</Time>
            <Position>
              <LatitudeDegrees>42.77955095283687114715576171875</LatitudeDegrees>
              <LongitudeDegrees>-0.13175136409699916839599609375</LongitudeDegrees>
            </Position>
            <AltitudeMeters>2686.60009765625</AltitudeMeters>
            <DistanceMeters>15297.447569259</DistanceMeters>
          </Trackpoint>
          <Trackpoint>
            <Time>2022-07-09T12:49:43.000Z</Time>
            <Position>
              <LatitudeDegrees>42.77954877354204654693603515625</LatitudeDegrees>
              <LongitudeDegrees>-0.131758153438568115234375</LongitudeDegrees>
            </Position>
            <AltitudeMeters>2687.60009765625</AltitudeMeters>
            <DistanceMeters>15298.048570971</DistanceMeters>
          </Trackpoint>
          <Trackpoint>
            <Time>2022-07-09T12:49:44.000Z</Time>
            <Position>
              <LatitudeDegrees>42.7795512042939662933349609375</LatitudeDegrees>
              <LongitudeDegrees>-0.1317633502185344696044921875</LongitudeDegrees>
            </Position>
            <AltitudeMeters>2688.199951171875</AltitudeMeters>
            <DistanceMeters>15298.551405079</DistanceMeters>
          </Trackpoint>
          <Trackpoint>
            <Time>2022-07-09T12:49:47.000Z</Time>
            <Position>
              <LatitudeDegrees>42.7795679681003093719482421875</LatitudeDegrees>
              <LongitudeDegrees>-0.13176443986594676971435546875</LongitudeDegrees>
            </Position>
            <AltitudeMeters>2689.199951171875</AltitudeMeters>
            <DistanceMeters>15300.41838379</DistanceMeters>
          </Trackpoint>
          <Trackpoint>
            <Time>2022-07-09T12:49:49.000Z</Time>
            <Position>
              <LatitudeDegrees>42.779579199850559234619140625</LatitudeDegrees>
              <LongitudeDegrees>-0.131742060184478759765625</LongitudeDegrees>
            </Position>
            <AltitudeMeters>2689.800048828125</AltitudeMeters>
            <DistanceMeters>15302.630690603</DistanceMeters>
          </Trackpoint>
          <Trackpoint>
            <Time>2022-07-09T12:49:51.000Z</Time>
            <Position>
              <LatitudeDegrees>42.77958565391600131988525390625</LatitudeDegrees>
              <LongitudeDegrees>-0.13171649537980556488037109375</LongitudeDegrees>
            </Position>
            <AltitudeMeters>2690.199951171875</AltitudeMeters>
            <DistanceMeters>15304.838911896</DistanceMeters>
          </Trackpoint>
          <Trackpoint>
            <Time>2022-07-09T12:49:55.000Z</Time>
            <Position>
              <LatitudeDegrees>42.7795936167240142822265625</LatitudeDegrees>
              <LongitudeDegrees>-0.13169537298381328582763671875</LongitudeDegrees>
            </Position>
            <AltitudeMeters>2690.800048828125</AltitudeMeters>
            <DistanceMeters>15306.77708418</DistanceMeters>
          </Trackpoint>
          <Trackpoint>
            <Time>2022-07-09T12:49:59.000Z</Time>
            <Position>
              <LatitudeDegrees>42.77958448044955730438232421875</LatitudeDegrees>
              <LongitudeDegrees>-0.13166251592338085174560546875</LongitudeDegrees>
            </Position>
            <AltitudeMeters>2691.39990234375</AltitudeMeters>
            <DistanceMeters>15309.646828021</DistanceMeters>
          </Trackpoint>
          <Trackpoint>
            <Time>2022-07-09T12:50:03.000Z</Time>
            <Position>
              <LatitudeDegrees>42.77958984486758708953857421875</LatitudeDegrees>
              <LongitudeDegrees>-0.13165648095309734344482421875</LongitudeDegrees>
            </Position>
            <AltitudeMeters>2692.60009765625</AltitudeMeters>
            <DistanceMeters>15310.424655201</DistanceMeters>
          </Trackpoint>
          <Trackpoint>
            <Time>2022-07-09T12:50:04.000Z</Time>
            <Position>
              <LatitudeDegrees>42.7795894257724285125732421875</LatitudeDegrees>
              <LongitudeDegrees>-0.13164944015443325042724609375</LongitudeDegrees>
            </Position>
            <AltitudeMeters>2692.800048828125</AltitudeMeters>
            <DistanceMeters>15311.01043921</DistanceMeters>
          </Trackpoint>
          <Trackpoint>
            <Time>2022-07-09T12:50:09.000Z</Time>
            <Position>
              <LatitudeDegrees>42.77962136082351207733154296875</LatitudeDegrees>
              <LongitudeDegrees>-0.13163418509066104888916015625</LongitudeDegrees>
            </Position>
            <AltitudeMeters>2693.60009765625</AltitudeMeters>
            <DistanceMeters>15314.778101638</DistanceMeters>
          </Trackpoint>
          <Trackpoint>
            <Time>2022-07-09T12:50:11.000Z</Time>
            <Position>
              <LatitudeDegrees>42.7796246297657489776611328125</LatitudeDegrees>
              <LongitudeDegrees>-0.13163133524358272552490234375</LongitudeDegrees>
            </Position>
            <AltitudeMeters>2694.39990234375</AltitudeMeters>
            <DistanceMeters>15315.203074024</DistanceMeters>
          </Trackpoint>
          <Trackpoint>
            <Time>2022-07-09T12:50:14.000Z</Time>
            <Position>
              <LatitudeDegrees>42.77961616404354572296142578125</LatitudeDegrees>
              <LongitudeDegrees>-0.13163016177713871002197265625</LongitudeDegrees>
            </Position>
            <AltitudeMeters>2694.800048828125</AltitudeMeters>
            <DistanceMeters>15316.143790501</DistanceMeters>
          </Trackpoint>
          <Trackpoint>
            <Time>2022-07-09T12:50:17.000Z</Time>
            <Position>
              <LatitudeDegrees>42.77959831058979034423828125</LatitudeDegrees>
              <LongitudeDegrees>-0.131617672741413116455078125</LongitudeDegrees>
            </Position>
            <AltitudeMeters>2694.800048828125</AltitudeMeters>
            <DistanceMeters>15318.376412771</DistanceMeters>
          </Trackpoint>
          <Trackpoint>
            <Time>2022-07-09T12:50:23.000Z</Time>
            <Position>
              <LatitudeDegrees>42.77957894839346408843994140625</LatitudeDegrees>
              <LongitudeDegrees>-0.13161339797079563140869140625</LongitudeDegrees>
            </Position>
            <AltitudeMeters>2695.800048828125</AltitudeMeters>
            <DistanceMeters>15320.557891692</DistanceMeters>
          </Trackpoint>
          <Trackpoint>
            <Time>2022-07-09T12:50:24.000Z</Time>
            <Position>
              <LatitudeDegrees>42.77957626618444919586181640625</LatitudeDegrees>
              <LongitudeDegrees>-0.13160870410501956939697265625</LongitudeDegrees>
            </Position>
            <AltitudeMeters>2695.800048828125</AltitudeMeters>
            <DistanceMeters>15321.033025264</DistanceMeters>
          </Trackpoint>
          <Trackpoint>
            <Time>2022-07-09T12:50:30.000Z</Time>
            <Position>
              <LatitudeDegrees>42.77957626618444919586181640625</LatitudeDegrees>
              <LongitudeDegrees>-0.131553299725055694580078125</LongitudeDegrees>
            </Position>
            <AltitudeMeters>2696.800048828125</AltitudeMeters>
            <DistanceMeters>15325.558532239</DistanceMeters>
          </Trackpoint>
          <Trackpoint>
            <Time>2022-07-09T12:50:31.000Z</Time>
            <Position>
              <LatitudeDegrees>42.77957961894571781158447265625</LatitudeDegrees>
              <LongitudeDegrees>-0.1315447501838207244873046875</LongitudeDegrees>
            </Position>
            <AltitudeMeters>2697</AltitudeMeters>
            <DistanceMeters>15326.353582772</DistanceMeters>
          </Trackpoint>
          <Trackpoint>
            <Time>2022-07-09T12:50:37.000Z</Time>
            <Position>
              <LatitudeDegrees>42.77960660867393016815185546875</LatitudeDegrees>
              <LongitudeDegrees>-0.1315722428262233734130859375</LongitudeDegrees>
            </Position>
            <AltitudeMeters>2698</AltitudeMeters>
            <DistanceMeters>15330.104430556</DistanceMeters>
          </Trackpoint>
          <Trackpoint>
            <Time>2022-07-09T12:50:39.000Z</Time>
            <Position>
              <LatitudeDegrees>42.77962035499513149261474609375</LatitudeDegrees>
              <LongitudeDegrees>-0.13157467357814311981201171875</LongitudeDegrees>
            </Position>
            <AltitudeMeters>2699</AltitudeMeters>
            <DistanceMeters>15331.645504891</DistanceMeters>
          </Trackpoint>
          <Trackpoint>
            <Time>2022-07-09T12:50:40.000Z</Time>
            <Position>
              <LatitudeDegrees>42.779624126851558685302734375</LatitudeDegrees>
              <LongitudeDegrees>-0.1315717399120330810546875</LongitudeDegrees>
            </Position>
            <AltitudeMeters>2699.199951171875</AltitudeMeters>
            <DistanceMeters>15332.120638463</DistanceMeters>
          </Trackpoint>
          <Trackpoint>
            <Time>2022-07-09T12:50:46.000Z</Time>
            <Position>
              <LatitudeDegrees>42.7796078659594058990478515625</LatitudeDegrees>
              <LongitudeDegrees>-0.13152589090168476104736328125</LongitudeDegrees>
            </Position>
            <AltitudeMeters>2700</AltitudeMeters>
            <DistanceMeters>15336.280160847</DistanceMeters>
          </Trackpoint>
          <Trackpoint>
            <Time>2022-07-09T12:50:52.000Z</Time>
            <Position>
              <LatitudeDegrees>42.77956654317677021026611328125</LatitudeDegrees>
              <LongitudeDegrees>-0.13149253092706203460693359375</LongitudeDegrees>
            </Position>
            <AltitudeMeters>2700</AltitudeMeters>
            <DistanceMeters>15341.627049851</DistanceMeters>
          </Trackpoint>
          <Trackpoint>
            <Time>2022-07-09T12:50:54.000Z</Time>
            <Position>
              <LatitudeDegrees>42.7795560657978057861328125</LatitudeDegrees>
              <LongitudeDegrees>-0.1314912736415863037109375</LongitudeDegrees>
            </Position>
            <AltitudeMeters>2700.39990234375</AltitudeMeters>
            <DistanceMeters>15342.798617869</DistanceMeters>
          </Trackpoint>
          <Trackpoint>
            <Time>2022-07-09T12:51:00.000Z</Time>
            <Position>
              <LatitudeDegrees>42.779514491558074951171875</LatitudeDegrees>
              <LongitudeDegrees>-0.13146755285561084747314453125</LongitudeDegrees>
            </Position>
            <AltitudeMeters>2701</AltitudeMeters>
            <DistanceMeters>15347.816172365</DistanceMeters>
          </Trackpoint>
          <Trackpoint>
            <Time>2022-07-09T12:51:01.000Z</Time>
            <Position>
              <LatitudeDegrees>42.77950569055974483489990234375</LatitudeDegrees>
              <LongitudeDegrees>-0.13146671466529369354248046875</LongitudeDegrees>
            </Position>
            <AltitudeMeters>2701.199951171875</AltitudeMeters>
            <DistanceMeters>15348.803718949</DistanceMeters>
          </Trackpoint>
          <Trackpoint>
            <Time>2022-07-09T12:51:03.000Z</Time>
            <Position>
              <LatitudeDegrees>42.77948523871600627899169921875</LatitudeDegrees>
              <LongitudeDegrees>-0.1314669661223888397216796875</LongitudeDegrees>
            </Position>
            <AltitudeMeters>2701.800048828125</AltitudeMeters>
            <DistanceMeters>15351.080397205</DistanceMeters>
          </Trackpoint>
          <Trackpoint>
            <Time>2022-07-09T12:51:09.000Z</Time>
            <Position>
              <LatitudeDegrees>42.77943670749664306640625</LatitudeDegrees>
              <LongitudeDegrees>-0.13145531527698040008544921875</LongitudeDegrees>
            </Position>
            <AltitudeMeters>2702.60009765625</AltitudeMeters>
            <DistanceMeters>15356.564023246</DistanceMeters>
          </Trackpoint>
          <Trackpoint>
            <Time>2022-07-09T12:51:10.000Z</Time>
            <Position>
              <LatitudeDegrees>42.77943142689764499664306640625</LatitudeDegrees>
              <LongitudeDegrees>-0.131454728543758392333984375</LongitudeDegrees>
            </Position>
            <AltitudeMeters>2703</AltitudeMeters>
            <DistanceMeters>15357.149807255</DistanceMeters>
          </Trackpoint>
          <Trackpoint>
            <Time>2022-07-09T12:51:15.000Z</Time>
            <Position>
              <LatitudeDegrees>42.77940946631133556365966796875</LatitudeDegrees>
              <LongitudeDegrees>-0.1314411498606204986572265625</LongitudeDegrees>
            </Position>
            <AltitudeMeters>2704</AltitudeMeters>
            <DistanceMeters>15359.834206816</DistanceMeters>
          </Trackpoint>
          <Trackpoint>
            <Time>2022-07-09T12:51:16.000Z</Time>
            <Position>
              <LatitudeDegrees>42.779401503503322601318359375</LatitudeDegrees>
              <LongitudeDegrees>-0.13143695890903472900390625</LongitudeDegrees>
            </Position>
            <AltitudeMeters>2704.199951171875</AltitudeMeters>
            <DistanceMeters>15360.784473959</DistanceMeters>
          </Trackpoint>
          <Trackpoint>
            <Time>2022-07-09T12:51:22.000Z</Time>
            <Position>
              <LatitudeDegrees>42.77938012965023517608642578125</LatitudeDegrees>
              <LongitudeDegrees>-0.13139932416379451751708984375</LongitudeDegrees>
            </Position>
            <AltitudeMeters>2705</AltitudeMeters>
            <DistanceMeters>15364.672448749</DistanceMeters>
          </Trackpoint>
          <Trackpoint>
            <Time>2022-07-09T12:51:23.000Z</Time>
            <Position>
              <LatitudeDegrees>42.7793748490512371063232421875</LatitudeDegrees>
              <LongitudeDegrees>-0.13139982707798480987548828125</LongitudeDegrees>
            </Position>
            <AltitudeMeters>2705.199951171875</AltitudeMeters>
            <DistanceMeters>15365.258232758</DistanceMeters>
          </Trackpoint>
          <Trackpoint>
            <Time>2022-07-09T12:51:29.000Z</Time>
            <Position>
              <LatitudeDegrees>42.779342830181121826171875</LatitudeDegrees>
              <LongitudeDegrees>-0.13138675130903720855712890625</LongitudeDegrees>
            </Position>
            <AltitudeMeters>2706</AltitudeMeters>
            <DistanceMeters>15368.977651679</DistanceMeters>
          </Trackpoint>
          <Trackpoint>
            <Time>2022-07-09T12:51:30.000Z</Time>
            <Position>
              <LatitudeDegrees>42.77934274636209011077880859375</LatitudeDegrees>
              <LongitudeDegrees>-0.13138775713741779327392578125</LongitudeDegrees>
            </Position>
            <AltitudeMeters>2706.199951171875</AltitudeMeters>
            <DistanceMeters>15369.072678394</DistanceMeters>
          </Trackpoint>
          <Trackpoint>
            <Time>2022-07-09T12:51:31.000Z</Time>
            <Position>
              <LatitudeDegrees>42.77934459038078784942626953125</LatitudeDegrees>
              <LongitudeDegrees>-0.13139270246028900146484375</LongitudeDegrees>
            </Position>
            <AltitudeMeters>2706.39990234375</AltitudeMeters>
            <DistanceMeters>15369.538212318</DistanceMeters>
          </Trackpoint>
          <Trackpoint>
            <Time>2022-07-09T12:51:37.000Z</Time>
            <Position>
              <LatitudeDegrees>42.77931491844356060028076171875</LatitudeDegrees>
              <LongitudeDegrees>-0.13137501664459705352783203125</LongitudeDegrees>
            </Position>
            <AltitudeMeters>2706.800048828125</AltitudeMeters>
            <DistanceMeters>15373.142970285</DistanceMeters>
          </Trackpoint>
          <Trackpoint>
            <Time>2022-07-09T12:51:43.000Z</Time>
            <Position>
              <LatitudeDegrees>42.7793064527213573455810546875</LatitudeDegrees>
              <LongitudeDegrees>-0.13138071633875370025634765625</LongitudeDegrees>
            </Position>
            <AltitudeMeters>2706.800048828125</AltitudeMeters>
            <DistanceMeters>15374.192574652</DistanceMeters>
          </Trackpoint>
          <Trackpoint>
            <Time>2022-07-09T12:51:48.000Z</Time>
            <Position>
              <LatitudeDegrees>42.77928574942052364349365234375</LatitudeDegrees>
              <LongitudeDegrees>-0.13139630667865276336669921875</LongitudeDegrees>
            </Position>
            <AltitudeMeters>2707.199951171875</AltitudeMeters>
            <DistanceMeters>15376.822600993</DistanceMeters>
          </Trackpoint>
          <Trackpoint>
            <Time>2022-07-09T12:51:52.000Z</Time>
            <Position>
              <LatitudeDegrees>42.7792762778699398040771484375</LatitudeDegrees>
              <LongitudeDegrees>-0.13140100054442882537841796875</LongitudeDegrees>
            </Position>
            <AltitudeMeters>2707.199951171875</AltitudeMeters>
            <DistanceMeters>15377.938912128</DistanceMeters>
          </Trackpoint>
          <Trackpoint>
            <Time>2022-07-09T12:51:54.000Z</Time>
            <Position>
              <LatitudeDegrees>42.779274769127368927001953125</LatitudeDegrees>
              <LongitudeDegrees>-0.13140066526830196380615234375</LongitudeDegrees>
            </Position>
            <AltitudeMeters>2707.39990234375</AltitudeMeters>
            <DistanceMeters>15378.073300196</DistanceMeters>
          </Trackpoint>
          <Trackpoint>
            <Time>2022-07-09T12:51:55.000Z</Time>
            <Position>
              <LatitudeDegrees>42.77927518822252750396728515625</LatitudeDegrees>
              <LongitudeDegrees>-0.13140032999217510223388671875</LongitudeDegrees>
            </Position>
            <AltitudeMeters>2707.60009765625</AltitudeMeters>
            <DistanceMeters>15378.073300196</DistanceMeters>
          </Trackpoint>
          <Trackpoint>
            <Time>2022-07-09T12:51:58.000Z</Time>
            <Position>
              <LatitudeDegrees>42.77927703224122524261474609375</LatitudeDegrees>
              <LongitudeDegrees>-0.1314002461731433868408203125</LongitudeDegrees>
            </Position>
            <AltitudeMeters>2707.60009765625</AltitudeMeters>
            <DistanceMeters>15378.263353625</DistanceMeters>
          </Trackpoint>
          <Trackpoint>
            <Time>2022-07-09T12:52:02.000Z</Time>
            <Position>
              <LatitudeDegrees>42.77927099727094173431396484375</LatitudeDegrees>
              <LongitudeDegrees>-0.1314005814492702484130859375</LongitudeDegrees>
            </Position>
            <AltitudeMeters>2707.60009765625</AltitudeMeters>
            <DistanceMeters>15378.935293966</DistanceMeters>
          </Trackpoint>
          <Trackpoint>
            <Time>2022-07-09T12:52:08.000Z</Time>
            <Position>
              <LatitudeDegrees>42.77925842441618442535400390625</LatitudeDegrees>
              <LongitudeDegrees>-0.131385326385498046875</LongitudeDegrees>
            </Position>
            <AltitudeMeters>2707.199951171875</AltitudeMeters>
            <DistanceMeters>15380.81192121</DistanceMeters>
          </Trackpoint>
          <Trackpoint>
            <Time>2022-07-09T12:52:14.000Z</Time>
            <Position>
              <LatitudeDegrees>42.77925674803555011749267578125</LatitudeDegrees>
              <LongitudeDegrees>-0.1314108073711395263671875</LongitudeDegrees>
            </Position>
            <AltitudeMeters>2707.199951171875</AltitudeMeters>
            <DistanceMeters>15382.902508926</DistanceMeters>
          </Trackpoint>
          <Trackpoint>
            <Time>2022-07-09T12:52:17.000Z</Time>
            <Position>
              <LatitudeDegrees>42.779248617589473724365234375</LatitudeDegrees>
              <LongitudeDegrees>-0.1314022578299045562744140625</LongitudeDegrees>
            </Position>
            <AltitudeMeters>2707.39990234375</AltitudeMeters>
            <DistanceMeters>15384.050721084</DistanceMeters>
          </Trackpoint>
          <Trackpoint>
            <Time>2022-07-09T12:52:23.000Z</Time>
            <Position>
              <LatitudeDegrees>42.77924836613237857818603515625</LatitudeDegrees>
              <LongitudeDegrees>-0.13139362446963787078857421875</LongitudeDegrees>
            </Position>
            <AltitudeMeters>2707.60009765625</AltitudeMeters>
            <DistanceMeters>15384.7618359</DistanceMeters>
          </Trackpoint>
          <Trackpoint>
            <Time>2022-07-09T12:52:26.000Z</Time>
            <Position>
              <LatitudeDegrees>42.779260687530040740966796875</LatitudeDegrees>
              <LongitudeDegrees>-0.13139228336513042449951171875</LongitudeDegrees>
            </Position>
            <AltitudeMeters>2707.60009765625</AltitudeMeters>
            <DistanceMeters>15386.132330665</DistanceMeters>
          </Trackpoint>
          <Trackpoint>
            <Time>2022-07-09T12:52:30.000Z</Time>
            <Position>
              <LatitudeDegrees>42.7792588435113430023193359375</LatitudeDegrees>
              <LongitudeDegrees>-0.1313868351280689239501953125</LongitudeDegrees>
            </Position>
            <AltitudeMeters>2707.800048828125</AltitudeMeters>
            <DistanceMeters>15386.616873736</DistanceMeters>
          </Trackpoint>
          <Trackpoint>
            <Time>2022-07-09T12:52:31.000Z</Time>
            <Position>
              <LatitudeDegrees>42.77926077134907245635986328125</LatitudeDegrees>
              <LongitudeDegrees>-0.13138691894710063934326171875</LongitudeDegrees>
            </Position>
            <AltitudeMeters>2707.800048828125</AltitudeMeters>
            <DistanceMeters>15386.849640698</DistanceMeters>
          </Trackpoint>
          <Trackpoint>
            <Time>2022-07-09T12:52:37.000Z</Time>
            <Position>
              <LatitudeDegrees>42.7792668901383876800537109375</LatitudeDegrees>
              <LongitudeDegrees>-0.131391026079654693603515625</LongitudeDegrees>
            </Position>
            <AltitudeMeters>2707.800048828125</AltitudeMeters>
            <DistanceMeters>15387.60389186</DistanceMeters>
          </Trackpoint>
          <Trackpoint>
            <Time>2022-07-09T12:52:43.000Z</Time>
            <Position>
              <LatitudeDegrees>42.779260016977787017822265625</LatitudeDegrees>
              <LongitudeDegrees>-0.1313978992402553558349609375</LongitudeDegrees>
            </Position>
            <AltitudeMeters>2708</AltitudeMeters>
            <DistanceMeters>15388.554159004</DistanceMeters>
          </Trackpoint>
          <Trackpoint>
            <Time>2022-07-09T12:52:48.000Z</Time>
            <Position>
              <LatitudeDegrees>42.7792642079293727874755859375</LatitudeDegrees>
              <LongitudeDegrees>-0.13139429502189159393310546875</LongitudeDegrees>
            </Position>
            <AltitudeMeters>2708.199951171875</AltitudeMeters>
            <DistanceMeters>15389.108255204</DistanceMeters>
          </Trackpoint>
          <Trackpoint>
            <Time>2022-07-09T12:52:51.000Z</Time>
            <Position>
              <LatitudeDegrees>42.77927887625992298126220703125</LatitudeDegrees>
              <LongitudeDegrees>-0.13139194808900356292724609375</LongitudeDegrees>
            </Position>
            <AltitudeMeters>2708.39990234375</AltitudeMeters>
            <DistanceMeters>15390.751420703</DistanceMeters>
          </Trackpoint>
          <Trackpoint>
            <Time>2022-07-09T12:52:57.000Z</Time>
            <Position>
              <LatitudeDegrees>42.77927577495574951171875</LatitudeDegrees>
              <LongitudeDegrees>-0.13139597140252590179443359375</LongitudeDegrees>
            </Position>
            <AltitudeMeters>2709</AltitudeMeters>
            <DistanceMeters>15391.226554275</DistanceMeters>
          </Trackpoint>
          <Trackpoint>
            <Time>2022-07-09T12:53:01.000Z</Time>
            <Position>
              <LatitudeDegrees>42.77925775386393070220947265625</LatitudeDegrees>
              <LongitudeDegrees>-0.1314108073711395263671875</LongitudeDegrees>
            </Position>
            <AltitudeMeters>2709.39990234375</AltitudeMeters>
            <DistanceMeters>15393.56969031</DistanceMeters>
          </Trackpoint>
          <Trackpoint>
            <Time>2022-07-09T12:53:07.000Z</Time>
            <Position>
              <LatitudeDegrees>42.77925674803555011749267578125</LatitudeDegrees>
              <LongitudeDegrees>-0.13141659088432788848876953125</LongitudeDegrees>
            </Position>
            <AltitudeMeters>2709.60009765625</AltitudeMeters>
            <DistanceMeters>15394.054233381</DistanceMeters>
          </Trackpoint>
          <Trackpoint>
            <Time>2022-07-09T12:53:11.000Z</Time>
            <Position>
              <LatitudeDegrees>42.77926764450967311859130859375</LatitudeDegrees>
              <LongitudeDegrees>-0.1314025931060314178466796875</LongitudeDegrees>
            </Position>
            <AltitudeMeters>2709.800048828125</AltitudeMeters>
            <DistanceMeters>15395.72194545</DistanceMeters>
          </Trackpoint>
          <Trackpoint>
            <Time>2022-07-09T12:53:16.000Z</Time>
            <Position>
              <LatitudeDegrees>42.7792685665190219879150390625</LatitudeDegrees>
              <LongitudeDegrees>-0.131396390497684478759765625</LongitudeDegrees>
            </Position>
            <AltitudeMeters>2709.800048828125</AltitudeMeters>
            <DistanceMeters>15396.2424282</DistanceMeters>
          </Trackpoint>
          <Trackpoint>
            <Time>2022-07-09T12:53:21.000Z</Time>
            <Position>
              <LatitudeDegrees>42.779281474649906158447265625</LatitudeDegrees>
              <LongitudeDegrees>-0.13138733804225921630859375</LongitudeDegrees>
            </Position>
            <AltitudeMeters>2710</AltitudeMeters>
            <DistanceMeters>15397.855085019</DistanceMeters>
          </Trackpoint>
          <Trackpoint>
            <Time>2022-07-09T12:53:22.000Z</Time>
            <Position>
              <LatitudeDegrees>42.779287509620189666748046875</LatitudeDegrees>
              <LongitudeDegrees>-0.1313821412622928619384765625</LongitudeDegrees>
            </Position>
            <AltitudeMeters>2710</AltitudeMeters>
            <DistanceMeters>15398.650135552</DistanceMeters>
          </Trackpoint>
          <Trackpoint>
            <Time>2022-07-09T12:53:24.000Z</Time>
            <Position>
              <LatitudeDegrees>42.7792960591614246368408203125</LatitudeDegrees>
              <LongitudeDegrees>-0.13137392699718475341796875</LongitudeDegrees>
            </Position>
            <AltitudeMeters>2710</AltitudeMeters>
            <DistanceMeters>15399.813970363</DistanceMeters>
          </Trackpoint>
          <Trackpoint>
            <Time>2022-07-09T12:53:27.000Z</Time>
            <Position>
              <LatitudeDegrees>42.77929253876209259033203125</LatitudeDegrees>
              <LongitudeDegrees>-0.13136579655110836029052734375</LongitudeDegrees>
            </Position>
            <AltitudeMeters>2710</AltitudeMeters>
            <DistanceMeters>15400.58597104</DistanceMeters>
          </Trackpoint>
          <Trackpoint>
            <Time>2022-07-09T12:53:33.000Z</Time>
            <Position>
              <LatitudeDegrees>42.779278457164764404296875</LatitudeDegrees>
              <LongitudeDegrees>-0.13136210851371288299560546875</LongitudeDegrees>
            </Position>
            <AltitudeMeters>2710</AltitudeMeters>
            <DistanceMeters>15402.181740935</DistanceMeters>
          </Trackpoint>
          <Trackpoint>
            <Time>2022-07-09T12:53:36.000Z</Time>
            <Position>
              <LatitudeDegrees>42.77929211966693401336669921875</LatitudeDegrees>
              <LongitudeDegrees>-0.131377279758453369140625</LongitudeDegrees>
            </Position>
            <AltitudeMeters>2710</AltitudeMeters>
            <DistanceMeters>15404.14307022</DistanceMeters>
          </Trackpoint>
          <Trackpoint>
            <Time>2022-07-09T12:53:39.000Z</Time>
            <Position>
              <LatitudeDegrees>42.779308296740055084228515625</LatitudeDegrees>
              <LongitudeDegrees>-0.1313786208629608154296875</LongitudeDegrees>
            </Position>
            <AltitudeMeters>2710.199951171875</AltitudeMeters>
            <DistanceMeters>15405.946075356</DistanceMeters>
          </Trackpoint>
          <Trackpoint>
            <Time>2022-07-09T12:53:42.000Z</Time>
            <Position>
              <LatitudeDegrees>42.779320366680622100830078125</LatitudeDegrees>
              <LongitudeDegrees>-0.1313737593591213226318359375</LongitudeDegrees>
            </Position>
            <AltitudeMeters>2710.199951171875</AltitudeMeters>
            <DistanceMeters>15407.34590627</DistanceMeters>
          </Trackpoint>
          <Trackpoint>
            <Time>2022-07-09T12:53:48.000Z</Time>
            <Position>
              <LatitudeDegrees>42.7793379686772823333740234375</LatitudeDegrees>
              <LongitudeDegrees>-0.1313767768442630767822265625</LongitudeDegrees>
            </Position>
            <AltitudeMeters>2710.199951171875</AltitudeMeters>
            <DistanceMeters>15409.318712127</DistanceMeters>
          </Trackpoint>
          <Trackpoint>
            <Time>2022-07-09T12:53:52.000Z</Time>
            <Position>
              <LatitudeDegrees>42.77931424789130687713623046875</LatitudeDegrees>
              <LongitudeDegrees>-0.13139136135578155517578125</LongitudeDegrees>
            </Position>
            <AltitudeMeters>2710</AltitudeMeters>
            <DistanceMeters>15412.213519709</DistanceMeters>
          </Trackpoint>
          <Trackpoint>
            <Time>2022-07-09T12:53:56.000Z</Time>
            <Position>
              <LatitudeDegrees>42.7792702428996562957763671875</LatitudeDegrees>
              <LongitudeDegrees>-0.131410472095012664794921875</LongitudeDegrees>
            </Position>
            <AltitudeMeters>2709.800048828125</AltitudeMeters>
            <DistanceMeters>15417.353753524</DistanceMeters>
          </Trackpoint>
          <Trackpoint>
            <Time>2022-07-09T12:54:01.000Z</Time>
            <Position>
              <LatitudeDegrees>42.77927367947995662689208984375</LatitudeDegrees>
              <LongitudeDegrees>-0.13139798305928707122802734375</LongitudeDegrees>
            </Position>
            <AltitudeMeters>2709.60009765625</AltitudeMeters>
            <DistanceMeters>15418.445527352</DistanceMeters>
          </Trackpoint>
          <Trackpoint>
            <Time>2022-07-09T12:54:07.000Z</Time>
            <Position>
              <LatitudeDegrees>42.77930871583521366119384765625</LatitudeDegrees>
              <LongitudeDegrees>-0.131366215646266937255859375</LongitudeDegrees>
            </Position>
            <AltitudeMeters>2709.60009765625</AltitudeMeters>
            <DistanceMeters>15423.130835862</DistanceMeters>
          </Trackpoint>
          <Trackpoint>
            <Time>2022-07-09T12:54:09.000Z</Time>
            <Position>
              <LatitudeDegrees>42.77930720709264278411865234375</LatitudeDegrees>
              <LongitudeDegrees>-0.1313625276088714599609375</LongitudeDegrees>
            </Position>
            <AltitudeMeters>2709.60009765625</AltitudeMeters>
            <DistanceMeters>15423.473459553</DistanceMeters>
          </Trackpoint>
          <Trackpoint>
            <Time>2022-07-09T12:54:15.000Z</Time>
            <Position>
              <LatitudeDegrees>42.779304273426532745361328125</LatitudeDegrees>
              <LongitudeDegrees>-0.13137795031070709228515625</LongitudeDegrees>
            </Position>
            <AltitudeMeters>2710</AltitudeMeters>
            <DistanceMeters>15424.776400216</DistanceMeters>
          </Trackpoint>
          <Trackpoint>
            <Time>2022-07-09T12:54:21.000Z</Time>
            <Position>
              <LatitudeDegrees>42.77929077856242656707763671875</LatitudeDegrees>
              <LongitudeDegrees>-0.13140250928699970245361328125</LongitudeDegrees>
            </Position>
            <AltitudeMeters>2710.199951171875</AltitudeMeters>
            <DistanceMeters>15427.283377122</DistanceMeters>
          </Trackpoint>
          <Trackpoint>
            <Time>2022-07-09T12:54:22.000Z</Time>
            <Position>
              <LatitudeDegrees>42.77928960509598255157470703125</LatitudeDegrees>
              <LongitudeDegrees>-0.1314046047627925872802734375</LongitudeDegrees>
            </Position>
            <AltitudeMeters>2710.39990234375</AltitudeMeters>
            <DistanceMeters>15427.495863315</DistanceMeters>
          </Trackpoint>
          <Trackpoint>
            <Time>2022-07-09T12:54:28.000Z</Time>
            <Position>
              <LatitudeDegrees>42.779264710843563079833984375</LatitudeDegrees>
              <LongitudeDegrees>-0.13140720315277576446533203125</LongitudeDegrees>
            </Position>
            <AltitudeMeters>2710.199951171875</AltitudeMeters>
            <DistanceMeters>15430.272855444</DistanceMeters>
          </Trackpoint>
          <Trackpoint>
            <Time>2022-07-09T12:54:32.000Z</Time>
            <Position>
              <LatitudeDegrees>42.7792420797049999237060546875</LatitudeDegrees>
              <LongitudeDegrees>-0.13141055591404438018798828125</LongitudeDegrees>
            </Position>
            <AltitudeMeters>2710.199951171875</AltitudeMeters>
            <DistanceMeters>15432.804920663</DistanceMeters>
          </Trackpoint>
          <Trackpoint>
            <Time>2022-07-09T12:54:38.000Z</Time>
            <Position>
              <LatitudeDegrees>42.77925498783588409423828125</LatitudeDegrees>
              <LongitudeDegrees>-0.1314143277704715728759765625</LongitudeDegrees>
            </Position>
            <AltitudeMeters>2709.800048828125</AltitudeMeters>
            <DistanceMeters>15434.277068192</DistanceMeters>
          </Trackpoint>
          <Trackpoint>
            <Time>2022-07-09T12:54:43.000Z</Time>
            <Position>
              <LatitudeDegrees>42.77926630340516567230224609375</LatitudeDegrees>
              <LongitudeDegrees>-0.1314000785350799560546875</LongitudeDegrees>
            </Position>
            <AltitudeMeters>2709.800048828125</AltitudeMeters>
            <DistanceMeters>15435.990186648</DistanceMeters>
          </Trackpoint>
          <Trackpoint>
            <Time>2022-07-09T12:54:48.000Z</Time>
            <Position>
              <LatitudeDegrees>42.7792610228061676025390625</LatitudeDegrees>
              <LongitudeDegrees>-0.13140452094376087188720703125</LongitudeDegrees>
            </Position>
            <AltitudeMeters>2710.39990234375</AltitudeMeters>
            <DistanceMeters>15436.688487534</DistanceMeters>
          </Trackpoint>
          <Trackpoint>
            <Time>2022-07-09T12:54:50.000Z</Time>
            <Position>
              <LatitudeDegrees>42.7792610228061676025390625</LatitudeDegrees>
              <LongitudeDegrees>-0.13140435330569744110107421875</LongitudeDegrees>
            </Position>
            <AltitudeMeters>2710.800048828125</AltitudeMeters>
            <DistanceMeters>15436.783514249</DistanceMeters>
          </Trackpoint>
          <Trackpoint>
            <Time>2022-07-09T12:54:54.000Z</Time>
            <Position>
              <LatitudeDegrees>42.77926596812903881072998046875</LatitudeDegrees>
              <LongitudeDegrees>-0.13139781542122364044189453125</LongitudeDegrees>
            </Position>
            <AltitudeMeters>2710.60009765625</AltitudeMeters>
            <DistanceMeters>15437.555514926</DistanceMeters>
          </Trackpoint>
          <Trackpoint>
            <Time>2022-07-09T12:54:57.000Z</Time>
            <Position>
              <LatitudeDegrees>42.779267393052577972412109375</LatitudeDegrees>
              <LongitudeDegrees>-0.13137484900653362274169921875</LongitudeDegrees>
            </Position>
            <AltitudeMeters>2710.39990234375</AltitudeMeters>
            <DistanceMeters>15439.441741349</DistanceMeters>
          </Trackpoint>
          <Trackpoint>
            <Time>2022-07-09T12:54:58.000Z</Time>
            <Position>
              <LatitudeDegrees>42.7792689017951488494873046875</LatitudeDegrees>
              <LongitudeDegrees>-0.1313630305230617523193359375</LongitudeDegrees>
            </Position>
            <AltitudeMeters>2710.39990234375</AltitudeMeters>
            <DistanceMeters>15440.420101253</DistanceMeters>
          </Trackpoint>
          <Trackpoint>
            <Time>2022-07-09T12:55:00.000Z</Time>
            <Position>
              <LatitudeDegrees>42.77927468530833721160888671875</LatitudeDegrees>
              <LongitudeDegrees>-0.13135205022990703582763671875</LongitudeDegrees>
            </Position>
            <AltitudeMeters>2710.199951171875</AltitudeMeters>
            <DistanceMeters>15441.528293654</DistanceMeters>
          </Trackpoint>
          <Trackpoint>
            <Time>2022-07-09T12:55:03.000Z</Time>
            <Position>
              <LatitudeDegrees>42.77928440831601619720458984375</LatitudeDegrees>
              <LongitudeDegrees>-0.13133914209902286529541015625</LongitudeDegrees>
            </Position>
            <AltitudeMeters>2710</AltitudeMeters>
            <DistanceMeters>15443.036795979</DistanceMeters>
          </Trackpoint>
          <Trackpoint>
            <Time>2022-07-09T12:55:08.000Z</Time>
            <Position>
              <LatitudeDegrees>42.77929723262786865234375</LatitudeDegrees>
              <LongitudeDegrees>-0.13134777545928955078125</LongitudeDegrees>
            </Position>
            <AltitudeMeters>2710</AltitudeMeters>
            <DistanceMeters>15444.629733981</DistanceMeters>
          </Trackpoint>
          <Trackpoint>
            <Time>2022-07-09T12:55:09.000Z</Time>
            <Position>
              <LatitudeDegrees>42.77929597534239292144775390625</LatitudeDegrees>
              <LongitudeDegrees>-0.131350792944431304931640625</LongitudeDegrees>
            </Position>
            <AltitudeMeters>2709.800048828125</AltitudeMeters>
            <DistanceMeters>15444.914814125</DistanceMeters>
          </Trackpoint>
          <Trackpoint>
            <Time>2022-07-09T12:55:15.000Z</Time>
            <Position>
              <LatitudeDegrees>42.7792752720415592193603515625</LatitudeDegrees>
              <LongitudeDegrees>-0.1313512958586215972900390625</LongitudeDegrees>
            </Position>
            <AltitudeMeters>2709.39990234375</AltitudeMeters>
            <DistanceMeters>15447.219089488</DistanceMeters>
          </Trackpoint>
          <Trackpoint>
            <Time>2022-07-09T12:55:17.000Z</Time>
            <Position>
              <LatitudeDegrees>42.7792717516422271728515625</LatitudeDegrees>
              <LongitudeDegrees>-0.13135104440152645111083984375</LongitudeDegrees>
            </Position>
            <AltitudeMeters>2709.39990234375</AltitudeMeters>
            <DistanceMeters>15447.599196345</DistanceMeters>
          </Trackpoint>
          <Trackpoint>
            <Time>2022-07-09T12:55:18.000Z</Time>
            <Position>
              <LatitudeDegrees>42.7792712487280368804931640625</LatitudeDegrees>
              <LongitudeDegrees>-0.1313499547541141510009765625</LongitudeDegrees>
            </Position>
            <AltitudeMeters>2709.39990234375</AltitudeMeters>
            <DistanceMeters>15447.733584413</DistanceMeters>
          </Trackpoint>
          <Trackpoint>
            <Time>2022-07-09T12:55:24.000Z</Time>
            <Position>
              <LatitudeDegrees>42.779273092746734619140625</LatitudeDegrees>
              <LongitudeDegrees>-0.13133629225194454193115234375</LongitudeDegrees>
            </Position>
            <AltitudeMeters>2709.199951171875</AltitudeMeters>
            <DistanceMeters>15448.869938641</DistanceMeters>
          </Trackpoint>
          <Trackpoint>
            <Time>2022-07-09T12:55:28.000Z</Time>
            <Position>
              <LatitudeDegrees>42.77925674803555011749267578125</LatitudeDegrees>
              <LongitudeDegrees>-0.1313388906419277191162109375</LongitudeDegrees>
            </Position>
            <AltitudeMeters>2709.199951171875</AltitudeMeters>
            <DistanceMeters>15450.702747534</DistanceMeters>
          </Trackpoint>
          <Trackpoint>
            <Time>2022-07-09T12:55:33.000Z</Time>
            <Position>
              <LatitudeDegrees>42.77924601919949054718017578125</LatitudeDegrees>
              <LongitudeDegrees>-0.13131366111338138580322265625</LongitudeDegrees>
            </Position>
            <AltitudeMeters>2709.199951171875</AltitudeMeters>
            <DistanceMeters>15453.084110171</DistanceMeters>
          </Trackpoint>
          <Trackpoint>
            <Time>2022-07-09T12:55:36.000Z</Time>
            <Position>
              <LatitudeDegrees>42.77926303446292877197265625</LatitudeDegrees>
              <LongitudeDegrees>-0.131347440183162689208984375</LongitudeDegrees>
            </Position>
            <AltitudeMeters>2708.800048828125</AltitudeMeters>
            <DistanceMeters>15456.430346084</DistanceMeters>
          </Trackpoint>
          <Trackpoint>
            <Time>2022-07-09T12:55:38.000Z</Time>
            <Position>
              <LatitudeDegrees>42.7792685665190219879150390625</LatitudeDegrees>
              <LongitudeDegrees>-0.13136680237948894500732421875</LongitudeDegrees>
            </Position>
            <AltitudeMeters>2708.800048828125</AltitudeMeters>
            <DistanceMeters>15458.127577473</DistanceMeters>
          </Trackpoint>
          <Trackpoint>
            <Time>2022-07-09T12:55:40.000Z</Time>
            <Position>
              <LatitudeDegrees>42.7792685665190219879150390625</LatitudeDegrees>
              <LongitudeDegrees>-0.1313774473965167999267578125</LongitudeDegrees>
            </Position>
            <AltitudeMeters>2708.800048828125</AltitudeMeters>
            <DistanceMeters>15458.998511696</DistanceMeters>
          </Trackpoint>
          <Trackpoint>
            <Time>2022-07-09T12:55:44.000Z</Time>
            <Position>
              <LatitudeDegrees>42.77925574220716953277587890625</LatitudeDegrees>
              <LongitudeDegrees>-0.1313861645758152008056640625</LongitudeDegrees>
            </Position>
            <AltitudeMeters>2708.800048828125</AltitudeMeters>
            <DistanceMeters>15460.594281591</DistanceMeters>
          </Trackpoint>
          <Trackpoint>
            <Time>2022-07-09T12:55:50.000Z</Time>
            <Position>
              <LatitudeDegrees>42.77922925539314746856689453125</LatitudeDegrees>
              <LongitudeDegrees>-0.13134752400219440460205078125</LongitudeDegrees>
            </Position>
            <AltitudeMeters>2708.60009765625</AltitudeMeters>
            <DistanceMeters>15464.912511304</DistanceMeters>
          </Trackpoint>
          <Trackpoint>
            <Time>2022-07-09T12:55:51.000Z</Time>
            <Position>
              <LatitudeDegrees>42.7792333625257015228271484375</LatitudeDegrees>
              <LongitudeDegrees>-0.1313462667167186737060546875</LongitudeDegrees>
            </Position>
            <AltitudeMeters>2708.60009765625</AltitudeMeters>
            <DistanceMeters>15465.368243416</DistanceMeters>
          </Trackpoint>
          <Trackpoint>
            <Time>2022-07-09T12:55:53.000Z</Time>
            <Position>
              <LatitudeDegrees>42.779244594275951385498046875</LatitudeDegrees>
              <LongitudeDegrees>-0.1313452608883380889892578125</LongitudeDegrees>
            </Position>
            <AltitudeMeters>2708.60009765625</AltitudeMeters>
            <DistanceMeters>15466.621731869</DistanceMeters>
          </Trackpoint>
          <Trackpoint>
            <Time>2022-07-09T12:55:59.000Z</Time>
            <Position>
              <LatitudeDegrees>42.77925230562686920166015625</LatitudeDegrees>
              <LongitudeDegrees>-0.131330005824565887451171875</LongitudeDegrees>
            </Position>
            <AltitudeMeters>2708.800048828125</AltitudeMeters>
            <DistanceMeters>15468.136208484</DistanceMeters>
          </Trackpoint>
          <Trackpoint>
            <Time>2022-07-09T12:56:05.000Z</Time>
            <Position>
              <LatitudeDegrees>42.77924719266593456268310546875</LatitudeDegrees>
              <LongitudeDegrees>-0.13133562169969081878662109375</LongitudeDegrees>
            </Position>
            <AltitudeMeters>2708.800048828125</AltitudeMeters>
            <DistanceMeters>15468.85991038</DistanceMeters>
          </Trackpoint>
          <Trackpoint>
            <Time>2022-07-09T12:56:10.000Z</Time>
            <Position>
              <LatitudeDegrees>42.77924417518079280853271484375</LatitudeDegrees>
              <LongitudeDegrees>-0.13133964501321315765380859375</LongitudeDegrees>
            </Position>
            <AltitudeMeters>2713.39990234375</AltitudeMeters>
            <DistanceMeters>15469.325444304</DistanceMeters>
          </Trackpoint>
          <Trackpoint>
            <Time>2022-07-09T12:56:14.000Z</Time>
            <Position>
              <LatitudeDegrees>42.77924266643822193145751953125</LatitudeDegrees>
              <LongitudeDegrees>-0.13133947737514972686767578125</LongitudeDegrees>
            </Position>
            <AltitudeMeters>2711.199951171875</AltitudeMeters>
            <DistanceMeters>15469.490035401</DistanceMeters>
          </Trackpoint>
          <Trackpoint>
            <Time>2022-07-09T12:56:15.000Z</Time>
            <Position>
              <LatitudeDegrees>42.7792404033243656158447265625</LatitudeDegrees>
              <LongitudeDegrees>-0.13133729808032512664794921875</LongitudeDegrees>
            </Position>
            <AltitudeMeters>2710.199951171875</AltitudeMeters>
            <DistanceMeters>15469.819217596</DistanceMeters>
          </Trackpoint>
          <Trackpoint>
            <Time>2022-07-09T12:56:18.000Z</Time>
            <Position>
              <LatitudeDegrees>42.7792393974959850311279296875</LatitudeDegrees>
              <LongitudeDegrees>-0.131340064108371734619140625</LongitudeDegrees>
            </Position>
            <AltitudeMeters>2709.39990234375</AltitudeMeters>
            <DistanceMeters>15470.051984558</DistanceMeters>
          </Trackpoint>
          <Trackpoint>
            <Time>2022-07-09T12:56:21.000Z</Time>
            <Position>
              <LatitudeDegrees>42.77923646382987499237060546875</LatitudeDegrees>
              <LongitudeDegrees>-0.1313449256122112274169921875</LongitudeDegrees>
            </Position>
            <AltitudeMeters>2709.199951171875</AltitudeMeters>
            <DistanceMeters>15470.572467308</DistanceMeters>
          </Trackpoint>
          <Trackpoint>
            <Time>2022-07-09T12:56:22.000Z</Time>
            <Position>
              <LatitudeDegrees>42.77923847548663616180419921875</LatitudeDegrees>
              <LongitudeDegrees>-0.13134249486029148101806640625</LongitudeDegrees>
            </Position>
            <AltitudeMeters>2709.199951171875</AltitudeMeters>
            <DistanceMeters>15470.872968164</DistanceMeters>
          </Trackpoint>
          <Trackpoint>
            <Time>2022-07-09T12:56:24.000Z</Time>
            <Position>
              <LatitudeDegrees>42.779241241514682769775390625</LatitudeDegrees>
              <LongitudeDegrees>-0.13133562169969081878662109375</LongitudeDegrees>
            </Position>
            <AltitudeMeters>2709.199951171875</AltitudeMeters>
            <DistanceMeters>15471.517470699</DistanceMeters>
          </Trackpoint>
          <Trackpoint>
            <Time>2022-07-09T12:56:29.000Z</Time>
            <Position>
              <LatitudeDegrees>42.77925289236009120941162109375</LatitudeDegrees>
              <LongitudeDegrees>-0.131353475153446197509765625</LongitudeDegrees>
            </Position>
            <AltitudeMeters>2709.199951171875</AltitudeMeters>
            <DistanceMeters>15473.467255862</DistanceMeters>
          </Trackpoint>
          <Trackpoint>
            <Time>2022-07-09T12:56:31.000Z</Time>
            <Position>
              <LatitudeDegrees>42.77925339527428150177001953125</LatitudeDegrees>
              <LongitudeDegrees>-0.131355486810207366943359375</LongitudeDegrees>
            </Position>
            <AltitudeMeters>2709.199951171875</AltitudeMeters>
            <DistanceMeters>15473.631846959</DistanceMeters>
          </Trackpoint>
          <Trackpoint>
            <Time>2022-07-09T12:56:37.000Z</Time>
            <Position>
              <LatitudeDegrees>42.7792704105377197265625</LatitudeDegrees>
              <LongitudeDegrees>-0.1313531398773193359375</LongitudeDegrees>
            </Position>
            <AltitudeMeters>2709.199951171875</AltitudeMeters>
            <DistanceMeters>15475.537126658</DistanceMeters>
          </Trackpoint>
          <Trackpoint>
            <Time>2022-07-09T12:56:38.000Z</Time>
            <Position>
              <LatitudeDegrees>42.7792678959667682647705078125</LatitudeDegrees>
              <LongitudeDegrees>-0.13135221786797046661376953125</LongitudeDegrees>
            </Position>
            <AltitudeMeters>2709.199951171875</AltitudeMeters>
            <DistanceMeters>15475.837627514</DistanceMeters>
          </Trackpoint>
          <Trackpoint>
            <Time>2022-07-09T12:56:39.000Z</Time>
            <Position>
              <LatitudeDegrees>42.77926303446292877197265625</LatitudeDegrees>
              <LongitudeDegrees>-0.13135355897247791290283203125</LongitudeDegrees>
            </Position>
            <AltitudeMeters>2709.199951171875</AltitudeMeters>
            <DistanceMeters>15476.391723714</DistanceMeters>
          </Trackpoint>
          <Trackpoint>
            <Time>2022-07-09T12:56:45.000Z</Time>
            <Position>
              <LatitudeDegrees>42.77925507165491580963134765625</LatitudeDegrees>
              <LongitudeDegrees>-0.13134215958416461944580078125</LongitudeDegrees>
            </Position>
            <AltitudeMeters>2709.199951171875</AltitudeMeters>
            <DistanceMeters>15477.677221279</DistanceMeters>
          </Trackpoint>
          <Trackpoint>
            <Time>2022-07-09T12:56:51.000Z</Time>
            <Position>
              <LatitudeDegrees>42.7792605198919773101806640625</LatitudeDegrees>
              <LongitudeDegrees>-0.13133914209902286529541015625</LongitudeDegrees>
            </Position>
            <AltitudeMeters>2709.199951171875</AltitudeMeters>
            <DistanceMeters>15478.32869161</DistanceMeters>
          </Trackpoint>
          <Trackpoint>
            <Time>2022-07-09T12:56:54.000Z</Time>
            <Position>
              <LatitudeDegrees>42.77926496230065822601318359375</LatitudeDegrees>
              <LongitudeDegrees>-0.13133713044226169586181640625</LongitudeDegrees>
            </Position>
            <AltitudeMeters>2709.199951171875</AltitudeMeters>
            <DistanceMeters>15478.849174361</DistanceMeters>
          </Trackpoint>
          <Trackpoint>
            <Time>2022-07-09T12:57:00.000Z</Time>
            <Position>
              <LatitudeDegrees>42.7792685665190219879150390625</LatitudeDegrees>
              <LongitudeDegrees>-0.1313544809818267822265625</LongitudeDegrees>
            </Position>
            <AltitudeMeters>2709.199951171875</AltitudeMeters>
            <DistanceMeters>15480.318251714</DistanceMeters>
          </Trackpoint>
          <Trackpoint>
            <Time>2022-07-09T12:57:01.000Z</Time>
            <Position>
              <LatitudeDegrees>42.77926496230065822601318359375</LatitudeDegrees>
              <LongitudeDegrees>-0.13135858811438083648681640625</LongitudeDegrees>
            </Position>
            <AltitudeMeters>2709.199951171875</AltitudeMeters>
            <DistanceMeters>15480.829986232</DistanceMeters>
          </Trackpoint>
          <Trackpoint>
            <Time>2022-07-09T12:57:07.000Z</Time>
            <Position>
              <LatitudeDegrees>42.7792735956609249114990234375</LatitudeDegrees>
              <LongitudeDegrees>-0.13134869746863842010498046875</LongitudeDegrees>
            </Position>
            <AltitudeMeters>2709.199951171875</AltitudeMeters>
            <DistanceMeters>15482.083474685</DistanceMeters>
          </Trackpoint>
          <Trackpoint>
            <Time>2022-07-09T12:57:10.000Z</Time>
            <Position>
              <LatitudeDegrees>42.77928055264055728912353515625</LatitudeDegrees>
              <LongitudeDegrees>-0.13134551234543323516845703125</LongitudeDegrees>
            </Position>
            <AltitudeMeters>2709.199951171875</AltitudeMeters>
            <DistanceMeters>15482.900925391</DistanceMeters>
          </Trackpoint>
          <Trackpoint>
            <Time>2022-07-09T12:57:16.000Z</Time>
            <Position>
              <LatitudeDegrees>42.77926647104322910308837890625</LatitudeDegrees>
              <LongitudeDegrees>-0.13130326755344867706298828125</LongitudeDegrees>
            </Position>
            <AltitudeMeters>2709.199951171875</AltitudeMeters>
            <DistanceMeters>15486.691288384</DistanceMeters>
          </Trackpoint>
          <Trackpoint>
            <Time>2022-07-09T12:57:17.000Z</Time>
            <Position>
              <LatitudeDegrees>42.77926580049097537994384765625</LatitudeDegrees>
              <LongitudeDegrees>-0.13129874132573604583740234375</LongitudeDegrees>
            </Position>
            <AltitudeMeters>2709.199951171875</AltitudeMeters>
            <DistanceMeters>15487.059325267</DistanceMeters>
          </Trackpoint>
          <Trackpoint>
            <Time>2022-07-09T12:57:22.000Z</Time>
            <Position>
              <LatitudeDegrees>42.7792690694332122802734375</LatitudeDegrees>
              <LongitudeDegrees>-0.13128868304193019866943359375</LongitudeDegrees>
            </Position>
            <AltitudeMeters>2709.199951171875</AltitudeMeters>
            <DistanceMeters>15487.960827834</DistanceMeters>
          </Trackpoint>
          <Trackpoint>
            <Time>2022-07-09T12:57:24.000Z</Time>
            <Position>
              <LatitudeDegrees>42.77927082963287830352783203125</LatitudeDegrees>
              <LongitudeDegrees>-0.1312946341931819915771484375</LongitudeDegrees>
            </Position>
            <AltitudeMeters>2709.199951171875</AltitudeMeters>
            <DistanceMeters>15488.481310585</DistanceMeters>
          </Trackpoint>
          <Trackpoint>
            <Time>2022-07-09T12:57:30.000Z</Time>
            <Position>
              <LatitudeDegrees>42.77925607748329639434814453125</LatitudeDegrees>
              <LongitudeDegrees>-0.1312979869544506072998046875</LongitudeDegrees>
            </Position>
            <AltitudeMeters>2709.199951171875</AltitudeMeters>
            <DistanceMeters>15490.146313128</DistanceMeters>
          </Trackpoint>
          <Trackpoint>
            <Time>2022-07-09T12:57:34.000Z</Time>
            <Position>
              <LatitudeDegrees>42.7792556583881378173828125</LatitudeDegrees>
              <LongitudeDegrees>-0.13130092062056064605712890625</LongitudeDegrees>
            </Position>
            <AltitudeMeters>2709.199951171875</AltitudeMeters>
            <DistanceMeters>15490.37908009</DistanceMeters>
          </Trackpoint>
          <Trackpoint>
            <Time>2022-07-09T12:57:40.000Z</Time>
            <Position>
              <LatitudeDegrees>42.77926797978579998016357421875</LatitudeDegrees>
              <LongitudeDegrees>-0.13130796141922473907470703125</LongitudeDegrees>
            </Position>
            <AltitudeMeters>2709.199951171875</AltitudeMeters>
            <DistanceMeters>15491.869515867</DistanceMeters>
          </Trackpoint>
          <Trackpoint>
            <Time>2022-07-09T12:57:45.000Z</Time>
            <Position>
              <LatitudeDegrees>42.7792652137577533721923828125</LatitudeDegrees>
              <LongitudeDegrees>-0.13133562169969081878662109375</LongitudeDegrees>
            </Position>
            <AltitudeMeters>2709.199951171875</AltitudeMeters>
            <DistanceMeters>15494.150157012</DistanceMeters>
          </Trackpoint>
          <Trackpoint>
            <Time>2022-07-09T12:57:46.000Z</Time>
            <Position>
              <LatitudeDegrees>42.77926362119615077972412109375</LatitudeDegrees>
              <LongitudeDegrees>-0.1313318498432636260986328125</LongitudeDegrees>
            </Position>
            <AltitudeMeters>2709.199951171875</AltitudeMeters>
            <DistanceMeters>15494.50571442</DistanceMeters>
          </Trackpoint>
          <Trackpoint>
            <Time>2022-07-09T12:57:47.000Z</Time>
            <Position>
              <LatitudeDegrees>42.77925674803555011749267578125</LatitudeDegrees>
              <LongitudeDegrees>-0.131319276988506317138671875</LongitudeDegrees>
            </Position>
            <AltitudeMeters>2709.199951171875</AltitudeMeters>
            <DistanceMeters>15495.787694885</DistanceMeters>
          </Trackpoint>
          <Trackpoint>
            <Time>2022-07-09T12:57:48.000Z</Time>
            <Position>
              <LatitudeDegrees>42.779251299798488616943359375</LatitudeDegrees>
              <LongitudeDegrees>-0.1313137449324131011962890625</LongitudeDegrees>
            </Position>
            <AltitudeMeters>2709.199951171875</AltitudeMeters>
            <DistanceMeters>15496.5479086</DistanceMeters>
          </Trackpoint>
          <Trackpoint>
            <Time>2022-07-09T12:57:50.000Z</Time>
            <Position>
              <LatitudeDegrees>42.779241241514682769775390625</LatitudeDegrees>
              <LongitudeDegrees>-0.1312922872602939605712890625</LongitudeDegrees>
            </Position>
            <AltitudeMeters>2709.199951171875</AltitudeMeters>
            <DistanceMeters>15498.627669792</DistanceMeters>
          </Trackpoint>
          <Trackpoint>
            <Time>2022-07-09T12:57:55.000Z</Time>
            <Position>
              <LatitudeDegrees>42.7792477793991565704345703125</LatitudeDegrees>
              <LongitudeDegrees>-0.131271667778491973876953125</LongitudeDegrees>
            </Position>
            <AltitudeMeters>2709.199951171875</AltitudeMeters>
            <DistanceMeters>15500.460478684</DistanceMeters>
          </Trackpoint>
          <Trackpoint>
            <Time>2022-07-09T12:58:01.000Z</Time>
            <Position>
              <LatitudeDegrees>42.77924266643822193145751953125</LatitudeDegrees>
              <LongitudeDegrees>-0.13134283013641834259033203125</LongitudeDegrees>
            </Position>
            <AltitudeMeters>2709.199951171875</AltitudeMeters>
            <DistanceMeters>15506.300564191</DistanceMeters>
          </Trackpoint>
          <Trackpoint>
            <Time>2022-07-09T12:58:07.000Z</Time>
            <Position>
              <LatitudeDegrees>42.7792407386004924774169921875</LatitudeDegrees>
              <LongitudeDegrees>-0.13135188259184360504150390625</LongitudeDegrees>
            </Position>
            <AltitudeMeters>2709.199951171875</AltitudeMeters>
            <DistanceMeters>15507.066694056</DistanceMeters>
          </Trackpoint>
          <Trackpoint>
            <Time>2022-07-09T12:58:10.000Z</Time>
            <Position>
              <LatitudeDegrees>42.77924467809498310089111328125</LatitudeDegrees>
              <LongitudeDegrees>-0.13134484179317951202392578125</LongitudeDegrees>
            </Position>
            <AltitudeMeters>2709.199951171875</AltitudeMeters>
            <DistanceMeters>15507.790395951</DistanceMeters>
          </Trackpoint>
          <Trackpoint>
            <Time>2022-07-09T12:58:12.000Z</Time>
            <Position>
              <LatitudeDegrees>42.7792481146752834320068359375</LatitudeDegrees>
              <LongitudeDegrees>-0.1313375495374202728271484375</LongitudeDegrees>
            </Position>
            <AltitudeMeters>2706.60009765625</AltitudeMeters>
            <DistanceMeters>15508.501510767</DistanceMeters>
          </Trackpoint>
          <Trackpoint>
            <Time>2022-07-09T12:58:18.000Z</Time>
            <Position>
              <LatitudeDegrees>42.77924870140850543975830078125</LatitudeDegrees>
              <LongitudeDegrees>-0.131364203989505767822265625</LongitudeDegrees>
            </Position>
            <AltitudeMeters>2706.60009765625</AltitudeMeters>
            <DistanceMeters>15510.678846325</DistanceMeters>
          </Trackpoint>
          <Trackpoint>
            <Time>2022-07-09T12:58:20.000Z</Time>
            <Position>
              <LatitudeDegrees>42.7792585082352161407470703125</LatitudeDegrees>
              <LongitudeDegrees>-0.13137049041688442230224609375</LongitudeDegrees>
            </Position>
            <AltitudeMeters>2706.60009765625</AltitudeMeters>
            <DistanceMeters>15511.880849749</DistanceMeters>
          </Trackpoint>
          <Trackpoint>
            <Time>2022-07-09T12:58:23.000Z</Time>
            <Position>
              <LatitudeDegrees>42.77925926260650157928466796875</LatitudeDegrees>
              <LongitudeDegrees>-0.1313643716275691986083984375</LongitudeDegrees>
            </Position>
            <AltitudeMeters>2706.60009765625</AltitudeMeters>
            <DistanceMeters>15512.383683857</DistanceMeters>
          </Trackpoint>
          <Trackpoint>
            <Time>2022-07-09T12:58:29.000Z</Time>
            <Position>
              <LatitudeDegrees>42.7792561613023281097412109375</LatitudeDegrees>
              <LongitudeDegrees>-0.13134333305060863494873046875</LongitudeDegrees>
            </Position>
            <AltitudeMeters>2706.60009765625</AltitudeMeters>
            <DistanceMeters>15514.135889893</DistanceMeters>
          </Trackpoint>
          <Trackpoint>
            <Time>2022-07-09T12:58:34.000Z</Time>
            <Position>
              <LatitudeDegrees>42.77925037778913974761962890625</LatitudeDegrees>
              <LongitudeDegrees>-0.13136730529367923736572265625</LongitudeDegrees>
            </Position>
            <AltitudeMeters>2706.199951171875</AltitudeMeters>
            <DistanceMeters>15516.198210432</DistanceMeters>
          </Trackpoint>
          <Trackpoint>
            <Time>2022-07-09T12:58:36.000Z</Time>
            <Position>
              <LatitudeDegrees>42.77924719266593456268310546875</LatitudeDegrees>
              <LongitudeDegrees>-0.13138105161488056182861328125</LongitudeDegrees>
            </Position>
            <AltitudeMeters>2706.199951171875</AltitudeMeters>
            <DistanceMeters>15517.377460945</DistanceMeters>
          </Trackpoint>
          <Trackpoint>
            <Time>2022-07-09T12:58:40.000Z</Time>
            <Position>
              <LatitudeDegrees>42.77924199588596820831298828125</LatitudeDegrees>
              <LongitudeDegrees>-0.1313623599708080291748046875</LongitudeDegrees>
            </Position>
            <AltitudeMeters>2706.199951171875</AltitudeMeters>
            <DistanceMeters>15519.012362357</DistanceMeters>
          </Trackpoint>
          <Trackpoint>
            <Time>2022-07-09T12:58:45.000Z</Time>
            <Position>
              <LatitudeDegrees>42.77923612855374813079833984375</LatitudeDegrees>
              <LongitudeDegrees>-0.13134132139384746551513671875</LongitudeDegrees>
            </Position>
            <AltitudeMeters>2706.800048828125</AltitudeMeters>
            <DistanceMeters>15520.852546768</DistanceMeters>
          </Trackpoint>
          <Trackpoint>
            <Time>2022-07-09T12:58:49.000Z</Time>
            <Position>
              <LatitudeDegrees>42.77921467088162899017333984375</LatitudeDegrees>
              <LongitudeDegrees>-0.131388343870639801025390625</LongitudeDegrees>
            </Position>
            <AltitudeMeters>2707.800048828125</AltitudeMeters>
            <DistanceMeters>15525.375059691</DistanceMeters>
          </Trackpoint>
          <Trackpoint>
            <Time>2022-07-09T12:58:53.000Z</Time>
            <Position>
              <LatitudeDegrees>42.77921081520617008209228515625</LatitudeDegrees>
              <LongitudeDegrees>-0.13139194808900356292724609375</LongitudeDegrees>
            </Position>
            <AltitudeMeters>2708.39990234375</AltitudeMeters>
            <DistanceMeters>15525.895542442</DistanceMeters>
          </Trackpoint>
          <Trackpoint>
            <Time>2022-07-09T12:58:58.000Z</Time>
            <Position>
              <LatitudeDegrees>42.7792243100702762603759765625</LatitudeDegrees>
              <LongitudeDegrees>-0.131392367184162139892578125</LongitudeDegrees>
            </Position>
            <AltitudeMeters>2708.60009765625</AltitudeMeters>
            <DistanceMeters>15527.398046722</DistanceMeters>
          </Trackpoint>
          <Trackpoint>
            <Time>2022-07-09T12:59:01.000Z</Time>
            <Position>
              <LatitudeDegrees>42.77922053821384906768798828125</LatitudeDegrees>
              <LongitudeDegrees>-0.13138390146195888519287109375</LongitudeDegrees>
            </Position>
            <AltitudeMeters>2708.60009765625</AltitudeMeters>
            <DistanceMeters>15528.215497428</DistanceMeters>
          </Trackpoint>
          <Trackpoint>
            <Time>2022-07-09T12:59:07.000Z</Time>
            <Position>
              <LatitudeDegrees>42.77921685017645359039306640625</LatitudeDegrees>
              <LongitudeDegrees>-0.13140301220118999481201171875</LongitudeDegrees>
            </Position>
            <AltitudeMeters>2708.39990234375</AltitudeMeters>
            <DistanceMeters>15529.830951572</DistanceMeters>
          </Trackpoint>
          <Trackpoint>
            <Time>2022-07-09T12:59:09.000Z</Time>
            <Position>
              <LatitudeDegrees>42.77921877801418304443359375</LatitudeDegrees>
              <LongitudeDegrees>-0.1314066164195537567138671875</LongitudeDegrees>
            </Position>
            <AltitudeMeters>2708.39990234375</AltitudeMeters>
            <DistanceMeters>15530.198988454</DistanceMeters>
          </Trackpoint>
          <Trackpoint>
            <Time>2022-07-09T12:59:15.000Z</Time>
            <Position>
              <LatitudeDegrees>42.779219448566436767578125</LatitudeDegrees>
              <LongitudeDegrees>-0.13139043934643268585205078125</LongitudeDegrees>
            </Position>
            <AltitudeMeters>2708.60009765625</AltitudeMeters>
            <DistanceMeters>15531.522557429</DistanceMeters>
          </Trackpoint>
          <Trackpoint>
            <Time>2022-07-09T12:59:18.000Z</Time>
            <Position>
              <LatitudeDegrees>42.779237888753414154052734375</LatitudeDegrees>
              <LongitudeDegrees>-0.131391026079654693603515625</LongitudeDegrees>
            </Position>
            <AltitudeMeters>2708.60009765625</AltitudeMeters>
            <DistanceMeters>15533.573902261</DistanceMeters>
          </Trackpoint>
          <Trackpoint>
            <Time>2022-07-09T12:59:19.000Z</Time>
            <Position>
              <LatitudeDegrees>42.77924417518079280853271484375</LatitudeDegrees>
              <LongitudeDegrees>-0.131398402154445648193359375</LongitudeDegrees>
            </Position>
            <AltitudeMeters>2708.60009765625</AltitudeMeters>
            <DistanceMeters>15534.49522044</DistanceMeters>
          </Trackpoint>
          <Trackpoint>
            <Time>2022-07-09T12:59:23.000Z</Time>
            <Position>
              <LatitudeDegrees>42.77925071306526660919189453125</LatitudeDegrees>
              <LongitudeDegrees>-0.13142748735845088958740234375</LongitudeDegrees>
            </Position>
            <AltitudeMeters>2708.60009765625</AltitudeMeters>
            <DistanceMeters>15536.980491509</DistanceMeters>
          </Trackpoint>
          <Trackpoint>
            <Time>2022-07-09T12:59:29.000Z</Time>
            <Position>
              <LatitudeDegrees>42.77925758622586727142333984375</LatitudeDegrees>
              <LongitudeDegrees>-0.13144089840352535247802734375</LongitudeDegrees>
            </Position>
            <AltitudeMeters>2708.199951171875</AltitudeMeters>
            <DistanceMeters>15538.317635905</DistanceMeters>
          </Trackpoint>
          <Trackpoint>
            <Time>2022-07-09T12:59:30.000Z</Time>
            <Position>
              <LatitudeDegrees>42.779258675873279571533203125</LatitudeDegrees>
              <LongitudeDegrees>-0.1314381323754787445068359375</LongitudeDegrees>
            </Position>
            <AltitudeMeters>2708</AltitudeMeters>
            <DistanceMeters>15538.550402867</DistanceMeters>
          </Trackpoint>
          <Trackpoint>
            <Time>2022-07-09T12:59:33.000Z</Time>
            <Position>
              <LatitudeDegrees>42.7792551554739475250244140625</LatitudeDegrees>
              <LongitudeDegrees>-0.13144441880285739898681640625</LongitudeDegrees>
            </Position>
            <AltitudeMeters>2708.199951171875</AltitudeMeters>
            <DistanceMeters>15539.194905401</DistanceMeters>
          </Trackpoint>
          <Trackpoint>
            <Time>2022-07-09T12:59:39.000Z</Time>
            <Position>
              <LatitudeDegrees>42.77925658039748668670654296875</LatitudeDegrees>
              <LongitudeDegrees>-0.131416507065296173095703125</LongitudeDegrees>
            </Position>
            <AltitudeMeters>2707.800048828125</AltitudeMeters>
            <DistanceMeters>15541.479502561</DistanceMeters>
          </Trackpoint>
          <Trackpoint>
            <Time>2022-07-09T12:59:45.000Z</Time>
            <Position>
              <LatitudeDegrees>42.77926295064389705657958984375</LatitudeDegrees>
              <LongitudeDegrees>-0.13141223229467868804931640625</LongitudeDegrees>
            </Position>
            <AltitudeMeters>2707.60009765625</AltitudeMeters>
            <DistanceMeters>15542.263112923</DistanceMeters>
          </Trackpoint>
          <Trackpoint>
            <Time>2022-07-09T12:59:50.000Z</Time>
            <Position>
              <LatitudeDegrees>42.77928558178246021270751953125</LatitudeDegrees>
              <LongitudeDegrees>-0.1313962228596210479736328125</LongitudeDegrees>
            </Position>
            <AltitudeMeters>2707.39990234375</AltitudeMeters>
            <DistanceMeters>15545.102806263</DistanceMeters>
          </Trackpoint>
          <Trackpoint>
            <Time>2022-07-09T12:59:51.000Z</Time>
            <Position>
              <LatitudeDegrees>42.77928759343922138214111328125</LatitudeDegrees>
              <LongitudeDegrees>-0.131390355527400970458984375</LongitudeDegrees>
            </Position>
            <AltitudeMeters>2707.60009765625</AltitudeMeters>
            <DistanceMeters>15545.623289013</DistanceMeters>
          </Trackpoint>
          <Trackpoint>
            <Time>2022-07-09T12:59:53.000Z</Time>
            <Position>
              <LatitudeDegrees>42.77928792871534824371337890625</LatitudeDegrees>
              <LongitudeDegrees>-0.1313745975494384765625</LongitudeDegrees>
            </Position>
            <AltitudeMeters>2707.39990234375</AltitudeMeters>
            <DistanceMeters>15546.912294081</DistanceMeters>
          </Trackpoint>
          <Trackpoint>
            <Time>2022-07-09T12:59:59.000Z</Time>
            <Position>
              <LatitudeDegrees>42.77926496230065822601318359375</LatitudeDegrees>
              <LongitudeDegrees>-0.13135808520019054412841796875</LongitudeDegrees>
            </Position>
            <AltitudeMeters>2707.39990234375</AltitudeMeters>
            <DistanceMeters>15549.802418769</DistanceMeters>
          </Trackpoint>
          <Trackpoint>
            <Time>2022-07-09T13:00:03.000Z</Time>
            <Position>
              <LatitudeDegrees>42.77925557456910610198974609375</LatitudeDegrees>
              <LongitudeDegrees>-0.1313523016870021820068359375</LongitudeDegrees>
            </Position>
            <AltitudeMeters>2707</AltitudeMeters>
            <DistanceMeters>15550.950630927</DistanceMeters>
          </Trackpoint>
          <Trackpoint>
            <Time>2022-07-09T13:00:04.000Z</Time>
            <Position>
              <LatitudeDegrees>42.7792541496455669403076171875</LatitudeDegrees>
              <LongitudeDegrees>-0.1313526369631290435791015625</LongitudeDegrees>
            </Position>
            <AltitudeMeters>2707</AltitudeMeters>
            <DistanceMeters>15551.115222024</DistanceMeters>
          </Trackpoint>
          <Trackpoint>
            <Time>2022-07-09T13:00:05.000Z</Time>
            <Position>
              <LatitudeDegrees>42.77925523929297924041748046875</LatitudeDegrees>
              <LongitudeDegrees>-0.13135372661054134368896484375</LongitudeDegrees>
            </Position>
            <AltitudeMeters>2707</AltitudeMeters>
            <DistanceMeters>15551.279813122</DistanceMeters>
          </Trackpoint>
          <Trackpoint>
            <Time>2022-07-09T13:00:11.000Z</Time>
            <Position>
              <LatitudeDegrees>42.77926244772970676422119140625</LatitudeDegrees>
              <LongitudeDegrees>-0.1313707418739795684814453125</LongitudeDegrees>
            </Position>
            <AltitudeMeters>2707.199951171875</AltitudeMeters>
            <DistanceMeters>15552.886860683</DistanceMeters>
          </Trackpoint>
          <Trackpoint>
            <Time>2022-07-09T13:00:14.000Z</Time>
            <Position>
              <LatitudeDegrees>42.779252640902996063232421875</LatitudeDegrees>
              <LongitudeDegrees>-0.13136160559952259063720703125</LongitudeDegrees>
            </Position>
            <AltitudeMeters>2707</AltitudeMeters>
            <DistanceMeters>15554.210429657</DistanceMeters>
          </Trackpoint>
          <Trackpoint>
            <Time>2022-07-09T13:00:20.000Z</Time>
            <Position>
              <LatitudeDegrees>42.779250629246234893798828125</LatitudeDegrees>
              <LongitudeDegrees>-0.13136185705661773681640625</LongitudeDegrees>
            </Position>
            <AltitudeMeters>2707.199951171875</AltitudeMeters>
            <DistanceMeters>15554.443196619</DistanceMeters>
          </Trackpoint>
          <Trackpoint>
            <Time>2022-07-09T13:00:25.000Z</Time>
            <Position>
              <LatitudeDegrees>42.77923755347728729248046875</LatitudeDegrees>
              <LongitudeDegrees>-0.13140083290636539459228515625</LongitudeDegrees>
            </Position>
            <AltitudeMeters>2707</AltitudeMeters>
            <DistanceMeters>15557.945030969</DistanceMeters>
          </Trackpoint>
          <Trackpoint>
            <Time>2022-07-09T13:00:28.000Z</Time>
            <Position>
              <LatitudeDegrees>42.779236547648906707763671875</LatitudeDegrees>
              <LongitudeDegrees>-0.131416507065296173095703125</LongitudeDegrees>
            </Position>
            <AltitudeMeters>2707</AltitudeMeters>
            <DistanceMeters>15559.234036037</DistanceMeters>
          </Trackpoint>
          <Trackpoint>
            <Time>2022-07-09T13:00:34.000Z</Time>
            <Position>
              <LatitudeDegrees>42.77921768836677074432373046875</LatitudeDegrees>
              <LongitudeDegrees>-0.13143788091838359832763671875</LongitudeDegrees>
            </Position>
            <AltitudeMeters>2708</AltitudeMeters>
            <DistanceMeters>15561.965124308</DistanceMeters>
          </Trackpoint>
          <Trackpoint>
            <Time>2022-07-09T13:00:35.000Z</Time>
            <Position>
              <LatitudeDegrees>42.7792162634432315826416015625</LatitudeDegrees>
              <LongitudeDegrees>-0.13144441880285739898681640625</LongitudeDegrees>
            </Position>
            <AltitudeMeters>2708.199951171875</AltitudeMeters>
            <DistanceMeters>15562.527309931</DistanceMeters>
          </Trackpoint>
          <Trackpoint>
            <Time>2022-07-09T13:00:36.000Z</Time>
            <Position>
              <LatitudeDegrees>42.7792152576148509979248046875</LatitudeDegrees>
              <LongitudeDegrees>-0.13144508935511112213134765625</LongitudeDegrees>
            </Position>
            <AltitudeMeters>2708.39990234375</AltitudeMeters>
            <DistanceMeters>15562.691901029</DistanceMeters>
          </Trackpoint>
          <Trackpoint>
            <Time>2022-07-09T13:00:37.000Z</Time>
            <Position>
              <LatitudeDegrees>42.77921433560550212860107421875</LatitudeDegrees>
              <LongitudeDegrees>-0.13144710101187229156494140625</LongitudeDegrees>
            </Position>
            <AltitudeMeters>2708.60009765625</AltitudeMeters>
            <DistanceMeters>15562.881954457</DistanceMeters>
          </Trackpoint>
          <Trackpoint>
            <Time>2022-07-09T13:00:38.000Z</Time>
            <Position>
              <LatitudeDegrees>42.77921475470066070556640625</LatitudeDegrees>
              <LongitudeDegrees>-0.13144726864993572235107421875</LongitudeDegrees>
            </Position>
            <AltitudeMeters>2709</AltitudeMeters>
            <DistanceMeters>15562.881954457</DistanceMeters>
          </Trackpoint>
          <Trackpoint>
            <Time>2022-07-09T13:00:42.000Z</Time>
            <Position>
              <LatitudeDegrees>42.77923780493438243865966796875</LatitudeDegrees>
              <LongitudeDegrees>-0.13148046098649501800537109375</LongitudeDegrees>
            </Position>
            <AltitudeMeters>2709.60009765625</AltitudeMeters>
            <DistanceMeters>15566.61591188</DistanceMeters>
          </Trackpoint>
          <Trackpoint>
            <Time>2022-07-09T13:00:45.000Z</Time>
            <Position>
              <LatitudeDegrees>42.7792404033243656158447265625</LatitudeDegrees>
              <LongitudeDegrees>-0.13148984871804714202880859375</LongitudeDegrees>
            </Position>
            <AltitudeMeters>2710</AltitudeMeters>
            <DistanceMeters>15567.438867366</DistanceMeters>
          </Trackpoint>
          <Trackpoint>
            <Time>2022-07-09T13:00:46.000Z</Time>
            <Position>
              <LatitudeDegrees>42.7792393974959850311279296875</LatitudeDegrees>
              <LongitudeDegrees>-0.13148867525160312652587890625</LongitudeDegrees>
            </Position>
            <AltitudeMeters>2710</AltitudeMeters>
            <DistanceMeters>15567.573255435</DistanceMeters>
          </Trackpoint>
          <Trackpoint>
            <Time>2022-07-09T13:00:52.000Z</Time>
            <Position>
              <LatitudeDegrees>42.7792269922792911529541015625</LatitudeDegrees>
              <LongitudeDegrees>-0.13143955729901790618896484375</LongitudeDegrees>
            </Position>
            <AltitudeMeters>2711</AltitudeMeters>
            <DistanceMeters>15571.816599921</DistanceMeters>
          </Trackpoint>
          <Trackpoint>
            <Time>2022-07-09T13:00:55.000Z</Time>
            <Position>
              <LatitudeDegrees>42.7792313508689403533935546875</LatitudeDegrees>
              <LongitudeDegrees>-0.13141550123691558837890625</LongitudeDegrees>
            </Position>
            <AltitudeMeters>2711.39990234375</AltitudeMeters>
            <DistanceMeters>15573.841360328</DistanceMeters>
          </Trackpoint>
          <Trackpoint>
            <Time>2022-07-09T13:00:57.000Z</Time>
            <Position>
              <LatitudeDegrees>42.7792360447347164154052734375</LatitudeDegrees>
              <LongitudeDegrees>-0.1313989050686359405517578125</LongitudeDegrees>
            </Position>
            <AltitudeMeters>2711.39990234375</AltitudeMeters>
            <DistanceMeters>15575.298092274</DistanceMeters>
          </Trackpoint>
          <Trackpoint>
            <Time>2022-07-09T13:01:00.000Z</Time>
            <Position>
              <LatitudeDegrees>42.77924099005758762359619140625</LatitudeDegrees>
              <LongitudeDegrees>-0.13139563612639904022216796875</LongitudeDegrees>
            </Position>
            <AltitudeMeters>2711.60009765625</AltitudeMeters>
            <DistanceMeters>15575.91393577</DistanceMeters>
          </Trackpoint>
          <Trackpoint>
            <Time>2022-07-09T13:01:01.000Z</Time>
            <Position>
              <LatitudeDegrees>42.77924635447561740875244140625</LatitudeDegrees>
              <LongitudeDegrees>-0.1313918642699718475341796875</LongitudeDegrees>
            </Position>
            <AltitudeMeters>2711.39990234375</AltitudeMeters>
            <DistanceMeters>15576.585876111</DistanceMeters>
          </Trackpoint>
          <Trackpoint>
            <Time>2022-07-09T13:01:07.000Z</Time>
            <Position>
              <LatitudeDegrees>42.77924987487494945526123046875</LatitudeDegrees>
              <LongitudeDegrees>-0.13138675130903720855712890625</LongitudeDegrees>
            </Position>
            <AltitudeMeters>2711</AltitudeMeters>
            <DistanceMeters>15577.156036397</DistanceMeters>
          </Trackpoint>
          <Trackpoint>
            <Time>2022-07-09T13:01:09.000Z</Time>
            <Position>
              <LatitudeDegrees>42.77924903668463230133056640625</LatitudeDegrees>
              <LongitudeDegrees>-0.13142799027264118194580078125</LongitudeDegrees>
            </Position>
            <AltitudeMeters>2710.60009765625</AltitudeMeters>
            <DistanceMeters>15580.526472002</DistanceMeters>
          </Trackpoint>
          <Trackpoint>
            <Time>2022-07-09T13:01:15.000Z</Time>
            <Position>
              <LatitudeDegrees>42.7792360447347164154052734375</LatitudeDegrees>
              <LongitudeDegrees>-0.13142631389200687408447265625</LongitudeDegrees>
            </Position>
            <AltitudeMeters>2710</AltitudeMeters>
            <DistanceMeters>15581.980101215</DistanceMeters>
          </Trackpoint>
          <Trackpoint>
            <Time>2022-07-09T13:01:16.000Z</Time>
            <Position>
              <LatitudeDegrees>42.779237218201160430908203125</LatitudeDegrees>
              <LongitudeDegrees>-0.1314257271587848663330078125</LongitudeDegrees>
            </Position>
            <AltitudeMeters>2710</AltitudeMeters>
            <DistanceMeters>15582.114489283</DistanceMeters>
          </Trackpoint>
          <Trackpoint>
            <Time>2022-07-09T13:01:22.000Z</Time>
            <Position>
              <LatitudeDegrees>42.77922422625124454498291015625</LatitudeDegrees>
              <LongitudeDegrees>-0.13140016235411167144775390625</LongitudeDegrees>
            </Position>
            <AltitudeMeters>2709.800048828125</AltitudeMeters>
            <DistanceMeters>15584.655454583</DistanceMeters>
          </Trackpoint>
          <Trackpoint>
            <Time>2022-07-09T13:01:25.000Z</Time>
            <Position>
              <LatitudeDegrees>42.779209725558757781982421875</LatitudeDegrees>
              <LongitudeDegrees>-0.13139613904058933258056640625</LongitudeDegrees>
            </Position>
            <AltitudeMeters>2710.199951171875</AltitudeMeters>
            <DistanceMeters>15586.301365557</DistanceMeters>
          </Trackpoint>
          <Trackpoint>
            <Time>2022-07-09T13:01:28.000Z</Time>
            <Position>
              <LatitudeDegrees>42.7792055346071720123291015625</LatitudeDegrees>
              <LongitudeDegrees>-0.13137350790202617645263671875</LongitudeDegrees>
            </Position>
            <AltitudeMeters>2710</AltitudeMeters>
            <DistanceMeters>15588.211378877</DistanceMeters>
          </Trackpoint>
          <Trackpoint>
            <Time>2022-07-09T13:01:32.000Z</Time>
            <Position>
              <LatitudeDegrees>42.77920276857912540435791015625</LatitudeDegrees>
              <LongitudeDegrees>-0.13137887232005596160888671875</LongitudeDegrees>
            </Position>
            <AltitudeMeters>2710</AltitudeMeters>
            <DistanceMeters>15588.74893115</DistanceMeters>
          </Trackpoint>
          <Trackpoint>
            <Time>2022-07-09T13:01:38.000Z</Time>
            <Position>
              <LatitudeDegrees>42.779213748872280120849609375</LatitudeDegrees>
              <LongitudeDegrees>-0.1313784532248973846435546875</LongitudeDegrees>
            </Position>
            <AltitudeMeters>2710.39990234375</AltitudeMeters>
            <DistanceMeters>15589.969571397</DistanceMeters>
          </Trackpoint>
          <Trackpoint>
            <Time>2022-07-09T13:01:39.000Z</Time>
            <Position>
              <LatitudeDegrees>42.77922053821384906768798828125</LatitudeDegrees>
              <LongitudeDegrees>-0.13136177323758602142333984375</LongitudeDegrees>
            </Position>
            <AltitudeMeters>2710.39990234375</AltitudeMeters>
            <DistanceMeters>15591.525225757</DistanceMeters>
          </Trackpoint>
          <Trackpoint>
            <Time>2022-07-09T13:01:40.000Z</Time>
            <Position>
              <LatitudeDegrees>42.7792261540889739990234375</LatitudeDegrees>
              <LongitudeDegrees>-0.1313526369631290435791015625</LongitudeDegrees>
            </Position>
            <AltitudeMeters>2710.60009765625</AltitudeMeters>
            <DistanceMeters>15592.503585662</DistanceMeters>
          </Trackpoint>
          <Trackpoint>
            <Time>2022-07-09T13:01:45.000Z</Time>
            <Position>
              <LatitudeDegrees>42.77923076413571834564208984375</LatitudeDegrees>
              <LongitudeDegrees>-0.13130108825862407684326171875</LongitudeDegrees>
            </Position>
            <AltitudeMeters>2710.60009765625</AltitudeMeters>
            <DistanceMeters>15596.744801558</DistanceMeters>
          </Trackpoint>
          <Trackpoint>
            <Time>2022-07-09T13:01:51.000Z</Time>
            <Position>
              <LatitudeDegrees>42.7792467735707759857177734375</LatitudeDegrees>
              <LongitudeDegrees>-0.131265632808208465576171875</LongitudeDegrees>
            </Position>
            <AltitudeMeters>2710</AltitudeMeters>
            <DistanceMeters>15600.144580646</DistanceMeters>
          </Trackpoint>
          <Trackpoint>
            <Time>2022-07-09T13:01:56.000Z</Time>
            <Position>
              <LatitudeDegrees>42.77924568392336368560791015625</LatitudeDegrees>
              <LongitudeDegrees>-0.13129974715411663055419921875</LongitudeDegrees>
            </Position>
            <AltitudeMeters>2709.800048828125</AltitudeMeters>
            <DistanceMeters>15602.934549444</DistanceMeters>
          </Trackpoint>
          <Trackpoint>
            <Time>2022-07-09T13:01:58.000Z</Time>
            <Position>
              <LatitudeDegrees>42.7792437560856342315673828125</LatitudeDegrees>
              <LongitudeDegrees>-0.1313191093504428863525390625</LongitudeDegrees>
            </Position>
            <AltitudeMeters>2709.800048828125</AltitudeMeters>
            <DistanceMeters>15604.530319339</DistanceMeters>
          </Trackpoint>
          <Trackpoint>
            <Time>2022-07-09T13:02:03.000Z</Time>
            <Position>
              <LatitudeDegrees>42.77926445938646793365478515625</LatitudeDegrees>
              <LongitudeDegrees>-0.13134936802089214324951171875</LongitudeDegrees>
            </Position>
            <AltitudeMeters>2710.199951171875</AltitudeMeters>
            <DistanceMeters>15607.910119141</DistanceMeters>
          </Trackpoint>
          <Trackpoint>
            <Time>2022-07-09T13:02:09.000Z</Time>
            <Position>
              <LatitudeDegrees>42.77924199588596820831298828125</LatitudeDegrees>
              <LongitudeDegrees>-0.131322629749774932861328125</LongitudeDegrees>
            </Position>
            <AltitudeMeters>2710.800048828125</AltitudeMeters>
            <DistanceMeters>15611.231979074</DistanceMeters>
          </Trackpoint>
          <Trackpoint>
            <Time>2022-07-09T13:02:11.000Z</Time>
            <Position>
              <LatitudeDegrees>42.7792390622198581695556640625</LatitudeDegrees>
              <LongitudeDegrees>-0.13132740743458271026611328125</LongitudeDegrees>
            </Position>
            <AltitudeMeters>2710.60009765625</AltitudeMeters>
            <DistanceMeters>15611.752461824</DistanceMeters>
          </Trackpoint>
          <Trackpoint>
            <Time>2022-07-09T13:02:17.000Z</Time>
            <Position>
              <LatitudeDegrees>42.77923244051635265350341796875</LatitudeDegrees>
              <LongitudeDegrees>-0.1313445903360843658447265625</LongitudeDegrees>
            </Position>
            <AltitudeMeters>2709.199951171875</AltitudeMeters>
            <DistanceMeters>15613.336873782</DistanceMeters>
          </Trackpoint>
          <Trackpoint>
            <Time>2022-07-09T13:02:21.000Z</Time>
            <Position>
              <LatitudeDegrees>42.77921517379581928253173828125</LatitudeDegrees>
              <LongitudeDegrees>-0.1313486136496067047119140625</LongitudeDegrees>
            </Position>
            <AltitudeMeters>2709.199951171875</AltitudeMeters>
            <DistanceMeters>15615.286658945</DistanceMeters>
          </Trackpoint>
          <Trackpoint>
            <Time>2022-07-09T13:02:22.000Z</Time>
            <Position>
              <LatitudeDegrees>42.77921634726226329803466796875</LatitudeDegrees>
              <LongitudeDegrees>-0.1313409022986888885498046875</LongitudeDegrees>
            </Position>
            <AltitudeMeters>2709.39990234375</AltitudeMeters>
            <DistanceMeters>15615.931161479</DistanceMeters>
          </Trackpoint>
          <Trackpoint>
            <Time>2022-07-09T13:02:23.000Z</Time>
            <Position>
              <LatitudeDegrees>42.7792216278612613677978515625</LatitudeDegrees>
              <LongitudeDegrees>-0.1313398964703083038330078125</LongitudeDegrees>
            </Position>
            <AltitudeMeters>2709.39990234375</AltitudeMeters>
            <DistanceMeters>15616.532163191</DistanceMeters>
          </Trackpoint>
          <Trackpoint>
            <Time>2022-07-09T13:02:29.000Z</Time>
            <Position>
              <LatitudeDegrees>42.7792360447347164154052734375</LatitudeDegrees>
              <LongitudeDegrees>-0.13132824562489986419677734375</LongitudeDegrees>
            </Position>
            <AltitudeMeters>2709.39990234375</AltitudeMeters>
            <DistanceMeters>15618.396721968</DistanceMeters>
          </Trackpoint>
          <Trackpoint>
            <Time>2022-07-09T13:02:35.000Z</Time>
            <Position>
              <LatitudeDegrees>42.77922808192670345306396484375</LatitudeDegrees>
              <LongitudeDegrees>-0.13135121203958988189697265625</LongitudeDegrees>
            </Position>
            <AltitudeMeters>2709.39990234375</AltitudeMeters>
            <DistanceMeters>15620.474311085</DistanceMeters>
          </Trackpoint>
          <Trackpoint>
            <Time>2022-07-09T13:02:36.000Z</Time>
            <Position>
              <LatitudeDegrees>42.7792276628315448760986328125</LatitudeDegrees>
              <LongitudeDegrees>-0.13134308159351348876953125</LongitudeDegrees>
            </Position>
            <AltitudeMeters>2709.39990234375</AltitudeMeters>
            <DistanceMeters>15621.139498085</DistanceMeters>
          </Trackpoint>
          <Trackpoint>
            <Time>2022-07-09T13:02:42.000Z</Time>
            <Position>
              <LatitudeDegrees>42.77922213077545166015625</LatitudeDegrees>
              <LongitudeDegrees>-0.1313169300556182861328125</LongitudeDegrees>
            </Position>
            <AltitudeMeters>2709.39990234375</AltitudeMeters>
            <DistanceMeters>15623.361985839</DistanceMeters>
          </Trackpoint>
          <Trackpoint>
            <Time>2022-07-09T13:02:48.000Z</Time>
            <Position>
              <LatitudeDegrees>42.7792387269437313079833984375</LatitudeDegrees>
              <LongitudeDegrees>-0.1313083805143833160400390625</LongitudeDegrees>
            </Position>
            <AltitudeMeters>2709.39990234375</AltitudeMeters>
            <DistanceMeters>15625.337079007</DistanceMeters>
          </Trackpoint>
          <Trackpoint>
            <Time>2022-07-09T13:02:54.000Z</Time>
            <Position>
              <LatitudeDegrees>42.77922254987061023712158203125</LatitudeDegrees>
              <LongitudeDegrees>-0.13131734915077686309814453125</LongitudeDegrees>
            </Position>
            <AltitudeMeters>2709.39990234375</AltitudeMeters>
            <DistanceMeters>15627.279904772</DistanceMeters>
          </Trackpoint>
          <Trackpoint>
            <Time>2022-07-09T13:03:00.000Z</Time>
            <Position>
              <LatitudeDegrees>42.7791984938085079193115234375</LatitudeDegrees>
              <LongitudeDegrees>-0.13130779378116130828857421875</LongitudeDegrees>
            </Position>
            <AltitudeMeters>2709.39990234375</AltitudeMeters>
            <DistanceMeters>15630.06825479</DistanceMeters>
          </Trackpoint>
          <Trackpoint>
            <Time>2022-07-09T13:03:06.000Z</Time>
            <Position>
              <LatitudeDegrees>42.7792139165103435516357421875</LatitudeDegrees>
              <LongitudeDegrees>-0.1313013397157192230224609375</LongitudeDegrees>
            </Position>
            <AltitudeMeters>2709.39990234375</AltitudeMeters>
            <DistanceMeters>15631.866244602</DistanceMeters>
          </Trackpoint>
          <Trackpoint>
            <Time>2022-07-09T13:03:12.000Z</Time>
            <Position>
              <LatitudeDegrees>42.77922070585191249847412109375</LatitudeDegrees>
              <LongitudeDegrees>-0.13131114654242992401123046875</LongitudeDegrees>
            </Position>
            <AltitudeMeters>2709.39990234375</AltitudeMeters>
            <DistanceMeters>15632.966258349</DistanceMeters>
          </Trackpoint>
          <Trackpoint>
            <Time>2022-07-09T13:03:18.000Z</Time>
            <Position>
              <LatitudeDegrees>42.77920536696910858154296875</LatitudeDegrees>
              <LongitudeDegrees>-0.13136127032339572906494140625</LongitudeDegrees>
            </Position>
            <AltitudeMeters>2709.39990234375</AltitudeMeters>
            <DistanceMeters>15637.403100317</DistanceMeters>
          </Trackpoint>
          <Trackpoint>
            <Time>2022-07-09T13:03:22.000Z</Time>
            <Position>
              <LatitudeDegrees>42.779206372797489166259765625</LatitudeDegrees>
              <LongitudeDegrees>-0.13135221786797046661376953125</LongitudeDegrees>
            </Position>
            <AltitudeMeters>2709.39990234375</AltitudeMeters>
            <DistanceMeters>15638.151341414</DistanceMeters>
          </Trackpoint>
          <Trackpoint>
            <Time>2022-07-09T13:03:28.000Z</Time>
            <Position>
              <LatitudeDegrees>42.7792393974959850311279296875</LatitudeDegrees>
              <LongitudeDegrees>-0.1313442550599575042724609375</LongitudeDegrees>
            </Position>
            <AltitudeMeters>2709.39990234375</AltitudeMeters>
            <DistanceMeters>15641.882879687</DistanceMeters>
          </Trackpoint>
          <Trackpoint>
            <Time>2022-07-09T13:03:34.000Z</Time>
            <Position>
              <LatitudeDegrees>42.779255993664264678955078125</LatitudeDegrees>
              <LongitudeDegrees>-0.131332688033580780029296875</LongitudeDegrees>
            </Position>
            <AltitudeMeters>2709.39990234375</AltitudeMeters>
            <DistanceMeters>15643.956117827</DistanceMeters>
          </Trackpoint>
          <Trackpoint>
            <Time>2022-07-09T13:03:39.000Z</Time>
            <Position>
              <LatitudeDegrees>42.77924065478146076202392578125</LatitudeDegrees>
              <LongitudeDegrees>-0.13136026449501514434814453125</LongitudeDegrees>
            </Position>
            <AltitudeMeters>2709.39990234375</AltitudeMeters>
            <DistanceMeters>15646.781465164</DistanceMeters>
          </Trackpoint>
          <Trackpoint>
            <Time>2022-07-09T13:03:45.000Z</Time>
            <Position>
              <LatitudeDegrees>42.77917594648897647857666015625</LatitudeDegrees>
              <LongitudeDegrees>-0.13137283734977245330810546875</LongitudeDegrees>
            </Position>
            <AltitudeMeters>2709.39990234375</AltitudeMeters>
            <DistanceMeters>15654.056441318</DistanceMeters>
          </Trackpoint>
          <Trackpoint>
            <Time>2022-07-09T13:03:51.000Z</Time>
            <Position>
              <LatitudeDegrees>42.7792202867567539215087890625</LatitudeDegrees>
              <LongitudeDegrees>-0.131370238959789276123046875</LongitudeDegrees>
            </Position>
            <AltitudeMeters>2709.39990234375</AltitudeMeters>
            <DistanceMeters>15658.996002691</DistanceMeters>
          </Trackpoint>
          <Trackpoint>
            <Time>2022-07-09T13:03:55.000Z</Time>
            <Position>
              <LatitudeDegrees>42.77923881076276302337646484375</LatitudeDegrees>
              <LongitudeDegrees>-0.1313479430973529815673828125</LongitudeDegrees>
            </Position>
            <AltitudeMeters>2709.39990234375</AltitudeMeters>
            <DistanceMeters>15661.746857841</DistanceMeters>
          </Trackpoint>
          <Trackpoint>
            <Time>2022-07-09T13:04:01.000Z</Time>
            <Position>
              <LatitudeDegrees>42.77923126704990863800048828125</LatitudeDegrees>
              <LongitudeDegrees>-0.13134953565895557403564453125</LongitudeDegrees>
            </Position>
            <AltitudeMeters>2709.39990234375</AltitudeMeters>
            <DistanceMeters>15662.596802613</DistanceMeters>
          </Trackpoint>
          <Trackpoint>
            <Time>2022-07-09T13:04:07.000Z</Time>
            <Position>
              <LatitudeDegrees>42.7792196162045001983642578125</LatitudeDegrees>
              <LongitudeDegrees>-0.1313747651875019073486328125</LongitudeDegrees>
            </Position>
            <AltitudeMeters>2709.39990234375</AltitudeMeters>
            <DistanceMeters>15665.030674045</DistanceMeters>
          </Trackpoint>
          <Trackpoint>
            <Time>2022-07-09T13:04:13.000Z</Time>
            <Position>
              <LatitudeDegrees>42.77923244051635265350341796875</LatitudeDegrees>
              <LongitudeDegrees>-0.1313647069036960601806640625</LongitudeDegrees>
            </Position>
            <AltitudeMeters>2709.39990234375</AltitudeMeters>
            <DistanceMeters>15666.679325922</DistanceMeters>
          </Trackpoint>
          <Trackpoint>
            <Time>2022-07-09T13:04:18.000Z</Time>
            <Position>
              <LatitudeDegrees>42.779234535992145538330078125</LatitudeDegrees>
              <LongitudeDegrees>-0.1313616894185543060302734375</LongitudeDegrees>
            </Position>
            <AltitudeMeters>2709.39990234375</AltitudeMeters>
            <DistanceMeters>15667.008508116</DistanceMeters>
          </Trackpoint>
          <Trackpoint>
            <Time>2022-07-09T13:04:24.000Z</Time>
            <Position>
              <LatitudeDegrees>42.779250629246234893798828125</LatitudeDegrees>
              <LongitudeDegrees>-0.131367556750774383544921875</LongitudeDegrees>
            </Position>
            <AltitudeMeters>2709.39990234375</AltitudeMeters>
            <DistanceMeters>15668.860919801</DistanceMeters>
          </Trackpoint>
          <Trackpoint>
            <Time>2022-07-09T13:04:30.000Z</Time>
            <Position>
              <LatitudeDegrees>42.77925632894039154052734375</LatitudeDegrees>
              <LongitudeDegrees>-0.1313657127320766448974609375</LongitudeDegrees>
            </Position>
            <AltitudeMeters>2709.39990234375</AltitudeMeters>
            <DistanceMeters>15669.51928419</DistanceMeters>
          </Trackpoint>
          <Trackpoint>
            <Time>2022-07-09T13:04:33.000Z</Time>
            <Position>
              <LatitudeDegrees>42.7792528085410594940185546875</LatitudeDegrees>
              <LongitudeDegrees>-0.13138373382389545440673828125</LongitudeDegrees>
            </Position>
            <AltitudeMeters>2709.39990234375</AltitudeMeters>
            <DistanceMeters>15671.042678311</DistanceMeters>
          </Trackpoint>
          <Trackpoint>
            <Time>2022-07-09T13:04:37.000Z</Time>
            <Position>
              <LatitudeDegrees>42.77923244051635265350341796875</LatitudeDegrees>
              <LongitudeDegrees>-0.13138867914676666259765625</LongitudeDegrees>
            </Position>
            <AltitudeMeters>2709.39990234375</AltitudeMeters>
            <DistanceMeters>15673.346953674</DistanceMeters>
          </Trackpoint>
          <Trackpoint>
            <Time>2022-07-09T13:04:43.000Z</Time>
            <Position>
              <LatitudeDegrees>42.7792437560856342315673828125</LatitudeDegrees>
              <LongitudeDegrees>-0.131367556750774383544921875</LongitudeDegrees>
            </Position>
            <AltitudeMeters>2709.39990234375</AltitudeMeters>
            <DistanceMeters>15675.484526756</DistanceMeters>
          </Trackpoint>
          <Trackpoint>
            <Time>2022-07-09T13:04:49.000Z</Time>
            <Position>
              <LatitudeDegrees>42.77923244051635265350341796875</LatitudeDegrees>
              <LongitudeDegrees>-0.13137384317815303802490234375</LongitudeDegrees>
            </Position>
            <AltitudeMeters>2709.39990234375</AltitudeMeters>
            <DistanceMeters>15676.845102248</DistanceMeters>
          </Trackpoint>
          <Trackpoint>
            <Time>2022-07-09T13:04:52.000Z</Time>
            <Position>
              <LatitudeDegrees>42.77923294343054294586181640625</LatitudeDegrees>
              <LongitudeDegrees>-0.131362192332744598388671875</LongitudeDegrees>
            </Position>
            <AltitudeMeters>2709.39990234375</AltitudeMeters>
            <DistanceMeters>15677.795369392</DistanceMeters>
          </Trackpoint>
          <Trackpoint>
            <Time>2022-07-09T13:04:58.000Z</Time>
            <Position>
              <LatitudeDegrees>42.77922372333705425262451171875</LatitudeDegrees>
              <LongitudeDegrees>-0.13130159117281436920166015625</LongitudeDegrees>
            </Position>
            <AltitudeMeters>2709.39990234375</AltitudeMeters>
            <DistanceMeters>15682.850576246</DistanceMeters>
          </Trackpoint>
          <Trackpoint>
            <Time>2022-07-09T13:05:04.000Z</Time>
            <Position>
              <LatitudeDegrees>42.77923897840082645416259765625</LatitudeDegrees>
              <LongitudeDegrees>-0.13136722147464752197265625</LongitudeDegrees>
            </Position>
            <AltitudeMeters>2709.39990234375</AltitudeMeters>
            <DistanceMeters>15688.474038499</DistanceMeters>
          </Trackpoint>
          <Trackpoint>
            <Time>2022-07-09T13:05:09.000Z</Time>
            <Position>
              <LatitudeDegrees>42.77922053821384906768798828125</LatitudeDegrees>
              <LongitudeDegrees>-0.13138205744326114654541015625</LongitudeDegrees>
            </Position>
            <AltitudeMeters>2709.39990234375</AltitudeMeters>
            <DistanceMeters>15690.8591901</DistanceMeters>
          </Trackpoint>
          <Trackpoint>
            <Time>2022-07-09T13:05:15.000Z</Time>
            <Position>
              <LatitudeDegrees>42.77924828231334686279296875</LatitudeDegrees>
              <LongitudeDegrees>-0.13135691173374652862548828125</LongitudeDegrees>
            </Position>
            <AltitudeMeters>2709.39990234375</AltitudeMeters>
            <DistanceMeters>15694.566450051</DistanceMeters>
          </Trackpoint>
          <Trackpoint>
            <Time>2022-07-09T13:05:21.000Z</Time>
            <Position>
              <LatitudeDegrees>42.779227159917354583740234375</LatitudeDegrees>
              <LongitudeDegrees>-0.131381638348102569580078125</LongitudeDegrees>
            </Position>
            <AltitudeMeters>2709.39990234375</AltitudeMeters>
            <DistanceMeters>15697.664670711</DistanceMeters>
          </Trackpoint>
          <Trackpoint>
            <Time>2022-07-09T13:05:25.000Z</Time>
            <Position>
              <LatitudeDegrees>42.77922657318413257598876953125</LatitudeDegrees>
              <LongitudeDegrees>-0.131374262273311614990234375</LongitudeDegrees>
            </Position>
            <AltitudeMeters>2709.39990234375</AltitudeMeters>
            <DistanceMeters>15698.265672423</DistanceMeters>
          </Trackpoint>
          <Trackpoint>
            <Time>2022-07-09T13:05:31.000Z</Time>
            <Position>
              <LatitudeDegrees>42.779243923723697662353515625</LatitudeDegrees>
              <LongitudeDegrees>-0.13137702830135822296142578125</LongitudeDegrees>
            </Position>
            <AltitudeMeters>2709.39990234375</AltitudeMeters>
            <DistanceMeters>15700.208498188</DistanceMeters>
          </Trackpoint>
          <Trackpoint>
            <Time>2022-07-09T13:05:37.000Z</Time>
            <Position>
              <LatitudeDegrees>42.779255993664264678955078125</LatitudeDegrees>
              <LongitudeDegrees>-0.13138943351805210113525390625</LongitudeDegrees>
            </Position>
            <AltitudeMeters>2709.39990234375</AltitudeMeters>
            <DistanceMeters>15701.892375857</DistanceMeters>
          </Trackpoint>
          <Trackpoint>
            <Time>2022-07-09T13:05:43.000Z</Time>
            <Position>
              <LatitudeDegrees>42.77923914603888988494873046875</LatitudeDegrees>
              <LongitudeDegrees>-0.13137635774910449981689453125</LongitudeDegrees>
            </Position>
            <AltitudeMeters>2709.39990234375</AltitudeMeters>
            <DistanceMeters>15704.050967862</DistanceMeters>
          </Trackpoint>
          <Trackpoint>
            <Time>2022-07-09T13:05:49.000Z</Time>
            <Position>
              <LatitudeDegrees>42.77922146022319793701171875</LatitudeDegrees>
              <LongitudeDegrees>-0.13138733804225921630859375</LongitudeDegrees>
            </Position>
            <AltitudeMeters>2709.39990234375</AltitudeMeters>
            <DistanceMeters>15706.21373914</DistanceMeters>
          </Trackpoint>
          <Trackpoint>
            <Time>2022-07-09T13:05:54.000Z</Time>
            <Position>
              <LatitudeDegrees>42.7792253158986568450927734375</LatitudeDegrees>
              <LongitudeDegrees>-0.1313838176429271697998046875</LongitudeDegrees>
            </Position>
            <AltitudeMeters>2709.39990234375</AltitudeMeters>
            <DistanceMeters>15706.725473658</DistanceMeters>
          </Trackpoint>
          <Trackpoint>
            <Time>2022-07-09T13:06:00.000Z</Time>
            <Position>
              <LatitudeDegrees>42.77925658039748668670654296875</LatitudeDegrees>
              <LongitudeDegrees>-0.13135121203958988189697265625</LongitudeDegrees>
            </Position>
            <AltitudeMeters>2709.39990234375</AltitudeMeters>
            <DistanceMeters>15711.107019335</DistanceMeters>
          </Trackpoint>
          <Trackpoint>
            <Time>2022-07-09T13:06:06.000Z</Time>
            <Position>
              <LatitudeDegrees>42.77924953959882259368896484375</LatitudeDegrees>
              <LongitudeDegrees>-0.131355822086334228515625</LongitudeDegrees>
            </Position>
            <AltitudeMeters>2709.39990234375</AltitudeMeters>
            <DistanceMeters>15711.977953558</DistanceMeters>
          </Trackpoint>
          <Trackpoint>
            <Time>2022-07-09T13:06:08.000Z</Time>
            <Position>
              <LatitudeDegrees>42.7792440913617610931396484375</LatitudeDegrees>
              <LongitudeDegrees>-0.1313717477023601531982421875</LongitudeDegrees>
            </Position>
            <AltitudeMeters>2709.39990234375</AltitudeMeters>
            <DistanceMeters>15713.412825479</DistanceMeters>
          </Trackpoint>
          <Trackpoint>
            <Time>2022-07-09T13:06:11.000Z</Time>
            <Position>
              <LatitudeDegrees>42.7792219631373882293701171875</LatitudeDegrees>
              <LongitudeDegrees>-0.1313831470906734466552734375</LongitudeDegrees>
            </Position>
            <AltitudeMeters>2709.39990234375</AltitudeMeters>
            <DistanceMeters>15716.046283037</DistanceMeters>
          </Trackpoint>
          <Trackpoint>
            <Time>2022-07-09T13:06:14.000Z</Time>
            <Position>
              <LatitudeDegrees>42.77920461259782314300537109375</LatitudeDegrees>
              <LongitudeDegrees>-0.13138222508132457733154296875</LongitudeDegrees>
            </Position>
            <AltitudeMeters>2709.39990234375</AltitudeMeters>
            <DistanceMeters>15717.979790639</DistanceMeters>
          </Trackpoint>
          <Trackpoint>
            <Time>2022-07-09T13:06:15.000Z</Time>
            <Position>
              <LatitudeDegrees>42.779202349483966827392578125</LatitudeDegrees>
              <LongitudeDegrees>-0.1313764415681362152099609375</LongitudeDegrees>
            </Position>
            <AltitudeMeters>2709.39990234375</AltitudeMeters>
            <DistanceMeters>15718.517342912</DistanceMeters>
          </Trackpoint>
          <Trackpoint>
            <Time>2022-07-09T13:06:19.000Z</Time>
            <Position>
              <LatitudeDegrees>42.77921902947127819061279296875</LatitudeDegrees>
              <LongitudeDegrees>-0.131345093250274658203125</LongitudeDegrees>
            </Position>
            <AltitudeMeters>2709.39990234375</AltitudeMeters>
            <DistanceMeters>15721.680462369</DistanceMeters>
          </Trackpoint>
          <Trackpoint>
            <Time>2022-07-09T13:06:21.000Z</Time>
            <Position>
              <LatitudeDegrees>42.77923176996409893035888671875</LatitudeDegrees>
              <LongitudeDegrees>-0.1313429139554500579833984375</LongitudeDegrees>
            </Position>
            <AltitudeMeters>2709.39990234375</AltitudeMeters>
            <DistanceMeters>15723.10902713</DistanceMeters>
          </Trackpoint>
          <Trackpoint>
            <Time>2022-07-09T13:06:22.000Z</Time>
            <Position>
              <LatitudeDegrees>42.7792342007160186767578125</LatitudeDegrees>
              <LongitudeDegrees>-0.13134752400219440460205078125</LongitudeDegrees>
            </Position>
            <AltitudeMeters>2709.39990234375</AltitudeMeters>
            <DistanceMeters>15723.574561054</DistanceMeters>
          </Trackpoint>
          <Trackpoint>
            <Time>2022-07-09T13:06:24.000Z</Time>
            <Position>
              <LatitudeDegrees>42.77923277579247951507568359375</LatitudeDegrees>
              <LongitudeDegrees>-0.13135121203958988189697265625</LongitudeDegrees>
            </Position>
            <AltitudeMeters>2709.39990234375</AltitudeMeters>
            <DistanceMeters>15723.930118462</DistanceMeters>
          </Trackpoint>
          <Trackpoint>
            <Time>2022-07-09T13:06:29.000Z</Time>
            <Position>
              <LatitudeDegrees>42.7792229689657688140869140625</LatitudeDegrees>
              <LongitudeDegrees>-0.1313375495374202728271484375</LongitudeDegrees>
            </Position>
            <AltitudeMeters>2709.39990234375</AltitudeMeters>
            <DistanceMeters>15725.491566713</DistanceMeters>
          </Trackpoint>
          <Trackpoint>
            <Time>2022-07-09T13:06:31.000Z</Time>
            <Position>
              <LatitudeDegrees>42.77921349741518497467041015625</LatitudeDegrees>
              <LongitudeDegrees>-0.131342075765132904052734375</LongitudeDegrees>
            </Position>
            <AltitudeMeters>2709.39990234375</AltitudeMeters>
            <DistanceMeters>15726.607877847</DistanceMeters>
          </Trackpoint>
          <Trackpoint>
            <Time>2022-07-09T13:06:34.000Z</Time>
            <Position>
              <LatitudeDegrees>42.77920813299715518951416015625</LatitudeDegrees>
              <LongitudeDegrees>-0.1313357055187225341796875</LongitudeDegrees>
            </Position>
            <AltitudeMeters>2709.39990234375</AltitudeMeters>
            <DistanceMeters>15727.402928381</DistanceMeters>
          </Trackpoint>
          <Trackpoint>
            <Time>2022-07-09T13:06:40.000Z</Time>
            <Position>
              <LatitudeDegrees>42.77921970002353191375732421875</LatitudeDegrees>
              <LongitudeDegrees>-0.13132254593074321746826171875</LongitudeDegrees>
            </Position>
            <AltitudeMeters>2709.39990234375</AltitudeMeters>
            <DistanceMeters>15729.081434816</DistanceMeters>
          </Trackpoint>
          <Trackpoint>
            <Time>2022-07-09T13:06:42.000Z</Time>
            <Position>
              <LatitudeDegrees>42.7792326919734477996826171875</LatitudeDegrees>
              <LongitudeDegrees>-0.13132438994944095611572265625</LongitudeDegrees>
            </Position>
            <AltitudeMeters>2709.39990234375</AltitudeMeters>
            <DistanceMeters>15730.535064028</DistanceMeters>
          </Trackpoint>
          <Trackpoint>
            <Time>2022-07-09T13:06:48.000Z</Time>
            <Position>
              <LatitudeDegrees>42.77924350462853908538818359375</LatitudeDegrees>
              <LongitudeDegrees>-0.1313492842018604278564453125</LongitudeDegrees>
            </Position>
            <AltitudeMeters>2709.39990234375</AltitudeMeters>
            <DistanceMeters>15732.897390687</DistanceMeters>
          </Trackpoint>
          <Trackpoint>
            <Time>2022-07-09T13:06:50.000Z</Time>
            <Position>
              <LatitudeDegrees>42.77923881076276302337646484375</LatitudeDegrees>
              <LongitudeDegrees>-0.13136294670403003692626953125</LongitudeDegrees>
            </Position>
            <AltitudeMeters>2709.39990234375</AltitudeMeters>
            <DistanceMeters>15734.129077677</DistanceMeters>
          </Trackpoint>
          <Trackpoint>
            <Time>2022-07-09T13:06:56.000Z</Time>
            <Position>
              <LatitudeDegrees>42.7792457677423954010009765625</LatitudeDegrees>
              <LongitudeDegrees>-0.13137753121554851531982421875</LongitudeDegrees>
            </Position>
            <AltitudeMeters>2709.39990234375</AltitudeMeters>
            <DistanceMeters>15735.551307309</DistanceMeters>
          </Trackpoint>
          <Trackpoint>
            <Time>2022-07-09T13:07:02.000Z</Time>
            <Position>
              <LatitudeDegrees>42.7792494557797908782958984375</LatitudeDegrees>
              <LongitudeDegrees>-0.131371580064296722412109375</LongitudeDegrees>
            </Position>
            <AltitudeMeters>2709.39990234375</AltitudeMeters>
            <DistanceMeters>15736.188765888</DistanceMeters>
          </Trackpoint>
          <Trackpoint>
            <Time>2022-07-09T13:07:05.000Z</Time>
            <Position>
              <LatitudeDegrees>42.77924668975174427032470703125</LatitudeDegrees>
              <LongitudeDegrees>-0.13137769885361194610595703125</LongitudeDegrees>
            </Position>
            <AltitudeMeters>2709.39990234375</AltitudeMeters>
            <DistanceMeters>15736.774549896</DistanceMeters>
          </Trackpoint>
          <Trackpoint>
            <Time>2022-07-09T13:07:08.000Z</Time>
            <Position>
              <LatitudeDegrees>42.7792544849216938018798828125</LatitudeDegrees>
              <LongitudeDegrees>-0.13138004578649997711181640625</LongitudeDegrees>
            </Position>
            <AltitudeMeters>2709.39990234375</AltitudeMeters>
            <DistanceMeters>15737.665979494</DistanceMeters>
          </Trackpoint>
          <Trackpoint>
            <Time>2022-07-09T13:07:14.000Z</Time>
            <Position>
              <LatitudeDegrees>42.7792712487280368804931640625</LatitudeDegrees>
              <LongitudeDegrees>-0.1313355378806591033935546875</LongitudeDegrees>
            </Position>
            <AltitudeMeters>2709.39990234375</AltitudeMeters>
            <DistanceMeters>15741.753233024</DistanceMeters>
          </Trackpoint>
          <Trackpoint>
            <Time>2022-07-09T13:07:20.000Z</Time>
            <Position>
              <LatitudeDegrees>42.7792476117610931396484375</LatitudeDegrees>
              <LongitudeDegrees>-0.1313010044395923614501953125</LongitudeDegrees>
            </Position>
            <AltitudeMeters>2709.39990234375</AltitudeMeters>
            <DistanceMeters>15745.610896304</DistanceMeters>
          </Trackpoint>
          <Trackpoint>
            <Time>2022-07-09T13:07:24.000Z</Time>
            <Position>
              <LatitudeDegrees>42.77923109941184520721435546875</LatitudeDegrees>
              <LongitudeDegrees>-0.131315253674983978271484375</LongitudeDegrees>
            </Position>
            <AltitudeMeters>2709.39990234375</AltitudeMeters>
            <DistanceMeters>15747.786157221</DistanceMeters>
          </Trackpoint>
          <Trackpoint>
            <Time>2022-07-09T13:07:30.000Z</Time>
            <Position>
              <LatitudeDegrees>42.779155075550079345703125</LatitudeDegrees>
              <LongitudeDegrees>-0.13131416402757167816162109375</LongitudeDegrees>
            </Position>
            <AltitudeMeters>2709.39990234375</AltitudeMeters>
            <DistanceMeters>15756.248338157</DistanceMeters>
          </Trackpoint>
          <Trackpoint>
            <Time>2022-07-09T13:07:31.000Z</Time>
            <Position>
              <LatitudeDegrees>42.7791471965610980987548828125</LatitudeDegrees>
              <LongitudeDegrees>-0.131306536495685577392578125</LongitudeDegrees>
            </Position>
            <AltitudeMeters>2709.39990234375</AltitudeMeters>
            <DistanceMeters>15757.323442703</DistanceMeters>
          </Trackpoint>
          <Trackpoint>
            <Time>2022-07-09T13:07:34.000Z</Time>
            <Position>
              <LatitudeDegrees>42.77912079356610774993896484375</LatitudeDegrees>
              <LongitudeDegrees>-0.13131089508533477783203125</LongitudeDegrees>
            </Position>
            <AltitudeMeters>2709.39990234375</AltitudeMeters>
            <DistanceMeters>15760.284558072</DistanceMeters>
          </Trackpoint>
          <Trackpoint>
            <Time>2022-07-09T13:07:36.000Z</Time>
            <Position>
              <LatitudeDegrees>42.77910956181585788726806640625</LatitudeDegrees>
              <LongitudeDegrees>-0.1313184387981891632080078125</LongitudeDegrees>
            </Position>
            <AltitudeMeters>2709.39990234375</AltitudeMeters>
            <DistanceMeters>15761.681159845</DistanceMeters>
          </Trackpoint>
          <Trackpoint>
            <Time>2022-07-09T13:07:41.000Z</Time>
            <Position>
              <LatitudeDegrees>42.77907033450901508331298828125</LatitudeDegrees>
              <LongitudeDegrees>-0.13133101165294647216796875</LongitudeDegrees>
            </Position>
            <AltitudeMeters>2709.39990234375</AltitudeMeters>
            <DistanceMeters>15766.167588312</DistanceMeters>
          </Trackpoint>
          <Trackpoint>
            <Time>2022-07-09T13:07:43.000Z</Time>
            <Position>
              <LatitudeDegrees>42.77906111441552639007568359375</LatitudeDegrees>
              <LongitudeDegrees>-0.13134350068867206573486328125</LongitudeDegrees>
            </Position>
            <AltitudeMeters>2709.39990234375</AltitudeMeters>
            <DistanceMeters>15767.614992103</DistanceMeters>
          </Trackpoint>
          <Trackpoint>
            <Time>2022-07-09T13:07:49.000Z</Time>
            <Position>
              <LatitudeDegrees>42.77901090681552886962890625</LatitudeDegrees>
              <LongitudeDegrees>-0.1313566602766513824462890625</LongitudeDegrees>
            </Position>
            <AltitudeMeters>2709.39990234375</AltitudeMeters>
            <DistanceMeters>15773.305497716</DistanceMeters>
          </Trackpoint>
          <Trackpoint>
            <Time>2022-07-09T13:07:50.000Z</Time>
            <Position>
              <LatitudeDegrees>42.7790067158639430999755859375</LatitudeDegrees>
              <LongitudeDegrees>-0.13136344961822032928466796875</LongitudeDegrees>
            </Position>
            <AltitudeMeters>2710.199951171875</AltitudeMeters>
            <DistanceMeters>15774.029199612</DistanceMeters>
          </Trackpoint>
          <Trackpoint>
            <Time>2022-07-09T13:07:51.000Z</Time>
            <Position>
              <LatitudeDegrees>42.77899523265659809112548828125</LatitudeDegrees>
              <LongitudeDegrees>-0.1313710771501064300537109375</LongitudeDegrees>
            </Position>
            <AltitudeMeters>2710.800048828125</AltitudeMeters>
            <DistanceMeters>15775.451429243</DistanceMeters>
          </Trackpoint>
          <Trackpoint>
            <Time>2022-07-09T13:07:52.000Z</Time>
            <Position>
              <LatitudeDegrees>42.77898115105926990509033203125</LatitudeDegrees>
              <LongitudeDegrees>-0.1313791237771511077880859375</LongitudeDegrees>
            </Position>
            <AltitudeMeters>2711.199951171875</AltitudeMeters>
            <DistanceMeters>15777.151318787</DistanceMeters>
          </Trackpoint>
          <Trackpoint>
            <Time>2022-07-09T13:07:57.000Z</Time>
            <Position>
              <LatitudeDegrees>42.778946198523044586181640625</LatitudeDegrees>
              <LongitudeDegrees>-0.13137526810169219970703125</LongitudeDegrees>
            </Position>
            <AltitudeMeters>2712.39990234375</AltitudeMeters>
            <DistanceMeters>15781.055517685</DistanceMeters>
          </Trackpoint>
          <Trackpoint>
            <Time>2022-07-09T13:07:58.000Z</Time>
            <Position>
              <LatitudeDegrees>42.77893446385860443115234375</LatitudeDegrees>
              <LongitudeDegrees>-0.13138943351805210113525390625</LongitudeDegrees>
            </Position>
            <AltitudeMeters>2712.60009765625</AltitudeMeters>
            <DistanceMeters>15782.802562572</DistanceMeters>
          </Trackpoint>
          <Trackpoint>
            <Time>2022-07-09T13:08:00.000Z</Time>
            <Position>
              <LatitudeDegrees>42.778915353119373321533203125</LatitudeDegrees>
              <LongitudeDegrees>-0.13140032999217510223388671875</LongitudeDegrees>
            </Position>
            <AltitudeMeters>2712.800048828125</AltitudeMeters>
            <DistanceMeters>15785.110753444</DistanceMeters>
          </Trackpoint>
          <Trackpoint>
            <Time>2022-07-09T13:08:04.000Z</Time>
            <Position>
              <LatitudeDegrees>42.7789017744362354278564453125</LatitudeDegrees>
              <LongitudeDegrees>-0.1314109750092029571533203125</LongitudeDegrees>
            </Position>
            <AltitudeMeters>2713.39990234375</AltitudeMeters>
            <DistanceMeters>15786.852621891</DistanceMeters>
          </Trackpoint>
          <Trackpoint>
            <Time>2022-07-09T13:08:05.000Z</Time>
            <Position>
              <LatitudeDegrees>42.77889532037079334259033203125</LatitudeDegrees>
              <LongitudeDegrees>-0.1314133219420909881591796875</LongitudeDegrees>
            </Position>
            <AltitudeMeters>2713.39990234375</AltitudeMeters>
            <DistanceMeters>15787.600862988</DistanceMeters>
          </Trackpoint>
          <Trackpoint>
            <Time>2022-07-09T13:08:11.000Z</Time>
            <Position>
              <LatitudeDegrees>42.7788612060248851776123046875</LatitudeDegrees>
              <LongitudeDegrees>-0.13140820898115634918212890625</LongitudeDegrees>
            </Position>
            <AltitudeMeters>2713.800048828125</AltitudeMeters>
            <DistanceMeters>15791.420889629</DistanceMeters>
          </Trackpoint>
          <Trackpoint>
            <Time>2022-07-09T13:08:12.000Z</Time>
            <Position>
              <LatitudeDegrees>42.7788581885397434234619140625</LatitudeDegrees>
              <LongitudeDegrees>-0.13140535913407802581787109375</LongitudeDegrees>
            </Position>
            <AltitudeMeters>2714</AltitudeMeters>
            <DistanceMeters>15791.824053833</DistanceMeters>
          </Trackpoint>
          <Trackpoint>
            <Time>2022-07-09T13:08:14.000Z</Time>
            <Position>
              <LatitudeDegrees>42.7788479626178741455078125</LatitudeDegrees>
              <LongitudeDegrees>-0.1313985697925090789794921875</LongitudeDegrees>
            </Position>
            <AltitudeMeters>2714.199951171875</AltitudeMeters>
            <DistanceMeters>15793.088302041</DistanceMeters>
          </Trackpoint>
          <Trackpoint>
            <Time>2022-07-09T13:08:16.000Z</Time>
            <Position>
              <LatitudeDegrees>42.778822146356105804443359375</LatitudeDegrees>
              <LongitudeDegrees>-0.13140602968633174896240234375</LongitudeDegrees>
            </Position>
            <AltitudeMeters>2714.39990234375</AltitudeMeters>
            <DistanceMeters>15796.026456748</DistanceMeters>
          </Trackpoint>
          <Trackpoint>
            <Time>2022-07-09T13:08:20.000Z</Time>
            <Position>
              <LatitudeDegrees>42.77879591099917888641357421875</LatitudeDegrees>
              <LongitudeDegrees>-0.13138021342456340789794921875</LongitudeDegrees>
            </Position>
            <AltitudeMeters>2715.199951171875</AltitudeMeters>
            <DistanceMeters>15799.627455189</DistanceMeters>
          </Trackpoint>
          <Trackpoint>
            <Time>2022-07-09T13:08:23.000Z</Time>
            <Position>
              <LatitudeDegrees>42.77879037894308567047119140625</LatitudeDegrees>
              <LongitudeDegrees>-0.13135825283825397491455078125</LongitudeDegrees>
            </Position>
            <AltitudeMeters>2715.39990234375</AltitudeMeters>
            <DistanceMeters>15801.525612322</DistanceMeters>
          </Trackpoint>
          <Trackpoint>
            <Time>2022-07-09T13:08:27.000Z</Time>
            <Position>
              <LatitudeDegrees>42.77875475585460662841796875</LatitudeDegrees>
              <LongitudeDegrees>-0.13134844601154327392578125</LongitudeDegrees>
            </Position>
            <AltitudeMeters>2716.199951171875</AltitudeMeters>
            <DistanceMeters>15805.570670852</DistanceMeters>
          </Trackpoint>
          <Trackpoint>
            <Time>2022-07-09T13:08:30.000Z</Time>
            <Position>
              <LatitudeDegrees>42.77875232510268688201904296875</LatitudeDegrees>
              <LongitudeDegrees>-0.1313311792910099029541015625</LongitudeDegrees>
            </Position>
            <AltitudeMeters>2716.60009765625</AltitudeMeters>
            <DistanceMeters>15807.008685979</DistanceMeters>
          </Trackpoint>
          <Trackpoint>
            <Time>2022-07-09T13:08:33.000Z</Time>
            <Position>
              <LatitudeDegrees>42.778731286525726318359375</LatitudeDegrees>
              <LongitudeDegrees>-0.1313211210072040557861328125</LongitudeDegrees>
            </Position>
            <AltitudeMeters>2717</AltitudeMeters>
            <DistanceMeters>15809.490320952</DistanceMeters>
          </Trackpoint>
          <Trackpoint>
            <Time>2022-07-09T13:08:38.000Z</Time>
            <Position>
              <LatitudeDegrees>42.77867018245160579681396484375</LatitudeDegrees>
              <LongitudeDegrees>-0.13131198473274707794189453125</LongitudeDegrees>
            </Position>
            <AltitudeMeters>2717.800048828125</AltitudeMeters>
            <DistanceMeters>15816.332244386</DistanceMeters>
          </Trackpoint>
          <Trackpoint>
            <Time>2022-07-09T13:08:40.000Z</Time>
            <Position>
              <LatitudeDegrees>42.7786600403487682342529296875</LatitudeDegrees>
              <LongitudeDegrees>-0.13130427338182926177978515625</LongitudeDegrees>
            </Position>
            <AltitudeMeters>2718</AltitudeMeters>
            <DistanceMeters>15817.621249454</DistanceMeters>
          </Trackpoint>
          <Trackpoint>
            <Time>2022-07-09T13:08:44.000Z</Time>
            <Position>
              <LatitudeDegrees>42.77864403091371059417724609375</LatitudeDegrees>
              <LongitudeDegrees>-0.13129882514476776123046875</LongitudeDegrees>
            </Position>
            <AltitudeMeters>2719.199951171875</AltitudeMeters>
            <DistanceMeters>15819.458978648</DistanceMeters>
          </Trackpoint>
          <Trackpoint>
            <Time>2022-07-09T13:08:48.000Z</Time>
            <Position>
              <LatitudeDegrees>42.7786050550639629364013671875</LatitudeDegrees>
              <LongitudeDegrees>-0.131324641406536102294921875</LongitudeDegrees>
            </Position>
            <AltitudeMeters>2720.199951171875</AltitudeMeters>
            <DistanceMeters>15824.281993983</DistanceMeters>
          </Trackpoint>
          <Trackpoint>
            <Time>2022-07-09T13:08:50.000Z</Time>
            <Position>
              <LatitudeDegrees>42.7785812504589557647705078125</LatitudeDegrees>
              <LongitudeDegrees>-0.1313264854252338409423828125</LongitudeDegrees>
            </Position>
            <AltitudeMeters>2720.800048828125</AltitudeMeters>
            <DistanceMeters>15826.935945683</DistanceMeters>
          </Trackpoint>
          <Trackpoint>
            <Time>2022-07-09T13:08:52.000Z</Time>
            <Position>
              <LatitudeDegrees>42.77857647277414798736572265625</LatitudeDegrees>
              <LongitudeDegrees>-0.13131550513207912445068359375</LongitudeDegrees>
            </Position>
            <AltitudeMeters>2721.199951171875</AltitudeMeters>
            <DistanceMeters>15827.976911184</DistanceMeters>
          </Trackpoint>
          <Trackpoint>
            <Time>2022-07-09T13:08:53.000Z</Time>
            <Position>
              <LatitudeDegrees>42.77858166955411434173583984375</LatitudeDegrees>
              <LongitudeDegrees>-0.13132086955010890960693359375</LongitudeDegrees>
            </Position>
            <AltitudeMeters>2721.60009765625</AltitudeMeters>
            <DistanceMeters>15828.700613079</DistanceMeters>
          </Trackpoint>
          <Trackpoint>
            <Time>2022-07-09T13:08:54.000Z</Time>
            <Position>
              <LatitudeDegrees>42.778591811656951904296875</LatitudeDegrees>
              <LongitudeDegrees>-0.13134081847965717315673828125</LongitudeDegrees>
            </Position>
            <AltitudeMeters>2721.800048828125</AltitudeMeters>
            <DistanceMeters>15830.684829128</DistanceMeters>
          </Trackpoint>
          <Trackpoint>
            <Time>2022-07-09T13:08:55.000Z</Time>
            <Position>
              <LatitudeDegrees>42.77859793044626712799072265625</LatitudeDegrees>
              <LongitudeDegrees>-0.13136998750269412994384765625</LongitudeDegrees>
            </Position>
            <AltitudeMeters>2722</AltitudeMeters>
            <DistanceMeters>15833.162822668</DistanceMeters>
          </Trackpoint>
          <Trackpoint>
            <Time>2022-07-09T13:08:57.000Z</Time>
            <Position>
              <LatitudeDegrees>42.77859843336045742034912109375</LatitudeDegrees>
              <LongitudeDegrees>-0.1314108073711395263671875</LongitudeDegrees>
            </Position>
            <AltitudeMeters>2722.39990234375</AltitudeMeters>
            <DistanceMeters>15836.498246806</DistanceMeters>
          </Trackpoint>
          <Trackpoint>
            <Time>2022-07-09T13:09:02.000Z</Time>
            <Position>
              <LatitudeDegrees>42.77857211418449878692626953125</LatitudeDegrees>
              <LongitudeDegrees>-0.13143251650035381317138671875</LongitudeDegrees>
            </Position>
            <AltitudeMeters>2723.60009765625</AltitudeMeters>
            <DistanceMeters>15839.923165681</DistanceMeters>
          </Trackpoint>
          <Trackpoint>
            <Time>2022-07-09T13:09:07.000Z</Time>
            <Position>
              <LatitudeDegrees>42.7785668335855007171630859375</LatitudeDegrees>
              <LongitudeDegrees>-0.13143695890903472900390625</LongitudeDegrees>
            </Position>
            <AltitudeMeters>2724.800048828125</AltitudeMeters>
            <DistanceMeters>15840.621466567</DistanceMeters>
          </Trackpoint>
          <Trackpoint>
            <Time>2022-07-09T13:09:10.000Z</Time>
            <Position>
              <LatitudeDegrees>42.7785668335855007171630859375</LatitudeDegrees>
              <LongitudeDegrees>-0.13145900331437587738037109375</LongitudeDegrees>
            </Position>
            <AltitudeMeters>2725</AltitudeMeters>
            <DistanceMeters>15842.421965788</DistanceMeters>
          </Trackpoint>
          <Trackpoint>
            <Time>2022-07-09T13:09:14.000Z</Time>
            <Position>
              <LatitudeDegrees>42.7785701863467693328857421875</LatitudeDegrees>
              <LongitudeDegrees>-0.13151742517948150634765625</LongitudeDegrees>
            </Position>
            <AltitudeMeters>2725.800048828125</AltitudeMeters>
            <DistanceMeters>15847.208332253</DistanceMeters>
          </Trackpoint>
          <Trackpoint>
            <Time>2022-07-09T13:09:18.000Z</Time>
            <Position>
              <LatitudeDegrees>42.77857303619384765625</LatitudeDegrees>
              <LongitudeDegrees>-0.13157500885426998138427734375</LongitudeDegrees>
            </Position>
            <AltitudeMeters>2727</AltitudeMeters>
            <DistanceMeters>15851.923419548</DistanceMeters>
          </Trackpoint>
          <Trackpoint>
            <Time>2022-07-09T13:09:22.000Z</Time>
            <Position>
              <LatitudeDegrees>42.77858150191605091094970703125</LatitudeDegrees>
              <LongitudeDegrees>-0.1315350271761417388916015625</LongitudeDegrees>
            </Position>
            <AltitudeMeters>2728.199951171875</AltitudeMeters>
            <DistanceMeters>15855.323198637</DistanceMeters>
          </Trackpoint>
          <Trackpoint>
            <Time>2022-07-09T13:09:24.000Z</Time>
            <Position>
              <LatitudeDegrees>42.7785685099661350250244140625</LatitudeDegrees>
              <LongitudeDegrees>-0.13150996528565883636474609375</LongitudeDegrees>
            </Position>
            <AltitudeMeters>2728.60009765625</AltitudeMeters>
            <DistanceMeters>15857.830175542</DistanceMeters>
          </Trackpoint>
          <Trackpoint>
            <Time>2022-07-09T13:09:30.000Z</Time>
            <Position>
              <LatitudeDegrees>42.77850975282490253448486328125</LatitudeDegrees>
              <LongitudeDegrees>-0.1314605958759784698486328125</LongitudeDegrees>
            </Position>
            <AltitudeMeters>2728.800048828125</AltitudeMeters>
            <DistanceMeters>15865.513836114</DistanceMeters>
          </Trackpoint>
          <Trackpoint>
            <Time>2022-07-09T13:09:32.000Z</Time>
            <Position>
              <LatitudeDegrees>42.77849164791405200958251953125</LatitudeDegrees>
              <LongitudeDegrees>-0.1314724981784820556640625</LongitudeDegrees>
            </Position>
            <AltitudeMeters>2729</AltitudeMeters>
            <DistanceMeters>15867.754532993</DistanceMeters>
          </Trackpoint>
          <Trackpoint>
            <Time>2022-07-09T13:09:34.000Z</Time>
            <Position>
              <LatitudeDegrees>42.77847320772707462310791015625</LatitudeDegrees>
              <LongitudeDegrees>-0.131489597260951995849609375</LongitudeDegrees>
            </Position>
            <AltitudeMeters>2729.39990234375</AltitudeMeters>
            <DistanceMeters>15870.236167965</DistanceMeters>
          </Trackpoint>
          <Trackpoint>
            <Time>2022-07-09T13:09:38.000Z</Time>
            <Position>
              <LatitudeDegrees>42.77845443226397037506103515625</LatitudeDegrees>
              <LongitudeDegrees>-0.13151700608432292938232421875</LongitudeDegrees>
            </Position>
            <AltitudeMeters>2730.199951171875</AltitudeMeters>
            <DistanceMeters>15873.297739351</DistanceMeters>
          </Trackpoint>
          <Trackpoint>
            <Time>2022-07-09T13:09:40.000Z</Time>
            <Position>
              <LatitudeDegrees>42.77844537980854511260986328125</LatitudeDegrees>
              <LongitudeDegrees>-0.1315207779407501220703125</LongitudeDegrees>
            </Position>
            <AltitudeMeters>2730.39990234375</AltitudeMeters>
            <DistanceMeters>15874.355912059</DistanceMeters>
          </Trackpoint>
          <Trackpoint>
            <Time>2022-07-09T13:09:44.000Z</Time>
            <Position>
              <LatitudeDegrees>42.77840933762490749359130859375</LatitudeDegrees>
              <LongitudeDegrees>-0.1315159164369106292724609375</LongitudeDegrees>
            </Position>
            <AltitudeMeters>2731</AltitudeMeters>
            <DistanceMeters>15878.387554106</DistanceMeters>
          </Trackpoint>
          <Trackpoint>
            <Time>2022-07-09T13:09:45.000Z</Time>
            <Position>
              <LatitudeDegrees>42.77840338647365570068359375</LatitudeDegrees>
              <LongitudeDegrees>-0.131517089903354644775390625</LongitudeDegrees>
            </Position>
            <AltitudeMeters>2731.199951171875</AltitudeMeters>
            <DistanceMeters>15879.052741107</DistanceMeters>
          </Trackpoint>
          <Trackpoint>
            <Time>2022-07-09T13:09:46.000Z</Time>
            <Position>
              <LatitudeDegrees>42.77839827351272106170654296875</LatitudeDegrees>
              <LongitudeDegrees>-0.13152010738849639892578125</LongitudeDegrees>
            </Position>
            <AltitudeMeters>2731.39990234375</AltitudeMeters>
            <DistanceMeters>15879.668584602</DistanceMeters>
          </Trackpoint>
          <Trackpoint>
            <Time>2022-07-09T13:09:47.000Z</Time>
            <Position>
              <LatitudeDegrees>42.77839441783726215362548828125</LatitudeDegrees>
              <LongitudeDegrees>-0.131515748798847198486328125</LongitudeDegrees>
            </Position>
            <AltitudeMeters>2731.60009765625</AltitudeMeters>
            <DistanceMeters>15880.222680802</DistanceMeters>
          </Trackpoint>
          <Trackpoint>
            <Time>2022-07-09T13:09:50.000Z</Time>
            <Position>
              <LatitudeDegrees>42.77837296016514301300048828125</LatitudeDegrees>
              <LongitudeDegrees>-0.131509043276309967041015625</LongitudeDegrees>
            </Position>
            <AltitudeMeters>2732</AltitudeMeters>
            <DistanceMeters>15882.671347941</DistanceMeters>
          </Trackpoint>
          <Trackpoint>
            <Time>2022-07-09T13:09:51.000Z</Time>
            <Position>
              <LatitudeDegrees>42.77836239896714687347412109375</LatitudeDegrees>
              <LongitudeDegrees>-0.1315046846866607666015625</LongitudeDegrees>
            </Position>
            <AltitudeMeters>2732.39990234375</AltitudeMeters>
            <DistanceMeters>15883.895681511</DistanceMeters>
          </Trackpoint>
          <Trackpoint>
            <Time>2022-07-09T13:09:52.000Z</Time>
            <Position>
              <LatitudeDegrees>42.77835250832140445709228515625</LatitudeDegrees>
              <LongitudeDegrees>-0.13150376267731189727783203125</LongitudeDegrees>
            </Position>
            <AltitudeMeters>2732.39990234375</AltitudeMeters>
            <DistanceMeters>15884.995695258</DistanceMeters>
          </Trackpoint>
          <Trackpoint>
            <Time>2022-07-09T13:09:54.000Z</Time>
            <Position>
              <LatitudeDegrees>42.7783391810953617095947265625</LatitudeDegrees>
              <LongitudeDegrees>-0.1315068639814853668212890625</LongitudeDegrees>
            </Position>
            <AltitudeMeters>2733</AltitudeMeters>
            <DistanceMeters>15886.501201547</DistanceMeters>
          </Trackpoint>
          <Trackpoint>
            <Time>2022-07-09T13:09:56.000Z</Time>
            <Position>
              <LatitudeDegrees>42.778323590755462646484375</LatitudeDegrees>
              <LongitudeDegrees>-0.13151566497981548309326171875</LongitudeDegrees>
            </Position>
            <AltitudeMeters>2733.199951171875</AltitudeMeters>
            <DistanceMeters>15888.377828791</DistanceMeters>
          </Trackpoint>
          <Trackpoint>
            <Time>2022-07-09T13:09:57.000Z</Time>
            <Position>
              <LatitudeDegrees>42.77832484804093837738037109375</LatitudeDegrees>
              <LongitudeDegrees>-0.13152186758816242218017578125</LongitudeDegrees>
            </Position>
            <AltitudeMeters>2733.39990234375</AltitudeMeters>
            <DistanceMeters>15888.906915145</DistanceMeters>
          </Trackpoint>
          <Trackpoint>
            <Time>2022-07-09T13:09:58.000Z</Time>
            <Position>
              <LatitudeDegrees>42.778333313763141632080078125</LatitudeDegrees>
              <LongitudeDegrees>-0.1315330155193805694580078125</LongitudeDegrees>
            </Position>
            <AltitudeMeters>2733.39990234375</AltitudeMeters>
            <DistanceMeters>15890.216768009</DistanceMeters>
          </Trackpoint>
          <Trackpoint>
            <Time>2022-07-09T13:10:02.000Z</Time>
            <Position>
              <LatitudeDegrees>42.77834127657115459442138671875</LatitudeDegrees>
              <LongitudeDegrees>-0.13156235218048095703125</LongitudeDegrees>
            </Position>
            <AltitudeMeters>2734.39990234375</AltitudeMeters>
            <DistanceMeters>15892.773675388</DistanceMeters>
          </Trackpoint>
          <Trackpoint>
            <Time>2022-07-09T13:10:03.000Z</Time>
            <Position>
              <LatitudeDegrees>42.77833809144794940948486328125</LatitudeDegrees>
              <LongitudeDegrees>-0.13156511820852756500244140625</LongitudeDegrees>
            </Position>
            <AltitudeMeters>2734.60009765625</AltitudeMeters>
            <DistanceMeters>15893.198647774</DistanceMeters>
          </Trackpoint>
          <Trackpoint>
            <Time>2022-07-09T13:10:08.000Z</Time>
            <Position>
              <LatitudeDegrees>42.77832132764160633087158203125</LatitudeDegrees>
              <LongitudeDegrees>-0.13152815401554107666015625</LongitudeDegrees>
            </Position>
            <AltitudeMeters>2735.60009765625</AltitudeMeters>
            <DistanceMeters>15896.749138827</DistanceMeters>
          </Trackpoint>
          <Trackpoint>
            <Time>2022-07-09T13:10:09.000Z</Time>
            <Position>
              <LatitudeDegrees>42.778318561613559722900390625</LatitudeDegrees>
              <LongitudeDegrees>-0.13152681291103363037109375</LongitudeDegrees>
            </Position>
            <AltitudeMeters>2736</AltitudeMeters>
            <DistanceMeters>15897.064306783</DistanceMeters>
          </Trackpoint>
          <Trackpoint>
            <Time>2022-07-09T13:10:15.000Z</Time>
            <Position>
              <LatitudeDegrees>42.7783026359975337982177734375</LatitudeDegrees>
              <LongitudeDegrees>-0.13149437494575977325439453125</LongitudeDegrees>
            </Position>
            <AltitudeMeters>2736.39990234375</AltitudeMeters>
            <DistanceMeters>15900.253015938</DistanceMeters>
          </Trackpoint>
          <Trackpoint>
            <Time>2022-07-09T13:10:17.000Z</Time>
            <Position>
              <LatitudeDegrees>42.778295762836933135986328125</LatitudeDegrees>
              <LongitudeDegrees>-0.1314877532422542572021484375</LongitudeDegrees>
            </Position>
            <AltitudeMeters>2737</AltitudeMeters>
            <DistanceMeters>15901.184083787</DistanceMeters>
          </Trackpoint>
          <Trackpoint>
            <Time>2022-07-09T13:10:22.000Z</Time>
            <Position>
              <LatitudeDegrees>42.7782855369150638580322265625</LatitudeDegrees>
              <LongitudeDegrees>-0.1314689777791500091552734375</LongitudeDegrees>
            </Position>
            <AltitudeMeters>2738.199951171875</AltitudeMeters>
            <DistanceMeters>15903.094097107</DistanceMeters>
          </Trackpoint>
          <Trackpoint>
            <Time>2022-07-09T13:10:23.000Z</Time>
            <Position>
              <LatitudeDegrees>42.77827338315546512603759765625</LatitudeDegrees>
              <LongitudeDegrees>-0.13147593475878238677978515625</LongitudeDegrees>
            </Position>
            <AltitudeMeters>2738.199951171875</AltitudeMeters>
            <DistanceMeters>15904.560097855</DistanceMeters>
          </Trackpoint>
          <Trackpoint>
            <Time>2022-07-09T13:10:27.000Z</Time>
            <Position>
              <LatitudeDegrees>42.77822057716548442840576171875</LatitudeDegrees>
              <LongitudeDegrees>-0.13149186037480831146240234375</LongitudeDegrees>
            </Position>
            <AltitudeMeters>2739.199951171875</AltitudeMeters>
            <DistanceMeters>15910.579123249</DistanceMeters>
          </Trackpoint>
          <Trackpoint>
            <Time>2022-07-09T13:10:32.000Z</Time>
            <Position>
              <LatitudeDegrees>42.77816735208034515380859375</LatitudeDegrees>
              <LongitudeDegrees>-0.13148817233741283416748046875</LongitudeDegrees>
            </Position>
            <AltitudeMeters>2740.39990234375</AltitudeMeters>
            <DistanceMeters>15916.510495588</DistanceMeters>
          </Trackpoint>
          <Trackpoint>
            <Time>2022-07-09T13:10:37.000Z</Time>
            <Position>
              <LatitudeDegrees>42.77817430905997753143310546875</LatitudeDegrees>
              <LongitudeDegrees>-0.13148783706128597259521484375</LongitudeDegrees>
            </Position>
            <AltitudeMeters>2741.39990234375</AltitudeMeters>
            <DistanceMeters>15917.282496265</DistanceMeters>
          </Trackpoint>
          <Trackpoint>
            <Time>2022-07-09T13:10:39.000Z</Time>
            <Position>
              <LatitudeDegrees>42.77817799709737300872802734375</LatitudeDegrees>
              <LongitudeDegrees>-0.13148498721420764923095703125</LongitudeDegrees>
            </Position>
            <AltitudeMeters>2742</AltitudeMeters>
            <DistanceMeters>15917.74803019</DistanceMeters>
          </Trackpoint>
          <Trackpoint>
            <Time>2022-07-09T13:10:44.000Z</Time>
            <Position>
              <LatitudeDegrees>42.77815368957817554473876953125</LatitudeDegrees>
              <LongitudeDegrees>-0.13153888285160064697265625</LongitudeDegrees>
            </Position>
            <AltitudeMeters>2742.39990234375</AltitudeMeters>
            <DistanceMeters>15922.91454797</DistanceMeters>
          </Trackpoint>
          <Trackpoint>
            <Time>2022-07-09T13:10:45.000Z</Time>
            <Position>
              <LatitudeDegrees>42.77815234847366809844970703125</LatitudeDegrees>
              <LongitudeDegrees>-0.13153863139450550079345703125</LongitudeDegrees>
            </Position>
            <AltitudeMeters>2742.60009765625</AltitudeMeters>
            <DistanceMeters>15923.048936038</DistanceMeters>
          </Trackpoint>
          <Trackpoint>
            <Time>2022-07-09T13:10:49.000Z</Time>
            <Position>
              <LatitudeDegrees>42.77813591994345188140869140625</LatitudeDegrees>
              <LongitudeDegrees>-0.13155254535377025604248046875</LongitudeDegrees>
            </Position>
            <AltitudeMeters>2743.800048828125</AltitudeMeters>
            <DistanceMeters>15925.203340664</DistanceMeters>
          </Trackpoint>
          <Trackpoint>
            <Time>2022-07-09T13:10:51.000Z</Time>
            <Position>
              <LatitudeDegrees>42.778124772012233734130859375</LatitudeDegrees>
              <LongitudeDegrees>-0.13156444765627384185791015625</LongitudeDegrees>
            </Position>
            <AltitudeMeters>2744.199951171875</AltitudeMeters>
            <DistanceMeters>15926.78204301</DistanceMeters>
          </Trackpoint>
          <Trackpoint>
            <Time>2022-07-09T13:10:54.000Z</Time>
            <Position>
              <LatitudeDegrees>42.77811345644295215606689453125</LatitudeDegrees>
              <LongitudeDegrees>-0.13154332526028156280517578125</LongitudeDegrees>
            </Position>
            <AltitudeMeters>2744.800048828125</AltitudeMeters>
            <DistanceMeters>15928.919616092</DistanceMeters>
          </Trackpoint>
          <Trackpoint>
            <Time>2022-07-09T13:10:58.000Z</Time>
            <Position>
              <LatitudeDegrees>42.7780835330486297607421875</LatitudeDegrees>
              <LongitudeDegrees>-0.13156235218048095703125</LongitudeDegrees>
            </Position>
            <AltitudeMeters>2745.800048828125</AltitudeMeters>
            <DistanceMeters>15932.596302703</DistanceMeters>
          </Trackpoint>
          <Trackpoint>
            <Time>2022-07-09T13:10:59.000Z</Time>
            <Position>
              <LatitudeDegrees>42.77807171456515789031982421875</LatitudeDegrees>
              <LongitudeDegrees>-0.131566040217876434326171875</LongitudeDegrees>
            </Position>
            <AltitudeMeters>2746</AltitudeMeters>
            <DistanceMeters>15933.946886074</DistanceMeters>
          </Trackpoint>
          <Trackpoint>
            <Time>2022-07-09T13:11:02.000Z</Time>
            <Position>
              <LatitudeDegrees>42.778047658503055572509765625</LatitudeDegrees>
              <LongitudeDegrees>-0.13156235218048095703125</LongitudeDegrees>
            </Position>
            <AltitudeMeters>2746.39990234375</AltitudeMeters>
            <DistanceMeters>15936.641358464</DistanceMeters>
          </Trackpoint>
          <Trackpoint>
            <Time>2022-07-09T13:11:06.000Z</Time>
            <Position>
              <LatitudeDegrees>42.778038941323757171630859375</LatitudeDegrees>
              <LongitudeDegrees>-0.131536535918712615966796875</LongitudeDegrees>
            </Position>
            <AltitudeMeters>2747.199951171875</AltitudeMeters>
            <DistanceMeters>15938.961256212</DistanceMeters>
          </Trackpoint>
          <Trackpoint>
            <Time>2022-07-09T13:11:07.000Z</Time>
            <Position>
              <LatitudeDegrees>42.77803198434412479400634765625</LatitudeDegrees>
              <LongitudeDegrees>-0.13154290616512298583984375</LongitudeDegrees>
            </Position>
            <AltitudeMeters>2747.60009765625</AltitudeMeters>
            <DistanceMeters>15939.90197269</DistanceMeters>
          </Trackpoint>
          <Trackpoint>
            <Time>2022-07-09T13:11:13.000Z</Time>
            <Position>
              <LatitudeDegrees>42.77800885029137134552001953125</LatitudeDegrees>
              <LongitudeDegrees>-0.13159386813640594482421875</LongitudeDegrees>
            </Position>
            <AltitudeMeters>2748.60009765625</AltitudeMeters>
            <DistanceMeters>15944.797462745</DistanceMeters>
          </Trackpoint>
          <Trackpoint>
            <Time>2022-07-09T13:11:19.000Z</Time>
            <Position>
              <LatitudeDegrees>42.77802159078419208526611328125</LatitudeDegrees>
              <LongitudeDegrees>-0.13163854368031024932861328125</LongitudeDegrees>
            </Position>
            <AltitudeMeters>2749.800048828125</AltitudeMeters>
            <DistanceMeters>15948.713209137</DistanceMeters>
          </Trackpoint>
          <Trackpoint>
            <Time>2022-07-09T13:11:22.000Z</Time>
            <Position>
              <LatitudeDegrees>42.77803684584796428680419921875</LatitudeDegrees>
              <LongitudeDegrees>-0.131669975817203521728515625</LongitudeDegrees>
            </Position>
            <AltitudeMeters>2750.800048828125</AltitudeMeters>
            <DistanceMeters>15951.790959969</DistanceMeters>
          </Trackpoint>
          <Trackpoint>
            <Time>2022-07-09T13:11:25.000Z</Time>
            <Position>
              <LatitudeDegrees>42.778044976294040679931640625</LatitudeDegrees>
              <LongitudeDegrees>-0.1316869072616100311279296875</LongitudeDegrees>
            </Position>
            <AltitudeMeters>2751.39990234375</AltitudeMeters>
            <DistanceMeters>15953.442348199</DistanceMeters>
          </Trackpoint>
          <Trackpoint>
            <Time>2022-07-09T13:11:27.000Z</Time>
            <Position>
              <LatitudeDegrees>42.77803592383861541748046875</LatitudeDegrees>
              <LongitudeDegrees>-0.13168933801352977752685546875</LongitudeDegrees>
            </Position>
            <AltitudeMeters>2751.60009765625</AltitudeMeters>
            <DistanceMeters>15954.470219273</DistanceMeters>
          </Trackpoint>
          <Trackpoint>
            <Time>2022-07-09T13:11:28.000Z</Time>
            <Position>
              <LatitudeDegrees>42.7780272066593170166015625</LatitudeDegrees>
              <LongitudeDegrees>-0.13168749399483203887939453125</LongitudeDegrees>
            </Position>
            <AltitudeMeters>2751.800048828125</AltitudeMeters>
            <DistanceMeters>15955.45318325</DistanceMeters>
          </Trackpoint>
          <Trackpoint>
            <Time>2022-07-09T13:11:33.000Z</Time>
            <Position>
              <LatitudeDegrees>42.7779881469905376434326171875</LatitudeDegrees>
              <LongitudeDegrees>-0.13167156837880611419677734375</LongitudeDegrees>
            </Position>
            <AltitudeMeters>2753.199951171875</AltitudeMeters>
            <DistanceMeters>15959.99064667</DistanceMeters>
          </Trackpoint>
          <Trackpoint>
            <Time>2022-07-09T13:11:34.000Z</Time>
            <Position>
              <LatitudeDegrees>42.7779837884008884429931640625</LatitudeDegrees>
              <LongitudeDegrees>-0.1316664554178714752197265625</LongitudeDegrees>
            </Position>
            <AltitudeMeters>2753.60009765625</AltitudeMeters>
            <DistanceMeters>15960.635149204</DistanceMeters>
          </Trackpoint>
          <Trackpoint>
            <Time>2022-07-09T13:11:39.000Z</Time>
            <Position>
              <LatitudeDegrees>42.77795948088169097900390625</LatitudeDegrees>
              <LongitudeDegrees>-0.13165899552404880523681640625</LongitudeDegrees>
            </Position>
            <AltitudeMeters>2754.199951171875</AltitudeMeters>
            <DistanceMeters>15963.40888768</DistanceMeters>
          </Trackpoint>
          <Trackpoint>
            <Time>2022-07-09T13:11:40.000Z</Time>
            <Position>
              <LatitudeDegrees>42.77795285917818546295166015625</LatitudeDegrees>
              <LongitudeDegrees>-0.13165899552404880523681640625</LongitudeDegrees>
            </Position>
            <AltitudeMeters>2754.39990234375</AltitudeMeters>
            <DistanceMeters>15964.144961444</DistanceMeters>
          </Trackpoint>
          <Trackpoint>
            <Time>2022-07-09T13:11:41.000Z</Time>
            <Position>
              <LatitudeDegrees>42.77794741094112396240234375</LatitudeDegrees>
              <LongitudeDegrees>-0.131659917533397674560546875</LongitudeDegrees>
            </Position>
            <AltitudeMeters>2754.60009765625</AltitudeMeters>
            <DistanceMeters>15964.753429302</DistanceMeters>
          </Trackpoint>
          <Trackpoint>
            <Time>2022-07-09T13:11:43.000Z</Time>
            <Position>
              <LatitudeDegrees>42.77793425135314464569091796875</LatitudeDegrees>
              <LongitudeDegrees>-0.13168196193873882293701171875</LongitudeDegrees>
            </Position>
            <AltitudeMeters>2755</AltitudeMeters>
            <DistanceMeters>15967.075272457</DistanceMeters>
          </Trackpoint>
          <Trackpoint>
            <Time>2022-07-09T13:11:45.000Z</Time>
            <Position>
              <LatitudeDegrees>42.7779334969818592071533203125</LatitudeDegrees>
              <LongitudeDegrees>-0.13170056976377964019775390625</LongitudeDegrees>
            </Position>
            <AltitudeMeters>2755.199951171875</AltitudeMeters>
            <DistanceMeters>15968.601627502</DistanceMeters>
          </Trackpoint>
          <Trackpoint>
            <Time>2022-07-09T13:11:47.000Z</Time>
            <Position>
              <LatitudeDegrees>42.7779400348663330078125</LatitudeDegrees>
              <LongitudeDegrees>-0.13172940351068973541259765625</LongitudeDegrees>
            </Position>
            <AltitudeMeters>2755.60009765625</AltitudeMeters>
            <DistanceMeters>15971.070493962</DistanceMeters>
          </Trackpoint>
          <Trackpoint>
            <Time>2022-07-09T13:11:53.000Z</Time>
            <Position>
              <LatitudeDegrees>42.77790558524429798126220703125</LatitudeDegrees>
              <LongitudeDegrees>-0.1317127235233783721923828125</LongitudeDegrees>
            </Position>
            <AltitudeMeters>2756.199951171875</AltitudeMeters>
            <DistanceMeters>15975.140034501</DistanceMeters>
          </Trackpoint>
          <Trackpoint>
            <Time>2022-07-09T13:11:55.000Z</Time>
            <Position>
              <LatitudeDegrees>42.777911536395549774169921875</LatitudeDegrees>
              <LongitudeDegrees>-0.13172739185392856597900390625</LongitudeDegrees>
            </Position>
            <AltitudeMeters>2756.60009765625</AltitudeMeters>
            <DistanceMeters>15976.510529266</DistanceMeters>
          </Trackpoint>
          <Trackpoint>
            <Time>2022-07-09T13:11:59.000Z</Time>
            <Position>
              <LatitudeDegrees>42.7779060043394565582275390625</LatitudeDegrees>
              <LongitudeDegrees>-0.13177248649299144744873046875</LongitudeDegrees>
            </Position>
            <AltitudeMeters>2757.800048828125</AltitudeMeters>
            <DistanceMeters>15980.245695676</DistanceMeters>
          </Trackpoint>
          <Trackpoint>
            <Time>2022-07-09T13:12:01.000Z</Time>
            <Position>
              <LatitudeDegrees>42.77790315449237823486328125</LatitudeDegrees>
              <LongitudeDegrees>-0.13179645873606204986572265625</LongitudeDegrees>
            </Position>
            <AltitudeMeters>2759</AltitudeMeters>
            <DistanceMeters>15982.229911725</DistanceMeters>
          </Trackpoint>
          <Trackpoint>
            <Time>2022-07-09T13:12:04.000Z</Time>
            <Position>
              <LatitudeDegrees>42.7779090218245983123779296875</LatitudeDegrees>
              <LongitudeDegrees>-0.13181607238948345184326171875</LongitudeDegrees>
            </Position>
            <AltitudeMeters>2760.199951171875</AltitudeMeters>
            <DistanceMeters>15983.961380864</DistanceMeters>
          </Trackpoint>
          <Trackpoint>
            <Time>2022-07-09T13:12:06.000Z</Time>
            <Position>
              <LatitudeDegrees>42.7779172360897064208984375</LatitudeDegrees>
              <LongitudeDegrees>-0.13181758113205432891845703125</LongitudeDegrees>
            </Position>
            <AltitudeMeters>2760.39990234375</AltitudeMeters>
            <DistanceMeters>15984.882699042</DistanceMeters>
          </Trackpoint>
          <Trackpoint>
            <Time>2022-07-09T13:12:12.000Z</Time>
            <Position>
              <LatitudeDegrees>42.77785621583461761474609375</LatitudeDegrees>
              <LongitudeDegrees>-0.1317589916288852691650390625</LongitudeDegrees>
            </Position>
            <AltitudeMeters>2760.800048828125</AltitudeMeters>
            <DistanceMeters>15993.191425444</DistanceMeters>
          </Trackpoint>
          <Trackpoint>
            <Time>2022-07-09T13:12:13.000Z</Time>
            <Position>
              <LatitudeDegrees>42.77784992940723896026611328125</LatitudeDegrees>
              <LongitudeDegrees>-0.1317522861063480377197265625</LongitudeDegrees>
            </Position>
            <AltitudeMeters>2761</AltitudeMeters>
            <DistanceMeters>15994.077775629</DistanceMeters>
          </Trackpoint>
          <Trackpoint>
            <Time>2022-07-09T13:12:15.000Z</Time>
            <Position>
              <LatitudeDegrees>42.77783517725765705108642578125</LatitudeDegrees>
              <LongitudeDegrees>-0.13174147345125675201416015625</LongitudeDegrees>
            </Position>
            <AltitudeMeters>2761.39990234375</AltitudeMeters>
            <DistanceMeters>15995.939911326</DistanceMeters>
          </Trackpoint>
          <Trackpoint>
            <Time>2022-07-09T13:12:20.000Z</Time>
            <Position>
              <LatitudeDegrees>42.77780852280557155609130859375</LatitudeDegrees>
              <LongitudeDegrees>-0.13174331746995449066162109375</LongitudeDegrees>
            </Position>
            <AltitudeMeters>2762</AltitudeMeters>
            <DistanceMeters>15998.910161262</DistanceMeters>
          </Trackpoint>
          <Trackpoint>
            <Time>2022-07-09T13:12:22.000Z</Time>
            <Position>
              <LatitudeDegrees>42.77779008261859416961669921875</LatitudeDegrees>
              <LongitudeDegrees>-0.1317365281283855438232421875</LongitudeDegrees>
            </Position>
            <AltitudeMeters>2762.199951171875</AltitudeMeters>
            <DistanceMeters>16001.035023192</DistanceMeters>
          </Trackpoint>
          <Trackpoint>
            <Time>2022-07-09T13:12:23.000Z</Time>
            <Position>
              <LatitudeDegrees>42.77778354473412036895751953125</LatitudeDegrees>
              <LongitudeDegrees>-0.13173644430935382843017578125</LongitudeDegrees>
            </Position>
            <AltitudeMeters>2762.39990234375</AltitudeMeters>
            <DistanceMeters>16001.758725088</DistanceMeters>
          </Trackpoint>
          <Trackpoint>
            <Time>2022-07-09T13:12:25.000Z</Time>
            <Position>
              <LatitudeDegrees>42.77777415700256824493408203125</LatitudeDegrees>
              <LongitudeDegrees>-0.13173845596611499786376953125</LongitudeDegrees>
            </Position>
            <AltitudeMeters>2762.800048828125</AltitudeMeters>
            <DistanceMeters>16002.816897796</DistanceMeters>
          </Trackpoint>
          <Trackpoint>
            <Time>2022-07-09T13:12:26.000Z</Time>
            <Position>
              <LatitudeDegrees>42.7777668647468090057373046875</LatitudeDegrees>
              <LongitudeDegrees>-0.13173409737646579742431640625</LongitudeDegrees>
            </Position>
            <AltitudeMeters>2762.800048828125</AltitudeMeters>
            <DistanceMeters>16003.703247981</DistanceMeters>
          </Trackpoint>
          <Trackpoint>
            <Time>2022-07-09T13:12:29.000Z</Time>
            <Position>
              <LatitudeDegrees>42.77775035239756107330322265625</LatitudeDegrees>
              <LongitudeDegrees>-0.13174130581319332122802734375</LongitudeDegrees>
            </Position>
            <AltitudeMeters>2763.60009765625</AltitudeMeters>
            <DistanceMeters>16005.632079621</DistanceMeters>
          </Trackpoint>
          <Trackpoint>
            <Time>2022-07-09T13:12:31.000Z</Time>
            <Position>
              <LatitudeDegrees>42.77775303460657596588134765625</LatitudeDegrees>
              <LongitudeDegrees>-0.1317702233791351318359375</LongitudeDegrees>
            </Position>
            <AltitudeMeters>2764</AltitudeMeters>
            <DistanceMeters>16008.013442257</DistanceMeters>
          </Trackpoint>
          <Trackpoint>
            <Time>2022-07-09T13:12:32.000Z</Time>
            <Position>
              <LatitudeDegrees>42.7777534537017345428466796875</LatitudeDegrees>
              <LongitudeDegrees>-0.13178455643355846405029296875</LongitudeDegrees>
            </Position>
            <AltitudeMeters>2764.60009765625</AltitudeMeters>
            <DistanceMeters>16009.185010275</DistanceMeters>
          </Trackpoint>
          <Trackpoint>
            <Time>2022-07-09T13:12:37.000Z</Time>
            <Position>
              <LatitudeDegrees>42.77774280868470668792724609375</LatitudeDegrees>
              <LongitudeDegrees>-0.13182898052036762237548828125</LongitudeDegrees>
            </Position>
            <AltitudeMeters>2765.60009765625</AltitudeMeters>
            <DistanceMeters>16013.002672305</DistanceMeters>
          </Trackpoint>
          <Trackpoint>
            <Time>2022-07-09T13:12:41.000Z</Time>
            <Position>
              <LatitudeDegrees>42.77775026857852935791015625</LatitudeDegrees>
              <LongitudeDegrees>-0.13185446150600910186767578125</LongitudeDegrees>
            </Position>
            <AltitudeMeters>2766.39990234375</AltitudeMeters>
            <DistanceMeters>16015.245383294</DistanceMeters>
          </Trackpoint>
          <Trackpoint>
            <Time>2022-07-09T13:12:42.000Z</Time>
            <Position>
              <LatitudeDegrees>42.7777447365224361419677734375</LatitudeDegrees>
              <LongitudeDegrees>-0.131849013268947601318359375</LongitudeDegrees>
            </Position>
            <AltitudeMeters>2766.60009765625</AltitudeMeters>
            <DistanceMeters>16016.005597009</DistanceMeters>
          </Trackpoint>
          <Trackpoint>
            <Time>2022-07-09T13:12:45.000Z</Time>
            <Position>
              <LatitudeDegrees>42.777733504772186279296875</LatitudeDegrees>
              <LongitudeDegrees>-0.13183660805225372314453125</LongitudeDegrees>
            </Position>
            <AltitudeMeters>2767.800048828125</AltitudeMeters>
            <DistanceMeters>16017.615451642</DistanceMeters>
          </Trackpoint>
          <Trackpoint>
            <Time>2022-07-09T13:12:48.000Z</Time>
            <Position>
              <LatitudeDegrees>42.7777155674993991851806640625</LatitudeDegrees>
              <LongitudeDegrees>-0.131832920014858245849609375</LongitudeDegrees>
            </Position>
            <AltitudeMeters>2768.199951171875</AltitudeMeters>
            <DistanceMeters>16019.635747302</DistanceMeters>
          </Trackpoint>
          <Trackpoint>
            <Time>2022-07-09T13:12:54.000Z</Time>
            <Position>
              <LatitudeDegrees>42.77770676650106906890869140625</LatitudeDegrees>
              <LongitudeDegrees>-0.13190366327762603759765625</LongitudeDegrees>
            </Position>
            <AltitudeMeters>2768.60009765625</AltitudeMeters>
            <DistanceMeters>16025.498210176</DistanceMeters>
          </Trackpoint>
          <Trackpoint>
            <Time>2022-07-09T13:12:55.000Z</Time>
            <Position>
              <LatitudeDegrees>42.77770274318754673004150390625</LatitudeDegrees>
              <LongitudeDegrees>-0.1319078542292118072509765625</LongitudeDegrees>
            </Position>
            <AltitudeMeters>2769</AltitudeMeters>
            <DistanceMeters>16026.068370462</DistanceMeters>
          </Trackpoint>
          <Trackpoint>
            <Time>2022-07-09T13:13:00.000Z</Time>
            <Position>
              <LatitudeDegrees>42.77767189778387546539306640625</LatitudeDegrees>
              <LongitudeDegrees>-0.13189855031669139862060546875</LongitudeDegrees>
            </Position>
            <AltitudeMeters>2770</AltitudeMeters>
            <DistanceMeters>16029.585642804</DistanceMeters>
          </Trackpoint>
          <Trackpoint>
            <Time>2022-07-09T13:13:01.000Z</Time>
            <Position>
              <LatitudeDegrees>42.77766502462327480316162109375</LatitudeDegrees>
              <LongitudeDegrees>-0.13189536519348621368408203125</LongitudeDegrees>
            </Position>
            <AltitudeMeters>2770</AltitudeMeters>
            <DistanceMeters>16030.397551407</DistanceMeters>
          </Trackpoint>
          <Trackpoint>
            <Time>2022-07-09T13:13:04.000Z</Time>
            <Position>
              <LatitudeDegrees>42.7776511944830417633056640625</LatitudeDegrees>
              <LongitudeDegrees>-0.13188748620450496673583984375</LongitudeDegrees>
            </Position>
            <AltitudeMeters>2771</AltitudeMeters>
            <DistanceMeters>16032.065263476</DistanceMeters>
          </Trackpoint>
          <Trackpoint>
            <Time>2022-07-09T13:13:06.000Z</Time>
            <Position>
              <LatitudeDegrees>42.77763417921960353851318359375</LatitudeDegrees>
              <LongitudeDegrees>-0.13186418451368808746337890625</LongitudeDegrees>
            </Position>
            <AltitudeMeters>2771.199951171875</AltitudeMeters>
            <DistanceMeters>16034.749663037</DistanceMeters>
          </Trackpoint>
          <Trackpoint>
            <Time>2022-07-09T13:13:08.000Z</Time>
            <Position>
              <LatitudeDegrees>42.77761842124164104461669921875</LatitudeDegrees>
              <LongitudeDegrees>-0.13184423558413982391357421875</LongitudeDegrees>
            </Position>
            <AltitudeMeters>2771.199951171875</AltitudeMeters>
            <DistanceMeters>16037.142374567</DistanceMeters>
          </Trackpoint>
          <Trackpoint>
            <Time>2022-07-09T13:13:10.000Z</Time>
            <Position>
              <LatitudeDegrees>42.77760132215917110443115234375</LatitudeDegrees>
              <LongitudeDegrees>-0.131846331059932708740234375</LongitudeDegrees>
            </Position>
            <AltitudeMeters>2771.199951171875</AltitudeMeters>
            <DistanceMeters>16039.052387887</DistanceMeters>
          </Trackpoint>
          <Trackpoint>
            <Time>2022-07-09T13:13:13.000Z</Time>
            <Position>
              <LatitudeDegrees>42.77758154086768627166748046875</LatitudeDegrees>
              <LongitudeDegrees>-0.13184758834540843963623046875</LongitudeDegrees>
            </Position>
            <AltitudeMeters>2771.199951171875</AltitudeMeters>
            <DistanceMeters>16041.256516088</DistanceMeters>
          </Trackpoint>
          <Trackpoint>
            <Time>2022-07-09T13:13:14.000Z</Time>
            <Position>
              <LatitudeDegrees>42.7775764279067516326904296875</LatitudeDegrees>
              <LongitudeDegrees>-0.1318485103547573089599609375</LongitudeDegrees>
            </Position>
            <AltitudeMeters>2771.199951171875</AltitudeMeters>
            <DistanceMeters>16041.834541026</DistanceMeters>
          </Trackpoint>
          <Trackpoint>
            <Time>2022-07-09T13:13:18.000Z</Time>
            <Position>
              <LatitudeDegrees>42.77756008319556713104248046875</LatitudeDegrees>
              <LongitudeDegrees>-0.1318506896495819091796875</LongitudeDegrees>
            </Position>
            <AltitudeMeters>2772.199951171875</AltitudeMeters>
            <DistanceMeters>16043.664884808</DistanceMeters>
          </Trackpoint>
          <Trackpoint>
            <Time>2022-07-09T13:13:21.000Z</Time>
            <Position>
              <LatitudeDegrees>42.7775752544403076171875</LatitudeDegrees>
              <LongitudeDegrees>-0.1318874023854732513427734375</LongitudeDegrees>
            </Position>
            <AltitudeMeters>2772.800048828125</AltitudeMeters>
            <DistanceMeters>16047.106898796</DistanceMeters>
          </Trackpoint>
          <Trackpoint>
            <Time>2022-07-09T13:13:24.000Z</Time>
            <Position>
              <LatitudeDegrees>42.77758070267736911773681640625</LatitudeDegrees>
              <LongitudeDegrees>-0.1318988017737865447998046875</LongitudeDegrees>
            </Position>
            <AltitudeMeters>2773.39990234375</AltitudeMeters>
            <DistanceMeters>16048.215091196</DistanceMeters>
          </Trackpoint>
          <Trackpoint>
            <Time>2022-07-09T13:13:27.000Z</Time>
            <Position>
              <LatitudeDegrees>42.777550108730792999267578125</LatitudeDegrees>
              <LongitudeDegrees>-0.1318967901170253753662109375</LongitudeDegrees>
            </Position>
            <AltitudeMeters>2773.800048828125</AltitudeMeters>
            <DistanceMeters>16051.622829201</DistanceMeters>
          </Trackpoint>
          <Trackpoint>
            <Time>2022-07-09T13:13:30.000Z</Time>
            <Position>
              <LatitudeDegrees>42.7775308303534984588623046875</LatitudeDegrees>
              <LongitudeDegrees>-0.131912045180797576904296875</LongitudeDegrees>
            </Position>
            <AltitudeMeters>2774.39990234375</AltitudeMeters>
            <DistanceMeters>16054.104464173</DistanceMeters>
          </Trackpoint>
          <Trackpoint>
            <Time>2022-07-09T13:13:34.000Z</Time>
            <Position>
              <LatitudeDegrees>42.7775093726813793182373046875</LatitudeDegrees>
              <LongitudeDegrees>-0.13189620338380336761474609375</LongitudeDegrees>
            </Position>
            <AltitudeMeters>2775.800048828125</AltitudeMeters>
            <DistanceMeters>16056.818970091</DistanceMeters>
          </Trackpoint>
          <Trackpoint>
            <Time>2022-07-09T13:13:37.000Z</Time>
            <Position>
              <LatitudeDegrees>42.777487747371196746826171875</LatitudeDegrees>
              <LongitudeDegrees>-0.1319024898111820220947265625</LongitudeDegrees>
            </Position>
            <AltitudeMeters>2776.60009765625</AltitudeMeters>
            <DistanceMeters>16059.278675605</DistanceMeters>
          </Trackpoint>
          <Trackpoint>
            <Time>2022-07-09T13:13:38.000Z</Time>
            <Position>
              <LatitudeDegrees>42.77748405933380126953125</LatitudeDegrees>
              <LongitudeDegrees>-0.1319061778485774993896484375</LongitudeDegrees>
            </Position>
            <AltitudeMeters>2776.800048828125</AltitudeMeters>
            <DistanceMeters>16059.781509714</DistanceMeters>
          </Trackpoint>
          <Trackpoint>
            <Time>2022-07-09T13:13:43.000Z</Time>
            <Position>
              <LatitudeDegrees>42.777487747371196746826171875</LatitudeDegrees>
              <LongitudeDegrees>-0.13197080232203006744384765625</LongitudeDegrees>
            </Position>
            <AltitudeMeters>2777.800048828125</AltitudeMeters>
            <DistanceMeters>16065.077490967</DistanceMeters>
          </Trackpoint>
          <Trackpoint>
            <Time>2022-07-09T13:13:44.000Z</Time>
            <Position>
              <LatitudeDegrees>42.77748565189540386199951171875</LatitudeDegrees>
              <LongitudeDegrees>-0.13197499327361583709716796875</LongitudeDegrees>
            </Position>
            <AltitudeMeters>2778</AltitudeMeters>
            <DistanceMeters>16065.491702812</DistanceMeters>
          </Trackpoint>
          <Trackpoint>
            <Time>2022-07-09T13:13:50.000Z</Time>
            <Position>
              <LatitudeDegrees>42.777505181729793548583984375</LatitudeDegrees>
              <LongitudeDegrees>-0.131996534764766693115234375</LongitudeDegrees>
            </Position>
            <AltitudeMeters>2778.800048828125</AltitudeMeters>
            <DistanceMeters>16068.289751467</DistanceMeters>
          </Trackpoint>
          <Trackpoint>
            <Time>2022-07-09T13:13:53.000Z</Time>
            <Position>
              <LatitudeDegrees>42.77750845067203044891357421875</LatitudeDegrees>
              <LongitudeDegrees>-0.13201757334172725677490234375</LongitudeDegrees>
            </Position>
            <AltitudeMeters>2779</AltitudeMeters>
            <DistanceMeters>16070.047103493</DistanceMeters>
          </Trackpoint>
          <Trackpoint>
            <Time>2022-07-09T13:13:59.000Z</Time>
            <Position>
              <LatitudeDegrees>42.77748548425734043121337890625</LatitudeDegrees>
              <LongitudeDegrees>-0.13202796690165996551513671875</LongitudeDegrees>
            </Position>
            <AltitudeMeters>2780.39990234375</AltitudeMeters>
            <DistanceMeters>16072.741575883</DistanceMeters>
          </Trackpoint>
          <Trackpoint>
            <Time>2022-07-09T13:14:01.000Z</Time>
            <Position>
              <LatitudeDegrees>42.77747542597353458404541015625</LatitudeDegrees>
              <LongitudeDegrees>-0.13203416951000690460205078125</LongitudeDegrees>
            </Position>
            <AltitudeMeters>2781</AltitudeMeters>
            <DistanceMeters>16073.973262874</DistanceMeters>
          </Trackpoint>
          <Trackpoint>
            <Time>2022-07-09T13:14:06.000Z</Time>
            <Position>
              <LatitudeDegrees>42.77744659222662448883056640625</LatitudeDegrees>
              <LongitudeDegrees>-0.13205126859247684478759765625</LongitudeDegrees>
            </Position>
            <AltitudeMeters>2781.39990234375</AltitudeMeters>
            <DistanceMeters>16077.47380765</DistanceMeters>
          </Trackpoint>
          <Trackpoint>
            <Time>2022-07-09T13:14:07.000Z</Time>
            <Position>
              <LatitudeDegrees>42.777442149817943572998046875</LatitudeDegrees>
              <LongitudeDegrees>-0.132046826183795928955078125</LongitudeDegrees>
            </Position>
            <AltitudeMeters>2781.60009765625</AltitudeMeters>
            <DistanceMeters>16078.089651146</DistanceMeters>
          </Trackpoint>
          <Trackpoint>
            <Time>2022-07-09T13:14:11.000Z</Time>
            <Position>
              <LatitudeDegrees>42.777424715459346771240234375</LatitudeDegrees>
              <LongitudeDegrees>-0.13204121030867099761962890625</LongitudeDegrees>
            </Position>
            <AltitudeMeters>2782.60009765625</AltitudeMeters>
            <DistanceMeters>16080.082948323</DistanceMeters>
          </Trackpoint>
          <Trackpoint>
            <Time>2022-07-09T13:14:14.000Z</Time>
            <Position>
              <LatitudeDegrees>42.777413316071033477783203125</LatitudeDegrees>
              <LongitudeDegrees>-0.132042467594146728515625</LongitudeDegrees>
            </Position>
            <AltitudeMeters>2783.199951171875</AltitudeMeters>
            <DistanceMeters>16081.354319112</DistanceMeters>
          </Trackpoint>
          <Trackpoint>
            <Time>2022-07-09T13:14:16.000Z</Time>
            <Position>
              <LatitudeDegrees>42.77740032412111759185791015625</LatitudeDegrees>
              <LongitudeDegrees>-0.1320275478065013885498046875</LongitudeDegrees>
            </Position>
            <AltitudeMeters>2783.60009765625</AltitudeMeters>
            <DistanceMeters>16083.245326851</DistanceMeters>
          </Trackpoint>
          <Trackpoint>
            <Time>2022-07-09T13:14:20.000Z</Time>
            <Position>
              <LatitudeDegrees>42.77737769298255443572998046875</LatitudeDegrees>
              <LongitudeDegrees>-0.13201153837144374847412109375</LongitudeDegrees>
            </Position>
            <AltitudeMeters>2784.60009765625</AltitudeMeters>
            <DistanceMeters>16086.083429772</DistanceMeters>
          </Trackpoint>
          <Trackpoint>
            <Time>2022-07-09T13:14:26.000Z</Time>
            <Position>
              <LatitudeDegrees>42.77734634466469287872314453125</LatitudeDegrees>
              <LongitudeDegrees>-0.13203819282352924346923828125</LongitudeDegrees>
            </Position>
            <AltitudeMeters>2785.60009765625</AltitudeMeters>
            <DistanceMeters>16090.194914066</DistanceMeters>
          </Trackpoint>
          <Trackpoint>
            <Time>2022-07-09T13:14:28.000Z</Time>
            <Position>
              <LatitudeDegrees>42.7773413993418216705322265625</LatitudeDegrees>
              <LongitudeDegrees>-0.13206057250499725341796875</LongitudeDegrees>
            </Position>
            <AltitudeMeters>2786.199951171875</AltitudeMeters>
            <DistanceMeters>16092.104927387</DistanceMeters>
          </Trackpoint>
          <Trackpoint>
            <Time>2022-07-09T13:14:32.000Z</Time>
            <Position>
              <LatitudeDegrees>42.777335532009601593017578125</LatitudeDegrees>
              <LongitudeDegrees>-0.1320652663707733154296875</LongitudeDegrees>
            </Position>
            <AltitudeMeters>2786.60009765625</AltitudeMeters>
            <DistanceMeters>16092.865141102</DistanceMeters>
          </Trackpoint>
          <Trackpoint>
            <Time>2022-07-09T13:14:34.000Z</Time>
            <Position>
              <LatitudeDegrees>42.77732622809708118438720703125</LatitudeDegrees>
              <LongitudeDegrees>-0.1320523582398891448974609375</LongitudeDegrees>
            </Position>
            <AltitudeMeters>2787.199951171875</AltitudeMeters>
            <DistanceMeters>16094.343409852</DistanceMeters>
          </Trackpoint>
          <Trackpoint>
            <Time>2022-07-09T13:14:36.000Z</Time>
            <Position>
              <LatitudeDegrees>42.77730845846235752105712890625</LatitudeDegrees>
              <LongitudeDegrees>-0.13205948285758495330810546875</LongitudeDegrees>
            </Position>
            <AltitudeMeters>2787.800048828125</AltitudeMeters>
            <DistanceMeters>16096.40791853</DistanceMeters>
          </Trackpoint>
          <Trackpoint>
            <Time>2022-07-09T13:14:39.000Z</Time>
            <Position>
              <LatitudeDegrees>42.77730099856853485107421875</LatitudeDegrees>
              <LongitudeDegrees>-0.13208764605224132537841796875</LongitudeDegrees>
            </Position>
            <AltitudeMeters>2789</AltitudeMeters>
            <DistanceMeters>16098.852895137</DistanceMeters>
          </Trackpoint>
          <Trackpoint>
            <Time>2022-07-09T13:14:41.000Z</Time>
            <Position>
              <LatitudeDegrees>42.77730493806302547454833984375</LatitudeDegrees>
              <LongitudeDegrees>-0.13212268240749835968017578125</LongitudeDegrees>
            </Position>
            <AltitudeMeters>2789.60009765625</AltitudeMeters>
            <DistanceMeters>16101.747702719</DistanceMeters>
          </Trackpoint>
          <Trackpoint>
            <Time>2022-07-09T13:14:45.000Z</Time>
            <Position>
              <LatitudeDegrees>42.77730477042496204376220703125</LatitudeDegrees>
              <LongitudeDegrees>-0.1321304775774478912353515625</LongitudeDegrees>
            </Position>
            <AltitudeMeters>2790.199951171875</AltitudeMeters>
            <DistanceMeters>16102.392205253</DistanceMeters>
          </Trackpoint>
          <Trackpoint>
            <Time>2022-07-09T13:14:47.000Z</Time>
            <Position>
              <LatitudeDegrees>42.77729437686502933502197265625</LatitudeDegrees>
              <LongitudeDegrees>-0.13214598409831523895263671875</LongitudeDegrees>
            </Position>
            <AltitudeMeters>2790.39990234375</AltitudeMeters>
            <DistanceMeters>16104.110586759</DistanceMeters>
          </Trackpoint>
          <Trackpoint>
            <Time>2022-07-09T13:14:51.000Z</Time>
            <Position>
              <LatitudeDegrees>42.77726537548005580902099609375</LatitudeDegrees>
              <LongitudeDegrees>-0.1321398653090000152587890625</LongitudeDegrees>
            </Position>
            <AltitudeMeters>2791.39990234375</AltitudeMeters>
            <DistanceMeters>16107.374861594</DistanceMeters>
          </Trackpoint>
          <Trackpoint>
            <Time>2022-07-09T13:14:54.000Z</Time>
            <Position>
              <LatitudeDegrees>42.777234949171543121337890625</LatitudeDegrees>
              <LongitudeDegrees>-0.13213290832936763763427734375</LongitudeDegrees>
            </Position>
            <AltitudeMeters>2791.60009765625</AltitudeMeters>
            <DistanceMeters>16110.8076811</DistanceMeters>
          </Trackpoint>
          <Trackpoint>
            <Time>2022-07-09T13:14:59.000Z</Time>
            <Position>
              <LatitudeDegrees>42.7772002480924129486083984375</LatitudeDegrees>
              <LongitudeDegrees>-0.132164172828197479248046875</LongitudeDegrees>
            </Position>
            <AltitudeMeters>2792.39990234375</AltitudeMeters>
            <DistanceMeters>16115.437735255</DistanceMeters>
          </Trackpoint>
          <Trackpoint>
            <Time>2022-07-09T13:15:00.000Z</Time>
            <Position>
              <LatitudeDegrees>42.7771957218647003173828125</LatitudeDegrees>
              <LongitudeDegrees>-0.13216727413237094879150390625</LongitudeDegrees>
            </Position>
            <AltitudeMeters>2792.60009765625</AltitudeMeters>
            <DistanceMeters>16115.999920879</DistanceMeters>
          </Trackpoint>
          <Trackpoint>
            <Time>2022-07-09T13:15:05.000Z</Time>
            <Position>
              <LatitudeDegrees>42.77718256227672100067138671875</LatitudeDegrees>
              <LongitudeDegrees>-0.132184959948062896728515625</LongitudeDegrees>
            </Position>
            <AltitudeMeters>2793.39990234375</AltitudeMeters>
            <DistanceMeters>16118.055663026</DistanceMeters>
          </Trackpoint>
          <Trackpoint>
            <Time>2022-07-09T13:15:06.000Z</Time>
            <Position>
              <LatitudeDegrees>42.77718239463865756988525390625</LatitudeDegrees>
              <LongitudeDegrees>-0.1321982033550739288330078125</LongitudeDegrees>
            </Position>
            <AltitudeMeters>2793.39990234375</AltitudeMeters>
            <DistanceMeters>16119.139134271</DistanceMeters>
          </Trackpoint>
          <Trackpoint>
            <Time>2022-07-09T13:15:11.000Z</Time>
            <Position>
              <LatitudeDegrees>42.777181304991245269775390625</LatitudeDegrees>
              <LongitudeDegrees>-0.132242627441883087158203125</LongitudeDegrees>
            </Position>
            <AltitudeMeters>2794.60009765625</AltitudeMeters>
            <DistanceMeters>16122.770099928</DistanceMeters>
          </Trackpoint>
          <Trackpoint>
            <Time>2022-07-09T13:15:14.000Z</Time>
            <Position>
              <LatitudeDegrees>42.7771814726293087005615234375</LatitudeDegrees>
              <LongitudeDegrees>-0.1322414539754390716552734375</LongitudeDegrees>
            </Position>
            <AltitudeMeters>2795.199951171875</AltitudeMeters>
            <DistanceMeters>16122.904487997</DistanceMeters>
          </Trackpoint>
          <Trackpoint>
            <Time>2022-07-09T13:15:17.000Z</Time>
            <Position>
              <LatitudeDegrees>42.77716529555618762969970703125</LatitudeDegrees>
              <LongitudeDegrees>-0.1322146318852901458740234375</LongitudeDegrees>
            </Position>
            <AltitudeMeters>2795.800048828125</AltitudeMeters>
            <DistanceMeters>16125.739407402</DistanceMeters>
          </Trackpoint>
          <Trackpoint>
            <Time>2022-07-09T13:15:20.000Z</Time>
            <Position>
              <LatitudeDegrees>42.77713512070477008819580078125</LatitudeDegrees>
              <LongitudeDegrees>-0.13220616616308689117431640625</LongitudeDegrees>
            </Position>
            <AltitudeMeters>2796.199951171875</AltitudeMeters>
            <DistanceMeters>16129.166961844</DistanceMeters>
          </Trackpoint>
          <Trackpoint>
            <Time>2022-07-09T13:15:23.000Z</Time>
            <Position>
              <LatitudeDegrees>42.7771154232323169708251953125</LatitudeDegrees>
              <LongitudeDegrees>-0.13221203349530696868896484375</LongitudeDegrees>
            </Position>
            <AltitudeMeters>2797.199951171875</AltitudeMeters>
            <DistanceMeters>16131.409672833</DistanceMeters>
          </Trackpoint>
          <Trackpoint>
            <Time>2022-07-09T13:15:27.000Z</Time>
            <Position>
              <LatitudeDegrees>42.77709371410310268402099609375</LatitudeDegrees>
              <LongitudeDegrees>-0.13221924193203449249267578125</LongitudeDegrees>
            </Position>
            <AltitudeMeters>2798.39990234375</AltitudeMeters>
            <DistanceMeters>16133.894943902</DistanceMeters>
          </Trackpoint>
          <Trackpoint>
            <Time>2022-07-09T13:15:31.000Z</Time>
            <Position>
              <LatitudeDegrees>42.7770741842687129974365234375</LatitudeDegrees>
              <LongitudeDegrees>-0.13221253640949726104736328125</LongitudeDegrees>
            </Position>
            <AltitudeMeters>2799.60009765625</AltitudeMeters>
            <DistanceMeters>16136.135640781</DistanceMeters>
          </Trackpoint>
          <Trackpoint>
            <Time>2022-07-09T13:15:34.000Z</Time>
            <Position>
              <LatitudeDegrees>42.77705716900527477264404296875</LatitudeDegrees>
              <LongitudeDegrees>-0.13220465742051601409912109375</LongitudeDegrees>
            </Position>
            <AltitudeMeters>2800.39990234375</AltitudeMeters>
            <DistanceMeters>16138.137977901</DistanceMeters>
          </Trackpoint>
          <Trackpoint>
            <Time>2022-07-09T13:15:35.000Z</Time>
            <Position>
              <LatitudeDegrees>42.777052223682403564453125</LatitudeDegrees>
              <LongitudeDegrees>-0.13219594024121761322021484375</LongitudeDegrees>
            </Position>
            <AltitudeMeters>2801</AltitudeMeters>
            <DistanceMeters>16139.039480469</DistanceMeters>
          </Trackpoint>
          <Trackpoint>
            <Time>2022-07-09T13:15:41.000Z</Time>
            <Position>
              <LatitudeDegrees>42.77702699415385723114013671875</LatitudeDegrees>
              <LongitudeDegrees>-0.13217012397944927215576171875</LongitudeDegrees>
            </Position>
            <AltitudeMeters>2801.199951171875</AltitudeMeters>
            <DistanceMeters>16142.550328564</DistanceMeters>
          </Trackpoint>
          <Trackpoint>
            <Time>2022-07-09T13:15:47.000Z</Time>
            <Position>
              <LatitudeDegrees>42.77700101025402545928955078125</LatitudeDegrees>
              <LongitudeDegrees>-0.13223684392869472503662109375</LongitudeDegrees>
            </Position>
            <AltitudeMeters>2801.60009765625</AltitudeMeters>
            <DistanceMeters>16148.720482718</DistanceMeters>
          </Trackpoint>
          <Trackpoint>
            <Time>2022-07-09T13:15:48.000Z</Time>
            <Position>
              <LatitudeDegrees>42.77700302191078662872314453125</LatitudeDegrees>
              <LongitudeDegrees>-0.132240951061248779296875</LongitudeDegrees>
            </Position>
            <AltitudeMeters>2802</AltitudeMeters>
            <DistanceMeters>16149.123646923</DistanceMeters>
          </Trackpoint>
          <Trackpoint>
            <Time>2022-07-09T13:15:52.000Z</Time>
            <Position>
              <LatitudeDegrees>42.7769933827221393585205078125</LatitudeDegrees>
              <LongitudeDegrees>-0.13226031325757503509521484375</LongitudeDegrees>
            </Position>
            <AltitudeMeters>2803</AltitudeMeters>
            <DistanceMeters>16151.033660243</DistanceMeters>
          </Trackpoint>
          <Trackpoint>
            <Time>2022-07-09T13:15:54.000Z</Time>
            <Position>
              <LatitudeDegrees>42.7769937179982662200927734375</LatitudeDegrees>
              <LongitudeDegrees>-0.13227053917944431304931640625</LongitudeDegrees>
            </Position>
            <AltitudeMeters>2803.60009765625</AltitudeMeters>
            <DistanceMeters>16151.87291346</DistanceMeters>
          </Trackpoint>
          <Trackpoint>
            <Time>2022-07-09T13:15:59.000Z</Time>
            <Position>
              <LatitudeDegrees>42.77700059115886688232421875</LatitudeDegrees>
              <LongitudeDegrees>-0.132306329905986785888671875</LongitudeDegrees>
            </Position>
            <AltitudeMeters>2804</AltitudeMeters>
            <DistanceMeters>16154.895898303</DistanceMeters>
          </Trackpoint>
          <Trackpoint>
            <Time>2022-07-09T13:16:01.000Z</Time>
            <Position>
              <LatitudeDegrees>42.7769972383975982666015625</LatitudeDegrees>
              <LongitudeDegrees>-0.13230859301984310150146484375</LongitudeDegrees>
            </Position>
            <AltitudeMeters>2804.39990234375</AltitudeMeters>
            <DistanceMeters>16155.310110148</DistanceMeters>
          </Trackpoint>
          <Trackpoint>
            <Time>2022-07-09T13:16:06.000Z</Time>
            <Position>
              <LatitudeDegrees>42.776971757411956787109375</LatitudeDegrees>
              <LongitudeDegrees>-0.13232233934104442596435546875</LongitudeDegrees>
            </Position>
            <AltitudeMeters>2805</AltitudeMeters>
            <DistanceMeters>16158.359860751</DistanceMeters>
          </Trackpoint>
          <Trackpoint>
            <Time>2022-07-09T13:16:08.000Z</Time>
            <Position>
              <LatitudeDegrees>42.77696513570845127105712890625</LatitudeDegrees>
              <LongitudeDegrees>-0.1323316432535648345947265625</LongitudeDegrees>
            </Position>
            <AltitudeMeters>2805.39990234375</AltitudeMeters>
            <DistanceMeters>16159.418033458</DistanceMeters>
          </Trackpoint>
          <Trackpoint>
            <Time>2022-07-09T13:16:12.000Z</Time>
            <Position>
              <LatitudeDegrees>42.776966057717800140380859375</LatitudeDegrees>
              <LongitudeDegrees>-0.13232720084488391876220703125</LongitudeDegrees>
            </Position>
            <AltitudeMeters>2806.199951171875</AltitudeMeters>
            <DistanceMeters>16159.798140316</DistanceMeters>
          </Trackpoint>
          <Trackpoint>
            <Time>2022-07-09T13:16:16.000Z</Time>
            <Position>
              <LatitudeDegrees>42.77695633471012115478515625</LatitudeDegrees>
              <LongitudeDegrees>-0.13232879340648651123046875</LongitudeDegrees>
            </Position>
            <AltitudeMeters>2806.39990234375</AltitudeMeters>
            <DistanceMeters>16160.889914143</DistanceMeters>
          </Trackpoint>
          <Trackpoint>
            <Time>2022-07-09T13:16:20.000Z</Time>
            <Position>
              <LatitudeDegrees>42.77694200165569782257080078125</LatitudeDegrees>
              <LongitudeDegrees>-0.1323316432535648345947265625</LongitudeDegrees>
            </Position>
            <AltitudeMeters>2807.39990234375</AltitudeMeters>
            <DistanceMeters>16162.502570962</DistanceMeters>
          </Trackpoint>
          <Trackpoint>
            <Time>2022-07-09T13:16:24.000Z</Time>
            <Position>
              <LatitudeDegrees>42.77693219482898712158203125</LatitudeDegrees>
              <LongitudeDegrees>-0.1323152147233486175537109375</LongitudeDegrees>
            </Position>
            <AltitudeMeters>2808.199951171875</AltitudeMeters>
            <DistanceMeters>16164.2314305</DistanceMeters>
          </Trackpoint>
          <Trackpoint>
            <Time>2022-07-09T13:16:26.000Z</Time>
            <Position>
              <LatitudeDegrees>42.7769316919147968292236328125</LatitudeDegrees>
              <LongitudeDegrees>-0.1323111914098262786865234375</LongitudeDegrees>
            </Position>
            <AltitudeMeters>2808.60009765625</AltitudeMeters>
            <DistanceMeters>16164.560612695</DistanceMeters>
          </Trackpoint>
          <Trackpoint>
            <Time>2022-07-09T13:16:30.000Z</Time>
            <Position>
              <LatitudeDegrees>42.77691903524100780487060546875</LatitudeDegrees>
              <LongitudeDegrees>-0.132322423160076141357421875</LongitudeDegrees>
            </Position>
            <AltitudeMeters>2809.199951171875</AltitudeMeters>
            <DistanceMeters>16166.23911913</DistanceMeters>
          </Trackpoint>
          <Trackpoint>
            <Time>2022-07-09T13:16:33.000Z</Time>
            <Position>
              <LatitudeDegrees>42.77690076269209384918212890625</LatitudeDegrees>
              <LongitudeDegrees>-0.1323200762271881103515625</LongitudeDegrees>
            </Position>
            <AltitudeMeters>2809.60009765625</AltitudeMeters>
            <DistanceMeters>16168.281640933</DistanceMeters>
          </Trackpoint>
          <Trackpoint>
            <Time>2022-07-09T13:16:34.000Z</Time>
            <Position>
              <LatitudeDegrees>42.7768931351602077484130859375</LatitudeDegrees>
              <LongitudeDegrees>-0.1323142088949680328369140625</LongitudeDegrees>
            </Position>
            <AltitudeMeters>2809.800048828125</AltitudeMeters>
            <DistanceMeters>16169.255374997</DistanceMeters>
          </Trackpoint>
          <Trackpoint>
            <Time>2022-07-09T13:16:38.000Z</Time>
            <Position>
              <LatitudeDegrees>42.77687746100127696990966796875</LatitudeDegrees>
              <LongitudeDegrees>-0.1322964392602443695068359375</LongitudeDegrees>
            </Position>
            <AltitudeMeters>2810.39990234375</AltitudeMeters>
            <DistanceMeters>16171.524106707</DistanceMeters>
          </Trackpoint>
          <Trackpoint>
            <Time>2022-07-09T13:16:42.000Z</Time>
            <Position>
              <LatitudeDegrees>42.77686807326972484588623046875</LatitudeDegrees>
              <LongitudeDegrees>-0.1323227584362030029296875</LongitudeDegrees>
            </Position>
            <AltitudeMeters>2810.60009765625</AltitudeMeters>
            <DistanceMeters>16173.916818237</DistanceMeters>
          </Trackpoint>
          <Trackpoint>
            <Time>2022-07-09T13:16:44.000Z</Time>
            <Position>
              <LatitudeDegrees>42.7768671512603759765625</LatitudeDegrees>
              <LongitudeDegrees>-0.1323289610445499420166015625</LongitudeDegrees>
            </Position>
            <AltitudeMeters>2811</AltitudeMeters>
            <DistanceMeters>16174.437300987</DistanceMeters>
          </Trackpoint>
          <Trackpoint>
            <Time>2022-07-09T13:16:47.000Z</Time>
            <Position>
              <LatitudeDegrees>42.7768612839281558990478515625</LatitudeDegrees>
              <LongitudeDegrees>-0.132347904145717620849609375</LongitudeDegrees>
            </Position>
            <AltitudeMeters>2811.800048828125</AltitudeMeters>
            <DistanceMeters>16176.115807421</DistanceMeters>
          </Trackpoint>
          <Trackpoint>
            <Time>2022-07-09T13:16:51.000Z</Time>
            <Position>
              <LatitudeDegrees>42.776853404939174652099609375</LatitudeDegrees>
              <LongitudeDegrees>-0.13236039318144321441650390625</LongitudeDegrees>
            </Position>
            <AltitudeMeters>2812.60009765625</AltitudeMeters>
            <DistanceMeters>16177.459688104</DistanceMeters>
          </Trackpoint>
          <Trackpoint>
            <Time>2022-07-09T13:16:52.000Z</Time>
            <Position>
              <LatitudeDegrees>42.77685130946338176727294921875</LatitudeDegrees>
              <LongitudeDegrees>-0.1323611475527286529541015625</LongitudeDegrees>
            </Position>
            <AltitudeMeters>2812.60009765625</AltitudeMeters>
            <DistanceMeters>16177.692455066</DistanceMeters>
          </Trackpoint>
          <Trackpoint>
            <Time>2022-07-09T13:16:54.000Z</Time>
            <Position>
              <LatitudeDegrees>42.77684770524501800537109375</LatitudeDegrees>
              <LongitudeDegrees>-0.13235888443887233734130859375</LongitudeDegrees>
            </Position>
            <AltitudeMeters>2813.199951171875</AltitudeMeters>
            <DistanceMeters>16178.138169865</DistanceMeters>
          </Trackpoint>
          <Trackpoint>
            <Time>2022-07-09T13:16:58.000Z</Time>
            <Position>
              <LatitudeDegrees>42.77683035470545291900634765625</LatitudeDegrees>
              <LongitudeDegrees>-0.13235452584922313690185546875</LongitudeDegrees>
            </Position>
            <AltitudeMeters>2813.800048828125</AltitudeMeters>
            <DistanceMeters>16180.09949915</DistanceMeters>
          </Trackpoint>
          <Trackpoint>
            <Time>2022-07-09T13:17:02.000Z</Time>
            <Position>
              <LatitudeDegrees>42.776809819042682647705078125</LatitudeDegrees>
              <LongitudeDegrees>-0.132345892488956451416015625</LongitudeDegrees>
            </Position>
            <AltitudeMeters>2814.800048828125</AltitudeMeters>
            <DistanceMeters>16182.49221068</DistanceMeters>
          </Trackpoint>
          <Trackpoint>
            <Time>2022-07-09T13:17:03.000Z</Time>
            <Position>
              <LatitudeDegrees>42.77680453844368457794189453125</LatitudeDegrees>
              <LongitudeDegrees>-0.132350586354732513427734375</LongitudeDegrees>
            </Position>
            <AltitudeMeters>2815.199951171875</AltitudeMeters>
            <DistanceMeters>16183.190511566</DistanceMeters>
          </Trackpoint>
          <Trackpoint>
            <Time>2022-07-09T13:17:05.000Z</Time>
            <Position>
              <LatitudeDegrees>42.7767945639789104461669921875</LatitudeDegrees>
              <LongitudeDegrees>-0.13237900100648403167724609375</LongitudeDegrees>
            </Position>
            <AltitudeMeters>2815.800048828125</AltitudeMeters>
            <DistanceMeters>16185.765016589</DistanceMeters>
          </Trackpoint>
          <Trackpoint>
            <Time>2022-07-09T13:17:08.000Z</Time>
            <Position>
              <LatitudeDegrees>42.77678308077156543731689453125</LatitudeDegrees>
              <LongitudeDegrees>-0.1323933340609073638916015625</LongitudeDegrees>
            </Position>
            <AltitudeMeters>2816.60009765625</AltitudeMeters>
            <DistanceMeters>16187.499091401</DistanceMeters>
          </Trackpoint>
          <Trackpoint>
            <Time>2022-07-09T13:17:11.000Z</Time>
            <Position>
              <LatitudeDegrees>42.77677251957356929779052734375</LatitudeDegrees>
              <LongitudeDegrees>-0.13239677064120769500732421875</LongitudeDegrees>
            </Position>
            <AltitudeMeters>2817.199951171875</AltitudeMeters>
            <DistanceMeters>16188.708584016</DistanceMeters>
          </Trackpoint>
          <Trackpoint>
            <Time>2022-07-09T13:17:15.000Z</Time>
            <Position>
              <LatitudeDegrees>42.776766903698444366455078125</LatitudeDegrees>
              <LongitudeDegrees>-0.13239760883152484893798828125</LongitudeDegrees>
            </Position>
            <AltitudeMeters>2818.199951171875</AltitudeMeters>
            <DistanceMeters>16189.338919929</DistanceMeters>
          </Trackpoint>
          <Trackpoint>
            <Time>2022-07-09T13:17:16.000Z</Time>
            <Position>
              <LatitudeDegrees>42.77676447294652462005615234375</LatitudeDegrees>
              <LongitudeDegrees>-0.13239995576441287994384765625</LongitudeDegrees>
            </Position>
            <AltitudeMeters>2818.199951171875</AltitudeMeters>
            <DistanceMeters>16189.68154362</DistanceMeters>
          </Trackpoint>
          <Trackpoint>
            <Time>2022-07-09T13:17:22.000Z</Time>
            <Position>
              <LatitudeDegrees>42.7767322026193141937255859375</LatitudeDegrees>
              <LongitudeDegrees>-0.132415294647216796875</LongitudeDegrees>
            </Position>
            <AltitudeMeters>2820</AltitudeMeters>
            <DistanceMeters>16193.487360565</DistanceMeters>
          </Trackpoint>
          <Trackpoint>
            <Time>2022-07-09T13:17:25.000Z</Time>
            <Position>
              <LatitudeDegrees>42.7767209708690643310546875</LatitudeDegrees>
              <LongitudeDegrees>-0.1323960162699222564697265625</LongitudeDegrees>
            </Position>
            <AltitudeMeters>2821</AltitudeMeters>
            <DistanceMeters>16195.498696998</DistanceMeters>
          </Trackpoint>
          <Trackpoint>
            <Time>2022-07-09T13:17:27.000Z</Time>
            <Position>
              <LatitudeDegrees>42.77671317569911479949951171875</LatitudeDegrees>
              <LongitudeDegrees>-0.1323604770004749298095703125</LongitudeDegrees>
            </Position>
            <AltitudeMeters>2821.199951171875</AltitudeMeters>
            <DistanceMeters>16198.530630015</DistanceMeters>
          </Trackpoint>
          <Trackpoint>
            <Time>2022-07-09T13:17:29.000Z</Time>
            <Position>
              <LatitudeDegrees>42.776703536510467529296875</LatitudeDegrees>
              <LongitudeDegrees>-0.1323413662612438201904296875</LongitudeDegrees>
            </Position>
            <AltitudeMeters>2821.60009765625</AltitudeMeters>
            <DistanceMeters>16200.424023885</DistanceMeters>
          </Trackpoint>
          <Trackpoint>
            <Time>2022-07-09T13:17:30.000Z</Time>
            <Position>
              <LatitudeDegrees>42.776698172092437744140625</LatitudeDegrees>
              <LongitudeDegrees>-0.13233340345323085784912109375</LongitudeDegrees>
            </Position>
            <AltitudeMeters>2821.800048828125</AltitudeMeters>
            <DistanceMeters>16201.305265381</DistanceMeters>
          </Trackpoint>
          <Trackpoint>
            <Time>2022-07-09T13:17:31.000Z</Time>
            <Position>
              <LatitudeDegrees>42.7766943164169788360595703125</LatitudeDegrees>
              <LongitudeDegrees>-0.1323279552161693572998046875</LongitudeDegrees>
            </Position>
            <AltitudeMeters>2822</AltitudeMeters>
            <DistanceMeters>16201.921108876</DistanceMeters>
          </Trackpoint>
          <Trackpoint>
            <Time>2022-07-09T13:17:32.000Z</Time>
            <Position>
              <LatitudeDegrees>42.776685096323490142822265625</LatitudeDegrees>
              <LongitudeDegrees>-0.13233055360615253448486328125</LongitudeDegrees>
            </Position>
            <AltitudeMeters>2822.199951171875</AltitudeMeters>
            <DistanceMeters>16202.970713243</DistanceMeters>
          </Trackpoint>
          <Trackpoint>
            <Time>2022-07-09T13:17:34.000Z</Time>
            <Position>
              <LatitudeDegrees>42.77667445130646228790283203125</LatitudeDegrees>
              <LongitudeDegrees>-0.13234782032668590545654296875</LongitudeDegrees>
            </Position>
            <AltitudeMeters>2822.800048828125</AltitudeMeters>
            <DistanceMeters>16204.808442437</DistanceMeters>
          </Trackpoint>
          <Trackpoint>
            <Time>2022-07-09T13:17:35.000Z</Time>
            <Position>
              <LatitudeDegrees>42.7766711823642253875732421875</LatitudeDegrees>
              <LongitudeDegrees>-0.1323604770004749298095703125</LongitudeDegrees>
            </Position>
            <AltitudeMeters>2823.199951171875</AltitudeMeters>
            <DistanceMeters>16205.900216264</DistanceMeters>
          </Trackpoint>
          <Trackpoint>
            <Time>2022-07-09T13:17:39.000Z</Time>
            <Position>
              <LatitudeDegrees>42.77666154317557811737060546875</LatitudeDegrees>
              <LongitudeDegrees>-0.1323641650378704071044921875</LongitudeDegrees>
            </Position>
            <AltitudeMeters>2823.800048828125</AltitudeMeters>
            <DistanceMeters>16207.016527399</DistanceMeters>
          </Trackpoint>
          <Trackpoint>
            <Time>2022-07-09T13:17:41.000Z</Time>
            <Position>
              <LatitudeDegrees>42.7766493894159793853759765625</LatitudeDegrees>
              <LongitudeDegrees>-0.13235653750598430633544921875</LongitudeDegrees>
            </Position>
            <AltitudeMeters>2824.199951171875</AltitudeMeters>
            <DistanceMeters>16208.506963176</DistanceMeters>
          </Trackpoint>
          <Trackpoint>
            <Time>2022-07-09T13:17:44.000Z</Time>
            <Position>
              <LatitudeDegrees>42.776628434658050537109375</LatitudeDegrees>
              <LongitudeDegrees>-0.13233759440481662750244140625</LongitudeDegrees>
            </Position>
            <AltitudeMeters>2825.800048828125</AltitudeMeters>
            <DistanceMeters>16211.306625004</DistanceMeters>
          </Trackpoint>
          <Trackpoint>
            <Time>2022-07-09T13:17:48.000Z</Time>
            <Position>
              <LatitudeDegrees>42.7766145206987857818603515625</LatitudeDegrees>
              <LongitudeDegrees>-0.1323651708662509918212890625</LongitudeDegrees>
            </Position>
            <AltitudeMeters>2826.800048828125</AltitudeMeters>
            <DistanceMeters>16214.041017678</DistanceMeters>
          </Trackpoint>
          <Trackpoint>
            <Time>2022-07-09T13:17:50.000Z</Time>
            <Position>
              <LatitudeDegrees>42.77661158703267574310302734375</LatitudeDegrees>
              <LongitudeDegrees>-0.13237304985523223876953125</LongitudeDegrees>
            </Position>
            <AltitudeMeters>2827.199951171875</AltitudeMeters>
            <DistanceMeters>16214.764719574</DistanceMeters>
          </Trackpoint>
          <Trackpoint>
            <Time>2022-07-09T13:17:53.000Z</Time>
            <Position>
              <LatitudeDegrees>42.77660052292048931121826171875</LatitudeDegrees>
              <LongitudeDegrees>-0.13237732462584972381591796875</LongitudeDegrees>
            </Position>
            <AltitudeMeters>2827.60009765625</AltitudeMeters>
            <DistanceMeters>16216.039636732</DistanceMeters>
          </Trackpoint>
          <Trackpoint>
            <Time>2022-07-09T13:17:57.000Z</Time>
            <Position>
              <LatitudeDegrees>42.7765830047428607940673828125</LatitudeDegrees>
              <LongitudeDegrees>-0.1323618181049823760986328125</LongitudeDegrees>
            </Position>
            <AltitudeMeters>2827.800048828125</AltitudeMeters>
            <DistanceMeters>16218.36536582</DistanceMeters>
          </Trackpoint>
          <Trackpoint>
            <Time>2022-07-09T13:18:00.000Z</Time>
            <Position>
              <LatitudeDegrees>42.77657018043100833892822265625</LatitudeDegrees>
              <LongitudeDegrees>-0.132345892488956451416015625</LongitudeDegrees>
            </Position>
            <AltitudeMeters>2828</AltitudeMeters>
            <DistanceMeters>16220.296536856</DistanceMeters>
          </Trackpoint>
          <Trackpoint>
            <Time>2022-07-09T13:18:02.000Z</Time>
            <Position>
              <LatitudeDegrees>42.77655760757625102996826171875</LatitudeDegrees>
              <LongitudeDegrees>-0.1323353312909603118896484375</LongitudeDegrees>
            </Position>
            <AltitudeMeters>2828.39990234375</AltitudeMeters>
            <DistanceMeters>16221.936952285</DistanceMeters>
          </Trackpoint>
          <Trackpoint>
            <Time>2022-07-09T13:18:04.000Z</Time>
            <Position>
              <LatitudeDegrees>42.7765508182346820831298828125</LatitudeDegrees>
              <LongitudeDegrees>-0.13234178535640239715576171875</LongitudeDegrees>
            </Position>
            <AltitudeMeters>2829.39990234375</AltitudeMeters>
            <DistanceMeters>16222.858270464</DistanceMeters>
          </Trackpoint>
          <Trackpoint>
            <Time>2022-07-09T13:18:07.000Z</Time>
            <Position>
              <LatitudeDegrees>42.77655056677758693695068359375</LatitudeDegrees>
              <LongitudeDegrees>-0.13237263076007366180419921875</LongitudeDegrees>
            </Position>
            <AltitudeMeters>2830.60009765625</AltitudeMeters>
            <DistanceMeters>16225.379614117</DistanceMeters>
          </Trackpoint>
          <Trackpoint>
            <Time>2022-07-09T13:18:12.000Z</Time>
            <Position>
              <LatitudeDegrees>42.776530198752880096435546875</LatitudeDegrees>
              <LongitudeDegrees>-0.1323698647320270538330078125</LongitudeDegrees>
            </Position>
            <AltitudeMeters>2831.60009765625</AltitudeMeters>
            <DistanceMeters>16227.656292372</DistanceMeters>
          </Trackpoint>
          <Trackpoint>
            <Time>2022-07-09T13:18:13.000Z</Time>
            <Position>
              <LatitudeDegrees>42.77652558870613574981689453125</LatitudeDegrees>
              <LongitudeDegrees>-0.13236626051366329193115234375</LongitudeDegrees>
            </Position>
            <AltitudeMeters>2831.60009765625</AltitudeMeters>
            <DistanceMeters>16228.242076381</DistanceMeters>
          </Trackpoint>
          <Trackpoint>
            <Time>2022-07-09T13:18:16.000Z</Time>
            <Position>
              <LatitudeDegrees>42.77651670388877391815185546875</LatitudeDegrees>
              <LongitudeDegrees>-0.132349915802478790283203125</LongitudeDegrees>
            </Position>
            <AltitudeMeters>2832.800048828125</AltitudeMeters>
            <DistanceMeters>16229.904364981</DistanceMeters>
          </Trackpoint>
          <Trackpoint>
            <Time>2022-07-09T13:18:18.000Z</Time>
            <Position>
              <LatitudeDegrees>42.77650530450046062469482421875</LatitudeDegrees>
              <LongitudeDegrees>-0.1323487423360347747802734375</LongitudeDegrees>
            </Position>
            <AltitudeMeters>2833.199951171875</AltitudeMeters>
            <DistanceMeters>16231.179282139</DistanceMeters>
          </Trackpoint>
          <Trackpoint>
            <Time>2022-07-09T13:18:20.000Z</Time>
            <Position>
              <LatitudeDegrees>42.77649239636957645416259765625</LatitudeDegrees>
              <LongitudeDegrees>-0.13235159218311309814453125</LongitudeDegrees>
            </Position>
            <AltitudeMeters>2834</AltitudeMeters>
            <DistanceMeters>16232.636014086</DistanceMeters>
          </Trackpoint>
          <Trackpoint>
            <Time>2022-07-09T13:18:22.000Z</Time>
            <Position>
              <LatitudeDegrees>42.7764800749719142913818359375</LatitudeDegrees>
              <LongitudeDegrees>-0.13235955499112606048583984375</LongitudeDegrees>
            </Position>
            <AltitudeMeters>2834.39990234375</AltitudeMeters>
            <DistanceMeters>16234.156441516</DistanceMeters>
          </Trackpoint>
          <Trackpoint>
            <Time>2022-07-09T13:18:26.000Z</Time>
            <Position>
              <LatitudeDegrees>42.77646146714687347412109375</LatitudeDegrees>
              <LongitudeDegrees>-0.13232703320682048797607421875</LongitudeDegrees>
            </Position>
            <AltitudeMeters>2835.39990234375</AltitudeMeters>
            <DistanceMeters>16237.525537254</DistanceMeters>
          </Trackpoint>
          <Trackpoint>
            <Time>2022-07-09T13:18:27.000Z</Time>
            <Position>
              <LatitudeDegrees>42.77645870111882686614990234375</LatitudeDegrees>
              <LongitudeDegrees>-0.132321752607822418212890625</LongitudeDegrees>
            </Position>
            <AltitudeMeters>2835.60009765625</AltitudeMeters>
            <DistanceMeters>16238.046020004</DistanceMeters>
          </Trackpoint>
          <Trackpoint>
            <Time>2022-07-09T13:18:30.000Z</Time>
            <Position>
              <LatitudeDegrees>42.776441685855388641357421875</LatitudeDegrees>
              <LongitudeDegrees>-0.13228587806224822998046875</LongitudeDegrees>
            </Position>
            <AltitudeMeters>2836.60009765625</AltitudeMeters>
            <DistanceMeters>16241.534937178</DistanceMeters>
          </Trackpoint>
          <Trackpoint>
            <Time>2022-07-09T13:18:31.000Z</Time>
            <Position>
              <LatitudeDegrees>42.776434980332851409912109375</LatitudeDegrees>
              <LongitudeDegrees>-0.13227372430264949798583984375</LongitudeDegrees>
            </Position>
            <AltitudeMeters>2836.60009765625</AltitudeMeters>
            <DistanceMeters>16242.777572713</DistanceMeters>
          </Trackpoint>
          <Trackpoint>
            <Time>2022-07-09T13:18:32.000Z</Time>
            <Position>
              <LatitudeDegrees>42.77643137611448764801025390625</LatitudeDegrees>
              <LongitudeDegrees>-0.13227045536041259765625</LongitudeDegrees>
            </Position>
            <AltitudeMeters>2836.800048828125</AltitudeMeters>
            <DistanceMeters>16243.262115783</DistanceMeters>
          </Trackpoint>
          <Trackpoint>
            <Time>2022-07-09T13:18:36.000Z</Time>
            <Position>
              <LatitudeDegrees>42.7764210663735866546630859375</LatitudeDegrees>
              <LongitudeDegrees>-0.13224656693637371063232421875</LongitudeDegrees>
            </Position>
            <AltitudeMeters>2837.60009765625</AltitudeMeters>
            <DistanceMeters>16245.526863765</DistanceMeters>
          </Trackpoint>
          <Trackpoint>
            <Time>2022-07-09T13:18:38.000Z</Time>
            <Position>
              <LatitudeDegrees>42.77640514075756072998046875</LatitudeDegrees>
              <LongitudeDegrees>-0.13228964991867542266845703125</LongitudeDegrees>
            </Position>
            <AltitudeMeters>2838.199951171875</AltitudeMeters>
            <DistanceMeters>16249.467895544</DistanceMeters>
          </Trackpoint>
          <Trackpoint>
            <Time>2022-07-09T13:18:40.000Z</Time>
            <Position>
              <LatitudeDegrees>42.77639298699796199798583984375</LatitudeDegrees>
              <LongitudeDegrees>-0.13229920528829097747802734375</LongitudeDegrees>
            </Position>
            <AltitudeMeters>2838.60009765625</AltitudeMeters>
            <DistanceMeters>16251.029343795</DistanceMeters>
          </Trackpoint>
          <Trackpoint>
            <Time>2022-07-09T13:18:43.000Z</Time>
            <Position>
              <LatitudeDegrees>42.77637722901999950408935546875</LatitudeDegrees>
              <LongitudeDegrees>-0.13229015283286571502685546875</LongitudeDegrees>
            </Position>
            <AltitudeMeters>2839.199951171875</AltitudeMeters>
            <DistanceMeters>16252.932252267</DistanceMeters>
          </Trackpoint>
          <Trackpoint>
            <Time>2022-07-09T13:18:47.000Z</Time>
            <Position>
              <LatitudeDegrees>42.77635795064270496368408203125</LatitudeDegrees>
              <LongitudeDegrees>-0.13225981034338474273681640625</LongitudeDegrees>
            </Position>
            <AltitudeMeters>2839.800048828125</AltitudeMeters>
            <DistanceMeters>16256.210329595</DistanceMeters>
          </Trackpoint>
          <Trackpoint>
            <Time>2022-07-09T13:18:48.000Z</Time>
            <Position>
              <LatitudeDegrees>42.7763499878346920013427734375</LatitudeDegrees>
              <LongitudeDegrees>-0.13224740512669086456298828125</LongitudeDegrees>
            </Position>
            <AltitudeMeters>2840.199951171875</AltitudeMeters>
            <DistanceMeters>16257.554210278</DistanceMeters>
          </Trackpoint>
          <Trackpoint>
            <Time>2022-07-09T13:18:51.000Z</Time>
            <Position>
              <LatitudeDegrees>42.77632869780063629150390625</LatitudeDegrees>
              <LongitudeDegrees>-0.1322543621063232421875</LongitudeDegrees>
            </Position>
            <AltitudeMeters>2841.199951171875</AltitudeMeters>
            <DistanceMeters>16259.991789056</DistanceMeters>
          </Trackpoint>
          <Trackpoint>
            <Time>2022-07-09T13:18:52.000Z</Time>
            <Position>
              <LatitudeDegrees>42.77632794342935085296630859375</LatitudeDegrees>
              <LongitudeDegrees>-0.1322686113417148590087890625</LongitudeDegrees>
            </Position>
            <AltitudeMeters>2841.39990234375</AltitudeMeters>
            <DistanceMeters>16261.155623867</DistanceMeters>
          </Trackpoint>
          <Trackpoint>
            <Time>2022-07-09T13:18:57.000Z</Time>
            <Position>
              <LatitudeDegrees>42.77633481658995151519775390625</LatitudeDegrees>
              <LongitudeDegrees>-0.13233415782451629638671875</LongitudeDegrees>
            </Position>
            <AltitudeMeters>2842.199951171875</AltitudeMeters>
            <DistanceMeters>16266.565473934</DistanceMeters>
          </Trackpoint>
          <Trackpoint>
            <Time>2022-07-09T13:18:58.000Z</Time>
            <Position>
              <LatitudeDegrees>42.77633900754153728485107421875</LatitudeDegrees>
              <LongitudeDegrees>-0.13234555721282958984375</LongitudeDegrees>
            </Position>
            <AltitudeMeters>2842.39990234375</AltitudeMeters>
            <DistanceMeters>16267.606439435</DistanceMeters>
          </Trackpoint>
          <Trackpoint>
            <Time>2022-07-09T13:19:03.000Z</Time>
            <Position>
              <LatitudeDegrees>42.77633599005639553070068359375</LatitudeDegrees>
              <LongitudeDegrees>-0.1323866285383701324462890625</LongitudeDegrees>
            </Position>
            <AltitudeMeters>2843</AltitudeMeters>
            <DistanceMeters>16270.978214374</DistanceMeters>
          </Trackpoint>
          <Trackpoint>
            <Time>2022-07-09T13:19:05.000Z</Time>
            <Position>
              <LatitudeDegrees>42.7763332240283489227294921875</LatitudeDegrees>
              <LongitudeDegrees>-0.13240381143987178802490234375</LongitudeDegrees>
            </Position>
            <AltitudeMeters>2843.199951171875</AltitudeMeters>
            <DistanceMeters>16272.419365852</DistanceMeters>
          </Trackpoint>
          <Trackpoint>
            <Time>2022-07-09T13:19:07.000Z</Time>
            <Position>
              <LatitudeDegrees>42.7763305418193340301513671875</LatitudeDegrees>
              <LongitudeDegrees>-0.13242694549262523651123046875</LongitudeDegrees>
            </Position>
            <AltitudeMeters>2844</AltitudeMeters>
            <DistanceMeters>16274.334101091</DistanceMeters>
          </Trackpoint>
          <Trackpoint>
            <Time>2022-07-09T13:19:09.000Z</Time>
            <Position>
              <LatitudeDegrees>42.77632375247776508331298828125</LatitudeDegrees>
              <LongitudeDegrees>-0.13244153000414371490478515625</LongitudeDegrees>
            </Position>
            <AltitudeMeters>2844.39990234375</AltitudeMeters>
            <DistanceMeters>16275.743575042</DistanceMeters>
          </Trackpoint>
          <Trackpoint>
            <Time>2022-07-09T13:19:11.000Z</Time>
            <Position>
              <LatitudeDegrees>42.7763097546994686126708984375</LatitudeDegrees>
              <LongitudeDegrees>-0.13245343230664730072021484375</LongitudeDegrees>
            </Position>
            <AltitudeMeters>2844.800048828125</AltitudeMeters>
            <DistanceMeters>16277.581304236</DistanceMeters>
          </Trackpoint>
          <Trackpoint>
            <Time>2022-07-09T13:19:12.000Z</Time>
            <Position>
              <LatitudeDegrees>42.77630547992885112762451171875</LatitudeDegrees>
              <LongitudeDegrees>-0.13245695270597934722900390625</LongitudeDegrees>
            </Position>
            <AltitudeMeters>2845</AltitudeMeters>
            <DistanceMeters>16278.135400436</DistanceMeters>
          </Trackpoint>
          <Trackpoint>
            <Time>2022-07-09T13:19:13.000Z</Time>
            <Position>
              <LatitudeDegrees>42.776299528777599334716796875</LatitudeDegrees>
              <LongitudeDegrees>-0.1324515044689178466796875</LongitudeDegrees>
            </Position>
            <AltitudeMeters>2845.199951171875</AltitudeMeters>
            <DistanceMeters>16278.936109764</DistanceMeters>
          </Trackpoint>
          <Trackpoint>
            <Time>2022-07-09T13:19:14.000Z</Time>
            <Position>
              <LatitudeDegrees>42.7762929908931255340576171875</LatitudeDegrees>
              <LongitudeDegrees>-0.1324515044689178466796875</LongitudeDegrees>
            </Position>
            <AltitudeMeters>2845.39990234375</AltitudeMeters>
            <DistanceMeters>16279.65981166</DistanceMeters>
          </Trackpoint>
          <Trackpoint>
            <Time>2022-07-09T13:19:18.000Z</Time>
            <Position>
              <LatitudeDegrees>42.77627446688711643218994140625</LatitudeDegrees>
              <LongitudeDegrees>-0.1324112713336944580078125</LongitudeDegrees>
            </Position>
            <AltitudeMeters>2846.39990234375</AltitudeMeters>
            <DistanceMeters>16283.539648954</DistanceMeters>
          </Trackpoint>
          <Trackpoint>
            <Time>2022-07-09T13:19:20.000Z</Time>
            <Position>
              <LatitudeDegrees>42.77625518850982189178466796875</LatitudeDegrees>
              <LongitudeDegrees>-0.1324047334492206573486328125</LongitudeDegrees>
            </Position>
            <AltitudeMeters>2847.199951171875</AltitudeMeters>
            <DistanceMeters>16285.751955767</DistanceMeters>
          </Trackpoint>
          <Trackpoint>
            <Time>2022-07-09T13:19:22.000Z</Time>
            <Position>
              <LatitudeDegrees>42.7762420289218425750732421875</LatitudeDegrees>
              <LongitudeDegrees>-0.13239576481282711029052734375</LongitudeDegrees>
            </Position>
            <AltitudeMeters>2847.60009765625</AltitudeMeters>
            <DistanceMeters>16287.389616508</DistanceMeters>
          </Trackpoint>
          <Trackpoint>
            <Time>2022-07-09T13:19:24.000Z</Time>
            <Position>
              <LatitudeDegrees>42.77623808942735195159912109375</LatitudeDegrees>
              <LongitudeDegrees>-0.13238905929028987884521484375</LongitudeDegrees>
            </Position>
            <AltitudeMeters>2848</AltitudeMeters>
            <DistanceMeters>16288.087917394</DistanceMeters>
          </Trackpoint>
          <Trackpoint>
            <Time>2022-07-09T13:19:25.000Z</Time>
            <Position>
              <LatitudeDegrees>42.776233144104480743408203125</LatitudeDegrees>
              <LongitudeDegrees>-0.13238252140581607818603515625</LongitudeDegrees>
            </Position>
            <AltitudeMeters>2848.199951171875</AltitudeMeters>
            <DistanceMeters>16288.848131109</DistanceMeters>
          </Trackpoint>
          <Trackpoint>
            <Time>2022-07-09T13:19:27.000Z</Time>
            <Position>
              <LatitudeDegrees>42.77621931396424770355224609375</LatitudeDegrees>
              <LongitudeDegrees>-0.1323790848255157470703125</LongitudeDegrees>
            </Position>
            <AltitudeMeters>2848.39990234375</AltitudeMeters>
            <DistanceMeters>16290.40957936</DistanceMeters>
          </Trackpoint>
          <Trackpoint>
            <Time>2022-07-09T13:19:29.000Z</Time>
            <Position>
              <LatitudeDegrees>42.7762071602046489715576171875</LatitudeDegrees>
              <LongitudeDegrees>-0.13236642815172672271728515625</LongitudeDegrees>
            </Position>
            <AltitudeMeters>2848.800048828125</AltitudeMeters>
            <DistanceMeters>16292.114772785</DistanceMeters>
          </Trackpoint>
          <Trackpoint>
            <Time>2022-07-09T13:19:30.000Z</Time>
            <Position>
              <LatitudeDegrees>42.77620288543403148651123046875</LatitudeDegrees>
              <LongitudeDegrees>-0.13235921971499919891357421875</LongitudeDegrees>
            </Position>
            <AltitudeMeters>2848.800048828125</AltitudeMeters>
            <DistanceMeters>16292.869023947</DistanceMeters>
          </Trackpoint>
          <Trackpoint>
            <Time>2022-07-09T13:19:33.000Z</Time>
            <Position>
              <LatitudeDegrees>42.77617757208645343780517578125</LatitudeDegrees>
              <LongitudeDegrees>-0.132350586354732513427734375</LongitudeDegrees>
            </Position>
            <AltitudeMeters>2849.800048828125</AltitudeMeters>
            <DistanceMeters>16295.773174666</DistanceMeters>
          </Trackpoint>
          <Trackpoint>
            <Time>2022-07-09T13:19:34.000Z</Time>
            <Position>
              <LatitudeDegrees>42.7761696092784404754638671875</LatitudeDegrees>
              <LongitudeDegrees>-0.13235385529696941375732421875</LongitudeDegrees>
            </Position>
            <AltitudeMeters>2850.199951171875</AltitudeMeters>
            <DistanceMeters>16296.704242515</DistanceMeters>
          </Trackpoint>
          <Trackpoint>
            <Time>2022-07-09T13:19:35.000Z</Time>
            <Position>
              <LatitudeDegrees>42.7761625684797763824462890625</LatitudeDegrees>
              <LongitudeDegrees>-0.132351927459239959716796875</LongitudeDegrees>
            </Position>
            <AltitudeMeters>2850.39990234375</AltitudeMeters>
            <DistanceMeters>16297.504951842</DistanceMeters>
          </Trackpoint>
          <Trackpoint>
            <Time>2022-07-09T13:19:36.000Z</Time>
            <Position>
              <LatitudeDegrees>42.7761538513004779815673828125</LatitudeDegrees>
              <LongitudeDegrees>-0.13234463520348072052001953125</LongitudeDegrees>
            </Position>
            <AltitudeMeters>2850.60009765625</AltitudeMeters>
            <DistanceMeters>16298.645272415</DistanceMeters>
          </Trackpoint>
          <Trackpoint>
            <Time>2022-07-09T13:19:38.000Z</Time>
            <Position>
              <LatitudeDegrees>42.776139266788959503173828125</LatitudeDegrees>
              <LongitudeDegrees>-0.1323363371193408966064453125</LongitudeDegrees>
            </Position>
            <AltitudeMeters>2851</AltitudeMeters>
            <DistanceMeters>16300.407755407</DistanceMeters>
          </Trackpoint>
          <Trackpoint>
            <Time>2022-07-09T13:19:40.000Z</Time>
            <Position>
              <LatitudeDegrees>42.77612644247710704803466796875</LatitudeDegrees>
              <LongitudeDegrees>-0.1323430426418781280517578125</LongitudeDegrees>
            </Position>
            <AltitudeMeters>2851.199951171875</AltitudeMeters>
            <DistanceMeters>16301.937065643</DistanceMeters>
          </Trackpoint>
          <Trackpoint>
            <Time>2022-07-09T13:19:43.000Z</Time>
            <Position>
              <LatitudeDegrees>42.776106409728527069091796875</LatitudeDegrees>
              <LongitudeDegrees>-0.1323608122766017913818359375</LongitudeDegrees>
            </Position>
            <AltitudeMeters>2852</AltitudeMeters>
            <DistanceMeters>16304.597813645</DistanceMeters>
          </Trackpoint>
          <Trackpoint>
            <Time>2022-07-09T13:19:47.000Z</Time>
            <Position>
              <LatitudeDegrees>42.776092328131198883056640625</LatitudeDegrees>
              <LongitudeDegrees>-0.132332146167755126953125</LongitudeDegrees>
            </Position>
            <AltitudeMeters>2852.800048828125</AltitudeMeters>
            <DistanceMeters>16307.413556375</DistanceMeters>
          </Trackpoint>
          <Trackpoint>
            <Time>2022-07-09T13:19:49.000Z</Time>
            <Position>
              <LatitudeDegrees>42.77608620934188365936279296875</LatitudeDegrees>
              <LongitudeDegrees>-0.1323142088949680328369140625</LongitudeDegrees>
            </Position>
            <AltitudeMeters>2853.60009765625</AltitudeMeters>
            <DistanceMeters>16309.031803009</DistanceMeters>
          </Trackpoint>
          <Trackpoint>
            <Time>2022-07-09T13:19:50.000Z</Time>
            <Position>
              <LatitudeDegrees>42.77608419768512248992919921875</LatitudeDegrees>
              <LongitudeDegrees>-0.13230926357209682464599609375</LongitudeDegrees>
            </Position>
            <AltitudeMeters>2854</AltitudeMeters>
            <DistanceMeters>16309.487535121</DistanceMeters>
          </Trackpoint>
          <Trackpoint>
            <Time>2022-07-09T13:19:53.000Z</Time>
            <Position>
              <LatitudeDegrees>42.77607212774455547332763671875</LatitudeDegrees>
              <LongitudeDegrees>-0.13231647200882434844970703125</LongitudeDegrees>
            </Position>
            <AltitudeMeters>2854.800048828125</AltitudeMeters>
            <DistanceMeters>16310.953535869</DistanceMeters>
          </Trackpoint>
          <Trackpoint>
            <Time>2022-07-09T13:19:54.000Z</Time>
            <Position>
              <LatitudeDegrees>42.77606592513620853424072265625</LatitudeDegrees>
              <LongitudeDegrees>-0.132313705980777740478515625</LongitudeDegrees>
            </Position>
            <AltitudeMeters>2855</AltitudeMeters>
            <DistanceMeters>16311.677237765</DistanceMeters>
          </Trackpoint>
          <Trackpoint>
            <Time>2022-07-09T13:19:57.000Z</Time>
            <Position>
              <LatitudeDegrees>42.776042707264423370361328125</LatitudeDegrees>
              <LongitudeDegrees>-0.13233792968094348907470703125</LongitudeDegrees>
            </Position>
            <AltitudeMeters>2855.800048828125</AltitudeMeters>
            <DistanceMeters>16314.931816028</DistanceMeters>
          </Trackpoint>
          <Trackpoint>
            <Time>2022-07-09T13:19:58.000Z</Time>
            <Position>
              <LatitudeDegrees>42.7760365046560764312744140625</LatitudeDegrees>
              <LongitudeDegrees>-0.13234714977443218231201171875</LongitudeDegrees>
            </Position>
            <AltitudeMeters>2856.199951171875</AltitudeMeters>
            <DistanceMeters>16315.95086401</DistanceMeters>
          </Trackpoint>
          <Trackpoint>
            <Time>2022-07-09T13:20:02.000Z</Time>
            <Position>
              <LatitudeDegrees>42.776029296219348907470703125</LatitudeDegrees>
              <LongitudeDegrees>-0.1323718763887882232666015625</LongitudeDegrees>
            </Position>
            <AltitudeMeters>2857.39990234375</AltitudeMeters>
            <DistanceMeters>16318.126124927</DistanceMeters>
          </Trackpoint>
          <Trackpoint>
            <Time>2022-07-09T13:20:03.000Z</Time>
            <Position>
              <LatitudeDegrees>42.7760183997452259063720703125</LatitudeDegrees>
              <LongitudeDegrees>-0.13236743398010730743408203125</LongitudeDegrees>
            </Position>
            <AltitudeMeters>2857.39990234375</AltitudeMeters>
            <DistanceMeters>16319.393939428</DistanceMeters>
          </Trackpoint>
          <Trackpoint>
            <Time>2022-07-09T13:20:07.000Z</Time>
            <Position>
              <LatitudeDegrees>42.77598344720900058746337890625</LatitudeDegrees>
              <LongitudeDegrees>-0.13233642093837261199951171875</LongitudeDegrees>
            </Position>
            <AltitudeMeters>2858.39990234375</AltitudeMeters>
            <DistanceMeters>16324.037625738</DistanceMeters>
          </Trackpoint>
          <Trackpoint>
            <Time>2022-07-09T13:20:09.000Z</Time>
            <Position>
              <LatitudeDegrees>42.775967605412006378173828125</LatitudeDegrees>
              <LongitudeDegrees>-0.1323138736188411712646484375</LongitudeDegrees>
            </Position>
            <AltitudeMeters>2859.199951171875</AltitudeMeters>
            <DistanceMeters>16326.589230158</DistanceMeters>
          </Trackpoint>
          <Trackpoint>
            <Time>2022-07-09T13:20:10.000Z</Time>
            <Position>
              <LatitudeDegrees>42.77596215717494487762451171875</LatitudeDegrees>
              <LongitudeDegrees>-0.13230976648628711700439453125</LongitudeDegrees>
            </Position>
            <AltitudeMeters>2859.60009765625</AltitudeMeters>
            <DistanceMeters>16327.281035081</DistanceMeters>
          </Trackpoint>
          <Trackpoint>
            <Time>2022-07-09T13:20:11.000Z</Time>
            <Position>
              <LatitudeDegrees>42.7759553678333759307861328125</LatitudeDegrees>
              <LongitudeDegrees>-0.1323048211634159088134765625</LongitudeDegrees>
            </Position>
            <AltitudeMeters>2860.199951171875</AltitudeMeters>
            <DistanceMeters>16328.141538578</DistanceMeters>
          </Trackpoint>
          <Trackpoint>
            <Time>2022-07-09T13:20:13.000Z</Time>
            <Position>
              <LatitudeDegrees>42.77594237588346004486083984375</LatitudeDegrees>
              <LongitudeDegrees>-0.13229635544121265411376953125</LongitudeDegrees>
            </Position>
            <AltitudeMeters>2860.39990234375</AltitudeMeters>
            <DistanceMeters>16329.742957233</DistanceMeters>
          </Trackpoint>
          <Trackpoint>
            <Time>2022-07-09T13:20:15.000Z</Time>
            <Position>
              <LatitudeDegrees>42.77593265287578105926513671875</LatitudeDegrees>
              <LongitudeDegrees>-0.13228797353804111480712890625</LongitudeDegrees>
            </Position>
            <AltitudeMeters>2860.800048828125</AltitudeMeters>
            <DistanceMeters>16331.021410923</DistanceMeters>
          </Trackpoint>
          <Trackpoint>
            <Time>2022-07-09T13:20:20.000Z</Time>
            <Position>
              <LatitudeDegrees>42.77590130455791950225830078125</LatitudeDegrees>
              <LongitudeDegrees>-0.13229367323219776153564453125</LongitudeDegrees>
            </Position>
            <AltitudeMeters>2861.39990234375</AltitudeMeters>
            <DistanceMeters>16334.541249681</DistanceMeters>
          </Trackpoint>
          <Trackpoint>
            <Time>2022-07-09T13:20:22.000Z</Time>
            <Position>
              <LatitudeDegrees>42.7758933417499065399169921875</LatitudeDegrees>
              <LongitudeDegrees>-0.13229333795607089996337890625</LongitudeDegrees>
            </Position>
            <AltitudeMeters>2861.800048828125</AltitudeMeters>
            <DistanceMeters>16335.422491177</DistanceMeters>
          </Trackpoint>
          <Trackpoint>
            <Time>2022-07-09T13:20:25.000Z</Time>
            <Position>
              <LatitudeDegrees>42.77587934397161006927490234375</LatitudeDegrees>
              <LongitudeDegrees>-0.13227540068328380584716796875</LongitudeDegrees>
            </Position>
            <AltitudeMeters>2862.60009765625</AltitudeMeters>
            <DistanceMeters>16337.562175442</DistanceMeters>
          </Trackpoint>
          <Trackpoint>
            <Time>2022-07-09T13:20:26.000Z</Time>
            <Position>
              <LatitudeDegrees>42.77587414719164371490478515625</LatitudeDegrees>
              <LongitudeDegrees>-0.1322753168642520904541015625</LongitudeDegrees>
            </Position>
            <AltitudeMeters>2862.800048828125</AltitudeMeters>
            <DistanceMeters>16338.147959451</DistanceMeters>
          </Trackpoint>
          <Trackpoint>
            <Time>2022-07-09T13:20:29.000Z</Time>
            <Position>
              <LatitudeDegrees>42.77586207725107669830322265625</LatitudeDegrees>
              <LongitudeDegrees>-0.13229928910732269287109375</LongitudeDegrees>
            </Position>
            <AltitudeMeters>2863.39990234375</AltitudeMeters>
            <DistanceMeters>16340.525527085</DistanceMeters>
          </Trackpoint>
          <Trackpoint>
            <Time>2022-07-09T13:20:30.000Z</Time>
            <Position>
              <LatitudeDegrees>42.77585855685174465179443359375</LatitudeDegrees>
              <LongitudeDegrees>-0.132318399846553802490234375</LongitudeDegrees>
            </Position>
            <AltitudeMeters>2863.60009765625</AltitudeMeters>
            <DistanceMeters>16342.135381718</DistanceMeters>
          </Trackpoint>
          <Trackpoint>
            <Time>2022-07-09T13:20:31.000Z</Time>
            <Position>
              <LatitudeDegrees>42.77585503645241260528564453125</LatitudeDegrees>
              <LongitudeDegrees>-0.132334493100643157958984375</LongitudeDegrees>
            </Position>
            <AltitudeMeters>2863.800048828125</AltitudeMeters>
            <DistanceMeters>16343.505876483</DistanceMeters>
          </Trackpoint>
          <Trackpoint>
            <Time>2022-07-09T13:20:35.000Z</Time>
            <Position>
              <LatitudeDegrees>42.77584581635892391204833984375</LatitudeDegrees>
              <LongitudeDegrees>-0.13236366212368011474609375</LongitudeDegrees>
            </Position>
            <AltitudeMeters>2864.39990234375</AltitudeMeters>
            <DistanceMeters>16346.101341186</DistanceMeters>
          </Trackpoint>
          <Trackpoint>
            <Time>2022-07-09T13:20:38.000Z</Time>
            <Position>
              <LatitudeDegrees>42.7758420445024967193603515625</LatitudeDegrees>
              <LongitudeDegrees>-0.13236894272267818450927734375</LongitudeDegrees>
            </Position>
            <AltitudeMeters>2864.800048828125</AltitudeMeters>
            <DistanceMeters>16346.702342898</DistanceMeters>
          </Trackpoint>
          <Trackpoint>
            <Time>2022-07-09T13:20:39.000Z</Time>
            <Position>
              <LatitudeDegrees>42.7758396975696086883544921875</LatitudeDegrees>
              <LongitudeDegrees>-0.1323705352842807769775390625</LongitudeDegrees>
            </Position>
            <AltitudeMeters>2865.199951171875</AltitudeMeters>
            <DistanceMeters>16347.002843754</DistanceMeters>
          </Trackpoint>
          <Trackpoint>
            <Time>2022-07-09T13:20:40.000Z</Time>
            <Position>
              <LatitudeDegrees>42.77583517134189605712890625</LatitudeDegrees>
              <LongitudeDegrees>-0.13237279839813709259033203125</LongitudeDegrees>
            </Position>
            <AltitudeMeters>2865.39990234375</AltitudeMeters>
            <DistanceMeters>16347.540396027</DistanceMeters>
          </Trackpoint>
          <Trackpoint>
            <Time>2022-07-09T13:20:42.000Z</Time>
            <Position>
              <LatitudeDegrees>42.77581647969782352447509765625</LatitudeDegrees>
              <LongitudeDegrees>-0.13235695660114288330078125</LongitudeDegrees>
            </Position>
            <AltitudeMeters>2866.199951171875</AltitudeMeters>
            <DistanceMeters>16349.989063167</DistanceMeters>
          </Trackpoint>
          <Trackpoint>
            <Time>2022-07-09T13:20:44.000Z</Time>
            <Position>
              <LatitudeDegrees>42.77580122463405132293701171875</LatitudeDegrees>
              <LongitudeDegrees>-0.13233558274805545806884765625</LongitudeDegrees>
            </Position>
            <AltitudeMeters>2866.800048828125</AltitudeMeters>
            <DistanceMeters>16352.422934599</DistanceMeters>
          </Trackpoint>
          <Trackpoint>
            <Time>2022-07-09T13:20:46.000Z</Time>
            <Position>
              <LatitudeDegrees>42.77578764595091342926025390625</LatitudeDegrees>
              <LongitudeDegrees>-0.13232602737843990325927734375</LongitudeDegrees>
            </Position>
            <AltitudeMeters>2867.39990234375</AltitudeMeters>
            <DistanceMeters>16354.122824143</DistanceMeters>
          </Trackpoint>
          <Trackpoint>
            <Time>2022-07-09T13:20:48.000Z</Time>
            <Position>
              <LatitudeDegrees>42.7757803536951541900634765625</LatitudeDegrees>
              <LongitudeDegrees>-0.13233139179646968841552734375</LongitudeDegrees>
            </Position>
            <AltitudeMeters>2867.60009765625</AltitudeMeters>
            <DistanceMeters>16355.044142321</DistanceMeters>
          </Trackpoint>
          <Trackpoint>
            <Time>2022-07-09T13:20:53.000Z</Time>
            <Position>
              <LatitudeDegrees>42.77575478889048099517822265625</LatitudeDegrees>
              <LongitudeDegrees>-0.13232032768428325653076171875</LongitudeDegrees>
            </Position>
            <AltitudeMeters>2868.60009765625</AltitudeMeters>
            <DistanceMeters>16358.028041678</DistanceMeters>
          </Trackpoint>
          <Trackpoint>
            <Time>2022-07-09T13:20:56.000Z</Time>
            <Position>
              <LatitudeDegrees>42.7757354266941547393798828125</LatitudeDegrees>
              <LongitudeDegrees>-0.13230465352535247802734375</LongitudeDegrees>
            </Position>
            <AltitudeMeters>2869.39990234375</AltitudeMeters>
            <DistanceMeters>16360.535018584</DistanceMeters>
          </Trackpoint>
          <Trackpoint>
            <Time>2022-07-09T13:20:58.000Z</Time>
            <Position>
              <LatitudeDegrees>42.7757200039923191070556640625</LatitudeDegrees>
              <LongitudeDegrees>-0.132282860577106475830078125</LongitudeDegrees>
            </Position>
            <AltitudeMeters>2869.60009765625</AltitudeMeters>
            <DistanceMeters>16363.007539919</DistanceMeters>
          </Trackpoint>
          <Trackpoint>
            <Time>2022-07-09T13:20:59.000Z</Time>
            <Position>
              <LatitudeDegrees>42.77571237646043300628662109375</LatitudeDegrees>
              <LongitudeDegrees>-0.1322749815881252288818359375</LongitudeDegrees>
            </Position>
            <AltitudeMeters>2869.800048828125</AltitudeMeters>
            <DistanceMeters>16364.074212142</DistanceMeters>
          </Trackpoint>
          <Trackpoint>
            <Time>2022-07-09T13:21:01.000Z</Time>
            <Position>
              <LatitudeDegrees>42.7756968699395656585693359375</LatitudeDegrees>
              <LongitudeDegrees>-0.13228185474872589111328125</LongitudeDegrees>
            </Position>
            <AltitudeMeters>2870.199951171875</AltitudeMeters>
            <DistanceMeters>16365.887206302</DistanceMeters>
          </Trackpoint>
          <Trackpoint>
            <Time>2022-07-09T13:21:02.000Z</Time>
            <Position>
              <LatitudeDegrees>42.77568991295993328094482421875</LatitudeDegrees>
              <LongitudeDegrees>-0.13229417614638805389404296875</LongitudeDegrees>
            </Position>
            <AltitudeMeters>2870.39990234375</AltitudeMeters>
            <DistanceMeters>16367.158577092</DistanceMeters>
          </Trackpoint>
          <Trackpoint>
            <Time>2022-07-09T13:21:03.000Z</Time>
            <Position>
              <LatitudeDegrees>42.7756878174841403961181640625</LatitudeDegrees>
              <LongitudeDegrees>-0.13230876065790653228759765625</LongitudeDegrees>
            </Position>
            <AltitudeMeters>2870.800048828125</AltitudeMeters>
            <DistanceMeters>16368.371796965</DistanceMeters>
          </Trackpoint>
          <Trackpoint>
            <Time>2022-07-09T13:21:06.000Z</Time>
            <Position>
              <LatitudeDegrees>42.77568840421736240386962890625</LatitudeDegrees>
              <LongitudeDegrees>-0.1323534362018108367919921875</LongitudeDegrees>
            </Position>
            <AltitudeMeters>2871.60009765625</AltitudeMeters>
            <DistanceMeters>16372.020129828</DistanceMeters>
          </Trackpoint>
          <Trackpoint>
            <Time>2022-07-09T13:21:08.000Z</Time>
            <Position>
              <LatitudeDegrees>42.7756858058273792266845703125</LatitudeDegrees>
              <LongitudeDegrees>-0.13237774372100830078125</LongitudeDegrees>
            </Position>
            <AltitudeMeters>2872</AltitudeMeters>
            <DistanceMeters>16374.026971648</DistanceMeters>
          </Trackpoint>
          <Trackpoint>
            <Time>2022-07-09T13:21:14.000Z</Time>
            <Position>
              <LatitudeDegrees>42.77567029930651187896728515625</LatitudeDegrees>
              <LongitudeDegrees>-0.13241286389529705047607421875</LongitudeDegrees>
            </Position>
            <AltitudeMeters>2873.199951171875</AltitudeMeters>
            <DistanceMeters>16377.375905052</DistanceMeters>
          </Trackpoint>
          <Trackpoint>
            <Time>2022-07-09T13:21:19.000Z</Time>
            <Position>
              <LatitudeDegrees>42.7756623364984989166259765625</LatitudeDegrees>
              <LongitudeDegrees>-0.132445134222507476806640625</LongitudeDegrees>
            </Position>
            <AltitudeMeters>2874.39990234375</AltitudeMeters>
            <DistanceMeters>16380.157770526</DistanceMeters>
          </Trackpoint>
          <Trackpoint>
            <Time>2022-07-09T13:21:22.000Z</Time>
            <Position>
              <LatitudeDegrees>42.7756475843489170074462890625</LatitudeDegrees>
              <LongitudeDegrees>-0.1324702799320220947265625</LongitudeDegrees>
            </Position>
            <AltitudeMeters>2875.39990234375</AltitudeMeters>
            <DistanceMeters>16382.787796867</DistanceMeters>
          </Trackpoint>
          <Trackpoint>
            <Time>2022-07-09T13:21:25.000Z</Time>
            <Position>
              <LatitudeDegrees>42.77563325129449367523193359375</LatitudeDegrees>
              <LongitudeDegrees>-0.132503807544708251953125</LongitudeDegrees>
            </Position>
            <AltitudeMeters>2876.199951171875</AltitudeMeters>
            <DistanceMeters>16385.958045293</DistanceMeters>
          </Trackpoint>
          <Trackpoint>
            <Time>2022-07-09T13:21:28.000Z</Time>
            <Position>
              <LatitudeDegrees>42.775623612105846405029296875</LatitudeDegrees>
              <LongitudeDegrees>-0.13253423385322093963623046875</LongitudeDegrees>
            </Position>
            <AltitudeMeters>2876.39990234375</AltitudeMeters>
            <DistanceMeters>16388.665889837</DistanceMeters>
          </Trackpoint>
          <Trackpoint>
            <Time>2022-07-09T13:21:30.000Z</Time>
            <Position>
              <LatitudeDegrees>42.7756217680871486663818359375</LatitudeDegrees>
              <LongitudeDegrees>-0.13255870901048183441162109375</LongitudeDegrees>
            </Position>
            <AltitudeMeters>2876.60009765625</AltitudeMeters>
            <DistanceMeters>16390.67722627</DistanceMeters>
          </Trackpoint>
          <Trackpoint>
            <Time>2022-07-09T13:21:32.000Z</Time>
            <Position>
              <LatitudeDegrees>42.7756244502961635589599609375</LatitudeDegrees>
              <LongitudeDegrees>-0.13257480226457118988037109375</LongitudeDegrees>
            </Position>
            <AltitudeMeters>2876.60009765625</AltitudeMeters>
            <DistanceMeters>16392.027809641</DistanceMeters>
          </Trackpoint>
          <Trackpoint>
            <Time>2022-07-09T13:21:37.000Z</Time>
            <Position>
              <LatitudeDegrees>42.77562218718230724334716796875</LatitudeDegrees>
              <LongitudeDegrees>-0.13260346837341785430908203125</LongitudeDegrees>
            </Position>
            <AltitudeMeters>2877.199951171875</AltitudeMeters>
            <DistanceMeters>16394.382478818</DistanceMeters>
          </Trackpoint>
          <Trackpoint>
            <Time>2022-07-09T13:21:39.000Z</Time>
            <Position>
              <LatitudeDegrees>42.77561833150684833526611328125</LatitudeDegrees>
              <LongitudeDegrees>-0.1326028816401958465576171875</LongitudeDegrees>
            </Position>
            <AltitudeMeters>2877.39990234375</AltitudeMeters>
            <DistanceMeters>16394.807451204</DistanceMeters>
          </Trackpoint>
          <Trackpoint>
            <Time>2022-07-09T13:21:43.000Z</Time>
            <Position>
              <LatitudeDegrees>42.77559377253055572509765625</LatitudeDegrees>
              <LongitudeDegrees>-0.13258418999612331390380859375</LongitudeDegrees>
            </Position>
            <AltitudeMeters>2878.60009765625</AltitudeMeters>
            <DistanceMeters>16397.939010403</DistanceMeters>
          </Trackpoint>
          <Trackpoint>
            <Time>2022-07-09T13:21:46.000Z</Time>
            <Position>
              <LatitudeDegrees>42.7755731530487537384033203125</LatitudeDegrees>
              <LongitudeDegrees>-0.1325663365423679351806640625</LongitudeDegrees>
            </Position>
            <AltitudeMeters>2879.60009765625</AltitudeMeters>
            <DistanceMeters>16400.656840886</DistanceMeters>
          </Trackpoint>
          <Trackpoint>
            <Time>2022-07-09T13:21:48.000Z</Time>
            <Position>
              <LatitudeDegrees>42.7755543775856494903564453125</LatitudeDegrees>
              <LongitudeDegrees>-0.13254680670797824859619140625</LongitudeDegrees>
            </Position>
            <AltitudeMeters>2880.60009765625</AltitudeMeters>
            <DistanceMeters>16403.286867227</DistanceMeters>
          </Trackpoint>
          <Trackpoint>
            <Time>2022-07-09T13:21:49.000Z</Time>
            <Position>
              <LatitudeDegrees>42.7755426429212093353271484375</LatitudeDegrees>
              <LongitudeDegrees>-0.1325405202805995941162109375</LongitudeDegrees>
            </Position>
            <AltitudeMeters>2880.800048828125</AltitudeMeters>
            <DistanceMeters>16404.689919851</DistanceMeters>
          </Trackpoint>
          <Trackpoint>
            <Time>2022-07-09T13:21:51.000Z</Time>
            <Position>
              <LatitudeDegrees>42.7755208499729633331298828125</LatitudeDegrees>
              <LongitudeDegrees>-0.13254345394670963287353515625</LongitudeDegrees>
            </Position>
            <AltitudeMeters>2881.60009765625</AltitudeMeters>
            <DistanceMeters>16407.127498629</DistanceMeters>
          </Trackpoint>
          <Trackpoint>
            <Time>2022-07-09T13:21:52.000Z</Time>
            <Position>
              <LatitudeDegrees>42.775516994297504425048828125</LatitudeDegrees>
              <LongitudeDegrees>-0.13256507925689220428466796875</LongitudeDegrees>
            </Position>
            <AltitudeMeters>2881.800048828125</AltitudeMeters>
            <DistanceMeters>16408.94546672</DistanceMeters>
          </Trackpoint>
          <Trackpoint>
            <Time>2022-07-09T13:21:53.000Z</Time>
            <Position>
              <LatitudeDegrees>42.775519005954265594482421875</LatitudeDegrees>
              <LongitudeDegrees>-0.13258201070129871368408203125</LongitudeDegrees>
            </Position>
            <AltitudeMeters>2881.800048828125</AltitudeMeters>
            <DistanceMeters>16410.342068493</DistanceMeters>
          </Trackpoint>
          <Trackpoint>
            <Time>2022-07-09T13:21:54.000Z</Time>
            <Position>
              <LatitudeDegrees>42.77552663348615169525146484375</LatitudeDegrees>
              <LongitudeDegrees>-0.1326069049537181854248046875</LongitudeDegrees>
            </Position>
            <AltitudeMeters>2882.199951171875</AltitudeMeters>
            <DistanceMeters>16412.544147295</DistanceMeters>
          </Trackpoint>
          <Trackpoint>
            <Time>2022-07-09T13:21:56.000Z</Time>
            <Position>
              <LatitudeDegrees>42.77554289437830448150634765625</LatitudeDegrees>
              <LongitudeDegrees>-0.1326406002044677734375</LongitudeDegrees>
            </Position>
            <AltitudeMeters>2882.60009765625</AltitudeMeters>
            <DistanceMeters>16415.838711285</DistanceMeters>
          </Trackpoint>
          <Trackpoint>
            <Time>2022-07-09T13:21:59.000Z</Time>
            <Position>
              <LatitudeDegrees>42.775567285716533660888671875</LatitudeDegrees>
              <LongitudeDegrees>-0.13267345726490020751953125</LongitudeDegrees>
            </Position>
            <AltitudeMeters>2883</AltitudeMeters>
            <DistanceMeters>16419.656373316</DistanceMeters>
          </Trackpoint>
          <Trackpoint>
            <Time>2022-07-09T13:22:00.000Z</Time>
            <Position>
              <LatitudeDegrees>42.77557290159165859222412109375</LatitudeDegrees>
              <LongitudeDegrees>-0.13268887996673583984375</LongitudeDegrees>
            </Position>
            <AltitudeMeters>2883</AltitudeMeters>
            <DistanceMeters>16421.062640268</DistanceMeters>
          </Trackpoint>
          <Trackpoint>
            <Time>2022-07-09T13:22:02.000Z</Time>
            <Position>
              <LatitudeDegrees>42.77557558380067348480224609375</LatitudeDegrees>
              <LongitudeDegrees>-0.13271176256239414215087890625</LongitudeDegrees>
            </Position>
            <AltitudeMeters>2884</AltitudeMeters>
            <DistanceMeters>16422.956034138</DistanceMeters>
          </Trackpoint>
          <Trackpoint>
            <Time>2022-07-09T13:22:05.000Z</Time>
            <Position>
              <LatitudeDegrees>42.77557759545743465423583984375</LatitudeDegrees>
              <LongitudeDegrees>-0.132734477519989013671875</LongitudeDegrees>
            </Position>
            <AltitudeMeters>2884.39990234375</AltitudeMeters>
            <DistanceMeters>16424.827843333</DistanceMeters>
          </Trackpoint>
          <Trackpoint>
            <Time>2022-07-09T13:22:07.000Z</Time>
            <Position>
              <LatitudeDegrees>42.775579355657100677490234375</LatitudeDegrees>
              <LongitudeDegrees>-0.1327480562031269073486328125</LongitudeDegrees>
            </Position>
            <AltitudeMeters>2885.199951171875</AltitudeMeters>
            <DistanceMeters>16425.956223046</DistanceMeters>
          </Trackpoint>
          <Trackpoint>
            <Time>2022-07-09T13:22:10.000Z</Time>
            <Position>
              <LatitudeDegrees>42.77558228932321071624755859375</LatitudeDegrees>
              <LongitudeDegrees>-0.13276926241815090179443359375</LongitudeDegrees>
            </Position>
            <AltitudeMeters>2885.800048828125</AltitudeMeters>
            <DistanceMeters>16427.721265928</DistanceMeters>
          </Trackpoint>
          <Trackpoint>
            <Time>2022-07-09T13:22:13.000Z</Time>
            <Position>
              <LatitudeDegrees>42.7755835466086864471435546875</LatitudeDegrees>
              <LongitudeDegrees>-0.1328000240027904510498046875</LongitudeDegrees>
            </Position>
            <AltitudeMeters>2886.199951171875</AltitudeMeters>
            <DistanceMeters>16430.23902558</DistanceMeters>
          </Trackpoint>
          <Trackpoint>
            <Time>2022-07-09T13:22:16.000Z</Time>
            <Position>
              <LatitudeDegrees>42.77558262459933757781982421875</LatitudeDegrees>
              <LongitudeDegrees>-0.132813267409801483154296875</LongitudeDegrees>
            </Position>
            <AltitudeMeters>2887.199951171875</AltitudeMeters>
            <DistanceMeters>16431.326656038</DistanceMeters>
          </Trackpoint>
          <Trackpoint>
            <Time>2022-07-09T13:22:17.000Z</Time>
            <Position>
              <LatitudeDegrees>42.77557625435292720794677734375</LatitudeDegrees>
              <LongitudeDegrees>-0.1328134350478649139404296875</LongitudeDegrees>
            </Position>
            <AltitudeMeters>2887.60009765625</AltitudeMeters>
            <DistanceMeters>16432.031393013</DistanceMeters>
          </Trackpoint>
          <Trackpoint>
            <Time>2022-07-09T13:22:23.000Z</Time>
            <Position>
              <LatitudeDegrees>42.77555546723306179046630859375</LatitudeDegrees>
              <LongitudeDegrees>-0.1328459568321704864501953125</LongitudeDegrees>
            </Position>
            <AltitudeMeters>2888.60009765625</AltitudeMeters>
            <DistanceMeters>16435.553796317</DistanceMeters>
          </Trackpoint>
          <Trackpoint>
            <Time>2022-07-09T13:22:24.000Z</Time>
            <Position>
              <LatitudeDegrees>42.77555881999433040618896484375</LatitudeDegrees>
              <LongitudeDegrees>-0.132852159440517425537109375</LongitudeDegrees>
            </Position>
            <AltitudeMeters>2888.800048828125</AltitudeMeters>
            <DistanceMeters>16436.18413223</DistanceMeters>
          </Trackpoint>
          <Trackpoint>
            <Time>2022-07-09T13:22:29.000Z</Time>
            <Position>
              <LatitudeDegrees>42.775561921298503875732421875</LatitudeDegrees>
              <LongitudeDegrees>-0.13287185691297054290771484375</LongitudeDegrees>
            </Position>
            <AltitudeMeters>2890</AltitudeMeters>
            <DistanceMeters>16437.830043204</DistanceMeters>
          </Trackpoint>
          <Trackpoint>
            <Time>2022-07-09T13:22:33.000Z</Time>
            <Position>
              <LatitudeDegrees>42.77552663348615169525146484375</LatitudeDegrees>
              <LongitudeDegrees>-0.13283480890095233917236328125</LongitudeDegrees>
            </Position>
            <AltitudeMeters>2891</AltitudeMeters>
            <DistanceMeters>16442.788762611</DistanceMeters>
          </Trackpoint>
          <Trackpoint>
            <Time>2022-07-09T13:22:34.000Z</Time>
            <Position>
              <LatitudeDegrees>42.77551523409783840179443359375</LatitudeDegrees>
              <LongitudeDegrees>-0.13282240368425846099853515625</LongitudeDegrees>
            </Position>
            <AltitudeMeters>2891.39990234375</AltitudeMeters>
            <DistanceMeters>16444.412579818</DistanceMeters>
          </Trackpoint>
          <Trackpoint>
            <Time>2022-07-09T13:22:38.000Z</Time>
            <Position>
              <LatitudeDegrees>42.77548455633223056793212890625</LatitudeDegrees>
              <LongitudeDegrees>-0.13278937898576259613037109375</LongitudeDegrees>
            </Position>
            <AltitudeMeters>2892</AltitudeMeters>
            <DistanceMeters>16448.764139343</DistanceMeters>
          </Trackpoint>
          <Trackpoint>
            <Time>2022-07-09T13:22:39.000Z</Time>
            <Position>
              <LatitudeDegrees>42.77547567151486873626708984375</LatitudeDegrees>
              <LongitudeDegrees>-0.13278342783451080322265625</LongitudeDegrees>
            </Position>
            <AltitudeMeters>2892.199951171875</AltitudeMeters>
            <DistanceMeters>16449.86415309</DistanceMeters>
          </Trackpoint>
          <Trackpoint>
            <Time>2022-07-09T13:22:42.000Z</Time>
            <Position>
              <LatitudeDegrees>42.7754568122327327728271484375</LatitudeDegrees>
              <LongitudeDegrees>-0.132771693170070648193359375</LongitudeDegrees>
            </Position>
            <AltitudeMeters>2893</AltitudeMeters>
            <DistanceMeters>16452.172343962</DistanceMeters>
          </Trackpoint>
          <Trackpoint>
            <Time>2022-07-09T13:22:44.000Z</Time>
            <Position>
              <LatitudeDegrees>42.7754403837025165557861328125</LatitudeDegrees>
              <LongitudeDegrees>-0.132772363722324371337890625</LongitudeDegrees>
            </Position>
            <AltitudeMeters>2893.39990234375</AltitudeMeters>
            <DistanceMeters>16454.005152855</DistanceMeters>
          </Trackpoint>
          <Trackpoint>
            <Time>2022-07-09T13:22:45.000Z</Time>
            <Position>
              <LatitudeDegrees>42.7754323370754718780517578125</LatitudeDegrees>
              <LongitudeDegrees>-0.13277529738843441009521484375</LongitudeDegrees>
            </Position>
            <AltitudeMeters>2893.800048828125</AltitudeMeters>
            <DistanceMeters>16454.936220704</DistanceMeters>
          </Trackpoint>
          <Trackpoint>
            <Time>2022-07-09T13:22:48.000Z</Time>
            <Position>
              <LatitudeDegrees>42.77541414834558963775634765625</LatitudeDegrees>
              <LongitudeDegrees>-0.1327832601964473724365234375</LongitudeDegrees>
            </Position>
            <AltitudeMeters>2894.39990234375</AltitudeMeters>
            <DistanceMeters>16457.063206434</DistanceMeters>
          </Trackpoint>
          <Trackpoint>
            <Time>2022-07-09T13:22:49.000Z</Time>
            <Position>
              <LatitudeDegrees>42.77540870010852813720703125</LatitudeDegrees>
              <LongitudeDegrees>-0.13279004953801631927490234375</LongitudeDegrees>
            </Position>
            <AltitudeMeters>2894.800048828125</AltitudeMeters>
            <DistanceMeters>16457.88065714</DistanceMeters>
          </Trackpoint>
          <Trackpoint>
            <Time>2022-07-09T13:22:51.000Z</Time>
            <Position>
              <LatitudeDegrees>42.77541113086044788360595703125</LatitudeDegrees>
              <LongitudeDegrees>-0.13282072730362415313720703125</LongitudeDegrees>
            </Position>
            <AltitudeMeters>2895.199951171875</AltitudeMeters>
            <DistanceMeters>16460.402000793</DistanceMeters>
          </Trackpoint>
          <Trackpoint>
            <Time>2022-07-09T13:22:53.000Z</Time>
            <Position>
              <LatitudeDegrees>42.77541540563106536865234375</LatitudeDegrees>
              <LongitudeDegrees>-0.1328523270785808563232421875</LongitudeDegrees>
            </Position>
            <AltitudeMeters>2895.60009765625</AltitudeMeters>
            <DistanceMeters>16463.028591436</DistanceMeters>
          </Trackpoint>
          <Trackpoint>
            <Time>2022-07-09T13:22:55.000Z</Time>
            <Position>
              <LatitudeDegrees>42.775417082011699676513671875</LatitudeDegrees>
              <LongitudeDegrees>-0.1328855194151401519775390625</LongitudeDegrees>
            </Position>
            <AltitudeMeters>2896.199951171875</AltitudeMeters>
            <DistanceMeters>16465.746421918</DistanceMeters>
          </Trackpoint>
          <Trackpoint>
            <Time>2022-07-09T13:22:57.000Z</Time>
            <Position>
              <LatitudeDegrees>42.775432504713535308837890625</LatitudeDegrees>
              <LongitudeDegrees>-0.13286255300045013427734375</LongitudeDegrees>
            </Position>
            <AltitudeMeters>2896.60009765625</AltitudeMeters>
            <DistanceMeters>16468.289163496</DistanceMeters>
          </Trackpoint>
          <Trackpoint>
            <Time>2022-07-09T13:22:58.000Z</Time>
            <Position>
              <LatitudeDegrees>42.77543359436094760894775390625</LatitudeDegrees>
              <LongitudeDegrees>-0.1328731141984462738037109375</LongitudeDegrees>
            </Position>
            <AltitudeMeters>2896.60009765625</AltitudeMeters>
            <DistanceMeters>16469.154898066</DistanceMeters>
          </Trackpoint>
          <Trackpoint>
            <Time>2022-07-09T13:23:00.000Z</Time>
            <Position>
              <LatitudeDegrees>42.77544197626411914825439453125</LatitudeDegrees>
              <LongitudeDegrees>-0.13289934955537319183349609375</LongitudeDegrees>
            </Position>
            <AltitudeMeters>2897</AltitudeMeters>
            <DistanceMeters>16471.492246189</DistanceMeters>
          </Trackpoint>
          <Trackpoint>
            <Time>2022-07-09T13:23:03.000Z</Time>
            <Position>
              <LatitudeDegrees>42.77543912641704082489013671875</LatitudeDegrees>
              <LongitudeDegrees>-0.13291544280946254730224609375</LongitudeDegrees>
            </Position>
            <AltitudeMeters>2897.199951171875</AltitudeMeters>
            <DistanceMeters>16472.84282956</DistanceMeters>
          </Trackpoint>
          <Trackpoint>
            <Time>2022-07-09T13:23:05.000Z</Time>
            <Position>
              <LatitudeDegrees>42.77543124742805957794189453125</LatitudeDegrees>
              <LongitudeDegrees>-0.132920555770397186279296875</LongitudeDegrees>
            </Position>
            <AltitudeMeters>2897.60009765625</AltitudeMeters>
            <DistanceMeters>16473.811915702</DistanceMeters>
          </Trackpoint>
          <Trackpoint>
            <Time>2022-07-09T13:23:07.000Z</Time>
            <Position>
              <LatitudeDegrees>42.7754273079335689544677734375</LatitudeDegrees>
              <LongitudeDegrees>-0.132937990128993988037109375</LongitudeDegrees>
            </Position>
            <AltitudeMeters>2898.199951171875</AltitudeMeters>
            <DistanceMeters>16475.302351479</DistanceMeters>
          </Trackpoint>
          <Trackpoint>
            <Time>2022-07-09T13:23:08.000Z</Time>
            <Position>
              <LatitudeDegrees>42.775428481400012969970703125</LatitudeDegrees>
              <LongitudeDegrees>-0.1329435221850872039794921875</LongitudeDegrees>
            </Position>
            <AltitudeMeters>2898.39990234375</AltitudeMeters>
            <DistanceMeters>16475.77748505</DistanceMeters>
          </Trackpoint>
          <Trackpoint>
            <Time>2022-07-09T13:23:11.000Z</Time>
            <Position>
              <LatitudeDegrees>42.77542169205844402313232421875</LatitudeDegrees>
              <LongitudeDegrees>-0.13296020217239856719970703125</LongitudeDegrees>
            </Position>
            <AltitudeMeters>2898.800048828125</AltitudeMeters>
            <DistanceMeters>16477.338933301</DistanceMeters>
          </Trackpoint>
          <Trackpoint>
            <Time>2022-07-09T13:23:14.000Z</Time>
            <Position>
              <LatitudeDegrees>42.7754185907542705535888671875</LatitudeDegrees>
              <LongitudeDegrees>-0.13297746889293193817138671875</LongitudeDegrees>
            </Position>
            <AltitudeMeters>2899.39990234375</AltitudeMeters>
            <DistanceMeters>16478.792562514</DistanceMeters>
          </Trackpoint>
          <Trackpoint>
            <Time>2022-07-09T13:23:16.000Z</Time>
            <Position>
              <LatitudeDegrees>42.77541800402104854583740234375</LatitudeDegrees>
              <LongitudeDegrees>-0.13298752717673778533935546875</LongitudeDegrees>
            </Position>
            <AltitudeMeters>2900.199951171875</AltitudeMeters>
            <DistanceMeters>16479.620986204</DistanceMeters>
          </Trackpoint>
          <Trackpoint>
            <Time>2022-07-09T13:23:18.000Z</Time>
            <Position>
              <LatitudeDegrees>42.77540794573724269866943359375</LatitudeDegrees>
              <LongitudeDegrees>-0.13300596736371517181396484375</LongitudeDegrees>
            </Position>
            <AltitudeMeters>2900.800048828125</AltitudeMeters>
            <DistanceMeters>16481.497613448</DistanceMeters>
          </Trackpoint>
          <Trackpoint>
            <Time>2022-07-09T13:23:21.000Z</Time>
            <Position>
              <LatitudeDegrees>42.775406353175640106201171875</LatitudeDegrees>
              <LongitudeDegrees>-0.1330373995006084442138671875</LongitudeDegrees>
            </Position>
            <AltitudeMeters>2901.199951171875</AltitudeMeters>
            <DistanceMeters>16484.07211847</DistanceMeters>
          </Trackpoint>
          <Trackpoint>
            <Time>2022-07-09T13:23:23.000Z</Time>
            <Position>
              <LatitudeDegrees>42.77541247196495532989501953125</LatitudeDegrees>
              <LongitudeDegrees>-0.1330427639186382293701171875</LongitudeDegrees>
            </Position>
            <AltitudeMeters>2901.39990234375</AltitudeMeters>
            <DistanceMeters>16484.884027074</DistanceMeters>
          </Trackpoint>
          <Trackpoint>
            <Time>2022-07-09T13:23:29.000Z</Time>
            <Position>
              <LatitudeDegrees>42.77540744282305240631103515625</LatitudeDegrees>
              <LongitudeDegrees>-0.1330628804862499237060546875</LongitudeDegrees>
            </Position>
            <AltitudeMeters>2902.60009765625</AltitudeMeters>
            <DistanceMeters>16486.62070365</DistanceMeters>
          </Trackpoint>
          <Trackpoint>
            <Time>2022-07-09T13:23:33.000Z</Time>
            <Position>
              <LatitudeDegrees>42.77540065348148345947265625</LatitudeDegrees>
              <LongitudeDegrees>-0.13305709697306156158447265625</LongitudeDegrees>
            </Position>
            <AltitudeMeters>2903.800048828125</AltitudeMeters>
            <DistanceMeters>16487.512133248</DistanceMeters>
          </Trackpoint>
          <Trackpoint>
            <Time>2022-07-09T13:23:34.000Z</Time>
            <Position>
              <LatitudeDegrees>42.7753887511789798736572265625</LatitudeDegrees>
              <LongitudeDegrees>-0.13305701315402984619140625</LongitudeDegrees>
            </Position>
            <AltitudeMeters>2903.800048828125</AltitudeMeters>
            <DistanceMeters>16488.835702222</DistanceMeters>
          </Trackpoint>
          <Trackpoint>
            <Time>2022-07-09T13:23:37.000Z</Time>
            <Position>
              <LatitudeDegrees>42.775367796421051025390625</LatitudeDegrees>
              <LongitudeDegrees>-0.13305223546922206878662109375</LongitudeDegrees>
            </Position>
            <AltitudeMeters>2904.800048828125</AltitudeMeters>
            <DistanceMeters>16491.198028881</DistanceMeters>
          </Trackpoint>
          <Trackpoint>
            <Time>2022-07-09T13:23:39.000Z</Time>
            <Position>
              <LatitudeDegrees>42.77535974979400634765625</LatitudeDegrees>
              <LongitudeDegrees>-0.1330511458218097686767578125</LongitudeDegrees>
            </Position>
            <AltitudeMeters>2905.39990234375</AltitudeMeters>
            <DistanceMeters>16492.099531449</DistanceMeters>
          </Trackpoint>
          <Trackpoint>
            <Time>2022-07-09T13:23:40.000Z</Time>
            <Position>
              <LatitudeDegrees>42.775358073413372039794921875</LatitudeDegrees>
              <LongitudeDegrees>-0.133047960698604583740234375</LongitudeDegrees>
            </Position>
            <AltitudeMeters>2905.800048828125</AltitudeMeters>
            <DistanceMeters>16492.414699405</DistanceMeters>
          </Trackpoint>
          <Trackpoint>
            <Time>2022-07-09T13:23:41.000Z</Time>
            <Position>
              <LatitudeDegrees>42.7753599174320697784423828125</LatitudeDegrees>
              <LongitudeDegrees>-0.1330474577844142913818359375</LongitudeDegrees>
            </Position>
            <AltitudeMeters>2906.39990234375</AltitudeMeters>
            <DistanceMeters>16492.627185598</DistanceMeters>
          </Trackpoint>
          <Trackpoint>
            <Time>2022-07-09T13:23:45.000Z</Time>
            <Position>
              <LatitudeDegrees>42.77535513974726200103759765625</LatitudeDegrees>
              <LongitudeDegrees>-0.13307888992130756378173828125</LongitudeDegrees>
            </Position>
            <AltitudeMeters>2907.60009765625</AltitudeMeters>
            <DistanceMeters>16495.24861425</DistanceMeters>
          </Trackpoint>
          <Trackpoint>
            <Time>2022-07-09T13:23:49.000Z</Time>
            <Position>
              <LatitudeDegrees>42.77533753775060176849365234375</LatitudeDegrees>
              <LongitudeDegrees>-0.13312649913132190704345703125</LongitudeDegrees>
            </Position>
            <AltitudeMeters>2908.39990234375</AltitudeMeters>
            <DistanceMeters>16499.603285366</DistanceMeters>
          </Trackpoint>
          <Trackpoint>
            <Time>2022-07-09T13:23:52.000Z</Time>
            <Position>
              <LatitudeDegrees>42.7753334306180477142333984375</LatitudeDegrees>
              <LongitudeDegrees>-0.1331423409283161163330078125</LongitudeDegrees>
            </Position>
            <AltitudeMeters>2908.800048828125</AltitudeMeters>
            <DistanceMeters>16500.973780131</DistanceMeters>
          </Trackpoint>
          <Trackpoint>
            <Time>2022-07-09T13:23:55.000Z</Time>
            <Position>
              <LatitudeDegrees>42.77534306980669498443603515625</LatitudeDegrees>
              <LongitudeDegrees>-0.1331678219139575958251953125</LongitudeDegrees>
            </Position>
            <AltitudeMeters>2909.199951171875</AltitudeMeters>
            <DistanceMeters>16503.316916166</DistanceMeters>
          </Trackpoint>
          <Trackpoint>
            <Time>2022-07-09T13:24:00.000Z</Time>
            <Position>
              <LatitudeDegrees>42.775335945188999176025390625</LatitudeDegrees>
              <LongitudeDegrees>-0.13318366371095180511474609375</LongitudeDegrees>
            </Position>
            <AltitudeMeters>2909.800048828125</AltitudeMeters>
            <DistanceMeters>16504.831392781</DistanceMeters>
          </Trackpoint>
          <Trackpoint>
            <Time>2022-07-09T13:24:01.000Z</Time>
            <Position>
              <LatitudeDegrees>42.77533351443707942962646484375</LatitudeDegrees>
              <LongitudeDegrees>-0.13317729346454143524169921875</LongitudeDegrees>
            </Position>
            <AltitudeMeters>2910</AltitudeMeters>
            <DistanceMeters>16505.417176789</DistanceMeters>
          </Trackpoint>
          <Trackpoint>
            <Time>2022-07-09T13:24:03.000Z</Time>
            <Position>
              <LatitudeDegrees>42.7753186784684658050537109375</LatitudeDegrees>
              <LongitudeDegrees>-0.13317058794200420379638671875</LongitudeDegrees>
            </Position>
            <AltitudeMeters>2911</AltitudeMeters>
            <DistanceMeters>16507.159045236</DistanceMeters>
          </Trackpoint>
          <Trackpoint>
            <Time>2022-07-09T13:24:05.000Z</Time>
            <Position>
              <LatitudeDegrees>42.77529914863407611846923828125</LatitudeDegrees>
              <LongitudeDegrees>-0.1331703364849090576171875</LongitudeDegrees>
            </Position>
            <AltitudeMeters>2912.199951171875</AltitudeMeters>
            <DistanceMeters>16509.334306153</DistanceMeters>
          </Trackpoint>
          <Trackpoint>
            <Time>2022-07-09T13:24:07.000Z</Time>
            <Position>
              <LatitudeDegrees>42.77528758160769939422607421875</LatitudeDegrees>
              <LongitudeDegrees>-0.1331715099513530731201171875</LongitudeDegrees>
            </Position>
            <AltitudeMeters>2912.60009765625</AltitudeMeters>
            <DistanceMeters>16510.626809206</DistanceMeters>
          </Trackpoint>
          <Trackpoint>
            <Time>2022-07-09T13:24:09.000Z</Time>
            <Position>
              <LatitudeDegrees>42.775280959904193878173828125</LatitudeDegrees>
              <LongitudeDegrees>-0.13316388241946697235107421875</LongitudeDegrees>
            </Position>
            <AltitudeMeters>2913.39990234375</AltitudeMeters>
            <DistanceMeters>16511.595895348</DistanceMeters>
          </Trackpoint>
          <Trackpoint>
            <Time>2022-07-09T13:24:12.000Z</Time>
            <Position>
              <LatitudeDegrees>42.77526595629751682281494140625</LatitudeDegrees>
              <LongitudeDegrees>-0.13314443640410900115966796875</LongitudeDegrees>
            </Position>
            <AltitudeMeters>2914.39990234375</AltitudeMeters>
            <DistanceMeters>16513.902129296</DistanceMeters>
          </Trackpoint>
          <Trackpoint>
            <Time>2022-07-09T13:24:13.000Z</Time>
            <Position>
              <LatitudeDegrees>42.775259502232074737548828125</LatitudeDegrees>
              <LongitudeDegrees>-0.133146531879901885986328125</LongitudeDegrees>
            </Position>
            <AltitudeMeters>2914.39990234375</AltitudeMeters>
            <DistanceMeters>16514.638203061</DistanceMeters>
          </Trackpoint>
          <Trackpoint>
            <Time>2022-07-09T13:24:14.000Z</Time>
            <Position>
              <LatitudeDegrees>42.77525304816663265228271484375</LatitudeDegrees>
              <LongitudeDegrees>-0.13315332122147083282470703125</LongitudeDegrees>
            </Position>
            <AltitudeMeters>2914.800048828125</AltitudeMeters>
            <DistanceMeters>16515.539705628</DistanceMeters>
          </Trackpoint>
          <Trackpoint>
            <Time>2022-07-09T13:24:17.000Z</Time>
            <Position>
              <LatitudeDegrees>42.77524768374860286712646484375</LatitudeDegrees>
              <LongitudeDegrees>-0.13319690711796283721923828125</LongitudeDegrees>
            </Position>
            <AltitudeMeters>2915.199951171875</AltitudeMeters>
            <DistanceMeters>16519.150720774</DistanceMeters>
          </Trackpoint>
          <Trackpoint>
            <Time>2022-07-09T13:24:18.000Z</Time>
            <Position>
              <LatitudeDegrees>42.77524600736796855926513671875</LatitudeDegrees>
              <LongitudeDegrees>-0.1332053728401660919189453125</LongitudeDegrees>
            </Position>
            <AltitudeMeters>2915.199951171875</AltitudeMeters>
            <DistanceMeters>16519.868156735</DistanceMeters>
          </Trackpoint>
          <Trackpoint>
            <Time>2022-07-09T13:24:22.000Z</Time>
            <Position>
              <LatitudeDegrees>42.77525237761437892913818359375</LatitudeDegrees>
              <LongitudeDegrees>-0.13323462568223476409912109375</LongitudeDegrees>
            </Position>
            <AltitudeMeters>2915.60009765625</AltitudeMeters>
            <DistanceMeters>16522.360684086</DistanceMeters>
          </Trackpoint>
          <Trackpoint>
            <Time>2022-07-09T13:24:23.000Z</Time>
            <Position>
              <LatitudeDegrees>42.77525179088115692138671875</LatitudeDegrees>
              <LongitudeDegrees>-0.1332347095012664794921875</LongitudeDegrees>
            </Position>
            <AltitudeMeters>2915.800048828125</AltitudeMeters>
            <DistanceMeters>16522.360684086</DistanceMeters>
          </Trackpoint>
          <Trackpoint>
            <Time>2022-07-09T13:24:27.000Z</Time>
            <Position>
              <LatitudeDegrees>42.775246761739253997802734375</LatitudeDegrees>
              <LongitudeDegrees>-0.13323915190994739532470703125</LongitudeDegrees>
            </Position>
            <AltitudeMeters>2915.800048828125</AltitudeMeters>
            <DistanceMeters>16523.032624427</DistanceMeters>
          </Trackpoint>
          <Trackpoint>
            <Time>2022-07-09T13:24:29.000Z</Time>
            <Position>
              <LatitudeDegrees>42.7752455882728099822998046875</LatitudeDegrees>
              <LongitudeDegrees>-0.1332345418632030487060546875</LongitudeDegrees>
            </Position>
            <AltitudeMeters>2916.199951171875</AltitudeMeters>
            <DistanceMeters>16523.435788631</DistanceMeters>
          </Trackpoint>
          <Trackpoint>
            <Time>2022-07-09T13:24:31.000Z</Time>
            <Position>
              <LatitudeDegrees>42.77523661963641643524169921875</LatitudeDegrees>
              <LongitudeDegrees>-0.133243761956691741943359375</LongitudeDegrees>
            </Position>
            <AltitudeMeters>2916.800048828125</AltitudeMeters>
            <DistanceMeters>16524.689277084</DistanceMeters>
          </Trackpoint>
          <Trackpoint>
            <Time>2022-07-09T13:24:35.000Z</Time>
            <Position>
              <LatitudeDegrees>42.775234021246433258056640625</LatitudeDegrees>
              <LongitudeDegrees>-0.13327636756002902984619140625</LongitudeDegrees>
            </Position>
            <AltitudeMeters>2917.800048828125</AltitudeMeters>
            <DistanceMeters>16527.370310626</DistanceMeters>
          </Trackpoint>
          <Trackpoint>
            <Time>2022-07-09T13:24:36.000Z</Time>
            <Position>
              <LatitudeDegrees>42.7752351947128772735595703125</LatitudeDegrees>
              <LongitudeDegrees>-0.1332771219313144683837890625</LongitudeDegrees>
            </Position>
            <AltitudeMeters>2918</AltitudeMeters>
            <DistanceMeters>16527.560364054</DistanceMeters>
          </Trackpoint>
          <Trackpoint>
            <Time>2022-07-09T13:24:40.000Z</Time>
            <Position>
              <LatitudeDegrees>42.77522027492523193359375</LatitudeDegrees>
              <LongitudeDegrees>-0.13330235145986080169677734375</LongitudeDegrees>
            </Position>
            <AltitudeMeters>2919</AltitudeMeters>
            <DistanceMeters>16530.207502003</DistanceMeters>
          </Trackpoint>
          <Trackpoint>
            <Time>2022-07-09T13:24:42.000Z</Time>
            <Position>
              <LatitudeDegrees>42.77523108758032321929931640625</LatitudeDegrees>
              <LongitudeDegrees>-0.13332791626453399658203125</LongitudeDegrees>
            </Position>
            <AltitudeMeters>2919.60009765625</AltitudeMeters>
            <DistanceMeters>16532.617136655</DistanceMeters>
          </Trackpoint>
          <Trackpoint>
            <Time>2022-07-09T13:24:47.000Z</Time>
            <Position>
              <LatitudeDegrees>42.7752378769218921661376953125</LatitudeDegrees>
              <LongitudeDegrees>-0.133362449705600738525390625</LongitudeDegrees>
            </Position>
            <AltitudeMeters>2920.199951171875</AltitudeMeters>
            <DistanceMeters>16535.536792827</DistanceMeters>
          </Trackpoint>
          <Trackpoint>
            <Time>2022-07-09T13:24:48.000Z</Time>
            <Position>
              <LatitudeDegrees>42.7752368710935115814208984375</LatitudeDegrees>
              <LongitudeDegrees>-0.13337125070393085479736328125</LongitudeDegrees>
            </Position>
            <AltitudeMeters>2920.199951171875</AltitudeMeters>
            <DistanceMeters>16536.260494722</DistanceMeters>
          </Trackpoint>
          <Trackpoint>
            <Time>2022-07-09T13:24:53.000Z</Time>
            <Position>
              <LatitudeDegrees>42.77525103650987148284912109375</LatitudeDegrees>
              <LongitudeDegrees>-0.13341282494366168975830078125</LongitudeDegrees>
            </Position>
            <AltitudeMeters>2920.800048828125</AltitudeMeters>
            <DistanceMeters>16540.004113111</DistanceMeters>
          </Trackpoint>
          <Trackpoint>
            <Time>2022-07-09T13:24:54.000Z</Time>
            <Position>
              <LatitudeDegrees>42.7752573229372501373291015625</LatitudeDegrees>
              <LongitudeDegrees>-0.13341617770493030548095703125</LongitudeDegrees>
            </Position>
            <AltitudeMeters>2921</AltitudeMeters>
            <DistanceMeters>16540.752354208</DistanceMeters>
          </Trackpoint>
          <Trackpoint>
            <Time>2022-07-09T13:24:55.000Z</Time>
            <Position>
              <LatitudeDegrees>42.775263525545597076416015625</LatitudeDegrees>
              <LongitudeDegrees>-0.1334165968000888824462890625</LongitudeDegrees>
            </Position>
            <AltitudeMeters>2921.199951171875</AltitudeMeters>
            <DistanceMeters>16541.450655095</DistanceMeters>
          </Trackpoint>
          <Trackpoint>
            <Time>2022-07-09T13:24:59.000Z</Time>
            <Position>
              <LatitudeDegrees>42.775297053158283233642578125</LatitudeDegrees>
              <LongitudeDegrees>-0.1334367133677005767822265625</LongitudeDegrees>
            </Position>
            <AltitudeMeters>2922</AltitudeMeters>
            <DistanceMeters>16545.529061746</DistanceMeters>
          </Trackpoint>
          <Trackpoint>
            <Time>2022-07-09T13:25:00.000Z</Time>
            <Position>
              <LatitudeDegrees>42.77530099265277385711669921875</LatitudeDegrees>
              <LongitudeDegrees>-0.133440904319286346435546875</LongitudeDegrees>
            </Position>
            <AltitudeMeters>2922.39990234375</AltitudeMeters>
            <DistanceMeters>16546.083157946</DistanceMeters>
          </Trackpoint>
          <Trackpoint>
            <Time>2022-07-09T13:25:01.000Z</Time>
            <Position>
              <LatitudeDegrees>42.77530602179467678070068359375</LatitudeDegrees>
              <LongitudeDegrees>-0.13345104642212390899658203125</LongitudeDegrees>
            </Position>
            <AltitudeMeters>2922.60009765625</AltitudeMeters>
            <DistanceMeters>16547.079806534</DistanceMeters>
          </Trackpoint>
          <Trackpoint>
            <Time>2022-07-09T13:25:04.000Z</Time>
            <Position>
              <LatitudeDegrees>42.7753230370581150054931640625</LatitudeDegrees>
              <LongitudeDegrees>-0.1334707438945770263671875</LongitudeDegrees>
            </Position>
            <AltitudeMeters>2923.60009765625</AltitudeMeters>
            <DistanceMeters>16549.565077604</DistanceMeters>
          </Trackpoint>
          <Trackpoint>
            <Time>2022-07-09T13:25:06.000Z</Time>
            <Position>
              <LatitudeDegrees>42.7753287367522716522216796875</LatitudeDegrees>
              <LongitudeDegrees>-0.1334833167493343353271484375</LongitudeDegrees>
            </Position>
            <AltitudeMeters>2924.199951171875</AltitudeMeters>
            <DistanceMeters>16550.774570218</DistanceMeters>
          </Trackpoint>
          <Trackpoint>
            <Time>2022-07-09T13:25:09.000Z</Time>
            <Position>
              <LatitudeDegrees>42.7753347717225551605224609375</LatitudeDegrees>
              <LongitudeDegrees>-0.13350385241210460662841796875</LongitudeDegrees>
            </Position>
            <AltitudeMeters>2924.60009765625</AltitudeMeters>
            <DistanceMeters>16552.582576764</DistanceMeters>
          </Trackpoint>
          <Trackpoint>
            <Time>2022-07-09T13:25:12.000Z</Time>
            <Position>
              <LatitudeDegrees>42.77533921413123607635498046875</LatitudeDegrees>
              <LongitudeDegrees>-0.13351139612495899200439453125</LongitudeDegrees>
            </Position>
            <AltitudeMeters>2924.800048828125</AltitudeMeters>
            <DistanceMeters>16553.366187126</DistanceMeters>
          </Trackpoint>
          <Trackpoint>
            <Time>2022-07-09T13:25:17.000Z</Time>
            <Position>
              <LatitudeDegrees>42.7753277309238910675048828125</LatitudeDegrees>
              <LongitudeDegrees>-0.13350301422178745269775390625</LongitudeDegrees>
            </Position>
            <AltitudeMeters>2926</AltitudeMeters>
            <DistanceMeters>16554.819816338</DistanceMeters>
          </Trackpoint>
          <Trackpoint>
            <Time>2022-07-09T13:25:21.000Z</Time>
            <Position>
              <LatitudeDegrees>42.775305770337581634521484375</LatitudeDegrees>
              <LongitudeDegrees>-0.13352128677070140838623046875</LongitudeDegrees>
            </Position>
            <AltitudeMeters>2927.199951171875</AltitudeMeters>
            <DistanceMeters>16557.683259966</DistanceMeters>
          </Trackpoint>
          <Trackpoint>
            <Time>2022-07-09T13:25:22.000Z</Time>
            <Position>
              <LatitudeDegrees>42.7753005735576152801513671875</LatitudeDegrees>
              <LongitudeDegrees>-0.13352681882679462432861328125</LongitudeDegrees>
            </Position>
            <AltitudeMeters>2927.60009765625</AltitudeMeters>
            <DistanceMeters>16558.413174009</DistanceMeters>
          </Trackpoint>
          <Trackpoint>
            <Time>2022-07-09T13:25:24.000Z</Time>
            <Position>
              <LatitudeDegrees>42.77528707869350910186767578125</LatitudeDegrees>
              <LongitudeDegrees>-0.1335349492728710174560546875</LongitudeDegrees>
            </Position>
            <AltitudeMeters>2928.199951171875</AltitudeMeters>
            <DistanceMeters>16560.056339508</DistanceMeters>
          </Trackpoint>
          <Trackpoint>
            <Time>2022-07-09T13:25:25.000Z</Time>
            <Position>
              <LatitudeDegrees>42.77528339065611362457275390625</LatitudeDegrees>
              <LongitudeDegrees>-0.13353168033063411712646484375</LongitudeDegrees>
            </Position>
            <AltitudeMeters>2928.199951171875</AltitudeMeters>
            <DistanceMeters>16560.5501128</DistanceMeters>
          </Trackpoint>
          <Trackpoint>
            <Time>2022-07-09T13:25:27.000Z</Time>
            <Position>
              <LatitudeDegrees>42.77527919970452785491943359375</LatitudeDegrees>
              <LongitudeDegrees>-0.133538804948329925537109375</LongitudeDegrees>
            </Position>
            <AltitudeMeters>2929</AltitudeMeters>
            <DistanceMeters>16561.298353898</DistanceMeters>
          </Trackpoint>
          <Trackpoint>
            <Time>2022-07-09T13:25:28.000Z</Time>
            <Position>
              <LatitudeDegrees>42.77527869679033756256103515625</LatitudeDegrees>
              <LongitudeDegrees>-0.13355053961277008056640625</LongitudeDegrees>
            </Position>
            <AltitudeMeters>2929.199951171875</AltitudeMeters>
            <DistanceMeters>16562.262769717</DistanceMeters>
          </Trackpoint>
          <Trackpoint>
            <Time>2022-07-09T13:25:32.000Z</Time>
            <Position>
              <LatitudeDegrees>42.77527727186679840087890625</LatitudeDegrees>
              <LongitudeDegrees>-0.13359186239540576934814453125</LongitudeDegrees>
            </Position>
            <AltitudeMeters>2929.800048828125</AltitudeMeters>
            <DistanceMeters>16565.642569519</DistanceMeters>
          </Trackpoint>
          <Trackpoint>
            <Time>2022-07-09T13:25:36.000Z</Time>
            <Position>
              <LatitudeDegrees>42.7753047645092010498046875</LatitudeDegrees>
              <LongitudeDegrees>-0.13361264951527118682861328125</LongitudeDegrees>
            </Position>
            <AltitudeMeters>2930.199951171875</AltitudeMeters>
            <DistanceMeters>16569.141824248</DistanceMeters>
          </Trackpoint>
          <Trackpoint>
            <Time>2022-07-09T13:25:37.000Z</Time>
            <Position>
              <LatitudeDegrees>42.77531071566045284271240234375</LatitudeDegrees>
              <LongitudeDegrees>-0.13362136669456958770751953125</LongitudeDegrees>
            </Position>
            <AltitudeMeters>2930.39990234375</AltitudeMeters>
            <DistanceMeters>16570.11091039</DistanceMeters>
          </Trackpoint>
          <Trackpoint>
            <Time>2022-07-09T13:25:38.000Z</Time>
            <Position>
              <LatitudeDegrees>42.77531624771654605865478515625</LatitudeDegrees>
              <LongitudeDegrees>-0.13362958095967769622802734375</LongitudeDegrees>
            </Position>
            <AltitudeMeters>2930.60009765625</AltitudeMeters>
            <DistanceMeters>16571.022374615</DistanceMeters>
          </Trackpoint>
          <Trackpoint>
            <Time>2022-07-09T13:25:42.000Z</Time>
            <Position>
              <LatitudeDegrees>42.7753297425806522369384765625</LatitudeDegrees>
              <LongitudeDegrees>-0.13364550657570362091064453125</LongitudeDegrees>
            </Position>
            <AltitudeMeters>2931.199951171875</AltitudeMeters>
            <DistanceMeters>16573.006590664</DistanceMeters>
          </Trackpoint>
          <Trackpoint>
            <Time>2022-07-09T13:25:46.000Z</Time>
            <Position>
              <LatitudeDegrees>42.7753344364464282989501953125</LatitudeDegrees>
              <LongitudeDegrees>-0.133670233190059661865234375</LongitudeDegrees>
            </Position>
            <AltitudeMeters>2932</AltitudeMeters>
            <DistanceMeters>16575.092854513</DistanceMeters>
          </Trackpoint>
          <Trackpoint>
            <Time>2022-07-09T13:25:47.000Z</Time>
            <Position>
              <LatitudeDegrees>42.7753357775509357452392578125</LatitudeDegrees>
              <LongitudeDegrees>-0.133678950369358062744140625</LongitudeDegrees>
            </Position>
            <AltitudeMeters>2932.199951171875</AltitudeMeters>
            <DistanceMeters>16575.816556408</DistanceMeters>
          </Trackpoint>
          <Trackpoint>
            <Time>2022-07-09T13:25:48.000Z</Time>
            <Position>
              <LatitudeDegrees>42.77533753775060176849365234375</LatitudeDegrees>
              <LongitudeDegrees>-0.1336885057389736175537109375</LongitudeDegrees>
            </Position>
            <AltitudeMeters>2932.39990234375</AltitudeMeters>
            <DistanceMeters>16576.622884818</DistanceMeters>
          </Trackpoint>
          <Trackpoint>
            <Time>2022-07-09T13:25:53.000Z</Time>
            <Position>
              <LatitudeDegrees>42.7753253839910030364990234375</LatitudeDegrees>
              <LongitudeDegrees>-0.133709125220775604248046875</LongitudeDegrees>
            </Position>
            <AltitudeMeters>2933.60009765625</AltitudeMeters>
            <DistanceMeters>16578.781476823</DistanceMeters>
          </Trackpoint>
          <Trackpoint>
            <Time>2022-07-09T13:25:54.000Z</Time>
            <Position>
              <LatitudeDegrees>42.7753159962594509124755859375</LatitudeDegrees>
              <LongitudeDegrees>-0.133710466325283050537109375</LongitudeDegrees>
            </Position>
            <AltitudeMeters>2933.800048828125</AltitudeMeters>
            <DistanceMeters>16579.831081189</DistanceMeters>
          </Trackpoint>
          <Trackpoint>
            <Time>2022-07-09T13:25:56.000Z</Time>
            <Position>
              <LatitudeDegrees>42.77529738843441009521484375</LatitudeDegrees>
              <LongitudeDegrees>-0.1337206922471523284912109375</LongitudeDegrees>
            </Position>
            <AltitudeMeters>2934.800048828125</AltitudeMeters>
            <DistanceMeters>16582.063703459</DistanceMeters>
          </Trackpoint>
          <Trackpoint>
            <Time>2022-07-09T13:25:58.000Z</Time>
            <Position>
              <LatitudeDegrees>42.77528758160769939422607421875</LatitudeDegrees>
              <LongitudeDegrees>-0.133746676146984100341796875</LongitudeDegrees>
            </Position>
            <AltitudeMeters>2935.199951171875</AltitudeMeters>
            <DistanceMeters>16584.44885506</DistanceMeters>
          </Trackpoint>
          <Trackpoint>
            <Time>2022-07-09T13:25:59.000Z</Time>
            <Position>
              <LatitudeDegrees>42.77529068291187286376953125</LatitudeDegrees>
              <LongitudeDegrees>-0.13376302085816860198974609375</LongitudeDegrees>
            </Position>
            <AltitudeMeters>2936</AltitudeMeters>
            <DistanceMeters>16585.825922979</DistanceMeters>
          </Trackpoint>
          <Trackpoint>
            <Time>2022-07-09T13:26:01.000Z</Time>
            <Position>
              <LatitudeDegrees>42.77530836872756481170654296875</LatitudeDegrees>
              <LongitudeDegrees>-0.13378598727285861968994140625</LongitudeDegrees>
            </Position>
            <AltitudeMeters>2936.800048828125</AltitudeMeters>
            <DistanceMeters>16588.545414219</DistanceMeters>
          </Trackpoint>
          <Trackpoint>
            <Time>2022-07-09T13:26:03.000Z</Time>
            <Position>
              <LatitudeDegrees>42.7753186784684658050537109375</LatitudeDegrees>
              <LongitudeDegrees>-0.1337872445583343505859375</LongitudeDegrees>
            </Position>
            <AltitudeMeters>2937</AltitudeMeters>
            <DistanceMeters>16589.701464094</DistanceMeters>
          </Trackpoint>
          <Trackpoint>
            <Time>2022-07-09T13:26:04.000Z</Time>
            <Position>
              <LatitudeDegrees>42.77532177977263927459716796875</LatitudeDegrees>
              <LongitudeDegrees>-0.13378498144447803497314453125</LongitudeDegrees>
            </Position>
            <AltitudeMeters>2937.199951171875</AltitudeMeters>
            <DistanceMeters>16590.104628299</DistanceMeters>
          </Trackpoint>
          <Trackpoint>
            <Time>2022-07-09T13:26:07.000Z</Time>
            <Position>
              <LatitudeDegrees>42.77529202401638031005859375</LatitudeDegrees>
              <LongitudeDegrees>-0.13378447853028774261474609375</LongitudeDegrees>
            </Position>
            <AltitudeMeters>2938</AltitudeMeters>
            <DistanceMeters>16593.415596859</DistanceMeters>
          </Trackpoint>
          <Trackpoint>
            <Time>2022-07-09T13:26:08.000Z</Time>
            <Position>
              <LatitudeDegrees>42.77528154663741588592529296875</LatitudeDegrees>
              <LongitudeDegrees>-0.13378389179706573486328125</LongitudeDegrees>
            </Position>
            <AltitudeMeters>2938.39990234375</AltitudeMeters>
            <DistanceMeters>16594.579431669</DistanceMeters>
          </Trackpoint>
          <Trackpoint>
            <Time>2022-07-09T13:26:10.000Z</Time>
            <Position>
              <LatitudeDegrees>42.775259502232074737548828125</LatitudeDegrees>
              <LongitudeDegrees>-0.13378783129155635833740234375</LongitudeDegrees>
            </Position>
            <AltitudeMeters>2938.800048828125</AltitudeMeters>
            <DistanceMeters>16597.053778417</DistanceMeters>
          </Trackpoint>
          <Trackpoint>
            <Time>2022-07-09T13:26:12.000Z</Time>
            <Position>
              <LatitudeDegrees>42.7752546407282352447509765625</LatitudeDegrees>
              <LongitudeDegrees>-0.1338185928761959075927734375</LongitudeDegrees>
            </Position>
            <AltitudeMeters>2939.39990234375</AltitudeMeters>
            <DistanceMeters>16599.624773547</DistanceMeters>
          </Trackpoint>
          <Trackpoint>
            <Time>2022-07-09T13:26:13.000Z</Time>
            <Position>
              <LatitudeDegrees>42.77526042424142360687255859375</LatitudeDegrees>
              <LongitudeDegrees>-0.13383778743445873260498046875</LongitudeDegrees>
            </Position>
            <AltitudeMeters>2939.60009765625</AltitudeMeters>
            <DistanceMeters>16601.31934261</DistanceMeters>
          </Trackpoint>
          <Trackpoint>
            <Time>2022-07-09T13:26:16.000Z</Time>
            <Position>
              <LatitudeDegrees>42.77528129518032073974609375</LatitudeDegrees>
              <LongitudeDegrees>-0.13386662118136882781982421875</LongitudeDegrees>
            </Position>
            <AltitudeMeters>2940.39990234375</AltitudeMeters>
            <DistanceMeters>16604.627582724</DistanceMeters>
          </Trackpoint>
          <Trackpoint>
            <Time>2022-07-09T13:26:17.000Z</Time>
            <Position>
              <LatitudeDegrees>42.77528221718966960906982421875</LatitudeDegrees>
              <LongitudeDegrees>-0.13387508690357208251953125</LongitudeDegrees>
            </Position>
            <AltitudeMeters>2940.800048828125</AltitudeMeters>
            <DistanceMeters>16605.32588361</DistanceMeters>
          </Trackpoint>
          <Trackpoint>
            <Time>2022-07-09T13:26:21.000Z</Time>
            <Position>
              <LatitudeDegrees>42.7752764336764812469482421875</LatitudeDegrees>
              <LongitudeDegrees>-0.1338641904294490814208984375</LongitudeDegrees>
            </Position>
            <AltitudeMeters>2941.39990234375</AltitudeMeters>
            <DistanceMeters>16606.425897357</DistanceMeters>
          </Trackpoint>
          <Trackpoint>
            <Time>2022-07-09T13:26:23.000Z</Time>
            <Position>
              <LatitudeDegrees>42.77526386082172393798828125</LatitudeDegrees>
              <LongitudeDegrees>-0.1338601671159267425537109375</LongitudeDegrees>
            </Position>
            <AltitudeMeters>2941.800048828125</AltitudeMeters>
            <DistanceMeters>16607.863912484</DistanceMeters>
          </Trackpoint>
          <Trackpoint>
            <Time>2022-07-09T13:26:27.000Z</Time>
            <Position>
              <LatitudeDegrees>42.77523745782673358917236328125</LatitudeDegrees>
              <LongitudeDegrees>-0.13386578299105167388916015625</LongitudeDegrees>
            </Position>
            <AltitudeMeters>2942.39990234375</AltitudeMeters>
            <DistanceMeters>16610.835682119</DistanceMeters>
          </Trackpoint>
          <Trackpoint>
            <Time>2022-07-09T13:26:29.000Z</Time>
            <Position>
              <LatitudeDegrees>42.77522387914359569549560546875</LatitudeDegrees>
              <LongitudeDegrees>-0.133864022791385650634765625</LongitudeDegrees>
            </Position>
            <AltitudeMeters>2942.800048828125</AltitudeMeters>
            <DistanceMeters>16612.350158734</DistanceMeters>
          </Trackpoint>
          <Trackpoint>
            <Time>2022-07-09T13:26:32.000Z</Time>
            <Position>
              <LatitudeDegrees>42.77520242147147655487060546875</LatitudeDegrees>
              <LongitudeDegrees>-0.133857987821102142333984375</LongitudeDegrees>
            </Position>
            <AltitudeMeters>2944.39990234375</AltitudeMeters>
            <DistanceMeters>16614.789589072</DistanceMeters>
          </Trackpoint>
          <Trackpoint>
            <Time>2022-07-09T13:26:35.000Z</Time>
            <Position>
              <LatitudeDegrees>42.7751879207789897918701171875</LatitudeDegrees>
              <LongitudeDegrees>-0.1338551379740238189697265625</LongitudeDegrees>
            </Position>
            <AltitudeMeters>2945.199951171875</AltitudeMeters>
            <DistanceMeters>16616.42172649</DistanceMeters>
          </Trackpoint>
          <Trackpoint>
            <Time>2022-07-09T13:26:36.000Z</Time>
            <Position>
              <LatitudeDegrees>42.775179706513881683349609375</LatitudeDegrees>
              <LongitudeDegrees>-0.13386058621108531951904296875</LongitudeDegrees>
            </Position>
            <AltitudeMeters>2945.39990234375</AltitudeMeters>
            <DistanceMeters>16617.436334155</DistanceMeters>
          </Trackpoint>
          <Trackpoint>
            <Time>2022-07-09T13:26:40.000Z</Time>
            <Position>
              <LatitudeDegrees>42.77517425827682018280029296875</LatitudeDegrees>
              <LongitudeDegrees>-0.13390467502176761627197265625</LongitudeDegrees>
            </Position>
            <AltitudeMeters>2946.60009765625</AltitudeMeters>
            <DistanceMeters>16621.089613913</DistanceMeters>
          </Trackpoint>
          <Trackpoint>
            <Time>2022-07-09T13:26:41.000Z</Time>
            <Position>
              <LatitudeDegrees>42.77517727576196193695068359375</LatitudeDegrees>
              <LongitudeDegrees>-0.13391708023846149444580078125</LongitudeDegrees>
            </Position>
            <AltitudeMeters>2946.800048828125</AltitudeMeters>
            <DistanceMeters>16622.160510597</DistanceMeters>
          </Trackpoint>
          <Trackpoint>
            <Time>2022-07-09T13:26:46.000Z</Time>
            <Position>
              <LatitudeDegrees>42.77518012560904026031494140625</LatitudeDegrees>
              <LongitudeDegrees>-0.1339570619165897369384765625</LongitudeDegrees>
            </Position>
            <AltitudeMeters>2947.39990234375</AltitudeMeters>
            <DistanceMeters>16625.442717354</DistanceMeters>
          </Trackpoint>
          <Trackpoint>
            <Time>2022-07-09T13:26:50.000Z</Time>
            <Position>
              <LatitudeDegrees>42.7751869149506092071533203125</LatitudeDegrees>
              <LongitudeDegrees>-0.13397726230323314666748046875</LongitudeDegrees>
            </Position>
            <AltitudeMeters>2947.800048828125</AltitudeMeters>
            <DistanceMeters>16627.258200183</DistanceMeters>
          </Trackpoint>
          <Trackpoint>
            <Time>2022-07-09T13:26:51.000Z</Time>
            <Position>
              <LatitudeDegrees>42.7751855738461017608642578125</LatitudeDegrees>
              <LongitudeDegrees>-0.1339805312454700469970703125</LongitudeDegrees>
            </Position>
            <AltitudeMeters>2948.199951171875</AltitudeMeters>
            <DistanceMeters>16627.57336814</DistanceMeters>
          </Trackpoint>
          <Trackpoint>
            <Time>2022-07-09T13:26:55.000Z</Time>
            <Position>
              <LatitudeDegrees>42.77518414892256259918212890625</LatitudeDegrees>
              <LongitudeDegrees>-0.1340160705149173736572265625</LongitudeDegrees>
            </Position>
            <AltitudeMeters>2949</AltitudeMeters>
            <DistanceMeters>16630.482179173</DistanceMeters>
          </Trackpoint>
          <Trackpoint>
            <Time>2022-07-09T13:26:56.000Z</Time>
            <Position>
              <LatitudeDegrees>42.7751832269132137298583984375</LatitudeDegrees>
              <LongitudeDegrees>-0.134034343063831329345703125</LongitudeDegrees>
            </Position>
            <AltitudeMeters>2949.39990234375</AltitudeMeters>
            <DistanceMeters>16631.978661367</DistanceMeters>
          </Trackpoint>
          <Trackpoint>
            <Time>2022-07-09T13:27:01.000Z</Time>
            <Position>
              <LatitudeDegrees>42.77519789524376392364501953125</LatitudeDegrees>
              <LongitudeDegrees>-0.13406007550656795501708984375</LongitudeDegrees>
            </Position>
            <AltitudeMeters>2950</AltitudeMeters>
            <DistanceMeters>16634.63940937</DistanceMeters>
          </Trackpoint>
          <Trackpoint>
            <Time>2022-07-09T13:27:02.000Z</Time>
            <Position>
              <LatitudeDegrees>42.77520258910953998565673828125</LatitudeDegrees>
              <LongitudeDegrees>-0.13406644575297832489013671875</LongitudeDegrees>
            </Position>
            <AltitudeMeters>2950.199951171875</AltitudeMeters>
            <DistanceMeters>16635.375483134</DistanceMeters>
          </Trackpoint>
          <Trackpoint>
            <Time>2022-07-09T13:27:06.000Z</Time>
            <Position>
              <LatitudeDegrees>42.77520711533725261688232421875</LatitudeDegrees>
              <LongitudeDegrees>-0.13409209437668323516845703125</LongitudeDegrees>
            </Position>
            <AltitudeMeters>2950.60009765625</AltitudeMeters>
            <DistanceMeters>16637.52988776</DistanceMeters>
          </Trackpoint>
          <Trackpoint>
            <Time>2022-07-09T13:27:09.000Z</Time>
            <Position>
              <LatitudeDegrees>42.77521180920302867889404296875</LatitudeDegrees>
              <LongitudeDegrees>-0.13411120511591434478759765625</LongitudeDegrees>
            </Position>
            <AltitudeMeters>2951.39990234375</AltitudeMeters>
            <DistanceMeters>16639.175798734</DistanceMeters>
          </Trackpoint>
          <Trackpoint>
            <Time>2022-07-09T13:27:10.000Z</Time>
            <Position>
              <LatitudeDegrees>42.7752082049846649169921875</LatitudeDegrees>
              <LongitudeDegrees>-0.1341179944574832916259765625</LongitudeDegrees>
            </Position>
            <AltitudeMeters>2951.60009765625</AltitudeMeters>
            <DistanceMeters>16639.861046116</DistanceMeters>
          </Trackpoint>
          <Trackpoint>
            <Time>2022-07-09T13:27:11.000Z</Time>
            <Position>
              <LatitudeDegrees>42.77520376257598400115966796875</LatitudeDegrees>
              <LongitudeDegrees>-0.13412646017968654632568359375</LongitudeDegrees>
            </Position>
            <AltitudeMeters>2952</AltitudeMeters>
            <DistanceMeters>16640.710990888</DistanceMeters>
          </Trackpoint>
          <Trackpoint>
            <Time>2022-07-09T13:27:16.000Z</Time>
            <Position>
              <LatitudeDegrees>42.775208540260791778564453125</LatitudeDegrees>
              <LongitudeDegrees>-0.13416132889688014984130859375</LongitudeDegrees>
            </Position>
            <AltitudeMeters>2952.39990234375</AltitudeMeters>
            <DistanceMeters>16643.608916197</DistanceMeters>
          </Trackpoint>
          <Trackpoint>
            <Time>2022-07-09T13:27:19.000Z</Time>
            <Position>
              <LatitudeDegrees>42.77519144117832183837890625</LatitudeDegrees>
              <LongitudeDegrees>-0.13414791785180568695068359375</LongitudeDegrees>
            </Position>
            <AltitudeMeters>2953.800048828125</AltitudeMeters>
            <DistanceMeters>16645.804835326</DistanceMeters>
          </Trackpoint>
          <Trackpoint>
            <Time>2022-07-09T13:27:21.000Z</Time>
            <Position>
              <LatitudeDegrees>42.775175683200359344482421875</LatitudeDegrees>
              <LongitudeDegrees>-0.1341417990624904632568359375</LongitudeDegrees>
            </Position>
            <AltitudeMeters>2955</AltitudeMeters>
            <DistanceMeters>16647.627763775</DistanceMeters>
          </Trackpoint>
          <Trackpoint>
            <Time>2022-07-09T13:27:22.000Z</Time>
            <Position>
              <LatitudeDegrees>42.77516788803040981292724609375</LatitudeDegrees>
              <LongitudeDegrees>-0.1341466605663299560546875</LongitudeDegrees>
            </Position>
            <AltitudeMeters>2955.199951171875</AltitudeMeters>
            <DistanceMeters>16648.582770435</DistanceMeters>
          </Trackpoint>
          <Trackpoint>
            <Time>2022-07-09T13:27:25.000Z</Time>
            <Position>
              <LatitudeDegrees>42.7751704864203929901123046875</LatitudeDegrees>
              <LongitudeDegrees>-0.13418245129287242889404296875</LongitudeDegrees>
            </Position>
            <AltitudeMeters>2956.199951171875</AltitudeMeters>
            <DistanceMeters>16651.522461432</DistanceMeters>
          </Trackpoint>
          <Trackpoint>
            <Time>2022-07-09T13:27:27.000Z</Time>
            <Position>
              <LatitudeDegrees>42.7751822210848331451416015625</LatitudeDegrees>
              <LongitudeDegrees>-0.13419703580439090728759765625</LongitudeDegrees>
            </Position>
            <AltitudeMeters>2956.60009765625</AltitudeMeters>
            <DistanceMeters>16653.290060495</DistanceMeters>
          </Trackpoint>
          <Trackpoint>
            <Time>2022-07-09T13:27:32.000Z</Time>
            <Position>
              <LatitudeDegrees>42.775180041790008544921875</LatitudeDegrees>
              <LongitudeDegrees>-0.1342105306684970855712890625</LongitudeDegrees>
            </Position>
            <AltitudeMeters>2956.60009765625</AltitudeMeters>
            <DistanceMeters>16654.422434486</DistanceMeters>
          </Trackpoint>
          <Trackpoint>
            <Time>2022-07-09T13:27:33.000Z</Time>
            <Position>
              <LatitudeDegrees>42.77517266571521759033203125</LatitudeDegrees>
              <LongitudeDegrees>-0.13421195559203624725341796875</LongitudeDegrees>
            </Position>
            <AltitudeMeters>2957.199951171875</AltitudeMeters>
            <DistanceMeters>16655.250858176</DistanceMeters>
          </Trackpoint>
          <Trackpoint>
            <Time>2022-07-09T13:27:36.000Z</Time>
            <Position>
              <LatitudeDegrees>42.7751560695469379425048828125</LatitudeDegrees>
              <LongitudeDegrees>-0.1342125423252582550048828125</LongitudeDegrees>
            </Position>
            <AltitudeMeters>2958.199951171875</AltitudeMeters>
            <DistanceMeters>16657.09594322</DistanceMeters>
          </Trackpoint>
          <Trackpoint>
            <Time>2022-07-09T13:27:37.000Z</Time>
            <Position>
              <LatitudeDegrees>42.77515715919435024261474609375</LatitudeDegrees>
              <LongitudeDegrees>-0.13421178795397281646728515625</LongitudeDegrees>
            </Position>
            <AltitudeMeters>2958.60009765625</AltitudeMeters>
            <DistanceMeters>16657.260534317</DistanceMeters>
          </Trackpoint>
          <Trackpoint>
            <Time>2022-07-09T13:27:40.000Z</Time>
            <Position>
              <LatitudeDegrees>42.77514877729117870330810546875</LatitudeDegrees>
              <LongitudeDegrees>-0.13423450291156768798828125</LongitudeDegrees>
            </Position>
            <AltitudeMeters>2959.39990234375</AltitudeMeters>
            <DistanceMeters>16659.335949086</DistanceMeters>
          </Trackpoint>
          <Trackpoint>
            <Time>2022-07-09T13:27:43.000Z</Time>
            <Position>
              <LatitudeDegrees>42.77516101486980915069580078125</LatitudeDegrees>
              <LongitudeDegrees>-0.134270377457141876220703125</LongitudeDegrees>
            </Position>
            <AltitudeMeters>2959.60009765625</AltitudeMeters>
            <DistanceMeters>16662.569651071</DistanceMeters>
          </Trackpoint>
          <Trackpoint>
            <Time>2022-07-09T13:27:45.000Z</Time>
            <Position>
              <LatitudeDegrees>42.7751704864203929901123046875</LatitudeDegrees>
              <LongitudeDegrees>-0.1342883147299289703369140625</LongitudeDegrees>
            </Position>
            <AltitudeMeters>2959.800048828125</AltitudeMeters>
            <DistanceMeters>16664.372656206</DistanceMeters>
          </Trackpoint>
          <Trackpoint>
            <Time>2022-07-09T13:27:47.000Z</Time>
            <Position>
              <LatitudeDegrees>42.7751781977713108062744140625</LatitudeDegrees>
              <LongitudeDegrees>-0.13429485261440277099609375</LongitudeDegrees>
            </Position>
            <AltitudeMeters>2959.800048828125</AltitudeMeters>
            <DistanceMeters>16665.387263872</DistanceMeters>
          </Trackpoint>
          <Trackpoint>
            <Time>2022-07-09T13:27:49.000Z</Time>
            <Position>
              <LatitudeDegrees>42.77518431656062602996826171875</LatitudeDegrees>
              <LongitudeDegrees>-0.13429510407149791717529296875</LongitudeDegrees>
            </Position>
            <AltitudeMeters>2960.60009765625</AltitudeMeters>
            <DistanceMeters>16666.072511254</DistanceMeters>
          </Trackpoint>
          <Trackpoint>
            <Time>2022-07-09T13:27:52.000Z</Time>
            <Position>
              <LatitudeDegrees>42.7751895971596240997314453125</LatitudeDegrees>
              <LongitudeDegrees>-0.13431589119136333465576171875</LongitudeDegrees>
            </Position>
            <AltitudeMeters>2961.60009765625</AltitudeMeters>
            <DistanceMeters>16667.873010475</DistanceMeters>
          </Trackpoint>
          <Trackpoint>
            <Time>2022-07-09T13:27:53.000Z</Time>
            <Position>
              <LatitudeDegrees>42.77518808841705322265625</LatitudeDegrees>
              <LongitudeDegrees>-0.13432444073259830474853515625</LongitudeDegrees>
            </Position>
            <AltitudeMeters>2961.800048828125</AltitudeMeters>
            <DistanceMeters>16668.590446435</DistanceMeters>
          </Trackpoint>
          <Trackpoint>
            <Time>2022-07-09T13:27:54.000Z</Time>
            <Position>
              <LatitudeDegrees>42.7751875855028629302978515625</LatitudeDegrees>
              <LongitudeDegrees>-0.1343290507793426513671875</LongitudeDegrees>
            </Position>
            <AltitudeMeters>2961.800048828125</AltitudeMeters>
            <DistanceMeters>16668.970553293</DistanceMeters>
          </Trackpoint>
          <Trackpoint>
            <Time>2022-07-09T13:27:59.000Z</Time>
            <Position>
              <LatitudeDegrees>42.77518146671354770660400390625</LatitudeDegrees>
              <LongitudeDegrees>-0.13432829640805721282958984375</LongitudeDegrees>
            </Position>
            <AltitudeMeters>2962.39990234375</AltitudeMeters>
            <DistanceMeters>16669.655800675</DistanceMeters>
          </Trackpoint>
          <Trackpoint>
            <Time>2022-07-09T13:28:02.000Z</Time>
            <Position>
              <LatitudeDegrees>42.77515657246112823486328125</LatitudeDegrees>
              <LongitudeDegrees>-0.1343365944921970367431640625</LongitudeDegrees>
            </Position>
            <AltitudeMeters>2963</AltitudeMeters>
            <DistanceMeters>16672.508185445</DistanceMeters>
          </Trackpoint>
          <Trackpoint>
            <Time>2022-07-09T13:28:04.000Z</Time>
            <Position>
              <LatitudeDegrees>42.775146849453449249267578125</LatitudeDegrees>
              <LongitudeDegrees>-0.1343376003205776214599609375</LongitudeDegrees>
            </Position>
            <AltitudeMeters>2963.60009765625</AltitudeMeters>
            <DistanceMeters>16673.595815903</DistanceMeters>
          </Trackpoint>
          <Trackpoint>
            <Time>2022-07-09T13:28:05.000Z</Time>
            <Position>
              <LatitudeDegrees>42.7751436643302440643310546875</LatitudeDegrees>
              <LongitudeDegrees>-0.134342797100543975830078125</LongitudeDegrees>
            </Position>
            <AltitudeMeters>2964.199951171875</AltitudeMeters>
            <DistanceMeters>16674.158001527</DistanceMeters>
          </Trackpoint>
          <Trackpoint>
            <Time>2022-07-09T13:28:08.000Z</Time>
            <Position>
              <LatitudeDegrees>42.7751379646360874176025390625</LatitudeDegrees>
              <LongitudeDegrees>-0.134341455996036529541015625</LongitudeDegrees>
            </Position>
            <AltitudeMeters>2965.199951171875</AltitudeMeters>
            <DistanceMeters>16674.802504061</DistanceMeters>
          </Trackpoint>
          <Trackpoint>
            <Time>2022-07-09T13:28:10.000Z</Time>
            <Position>
              <LatitudeDegrees>42.77512799017131328582763671875</LatitudeDegrees>
              <LongitudeDegrees>-0.13433642685413360595703125</LongitudeDegrees>
            </Position>
            <AltitudeMeters>2965.800048828125</AltitudeMeters>
            <DistanceMeters>16675.985577114</DistanceMeters>
          </Trackpoint>
          <Trackpoint>
            <Time>2022-07-09T13:28:12.000Z</Time>
            <Position>
              <LatitudeDegrees>42.77512061409652233123779296875</LatitudeDegrees>
              <LongitudeDegrees>-0.13433910906314849853515625</LongitudeDegrees>
            </Position>
            <AltitudeMeters>2966.39990234375</AltitudeMeters>
            <DistanceMeters>16676.824830332</DistanceMeters>
          </Trackpoint>
          <Trackpoint>
            <Time>2022-07-09T13:28:15.000Z</Time>
            <Position>
              <LatitudeDegrees>42.77511223219335079193115234375</LatitudeDegrees>
              <LongitudeDegrees>-0.134354531764984130859375</LongitudeDegrees>
            </Position>
            <AltitudeMeters>2966.800048828125</AltitudeMeters>
            <DistanceMeters>16678.392051054</DistanceMeters>
          </Trackpoint>
          <Trackpoint>
            <Time>2022-07-09T13:28:21.000Z</Time>
            <Position>
              <LatitudeDegrees>42.7750719152390956878662109375</LatitudeDegrees>
              <LongitudeDegrees>-0.13437355868518352508544921875</LongitudeDegrees>
            </Position>
            <AltitudeMeters>2967.39990234375</AltitudeMeters>
            <DistanceMeters>16683.141485858</DistanceMeters>
          </Trackpoint>
          <Trackpoint>
            <Time>2022-07-09T13:28:23.000Z</Time>
            <Position>
              <LatitudeDegrees>42.77507032267749309539794921875</LatitudeDegrees>
              <LongitudeDegrees>-0.134371630847454071044921875</LongitudeDegrees>
            </Position>
            <AltitudeMeters>2967.800048828125</AltitudeMeters>
            <DistanceMeters>16683.37425282</DistanceMeters>
          </Trackpoint>
          <Trackpoint>
            <Time>2022-07-09T13:28:25.000Z</Time>
            <Position>
              <LatitudeDegrees>42.77507451362907886505126953125</LatitudeDegrees>
              <LongitudeDegrees>-0.13438847847282886505126953125</LongitudeDegrees>
            </Position>
            <AltitudeMeters>2968</AltitudeMeters>
            <DistanceMeters>16684.827882033</DistanceMeters>
          </Trackpoint>
          <Trackpoint>
            <Time>2022-07-09T13:28:28.000Z</Time>
            <Position>
              <LatitudeDegrees>42.7750866673886775970458984375</LatitudeDegrees>
              <LongitudeDegrees>-0.13441379182040691375732421875</LongitudeDegrees>
            </Position>
            <AltitudeMeters>2968.39990234375</AltitudeMeters>
            <DistanceMeters>16687.298576606</DistanceMeters>
          </Trackpoint>
          <Trackpoint>
            <Time>2022-07-09T13:28:31.000Z</Time>
            <Position>
              <LatitudeDegrees>42.77509362436830997467041015625</LatitudeDegrees>
              <LongitudeDegrees>-0.13444597832858562469482421875</LongitudeDegrees>
            </Position>
            <AltitudeMeters>2969.39990234375</AltitudeMeters>
            <DistanceMeters>16690.039566136</DistanceMeters>
          </Trackpoint>
          <Trackpoint>
            <Time>2022-07-09T13:28:33.000Z</Time>
            <Position>
              <LatitudeDegrees>42.77509245090186595916748046875</LatitudeDegrees>
              <LongitudeDegrees>-0.1344633288681507110595703125</LongitudeDegrees>
            </Position>
            <AltitudeMeters>2969.800048828125</AltitudeMeters>
            <DistanceMeters>16691.468130897</DistanceMeters>
          </Trackpoint>
          <Trackpoint>
            <Time>2022-07-09T13:28:38.000Z</Time>
            <Position>
              <LatitudeDegrees>42.77509714476764202117919921875</LatitudeDegrees>
              <LongitudeDegrees>-0.1345007121562957763671875</LongitudeDegrees>
            </Position>
            <AltitudeMeters>2970</AltitudeMeters>
            <DistanceMeters>16694.567808515</DistanceMeters>
          </Trackpoint>
          <Trackpoint>
            <Time>2022-07-09T13:28:43.000Z</Time>
            <Position>
              <LatitudeDegrees>42.77509479783475399017333984375</LatitudeDegrees>
              <LongitudeDegrees>-0.1345156319439411163330078125</LongitudeDegrees>
            </Position>
            <AltitudeMeters>2970.39990234375</AltitudeMeters>
            <DistanceMeters>16695.81407219</DistanceMeters>
          </Trackpoint>
          <Trackpoint>
            <Time>2022-07-09T13:28:46.000Z</Time>
            <Position>
              <LatitudeDegrees>42.775080464780330657958984375</LatitudeDegrees>
              <LongitudeDegrees>-0.13453382067382335662841796875</LongitudeDegrees>
            </Position>
            <AltitudeMeters>2971</AltitudeMeters>
            <DistanceMeters>16697.993480415</DistanceMeters>
          </Trackpoint>
          <Trackpoint>
            <Time>2022-07-09T13:28:49.000Z</Time>
            <Position>
              <LatitudeDegrees>42.77508792467415332794189453125</LatitudeDegrees>
              <LongitudeDegrees>-0.13456977903842926025390625</LongitudeDegrees>
            </Position>
            <AltitudeMeters>2971.39990234375</AltitudeMeters>
            <DistanceMeters>16701.046190504</DistanceMeters>
          </Trackpoint>
          <Trackpoint>
            <Time>2022-07-09T13:28:53.000Z</Time>
            <Position>
              <LatitudeDegrees>42.77509546838700771331787109375</LatitudeDegrees>
              <LongitudeDegrees>-0.13459064997732639312744140625</LongitudeDegrees>
            </Position>
            <AltitudeMeters>2972</AltitudeMeters>
            <DistanceMeters>16702.946724792</DistanceMeters>
          </Trackpoint>
          <Trackpoint>
            <Time>2022-07-09T13:28:55.000Z</Time>
            <Position>
              <LatitudeDegrees>42.77508993633091449737548828125</LatitudeDegrees>
              <LongitudeDegrees>-0.13459534384310245513916015625</LongitudeDegrees>
            </Position>
            <AltitudeMeters>2972.60009765625</AltitudeMeters>
            <DistanceMeters>16703.670426687</DistanceMeters>
          </Trackpoint>
          <Trackpoint>
            <Time>2022-07-09T13:28:59.000Z</Time>
            <Position>
              <LatitudeDegrees>42.7750782854855060577392578125</LatitudeDegrees>
              <LongitudeDegrees>-0.13459953479468822479248046875</LongitudeDegrees>
            </Position>
            <AltitudeMeters>2973.199951171875</AltitudeMeters>
            <DistanceMeters>16705.01430737</DistanceMeters>
          </Trackpoint>
          <Trackpoint>
            <Time>2022-07-09T13:29:00.000Z</Time>
            <Position>
              <LatitudeDegrees>42.77507250197231769561767578125</LatitudeDegrees>
              <LongitudeDegrees>-0.13460556976497173309326171875</LongitudeDegrees>
            </Position>
            <AltitudeMeters>2973.39990234375</AltitudeMeters>
            <DistanceMeters>16705.831758076</DistanceMeters>
          </Trackpoint>
          <Trackpoint>
            <Time>2022-07-09T13:29:03.000Z</Time>
            <Position>
              <LatitudeDegrees>42.77505322359502315521240234375</LatitudeDegrees>
              <LongitudeDegrees>-0.13459802605211734771728515625</LongitudeDegrees>
            </Position>
            <AltitudeMeters>2974.199951171875</AltitudeMeters>
            <DistanceMeters>16708.064380345</DistanceMeters>
          </Trackpoint>
          <Trackpoint>
            <Time>2022-07-09T13:29:05.000Z</Time>
            <Position>
              <LatitudeDegrees>42.7750367112457752227783203125</LatitudeDegrees>
              <LongitudeDegrees>-0.1345890574157238006591796875</LongitudeDegrees>
            </Position>
            <AltitudeMeters>2974.60009765625</AltitudeMeters>
            <DistanceMeters>16710.04175818</DistanceMeters>
          </Trackpoint>
          <Trackpoint>
            <Time>2022-07-09T13:29:08.000Z</Time>
            <Position>
              <LatitudeDegrees>42.77502003125846385955810546875</LatitudeDegrees>
              <LongitudeDegrees>-0.134578831493854522705078125</LongitudeDegrees>
            </Position>
            <AltitudeMeters>2975.60009765625</AltitudeMeters>
            <DistanceMeters>16712.075418675</DistanceMeters>
          </Trackpoint>
          <Trackpoint>
            <Time>2022-07-09T13:29:10.000Z</Time>
            <Position>
              <LatitudeDegrees>42.77500377036631107330322265625</LatitudeDegrees>
              <LongitudeDegrees>-0.134575478732585906982421875</LongitudeDegrees>
            </Position>
            <AltitudeMeters>2976.199951171875</AltitudeMeters>
            <DistanceMeters>16713.903294022</DistanceMeters>
          </Trackpoint>
          <Trackpoint>
            <Time>2022-07-09T13:29:12.000Z</Time>
            <Position>
              <LatitudeDegrees>42.77499136514961719512939453125</LatitudeDegrees>
              <LongitudeDegrees>-0.13457514345645904541015625</LongitudeDegrees>
            </Position>
            <AltitudeMeters>2976.60009765625</AltitudeMeters>
            <DistanceMeters>16715.286903868</DistanceMeters>
          </Trackpoint>
          <Trackpoint>
            <Time>2022-07-09T13:29:14.000Z</Time>
            <Position>
              <LatitudeDegrees>42.7749817259609699249267578125</LatitudeDegrees>
              <LongitudeDegrees>-0.13457070104777812957763671875</LongitudeDegrees>
            </Position>
            <AltitudeMeters>2977.199951171875</AltitudeMeters>
            <DistanceMeters>16716.419277859</DistanceMeters>
          </Trackpoint>
          <Trackpoint>
            <Time>2022-07-09T13:29:15.000Z</Time>
            <Position>
              <LatitudeDegrees>42.77497795410454273223876953125</LatitudeDegrees>
              <LongitudeDegrees>-0.13457070104777812957763671875</LongitudeDegrees>
            </Position>
            <AltitudeMeters>2977.60009765625</AltitudeMeters>
            <DistanceMeters>16716.844250245</DistanceMeters>
          </Trackpoint>
          <Trackpoint>
            <Time>2022-07-09T13:29:17.000Z</Time>
            <Position>
              <LatitudeDegrees>42.774973846971988677978515625</LatitudeDegrees>
              <LongitudeDegrees>-0.13457790948450565338134765625</LongitudeDegrees>
            </Position>
            <AltitudeMeters>2978.199951171875</AltitudeMeters>
            <DistanceMeters>16717.592491342</DistanceMeters>
          </Trackpoint>
          <Trackpoint>
            <Time>2022-07-09T13:29:20.000Z</Time>
            <Position>
              <LatitudeDegrees>42.7749703265726566314697265625</LatitudeDegrees>
              <LongitudeDegrees>-0.1345766521990299224853515625</LongitudeDegrees>
            </Position>
            <AltitudeMeters>2978.60009765625</AltitudeMeters>
            <DistanceMeters>16717.995655547</DistanceMeters>
          </Trackpoint>
          <Trackpoint>
            <Time>2022-07-09T13:29:23.000Z</Time>
            <Position>
              <LatitudeDegrees>42.774951718747615814208984375</LatitudeDegrees>
              <LongitudeDegrees>-0.1345597207546234130859375</LongitudeDegrees>
            </Position>
            <AltitudeMeters>2978.60009765625</AltitudeMeters>
            <DistanceMeters>16720.488182898</DistanceMeters>
          </Trackpoint>
          <Trackpoint>
            <Time>2022-07-09T13:29:25.000Z</Time>
            <Position>
              <LatitudeDegrees>42.7749408222734928131103515625</LatitudeDegrees>
              <LongitudeDegrees>-0.13455502688884735107421875</LongitudeDegrees>
            </Position>
            <AltitudeMeters>2978.800048828125</AltitudeMeters>
            <DistanceMeters>16721.763100056</DistanceMeters>
          </Trackpoint>
          <Trackpoint>
            <Time>2022-07-09T13:29:30.000Z</Time>
            <Position>
              <LatitudeDegrees>42.77492715977132320404052734375</LatitudeDegrees>
              <LongitudeDegrees>-0.1345907337963581085205078125</LongitudeDegrees>
            </Position>
            <AltitudeMeters>2980</AltitudeMeters>
            <DistanceMeters>16725.052177674</DistanceMeters>
          </Trackpoint>
          <Trackpoint>
            <Time>2022-07-09T13:29:31.000Z</Time>
            <Position>
              <LatitudeDegrees>42.77492732740938663482666015625</LatitudeDegrees>
              <LongitudeDegrees>-0.13459794223308563232421875</LongitudeDegrees>
            </Position>
            <AltitudeMeters>2980.199951171875</AltitudeMeters>
            <DistanceMeters>16725.637961683</DistanceMeters>
          </Trackpoint>
          <Trackpoint>
            <Time>2022-07-09T13:29:36.000Z</Time>
            <Position>
              <LatitudeDegrees>42.774923555552959442138671875</LatitudeDegrees>
              <LongitudeDegrees>-0.1346470601856708526611328125</LongitudeDegrees>
            </Position>
            <AltitudeMeters>2981</AltitudeMeters>
            <DistanceMeters>16729.67184291</DistanceMeters>
          </Trackpoint>
          <Trackpoint>
            <Time>2022-07-09T13:29:42.000Z</Time>
            <Position>
              <LatitudeDegrees>42.7749193646013736724853515625</LatitudeDegrees>
              <LongitudeDegrees>-0.13467815704643726348876953125</LongitudeDegrees>
            </Position>
            <AltitudeMeters>2981.39990234375</AltitudeMeters>
            <DistanceMeters>16732.2551018</DistanceMeters>
          </Trackpoint>
          <Trackpoint>
            <Time>2022-07-09T13:29:46.000Z</Time>
            <Position>
              <LatitudeDegrees>42.77490402571856975555419921875</LatitudeDegrees>
              <LongitudeDegrees>-0.13470816425979137420654296875</LongitudeDegrees>
            </Position>
            <AltitudeMeters>2982.199951171875</AltitudeMeters>
            <DistanceMeters>16735.240513907</DistanceMeters>
          </Trackpoint>
          <Trackpoint>
            <Time>2022-07-09T13:29:48.000Z</Time>
            <Position>
              <LatitudeDegrees>42.77490251697599887847900390625</LatitudeDegrees>
              <LongitudeDegrees>-0.13472610153257846832275390625</LongitudeDegrees>
            </Position>
            <AltitudeMeters>2982.39990234375</AltitudeMeters>
            <DistanceMeters>16736.712661436</DistanceMeters>
          </Trackpoint>
          <Trackpoint>
            <Time>2022-07-09T13:29:54.000Z</Time>
            <Position>
              <LatitudeDegrees>42.7749012596905231475830078125</LatitudeDegrees>
              <LongitudeDegrees>-0.1347582042217254638671875</LongitudeDegrees>
            </Position>
            <AltitudeMeters>2983</AltitudeMeters>
            <DistanceMeters>16739.339252078</DistanceMeters>
          </Trackpoint>
          <Trackpoint>
            <Time>2022-07-09T13:29:56.000Z</Time>
            <Position>
              <LatitudeDegrees>42.77490385808050632476806640625</LatitudeDegrees>
              <LongitudeDegrees>-0.13476633466780185699462890625</LongitudeDegrees>
            </Position>
            <AltitudeMeters>2983.199951171875</AltitudeMeters>
            <DistanceMeters>16740.069166121</DistanceMeters>
          </Trackpoint>
          <Trackpoint>
            <Time>2022-07-09T13:29:59.000Z</Time>
            <Position>
              <LatitudeDegrees>42.77490117587149143218994140625</LatitudeDegrees>
              <LongitudeDegrees>-0.13477924279868602752685546875</LongitudeDegrees>
            </Position>
            <AltitudeMeters>2983.39990234375</AltitudeMeters>
            <DistanceMeters>16741.169179868</DistanceMeters>
          </Trackpoint>
          <Trackpoint>
            <Time>2022-07-09T13:30:05.000Z</Time>
            <Position>
              <LatitudeDegrees>42.7748932130634784698486328125</LatitudeDegrees>
              <LongitudeDegrees>-0.13481947593390941619873046875</LongitudeDegrees>
            </Position>
            <AltitudeMeters>2984.199951171875</AltitudeMeters>
            <DistanceMeters>16744.574266967</DistanceMeters>
          </Trackpoint>
          <Trackpoint>
            <Time>2022-07-09T13:30:06.000Z</Time>
            <Position>
              <LatitudeDegrees>42.77489463798701763153076171875</LatitudeDegrees>
              <LongitudeDegrees>-0.134824253618717193603515625</LongitudeDegrees>
            </Position>
            <AltitudeMeters>2984.39990234375</AltitudeMeters>
            <DistanceMeters>16744.977431172</DistanceMeters>
          </Trackpoint>
          <Trackpoint>
            <Time>2022-07-09T13:30:11.000Z</Time>
            <Position>
              <LatitudeDegrees>42.774900756776332855224609375</LatitudeDegrees>
              <LongitudeDegrees>-0.1348493993282318115234375</LongitudeDegrees>
            </Position>
            <AltitudeMeters>2984.39990234375</AltitudeMeters>
            <DistanceMeters>16747.138113824</DistanceMeters>
          </Trackpoint>
          <Trackpoint>
            <Time>2022-07-09T13:30:17.000Z</Time>
            <Position>
              <LatitudeDegrees>42.77488659135997295379638671875</LatitudeDegrees>
              <LongitudeDegrees>-0.13485115952789783477783203125</LongitudeDegrees>
            </Position>
            <AltitudeMeters>2984.60009765625</AltitudeMeters>
            <DistanceMeters>16748.71681617</DistanceMeters>
          </Trackpoint>
          <Trackpoint>
            <Time>2022-07-09T13:30:18.000Z</Time>
            <Position>
              <LatitudeDegrees>42.77488323859870433807373046875</LatitudeDegrees>
              <LongitudeDegrees>-0.13484847731888294219970703125</LongitudeDegrees>
            </Position>
            <AltitudeMeters>2984.60009765625</AltitudeMeters>
            <DistanceMeters>16749.141788556</DistanceMeters>
          </Trackpoint>
          <Trackpoint>
            <Time>2022-07-09T13:30:23.000Z</Time>
            <Position>
              <LatitudeDegrees>42.7748809754848480224609375</LatitudeDegrees>
              <LongitudeDegrees>-0.13485250063240528106689453125</LongitudeDegrees>
            </Position>
            <AltitudeMeters>2985.39990234375</AltitudeMeters>
            <DistanceMeters>16749.556000401</DistanceMeters>
          </Trackpoint>
          <Trackpoint>
            <Time>2022-07-09T13:30:25.000Z</Time>
            <Position>
              <LatitudeDegrees>42.774886004626750946044921875</LatitudeDegrees>
              <LongitudeDegrees>-0.13485300354659557342529296875</LongitudeDegrees>
            </Position>
            <AltitudeMeters>2985.39990234375</AltitudeMeters>
            <DistanceMeters>16750.118186025</DistanceMeters>
          </Trackpoint>
          <Trackpoint>
            <Time>2022-07-09T13:30:26.000Z</Time>
            <Position>
              <LatitudeDegrees>42.77488768100738525390625</LatitudeDegrees>
              <LongitudeDegrees>-0.13485535047948360443115234375</LongitudeDegrees>
            </Position>
            <AltitudeMeters>2985.199951171875</AltitudeMeters>
            <DistanceMeters>16750.386962161</DistanceMeters>
          </Trackpoint>
          <Trackpoint>
            <Time>2022-07-09T13:30:32.000Z</Time>
            <Position>
              <LatitudeDegrees>42.7748549915850162506103515625</LatitudeDegrees>
              <LongitudeDegrees>-0.13489021919667720794677734375</LongitudeDegrees>
            </Position>
            <AltitudeMeters>2985.39990234375</AltitudeMeters>
            <DistanceMeters>16755.009208462</DistanceMeters>
          </Trackpoint>
          <Trackpoint>
            <Time>2022-07-09T13:30:33.000Z</Time>
            <Position>
              <LatitudeDegrees>42.7748496271669864654541015625</LatitudeDegrees>
              <LongitudeDegrees>-0.13489298522472381591796875</LongitudeDegrees>
            </Position>
            <AltitudeMeters>2985.39990234375</AltitudeMeters>
            <DistanceMeters>16755.639544376</DistanceMeters>
          </Trackpoint>
          <Trackpoint>
            <Time>2022-07-09T13:30:39.000Z</Time>
            <Position>
              <LatitudeDegrees>42.77484736405313014984130859375</LatitudeDegrees>
              <LongitudeDegrees>-0.1348971761763095855712890625</LongitudeDegrees>
            </Position>
            <AltitudeMeters>2985.60009765625</AltitudeMeters>
            <DistanceMeters>16756.064516762</DistanceMeters>
          </Trackpoint>
          <Trackpoint>
            <Time>2022-07-09T13:30:40.000Z</Time>
            <Position>
              <LatitudeDegrees>42.774849124252796173095703125</LatitudeDegrees>
              <LongitudeDegrees>-0.13489943929016590118408203125</LongitudeDegrees>
            </Position>
            <AltitudeMeters>2985.60009765625</AltitudeMeters>
            <DistanceMeters>16756.333292898</DistanceMeters>
          </Trackpoint>
          <Trackpoint>
            <Time>2022-07-09T13:30:44.000Z</Time>
            <Position>
              <LatitudeDegrees>42.77484920807182788848876953125</LatitudeDegrees>
              <LongitudeDegrees>-0.13489876873791217803955078125</LongitudeDegrees>
            </Position>
            <AltitudeMeters>2985.60009765625</AltitudeMeters>
            <DistanceMeters>16756.333292898</DistanceMeters>
          </Trackpoint>
          <Trackpoint>
            <Time>2022-07-09T13:30:48.000Z</Time>
            <Position>
              <LatitudeDegrees>42.7748402394354343414306640625</LatitudeDegrees>
              <LongitudeDegrees>-0.13490312732756137847900390625</LongitudeDegrees>
            </Position>
            <AltitudeMeters>2985.199951171875</AltitudeMeters>
            <DistanceMeters>16757.391465606</DistanceMeters>
          </Trackpoint>
          <Trackpoint>
            <Time>2022-07-09T13:30:52.000Z</Time>
            <Position>
              <LatitudeDegrees>42.77483210898935794830322265625</LatitudeDegrees>
              <LongitudeDegrees>-0.13492424972355365753173828125</LongitudeDegrees>
            </Position>
            <AltitudeMeters>2985</AltitudeMeters>
            <DistanceMeters>16759.338933733</DistanceMeters>
          </Trackpoint>
          <Trackpoint>
            <Time>2022-07-09T13:30:58.000Z</Time>
            <Position>
              <LatitudeDegrees>42.77481903322041034698486328125</LatitudeDegrees>
              <LongitudeDegrees>-0.13495727442204952239990234375</LongitudeDegrees>
            </Position>
            <AltitudeMeters>2985</AltitudeMeters>
            <DistanceMeters>16762.40345319</DistanceMeters>
          </Trackpoint>
          <Trackpoint>
            <Time>2022-07-09T13:31:04.000Z</Time>
            <Position>
              <LatitudeDegrees>42.77478064410388469696044921875</LatitudeDegrees>
              <LongitudeDegrees>-0.13496213592588901519775390625</LongitudeDegrees>
            </Position>
            <AltitudeMeters>2984.800048828125</AltitudeMeters>
            <DistanceMeters>16766.694411809</DistanceMeters>
          </Trackpoint>
          <Trackpoint>
            <Time>2022-07-09T13:31:05.000Z</Time>
            <Position>
              <LatitudeDegrees>42.77477494440972805023193359375</LatitudeDegrees>
              <LongitudeDegrees>-0.1349672488868236541748046875</LongitudeDegrees>
            </Position>
            <AltitudeMeters>2984.800048828125</AltitudeMeters>
            <DistanceMeters>16767.454625524</DistanceMeters>
          </Trackpoint>
          <Trackpoint>
            <Time>2022-07-09T13:31:09.000Z</Time>
            <Position>
              <LatitudeDegrees>42.77475013397634029388427734375</LatitudeDegrees>
              <LongitudeDegrees>-0.13498895801603794097900390625</LongitudeDegrees>
            </Position>
            <AltitudeMeters>2984.199951171875</AltitudeMeters>
            <DistanceMeters>16770.738207603</DistanceMeters>
          </Trackpoint>
          <Trackpoint>
            <Time>2022-07-09T13:31:10.000Z</Time>
            <Position>
              <LatitudeDegrees>42.7747446857392787933349609375</LatitudeDegrees>
              <LongitudeDegrees>-0.134992897510528564453125</LongitudeDegrees>
            </Position>
            <AltitudeMeters>2984.39990234375</AltitudeMeters>
            <DistanceMeters>16771.410147945</DistanceMeters>
          </Trackpoint>
          <Trackpoint>
            <Time>2022-07-09T13:31:15.000Z</Time>
            <Position>
              <LatitudeDegrees>42.77474007569253444671630859375</LatitudeDegrees>
              <LongitudeDegrees>-0.1350316219031810760498046875</LongitudeDegrees>
            </Position>
            <AltitudeMeters>2985.199951171875</AltitudeMeters>
            <DistanceMeters>16774.614394645</DistanceMeters>
          </Trackpoint>
          <Trackpoint>
            <Time>2022-07-09T13:31:17.000Z</Time>
            <Position>
              <LatitudeDegrees>42.77473605237901210784912109375</LatitudeDegrees>
              <LongitudeDegrees>-0.1350478827953338623046875</LongitudeDegrees>
            </Position>
            <AltitudeMeters>2985.60009765625</AltitudeMeters>
            <DistanceMeters>16776.017447269</DistanceMeters>
          </Trackpoint>
          <Trackpoint>
            <Time>2022-07-09T13:31:20.000Z</Time>
            <Position>
              <LatitudeDegrees>42.77472398243844509124755859375</LatitudeDegrees>
              <LongitudeDegrees>-0.1350691728293895721435546875</LongitudeDegrees>
            </Position>
            <AltitudeMeters>2985.60009765625</AltitudeMeters>
            <DistanceMeters>16778.217474763</DistanceMeters>
          </Trackpoint>
          <Trackpoint>
            <Time>2022-07-09T13:31:23.000Z</Time>
            <Position>
              <LatitudeDegrees>42.774711661040782928466796875</LatitudeDegrees>
              <LongitudeDegrees>-0.13507562689483165740966796875</LongitudeDegrees>
            </Position>
            <AltitudeMeters>2985.800048828125</AltitudeMeters>
            <DistanceMeters>16779.689622291</DistanceMeters>
          </Trackpoint>
          <Trackpoint>
            <Time>2022-07-09T13:31:25.000Z</Time>
            <Position>
              <LatitudeDegrees>42.774707637727260589599609375</LatitudeDegrees>
              <LongitudeDegrees>-0.1350674964487552642822265625</LongitudeDegrees>
            </Position>
            <AltitudeMeters>2986.60009765625</AltitudeMeters>
            <DistanceMeters>16780.495950701</DistanceMeters>
          </Trackpoint>
          <Trackpoint>
            <Time>2022-07-09T13:31:28.000Z</Time>
            <Position>
              <LatitudeDegrees>42.774703614413738250732421875</LatitudeDegrees>
              <LongitudeDegrees>-0.13506171293556690216064453125</LongitudeDegrees>
            </Position>
            <AltitudeMeters>2987.39990234375</AltitudeMeters>
            <DistanceMeters>16781.140453235</DistanceMeters>
          </Trackpoint>
          <Trackpoint>
            <Time>2022-07-09T13:31:29.000Z</Time>
            <Position>
              <LatitudeDegrees>42.77470059692859649658203125</LatitudeDegrees>
              <LongitudeDegrees>-0.1350621320307254791259765625</LongitudeDegrees>
            </Position>
            <AltitudeMeters>2988</AltitudeMeters>
            <DistanceMeters>16781.483076926</DistanceMeters>
          </Trackpoint>
          <Trackpoint>
            <Time>2022-07-09T13:31:33.000Z</Time>
            <Position>
              <LatitudeDegrees>42.7747138403356075286865234375</LatitudeDegrees>
              <LongitudeDegrees>-0.13505131937563419342041015625</LongitudeDegrees>
            </Position>
            <AltitudeMeters>2988.800048828125</AltitudeMeters>
            <DistanceMeters>16783.201458431</DistanceMeters>
          </Trackpoint>
          <Trackpoint>
            <Time>2022-07-09T13:31:37.000Z</Time>
            <Position>
              <LatitudeDegrees>42.7747232280671596527099609375</LatitudeDegrees>
              <LongitudeDegrees>-0.13505467213690280914306640625</LongitudeDegrees>
            </Position>
            <AltitudeMeters>2989</AltitudeMeters>
            <DistanceMeters>16784.280754434</DistanceMeters>
          </Trackpoint>
          <Trackpoint>
            <Time>2022-07-09T13:31:39.000Z</Time>
            <Position>
              <LatitudeDegrees>42.77472230605781078338623046875</LatitudeDegrees>
              <LongitudeDegrees>-0.1350614614784717559814453125</LongitudeDegrees>
            </Position>
            <AltitudeMeters>2989.199951171875</AltitudeMeters>
            <DistanceMeters>16784.842940058</DistanceMeters>
          </Trackpoint>
          <Trackpoint>
            <Time>2022-07-09T13:31:45.000Z</Time>
            <Position>
              <LatitudeDegrees>42.7747316099703311920166015625</LatitudeDegrees>
              <LongitudeDegrees>-0.13505500741302967071533203125</LongitudeDegrees>
            </Position>
            <AltitudeMeters>2989.39990234375</AltitudeMeters>
            <DistanceMeters>16786.006774868</DistanceMeters>
          </Trackpoint>
          <Trackpoint>
            <Time>2022-07-09T13:31:51.000Z</Time>
            <Position>
              <LatitudeDegrees>42.774723060429096221923828125</LatitudeDegrees>
              <LongitudeDegrees>-0.13505299575626850128173828125</LongitudeDegrees>
            </Position>
            <AltitudeMeters>2989</AltitudeMeters>
            <DistanceMeters>16786.971190688</DistanceMeters>
          </Trackpoint>
          <Trackpoint>
            <Time>2022-07-09T13:31:54.000Z</Time>
            <Position>
              <LatitudeDegrees>42.77470654807984828948974609375</LatitudeDegrees>
              <LongitudeDegrees>-0.135057605803012847900390625</LongitudeDegrees>
            </Position>
            <AltitudeMeters>2988.800048828125</AltitudeMeters>
            <DistanceMeters>16788.847817932</DistanceMeters>
          </Trackpoint>
          <Trackpoint>
            <Time>2022-07-09T13:31:58.000Z</Time>
            <Position>
              <LatitudeDegrees>42.774678133428096771240234375</LatitudeDegrees>
              <LongitudeDegrees>-0.13506121002137660980224609375</LongitudeDegrees>
            </Position>
            <AltitudeMeters>2988.39990234375</AltitudeMeters>
            <DistanceMeters>16792.025179332</DistanceMeters>
          </Trackpoint>
          <Trackpoint>
            <Time>2022-07-09T13:31:59.000Z</Time>
            <Position>
              <LatitudeDegrees>42.77467201463878154754638671875</LatitudeDegrees>
              <LongitudeDegrees>-0.13507093302905559539794921875</LongitudeDegrees>
            </Position>
            <AltitudeMeters>2987.800048828125</AltitudeMeters>
            <DistanceMeters>16793.074783698</DistanceMeters>
          </Trackpoint>
          <Trackpoint>
            <Time>2022-07-09T13:32:01.000Z</Time>
            <Position>
              <LatitudeDegrees>42.77466765604913234710693359375</LatitudeDegrees>
              <LongitudeDegrees>-0.13507864437997341156005859375</LongitudeDegrees>
            </Position>
            <AltitudeMeters>2987.39990234375</AltitudeMeters>
            <DistanceMeters>16793.869834232</DistanceMeters>
          </Trackpoint>
          <Trackpoint>
            <Time>2022-07-09T13:32:02.000Z</Time>
            <Position>
              <LatitudeDegrees>42.7746652252972126007080078125</LatitudeDegrees>
              <LongitudeDegrees>-0.13508082367479801177978515625</LongitudeDegrees>
            </Position>
            <AltitudeMeters>2987.199951171875</AltitudeMeters>
            <DistanceMeters>16794.199016427</DistanceMeters>
          </Trackpoint>
          <Trackpoint>
            <Time>2022-07-09T13:32:08.000Z</Time>
            <Position>
              <LatitudeDegrees>42.7746588550508022308349609375</LatitudeDegrees>
              <LongitudeDegrees>-0.13509926386177539825439453125</LongitudeDegrees>
            </Position>
            <AltitudeMeters>2987.39990234375</AltitudeMeters>
            <DistanceMeters>16795.861305028</DistanceMeters>
          </Trackpoint>
          <Trackpoint>
            <Time>2022-07-09T13:32:09.000Z</Time>
            <Position>
              <LatitudeDegrees>42.774658016860485076904296875</LatitudeDegrees>
              <LongitudeDegrees>-0.13510026969015598297119140625</LongitudeDegrees>
            </Position>
            <AltitudeMeters>2987.60009765625</AltitudeMeters>
            <DistanceMeters>16795.995693096</DistanceMeters>
          </Trackpoint>
          <Trackpoint>
            <Time>2022-07-09T13:32:15.000Z</Time>
            <Position>
              <LatitudeDegrees>42.77468450367450714111328125</LatitudeDegrees>
              <LongitudeDegrees>-0.135088451206684112548828125</LongitudeDegrees>
            </Position>
            <AltitudeMeters>2987</AltitudeMeters>
            <DistanceMeters>16799.096826987</DistanceMeters>
          </Trackpoint>
          <Trackpoint>
            <Time>2022-07-09T13:32:16.000Z</Time>
            <Position>
              <LatitudeDegrees>42.77468584477901458740234375</LatitudeDegrees>
              <LongitudeDegrees>-0.13508367352187633514404296875</LongitudeDegrees>
            </Position>
            <AltitudeMeters>2987</AltitudeMeters>
            <DistanceMeters>16799.511038832</DistanceMeters>
          </Trackpoint>
          <Trackpoint>
            <Time>2022-07-09T13:32:17.000Z</Time>
            <Position>
              <LatitudeDegrees>42.774685509502887725830078125</LatitudeDegrees>
              <LongitudeDegrees>-0.13507897965610027313232421875</LongitudeDegrees>
            </Position>
            <AltitudeMeters>2986.800048828125</AltitudeMeters>
            <DistanceMeters>16799.879075714</DistanceMeters>
          </Trackpoint>
          <Trackpoint>
            <Time>2022-07-09T13:32:19.000Z</Time>
            <Position>
              <LatitudeDegrees>42.77467855252325534820556640625</LatitudeDegrees>
              <LongitudeDegrees>-0.13508853502571582794189453125</LongitudeDegrees>
            </Position>
            <AltitudeMeters>2986.60009765625</AltitudeMeters>
            <DistanceMeters>16800.979089461</DistanceMeters>
          </Trackpoint>
          <Trackpoint>
            <Time>2022-07-09T14:10:32.000Z</Time>
            <Position>
              <LatitudeDegrees>42.77493922971189022064208984375</LatitudeDegrees>
              <LongitudeDegrees>-0.13476097024977207183837890625</LongitudeDegrees>
            </Position>
            <AltitudeMeters>2988</AltitudeMeters>
            <DistanceMeters>16840.450423099</DistanceMeters>
          </Trackpoint>
          <Trackpoint>
            <Time>2022-07-09T14:10:33.000Z</Time>
            <Position>
              <LatitudeDegrees>42.7749451808631420135498046875</LatitudeDegrees>
              <LongitudeDegrees>-0.13475359417498111724853515625</LongitudeDegrees>
            </Position>
            <AltitudeMeters>2988</AltitudeMeters>
            <DistanceMeters>16841.341852696</DistanceMeters>
          </Trackpoint>
          <Trackpoint>
            <Time>2022-07-09T14:10:35.000Z</Time>
            <Position>
              <LatitudeDegrees>42.774954736232757568359375</LatitudeDegrees>
              <LongitudeDegrees>-0.13475191779434680938720703125</LongitudeDegrees>
            </Position>
            <AltitudeMeters>2988</AltitudeMeters>
            <DistanceMeters>16842.416957242</DistanceMeters>
          </Trackpoint>
          <Trackpoint>
            <Time>2022-07-09T14:10:36.000Z</Time>
            <Position>
              <LatitudeDegrees>42.7749579213559627532958984375</LatitudeDegrees>
              <LongitudeDegrees>-0.13475007377564907073974609375</LongitudeDegrees>
            </Position>
            <AltitudeMeters>2986.800048828125</AltitudeMeters>
            <DistanceMeters>16842.808762423</DistanceMeters>
          </Trackpoint>
          <Trackpoint>
            <Time>2022-07-09T14:10:38.000Z</Time>
            <Position>
              <LatitudeDegrees>42.77496211230754852294921875</LatitudeDegrees>
              <LongitudeDegrees>-0.1347322203218936920166015625</LongitudeDegrees>
            </Position>
            <AltitudeMeters>2985.39990234375</AltitudeMeters>
            <DistanceMeters>16844.341022151</DistanceMeters>
          </Trackpoint>
          <Trackpoint>
            <Time>2022-07-09T14:10:42.000Z</Time>
            <Position>
              <LatitudeDegrees>42.774954736232757568359375</LatitudeDegrees>
              <LongitudeDegrees>-0.13469425030052661895751953125</LongitudeDegrees>
            </Position>
            <AltitudeMeters>2984.39990234375</AltitudeMeters>
            <DistanceMeters>16847.549493305</DistanceMeters>
          </Trackpoint>
          <Trackpoint>
            <Time>2022-07-09T14:10:43.000Z</Time>
            <Position>
              <LatitudeDegrees>42.77495398186147212982177734375</LatitudeDegrees>
              <LongitudeDegrees>-0.13469123281538486480712890625</LongitudeDegrees>
            </Position>
            <AltitudeMeters>2984.39990234375</AltitudeMeters>
            <DistanceMeters>16847.800910359</DistanceMeters>
          </Trackpoint>
          <Trackpoint>
            <Time>2022-07-09T14:10:47.000Z</Time>
            <Position>
              <LatitudeDegrees>42.77495699934661388397216796875</LatitudeDegrees>
              <LongitudeDegrees>-0.134670026600360870361328125</LongitudeDegrees>
            </Position>
            <AltitudeMeters>2983.39990234375</AltitudeMeters>
            <DistanceMeters>16849.565953241</DistanceMeters>
          </Trackpoint>
          <Trackpoint>
            <Time>2022-07-09T14:10:48.000Z</Time>
            <Position>
              <LatitudeDegrees>42.77495540678501129150390625</LatitudeDegrees>
              <LongitudeDegrees>-0.1346668414771556854248046875</LongitudeDegrees>
            </Position>
            <AltitudeMeters>2983.39990234375</AltitudeMeters>
            <DistanceMeters>16849.895135435</DistanceMeters>
          </Trackpoint>
          <Trackpoint>
            <Time>2022-07-09T14:10:53.000Z</Time>
            <Position>
              <LatitudeDegrees>42.77497191913425922393798828125</LatitudeDegrees>
              <LongitudeDegrees>-0.13468771241605281829833984375</LongitudeDegrees>
            </Position>
            <AltitudeMeters>2982.39990234375</AltitudeMeters>
            <DistanceMeters>16852.402112341</DistanceMeters>
          </Trackpoint>
          <Trackpoint>
            <Time>2022-07-09T14:10:54.000Z</Time>
            <Position>
              <LatitudeDegrees>42.7749780379235744476318359375</LatitudeDegrees>
              <LongitudeDegrees>-0.13468385674059391021728515625</LongitudeDegrees>
            </Position>
            <AltitudeMeters>2982.199951171875</AltitudeMeters>
            <DistanceMeters>16853.150353438</DistanceMeters>
          </Trackpoint>
          <Trackpoint>
            <Time>2022-07-09T14:11:00.000Z</Time>
            <Position>
              <LatitudeDegrees>42.774981893599033355712890625</LatitudeDegrees>
              <LongitudeDegrees>-0.13467681594192981719970703125</LongitudeDegrees>
            </Position>
            <AltitudeMeters>2981.199951171875</AltitudeMeters>
            <DistanceMeters>16853.867789398</DistanceMeters>
          </Trackpoint>
          <Trackpoint>
            <Time>2022-07-09T14:11:06.000Z</Time>
            <Position>
              <LatitudeDegrees>42.77498851530253887176513671875</LatitudeDegrees>
              <LongitudeDegrees>-0.13467731885612010955810546875</LongitudeDegrees>
            </Position>
            <AltitudeMeters>2981</AltitudeMeters>
            <DistanceMeters>16854.603863163</DistanceMeters>
          </Trackpoint>
          <Trackpoint>
            <Time>2022-07-09T14:11:07.000Z</Time>
            <Position>
              <LatitudeDegrees>42.7749921195209026336669921875</LatitudeDegrees>
              <LongitudeDegrees>-0.13467983342707157135009765625</LongitudeDegrees>
            </Position>
            <AltitudeMeters>2981.199951171875</AltitudeMeters>
            <DistanceMeters>16855.059595275</DistanceMeters>
          </Trackpoint>
          <Trackpoint>
            <Time>2022-07-09T14:11:13.000Z</Time>
            <Position>
              <LatitudeDegrees>42.77497745119035243988037109375</LatitudeDegrees>
              <LongitudeDegrees>-0.13469911180436611175537109375</LongitudeDegrees>
            </Position>
            <AltitudeMeters>2981.199951171875</AltitudeMeters>
            <DistanceMeters>16857.328326985</DistanceMeters>
          </Trackpoint>
          <Trackpoint>
            <Time>2022-07-09T14:11:14.000Z</Time>
            <Position>
              <LatitudeDegrees>42.77496990747749805450439453125</LatitudeDegrees>
              <LongitudeDegrees>-0.13468645513057708740234375</LongitudeDegrees>
            </Position>
            <AltitudeMeters>2981.199951171875</AltitudeMeters>
            <DistanceMeters>16858.658700987</DistanceMeters>
          </Trackpoint>
          <Trackpoint>
            <Time>2022-07-09T14:11:19.000Z</Time>
            <Position>
              <LatitudeDegrees>42.77495272457599639892578125</LatitudeDegrees>
              <LongitudeDegrees>-0.1346333138644695281982421875</LongitudeDegrees>
            </Position>
            <AltitudeMeters>2982.199951171875</AltitudeMeters>
            <DistanceMeters>16863.402428477</DistanceMeters>
          </Trackpoint>
          <Trackpoint>
            <Time>2022-07-09T14:11:21.000Z</Time>
            <Position>
              <LatitudeDegrees>42.7749574184417724609375</LatitudeDegrees>
              <LongitudeDegrees>-0.13462878763675689697265625</LongitudeDegrees>
            </Position>
            <AltitudeMeters>2982.39990234375</AltitudeMeters>
            <DistanceMeters>16864.046931011</DistanceMeters>
          </Trackpoint>
          <Trackpoint>
            <Time>2022-07-09T14:11:27.000Z</Time>
            <Position>
              <LatitudeDegrees>42.7749793790280818939208984375</LatitudeDegrees>
              <LongitudeDegrees>-0.1346240937709808349609375</LongitudeDegrees>
            </Position>
            <AltitudeMeters>2982</AltitudeMeters>
            <DistanceMeters>16866.521277759</DistanceMeters>
          </Trackpoint>
          <Trackpoint>
            <Time>2022-07-09T14:11:30.000Z</Time>
            <Position>
              <LatitudeDegrees>42.7749773673713207244873046875</LatitudeDegrees>
              <LongitudeDegrees>-0.134633816778659820556640625</LongitudeDegrees>
            </Position>
            <AltitudeMeters>2982</AltitudeMeters>
            <DistanceMeters>16867.349701448</DistanceMeters>
          </Trackpoint>
          <Trackpoint>
            <Time>2022-07-09T14:11:36.000Z</Time>
            <Position>
              <LatitudeDegrees>42.77496571652591228485107421875</LatitudeDegrees>
              <LongitudeDegrees>-0.13462266884744167327880859375</LongitudeDegrees>
            </Position>
            <AltitudeMeters>2981.800048828125</AltitudeMeters>
            <DistanceMeters>16868.934113406</DistanceMeters>
          </Trackpoint>
          <Trackpoint>
            <Time>2022-07-09T14:11:40.000Z</Time>
            <Position>
              <LatitudeDegrees>42.7749595977365970611572265625</LatitudeDegrees>
              <LongitudeDegrees>-0.13463440351188182830810546875</LongitudeDegrees>
            </Position>
            <AltitudeMeters>2982</AltitudeMeters>
            <DistanceMeters>16870.113363919</DistanceMeters>
          </Trackpoint>
          <Trackpoint>
            <Time>2022-07-09T14:11:46.000Z</Time>
            <Position>
              <LatitudeDegrees>42.77496823109686374664306640625</LatitudeDegrees>
              <LongitudeDegrees>-0.13467379845678806304931640625</LongitudeDegrees>
            </Position>
            <AltitudeMeters>2981.800048828125</AltitudeMeters>
            <DistanceMeters>16873.470376788</DistanceMeters>
          </Trackpoint>
          <Trackpoint>
            <Time>2022-07-09T14:11:49.000Z</Time>
            <Position>
              <LatitudeDegrees>42.7749716676771640777587890625</LatitudeDegrees>
              <LongitudeDegrees>-0.13466357253491878509521484375</LongitudeDegrees>
            </Position>
            <AltitudeMeters>2981.800048828125</AltitudeMeters>
            <DistanceMeters>16874.386781234</DistanceMeters>
          </Trackpoint>
          <Trackpoint>
            <Time>2022-07-09T14:11:55.000Z</Time>
            <Position>
              <LatitudeDegrees>42.77498901821672916412353515625</LatitudeDegrees>
              <LongitudeDegrees>-0.13460858725011348724365234375</LongitudeDegrees>
            </Position>
            <AltitudeMeters>2981.39990234375</AltitudeMeters>
            <DistanceMeters>16879.276734447</DistanceMeters>
          </Trackpoint>
          <Trackpoint>
            <Time>2022-07-09T14:11:56.000Z</Time>
            <Position>
              <LatitudeDegrees>42.7749874256551265716552734375</LatitudeDegrees>
              <LongitudeDegrees>-0.1346121914684772491455078125</LongitudeDegrees>
            </Position>
            <AltitudeMeters>2981.199951171875</AltitudeMeters>
            <DistanceMeters>16879.632291855</DistanceMeters>
          </Trackpoint>
          <Trackpoint>
            <Time>2022-07-09T14:12:01.000Z</Time>
            <Position>
              <LatitudeDegrees>42.77500544674694538116455078125</LatitudeDegrees>
              <LongitudeDegrees>-0.134630464017391204833984375</LongitudeDegrees>
            </Position>
            <AltitudeMeters>2980</AltitudeMeters>
            <DistanceMeters>16882.132054423</DistanceMeters>
          </Trackpoint>
          <Trackpoint>
            <Time>2022-07-09T14:12:02.000Z</Time>
            <Position>
              <LatitudeDegrees>42.77501081116497516632080078125</LatitudeDegrees>
              <LongitudeDegrees>-0.13463146984577178955078125</LongitudeDegrees>
            </Position>
            <AltitudeMeters>2980</AltitudeMeters>
            <DistanceMeters>16882.733056135</DistanceMeters>
          </Trackpoint>
          <Trackpoint>
            <Time>2022-07-09T14:12:08.000Z</Time>
            <Position>
              <LatitudeDegrees>42.77503897435963153839111328125</LatitudeDegrees>
              <LongitudeDegrees>-0.13464211486279964447021484375</LongitudeDegrees>
            </Position>
            <AltitudeMeters>2979.60009765625</AltitudeMeters>
            <DistanceMeters>16885.986246814</DistanceMeters>
          </Trackpoint>
          <Trackpoint>
            <Time>2022-07-09T14:12:10.000Z</Time>
            <Position>
              <LatitudeDegrees>42.77505272068083286285400390625</LatitudeDegrees>
              <LongitudeDegrees>-0.1346430368721485137939453125</LongitudeDegrees>
            </Position>
            <AltitudeMeters>2979.39990234375</AltitudeMeters>
            <DistanceMeters>16887.518506542</DistanceMeters>
          </Trackpoint>
          <Trackpoint>
            <Time>2022-07-09T14:12:13.000Z</Time>
            <Position>
              <LatitudeDegrees>42.77507266961038112640380859375</LatitudeDegrees>
              <LongitudeDegrees>-0.13465887866914272308349609375</LongitudeDegrees>
            </Position>
            <AltitudeMeters>2978.800048828125</AltitudeMeters>
            <DistanceMeters>16890.087744928</DistanceMeters>
          </Trackpoint>
          <Trackpoint>
            <Time>2022-07-09T14:12:14.000Z</Time>
            <Position>
              <LatitudeDegrees>42.77507669292390346527099609375</LatitudeDegrees>
              <LongitudeDegrees>-0.13465921394526958465576171875</LongitudeDegrees>
            </Position>
            <AltitudeMeters>2978.800048828125</AltitudeMeters>
            <DistanceMeters>16890.54347704</DistanceMeters>
          </Trackpoint>
          <Trackpoint>
            <Time>2022-07-09T14:12:17.000Z</Time>
            <Position>
              <LatitudeDegrees>42.7750873379409313201904296875</LatitudeDegrees>
              <LongitudeDegrees>-0.13465569354593753814697265625</LongitudeDegrees>
            </Position>
            <AltitudeMeters>2978.60009765625</AltitudeMeters>
            <DistanceMeters>16891.760412756</DistanceMeters>
          </Trackpoint>
          <Trackpoint>
            <Time>2022-07-09T14:12:22.000Z</Time>
            <Position>
              <LatitudeDegrees>42.7751064486801624298095703125</LatitudeDegrees>
              <LongitudeDegrees>-0.1346128620207309722900390625</LongitudeDegrees>
            </Position>
            <AltitudeMeters>2977.800048828125</AltitudeMeters>
            <DistanceMeters>16895.856494058</DistanceMeters>
          </Trackpoint>
          <Trackpoint>
            <Time>2022-07-09T14:12:23.000Z</Time>
            <Position>
              <LatitudeDegrees>42.77510016225278377532958984375</LatitudeDegrees>
              <LongitudeDegrees>-0.13459953479468822479248046875</LongitudeDegrees>
            </Position>
            <AltitudeMeters>2977.800048828125</AltitudeMeters>
            <DistanceMeters>16897.152485655</DistanceMeters>
          </Trackpoint>
          <Trackpoint>
            <Time>2022-07-09T14:12:29.000Z</Time>
            <Position>
              <LatitudeDegrees>42.77510250918567180633544921875</LatitudeDegrees>
              <LongitudeDegrees>-0.13457715511322021484375</LongitudeDegrees>
            </Position>
            <AltitudeMeters>2977.60009765625</AltitudeMeters>
            <DistanceMeters>16899.00001614</DistanceMeters>
          </Trackpoint>
          <Trackpoint>
            <Time>2022-07-09T14:12:32.000Z</Time>
            <Position>
              <LatitudeDegrees>42.77510351501405239105224609375</LatitudeDegrees>
              <LongitudeDegrees>-0.13457707129418849945068359375</LongitudeDegrees>
            </Position>
            <AltitudeMeters>2977.199951171875</AltitudeMeters>
            <DistanceMeters>16899.134404209</DistanceMeters>
          </Trackpoint>
          <Trackpoint>
            <Time>2022-07-09T14:12:37.000Z</Time>
            <Position>
              <LatitudeDegrees>42.77512379921972751617431640625</LatitudeDegrees>
              <LongitudeDegrees>-0.13459651730954647064208984375</LongitudeDegrees>
            </Position>
            <AltitudeMeters>2976.800048828125</AltitudeMeters>
            <DistanceMeters>16901.895089725</DistanceMeters>
          </Trackpoint>
          <Trackpoint>
            <Time>2022-07-09T14:12:40.000Z</Time>
            <Position>
              <LatitudeDegrees>42.7751386351883411407470703125</LatitudeDegrees>
              <LongitudeDegrees>-0.134582854807376861572265625</LongitudeDegrees>
            </Position>
            <AltitudeMeters>2976.39990234375</AltitudeMeters>
            <DistanceMeters>16903.886120503</DistanceMeters>
          </Trackpoint>
          <Trackpoint>
            <Time>2022-07-09T14:12:46.000Z</Time>
            <Position>
              <LatitudeDegrees>42.7751279063522815704345703125</LatitudeDegrees>
              <LongitudeDegrees>-0.1345471478998661041259765625</LongitudeDegrees>
            </Position>
            <AltitudeMeters>2975.800048828125</AltitudeMeters>
            <DistanceMeters>16907.037800069</DistanceMeters>
          </Trackpoint>
          <Trackpoint>
            <Time>2022-07-09T14:12:49.000Z</Time>
            <Position>
              <LatitudeDegrees>42.77511994354426860809326171875</LatitudeDegrees>
              <LongitudeDegrees>-0.1345505006611347198486328125</LongitudeDegrees>
            </Position>
            <AltitudeMeters>2975</AltitudeMeters>
            <DistanceMeters>16907.959118247</DistanceMeters>
          </Trackpoint>
          <Trackpoint>
            <Time>2022-07-09T14:12:53.000Z</Time>
            <Position>
              <LatitudeDegrees>42.77513444423675537109375</LatitudeDegrees>
              <LongitudeDegrees>-0.13455393724143505096435546875</LongitudeDegrees>
            </Position>
            <AltitudeMeters>2974.800048828125</AltitudeMeters>
            <DistanceMeters>16909.596778989</DistanceMeters>
          </Trackpoint>
          <Trackpoint>
            <Time>2022-07-09T14:12:56.000Z</Time>
            <Position>
              <LatitudeDegrees>42.7751460112631320953369140625</LatitudeDegrees>
              <LongitudeDegrees>-0.13457271270453929901123046875</LongitudeDegrees>
            </Position>
            <AltitudeMeters>2974.39990234375</AltitudeMeters>
            <DistanceMeters>16911.599116109</DistanceMeters>
          </Trackpoint>
          <Trackpoint>
            <Time>2022-07-09T14:12:59.000Z</Time>
            <Position>
              <LatitudeDegrees>42.7751560695469379425048828125</LatitudeDegrees>
              <LongitudeDegrees>-0.1345867104828357696533203125</LongitudeDegrees>
            </Position>
            <AltitudeMeters>2974</AltitudeMeters>
            <DistanceMeters>16913.200534764</DistanceMeters>
          </Trackpoint>
          <Trackpoint>
            <Time>2022-07-09T14:13:05.000Z</Time>
            <Position>
              <LatitudeDegrees>42.7751949615776538848876953125</LatitudeDegrees>
              <LongitudeDegrees>-0.134603977203369140625</LongitudeDegrees>
            </Position>
            <AltitudeMeters>2973.199951171875</AltitudeMeters>
            <DistanceMeters>16917.751907674</DistanceMeters>
          </Trackpoint>
          <Trackpoint>
            <Time>2022-07-09T14:13:07.000Z</Time>
            <Position>
              <LatitudeDegrees>42.77520258910953998565673828125</LatitudeDegrees>
              <LongitudeDegrees>-0.1345907337963581085205078125</LongitudeDegrees>
            </Position>
            <AltitudeMeters>2973</AltitudeMeters>
            <DistanceMeters>16919.125692947</DistanceMeters>
          </Trackpoint>
          <Trackpoint>
            <Time>2022-07-09T14:13:09.000Z</Time>
            <Position>
              <LatitudeDegrees>42.77519906871020793914794921875</LatitudeDegrees>
              <LongitudeDegrees>-0.13457556255161762237548828125</LongitudeDegrees>
            </Position>
            <AltitudeMeters>2972.800048828125</AltitudeMeters>
            <DistanceMeters>16920.425163722</DistanceMeters>
          </Trackpoint>
          <Trackpoint>
            <Time>2022-07-09T14:13:10.000Z</Time>
            <Position>
              <LatitudeDegrees>42.7752009965479373931884765625</LatitudeDegrees>
              <LongitudeDegrees>-0.13457707129418849945068359375</LongitudeDegrees>
            </Position>
            <AltitudeMeters>2972.60009765625</AltitudeMeters>
            <DistanceMeters>16920.693939858</DistanceMeters>
          </Trackpoint>
          <Trackpoint>
            <Time>2022-07-09T14:13:13.000Z</Time>
            <Position>
              <LatitudeDegrees>42.7752231247723102569580078125</LatitudeDegrees>
              <LongitudeDegrees>-0.134612359106540679931640625</LongitudeDegrees>
            </Position>
            <AltitudeMeters>2972.199951171875</AltitudeMeters>
            <DistanceMeters>16924.485493853</DistanceMeters>
          </Trackpoint>
          <Trackpoint>
            <Time>2022-07-09T14:13:15.000Z</Time>
            <Position>
              <LatitudeDegrees>42.775239385664463043212890625</LatitudeDegrees>
              <LongitudeDegrees>-0.13463306240737438201904296875</LongitudeDegrees>
            </Position>
            <AltitudeMeters>2971.199951171875</AltitudeMeters>
            <DistanceMeters>16926.961664669</DistanceMeters>
          </Trackpoint>
          <Trackpoint>
            <Time>2022-07-09T14:13:17.000Z</Time>
            <Position>
              <LatitudeDegrees>42.77524852193892002105712890625</LatitudeDegrees>
              <LongitudeDegrees>-0.13464647345244884490966796875</LongitudeDegrees>
            </Position>
            <AltitudeMeters>2970.60009765625</AltitudeMeters>
            <DistanceMeters>16928.458146863</DistanceMeters>
          </Trackpoint>
          <Trackpoint>
            <Time>2022-07-09T14:13:23.000Z</Time>
            <Position>
              <LatitudeDegrees>42.7752700634300708770751953125</LatitudeDegrees>
              <LongitudeDegrees>-0.13458427973091602325439453125</LongitudeDegrees>
            </Position>
            <AltitudeMeters>2970</AltitudeMeters>
            <DistanceMeters>16934.075986054</DistanceMeters>
          </Trackpoint>
          <Trackpoint>
            <Time>2022-07-09T14:13:29.000Z</Time>
            <Position>
              <LatitudeDegrees>42.77527886442840099334716796875</LatitudeDegrees>
              <LongitudeDegrees>-0.13457489199936389923095703125</LongitudeDegrees>
            </Position>
            <AltitudeMeters>2969.800048828125</AltitudeMeters>
            <DistanceMeters>16935.322249729</DistanceMeters>
          </Trackpoint>
          <Trackpoint>
            <Time>2022-07-09T14:13:34.000Z</Time>
            <Position>
              <LatitudeDegrees>42.77529663406312465667724609375</LatitudeDegrees>
              <LongitudeDegrees>-0.13459282927215099334716796875</LongitudeDegrees>
            </Position>
            <AltitudeMeters>2969.39990234375</AltitudeMeters>
            <DistanceMeters>16937.78562371</DistanceMeters>
          </Trackpoint>
          <Trackpoint>
            <Time>2022-07-09T14:13:36.000Z</Time>
            <Position>
              <LatitudeDegrees>42.77530820108950138092041015625</LatitudeDegrees>
              <LongitudeDegrees>-0.13459819369018077850341796875</LongitudeDegrees>
            </Position>
            <AltitudeMeters>2969.39990234375</AltitudeMeters>
            <DistanceMeters>16939.142876669</DistanceMeters>
          </Trackpoint>
          <Trackpoint>
            <Time>2022-07-09T14:13:38.000Z</Time>
            <Position>
              <LatitudeDegrees>42.77531574480235576629638671875</LatitudeDegrees>
              <LongitudeDegrees>-0.134596936404705047607421875</LongitudeDegrees>
            </Position>
            <AltitudeMeters>2969.199951171875</AltitudeMeters>
            <DistanceMeters>16939.982129886</DistanceMeters>
          </Trackpoint>
          <Trackpoint>
            <Time>2022-07-09T14:13:39.000Z</Time>
            <Position>
              <LatitudeDegrees>42.7753260545432567596435546875</LatitudeDegrees>
              <LongitudeDegrees>-0.13460255227982997894287109375</LongitudeDegrees>
            </Position>
            <AltitudeMeters>2968.800048828125</AltitudeMeters>
            <DistanceMeters>16941.213816877</DistanceMeters>
          </Trackpoint>
          <Trackpoint>
            <Time>2022-07-09T14:13:42.000Z</Time>
            <Position>
              <LatitudeDegrees>42.77534357272088527679443359375</LatitudeDegrees>
              <LongitudeDegrees>-0.134603641927242279052734375</LongitudeDegrees>
            </Position>
            <AltitudeMeters>2968</AltitudeMeters>
            <DistanceMeters>16943.165916326</DistanceMeters>
          </Trackpoint>
          <Trackpoint>
            <Time>2022-07-09T14:13:44.000Z</Time>
            <Position>
              <LatitudeDegrees>42.7753525413572788238525390625</LatitudeDegrees>
              <LongitudeDegrees>-0.13460657559335231781005859375</LongitudeDegrees>
            </Position>
            <AltitudeMeters>2967.800048828125</AltitudeMeters>
            <DistanceMeters>16944.189385362</DistanceMeters>
          </Trackpoint>
          <Trackpoint>
            <Time>2022-07-09T14:13:45.000Z</Time>
            <Position>
              <LatitudeDegrees>42.77536042034626007080078125</LatitudeDegrees>
              <LongitudeDegrees>-0.13460707850754261016845703125</LongitudeDegrees>
            </Position>
            <AltitudeMeters>2967.60009765625</AltitudeMeters>
            <DistanceMeters>16945.070626858</DistanceMeters>
          </Trackpoint>
          <Trackpoint>
            <Time>2022-07-09T14:13:48.000Z</Time>
            <Position>
              <LatitudeDegrees>42.77537324465811252593994140625</LatitudeDegrees>
              <LongitudeDegrees>-0.13458914123475551605224609375</LongitudeDegrees>
            </Position>
            <AltitudeMeters>2967</AltitudeMeters>
            <DistanceMeters>16947.117564929</DistanceMeters>
          </Trackpoint>
          <Trackpoint>
            <Time>2022-07-09T14:13:50.000Z</Time>
            <Position>
              <LatitudeDegrees>42.77537944726645946502685546875</LatitudeDegrees>
              <LongitudeDegrees>-0.13457640074193477630615234375</LongitudeDegrees>
            </Position>
            <AltitudeMeters>2966.60009765625</AltitudeMeters>
            <DistanceMeters>16948.367446214</DistanceMeters>
          </Trackpoint>
          <Trackpoint>
            <Time>2022-07-09T14:13:53.000Z</Time>
            <Position>
              <LatitudeDegrees>42.77537114918231964111328125</LatitudeDegrees>
              <LongitudeDegrees>-0.134542286396026611328125</LongitudeDegrees>
            </Position>
            <AltitudeMeters>2966</AltitudeMeters>
            <DistanceMeters>16951.302525928</DistanceMeters>
          </Trackpoint>
          <Trackpoint>
            <Time>2022-07-09T14:13:57.000Z</Time>
            <Position>
              <LatitudeDegrees>42.77537341229617595672607421875</LatitudeDegrees>
              <LongitudeDegrees>-0.13450674712657928466796875</LongitudeDegrees>
            </Position>
            <AltitudeMeters>2965.39990234375</AltitudeMeters>
            <DistanceMeters>16954.219087604</DistanceMeters>
          </Trackpoint>
          <Trackpoint>
            <Time>2022-07-09T14:14:00.000Z</Time>
            <Position>
              <LatitudeDegrees>42.77536435984075069427490234375</LatitudeDegrees>
              <LongitudeDegrees>-0.13448487035930156707763671875</LongitudeDegrees>
            </Position>
            <AltitudeMeters>2965</AltitudeMeters>
            <DistanceMeters>16956.270432437</DistanceMeters>
          </Trackpoint>
          <Trackpoint>
            <Time>2022-07-09T14:14:03.000Z</Time>
            <Position>
              <LatitudeDegrees>42.7753605879843235015869140625</LatitudeDegrees>
              <LongitudeDegrees>-0.13447531498968601226806640625</LongitudeDegrees>
            </Position>
            <AltitudeMeters>2964.199951171875</AltitudeMeters>
            <DistanceMeters>16957.156782622</DistanceMeters>
          </Trackpoint>
          <Trackpoint>
            <Time>2022-07-09T14:14:06.000Z</Time>
            <Position>
              <LatitudeDegrees>42.77536578476428985595703125</LatitudeDegrees>
              <LongitudeDegrees>-0.13447045348584651947021484375</LongitudeDegrees>
            </Position>
            <AltitudeMeters>2963.800048828125</AltitudeMeters>
            <DistanceMeters>16957.855083508</DistanceMeters>
          </Trackpoint>
          <Trackpoint>
            <Time>2022-07-09T14:14:10.000Z</Time>
            <Position>
              <LatitudeDegrees>42.7753558941185474395751953125</LatitudeDegrees>
              <LongitudeDegrees>-0.13444933108985424041748046875</LongitudeDegrees>
            </Position>
            <AltitudeMeters>2963.199951171875</AltitudeMeters>
            <DistanceMeters>16959.90202158</DistanceMeters>
          </Trackpoint>
          <Trackpoint>
            <Time>2022-07-09T14:14:11.000Z</Time>
            <Position>
              <LatitudeDegrees>42.7753495238721370697021484375</LatitudeDegrees>
              <LongitudeDegrees>-0.13444840908050537109375</LongitudeDegrees>
            </Position>
            <AltitudeMeters>2963</AltitudeMeters>
            <DistanceMeters>16960.625723476</DistanceMeters>
          </Trackpoint>
          <Trackpoint>
            <Time>2022-07-09T14:14:13.000Z</Time>
            <Position>
              <LatitudeDegrees>42.775349356234073638916015625</LatitudeDegrees>
              <LongitudeDegrees>-0.13444849289953708648681640625</LongitudeDegrees>
            </Position>
            <AltitudeMeters>2962.60009765625</AltitudeMeters>
            <DistanceMeters>16960.625723476</DistanceMeters>
          </Trackpoint>
          <Trackpoint>
            <Time>2022-07-09T14:14:15.000Z</Time>
            <Position>
              <LatitudeDegrees>42.77535312809050083160400390625</LatitudeDegrees>
              <LongitudeDegrees>-0.1344417035579681396484375</LongitudeDegrees>
            </Position>
            <AltitudeMeters>2962.199951171875</AltitudeMeters>
            <DistanceMeters>16961.324024362</DistanceMeters>
          </Trackpoint>
          <Trackpoint>
            <Time>2022-07-09T14:14:17.000Z</Time>
            <Position>
              <LatitudeDegrees>42.7753525413572788238525390625</LatitudeDegrees>
              <LongitudeDegrees>-0.13444111682474613189697265625</LongitudeDegrees>
            </Position>
            <AltitudeMeters>2962</AltitudeMeters>
            <DistanceMeters>16961.419051076</DistanceMeters>
          </Trackpoint>
          <Trackpoint>
            <Time>2022-07-09T14:14:20.000Z</Time>
            <Position>
              <LatitudeDegrees>42.7753528766334056854248046875</LatitudeDegrees>
              <LongitudeDegrees>-0.1344287954270839691162109375</LongitudeDegrees>
            </Position>
            <AltitudeMeters>2961.800048828125</AltitudeMeters>
            <DistanceMeters>16962.424719293</DistanceMeters>
          </Trackpoint>
          <Trackpoint>
            <Time>2022-07-09T14:14:22.000Z</Time>
            <Position>
              <LatitudeDegrees>42.77535765431821346282958984375</LatitudeDegrees>
              <LongitudeDegrees>-0.1344130374491214752197265625</LongitudeDegrees>
            </Position>
            <AltitudeMeters>2961.60009765625</AltitudeMeters>
            <DistanceMeters>16963.821321066</DistanceMeters>
          </Trackpoint>
          <Trackpoint>
            <Time>2022-07-09T14:14:23.000Z</Time>
            <Position>
              <LatitudeDegrees>42.77535765431821346282958984375</LatitudeDegrees>
              <LongitudeDegrees>-0.134408175945281982421875</LongitudeDegrees>
            </Position>
            <AltitudeMeters>2961.39990234375</AltitudeMeters>
            <DistanceMeters>16964.22448527</DistanceMeters>
          </Trackpoint>
          <Trackpoint>
            <Time>2022-07-09T14:14:27.000Z</Time>
            <Position>
              <LatitudeDegrees>42.77538062073290348052978515625</LatitudeDegrees>
              <LongitudeDegrees>-0.13441965915262699127197265625</LongitudeDegrees>
            </Position>
            <AltitudeMeters>2961</AltitudeMeters>
            <DistanceMeters>16966.948952711</DistanceMeters>
          </Trackpoint>
          <Trackpoint>
            <Time>2022-07-09T14:14:28.000Z</Time>
            <Position>
              <LatitudeDegrees>42.7753853984177112579345703125</LatitudeDegrees>
              <LongitudeDegrees>-0.13441815041005611419677734375</LongitudeDegrees>
            </Position>
            <AltitudeMeters>2961</AltitudeMeters>
            <DistanceMeters>16967.503048912</DistanceMeters>
          </Trackpoint>
          <Trackpoint>
            <Time>2022-07-09T14:14:31.000Z</Time>
            <Position>
              <LatitudeDegrees>42.7753910981118679046630859375</LatitudeDegrees>
              <LongitudeDegrees>-0.134374313056468963623046875</LongitudeDegrees>
            </Position>
            <AltitudeMeters>2960.199951171875</AltitudeMeters>
            <DistanceMeters>16971.138985093</DistanceMeters>
          </Trackpoint>
          <Trackpoint>
            <Time>2022-07-09T14:14:32.000Z</Time>
            <Position>
              <LatitudeDegrees>42.7753894217312335968017578125</LatitudeDegrees>
              <LongitudeDegrees>-0.13436115346848964691162109375</LongitudeDegrees>
            </Position>
            <AltitudeMeters>2960</AltitudeMeters>
            <DistanceMeters>16972.23075892</DistanceMeters>
          </Trackpoint>
          <Trackpoint>
            <Time>2022-07-09T14:14:36.000Z</Time>
            <Position>
              <LatitudeDegrees>42.7753771841526031494140625</LatitudeDegrees>
              <LongitudeDegrees>-0.13430264778435230255126953125</LongitudeDegrees>
            </Position>
            <AltitudeMeters>2959.60009765625</AltitudeMeters>
            <DistanceMeters>16977.201301059</DistanceMeters>
          </Trackpoint>
          <Trackpoint>
            <Time>2022-07-09T14:14:39.000Z</Time>
            <Position>
              <LatitudeDegrees>42.77537458576261997222900390625</LatitudeDegrees>
              <LongitudeDegrees>-0.1342782564461231231689453125</LongitudeDegrees>
            </Position>
            <AltitudeMeters>2958.800048828125</AltitudeMeters>
            <DistanceMeters>16979.214881036</DistanceMeters>
          </Trackpoint>
          <Trackpoint>
            <Time>2022-07-09T14:14:45.000Z</Time>
            <Position>
              <LatitudeDegrees>42.77536687441170215606689453125</LatitudeDegrees>
              <LongitudeDegrees>-0.13427473604679107666015625</LongitudeDegrees>
            </Position>
            <AltitudeMeters>2957.800048828125</AltitudeMeters>
            <DistanceMeters>16980.116383604</DistanceMeters>
          </Trackpoint>
          <Trackpoint>
            <Time>2022-07-09T14:14:46.000Z</Time>
            <Position>
              <LatitudeDegrees>42.7753719873726367950439453125</LatitudeDegrees>
              <LongitudeDegrees>-0.134283788502216339111328125</LongitudeDegrees>
            </Position>
            <AltitudeMeters>2957.800048828125</AltitudeMeters>
            <DistanceMeters>16981.047451452</DistanceMeters>
          </Trackpoint>
          <Trackpoint>
            <Time>2022-07-09T14:14:52.000Z</Time>
            <Position>
              <LatitudeDegrees>42.7754093706607818603515625</LatitudeDegrees>
              <LongitudeDegrees>-0.134293176233768463134765625</LongitudeDegrees>
            </Position>
            <AltitudeMeters>2956.800048828125</AltitudeMeters>
            <DistanceMeters>16985.278008332</DistanceMeters>
          </Trackpoint>
          <Trackpoint>
            <Time>2022-07-09T14:14:53.000Z</Time>
            <Position>
              <LatitudeDegrees>42.775413058698177337646484375</LatitudeDegrees>
              <LongitudeDegrees>-0.13428546488285064697265625</LongitudeDegrees>
            </Position>
            <AltitudeMeters>2956.60009765625</AltitudeMeters>
            <DistanceMeters>16986.026249429</DistanceMeters>
          </Trackpoint>
          <Trackpoint>
            <Time>2022-07-09T14:14:58.000Z</Time>
            <Position>
              <LatitudeDegrees>42.77539663016796112060546875</LatitudeDegrees>
              <LongitudeDegrees>-0.13420172967016696929931640625</LongitudeDegrees>
            </Position>
            <AltitudeMeters>2956</AltitudeMeters>
            <DistanceMeters>16993.106855647</DistanceMeters>
          </Trackpoint>
          <Trackpoint>
            <Time>2022-07-09T14:15:00.000Z</Time>
            <Position>
              <LatitudeDegrees>42.775383889675140380859375</LatitudeDegrees>
              <LongitudeDegrees>-0.1341880671679973602294921875</LongitudeDegrees>
            </Position>
            <AltitudeMeters>2955.60009765625</AltitudeMeters>
            <DistanceMeters>16994.909860783</DistanceMeters>
          </Trackpoint>
          <Trackpoint>
            <Time>2022-07-09T14:15:05.000Z</Time>
            <Position>
              <LatitudeDegrees>42.775394618511199951171875</LatitudeDegrees>
              <LongitudeDegrees>-0.1341699622571468353271484375</LongitudeDegrees>
            </Position>
            <AltitudeMeters>2954.60009765625</AltitudeMeters>
            <DistanceMeters>16996.810395071</DistanceMeters>
          </Trackpoint>
          <Trackpoint>
            <Time>2022-07-09T14:15:06.000Z</Time>
            <Position>
              <LatitudeDegrees>42.7753971330821514129638671875</LatitudeDegrees>
              <LongitudeDegrees>-0.134161747992038726806640625</LongitudeDegrees>
            </Position>
            <AltitudeMeters>2954.39990234375</AltitudeMeters>
            <DistanceMeters>16997.534096966</DistanceMeters>
          </Trackpoint>
          <Trackpoint>
            <Time>2022-07-09T14:15:11.000Z</Time>
            <Position>
              <LatitudeDegrees>42.77539931237697601318359375</LatitudeDegrees>
              <LongitudeDegrees>-0.13414892368018627166748046875</LongitudeDegrees>
            </Position>
            <AltitudeMeters>2953.39990234375</AltitudeMeters>
            <DistanceMeters>16998.609201512</DistanceMeters>
          </Trackpoint>
          <Trackpoint>
            <Time>2022-07-09T14:15:15.000Z</Time>
            <Position>
              <LatitudeDegrees>42.77541532181203365325927734375</LatitudeDegrees>
              <LongitudeDegrees>-0.134161747992038726806640625</LongitudeDegrees>
            </Position>
            <AltitudeMeters>2952.39990234375</AltitudeMeters>
            <DistanceMeters>17000.678079526</DistanceMeters>
          </Trackpoint>
          <Trackpoint>
            <Time>2022-07-09T14:15:17.000Z</Time>
            <Position>
              <LatitudeDegrees>42.7754226140677928924560546875</LatitudeDegrees>
              <LongitudeDegrees>-0.13414540328085422515869140625</LongitudeDegrees>
            </Position>
            <AltitudeMeters>2952</AltitudeMeters>
            <DistanceMeters>17002.239527776</DistanceMeters>
          </Trackpoint>
          <Trackpoint>
            <Time>2022-07-09T14:15:18.000Z</Time>
            <Position>
              <LatitudeDegrees>42.77542454190552234649658203125</LatitudeDegrees>
              <LongitudeDegrees>-0.134132914245128631591796875</LongitudeDegrees>
            </Position>
            <AltitudeMeters>2951.800048828125</AltitudeMeters>
            <DistanceMeters>17003.280493277</DistanceMeters>
          </Trackpoint>
          <Trackpoint>
            <Time>2022-07-09T14:15:19.000Z</Time>
            <Position>
              <LatitudeDegrees>42.77542479336261749267578125</LatitudeDegrees>
              <LongitudeDegrees>-0.13412528671324253082275390625</LongitudeDegrees>
            </Position>
            <AltitudeMeters>2951.60009765625</AltitudeMeters>
            <DistanceMeters>17003.91082919</DistanceMeters>
          </Trackpoint>
          <Trackpoint>
            <Time>2022-07-09T14:15:20.000Z</Time>
            <Position>
              <LatitudeDegrees>42.7754276432096958160400390625</LatitudeDegrees>
              <LongitudeDegrees>-0.13412159867584705352783203125</LongitudeDegrees>
            </Position>
            <AltitudeMeters>2951.39990234375</AltitudeMeters>
            <DistanceMeters>17004.335801576</DistanceMeters>
          </Trackpoint>
          <Trackpoint>
            <Time>2022-07-09T14:15:22.000Z</Time>
            <Position>
              <LatitudeDegrees>42.775441221892833709716796875</LatitudeDegrees>
              <LongitudeDegrees>-0.13412595726549625396728515625</LongitudeDegrees>
            </Position>
            <AltitudeMeters>2951.199951171875</AltitudeMeters>
            <DistanceMeters>17005.885640385</DistanceMeters>
          </Trackpoint>
          <Trackpoint>
            <Time>2022-07-09T14:15:23.000Z</Time>
            <Position>
              <LatitudeDegrees>42.7754494361579418182373046875</LatitudeDegrees>
              <LongitudeDegrees>-0.13412729837000370025634765625</LongitudeDegrees>
            </Position>
            <AltitudeMeters>2951.199951171875</AltitudeMeters>
            <DistanceMeters>17006.802044832</DistanceMeters>
          </Trackpoint>
          <Trackpoint>
            <Time>2022-07-09T14:15:28.000Z</Time>
            <Position>
              <LatitudeDegrees>42.7754799462854862213134765625</LatitudeDegrees>
              <LongitudeDegrees>-0.13410449959337711334228515625</LongitudeDegrees>
            </Position>
            <AltitudeMeters>2950.199951171875</AltitudeMeters>
            <DistanceMeters>17010.674893521</DistanceMeters>
          </Trackpoint>
          <Trackpoint>
            <Time>2022-07-09T14:15:29.000Z</Time>
            <Position>
              <LatitudeDegrees>42.7754886634647846221923828125</LatitudeDegrees>
              <LongitudeDegrees>-0.13410382904112339019775390625</LongitudeDegrees>
            </Position>
            <AltitudeMeters>2950</AltitudeMeters>
            <DistanceMeters>17011.643979663</DistanceMeters>
          </Trackpoint>
          <Trackpoint>
            <Time>2022-07-09T14:15:33.000Z</Time>
            <Position>
              <LatitudeDegrees>42.7755124680697917938232421875</LatitudeDegrees>
              <LongitudeDegrees>-0.13408907689154148101806640625</LongitudeDegrees>
            </Position>
            <AltitudeMeters>2949.199951171875</AltitudeMeters>
            <DistanceMeters>17014.554342476</DistanceMeters>
          </Trackpoint>
          <Trackpoint>
            <Time>2022-07-09T14:15:37.000Z</Time>
            <Position>
              <LatitudeDegrees>42.77553786523640155792236328125</LatitudeDegrees>
              <LongitudeDegrees>-0.134085305035114288330078125</LongitudeDegrees>
            </Position>
            <AltitudeMeters>2948.199951171875</AltitudeMeters>
            <DistanceMeters>17017.398801738</DistanceMeters>
          </Trackpoint>
          <Trackpoint>
            <Time>2022-07-09T14:15:38.000Z</Time>
            <Position>
              <LatitudeDegrees>42.7755480073392391204833984375</LatitudeDegrees>
              <LongitudeDegrees>-0.13408706523478031158447265625</LongitudeDegrees>
            </Position>
            <AltitudeMeters>2948</AltitudeMeters>
            <DistanceMeters>17018.535155966</DistanceMeters>
          </Trackpoint>
          <Trackpoint>
            <Time>2022-07-09T14:15:42.000Z</Time>
            <Position>
              <LatitudeDegrees>42.77557776309549808502197265625</LatitudeDegrees>
              <LongitudeDegrees>-0.1341092772781848907470703125</LongitudeDegrees>
            </Position>
            <AltitudeMeters>2947</AltitudeMeters>
            <DistanceMeters>17022.312393155</DistanceMeters>
          </Trackpoint>
          <Trackpoint>
            <Time>2022-07-09T14:15:47.000Z</Time>
            <Position>
              <LatitudeDegrees>42.7755892463028430938720703125</LatitudeDegrees>
              <LongitudeDegrees>-0.134061835706233978271484375</LongitudeDegrees>
            </Position>
            <AltitudeMeters>2946.199951171875</AltitudeMeters>
            <DistanceMeters>17026.394119633</DistanceMeters>
          </Trackpoint>
          <Trackpoint>
            <Time>2022-07-09T14:15:48.000Z</Time>
            <Position>
              <LatitudeDegrees>42.775588072836399078369140625</LatitudeDegrees>
              <LongitudeDegrees>-0.1340552978217601776123046875</LongitudeDegrees>
            </Position>
            <AltitudeMeters>2945.800048828125</AltitudeMeters>
            <DistanceMeters>17026.948215833</DistanceMeters>
          </Trackpoint>
          <Trackpoint>
            <Time>2022-07-09T14:15:53.000Z</Time>
            <Position>
              <LatitudeDegrees>42.77559536509215831756591796875</LatitudeDegrees>
              <LongitudeDegrees>-0.13404414989054203033447265625</LongitudeDegrees>
            </Position>
            <AltitudeMeters>2944.60009765625</AltitudeMeters>
            <DistanceMeters>17028.172549403</DistanceMeters>
          </Trackpoint>
          <Trackpoint>
            <Time>2022-07-09T14:15:54.000Z</Time>
            <Position>
              <LatitudeDegrees>42.7755982987582683563232421875</LatitudeDegrees>
              <LongitudeDegrees>-0.13402654789388179779052734375</LongitudeDegrees>
            </Position>
            <AltitudeMeters>2944.60009765625</AltitudeMeters>
            <DistanceMeters>17029.650818154</DistanceMeters>
          </Trackpoint>
          <Trackpoint>
            <Time>2022-07-09T14:15:58.000Z</Time>
            <Position>
              <LatitudeDegrees>42.7755738236010074615478515625</LatitudeDegrees>
              <LongitudeDegrees>-0.1339825429022312164306640625</LongitudeDegrees>
            </Position>
            <AltitudeMeters>2943.60009765625</AltitudeMeters>
            <DistanceMeters>17034.162335892</DistanceMeters>
          </Trackpoint>
          <Trackpoint>
            <Time>2022-07-09T14:15:59.000Z</Time>
            <Position>
              <LatitudeDegrees>42.7755796909332275390625</LatitudeDegrees>
              <LongitudeDegrees>-0.13397541828453540802001953125</LongitudeDegrees>
            </Position>
            <AltitudeMeters>2943.39990234375</AltitudeMeters>
            <DistanceMeters>17035.03843891</DistanceMeters>
          </Trackpoint>
          <Trackpoint>
            <Time>2022-07-09T14:16:01.000Z</Time>
            <Position>
              <LatitudeDegrees>42.775591425597667694091796875</LatitudeDegrees>
              <LongitudeDegrees>-0.13398639857769012451171875</LongitudeDegrees>
            </Position>
            <AltitudeMeters>2942.60009765625</AltitudeMeters>
            <DistanceMeters>17036.622850867</DistanceMeters>
          </Trackpoint>
          <Trackpoint>
            <Time>2022-07-09T14:16:04.000Z</Time>
            <Position>
              <LatitudeDegrees>42.775606848299503326416015625</LatitudeDegrees>
              <LongitudeDegrees>-0.13399033807218074798583984375</LongitudeDegrees>
            </Position>
            <AltitudeMeters>2941.39990234375</AltitudeMeters>
            <DistanceMeters>17038.369895755</DistanceMeters>
          </Trackpoint>
          <Trackpoint>
            <Time>2022-07-09T14:16:06.000Z</Time>
            <Position>
              <LatitudeDegrees>42.77561849914491176605224609375</LatitudeDegrees>
              <LongitudeDegrees>-0.133986063301563262939453125</LongitudeDegrees>
            </Position>
            <AltitudeMeters>2940.800048828125</AltitudeMeters>
            <DistanceMeters>17039.707040151</DistanceMeters>
          </Trackpoint>
          <Trackpoint>
            <Time>2022-07-09T14:16:10.000Z</Time>
            <Position>
              <LatitudeDegrees>42.77563660405576229095458984375</LatitudeDegrees>
              <LongitudeDegrees>-0.13398966751992702484130859375</LongitudeDegrees>
            </Position>
            <AltitudeMeters>2940.39990234375</AltitudeMeters>
            <DistanceMeters>17041.745136116</DistanceMeters>
          </Trackpoint>
          <Trackpoint>
            <Time>2022-07-09T14:16:14.000Z</Time>
            <Position>
              <LatitudeDegrees>42.775667868554592132568359375</LatitudeDegrees>
              <LongitudeDegrees>-0.1339999772608280181884765625</LongitudeDegrees>
            </Position>
            <AltitudeMeters>2939.199951171875</AltitudeMeters>
            <DistanceMeters>17045.32601709</DistanceMeters>
          </Trackpoint>
          <Trackpoint>
            <Time>2022-07-09T14:16:18.000Z</Time>
            <Position>
              <LatitudeDegrees>42.77569225989282131195068359375</LatitudeDegrees>
              <LongitudeDegrees>-0.13399176299571990966796875</LongitudeDegrees>
            </Position>
            <AltitudeMeters>2938</AltitudeMeters>
            <DistanceMeters>17048.122451642</DistanceMeters>
          </Trackpoint>
          <Trackpoint>
            <Time>2022-07-09T14:16:19.000Z</Time>
            <Position>
              <LatitudeDegrees>42.7756975404918193817138671875</LatitudeDegrees>
              <LongitudeDegrees>-0.1339765079319477081298828125</LongitudeDegrees>
            </Position>
            <AltitudeMeters>2937.39990234375</AltitudeMeters>
            <DistanceMeters>17049.499519561</DistanceMeters>
          </Trackpoint>
          <Trackpoint>
            <Time>2022-07-09T14:16:21.000Z</Time>
            <Position>
              <LatitudeDegrees>42.77569645084440708160400390625</LatitudeDegrees>
              <LongitudeDegrees>-0.13393719680607318878173828125</LongitudeDegrees>
            </Position>
            <AltitudeMeters>2936.800048828125</AltitudeMeters>
            <DistanceMeters>17052.713614682</DistanceMeters>
          </Trackpoint>
          <Trackpoint>
            <Time>2022-07-09T14:16:25.000Z</Time>
            <Position>
              <LatitudeDegrees>42.77568572200834751129150390625</LatitudeDegrees>
              <LongitudeDegrees>-0.13390316627919673919677734375</LongitudeDegrees>
            </Position>
            <AltitudeMeters>2936.39990234375</AltitudeMeters>
            <DistanceMeters>17055.73958519</DistanceMeters>
          </Trackpoint>
          <Trackpoint>
            <Time>2022-07-09T14:16:28.000Z</Time>
            <Position>
              <LatitudeDegrees>42.7756787650287151336669921875</LatitudeDegrees>
              <LongitudeDegrees>-0.13386863283812999725341796875</LongitudeDegrees>
            </Position>
            <AltitudeMeters>2935.800048828125</AltitudeMeters>
            <DistanceMeters>17058.663876966</DistanceMeters>
          </Trackpoint>
          <Trackpoint>
            <Time>2022-07-09T14:16:32.000Z</Time>
            <Position>
              <LatitudeDegrees>42.77566845528781414031982421875</LatitudeDegrees>
              <LongitudeDegrees>-0.133842565119266510009765625</LongitudeDegrees>
            </Position>
            <AltitudeMeters>2935</AltitudeMeters>
            <DistanceMeters>17061.080994973</DistanceMeters>
          </Trackpoint>
          <Trackpoint>
            <Time>2022-07-09T14:16:34.000Z</Time>
            <Position>
              <LatitudeDegrees>42.77566309086978435516357421875</LatitudeDegrees>
              <LongitudeDegrees>-0.1338269747793674468994140625</LongitudeDegrees>
            </Position>
            <AltitudeMeters>2934.800048828125</AltitudeMeters>
            <DistanceMeters>17062.487261926</DistanceMeters>
          </Trackpoint>
          <Trackpoint>
            <Time>2022-07-09T14:16:35.000Z</Time>
            <Position>
              <LatitudeDegrees>42.775661163032054901123046875</LatitudeDegrees>
              <LongitudeDegrees>-0.13382186181843280792236328125</LongitudeDegrees>
            </Position>
            <AltitudeMeters>2934.800048828125</AltitudeMeters>
            <DistanceMeters>17062.95279585</DistanceMeters>
          </Trackpoint>
          <Trackpoint>
            <Time>2022-07-09T14:16:37.000Z</Time>
            <Position>
              <LatitudeDegrees>42.77566191740334033966064453125</LatitudeDegrees>
              <LongitudeDegrees>-0.13381498865783214569091796875</LongitudeDegrees>
            </Position>
            <AltitudeMeters>2934.39990234375</AltitudeMeters>
            <DistanceMeters>17063.522956136</DistanceMeters>
          </Trackpoint>
          <Trackpoint>
            <Time>2022-07-09T14:16:39.000Z</Time>
            <Position>
              <LatitudeDegrees>42.775653116405010223388671875</LatitudeDegrees>
              <LongitudeDegrees>-0.133793614804744720458984375</LongitudeDegrees>
            </Position>
            <AltitudeMeters>2934</AltitudeMeters>
            <DistanceMeters>17065.525293256</DistanceMeters>
          </Trackpoint>
          <Trackpoint>
            <Time>2022-07-09T14:16:40.000Z</Time>
            <Position>
              <LatitudeDegrees>42.775649093091487884521484375</LatitudeDegrees>
              <LongitudeDegrees>-0.133784227073192596435546875</LongitudeDegrees>
            </Position>
            <AltitudeMeters>2933.60009765625</AltitudeMeters>
            <DistanceMeters>17066.411643441</DistanceMeters>
          </Trackpoint>
          <Trackpoint>
            <Time>2022-07-09T14:16:42.000Z</Time>
            <Position>
              <LatitudeDegrees>42.77564548887312412261962890625</LatitudeDegrees>
              <LongitudeDegrees>-0.13376377522945404052734375</LongitudeDegrees>
            </Position>
            <AltitudeMeters>2933.39990234375</AltitudeMeters>
            <DistanceMeters>17068.12739544</DistanceMeters>
          </Trackpoint>
          <Trackpoint>
            <Time>2022-07-09T14:16:44.000Z</Time>
            <Position>
              <LatitudeDegrees>42.77563937008380889892578125</LatitudeDegrees>
              <LongitudeDegrees>-0.13375128619372844696044921875</LongitudeDegrees>
            </Position>
            <AltitudeMeters>2933.199951171875</AltitudeMeters>
            <DistanceMeters>17069.351729009</DistanceMeters>
          </Trackpoint>
          <Trackpoint>
            <Time>2022-07-09T14:16:46.000Z</Time>
            <Position>
              <LatitudeDegrees>42.77563861571252346038818359375</LatitudeDegrees>
              <LongitudeDegrees>-0.13373519293963909149169921875</LongitudeDegrees>
            </Position>
            <AltitudeMeters>2932.60009765625</AltitudeMeters>
            <DistanceMeters>17070.668457788</DistanceMeters>
          </Trackpoint>
          <Trackpoint>
            <Time>2022-07-09T14:16:48.000Z</Time>
            <Position>
              <LatitudeDegrees>42.77563677169382572174072265625</LatitudeDegrees>
              <LongitudeDegrees>-0.13372630812227725982666015625</LongitudeDegrees>
            </Position>
            <AltitudeMeters>2932.39990234375</AltitudeMeters>
            <DistanceMeters>17071.422708951</DistanceMeters>
          </Trackpoint>
          <Trackpoint>
            <Time>2022-07-09T14:16:51.000Z</Time>
            <Position>
              <LatitudeDegrees>42.77564071118831634521484375</LatitudeDegrees>
              <LongitudeDegrees>-0.1337121427059173583984375</LongitudeDegrees>
            </Position>
            <AltitudeMeters>2931.60009765625</AltitudeMeters>
            <DistanceMeters>17072.66170572</DistanceMeters>
          </Trackpoint>
          <Trackpoint>
            <Time>2022-07-09T14:16:55.000Z</Time>
            <Position>
              <LatitudeDegrees>42.77566242031753063201904296875</LatitudeDegrees>
              <LongitudeDegrees>-0.13371775858104228973388671875</LongitudeDegrees>
            </Position>
            <AltitudeMeters>2931</AltitudeMeters>
            <DistanceMeters>17075.119574948</DistanceMeters>
          </Trackpoint>
          <Trackpoint>
            <Time>2022-07-09T14:16:58.000Z</Time>
            <Position>
              <LatitudeDegrees>42.77567717246711254119873046875</LatitudeDegrees>
              <LongitudeDegrees>-0.1337180100381374359130859375</LongitudeDegrees>
            </Position>
            <AltitudeMeters>2930.39990234375</AltitudeMeters>
            <DistanceMeters>17076.762740447</DistanceMeters>
          </Trackpoint>
          <Trackpoint>
            <Time>2022-07-09T14:17:01.000Z</Time>
            <Position>
              <LatitudeDegrees>42.77569293044507503509521484375</LatitudeDegrees>
              <LongitudeDegrees>-0.1337052695453166961669921875</LongitudeDegrees>
            </Position>
            <AltitudeMeters>2929.39990234375</AltitudeMeters>
            <DistanceMeters>17078.803050531</DistanceMeters>
          </Trackpoint>
          <Trackpoint>
            <Time>2022-07-09T14:17:06.000Z</Time>
            <Position>
              <LatitudeDegrees>42.77567482553422451019287109375</LatitudeDegrees>
              <LongitudeDegrees>-0.133650787174701690673828125</LongitudeDegrees>
            </Position>
            <AltitudeMeters>2928.199951171875</AltitudeMeters>
            <DistanceMeters>17083.68930903</DistanceMeters>
          </Trackpoint>
          <Trackpoint>
            <Time>2022-07-09T14:17:07.000Z</Time>
            <Position>
              <LatitudeDegrees>42.77567281387746334075927734375</LatitudeDegrees>
              <LongitudeDegrees>-0.13363896869122982025146484375</LongitudeDegrees>
            </Position>
            <AltitudeMeters>2928</AltitudeMeters>
            <DistanceMeters>17084.676855614</DistanceMeters>
          </Trackpoint>
          <Trackpoint>
            <Time>2022-07-09T14:17:12.000Z</Time>
            <Position>
              <LatitudeDegrees>42.775657810270786285400390625</LatitudeDegrees>
              <LongitudeDegrees>-0.133601836860179901123046875</LongitudeDegrees>
            </Position>
            <AltitudeMeters>2926.800048828125</AltitudeMeters>
            <DistanceMeters>17088.139793893</DistanceMeters>
          </Trackpoint>
          <Trackpoint>
            <Time>2022-07-09T14:17:13.000Z</Time>
            <Position>
              <LatitudeDegrees>42.7756566368043422698974609375</LatitudeDegrees>
              <LongitudeDegrees>-0.1335959695279598236083984375</LongitudeDegrees>
            </Position>
            <AltitudeMeters>2926.60009765625</AltitudeMeters>
            <DistanceMeters>17088.633567185</DistanceMeters>
          </Trackpoint>
          <Trackpoint>
            <Time>2022-07-09T14:17:14.000Z</Time>
            <Position>
              <LatitudeDegrees>42.77565772645175457000732421875</LatitudeDegrees>
              <LongitudeDegrees>-0.13359789736568927764892578125</LongitudeDegrees>
            </Position>
            <AltitudeMeters>2926.39990234375</AltitudeMeters>
            <DistanceMeters>17088.823620613</DistanceMeters>
          </Trackpoint>
          <Trackpoint>
            <Time>2022-07-09T14:17:15.000Z</Time>
            <Position>
              <LatitudeDegrees>42.77566208504140377044677734375</LatitudeDegrees>
              <LongitudeDegrees>-0.13360762037336826324462890625</LongitudeDegrees>
            </Position>
            <AltitudeMeters>2925.800048828125</AltitudeMeters>
            <DistanceMeters>17089.754688462</DistanceMeters>
          </Trackpoint>
          <Trackpoint>
            <Time>2022-07-09T14:17:16.000Z</Time>
            <Position>
              <LatitudeDegrees>42.7756673656404018402099609375</LatitudeDegrees>
              <LongitudeDegrees>-0.13361600227653980255126953125</LongitudeDegrees>
            </Position>
            <AltitudeMeters>2925.60009765625</AltitudeMeters>
            <DistanceMeters>17090.65619103</DistanceMeters>
          </Trackpoint>
          <Trackpoint>
            <Time>2022-07-09T14:17:20.000Z</Time>
            <Position>
              <LatitudeDegrees>42.775690667331218719482421875</LatitudeDegrees>
              <LongitudeDegrees>-0.1336263120174407958984375</LongitudeDegrees>
            </Position>
            <AltitudeMeters>2925.199951171875</AltitudeMeters>
            <DistanceMeters>17093.383970894</DistanceMeters>
          </Trackpoint>
          <Trackpoint>
            <Time>2022-07-09T14:17:24.000Z</Time>
            <Position>
              <LatitudeDegrees>42.77570667676627635955810546875</LatitudeDegrees>
              <LongitudeDegrees>-0.1335775293409824371337890625</LongitudeDegrees>
            </Position>
            <AltitudeMeters>2924.60009765625</AltitudeMeters>
            <DistanceMeters>17097.750032206</DistanceMeters>
          </Trackpoint>
          <Trackpoint>
            <Time>2022-07-09T14:17:26.000Z</Time>
            <Position>
              <LatitudeDegrees>42.77570667676627635955810546875</LatitudeDegrees>
              <LongitudeDegrees>-0.13356017880141735076904296875</LongitudeDegrees>
            </Position>
            <AltitudeMeters>2924.199951171875</AltitudeMeters>
            <DistanceMeters>17099.169083666</DistanceMeters>
          </Trackpoint>
          <Trackpoint>
            <Time>2022-07-09T14:17:30.000Z</Time>
            <Position>
              <LatitudeDegrees>42.7757005579769611358642578125</LatitudeDegrees>
              <LongitudeDegrees>-0.13354509137570858001708984375</LongitudeDegrees>
            </Position>
            <AltitudeMeters>2923.60009765625</AltitudeMeters>
            <DistanceMeters>17100.578557617</DistanceMeters>
          </Trackpoint>
          <Trackpoint>
            <Time>2022-07-09T14:17:32.000Z</Time>
            <Position>
              <LatitudeDegrees>42.7756975404918193817138671875</LatitudeDegrees>
              <LongitudeDegrees>-0.13355330564081668853759765625</LongitudeDegrees>
            </Position>
            <AltitudeMeters>2923.199951171875</AltitudeMeters>
            <DistanceMeters>17101.326798714</DistanceMeters>
          </Trackpoint>
          <Trackpoint>
            <Time>2022-07-09T14:17:37.000Z</Time>
            <Position>
              <LatitudeDegrees>42.77568094432353973388671875</LatitudeDegrees>
              <LongitudeDegrees>-0.13355297036468982696533203125</LongitudeDegrees>
            </Position>
            <AltitudeMeters>2922.800048828125</AltitudeMeters>
            <DistanceMeters>17103.1743292</DistanceMeters>
          </Trackpoint>
          <Trackpoint>
            <Time>2022-07-09T14:17:39.000Z</Time>
            <Position>
              <LatitudeDegrees>42.77568421326577663421630859375</LatitudeDegrees>
              <LongitudeDegrees>-0.13352983631193637847900390625</LongitudeDegrees>
            </Position>
            <AltitudeMeters>2922.39990234375</AltitudeMeters>
            <DistanceMeters>17105.098473514</DistanceMeters>
          </Trackpoint>
          <Trackpoint>
            <Time>2022-07-09T14:17:42.000Z</Time>
            <Position>
              <LatitudeDegrees>42.77567415498197078704833984375</LatitudeDegrees>
              <LongitudeDegrees>-0.1334963925182819366455078125</LongitudeDegrees>
            </Position>
            <AltitudeMeters>2922</AltitudeMeters>
            <DistanceMeters>17108.051955162</DistanceMeters>
          </Trackpoint>
          <Trackpoint>
            <Time>2022-07-09T14:17:43.000Z</Time>
            <Position>
              <LatitudeDegrees>42.775668203830718994140625</LatitudeDegrees>
              <LongitudeDegrees>-0.13349153101444244384765625</LongitudeDegrees>
            </Position>
            <AltitudeMeters>2921.800048828125</AltitudeMeters>
            <DistanceMeters>17108.823955839</DistanceMeters>
          </Trackpoint>
          <Trackpoint>
            <Time>2022-07-09T14:17:46.000Z</Time>
            <Position>
              <LatitudeDegrees>42.7756750769913196563720703125</LatitudeDegrees>
              <LongitudeDegrees>-0.13346630148589611053466796875</LongitudeDegrees>
            </Position>
            <AltitudeMeters>2921.39990234375</AltitudeMeters>
            <DistanceMeters>17111.023983333</DistanceMeters>
          </Trackpoint>
          <Trackpoint>
            <Time>2022-07-09T14:17:48.000Z</Time>
            <Position>
              <LatitudeDegrees>42.77566979639232158660888671875</LatitudeDegrees>
              <LongitudeDegrees>-0.13344316743314266204833984375</LongitudeDegrees>
            </Position>
            <AltitudeMeters>2921</AltitudeMeters>
            <DistanceMeters>17113.003643197</DistanceMeters>
          </Trackpoint>
          <Trackpoint>
            <Time>2022-07-09T14:17:52.000Z</Time>
            <Position>
              <LatitudeDegrees>42.77565554715692996978759765625</LatitudeDegrees>
              <LongitudeDegrees>-0.1334031857550144195556640625</LongitudeDegrees>
            </Position>
            <AltitudeMeters>2920.199951171875</AltitudeMeters>
            <DistanceMeters>17116.634608854</DistanceMeters>
          </Trackpoint>
          <Trackpoint>
            <Time>2022-07-09T14:17:54.000Z</Time>
            <Position>
              <LatitudeDegrees>42.77565906755626201629638671875</LatitudeDegrees>
              <LongitudeDegrees>-0.13339497148990631103515625</LongitudeDegrees>
            </Position>
            <AltitudeMeters>2919.800048828125</AltitudeMeters>
            <DistanceMeters>17117.412436034</DistanceMeters>
          </Trackpoint>
          <Trackpoint>
            <Time>2022-07-09T14:17:55.000Z</Time>
            <Position>
              <LatitudeDegrees>42.77566778473556041717529296875</LatitudeDegrees>
              <LongitudeDegrees>-0.13339363038539886474609375</LongitudeDegrees>
            </Position>
            <AltitudeMeters>2919.800048828125</AltitudeMeters>
            <DistanceMeters>17118.390795939</DistanceMeters>
          </Trackpoint>
          <Trackpoint>
            <Time>2022-07-09T14:17:56.000Z</Time>
            <Position>
              <LatitudeDegrees>42.7756775915622711181640625</LatitudeDegrees>
              <LongitudeDegrees>-0.1334048621356487274169921875</LongitudeDegrees>
            </Position>
            <AltitudeMeters>2919.60009765625</AltitudeMeters>
            <DistanceMeters>17119.81302557</DistanceMeters>
          </Trackpoint>
          <Trackpoint>
            <Time>2022-07-09T14:17:58.000Z</Time>
            <Position>
              <LatitudeDegrees>42.7756904996931552886962890625</LatitudeDegrees>
              <LongitudeDegrees>-0.133422799408435821533203125</LongitudeDegrees>
            </Position>
            <AltitudeMeters>2919</AltitudeMeters>
            <DistanceMeters>17121.864370403</DistanceMeters>
          </Trackpoint>
          <Trackpoint>
            <Time>2022-07-09T14:18:02.000Z</Time>
            <Position>
              <LatitudeDegrees>42.7757032401859760284423828125</LatitudeDegrees>
              <LongitudeDegrees>-0.1334078796207904815673828125</LongitudeDegrees>
            </Position>
            <AltitudeMeters>2918.60009765625</AltitudeMeters>
            <DistanceMeters>17123.731349114</DistanceMeters>
          </Trackpoint>
          <Trackpoint>
            <Time>2022-07-09T14:18:03.000Z</Time>
            <Position>
              <LatitudeDegrees>42.77570701204240322113037109375</LatitudeDegrees>
              <LongitudeDegrees>-0.13340829871594905853271484375</LongitudeDegrees>
            </Position>
            <AltitudeMeters>2918.199951171875</AltitudeMeters>
            <DistanceMeters>17124.1563215</DistanceMeters>
          </Trackpoint>
          <Trackpoint>
            <Time>2022-07-09T14:18:05.000Z</Time>
            <Position>
              <LatitudeDegrees>42.7757156454026699066162109375</LatitudeDegrees>
              <LongitudeDegrees>-0.13341366313397884368896484375</LongitudeDegrees>
            </Position>
            <AltitudeMeters>2917.800048828125</AltitudeMeters>
            <DistanceMeters>17125.210218745</DistanceMeters>
          </Trackpoint>
          <Trackpoint>
            <Time>2022-07-09T14:18:07.000Z</Time>
            <Position>
              <LatitudeDegrees>42.77572511695325374603271484375</LatitudeDegrees>
              <LongitudeDegrees>-0.1334132440388202667236328125</LongitudeDegrees>
            </Position>
            <AltitudeMeters>2917.39990234375</AltitudeMeters>
            <DistanceMeters>17126.268391452</DistanceMeters>
          </Trackpoint>
          <Trackpoint>
            <Time>2022-07-09T14:18:09.000Z</Time>
            <Position>
              <LatitudeDegrees>42.77573349885642528533935546875</LatitudeDegrees>
              <LongitudeDegrees>-0.13340704143047332763671875</LongitudeDegrees>
            </Position>
            <AltitudeMeters>2916.800048828125</AltitudeMeters>
            <DistanceMeters>17127.335063675</DistanceMeters>
          </Trackpoint>
          <Trackpoint>
            <Time>2022-07-09T14:18:11.000Z</Time>
            <Position>
              <LatitudeDegrees>42.77573685161769390106201171875</LatitudeDegrees>
              <LongitudeDegrees>-0.1334078796207904815673828125</LongitudeDegrees>
            </Position>
            <AltitudeMeters>2916.39990234375</AltitudeMeters>
            <DistanceMeters>17127.726868856</DistanceMeters>
          </Trackpoint>
          <Trackpoint>
            <Time>2022-07-09T14:18:15.000Z</Time>
            <Position>
              <LatitudeDegrees>42.7757387794554233551025390625</LatitudeDegrees>
              <LongitudeDegrees>-0.13339706696569919586181640625</LongitudeDegrees>
            </Position>
            <AltitudeMeters>2915.60009765625</AltitudeMeters>
            <DistanceMeters>17128.638333081</DistanceMeters>
          </Trackpoint>
          <Trackpoint>
            <Time>2022-07-09T14:18:18.000Z</Time>
            <Position>
              <LatitudeDegrees>42.7757401205599308013916015625</LatitudeDegrees>
              <LongitudeDegrees>-0.13337359763681888580322265625</LongitudeDegrees>
            </Position>
            <AltitudeMeters>2915.199951171875</AltitudeMeters>
            <DistanceMeters>17130.562477395</DistanceMeters>
          </Trackpoint>
          <Trackpoint>
            <Time>2022-07-09T14:18:20.000Z</Time>
            <Position>
              <LatitudeDegrees>42.77573551051318645477294921875</LatitudeDegrees>
              <LongitudeDegrees>-0.13337611220777034759521484375</LongitudeDegrees>
            </Position>
            <AltitudeMeters>2914.800048828125</AltitudeMeters>
            <DistanceMeters>17131.116573595</DistanceMeters>
          </Trackpoint>
          <Trackpoint>
            <Time>2022-07-09T14:18:22.000Z</Time>
            <Position>
              <LatitudeDegrees>42.77574573643505573272705078125</LatitudeDegrees>
              <LongitudeDegrees>-0.1333478651940822601318359375</LongitudeDegrees>
            </Position>
            <AltitudeMeters>2914.39990234375</AltitudeMeters>
            <DistanceMeters>17133.691078617</DistanceMeters>
          </Trackpoint>
          <Trackpoint>
            <Time>2022-07-09T14:18:25.000Z</Time>
            <Position>
              <LatitudeDegrees>42.7757451497018337249755859375</LatitudeDegrees>
              <LongitudeDegrees>-0.13331450521945953369140625</LongitudeDegrees>
            </Position>
            <AltitudeMeters>2913.60009765625</AltitudeMeters>
            <DistanceMeters>17136.417202773</DistanceMeters>
          </Trackpoint>
          <Trackpoint>
            <Time>2022-07-09T14:18:27.000Z</Time>
            <Position>
              <LatitudeDegrees>42.77573995292186737060546875</LatitudeDegrees>
              <LongitudeDegrees>-0.13329145498573780059814453125</LongitudeDegrees>
            </Position>
            <AltitudeMeters>2913.199951171875</AltitudeMeters>
            <DistanceMeters>17138.387718663</DistanceMeters>
          </Trackpoint>
          <Trackpoint>
            <Time>2022-07-09T14:18:28.000Z</Time>
            <Position>
              <LatitudeDegrees>42.77574053965508937835693359375</LatitudeDegrees>
              <LongitudeDegrees>-0.1332798041403293609619140625</LongitudeDegrees>
            </Position>
            <AltitudeMeters>2913</AltitudeMeters>
            <DistanceMeters>17139.342725323</DistanceMeters>
          </Trackpoint>
          <Trackpoint>
            <Time>2022-07-09T14:18:32.000Z</Time>
            <Position>
              <LatitudeDegrees>42.7757231891155242919921875</LatitudeDegrees>
              <LongitudeDegrees>-0.13325775973498821258544921875</LongitudeDegrees>
            </Position>
            <AltitudeMeters>2912</AltitudeMeters>
            <DistanceMeters>17141.983031937</DistanceMeters>
          </Trackpoint>
          <Trackpoint>
            <Time>2022-07-09T14:18:36.000Z</Time>
            <Position>
              <LatitudeDegrees>42.7757257036864757537841796875</LatitudeDegrees>
              <LongitudeDegrees>-0.133251138031482696533203125</LongitudeDegrees>
            </Position>
            <AltitudeMeters>2911.60009765625</AltitudeMeters>
            <DistanceMeters>17142.598875432</DistanceMeters>
          </Trackpoint>
          <Trackpoint>
            <Time>2022-07-09T14:18:42.000Z</Time>
            <Position>
              <LatitudeDegrees>42.77575696818530559539794921875</LatitudeDegrees>
              <LongitudeDegrees>-0.1332972384989261627197265625</LongitudeDegrees>
            </Position>
            <AltitudeMeters>2911.39990234375</AltitudeMeters>
            <DistanceMeters>17147.726797292</DistanceMeters>
          </Trackpoint>
          <Trackpoint>
            <Time>2022-07-09T14:18:45.000Z</Time>
            <Position>
              <LatitudeDegrees>42.77576669119298458099365234375</LatitudeDegrees>
              <LongitudeDegrees>-0.13328726403415203094482421875</LongitudeDegrees>
            </Position>
            <AltitudeMeters>2910.800048828125</AltitudeMeters>
            <DistanceMeters>17149.077380663</DistanceMeters>
          </Trackpoint>
          <Trackpoint>
            <Time>2022-07-09T14:18:49.000Z</Time>
            <Position>
              <LatitudeDegrees>42.7757795155048370361328125</LatitudeDegrees>
              <LongitudeDegrees>-0.13328969478607177734375</LongitudeDegrees>
            </Position>
            <AltitudeMeters>2909.60009765625</AltitudeMeters>
            <DistanceMeters>17150.518532141</DistanceMeters>
          </Trackpoint>
          <Trackpoint>
            <Time>2022-07-09T14:18:51.000Z</Time>
            <Position>
              <LatitudeDegrees>42.77579150162637233734130859375</LatitudeDegrees>
              <LongitudeDegrees>-0.13328843750059604644775390625</LongitudeDegrees>
            </Position>
            <AltitudeMeters>2909.39990234375</AltitudeMeters>
            <DistanceMeters>17151.855676537</DistanceMeters>
          </Trackpoint>
          <Trackpoint>
            <Time>2022-07-09T14:18:55.000Z</Time>
            <Position>
              <LatitudeDegrees>42.77578613720834255218505859375</LatitudeDegrees>
              <LongitudeDegrees>-0.13323244638741016387939453125</LongitudeDegrees>
            </Position>
            <AltitudeMeters>2908.39990234375</AltitudeMeters>
            <DistanceMeters>17156.469123207</DistanceMeters>
          </Trackpoint>
          <Trackpoint>
            <Time>2022-07-09T14:18:57.000Z</Time>
            <Position>
              <LatitudeDegrees>42.77577993459999561309814453125</LatitudeDegrees>
              <LongitudeDegrees>-0.13322305865585803985595703125</LongitudeDegrees>
            </Position>
            <AltitudeMeters>2908</AltitudeMeters>
            <DistanceMeters>17157.501377546</DistanceMeters>
          </Trackpoint>
          <Trackpoint>
            <Time>2022-07-09T14:19:03.000Z</Time>
            <Position>
              <LatitudeDegrees>42.7757803536951541900634765625</LatitudeDegrees>
              <LongitudeDegrees>-0.133214257657527923583984375</LongitudeDegrees>
            </Position>
            <AltitudeMeters>2907.60009765625</AltitudeMeters>
            <DistanceMeters>17158.218813507</DistanceMeters>
          </Trackpoint>
          <Trackpoint>
            <Time>2022-07-09T14:19:09.000Z</Time>
            <Position>
              <LatitudeDegrees>42.77576535008847713470458984375</LatitudeDegrees>
              <LongitudeDegrees>-0.13321568258106708526611328125</LongitudeDegrees>
            </Position>
            <AltitudeMeters>2907.60009765625</AltitudeMeters>
            <DistanceMeters>17159.891931464</DistanceMeters>
          </Trackpoint>
          <Trackpoint>
            <Time>2022-07-09T14:19:10.000Z</Time>
            <Position>
              <LatitudeDegrees>42.7757661044597625732421875</LatitudeDegrees>
              <LongitudeDegrees>-0.13321752659976482391357421875</LongitudeDegrees>
            </Position>
            <AltitudeMeters>2907.60009765625</AltitudeMeters>
            <DistanceMeters>17160.081984892</DistanceMeters>
          </Trackpoint>
          <Trackpoint>
            <Time>2022-07-09T14:19:11.000Z</Time>
            <Position>
              <LatitudeDegrees>42.77576233260333538055419921875</LatitudeDegrees>
              <LongitudeDegrees>-0.1332105696201324462890625</LongitudeDegrees>
            </Position>
            <AltitudeMeters>2907.39990234375</AltitudeMeters>
            <DistanceMeters>17160.793099708</DistanceMeters>
          </Trackpoint>
          <Trackpoint>
            <Time>2022-07-09T14:19:13.000Z</Time>
            <Position>
              <LatitudeDegrees>42.7757542021572589874267578125</LatitudeDegrees>
              <LongitudeDegrees>-0.13319514691829681396484375</LongitudeDegrees>
            </Position>
            <AltitudeMeters>2907.199951171875</AltitudeMeters>
            <DistanceMeters>17162.342938517</DistanceMeters>
          </Trackpoint>
          <Trackpoint>
            <Time>2022-07-09T14:19:18.000Z</Time>
            <Position>
              <LatitudeDegrees>42.77574221603572368621826171875</LatitudeDegrees>
              <LongitudeDegrees>-0.13315717689692974090576171875</LongitudeDegrees>
            </Position>
            <AltitudeMeters>2907</AltitudeMeters>
            <DistanceMeters>17165.720065483</DistanceMeters>
          </Trackpoint>
          <Trackpoint>
            <Time>2022-07-09T14:19:21.000Z</Time>
            <Position>
              <LatitudeDegrees>42.77573467232286930084228515625</LatitudeDegrees>
              <LongitudeDegrees>-0.13314695097506046295166015625</LongitudeDegrees>
            </Position>
            <AltitudeMeters>2906.39990234375</AltitudeMeters>
            <DistanceMeters>17166.903138537</DistanceMeters>
          </Trackpoint>
          <Trackpoint>
            <Time>2022-07-09T14:19:26.000Z</Time>
            <Position>
              <LatitudeDegrees>42.77571941725909709930419921875</LatitudeDegrees>
              <LongitudeDegrees>-0.13313136063516139984130859375</LongitudeDegrees>
            </Position>
            <AltitudeMeters>2905.199951171875</AltitudeMeters>
            <DistanceMeters>17169.023746485</DistanceMeters>
          </Trackpoint>
          <Trackpoint>
            <Time>2022-07-09T14:19:29.000Z</Time>
            <Position>
              <LatitudeDegrees>42.77573567815124988555908203125</LatitudeDegrees>
              <LongitudeDegrees>-0.13309481553733348846435546875</LongitudeDegrees>
            </Position>
            <AltitudeMeters>2904.39990234375</AltitudeMeters>
            <DistanceMeters>17172.515250917</DistanceMeters>
          </Trackpoint>
          <Trackpoint>
            <Time>2022-07-09T14:19:30.000Z</Time>
            <Position>
              <LatitudeDegrees>42.7757354266941547393798828125</LatitudeDegrees>
              <LongitudeDegrees>-0.13308157213032245635986328125</LongitudeDegrees>
            </Position>
            <AltitudeMeters>2904</AltitudeMeters>
            <DistanceMeters>17173.598722161</DistanceMeters>
          </Trackpoint>
          <Trackpoint>
            <Time>2022-07-09T14:19:35.000Z</Time>
            <Position>
              <LatitudeDegrees>42.7757126279175281524658203125</LatitudeDegrees>
              <LongitudeDegrees>-0.13304335065186023712158203125</LongitudeDegrees>
            </Position>
            <AltitudeMeters>2902.800048828125</AltitudeMeters>
            <DistanceMeters>17177.622517268</DistanceMeters>
          </Trackpoint>
          <Trackpoint>
            <Time>2022-07-09T14:19:40.000Z</Time>
            <Position>
              <LatitudeDegrees>42.7757243625819683074951171875</LatitudeDegrees>
              <LongitudeDegrees>-0.13303957879543304443359375</LongitudeDegrees>
            </Position>
            <AltitudeMeters>2901.800048828125</AltitudeMeters>
            <DistanceMeters>17178.966397951</DistanceMeters>
          </Trackpoint>
          <Trackpoint>
            <Time>2022-07-09T14:19:45.000Z</Time>
            <Position>
              <LatitudeDegrees>42.77569846250116825103759765625</LatitudeDegrees>
              <LongitudeDegrees>-0.13298928737640380859375</LongitudeDegrees>
            </Position>
            <AltitudeMeters>2901.39990234375</AltitudeMeters>
            <DistanceMeters>17183.985751821</DistanceMeters>
          </Trackpoint>
          <Trackpoint>
            <Time>2022-07-09T14:19:50.000Z</Time>
            <Position>
              <LatitudeDegrees>42.77567532844841480255126953125</LatitudeDegrees>
              <LongitudeDegrees>-0.13294712640345096588134765625</LongitudeDegrees>
            </Position>
            <AltitudeMeters>2900.199951171875</AltitudeMeters>
            <DistanceMeters>17188.286170005</DistanceMeters>
          </Trackpoint>
          <Trackpoint>
            <Time>2022-07-09T14:19:52.000Z</Time>
            <Position>
              <LatitudeDegrees>42.77565454132854938507080078125</LatitudeDegrees>
              <LongitudeDegrees>-0.13293773867189884185791015625</LongitudeDegrees>
            </Position>
            <AltitudeMeters>2899.60009765625</AltitudeMeters>
            <DistanceMeters>17190.721895816</DistanceMeters>
          </Trackpoint>
          <Trackpoint>
            <Time>2022-07-09T14:19:54.000Z</Time>
            <Position>
              <LatitudeDegrees>42.77563895098865032196044921875</LatitudeDegrees>
              <LongitudeDegrees>-0.13291359879076480865478515625</LongitudeDegrees>
            </Position>
            <AltitudeMeters>2899.199951171875</AltitudeMeters>
            <DistanceMeters>17193.346766923</DistanceMeters>
          </Trackpoint>
          <Trackpoint>
            <Time>2022-07-09T14:19:55.000Z</Time>
            <Position>
              <LatitudeDegrees>42.7756324969232082366943359375</LatitudeDegrees>
              <LongitudeDegrees>-0.13290010392665863037109375</LongitudeDegrees>
            </Position>
            <AltitudeMeters>2899</AltitudeMeters>
            <DistanceMeters>17194.666920229</DistanceMeters>
          </Trackpoint>
          <Trackpoint>
            <Time>2022-07-09T14:19:58.000Z</Time>
            <Position>
              <LatitudeDegrees>42.77561564929783344268798828125</LatitudeDegrees>
              <LongitudeDegrees>-0.13287906534969806671142578125</LongitudeDegrees>
            </Position>
            <AltitudeMeters>2898.39990234375</AltitudeMeters>
            <DistanceMeters>17197.211436846</DistanceMeters>
          </Trackpoint>
          <Trackpoint>
            <Time>2022-07-09T14:20:00.000Z</Time>
            <Position>
              <LatitudeDegrees>42.77561120688915252685546875</LatitudeDegrees>
              <LongitudeDegrees>-0.132877640426158905029296875</LongitudeDegrees>
            </Position>
            <AltitudeMeters>2898</AltitudeMeters>
            <DistanceMeters>17197.723171364</DistanceMeters>
          </Trackpoint>
          <Trackpoint>
            <Time>2022-07-09T14:20:05.000Z</Time>
            <Position>
              <LatitudeDegrees>42.77562386356294155120849609375</LatitudeDegrees>
              <LongitudeDegrees>-0.1329083181917667388916015625</LongitudeDegrees>
            </Position>
            <AltitudeMeters>2897.199951171875</AltitudeMeters>
            <DistanceMeters>17200.599201618</DistanceMeters>
          </Trackpoint>
          <Trackpoint>
            <Time>2022-07-09T14:20:06.000Z</Time>
            <Position>
              <LatitudeDegrees>42.77562704868614673614501953125</LatitudeDegrees>
              <LongitudeDegrees>-0.13291887938976287841796875</LongitudeDegrees>
            </Position>
            <AltitudeMeters>2897</AltitudeMeters>
            <DistanceMeters>17201.530269466</DistanceMeters>
          </Trackpoint>
          <Trackpoint>
            <Time>2022-07-09T14:20:08.000Z</Time>
            <Position>
              <LatitudeDegrees>42.77563811279833316802978515625</LatitudeDegrees>
              <LongitudeDegrees>-0.1329343020915985107421875</LongitudeDegrees>
            </Position>
            <AltitudeMeters>2896.60009765625</AltitudeMeters>
            <DistanceMeters>17203.287621492</DistanceMeters>
          </Trackpoint>
          <Trackpoint>
            <Time>2022-07-09T14:20:11.000Z</Time>
            <Position>
              <LatitudeDegrees>42.77566996403038501739501953125</LatitudeDegrees>
              <LongitudeDegrees>-0.1329441927373409271240234375</LongitudeDegrees>
            </Position>
            <AltitudeMeters>2896</AltitudeMeters>
            <DistanceMeters>17206.923557674</DistanceMeters>
          </Trackpoint>
          <Trackpoint>
            <Time>2022-07-09T14:20:12.000Z</Time>
            <Position>
              <LatitudeDegrees>42.77567834593355655670166015625</LatitudeDegrees>
              <LongitudeDegrees>-0.13294813223183155059814453125</LongitudeDegrees>
            </Position>
            <AltitudeMeters>2896</AltitudeMeters>
            <DistanceMeters>17207.911104258</DistanceMeters>
          </Trackpoint>
          <Trackpoint>
            <Time>2022-07-09T14:20:13.000Z</Time>
            <Position>
              <LatitudeDegrees>42.775687985122203826904296875</LatitudeDegrees>
              <LongitudeDegrees>-0.1329478807747364044189453125</LongitudeDegrees>
            </Position>
            <AltitudeMeters>2895.60009765625</AltitudeMeters>
            <DistanceMeters>17208.986208804</DistanceMeters>
          </Trackpoint>
          <Trackpoint>
            <Time>2022-07-09T14:20:15.000Z</Time>
            <Position>
              <LatitudeDegrees>42.77569410391151905059814453125</LatitudeDegrees>
              <LongitudeDegrees>-0.13290278613567352294921875</LongitudeDegrees>
            </Position>
            <AltitudeMeters>2894.60009765625</AltitudeMeters>
            <DistanceMeters>17212.732238541</DistanceMeters>
          </Trackpoint>
          <Trackpoint>
            <Time>2022-07-09T14:20:20.000Z</Time>
            <Position>
              <LatitudeDegrees>42.77567750774323940277099609375</LatitudeDegrees>
              <LongitudeDegrees>-0.13283430598676204681396484375</LongitudeDegrees>
            </Position>
            <AltitudeMeters>2894</AltitudeMeters>
            <DistanceMeters>17218.623894832</DistanceMeters>
          </Trackpoint>
          <Trackpoint>
            <Time>2022-07-09T14:20:23.000Z</Time>
            <Position>
              <LatitudeDegrees>42.77568253688514232635498046875</LatitudeDegrees>
              <LongitudeDegrees>-0.13280295766890048980712890625</LongitudeDegrees>
            </Position>
            <AltitudeMeters>2893.60009765625</AltitudeMeters>
            <DistanceMeters>17221.245323484</DistanceMeters>
          </Trackpoint>
          <Trackpoint>
            <Time>2022-07-09T14:20:26.000Z</Time>
            <Position>
              <LatitudeDegrees>42.77567557990550994873046875</LatitudeDegrees>
              <LongitudeDegrees>-0.1327450387179851531982421875</LongitudeDegrees>
            </Position>
            <AltitudeMeters>2892.60009765625</AltitudeMeters>
            <DistanceMeters>17226.038288586</DistanceMeters>
          </Trackpoint>
          <Trackpoint>
            <Time>2022-07-09T14:20:27.000Z</Time>
            <Position>
              <LatitudeDegrees>42.77567130513489246368408203125</LatitudeDegrees>
              <LongitudeDegrees>-0.13273623771965503692626953125</LongitudeDegrees>
            </Position>
            <AltitudeMeters>2892.199951171875</AltitudeMeters>
            <DistanceMeters>17226.898792083</DistanceMeters>
          </Trackpoint>
          <Trackpoint>
            <Time>2022-07-09T14:20:28.000Z</Time>
            <Position>
              <LatitudeDegrees>42.77566962875425815582275390625</LatitudeDegrees>
              <LongitudeDegrees>-0.1327224075794219970703125</LongitudeDegrees>
            </Position>
            <AltitudeMeters>2892</AltitudeMeters>
            <DistanceMeters>17228.043065252</DistanceMeters>
          </Trackpoint>
          <Trackpoint>
            <Time>2022-07-09T14:20:30.000Z</Time>
            <Position>
              <LatitudeDegrees>42.77566812001168727874755859375</LatitudeDegrees>
              <LongitudeDegrees>-0.1326977647840976715087890625</LongitudeDegrees>
            </Position>
            <AltitudeMeters>2891.39990234375</AltitudeMeters>
            <DistanceMeters>17230.063360911</DistanceMeters>
          </Trackpoint>
          <Trackpoint>
            <Time>2022-07-09T14:20:31.000Z</Time>
            <Position>
              <LatitudeDegrees>42.77566812001168727874755859375</LatitudeDegrees>
              <LongitudeDegrees>-0.13269550167024135589599609375</LongitudeDegrees>
            </Position>
            <AltitudeMeters>2891</AltitudeMeters>
            <DistanceMeters>17230.25341434</DistanceMeters>
          </Trackpoint>
          <Trackpoint>
            <Time>2022-07-09T14:20:34.000Z</Time>
            <Position>
              <LatitudeDegrees>42.775668539106845855712890625</LatitudeDegrees>
              <LongitudeDegrees>-0.13268158771097660064697265625</LongitudeDegrees>
            </Position>
            <AltitudeMeters>2890.199951171875</AltitudeMeters>
            <DistanceMeters>17231.393734913</DistanceMeters>
          </Trackpoint>
          <Trackpoint>
            <Time>2022-07-09T14:20:36.000Z</Time>
            <Position>
              <LatitudeDegrees>42.775657474994659423828125</LatitudeDegrees>
              <LongitudeDegrees>-0.13265929184854030609130859375</LongitudeDegrees>
            </Position>
            <AltitudeMeters>2890</AltitudeMeters>
            <DistanceMeters>17233.593762406</DistanceMeters>
          </Trackpoint>
          <Trackpoint>
            <Time>2022-07-09T14:20:40.000Z</Time>
            <Position>
              <LatitudeDegrees>42.775625623762607574462890625</LatitudeDegrees>
              <LongitudeDegrees>-0.13261352665722370147705078125</LongitudeDegrees>
            </Position>
            <AltitudeMeters>2889.199951171875</AltitudeMeters>
            <DistanceMeters>17238.746278757</DistanceMeters>
          </Trackpoint>
          <Trackpoint>
            <Time>2022-07-09T14:20:41.000Z</Time>
            <Position>
              <LatitudeDegrees>42.775618247687816619873046875</LatitudeDegrees>
              <LongitudeDegrees>-0.132602714002132415771484375</LongitudeDegrees>
            </Position>
            <AltitudeMeters>2889.199951171875</AltitudeMeters>
            <DistanceMeters>17239.952032591</DistanceMeters>
          </Trackpoint>
          <Trackpoint>
            <Time>2022-07-09T14:20:44.000Z</Time>
            <Position>
              <LatitudeDegrees>42.77562352828681468963623046875</LatitudeDegrees>
              <LongitudeDegrees>-0.1325696893036365509033203125</LongitudeDegrees>
            </Position>
            <AltitudeMeters>2888</AltitudeMeters>
            <DistanceMeters>17242.712718107</DistanceMeters>
          </Trackpoint>
          <Trackpoint>
            <Time>2022-07-09T14:20:47.000Z</Time>
            <Position>
              <LatitudeDegrees>42.7756234444677829742431640625</LatitudeDegrees>
              <LongitudeDegrees>-0.1325220800936222076416015625</LongitudeDegrees>
            </Position>
            <AltitudeMeters>2887</AltitudeMeters>
            <DistanceMeters>17246.603014769</DistanceMeters>
          </Trackpoint>
          <Trackpoint>
            <Time>2022-07-09T14:20:48.000Z</Time>
            <Position>
              <LatitudeDegrees>42.7756239473819732666015625</LatitudeDegrees>
              <LongitudeDegrees>-0.13251193799078464508056640625</LongitudeDegrees>
            </Position>
            <AltitudeMeters>2886.800048828125</AltitudeMeters>
            <DistanceMeters>17247.436870804</DistanceMeters>
          </Trackpoint>
          <Trackpoint>
            <Time>2022-07-09T14:20:51.000Z</Time>
            <Position>
              <LatitudeDegrees>42.775633670389652252197265625</LatitudeDegrees>
              <LongitudeDegrees>-0.1324863731861114501953125</LongitudeDegrees>
            </Position>
            <AltitudeMeters>2886.199951171875</AltitudeMeters>
            <DistanceMeters>17249.791539981</DistanceMeters>
          </Trackpoint>
          <Trackpoint>
            <Time>2022-07-09T14:20:53.000Z</Time>
            <Position>
              <LatitudeDegrees>42.7756418846547603607177734375</LatitudeDegrees>
              <LongitudeDegrees>-0.1324825175106525421142578125</LongitudeDegrees>
            </Position>
            <AltitudeMeters>2885.800048828125</AltitudeMeters>
            <DistanceMeters>17250.760626123</DistanceMeters>
          </Trackpoint>
          <Trackpoint>
            <Time>2022-07-09T14:20:59.000Z</Time>
            <Position>
              <LatitudeDegrees>42.7756636776030063629150390625</LatitudeDegrees>
              <LongitudeDegrees>-0.13244555331766605377197265625</LongitudeDegrees>
            </Position>
            <AltitudeMeters>2884.800048828125</AltitudeMeters>
            <DistanceMeters>17254.634640456</DistanceMeters>
          </Trackpoint>
          <Trackpoint>
            <Time>2022-07-09T14:21:01.000Z</Time>
            <Position>
              <LatitudeDegrees>42.775673903524875640869140625</LatitudeDegrees>
              <LongitudeDegrees>-0.1324365846812725067138671875</LongitudeDegrees>
            </Position>
            <AltitudeMeters>2884.39990234375</AltitudeMeters>
            <DistanceMeters>17255.985223827</DistanceMeters>
          </Trackpoint>
          <Trackpoint>
            <Time>2022-07-09T14:21:02.000Z</Time>
            <Position>
              <LatitudeDegrees>42.77567884884774684906005859375</LatitudeDegrees>
              <LongitudeDegrees>-0.13242577202618122100830078125</LongitudeDegrees>
            </Position>
            <AltitudeMeters>2883.800048828125</AltitudeMeters>
            <DistanceMeters>17257.017478166</DistanceMeters>
          </Trackpoint>
          <Trackpoint>
            <Time>2022-07-09T14:21:05.000Z</Time>
            <Position>
              <LatitudeDegrees>42.7756851352751255035400390625</LatitudeDegrees>
              <LongitudeDegrees>-0.13238252140581607818603515625</LongitudeDegrees>
            </Position>
            <AltitudeMeters>2882.800048828125</AltitudeMeters>
            <DistanceMeters>17260.619730218</DistanceMeters>
          </Trackpoint>
          <Trackpoint>
            <Time>2022-07-09T14:21:06.000Z</Time>
            <Position>
              <LatitudeDegrees>42.7756878174841403961181640625</LatitudeDegrees>
              <LongitudeDegrees>-0.13235921971499919891357421875</LongitudeDegrees>
            </Position>
            <AltitudeMeters>2882.60009765625</AltitudeMeters>
            <DistanceMeters>17262.546219621</DistanceMeters>
          </Trackpoint>
          <Trackpoint>
            <Time>2022-07-09T14:21:08.000Z</Time>
            <Position>
              <LatitudeDegrees>42.775688655674457550048828125</LatitudeDegrees>
              <LongitudeDegrees>-0.1323313079774379730224609375</LongitudeDegrees>
            </Position>
            <AltitudeMeters>2882.39990234375</AltitudeMeters>
            <DistanceMeters>17264.826860766</DistanceMeters>
          </Trackpoint>
          <Trackpoint>
            <Time>2022-07-09T14:21:11.000Z</Time>
            <Position>
              <LatitudeDegrees>42.775690667331218719482421875</LatitudeDegrees>
              <LongitudeDegrees>-0.132313705980777740478515625</LongitudeDegrees>
            </Position>
            <AltitudeMeters>2882</AltitudeMeters>
            <DistanceMeters>17266.286688852</DistanceMeters>
          </Trackpoint>
          <Trackpoint>
            <Time>2022-07-09T14:21:12.000Z</Time>
            <Position>
              <LatitudeDegrees>42.77569544501602649688720703125</LatitudeDegrees>
              <LongitudeDegrees>-0.1323225907981395721435546875</LongitudeDegrees>
            </Position>
            <AltitudeMeters>2881.60009765625</AltitudeMeters>
            <DistanceMeters>17267.183169082</DistanceMeters>
          </Trackpoint>
          <Trackpoint>
            <Time>2022-07-09T14:21:13.000Z</Time>
            <Position>
              <LatitudeDegrees>42.7757005579769611358642578125</LatitudeDegrees>
              <LongitudeDegrees>-0.13233122415840625762939453125</LongitudeDegrees>
            </Position>
            <AltitudeMeters>2881.39990234375</AltitudeMeters>
            <DistanceMeters>17268.08467165</DistanceMeters>
          </Trackpoint>
          <Trackpoint>
            <Time>2022-07-09T14:21:14.000Z</Time>
            <Position>
              <LatitudeDegrees>42.77570516802370548248291015625</LatitudeDegrees>
              <LongitudeDegrees>-0.1323403604328632354736328125</LongitudeDegrees>
            </Position>
            <AltitudeMeters>2881</AltitudeMeters>
            <DistanceMeters>17268.99116873</DistanceMeters>
          </Trackpoint>
          <Trackpoint>
            <Time>2022-07-09T14:21:16.000Z</Time>
            <Position>
              <LatitudeDegrees>42.77571254409849643707275390625</LatitudeDegrees>
              <LongitudeDegrees>-0.13236324302852153778076171875</LongitudeDegrees>
            </Position>
            <AltitudeMeters>2880.60009765625</AltitudeMeters>
            <DistanceMeters>17271.031478815</DistanceMeters>
          </Trackpoint>
          <Trackpoint>
            <Time>2022-07-09T14:21:19.000Z</Time>
            <Position>
              <LatitudeDegrees>42.77573081664741039276123046875</LatitudeDegrees>
              <LongitudeDegrees>-0.13238788582384586334228515625</LongitudeDegrees>
            </Position>
            <AltitudeMeters>2880</AltitudeMeters>
            <DistanceMeters>17273.891767132</DistanceMeters>
          </Trackpoint>
          <Trackpoint>
            <Time>2022-07-09T14:21:21.000Z</Time>
            <Position>
              <LatitudeDegrees>42.77574422769248485565185546875</LatitudeDegrees>
              <LongitudeDegrees>-0.13239945285022258758544921875</LongitudeDegrees>
            </Position>
            <AltitudeMeters>2879.60009765625</AltitudeMeters>
            <DistanceMeters>17275.656810014</DistanceMeters>
          </Trackpoint>
          <Trackpoint>
            <Time>2022-07-09T14:21:22.000Z</Time>
            <Position>
              <LatitudeDegrees>42.77574934065341949462890625</LatitudeDegrees>
              <LongitudeDegrees>-0.13240179978311061859130859375</LongitudeDegrees>
            </Position>
            <AltitudeMeters>2879.199951171875</AltitudeMeters>
            <DistanceMeters>17276.257811725</DistanceMeters>
          </Trackpoint>
          <Trackpoint>
            <Time>2022-07-09T14:21:25.000Z</Time>
            <Position>
              <LatitudeDegrees>42.7757676132023334503173828125</LatitudeDegrees>
              <LongitudeDegrees>-0.13241319917142391204833984375</LongitudeDegrees>
            </Position>
            <AltitudeMeters>2878.60009765625</AltitudeMeters>
            <DistanceMeters>17278.494474943</DistanceMeters>
          </Trackpoint>
          <Trackpoint>
            <Time>2022-07-09T14:21:26.000Z</Time>
            <Position>
              <LatitudeDegrees>42.7757733128964900970458984375</LatitudeDegrees>
              <LongitudeDegrees>-0.13241604901850223541259765625</LongitudeDegrees>
            </Position>
            <AltitudeMeters>2878.39990234375</AltitudeMeters>
            <DistanceMeters>17279.166415285</DistanceMeters>
          </Trackpoint>
          <Trackpoint>
            <Time>2022-07-09T14:21:27.000Z</Time>
            <Position>
              <LatitudeDegrees>42.77578496374189853668212890625</LatitudeDegrees>
              <LongitudeDegrees>-0.13241487555205821990966796875</LongitudeDegrees>
            </Position>
            <AltitudeMeters>2878.199951171875</AltitudeMeters>
            <DistanceMeters>17280.46588606</DistanceMeters>
          </Trackpoint>
          <Trackpoint>
            <Time>2022-07-09T14:21:28.000Z</Time>
            <Position>
              <LatitudeDegrees>42.77579217217862606048583984375</LatitudeDegrees>
              <LongitudeDegrees>-0.1324188150465488433837890625</LongitudeDegrees>
            </Position>
            <AltitudeMeters>2878.199951171875</AltitudeMeters>
            <DistanceMeters>17281.326389557</DistanceMeters>
          </Trackpoint>
          <Trackpoint>
            <Time>2022-07-09T14:21:33.000Z</Time>
            <Position>
              <LatitudeDegrees>42.77581698261201381683349609375</LatitudeDegrees>
              <LongitudeDegrees>-0.13244002126157283782958984375</LongitudeDegrees>
            </Position>
            <AltitudeMeters>2876.60009765625</AltitudeMeters>
            <DistanceMeters>17284.585127026</DistanceMeters>
          </Trackpoint>
          <Trackpoint>
            <Time>2022-07-09T14:21:35.000Z</Time>
            <Position>
              <LatitudeDegrees>42.77583223767578601837158203125</LatitudeDegrees>
              <LongitudeDegrees>-0.1324483193457126617431640625</LongitudeDegrees>
            </Position>
            <AltitudeMeters>2876</AltitudeMeters>
            <DistanceMeters>17286.413002374</DistanceMeters>
          </Trackpoint>
          <Trackpoint>
            <Time>2022-07-09T14:21:39.000Z</Time>
            <Position>
              <LatitudeDegrees>42.775841541588306427001953125</LatitudeDegrees>
              <LongitudeDegrees>-0.13238587416708469390869140625</LongitudeDegrees>
            </Position>
            <AltitudeMeters>2875.60009765625</AltitudeMeters>
            <DistanceMeters>17291.617829876</DistanceMeters>
          </Trackpoint>
          <Trackpoint>
            <Time>2022-07-09T14:21:40.000Z</Time>
            <Position>
              <LatitudeDegrees>42.77584145776927471160888671875</LatitudeDegrees>
              <LongitudeDegrees>-0.13237296603620052337646484375</LongitudeDegrees>
            </Position>
            <AltitudeMeters>2875.39990234375</AltitudeMeters>
            <DistanceMeters>17292.667434243</DistanceMeters>
          </Trackpoint>
          <Trackpoint>
            <Time>2022-07-09T14:21:46.000Z</Time>
            <Position>
              <LatitudeDegrees>42.77585922740399837493896484375</LatitudeDegrees>
              <LongitudeDegrees>-0.13233549892902374267578125</LongitudeDegrees>
            </Position>
            <AltitudeMeters>2874.39990234375</AltitudeMeters>
            <DistanceMeters>17296.310813494</DistanceMeters>
          </Trackpoint>
          <Trackpoint>
            <Time>2022-07-09T14:21:48.000Z</Time>
            <Position>
              <LatitudeDegrees>42.775875069200992584228515625</LatitudeDegrees>
              <LongitudeDegrees>-0.1323484070599079132080078125</LongitudeDegrees>
            </Position>
            <AltitudeMeters>2874.199951171875</AltitudeMeters>
            <DistanceMeters>17298.362158327</DistanceMeters>
          </Trackpoint>
          <Trackpoint>
            <Time>2022-07-09T14:21:52.000Z</Time>
            <Position>
              <LatitudeDegrees>42.77589728124439716339111328125</LatitudeDegrees>
              <LongitudeDegrees>-0.13237028382718563079833984375</LongitudeDegrees>
            </Position>
            <AltitudeMeters>2873.39990234375</AltitudeMeters>
            <DistanceMeters>17301.413389032</DistanceMeters>
          </Trackpoint>
          <Trackpoint>
            <Time>2022-07-09T14:21:55.000Z</Time>
            <Position>
              <LatitudeDegrees>42.77591655962169170379638671875</LatitudeDegrees>
              <LongitudeDegrees>-0.132368691265583038330078125</LongitudeDegrees>
            </Position>
            <AltitudeMeters>2872.60009765625</AltitudeMeters>
            <DistanceMeters>17303.563598124</DistanceMeters>
          </Trackpoint>
          <Trackpoint>
            <Time>2022-07-09T14:21:56.000Z</Time>
            <Position>
              <LatitudeDegrees>42.7759245224297046661376953125</LatitudeDegrees>
              <LongitudeDegrees>-0.132370702922344207763671875</LongitudeDegrees>
            </Position>
            <AltitudeMeters>2872.39990234375</AltitudeMeters>
            <DistanceMeters>17304.465100692</DistanceMeters>
          </Trackpoint>
          <Trackpoint>
            <Time>2022-07-09T14:21:57.000Z</Time>
            <Position>
              <LatitudeDegrees>42.77593282051384449005126953125</LatitudeDegrees>
              <LongitudeDegrees>-0.1323712058365345001220703125</LongitudeDegrees>
            </Position>
            <AltitudeMeters>2872</AltitudeMeters>
            <DistanceMeters>17305.39616854</DistanceMeters>
          </Trackpoint>
          <Trackpoint>
            <Time>2022-07-09T14:22:00.000Z</Time>
            <Position>
              <LatitudeDegrees>42.77594790793955326080322265625</LatitudeDegrees>
              <LongitudeDegrees>-0.13236491940915584564208984375</LongitudeDegrees>
            </Position>
            <AltitudeMeters>2871.60009765625</AltitudeMeters>
            <DistanceMeters>17307.153520567</DistanceMeters>
          </Trackpoint>
          <Trackpoint>
            <Time>2022-07-09T14:22:01.000Z</Time>
            <Position>
              <LatitudeDegrees>42.77595008723437786102294921875</LatitudeDegrees>
              <LongitudeDegrees>-0.13236634433269500732421875</LongitudeDegrees>
            </Position>
            <AltitudeMeters>2871.39990234375</AltitudeMeters>
            <DistanceMeters>17307.43860071</DistanceMeters>
          </Trackpoint>
          <Trackpoint>
            <Time>2022-07-09T14:22:03.000Z</Time>
            <Position>
              <LatitudeDegrees>42.77595595456659793853759765625</LatitudeDegrees>
              <LongitudeDegrees>-0.13237439095973968505859375</LongitudeDegrees>
            </Position>
            <AltitudeMeters>2871</AltitudeMeters>
            <DistanceMeters>17308.369668558</DistanceMeters>
          </Trackpoint>
          <Trackpoint>
            <Time>2022-07-09T14:22:08.000Z</Time>
            <Position>
              <LatitudeDegrees>42.77598177082836627960205078125</LatitudeDegrees>
              <LongitudeDegrees>-0.13240121304988861083984375</LongitudeDegrees>
            </Position>
            <AltitudeMeters>2870</AltitudeMeters>
            <DistanceMeters>17311.984432813</DistanceMeters>
          </Trackpoint>
          <Trackpoint>
            <Time>2022-07-09T14:22:10.000Z</Time>
            <Position>
              <LatitudeDegrees>42.775988392531871795654296875</LatitudeDegrees>
              <LongitudeDegrees>-0.1324104331433773040771484375</LongitudeDegrees>
            </Position>
            <AltitudeMeters>2869.800048828125</AltitudeMeters>
            <DistanceMeters>17313.04260552</DistanceMeters>
          </Trackpoint>
          <Trackpoint>
            <Time>2022-07-09T14:22:13.000Z</Time>
            <Position>
              <LatitudeDegrees>42.77599610388278961181640625</LatitudeDegrees>
              <LongitudeDegrees>-0.13241864740848541259765625</LongitudeDegrees>
            </Position>
            <AltitudeMeters>2868.60009765625</AltitudeMeters>
            <DistanceMeters>17314.134379348</DistanceMeters>
          </Trackpoint>
          <Trackpoint>
            <Time>2022-07-09T14:22:14.000Z</Time>
            <Position>
              <LatitudeDegrees>42.77599878609180450439453125</LatitudeDegrees>
              <LongitudeDegrees>-0.132421664893627166748046875</LongitudeDegrees>
            </Position>
            <AltitudeMeters>2868.39990234375</AltitudeMeters>
            <DistanceMeters>17314.514486205</DistanceMeters>
          </Trackpoint>
          <Trackpoint>
            <Time>2022-07-09T14:22:18.000Z</Time>
            <Position>
              <LatitudeDegrees>42.77599903754889965057373046875</LatitudeDegrees>
              <LongitudeDegrees>-0.1324208267033100128173828125</LongitudeDegrees>
            </Position>
            <AltitudeMeters>2868.39990234375</AltitudeMeters>
            <DistanceMeters>17314.648874273</DistanceMeters>
          </Trackpoint>
          <Trackpoint>
            <Time>2022-07-09T14:22:20.000Z</Time>
            <Position>
              <LatitudeDegrees>42.77601999230682849884033203125</LatitudeDegrees>
              <LongitudeDegrees>-0.1323951780796051025390625</LongitudeDegrees>
            </Position>
            <AltitudeMeters>2868.39990234375</AltitudeMeters>
            <DistanceMeters>17317.783315718</DistanceMeters>
          </Trackpoint>
          <Trackpoint>
            <Time>2022-07-09T14:22:21.000Z</Time>
            <Position>
              <LatitudeDegrees>42.77602083049714565277099609375</LatitudeDegrees>
              <LongitudeDegrees>-0.1323956809937953948974609375</LongitudeDegrees>
            </Position>
            <AltitudeMeters>2868.39990234375</AltitudeMeters>
            <DistanceMeters>17317.783315718</DistanceMeters>
          </Trackpoint>
          <Trackpoint>
            <Time>2022-07-09T14:22:27.000Z</Time>
            <Position>
              <LatitudeDegrees>42.7760422043502330780029296875</LatitudeDegrees>
              <LongitudeDegrees>-0.1324476487934589385986328125</LongitudeDegrees>
            </Position>
            <AltitudeMeters>2868.199951171875</AltitudeMeters>
            <DistanceMeters>17322.649203144</DistanceMeters>
          </Trackpoint>
          <Trackpoint>
            <Time>2022-07-09T14:22:28.000Z</Time>
            <Position>
              <LatitudeDegrees>42.7760472334921360015869140625</LatitudeDegrees>
              <LongitudeDegrees>-0.13245494104921817779541015625</LongitudeDegrees>
            </Position>
            <AltitudeMeters>2868.199951171875</AltitudeMeters>
            <DistanceMeters>17323.46665385</DistanceMeters>
          </Trackpoint>
          <Trackpoint>
            <Time>2022-07-09T14:22:31.000Z</Time>
            <Position>
              <LatitudeDegrees>42.77606190182268619537353515625</LatitudeDegrees>
              <LongitudeDegrees>-0.132477320730686187744140625</LongitudeDegrees>
            </Position>
            <AltitudeMeters>2868</AltitudeMeters>
            <DistanceMeters>17325.917164171</DistanceMeters>
          </Trackpoint>
          <Trackpoint>
            <Time>2022-07-09T14:22:32.000Z</Time>
            <Position>
              <LatitudeDegrees>42.77606558986008167266845703125</LatitudeDegrees>
              <LongitudeDegrees>-0.13248377479612827301025390625</LongitudeDegrees>
            </Position>
            <AltitudeMeters>2867.800048828125</AltitudeMeters>
            <DistanceMeters>17326.589104512</DistanceMeters>
          </Trackpoint>
          <Trackpoint>
            <Time>2022-07-09T14:22:33.000Z</Time>
            <Position>
              <LatitudeDegrees>42.77606743387877941131591796875</LatitudeDegrees>
              <LongitudeDegrees>-0.13249064795672893524169921875</LongitudeDegrees>
            </Position>
            <AltitudeMeters>2867.60009765625</AltitudeMeters>
            <DistanceMeters>17327.190106224</DistanceMeters>
          </Trackpoint>
          <Trackpoint>
            <Time>2022-07-09T14:22:36.000Z</Time>
            <Position>
              <LatitudeDegrees>42.77607799507677555084228515625</LatitudeDegrees>
              <LongitudeDegrees>-0.13249534182250499725341796875</LongitudeDegrees>
            </Position>
            <AltitudeMeters>2866.60009765625</AltitudeMeters>
            <DistanceMeters>17328.425453511</DistanceMeters>
          </Trackpoint>
          <Trackpoint>
            <Time>2022-07-09T14:22:39.000Z</Time>
            <Position>
              <LatitudeDegrees>42.7760938368737697601318359375</LatitudeDegrees>
              <LongitudeDegrees>-0.1324734650552272796630859375</LongitudeDegrees>
            </Position>
            <AltitudeMeters>2865.60009765625</AltitudeMeters>
            <DistanceMeters>17330.936029811</DistanceMeters>
          </Trackpoint>
          <Trackpoint>
            <Time>2022-07-09T14:22:40.000Z</Time>
            <Position>
              <LatitudeDegrees>42.77609677053987979888916015625</LatitudeDegrees>
              <LongitudeDegrees>-0.13246064074337482452392578125</LongitudeDegrees>
            </Position>
            <AltitudeMeters>2865.39990234375</AltitudeMeters>
            <DistanceMeters>17332.036043558</DistanceMeters>
          </Trackpoint>
          <Trackpoint>
            <Time>2022-07-09T14:22:46.000Z</Time>
            <Position>
              <LatitudeDegrees>42.7761189825832843780517578125</LatitudeDegrees>
              <LongitudeDegrees>-0.13247254304587841033935546875</LongitudeDegrees>
            </Position>
            <AltitudeMeters>2865</AltitudeMeters>
            <DistanceMeters>17334.693395582</DistanceMeters>
          </Trackpoint>
          <Trackpoint>
            <Time>2022-07-09T14:22:47.000Z</Time>
            <Position>
              <LatitudeDegrees>42.776126526296138763427734375</LatitudeDegrees>
              <LongitudeDegrees>-0.13248226605355739593505859375</LongitudeDegrees>
            </Position>
            <AltitudeMeters>2864.800048828125</AltitudeMeters>
            <DistanceMeters>17335.849445457</DistanceMeters>
          </Trackpoint>
          <Trackpoint>
            <Time>2022-07-09T14:22:48.000Z</Time>
            <Position>
              <LatitudeDegrees>42.77613398618996143341064453125</LatitudeDegrees>
              <LongitudeDegrees>-0.13249198906123638153076171875</LongitudeDegrees>
            </Position>
            <AltitudeMeters>2864.800048828125</AltitudeMeters>
            <DistanceMeters>17336.997657615</DistanceMeters>
          </Trackpoint>
          <Trackpoint>
            <Time>2022-07-09T14:22:49.000Z</Time>
            <Position>
              <LatitudeDegrees>42.77614136226475238800048828125</LatitudeDegrees>
              <LongitudeDegrees>-0.1324989460408687591552734375</LongitudeDegrees>
            </Position>
            <AltitudeMeters>2864.199951171875</AltitudeMeters>
            <DistanceMeters>17337.994306204</DistanceMeters>
          </Trackpoint>
          <Trackpoint>
            <Time>2022-07-09T14:22:50.000Z</Time>
            <Position>
              <LatitudeDegrees>42.77615007944405078887939453125</LatitudeDegrees>
              <LongitudeDegrees>-0.1325078308582305908203125</LongitudeDegrees>
            </Position>
            <AltitudeMeters>2863.800048828125</AltitudeMeters>
            <DistanceMeters>17339.203798818</DistanceMeters>
          </Trackpoint>
          <Trackpoint>
            <Time>2022-07-09T14:22:53.000Z</Time>
            <Position>
              <LatitudeDegrees>42.77617338113486766815185546875</LatitudeDegrees>
              <LongitudeDegrees>-0.1325428672134876251220703125</LongitudeDegrees>
            </Position>
            <AltitudeMeters>2863.39990234375</AltitudeMeters>
            <DistanceMeters>17343.066140891</DistanceMeters>
          </Trackpoint>
          <Trackpoint>
            <Time>2022-07-09T14:22:55.000Z</Time>
            <Position>
              <LatitudeDegrees>42.77618612162768840789794921875</LatitudeDegrees>
              <LongitudeDegrees>-0.1325559429824352264404296875</LongitudeDegrees>
            </Position>
            <AltitudeMeters>2863</AltitudeMeters>
            <DistanceMeters>17344.84392793</DistanceMeters>
          </Trackpoint>
          <Trackpoint>
            <Time>2022-07-09T14:22:56.000Z</Time>
            <Position>
              <LatitudeDegrees>42.7761927433311939239501953125</LatitudeDegrees>
              <LongitudeDegrees>-0.13255921192467212677001953125</LongitudeDegrees>
            </Position>
            <AltitudeMeters>2863</AltitudeMeters>
            <DistanceMeters>17345.627538291</DistanceMeters>
          </Trackpoint>
          <Trackpoint>
            <Time>2022-07-09T14:23:00.000Z</Time>
            <Position>
              <LatitudeDegrees>42.77621378190815448760986328125</LatitudeDegrees>
              <LongitudeDegrees>-0.13256482779979705810546875</LongitudeDegrees>
            </Position>
            <AltitudeMeters>2862.39990234375</AltitudeMeters>
            <DistanceMeters>17348.012689892</DistanceMeters>
          </Trackpoint>
          <Trackpoint>
            <Time>2022-07-09T14:23:02.000Z</Time>
            <Position>
              <LatitudeDegrees>42.77622518129646778106689453125</LatitudeDegrees>
              <LongitudeDegrees>-0.13256239704787731170654296875</LongitudeDegrees>
            </Position>
            <AltitudeMeters>2861.800048828125</AltitudeMeters>
            <DistanceMeters>17349.294670357</DistanceMeters>
          </Trackpoint>
          <Trackpoint>
            <Time>2022-07-09T14:23:05.000Z</Time>
            <Position>
              <LatitudeDegrees>42.77624529786407947540283203125</LatitudeDegrees>
              <LongitudeDegrees>-0.132530294358730316162109375</LongitudeDegrees>
            </Position>
            <AltitudeMeters>2860.800048828125</AltitudeMeters>
            <DistanceMeters>17352.741927324</DistanceMeters>
          </Trackpoint>
          <Trackpoint>
            <Time>2022-07-09T14:23:07.000Z</Time>
            <Position>
              <LatitudeDegrees>42.77624948881566524505615234375</LatitudeDegrees>
              <LongitudeDegrees>-0.13248729519546031951904296875</LongitudeDegrees>
            </Position>
            <AltitudeMeters>2860.39990234375</AltitudeMeters>
            <DistanceMeters>17356.284780166</DistanceMeters>
          </Trackpoint>
          <Trackpoint>
            <Time>2022-07-09T14:23:10.000Z</Time>
            <Position>
              <LatitudeDegrees>42.7762520872056484222412109375</LatitudeDegrees>
              <LongitudeDegrees>-0.13245427049696445465087890625</LongitudeDegrees>
            </Position>
            <AltitudeMeters>2859.60009765625</AltitudeMeters>
            <DistanceMeters>17358.999286084</DistanceMeters>
          </Trackpoint>
          <Trackpoint>
            <Time>2022-07-09T14:23:12.000Z</Time>
            <Position>
              <LatitudeDegrees>42.7762752212584018707275390625</LatitudeDegrees>
              <LongitudeDegrees>-0.13246868737041950225830078125</LongitudeDegrees>
            </Position>
            <AltitudeMeters>2858.800048828125</AltitudeMeters>
            <DistanceMeters>17361.831018395</DistanceMeters>
          </Trackpoint>
          <Trackpoint>
            <Time>2022-07-09T14:23:13.000Z</Time>
            <Position>
              <LatitudeDegrees>42.776288799941539764404296875</LatitudeDegrees>
              <LongitudeDegrees>-0.13247824274003505706787109375</LongitudeDegrees>
            </Position>
            <AltitudeMeters>2858.39990234375</AltitudeMeters>
            <DistanceMeters>17363.530907939</DistanceMeters>
          </Trackpoint>
          <Trackpoint>
            <Time>2022-07-09T14:23:15.000Z</Time>
            <Position>
              <LatitudeDegrees>42.77630413882434368133544921875</LatitudeDegrees>
              <LongitudeDegrees>-0.13248695991933345794677734375</LongitudeDegrees>
            </Position>
            <AltitudeMeters>2857.800048828125</AltitudeMeters>
            <DistanceMeters>17365.378438425</DistanceMeters>
          </Trackpoint>
          <Trackpoint>
            <Time>2022-07-09T14:23:17.000Z</Time>
            <Position>
              <LatitudeDegrees>42.77631721459329128265380859375</LatitudeDegrees>
              <LongitudeDegrees>-0.1324597187340259552001953125</LongitudeDegrees>
            </Position>
            <AltitudeMeters>2857.39990234375</AltitudeMeters>
            <DistanceMeters>17368.035790449</DistanceMeters>
          </Trackpoint>
          <Trackpoint>
            <Time>2022-07-09T14:23:21.000Z</Time>
            <Position>
              <LatitudeDegrees>42.7763305418193340301513671875</LatitudeDegrees>
              <LongitudeDegrees>-0.13245410285890102386474609375</LongitudeDegrees>
            </Position>
            <AltitudeMeters>2856.199951171875</AltitudeMeters>
            <DistanceMeters>17369.588539756</DistanceMeters>
          </Trackpoint>
          <Trackpoint>
            <Time>2022-07-09T14:23:22.000Z</Time>
            <Position>
              <LatitudeDegrees>42.7763372473418712615966796875</LatitudeDegrees>
              <LongitudeDegrees>-0.13245695270597934722900390625</LongitudeDegrees>
            </Position>
            <AltitudeMeters>2855.60009765625</AltitudeMeters>
            <DistanceMeters>17370.372150117</DistanceMeters>
          </Trackpoint>
          <Trackpoint>
            <Time>2022-07-09T14:23:23.000Z</Time>
            <Position>
              <LatitudeDegrees>42.7763462997972965240478515625</LatitudeDegrees>
              <LongitudeDegrees>-0.13246499933302402496337890625</LongitudeDegrees>
            </Position>
            <AltitudeMeters>2855.199951171875</AltitudeMeters>
            <DistanceMeters>17371.574153541</DistanceMeters>
          </Trackpoint>
          <Trackpoint>
            <Time>2022-07-09T14:23:24.000Z</Time>
            <Position>
              <LatitudeDegrees>42.77635208331048488616943359375</LatitudeDegrees>
              <LongitudeDegrees>-0.13247271068394184112548828125</LongitudeDegrees>
            </Position>
            <AltitudeMeters>2854.60009765625</AltitudeMeters>
            <DistanceMeters>17372.475656109</DistanceMeters>
          </Trackpoint>
          <Trackpoint>
            <Time>2022-07-09T14:23:28.000Z</Time>
            <Position>
              <LatitudeDegrees>42.77638502418994903564453125</LatitudeDegrees>
              <LongitudeDegrees>-0.13248310424387454986572265625</LongitudeDegrees>
            </Position>
            <AltitudeMeters>2853.800048828125</AltitudeMeters>
            <DistanceMeters>17376.240921042</DistanceMeters>
          </Trackpoint>
          <Trackpoint>
            <Time>2022-07-09T14:23:29.000Z</Time>
            <Position>
              <LatitudeDegrees>42.77639147825539112091064453125</LatitudeDegrees>
              <LongitudeDegrees>-0.13248411007225513458251953125</LongitudeDegrees>
            </Position>
            <AltitudeMeters>2853.39990234375</AltitudeMeters>
            <DistanceMeters>17376.964622938</DistanceMeters>
          </Trackpoint>
          <Trackpoint>
            <Time>2022-07-09T14:23:30.000Z</Time>
            <Position>
              <LatitudeDegrees>42.77639701031148433685302734375</LatitudeDegrees>
              <LongitudeDegrees>-0.13248796574771404266357421875</LongitudeDegrees>
            </Position>
            <AltitudeMeters>2852.39990234375</AltitudeMeters>
            <DistanceMeters>17377.656427861</DistanceMeters>
          </Trackpoint>
          <Trackpoint>
            <Time>2022-07-09T14:23:31.000Z</Time>
            <Position>
              <LatitudeDegrees>42.77640220709145069122314453125</LatitudeDegrees>
              <LongitudeDegrees>-0.13249517418444156646728515625</LongitudeDegrees>
            </Position>
            <AltitudeMeters>2852</AltitudeMeters>
            <DistanceMeters>17378.48485155</DistanceMeters>
          </Trackpoint>
          <Trackpoint>
            <Time>2022-07-09T14:23:32.000Z</Time>
            <Position>
              <LatitudeDegrees>42.7764086611568927764892578125</LatitudeDegrees>
              <LongitudeDegrees>-0.13250540010631084442138671875</LongitudeDegrees>
            </Position>
            <AltitudeMeters>2851.60009765625</AltitudeMeters>
            <DistanceMeters>17379.584865297</DistanceMeters>
          </Trackpoint>
          <Trackpoint>
            <Time>2022-07-09T14:23:35.000Z</Time>
            <Position>
              <LatitudeDegrees>42.77642299421131610870361328125</LatitudeDegrees>
              <LongitudeDegrees>-0.13249265961349010467529296875</LongitudeDegrees>
            </Position>
            <AltitudeMeters>2850.60009765625</AltitudeMeters>
            <DistanceMeters>17381.490144996</DistanceMeters>
          </Trackpoint>
          <Trackpoint>
            <Time>2022-07-09T14:23:36.000Z</Time>
            <Position>
              <LatitudeDegrees>42.77642735280096530914306640625</LatitudeDegrees>
              <LongitudeDegrees>-0.13247706927359104156494140625</LongitudeDegrees>
            </Position>
            <AltitudeMeters>2850.199951171875</AltitudeMeters>
            <DistanceMeters>17382.854034928</DistanceMeters>
          </Trackpoint>
          <Trackpoint>
            <Time>2022-07-09T14:23:38.000Z</Time>
            <Position>
              <LatitudeDegrees>42.77643238194286823272705078125</LatitudeDegrees>
              <LongitudeDegrees>-0.1324453018605709075927734375</LongitudeDegrees>
            </Position>
            <AltitudeMeters>2849.60009765625</AltitudeMeters>
            <DistanceMeters>17385.507986629</DistanceMeters>
          </Trackpoint>
          <Trackpoint>
            <Time>2022-07-09T14:23:40.000Z</Time>
            <Position>
              <LatitudeDegrees>42.7764485590159893035888671875</LatitudeDegrees>
              <LongitudeDegrees>-0.1324315555393695831298828125</LongitudeDegrees>
            </Position>
            <AltitudeMeters>2849.199951171875</AltitudeMeters>
            <DistanceMeters>17387.628594577</DistanceMeters>
          </Trackpoint>
          <Trackpoint>
            <Time>2022-07-09T14:23:41.000Z</Time>
            <Position>
              <LatitudeDegrees>42.776457108557224273681640625</LatitudeDegrees>
              <LongitudeDegrees>-0.1324396021664142608642578125</LongitudeDegrees>
            </Position>
            <AltitudeMeters>2849</AltitudeMeters>
            <DistanceMeters>17388.784644452</DistanceMeters>
          </Trackpoint>
          <Trackpoint>
            <Time>2022-07-09T14:23:43.000Z</Time>
            <Position>
              <LatitudeDegrees>42.776471190154552459716796875</LatitudeDegrees>
              <LongitudeDegrees>-0.13243985362350940704345703125</LongitudeDegrees>
            </Position>
            <AltitudeMeters>2848.39990234375</AltitudeMeters>
            <DistanceMeters>17390.351865174</DistanceMeters>
          </Trackpoint>
          <Trackpoint>
            <Time>2022-07-09T14:23:45.000Z</Time>
            <Position>
              <LatitudeDegrees>42.7764844335615634918212890625</LatitudeDegrees>
              <LongitudeDegrees>-0.13240800239145755767822265625</LongitudeDegrees>
            </Position>
            <AltitudeMeters>2847.60009765625</AltitudeMeters>
            <DistanceMeters>17393.341810939</DistanceMeters>
          </Trackpoint>
          <Trackpoint>
            <Time>2022-07-09T14:23:46.000Z</Time>
            <Position>
              <LatitudeDegrees>42.7764897979795932769775390625</LatitudeDegrees>
              <LongitudeDegrees>-0.13239693827927112579345703125</LongitudeDegrees>
            </Position>
            <AltitudeMeters>2847.199951171875</AltitudeMeters>
            <DistanceMeters>17394.425282184</DistanceMeters>
          </Trackpoint>
          <Trackpoint>
            <Time>2022-07-09T14:23:49.000Z</Time>
            <Position>
              <LatitudeDegrees>42.7765115909278392791748046875</LatitudeDegrees>
              <LongitudeDegrees>-0.132396519184112548828125</LongitudeDegrees>
            </Position>
            <AltitudeMeters>2846.39990234375</AltitudeMeters>
            <DistanceMeters>17396.85172193</DistanceMeters>
          </Trackpoint>
          <Trackpoint>
            <Time>2022-07-09T14:23:50.000Z</Time>
            <Position>
              <LatitudeDegrees>42.77652223594486713409423828125</LatitudeDegrees>
              <LongitudeDegrees>-0.13240314088761806488037109375</LongitudeDegrees>
            </Position>
            <AltitudeMeters>2846</AltitudeMeters>
            <DistanceMeters>17398.154662593</DistanceMeters>
          </Trackpoint>
          <Trackpoint>
            <Time>2022-07-09T14:23:51.000Z</Time>
            <Position>
              <LatitudeDegrees>42.77653447352349758148193359375</LatitudeDegrees>
              <LongitudeDegrees>-0.132413618266582489013671875</LongitudeDegrees>
            </Position>
            <AltitudeMeters>2845.60009765625</AltitudeMeters>
            <DistanceMeters>17399.764517226</DistanceMeters>
          </Trackpoint>
          <Trackpoint>
            <Time>2022-07-09T14:23:53.000Z</Time>
            <Position>
              <LatitudeDegrees>42.77655106969177722930908203125</LatitudeDegrees>
              <LongitudeDegrees>-0.1324282027781009674072265625</LongitudeDegrees>
            </Position>
            <AltitudeMeters>2845</AltitudeMeters>
            <DistanceMeters>17401.96454472</DistanceMeters>
          </Trackpoint>
          <Trackpoint>
            <Time>2022-07-09T14:23:54.000Z</Time>
            <Position>
              <LatitudeDegrees>42.77655811049044132232666015625</LatitudeDegrees>
              <LongitudeDegrees>-0.13242426328361034393310546875</LongitudeDegrees>
            </Position>
            <AltitudeMeters>2845</AltitudeMeters>
            <DistanceMeters>17402.814489492</DistanceMeters>
          </Trackpoint>
          <Trackpoint>
            <Time>2022-07-09T14:23:55.000Z</Time>
            <Position>
              <LatitudeDegrees>42.7765669114887714385986328125</LatitudeDegrees>
              <LongitudeDegrees>-0.1324043981730937957763671875</LongitudeDegrees>
            </Position>
            <AltitudeMeters>2844.60009765625</AltitudeMeters>
            <DistanceMeters>17404.71026649</DistanceMeters>
          </Trackpoint>
          <Trackpoint>
            <Time>2022-07-09T14:23:57.000Z</Time>
            <Position>
              <LatitudeDegrees>42.77656816877424716949462890625</LatitudeDegrees>
              <LongitudeDegrees>-0.13237883336842060089111328125</LongitudeDegrees>
            </Position>
            <AltitudeMeters>2843.800048828125</AltitudeMeters>
            <DistanceMeters>17406.803012789</DistanceMeters>
          </Trackpoint>
          <Trackpoint>
            <Time>2022-07-09T14:23:58.000Z</Time>
            <Position>
              <LatitudeDegrees>42.7765707671642303466796875</LatitudeDegrees>
              <LongitudeDegrees>-0.1323775760829448699951171875</LongitudeDegrees>
            </Position>
            <AltitudeMeters>2843.39990234375</AltitudeMeters>
            <DistanceMeters>17407.103513645</DistanceMeters>
          </Trackpoint>
          <Trackpoint>
            <Time>2022-07-09T14:24:00.000Z</Time>
            <Position>
              <LatitudeDegrees>42.77658476494252681732177734375</LatitudeDegrees>
              <LongitudeDegrees>-0.13238620944321155548095703125</LongitudeDegrees>
            </Position>
            <AltitudeMeters>2842.60009765625</AltitudeMeters>
            <DistanceMeters>17408.813994504</DistanceMeters>
          </Trackpoint>
          <Trackpoint>
            <Time>2022-07-09T14:24:02.000Z</Time>
            <Position>
              <LatitudeDegrees>42.7765954099595546722412109375</LatitudeDegrees>
              <LongitudeDegrees>-0.132406242191791534423828125</LongitudeDegrees>
            </Position>
            <AltitudeMeters>2841.199951171875</AltitudeMeters>
            <DistanceMeters>17410.834290164</DistanceMeters>
          </Trackpoint>
          <Trackpoint>
            <Time>2022-07-09T14:24:04.000Z</Time>
            <Position>
              <LatitudeDegrees>42.77661301195621490478515625</LatitudeDegrees>
              <LongitudeDegrees>-0.1324211619794368743896484375</LongitudeDegrees>
            </Position>
            <AltitudeMeters>2840.60009765625</AltitudeMeters>
            <DistanceMeters>17413.138565527</DistanceMeters>
          </Trackpoint>
          <Trackpoint>
            <Time>2022-07-09T14:24:06.000Z</Time>
            <Position>
              <LatitudeDegrees>42.7766286022961139678955078125</LatitudeDegrees>
              <LongitudeDegrees>-0.13240247033536434173583984375</LongitudeDegrees>
            </Position>
            <AltitudeMeters>2840.199951171875</AltitudeMeters>
            <DistanceMeters>17415.450665277</DistanceMeters>
          </Trackpoint>
          <Trackpoint>
            <Time>2022-07-09T14:24:07.000Z</Time>
            <Position>
              <LatitudeDegrees>42.7766316197812557220458984375</LatitudeDegrees>
              <LongitudeDegrees>-0.13239190913736820220947265625</LongitudeDegrees>
            </Position>
            <AltitudeMeters>2840</AltitudeMeters>
            <DistanceMeters>17416.376871119</DistanceMeters>
          </Trackpoint>
          <Trackpoint>
            <Time>2022-07-09T14:24:10.000Z</Time>
            <Position>
              <LatitudeDegrees>42.776640839874744415283203125</LatitudeDegrees>
              <LongitudeDegrees>-0.1323862932622432708740234375</LongitudeDegrees>
            </Position>
            <AltitudeMeters>2839.39990234375</AltitudeMeters>
            <DistanceMeters>17417.501242367</DistanceMeters>
          </Trackpoint>
          <Trackpoint>
            <Time>2022-07-09T14:24:11.000Z</Time>
            <Position>
              <LatitudeDegrees>42.7766490541398525238037109375</LatitudeDegrees>
              <LongitudeDegrees>-0.1323978602886199951171875</LongitudeDegrees>
            </Position>
            <AltitudeMeters>2838.800048828125</AltitudeMeters>
            <DistanceMeters>17418.817971146</DistanceMeters>
          </Trackpoint>
          <Trackpoint>
            <Time>2022-07-09T14:24:12.000Z</Time>
            <Position>
              <LatitudeDegrees>42.77665324509143829345703125</LatitudeDegrees>
              <LongitudeDegrees>-0.1324121095240116119384765625</LongitudeDegrees>
            </Position>
            <AltitudeMeters>2838.39990234375</AltitudeMeters>
            <DistanceMeters>17420.071459598</DistanceMeters>
          </Trackpoint>
          <Trackpoint>
            <Time>2022-07-09T14:24:13.000Z</Time>
            <Position>
              <LatitudeDegrees>42.7766592800617218017578125</LatitudeDegrees>
              <LongitudeDegrees>-0.132423676550388336181640625</LongitudeDegrees>
            </Position>
            <AltitudeMeters>2837.60009765625</AltitudeMeters>
            <DistanceMeters>17421.227509474</DistanceMeters>
          </Trackpoint>
          <Trackpoint>
            <Time>2022-07-09T14:24:17.000Z</Time>
            <Position>
              <LatitudeDegrees>42.77667202055454254150390625</LatitudeDegrees>
              <LongitudeDegrees>-0.1324168033897876739501953125</LongitudeDegrees>
            </Position>
            <AltitudeMeters>2836.60009765625</AltitudeMeters>
            <DistanceMeters>17422.750903594</DistanceMeters>
          </Trackpoint>
          <Trackpoint>
            <Time>2022-07-09T14:24:21.000Z</Time>
            <Position>
              <LatitudeDegrees>42.77667202055454254150390625</LatitudeDegrees>
              <LongitudeDegrees>-0.13238654471933841705322265625</LongitudeDegrees>
            </Position>
            <AltitudeMeters>2835.199951171875</AltitudeMeters>
            <DistanceMeters>17425.221598168</DistanceMeters>
          </Trackpoint>
          <Trackpoint>
            <Time>2022-07-09T14:24:22.000Z</Time>
            <Position>
              <LatitudeDegrees>42.77668266557157039642333984375</LatitudeDegrees>
              <LongitudeDegrees>-0.132397525012493133544921875</LongitudeDegrees>
            </Position>
            <AltitudeMeters>2834.800048828125</AltitudeMeters>
            <DistanceMeters>17426.705962898</DistanceMeters>
          </Trackpoint>
          <Trackpoint>
            <Time>2022-07-09T14:24:24.000Z</Time>
            <Position>
              <LatitudeDegrees>42.77670144103467464447021484375</LatitudeDegrees>
              <LongitudeDegrees>-0.1324127800762653350830078125</LongitudeDegrees>
            </Position>
            <AltitudeMeters>2834</AltitudeMeters>
            <DistanceMeters>17429.13983433</DistanceMeters>
          </Trackpoint>
          <Trackpoint>
            <Time>2022-07-09T14:24:29.000Z</Time>
            <Position>
              <LatitudeDegrees>42.77672474272549152374267578125</LatitudeDegrees>
              <LongitudeDegrees>-0.13245158828794956207275390625</LongitudeDegrees>
            </Position>
            <AltitudeMeters>2832.800048828125</AltitudeMeters>
            <DistanceMeters>17433.235915632</DistanceMeters>
          </Trackpoint>
          <Trackpoint>
            <Time>2022-07-09T14:24:33.000Z</Time>
            <Position>
              <LatitudeDegrees>42.7767405845224857330322265625</LatitudeDegrees>
              <LongitudeDegrees>-0.13247086666524410247802734375</LongitudeDegrees>
            </Position>
            <AltitudeMeters>2831.800048828125</AltitudeMeters>
            <DistanceMeters>17435.59824229</DistanceMeters>
          </Trackpoint>
          <Trackpoint>
            <Time>2022-07-09T14:24:35.000Z</Time>
            <Position>
              <LatitudeDegrees>42.776744104921817779541015625</LatitudeDegrees>
              <LongitudeDegrees>-0.13245376758277416229248046875</LongitudeDegrees>
            </Position>
            <AltitudeMeters>2831.39990234375</AltitudeMeters>
            <DistanceMeters>17437.045646082</DistanceMeters>
          </Trackpoint>
          <Trackpoint>
            <Time>2022-07-09T14:24:36.000Z</Time>
            <Position>
              <LatitudeDegrees>42.77674653567373752593994140625</LatitudeDegrees>
              <LongitudeDegrees>-0.132445134222507476806640625</LongitudeDegrees>
            </Position>
            <AltitudeMeters>2831.199951171875</AltitudeMeters>
            <DistanceMeters>17437.799897244</DistanceMeters>
          </Trackpoint>
          <Trackpoint>
            <Time>2022-07-09T14:24:40.000Z</Time>
            <Position>
              <LatitudeDegrees>42.7767493017017841339111328125</LatitudeDegrees>
              <LongitudeDegrees>-0.13244102708995342254638671875</LongitudeDegrees>
            </Position>
            <AltitudeMeters>2830.60009765625</AltitudeMeters>
            <DistanceMeters>17438.255629356</DistanceMeters>
          </Trackpoint>
          <Trackpoint>
            <Time>2022-07-09T14:24:42.000Z</Time>
            <Position>
              <LatitudeDegrees>42.77675709687173366546630859375</LatitudeDegrees>
              <LongitudeDegrees>-0.13244287110865116119384765625</LongitudeDegrees>
            </Position>
            <AltitudeMeters>2830</AltitudeMeters>
            <DistanceMeters>17439.136870852</DistanceMeters>
          </Trackpoint>
          <Trackpoint>
            <Time>2022-07-09T14:24:45.000Z</Time>
            <Position>
              <LatitudeDegrees>42.776764892041683197021484375</LatitudeDegrees>
              <LongitudeDegrees>-0.132427029311656951904296875</LongitudeDegrees>
            </Position>
            <AltitudeMeters>2829.60009765625</AltitudeMeters>
            <DistanceMeters>17440.692525212</DistanceMeters>
          </Trackpoint>
          <Trackpoint>
            <Time>2022-07-09T14:24:47.000Z</Time>
            <Position>
              <LatitudeDegrees>42.77677017264068126678466796875</LatitudeDegrees>
              <LongitudeDegrees>-0.13242577202618122100830078125</LongitudeDegrees>
            </Position>
            <AltitudeMeters>2829.39990234375</AltitudeMeters>
            <DistanceMeters>17441.293526924</DistanceMeters>
          </Trackpoint>
          <Trackpoint>
            <Time>2022-07-09T14:24:48.000Z</Time>
            <Position>
              <LatitudeDegrees>42.776772938668727874755859375</LatitudeDegrees>
              <LongitudeDegrees>-0.13242443092167377471923828125</LongitudeDegrees>
            </Position>
            <AltitudeMeters>2829.199951171875</AltitudeMeters>
            <DistanceMeters>17441.622709119</DistanceMeters>
          </Trackpoint>
          <Trackpoint>
            <Time>2022-07-09T14:24:49.000Z</Time>
            <Position>
              <LatitudeDegrees>42.7767798118293285369873046875</LatitudeDegrees>
              <LongitudeDegrees>-0.1324178092181682586669921875</LongitudeDegrees>
            </Position>
            <AltitudeMeters>2828.60009765625</AltitudeMeters>
            <DistanceMeters>17442.563425597</DistanceMeters>
          </Trackpoint>
          <Trackpoint>
            <Time>2022-07-09T14:24:54.000Z</Time>
            <Position>
              <LatitudeDegrees>42.77679800055921077728271484375</LatitudeDegrees>
              <LongitudeDegrees>-0.13239157386124134063720703125</LongitudeDegrees>
            </Position>
            <AltitudeMeters>2827.800048828125</AltitudeMeters>
            <DistanceMeters>17445.512317527</DistanceMeters>
          </Trackpoint>
          <Trackpoint>
            <Time>2022-07-09T14:24:57.000Z</Time>
            <Position>
              <LatitudeDegrees>42.7767982520163059234619140625</LatitudeDegrees>
              <LongitudeDegrees>-0.13240498490631580352783203125</LongitudeDegrees>
            </Position>
            <AltitudeMeters>2827.39990234375</AltitudeMeters>
            <DistanceMeters>17446.608219058</DistanceMeters>
          </Trackpoint>
          <Trackpoint>
            <Time>2022-07-09T14:25:00.000Z</Time>
            <Position>
              <LatitudeDegrees>42.77679850347340106964111328125</LatitudeDegrees>
              <LongitudeDegrees>-0.1324141211807727813720703125</LongitudeDegrees>
            </Position>
            <AltitudeMeters>2827</AltitudeMeters>
            <DistanceMeters>17447.356460156</DistanceMeters>
          </Trackpoint>
          <Trackpoint>
            <Time>2022-07-09T14:25:05.000Z</Time>
            <Position>
              <LatitudeDegrees>42.77681945823132991790771484375</LatitudeDegrees>
              <LongitudeDegrees>-0.132408924400806427001953125</LongitudeDegrees>
            </Position>
            <AltitudeMeters>2826.199951171875</AltitudeMeters>
            <DistanceMeters>17449.726419553</DistanceMeters>
          </Trackpoint>
          <Trackpoint>
            <Time>2022-07-09T14:25:07.000Z</Time>
            <Position>
              <LatitudeDegrees>42.77683068998157978057861328125</LatitudeDegrees>
              <LongitudeDegrees>-0.13240649364888668060302734375</LongitudeDegrees>
            </Position>
            <AltitudeMeters>2825.60009765625</AltitudeMeters>
            <DistanceMeters>17450.98709138</DistanceMeters>
          </Trackpoint>
          <Trackpoint>
            <Time>2022-07-09T14:25:11.000Z</Time>
            <Position>
              <LatitudeDegrees>42.77684041298925876617431640625</LatitudeDegrees>
              <LongitudeDegrees>-0.13238822109997272491455078125</LongitudeDegrees>
            </Position>
            <AltitudeMeters>2825.199951171875</AltitudeMeters>
            <DistanceMeters>17452.832176424</DistanceMeters>
          </Trackpoint>
          <Trackpoint>
            <Time>2022-07-09T14:25:13.000Z</Time>
            <Position>
              <LatitudeDegrees>42.7768475376069545745849609375</LatitudeDegrees>
              <LongitudeDegrees>-0.13236701488494873046875</LongitudeDegrees>
            </Position>
            <AltitudeMeters>2824.800048828125</AltitudeMeters>
            <DistanceMeters>17454.737456123</DistanceMeters>
          </Trackpoint>
          <Trackpoint>
            <Time>2022-07-09T14:25:15.000Z</Time>
            <Position>
              <LatitudeDegrees>42.77685767970979213714599609375</LatitudeDegrees>
              <LongitudeDegrees>-0.13235687278211116790771484375</LongitudeDegrees>
            </Position>
            <AltitudeMeters>2824.39990234375</AltitudeMeters>
            <DistanceMeters>17456.137287037</DistanceMeters>
          </Trackpoint>
          <Trackpoint>
            <Time>2022-07-09T14:25:18.000Z</Time>
            <Position>
              <LatitudeDegrees>42.776875197887420654296875</LatitudeDegrees>
              <LongitudeDegrees>-0.13234396465122699737548828125</LongitudeDegrees>
            </Position>
            <AltitudeMeters>2824.199951171875</AltitudeMeters>
            <DistanceMeters>17458.353671838</DistanceMeters>
          </Trackpoint>
          <Trackpoint>
            <Time>2022-07-09T14:25:19.000Z</Time>
            <Position>
              <LatitudeDegrees>42.77687796391546726226806640625</LatitudeDegrees>
              <LongitudeDegrees>-0.13234077952802181243896484375</LongitudeDegrees>
            </Position>
            <AltitudeMeters>2823.800048828125</AltitudeMeters>
            <DistanceMeters>17458.767883683</DistanceMeters>
          </Trackpoint>
          <Trackpoint>
            <Time>2022-07-09T14:25:21.000Z</Time>
            <Position>
              <LatitudeDegrees>42.77688366360962390899658203125</LatitudeDegrees>
              <LongitudeDegrees>-0.1323430426418781280517578125</LongitudeDegrees>
            </Position>
            <AltitudeMeters>2823.39990234375</AltitudeMeters>
            <DistanceMeters>17459.426248072</DistanceMeters>
          </Trackpoint>
          <Trackpoint>
            <Time>2022-07-09T14:25:24.000Z</Time>
            <Position>
              <LatitudeDegrees>42.77689355425536632537841796875</LatitudeDegrees>
              <LongitudeDegrees>-0.132354609668254852294921875</LongitudeDegrees>
            </Position>
            <AltitudeMeters>2822.800048828125</AltitudeMeters>
            <DistanceMeters>17460.876767914</DistanceMeters>
          </Trackpoint>
          <Trackpoint>
            <Time>2022-07-09T14:25:27.000Z</Time>
            <Position>
              <LatitudeDegrees>42.77690260671079158782958984375</LatitudeDegrees>
              <LongitudeDegrees>-0.13237263076007366180419921875</LongitudeDegrees>
            </Position>
            <AltitudeMeters>2822.39990234375</AltitudeMeters>
            <DistanceMeters>17462.664684875</DistanceMeters>
          </Trackpoint>
          <Trackpoint>
            <Time>2022-07-09T14:25:32.000Z</Time>
            <Position>
              <LatitudeDegrees>42.77691878378391265869140625</LatitudeDegrees>
              <LongitudeDegrees>-0.13238620944321155548095703125</LongitudeDegrees>
            </Position>
            <AltitudeMeters>2821.800048828125</AltitudeMeters>
            <DistanceMeters>17464.778895801</DistanceMeters>
          </Trackpoint>
          <Trackpoint>
            <Time>2022-07-09T14:25:34.000Z</Time>
            <Position>
              <LatitudeDegrees>42.77692724950611591339111328125</LatitudeDegrees>
              <LongitudeDegrees>-0.13238637708127498626708984375</LongitudeDegrees>
            </Position>
            <AltitudeMeters>2821.199951171875</AltitudeMeters>
            <DistanceMeters>17465.719612279</DistanceMeters>
          </Trackpoint>
          <Trackpoint>
            <Time>2022-07-09T14:25:36.000Z</Time>
            <Position>
              <LatitudeDegrees>42.77693797834217548370361328125</LatitudeDegrees>
              <LongitudeDegrees>-0.1323909871280193328857421875</LongitudeDegrees>
            </Position>
            <AltitudeMeters>2820.60009765625</AltitudeMeters>
            <DistanceMeters>17466.973100732</DistanceMeters>
          </Trackpoint>
          <Trackpoint>
            <Time>2022-07-09T14:25:40.000Z</Time>
            <Position>
              <LatitudeDegrees>42.7769605256617069244384765625</LatitudeDegrees>
              <LongitudeDegrees>-0.132356621325016021728515625</LongitudeDegrees>
            </Position>
            <AltitudeMeters>2819.60009765625</AltitudeMeters>
            <DistanceMeters>17470.74076316</DistanceMeters>
          </Trackpoint>
          <Trackpoint>
            <Time>2022-07-09T14:25:46.000Z</Time>
            <Position>
              <LatitudeDegrees>42.77696245349943637847900390625</LatitudeDegrees>
              <LongitudeDegrees>-0.1323401927947998046875</LongitudeDegrees>
            </Position>
            <AltitudeMeters>2818.60009765625</AltitudeMeters>
            <DistanceMeters>17472.104653092</DistanceMeters>
          </Trackpoint>
          <Trackpoint>
            <Time>2022-07-09T14:25:47.000Z</Time>
            <Position>
              <LatitudeDegrees>42.7769655548036098480224609375</LatitudeDegrees>
              <LongitudeDegrees>-0.1323370076715946197509765625</LongitudeDegrees>
            </Position>
            <AltitudeMeters>2818.39990234375</AltitudeMeters>
            <DistanceMeters>17472.550367891</DistanceMeters>
          </Trackpoint>
          <Trackpoint>
            <Time>2022-07-09T14:25:53.000Z</Time>
            <Position>
              <LatitudeDegrees>42.7769833244383335113525390625</LatitudeDegrees>
              <LongitudeDegrees>-0.13232569210231304168701171875</LongitudeDegrees>
            </Position>
            <AltitudeMeters>2817</AltitudeMeters>
            <DistanceMeters>17474.735982321</DistanceMeters>
          </Trackpoint>
          <Trackpoint>
            <Time>2022-07-09T14:25:54.000Z</Time>
            <Position>
              <LatitudeDegrees>42.7769896946847438812255859375</LatitudeDegrees>
              <LongitudeDegrees>-0.13231328688561916351318359375</LongitudeDegrees>
            </Position>
            <AltitudeMeters>2816.800048828125</AltitudeMeters>
            <DistanceMeters>17475.974979091</DistanceMeters>
          </Trackpoint>
          <Trackpoint>
            <Time>2022-07-09T14:26:00.000Z</Time>
            <Position>
              <LatitudeDegrees>42.77700536884367465972900390625</LatitudeDegrees>
              <LongitudeDegrees>-0.1322649233043193817138671875</LongitudeDegrees>
            </Position>
            <AltitudeMeters>2816.199951171875</AltitudeMeters>
            <DistanceMeters>17480.294254254</DistanceMeters>
          </Trackpoint>
          <Trackpoint>
            <Time>2022-07-09T14:26:01.000Z</Time>
            <Position>
              <LatitudeDegrees>42.7770074643194675445556640625</LatitudeDegrees>
              <LongitudeDegrees>-0.1322736404836177825927734375</LongitudeDegrees>
            </Position>
            <AltitudeMeters>2816</AltitudeMeters>
            <DistanceMeters>17481.042495351</DistanceMeters>
          </Trackpoint>
          <Trackpoint>
            <Time>2022-07-09T14:26:02.000Z</Time>
            <Position>
              <LatitudeDegrees>42.7770128287374973297119140625</LatitudeDegrees>
              <LongitudeDegrees>-0.13227808289229869842529296875</LongitudeDegrees>
            </Position>
            <AltitudeMeters>2815.39990234375</AltitudeMeters>
            <DistanceMeters>17481.740796238</DistanceMeters>
          </Trackpoint>
          <Trackpoint>
            <Time>2022-07-09T14:26:05.000Z</Time>
            <Position>
              <LatitudeDegrees>42.777033112943172454833984375</LatitudeDegrees>
              <LongitudeDegrees>-0.13229518197476863861083984375</LongitudeDegrees>
            </Position>
            <AltitudeMeters>2814</AltitudeMeters>
            <DistanceMeters>17484.394747938</DistanceMeters>
          </Trackpoint>
          <Trackpoint>
            <Time>2022-07-09T14:26:07.000Z</Time>
            <Position>
              <LatitudeDegrees>42.77704275213181972503662109375</LatitudeDegrees>
              <LongitudeDegrees>-0.1322870515286922454833984375</LongitudeDegrees>
            </Position>
            <AltitudeMeters>2813.39990234375</AltitudeMeters>
            <DistanceMeters>17485.655419764</DistanceMeters>
          </Trackpoint>
          <Trackpoint>
            <Time>2022-07-09T14:26:09.000Z</Time>
            <Position>
              <LatitudeDegrees>42.777048535645008087158203125</LatitudeDegrees>
              <LongitudeDegrees>-0.1322729699313640594482421875</LongitudeDegrees>
            </Position>
            <AltitudeMeters>2813</AltitudeMeters>
            <DistanceMeters>17486.972148543</DistanceMeters>
          </Trackpoint>
          <Trackpoint>
            <Time>2022-07-09T14:26:10.000Z</Time>
            <Position>
              <LatitudeDegrees>42.77705398388206958770751953125</LatitudeDegrees>
              <LongitudeDegrees>-0.13227053917944431304931640625</LongitudeDegrees>
            </Position>
            <AltitudeMeters>2812.800048828125</AltitudeMeters>
            <DistanceMeters>17487.609607122</DistanceMeters>
          </Trackpoint>
          <Trackpoint>
            <Time>2022-07-09T14:26:11.000Z</Time>
            <Position>
              <LatitudeDegrees>42.77706764638423919677734375</LatitudeDegrees>
              <LongitudeDegrees>-0.13227246701717376708984375</LongitudeDegrees>
            </Position>
            <AltitudeMeters>2812.800048828125</AltitudeMeters>
            <DistanceMeters>17489.141866851</DistanceMeters>
          </Trackpoint>
          <Trackpoint>
            <Time>2022-07-09T14:26:12.000Z</Time>
            <Position>
              <LatitudeDegrees>42.7770772017538547515869140625</LatitudeDegrees>
              <LongitudeDegrees>-0.13226936571300029754638671875</LongitudeDegrees>
            </Position>
            <AltitudeMeters>2812.39990234375</AltitudeMeters>
            <DistanceMeters>17490.233640678</DistanceMeters>
          </Trackpoint>
          <Trackpoint>
            <Time>2022-07-09T14:26:14.000Z</Time>
            <Position>
              <LatitudeDegrees>42.777102179825305938720703125</LatitudeDegrees>
              <LongitudeDegrees>-0.13226735405623912811279296875</LongitudeDegrees>
            </Position>
            <AltitudeMeters>2811.800048828125</AltitudeMeters>
            <DistanceMeters>17493.020370974</DistanceMeters>
          </Trackpoint>
          <Trackpoint>
            <Time>2022-07-09T14:26:17.000Z</Time>
            <Position>
              <LatitudeDegrees>42.77713830582797527313232421875</LatitudeDegrees>
              <LongitudeDegrees>-0.1322758197784423828125</LongitudeDegrees>
            </Position>
            <AltitudeMeters>2810.60009765625</AltitudeMeters>
            <DistanceMeters>17497.099884534</DistanceMeters>
          </Trackpoint>
          <Trackpoint>
            <Time>2022-07-09T14:26:18.000Z</Time>
            <Position>
              <LatitudeDegrees>42.77714970521628856658935546875</LatitudeDegrees>
              <LongitudeDegrees>-0.1322800107300281524658203125</LongitudeDegrees>
            </Position>
            <AltitudeMeters>2810.39990234375</AltitudeMeters>
            <DistanceMeters>17498.409737398</DistanceMeters>
          </Trackpoint>
          <Trackpoint>
            <Time>2022-07-09T14:26:20.000Z</Time>
            <Position>
              <LatitudeDegrees>42.7771635353565216064453125</LatitudeDegrees>
              <LongitudeDegrees>-0.132276825606822967529296875</LongitudeDegrees>
            </Position>
            <AltitudeMeters>2809.39990234375</AltitudeMeters>
            <DistanceMeters>17499.971185648</DistanceMeters>
          </Trackpoint>
          <Trackpoint>
            <Time>2022-07-09T14:26:23.000Z</Time>
            <Position>
              <LatitudeDegrees>42.777161188423633575439453125</LatitudeDegrees>
              <LongitudeDegrees>-0.1322303898632526397705078125</LongitudeDegrees>
            </Position>
            <AltitudeMeters>2808</AltitudeMeters>
            <DistanceMeters>17503.774629149</DistanceMeters>
          </Trackpoint>
          <Trackpoint>
            <Time>2022-07-09T14:26:25.000Z</Time>
            <Position>
              <LatitudeDegrees>42.77715322561562061309814453125</LatitudeDegrees>
              <LongitudeDegrees>-0.132209770381450653076171875</LongitudeDegrees>
            </Position>
            <AltitudeMeters>2807.60009765625</AltitudeMeters>
            <DistanceMeters>17505.677537621</DistanceMeters>
          </Trackpoint>
          <Trackpoint>
            <Time>2022-07-09T14:26:27.000Z</Time>
            <Position>
              <LatitudeDegrees>42.777159847319126129150390625</LatitudeDegrees>
              <LongitudeDegrees>-0.1321978680789470672607421875</LongitudeDegrees>
            </Position>
            <AltitudeMeters>2807</AltitudeMeters>
            <DistanceMeters>17506.901871191</DistanceMeters>
          </Trackpoint>
          <Trackpoint>
            <Time>2022-07-09T14:26:28.000Z</Time>
            <Position>
              <LatitudeDegrees>42.77716948650777339935302734375</LatitudeDegrees>
              <LongitudeDegrees>-0.1321928389370441436767578125</LongitudeDegrees>
            </Position>
            <AltitudeMeters>2806.800048828125</AltitudeMeters>
            <DistanceMeters>17508.050083349</DistanceMeters>
          </Trackpoint>
          <Trackpoint>
            <Time>2022-07-09T14:26:32.000Z</Time>
            <Position>
              <LatitudeDegrees>42.7772086299955844879150390625</LatitudeDegrees>
              <LongitudeDegrees>-0.132166855037212371826171875</LongitudeDegrees>
            </Position>
            <AltitudeMeters>2806.39990234375</AltitudeMeters>
            <DistanceMeters>17512.895514058</DistanceMeters>
          </Trackpoint>
          <Trackpoint>
            <Time>2022-07-09T14:26:33.000Z</Time>
            <Position>
              <LatitudeDegrees>42.7772171795368194580078125</LatitudeDegrees>
              <LongitudeDegrees>-0.1321697048842906951904296875</LongitudeDegrees>
            </Position>
            <AltitudeMeters>2806</AltitudeMeters>
            <DistanceMeters>17513.873873963</DistanceMeters>
          </Trackpoint>
          <Trackpoint>
            <Time>2022-07-09T14:26:34.000Z</Time>
            <Position>
              <LatitudeDegrees>42.777223549783229827880859375</LatitudeDegrees>
              <LongitudeDegrees>-0.132172219455242156982421875</LongitudeDegrees>
            </Position>
            <AltitudeMeters>2805.800048828125</AltitudeMeters>
            <DistanceMeters>17514.609947727</DistanceMeters>
          </Trackpoint>
          <Trackpoint>
            <Time>2022-07-09T14:26:36.000Z</Time>
            <Position>
              <LatitudeDegrees>42.77724333107471466064453125</LatitudeDegrees>
              <LongitudeDegrees>-0.13218403793871402740478515625</LongitudeDegrees>
            </Position>
            <AltitudeMeters>2805</AltitudeMeters>
            <DistanceMeters>17517.013954575</DistanceMeters>
          </Trackpoint>
          <Trackpoint>
            <Time>2022-07-09T14:26:38.000Z</Time>
            <Position>
              <LatitudeDegrees>42.77725984342396259307861328125</LatitudeDegrees>
              <LongitudeDegrees>-0.13216651976108551025390625</LongitudeDegrees>
            </Position>
            <AltitudeMeters>2804.60009765625</AltitudeMeters>
            <DistanceMeters>17519.345500418</DistanceMeters>
          </Trackpoint>
          <Trackpoint>
            <Time>2022-07-09T14:26:39.000Z</Time>
            <Position>
              <LatitudeDegrees>42.777264118194580078125</LatitudeDegrees>
              <LongitudeDegrees>-0.13215486891567707061767578125</LongitudeDegrees>
            </Position>
            <AltitudeMeters>2804.199951171875</AltitudeMeters>
            <DistanceMeters>17520.412172642</DistanceMeters>
          </Trackpoint>
          <Trackpoint>
            <Time>2022-07-09T14:26:41.000Z</Time>
            <Position>
              <LatitudeDegrees>42.7772666327655315399169921875</LatitudeDegrees>
              <LongitudeDegrees>-0.13212268240749835968017578125</LongitudeDegrees>
            </Position>
            <AltitudeMeters>2803.199951171875</AltitudeMeters>
            <DistanceMeters>17523.057604411</DistanceMeters>
          </Trackpoint>
          <Trackpoint>
            <Time>2022-07-09T14:26:43.000Z</Time>
            <Position>
              <LatitudeDegrees>42.77725682593882083892822265625</LatitudeDegrees>
              <LongitudeDegrees>-0.13210608623921871185302734375</LongitudeDegrees>
            </Position>
            <AltitudeMeters>2802.60009765625</AltitudeMeters>
            <DistanceMeters>17524.799472857</DistanceMeters>
          </Trackpoint>
          <Trackpoint>
            <Time>2022-07-09T14:26:45.000Z</Time>
            <Position>
              <LatitudeDegrees>42.7772679738700389862060546875</LatitudeDegrees>
              <LongitudeDegrees>-0.1321006380021572113037109375</LongitudeDegrees>
            </Position>
            <AltitudeMeters>2802.199951171875</AltitudeMeters>
            <DistanceMeters>17526.116201636</DistanceMeters>
          </Trackpoint>
          <Trackpoint>
            <Time>2022-07-09T14:26:48.000Z</Time>
            <Position>
              <LatitudeDegrees>42.7773001603782176971435546875</LatitudeDegrees>
              <LongitudeDegrees>-0.13212251476943492889404296875</LongitudeDegrees>
            </Position>
            <AltitudeMeters>2801.39990234375</AltitudeMeters>
            <DistanceMeters>17530.120875876</DistanceMeters>
          </Trackpoint>
          <Trackpoint>
            <Time>2022-07-09T14:26:50.000Z</Time>
            <Position>
              <LatitudeDegrees>42.77731700800359249114990234375</LatitudeDegrees>
              <LongitudeDegrees>-0.132114887237548828125</LongitudeDegrees>
            </Position>
            <AltitudeMeters>2801</AltitudeMeters>
            <DistanceMeters>17532.095969044</DistanceMeters>
          </Trackpoint>
          <Trackpoint>
            <Time>2022-07-09T14:26:51.000Z</Time>
            <Position>
              <LatitudeDegrees>42.7773175947368144989013671875</LatitudeDegrees>
              <LongitudeDegrees>-0.13209736905992031097412109375</LongitudeDegrees>
            </Position>
            <AltitudeMeters>2800.39990234375</AltitudeMeters>
            <DistanceMeters>17533.527690858</DistanceMeters>
          </Trackpoint>
          <Trackpoint>
            <Time>2022-07-09T14:26:52.000Z</Time>
            <Position>
              <LatitudeDegrees>42.7773149125277996063232421875</LatitudeDegrees>
              <LongitudeDegrees>-0.132089070975780487060546875</LongitudeDegrees>
            </Position>
            <AltitudeMeters>2800</AltitudeMeters>
            <DistanceMeters>17534.263764622</DistanceMeters>
          </Trackpoint>
          <Trackpoint>
            <Time>2022-07-09T14:26:53.000Z</Time>
            <Position>
              <LatitudeDegrees>42.7773152478039264678955078125</LatitudeDegrees>
              <LongitudeDegrees>-0.1320811919867992401123046875</LongitudeDegrees>
            </Position>
            <AltitudeMeters>2799.39990234375</AltitudeMeters>
            <DistanceMeters>17534.908267157</DistanceMeters>
          </Trackpoint>
          <Trackpoint>
            <Time>2022-07-09T14:26:54.000Z</Time>
            <Position>
              <LatitudeDegrees>42.77731751091778278350830078125</LatitudeDegrees>
              <LongitudeDegrees>-0.1320818625390529632568359375</LongitudeDegrees>
            </Position>
            <AltitudeMeters>2798.800048828125</AltitudeMeters>
            <DistanceMeters>17535.177043293</DistanceMeters>
          </Trackpoint>
          <Trackpoint>
            <Time>2022-07-09T14:26:56.000Z</Time>
            <Position>
              <LatitudeDegrees>42.77732170186936855316162109375</LatitudeDegrees>
              <LongitudeDegrees>-0.1320738159120082855224609375</LongitudeDegrees>
            </Position>
            <AltitudeMeters>2798.39990234375</AltitudeMeters>
            <DistanceMeters>17535.988951897</DistanceMeters>
          </Trackpoint>
          <Trackpoint>
            <Time>2022-07-09T14:26:57.000Z</Time>
            <Position>
              <LatitudeDegrees>42.77731415815651416778564453125</LatitudeDegrees>
              <LongitudeDegrees>-0.13207490555942058563232421875</LongitudeDegrees>
            </Position>
            <AltitudeMeters>2798</AltitudeMeters>
            <DistanceMeters>17536.833567809</DistanceMeters>
          </Trackpoint>
          <Trackpoint>
            <Time>2022-07-09T14:26:59.000Z</Time>
            <Position>
              <LatitudeDegrees>42.77731843292713165283203125</LatitudeDegrees>
              <LongitudeDegrees>-0.13202846981585025787353515625</LongitudeDegrees>
            </Position>
            <AltitudeMeters>2797.199951171875</AltitudeMeters>
            <DistanceMeters>17540.657138622</DistanceMeters>
          </Trackpoint>
          <Trackpoint>
            <Time>2022-07-09T14:27:03.000Z</Time>
            <Position>
              <LatitudeDegrees>42.77734332717955112457275390625</LatitudeDegrees>
              <LongitudeDegrees>-0.1319822855293750762939453125</LongitudeDegrees>
            </Position>
            <AltitudeMeters>2796</AltitudeMeters>
            <DistanceMeters>17545.339555263</DistanceMeters>
          </Trackpoint>
          <Trackpoint>
            <Time>2022-07-09T14:27:06.000Z</Time>
            <Position>
              <LatitudeDegrees>42.77737434022128582000732421875</LatitudeDegrees>
              <LongitudeDegrees>-0.13199142180383205413818359375</LongitudeDegrees>
            </Position>
            <AltitudeMeters>2794.39990234375</AltitudeMeters>
            <DistanceMeters>17548.870919811</DistanceMeters>
          </Trackpoint>
          <Trackpoint>
            <Time>2022-07-09T14:27:08.000Z</Time>
            <Position>
              <LatitudeDegrees>42.7773900143802165985107421875</LatitudeDegrees>
              <LongitudeDegrees>-0.131987817585468292236328125</LongitudeDegrees>
            </Position>
            <AltitudeMeters>2793.39990234375</AltitudeMeters>
            <DistanceMeters>17550.641071366</DistanceMeters>
          </Trackpoint>
          <Trackpoint>
            <Time>2022-07-09T14:27:09.000Z</Time>
            <Position>
              <LatitudeDegrees>42.7773968875408172607421875</LatitudeDegrees>
              <LongitudeDegrees>-0.13198169879615306854248046875</LongitudeDegrees>
            </Position>
            <AltitudeMeters>2792.800048828125</AltitudeMeters>
            <DistanceMeters>17551.55253559</DistanceMeters>
          </Trackpoint>
          <Trackpoint>
            <Time>2022-07-09T14:27:12.000Z</Time>
            <Position>
              <LatitudeDegrees>42.777417004108428955078125</LatitudeDegrees>
              <LongitudeDegrees>-0.13196761719882488250732421875</LongitudeDegrees>
            </Position>
            <AltitudeMeters>2791.800048828125</AltitudeMeters>
            <DistanceMeters>17554.07208788</DistanceMeters>
          </Trackpoint>
          <Trackpoint>
            <Time>2022-07-09T14:27:13.000Z</Time>
            <Position>
              <LatitudeDegrees>42.7774222008883953094482421875</LatitudeDegrees>
              <LongitudeDegrees>-0.131950266659259796142578125</LongitudeDegrees>
            </Position>
            <AltitudeMeters>2791.39990234375</AltitudeMeters>
            <DistanceMeters>17555.604347608</DistanceMeters>
          </Trackpoint>
          <Trackpoint>
            <Time>2022-07-09T14:27:16.000Z</Time>
            <Position>
              <LatitudeDegrees>42.7774436585605144500732421875</LatitudeDegrees>
              <LongitudeDegrees>-0.13188463635742664337158203125</LongitudeDegrees>
            </Position>
            <AltitudeMeters>2790</AltitudeMeters>
            <DistanceMeters>17561.472968533</DistanceMeters>
          </Trackpoint>
          <Trackpoint>
            <Time>2022-07-09T14:27:19.000Z</Time>
            <Position>
              <LatitudeDegrees>42.77744852006435394287109375</LatitudeDegrees>
              <LongitudeDegrees>-0.13182562775909900665283203125</LongitudeDegrees>
            </Position>
            <AltitudeMeters>2788.60009765625</AltitudeMeters>
            <DistanceMeters>17566.323986902</DistanceMeters>
          </Trackpoint>
          <Trackpoint>
            <Time>2022-07-09T14:27:21.000Z</Time>
            <Position>
              <LatitudeDegrees>42.777428068220615386962890625</LatitudeDegrees>
              <LongitudeDegrees>-0.13180551119148731231689453125</LongitudeDegrees>
            </Position>
            <AltitudeMeters>2787.800048828125</AltitudeMeters>
            <DistanceMeters>17569.130092149</DistanceMeters>
          </Trackpoint>
          <Trackpoint>
            <Time>2022-07-09T14:27:23.000Z</Time>
            <Position>
              <LatitudeDegrees>42.77742438018321990966796875</LatitudeDegrees>
              <LongitudeDegrees>-0.13179746456444263458251953125</LongitudeDegrees>
            </Position>
            <AltitudeMeters>2787.39990234375</AltitudeMeters>
            <DistanceMeters>17569.91370251</DistanceMeters>
          </Trackpoint>
          <Trackpoint>
            <Time>2022-07-09T14:27:26.000Z</Time>
            <Position>
              <LatitudeDegrees>42.77743049897253513336181640625</LatitudeDegrees>
              <LongitudeDegrees>-0.1317972131073474884033203125</LongitudeDegrees>
            </Position>
            <AltitudeMeters>2786.199951171875</AltitudeMeters>
            <DistanceMeters>17570.598949893</DistanceMeters>
          </Trackpoint>
          <Trackpoint>
            <Time>2022-07-09T14:27:30.000Z</Time>
            <Position>
              <LatitudeDegrees>42.77742010541260242462158203125</LatitudeDegrees>
              <LongitudeDegrees>-0.13174180872738361358642578125</LongitudeDegrees>
            </Position>
            <AltitudeMeters>2785.199951171875</AltitudeMeters>
            <DistanceMeters>17575.270747701</DistanceMeters>
          </Trackpoint>
          <Trackpoint>
            <Time>2022-07-09T14:27:32.000Z</Time>
            <Position>
              <LatitudeDegrees>42.777423374354839324951171875</LatitudeDegrees>
              <LongitudeDegrees>-0.13175069354474544525146484375</LongitudeDegrees>
            </Position>
            <AltitudeMeters>2784.60009765625</AltitudeMeters>
            <DistanceMeters>17576.082656305</DistanceMeters>
          </Trackpoint>
          <Trackpoint>
            <Time>2022-07-09T14:27:34.000Z</Time>
            <Position>
              <LatitudeDegrees>42.77743955142796039581298828125</LatitudeDegrees>
              <LongitudeDegrees>-0.1317710615694522857666015625</LongitudeDegrees>
            </Position>
            <AltitudeMeters>2784.199951171875</AltitudeMeters>
            <DistanceMeters>17578.536848838</DistanceMeters>
          </Trackpoint>
          <Trackpoint>
            <Time>2022-07-09T14:27:35.000Z</Time>
            <Position>
              <LatitudeDegrees>42.7774466760456562042236328125</LatitudeDegrees>
              <LongitudeDegrees>-0.13177751563489437103271484375</LongitudeDegrees>
            </Position>
            <AltitudeMeters>2784</AltitudeMeters>
            <DistanceMeters>17579.487115981</DistanceMeters>
          </Trackpoint>
          <Trackpoint>
            <Time>2022-07-09T14:27:36.000Z</Time>
            <Position>
              <LatitudeDegrees>42.777452878654003143310546875</LatitudeDegrees>
              <LongitudeDegrees>-0.131772570312023162841796875</LongitudeDegrees>
            </Position>
            <AltitudeMeters>2783.800048828125</AltitudeMeters>
            <DistanceMeters>17580.287825309</DistanceMeters>
          </Trackpoint>
          <Trackpoint>
            <Time>2022-07-09T14:27:38.000Z</Time>
            <Position>
              <LatitudeDegrees>42.77745681814849376678466796875</LatitudeDegrees>
              <LongitudeDegrees>-0.13173091225326061248779296875</LongitudeDegrees>
            </Position>
            <AltitudeMeters>2782.800048828125</AltitudeMeters>
            <DistanceMeters>17583.719329306</DistanceMeters>
          </Trackpoint>
          <Trackpoint>
            <Time>2022-07-09T14:27:39.000Z</Time>
            <Position>
              <LatitudeDegrees>42.77745681814849376678466796875</LatitudeDegrees>
              <LongitudeDegrees>-0.13171012513339519500732421875</LongitudeDegrees>
            </Position>
            <AltitudeMeters>2782.39990234375</AltitudeMeters>
            <DistanceMeters>17585.413898369</DistanceMeters>
          </Trackpoint>
          <Trackpoint>
            <Time>2022-07-09T14:27:42.000Z</Time>
            <Position>
              <LatitudeDegrees>42.777485735714435577392578125</LatitudeDegrees>
              <LongitudeDegrees>-0.13170325197279453277587890625</LongitudeDegrees>
            </Position>
            <AltitudeMeters>2781.800048828125</AltitudeMeters>
            <DistanceMeters>17588.680938369</DistanceMeters>
          </Trackpoint>
          <Trackpoint>
            <Time>2022-07-09T14:27:43.000Z</Time>
            <Position>
              <LatitudeDegrees>42.77749537490308284759521484375</LatitudeDegrees>
              <LongitudeDegrees>-0.13170182704925537109375</LongitudeDegrees>
            </Position>
            <AltitudeMeters>2781.199951171875</AltitudeMeters>
            <DistanceMeters>17589.764409613</DistanceMeters>
          </Trackpoint>
          <Trackpoint>
            <Time>2022-07-09T14:27:44.000Z</Time>
            <Position>
              <LatitudeDegrees>42.7775040082633495330810546875</LatitudeDegrees>
              <LongitudeDegrees>-0.1316899247467517852783203125</LongitudeDegrees>
            </Position>
            <AltitudeMeters>2780.60009765625</AltitudeMeters>
            <DistanceMeters>17591.13160595</DistanceMeters>
          </Trackpoint>
          <Trackpoint>
            <Time>2022-07-09T14:27:46.000Z</Time>
            <Position>
              <LatitudeDegrees>42.77751783840358257293701171875</LatitudeDegrees>
              <LongitudeDegrees>-0.1316802017390727996826171875</LongitudeDegrees>
            </Position>
            <AltitudeMeters>2780</AltitudeMeters>
            <DistanceMeters>17592.865680763</DistanceMeters>
          </Trackpoint>
          <Trackpoint>
            <Time>2022-07-09T14:27:47.000Z</Time>
            <Position>
              <LatitudeDegrees>42.77752554975450038909912109375</LatitudeDegrees>
              <LongitudeDegrees>-0.13168497942388057708740234375</LongitudeDegrees>
            </Position>
            <AltitudeMeters>2779.60009765625</AltitudeMeters>
            <DistanceMeters>17593.811184633</DistanceMeters>
          </Trackpoint>
          <Trackpoint>
            <Time>2022-07-09T14:27:48.000Z</Time>
            <Position>
              <LatitudeDegrees>42.77753242291510105133056640625</LatitudeDegrees>
              <LongitudeDegrees>-0.131690092384815216064453125</LongitudeDegrees>
            </Position>
            <AltitudeMeters>2779.199951171875</AltitudeMeters>
            <DistanceMeters>17594.682118856</DistanceMeters>
          </Trackpoint>
          <Trackpoint>
            <Time>2022-07-09T14:27:50.000Z</Time>
            <Position>
              <LatitudeDegrees>42.777545414865016937255859375</LatitudeDegrees>
              <LongitudeDegrees>-0.131697468459606170654296875</LongitudeDegrees>
            </Position>
            <AltitudeMeters>2778.60009765625</AltitudeMeters>
            <DistanceMeters>17596.249339578</DistanceMeters>
          </Trackpoint>
          <Trackpoint>
            <Time>2022-07-09T14:27:52.000Z</Time>
            <Position>
              <LatitudeDegrees>42.77756159193813800811767578125</LatitudeDegrees>
              <LongitudeDegrees>-0.13169621117413043975830078125</LongitudeDegrees>
            </Position>
            <AltitudeMeters>2778.199951171875</AltitudeMeters>
            <DistanceMeters>17598.052344714</DistanceMeters>
          </Trackpoint>
          <Trackpoint>
            <Time>2022-07-09T14:27:53.000Z</Time>
            <Position>
              <LatitudeDegrees>42.77757232077419757843017578125</LatitudeDegrees>
              <LongitudeDegrees>-0.13170056976377964019775390625</LongitudeDegrees>
            </Position>
            <AltitudeMeters>2777.60009765625</AltitudeMeters>
            <DistanceMeters>17599.298608389</DistanceMeters>
          </Trackpoint>
          <Trackpoint>
            <Time>2022-07-09T14:27:57.000Z</Time>
            <Position>
              <LatitudeDegrees>42.777614481747150421142578125</LatitudeDegrees>
              <LongitudeDegrees>-0.13171984814107418060302734375</LongitudeDegrees>
            </Position>
            <AltitudeMeters>2776.60009765625</AltitudeMeters>
            <DistanceMeters>17604.249126288</DistanceMeters>
          </Trackpoint>
          <Trackpoint>
            <Time>2022-07-09T14:27:58.000Z</Time>
            <Position>
              <LatitudeDegrees>42.77762227691709995269775390625</LatitudeDegrees>
              <LongitudeDegrees>-0.1317143999040126800537109375</LongitudeDegrees>
            </Position>
            <AltitudeMeters>2775.800048828125</AltitudeMeters>
            <DistanceMeters>17605.227486193</DistanceMeters>
          </Trackpoint>
          <Trackpoint>
            <Time>2022-07-09T14:27:59.000Z</Time>
            <Position>
              <LatitudeDegrees>42.7776329219341278076171875</LatitudeDegrees>
              <LongitudeDegrees>-0.13170182704925537109375</LongitudeDegrees>
            </Position>
            <AltitudeMeters>2775</AltitudeMeters>
            <DistanceMeters>17606.794706916</DistanceMeters>
          </Trackpoint>
          <Trackpoint>
            <Time>2022-07-09T14:28:01.000Z</Time>
            <Position>
              <LatitudeDegrees>42.77765094302594661712646484375</LatitudeDegrees>
              <LongitudeDegrees>-0.131685733795166015625</LongitudeDegrees>
            </Position>
            <AltitudeMeters>2773.800048828125</AltitudeMeters>
            <DistanceMeters>17609.191189467</DistanceMeters>
          </Trackpoint>
          <Trackpoint>
            <Time>2022-07-09T14:28:02.000Z</Time>
            <Position>
              <LatitudeDegrees>42.77766670100390911102294921875</LatitudeDegrees>
              <LongitudeDegrees>-0.131686739623546600341796875</LongitudeDegrees>
            </Position>
            <AltitudeMeters>2773.199951171875</AltitudeMeters>
            <DistanceMeters>17610.945970384</DistanceMeters>
          </Trackpoint>
          <Trackpoint>
            <Time>2022-07-09T14:28:03.000Z</Time>
            <Position>
              <LatitudeDegrees>42.777695618569850921630859375</LatitudeDegrees>
              <LongitudeDegrees>-0.13168430887162685394287109375</LongitudeDegrees>
            </Position>
            <AltitudeMeters>2772.800048828125</AltitudeMeters>
            <DistanceMeters>17614.171284022</DistanceMeters>
          </Trackpoint>
          <Trackpoint>
            <Time>2022-07-09T14:28:06.000Z</Time>
            <Position>
              <LatitudeDegrees>42.77773082256317138671875</LatitudeDegrees>
              <LongitudeDegrees>-0.13167299330234527587890625</LongitudeDegrees>
            </Position>
            <AltitudeMeters>2772.39990234375</AltitudeMeters>
            <DistanceMeters>17618.198443976</DistanceMeters>
          </Trackpoint>
          <Trackpoint>
            <Time>2022-07-09T14:28:08.000Z</Time>
            <Position>
              <LatitudeDegrees>42.77775295078754425048828125</LatitudeDegrees>
              <LongitudeDegrees>-0.131672658026218414306640625</LongitudeDegrees>
            </Position>
            <AltitudeMeters>2771.199951171875</AltitudeMeters>
            <DistanceMeters>17620.661817957</DistanceMeters>
          </Trackpoint>
          <Trackpoint>
            <Time>2022-07-09T14:28:09.000Z</Time>
            <Position>
              <LatitudeDegrees>42.77776502072811126708984375</LatitudeDegrees>
              <LongitudeDegrees>-0.1316763460636138916015625</LongitudeDegrees>
            </Position>
            <AltitudeMeters>2770.60009765625</AltitudeMeters>
            <DistanceMeters>17622.03560323</DistanceMeters>
          </Trackpoint>
          <Trackpoint>
            <Time>2022-07-09T14:28:11.000Z</Time>
            <Position>
              <LatitudeDegrees>42.77778471820056438446044921875</LatitudeDegrees>
              <LongitudeDegrees>-0.13168162666261196136474609375</LongitudeDegrees>
            </Position>
            <AltitudeMeters>2769.800048828125</AltitudeMeters>
            <DistanceMeters>17624.268225499</DistanceMeters>
          </Trackpoint>
          <Trackpoint>
            <Time>2022-07-09T14:28:13.000Z</Time>
            <Position>
              <LatitudeDegrees>42.777800895273685455322265625</LatitudeDegrees>
              <LongitudeDegrees>-0.13168380595743656158447265625</LongitudeDegrees>
            </Position>
            <AltitudeMeters>2769</AltitudeMeters>
            <DistanceMeters>17626.076232046</DistanceMeters>
          </Trackpoint>
          <Trackpoint>
            <Time>2022-07-09T14:28:14.000Z</Time>
            <Position>
              <LatitudeDegrees>42.77780584059655666351318359375</LatitudeDegrees>
              <LongitudeDegrees>-0.13167207129299640655517578125</LongitudeDegrees>
            </Position>
            <AltitudeMeters>2768.800048828125</AltitudeMeters>
            <DistanceMeters>17627.184424446</DistanceMeters>
          </Trackpoint>
          <Trackpoint>
            <Time>2022-07-09T14:28:18.000Z</Time>
            <Position>
              <LatitudeDegrees>42.77783073484897613525390625</LatitudeDegrees>
              <LongitudeDegrees>-0.13166905380785465240478515625</LongitudeDegrees>
            </Position>
            <AltitudeMeters>2767.39990234375</AltitudeMeters>
            <DistanceMeters>17629.964666421</DistanceMeters>
          </Trackpoint>
          <Trackpoint>
            <Time>2022-07-09T14:28:19.000Z</Time>
            <Position>
              <LatitudeDegrees>42.7778443135321140289306640625</LatitudeDegrees>
              <LongitudeDegrees>-0.131683386862277984619140625</LongitudeDegrees>
            </Position>
            <AltitudeMeters>2766.60009765625</AltitudeMeters>
            <DistanceMeters>17631.874679741</DistanceMeters>
          </Trackpoint>
          <Trackpoint>
            <Time>2022-07-09T14:28:20.000Z</Time>
            <Position>
              <LatitudeDegrees>42.7778560481965541839599609375</LatitudeDegrees>
              <LongitudeDegrees>-0.13169453479349613189697265625</LongitudeDegrees>
            </Position>
            <AltitudeMeters>2766.199951171875</AltitudeMeters>
            <DistanceMeters>17633.467617744</DistanceMeters>
          </Trackpoint>
          <Trackpoint>
            <Time>2022-07-09T14:28:22.000Z</Time>
            <Position>
              <LatitudeDegrees>42.777875997126102447509765625</LatitudeDegrees>
              <LongitudeDegrees>-0.1317031681537628173828125</LongitudeDegrees>
            </Position>
            <AltitudeMeters>2765.60009765625</AltitudeMeters>
            <DistanceMeters>17635.795287365</DistanceMeters>
          </Trackpoint>
          <Trackpoint>
            <Time>2022-07-09T14:28:23.000Z</Time>
            <Position>
              <LatitudeDegrees>42.77788815088570117950439453125</LatitudeDegrees>
              <LongitudeDegrees>-0.13170727528631687164306640625</LongitudeDegrees>
            </Position>
            <AltitudeMeters>2765.199951171875</AltitudeMeters>
            <DistanceMeters>17637.185408352</DistanceMeters>
          </Trackpoint>
          <Trackpoint>
            <Time>2022-07-09T14:28:25.000Z</Time>
            <Position>
              <LatitudeDegrees>42.7779117040336132049560546875</LatitudeDegrees>
              <LongitudeDegrees>-0.13170258142054080963134765625</LongitudeDegrees>
            </Position>
            <AltitudeMeters>2764.199951171875</AltitudeMeters>
            <DistanceMeters>17639.834251382</DistanceMeters>
          </Trackpoint>
          <Trackpoint>
            <Time>2022-07-09T14:28:26.000Z</Time>
            <Position>
              <LatitudeDegrees>42.77792369015514850616455078125</LatitudeDegrees>
              <LongitudeDegrees>-0.13169419951736927032470703125</LongitudeDegrees>
            </Position>
            <AltitudeMeters>2763.800048828125</AltitudeMeters>
            <DistanceMeters>17641.336755662</DistanceMeters>
          </Trackpoint>
          <Trackpoint>
            <Time>2022-07-09T14:28:27.000Z</Time>
            <Position>
              <LatitudeDegrees>42.777935005724430084228515625</LatitudeDegrees>
              <LongitudeDegrees>-0.1316946186125278472900390625</LongitudeDegrees>
            </Position>
            <AltitudeMeters>2763.60009765625</AltitudeMeters>
            <DistanceMeters>17642.597427488</DistanceMeters>
          </Trackpoint>
          <Trackpoint>
            <Time>2022-07-09T14:28:29.000Z</Time>
            <Position>
              <LatitudeDegrees>42.77795520611107349395751953125</LatitudeDegrees>
              <LongitudeDegrees>-0.13171146623790264129638671875</LongitudeDegrees>
            </Position>
            <AltitudeMeters>2762.800048828125</AltitudeMeters>
            <DistanceMeters>17645.234311798</DistanceMeters>
          </Trackpoint>
          <Trackpoint>
            <Time>2022-07-09T14:28:30.000Z</Time>
            <Position>
              <LatitudeDegrees>42.77796459384262561798095703125</LatitudeDegrees>
              <LongitudeDegrees>-0.13171993196010589599609375</LongitudeDegrees>
            </Position>
            <AltitudeMeters>2762.60009765625</AltitudeMeters>
            <DistanceMeters>17646.484193082</DistanceMeters>
          </Trackpoint>
          <Trackpoint>
            <Time>2022-07-09T14:28:33.000Z</Time>
            <Position>
              <LatitudeDegrees>42.77799359522759914398193359375</LatitudeDegrees>
              <LongitudeDegrees>-0.13171733357012271881103515625</LongitudeDegrees>
            </Position>
            <AltitudeMeters>2761.60009765625</AltitudeMeters>
            <DistanceMeters>17649.719291009</DistanceMeters>
          </Trackpoint>
          <Trackpoint>
            <Time>2022-07-09T14:28:34.000Z</Time>
            <Position>
              <LatitudeDegrees>42.778002060949802398681640625</LatitudeDegrees>
              <LongitudeDegrees>-0.13169554062187671661376953125</LongitudeDegrees>
            </Position>
            <AltitudeMeters>2761.60009765625</AltitudeMeters>
            <DistanceMeters>17651.735112033</DistanceMeters>
          </Trackpoint>
          <Trackpoint>
            <Time>2022-07-09T14:28:35.000Z</Time>
            <Position>
              <LatitudeDegrees>42.77800507843494415283203125</LatitudeDegrees>
              <LongitudeDegrees>-0.1316647790372371673583984375</LongitudeDegrees>
            </Position>
            <AltitudeMeters>2761.39990234375</AltitudeMeters>
            <DistanceMeters>17654.267177253</DistanceMeters>
          </Trackpoint>
          <Trackpoint>
            <Time>2022-07-09T14:28:37.000Z</Time>
            <Position>
              <LatitudeDegrees>42.7779971994459629058837890625</LatitudeDegrees>
              <LongitudeDegrees>-0.1316289044916629791259765625</LongitudeDegrees>
            </Position>
            <AltitudeMeters>2760.39990234375</AltitudeMeters>
            <DistanceMeters>17657.325797725</DistanceMeters>
          </Trackpoint>
          <Trackpoint>
            <Time>2022-07-09T14:28:39.000Z</Time>
            <Position>
              <LatitudeDegrees>42.77799108065664768218994140625</LatitudeDegrees>
              <LongitudeDegrees>-0.13158791698515415191650390625</LongitudeDegrees>
            </Position>
            <AltitudeMeters>2758.60009765625</AltitudeMeters>
            <DistanceMeters>17660.742797702</DistanceMeters>
          </Trackpoint>
          <Trackpoint>
            <Time>2022-07-09T14:28:40.000Z</Time>
            <Position>
              <LatitudeDegrees>42.77799108065664768218994140625</LatitudeDegrees>
              <LongitudeDegrees>-0.13156780041754245758056640625</LongitudeDegrees>
            </Position>
            <AltitudeMeters>2758</AltitudeMeters>
            <DistanceMeters>17662.385963201</DistanceMeters>
          </Trackpoint>
          <Trackpoint>
            <Time>2022-07-09T14:28:41.000Z</Time>
            <Position>
              <LatitudeDegrees>42.77798973955214023590087890625</LatitudeDegrees>
              <LongitudeDegrees>-0.13155221007764339447021484375</LongitudeDegrees>
            </Position>
            <AltitudeMeters>2757.60009765625</AltitudeMeters>
            <DistanceMeters>17663.664416891</DistanceMeters>
          </Trackpoint>
          <Trackpoint>
            <Time>2022-07-09T14:28:44.000Z</Time>
            <Position>
              <LatitudeDegrees>42.77800583280622959136962890625</LatitudeDegrees>
              <LongitudeDegrees>-0.13153997249901294708251953125</LongitudeDegrees>
            </Position>
            <AltitudeMeters>2756.199951171875</AltitudeMeters>
            <DistanceMeters>17665.713559527</DistanceMeters>
          </Trackpoint>
          <Trackpoint>
            <Time>2022-07-09T14:28:45.000Z</Time>
            <Position>
              <LatitudeDegrees>42.7780191600322723388671875</LatitudeDegrees>
              <LongitudeDegrees>-0.13154827058315277099609375</LongitudeDegrees>
            </Position>
            <AltitudeMeters>2755.800048828125</AltitudeMeters>
            <DistanceMeters>17667.342928262</DistanceMeters>
          </Trackpoint>
          <Trackpoint>
            <Time>2022-07-09T14:28:48.000Z</Time>
            <Position>
              <LatitudeDegrees>42.7780552022159099578857421875</LatitudeDegrees>
              <LongitudeDegrees>-0.13157249428331851959228515625</LongitudeDegrees>
            </Position>
            <AltitudeMeters>2755</AltitudeMeters>
            <DistanceMeters>17671.816254698</DistanceMeters>
          </Trackpoint>
          <Trackpoint>
            <Time>2022-07-09T14:28:51.000Z</Time>
            <Position>
              <LatitudeDegrees>42.77808730490505695343017578125</LatitudeDegrees>
              <LongitudeDegrees>-0.1315849833190441131591796875</LongitudeDegrees>
            </Position>
            <AltitudeMeters>2753.60009765625</AltitudeMeters>
            <DistanceMeters>17675.530814808</DistanceMeters>
          </Trackpoint>
          <Trackpoint>
            <Time>2022-07-09T14:28:54.000Z</Time>
            <Position>
              <LatitudeDegrees>42.778116725385189056396484375</LatitudeDegrees>
              <LongitudeDegrees>-0.1315635256469249725341796875</LongitudeDegrees>
            </Position>
            <AltitudeMeters>2752.39990234375</AltitudeMeters>
            <DistanceMeters>17679.244159221</DistanceMeters>
          </Trackpoint>
          <Trackpoint>
            <Time>2022-07-09T14:28:56.000Z</Time>
            <Position>
              <LatitudeDegrees>42.77812066487967967987060546875</LatitudeDegrees>
              <LongitudeDegrees>-0.1315122283995151519775390625</LongitudeDegrees>
            </Position>
            <AltitudeMeters>2752</AltitudeMeters>
            <DistanceMeters>17683.457605588</DistanceMeters>
          </Trackpoint>
          <Trackpoint>
            <Time>2022-07-09T14:28:58.000Z</Time>
            <Position>
              <LatitudeDegrees>42.77811714448034763336181640625</LatitudeDegrees>
              <LongitudeDegrees>-0.1315021701157093048095703125</LongitudeDegrees>
            </Position>
            <AltitudeMeters>2751</AltitudeMeters>
            <DistanceMeters>17684.364102668</DistanceMeters>
          </Trackpoint>
          <Trackpoint>
            <Time>2022-07-09T14:29:00.000Z</Time>
            <Position>
              <LatitudeDegrees>42.7781403623521327972412109375</LatitudeDegrees>
              <LongitudeDegrees>-0.1315202750265598297119140625</LongitudeDegrees>
            </Position>
            <AltitudeMeters>2750.39990234375</AltitudeMeters>
            <DistanceMeters>17687.340426742</DistanceMeters>
          </Trackpoint>
          <Trackpoint>
            <Time>2022-07-09T14:29:01.000Z</Time>
            <Position>
              <LatitudeDegrees>42.77815754525363445281982421875</LatitudeDegrees>
              <LongitudeDegrees>-0.13153008185327053070068359375</LongitudeDegrees>
            </Position>
            <AltitudeMeters>2750.199951171875</AltitudeMeters>
            <DistanceMeters>17689.413664882</DistanceMeters>
          </Trackpoint>
          <Trackpoint>
            <Time>2022-07-09T14:29:02.000Z</Time>
            <Position>
              <LatitudeDegrees>42.77816810645163059234619140625</LatitudeDegrees>
              <LongitudeDegrees>-0.13153946958482265472412109375</LongitudeDegrees>
            </Position>
            <AltitudeMeters>2749.60009765625</AltitudeMeters>
            <DistanceMeters>17690.816717506</DistanceMeters>
          </Trackpoint>
          <Trackpoint>
            <Time>2022-07-09T14:29:05.000Z</Time>
            <Position>
              <LatitudeDegrees>42.77819216251373291015625</LatitudeDegrees>
              <LongitudeDegrees>-0.1315564848482608795166015625</LongitudeDegrees>
            </Position>
            <AltitudeMeters>2748.60009765625</AltitudeMeters>
            <DistanceMeters>17693.833722155</DistanceMeters>
          </Trackpoint>
          <Trackpoint>
            <Time>2022-07-09T14:29:06.000Z</Time>
            <Position>
              <LatitudeDegrees>42.7782027237117290496826171875</LatitudeDegrees>
              <LongitudeDegrees>-0.13156109489500522613525390625</LongitudeDegrees>
            </Position>
            <AltitudeMeters>2748.39990234375</AltitudeMeters>
            <DistanceMeters>17695.072718925</DistanceMeters>
          </Trackpoint>
          <Trackpoint>
            <Time>2022-07-09T14:29:08.000Z</Time>
            <Position>
              <LatitudeDegrees>42.7782188169658184051513671875</LatitudeDegrees>
              <LongitudeDegrees>-0.13156712986528873443603515625</LongitudeDegrees>
            </Position>
            <AltitudeMeters>2747.39990234375</AltitudeMeters>
            <DistanceMeters>17696.932428386</DistanceMeters>
          </Trackpoint>
          <Trackpoint>
            <Time>2022-07-09T14:29:09.000Z</Time>
            <Position>
              <LatitudeDegrees>42.77822862379252910614013671875</LatitudeDegrees>
              <LongitudeDegrees>-0.13157509267330169677734375</LongitudeDegrees>
            </Position>
            <AltitudeMeters>2747.199951171875</AltitudeMeters>
            <DistanceMeters>17698.207345544</DistanceMeters>
          </Trackpoint>
          <Trackpoint>
            <Time>2022-07-09T14:29:10.000Z</Time>
            <Position>
              <LatitudeDegrees>42.77823935262858867645263671875</LatitudeDegrees>
              <LongitudeDegrees>-0.1315824687480926513671875</LongitudeDegrees>
            </Position>
            <AltitudeMeters>2747</AltitudeMeters>
            <DistanceMeters>17699.551226226</DistanceMeters>
          </Trackpoint>
          <Trackpoint>
            <Time>2022-07-09T14:29:11.000Z</Time>
            <Position>
              <LatitudeDegrees>42.778250835835933685302734375</LatitudeDegrees>
              <LongitudeDegrees>-0.131586156785488128662109375</LongitudeDegrees>
            </Position>
            <AltitudeMeters>2746.800048828125</AltitudeMeters>
            <DistanceMeters>17700.864521548</DistanceMeters>
          </Trackpoint>
          <Trackpoint>
            <Time>2022-07-09T14:29:12.000Z</Time>
            <Position>
              <LatitudeDegrees>42.7782632410526275634765625</LatitudeDegrees>
              <LongitudeDegrees>-0.13158758170902729034423828125</LongitudeDegrees>
            </Position>
            <AltitudeMeters>2746.39990234375</AltitudeMeters>
            <DistanceMeters>17702.251390785</DistanceMeters>
          </Trackpoint>
          <Trackpoint>
            <Time>2022-07-09T14:29:14.000Z</Time>
            <Position>
              <LatitudeDegrees>42.7782939188182353973388671875</LatitudeDegrees>
              <LongitudeDegrees>-0.1315967179834842681884765625</LongitudeDegrees>
            </Position>
            <AltitudeMeters>2745.39990234375</AltitudeMeters>
            <DistanceMeters>17705.748063991</DistanceMeters>
          </Trackpoint>
          <Trackpoint>
            <Time>2022-07-09T14:29:17.000Z</Time>
            <Position>
              <LatitudeDegrees>42.77833633124828338623046875</LatitudeDegrees>
              <LongitudeDegrees>-0.1315903477370738983154296875</LongitudeDegrees>
            </Position>
            <AltitudeMeters>2745</AltitudeMeters>
            <DistanceMeters>17710.497498795</DistanceMeters>
          </Trackpoint>
          <Trackpoint>
            <Time>2022-07-09T14:29:18.000Z</Time>
            <Position>
              <LatitudeDegrees>42.77834362350404262542724609375</LatitudeDegrees>
              <LongitudeDegrees>-0.13156578876078128814697265625</LongitudeDegrees>
            </Position>
            <AltitudeMeters>2744.800048828125</AltitudeMeters>
            <DistanceMeters>17712.660270072</DistanceMeters>
          </Trackpoint>
          <Trackpoint>
            <Time>2022-07-09T14:29:19.000Z</Time>
            <Position>
              <LatitudeDegrees>42.7783437073230743408203125</LatitudeDegrees>
              <LongitudeDegrees>-0.13155187480151653289794921875</LongitudeDegrees>
            </Position>
            <AltitudeMeters>2744</AltitudeMeters>
            <DistanceMeters>17713.792644063</DistanceMeters>
          </Trackpoint>
          <Trackpoint>
            <Time>2022-07-09T14:29:21.000Z</Time>
            <Position>
              <LatitudeDegrees>42.7783490717411041259765625</LatitudeDegrees>
              <LongitudeDegrees>-0.13155170716345310211181640625</LongitudeDegrees>
            </Position>
            <AltitudeMeters>2742.60009765625</AltitudeMeters>
            <DistanceMeters>17714.393645775</DistanceMeters>
          </Trackpoint>
          <Trackpoint>
            <Time>2022-07-09T14:29:22.000Z</Time>
            <Position>
              <LatitudeDegrees>42.7783598005771636962890625</LatitudeDegrees>
              <LongitudeDegrees>-0.13155757449567317962646484375</LongitudeDegrees>
            </Position>
            <AltitudeMeters>2742.199951171875</AltitudeMeters>
            <DistanceMeters>17715.682650843</DistanceMeters>
          </Trackpoint>
          <Trackpoint>
            <Time>2022-07-09T14:29:23.000Z</Time>
            <Position>
              <LatitudeDegrees>42.7783720381557941436767578125</LatitudeDegrees>
              <LongitudeDegrees>-0.13156704604625701904296875</LongitudeDegrees>
            </Position>
            <AltitudeMeters>2741.60009765625</AltitudeMeters>
            <DistanceMeters>17717.249871565</DistanceMeters>
          </Trackpoint>
          <Trackpoint>
            <Time>2022-07-09T14:29:25.000Z</Time>
            <Position>
              <LatitudeDegrees>42.7783867903053760528564453125</LatitudeDegrees>
              <LongitudeDegrees>-0.13157643377780914306640625</LongitudeDegrees>
            </Position>
            <AltitudeMeters>2740.800048828125</AltitudeMeters>
            <DistanceMeters>17719.062865726</DistanceMeters>
          </Trackpoint>
          <Trackpoint>
            <Time>2022-07-09T14:29:26.000Z</Time>
            <Position>
              <LatitudeDegrees>42.77839290909469127655029296875</LatitudeDegrees>
              <LongitudeDegrees>-0.13157484121620655059814453125</LongitudeDegrees>
            </Position>
            <AltitudeMeters>2740</AltitudeMeters>
            <DistanceMeters>17719.761166612</DistanceMeters>
          </Trackpoint>
          <Trackpoint>
            <Time>2022-07-09T14:29:28.000Z</Time>
            <Position>
              <LatitudeDegrees>42.7784126065671443939208984375</LatitudeDegrees>
              <LongitudeDegrees>-0.1315668784081935882568359375</LongitudeDegrees>
            </Position>
            <AltitudeMeters>2739.199951171875</AltitudeMeters>
            <DistanceMeters>17722.047739213</DistanceMeters>
          </Trackpoint>
          <Trackpoint>
            <Time>2022-07-09T14:29:29.000Z</Time>
            <Position>
              <LatitudeDegrees>42.77842593379318714141845703125</LatitudeDegrees>
              <LongitudeDegrees>-0.131558664143085479736328125</LongitudeDegrees>
            </Position>
            <AltitudeMeters>2739</AltitudeMeters>
            <DistanceMeters>17723.677107948</DistanceMeters>
          </Trackpoint>
          <Trackpoint>
            <Time>2022-07-09T14:29:30.000Z</Time>
            <Position>
              <LatitudeDegrees>42.77845007367432117462158203125</LatitudeDegrees>
              <LongitudeDegrees>-0.13152069412171840667724609375</LongitudeDegrees>
            </Position>
            <AltitudeMeters>2738.800048828125</AltitudeMeters>
            <DistanceMeters>17727.780897973</DistanceMeters>
          </Trackpoint>
          <Trackpoint>
            <Time>2022-07-09T14:29:31.000Z</Time>
            <Position>
              <LatitudeDegrees>42.778450660407543182373046875</LatitudeDegrees>
              <LongitudeDegrees>-0.13152454979717731475830078125</LongitudeDegrees>
            </Position>
            <AltitudeMeters>2738.60009765625</AltitudeMeters>
            <DistanceMeters>17728.110080168</DistanceMeters>
          </Trackpoint>
          <Trackpoint>
            <Time>2022-07-09T14:29:33.000Z</Time>
            <Position>
              <LatitudeDegrees>42.7784709446132183074951171875</LatitudeDegrees>
              <LongitudeDegrees>-0.1315127313137054443359375</LongitudeDegrees>
            </Position>
            <AltitudeMeters>2737.800048828125</AltitudeMeters>
            <DistanceMeters>17730.566111736</DistanceMeters>
          </Trackpoint>
          <Trackpoint>
            <Time>2022-07-09T14:29:35.000Z</Time>
            <Position>
              <LatitudeDegrees>42.77848745696246623992919921875</LatitudeDegrees>
              <LongitudeDegrees>-0.13150812126696109771728515625</LongitudeDegrees>
            </Position>
            <AltitudeMeters>2736.60009765625</AltitudeMeters>
            <DistanceMeters>17732.44273898</DistanceMeters>
          </Trackpoint>
          <Trackpoint>
            <Time>2022-07-09T14:29:37.000Z</Time>
            <Position>
              <LatitudeDegrees>42.77850924991071224212646484375</LatitudeDegrees>
              <LongitudeDegrees>-0.13152739964425563812255859375</LongitudeDegrees>
            </Position>
            <AltitudeMeters>2736</AltitudeMeters>
            <DistanceMeters>17735.337546563</DistanceMeters>
          </Trackpoint>
          <Trackpoint>
            <Time>2022-07-09T14:29:38.000Z</Time>
            <Position>
              <LatitudeDegrees>42.77851377613842487335205078125</LatitudeDegrees>
              <LongitudeDegrees>-0.13154081068933010101318359375</LongitudeDegrees>
            </Position>
            <AltitudeMeters>2735.60009765625</AltitudeMeters>
            <DistanceMeters>17736.543300396</DistanceMeters>
          </Trackpoint>
          <Trackpoint>
            <Time>2022-07-09T14:29:41.000Z</Time>
            <Position>
              <LatitudeDegrees>42.77853372506797313690185546875</LatitudeDegrees>
              <LongitudeDegrees>-0.1315675489604473114013671875</LongitudeDegrees>
            </Position>
            <AltitudeMeters>2734.60009765625</AltitudeMeters>
            <DistanceMeters>17739.657510104</DistanceMeters>
          </Trackpoint>
          <Trackpoint>
            <Time>2022-07-09T14:29:43.000Z</Time>
            <Position>
              <LatitudeDegrees>42.7785366587340831756591796875</LatitudeDegrees>
              <LongitudeDegrees>-0.13156570494174957275390625</LongitudeDegrees>
            </Position>
            <AltitudeMeters>2734</AltitudeMeters>
            <DistanceMeters>17740.037616961</DistanceMeters>
          </Trackpoint>
          <Trackpoint>
            <Time>2022-07-09T14:29:44.000Z</Time>
            <Position>
              <LatitudeDegrees>42.77853774838149547576904296875</LatitudeDegrees>
              <LongitudeDegrees>-0.13154961168766021728515625</LongitudeDegrees>
            </Position>
            <AltitudeMeters>2734</AltitudeMeters>
            <DistanceMeters>17741.357770268</DistanceMeters>
          </Trackpoint>
          <Trackpoint>
            <Time>2022-07-09T14:29:45.000Z</Time>
            <Position>
              <LatitudeDegrees>42.778539843857288360595703125</LatitudeDegrees>
              <LongitudeDegrees>-0.131535194814205169677734375</LongitudeDegrees>
            </Position>
            <AltitudeMeters>2733.39990234375</AltitudeMeters>
            <DistanceMeters>17742.563524102</DistanceMeters>
          </Trackpoint>
          <Trackpoint>
            <Time>2022-07-09T14:29:48.000Z</Time>
            <Position>
              <LatitudeDegrees>42.778545208275318145751953125</LatitudeDegrees>
              <LongitudeDegrees>-0.13148750178515911102294921875</LongitudeDegrees>
            </Position>
            <AltitudeMeters>2732.199951171875</AltitudeMeters>
            <DistanceMeters>17746.505701363</DistanceMeters>
          </Trackpoint>
          <Trackpoint>
            <Time>2022-07-09T14:29:49.000Z</Time>
            <Position>
              <LatitudeDegrees>42.77854495681822299957275390625</LatitudeDegrees>
              <LongitudeDegrees>-0.1314716599881649017333984375</LongitudeDegrees>
            </Position>
            <AltitudeMeters>2732</AltitudeMeters>
            <DistanceMeters>17747.80169296</DistanceMeters>
          </Trackpoint>
          <Trackpoint>
            <Time>2022-07-09T14:29:53.000Z</Time>
            <Position>
              <LatitudeDegrees>42.77854646556079387664794921875</LatitudeDegrees>
              <LongitudeDegrees>-0.13140535913407802581787109375</LongitudeDegrees>
            </Position>
            <AltitudeMeters>2731.800048828125</AltitudeMeters>
            <DistanceMeters>17753.220715805</DistanceMeters>
          </Trackpoint>
          <Trackpoint>
            <Time>2022-07-09T14:29:54.000Z</Time>
            <Position>
              <LatitudeDegrees>42.7785423584282398223876953125</LatitudeDegrees>
              <LongitudeDegrees>-0.1313824765384197235107421875</LongitudeDegrees>
            </Position>
            <AltitudeMeters>2730.60009765625</AltitudeMeters>
            <DistanceMeters>17755.144860119</DistanceMeters>
          </Trackpoint>
          <Trackpoint>
            <Time>2022-07-09T14:29:55.000Z</Time>
            <Position>
              <LatitudeDegrees>42.77853473089635372161865234375</LatitudeDegrees>
              <LongitudeDegrees>-0.131366886198520660400390625</LongitudeDegrees>
            </Position>
            <AltitudeMeters>2730</AltitudeMeters>
            <DistanceMeters>17756.674170355</DistanceMeters>
          </Trackpoint>
          <Trackpoint>
            <Time>2022-07-09T14:29:57.000Z</Time>
            <Position>
              <LatitudeDegrees>42.7785299532115459442138671875</LatitudeDegrees>
              <LongitudeDegrees>-0.13134718872606754302978515625</LongitudeDegrees>
            </Position>
            <AltitudeMeters>2729.39990234375</AltitudeMeters>
            <DistanceMeters>17758.368739418</DistanceMeters>
          </Trackpoint>
          <Trackpoint>
            <Time>2022-07-09T14:29:58.000Z</Time>
            <Position>
              <LatitudeDegrees>42.77853481471538543701171875</LatitudeDegrees>
              <LongitudeDegrees>-0.13134174048900604248046875</LongitudeDegrees>
            </Position>
            <AltitudeMeters>2729.199951171875</AltitudeMeters>
            <DistanceMeters>17759.067040305</DistanceMeters>
          </Trackpoint>
          <Trackpoint>
            <Time>2022-07-09T14:30:00.000Z</Time>
            <Position>
              <LatitudeDegrees>42.77855350635945796966552734375</LatitudeDegrees>
              <LongitudeDegrees>-0.1313455961644649505615234375</LongitudeDegrees>
            </Position>
            <AltitudeMeters>2728.800048828125</AltitudeMeters>
            <DistanceMeters>17761.170546297</DistanceMeters>
          </Trackpoint>
          <Trackpoint>
            <Time>2022-07-09T14:30:01.000Z</Time>
            <Position>
              <LatitudeDegrees>42.778567336499691009521484375</LatitudeDegrees>
              <LongitudeDegrees>-0.1313492842018604278564453125</LongitudeDegrees>
            </Position>
            <AltitudeMeters>2728.39990234375</AltitudeMeters>
            <DistanceMeters>17762.737767019</DistanceMeters>
          </Trackpoint>
          <Trackpoint>
            <Time>2022-07-09T14:30:02.000Z</Time>
            <Position>
              <LatitudeDegrees>42.77858116663992404937744140625</LatitudeDegrees>
              <LongitudeDegrees>-0.1313506253063678741455078125</LongitudeDegrees>
            </Position>
            <AltitudeMeters>2728.39990234375</AltitudeMeters>
            <DistanceMeters>17764.278841354</DistanceMeters>
          </Trackpoint>
          <Trackpoint>
            <Time>2022-07-09T14:30:04.000Z</Time>
            <Position>
              <LatitudeDegrees>42.77860564179718494415283203125</LatitudeDegrees>
              <LongitudeDegrees>-0.1313517987728118896484375</LongitudeDegrees>
            </Position>
            <AltitudeMeters>2727.199951171875</AltitudeMeters>
            <DistanceMeters>17767.006621218</DistanceMeters>
          </Trackpoint>
          <Trackpoint>
            <Time>2022-07-09T14:30:05.000Z</Time>
            <Position>
              <LatitudeDegrees>42.7786172926425933837890625</LatitudeDegrees>
              <LongitudeDegrees>-0.13135540299117565155029296875</LongitudeDegrees>
            </Position>
            <AltitudeMeters>2726.60009765625</AltitudeMeters>
            <DistanceMeters>17768.336995219</DistanceMeters>
          </Trackpoint>
          <Trackpoint>
            <Time>2022-07-09T14:30:06.000Z</Time>
            <Position>
              <LatitudeDegrees>42.7786285243928432464599609375</LatitudeDegrees>
              <LongitudeDegrees>-0.13135758228600025177001953125</LongitudeDegrees>
            </Position>
            <AltitudeMeters>2726</AltitudeMeters>
            <DistanceMeters>17769.601243427</DistanceMeters>
          </Trackpoint>
          <Trackpoint>
            <Time>2022-07-09T14:30:09.000Z</Time>
            <Position>
              <LatitudeDegrees>42.778657861053943634033203125</LatitudeDegrees>
              <LongitudeDegrees>-0.1313657127320766448974609375</LongitudeDegrees>
            </Position>
            <AltitudeMeters>2724.60009765625</AltitudeMeters>
            <DistanceMeters>17772.932604103</DistanceMeters>
          </Trackpoint>
          <Trackpoint>
            <Time>2022-07-09T14:30:10.000Z</Time>
            <Position>
              <LatitudeDegrees>42.7786711044609546661376953125</LatitudeDegrees>
              <LongitudeDegrees>-0.1313730888068675994873046875</LongitudeDegrees>
            </Position>
            <AltitudeMeters>2724</AltitudeMeters>
            <DistanceMeters>17774.525542105</DistanceMeters>
          </Trackpoint>
          <Trackpoint>
            <Time>2022-07-09T14:30:12.000Z</Time>
            <Position>
              <LatitudeDegrees>42.77869633398950099945068359375</LatitudeDegrees>
              <LongitudeDegrees>-0.1313851587474346160888671875</LongitudeDegrees>
            </Position>
            <AltitudeMeters>2723.199951171875</AltitudeMeters>
            <DistanceMeters>17777.503382777</DistanceMeters>
          </Trackpoint>
          <Trackpoint>
            <Time>2022-07-09T14:30:17.000Z</Time>
            <Position>
              <LatitudeDegrees>42.77874478138983249664306640625</LatitudeDegrees>
              <LongitudeDegrees>-0.13142547570168972015380859375</LongitudeDegrees>
            </Position>
            <AltitudeMeters>2722.60009765625</AltitudeMeters>
            <DistanceMeters>17783.822480659</DistanceMeters>
          </Trackpoint>
          <Trackpoint>
            <Time>2022-07-09T14:30:19.000Z</Time>
            <Position>
              <LatitudeDegrees>42.778762467205524444580078125</LatitudeDegrees>
              <LongitudeDegrees>-0.13143653981387615203857421875</LongitudeDegrees>
            </Position>
            <AltitudeMeters>2722.199951171875</AltitudeMeters>
            <DistanceMeters>17785.989423148</DistanceMeters>
          </Trackpoint>
          <Trackpoint>
            <Time>2022-07-09T14:30:20.000Z</Time>
            <Position>
              <LatitudeDegrees>42.77877026237547397613525390625</LatitudeDegrees>
              <LongitudeDegrees>-0.1314398087561130523681640625</LongitudeDegrees>
            </Position>
            <AltitudeMeters>2721.60009765625</AltitudeMeters>
            <DistanceMeters>17786.900887373</DistanceMeters>
          </Trackpoint>
          <Trackpoint>
            <Time>2022-07-09T14:30:23.000Z</Time>
            <Position>
              <LatitudeDegrees>42.77880177833139896392822265625</LatitudeDegrees>
              <LongitudeDegrees>-0.13144877739250659942626953125</LongitudeDegrees>
            </Position>
            <AltitudeMeters>2721</AltitudeMeters>
            <DistanceMeters>17790.484289206</DistanceMeters>
          </Trackpoint>
          <Trackpoint>
            <Time>2022-07-09T14:30:26.000Z</Time>
            <Position>
              <LatitudeDegrees>42.77884058654308319091796875</LatitudeDegrees>
              <LongitudeDegrees>-0.13146503828465938568115234375</LongitudeDegrees>
            </Position>
            <AltitudeMeters>2719.39990234375</AltitudeMeters>
            <DistanceMeters>17795.003806096</DistanceMeters>
          </Trackpoint>
          <Trackpoint>
            <Time>2022-07-09T14:30:27.000Z</Time>
            <Position>
              <LatitudeDegrees>42.7788568474352359771728515625</LatitudeDegrees>
              <LongitudeDegrees>-0.13147425837814807891845703125</LongitudeDegrees>
            </Position>
            <AltitudeMeters>2719</AltitudeMeters>
            <DistanceMeters>17796.965135381</DistanceMeters>
          </Trackpoint>
          <Trackpoint>
            <Time>2022-07-09T14:30:29.000Z</Time>
            <Position>
              <LatitudeDegrees>42.77888274751603603363037109375</LatitudeDegrees>
              <LongitudeDegrees>-0.13148657977581024169921875</LongitudeDegrees>
            </Position>
            <AltitudeMeters>2718.60009765625</AltitudeMeters>
            <DistanceMeters>17800.019324139</DistanceMeters>
          </Trackpoint>
          <Trackpoint>
            <Time>2022-07-09T14:30:34.000Z</Time>
            <Position>
              <LatitudeDegrees>42.7789364755153656005859375</LatitudeDegrees>
              <LongitudeDegrees>-0.13146570883691310882568359375</LongitudeDegrees>
            </Position>
            <AltitudeMeters>2718.39990234375</AltitudeMeters>
            <DistanceMeters>17806.237586544</DistanceMeters>
          </Trackpoint>
          <Trackpoint>
            <Time>2022-07-09T14:30:35.000Z</Time>
            <Position>
              <LatitudeDegrees>42.7789445221424102783203125</LatitudeDegrees>
              <LongitudeDegrees>-0.13146000914275646209716796875</LongitudeDegrees>
            </Position>
            <AltitudeMeters>2718.199951171875</AltitudeMeters>
            <DistanceMeters>17807.247734373</DistanceMeters>
          </Trackpoint>
          <Trackpoint>
            <Time>2022-07-09T14:30:39.000Z</Time>
            <Position>
              <LatitudeDegrees>42.77898483909666538238525390625</LatitudeDegrees>
              <LongitudeDegrees>-0.1314545609056949615478515625</LongitudeDegrees>
            </Position>
            <AltitudeMeters>2717</AltitudeMeters>
            <DistanceMeters>17811.757250107</DistanceMeters>
          </Trackpoint>
          <Trackpoint>
            <Time>2022-07-09T14:30:41.000Z</Time>
            <Position>
              <LatitudeDegrees>42.77900554239749908447265625</LatitudeDegrees>
              <LongitudeDegrees>-0.13144525699317455291748046875</LongitudeDegrees>
            </Position>
            <AltitudeMeters>2717</AltitudeMeters>
            <DistanceMeters>17814.183689853</DistanceMeters>
          </Trackpoint>
          <Trackpoint>
            <Time>2022-07-09T14:30:43.000Z</Time>
            <Position>
              <LatitudeDegrees>42.77901585213840007781982421875</LatitudeDegrees>
              <LongitudeDegrees>-0.13143922202289104461669921875</LongitudeDegrees>
            </Position>
            <AltitudeMeters>2717.199951171875</AltitudeMeters>
            <DistanceMeters>17815.433571137</DistanceMeters>
          </Trackpoint>
          <Trackpoint>
            <Time>2022-07-09T14:30:46.000Z</Time>
            <Position>
              <LatitudeDegrees>42.77902574278414249420166015625</LatitudeDegrees>
              <LongitudeDegrees>-0.13142933137714862823486328125</LongitudeDegrees>
            </Position>
            <AltitudeMeters>2717.199951171875</AltitudeMeters>
            <DistanceMeters>17816.79746107</DistanceMeters>
          </Trackpoint>
          <Trackpoint>
            <Time>2022-07-09T14:30:49.000Z</Time>
            <Position>
              <LatitudeDegrees>42.77903177775442600250244140625</LatitudeDegrees>
              <LongitudeDegrees>-0.13141659088432788848876953125</LongitudeDegrees>
            </Position>
            <AltitudeMeters>2717</AltitudeMeters>
            <DistanceMeters>17818.040096604</DistanceMeters>
          </Trackpoint>
          <Trackpoint>
            <Time>2022-07-09T14:30:54.000Z</Time>
            <Position>
              <LatitudeDegrees>42.7790529839694499969482421875</LatitudeDegrees>
              <LongitudeDegrees>-0.1314269006252288818359375</LongitudeDegrees>
            </Position>
            <AltitudeMeters>2716.800048828125</AltitudeMeters>
            <DistanceMeters>17820.548873853</DistanceMeters>
          </Trackpoint>
          <Trackpoint>
            <Time>2022-07-09T14:30:56.000Z</Time>
            <Position>
              <LatitudeDegrees>42.7790459431707859039306640625</LatitudeDegrees>
              <LongitudeDegrees>-0.1314280740916728973388671875</LongitudeDegrees>
            </Position>
            <AltitudeMeters>2716.39990234375</AltitudeMeters>
            <DistanceMeters>17821.343924386</DistanceMeters>
          </Trackpoint>
          <Trackpoint>
            <Time>2022-07-09T14:37:24.000Z</Time>
            <Position>
              <LatitudeDegrees>42.7790798060595989227294921875</LatitudeDegrees>
              <LongitudeDegrees>-0.13139949180185794830322265625</LongitudeDegrees>
            </Position>
            <AltitudeMeters>2714.39990234375</AltitudeMeters>
            <DistanceMeters>17825.778730639</DistanceMeters>
          </Trackpoint>
          <Trackpoint>
            <Time>2022-07-09T14:37:29.000Z</Time>
            <Position>
              <LatitudeDegrees>42.779073603451251983642578125</LatitudeDegrees>
              <LongitudeDegrees>-0.13136378489434719085693359375</LongitudeDegrees>
            </Position>
            <AltitudeMeters>2714.39990234375</AltitudeMeters>
            <DistanceMeters>17828.774710609</DistanceMeters>
          </Trackpoint>
          <Trackpoint>
            <Time>2022-07-09T14:37:35.000Z</Time>
            <Position>
              <LatitudeDegrees>42.77906815521419048309326171875</LatitudeDegrees>
              <LongitudeDegrees>-0.131360180675983428955078125</LongitudeDegrees>
            </Position>
            <AltitudeMeters>2713.800048828125</AltitudeMeters>
            <DistanceMeters>17829.446650951</DistanceMeters>
          </Trackpoint>
          <Trackpoint>
            <Time>2022-07-09T14:37:38.000Z</Time>
            <Position>
              <LatitudeDegrees>42.77906614355742931365966796875</LatitudeDegrees>
              <LongitudeDegrees>-0.13137535192072391510009765625</LongitudeDegrees>
            </Position>
            <AltitudeMeters>2713</AltitudeMeters>
            <DistanceMeters>17830.707322777</DistanceMeters>
          </Trackpoint>
          <Trackpoint>
            <Time>2022-07-09T14:38:18.000Z</Time>
            <Position>
              <LatitudeDegrees>42.77906857430934906005859375</LatitudeDegrees>
              <LongitudeDegrees>-0.13140049763023853302001953125</LongitudeDegrees>
            </Position>
            <AltitudeMeters>2714.39990234375</AltitudeMeters>
            <DistanceMeters>17832.780560918</DistanceMeters>
          </Trackpoint>
          <Trackpoint>
            <Time>2022-07-09T14:38:19.000Z</Time>
            <Position>
              <LatitudeDegrees>42.7790667302906513214111328125</LatitudeDegrees>
              <LongitudeDegrees>-0.13139194808900356292724609375</LongitudeDegrees>
            </Position>
            <AltitudeMeters>2714.39990234375</AltitudeMeters>
            <DistanceMeters>17833.510474961</DistanceMeters>
          </Trackpoint>
          <Trackpoint>
            <Time>2022-07-09T14:38:21.000Z</Time>
            <Position>
              <LatitudeDegrees>42.77905776165425777435302734375</LatitudeDegrees>
              <LongitudeDegrees>-0.131405778229236602783203125</LongitudeDegrees>
            </Position>
            <AltitudeMeters>2714.39990234375</AltitudeMeters>
            <DistanceMeters>17835.018977285</DistanceMeters>
          </Trackpoint>
          <Trackpoint>
            <Time>2022-07-09T14:38:25.000Z</Time>
            <Position>
              <LatitudeDegrees>42.77905742637813091278076171875</LatitudeDegrees>
              <LongitudeDegrees>-0.13143218122422695159912109375</LongitudeDegrees>
            </Position>
            <AltitudeMeters>2715</AltitudeMeters>
            <DistanceMeters>17837.177569291</DistanceMeters>
          </Trackpoint>
          <Trackpoint>
            <Time>2022-07-09T14:38:31.000Z</Time>
            <Position>
              <LatitudeDegrees>42.77908265590667724609375</LatitudeDegrees>
              <LongitudeDegrees>-0.13143436051905155181884765625</LongitudeDegrees>
            </Position>
            <AltitudeMeters>2715</AltitudeMeters>
            <DistanceMeters>17839.991708065</DistanceMeters>
          </Trackpoint>
          <Trackpoint>
            <Time>2022-07-09T14:38:37.000Z</Time>
            <Position>
              <LatitudeDegrees>42.7790754474699497222900390625</LatitudeDegrees>
              <LongitudeDegrees>-0.13140150345861911773681640625</LongitudeDegrees>
            </Position>
            <AltitudeMeters>2714.60009765625</AltitudeMeters>
            <DistanceMeters>17842.791369893</DistanceMeters>
          </Trackpoint>
          <Trackpoint>
            <Time>2022-07-09T14:38:41.000Z</Time>
            <Position>
              <LatitudeDegrees>42.77906279079616069793701171875</LatitudeDegrees>
              <LongitudeDegrees>-0.1314108073711395263671875</LongitudeDegrees>
            </Position>
            <AltitudeMeters>2714.39990234375</AltitudeMeters>
            <DistanceMeters>17844.392788549</DistanceMeters>
          </Trackpoint>
          <Trackpoint>
            <Time>2022-07-09T14:38:42.000Z</Time>
            <Position>
              <LatitudeDegrees>42.77906144969165325164794921875</LatitudeDegrees>
              <LongitudeDegrees>-0.1314175128936767578125</LongitudeDegrees>
            </Position>
            <AltitudeMeters>2714.39990234375</AltitudeMeters>
            <DistanceMeters>17844.962948835</DistanceMeters>
          </Trackpoint>
          <Trackpoint>
            <Time>2022-07-09T14:38:43.000Z</Time>
            <Position>
              <LatitudeDegrees>42.7790617011487483978271484375</LatitudeDegrees>
              <LongitudeDegrees>-0.13142061419785022735595703125</LongitudeDegrees>
            </Position>
            <AltitudeMeters>2714.39990234375</AltitudeMeters>
            <DistanceMeters>17845.231724972</DistanceMeters>
          </Trackpoint>
          <Trackpoint>
            <Time>2022-07-09T14:38:46.000Z</Time>
            <Position>
              <LatitudeDegrees>42.779064215719699859619140625</LatitudeDegrees>
              <LongitudeDegrees>-0.1314347796142101287841796875</LongitudeDegrees>
            </Position>
            <AltitudeMeters>2714.39990234375</AltitudeMeters>
            <DistanceMeters>17846.42240629</DistanceMeters>
          </Trackpoint>
          <Trackpoint>
            <Time>2022-07-09T14:38:50.000Z</Time>
            <Position>
              <LatitudeDegrees>42.77906128205358982086181640625</LatitudeDegrees>
              <LongitudeDegrees>-0.131431929767131805419921875</LongitudeDegrees>
            </Position>
            <AltitudeMeters>2714.60009765625</AltitudeMeters>
            <DistanceMeters>17846.825570495</DistanceMeters>
          </Trackpoint>
          <Trackpoint>
            <Time>2022-07-09T14:38:51.000Z</Time>
            <Position>
              <LatitudeDegrees>42.7790652215480804443359375</LatitudeDegrees>
              <LongitudeDegrees>-0.131429247558116912841796875</LongitudeDegrees>
            </Position>
            <AltitudeMeters>2714.60009765625</AltitudeMeters>
            <DistanceMeters>17847.310113565</DistanceMeters>
          </Trackpoint>
          <Trackpoint>
            <Time>2022-07-09T14:38:53.000Z</Time>
            <Position>
              <LatitudeDegrees>42.7790724299848079681396484375</LatitudeDegrees>
              <LongitudeDegrees>-0.131426565349102020263671875</LongitudeDegrees>
            </Position>
            <AltitudeMeters>2714.39990234375</AltitudeMeters>
            <DistanceMeters>17848.138537255</DistanceMeters>
          </Trackpoint>
          <Trackpoint>
            <Time>2022-07-09T14:38:54.000Z</Time>
            <Position>
              <LatitudeDegrees>42.77907603420317173004150390625</LatitudeDegrees>
              <LongitudeDegrees>-0.13142748735845088958740234375</LongitudeDegrees>
            </Position>
            <AltitudeMeters>2714.39990234375</AltitudeMeters>
            <DistanceMeters>17848.5527491</DistanceMeters>
          </Trackpoint>
          <Trackpoint>
            <Time>2022-07-09T14:38:55.000Z</Time>
            <Position>
              <LatitudeDegrees>42.7790794707834720611572265625</LatitudeDegrees>
              <LongitudeDegrees>-0.13143167831003665924072265625</LongitudeDegrees>
            </Position>
            <AltitudeMeters>2714.39990234375</AltitudeMeters>
            <DistanceMeters>17849.064483618</DistanceMeters>
          </Trackpoint>
          <Trackpoint>
            <Time>2022-07-09T14:38:57.000Z</Time>
            <Position>
              <LatitudeDegrees>42.7790908701717853546142578125</LatitudeDegrees>
              <LongitudeDegrees>-0.13145045377314090728759765625</LongitudeDegrees>
            </Position>
            <AltitudeMeters>2714.39990234375</AltitudeMeters>
            <DistanceMeters>17851.055514396</DistanceMeters>
          </Trackpoint>
          <Trackpoint>
            <Time>2022-07-09T14:38:58.000Z</Time>
            <Position>
              <LatitudeDegrees>42.7790975756943225860595703125</LatitudeDegrees>
              <LongitudeDegrees>-0.13146051205694675445556640625</LongitudeDegrees>
            </Position>
            <AltitudeMeters>2714.60009765625</AltitudeMeters>
            <DistanceMeters>17852.167773571</DistanceMeters>
          </Trackpoint>
          <Trackpoint>
            <Time>2022-07-09T14:39:04.000Z</Time>
            <Position>
              <LatitudeDegrees>42.77912096120417118072509765625</LatitudeDegrees>
              <LongitudeDegrees>-0.13147744350135326385498046875</LongitudeDegrees>
            </Position>
            <AltitudeMeters>2715</AltitudeMeters>
            <DistanceMeters>17855.118196201</DistanceMeters>
          </Trackpoint>
          <Trackpoint>
            <Time>2022-07-09T14:39:05.000Z</Time>
            <Position>
              <LatitudeDegrees>42.77912079356610774993896484375</LatitudeDegrees>
              <LongitudeDegrees>-0.13147191144526004791259765625</LongitudeDegrees>
            </Position>
            <AltitudeMeters>2715</AltitudeMeters>
            <DistanceMeters>17855.583730125</DistanceMeters>
          </Trackpoint>
          <Trackpoint>
            <Time>2022-07-09T14:39:08.000Z</Time>
            <Position>
              <LatitudeDegrees>42.77911358512938022613525390625</LatitudeDegrees>
              <LongitudeDegrees>-0.13143972493708133697509765625</LongitudeDegrees>
            </Position>
            <AltitudeMeters>2715.39990234375</AltitudeMeters>
            <DistanceMeters>17858.334585276</DistanceMeters>
          </Trackpoint>
          <Trackpoint>
            <Time>2022-07-09T14:39:13.000Z</Time>
            <Position>
              <LatitudeDegrees>42.77914862148463726043701171875</LatitudeDegrees>
              <LongitudeDegrees>-0.13143285177648067474365234375</LongitudeDegrees>
            </Position>
            <AltitudeMeters>2716.199951171875</AltitudeMeters>
            <DistanceMeters>17862.275617055</DistanceMeters>
          </Trackpoint>
          <Trackpoint>
            <Time>2022-07-09T14:39:16.000Z</Time>
            <Position>
              <LatitudeDegrees>42.7791698276996612548828125</LatitudeDegrees>
              <LongitudeDegrees>-0.13141172938048839569091796875</LongitudeDegrees>
            </Position>
            <AltitudeMeters>2716</AltitudeMeters>
            <DistanceMeters>17865.2014524</DistanceMeters>
          </Trackpoint>
          <Trackpoint>
            <Time>2022-07-09T14:39:22.000Z</Time>
            <Position>
              <LatitudeDegrees>42.77914510108530521392822265625</LatitudeDegrees>
              <LongitudeDegrees>-0.13140217401087284088134765625</LongitudeDegrees>
            </Position>
            <AltitudeMeters>2716</AltitudeMeters>
            <DistanceMeters>17868.061740717</DistanceMeters>
          </Trackpoint>
          <Trackpoint>
            <Time>2022-07-09T14:39:23.000Z</Time>
            <Position>
              <LatitudeDegrees>42.7791441790759563446044921875</LatitudeDegrees>
              <LongitudeDegrees>-0.1314143277704715728759765625</LongitudeDegrees>
            </Position>
            <AltitudeMeters>2716</AltitudeMeters>
            <DistanceMeters>17869.058389306</DistanceMeters>
          </Trackpoint>
          <Trackpoint>
            <Time>2022-07-09T14:39:27.000Z</Time>
            <Position>
              <LatitudeDegrees>42.77918030507862567901611328125</LatitudeDegrees>
              <LongitudeDegrees>-0.13137049041688442230224609375</LongitudeDegrees>
            </Position>
            <AltitudeMeters>2715.60009765625</AltitudeMeters>
            <DistanceMeters>17874.442304738</DistanceMeters>
          </Trackpoint>
          <Trackpoint>
            <Time>2022-07-09T14:39:28.000Z</Time>
            <Position>
              <LatitudeDegrees>42.7791944704949855804443359375</LatitudeDegrees>
              <LongitudeDegrees>-0.1313455961644649505615234375</LongitudeDegrees>
            </Position>
            <AltitudeMeters>2715.60009765625</AltitudeMeters>
            <DistanceMeters>17877.015055413</DistanceMeters>
          </Trackpoint>
          <Trackpoint>
            <Time>2022-07-09T14:39:29.000Z</Time>
            <Position>
              <LatitudeDegrees>42.779205702245235443115234375</LatitudeDegrees>
              <LongitudeDegrees>-0.131335370242595672607421875</LongitudeDegrees>
            </Position>
            <AltitudeMeters>2715.39990234375</AltitudeMeters>
            <DistanceMeters>17878.517559693</DistanceMeters>
          </Trackpoint>
          <Trackpoint>
            <Time>2022-07-09T14:39:31.000Z</Time>
            <Position>
              <LatitudeDegrees>42.779223136603832244873046875</LatitudeDegrees>
              <LongitudeDegrees>-0.1313358731567859649658203125</LongitudeDegrees>
            </Position>
            <AltitudeMeters>2715.199951171875</AltitudeMeters>
            <DistanceMeters>17880.460385458</DistanceMeters>
          </Trackpoint>
          <Trackpoint>
            <Time>2022-07-09T14:39:34.000Z</Time>
            <Position>
              <LatitudeDegrees>42.77924534864723682403564453125</LatitudeDegrees>
              <LongitudeDegrees>-0.13135439716279506683349609375</LongitudeDegrees>
            </Position>
            <AltitudeMeters>2714.800048828125</AltitudeMeters>
            <DistanceMeters>17883.359868372</DistanceMeters>
          </Trackpoint>
          <Trackpoint>
            <Time>2022-07-09T14:39:39.000Z</Time>
            <Position>
              <LatitudeDegrees>42.7792772836983203887939453125</LatitudeDegrees>
              <LongitudeDegrees>-0.13137795031070709228515625</LongitudeDegrees>
            </Position>
            <AltitudeMeters>2714.800048828125</AltitudeMeters>
            <DistanceMeters>17887.401576957</DistanceMeters>
          </Trackpoint>
          <Trackpoint>
            <Time>2022-07-09T14:39:40.000Z</Time>
            <Position>
              <LatitudeDegrees>42.7792836539447307586669921875</LatitudeDegrees>
              <LongitudeDegrees>-0.13137996196746826171875</LongitudeDegrees>
            </Position>
            <AltitudeMeters>2714.60009765625</AltitudeMeters>
            <DistanceMeters>17888.131491</DistanceMeters>
          </Trackpoint>
          <Trackpoint>
            <Time>2022-07-09T14:39:44.000Z</Time>
            <Position>
              <LatitudeDegrees>42.77930754236876964569091796875</LatitudeDegrees>
              <LongitudeDegrees>-0.13138993643224239349365234375</LongitudeDegrees>
            </Position>
            <AltitudeMeters>2715</AltitudeMeters>
            <DistanceMeters>17890.911732975</DistanceMeters>
          </Trackpoint>
          <Trackpoint>
            <Time>2022-07-09T14:39:45.000Z</Time>
            <Position>
              <LatitudeDegrees>42.77931039221584796905517578125</LatitudeDegrees>
              <LongitudeDegrees>-0.13139211572706699371337890625</LongitudeDegrees>
            </Position>
            <AltitudeMeters>2715</AltitudeMeters>
            <DistanceMeters>17891.267290382</DistanceMeters>
          </Trackpoint>
          <Trackpoint>
            <Time>2022-07-09T14:39:47.000Z</Time>
            <Position>
              <LatitudeDegrees>42.779320366680622100830078125</LatitudeDegrees>
              <LongitudeDegrees>-0.13140343129634857177734375</LongitudeDegrees>
            </Position>
            <AltitudeMeters>2715</AltitudeMeters>
            <DistanceMeters>17892.7115714</DistanceMeters>
          </Trackpoint>
          <Trackpoint>
            <Time>2022-07-09T14:39:53.000Z</Time>
            <Position>
              <LatitudeDegrees>42.77938046492636203765869140625</LatitudeDegrees>
              <LongitudeDegrees>-0.1314659602940082550048828125</LongitudeDegrees>
            </Position>
            <AltitudeMeters>2715.199951171875</AltitudeMeters>
            <DistanceMeters>17901.128277983</DistanceMeters>
          </Trackpoint>
          <Trackpoint>
            <Time>2022-07-09T14:39:54.000Z</Time>
            <Position>
              <LatitudeDegrees>42.779385745525360107421875</LatitudeDegrees>
              <LongitudeDegrees>-0.13146989978849887847900390625</LongitudeDegrees>
            </Position>
            <AltitudeMeters>2715.199951171875</AltitudeMeters>
            <DistanceMeters>17901.786642373</DistanceMeters>
          </Trackpoint>
          <Trackpoint>
            <Time>2022-07-09T14:39:55.000Z</Time>
            <Position>
              <LatitudeDegrees>42.7793906070291996002197265625</LatitudeDegrees>
              <LongitudeDegrees>-0.131475515663623809814453125</LongitudeDegrees>
            </Position>
            <AltitudeMeters>2715</AltitudeMeters>
            <DistanceMeters>17902.497757188</DistanceMeters>
          </Trackpoint>
          <Trackpoint>
            <Time>2022-07-09T14:39:57.000Z</Time>
            <Position>
              <LatitudeDegrees>42.77940242551267147064208984375</LatitudeDegrees>
              <LongitudeDegrees>-0.13149705715477466583251953125</LongitudeDegrees>
            </Position>
            <AltitudeMeters>2714.39990234375</AltitudeMeters>
            <DistanceMeters>17904.697784682</DistanceMeters>
          </Trackpoint>
          <Trackpoint>
            <Time>2022-07-09T14:39:58.000Z</Time>
            <Position>
              <LatitudeDegrees>42.7794085443019866943359375</LatitudeDegrees>
              <LongitudeDegrees>-0.13150711543858051300048828125</LongitudeDegrees>
            </Position>
            <AltitudeMeters>2714.199951171875</AltitudeMeters>
            <DistanceMeters>17905.764456905</DistanceMeters>
          </Trackpoint>
          <Trackpoint>
            <Time>2022-07-09T14:40:00.000Z</Time>
            <Position>
              <LatitudeDegrees>42.77941969223320484161376953125</LatitudeDegrees>
              <LongitudeDegrees>-0.13152790255844593048095703125</LongitudeDegrees>
            </Position>
            <AltitudeMeters>2713.800048828125</AltitudeMeters>
            <DistanceMeters>17907.867962897</DistanceMeters>
          </Trackpoint>
          <Trackpoint>
            <Time>2022-07-09T14:40:01.000Z</Time>
            <Position>
              <LatitudeDegrees>42.77942924760282039642333984375</LatitudeDegrees>
              <LongitudeDegrees>-0.13153913430869579315185546875</LongitudeDegrees>
            </Position>
            <AltitudeMeters>2713.800048828125</AltitudeMeters>
            <DistanceMeters>17909.27422985</DistanceMeters>
          </Trackpoint>
          <Trackpoint>
            <Time>2022-07-09T14:40:02.000Z</Time>
            <Position>
              <LatitudeDegrees>42.779437042772769927978515625</LatitudeDegrees>
              <LongitudeDegrees>-0.131548605859279632568359375</LongitudeDegrees>
            </Position>
            <AltitudeMeters>2713.199951171875</AltitudeMeters>
            <DistanceMeters>17910.43806466</DistanceMeters>
          </Trackpoint>
          <Trackpoint>
            <Time>2022-07-09T14:40:05.000Z</Time>
            <Position>
              <LatitudeDegrees>42.7794621884822845458984375</LatitudeDegrees>
              <LongitudeDegrees>-0.1315739192068576812744140625</LongitudeDegrees>
            </Position>
            <AltitudeMeters>2712.199951171875</AltitudeMeters>
            <DistanceMeters>17913.919208522</DistanceMeters>
          </Trackpoint>
          <Trackpoint>
            <Time>2022-07-09T14:40:06.000Z</Time>
            <Position>
              <LatitudeDegrees>42.77946931309998035430908203125</LatitudeDegrees>
              <LongitudeDegrees>-0.13158045709133148193359375</LongitudeDegrees>
            </Position>
            <AltitudeMeters>2711.60009765625</AltitudeMeters>
            <DistanceMeters>17914.878931293</DistanceMeters>
          </Trackpoint>
          <Trackpoint>
            <Time>2022-07-09T14:40:08.000Z</Time>
            <Position>
              <LatitudeDegrees>42.77948339469730854034423828125</LatitudeDegrees>
              <LongitudeDegrees>-0.131602920591831207275390625</LongitudeDegrees>
            </Position>
            <AltitudeMeters>2711</AltitudeMeters>
            <DistanceMeters>17917.290438961</DistanceMeters>
          </Trackpoint>
          <Trackpoint>
            <Time>2022-07-09T14:40:09.000Z</Time>
            <Position>
              <LatitudeDegrees>42.77949093841016292572021484375</LatitudeDegrees>
              <LongitudeDegrees>-0.13161490671336650848388671875</LongitudeDegrees>
            </Position>
            <AltitudeMeters>2710.800048828125</AltitudeMeters>
            <DistanceMeters>17918.575936525</DistanceMeters>
          </Trackpoint>
          <Trackpoint>
            <Time>2022-07-09T14:40:11.000Z</Time>
            <Position>
              <LatitudeDegrees>42.77951373718678951263427734375</LatitudeDegrees>
              <LongitudeDegrees>-0.1316490210592746734619140625</LongitudeDegrees>
            </Position>
            <AltitudeMeters>2710.39990234375</AltitudeMeters>
            <DistanceMeters>17922.345994923</DistanceMeters>
          </Trackpoint>
          <Trackpoint>
            <Time>2022-07-09T14:40:13.000Z</Time>
            <Position>
              <LatitudeDegrees>42.779537625610828399658203125</LatitudeDegrees>
              <LongitudeDegrees>-0.1316761784255504608154296875</LongitudeDegrees>
            </Position>
            <AltitudeMeters>2710</AltitudeMeters>
            <DistanceMeters>17925.808933201</DistanceMeters>
          </Trackpoint>
          <Trackpoint>
            <Time>2022-07-09T14:40:15.000Z</Time>
            <Position>
              <LatitudeDegrees>42.77955941855907440185546875</LatitudeDegrees>
              <LongitudeDegrees>-0.13168883509933948516845703125</LongitudeDegrees>
            </Position>
            <AltitudeMeters>2709.39990234375</AltitudeMeters>
            <DistanceMeters>17928.449239815</DistanceMeters>
          </Trackpoint>
          <Trackpoint>
            <Time>2022-07-09T14:40:17.000Z</Time>
            <Position>
              <LatitudeDegrees>42.7795810438692569732666015625</LatitudeDegrees>
              <LongitudeDegrees>-0.1316973008215427398681640625</LongitudeDegrees>
            </Position>
            <AltitudeMeters>2709</AltitudeMeters>
            <DistanceMeters>17930.956216721</DistanceMeters>
          </Trackpoint>
          <Trackpoint>
            <Time>2022-07-09T14:40:20.000Z</Time>
            <Position>
              <LatitudeDegrees>42.7796085365116596221923828125</LatitudeDegrees>
              <LongitudeDegrees>-0.1317231170833110809326171875</LongitudeDegrees>
            </Position>
            <AltitudeMeters>2708.60009765625</AltitudeMeters>
            <DistanceMeters>17934.67320703</DistanceMeters>
          </Trackpoint>
          <Trackpoint>
            <Time>2022-07-09T14:40:21.000Z</Time>
            <Position>
              <LatitudeDegrees>42.77961716987192630767822265625</LatitudeDegrees>
              <LongitudeDegrees>-0.13173476792871952056884765625</LongitudeDegrees>
            </Position>
            <AltitudeMeters>2708.60009765625</AltitudeMeters>
            <DistanceMeters>17936.023790401</DistanceMeters>
          </Trackpoint>
          <Trackpoint>
            <Time>2022-07-09T14:40:22.000Z</Time>
            <Position>
              <LatitudeDegrees>42.77962320484220981597900390625</LatitudeDegrees>
              <LongitudeDegrees>-0.131744407117366790771484375</LongitudeDegrees>
            </Position>
            <AltitudeMeters>2707.800048828125</AltitudeMeters>
            <DistanceMeters>17937.05604474</DistanceMeters>
          </Trackpoint>
          <Trackpoint>
            <Time>2022-07-09T14:40:25.000Z</Time>
            <Position>
              <LatitudeDegrees>42.77963728643953800201416015625</LatitudeDegrees>
              <LongitudeDegrees>-0.1317740790545940399169921875</LongitudeDegrees>
            </Position>
            <AltitudeMeters>2707</AltitudeMeters>
            <DistanceMeters>17939.943043278</DistanceMeters>
          </Trackpoint>
          <Trackpoint>
            <Time>2022-07-09T14:40:26.000Z</Time>
            <Position>
              <LatitudeDegrees>42.779635526239871978759765625</LatitudeDegrees>
              <LongitudeDegrees>-0.131784640252590179443359375</LongitudeDegrees>
            </Position>
            <AltitudeMeters>2706.39990234375</AltitudeMeters>
            <DistanceMeters>17940.824284774</DistanceMeters>
          </Trackpoint>
          <Trackpoint>
            <Time>2022-07-09T14:40:27.000Z</Time>
            <Position>
              <LatitudeDegrees>42.7796417288482189178466796875</LatitudeDegrees>
              <LongitudeDegrees>-0.131806433200836181640625</LongitudeDegrees>
            </Position>
            <AltitudeMeters>2706.199951171875</AltitudeMeters>
            <DistanceMeters>17942.734298094</DistanceMeters>
          </Trackpoint>
          <Trackpoint>
            <Time>2022-07-09T14:40:29.000Z</Time>
            <Position>
              <LatitudeDegrees>42.7796581573784351348876953125</LatitudeDegrees>
              <LongitudeDegrees>-0.13183669187128543853759765625</LongitudeDegrees>
            </Position>
            <AltitudeMeters>2705.39990234375</AltitudeMeters>
            <DistanceMeters>17945.807644797</DistanceMeters>
          </Trackpoint>
          <Trackpoint>
            <Time>2022-07-09T14:40:30.000Z</Time>
            <Position>
              <LatitudeDegrees>42.779669724404811859130859375</LatitudeDegrees>
              <LongitudeDegrees>-0.13185312040150165557861328125</LongitudeDegrees>
            </Position>
            <AltitudeMeters>2705</AltitudeMeters>
            <DistanceMeters>17947.664924852</DistanceMeters>
          </Trackpoint>
          <Trackpoint>
            <Time>2022-07-09T14:40:32.000Z</Time>
            <Position>
              <LatitudeDegrees>42.77969646267592906951904296875</LatitudeDegrees>
              <LongitudeDegrees>-0.13187952339649200439453125</LongitudeDegrees>
            </Position>
            <AltitudeMeters>2704.199951171875</AltitudeMeters>
            <DistanceMeters>17951.339154606</DistanceMeters>
          </Trackpoint>
          <Trackpoint>
            <Time>2022-07-09T14:40:33.000Z</Time>
            <Position>
              <LatitudeDegrees>42.77971272356808185577392578125</LatitudeDegrees>
              <LongitudeDegrees>-0.13189494609832763671875</LongitudeDegrees>
            </Position>
            <AltitudeMeters>2703.60009765625</AltitudeMeters>
            <DistanceMeters>17953.543282807</DistanceMeters>
          </Trackpoint>
          <Trackpoint>
            <Time>2022-07-09T14:40:34.000Z</Time>
            <Position>
              <LatitudeDegrees>42.779728062450885772705078125</LatitudeDegrees>
              <LongitudeDegrees>-0.131905339658260345458984375</LongitudeDegrees>
            </Position>
            <AltitudeMeters>2703</AltitudeMeters>
            <DistanceMeters>17955.448562506</DistanceMeters>
          </Trackpoint>
          <Trackpoint>
            <Time>2022-07-09T14:40:35.000Z</Time>
            <Position>
              <LatitudeDegrees>42.7797411382198333740234375</LatitudeDegrees>
              <LongitudeDegrees>-0.1319145597517490386962890625</LongitudeDegrees>
            </Position>
            <AltitudeMeters>2702.60009765625</AltitudeMeters>
            <DistanceMeters>17957.088977935</DistanceMeters>
          </Trackpoint>
          <Trackpoint>
            <Time>2022-07-09T14:40:36.000Z</Time>
            <Position>
              <LatitudeDegrees>42.7797518670558929443359375</LatitudeDegrees>
              <LongitudeDegrees>-0.13191916979849338531494140625</LongitudeDegrees>
            </Position>
            <AltitudeMeters>2701.800048828125</AltitudeMeters>
            <DistanceMeters>17958.342466388</DistanceMeters>
          </Trackpoint>
          <Trackpoint>
            <Time>2022-07-09T14:40:37.000Z</Time>
            <Position>
              <LatitudeDegrees>42.77976368553936481475830078125</LatitudeDegrees>
              <LongitudeDegrees>-0.1319269649684429168701171875</LongitudeDegrees>
            </Position>
            <AltitudeMeters>2701</AltitudeMeters>
            <DistanceMeters>17959.802294474</DistanceMeters>
          </Trackpoint>
          <Trackpoint>
            <Time>2022-07-09T14:40:38.000Z</Time>
            <Position>
              <LatitudeDegrees>42.77977525256574153900146484375</LatitudeDegrees>
              <LongitudeDegrees>-0.13193509541451930999755859375</LongitudeDegrees>
            </Position>
            <AltitudeMeters>2700.39990234375</AltitudeMeters>
            <DistanceMeters>17961.249698265</DistanceMeters>
          </Trackpoint>
          <Trackpoint>
            <Time>2022-07-09T14:40:39.000Z</Time>
            <Position>
              <LatitudeDegrees>42.7797855623066425323486328125</LatitudeDegrees>
              <LongitudeDegrees>-0.13193995691835880279541015625</LongitudeDegrees>
            </Position>
            <AltitudeMeters>2700</AltitudeMeters>
            <DistanceMeters>17962.462918138</DistanceMeters>
          </Trackpoint>
          <Trackpoint>
            <Time>2022-07-09T14:40:41.000Z</Time>
            <Position>
              <LatitudeDegrees>42.7797999791800975799560546875</LatitudeDegrees>
              <LongitudeDegrees>-0.131945908069610595703125</LongitudeDegrees>
            </Position>
            <AltitudeMeters>2699.60009765625</AltitudeMeters>
            <DistanceMeters>17964.141424573</DistanceMeters>
          </Trackpoint>
          <Trackpoint>
            <Time>2022-07-09T14:40:43.000Z</Time>
            <Position>
              <LatitudeDegrees>42.77980911545455455780029296875</LatitudeDegrees>
              <LongitudeDegrees>-0.1319557987153530120849609375</LongitudeDegrees>
            </Position>
            <AltitudeMeters>2699.199951171875</AltitudeMeters>
            <DistanceMeters>17965.437416169</DistanceMeters>
          </Trackpoint>
          <Trackpoint>
            <Time>2022-07-09T14:40:45.000Z</Time>
            <Position>
              <LatitudeDegrees>42.779805175960063934326171875</LatitudeDegrees>
              <LongitudeDegrees>-0.13196208514273166656494140625</LongitudeDegrees>
            </Position>
            <AltitudeMeters>2699</AltitudeMeters>
            <DistanceMeters>17966.10935651</DistanceMeters>
          </Trackpoint>
          <Trackpoint>
            <Time>2022-07-09T14:40:48.000Z</Time>
            <Position>
              <LatitudeDegrees>42.779785729944705963134765625</LatitudeDegrees>
              <LongitudeDegrees>-0.13196476735174655914306640625</LongitudeDegrees>
            </Position>
            <AltitudeMeters>2698.60009765625</AltitudeMeters>
            <DistanceMeters>17968.284617427</DistanceMeters>
          </Trackpoint>
          <Trackpoint>
            <Time>2022-07-09T14:40:49.000Z</Time>
            <Position>
              <LatitudeDegrees>42.7797781862318515777587890625</LatitudeDegrees>
              <LongitudeDegrees>-0.13196594081819057464599609375</LongitudeDegrees>
            </Position>
            <AltitudeMeters>2697.60009765625</AltitudeMeters>
            <DistanceMeters>17969.123870645</DistanceMeters>
          </Trackpoint>
          <Trackpoint>
            <Time>2022-07-09T14:40:50.000Z</Time>
            <Position>
              <LatitudeDegrees>42.77976888231933116912841796875</LatitudeDegrees>
              <LongitudeDegrees>-0.131969712674617767333984375</LongitudeDegrees>
            </Position>
            <AltitudeMeters>2696.60009765625</AltitudeMeters>
            <DistanceMeters>17970.207341889</DistanceMeters>
          </Trackpoint>
          <Trackpoint>
            <Time>2022-07-09T14:40:53.000Z</Time>
            <Position>
              <LatitudeDegrees>42.77973904274404048919677734375</LatitudeDegrees>
              <LongitudeDegrees>-0.131978094577789306640625</LongitudeDegrees>
            </Position>
            <AltitudeMeters>2695.39990234375</AltitudeMeters>
            <DistanceMeters>17973.599143385</DistanceMeters>
          </Trackpoint>
          <Trackpoint>
            <Time>2022-07-09T14:40:55.000Z</Time>
            <Position>
              <LatitudeDegrees>42.77971892617642879486083984375</LatitudeDegrees>
              <LongitudeDegrees>-0.13198454864323139190673828125</LongitudeDegrees>
            </Position>
            <AltitudeMeters>2695.199951171875</AltitudeMeters>
            <DistanceMeters>17975.899496575</DistanceMeters>
          </Trackpoint>
          <Trackpoint>
            <Time>2022-07-09T14:40:56.000Z</Time>
            <Position>
              <LatitudeDegrees>42.77970559895038604736328125</LatitudeDegrees>
              <LongitudeDegrees>-0.131985135376453399658203125</LongitudeDegrees>
            </Position>
            <AltitudeMeters>2695</AltitudeMeters>
            <DistanceMeters>17977.383861305</DistanceMeters>
          </Trackpoint>
          <Trackpoint>
            <Time>2022-07-09T14:40:58.000Z</Time>
            <Position>
              <LatitudeDegrees>42.7796776033937931060791015625</LatitudeDegrees>
              <LongitudeDegrees>-0.1319794356822967529296875</LongitudeDegrees>
            </Position>
            <AltitudeMeters>2694.199951171875</AltitudeMeters>
            <DistanceMeters>17980.534107964</DistanceMeters>
          </Trackpoint>
          <Trackpoint>
            <Time>2022-07-09T14:40:59.000Z</Time>
            <Position>
              <LatitudeDegrees>42.77966201305389404296875</LatitudeDegrees>
              <LongitudeDegrees>-0.13197734020650386810302734375</LongitudeDegrees>
            </Position>
            <AltitudeMeters>2693.800048828125</AltitudeMeters>
            <DistanceMeters>17982.27597641</DistanceMeters>
          </Trackpoint>
          <Trackpoint>
            <Time>2022-07-09T14:41:00.000Z</Time>
            <Position>
              <LatitudeDegrees>42.7796460874378681182861328125</LatitudeDegrees>
              <LongitudeDegrees>-0.1319775916635990142822265625</LongitudeDegrees>
            </Position>
            <AltitudeMeters>2693.60009765625</AltitudeMeters>
            <DistanceMeters>17984.048676781</DistanceMeters>
          </Trackpoint>
          <Trackpoint>
            <Time>2022-07-09T14:41:01.000Z</Time>
            <Position>
              <LatitudeDegrees>42.779630832374095916748046875</LatitudeDegrees>
              <LongitudeDegrees>-0.13198002241551876068115234375</LongitudeDegrees>
            </Position>
            <AltitudeMeters>2693</AltitudeMeters>
            <DistanceMeters>17985.753870205</DistanceMeters>
          </Trackpoint>
          <Trackpoint>
            <Time>2022-07-09T14:41:04.000Z</Time>
            <Position>
              <LatitudeDegrees>42.77960426174104213714599609375</LatitudeDegrees>
              <LongitudeDegrees>-0.13199645094573497772216796875</LongitudeDegrees>
            </Position>
            <AltitudeMeters>2691.800048828125</AltitudeMeters>
            <DistanceMeters>17989.000114067</DistanceMeters>
          </Trackpoint>
          <Trackpoint>
            <Time>2022-07-09T14:41:06.000Z</Time>
            <Position>
              <LatitudeDegrees>42.77958397753536701202392578125</LatitudeDegrees>
              <LongitudeDegrees>-0.1320168189704418182373046875</LongitudeDegrees>
            </Position>
            <AltitudeMeters>2691</AltitudeMeters>
            <DistanceMeters>17991.806219314</DistanceMeters>
          </Trackpoint>
          <Trackpoint>
            <Time>2022-07-09T14:41:07.000Z</Time>
            <Position>
              <LatitudeDegrees>42.77957190759479999542236328125</LatitudeDegrees>
              <LongitudeDegrees>-0.13202033936977386474609375</LongitudeDegrees>
            </Position>
            <AltitudeMeters>2690.60009765625</AltitudeMeters>
            <DistanceMeters>17993.180004587</DistanceMeters>
          </Trackpoint>
          <Trackpoint>
            <Time>2022-07-09T14:41:09.000Z</Time>
            <Position>
              <LatitudeDegrees>42.77955363504588603973388671875</LatitudeDegrees>
              <LongitudeDegrees>-0.13202494941651821136474609375</LongitudeDegrees>
            </Position>
            <AltitudeMeters>2689.800048828125</AltitudeMeters>
            <DistanceMeters>17995.248882601</DistanceMeters>
          </Trackpoint>
          <Trackpoint>
            <Time>2022-07-09T14:41:10.000Z</Time>
            <Position>
              <LatitudeDegrees>42.779545672237873077392578125</LatitudeDegrees>
              <LongitudeDegrees>-0.13202570378780364990234375</LongitudeDegrees>
            </Position>
            <AltitudeMeters>2689.60009765625</AltitudeMeters>
            <DistanceMeters>17996.140312198</DistanceMeters>
          </Trackpoint>
          <Trackpoint>
            <Time>2022-07-09T14:41:12.000Z</Time>
            <Position>
              <LatitudeDegrees>42.77953335084021091461181640625</LatitudeDegrees>
              <LongitudeDegrees>-0.13203500770032405853271484375</LongitudeDegrees>
            </Position>
            <AltitudeMeters>2689</AltitudeMeters>
            <DistanceMeters>17997.707532921</DistanceMeters>
          </Trackpoint>
          <Trackpoint>
            <Time>2022-07-09T14:41:13.000Z</Time>
            <Position>
              <LatitudeDegrees>42.77952748350799083709716796875</LatitudeDegrees>
              <LongitudeDegrees>-0.13204582035541534423828125</LongitudeDegrees>
            </Position>
            <AltitudeMeters>2688.60009765625</AltitudeMeters>
            <DistanceMeters>17998.807546668</DistanceMeters>
          </Trackpoint>
          <Trackpoint>
            <Time>2022-07-09T14:41:14.000Z</Time>
            <Position>
              <LatitudeDegrees>42.7795203588902950286865234375</LatitudeDegrees>
              <LongitudeDegrees>-0.13205126859247684478759765625</LongitudeDegrees>
            </Position>
            <AltitudeMeters>2688.199951171875</AltitudeMeters>
            <DistanceMeters>17999.719010892</DistanceMeters>
          </Trackpoint>
          <Trackpoint>
            <Time>2022-07-09T14:41:18.000Z</Time>
            <Position>
              <LatitudeDegrees>42.779539637267589569091796875</LatitudeDegrees>
              <LongitudeDegrees>-0.1321227662265300750732421875</LongitudeDegrees>
            </Position>
            <AltitudeMeters>2687</AltitudeMeters>
            <DistanceMeters>18005.941628331</DistanceMeters>
          </Trackpoint>
          <Trackpoint>
            <Time>2022-07-09T14:41:22.000Z</Time>
            <Position>
              <LatitudeDegrees>42.779571153223514556884765625</LatitudeDegrees>
              <LongitudeDegrees>-0.13219334185123443603515625</LongitudeDegrees>
            </Position>
            <AltitudeMeters>2686</AltitudeMeters>
            <DistanceMeters>18012.69053236</DistanceMeters>
          </Trackpoint>
          <Trackpoint>
            <Time>2022-07-09T14:41:23.000Z</Time>
            <Position>
              <LatitudeDegrees>42.77958028949797153472900390625</LatitudeDegrees>
              <LongitudeDegrees>-0.13220616616308689117431640625</LongitudeDegrees>
            </Position>
            <AltitudeMeters>2685.800048828125</AltitudeMeters>
            <DistanceMeters>18014.150360446</DistanceMeters>
          </Trackpoint>
          <Trackpoint>
            <Time>2022-07-09T14:41:25.000Z</Time>
            <Position>
              <LatitudeDegrees>42.77960727922618389129638671875</LatitudeDegrees>
              <LongitudeDegrees>-0.13223919086158275604248046875</LongitudeDegrees>
            </Position>
            <AltitudeMeters>2685.39990234375</AltitudeMeters>
            <DistanceMeters>18018.186479609</DistanceMeters>
          </Trackpoint>
          <Trackpoint>
            <Time>2022-07-09T14:41:26.000Z</Time>
            <Position>
              <LatitudeDegrees>42.7796212770044803619384765625</LatitudeDegrees>
              <LongitudeDegrees>-0.132251344621181488037109375</LongitudeDegrees>
            </Position>
            <AltitudeMeters>2684.800048828125</AltitudeMeters>
            <DistanceMeters>18020.034010095</DistanceMeters>
          </Trackpoint>
          <Trackpoint>
            <Time>2022-07-09T14:41:27.000Z</Time>
            <Position>
              <LatitudeDegrees>42.7796407230198383331298828125</LatitudeDegrees>
              <LongitudeDegrees>-0.13226576149463653564453125</LongitudeDegrees>
            </Position>
            <AltitudeMeters>2684.39990234375</AltitudeMeters>
            <DistanceMeters>18022.497384076</DistanceMeters>
          </Trackpoint>
          <Trackpoint>
            <Time>2022-07-09T14:41:28.000Z</Time>
            <Position>
              <LatitudeDegrees>42.77966360561549663543701171875</LatitudeDegrees>
              <LongitudeDegrees>-0.13227808289229869842529296875</LongitudeDegrees>
            </Position>
            <AltitudeMeters>2683.39990234375</AltitudeMeters>
            <DistanceMeters>18025.235077165</DistanceMeters>
          </Trackpoint>
          <Trackpoint>
            <Time>2022-07-09T14:41:30.000Z</Time>
            <Position>
              <LatitudeDegrees>42.77969889342784881591796875</LatitudeDegrees>
              <LongitudeDegrees>-0.1322977803647518157958984375</LongitudeDegrees>
            </Position>
            <AltitudeMeters>2681.60009765625</AltitudeMeters>
            <DistanceMeters>18029.479485546</DistanceMeters>
          </Trackpoint>
          <Trackpoint>
            <Time>2022-07-09T14:41:31.000Z</Time>
            <Position>
              <LatitudeDegrees>42.77971624396741390228271484375</LatitudeDegrees>
              <LongitudeDegrees>-0.13230725191533565521240234375</LongitudeDegrees>
            </Position>
            <AltitudeMeters>2680.39990234375</AltitudeMeters>
            <DistanceMeters>18031.557074663</DistanceMeters>
          </Trackpoint>
          <Trackpoint>
            <Time>2022-07-09T14:41:32.000Z</Time>
            <Position>
              <LatitudeDegrees>42.77973116375505924224853515625</LatitudeDegrees>
              <LongitudeDegrees>-0.1323125325143337249755859375</LongitudeDegrees>
            </Position>
            <AltitudeMeters>2679.800048828125</AltitudeMeters>
            <DistanceMeters>18033.270193119</DistanceMeters>
          </Trackpoint>
          <Trackpoint>
            <Time>2022-07-09T14:41:33.000Z</Time>
            <Position>
              <LatitudeDegrees>42.77974373660981655120849609375</LatitudeDegrees>
              <LongitudeDegrees>-0.13231513090431690216064453125</LongitudeDegrees>
            </Position>
            <AltitudeMeters>2679.39990234375</AltitudeMeters>
            <DistanceMeters>18034.686059275</DistanceMeters>
          </Trackpoint>
          <Trackpoint>
            <Time>2022-07-09T14:41:37.000Z</Time>
            <Position>
              <LatitudeDegrees>42.7797976322472095489501953125</LatitudeDegrees>
              <LongitudeDegrees>-0.13234312646090984344482421875</LongitudeDegrees>
            </Position>
            <AltitudeMeters>2678.39990234375</AltitudeMeters>
            <DistanceMeters>18041.105815414</DistanceMeters>
          </Trackpoint>
          <Trackpoint>
            <Time>2022-07-09T14:41:42.000Z</Time>
            <Position>
              <LatitudeDegrees>42.77984314598143100738525390625</LatitudeDegrees>
              <LongitudeDegrees>-0.1323765702545642852783203125</LongitudeDegrees>
            </Position>
            <AltitudeMeters>2676.800048828125</AltitudeMeters>
            <DistanceMeters>18046.861014837</DistanceMeters>
          </Trackpoint>
          <Trackpoint>
            <Time>2022-07-09T14:41:43.000Z</Time>
            <Position>
              <LatitudeDegrees>42.77985001914203166961669921875</LatitudeDegrees>
              <LongitudeDegrees>-0.13238520361483097076416015625</LongitudeDegrees>
            </Position>
            <AltitudeMeters>2676.39990234375</AltitudeMeters>
            <DistanceMeters>18047.897633908</DistanceMeters>
          </Trackpoint>
          <Trackpoint>
            <Time>2022-07-09T14:41:44.000Z</Time>
            <Position>
              <LatitudeDegrees>42.77985689230263233184814453125</LatitudeDegrees>
              <LongitudeDegrees>-0.13239224441349506378173828125</LongitudeDegrees>
            </Position>
            <AltitudeMeters>2676.199951171875</AltitudeMeters>
            <DistanceMeters>18048.857356679</DistanceMeters>
          </Trackpoint>
          <Trackpoint>
            <Time>2022-07-09T14:41:46.000Z</Time>
            <Position>
              <LatitudeDegrees>42.7798740752041339874267578125</LatitudeDegrees>
              <LongitudeDegrees>-0.13241252861917018890380859375</LongitudeDegrees>
            </Position>
            <AltitudeMeters>2676</AltitudeMeters>
            <DistanceMeters>18051.389421898</DistanceMeters>
          </Trackpoint>
          <Trackpoint>
            <Time>2022-07-09T14:41:48.000Z</Time>
            <Position>
              <LatitudeDegrees>42.77989544905722141265869140625</LatitudeDegrees>
              <LongitudeDegrees>-0.132435075938701629638671875</LongitudeDegrees>
            </Position>
            <AltitudeMeters>2676.199951171875</AltitudeMeters>
            <DistanceMeters>18054.397433965</DistanceMeters>
          </Trackpoint>
          <Trackpoint>
            <Time>2022-07-09T14:41:50.000Z</Time>
            <Position>
              <LatitudeDegrees>42.77990953065454959869384765625</LatitudeDegrees>
              <LongitudeDegrees>-0.13245946727693080902099609375</LongitudeDegrees>
            </Position>
            <AltitudeMeters>2675.800048828125</AltitudeMeters>
            <DistanceMeters>18056.933062966</DistanceMeters>
          </Trackpoint>
          <Trackpoint>
            <Time>2022-07-09T14:41:51.000Z</Time>
            <Position>
              <LatitudeDegrees>42.77991757728159427642822265625</LatitudeDegrees>
              <LongitudeDegrees>-0.13247589580714702606201171875</LongitudeDegrees>
            </Position>
            <AltitudeMeters>2675.39990234375</AltitudeMeters>
            <DistanceMeters>18058.545719785</DistanceMeters>
          </Trackpoint>
          <Trackpoint>
            <Time>2022-07-09T14:41:52.000Z</Time>
            <Position>
              <LatitudeDegrees>42.779923863708972930908203125</LatitudeDegrees>
              <LongitudeDegrees>-0.1324895583093166351318359375</LongitudeDegrees>
            </Position>
            <AltitudeMeters>2675</AltitudeMeters>
            <DistanceMeters>18059.862448564</DistanceMeters>
          </Trackpoint>
          <Trackpoint>
            <Time>2022-07-09T14:41:54.000Z</Time>
            <Position>
              <LatitudeDegrees>42.77993224561214447021484375</LatitudeDegrees>
              <LongitudeDegrees>-0.13250355608761310577392578125</LongitudeDegrees>
            </Position>
            <AltitudeMeters>2674.199951171875</AltitudeMeters>
            <DistanceMeters>18061.340717314</DistanceMeters>
          </Trackpoint>
          <Trackpoint>
            <Time>2022-07-09T14:41:57.000Z</Time>
            <Position>
              <LatitudeDegrees>42.77994909323751926422119140625</LatitudeDegrees>
              <LongitudeDegrees>-0.132522918283939361572265625</LongitudeDegrees>
            </Position>
            <AltitudeMeters>2673.60009765625</AltitudeMeters>
            <DistanceMeters>18063.793069433</DistanceMeters>
          </Trackpoint>
          <Trackpoint>
            <Time>2022-07-09T14:41:58.000Z</Time>
            <Position>
              <LatitudeDegrees>42.77995680458843708038330078125</LatitudeDegrees>
              <LongitudeDegrees>-0.1325291208922863006591796875</LongitudeDegrees>
            </Position>
            <AltitudeMeters>2673.60009765625</AltitudeMeters>
            <DistanceMeters>18064.789718021</DistanceMeters>
          </Trackpoint>
          <Trackpoint>
            <Time>2022-07-09T14:41:59.000Z</Time>
            <Position>
              <LatitudeDegrees>42.7799642644822597503662109375</LatitudeDegrees>
              <LongitudeDegrees>-0.1325334794819355010986328125</LongitudeDegrees>
            </Position>
            <AltitudeMeters>2673.39990234375</AltitudeMeters>
            <DistanceMeters>18065.691220589</DistanceMeters>
          </Trackpoint>
          <Trackpoint>
            <Time>2022-07-09T14:42:00.000Z</Time>
            <Position>
              <LatitudeDegrees>42.77997273020446300506591796875</LatitudeDegrees>
              <LongitudeDegrees>-0.13253691606223583221435546875</LongitudeDegrees>
            </Position>
            <AltitudeMeters>2673</AltitudeMeters>
            <DistanceMeters>18066.678767173</DistanceMeters>
          </Trackpoint>
          <Trackpoint>
            <Time>2022-07-09T14:42:01.000Z</Time>
            <Position>
              <LatitudeDegrees>42.779982201755046844482421875</LatitudeDegrees>
              <LongitudeDegrees>-0.13254228048026561737060546875</LongitudeDegrees>
            </Position>
            <AltitudeMeters>2673</AltitudeMeters>
            <DistanceMeters>18067.823040342</DistanceMeters>
          </Trackpoint>
          <Trackpoint>
            <Time>2022-07-09T14:42:02.000Z</Time>
            <Position>
              <LatitudeDegrees>42.77999016456305980682373046875</LatitudeDegrees>
              <LongitudeDegrees>-0.13254362158477306365966796875</LongitudeDegrees>
            </Position>
            <AltitudeMeters>2672.800048828125</AltitudeMeters>
            <DistanceMeters>18068.714469939</DistanceMeters>
          </Trackpoint>
          <Trackpoint>
            <Time>2022-07-09T14:42:06.000Z</Time>
            <Position>
              <LatitudeDegrees>42.7800185792148113250732421875</LatitudeDegrees>
              <LongitudeDegrees>-0.13256323523819446563720703125</LongitudeDegrees>
            </Position>
            <AltitudeMeters>2672.199951171875</AltitudeMeters>
            <DistanceMeters>18072.259870679</DistanceMeters>
          </Trackpoint>
          <Trackpoint>
            <Time>2022-07-09T14:42:07.000Z</Time>
            <Position>
              <LatitudeDegrees>42.78002285398542881011962890625</LatitudeDegrees>
              <LongitudeDegrees>-0.13256424106657505035400390625</LongitudeDegrees>
            </Position>
            <AltitudeMeters>2672</AltitudeMeters>
            <DistanceMeters>18072.735004251</DistanceMeters>
          </Trackpoint>
          <Trackpoint>
            <Time>2022-07-09T14:42:10.000Z</Time>
            <Position>
              <LatitudeDegrees>42.78004632331430912017822265625</LatitudeDegrees>
              <LongitudeDegrees>-0.13259089551866054534912109375</LongitudeDegrees>
            </Position>
            <AltitudeMeters>2671.39990234375</AltitudeMeters>
            <DistanceMeters>18076.134783339</DistanceMeters>
          </Trackpoint>
          <Trackpoint>
            <Time>2022-07-09T14:42:11.000Z</Time>
            <Position>
              <LatitudeDegrees>42.78005721978843212127685546875</LatitudeDegrees>
              <LongitudeDegrees>-0.132598690688610076904296875</LongitudeDegrees>
            </Position>
            <AltitudeMeters>2671.39990234375</AltitudeMeters>
            <DistanceMeters>18077.501979676</DistanceMeters>
          </Trackpoint>
          <Trackpoint>
            <Time>2022-07-09T14:42:13.000Z</Time>
            <Position>
              <LatitudeDegrees>42.78008169494569301605224609375</LatitudeDegrees>
              <LongitudeDegrees>-0.13260799460113048553466796875</LongitudeDegrees>
            </Position>
            <AltitudeMeters>2671.199951171875</AltitudeMeters>
            <DistanceMeters>18080.330521302</DistanceMeters>
          </Trackpoint>
          <Trackpoint>
            <Time>2022-07-09T14:42:14.000Z</Time>
            <Position>
              <LatitudeDegrees>42.7800926752388477325439453125</LatitudeDegrees>
              <LongitudeDegrees>-0.132611431181430816650390625</LongitudeDegrees>
            </Position>
            <AltitudeMeters>2671</AltitudeMeters>
            <DistanceMeters>18081.587606573</DistanceMeters>
          </Trackpoint>
          <Trackpoint>
            <Time>2022-07-09T14:42:15.000Z</Time>
            <Position>
              <LatitudeDegrees>42.78010466136038303375244140625</LatitudeDegrees>
              <LongitudeDegrees>-0.1326162926852703094482421875</LongitudeDegrees>
            </Position>
            <AltitudeMeters>2670.39990234375</AltitudeMeters>
            <DistanceMeters>18082.97772756</DistanceMeters>
          </Trackpoint>
          <Trackpoint>
            <Time>2022-07-09T14:42:19.000Z</Time>
            <Position>
              <LatitudeDegrees>42.78014891780912876129150390625</LatitudeDegrees>
              <LongitudeDegrees>-0.1326313801109790802001953125</LongitudeDegrees>
            </Position>
            <AltitudeMeters>2669.39990234375</AltitudeMeters>
            <DistanceMeters>18088.05610312</DistanceMeters>
          </Trackpoint>
          <Trackpoint>
            <Time>2022-07-09T14:42:21.000Z</Time>
            <Position>
              <LatitudeDegrees>42.7801756560802459716796875</LatitudeDegrees>
              <LongitudeDegrees>-0.13263951055705547332763671875</LongitudeDegrees>
            </Position>
            <AltitudeMeters>2669</AltitudeMeters>
            <DistanceMeters>18091.105853722</DistanceMeters>
          </Trackpoint>
          <Trackpoint>
            <Time>2022-07-09T14:42:22.000Z</Time>
            <Position>
              <LatitudeDegrees>42.78018965385854244232177734375</LatitudeDegrees>
              <LongitudeDegrees>-0.13264504261314868927001953125</LongitudeDegrees>
            </Position>
            <AltitudeMeters>2668.60009765625</AltitudeMeters>
            <DistanceMeters>18092.729670929</DistanceMeters>
          </Trackpoint>
          <Trackpoint>
            <Time>2022-07-09T14:42:24.000Z</Time>
            <Position>
              <LatitudeDegrees>42.7802140451967716217041015625</LatitudeDegrees>
              <LongitudeDegrees>-0.1326575316488742828369140625</LongitudeDegrees>
            </Position>
            <AltitudeMeters>2668.199951171875</AltitudeMeters>
            <DistanceMeters>18095.629153843</DistanceMeters>
          </Trackpoint>
          <Trackpoint>
            <Time>2022-07-09T14:42:26.000Z</Time>
            <Position>
              <LatitudeDegrees>42.78023491613566875457763671875</LatitudeDegrees>
              <LongitudeDegrees>-0.1326687633991241455078125</LongitudeDegrees>
            </Position>
            <AltitudeMeters>2668.199951171875</AltitudeMeters>
            <DistanceMeters>18098.127109572</DistanceMeters>
          </Trackpoint>
          <Trackpoint>
            <Time>2022-07-09T14:42:30.000Z</Time>
            <Position>
              <LatitudeDegrees>42.780272550880908966064453125</LatitudeDegrees>
              <LongitudeDegrees>-0.13267924077808856964111328125</LongitudeDegrees>
            </Position>
            <AltitudeMeters>2667.60009765625</AltitudeMeters>
            <DistanceMeters>18102.402255736</DistanceMeters>
          </Trackpoint>
          <Trackpoint>
            <Time>2022-07-09T14:42:32.000Z</Time>
            <Position>
              <LatitudeDegrees>42.7802881412208080291748046875</LatitudeDegrees>
              <LongitudeDegrees>-0.13269399292767047882080078125</LongitudeDegrees>
            </Position>
            <AltitudeMeters>2667.199951171875</AltitudeMeters>
            <DistanceMeters>18104.514330016</DistanceMeters>
          </Trackpoint>
          <Trackpoint>
            <Time>2022-07-09T14:42:33.000Z</Time>
            <Position>
              <LatitudeDegrees>42.7802985347807407379150390625</LatitudeDegrees>
              <LongitudeDegrees>-0.13269868679344654083251953125</LongitudeDegrees>
            </Position>
            <AltitudeMeters>2667.199951171875</AltitudeMeters>
            <DistanceMeters>18105.731265732</DistanceMeters>
          </Trackpoint>
          <Trackpoint>
            <Time>2022-07-09T14:42:34.000Z</Time>
            <Position>
              <LatitudeDegrees>42.780308090150356292724609375</LatitudeDegrees>
              <LongitudeDegrees>-0.13270472176373004913330078125</LongitudeDegrees>
            </Position>
            <AltitudeMeters>2667</AltitudeMeters>
            <DistanceMeters>18106.910516245</DistanceMeters>
          </Trackpoint>
          <Trackpoint>
            <Time>2022-07-09T14:42:35.000Z</Time>
            <Position>
              <LatitudeDegrees>42.7803183160722255706787109375</LatitudeDegrees>
              <LongitudeDegrees>-0.1327111758291721343994140625</LongitudeDegrees>
            </Position>
            <AltitudeMeters>2666.800048828125</AltitudeMeters>
            <DistanceMeters>18108.167601515</DistanceMeters>
          </Trackpoint>
          <Trackpoint>
            <Time>2022-07-09T14:42:38.000Z</Time>
            <Position>
              <LatitudeDegrees>42.780353017151355743408203125</LatitudeDegrees>
              <LongitudeDegrees>-0.13272349722683429718017578125</LongitudeDegrees>
            </Position>
            <AltitudeMeters>2665.800048828125</AltitudeMeters>
            <DistanceMeters>18112.158723519</DistanceMeters>
          </Trackpoint>
          <Trackpoint>
            <Time>2022-07-09T14:42:42.000Z</Time>
            <Position>
              <LatitudeDegrees>42.78039383701980113983154296875</LatitudeDegrees>
              <LongitudeDegrees>-0.13273975811898708343505859375</LongitudeDegrees>
            </Position>
            <AltitudeMeters>2665</AltitudeMeters>
            <DistanceMeters>18116.892923529</DistanceMeters>
          </Trackpoint>
          <Trackpoint>
            <Time>2022-07-09T14:42:45.000Z</Time>
            <Position>
              <LatitudeDegrees>42.78042384423315525054931640625</LatitudeDegrees>
              <LongitudeDegrees>-0.1327574439346790313720703125</LongitudeDegrees>
            </Position>
            <AltitudeMeters>2664.60009765625</AltitudeMeters>
            <DistanceMeters>18120.531342425</DistanceMeters>
          </Trackpoint>
          <Trackpoint>
            <Time>2022-07-09T14:42:47.000Z</Time>
            <Position>
              <LatitudeDegrees>42.78044966049492359161376953125</LatitudeDegrees>
              <LongitudeDegrees>-0.132761299610137939453125</LongitudeDegrees>
            </Position>
            <AltitudeMeters>2664</AltitudeMeters>
            <DistanceMeters>18123.423028921</DistanceMeters>
          </Trackpoint>
          <Trackpoint>
            <Time>2022-07-09T14:42:51.000Z</Time>
            <Position>
              <LatitudeDegrees>42.78049676679074764251708984375</LatitudeDegrees>
              <LongitudeDegrees>-0.13275736011564731597900390625</LongitudeDegrees>
            </Position>
            <AltitudeMeters>2664</AltitudeMeters>
            <DistanceMeters>18128.676210206</DistanceMeters>
          </Trackpoint>
          <Trackpoint>
            <Time>2022-07-09T14:42:54.000Z</Time>
            <Position>
              <LatitudeDegrees>42.7805308811366558074951171875</LatitudeDegrees>
              <LongitudeDegrees>-0.13277362100780010223388671875</LongitudeDegrees>
            </Position>
            <AltitudeMeters>2663.60009765625</AltitudeMeters>
            <DistanceMeters>18132.698883072</DistanceMeters>
          </Trackpoint>
          <Trackpoint>
            <Time>2022-07-09T14:42:55.000Z</Time>
            <Position>
              <LatitudeDegrees>42.78054202906787395477294921875</LatitudeDegrees>
              <LongitudeDegrees>-0.1327789016067981719970703125</LongitudeDegrees>
            </Position>
            <AltitudeMeters>2663.60009765625</AltitudeMeters>
            <DistanceMeters>18134.008735935</DistanceMeters>
          </Trackpoint>
          <Trackpoint>
            <Time>2022-07-09T14:42:56.000Z</Time>
            <Position>
              <LatitudeDegrees>42.78055259026587009429931640625</LatitudeDegrees>
              <LongitudeDegrees>-0.13278334401547908782958984375</LongitudeDegrees>
            </Position>
            <AltitudeMeters>2663.60009765625</AltitudeMeters>
            <DistanceMeters>18135.240422926</DistanceMeters>
          </Trackpoint>
          <Trackpoint>
            <Time>2022-07-09T14:42:57.000Z</Time>
            <Position>
              <LatitudeDegrees>42.78056214563548564910888671875</LatitudeDegrees>
              <LongitudeDegrees>-0.13278803788125514984130859375</LongitudeDegrees>
            </Position>
            <AltitudeMeters>2663.39990234375</AltitudeMeters>
            <DistanceMeters>18136.372796917</DistanceMeters>
          </Trackpoint>
          <Trackpoint>
            <Time>2022-07-09T14:42:59.000Z</Time>
            <Position>
              <LatitudeDegrees>42.7805821783840656280517578125</LatitudeDegrees>
              <LongitudeDegrees>-0.13279859907925128936767578125</LongitudeDegrees>
            </Position>
            <AltitudeMeters>2663.199951171875</AltitudeMeters>
            <DistanceMeters>18138.761731473</DistanceMeters>
          </Trackpoint>
          <Trackpoint>
            <Time>2022-07-09T14:43:02.000Z</Time>
            <Position>
              <LatitudeDegrees>42.78060690499842166900634765625</LatitudeDegrees>
              <LongitudeDegrees>-0.1328144408762454986572265625</LongitudeDegrees>
            </Position>
            <AltitudeMeters>2662.39990234375</AltitudeMeters>
            <DistanceMeters>18141.802586332</DistanceMeters>
          </Trackpoint>
          <Trackpoint>
            <Time>2022-07-09T14:43:05.000Z</Time>
            <Position>
              <LatitudeDegrees>42.78063875623047351837158203125</LatitudeDegrees>
              <LongitudeDegrees>-0.132841765880584716796875</LongitudeDegrees>
            </Position>
            <AltitudeMeters>2661.39990234375</AltitudeMeters>
            <DistanceMeters>18145.992391651</DistanceMeters>
          </Trackpoint>
          <Trackpoint>
            <Time>2022-07-09T14:43:06.000Z</Time>
            <Position>
              <LatitudeDegrees>42.78064998798072338104248046875</LatitudeDegrees>
              <LongitudeDegrees>-0.1328496448695659637451171875</LongitudeDegrees>
            </Position>
            <AltitudeMeters>2661</AltitudeMeters>
            <DistanceMeters>18147.398658603</DistanceMeters>
          </Trackpoint>
          <Trackpoint>
            <Time>2022-07-09T14:43:08.000Z</Time>
            <Position>
              <LatitudeDegrees>42.7806706912815570831298828125</LatitudeDegrees>
              <LongitudeDegrees>-0.132853500545024871826171875</LongitudeDegrees>
            </Position>
            <AltitudeMeters>2660.39990234375</AltitudeMeters>
            <DistanceMeters>18149.722445537</DistanceMeters>
          </Trackpoint>
          <Trackpoint>
            <Time>2022-07-09T14:43:11.000Z</Time>
            <Position>
              <LatitudeDegrees>42.78070379979908466339111328125</LatitudeDegrees>
              <LongitudeDegrees>-0.132857859134674072265625</LongitudeDegrees>
            </Position>
            <AltitudeMeters>2660</AltitudeMeters>
            <DistanceMeters>18153.42483072</DistanceMeters>
          </Trackpoint>
          <Trackpoint>
            <Time>2022-07-09T14:43:14.000Z</Time>
            <Position>
              <LatitudeDegrees>42.78073850087821483612060546875</LatitudeDegrees>
              <LongitudeDegrees>-0.13287219218909740447998046875</LongitudeDegrees>
            </Position>
            <AltitudeMeters>2659</AltitudeMeters>
            <DistanceMeters>18157.460949884</DistanceMeters>
          </Trackpoint>
          <Trackpoint>
            <Time>2022-07-09T14:43:15.000Z</Time>
            <Position>
              <LatitudeDegrees>42.78074973262846469879150390625</LatitudeDegrees>
              <LongitudeDegrees>-0.13287839479744434356689453125</LongitudeDegrees>
            </Position>
            <AltitudeMeters>2658.800048828125</AltitudeMeters>
            <DistanceMeters>18158.811533255</DistanceMeters>
          </Trackpoint>
          <Trackpoint>
            <Time>2022-07-09T14:43:17.000Z</Time>
            <Position>
              <LatitudeDegrees>42.78076750226318836212158203125</LatitudeDegrees>
              <LongitudeDegrees>-0.132887363433837890625</LongitudeDegrees>
            </Position>
            <AltitudeMeters>2658.199951171875</AltitudeMeters>
            <DistanceMeters>18160.921468724</DistanceMeters>
          </Trackpoint>
          <Trackpoint>
            <Time>2022-07-09T14:43:19.000Z</Time>
            <Position>
              <LatitudeDegrees>42.780790217220783233642578125</LatitudeDegrees>
              <LongitudeDegrees>-0.132909826934337615966796875</LongitudeDegrees>
            </Position>
            <AltitudeMeters>2657.60009765625</AltitudeMeters>
            <DistanceMeters>18164.047255459</DistanceMeters>
          </Trackpoint>
          <Trackpoint>
            <Time>2022-07-09T14:43:22.000Z</Time>
            <Position>
              <LatitudeDegrees>42.780818045139312744140625</LatitudeDegrees>
              <LongitudeDegrees>-0.13292449526488780975341796875</LongitudeDegrees>
            </Position>
            <AltitudeMeters>2657.39990234375</AltitudeMeters>
            <DistanceMeters>18167.369115392</DistanceMeters>
          </Trackpoint>
          <Trackpoint>
            <Time>2022-07-09T14:43:24.000Z</Time>
            <Position>
              <LatitudeDegrees>42.780832462012767791748046875</LatitudeDegrees>
              <LongitudeDegrees>-0.13293136842548847198486328125</LongitudeDegrees>
            </Position>
            <AltitudeMeters>2656.800048828125</AltitudeMeters>
            <DistanceMeters>18169.071658942</DistanceMeters>
          </Trackpoint>
          <Trackpoint>
            <Time>2022-07-09T14:43:25.000Z</Time>
            <Position>
              <LatitudeDegrees>42.78084017336368560791015625</LatitudeDegrees>
              <LongitudeDegrees>-0.13293229043483734130859375</LongitudeDegrees>
            </Position>
            <AltitudeMeters>2656.60009765625</AltitudeMeters>
            <DistanceMeters>18169.932162439</DistanceMeters>
          </Trackpoint>
          <Trackpoint>
            <Time>2022-07-09T14:43:28.000Z</Time>
            <Position>
              <LatitudeDegrees>42.78088132850825786590576171875</LatitudeDegrees>
              <LongitudeDegrees>-0.13295240700244903564453125</LongitudeDegrees>
            </Position>
            <AltitudeMeters>2656.199951171875</AltitudeMeters>
            <DistanceMeters>18174.798049864</DistanceMeters>
          </Trackpoint>
          <Trackpoint>
            <Time>2022-07-09T14:43:32.000Z</Time>
            <Position>
              <LatitudeDegrees>42.780939750373363494873046875</LatitudeDegrees>
              <LongitudeDegrees>-0.13297964818775653839111328125</LongitudeDegrees>
            </Position>
            <AltitudeMeters>2655.60009765625</AltitudeMeters>
            <DistanceMeters>18181.670262012</DistanceMeters>
          </Trackpoint>
          <Trackpoint>
            <Time>2022-07-09T14:43:34.000Z</Time>
            <Position>
              <LatitudeDegrees>42.7809617109596729278564453125</LatitudeDegrees>
              <LongitudeDegrees>-0.13299037702381610870361328125</LongitudeDegrees>
            </Position>
            <AltitudeMeters>2655.199951171875</AltitudeMeters>
            <DistanceMeters>18184.265726716</DistanceMeters>
          </Trackpoint>
          <Trackpoint>
            <Time>2022-07-09T14:43:36.000Z</Time>
            <Position>
              <LatitudeDegrees>42.7809828333556652069091796875</LatitudeDegrees>
              <LongitudeDegrees>-0.13300378806889057159423828125</LongitudeDegrees>
            </Position>
            <AltitudeMeters>2654.199951171875</AltitudeMeters>
            <DistanceMeters>18186.859451248</DistanceMeters>
          </Trackpoint>
          <Trackpoint>
            <Time>2022-07-09T14:43:39.000Z</Time>
            <Position>
              <LatitudeDegrees>42.7810109965503215789794921875</LatitudeDegrees>
              <LongitudeDegrees>-0.1330199651420116424560546875</LongitudeDegrees>
            </Position>
            <AltitudeMeters>2653.800048828125</AltitudeMeters>
            <DistanceMeters>18190.259230336</DistanceMeters>
          </Trackpoint>
          <Trackpoint>
            <Time>2022-07-09T14:43:40.000Z</Time>
            <Position>
              <LatitudeDegrees>42.78101946227252483367919921875</LatitudeDegrees>
              <LongitudeDegrees>-0.13302356936037540435791015625</LongitudeDegrees>
            </Position>
            <AltitudeMeters>2653.60009765625</AltitudeMeters>
            <DistanceMeters>18191.24677692</DistanceMeters>
          </Trackpoint>
          <Trackpoint>
            <Time>2022-07-09T14:43:42.000Z</Time>
            <Position>
              <LatitudeDegrees>42.78103186748921871185302734375</LatitudeDegrees>
              <LongitudeDegrees>-0.1330281794071197509765625</LongitudeDegrees>
            </Position>
            <AltitudeMeters>2653.39990234375</AltitudeMeters>
            <DistanceMeters>18192.678498734</DistanceMeters>
          </Trackpoint>
          <Trackpoint>
            <Time>2022-07-09T14:43:44.000Z</Time>
            <Position>
              <LatitudeDegrees>42.78104075230658054351806640625</LatitudeDegrees>
              <LongitudeDegrees>-0.13303480111062526702880859375</LongitudeDegrees>
            </Position>
            <AltitudeMeters>2653.199951171875</AltitudeMeters>
            <DistanceMeters>18193.802869982</DistanceMeters>
          </Trackpoint>
          <Trackpoint>
            <Time>2022-07-09T14:43:45.000Z</Time>
            <Position>
              <LatitudeDegrees>42.7810468710958957672119140625</LatitudeDegrees>
              <LongitudeDegrees>-0.1330407522618770599365234375</LongitudeDegrees>
            </Position>
            <AltitudeMeters>2652.800048828125</AltitudeMeters>
            <DistanceMeters>18194.636726016</DistanceMeters>
          </Trackpoint>
          <Trackpoint>
            <Time>2022-07-09T14:43:46.000Z</Time>
            <Position>
              <LatitudeDegrees>42.78105416335165500640869140625</LatitudeDegrees>
              <LongitudeDegrees>-0.13305022381246089935302734375</LongitudeDegrees>
            </Position>
            <AltitudeMeters>2652.800048828125</AltitudeMeters>
            <DistanceMeters>18195.757074456</DistanceMeters>
          </Trackpoint>
          <Trackpoint>
            <Time>2022-07-09T14:43:48.000Z</Time>
            <Position>
              <LatitudeDegrees>42.78107159771025180816650390625</LatitudeDegrees>
              <LongitudeDegrees>-0.133068077266216278076171875</LongitudeDegrees>
            </Position>
            <AltitudeMeters>2652.39990234375</AltitudeMeters>
            <DistanceMeters>18198.183514202</DistanceMeters>
          </Trackpoint>
          <Trackpoint>
            <Time>2022-07-09T14:43:50.000Z</Time>
            <Position>
              <LatitudeDegrees>42.78108282946050167083740234375</LatitudeDegrees>
              <LongitudeDegrees>-0.133080147206783294677734375</LongitudeDegrees>
            </Position>
            <AltitudeMeters>2652.199951171875</AltitudeMeters>
            <DistanceMeters>18199.776452205</DistanceMeters>
          </Trackpoint>
          <Trackpoint>
            <Time>2022-07-09T14:43:53.000Z</Time>
            <Position>
              <LatitudeDegrees>42.78109825216233730316162109375</LatitudeDegrees>
              <LongitudeDegrees>-0.13309045694768428802490234375</LongitudeDegrees>
            </Position>
            <AltitudeMeters>2651.60009765625</AltitudeMeters>
            <DistanceMeters>18201.688827942</DistanceMeters>
          </Trackpoint>
          <Trackpoint>
            <Time>2022-07-09T14:43:55.000Z</Time>
            <Position>
              <LatitudeDegrees>42.78110981918871402740478515625</LatitudeDegrees>
              <LongitudeDegrees>-0.13309783302247524261474609375</LongitudeDegrees>
            </Position>
            <AltitudeMeters>2651.39990234375</AltitudeMeters>
            <DistanceMeters>18203.111057573</DistanceMeters>
          </Trackpoint>
          <Trackpoint>
            <Time>2022-07-09T14:43:58.000Z</Time>
            <Position>
              <LatitudeDegrees>42.78113312087953090667724609375</LatitudeDegrees>
              <LongitudeDegrees>-0.1331185363233089447021484375</LongitudeDegrees>
            </Position>
            <AltitudeMeters>2651</AltitudeMeters>
            <DistanceMeters>18206.20636226</DistanceMeters>
          </Trackpoint>
          <Trackpoint>
            <Time>2022-07-09T14:43:59.000Z</Time>
            <Position>
              <LatitudeDegrees>42.7811414189636707305908203125</LatitudeDegrees>
              <LongitudeDegrees>-0.13312649913132190704345703125</LongitudeDegrees>
            </Position>
            <AltitudeMeters>2650.800048828125</AltitudeMeters>
            <DistanceMeters>18207.338736251</DistanceMeters>
          </Trackpoint>
          <Trackpoint>
            <Time>2022-07-09T14:44:00.000Z</Time>
            <Position>
              <LatitudeDegrees>42.78114921413362026214599609375</LatitudeDegrees>
              <LongitudeDegrees>-0.13313613831996917724609375</LongitudeDegrees>
            </Position>
            <AltitudeMeters>2650.800048828125</AltitudeMeters>
            <DistanceMeters>18208.510304268</DistanceMeters>
          </Trackpoint>
          <Trackpoint>
            <Time>2022-07-09T14:44:02.000Z</Time>
            <Position>
              <LatitudeDegrees>42.781162373721599578857421875</LatitudeDegrees>
              <LongitudeDegrees>-0.1331550814211368560791015625</LongitudeDegrees>
            </Position>
            <AltitudeMeters>2650.39990234375</AltitudeMeters>
            <DistanceMeters>18210.639411681</DistanceMeters>
          </Trackpoint>
          <Trackpoint>
            <Time>2022-07-09T14:44:04.000Z</Time>
            <Position>
              <LatitudeDegrees>42.7811772935092449188232421875</LatitudeDegrees>
              <LongitudeDegrees>-0.13317310251295566558837890625</LongitudeDegrees>
            </Position>
            <AltitudeMeters>2650</AltitudeMeters>
            <DistanceMeters>18212.859866981</DistanceMeters>
          </Trackpoint>
          <Trackpoint>
            <Time>2022-07-09T14:44:05.000Z</Time>
            <Position>
              <LatitudeDegrees>42.78118324466049671173095703125</LatitudeDegrees>
              <LongitudeDegrees>-0.13317611999809741973876953125</LongitudeDegrees>
            </Position>
            <AltitudeMeters>2649.60009765625</AltitudeMeters>
            <DistanceMeters>18213.558167867</DistanceMeters>
          </Trackpoint>
          <Trackpoint>
            <Time>2022-07-09T14:44:06.000Z</Time>
            <Position>
              <LatitudeDegrees>42.78119313530623912811279296875</LatitudeDegrees>
              <LongitudeDegrees>-0.1331812329590320587158203125</LongitudeDegrees>
            </Position>
            <AltitudeMeters>2649.60009765625</AltitudeMeters>
            <DistanceMeters>18214.73741838</DistanceMeters>
          </Trackpoint>
          <Trackpoint>
            <Time>2022-07-09T14:44:11.000Z</Time>
            <Position>
              <LatitudeDegrees>42.7812292613089084625244140625</LatitudeDegrees>
              <LongitudeDegrees>-0.1332063786685466766357421875</LongitudeDegrees>
            </Position>
            <AltitudeMeters>2649.199951171875</AltitudeMeters>
            <DistanceMeters>18219.251937461</DistanceMeters>
          </Trackpoint>
          <Trackpoint>
            <Time>2022-07-09T14:44:12.000Z</Time>
            <Position>
              <LatitudeDegrees>42.78123806230723857879638671875</LatitudeDegrees>
              <LongitudeDegrees>-0.13321249745786190032958984375</LongitudeDegrees>
            </Position>
            <AltitudeMeters>2649.199951171875</AltitudeMeters>
            <DistanceMeters>18220.343711289</DistanceMeters>
          </Trackpoint>
          <Trackpoint>
            <Time>2022-07-09T14:44:14.000Z</Time>
            <Position>
              <LatitudeDegrees>42.7812592685222625732421875</LatitudeDegrees>
              <LongitudeDegrees>-0.13322507031261920928955078125</LongitudeDegrees>
            </Position>
            <AltitudeMeters>2648.60009765625</AltitudeMeters>
            <DistanceMeters>18222.918216311</DistanceMeters>
          </Trackpoint>
          <Trackpoint>
            <Time>2022-07-09T14:44:16.000Z</Time>
            <Position>
              <LatitudeDegrees>42.78128047473728656768798828125</LatitudeDegrees>
              <LongitudeDegrees>-0.13324351049959659576416015625</LongitudeDegrees>
            </Position>
            <AltitudeMeters>2647.800048828125</AltitudeMeters>
            <DistanceMeters>18225.71787814</DistanceMeters>
          </Trackpoint>
          <Trackpoint>
            <Time>2022-07-09T14:44:17.000Z</Time>
            <Position>
              <LatitudeDegrees>42.781290113925933837890625</LatitudeDegrees>
              <LongitudeDegrees>-0.1332492940127849578857421875</LongitudeDegrees>
            </Position>
            <AltitudeMeters>2647.39990234375</AltitudeMeters>
            <DistanceMeters>18226.885585955</DistanceMeters>
          </Trackpoint>
          <Trackpoint>
            <Time>2022-07-09T14:44:19.000Z</Time>
            <Position>
              <LatitudeDegrees>42.7813048660755157470703125</LatitudeDegrees>
              <LongitudeDegrees>-0.1332576759159564971923828125</LongitudeDegrees>
            </Position>
            <AltitudeMeters>2647.199951171875</AltitudeMeters>
            <DistanceMeters>18228.663372994</DistanceMeters>
          </Trackpoint>
          <Trackpoint>
            <Time>2022-07-09T14:44:25.000Z</Time>
            <Position>
              <LatitudeDegrees>42.781337387859821319580078125</LatitudeDegrees>
              <LongitudeDegrees>-0.1332570053637027740478515625</LongitudeDegrees>
            </Position>
            <AltitudeMeters>2647</AltitudeMeters>
            <DistanceMeters>18232.284377136</DistanceMeters>
          </Trackpoint>
          <Trackpoint>
            <Time>2022-07-09T14:44:27.000Z</Time>
            <Position>
              <LatitudeDegrees>42.7813251502811908721923828125</LatitudeDegrees>
              <LongitudeDegrees>-0.133249461650848388671875</LongitudeDegrees>
            </Position>
            <AltitudeMeters>2646.39990234375</AltitudeMeters>
            <DistanceMeters>18233.777839182</DistanceMeters>
          </Trackpoint>
          <Trackpoint>
            <Time>2022-07-09T14:44:28.000Z</Time>
            <Position>
              <LatitudeDegrees>42.78131450526416301727294921875</LatitudeDegrees>
              <LongitudeDegrees>-0.13324669562280178070068359375</LongitudeDegrees>
            </Position>
            <AltitudeMeters>2646.199951171875</AltitudeMeters>
            <DistanceMeters>18234.979842606</DistanceMeters>
          </Trackpoint>
          <Trackpoint>
            <Time>2022-07-09T14:44:30.000Z</Time>
            <Position>
              <LatitudeDegrees>42.78129489161074161529541015625</LatitudeDegrees>
              <LongitudeDegrees>-0.13324342668056488037109375</LongitudeDegrees>
            </Position>
            <AltitudeMeters>2645.39990234375</AltitudeMeters>
            <DistanceMeters>18237.1798701</DistanceMeters>
          </Trackpoint>
          <Trackpoint>
            <Time>2022-07-09T14:44:31.000Z</Time>
            <Position>
              <LatitudeDegrees>42.781284414231777191162109375</LatitudeDegrees>
              <LongitudeDegrees>-0.1332459412515163421630859375</LongitudeDegrees>
            </Position>
            <AltitudeMeters>2645.199951171875</AltitudeMeters>
            <DistanceMeters>18238.366753382</DistanceMeters>
          </Trackpoint>
          <Trackpoint>
            <Time>2022-07-09T14:44:32.000Z</Time>
            <Position>
              <LatitudeDegrees>42.7812765352427959442138671875</LatitudeDegrees>
              <LongitudeDegrees>-0.13324904255568981170654296875</LongitudeDegrees>
            </Position>
            <AltitudeMeters>2645</AltitudeMeters>
            <DistanceMeters>18239.278217606</DistanceMeters>
          </Trackpoint>
          <Trackpoint>
            <Time>2022-07-09T14:44:36.000Z</Time>
            <Position>
              <LatitudeDegrees>42.78123789466917514801025390625</LatitudeDegrees>
              <LongitudeDegrees>-0.13327117078006267547607421875</LongitudeDegrees>
            </Position>
            <AltitudeMeters>2644.199951171875</AltitudeMeters>
            <DistanceMeters>18243.943245391</DistanceMeters>
          </Trackpoint>
          <Trackpoint>
            <Time>2022-07-09T14:44:37.000Z</Time>
            <Position>
              <LatitudeDegrees>42.78122867457568645477294921875</LatitudeDegrees>
              <LongitudeDegrees>-0.13327619992196559906005859375</LongitudeDegrees>
            </Position>
            <AltitudeMeters>2644</AltitudeMeters>
            <DistanceMeters>18245.051437791</DistanceMeters>
          </Trackpoint>
          <Trackpoint>
            <Time>2022-07-09T14:44:41.000Z</Time>
            <Position>
              <LatitudeDegrees>42.7812044508755207061767578125</LatitudeDegrees>
              <LongitudeDegrees>-0.13329128734767436981201171875</LongitudeDegrees>
            </Position>
            <AltitudeMeters>2643</AltitudeMeters>
            <DistanceMeters>18248.015601144</DistanceMeters>
          </Trackpoint>
          <Trackpoint>
            <Time>2022-07-09T14:44:44.000Z</Time>
            <Position>
              <LatitudeDegrees>42.78117989189922809600830078125</LatitudeDegrees>
              <LongitudeDegrees>-0.133292376995086669921875</LongitudeDegrees>
            </Position>
            <AltitudeMeters>2642.800048828125</AltitudeMeters>
            <DistanceMeters>18250.749993818</DistanceMeters>
          </Trackpoint>
          <Trackpoint>
            <Time>2022-07-09T14:44:49.000Z</Time>
            <Position>
              <LatitudeDegrees>42.7811464481055736541748046875</LatitudeDegrees>
              <LongitudeDegrees>-0.1333190314471721649169921875</LongitudeDegrees>
            </Position>
            <AltitudeMeters>2642.39990234375</AltitudeMeters>
            <DistanceMeters>18255.062992482</DistanceMeters>
          </Trackpoint>
          <Trackpoint>
            <Time>2022-07-09T14:44:50.000Z</Time>
            <Position>
              <LatitudeDegrees>42.78113815002143383026123046875</LatitudeDegrees>
              <LongitudeDegrees>-0.13332255184650421142578125</LongitudeDegrees>
            </Position>
            <AltitudeMeters>2642.199951171875</AltitudeMeters>
            <DistanceMeters>18256.027408302</DistanceMeters>
          </Trackpoint>
          <Trackpoint>
            <Time>2022-07-09T14:44:52.000Z</Time>
            <Position>
              <LatitudeDegrees>42.78112289495766162872314453125</LatitudeDegrees>
              <LongitudeDegrees>-0.13333604671061038970947265625</LongitudeDegrees>
            </Position>
            <AltitudeMeters>2642</AltitudeMeters>
            <DistanceMeters>18258.052168709</DistanceMeters>
          </Trackpoint>
          <Trackpoint>
            <Time>2022-07-09T14:44:58.000Z</Time>
            <Position>
              <LatitudeDegrees>42.781114093959331512451171875</LatitudeDegrees>
              <LongitudeDegrees>-0.13339254073798656463623046875</LongitudeDegrees>
            </Position>
            <AltitudeMeters>2640.800048828125</AltitudeMeters>
            <DistanceMeters>18262.76917076</DistanceMeters>
          </Trackpoint>
          <Trackpoint>
            <Time>2022-07-09T14:44:59.000Z</Time>
            <Position>
              <LatitudeDegrees>42.78111585415899753570556640625</LatitudeDegrees>
              <LongitudeDegrees>-0.1333998329937458038330078125</LongitudeDegrees>
            </Position>
            <AltitudeMeters>2640.800048828125</AltitudeMeters>
            <DistanceMeters>18263.399506674</DistanceMeters>
          </Trackpoint>
          <Trackpoint>
            <Time>2022-07-09T14:45:02.000Z</Time>
            <Position>
              <LatitudeDegrees>42.78112071566283702850341796875</LatitudeDegrees>
              <LongitudeDegrees>-0.13340880163013935089111328125</LongitudeDegrees>
            </Position>
            <AltitudeMeters>2639.800048828125</AltitudeMeters>
            <DistanceMeters>18264.31591112</DistanceMeters>
          </Trackpoint>
          <Trackpoint>
            <Time>2022-07-09T14:45:04.000Z</Time>
            <Position>
              <LatitudeDegrees>42.7811256609857082366943359375</LatitudeDegrees>
              <LongitudeDegrees>-0.133421458303928375244140625</LongitudeDegrees>
            </Position>
            <AltitudeMeters>2639.199951171875</AltitudeMeters>
            <DistanceMeters>18265.491326662</DistanceMeters>
          </Trackpoint>
          <Trackpoint>
            <Time>2022-07-09T14:45:10.000Z</Time>
            <Position>
              <LatitudeDegrees>42.781175784766674041748046875</LatitudeDegrees>
              <LongitudeDegrees>-0.13345909304916858673095703125</LongitudeDegrees>
            </Position>
            <AltitudeMeters>2638.800048828125</AltitudeMeters>
            <DistanceMeters>18271.861661311</DistanceMeters>
          </Trackpoint>
          <Trackpoint>
            <Time>2022-07-09T14:45:11.000Z</Time>
            <Position>
              <LatitudeDegrees>42.78118425048887729644775390625</LatitudeDegrees>
              <LongitudeDegrees>-0.1334615238010883331298828125</LongitudeDegrees>
            </Position>
            <AltitudeMeters>2638.199951171875</AltitudeMeters>
            <DistanceMeters>18272.821384082</DistanceMeters>
          </Trackpoint>
          <Trackpoint>
            <Time>2022-07-09T14:45:15.000Z</Time>
            <Position>
              <LatitudeDegrees>42.781227417290210723876953125</LatitudeDegrees>
              <LongitudeDegrees>-0.13346864841878414154052734375</LongitudeDegrees>
            </Position>
            <AltitudeMeters>2637.199951171875</AltitudeMeters>
            <DistanceMeters>18277.66122068</DistanceMeters>
          </Trackpoint>
          <Trackpoint>
            <Time>2022-07-09T14:45:17.000Z</Time>
            <Position>
              <LatitudeDegrees>42.7812406606972217559814453125</LatitudeDegrees>
              <LongitudeDegrees>-0.13347552157938480377197265625</LongitudeDegrees>
            </Position>
            <AltitudeMeters>2636.800048828125</AltitudeMeters>
            <DistanceMeters>18279.237060463</DistanceMeters>
          </Trackpoint>
          <Trackpoint>
            <Time>2022-07-09T14:45:21.000Z</Time>
            <Position>
              <LatitudeDegrees>42.781268991529941558837890625</LatitudeDegrees>
              <LongitudeDegrees>-0.13350267894566059112548828125</LongitudeDegrees>
            </Position>
            <AltitudeMeters>2636</AltitudeMeters>
            <DistanceMeters>18283.092382217</DistanceMeters>
          </Trackpoint>
          <Trackpoint>
            <Time>2022-07-09T14:45:23.000Z</Time>
            <Position>
              <LatitudeDegrees>42.7812845818698406219482421875</LatitudeDegrees>
              <LongitudeDegrees>-0.13351298868656158447265625</LongitudeDegrees>
            </Position>
            <AltitudeMeters>2635.60009765625</AltitudeMeters>
            <DistanceMeters>18285.021213857</DistanceMeters>
          </Trackpoint>
          <Trackpoint>
            <Time>2022-07-09T14:45:26.000Z</Time>
            <Position>
              <LatitudeDegrees>42.78130712918937206268310546875</LatitudeDegrees>
              <LongitudeDegrees>-0.13352447189390659332275390625</LongitudeDegrees>
            </Position>
            <AltitudeMeters>2635</AltitudeMeters>
            <DistanceMeters>18287.702247398</DistanceMeters>
          </Trackpoint>
          <Trackpoint>
            <Time>2022-07-09T14:45:29.000Z</Time>
            <Position>
              <LatitudeDegrees>42.781324647367000579833984375</LatitudeDegrees>
              <LongitudeDegrees>-0.1335440017282962799072265625</LongitudeDegrees>
            </Position>
            <AltitudeMeters>2634.39990234375</AltitudeMeters>
            <DistanceMeters>18290.22000705</DistanceMeters>
          </Trackpoint>
          <Trackpoint>
            <Time>2022-07-09T14:45:31.000Z</Time>
            <Position>
              <LatitudeDegrees>42.78133344836533069610595703125</LatitudeDegrees>
              <LongitudeDegrees>-0.1335565745830535888671875</LongitudeDegrees>
            </Position>
            <AltitudeMeters>2634</AltitudeMeters>
            <DistanceMeters>18291.63905851</DistanceMeters>
          </Trackpoint>
          <Trackpoint>
            <Time>2022-07-09T14:45:35.000Z</Time>
            <Position>
              <LatitudeDegrees>42.781358174979686737060546875</LatitudeDegrees>
              <LongitudeDegrees>-0.13359052129089832305908203125</LongitudeDegrees>
            </Position>
            <AltitudeMeters>2633.800048828125</AltitudeMeters>
            <DistanceMeters>18295.545569638</DistanceMeters>
          </Trackpoint>
          <Trackpoint>
            <Time>2022-07-09T14:45:38.000Z</Time>
            <Position>
              <LatitudeDegrees>42.78138005174696445465087890625</LatitudeDegrees>
              <LongitudeDegrees>-0.13360259123146533966064453125</LongitudeDegrees>
            </Position>
            <AltitudeMeters>2633</AltitudeMeters>
            <DistanceMeters>18298.17216028</DistanceMeters>
          </Trackpoint>
          <Trackpoint>
            <Time>2022-07-09T14:45:39.000Z</Time>
            <Position>
              <LatitudeDegrees>42.781383655965328216552734375</LatitudeDegrees>
              <LongitudeDegrees>-0.13360627926886081695556640625</LongitudeDegrees>
            </Position>
            <AltitudeMeters>2632.60009765625</AltitudeMeters>
            <DistanceMeters>18298.674994388</DistanceMeters>
          </Trackpoint>
          <Trackpoint>
            <Time>2022-07-09T14:45:41.000Z</Time>
            <Position>
              <LatitudeDegrees>42.7813838236033916473388671875</LatitudeDegrees>
              <LongitudeDegrees>-0.1336191035807132720947265625</LongitudeDegrees>
            </Position>
            <AltitudeMeters>2632.199951171875</AltitudeMeters>
            <DistanceMeters>18299.728891633</DistanceMeters>
          </Trackpoint>
          <Trackpoint>
            <Time>2022-07-09T14:45:44.000Z</Time>
            <Position>
              <LatitudeDegrees>42.7813724242150783538818359375</LatitudeDegrees>
              <LongitudeDegrees>-0.133623965084552764892578125</LongitudeDegrees>
            </Position>
            <AltitudeMeters>2632</AltitudeMeters>
            <DistanceMeters>18301.059265634</DistanceMeters>
          </Trackpoint>
          <Trackpoint>
            <Time>2022-07-09T14:45:45.000Z</Time>
            <Position>
              <LatitudeDegrees>42.781363539397716522216796875</LatitudeDegrees>
              <LongitudeDegrees>-0.1336236298084259033203125</LongitudeDegrees>
            </Position>
            <AltitudeMeters>2632</AltitudeMeters>
            <DistanceMeters>18302.046812219</DistanceMeters>
          </Trackpoint>
          <Trackpoint>
            <Time>2022-07-09T14:45:46.000Z</Time>
            <Position>
              <LatitudeDegrees>42.78135457076132297515869140625</LatitudeDegrees>
              <LongitudeDegrees>-0.13362572528421878814697265625</LongitudeDegrees>
            </Position>
            <AltitudeMeters>2631.60009765625</AltitudeMeters>
            <DistanceMeters>18303.061419884</DistanceMeters>
          </Trackpoint>
          <Trackpoint>
            <Time>2022-07-09T14:45:49.000Z</Time>
            <Position>
              <LatitudeDegrees>42.78132691048085689544677734375</LatitudeDegrees>
              <LongitudeDegrees>-0.133635699748992919921875</LongitudeDegrees>
            </Position>
            <AltitudeMeters>2630.800048828125</AltitudeMeters>
            <DistanceMeters>18306.24587837</DistanceMeters>
          </Trackpoint>
          <Trackpoint>
            <Time>2022-07-09T14:45:50.000Z</Time>
            <Position>
              <LatitudeDegrees>42.7813182771205902099609375</LatitudeDegrees>
              <LongitudeDegrees>-0.13363963924348354339599609375</LongitudeDegrees>
            </Position>
            <AltitudeMeters>2630.39990234375</AltitudeMeters>
            <DistanceMeters>18307.260486035</DistanceMeters>
          </Trackpoint>
          <Trackpoint>
            <Time>2022-07-09T14:45:52.000Z</Time>
            <Position>
              <LatitudeDegrees>42.781308554112911224365234375</LatitudeDegrees>
              <LongitudeDegrees>-0.13365305028855800628662109375</LongitudeDegrees>
            </Position>
            <AltitudeMeters>2629.800048828125</AltitudeMeters>
            <DistanceMeters>18308.80156037</DistanceMeters>
          </Trackpoint>
          <Trackpoint>
            <Time>2022-07-09T14:45:54.000Z</Time>
            <Position>
              <LatitudeDegrees>42.78130344115197658538818359375</LatitudeDegrees>
              <LongitudeDegrees>-0.13366797007620334625244140625</LongitudeDegrees>
            </Position>
            <AltitudeMeters>2629.39990234375</AltitudeMeters>
            <DistanceMeters>18310.148796565</DistanceMeters>
          </Trackpoint>
          <Trackpoint>
            <Time>2022-07-09T14:45:58.000Z</Time>
            <Position>
              <LatitudeDegrees>42.781277038156986236572265625</LatitudeDegrees>
              <LongitudeDegrees>-0.1337009109556674957275390625</LongitudeDegrees>
            </Position>
            <AltitudeMeters>2628.199951171875</AltitudeMeters>
            <DistanceMeters>18314.134258202</DistanceMeters>
          </Trackpoint>
          <Trackpoint>
            <Time>2022-07-09T14:45:59.000Z</Time>
            <Position>
              <LatitudeDegrees>42.781276702880859375</LatitudeDegrees>
              <LongitudeDegrees>-0.13371088542044162750244140625</LongitudeDegrees>
            </Position>
            <AltitudeMeters>2627.800048828125</AltitudeMeters>
            <DistanceMeters>18314.946166806</DistanceMeters>
          </Trackpoint>
          <Trackpoint>
            <Time>2022-07-09T14:46:02.000Z</Time>
            <Position>
              <LatitudeDegrees>42.781293801963329315185546875</LatitudeDegrees>
              <LongitudeDegrees>-0.1337455026805400848388671875</LongitudeDegrees>
            </Position>
            <AltitudeMeters>2627</AltitudeMeters>
            <DistanceMeters>18318.35390481</DistanceMeters>
          </Trackpoint>
          <Trackpoint>
            <Time>2022-07-09T14:46:04.000Z</Time>
            <Position>
              <LatitudeDegrees>42.78130612336099147796630859375</LatitudeDegrees>
              <LongitudeDegrees>-0.13375899754464626312255859375</LongitudeDegrees>
            </Position>
            <AltitudeMeters>2626</AltitudeMeters>
            <DistanceMeters>18320.111256836</DistanceMeters>
          </Trackpoint>
          <Trackpoint>
            <Time>2022-07-09T14:46:08.000Z</Time>
            <Position>
              <LatitudeDegrees>42.78133613057434558868408203125</LatitudeDegrees>
              <LongitudeDegrees>-0.1337864063680171966552734375</LongitudeDegrees>
            </Position>
            <AltitudeMeters>2625</AltitudeMeters>
            <DistanceMeters>18324.131684281</DistanceMeters>
          </Trackpoint>
          <Trackpoint>
            <Time>2022-07-09T14:46:11.000Z</Time>
            <Position>
              <LatitudeDegrees>42.78134987689554691314697265625</LatitudeDegrees>
              <LongitudeDegrees>-0.13381205499172210693359375</LongitudeDegrees>
            </Position>
            <AltitudeMeters>2625.199951171875</AltitudeMeters>
            <DistanceMeters>18326.727148984</DistanceMeters>
          </Trackpoint>
          <Trackpoint>
            <Time>2022-07-09T14:46:16.000Z</Time>
            <Position>
              <LatitudeDegrees>42.7813720889389514923095703125</LatitudeDegrees>
              <LongitudeDegrees>-0.13389562256634235382080078125</LongitudeDegrees>
            </Position>
            <AltitudeMeters>2623.800048828125</AltitudeMeters>
            <DistanceMeters>18333.987836712</DistanceMeters>
          </Trackpoint>
          <Trackpoint>
            <Time>2022-07-09T14:46:17.000Z</Time>
            <Position>
              <LatitudeDegrees>42.7813732624053955078125</LatitudeDegrees>
              <LongitudeDegrees>-0.1339138112962245941162109375</LongitudeDegrees>
            </Position>
            <AltitudeMeters>2623.39990234375</AltitudeMeters>
            <DistanceMeters>18335.478272489</DistanceMeters>
          </Trackpoint>
          <Trackpoint>
            <Time>2022-07-09T14:46:20.000Z</Time>
            <Position>
              <LatitudeDegrees>42.7813814766705036163330078125</LatitudeDegrees>
              <LongitudeDegrees>-0.13391800224781036376953125</LongitudeDegrees>
            </Position>
            <AltitudeMeters>2622.60009765625</AltitudeMeters>
            <DistanceMeters>18336.452006552</DistanceMeters>
          </Trackpoint>
          <Trackpoint>
            <Time>2022-07-09T14:46:23.000Z</Time>
            <Position>
              <LatitudeDegrees>42.78139094822108745574951171875</LatitudeDegrees>
              <LongitudeDegrees>-0.13393149711191654205322265625</LongitudeDegrees>
            </Position>
            <AltitudeMeters>2622</AltitudeMeters>
            <DistanceMeters>18337.978361597</DistanceMeters>
          </Trackpoint>
          <Trackpoint>
            <Time>2022-07-09T14:46:25.000Z</Time>
            <Position>
              <LatitudeDegrees>42.78140201233327388763427734375</LatitudeDegrees>
              <LongitudeDegrees>-0.13393669389188289642333984375</LongitudeDegrees>
            </Position>
            <AltitudeMeters>2621.60009765625</AltitudeMeters>
            <DistanceMeters>18339.28130226</DistanceMeters>
          </Trackpoint>
          <Trackpoint>
            <Time>2022-07-09T14:46:28.000Z</Time>
            <Position>
              <LatitudeDegrees>42.7814237214624881744384765625</LatitudeDegrees>
              <LongitudeDegrees>-0.13390056788921356201171875</LongitudeDegrees>
            </Position>
            <AltitudeMeters>2621.199951171875</AltitudeMeters>
            <DistanceMeters>18343.094230672</DistanceMeters>
          </Trackpoint>
          <Trackpoint>
            <Time>2022-07-09T14:46:30.000Z</Time>
            <Position>
              <LatitudeDegrees>42.78141994960606098175048828125</LatitudeDegrees>
              <LongitudeDegrees>-0.13395345769822597503662109375</LongitudeDegrees>
            </Position>
            <AltitudeMeters>2620.39990234375</AltitudeMeters>
            <DistanceMeters>18347.434361945</DistanceMeters>
          </Trackpoint>
          <Trackpoint>
            <Time>2022-07-09T14:46:32.000Z</Time>
            <Position>
              <LatitudeDegrees>42.78142598457634449005126953125</LatitudeDegrees>
              <LongitudeDegrees>-0.1339731551706790924072265625</LongitudeDegrees>
            </Position>
            <AltitudeMeters>2619.39990234375</AltitudeMeters>
            <DistanceMeters>18349.178820532</DistanceMeters>
          </Trackpoint>
          <Trackpoint>
            <Time>2022-07-09T14:46:33.000Z</Time>
            <Position>
              <LatitudeDegrees>42.78143034316599369049072265625</LatitudeDegrees>
              <LongitudeDegrees>-0.133982710540294647216796875</LongitudeDegrees>
            </Position>
            <AltitudeMeters>2619.199951171875</AltitudeMeters>
            <DistanceMeters>18350.10013871</DistanceMeters>
          </Trackpoint>
          <Trackpoint>
            <Time>2022-07-09T14:46:35.000Z</Time>
            <Position>
              <LatitudeDegrees>42.78144157491624355316162109375</LatitudeDegrees>
              <LongitudeDegrees>-0.13399972580373287200927734375</LongitudeDegrees>
            </Position>
            <AltitudeMeters>2618.800048828125</AltitudeMeters>
            <DistanceMeters>18351.971947904</DistanceMeters>
          </Trackpoint>
          <Trackpoint>
            <Time>2022-07-09T14:46:37.000Z</Time>
            <Position>
              <LatitudeDegrees>42.7814549021422863006591796875</LatitudeDegrees>
              <LongitudeDegrees>-0.134011209011077880859375</LongitudeDegrees>
            </Position>
            <AltitudeMeters>2618.60009765625</AltitudeMeters>
            <DistanceMeters>18353.72929993</DistanceMeters>
          </Trackpoint>
          <Trackpoint>
            <Time>2022-07-09T14:46:39.000Z</Time>
            <Position>
              <LatitudeDegrees>42.781468816101551055908203125</LatitudeDegrees>
              <LongitudeDegrees>-0.1340205967426300048828125</LongitudeDegrees>
            </Position>
            <AltitudeMeters>2618.60009765625</AltitudeMeters>
            <DistanceMeters>18355.46076907</DistanceMeters>
          </Trackpoint>
          <Trackpoint>
            <Time>2022-07-09T14:46:40.000Z</Time>
            <Position>
              <LatitudeDegrees>42.781477868556976318359375</LatitudeDegrees>
              <LongitudeDegrees>-0.134025625884532928466796875</LongitudeDegrees>
            </Position>
            <AltitudeMeters>2618.39990234375</AltitudeMeters>
            <DistanceMeters>18356.552542897</DistanceMeters>
          </Trackpoint>
          <Trackpoint>
            <Time>2022-07-09T14:46:42.000Z</Time>
            <Position>
              <LatitudeDegrees>42.78149941004812717437744140625</LatitudeDegrees>
              <LongitudeDegrees>-0.134043730795383453369140625</LongitudeDegrees>
            </Position>
            <AltitudeMeters>2618.199951171875</AltitudeMeters>
            <DistanceMeters>18359.369888668</DistanceMeters>
          </Trackpoint>
          <Trackpoint>
            <Time>2022-07-09T14:46:43.000Z</Time>
            <Position>
              <LatitudeDegrees>42.78150812722742557525634765625</LatitudeDegrees>
              <LongitudeDegrees>-0.13405638746917247772216796875</LongitudeDegrees>
            </Position>
            <AltitudeMeters>2618</AltitudeMeters>
            <DistanceMeters>18360.788940129</DistanceMeters>
          </Trackpoint>
          <Trackpoint>
            <Time>2022-07-09T14:46:45.000Z</Time>
            <Position>
              <LatitudeDegrees>42.78152086772024631500244140625</LatitudeDegrees>
              <LongitudeDegrees>-0.1340876519680023193359375</LongitudeDegrees>
            </Position>
            <AltitudeMeters>2617.39990234375</AltitudeMeters>
            <DistanceMeters>18363.708596301</DistanceMeters>
          </Trackpoint>
          <Trackpoint>
            <Time>2022-07-09T14:46:47.000Z</Time>
            <Position>
              <LatitudeDegrees>42.7815336920320987701416015625</LatitudeDegrees>
              <LongitudeDegrees>-0.1341230235993862152099609375</LongitudeDegrees>
            </Position>
            <AltitudeMeters>2616.800048828125</AltitudeMeters>
            <DistanceMeters>18366.931108971</DistanceMeters>
          </Trackpoint>
          <Trackpoint>
            <Time>2022-07-09T14:46:49.000Z</Time>
            <Position>
              <LatitudeDegrees>42.781541235744953155517578125</LatitudeDegrees>
              <LongitudeDegrees>-0.134148336946964263916015625</LongitudeDegrees>
            </Position>
            <AltitudeMeters>2616.199951171875</AltitudeMeters>
            <DistanceMeters>18369.16373124</DistanceMeters>
          </Trackpoint>
          <Trackpoint>
            <Time>2022-07-09T14:46:50.000Z</Time>
            <Position>
              <LatitudeDegrees>42.78154316358268260955810546875</LatitudeDegrees>
              <LongitudeDegrees>-0.13415864668786525726318359375</LongitudeDegrees>
            </Position>
            <AltitudeMeters>2615.800048828125</AltitudeMeters>
            <DistanceMeters>18370.034665463</DistanceMeters>
          </Trackpoint>
          <Trackpoint>
            <Time>2022-07-09T14:46:52.000Z</Time>
            <Position>
              <LatitudeDegrees>42.78155154548585414886474609375</LatitudeDegrees>
              <LongitudeDegrees>-0.13417557813227176666259765625</LongitudeDegrees>
            </Position>
            <AltitudeMeters>2615.39990234375</AltitudeMeters>
            <DistanceMeters>18371.702377532</DistanceMeters>
          </Trackpoint>
          <Trackpoint>
            <Time>2022-07-09T14:46:57.000Z</Time>
            <Position>
              <LatitudeDegrees>42.78159529902040958404541015625</LatitudeDegrees>
              <LongitudeDegrees>-0.1341994665563106536865234375</LongitudeDegrees>
            </Position>
            <AltitudeMeters>2614.60009765625</AltitudeMeters>
            <DistanceMeters>18376.94867842</DistanceMeters>
          </Trackpoint>
          <Trackpoint>
            <Time>2022-07-09T14:46:58.000Z</Time>
            <Position>
              <LatitudeDegrees>42.78160401619970798492431640625</LatitudeDegrees>
              <LongitudeDegrees>-0.1342044956982135772705078125</LongitudeDegrees>
            </Position>
            <AltitudeMeters>2614.60009765625</AltitudeMeters>
            <DistanceMeters>18378.006851127</DistanceMeters>
          </Trackpoint>
          <Trackpoint>
            <Time>2022-07-09T14:47:02.000Z</Time>
            <Position>
              <LatitudeDegrees>42.78163620270788669586181640625</LatitudeDegrees>
              <LongitudeDegrees>-0.13421078212559223175048828125</LongitudeDegrees>
            </Position>
            <AltitudeMeters>2614.60009765625</AltitudeMeters>
            <DistanceMeters>18381.626608152</DistanceMeters>
          </Trackpoint>
          <Trackpoint>
            <Time>2022-07-09T14:47:05.000Z</Time>
            <Position>
              <LatitudeDegrees>42.78166537173092365264892578125</LatitudeDegrees>
              <LongitudeDegrees>-0.13423743657767772674560546875</LongitudeDegrees>
            </Position>
            <AltitudeMeters>2613.60009765625</AltitudeMeters>
            <DistanceMeters>18385.535430142</DistanceMeters>
          </Trackpoint>
          <Trackpoint>
            <Time>2022-07-09T14:47:06.000Z</Time>
            <Position>
              <LatitudeDegrees>42.78167509473860263824462890625</LatitudeDegrees>
              <LongitudeDegrees>-0.1342485845088958740234375</LongitudeDegrees>
            </Position>
            <AltitudeMeters>2613.199951171875</AltitudeMeters>
            <DistanceMeters>18386.951296297</DistanceMeters>
          </Trackpoint>
          <Trackpoint>
            <Time>2022-07-09T14:47:08.000Z</Time>
            <Position>
              <LatitudeDegrees>42.7816959656774997711181640625</LatitudeDegrees>
              <LongitudeDegrees>-0.13427532278001308441162109375</LongitudeDegrees>
            </Position>
            <AltitudeMeters>2612.199951171875</AltitudeMeters>
            <DistanceMeters>18390.140005452</DistanceMeters>
          </Trackpoint>
          <Trackpoint>
            <Time>2022-07-09T14:47:11.000Z</Time>
            <Position>
              <LatitudeDegrees>42.78173066675662994384765625</LatitudeDegrees>
              <LongitudeDegrees>-0.1343077607452869415283203125</LongitudeDegrees>
            </Position>
            <AltitudeMeters>2611.60009765625</AltitudeMeters>
            <DistanceMeters>18394.824350205</DistanceMeters>
          </Trackpoint>
          <Trackpoint>
            <Time>2022-07-09T14:47:13.000Z</Time>
            <Position>
              <LatitudeDegrees>42.78175187297165393829345703125</LatitudeDegrees>
              <LongitudeDegrees>-0.13431354425847530364990234375</LongitudeDegrees>
            </Position>
            <AltitudeMeters>2611.800048828125</AltitudeMeters>
            <DistanceMeters>18397.232110383</DistanceMeters>
          </Trackpoint>
          <Trackpoint>
            <Time>2022-07-09T14:47:17.000Z</Time>
            <Position>
              <LatitudeDegrees>42.78178808279335498809814453125</LatitudeDegrees>
              <LongitudeDegrees>-0.1343236863613128662109375</LongitudeDegrees>
            </Position>
            <AltitudeMeters>2612</AltitudeMeters>
            <DistanceMeters>18401.345790397</DistanceMeters>
          </Trackpoint>
          <Trackpoint>
            <Time>2022-07-09T14:47:19.000Z</Time>
            <Position>
              <LatitudeDegrees>42.78181037865579128265380859375</LatitudeDegrees>
              <LongitudeDegrees>-0.13433550484478473663330078125</LongitudeDegrees>
            </Position>
            <AltitudeMeters>2611.800048828125</AltitudeMeters>
            <DistanceMeters>18404.008234764</DistanceMeters>
          </Trackpoint>
          <Trackpoint>
            <Time>2022-07-09T14:47:21.000Z</Time>
            <Position>
              <LatitudeDegrees>42.781826220452785491943359375</LatitudeDegrees>
              <LongitudeDegrees>-0.1343479938805103302001953125</LongitudeDegrees>
            </Position>
            <AltitudeMeters>2611.39990234375</AltitudeMeters>
            <DistanceMeters>18406.044114203</DistanceMeters>
          </Trackpoint>
          <Trackpoint>
            <Time>2022-07-09T14:47:23.000Z</Time>
            <Position>
              <LatitudeDegrees>42.7818397991359233856201171875</LatitudeDegrees>
              <LongitudeDegrees>-0.13436383567750453948974609375</LongitudeDegrees>
            </Position>
            <AltitudeMeters>2611</AltitudeMeters>
            <DistanceMeters>18408.032875999</DistanceMeters>
          </Trackpoint>
          <Trackpoint>
            <Time>2022-07-09T14:47:26.000Z</Time>
            <Position>
              <LatitudeDegrees>42.7818642742931842803955078125</LatitudeDegrees>
              <LongitudeDegrees>-0.13439149595797061920166015625</LongitudeDegrees>
            </Position>
            <AltitudeMeters>2610.800048828125</AltitudeMeters>
            <DistanceMeters>18411.573179108</DistanceMeters>
          </Trackpoint>
          <Trackpoint>
            <Time>2022-07-09T14:47:32.000Z</Time>
            <Position>
              <LatitudeDegrees>42.78192437253892421722412109375</LatitudeDegrees>
              <LongitudeDegrees>-0.13444145210087299346923828125</LongitudeDegrees>
            </Position>
            <AltitudeMeters>2611.199951171875</AltitudeMeters>
            <DistanceMeters>18419.408130267</DistanceMeters>
          </Trackpoint>
          <Trackpoint>
            <Time>2022-07-09T14:47:35.000Z</Time>
            <Position>
              <LatitudeDegrees>42.78194281272590160369873046875</LatitudeDegrees>
              <LongitudeDegrees>-0.13444715179502964019775390625</LongitudeDegrees>
            </Position>
            <AltitudeMeters>2611.199951171875</AltitudeMeters>
            <DistanceMeters>18421.5137816</DistanceMeters>
          </Trackpoint>
          <Trackpoint>
            <Time>2022-07-09T14:47:38.000Z</Time>
            <Position>
              <LatitudeDegrees>42.78196142055094242095947265625</LatitudeDegrees>
              <LongitudeDegrees>-0.1344643346965312957763671875</LongitudeDegrees>
            </Position>
            <AltitudeMeters>2610.39990234375</AltitudeMeters>
            <DistanceMeters>18424.017153935</DistanceMeters>
          </Trackpoint>
          <Trackpoint>
            <Time>2022-07-09T14:47:39.000Z</Time>
            <Position>
              <LatitudeDegrees>42.78196644969284534454345703125</LatitudeDegrees>
              <LongitudeDegrees>-0.13446760363876819610595703125</LongitudeDegrees>
            </Position>
            <AltitudeMeters>2610.199951171875</AltitudeMeters>
            <DistanceMeters>18424.647489849</DistanceMeters>
          </Trackpoint>
          <Trackpoint>
            <Time>2022-07-09T14:47:41.000Z</Time>
            <Position>
              <LatitudeDegrees>42.78197701089084148406982421875</LatitudeDegrees>
              <LongitudeDegrees>-0.1344777457416057586669921875</LongitudeDegrees>
            </Position>
            <AltitudeMeters>2610</AltitudeMeters>
            <DistanceMeters>18426.085504976</DistanceMeters>
          </Trackpoint>
          <Trackpoint>
            <Time>2022-07-09T14:47:44.000Z</Time>
            <Position>
              <LatitudeDegrees>42.78199662454426288604736328125</LatitudeDegrees>
              <LongitudeDegrees>-0.13448528945446014404296875</LongitudeDegrees>
            </Position>
            <AltitudeMeters>2609.199951171875</AltitudeMeters>
            <DistanceMeters>18428.354236686</DistanceMeters>
          </Trackpoint>
          <Trackpoint>
            <Time>2022-07-09T14:47:45.000Z</Time>
            <Position>
              <LatitudeDegrees>42.78200316242873668670654296875</LatitudeDegrees>
              <LongitudeDegrees>-0.1344878040254116058349609375</LongitudeDegrees>
            </Position>
            <AltitudeMeters>2609</AltitudeMeters>
            <DistanceMeters>18429.114450401</DistanceMeters>
          </Trackpoint>
          <Trackpoint>
            <Time>2022-07-09T14:47:46.000Z</Time>
            <Position>
              <LatitudeDegrees>42.7820077724754810333251953125</LatitudeDegrees>
              <LongitudeDegrees>-0.1344857923686504364013671875</LongitudeDegrees>
            </Position>
            <AltitudeMeters>2608.60009765625</AltitudeMeters>
            <DistanceMeters>18429.660337315</DistanceMeters>
          </Trackpoint>
          <Trackpoint>
            <Time>2022-07-09T14:47:47.000Z</Time>
            <Position>
              <LatitudeDegrees>42.78201238252222537994384765625</LatitudeDegrees>
              <LongitudeDegrees>-0.134486295282840728759765625</LongitudeDegrees>
            </Position>
            <AltitudeMeters>2608.60009765625</AltitudeMeters>
            <DistanceMeters>18430.180820065</DistanceMeters>
          </Trackpoint>
          <Trackpoint>
            <Time>2022-07-09T14:47:50.000Z</Time>
            <Position>
              <LatitudeDegrees>42.78202746994793415069580078125</LatitudeDegrees>
              <LongitudeDegrees>-0.13447112403810024261474609375</LongitudeDegrees>
            </Position>
            <AltitudeMeters>2608</AltitudeMeters>
            <DistanceMeters>18432.267083914</DistanceMeters>
          </Trackpoint>
          <Trackpoint>
            <Time>2022-07-09T14:47:52.000Z</Time>
            <Position>
              <LatitudeDegrees>42.7820413000881671905517578125</LatitudeDegrees>
              <LongitudeDegrees>-0.134467519819736480712890625</LongitudeDegrees>
            </Position>
            <AltitudeMeters>2607.60009765625</AltitudeMeters>
            <DistanceMeters>18433.834304636</DistanceMeters>
          </Trackpoint>
          <Trackpoint>
            <Time>2022-07-09T14:47:54.000Z</Time>
            <Position>
              <LatitudeDegrees>42.78205496259033679962158203125</LatitudeDegrees>
              <LongitudeDegrees>-0.13446039520204067230224609375</LongitudeDegrees>
            </Position>
            <AltitudeMeters>2607</AltitudeMeters>
            <DistanceMeters>18435.463673371</DistanceMeters>
          </Trackpoint>
          <Trackpoint>
            <Time>2022-07-09T14:47:56.000Z</Time>
            <Position>
              <LatitudeDegrees>42.7820687927305698394775390625</LatitudeDegrees>
              <LongitudeDegrees>-0.13446022756397724151611328125</LongitudeDegrees>
            </Position>
            <AltitudeMeters>2607</AltitudeMeters>
            <DistanceMeters>18437.001815116</DistanceMeters>
          </Trackpoint>
          <Trackpoint>
            <Time>2022-07-09T14:47:58.000Z</Time>
            <Position>
              <LatitudeDegrees>42.78208580799400806427001953125</LatitudeDegrees>
              <LongitudeDegrees>-0.13446458615362644195556640625</LongitudeDegrees>
            </Position>
            <AltitudeMeters>2606.39990234375</AltitudeMeters>
            <DistanceMeters>18438.928304519</DistanceMeters>
          </Trackpoint>
          <Trackpoint>
            <Time>2022-07-09T14:48:00.000Z</Time>
            <Position>
              <LatitudeDegrees>42.78210508637130260467529296875</LatitudeDegrees>
              <LongitudeDegrees>-0.13447145931422710418701171875</LongitudeDegrees>
            </Position>
            <AltitudeMeters>2605.60009765625</AltitudeMeters>
            <DistanceMeters>18441.146725503</DistanceMeters>
          </Trackpoint>
          <Trackpoint>
            <Time>2022-07-09T14:48:01.000Z</Time>
            <Position>
              <LatitudeDegrees>42.78211480937898159027099609375</LatitudeDegrees>
              <LongitudeDegrees>-0.13447430916130542755126953125</LongitudeDegrees>
            </Position>
            <AltitudeMeters>2605.39990234375</AltitudeMeters>
            <DistanceMeters>18442.254917903</DistanceMeters>
          </Trackpoint>
          <Trackpoint>
            <Time>2022-07-09T14:48:02.000Z</Time>
            <Position>
              <LatitudeDegrees>42.7821251191198825836181640625</LatitudeDegrees>
              <LongitudeDegrees>-0.134477913379669189453125</LongitudeDegrees>
            </Position>
            <AltitudeMeters>2605.199951171875</AltitudeMeters>
            <DistanceMeters>18443.441801185</DistanceMeters>
          </Trackpoint>
          <Trackpoint>
            <Time>2022-07-09T14:48:03.000Z</Time>
            <Position>
              <LatitudeDegrees>42.7821336686611175537109375</LatitudeDegrees>
              <LongitudeDegrees>-0.1344821043312549591064453125</LongitudeDegrees>
            </Position>
            <AltitudeMeters>2605.199951171875</AltitudeMeters>
            <DistanceMeters>18444.451949015</DistanceMeters>
          </Trackpoint>
          <Trackpoint>
            <Time>2022-07-09T14:48:05.000Z</Time>
            <Position>
              <LatitudeDegrees>42.782147414982318878173828125</LatitudeDegrees>
              <LongitudeDegrees>-0.13448704965412616729736328125</LongitudeDegrees>
            </Position>
            <AltitudeMeters>2604.39990234375</AltitudeMeters>
            <DistanceMeters>18446.030651362</DistanceMeters>
          </Trackpoint>
          <Trackpoint>
            <Time>2022-07-09T14:48:10.000Z</Time>
            <Position>
              <LatitudeDegrees>42.78219141997396945953369140625</LatitudeDegrees>
              <LongitudeDegrees>-0.13451839797198772430419921875</LongitudeDegrees>
            </Position>
            <AltitudeMeters>2603.60009765625</AltitudeMeters>
            <DistanceMeters>18451.556926647</DistanceMeters>
          </Trackpoint>
          <Trackpoint>
            <Time>2022-07-09T14:48:11.000Z</Time>
            <Position>
              <LatitudeDegrees>42.78220139443874359130859375</LatitudeDegrees>
              <LongitudeDegrees>-0.13452175073325634002685546875</LongitudeDegrees>
            </Position>
            <AltitudeMeters>2604</AltitudeMeters>
            <DistanceMeters>18452.69724722</DistanceMeters>
          </Trackpoint>
          <Trackpoint>
            <Time>2022-07-09T14:48:14.000Z</Time>
            <Position>
              <LatitudeDegrees>42.7822327427566051483154296875</LatitudeDegrees>
              <LongitudeDegrees>-0.1345176436007022857666015625</LongitudeDegrees>
            </Position>
            <AltitudeMeters>2603.800048828125</AltitudeMeters>
            <DistanceMeters>18456.201659291</DistanceMeters>
          </Trackpoint>
          <Trackpoint>
            <Time>2022-07-09T14:48:16.000Z</Time>
            <Position>
              <LatitudeDegrees>42.78225428424775600433349609375</LatitudeDegrees>
              <LongitudeDegrees>-0.13449761085212230682373046875</LongitudeDegrees>
            </Position>
            <AltitudeMeters>2603.39990234375</AltitudeMeters>
            <DistanceMeters>18459.10581001</DistanceMeters>
          </Trackpoint>
          <Trackpoint>
            <Time>2022-07-09T14:48:17.000Z</Time>
            <Position>
              <LatitudeDegrees>42.7822650969028472900390625</LatitudeDegrees>
              <LongitudeDegrees>-0.13449174351990222930908203125</LongitudeDegrees>
            </Position>
            <AltitudeMeters>2603</AltitudeMeters>
            <DistanceMeters>18460.398313063</DistanceMeters>
          </Trackpoint>
          <Trackpoint>
            <Time>2022-07-09T14:48:20.000Z</Time>
            <Position>
              <LatitudeDegrees>42.7822954393923282623291015625</LatitudeDegrees>
              <LongitudeDegrees>-0.1344975270330905914306640625</LongitudeDegrees>
            </Position>
            <AltitudeMeters>2602.39990234375</AltitudeMeters>
            <DistanceMeters>18463.808699912</DistanceMeters>
          </Trackpoint>
          <Trackpoint>
            <Time>2022-07-09T14:48:21.000Z</Time>
            <Position>
              <LatitudeDegrees>42.782306671142578125</LatitudeDegrees>
              <LongitudeDegrees>-0.13449710793793201446533203125</LongitudeDegrees>
            </Position>
            <AltitudeMeters>2602.199951171875</AltitudeMeters>
            <DistanceMeters>18465.062188365</DistanceMeters>
          </Trackpoint>
          <Trackpoint>
            <Time>2022-07-09T14:48:25.000Z</Time>
            <Position>
              <LatitudeDegrees>42.78235671110451221466064453125</LatitudeDegrees>
              <LongitudeDegrees>-0.1344847865402698516845703125</LongitudeDegrees>
            </Position>
            <AltitudeMeters>2601.39990234375</AltitudeMeters>
            <DistanceMeters>18470.720867634</DistanceMeters>
          </Trackpoint>
          <Trackpoint>
            <Time>2022-07-09T14:48:26.000Z</Time>
            <Position>
              <LatitudeDegrees>42.7823695354163646697998046875</LatitudeDegrees>
              <LongitudeDegrees>-0.134479589760303497314453125</LongitudeDegrees>
            </Position>
            <AltitudeMeters>2601.199951171875</AltitudeMeters>
            <DistanceMeters>18472.208270985</DistanceMeters>
          </Trackpoint>
          <Trackpoint>
            <Time>2022-07-09T14:48:28.000Z</Time>
            <Position>
              <LatitudeDegrees>42.78238780796527862548828125</LatitudeDegrees>
              <LongitudeDegrees>-0.13446743600070476531982421875</LongitudeDegrees>
            </Position>
            <AltitudeMeters>2600.800048828125</AltitudeMeters>
            <DistanceMeters>18474.469028218</DistanceMeters>
          </Trackpoint>
          <Trackpoint>
            <Time>2022-07-09T14:48:32.000Z</Time>
            <Position>
              <LatitudeDegrees>42.7824141271412372589111328125</LatitudeDegrees>
              <LongitudeDegrees>-0.13446693308651447296142578125</LongitudeDegrees>
            </Position>
            <AltitudeMeters>2600.199951171875</AltitudeMeters>
            <DistanceMeters>18477.397948261</DistanceMeters>
          </Trackpoint>
          <Trackpoint>
            <Time>2022-07-09T14:48:35.000Z</Time>
            <Position>
              <LatitudeDegrees>42.78243818320333957672119140625</LatitudeDegrees>
              <LongitudeDegrees>-0.13447531498968601226806640625</LongitudeDegrees>
            </Position>
            <AltitudeMeters>2600</AltitudeMeters>
            <DistanceMeters>18480.161902796</DistanceMeters>
          </Trackpoint>
          <Trackpoint>
            <Time>2022-07-09T14:48:38.000Z</Time>
            <Position>
              <LatitudeDegrees>42.782461903989315032958984375</LatitudeDegrees>
              <LongitudeDegrees>-0.13447850011289119720458984375</LongitudeDegrees>
            </Position>
            <AltitudeMeters>2600</AltitudeMeters>
            <DistanceMeters>18482.815854497</DistanceMeters>
          </Trackpoint>
          <Trackpoint>
            <Time>2022-07-09T14:48:39.000Z</Time>
            <Position>
              <LatitudeDegrees>42.782471962273120880126953125</LatitudeDegrees>
              <LongitudeDegrees>-0.134480930864810943603515625</LongitudeDegrees>
            </Position>
            <AltitudeMeters>2599.800048828125</AltitudeMeters>
            <DistanceMeters>18483.952208725</DistanceMeters>
          </Trackpoint>
          <Trackpoint>
            <Time>2022-07-09T14:48:43.000Z</Time>
            <Position>
              <LatitudeDegrees>42.782513201236724853515625</LatitudeDegrees>
              <LongitudeDegrees>-0.13448839075863361358642578125</LongitudeDegrees>
            </Position>
            <AltitudeMeters>2599.39990234375</AltitudeMeters>
            <DistanceMeters>18488.582262879</DistanceMeters>
          </Trackpoint>
          <Trackpoint>
            <Time>2022-07-09T14:48:45.000Z</Time>
            <Position>
              <LatitudeDegrees>42.78253356926143169403076171875</LatitudeDegrees>
              <LongitudeDegrees>-0.13448704965412616729736328125</LongitudeDegrees>
            </Position>
            <AltitudeMeters>2599</AltitudeMeters>
            <DistanceMeters>18490.85099459</DistanceMeters>
          </Trackpoint>
          <Trackpoint>
            <Time>2022-07-09T14:48:47.000Z</Time>
            <Position>
              <LatitudeDegrees>42.78255737386643886566162109375</LatitudeDegrees>
              <LongitudeDegrees>-0.13447833247482776641845703125</LongitudeDegrees>
            </Position>
            <AltitudeMeters>2598.39990234375</AltitudeMeters>
            <DistanceMeters>18493.591984119</DistanceMeters>
          </Trackpoint>
          <Trackpoint>
            <Time>2022-07-09T14:48:48.000Z</Time>
            <Position>
              <LatitudeDegrees>42.7825693599879741668701171875</LatitudeDegrees>
              <LongitudeDegrees>-0.13447095640003681182861328125</LongitudeDegrees>
            </Position>
            <AltitudeMeters>2598</AltitudeMeters>
            <DistanceMeters>18495.054901792</DistanceMeters>
          </Trackpoint>
          <Trackpoint>
            <Time>2022-07-09T14:48:49.000Z</Time>
            <Position>
              <LatitudeDegrees>42.7825804241001605987548828125</LatitudeDegrees>
              <LongitudeDegrees>-0.1344643346965312957763671875</LongitudeDegrees>
            </Position>
            <AltitudeMeters>2597.800048828125</AltitudeMeters>
            <DistanceMeters>18496.398782475</DistanceMeters>
          </Trackpoint>
          <Trackpoint>
            <Time>2022-07-09T14:48:52.000Z</Time>
            <Position>
              <LatitudeDegrees>42.7826035581529140472412109375</LatitudeDegrees>
              <LongitudeDegrees>-0.1344492472708225250244140625</LongitudeDegrees>
            </Position>
            <AltitudeMeters>2597.199951171875</AltitudeMeters>
            <DistanceMeters>18499.252749705</DistanceMeters>
          </Trackpoint>
          <Trackpoint>
            <Time>2022-07-09T14:48:53.000Z</Time>
            <Position>
              <LatitudeDegrees>42.782612107694149017333984375</LatitudeDegrees>
              <LongitudeDegrees>-0.134444050490856170654296875</LongitudeDegrees>
            </Position>
            <AltitudeMeters>2597</AltitudeMeters>
            <DistanceMeters>18500.293715206</DistanceMeters>
          </Trackpoint>
          <Trackpoint>
            <Time>2022-07-09T14:48:54.000Z</Time>
            <Position>
              <LatitudeDegrees>42.782620824873447418212890625</LatitudeDegrees>
              <LongitudeDegrees>-0.13443474657833576202392578125</LongitudeDegrees>
            </Position>
            <AltitudeMeters>2596.800048828125</AltitudeMeters>
            <DistanceMeters>18501.525402196</DistanceMeters>
          </Trackpoint>
          <Trackpoint>
            <Time>2022-07-09T14:48:55.000Z</Time>
            <Position>
              <LatitudeDegrees>42.7826266922056674957275390625</LatitudeDegrees>
              <LongitudeDegrees>-0.13442762196063995361328125</LongitudeDegrees>
            </Position>
            <AltitudeMeters>2596.800048828125</AltitudeMeters>
            <DistanceMeters>18502.401505214</DistanceMeters>
          </Trackpoint>
          <Trackpoint>
            <Time>2022-07-09T14:48:59.000Z</Time>
            <Position>
              <LatitudeDegrees>42.78265376575291156768798828125</LatitudeDegrees>
              <LongitudeDegrees>-0.13441127724945545196533203125</LongitudeDegrees>
            </Position>
            <AltitudeMeters>2596</AltitudeMeters>
            <DistanceMeters>18505.696069204</DistanceMeters>
          </Trackpoint>
          <Trackpoint>
            <Time>2022-07-09T14:49:00.000Z</Time>
            <Position>
              <LatitudeDegrees>42.7826592139899730682373046875</LatitudeDegrees>
              <LongitudeDegrees>-0.13441328890621662139892578125</LongitudeDegrees>
            </Position>
            <AltitudeMeters>2595.800048828125</AltitudeMeters>
            <DistanceMeters>18506.326405117</DistanceMeters>
          </Trackpoint>
          <Trackpoint>
            <Time>2022-07-09T14:49:05.000Z</Time>
            <Position>
              <LatitudeDegrees>42.78270070441067218780517578125</LatitudeDegrees>
              <LongitudeDegrees>-0.13441798277199268341064453125</LongitudeDegrees>
            </Position>
            <AltitudeMeters>2594.800048828125</AltitudeMeters>
            <DistanceMeters>18510.960358266</DistanceMeters>
          </Trackpoint>
          <Trackpoint>
            <Time>2022-07-09T14:49:06.000Z</Time>
            <Position>
              <LatitudeDegrees>42.7827130258083343505859375</LatitudeDegrees>
              <LongitudeDegrees>-0.13442150317132472991943359375</LongitudeDegrees>
            </Position>
            <AltitudeMeters>2594.60009765625</AltitudeMeters>
            <DistanceMeters>18512.36341089</DistanceMeters>
          </Trackpoint>
          <Trackpoint>
            <Time>2022-07-09T14:49:07.000Z</Time>
            <Position>
              <LatitudeDegrees>42.7827239222824573516845703125</LatitudeDegrees>
              <LongitudeDegrees>-0.13442116789519786834716796875</LongitudeDegrees>
            </Position>
            <AltitudeMeters>2594.39990234375</AltitudeMeters>
            <DistanceMeters>18513.580346606</DistanceMeters>
          </Trackpoint>
          <Trackpoint>
            <Time>2022-07-09T14:49:08.000Z</Time>
            <Position>
              <LatitudeDegrees>42.78273624368011951446533203125</LatitudeDegrees>
              <LongitudeDegrees>-0.1344130374491214752197265625</LongitudeDegrees>
            </Position>
            <AltitudeMeters>2594.39990234375</AltitudeMeters>
            <DistanceMeters>18515.10670165</DistanceMeters>
          </Trackpoint>
          <Trackpoint>
            <Time>2022-07-09T14:49:10.000Z</Time>
            <Position>
              <LatitudeDegrees>42.782760970294475555419921875</LatitudeDegrees>
              <LongitudeDegrees>-0.13439920730888843536376953125</LongitudeDegrees>
            </Position>
            <AltitudeMeters>2594.199951171875</AltitudeMeters>
            <DistanceMeters>18518.081508352</DistanceMeters>
          </Trackpoint>
          <Trackpoint>
            <Time>2022-07-09T14:49:13.000Z</Time>
            <Position>
              <LatitudeDegrees>42.78279625810682773590087890625</LatitudeDegrees>
              <LongitudeDegrees>-0.13438931666314601898193359375</LongitudeDegrees>
            </Position>
            <AltitudeMeters>2594</AltitudeMeters>
            <DistanceMeters>18522.09181584</DistanceMeters>
          </Trackpoint>
          <Trackpoint>
            <Time>2022-07-09T14:49:16.000Z</Time>
            <Position>
              <LatitudeDegrees>42.78281704522669315338134765625</LatitudeDegrees>
              <LongitudeDegrees>-0.13438244350254535675048828125</LongitudeDegrees>
            </Position>
            <AltitudeMeters>2593.60009765625</AltitudeMeters>
            <DistanceMeters>18524.473178477</DistanceMeters>
          </Trackpoint>
          <Trackpoint>
            <Time>2022-07-09T14:49:18.000Z</Time>
            <Position>
              <LatitudeDegrees>42.78283079154789447784423828125</LatitudeDegrees>
              <LongitudeDegrees>-0.13437489978969097137451171875</LongitudeDegrees>
            </Position>
            <AltitudeMeters>2593.39990234375</AltitudeMeters>
            <DistanceMeters>18526.121830353</DistanceMeters>
          </Trackpoint>
          <Trackpoint>
            <Time>2022-07-09T14:49:21.000Z</Time>
            <Position>
              <LatitudeDegrees>42.7828600443899631500244140625</LatitudeDegrees>
              <LongitudeDegrees>-0.13437263667583465576171875</LongitudeDegrees>
            </Position>
            <AltitudeMeters>2593</AltitudeMeters>
            <DistanceMeters>18529.383337681</DistanceMeters>
          </Trackpoint>
          <Trackpoint>
            <Time>2022-07-09T14:49:24.000Z</Time>
            <Position>
              <LatitudeDegrees>42.78288376517593860626220703125</LatitudeDegrees>
              <LongitudeDegrees>-0.1343731395900249481201171875</LongitudeDegrees>
            </Position>
            <AltitudeMeters>2592.60009765625</AltitudeMeters>
            <DistanceMeters>18532.023644295</DistanceMeters>
          </Trackpoint>
          <Trackpoint>
            <Time>2022-07-09T14:49:26.000Z</Time>
            <Position>
              <LatitudeDegrees>42.78290036134421825408935546875</LatitudeDegrees>
              <LongitudeDegrees>-0.1343878917396068572998046875</LongitudeDegrees>
            </Position>
            <AltitudeMeters>2592.60009765625</AltitudeMeters>
            <DistanceMeters>18534.227772496</DistanceMeters>
          </Trackpoint>
          <Trackpoint>
            <Time>2022-07-09T14:49:27.000Z</Time>
            <Position>
              <LatitudeDegrees>42.7829089947044849395751953125</LatitudeDegrees>
              <LongitudeDegrees>-0.134395100176334381103515625</LongitudeDegrees>
            </Position>
            <AltitudeMeters>2592.60009765625</AltitudeMeters>
            <DistanceMeters>18535.352143744</DistanceMeters>
          </Trackpoint>
          <Trackpoint>
            <Time>2022-07-09T14:49:31.000Z</Time>
            <Position>
              <LatitudeDegrees>42.782946042716503143310546875</LatitudeDegrees>
              <LongitudeDegrees>-0.13442535884678363800048828125</LongitudeDegrees>
            </Position>
            <AltitudeMeters>2592.800048828125</AltitudeMeters>
            <DistanceMeters>18540.159218282</DistanceMeters>
          </Trackpoint>
          <Trackpoint>
            <Time>2022-07-09T14:49:37.000Z</Time>
            <Position>
              <LatitudeDegrees>42.7829954959452152252197265625</LatitudeDegrees>
              <LongitudeDegrees>-0.134463496506214141845703125</LongitudeDegrees>
            </Position>
            <AltitudeMeters>2591.39990234375</AltitudeMeters>
            <DistanceMeters>18546.484029635</DistanceMeters>
          </Trackpoint>
          <Trackpoint>
            <Time>2022-07-09T14:49:43.000Z</Time>
            <Position>
              <LatitudeDegrees>42.78306514956057071685791015625</LatitudeDegrees>
              <LongitudeDegrees>-0.13445972464978694915771484375</LongitudeDegrees>
            </Position>
            <AltitudeMeters>2591</AltitudeMeters>
            <DistanceMeters>18554.243704224</DistanceMeters>
          </Trackpoint>
          <Trackpoint>
            <Time>2022-07-09T14:49:44.000Z</Time>
            <Position>
              <LatitudeDegrees>42.78306917287409305572509765625</LatitudeDegrees>
              <LongitudeDegrees>-0.13446358032524585723876953125</LongitudeDegrees>
            </Position>
            <AltitudeMeters>2591</AltitudeMeters>
            <DistanceMeters>18554.797800424</DistanceMeters>
          </Trackpoint>
          <Trackpoint>
            <Time>2022-07-09T14:49:50.000Z</Time>
            <Position>
              <LatitudeDegrees>42.7831148542463779449462890625</LatitudeDegrees>
              <LongitudeDegrees>-0.13448017649352550506591796875</LongitudeDegrees>
            </Position>
            <AltitudeMeters>2590.800048828125</AltitudeMeters>
            <DistanceMeters>18560.061285442</DistanceMeters>
          </Trackpoint>
          <Trackpoint>
            <Time>2022-07-09T14:49:51.000Z</Time>
            <Position>
              <LatitudeDegrees>42.78312063775956630706787109375</LatitudeDegrees>
              <LongitudeDegrees>-0.1344821043312549591064453125</LongitudeDegrees>
            </Position>
            <AltitudeMeters>2590.60009765625</AltitudeMeters>
            <DistanceMeters>18560.726472442</DistanceMeters>
          </Trackpoint>
          <Trackpoint>
            <Time>2022-07-09T14:49:54.000Z</Time>
            <Position>
              <LatitudeDegrees>42.783139161765575408935546875</LatitudeDegrees>
              <LongitudeDegrees>-0.13449073769152164459228515625</LongitudeDegrees>
            </Position>
            <AltitudeMeters>2590.60009765625</AltitudeMeters>
            <DistanceMeters>18562.905880667</DistanceMeters>
          </Trackpoint>
          <Trackpoint>
            <Time>2022-07-09T14:49:55.000Z</Time>
            <Position>
              <LatitudeDegrees>42.78314419090747833251953125</LatitudeDegrees>
              <LongitudeDegrees>-0.134493000805377960205078125</LongitudeDegrees>
            </Position>
            <AltitudeMeters>2590.60009765625</AltitudeMeters>
            <DistanceMeters>18563.506882379</DistanceMeters>
          </Trackpoint>
          <Trackpoint>
            <Time>2022-07-09T14:49:57.000Z</Time>
            <Position>
              <LatitudeDegrees>42.78315584175288677215576171875</LatitudeDegrees>
              <LongitudeDegrees>-0.1345035620033740997314453125</LongitudeDegrees>
            </Position>
            <AltitudeMeters>2590.60009765625</AltitudeMeters>
            <DistanceMeters>18565.062536739</DistanceMeters>
          </Trackpoint>
          <Trackpoint>
            <Time>2022-07-09T14:50:02.000Z</Time>
            <Position>
              <LatitudeDegrees>42.783180065453052520751953125</LatitudeDegrees>
              <LongitudeDegrees>-0.13452393002808094024658203125</LongitudeDegrees>
            </Position>
            <AltitudeMeters>2590.39990234375</AltitudeMeters>
            <DistanceMeters>18568.229935502</DistanceMeters>
          </Trackpoint>
          <Trackpoint>
            <Time>2022-07-09T14:50:03.000Z</Time>
            <Position>
              <LatitudeDegrees>42.78318936936557292938232421875</LatitudeDegrees>
              <LongitudeDegrees>-0.1345280371606349945068359375</LongitudeDegrees>
            </Position>
            <AltitudeMeters>2590.39990234375</AltitudeMeters>
            <DistanceMeters>18569.317565961</DistanceMeters>
          </Trackpoint>
          <Trackpoint>
            <Time>2022-07-09T14:50:08.000Z</Time>
            <Position>
              <LatitudeDegrees>42.78323345817625522613525390625</LatitudeDegrees>
              <LongitudeDegrees>-0.13450280763208866119384765625</LongitudeDegrees>
            </Position>
            <AltitudeMeters>2589.60009765625</AltitudeMeters>
            <DistanceMeters>18574.639061966</DistanceMeters>
          </Trackpoint>
          <Trackpoint>
            <Time>2022-07-09T14:50:09.000Z</Time>
            <Position>
              <LatitudeDegrees>42.783239744603633880615234375</LatitudeDegrees>
              <LongitudeDegrees>-0.13449459336698055267333984375</LongitudeDegrees>
            </Position>
            <AltitudeMeters>2589.39990234375</AltitudeMeters>
            <DistanceMeters>18575.608148107</DistanceMeters>
          </Trackpoint>
          <Trackpoint>
            <Time>2022-07-09T14:50:10.000Z</Time>
            <Position>
              <LatitudeDegrees>42.783247120678424835205078125</LatitudeDegrees>
              <LongitudeDegrees>-0.13448520563542842864990234375</LongitudeDegrees>
            </Position>
            <AltitudeMeters>2589</AltitudeMeters>
            <DistanceMeters>18576.732519355</DistanceMeters>
          </Trackpoint>
          <Trackpoint>
            <Time>2022-07-09T14:50:12.000Z</Time>
            <Position>
              <LatitudeDegrees>42.78325223363935947418212890625</LatitudeDegrees>
              <LongitudeDegrees>-0.13447095640003681182861328125</LongitudeDegrees>
            </Position>
            <AltitudeMeters>2588.60009765625</AltitudeMeters>
            <DistanceMeters>18578.028510952</DistanceMeters>
          </Trackpoint>
          <Trackpoint>
            <Time>2022-07-09T14:50:14.000Z</Time>
            <Position>
              <LatitudeDegrees>42.78325550258159637451171875</LatitudeDegrees>
              <LongitudeDegrees>-0.1344495825469493865966796875</LongitudeDegrees>
            </Position>
            <AltitudeMeters>2588.39990234375</AltitudeMeters>
            <DistanceMeters>18579.816427913</DistanceMeters>
          </Trackpoint>
          <Trackpoint>
            <Time>2022-07-09T14:50:16.000Z</Time>
            <Position>
              <LatitudeDegrees>42.78325944207608699798583984375</LatitudeDegrees>
              <LongitudeDegrees>-0.1344408653676509857177734375</LongitudeDegrees>
            </Position>
            <AltitudeMeters>2588.199951171875</AltitudeMeters>
            <DistanceMeters>18580.65568113</DistanceMeters>
          </Trackpoint>
          <Trackpoint>
            <Time>2022-07-09T14:50:21.000Z</Time>
            <Position>
              <LatitudeDegrees>42.78328844346106052398681640625</LatitudeDegrees>
              <LongitudeDegrees>-0.13442401774227619171142578125</LongitudeDegrees>
            </Position>
            <AltitudeMeters>2587.39990234375</AltitudeMeters>
            <DistanceMeters>18584.165242965</DistanceMeters>
          </Trackpoint>
          <Trackpoint>
            <Time>2022-07-09T14:50:22.000Z</Time>
            <Position>
              <LatitudeDegrees>42.78329682536423206329345703125</LatitudeDegrees>
              <LongitudeDegrees>-0.13441898860037326812744140625</LongitudeDegrees>
            </Position>
            <AltitudeMeters>2587.199951171875</AltitudeMeters>
            <DistanceMeters>18585.188712001</DistanceMeters>
          </Trackpoint>
          <Trackpoint>
            <Time>2022-07-09T14:50:24.000Z</Time>
            <Position>
              <LatitudeDegrees>42.7833093143999576568603515625</LatitudeDegrees>
              <LongitudeDegrees>-0.13440675102174282073974609375</LongitudeDegrees>
            </Position>
            <AltitudeMeters>2586.60009765625</AltitudeMeters>
            <DistanceMeters>18586.899192859</DistanceMeters>
          </Trackpoint>
          <Trackpoint>
            <Time>2022-07-09T14:50:27.000Z</Time>
            <Position>
              <LatitudeDegrees>42.783319540321826934814453125</LatitudeDegrees>
              <LongitudeDegrees>-0.13437758199870586395263671875</LongitudeDegrees>
            </Position>
            <AltitudeMeters>2586.199951171875</AltitudeMeters>
            <DistanceMeters>18589.539499473</DistanceMeters>
          </Trackpoint>
          <Trackpoint>
            <Time>2022-07-09T14:50:29.000Z</Time>
            <Position>
              <LatitudeDegrees>42.7833260782063007354736328125</LatitudeDegrees>
              <LongitudeDegrees>-0.13436048291623592376708984375</LongitudeDegrees>
            </Position>
            <AltitudeMeters>2586</AltitudeMeters>
            <DistanceMeters>18591.112471483</DistanceMeters>
          </Trackpoint>
          <Trackpoint>
            <Time>2022-07-09T14:50:31.000Z</Time>
            <Position>
              <LatitudeDegrees>42.783332951366901397705078125</LatitudeDegrees>
              <LongitudeDegrees>-0.13435444794595241546630859375</LongitudeDegrees>
            </Position>
            <AltitudeMeters>2585.800048828125</AltitudeMeters>
            <DistanceMeters>18592.023935708</DistanceMeters>
          </Trackpoint>
          <Trackpoint>
            <Time>2022-07-09T14:50:34.000Z</Time>
            <Position>
              <LatitudeDegrees>42.7833540737628936767578125</LatitudeDegrees>
              <LongitudeDegrees>-0.13434975408017635345458984375</LongitudeDegrees>
            </Position>
            <AltitudeMeters>2585</AltitudeMeters>
            <DistanceMeters>18594.405298345</DistanceMeters>
          </Trackpoint>
          <Trackpoint>
            <Time>2022-07-09T14:50:35.000Z</Time>
            <Position>
              <LatitudeDegrees>42.78336253948509693145751953125</LatitudeDegrees>
              <LongitudeDegrees>-0.1343459822237491607666015625</LongitudeDegrees>
            </Position>
            <AltitudeMeters>2584.800048828125</AltitudeMeters>
            <DistanceMeters>18595.401946933</DistanceMeters>
          </Trackpoint>
          <Trackpoint>
            <Time>2022-07-09T14:50:37.000Z</Time>
            <Position>
              <LatitudeDegrees>42.78338081203401088714599609375</LatitudeDegrees>
              <LongitudeDegrees>-0.1343315653502941131591796875</LongitudeDegrees>
            </Position>
            <AltitudeMeters>2584.60009765625</AltitudeMeters>
            <DistanceMeters>18597.752778017</DistanceMeters>
          </Trackpoint>
          <Trackpoint>
            <Time>2022-07-09T14:50:38.000Z</Time>
            <Position>
              <LatitudeDegrees>42.7833874337375164031982421875</LatitudeDegrees>
              <LongitudeDegrees>-0.134322009980678558349609375</LongitudeDegrees>
            </Position>
            <AltitudeMeters>2584.39990234375</AltitudeMeters>
            <DistanceMeters>18598.81945024</DistanceMeters>
          </Trackpoint>
          <Trackpoint>
            <Time>2022-07-09T14:50:42.000Z</Time>
            <Position>
              <LatitudeDegrees>42.78341366909444332122802734375</LatitudeDegrees>
              <LongitudeDegrees>-0.134305246174335479736328125</LongitudeDegrees>
            </Position>
            <AltitudeMeters>2584</AltitudeMeters>
            <DistanceMeters>18602.044763878</DistanceMeters>
          </Trackpoint>
          <Trackpoint>
            <Time>2022-07-09T14:50:45.000Z</Time>
            <Position>
              <LatitudeDegrees>42.7834310196340084075927734375</LatitudeDegrees>
              <LongitudeDegrees>-0.13431404717266559600830078125</LongitudeDegrees>
            </Position>
            <AltitudeMeters>2583.800048828125</AltitudeMeters>
            <DistanceMeters>18604.104893954</DistanceMeters>
          </Trackpoint>
          <Trackpoint>
            <Time>2022-07-09T14:50:46.000Z</Time>
            <Position>
              <LatitudeDegrees>42.78343655169010162353515625</LatitudeDegrees>
              <LongitudeDegrees>-0.1343171484768390655517578125</LongitudeDegrees>
            </Position>
            <AltitudeMeters>2583.60009765625</AltitudeMeters>
            <DistanceMeters>18604.776834295</DistanceMeters>
          </Trackpoint>
          <Trackpoint>
            <Time>2022-07-09T14:50:49.000Z</Time>
            <Position>
              <LatitudeDegrees>42.7834598533809185028076171875</LatitudeDegrees>
              <LongitudeDegrees>-0.13433131389319896697998046875</LongitudeDegrees>
            </Position>
            <AltitudeMeters>2583.800048828125</AltitudeMeters>
            <DistanceMeters>18607.616527635</DistanceMeters>
          </Trackpoint>
          <Trackpoint>
            <Time>2022-07-09T14:50:51.000Z</Time>
            <Position>
              <LatitudeDegrees>42.7834803052246570587158203125</LatitudeDegrees>
              <LongitudeDegrees>-0.13433969579637050628662109375</LongitudeDegrees>
            </Position>
            <AltitudeMeters>2583.800048828125</AltitudeMeters>
            <DistanceMeters>18609.994095269</DistanceMeters>
          </Trackpoint>
          <Trackpoint>
            <Time>2022-07-09T14:50:52.000Z</Time>
            <Position>
              <LatitudeDegrees>42.783490531146526336669921875</LatitudeDegrees>
              <LongitudeDegrees>-0.1343399472534656524658203125</LongitudeDegrees>
            </Position>
            <AltitudeMeters>2584</AltitudeMeters>
            <DistanceMeters>18611.134415841</DistanceMeters>
          </Trackpoint>
          <Trackpoint>
            <Time>2022-07-09T14:50:58.000Z</Time>
            <Position>
              <LatitudeDegrees>42.783526070415973663330078125</LatitudeDegrees>
              <LongitudeDegrees>-0.13435897417366504669189453125</LongitudeDegrees>
            </Position>
            <AltitudeMeters>2584</AltitudeMeters>
            <DistanceMeters>18615.384139701</DistanceMeters>
          </Trackpoint>
          <Trackpoint>
            <Time>2022-07-09T14:51:00.000Z</Time>
            <Position>
              <LatitudeDegrees>42.78353436850011348724365234375</LatitudeDegrees>
              <LongitudeDegrees>-0.1343768276274204254150390625</LongitudeDegrees>
            </Position>
            <AltitudeMeters>2584</AltitudeMeters>
            <DistanceMeters>18617.110385694</DistanceMeters>
          </Trackpoint>
          <Trackpoint>
            <Time>2022-07-09T14:51:03.000Z</Time>
            <Position>
              <LatitudeDegrees>42.783558256924152374267578125</LatitudeDegrees>
              <LongitudeDegrees>-0.134423263370990753173828125</LongitudeDegrees>
            </Position>
            <AltitudeMeters>2583.800048828125</AltitudeMeters>
            <DistanceMeters>18621.742389756</DistanceMeters>
          </Trackpoint>
          <Trackpoint>
            <Time>2022-07-09T14:51:06.000Z</Time>
            <Position>
              <LatitudeDegrees>42.78357191942632198333740234375</LatitudeDegrees>
              <LongitudeDegrees>-0.13446860946714878082275390625</LongitudeDegrees>
            </Position>
            <AltitudeMeters>2583.60009765625</AltitudeMeters>
            <DistanceMeters>18625.748191279</DistanceMeters>
          </Trackpoint>
          <Trackpoint>
            <Time>2022-07-09T14:51:10.000Z</Time>
            <Position>
              <LatitudeDegrees>42.78358331881463527679443359375</LatitudeDegrees>
              <LongitudeDegrees>-0.1345230080187320709228515625</LongitudeDegrees>
            </Position>
            <AltitudeMeters>2583.199951171875</AltitudeMeters>
            <DistanceMeters>18630.37043758</DistanceMeters>
          </Trackpoint>
          <Trackpoint>
            <Time>2022-07-09T14:51:14.000Z</Time>
            <Position>
              <LatitudeDegrees>42.78360058553516864776611328125</LatitudeDegrees>
              <LongitudeDegrees>-0.1345686055719852447509765625</LongitudeDegrees>
            </Position>
            <AltitudeMeters>2583</AltitudeMeters>
            <DistanceMeters>18634.562397594</DistanceMeters>
          </Trackpoint>
          <Trackpoint>
            <Time>2022-07-09T14:51:15.000Z</Time>
            <Position>
              <LatitudeDegrees>42.78360511176288127899169921875</LatitudeDegrees>
              <LongitudeDegrees>-0.134578831493854522705078125</LongitudeDegrees>
            </Position>
            <AltitudeMeters>2582.800048828125</AltitudeMeters>
            <DistanceMeters>18635.536131657</DistanceMeters>
          </Trackpoint>
          <Trackpoint>
            <Time>2022-07-09T14:51:16.000Z</Time>
            <Position>
              <LatitudeDegrees>42.78361081145703792572021484375</LatitudeDegrees>
              <LongitudeDegrees>-0.1345880515873432159423828125</LongitudeDegrees>
            </Position>
            <AltitudeMeters>2582.800048828125</AltitudeMeters>
            <DistanceMeters>18636.519095634</DistanceMeters>
          </Trackpoint>
          <Trackpoint>
            <Time>2022-07-09T14:51:21.000Z</Time>
            <Position>
              <LatitudeDegrees>42.78364249505102634429931640625</LatitudeDegrees>
              <LongitudeDegrees>-0.1346155442297458648681640625</LongitudeDegrees>
            </Position>
            <AltitudeMeters>2581.800048828125</AltitudeMeters>
            <DistanceMeters>18640.700271066</DistanceMeters>
          </Trackpoint>
          <Trackpoint>
            <Time>2022-07-09T14:51:22.000Z</Time>
            <Position>
              <LatitudeDegrees>42.783645428717136383056640625</LatitudeDegrees>
              <LongitudeDegrees>-0.1346178911626338958740234375</LongitudeDegrees>
            </Position>
            <AltitudeMeters>2581.60009765625</AltitudeMeters>
            <DistanceMeters>18641.092076247</DistanceMeters>
          </Trackpoint>
          <Trackpoint>
            <Time>2022-07-09T14:51:24.000Z</Time>
            <Position>
              <LatitudeDegrees>42.78365657664835453033447265625</LatitudeDegrees>
              <LongitudeDegrees>-0.13460137881338596343994140625</LongitudeDegrees>
            </Position>
            <AltitudeMeters>2581</AltitudeMeters>
            <DistanceMeters>18642.92488514</DistanceMeters>
          </Trackpoint>
          <Trackpoint>
            <Time>2022-07-09T14:51:26.000Z</Time>
            <Position>
              <LatitudeDegrees>42.783676274120807647705078125</LatitudeDegrees>
              <LongitudeDegrees>-0.134602971374988555908203125</LongitudeDegrees>
            </Position>
            <AltitudeMeters>2580.60009765625</AltitudeMeters>
            <DistanceMeters>18645.120804269</DistanceMeters>
          </Trackpoint>
          <Trackpoint>
            <Time>2022-07-09T14:51:27.000Z</Time>
            <Position>
              <LatitudeDegrees>42.78368641622364521026611328125</LatitudeDegrees>
              <LongitudeDegrees>-0.13460607267916202545166015625</LongitudeDegrees>
            </Position>
            <AltitudeMeters>2580</AltitudeMeters>
            <DistanceMeters>18646.276854144</DistanceMeters>
          </Trackpoint>
          <Trackpoint>
            <Time>2022-07-09T14:51:29.000Z</Time>
            <Position>
              <LatitudeDegrees>42.78370636515319347381591796875</LatitudeDegrees>
              <LongitudeDegrees>-0.13460473157465457916259765625</LongitudeDegrees>
            </Position>
            <AltitudeMeters>2579.39990234375</AltitudeMeters>
            <DistanceMeters>18648.501372494</DistanceMeters>
          </Trackpoint>
          <Trackpoint>
            <Time>2022-07-09T14:51:33.000Z</Time>
            <Position>
              <LatitudeDegrees>42.78373553417623043060302734375</LatitudeDegrees>
              <LongitudeDegrees>-0.13458344154059886932373046875</LongitudeDegrees>
            </Position>
            <AltitudeMeters>2578.199951171875</AltitudeMeters>
            <DistanceMeters>18652.185419847</DistanceMeters>
          </Trackpoint>
          <Trackpoint>
            <Time>2022-07-09T14:51:34.000Z</Time>
            <Position>
              <LatitudeDegrees>42.7837414853274822235107421875</LatitudeDegrees>
              <LongitudeDegrees>-0.13457690365612506866455078125</LongitudeDegrees>
            </Position>
            <AltitudeMeters>2578</AltitudeMeters>
            <DistanceMeters>18653.040660276</DistanceMeters>
          </Trackpoint>
          <Trackpoint>
            <Time>2022-07-09T14:51:36.000Z</Time>
            <Position>
              <LatitudeDegrees>42.78375514782965183258056640625</LatitudeDegrees>
              <LongitudeDegrees>-0.1345655880868434906005859375</LongitudeDegrees>
            </Position>
            <AltitudeMeters>2577.199951171875</AltitudeMeters>
            <DistanceMeters>18654.818447315</DistanceMeters>
          </Trackpoint>
          <Trackpoint>
            <Time>2022-07-09T14:51:40.000Z</Time>
            <Position>
              <LatitudeDegrees>42.78380007483065128326416015625</LatitudeDegrees>
              <LongitudeDegrees>-0.1345572061836719512939453125</LongitudeDegrees>
            </Position>
            <AltitudeMeters>2577</AltitudeMeters>
            <DistanceMeters>18659.866503943</DistanceMeters>
          </Trackpoint>
          <Trackpoint>
            <Time>2022-07-09T14:51:41.000Z</Time>
            <Position>
              <LatitudeDegrees>42.78380678035318851470947265625</LatitudeDegrees>
              <LongitudeDegrees>-0.134553015232086181640625</LongitudeDegrees>
            </Position>
            <AltitudeMeters>2577</AltitudeMeters>
            <DistanceMeters>18660.683954649</DistanceMeters>
          </Trackpoint>
          <Trackpoint>
            <Time>2022-07-09T14:51:47.000Z</Time>
            <Position>
              <LatitudeDegrees>42.7838481031358242034912109375</LatitudeDegrees>
              <LongitudeDegrees>-0.13454488478600978851318359375</LongitudeDegrees>
            </Position>
            <AltitudeMeters>2576.60009765625</AltitudeMeters>
            <DistanceMeters>18665.331528517</DistanceMeters>
          </Trackpoint>
          <Trackpoint>
            <Time>2022-07-09T14:51:49.000Z</Time>
            <Position>
              <LatitudeDegrees>42.783868052065372467041015625</LatitudeDegrees>
              <LongitudeDegrees>-0.13453884981572628021240234375</LongitudeDegrees>
            </Position>
            <AltitudeMeters>2576.60009765625</AltitudeMeters>
            <DistanceMeters>18667.606222739</DistanceMeters>
          </Trackpoint>
          <Trackpoint>
            <Time>2022-07-09T14:51:52.000Z</Time>
            <Position>
              <LatitudeDegrees>42.7839000709354877471923828125</LatitudeDegrees>
              <LongitudeDegrees>-0.1345328986644744873046875</LongitudeDegrees>
            </Position>
            <AltitudeMeters>2576.199951171875</AltitudeMeters>
            <DistanceMeters>18671.202202364</DistanceMeters>
          </Trackpoint>
          <Trackpoint>
            <Time>2022-07-09T14:51:53.000Z</Time>
            <Position>
              <LatitudeDegrees>42.7839114703238010406494140625</LatitudeDegrees>
              <LongitudeDegrees>-0.13452527113258838653564453125</LongitudeDegrees>
            </Position>
            <AltitudeMeters>2576</AltitudeMeters>
            <DistanceMeters>18672.614876033</DistanceMeters>
          </Trackpoint>
          <Trackpoint>
            <Time>2022-07-09T14:51:55.000Z</Time>
            <Position>
              <LatitudeDegrees>42.7839335985481739044189453125</LatitudeDegrees>
              <LongitudeDegrees>-0.13452275656163692474365234375</LongitudeDegrees>
            </Position>
            <AltitudeMeters>2575</AltitudeMeters>
            <DistanceMeters>18675.085570607</DistanceMeters>
          </Trackpoint>
          <Trackpoint>
            <Time>2022-07-09T14:51:56.000Z</Time>
            <Position>
              <LatitudeDegrees>42.7839449979364871978759765625</LatitudeDegrees>
              <LongitudeDegrees>-0.13452577404677867889404296875</LongitudeDegrees>
            </Position>
            <AltitudeMeters>2574.800048828125</AltitudeMeters>
            <DistanceMeters>18676.374575675</DistanceMeters>
          </Trackpoint>
          <Trackpoint>
            <Time>2022-07-09T14:51:57.000Z</Time>
            <Position>
              <LatitudeDegrees>42.7839574031531810760498046875</LatitudeDegrees>
              <LongitudeDegrees>-0.13452610932290554046630859375</LongitudeDegrees>
            </Position>
            <AltitudeMeters>2574.60009765625</AltitudeMeters>
            <DistanceMeters>18677.754918433</DistanceMeters>
          </Trackpoint>
          <Trackpoint>
            <Time>2022-07-09T14:52:03.000Z</Time>
            <Position>
              <LatitudeDegrees>42.78401599265635013580322265625</LatitudeDegrees>
              <LongitudeDegrees>-0.1345038972795009613037109375</LongitudeDegrees>
            </Position>
            <AltitudeMeters>2574.199951171875</AltitudeMeters>
            <DistanceMeters>18684.523862802</DistanceMeters>
          </Trackpoint>
          <Trackpoint>
            <Time>2022-07-09T14:52:04.000Z</Time>
            <Position>
              <LatitudeDegrees>42.7840254642069339752197265625</LatitudeDegrees>
              <LongitudeDegrees>-0.13450012542307376861572265625</LongitudeDegrees>
            </Position>
            <AltitudeMeters>2573.800048828125</AltitudeMeters>
            <DistanceMeters>18685.623876549</DistanceMeters>
          </Trackpoint>
          <Trackpoint>
            <Time>2022-07-09T14:52:08.000Z</Time>
            <Position>
              <LatitudeDegrees>42.7840532921254634857177734375</LatitudeDegrees>
              <LongitudeDegrees>-0.13452141545712947845458984375</LongitudeDegrees>
            </Position>
            <AltitudeMeters>2573</AltitudeMeters>
            <DistanceMeters>18689.176910023</DistanceMeters>
          </Trackpoint>
          <Trackpoint>
            <Time>2022-07-09T14:52:09.000Z</Time>
            <Position>
              <LatitudeDegrees>42.78406410478055477142333984375</LatitudeDegrees>
              <LongitudeDegrees>-0.134529210627079010009765625</LongitudeDegrees>
            </Position>
            <AltitudeMeters>2573</AltitudeMeters>
            <DistanceMeters>18690.540799956</DistanceMeters>
          </Trackpoint>
          <Trackpoint>
            <Time>2022-07-09T14:52:10.000Z</Time>
            <Position>
              <LatitudeDegrees>42.78407751582562923431396484375</LatitudeDegrees>
              <LongitudeDegrees>-0.13453801162540912628173828125</LongitudeDegrees>
            </Position>
            <AltitudeMeters>2572.39990234375</AltitudeMeters>
            <DistanceMeters>18692.197647335</DistanceMeters>
          </Trackpoint>
          <Trackpoint>
            <Time>2022-07-09T14:52:11.000Z</Time>
            <Position>
              <LatitudeDegrees>42.78409042395651340484619140625</LatitudeDegrees>
              <LongitudeDegrees>-0.1345431245863437652587890625</LongitudeDegrees>
            </Position>
            <AltitudeMeters>2572.199951171875</AltitudeMeters>
            <DistanceMeters>18693.694129529</DistanceMeters>
          </Trackpoint>
          <Trackpoint>
            <Time>2022-07-09T14:52:13.000Z</Time>
            <Position>
              <LatitudeDegrees>42.7841180004179477691650390625</LatitudeDegrees>
              <LongitudeDegrees>-0.13455896638333797454833984375</LongitudeDegrees>
            </Position>
            <AltitudeMeters>2571.199951171875</AltitudeMeters>
            <DistanceMeters>18697.024134616</DistanceMeters>
          </Trackpoint>
          <Trackpoint>
            <Time>2022-07-09T14:52:15.000Z</Time>
            <Position>
              <LatitudeDegrees>42.7841426432132720947265625</LatitudeDegrees>
              <LongitudeDegrees>-0.13457003049552440643310546875</LongitudeDegrees>
            </Position>
            <AltitudeMeters>2571</AltitudeMeters>
            <DistanceMeters>18699.909568808</DistanceMeters>
          </Trackpoint>
          <Trackpoint>
            <Time>2022-07-09T14:52:17.000Z</Time>
            <Position>
              <LatitudeDegrees>42.78416569344699382781982421875</LatitudeDegrees>
              <LongitudeDegrees>-0.1345726288855075836181640625</LongitudeDegrees>
            </Position>
            <AltitudeMeters>2570.800048828125</AltitudeMeters>
            <DistanceMeters>18702.484073831</DistanceMeters>
          </Trackpoint>
          <Trackpoint>
            <Time>2022-07-09T14:52:18.000Z</Time>
            <Position>
              <LatitudeDegrees>42.78417793102562427520751953125</LatitudeDegrees>
              <LongitudeDegrees>-0.13457137160003185272216796875</LongitudeDegrees>
            </Position>
            <AltitudeMeters>2570.60009765625</AltitudeMeters>
            <DistanceMeters>18703.847963763</DistanceMeters>
          </Trackpoint>
          <Trackpoint>
            <Time>2022-07-09T14:52:20.000Z</Time>
            <Position>
              <LatitudeDegrees>42.784208692610263824462890625</LatitudeDegrees>
              <LongitudeDegrees>-0.13456516899168491363525390625</LongitudeDegrees>
            </Position>
            <AltitudeMeters>2570.60009765625</AltitudeMeters>
            <DistanceMeters>18707.308293424</DistanceMeters>
          </Trackpoint>
          <Trackpoint>
            <Time>2022-07-09T14:52:22.000Z</Time>
            <Position>
              <LatitudeDegrees>42.78423224575817584991455078125</LatitudeDegrees>
              <LongitudeDegrees>-0.1345682702958583831787109375</LongitudeDegrees>
            </Position>
            <AltitudeMeters>2570.199951171875</AltitudeMeters>
            <DistanceMeters>18709.941750982</DistanceMeters>
          </Trackpoint>
          <Trackpoint>
            <Time>2022-07-09T14:52:27.000Z</Time>
            <Position>
              <LatitudeDegrees>42.7842839621007442474365234375</LatitudeDegrees>
              <LongitudeDegrees>-0.13456667773425579071044921875</LongitudeDegrees>
            </Position>
            <AltitudeMeters>2569.800048828125</AltitudeMeters>
            <DistanceMeters>18715.69851922</DistanceMeters>
          </Trackpoint>
          <Trackpoint>
            <Time>2022-07-09T14:52:28.000Z</Time>
            <Position>
              <LatitudeDegrees>42.7842997200787067413330078125</LatitudeDegrees>
              <LongitudeDegrees>-0.1345665939152240753173828125</LongitudeDegrees>
            </Position>
            <AltitudeMeters>2569.60009765625</AltitudeMeters>
            <DistanceMeters>18717.450725256</DistanceMeters>
          </Trackpoint>
          <Trackpoint>
            <Time>2022-07-09T14:52:34.000Z</Time>
            <Position>
              <LatitudeDegrees>42.78438798151910305023193359375</LatitudeDegrees>
              <LongitudeDegrees>-0.134551338851451873779296875</LongitudeDegrees>
            </Position>
            <AltitudeMeters>2569.39990234375</AltitudeMeters>
            <DistanceMeters>18727.35312901</DistanceMeters>
          </Trackpoint>
          <Trackpoint>
            <Time>2022-07-09T14:52:35.000Z</Time>
            <Position>
              <LatitudeDegrees>42.78439770452678203582763671875</LatitudeDegrees>
              <LongitudeDegrees>-0.13455427251756191253662109375</LongitudeDegrees>
            </Position>
            <AltitudeMeters>2569.39990234375</AltitudeMeters>
            <DistanceMeters>18728.46132141</DistanceMeters>
          </Trackpoint>
          <Trackpoint>
            <Time>2022-07-09T14:52:38.000Z</Time>
            <Position>
              <LatitudeDegrees>42.78442754410207271575927734375</LatitudeDegrees>
              <LongitudeDegrees>-0.13455879874527454376220703125</LongitudeDegrees>
            </Position>
            <AltitudeMeters>2569.199951171875</AltitudeMeters>
            <DistanceMeters>18731.803507007</DistanceMeters>
          </Trackpoint>
          <Trackpoint>
            <Time>2022-07-09T14:52:39.000Z</Time>
            <Position>
              <LatitudeDegrees>42.7844405360519886016845703125</LatitudeDegrees>
              <LongitudeDegrees>-0.1345608942210674285888671875</LongitudeDegrees>
            </Position>
            <AltitudeMeters>2569.199951171875</AltitudeMeters>
            <DistanceMeters>18733.263335093</DistanceMeters>
          </Trackpoint>
          <Trackpoint>
            <Time>2022-07-09T14:52:40.000Z</Time>
            <Position>
              <LatitudeDegrees>42.78445436619222164154052734375</LatitudeDegrees>
              <LongitudeDegrees>-0.1345659233629703521728515625</LongitudeDegrees>
            </Position>
            <AltitudeMeters>2569.199951171875</AltitudeMeters>
            <DistanceMeters>18734.859104988</DistanceMeters>
          </Trackpoint>
          <Trackpoint>
            <Time>2022-07-09T14:52:42.000Z</Time>
            <Position>
              <LatitudeDegrees>42.78448219411075115203857421875</LatitudeDegrees>
              <LongitudeDegrees>-0.13456651009619235992431640625</LongitudeDegrees>
            </Position>
            <AltitudeMeters>2569</AltitudeMeters>
            <DistanceMeters>18737.955868005</DistanceMeters>
          </Trackpoint>
          <Trackpoint>
            <Time>2022-07-09T14:52:46.000Z</Time>
            <Position>
              <LatitudeDegrees>42.78452443890273571014404296875</LatitudeDegrees>
              <LongitudeDegrees>-0.13454387895762920379638671875</LongitudeDegrees>
            </Position>
            <AltitudeMeters>2568.800048828125</AltitudeMeters>
            <DistanceMeters>18743.009288251</DistanceMeters>
          </Trackpoint>
          <Trackpoint>
            <Time>2022-07-09T14:52:47.000Z</Time>
            <Position>
              <LatitudeDegrees>42.78453583829104900360107421875</LatitudeDegrees>
              <LongitudeDegrees>-0.1345394365489482879638671875</LongitudeDegrees>
            </Position>
            <AltitudeMeters>2568.800048828125</AltitudeMeters>
            <DistanceMeters>18744.32601703</DistanceMeters>
          </Trackpoint>
          <Trackpoint>
            <Time>2022-07-09T14:52:49.000Z</Time>
            <Position>
              <LatitudeDegrees>42.78456768952310085296630859375</LatitudeDegrees>
              <LongitudeDegrees>-0.13452912680804729461669921875</LongitudeDegrees>
            </Position>
            <AltitudeMeters>2568.800048828125</AltitudeMeters>
            <DistanceMeters>18747.969396281</DistanceMeters>
          </Trackpoint>
          <Trackpoint>
            <Time>2022-07-09T14:52:55.000Z</Time>
            <Position>
              <LatitudeDegrees>42.78462611138820648193359375</LatitudeDegrees>
              <LongitudeDegrees>-0.1345297135412693023681640625</LongitudeDegrees>
            </Position>
            <AltitudeMeters>2568.60009765625</AltitudeMeters>
            <DistanceMeters>18754.471612666</DistanceMeters>
          </Trackpoint>
          <Trackpoint>
            <Time>2022-07-09T14:52:58.000Z</Time>
            <Position>
              <LatitudeDegrees>42.78464362956583499908447265625</LatitudeDegrees>
              <LongitudeDegrees>-0.13452242128551006317138671875</LongitudeDegrees>
            </Position>
            <AltitudeMeters>2568.39990234375</AltitudeMeters>
            <DistanceMeters>18756.509708631</DistanceMeters>
          </Trackpoint>
          <Trackpoint>
            <Time>2022-07-09T14:52:59.000Z</Time>
            <Position>
              <LatitudeDegrees>42.78464865870773792266845703125</LatitudeDegrees>
              <LongitudeDegrees>-0.1345176436007022857666015625</LongitudeDegrees>
            </Position>
            <AltitudeMeters>2568</AltitudeMeters>
            <DistanceMeters>18757.188335111</DistanceMeters>
          </Trackpoint>
          <Trackpoint>
            <Time>2022-07-09T14:53:05.000Z</Time>
            <Position>
              <LatitudeDegrees>42.78470347635447978973388671875</LatitudeDegrees>
              <LongitudeDegrees>-0.1344827748835086822509765625</LongitudeDegrees>
            </Position>
            <AltitudeMeters>2567.39990234375</AltitudeMeters>
            <DistanceMeters>18763.921163918</DistanceMeters>
          </Trackpoint>
          <Trackpoint>
            <Time>2022-07-09T14:53:06.000Z</Time>
            <Position>
              <LatitudeDegrees>42.784712947905063629150390625</LatitudeDegrees>
              <LongitudeDegrees>-0.1344780810177326202392578125</LongitudeDegrees>
            </Position>
            <AltitudeMeters>2567.39990234375</AltitudeMeters>
            <DistanceMeters>18765.045535166</DistanceMeters>
          </Trackpoint>
          <Trackpoint>
            <Time>2022-07-09T14:53:07.000Z</Time>
            <Position>
              <LatitudeDegrees>42.78472376056015491485595703125</LatitudeDegrees>
              <LongitudeDegrees>-0.1344676874577999114990234375</LongitudeDegrees>
            </Position>
            <AltitudeMeters>2567.39990234375</AltitudeMeters>
            <DistanceMeters>18766.52074648</DistanceMeters>
          </Trackpoint>
          <Trackpoint>
            <Time>2022-07-09T14:53:09.000Z</Time>
            <Position>
              <LatitudeDegrees>42.78474706225097179412841796875</LatitudeDegrees>
              <LongitudeDegrees>-0.13443893752992153167724609375</LongitudeDegrees>
            </Position>
            <AltitudeMeters>2567</AltitudeMeters>
            <DistanceMeters>18770.020001209</DistanceMeters>
          </Trackpoint>
          <Trackpoint>
            <Time>2022-07-09T14:53:12.000Z</Time>
            <Position>
              <LatitudeDegrees>42.78477656655013561248779296875</LatitudeDegrees>
              <LongitudeDegrees>-0.134392417967319488525390625</LongitudeDegrees>
            </Position>
            <AltitudeMeters>2566</AltitudeMeters>
            <DistanceMeters>18775.042951894</DistanceMeters>
          </Trackpoint>
          <Trackpoint>
            <Time>2022-07-09T14:53:13.000Z</Time>
            <Position>
              <LatitudeDegrees>42.784782685339450836181640625</LatitudeDegrees>
              <LongitudeDegrees>-0.13437825255095958709716796875</LongitudeDegrees>
            </Position>
            <AltitudeMeters>2565.60009765625</AltitudeMeters>
            <DistanceMeters>18776.383468665</DistanceMeters>
          </Trackpoint>
          <Trackpoint>
            <Time>2022-07-09T14:53:19.000Z</Time>
            <Position>
              <LatitudeDegrees>42.78480523265898227691650390625</LatitudeDegrees>
              <LongitudeDegrees>-0.13430021703243255615234375</LongitudeDegrees>
            </Position>
            <AltitudeMeters>2564.800048828125</AltitudeMeters>
            <DistanceMeters>18783.234624579</DistanceMeters>
          </Trackpoint>
          <Trackpoint>
            <Time>2022-07-09T14:53:22.000Z</Time>
            <Position>
              <LatitudeDegrees>42.784816883504390716552734375</LatitudeDegrees>
              <LongitudeDegrees>-0.13424917124211788177490234375</LongitudeDegrees>
            </Position>
            <AltitudeMeters>2564.60009765625</AltitudeMeters>
            <DistanceMeters>18787.602753643</DistanceMeters>
          </Trackpoint>
          <Trackpoint>
            <Time>2022-07-09T14:53:24.000Z</Time>
            <Position>
              <LatitudeDegrees>42.7848193980753421783447265625</LatitudeDegrees>
              <LongitudeDegrees>-0.13423659838736057281494140625</LongitudeDegrees>
            </Position>
            <AltitudeMeters>2564</AltitudeMeters>
            <DistanceMeters>18788.669425867</DistanceMeters>
          </Trackpoint>
          <Trackpoint>
            <Time>2022-07-09T14:53:25.000Z</Time>
            <Position>
              <LatitudeDegrees>42.7848220802843570709228515625</LatitudeDegrees>
              <LongitudeDegrees>-0.13423257507383823394775390625</LongitudeDegrees>
            </Position>
            <AltitudeMeters>2564</AltitudeMeters>
            <DistanceMeters>18789.115140665</DistanceMeters>
          </Trackpoint>
          <Trackpoint>
            <Time>2022-07-09T14:53:29.000Z</Time>
            <Position>
              <LatitudeDegrees>42.78483306057751178741455078125</LatitudeDegrees>
              <LongitudeDegrees>-0.13422084040939807891845703125</LongitudeDegrees>
            </Position>
            <AltitudeMeters>2563.60009765625</AltitudeMeters>
            <DistanceMeters>18790.670795025</DistanceMeters>
          </Trackpoint>
          <Trackpoint>
            <Time>2022-07-09T14:53:31.000Z</Time>
            <Position>
              <LatitudeDegrees>42.7848344855010509490966796875</LatitudeDegrees>
              <LongitudeDegrees>-0.13423391617834568023681640625</LongitudeDegrees>
            </Position>
            <AltitudeMeters>2563.39990234375</AltitudeMeters>
            <DistanceMeters>18791.75426627</DistanceMeters>
          </Trackpoint>
          <Trackpoint>
            <Time>2022-07-09T14:53:35.000Z</Time>
            <Position>
              <LatitudeDegrees>42.78485032729804515838623046875</LatitudeDegrees>
              <LongitudeDegrees>-0.13428186066448688507080078125</LongitudeDegrees>
            </Position>
            <AltitudeMeters>2562</AltitudeMeters>
            <DistanceMeters>18796.048380392</DistanceMeters>
          </Trackpoint>
          <Trackpoint>
            <Time>2022-07-09T14:53:38.000Z</Time>
            <Position>
              <LatitudeDegrees>42.7848603017628192901611328125</LatitudeDegrees>
              <LongitudeDegrees>-0.13431823812425136566162109375</LongitudeDegrees>
            </Position>
            <AltitudeMeters>2561</AltitudeMeters>
            <DistanceMeters>18799.222898515</DistanceMeters>
          </Trackpoint>
          <Trackpoint>
            <Time>2022-07-09T14:53:39.000Z</Time>
            <Position>
              <LatitudeDegrees>42.78486340306699275970458984375</LatitudeDegrees>
              <LongitudeDegrees>-0.13432863168418407440185546875</LongitudeDegrees>
            </Position>
            <AltitudeMeters>2560.800048828125</AltitudeMeters>
            <DistanceMeters>18800.144216693</DistanceMeters>
          </Trackpoint>
          <Trackpoint>
            <Time>2022-07-09T14:53:43.000Z</Time>
            <Position>
              <LatitudeDegrees>42.78487781994044780731201171875</LatitudeDegrees>
              <LongitudeDegrees>-0.13435444794595241546630859375</LongitudeDegrees>
            </Position>
            <AltitudeMeters>2560.199951171875</AltitudeMeters>
            <DistanceMeters>18802.794763707</DistanceMeters>
          </Trackpoint>
          <Trackpoint>
            <Time>2022-07-09T14:53:44.000Z</Time>
            <Position>
              <LatitudeDegrees>42.78488301672041416168212890625</LatitudeDegrees>
              <LongitudeDegrees>-0.1343510113656520843505859375</LongitudeDegrees>
            </Position>
            <AltitudeMeters>2560</AltitudeMeters>
            <DistanceMeters>18803.439266241</DistanceMeters>
          </Trackpoint>
          <Trackpoint>
            <Time>2022-07-09T14:53:45.000Z</Time>
            <Position>
              <LatitudeDegrees>42.784889973700046539306640625</LatitudeDegrees>
              <LongitudeDegrees>-0.13434237800538539886474609375</LongitudeDegrees>
            </Position>
            <AltitudeMeters>2559.800048828125</AltitudeMeters>
            <DistanceMeters>18804.488870608</DistanceMeters>
          </Trackpoint>
          <Trackpoint>
            <Time>2022-07-09T14:53:49.000Z</Time>
            <Position>
              <LatitudeDegrees>42.78490313328802585601806640625</LatitudeDegrees>
              <LongitudeDegrees>-0.13431773521006107330322265625</LongitudeDegrees>
            </Position>
            <AltitudeMeters>2558.60009765625</AltitudeMeters>
            <DistanceMeters>18806.977772462</DistanceMeters>
          </Trackpoint>
          <Trackpoint>
            <Time>2022-07-09T14:53:53.000Z</Time>
            <Position>
              <LatitudeDegrees>42.78492392040789127349853515625</LatitudeDegrees>
              <LongitudeDegrees>-0.13429963029921054840087890625</LongitudeDegrees>
            </Position>
            <AltitudeMeters>2557.60009765625</AltitudeMeters>
            <DistanceMeters>18809.723699233</DistanceMeters>
          </Trackpoint>
          <Trackpoint>
            <Time>2022-07-09T14:53:55.000Z</Time>
            <Position>
              <LatitudeDegrees>42.78493783436715602874755859375</LatitudeDegrees>
              <LongitudeDegrees>-0.13428403995931148529052734375</LongitudeDegrees>
            </Position>
            <AltitudeMeters>2557.39990234375</AltitudeMeters>
            <DistanceMeters>18811.728289969</DistanceMeters>
          </Trackpoint>
          <Trackpoint>
            <Time>2022-07-09T14:54:01.000Z</Time>
            <Position>
              <LatitudeDegrees>42.78497613966464996337890625</LatitudeDegrees>
              <LongitudeDegrees>-0.134310610592365264892578125</LongitudeDegrees>
            </Position>
            <AltitudeMeters>2557.199951171875</AltitudeMeters>
            <DistanceMeters>18816.51182566</DistanceMeters>
          </Trackpoint>
          <Trackpoint>
            <Time>2022-07-09T14:54:02.000Z</Time>
            <Position>
              <LatitudeDegrees>42.784979827702045440673828125</LatitudeDegrees>
              <LongitudeDegrees>-0.13431941159069538116455078125</LongitudeDegrees>
            </Position>
            <AltitudeMeters>2557.199951171875</AltitudeMeters>
            <DistanceMeters>18817.34024935</DistanceMeters>
          </Trackpoint>
          <Trackpoint>
            <Time>2022-07-09T14:54:04.000Z</Time>
            <Position>
              <LatitudeDegrees>42.7849836833775043487548828125</LatitudeDegrees>
              <LongitudeDegrees>-0.1343402825295925140380859375</LongitudeDegrees>
            </Position>
            <AltitudeMeters>2556.39990234375</AltitudeMeters>
            <DistanceMeters>18819.097601376</DistanceMeters>
          </Trackpoint>
          <Trackpoint>
            <Time>2022-07-09T14:54:08.000Z</Time>
            <Position>
              <LatitudeDegrees>42.78496717102825641632080078125</LatitudeDegrees>
              <LongitudeDegrees>-0.134358890354633331298828125</LongitudeDegrees>
            </Position>
            <AltitudeMeters>2555.39990234375</AltitudeMeters>
            <DistanceMeters>18821.482752977</DistanceMeters>
          </Trackpoint>
          <Trackpoint>
            <Time>2022-07-09T14:54:09.000Z</Time>
            <Position>
              <LatitudeDegrees>42.78496113605797290802001953125</LatitudeDegrees>
              <LongitudeDegrees>-0.13436417095363140106201171875</LongitudeDegrees>
            </Position>
            <AltitudeMeters>2555.199951171875</AltitudeMeters>
            <DistanceMeters>18822.277803511</DistanceMeters>
          </Trackpoint>
          <Trackpoint>
            <Time>2022-07-09T14:54:15.000Z</Time>
            <Position>
              <LatitudeDegrees>42.7849474735558032989501953125</LatitudeDegrees>
              <LongitudeDegrees>-0.13440289534628391265869140625</LongitudeDegrees>
            </Position>
            <AltitudeMeters>2554.199951171875</AltitudeMeters>
            <DistanceMeters>18825.787365345</DistanceMeters>
          </Trackpoint>
          <Trackpoint>
            <Time>2022-07-09T14:54:16.000Z</Time>
            <Position>
              <LatitudeDegrees>42.78494504280388355255126953125</LatitudeDegrees>
              <LongitudeDegrees>-0.1344086788594722747802734375</LongitudeDegrees>
            </Position>
            <AltitudeMeters>2553.800048828125</AltitudeMeters>
            <DistanceMeters>18826.324917618</DistanceMeters>
          </Trackpoint>
          <Trackpoint>
            <Time>2022-07-09T14:54:18.000Z</Time>
            <Position>
              <LatitudeDegrees>42.78494018130004405975341796875</LatitudeDegrees>
              <LongitudeDegrees>-0.1344304718077182769775390625</LongitudeDegrees>
            </Position>
            <AltitudeMeters>2553</AltitudeMeters>
            <DistanceMeters>18828.182197673</DistanceMeters>
          </Trackpoint>
          <Trackpoint>
            <Time>2022-07-09T14:54:21.000Z</Time>
            <Position>
              <LatitudeDegrees>42.78495593927800655364990234375</LatitudeDegrees>
              <LongitudeDegrees>-0.13445687480270862579345703125</LongitudeDegrees>
            </Position>
            <AltitudeMeters>2552</AltitudeMeters>
            <DistanceMeters>18830.962439647</DistanceMeters>
          </Trackpoint>
          <Trackpoint>
            <Time>2022-07-09T14:54:22.000Z</Time>
            <Position>
              <LatitudeDegrees>42.78496298007667064666748046875</LatitudeDegrees>
              <LongitudeDegrees>-0.13445938937366008758544921875</LongitudeDegrees>
            </Position>
            <AltitudeMeters>2552</AltitudeMeters>
            <DistanceMeters>18831.77434825</DistanceMeters>
          </Trackpoint>
          <Trackpoint>
            <Time>2022-07-09T14:54:26.000Z</Time>
            <Position>
              <LatitudeDegrees>42.78498150408267974853515625</LatitudeDegrees>
              <LongitudeDegrees>-0.13446190394461154937744140625</LongitudeDegrees>
            </Position>
            <AltitudeMeters>2551.39990234375</AltitudeMeters>
            <DistanceMeters>18833.847586391</DistanceMeters>
          </Trackpoint>
          <Trackpoint>
            <Time>2022-07-09T14:54:28.000Z</Time>
            <Position>
              <LatitudeDegrees>42.7849970944225788116455078125</LatitudeDegrees>
              <LongitudeDegrees>-0.134464167058467864990234375</LongitudeDegrees>
            </Position>
            <AltitudeMeters>2551.39990234375</AltitudeMeters>
            <DistanceMeters>18835.592044978</DistanceMeters>
          </Trackpoint>
          <Trackpoint>
            <Time>2022-07-09T14:54:32.000Z</Time>
            <Position>
              <LatitudeDegrees>42.78503523208200931549072265625</LatitudeDegrees>
              <LongitudeDegrees>-0.13442770577967166900634765625</LongitudeDegrees>
            </Position>
            <AltitudeMeters>2550.60009765625</AltitudeMeters>
            <DistanceMeters>18840.777752996</DistanceMeters>
          </Trackpoint>
          <Trackpoint>
            <Time>2022-07-09T14:54:34.000Z</Time>
            <Position>
              <LatitudeDegrees>42.78505786322057247161865234375</LatitudeDegrees>
              <LongitudeDegrees>-0.13440842740237712860107421875</LongitudeDegrees>
            </Position>
            <AltitudeMeters>2549.39990234375</AltitudeMeters>
            <DistanceMeters>18843.749522631</DistanceMeters>
          </Trackpoint>
          <Trackpoint>
            <Time>2022-07-09T14:54:39.000Z</Time>
            <Position>
              <LatitudeDegrees>42.78511234559118747711181640625</LatitudeDegrees>
              <LongitudeDegrees>-0.13441194780170917510986328125</LongitudeDegrees>
            </Position>
            <AltitudeMeters>2548.199951171875</AltitudeMeters>
            <DistanceMeters>18849.819342389</DistanceMeters>
          </Trackpoint>
          <Trackpoint>
            <Time>2022-07-09T14:54:40.000Z</Time>
            <Position>
              <LatitudeDegrees>42.785123996436595916748046875</LatitudeDegrees>
              <LongitudeDegrees>-0.1344023086130619049072265625</LongitudeDegrees>
            </Position>
            <AltitudeMeters>2547.800048828125</AltitudeMeters>
            <DistanceMeters>18851.333819003</DistanceMeters>
          </Trackpoint>
          <Trackpoint>
            <Time>2022-07-09T14:54:41.000Z</Time>
            <Position>
              <LatitudeDegrees>42.78513598255813121795654296875</LatitudeDegrees>
              <LongitudeDegrees>-0.13438965193927288055419921875</LongitudeDegrees>
            </Position>
            <AltitudeMeters>2547.800048828125</AltitudeMeters>
            <DistanceMeters>18853.023050828</DistanceMeters>
          </Trackpoint>
          <Trackpoint>
            <Time>2022-07-09T14:54:42.000Z</Time>
            <Position>
              <LatitudeDegrees>42.7851466275751590728759765625</LatitudeDegrees>
              <LongitudeDegrees>-0.13437531888484954833984375</LongitudeDegrees>
            </Position>
            <AltitudeMeters>2547.39990234375</AltitudeMeters>
            <DistanceMeters>18854.690762897</DistanceMeters>
          </Trackpoint>
          <Trackpoint>
            <Time>2022-07-09T14:54:44.000Z</Time>
            <Position>
              <LatitudeDegrees>42.78516389429569244384765625</LatitudeDegrees>
              <LongitudeDegrees>-0.13435092754662036895751953125</LongitudeDegrees>
            </Position>
            <AltitudeMeters>2547.199951171875</AltitudeMeters>
            <DistanceMeters>18857.461243898</DistanceMeters>
          </Trackpoint>
          <Trackpoint>
            <Time>2022-07-09T14:54:45.000Z</Time>
            <Position>
              <LatitudeDegrees>42.78516934253275394439697265625</LatitudeDegrees>
              <LongitudeDegrees>-0.1343396119773387908935546875</LongitudeDegrees>
            </Position>
            <AltitudeMeters>2547</AltitudeMeters>
            <DistanceMeters>18858.569436298</DistanceMeters>
          </Trackpoint>
          <Trackpoint>
            <Time>2022-07-09T14:54:47.000Z</Time>
            <Position>
              <LatitudeDegrees>42.7851731143891811370849609375</LatitudeDegrees>
              <LongitudeDegrees>-0.13430767692625522613525390625</LongitudeDegrees>
            </Position>
            <AltitudeMeters>2546.800048828125</AltitudeMeters>
            <DistanceMeters>18861.213160786</DistanceMeters>
          </Trackpoint>
          <Trackpoint>
            <Time>2022-07-09T14:54:50.000Z</Time>
            <Position>
              <LatitudeDegrees>42.785182334482669830322265625</LatitudeDegrees>
              <LongitudeDegrees>-0.13427364639937877655029296875</LongitudeDegrees>
            </Position>
            <AltitudeMeters>2546</AltitudeMeters>
            <DistanceMeters>18864.175800539</DistanceMeters>
          </Trackpoint>
          <Trackpoint>
            <Time>2022-07-09T14:54:51.000Z</Time>
            <Position>
              <LatitudeDegrees>42.78518510051071643829345703125</LatitudeDegrees>
              <LongitudeDegrees>-0.13426534831523895263671875</LongitudeDegrees>
            </Position>
            <AltitudeMeters>2546</AltitudeMeters>
            <DistanceMeters>18864.924041636</DistanceMeters>
          </Trackpoint>
          <Trackpoint>
            <Time>2022-07-09T14:54:54.000Z</Time>
            <Position>
              <LatitudeDegrees>42.78519750572741031646728515625</LatitudeDegrees>
              <LongitudeDegrees>-0.13423089869320392608642578125</LongitudeDegrees>
            </Position>
            <AltitudeMeters>2545.60009765625</AltitudeMeters>
            <DistanceMeters>18868.058483081</DistanceMeters>
          </Trackpoint>
          <Trackpoint>
            <Time>2022-07-09T14:54:56.000Z</Time>
            <Position>
              <LatitudeDegrees>42.78521259315311908721923828125</LatitudeDegrees>
              <LongitudeDegrees>-0.1342105306684970855712890625</LongitudeDegrees>
            </Position>
            <AltitudeMeters>2545</AltitudeMeters>
            <DistanceMeters>18870.420809739</DistanceMeters>
          </Trackpoint>
          <Trackpoint>
            <Time>2022-07-09T14:54:58.000Z</Time>
            <Position>
              <LatitudeDegrees>42.7852274291217327117919921875</LatitudeDegrees>
              <LongitudeDegrees>-0.13420508243143558502197265625</LongitudeDegrees>
            </Position>
            <AltitudeMeters>2544.39990234375</AltitudeMeters>
            <DistanceMeters>18872.131290598</DistanceMeters>
          </Trackpoint>
          <Trackpoint>
            <Time>2022-07-09T14:55:00.000Z</Time>
            <Position>
              <LatitudeDegrees>42.78524176217615604400634765625</LatitudeDegrees>
              <LongitudeDegrees>-0.1342155598104000091552734375</LongitudeDegrees>
            </Position>
            <AltitudeMeters>2544</AltitudeMeters>
            <DistanceMeters>18873.939297145</DistanceMeters>
          </Trackpoint>
          <Trackpoint>
            <Time>2022-07-09T14:55:01.000Z</Time>
            <Position>
              <LatitudeDegrees>42.78524846769869327545166015625</LatitudeDegrees>
              <LongitudeDegrees>-0.134218074381351470947265625</LongitudeDegrees>
            </Position>
            <AltitudeMeters>2543.800048828125</AltitudeMeters>
            <DistanceMeters>18874.711297822</DistanceMeters>
          </Trackpoint>
          <Trackpoint>
            <Time>2022-07-09T14:55:02.000Z</Time>
            <Position>
              <LatitudeDegrees>42.78525467030704021453857421875</LatitudeDegrees>
              <LongitudeDegrees>-0.134219415485858917236328125</LongitudeDegrees>
            </Position>
            <AltitudeMeters>2543.60009765625</AltitudeMeters>
            <DistanceMeters>18875.409598708</DistanceMeters>
          </Trackpoint>
          <Trackpoint>
            <Time>2022-07-09T14:55:08.000Z</Time>
            <Position>
              <LatitudeDegrees>42.785323821008205413818359375</LatitudeDegrees>
              <LongitudeDegrees>-0.1341924257576465606689453125</LongitudeDegrees>
            </Position>
            <AltitudeMeters>2543</AltitudeMeters>
            <DistanceMeters>18883.415564146</DistanceMeters>
          </Trackpoint>
          <Trackpoint>
            <Time>2022-07-09T14:55:10.000Z</Time>
            <Position>
              <LatitudeDegrees>42.78535366058349609375</LatitudeDegrees>
              <LongitudeDegrees>-0.13417691923677921295166015625</LongitudeDegrees>
            </Position>
            <AltitudeMeters>2543</AltitudeMeters>
            <DistanceMeters>18886.971138224</DistanceMeters>
          </Trackpoint>
          <Trackpoint>
            <Time>2022-07-09T14:55:11.000Z</Time>
            <Position>
              <LatitudeDegrees>42.78536564670503139495849609375</LatitudeDegrees>
              <LongitudeDegrees>-0.13416987843811511993408203125</LongitudeDegrees>
            </Position>
            <AltitudeMeters>2542.800048828125</AltitudeMeters>
            <DistanceMeters>18888.424767437</DistanceMeters>
          </Trackpoint>
          <Trackpoint>
            <Time>2022-07-09T14:55:15.000Z</Time>
            <Position>
              <LatitudeDegrees>42.7854114957153797149658203125</LatitudeDegrees>
              <LongitudeDegrees>-0.13414372690021991729736328125</LongitudeDegrees>
            </Position>
            <AltitudeMeters>2542.39990234375</AltitudeMeters>
            <DistanceMeters>18893.955942628</DistanceMeters>
          </Trackpoint>
          <Trackpoint>
            <Time>2022-07-09T14:55:16.000Z</Time>
            <Position>
              <LatitudeDegrees>42.78542247600853443145751953125</LatitudeDegrees>
              <LongitudeDegrees>-0.1341354288160800933837890625</LongitudeDegrees>
            </Position>
            <AltitudeMeters>2542.199951171875</AltitudeMeters>
            <DistanceMeters>18895.3525444</DistanceMeters>
          </Trackpoint>
          <Trackpoint>
            <Time>2022-07-09T14:55:20.000Z</Time>
            <Position>
              <LatitudeDegrees>42.7854664810001850128173828125</LatitudeDegrees>
              <LongitudeDegrees>-0.1341015659272670745849609375</LongitudeDegrees>
            </Position>
            <AltitudeMeters>2542.39990234375</AltitudeMeters>
            <DistanceMeters>18900.97761221</DistanceMeters>
          </Trackpoint>
          <Trackpoint>
            <Time>2022-07-09T14:55:21.000Z</Time>
            <Position>
              <LatitudeDegrees>42.78547863475978374481201171875</LatitudeDegrees>
              <LongitudeDegrees>-0.134092681109905242919921875</LongitudeDegrees>
            </Position>
            <AltitudeMeters>2542.60009765625</AltitudeMeters>
            <DistanceMeters>18902.509871938</DistanceMeters>
          </Trackpoint>
          <Trackpoint>
            <Time>2022-07-09T14:55:27.000Z</Time>
            <Position>
              <LatitudeDegrees>42.78555189259350299835205078125</LatitudeDegrees>
              <LongitudeDegrees>-0.134050436317920684814453125</LongitudeDegrees>
            </Position>
            <AltitudeMeters>2543</AltitudeMeters>
            <DistanceMeters>18911.364199902</DistanceMeters>
          </Trackpoint>
          <Trackpoint>
            <Time>2022-07-09T14:55:30.000Z</Time>
            <Position>
              <LatitudeDegrees>42.78558793477714061737060546875</LatitudeDegrees>
              <LongitudeDegrees>-0.1340221054852008819580078125</LongitudeDegrees>
            </Position>
            <AltitudeMeters>2543.199951171875</AltitudeMeters>
            <DistanceMeters>18915.995229113</DistanceMeters>
          </Trackpoint>
          <Trackpoint>
            <Time>2022-07-09T14:55:32.000Z</Time>
            <Position>
              <LatitudeDegrees>42.78560939244925975799560546875</LatitudeDegrees>
              <LongitudeDegrees>-0.1340046711266040802001953125</LongitudeDegrees>
            </Position>
            <AltitudeMeters>2543</AltitudeMeters>
            <DistanceMeters>18918.775471087</DistanceMeters>
          </Trackpoint>
          <Trackpoint>
            <Time>2022-07-09T14:55:37.000Z</Time>
            <Position>
              <LatitudeDegrees>42.78565113432705402374267578125</LatitudeDegrees>
              <LongitudeDegrees>-0.13396896421909332275390625</LongitudeDegrees>
            </Position>
            <AltitudeMeters>2542.60009765625</AltitudeMeters>
            <DistanceMeters>18924.260743616</DistanceMeters>
          </Trackpoint>
          <Trackpoint>
            <Time>2022-07-09T14:55:42.000Z</Time>
            <Position>
              <LatitudeDegrees>42.78569673188030719757080078125</LatitudeDegrees>
              <LongitudeDegrees>-0.1338916830718517303466796875</LongitudeDegrees>
            </Position>
            <AltitudeMeters>2541.800048828125</AltitudeMeters>
            <DistanceMeters>18932.360900123</DistanceMeters>
          </Trackpoint>
          <Trackpoint>
            <Time>2022-07-09T14:55:43.000Z</Time>
            <Position>
              <LatitudeDegrees>42.78570259921252727508544921875</LatitudeDegrees>
              <LongitudeDegrees>-0.13388506136834621429443359375</LongitudeDegrees>
            </Position>
            <AltitudeMeters>2541.60009765625</AltitudeMeters>
            <DistanceMeters>18933.210844895</DistanceMeters>
          </Trackpoint>
          <Trackpoint>
            <Time>2022-07-09T14:55:46.000Z</Time>
            <Position>
              <LatitudeDegrees>42.78572640381753444671630859375</LatitudeDegrees>
              <LongitudeDegrees>-0.13386863283812999725341796875</LongitudeDegrees>
            </Position>
            <AltitudeMeters>2541.60009765625</AltitudeMeters>
            <DistanceMeters>18936.18261453</DistanceMeters>
          </Trackpoint>
          <Trackpoint>
            <Time>2022-07-09T14:55:52.000Z</Time>
            <Position>
              <LatitudeDegrees>42.78577870689332485198974609375</LatitudeDegrees>
              <LongitudeDegrees>-0.1338051818311214447021484375</LongitudeDegrees>
            </Position>
            <AltitudeMeters>2540.39990234375</AltitudeMeters>
            <DistanceMeters>18943.977122488</DistanceMeters>
          </Trackpoint>
          <Trackpoint>
            <Time>2022-07-09T14:55:54.000Z</Time>
            <Position>
              <LatitudeDegrees>42.78579714708030223846435546875</LatitudeDegrees>
              <LongitudeDegrees>-0.13378766365349292755126953125</LongitudeDegrees>
            </Position>
            <AltitudeMeters>2539.800048828125</AltitudeMeters>
            <DistanceMeters>18946.480494824</DistanceMeters>
          </Trackpoint>
          <Trackpoint>
            <Time>2022-07-09T14:55:56.000Z</Time>
            <Position>
              <LatitudeDegrees>42.78582145459949970245361328125</LatitudeDegrees>
              <LongitudeDegrees>-0.1337605901062488555908203125</LongitudeDegrees>
            </Position>
            <AltitudeMeters>2539.199951171875</AltitudeMeters>
            <DistanceMeters>18949.977168029</DistanceMeters>
          </Trackpoint>
          <Trackpoint>
            <Time>2022-07-09T14:56:02.000Z</Time>
            <Position>
              <LatitudeDegrees>42.78585682623088359832763671875</LatitudeDegrees>
              <LongitudeDegrees>-0.1336705684661865234375</LongitudeDegrees>
            </Position>
            <AltitudeMeters>2538.60009765625</AltitudeMeters>
            <DistanceMeters>18958.317893953</DistanceMeters>
          </Trackpoint>
          <Trackpoint>
            <Time>2022-07-09T14:56:04.000Z</Time>
            <Position>
              <LatitudeDegrees>42.785868979990482330322265625</LatitudeDegrees>
              <LongitudeDegrees>-0.1336455903947353363037109375</LongitudeDegrees>
            </Position>
            <AltitudeMeters>2537.60009765625</AltitudeMeters>
            <DistanceMeters>18960.764716521</DistanceMeters>
          </Trackpoint>
          <Trackpoint>
            <Time>2022-07-09T14:56:06.000Z</Time>
            <Position>
              <LatitudeDegrees>42.7858842350542545318603515625</LatitudeDegrees>
              <LongitudeDegrees>-0.1336328499019145965576171875</LongitudeDegrees>
            </Position>
            <AltitudeMeters>2537.199951171875</AltitudeMeters>
            <DistanceMeters>18962.758013698</DistanceMeters>
          </Trackpoint>
          <Trackpoint>
            <Time>2022-07-09T14:56:08.000Z</Time>
            <Position>
              <LatitudeDegrees>42.78589655645191669464111328125</LatitudeDegrees>
              <LongitudeDegrees>-0.133623965084552764892578125</LongitudeDegrees>
            </Position>
            <AltitudeMeters>2537.199951171875</AltitudeMeters>
            <DistanceMeters>18964.310763005</DistanceMeters>
          </Trackpoint>
          <Trackpoint>
            <Time>2022-07-09T14:56:13.000Z</Time>
            <Position>
              <LatitudeDegrees>42.785946764051914215087890625</LatitudeDegrees>
              <LongitudeDegrees>-0.13362689875066280364990234375</LongitudeDegrees>
            </Position>
            <AltitudeMeters>2537.39990234375</AltitudeMeters>
            <DistanceMeters>18969.903632108</DistanceMeters>
          </Trackpoint>
          <Trackpoint>
            <Time>2022-07-09T14:56:19.000Z</Time>
            <Position>
              <LatitudeDegrees>42.786013819277286529541015625</LatitudeDegrees>
              <LongitudeDegrees>-0.13360242359340190887451171875</LongitudeDegrees>
            </Position>
            <AltitudeMeters>2536.800048828125</AltitudeMeters>
            <DistanceMeters>18977.630069539</DistanceMeters>
          </Trackpoint>
          <Trackpoint>
            <Time>2022-07-09T14:56:20.000Z</Time>
            <Position>
              <LatitudeDegrees>42.786026895046234130859375</LatitudeDegrees>
              <LongitudeDegrees>-0.13359555043280124664306640625</LongitudeDegrees>
            </Position>
            <AltitudeMeters>2536.39990234375</AltitudeMeters>
            <DistanceMeters>18979.185723898</DistanceMeters>
          </Trackpoint>
          <Trackpoint>
            <Time>2022-07-09T14:56:26.000Z</Time>
            <Position>
              <LatitudeDegrees>42.7860857360064983367919921875</LatitudeDegrees>
              <LongitudeDegrees>-0.133566968142986297607421875</LongitudeDegrees>
            </Position>
            <AltitudeMeters>2535.800048828125</AltitudeMeters>
            <DistanceMeters>18986.138926706</DistanceMeters>
          </Trackpoint>
          <Trackpoint>
            <Time>2022-07-09T14:56:28.000Z</Time>
            <Position>
              <LatitudeDegrees>42.786108367145061492919921875</LatitudeDegrees>
              <LongitudeDegrees>-0.13354693539440631866455078125</LongitudeDegrees>
            </Position>
            <AltitudeMeters>2535.199951171875</AltitudeMeters>
            <DistanceMeters>18989.140928753</DistanceMeters>
          </Trackpoint>
          <Trackpoint>
            <Time>2022-07-09T14:56:29.000Z</Time>
            <Position>
              <LatitudeDegrees>42.78612236492335796356201171875</LatitudeDegrees>
              <LongitudeDegrees>-0.13353486545383930206298828125</LongitudeDegrees>
            </Position>
            <AltitudeMeters>2535</AltitudeMeters>
            <DistanceMeters>18990.98356511</DistanceMeters>
          </Trackpoint>
          <Trackpoint>
            <Time>2022-07-09T14:56:31.000Z</Time>
            <Position>
              <LatitudeDegrees>42.7861460857093334197998046875</LatitudeDegrees>
              <LongitudeDegrees>-0.1335203647613525390625</LongitudeDegrees>
            </Position>
            <AltitudeMeters>2533.800048828125</AltitudeMeters>
            <DistanceMeters>18993.876812569</DistanceMeters>
          </Trackpoint>
          <Trackpoint>
            <Time>2022-07-09T14:56:32.000Z</Time>
            <Position>
              <LatitudeDegrees>42.786155641078948974609375</LatitudeDegrees>
              <LongitudeDegrees>-0.13351659290492534637451171875</LongitudeDegrees>
            </Position>
            <AltitudeMeters>2533.39990234375</AltitudeMeters>
            <DistanceMeters>18994.98500497</DistanceMeters>
          </Trackpoint>
          <Trackpoint>
            <Time>2022-07-09T14:56:35.000Z</Time>
            <Position>
              <LatitudeDegrees>42.7861873246729373931884765625</LatitudeDegrees>
              <LongitudeDegrees>-0.13351273722946643829345703125</LongitudeDegrees>
            </Position>
            <AltitudeMeters>2532.60009765625</AltitudeMeters>
            <DistanceMeters>18998.526583175</DistanceMeters>
          </Trackpoint>
          <Trackpoint>
            <Time>2022-07-09T14:56:39.000Z</Time>
            <Position>
              <LatitudeDegrees>42.7862294018268585205078125</LatitudeDegrees>
              <LongitudeDegrees>-0.13348423875868320465087890625</LongitudeDegrees>
            </Position>
            <AltitudeMeters>2533.199951171875</AltitudeMeters>
            <DistanceMeters>19003.757370078</DistanceMeters>
          </Trackpoint>
          <Trackpoint>
            <Time>2022-07-09T14:56:45.000Z</Time>
            <Position>
              <LatitudeDegrees>42.78629846870899200439453125</LatitudeDegrees>
              <LongitudeDegrees>-0.13343780301511287689208984375</LongitudeDegrees>
            </Position>
            <AltitudeMeters>2532</AltitudeMeters>
            <DistanceMeters>19012.328758644</DistanceMeters>
          </Trackpoint>
          <Trackpoint>
            <Time>2022-07-09T14:56:46.000Z</Time>
            <Position>
              <LatitudeDegrees>42.78631498105823993682861328125</LatitudeDegrees>
              <LongitudeDegrees>-0.1334303431212902069091796875</LongitudeDegrees>
            </Position>
            <AltitudeMeters>2531.199951171875</AltitudeMeters>
            <DistanceMeters>19014.262266246</DistanceMeters>
          </Trackpoint>
          <Trackpoint>
            <Time>2022-07-09T14:56:52.000Z</Time>
            <Position>
              <LatitudeDegrees>42.78640282340347766876220703125</LatitudeDegrees>
              <LongitudeDegrees>-0.13338751159608364105224609375</LongitudeDegrees>
            </Position>
            <AltitudeMeters>2530.800048828125</AltitudeMeters>
            <DistanceMeters>19024.646734113</DistanceMeters>
          </Trackpoint>
          <Trackpoint>
            <Time>2022-07-09T14:56:53.000Z</Time>
            <Position>
              <LatitudeDegrees>42.78641380369663238525390625</LatitudeDegrees>
              <LongitudeDegrees>-0.1333822309970855712890625</LongitudeDegrees>
            </Position>
            <AltitudeMeters>2531</AltitudeMeters>
            <DistanceMeters>19025.94272571</DistanceMeters>
          </Trackpoint>
          <Trackpoint>
            <Time>2022-07-09T14:56:59.000Z</Time>
            <Position>
              <LatitudeDegrees>42.7864713035523891448974609375</LatitudeDegrees>
              <LongitudeDegrees>-0.13336412608623504638671875</LongitudeDegrees>
            </Position>
            <AltitudeMeters>2530.800048828125</AltitudeMeters>
            <DistanceMeters>19032.51126476</DistanceMeters>
          </Trackpoint>
          <Trackpoint>
            <Time>2022-07-09T14:57:02.000Z</Time>
            <Position>
              <LatitudeDegrees>42.786488570272922515869140625</LatitudeDegrees>
              <LongitudeDegrees>-0.133350379765033721923828125</LongitudeDegrees>
            </Position>
            <AltitudeMeters>2530.60009765625</AltitudeMeters>
            <DistanceMeters>19034.73578311</DistanceMeters>
          </Trackpoint>
          <Trackpoint>
            <Time>2022-07-09T14:57:04.000Z</Time>
            <Position>
              <LatitudeDegrees>42.78650323860347270965576171875</LatitudeDegrees>
              <LongitudeDegrees>-0.13335532508790493011474609375</LongitudeDegrees>
            </Position>
            <AltitudeMeters>2530.800048828125</AltitudeMeters>
            <DistanceMeters>19036.414289545</DistanceMeters>
          </Trackpoint>
          <Trackpoint>
            <Time>2022-07-09T14:57:06.000Z</Time>
            <Position>
              <LatitudeDegrees>42.78651815839111804962158203125</LatitudeDegrees>
              <LongitudeDegrees>-0.1333495415747165679931640625</LongitudeDegrees>
            </Position>
            <AltitudeMeters>2530.800048828125</AltitudeMeters>
            <DistanceMeters>19038.140535537</DistanceMeters>
          </Trackpoint>
          <Trackpoint>
            <Time>2022-07-09T14:57:07.000Z</Time>
            <Position>
              <LatitudeDegrees>42.78652419336140155792236328125</LatitudeDegrees>
              <LongitudeDegrees>-0.13334794901311397552490234375</LongitudeDegrees>
            </Position>
            <AltitudeMeters>2530.60009765625</AltitudeMeters>
            <DistanceMeters>19038.83234046</DistanceMeters>
          </Trackpoint>
          <Trackpoint>
            <Time>2022-07-09T14:57:09.000Z</Time>
            <Position>
              <LatitudeDegrees>42.786540202796459197998046875</LatitudeDegrees>
              <LongitudeDegrees>-0.13334945775568485260009765625</LongitudeDegrees>
            </Position>
            <AltitudeMeters>2530.199951171875</AltitudeMeters>
            <DistanceMeters>19040.620257422</DistanceMeters>
          </Trackpoint>
          <Trackpoint>
            <Time>2022-07-09T14:57:10.000Z</Time>
            <Position>
              <LatitudeDegrees>42.7865497581660747528076171875</LatitudeDegrees>
              <LongitudeDegrees>-0.13334895484149456024169921875</LongitudeDegrees>
            </Position>
            <AltitudeMeters>2530.199951171875</AltitudeMeters>
            <DistanceMeters>19041.682688387</DistanceMeters>
          </Trackpoint>
          <Trackpoint>
            <Time>2022-07-09T14:57:12.000Z</Time>
            <Position>
              <LatitudeDegrees>42.78657766990363597869873046875</LatitudeDegrees>
              <LongitudeDegrees>-0.133340656757354736328125</LongitudeDegrees>
            </Position>
            <AltitudeMeters>2529</AltitudeMeters>
            <DistanceMeters>19044.862890522</DistanceMeters>
          </Trackpoint>
          <Trackpoint>
            <Time>2022-07-09T14:57:14.000Z</Time>
            <Position>
              <LatitudeDegrees>42.78659887611865997314453125</LatitudeDegrees>
              <LongitudeDegrees>-0.133332945406436920166015625</LongitudeDegrees>
            </Position>
            <AltitudeMeters>2528.60009765625</AltitudeMeters>
            <DistanceMeters>19047.304171016</DistanceMeters>
          </Trackpoint>
          <Trackpoint>
            <Time>2022-07-09T14:57:16.000Z</Time>
            <Position>
              <LatitudeDegrees>42.78661354444921016693115234375</LatitudeDegrees>
              <LongitudeDegrees>-0.133327580988407135009765625</LongitudeDegrees>
            </Position>
            <AltitudeMeters>2528</AltitudeMeters>
            <DistanceMeters>19048.99340284</DistanceMeters>
          </Trackpoint>
          <Trackpoint>
            <Time>2022-07-09T14:57:17.000Z</Time>
            <Position>
              <LatitudeDegrees>42.78661890886723995208740234375</LatitudeDegrees>
              <LongitudeDegrees>-0.133324228227138519287109375</LongitudeDegrees>
            </Position>
            <AltitudeMeters>2527.800048828125</AltitudeMeters>
            <DistanceMeters>19049.65176723</DistanceMeters>
          </Trackpoint>
          <Trackpoint>
            <Time>2022-07-09T14:57:20.000Z</Time>
            <Position>
              <LatitudeDegrees>42.78663617558777332305908203125</LatitudeDegrees>
              <LongitudeDegrees>-0.13332263566553592681884765625</LongitudeDegrees>
            </Position>
            <AltitudeMeters>2527.39990234375</AltitudeMeters>
            <DistanceMeters>19051.578256632</DistanceMeters>
          </Trackpoint>
          <Trackpoint>
            <Time>2022-07-09T14:57:21.000Z</Time>
            <Position>
              <LatitudeDegrees>42.78664472512900829315185546875</LatitudeDegrees>
              <LongitudeDegrees>-0.13332079164683818817138671875</LongitudeDegrees>
            </Position>
            <AltitudeMeters>2527</AltitudeMeters>
            <DistanceMeters>19052.537979404</DistanceMeters>
          </Trackpoint>
          <Trackpoint>
            <Time>2022-07-09T14:57:23.000Z</Time>
            <Position>
              <LatitudeDegrees>42.78666903264820575714111328125</LatitudeDegrees>
              <LongitudeDegrees>-0.1333237253129482269287109375</LongitudeDegrees>
            </Position>
            <AltitudeMeters>2526.60009765625</AltitudeMeters>
            <DistanceMeters>19055.252485321</DistanceMeters>
          </Trackpoint>
          <Trackpoint>
            <Time>2022-07-09T14:57:27.000Z</Time>
            <Position>
              <LatitudeDegrees>42.78672418557107448577880859375</LatitudeDegrees>
              <LongitudeDegrees>-0.13332565315067768096923828125</LongitudeDegrees>
            </Position>
            <AltitudeMeters>2526</AltitudeMeters>
            <DistanceMeters>19061.393299537</DistanceMeters>
          </Trackpoint>
          <Trackpoint>
            <Time>2022-07-09T14:57:31.000Z</Time>
            <Position>
              <LatitudeDegrees>42.7867723815143108367919921875</LatitudeDegrees>
              <LongitudeDegrees>-0.13332112692296504974365234375</LongitudeDegrees>
            </Position>
            <AltitudeMeters>2525.60009765625</AltitudeMeters>
            <DistanceMeters>19066.770501855</DistanceMeters>
          </Trackpoint>
          <Trackpoint>
            <Time>2022-07-09T14:57:33.000Z</Time>
            <Position>
              <LatitudeDegrees>42.7867941744625568389892578125</LatitudeDegrees>
              <LongitudeDegrees>-0.133318863809108734130859375</LongitudeDegrees>
            </Position>
            <AltitudeMeters>2525.60009765625</AltitudeMeters>
            <DistanceMeters>19069.204373287</DistanceMeters>
          </Trackpoint>
          <Trackpoint>
            <Time>2022-07-09T14:57:39.000Z</Time>
            <Position>
              <LatitudeDegrees>42.7868451364338397979736328125</LatitudeDegrees>
              <LongitudeDegrees>-0.13331693597137928009033203125</LongitudeDegrees>
            </Position>
            <AltitudeMeters>2524.60009765625</AltitudeMeters>
            <DistanceMeters>19074.878988041</DistanceMeters>
          </Trackpoint>
          <Trackpoint>
            <Time>2022-07-09T14:57:41.000Z</Time>
            <Position>
              <LatitudeDegrees>42.78686248697340488433837890625</LatitudeDegrees>
              <LongitudeDegrees>-0.133312158286571502685546875</LongitudeDegrees>
            </Position>
            <AltitudeMeters>2523.800048828125</AltitudeMeters>
            <DistanceMeters>19076.84950393</DistanceMeters>
          </Trackpoint>
          <Trackpoint>
            <Time>2022-07-09T14:57:45.000Z</Time>
            <Position>
              <LatitudeDegrees>42.78690674342215061187744140625</LatitudeDegrees>
              <LongitudeDegrees>-0.1333173550665378570556640625</LongitudeDegrees>
            </Position>
            <AltitudeMeters>2523.60009765625</AltitudeMeters>
            <DistanceMeters>19081.793633473</DistanceMeters>
          </Trackpoint>
          <Trackpoint>
            <Time>2022-07-09T14:57:49.000Z</Time>
            <Position>
              <LatitudeDegrees>42.7869547717273235321044921875</LatitudeDegrees>
              <LongitudeDegrees>-0.13333202339708805084228515625</LongitudeDegrees>
            </Position>
            <AltitudeMeters>2523.60009765625</AltitudeMeters>
            <DistanceMeters>19087.272317083</DistanceMeters>
          </Trackpoint>
          <Trackpoint>
            <Time>2022-07-09T14:57:52.000Z</Time>
            <Position>
              <LatitudeDegrees>42.78698704205453395843505859375</LatitudeDegrees>
              <LongitudeDegrees>-0.1333461888134479522705078125</LongitudeDegrees>
            </Position>
            <AltitudeMeters>2522.800048828125</AltitudeMeters>
            <DistanceMeters>19091.044769929</DistanceMeters>
          </Trackpoint>
          <Trackpoint>
            <Time>2022-07-09T14:57:53.000Z</Time>
            <Position>
              <LatitudeDegrees>42.786998189985752105712890625</LatitudeDegrees>
              <LongitudeDegrees>-0.1333458535373210906982421875</LongitudeDegrees>
            </Position>
            <AltitudeMeters>2522.60009765625</AltitudeMeters>
            <DistanceMeters>19092.283766699</DistanceMeters>
          </Trackpoint>
          <Trackpoint>
            <Time>2022-07-09T14:57:56.000Z</Time>
            <Position>
              <LatitudeDegrees>42.78703071177005767822265625</LatitudeDegrees>
              <LongitudeDegrees>-0.13334409333765506744384765625</LongitudeDegrees>
            </Position>
            <AltitudeMeters>2522.199951171875</AltitudeMeters>
            <DistanceMeters>19095.904770841</DistanceMeters>
          </Trackpoint>
          <Trackpoint>
            <Time>2022-07-09T14:57:58.000Z</Time>
            <Position>
              <LatitudeDegrees>42.78705342672765254974365234375</LatitudeDegrees>
              <LongitudeDegrees>-0.133341662585735321044921875</LongitudeDegrees>
            </Position>
            <AltitudeMeters>2522.199951171875</AltitudeMeters>
            <DistanceMeters>19098.440399841</DistanceMeters>
          </Trackpoint>
          <Trackpoint>
            <Time>2022-07-09T14:57:59.000Z</Time>
            <Position>
              <LatitudeDegrees>42.78706289827823638916015625</LatitudeDegrees>
              <LongitudeDegrees>-0.13334023766219615936279296875</LongitudeDegrees>
            </Position>
            <AltitudeMeters>2522.199951171875</AltitudeMeters>
            <DistanceMeters>19099.498572549</DistanceMeters>
          </Trackpoint>
          <Trackpoint>
            <Time>2022-07-09T14:58:00.000Z</Time>
            <Position>
              <LatitudeDegrees>42.78707362711429595947265625</LatitudeDegrees>
              <LongitudeDegrees>-0.13333856128156185150146484375</LongitudeDegrees>
            </Position>
            <AltitudeMeters>2522</AltitudeMeters>
            <DistanceMeters>19100.700575973</DistanceMeters>
          </Trackpoint>
          <Trackpoint>
            <Time>2022-07-09T14:58:04.000Z</Time>
            <Position>
              <LatitudeDegrees>42.7871277742087841033935546875</LatitudeDegrees>
              <LongitudeDegrees>-0.13331727124750614166259765625</LongitudeDegrees>
            </Position>
            <AltitudeMeters>2521.60009765625</AltitudeMeters>
            <DistanceMeters>19106.973058979</DistanceMeters>
          </Trackpoint>
          <Trackpoint>
            <Time>2022-07-09T14:58:05.000Z</Time>
            <Position>
              <LatitudeDegrees>42.7871405147016048431396484375</LatitudeDegrees>
              <LongitudeDegrees>-0.133315511047840118408203125</LongitudeDegrees>
            </Position>
            <AltitudeMeters>2521</AltitudeMeters>
            <DistanceMeters>19108.398459695</DistanceMeters>
          </Trackpoint>
          <Trackpoint>
            <Time>2022-07-09T14:58:07.000Z</Time>
            <Position>
              <LatitudeDegrees>42.7871633134782314300537109375</LatitudeDegrees>
              <LongitudeDegrees>-0.13331106863915920257568359375</LongitudeDegrees>
            </Position>
            <AltitudeMeters>2520.39990234375</AltitudeMeters>
            <DistanceMeters>19110.964180983</DistanceMeters>
          </Trackpoint>
          <Trackpoint>
            <Time>2022-07-09T14:58:10.000Z</Time>
            <Position>
              <LatitudeDegrees>42.7871985174715518951416015625</LatitudeDegrees>
              <LongitudeDegrees>-0.13330268673598766326904296875</LongitudeDegrees>
            </Position>
            <AltitudeMeters>2519.60009765625</AltitudeMeters>
            <DistanceMeters>19114.941704575</DistanceMeters>
          </Trackpoint>
          <Trackpoint>
            <Time>2022-07-09T14:58:12.000Z</Time>
            <Position>
              <LatitudeDegrees>42.78722559101879596710205078125</LatitudeDegrees>
              <LongitudeDegrees>-0.13328500092029571533203125</LongitudeDegrees>
            </Position>
            <AltitudeMeters>2519.199951171875</AltitudeMeters>
            <DistanceMeters>19118.282538975</DistanceMeters>
          </Trackpoint>
          <Trackpoint>
            <Time>2022-07-09T14:58:14.000Z</Time>
            <Position>
              <LatitudeDegrees>42.7872508205473423004150390625</LatitudeDegrees>
              <LongitudeDegrees>-0.133263878524303436279296875</LongitudeDegrees>
            </Position>
            <AltitudeMeters>2518.60009765625</AltitudeMeters>
            <DistanceMeters>19121.579842728</DistanceMeters>
          </Trackpoint>
          <Trackpoint>
            <Time>2022-07-09T14:58:17.000Z</Time>
            <Position>
              <LatitudeDegrees>42.78727772645652294158935546875</LatitudeDegrees>
              <LongitudeDegrees>-0.1332362182438373565673828125</LongitudeDegrees>
            </Position>
            <AltitudeMeters>2517.60009765625</AltitudeMeters>
            <DistanceMeters>19125.333097216</DistanceMeters>
          </Trackpoint>
          <Trackpoint>
            <Time>2022-07-09T14:58:18.000Z</Time>
            <Position>
              <LatitudeDegrees>42.78728644363582134246826171875</LatitudeDegrees>
              <LongitudeDegrees>-0.13322389684617519378662109375</LongitudeDegrees>
            </Position>
            <AltitudeMeters>2517.60009765625</AltitudeMeters>
            <DistanceMeters>19126.729698989</DistanceMeters>
          </Trackpoint>
          <Trackpoint>
            <Time>2022-07-09T14:58:24.000Z</Time>
            <Position>
              <LatitudeDegrees>42.7873400039970874786376953125</LatitudeDegrees>
              <LongitudeDegrees>-0.13319724239408969879150390625</LongitudeDegrees>
            </Position>
            <AltitudeMeters>2516.800048828125</AltitudeMeters>
            <DistanceMeters>19133.075890046</DistanceMeters>
          </Trackpoint>
          <Trackpoint>
            <Time>2022-07-09T14:58:25.000Z</Time>
            <Position>
              <LatitudeDegrees>42.78735031373798847198486328125</LatitudeDegrees>
              <LongitudeDegrees>-0.13319975696504116058349609375</LongitudeDegrees>
            </Position>
            <AltitudeMeters>2516.800048828125</AltitudeMeters>
            <DistanceMeters>19134.243597862</DistanceMeters>
          </Trackpoint>
          <Trackpoint>
            <Time>2022-07-09T14:58:27.000Z</Time>
            <Position>
              <LatitudeDegrees>42.78736975975334644317626953125</LatitudeDegrees>
              <LongitudeDegrees>-0.1331919617950916290283203125</LongitudeDegrees>
            </Position>
            <AltitudeMeters>2516.39990234375</AltitudeMeters>
            <DistanceMeters>19136.50035729</DistanceMeters>
          </Trackpoint>
          <Trackpoint>
            <Time>2022-07-09T14:58:33.000Z</Time>
            <Position>
              <LatitudeDegrees>42.7874288521707057952880859375</LatitudeDegrees>
              <LongitudeDegrees>-0.13317410834133625030517578125</LongitudeDegrees>
            </Position>
            <AltitudeMeters>2515.60009765625</AltitudeMeters>
            <DistanceMeters>19143.237208498</DistanceMeters>
          </Trackpoint>
          <Trackpoint>
            <Time>2022-07-09T14:58:35.000Z</Time>
            <Position>
              <LatitudeDegrees>42.78744871728122234344482421875</LatitudeDegrees>
              <LongitudeDegrees>-0.13316019438207149505615234375</LongitudeDegrees>
            </Position>
            <AltitudeMeters>2515.39990234375</AltitudeMeters>
            <DistanceMeters>19145.722479568</DistanceMeters>
          </Trackpoint>
          <Trackpoint>
            <Time>2022-07-09T14:58:39.000Z</Time>
            <Position>
              <LatitudeDegrees>42.78748962096869945526123046875</LatitudeDegrees>
              <LongitudeDegrees>-0.1331366412341594696044921875</LongitudeDegrees>
            </Position>
            <AltitudeMeters>2515.39990234375</AltitudeMeters>
            <DistanceMeters>19150.665695814</DistanceMeters>
          </Trackpoint>
          <Trackpoint>
            <Time>2022-07-09T14:58:40.000Z</Time>
            <Position>
              <LatitudeDegrees>42.7875006012618541717529296875</LatitudeDegrees>
              <LongitudeDegrees>-0.13313203118741512298583984375</LongitudeDegrees>
            </Position>
            <AltitudeMeters>2515.39990234375</AltitudeMeters>
            <DistanceMeters>19151.947676279</DistanceMeters>
          </Trackpoint>
          <Trackpoint>
            <Time>2022-07-09T14:58:41.000Z</Time>
            <Position>
              <LatitudeDegrees>42.78751007281243801116943359375</LatitudeDegrees>
              <LongitudeDegrees>-0.13313069008290767669677734375</LongitudeDegrees>
            </Position>
            <AltitudeMeters>2515.199951171875</AltitudeMeters>
            <DistanceMeters>19153.005848987</DistanceMeters>
          </Trackpoint>
          <Trackpoint>
            <Time>2022-07-09T14:58:42.000Z</Time>
            <Position>
              <LatitudeDegrees>42.78751862235367298126220703125</LatitudeDegrees>
              <LongitudeDegrees>-0.13313488103449344635009765625</LongitudeDegrees>
            </Position>
            <AltitudeMeters>2515</AltitudeMeters>
            <DistanceMeters>19154.020456652</DistanceMeters>
          </Trackpoint>
          <Trackpoint>
            <Time>2022-07-09T14:58:46.000Z</Time>
            <Position>
              <LatitudeDegrees>42.78755382634699344635009765625</LatitudeDegrees>
              <LongitudeDegrees>-0.1331433467566967010498046875</LongitudeDegrees>
            </Position>
            <AltitudeMeters>2514.39990234375</AltitudeMeters>
            <DistanceMeters>19158.000249873</DistanceMeters>
          </Trackpoint>
          <Trackpoint>
            <Time>2022-07-09T14:58:47.000Z</Time>
            <Position>
              <LatitudeDegrees>42.78756237588822841644287109375</LatitudeDegrees>
              <LongitudeDegrees>-0.13314929790794849395751953125</LongitudeDegrees>
            </Position>
            <AltitudeMeters>2514</AltitudeMeters>
            <DistanceMeters>19159.066922096</DistanceMeters>
          </Trackpoint>
          <Trackpoint>
            <Time>2022-07-09T14:58:49.000Z</Time>
            <Position>
              <LatitudeDegrees>42.787576876580715179443359375</LatitudeDegrees>
              <LongitudeDegrees>-0.13317125849425792694091796875</LongitudeDegrees>
            </Position>
            <AltitudeMeters>2513.800048828125</AltitudeMeters>
            <DistanceMeters>19161.482171438</DistanceMeters>
          </Trackpoint>
          <Trackpoint>
            <Time>2022-07-09T14:58:52.000Z</Time>
            <Position>
              <LatitudeDegrees>42.78759892098605632781982421875</LatitudeDegrees>
              <LongitudeDegrees>-0.1332006789743900299072265625</LongitudeDegrees>
            </Position>
            <AltitudeMeters>2513.199951171875</AltitudeMeters>
            <DistanceMeters>19164.916305948</DistanceMeters>
          </Trackpoint>
          <Trackpoint>
            <Time>2022-07-09T14:58:53.000Z</Time>
            <Position>
              <LatitudeDegrees>42.7876085601747035980224609375</LatitudeDegrees>
              <LongitudeDegrees>-0.13320545665919780731201171875</LongitudeDegrees>
            </Position>
            <AltitudeMeters>2513</AltitudeMeters>
            <DistanceMeters>19166.060579117</DistanceMeters>
          </Trackpoint>
          <Trackpoint>
            <Time>2022-07-09T14:58:56.000Z</Time>
            <Position>
              <LatitudeDegrees>42.787642590701580047607421875</LatitudeDegrees>
              <LongitudeDegrees>-0.133194811642169952392578125</LongitudeDegrees>
            </Position>
            <AltitudeMeters>2512.60009765625</AltitudeMeters>
            <DistanceMeters>19169.946230647</DistanceMeters>
          </Trackpoint>
          <Trackpoint>
            <Time>2022-07-09T14:58:58.000Z</Time>
            <Position>
              <LatitudeDegrees>42.78766907751560211181640625</LatitudeDegrees>
              <LongitudeDegrees>-0.13316430151462554931640625</LongitudeDegrees>
            </Position>
            <AltitudeMeters>2512</AltitudeMeters>
            <DistanceMeters>19173.806234032</DistanceMeters>
          </Trackpoint>
          <Trackpoint>
            <Time>2022-07-09T14:59:01.000Z</Time>
            <Position>
              <LatitudeDegrees>42.78767921961843967437744140625</LatitudeDegrees>
              <LongitudeDegrees>-0.13312465511262416839599609375</LongitudeDegrees>
            </Position>
            <AltitudeMeters>2510.800048828125</AltitudeMeters>
            <DistanceMeters>19177.235105498</DistanceMeters>
          </Trackpoint>
          <Trackpoint>
            <Time>2022-07-09T14:59:03.000Z</Time>
            <Position>
              <LatitudeDegrees>42.7876880206167697906494140625</LatitudeDegrees>
              <LongitudeDegrees>-0.13312063179910182952880859375</LongitudeDegrees>
            </Position>
            <AltitudeMeters>2510.60009765625</AltitudeMeters>
            <DistanceMeters>19178.267359837</DistanceMeters>
          </Trackpoint>
          <Trackpoint>
            <Time>2022-07-09T14:59:04.000Z</Time>
            <Position>
              <LatitudeDegrees>42.7876964025199413299560546875</LatitudeDegrees>
              <LongitudeDegrees>-0.13312063179910182952880859375</LongitudeDegrees>
            </Position>
            <AltitudeMeters>2510.60009765625</AltitudeMeters>
            <DistanceMeters>19179.198427686</DistanceMeters>
          </Trackpoint>
          <Trackpoint>
            <Time>2022-07-09T14:59:08.000Z</Time>
            <Position>
              <LatitudeDegrees>42.7877272479236125946044921875</LatitudeDegrees>
              <LongitudeDegrees>-0.133112333714962005615234375</LongitudeDegrees>
            </Position>
            <AltitudeMeters>2509.60009765625</AltitudeMeters>
            <DistanceMeters>19182.697682415</DistanceMeters>
          </Trackpoint>
          <Trackpoint>
            <Time>2022-07-09T14:59:11.000Z</Time>
            <Position>
              <LatitudeDegrees>42.78774610720574855804443359375</LatitudeDegrees>
              <LongitudeDegrees>-0.13310822658240795135498046875</LongitudeDegrees>
            </Position>
            <AltitudeMeters>2508.60009765625</AltitudeMeters>
            <DistanceMeters>19184.822544345</DistanceMeters>
          </Trackpoint>
          <Trackpoint>
            <Time>2022-07-09T14:59:12.000Z</Time>
            <Position>
              <LatitudeDegrees>42.78775214217603206634521484375</LatitudeDegrees>
              <LongitudeDegrees>-0.13310688547790050506591796875</LongitudeDegrees>
            </Position>
            <AltitudeMeters>2508.39990234375</AltitudeMeters>
            <DistanceMeters>19185.507791727</DistanceMeters>
          </Trackpoint>
          <Trackpoint>
            <Time>2022-07-09T14:59:14.000Z</Time>
            <Position>
              <LatitudeDegrees>42.78776689432561397552490234375</LatitudeDegrees>
              <LongitudeDegrees>-0.1331182010471820831298828125</LongitudeDegrees>
            </Position>
            <AltitudeMeters>2507.800048828125</AltitudeMeters>
            <DistanceMeters>19187.39401815</DistanceMeters>
          </Trackpoint>
          <Trackpoint>
            <Time>2022-07-09T14:59:16.000Z</Time>
            <Position>
              <LatitudeDegrees>42.78778064064681529998779296875</LatitudeDegrees>
              <LongitudeDegrees>-0.13313638977706432342529296875</LongitudeDegrees>
            </Position>
            <AltitudeMeters>2507.39990234375</AltitudeMeters>
            <DistanceMeters>19189.527362597</DistanceMeters>
          </Trackpoint>
          <Trackpoint>
            <Time>2022-07-09T14:59:17.000Z</Time>
            <Position>
              <LatitudeDegrees>42.78778717853128910064697265625</LatitudeDegrees>
              <LongitudeDegrees>-0.13314820826053619384765625</LongitudeDegrees>
            </Position>
            <AltitudeMeters>2507</AltitudeMeters>
            <DistanceMeters>19190.736855211</DistanceMeters>
          </Trackpoint>
          <Trackpoint>
            <Time>2022-07-09T14:59:18.000Z</Time>
            <Position>
              <LatitudeDegrees>42.787791788578033447265625</LatitudeDegrees>
              <LongitudeDegrees>-0.1331591047346591949462890625</LongitudeDegrees>
            </Position>
            <AltitudeMeters>2506.800048828125</AltitudeMeters>
            <DistanceMeters>19191.764726285</DistanceMeters>
          </Trackpoint>
          <Trackpoint>
            <Time>2022-07-09T14:59:23.000Z</Time>
            <Position>
              <LatitudeDegrees>42.78782104142010211944580078125</LatitudeDegrees>
              <LongitudeDegrees>-0.13320243917405605316162109375</LongitudeDegrees>
            </Position>
            <AltitudeMeters>2506.199951171875</AltitudeMeters>
            <DistanceMeters>19196.57273998</DistanceMeters>
          </Trackpoint>
          <Trackpoint>
            <Time>2022-07-09T14:59:25.000Z</Time>
            <Position>
              <LatitudeDegrees>42.7878217957913875579833984375</LatitudeDegrees>
              <LongitudeDegrees>-0.1332107372581958770751953125</LongitudeDegrees>
            </Position>
            <AltitudeMeters>2506</AltitudeMeters>
            <DistanceMeters>19197.257987363</DistanceMeters>
          </Trackpoint>
          <Trackpoint>
            <Time>2022-07-09T14:59:26.000Z</Time>
            <Position>
              <LatitudeDegrees>42.787820957601070404052734375</LatitudeDegrees>
              <LongitudeDegrees>-0.13321601785719394683837890625</LongitudeDegrees>
            </Position>
            <AltitudeMeters>2505.800048828125</AltitudeMeters>
            <DistanceMeters>19197.703702161</DistanceMeters>
          </Trackpoint>
          <Trackpoint>
            <Time>2022-07-09T14:59:29.000Z</Time>
            <Position>
              <LatitudeDegrees>42.78781986795365810394287109375</LatitudeDegrees>
              <LongitudeDegrees>-0.13324887491762638092041015625</LongitudeDegrees>
            </Position>
            <AltitudeMeters>2505.199951171875</AltitudeMeters>
            <DistanceMeters>19200.38978315</DistanceMeters>
          </Trackpoint>
          <Trackpoint>
            <Time>2022-07-09T14:59:30.000Z</Time>
            <Position>
              <LatitudeDegrees>42.7878298424184322357177734375</LatitudeDegrees>
              <LongitudeDegrees>-0.13326010666787624359130859375</LongitudeDegrees>
            </Position>
            <AltitudeMeters>2504.39990234375</AltitudeMeters>
            <DistanceMeters>19201.830934628</DistanceMeters>
          </Trackpoint>
          <Trackpoint>
            <Time>2022-07-09T14:59:31.000Z</Time>
            <Position>
              <LatitudeDegrees>42.7878432534635066986083984375</LatitudeDegrees>
              <LongitudeDegrees>-0.13327117078006267547607421875</LongitudeDegrees>
            </Position>
            <AltitudeMeters>2504.199951171875</AltitudeMeters>
            <DistanceMeters>19203.572803075</DistanceMeters>
          </Trackpoint>
          <Trackpoint>
            <Time>2022-07-09T14:59:33.000Z</Time>
            <Position>
              <LatitudeDegrees>42.78787351213395595550537109375</LatitudeDegrees>
              <LongitudeDegrees>-0.13327251188457012176513671875</LongitudeDegrees>
            </Position>
            <AltitudeMeters>2503.800048828125</AltitudeMeters>
            <DistanceMeters>19206.940558412</DistanceMeters>
          </Trackpoint>
          <Trackpoint>
            <Time>2022-07-09T14:59:35.000Z</Time>
            <Position>
              <LatitudeDegrees>42.787904776632785797119140625</LatitudeDegrees>
              <LongitudeDegrees>-0.13325558044016361236572265625</LongitudeDegrees>
            </Position>
            <AltitudeMeters>2503.39990234375</AltitudeMeters>
            <DistanceMeters>19210.685382669</DistanceMeters>
          </Trackpoint>
          <Trackpoint>
            <Time>2022-07-09T14:59:36.000Z</Time>
            <Position>
              <LatitudeDegrees>42.78791944496333599090576171875</LatitudeDegrees>
              <LongitudeDegrees>-0.13323781080543994903564453125</LongitudeDegrees>
            </Position>
            <AltitudeMeters>2502.60009765625</AltitudeMeters>
            <DistanceMeters>19212.868930325</DistanceMeters>
          </Trackpoint>
          <Trackpoint>
            <Time>2022-07-09T14:59:39.000Z</Time>
            <Position>
              <LatitudeDegrees>42.78794308193027973175048828125</LatitudeDegrees>
              <LongitudeDegrees>-0.13318131677806377410888671875</LongitudeDegrees>
            </Position>
            <AltitudeMeters>2502.199951171875</AltitudeMeters>
            <DistanceMeters>19218.180235137</DistanceMeters>
          </Trackpoint>
          <Trackpoint>
            <Time>2022-07-09T14:59:42.000Z</Time>
            <Position>
              <LatitudeDegrees>42.78795263729989528656005859375</LatitudeDegrees>
              <LongitudeDegrees>-0.13314326293766498565673828125</LongitudeDegrees>
            </Position>
            <AltitudeMeters>2501.800048828125</AltitudeMeters>
            <DistanceMeters>19221.466566135</DistanceMeters>
          </Trackpoint>
          <Trackpoint>
            <Time>2022-07-09T14:59:45.000Z</Time>
            <Position>
              <LatitudeDegrees>42.78796009719371795654296875</LatitudeDegrees>
              <LongitudeDegrees>-0.1331068016588687896728515625</LongitudeDegrees>
            </Position>
            <AltitudeMeters>2501.60009765625</AltitudeMeters>
            <DistanceMeters>19224.557491705</DistanceMeters>
          </Trackpoint>
          <Trackpoint>
            <Time>2022-07-09T14:59:50.000Z</Time>
            <Position>
              <LatitudeDegrees>42.78799974359571933746337890625</LatitudeDegrees>
              <LongitudeDegrees>-0.13304938562214374542236328125</LongitudeDegrees>
            </Position>
            <AltitudeMeters>2501.199951171875</AltitudeMeters>
            <DistanceMeters>19230.997611355</DistanceMeters>
          </Trackpoint>
          <Trackpoint>
            <Time>2022-07-09T14:59:56.000Z</Time>
            <Position>
              <LatitudeDegrees>42.78805037029087543487548828125</LatitudeDegrees>
              <LongitudeDegrees>-0.13303044252097606658935546875</LongitudeDegrees>
            </Position>
            <AltitudeMeters>2501</AltitudeMeters>
            <DistanceMeters>19236.84078849</DistanceMeters>
          </Trackpoint>
          <Trackpoint>
            <Time>2022-07-09T14:59:58.000Z</Time>
            <Position>
              <LatitudeDegrees>42.788063026964664459228515625</LatitudeDegrees>
              <LongitudeDegrees>-0.133024491369724273681640625</LongitudeDegrees>
            </Position>
            <AltitudeMeters>2500.60009765625</AltitudeMeters>
            <DistanceMeters>19238.331224267</DistanceMeters>
          </Trackpoint>
          <Trackpoint>
            <Time>2022-07-09T14:59:59.000Z</Time>
            <Position>
              <LatitudeDegrees>42.788070738315582275390625</LatitudeDegrees>
              <LongitudeDegrees>-0.13302407227456569671630859375</LongitudeDegrees>
            </Position>
            <AltitudeMeters>2500.60009765625</AltitudeMeters>
            <DistanceMeters>19239.191727764</DistanceMeters>
          </Trackpoint>
          <Trackpoint>
            <Time>2022-07-09T15:00:01.000Z</Time>
            <Position>
              <LatitudeDegrees>42.78808959759771823883056640625</LatitudeDegrees>
              <LongitudeDegrees>-0.1330280117690563201904296875</LongitudeDegrees>
            </Position>
            <AltitudeMeters>2500.199951171875</AltitudeMeters>
            <DistanceMeters>19241.312335712</DistanceMeters>
          </Trackpoint>
          <Trackpoint>
            <Time>2022-07-09T15:00:05.000Z</Time>
            <Position>
              <LatitudeDegrees>42.78812706470489501953125</LatitudeDegrees>
              <LongitudeDegrees>-0.13300546444952487945556640625</LongitudeDegrees>
            </Position>
            <AltitudeMeters>2499.60009765625</AltitudeMeters>
            <DistanceMeters>19245.87064745</DistanceMeters>
          </Trackpoint>
          <Trackpoint>
            <Time>2022-07-09T15:00:06.000Z</Time>
            <Position>
              <LatitudeDegrees>42.78813737444579601287841796875</LatitudeDegrees>
              <LongitudeDegrees>-0.132989622652530670166015625</LongitudeDegrees>
            </Position>
            <AltitudeMeters>2499.199951171875</AltitudeMeters>
            <DistanceMeters>19247.599506988</DistanceMeters>
          </Trackpoint>
          <Trackpoint>
            <Time>2022-07-09T15:00:09.000Z</Time>
            <Position>
              <LatitudeDegrees>42.78815883211791515350341796875</LatitudeDegrees>
              <LongitudeDegrees>-0.132960788905620574951171875</LongitudeDegrees>
            </Position>
            <AltitudeMeters>2498.39990234375</AltitudeMeters>
            <DistanceMeters>19250.953828864</DistanceMeters>
          </Trackpoint>
          <Trackpoint>
            <Time>2022-07-09T15:00:10.000Z</Time>
            <Position>
              <LatitudeDegrees>42.78816469945013523101806640625</LatitudeDegrees>
              <LongitudeDegrees>-0.1329579390585422515869140625</LongitudeDegrees>
            </Position>
            <AltitudeMeters>2498</AltitudeMeters>
            <DistanceMeters>19251.645633787</DistanceMeters>
          </Trackpoint>
          <Trackpoint>
            <Time>2022-07-09T15:00:12.000Z</Time>
            <Position>
              <LatitudeDegrees>42.78817878104746341705322265625</LatitudeDegrees>
              <LongitudeDegrees>-0.13295567594468593597412109375</LongitudeDegrees>
            </Position>
            <AltitudeMeters>2497.60009765625</AltitudeMeters>
            <DistanceMeters>19253.224336133</DistanceMeters>
          </Trackpoint>
          <Trackpoint>
            <Time>2022-07-09T15:00:13.000Z</Time>
            <Position>
              <LatitudeDegrees>42.78818900696933269500732421875</LatitudeDegrees>
              <LongitudeDegrees>-0.1329584419727325439453125</LongitudeDegrees>
            </Position>
            <AltitudeMeters>2497.39990234375</AltitudeMeters>
            <DistanceMeters>19254.380386008</DistanceMeters>
          </Trackpoint>
          <Trackpoint>
            <Time>2022-07-09T15:00:18.000Z</Time>
            <Position>
              <LatitudeDegrees>42.78825103305280208587646484375</LatitudeDegrees>
              <LongitudeDegrees>-0.1329723559319972991943359375</LongitudeDegrees>
            </Position>
            <AltitudeMeters>2496</AltitudeMeters>
            <DistanceMeters>19261.377605062</DistanceMeters>
          </Trackpoint>
          <Trackpoint>
            <Time>2022-07-09T15:00:21.000Z</Time>
            <Position>
              <LatitudeDegrees>42.78828623704612255096435546875</LatitudeDegrees>
              <LongitudeDegrees>-0.1329814083874225616455078125</LongitudeDegrees>
            </Position>
            <AltitudeMeters>2495.60009765625</AltitudeMeters>
            <DistanceMeters>19265.364199415</DistanceMeters>
          </Trackpoint>
          <Trackpoint>
            <Time>2022-07-09T15:00:27.000Z</Time>
            <Position>
              <LatitudeDegrees>42.78835010714828968048095703125</LatitudeDegrees>
              <LongitudeDegrees>-0.13299322687089443206787109375</LongitudeDegrees>
            </Position>
            <AltitudeMeters>2496</AltitudeMeters>
            <DistanceMeters>19272.537929662</DistanceMeters>
          </Trackpoint>
          <Trackpoint>
            <Time>2022-07-09T15:00:29.000Z</Time>
            <Position>
              <LatitudeDegrees>42.7883693017065525054931640625</LatitudeDegrees>
              <LongitudeDegrees>-0.1329928077757358551025390625</LongitudeDegrees>
            </Position>
            <AltitudeMeters>2496.199951171875</AltitudeMeters>
            <DistanceMeters>19274.673389473</DistanceMeters>
          </Trackpoint>
          <Trackpoint>
            <Time>2022-07-09T15:00:31.000Z</Time>
            <Position>
              <LatitudeDegrees>42.78838179074227809906005859375</LatitudeDegrees>
              <LongitudeDegrees>-0.132991634309291839599609375</LongitudeDegrees>
            </Position>
            <AltitudeMeters>2496.199951171875</AltitudeMeters>
            <DistanceMeters>19276.06351046</DistanceMeters>
          </Trackpoint>
          <Trackpoint>
            <Time>2022-07-09T15:00:33.000Z</Time>
            <Position>
              <LatitudeDegrees>42.78838782571256160736083984375</LatitudeDegrees>
              <LongitudeDegrees>-0.1329852640628814697265625</LongitudeDegrees>
            </Position>
            <AltitudeMeters>2496.39990234375</AltitudeMeters>
            <DistanceMeters>19276.913455232</DistanceMeters>
          </Trackpoint>
          <Trackpoint>
            <Time>2022-07-09T15:00:36.000Z</Time>
            <Position>
              <LatitudeDegrees>42.7884075231850147247314453125</LatitudeDegrees>
              <LongitudeDegrees>-0.13298568315804004669189453125</LongitudeDegrees>
            </Position>
            <AltitudeMeters>2496</AltitudeMeters>
            <DistanceMeters>19279.105258296</DistanceMeters>
          </Trackpoint>
          <Trackpoint>
            <Time>2022-07-09T15:00:40.000Z</Time>
            <Position>
              <LatitudeDegrees>42.7884400449693202972412109375</LatitudeDegrees>
              <LongitudeDegrees>-0.133011080324649810791015625</LongitudeDegrees>
            </Position>
            <AltitudeMeters>2495.60009765625</AltitudeMeters>
            <DistanceMeters>19283.276703766</DistanceMeters>
          </Trackpoint>
          <Trackpoint>
            <Time>2022-07-09T15:00:46.000Z</Time>
            <Position>
              <LatitudeDegrees>42.78848371468484401702880859375</LatitudeDegrees>
              <LongitudeDegrees>-0.13304620049893856048583984375</LongitudeDegrees>
            </Position>
            <AltitudeMeters>2495.60009765625</AltitudeMeters>
            <DistanceMeters>19288.921002632</DistanceMeters>
          </Trackpoint>
          <Trackpoint>
            <Time>2022-07-09T15:00:50.000Z</Time>
            <Position>
              <LatitudeDegrees>42.78851690702140331268310546875</LatitudeDegrees>
              <LongitudeDegrees>-0.1330498047173023223876953125</LongitudeDegrees>
            </Position>
            <AltitudeMeters>2495.800048828125</AltitudeMeters>
            <DistanceMeters>19292.627044492</DistanceMeters>
          </Trackpoint>
          <Trackpoint>
            <Time>2022-07-09T15:00:52.000Z</Time>
            <Position>
              <LatitudeDegrees>42.788537107408046722412109375</LatitudeDegrees>
              <LongitudeDegrees>-0.13302407227456569671630859375</LongitudeDegrees>
            </Position>
            <AltitudeMeters>2495.800048828125</AltitudeMeters>
            <DistanceMeters>19295.703327983</DistanceMeters>
          </Trackpoint>
          <Trackpoint>
            <Time>2022-07-09T15:00:54.000Z</Time>
            <Position>
              <LatitudeDegrees>42.788551189005374908447265625</LatitudeDegrees>
              <LongitudeDegrees>-0.1330094039440155029296875</LongitudeDegrees>
            </Position>
            <AltitudeMeters>2495</AltitudeMeters>
            <DistanceMeters>19297.676133839</DistanceMeters>
          </Trackpoint>
          <Trackpoint>
            <Time>2022-07-09T15:00:55.000Z</Time>
            <Position>
              <LatitudeDegrees>42.7885543741285800933837890625</LatitudeDegrees>
              <LongitudeDegrees>-0.13300948776304721832275390625</LongitudeDegrees>
            </Position>
            <AltitudeMeters>2494.39990234375</AltitudeMeters>
            <DistanceMeters>19298.031691247</DistanceMeters>
          </Trackpoint>
          <Trackpoint>
            <Time>2022-07-09T15:00:56.000Z</Time>
            <Position>
              <LatitudeDegrees>42.78855931945145130157470703125</LatitudeDegrees>
              <LongitudeDegrees>-0.13300630263984203338623046875</LongitudeDegrees>
            </Position>
            <AltitudeMeters>2494</AltitudeMeters>
            <DistanceMeters>19298.632692959</DistanceMeters>
          </Trackpoint>
          <Trackpoint>
            <Time>2022-07-09T15:00:57.000Z</Time>
            <Position>
              <LatitudeDegrees>42.78856493532657623291015625</LatitudeDegrees>
              <LongitudeDegrees>-0.13300077058374881744384765625</LongitudeDegrees>
            </Position>
            <AltitudeMeters>2493.800048828125</AltitudeMeters>
            <DistanceMeters>19299.398822823</DistanceMeters>
          </Trackpoint>
          <Trackpoint>
            <Time>2022-07-09T15:01:00.000Z</Time>
            <Position>
              <LatitudeDegrees>42.7885811962187290191650390625</LatitudeDegrees>
              <LongitudeDegrees>-0.132978223264217376708984375</LongitudeDegrees>
            </Position>
            <AltitudeMeters>2493.199951171875</AltitudeMeters>
            <DistanceMeters>19301.980333314</DistanceMeters>
          </Trackpoint>
          <Trackpoint>
            <Time>2022-07-09T15:01:02.000Z</Time>
            <Position>
              <LatitudeDegrees>42.78858496807515621185302734375</LatitudeDegrees>
              <LongitudeDegrees>-0.13297931291162967681884765625</LongitudeDegrees>
            </Position>
            <AltitudeMeters>2493</AltitudeMeters>
            <DistanceMeters>19302.4053057</DistanceMeters>
          </Trackpoint>
          <Trackpoint>
            <Time>2022-07-09T15:01:07.000Z</Time>
            <Position>
              <LatitudeDegrees>42.78860516846179962158203125</LatitudeDegrees>
              <LongitudeDegrees>-0.1330414228141307830810546875</LongitudeDegrees>
            </Position>
            <AltitudeMeters>2492.39990234375</AltitudeMeters>
            <DistanceMeters>19307.954410193</DistanceMeters>
          </Trackpoint>
          <Trackpoint>
            <Time>2022-07-09T15:01:08.000Z</Time>
            <Position>
              <LatitudeDegrees>42.7886085212230682373046875</LatitudeDegrees>
              <LongitudeDegrees>-0.13305542059242725372314453125</LongitudeDegrees>
            </Position>
            <AltitudeMeters>2492.199951171875</AltitudeMeters>
            <DistanceMeters>19309.163902808</DistanceMeters>
          </Trackpoint>
          <Trackpoint>
            <Time>2022-07-09T15:01:10.000Z</Time>
            <Position>
              <LatitudeDegrees>42.78861564584076404571533203125</LatitudeDegrees>
              <LongitudeDegrees>-0.13307469896972179412841796875</LongitudeDegrees>
            </Position>
            <AltitudeMeters>2491.800048828125</AltitudeMeters>
            <DistanceMeters>19310.926385799</DistanceMeters>
          </Trackpoint>
          <Trackpoint>
            <Time>2022-07-09T15:01:15.000Z</Time>
            <Position>
              <LatitudeDegrees>42.7886345051229000091552734375</LatitudeDegrees>
              <LongitudeDegrees>-0.13310990296304225921630859375</LongitudeDegrees>
            </Position>
            <AltitudeMeters>2491</AltitudeMeters>
            <DistanceMeters>19314.487035646</DistanceMeters>
          </Trackpoint>
          <Trackpoint>
            <Time>2022-07-09T15:01:18.000Z</Time>
            <Position>
              <LatitudeDegrees>42.788660489022731781005859375</LatitudeDegrees>
              <LongitudeDegrees>-0.1331322826445102691650390625</LongitudeDegrees>
            </Position>
            <AltitudeMeters>2491</AltitudeMeters>
            <DistanceMeters>19317.907997363</DistanceMeters>
          </Trackpoint>
          <Trackpoint>
            <Time>2022-07-09T15:01:20.000Z</Time>
            <Position>
              <LatitudeDegrees>42.7886760793626308441162109375</LatitudeDegrees>
              <LongitudeDegrees>-0.13313521631062030792236328125</LongitudeDegrees>
            </Position>
            <AltitudeMeters>2490.60009765625</AltitudeMeters>
            <DistanceMeters>19319.657624728</DistanceMeters>
          </Trackpoint>
          <Trackpoint>
            <Time>2022-07-09T15:01:21.000Z</Time>
            <Position>
              <LatitudeDegrees>42.7886861376464366912841796875</LatitudeDegrees>
              <LongitudeDegrees>-0.13313689269125461578369140625</LongitudeDegrees>
            </Position>
            <AltitudeMeters>2490.199951171875</AltitudeMeters>
            <DistanceMeters>19320.781995975</DistanceMeters>
          </Trackpoint>
          <Trackpoint>
            <Time>2022-07-09T15:01:22.000Z</Time>
            <Position>
              <LatitudeDegrees>42.78869594447314739227294921875</LatitudeDegrees>
              <LongitudeDegrees>-0.13313236646354198455810546875</LongitudeDegrees>
            </Position>
            <AltitudeMeters>2489.800048828125</AltitudeMeters>
            <DistanceMeters>19321.930208133</DistanceMeters>
          </Trackpoint>
          <Trackpoint>
            <Time>2022-07-09T15:01:23.000Z</Time>
            <Position>
              <LatitudeDegrees>42.7887050807476043701171875</LatitudeDegrees>
              <LongitudeDegrees>-0.13312540948390960693359375</LongitudeDegrees>
            </Position>
            <AltitudeMeters>2489.199951171875</AltitudeMeters>
            <DistanceMeters>19323.097915949</DistanceMeters>
          </Trackpoint>
          <Trackpoint>
            <Time>2022-07-09T15:01:25.000Z</Time>
            <Position>
              <LatitudeDegrees>42.78871924616396427154541015625</LatitudeDegrees>
              <LongitudeDegrees>-0.1330970786511898040771484375</LongitudeDegrees>
            </Position>
            <AltitudeMeters>2488.800048828125</AltitudeMeters>
            <DistanceMeters>19325.899190022</DistanceMeters>
          </Trackpoint>
          <Trackpoint>
            <Time>2022-07-09T15:01:26.000Z</Time>
            <Position>
              <LatitudeDegrees>42.7887223474681377410888671875</LatitudeDegrees>
              <LongitudeDegrees>-0.1330863498151302337646484375</LongitudeDegrees>
            </Position>
            <AltitudeMeters>2488.60009765625</AltitudeMeters>
            <DistanceMeters>19326.8399065</DistanceMeters>
          </Trackpoint>
          <Trackpoint>
            <Time>2022-07-09T15:01:27.000Z</Time>
            <Position>
              <LatitudeDegrees>42.7887236885726451873779296875</LatitudeDegrees>
              <LongitudeDegrees>-0.13307754881680011749267578125</LongitudeDegrees>
            </Position>
            <AltitudeMeters>2488.60009765625</AltitudeMeters>
            <DistanceMeters>19327.563608395</DistanceMeters>
          </Trackpoint>
          <Trackpoint>
            <Time>2022-07-09T15:01:32.000Z</Time>
            <Position>
              <LatitudeDegrees>42.7887236885726451873779296875</LatitudeDegrees>
              <LongitudeDegrees>-0.1330625452101230621337890625</LongitudeDegrees>
            </Position>
            <AltitudeMeters>2488.199951171875</AltitudeMeters>
            <DistanceMeters>19328.787941965</DistanceMeters>
          </Trackpoint>
          <Trackpoint>
            <Time>2022-07-09T15:01:33.000Z</Time>
            <Position>
              <LatitudeDegrees>42.78872720897197723388671875</LatitudeDegrees>
              <LongitudeDegrees>-0.13306983746588230133056640625</LongitudeDegrees>
            </Position>
            <AltitudeMeters>2488.199951171875</AltitudeMeters>
            <DistanceMeters>19329.49905678</DistanceMeters>
          </Trackpoint>
          <Trackpoint>
            <Time>2022-07-09T15:01:34.000Z</Time>
            <Position>
              <LatitudeDegrees>42.7887327410280704498291015625</LatitudeDegrees>
              <LongitudeDegrees>-0.13308224268257617950439453125</LongitudeDegrees>
            </Position>
            <AltitudeMeters>2487.800048828125</AltitudeMeters>
            <DistanceMeters>19330.685940062</DistanceMeters>
          </Trackpoint>
          <Trackpoint>
            <Time>2022-07-09T15:01:35.000Z</Time>
            <Position>
              <LatitudeDegrees>42.78873936273157596588134765625</LatitudeDegrees>
              <LongitudeDegrees>-0.1330970786511898040771484375</LongitudeDegrees>
            </Position>
            <AltitudeMeters>2487.60009765625</AltitudeMeters>
            <DistanceMeters>19332.101806218</DistanceMeters>
          </Trackpoint>
          <Trackpoint>
            <Time>2022-07-09T15:01:38.000Z</Time>
            <Position>
              <LatitudeDegrees>42.78875780291855335235595703125</LatitudeDegrees>
              <LongitudeDegrees>-0.1331299357116222381591796875</LongitudeDegrees>
            </Position>
            <AltitudeMeters>2486.800048828125</AltitudeMeters>
            <DistanceMeters>19335.480269867</DistanceMeters>
          </Trackpoint>
          <Trackpoint>
            <Time>2022-07-09T15:01:39.000Z</Time>
            <Position>
              <LatitudeDegrees>42.78876534663140773773193359375</LatitudeDegrees>
              <LongitudeDegrees>-0.13313488103449344635009765625</LongitudeDegrees>
            </Position>
            <AltitudeMeters>2486.39990234375</AltitudeMeters>
            <DistanceMeters>19336.411337715</DistanceMeters>
          </Trackpoint>
          <Trackpoint>
            <Time>2022-07-09T15:01:40.000Z</Time>
            <Position>
              <LatitudeDegrees>42.78877456672489643096923828125</LatitudeDegrees>
              <LongitudeDegrees>-0.1331319473683834075927734375</LongitudeDegrees>
            </Position>
            <AltitudeMeters>2486.199951171875</AltitudeMeters>
            <DistanceMeters>19337.460942082</DistanceMeters>
          </Trackpoint>
          <Trackpoint>
            <Time>2022-07-09T15:01:41.000Z</Time>
            <Position>
              <LatitudeDegrees>42.7887833677232265472412109375</LatitudeDegrees>
              <LongitudeDegrees>-0.1331249065697193145751953125</LongitudeDegrees>
            </Position>
            <AltitudeMeters>2486</AltitudeMeters>
            <DistanceMeters>19338.59729631</DistanceMeters>
          </Trackpoint>
          <Trackpoint>
            <Time>2022-07-09T15:01:46.000Z</Time>
            <Position>
              <LatitudeDegrees>42.78880440630018711090087890625</LatitudeDegrees>
              <LongitudeDegrees>-0.13309045694768428802490234375</LongitudeDegrees>
            </Position>
            <AltitudeMeters>2485.60009765625</AltitudeMeters>
            <DistanceMeters>19342.257983874</DistanceMeters>
          </Trackpoint>
          <Trackpoint>
            <Time>2022-07-09T15:01:47.000Z</Time>
            <Position>
              <LatitudeDegrees>42.78880490921437740325927734375</LatitudeDegrees>
              <LongitudeDegrees>-0.13308383524417877197265625</LongitudeDegrees>
            </Position>
            <AltitudeMeters>2485.39990234375</AltitudeMeters>
            <DistanceMeters>19342.803870788</DistanceMeters>
          </Trackpoint>
          <Trackpoint>
            <Time>2022-07-09T15:01:48.000Z</Time>
            <Position>
              <LatitudeDegrees>42.78880767524242401123046875</LatitudeDegrees>
              <LongitudeDegrees>-0.13307872228324413299560546875</LongitudeDegrees>
            </Position>
            <AltitudeMeters>2485.199951171875</AltitudeMeters>
            <DistanceMeters>19343.324353538</DistanceMeters>
          </Trackpoint>
          <Trackpoint>
            <Time>2022-07-09T15:01:53.000Z</Time>
            <Position>
              <LatitudeDegrees>42.78883315622806549072265625</LatitudeDegrees>
              <LongitudeDegrees>-0.13303681276738643646240234375</LongitudeDegrees>
            </Position>
            <AltitudeMeters>2484.60009765625</AltitudeMeters>
            <DistanceMeters>19347.769329045</DistanceMeters>
          </Trackpoint>
          <Trackpoint>
            <Time>2022-07-09T15:01:57.000Z</Time>
            <Position>
              <LatitudeDegrees>42.7888445556163787841796875</LatitudeDegrees>
              <LongitudeDegrees>-0.13298702426254749298095703125</LongitudeDegrees>
            </Position>
            <AltitudeMeters>2484</AltitudeMeters>
            <DistanceMeters>19352.029663968</DistanceMeters>
          </Trackpoint>
          <Trackpoint>
            <Time>2022-07-09T15:02:00.000Z</Time>
            <Position>
              <LatitudeDegrees>42.78885117731988430023193359375</LatitudeDegrees>
              <LongitudeDegrees>-0.1329589448869228363037109375</LongitudeDegrees>
            </Position>
            <AltitudeMeters>2483.800048828125</AltitudeMeters>
            <DistanceMeters>19354.439298619</DistanceMeters>
          </Trackpoint>
          <Trackpoint>
            <Time>2022-07-09T15:02:06.000Z</Time>
            <Position>
              <LatitudeDegrees>42.788894511759281158447265625</LatitudeDegrees>
              <LongitudeDegrees>-0.13290655799210071563720703125</LongitudeDegrees>
            </Position>
            <AltitudeMeters>2483.39990234375</AltitudeMeters>
            <DistanceMeters>19360.887125536</DistanceMeters>
          </Trackpoint>
          <Trackpoint>
            <Time>2022-07-09T15:02:07.000Z</Time>
            <Position>
              <LatitudeDegrees>42.78890431858599185943603515625</LatitudeDegrees>
              <LongitudeDegrees>-0.13290010392665863037109375</LongitudeDegrees>
            </Position>
            <AltitudeMeters>2483.39990234375</AltitudeMeters>
            <DistanceMeters>19362.104061252</DistanceMeters>
          </Trackpoint>
          <Trackpoint>
            <Time>2022-07-09T15:02:13.000Z</Time>
            <Position>
              <LatitudeDegrees>42.78895142488181591033935546875</LatitudeDegrees>
              <LongitudeDegrees>-0.1328439451754093170166015625</LongitudeDegrees>
            </Position>
            <AltitudeMeters>2483.800048828125</AltitudeMeters>
            <DistanceMeters>19369.070886991</DistanceMeters>
          </Trackpoint>
          <Trackpoint>
            <Time>2022-07-09T15:02:16.000Z</Time>
            <Position>
              <LatitudeDegrees>42.78895628638565540313720703125</LatitudeDegrees>
              <LongitudeDegrees>-0.13282491825520992279052734375</LongitudeDegrees>
            </Position>
            <AltitudeMeters>2484.199951171875</AltitudeMeters>
            <DistanceMeters>19370.716797965</DistanceMeters>
          </Trackpoint>
          <Trackpoint>
            <Time>2022-07-09T15:02:18.000Z</Time>
            <Position>
              <LatitudeDegrees>42.7889627404510974884033203125</LatitudeDegrees>
              <LongitudeDegrees>-0.132800526916980743408203125</LongitudeDegrees>
            </Position>
            <AltitudeMeters>2484.39990234375</AltitudeMeters>
            <DistanceMeters>19372.83314338</DistanceMeters>
          </Trackpoint>
          <Trackpoint>
            <Time>2022-07-09T15:02:19.000Z</Time>
            <Position>
              <LatitudeDegrees>42.7889692783355712890625</LatitudeDegrees>
              <LongitudeDegrees>-0.13278502039611339569091796875</LongitudeDegrees>
            </Position>
            <AltitudeMeters>2484.60009765625</AltitudeMeters>
            <DistanceMeters>19374.292971466</DistanceMeters>
          </Trackpoint>
          <Trackpoint>
            <Time>2022-07-09T15:02:20.000Z</Time>
            <Position>
              <LatitudeDegrees>42.78897405602037906646728515625</LatitudeDegrees>
              <LongitudeDegrees>-0.1327760517597198486328125</LongitudeDegrees>
            </Position>
            <AltitudeMeters>2484.60009765625</AltitudeMeters>
            <DistanceMeters>19375.194474034</DistanceMeters>
          </Trackpoint>
          <Trackpoint>
            <Time>2022-07-09T15:02:23.000Z</Time>
            <Position>
              <LatitudeDegrees>42.78898964636027812957763671875</LatitudeDegrees>
              <LongitudeDegrees>-0.13275098986923694610595703125</LongitudeDegrees>
            </Position>
            <AltitudeMeters>2485</AltitudeMeters>
            <DistanceMeters>19377.877191113</DistanceMeters>
          </Trackpoint>
          <Trackpoint>
            <Time>2022-07-09T15:02:24.000Z</Time>
            <Position>
              <LatitudeDegrees>42.78899450786411762237548828125</LatitudeDegrees>
              <LongitudeDegrees>-0.132739841938018798828125</LongitudeDegrees>
            </Position>
            <AltitudeMeters>2485</AltitudeMeters>
            <DistanceMeters>19378.939622078</DistanceMeters>
          </Trackpoint>
          <Trackpoint>
            <Time>2022-07-09T15:02:25.000Z</Time>
            <Position>
              <LatitudeDegrees>42.7890006266534328460693359375</LatitudeDegrees>
              <LongitudeDegrees>-0.1327276043593883514404296875</LongitudeDegrees>
            </Position>
            <AltitudeMeters>2485</AltitudeMeters>
            <DistanceMeters>19380.149114692</DistanceMeters>
          </Trackpoint>
          <Trackpoint>
            <Time>2022-07-09T15:02:29.000Z</Time>
            <Position>
              <LatitudeDegrees>42.7890261076390743255615234375</LatitudeDegrees>
              <LongitudeDegrees>-0.13271234929561614990234375</LongitudeDegrees>
            </Position>
            <AltitudeMeters>2485</AltitudeMeters>
            <DistanceMeters>19383.247335353</DistanceMeters>
          </Trackpoint>
          <Trackpoint>
            <Time>2022-07-09T15:02:30.000Z</Time>
            <Position>
              <LatitudeDegrees>42.78903356753289699554443359375</LatitudeDegrees>
              <LongitudeDegrees>-0.13270639814436435699462890625</LongitudeDegrees>
            </Position>
            <AltitudeMeters>2484.800048828125</AltitudeMeters>
            <DistanceMeters>19384.207058124</DistanceMeters>
          </Trackpoint>
          <Trackpoint>
            <Time>2022-07-09T15:02:36.000Z</Time>
            <Position>
              <LatitudeDegrees>42.78907455503940582275390625</LatitudeDegrees>
              <LongitudeDegrees>-0.13267077505588531494140625</LongitudeDegrees>
            </Position>
            <AltitudeMeters>2484</AltitudeMeters>
            <DistanceMeters>19389.618577126</DistanceMeters>
          </Trackpoint>
          <Trackpoint>
            <Time>2022-07-09T15:02:41.000Z</Time>
            <Position>
              <LatitudeDegrees>42.7891100943088531494140625</LatitudeDegrees>
              <LongitudeDegrees>-0.13263632543385028839111328125</LongitudeDegrees>
            </Position>
            <AltitudeMeters>2482.800048828125</AltitudeMeters>
            <DistanceMeters>19394.473317028</DistanceMeters>
          </Trackpoint>
          <Trackpoint>
            <Time>2022-07-09T15:02:42.000Z</Time>
            <Position>
              <LatitudeDegrees>42.7891186438500881195068359375</LatitudeDegrees>
              <LongitudeDegrees>-0.1326330564916133880615234375</LongitudeDegrees>
            </Position>
            <AltitudeMeters>2482.800048828125</AltitudeMeters>
            <DistanceMeters>19395.465425053</DistanceMeters>
          </Trackpoint>
          <Trackpoint>
            <Time>2022-07-09T15:02:43.000Z</Time>
            <Position>
              <LatitudeDegrees>42.78912954032421112060546875</LatitudeDegrees>
              <LongitudeDegrees>-0.13263188302516937255859375</LongitudeDegrees>
            </Position>
            <AltitudeMeters>2482.60009765625</AltitudeMeters>
            <DistanceMeters>19396.682360769</DistanceMeters>
          </Trackpoint>
          <Trackpoint>
            <Time>2022-07-09T15:02:46.000Z</Time>
            <Position>
              <LatitudeDegrees>42.78916700743138790130615234375</LatitudeDegrees>
              <LongitudeDegrees>-0.13263464905321598052978515625</LongitudeDegrees>
            </Position>
            <AltitudeMeters>2482.60009765625</AltitudeMeters>
            <DistanceMeters>19400.857052079</DistanceMeters>
          </Trackpoint>
          <Trackpoint>
            <Time>2022-07-09T15:02:50.000Z</Time>
            <Position>
              <LatitudeDegrees>42.7892021276056766510009765625</LatitudeDegrees>
              <LongitudeDegrees>-0.1326286979019641876220703125</LongitudeDegrees>
            </Position>
            <AltitudeMeters>2482.199951171875</AltitudeMeters>
            <DistanceMeters>19404.795791894</DistanceMeters>
          </Trackpoint>
          <Trackpoint>
            <Time>2022-07-09T15:02:51.000Z</Time>
            <Position>
              <LatitudeDegrees>42.7892088331282138824462890625</LatitudeDegrees>
              <LongitudeDegrees>-0.132618136703968048095703125</LongitudeDegrees>
            </Position>
            <AltitudeMeters>2482.199951171875</AltitudeMeters>
            <DistanceMeters>19405.936112466</DistanceMeters>
          </Trackpoint>
          <Trackpoint>
            <Time>2022-07-09T15:02:53.000Z</Time>
            <Position>
              <LatitudeDegrees>42.78922048397362232208251953125</LatitudeDegrees>
              <LongitudeDegrees>-0.13259609229862689971923828125</LongitudeDegrees>
            </Position>
            <AltitudeMeters>2481.800048828125</AltitudeMeters>
            <DistanceMeters>19408.15453345</DistanceMeters>
          </Trackpoint>
          <Trackpoint>
            <Time>2022-07-09T15:02:55.000Z</Time>
            <Position>
              <LatitudeDegrees>42.78923171572387218475341796875</LatitudeDegrees>
              <LongitudeDegrees>-0.13258226215839385986328125</LongitudeDegrees>
            </Position>
            <AltitudeMeters>2481.39990234375</AltitudeMeters>
            <DistanceMeters>19409.838411119</DistanceMeters>
          </Trackpoint>
          <Trackpoint>
            <Time>2022-07-09T15:02:56.000Z</Time>
            <Position>
              <LatitudeDegrees>42.78923724777996540069580078125</LatitudeDegrees>
              <LongitudeDegrees>-0.13257689774036407470703125</LongitudeDegrees>
            </Position>
            <AltitudeMeters>2481.39990234375</AltitudeMeters>
            <DistanceMeters>19410.598624834</DistanceMeters>
          </Trackpoint>
          <Trackpoint>
            <Time>2022-07-09T15:02:58.000Z</Time>
            <Position>
              <LatitudeDegrees>42.78925468213856220245361328125</LatitudeDegrees>
              <LongitudeDegrees>-0.13256751000881195068359375</LongitudeDegrees>
            </Position>
            <AltitudeMeters>2480.800048828125</AltitudeMeters>
            <DistanceMeters>19412.687051735</DistanceMeters>
          </Trackpoint>
          <Trackpoint>
            <Time>2022-07-09T15:02:59.000Z</Time>
            <Position>
              <LatitudeDegrees>42.78926256112754344940185546875</LatitudeDegrees>
              <LongitudeDegrees>-0.1325623132288455963134765625</LongitudeDegrees>
            </Position>
            <AltitudeMeters>2480.60009765625</AltitudeMeters>
            <DistanceMeters>19413.660785799</DistanceMeters>
          </Trackpoint>
          <Trackpoint>
            <Time>2022-07-09T15:03:01.000Z</Time>
            <Position>
              <LatitudeDegrees>42.78927412815392017364501953125</LatitudeDegrees>
              <LongitudeDegrees>-0.132544375956058502197265625</LongitudeDegrees>
            </Position>
            <AltitudeMeters>2480.199951171875</AltitudeMeters>
            <DistanceMeters>19415.612885248</DistanceMeters>
          </Trackpoint>
          <Trackpoint>
            <Time>2022-07-09T15:03:04.000Z</Time>
            <Position>
              <LatitudeDegrees>42.78928938321769237518310546875</LatitudeDegrees>
              <LongitudeDegrees>-0.13253021053969860076904296875</LongitudeDegrees>
            </Position>
            <AltitudeMeters>2479.60009765625</AltitudeMeters>
            <DistanceMeters>19417.668627395</DistanceMeters>
          </Trackpoint>
          <Trackpoint>
            <Time>2022-07-09T15:03:06.000Z</Time>
            <Position>
              <LatitudeDegrees>42.78929575346410274505615234375</LatitudeDegrees>
              <LongitudeDegrees>-0.1325227506458759307861328125</LongitudeDegrees>
            </Position>
            <AltitudeMeters>2479.39990234375</AltitudeMeters>
            <DistanceMeters>19418.599695244</DistanceMeters>
          </Trackpoint>
          <Trackpoint>
            <Time>2022-07-09T15:03:08.000Z</Time>
            <Position>
              <LatitudeDegrees>42.78930346481502056121826171875</LatitudeDegrees>
              <LongitudeDegrees>-0.13252015225589275360107421875</LongitudeDegrees>
            </Position>
            <AltitudeMeters>2479.199951171875</AltitudeMeters>
            <DistanceMeters>19419.486045429</DistanceMeters>
          </Trackpoint>
          <Trackpoint>
            <Time>2022-07-09T15:03:11.000Z</Time>
            <Position>
              <LatitudeDegrees>42.78931997716426849365234375</LatitudeDegrees>
              <LongitudeDegrees>-0.13251998461782932281494140625</LongitudeDegrees>
            </Position>
            <AltitudeMeters>2479</AltitudeMeters>
            <DistanceMeters>19421.32622984</DistanceMeters>
          </Trackpoint>
          <Trackpoint>
            <Time>2022-07-09T15:03:13.000Z</Time>
            <Position>
              <LatitudeDegrees>42.7893342263996601104736328125</LatitudeDegrees>
              <LongitudeDegrees>-0.132516883313655853271484375</LongitudeDegrees>
            </Position>
            <AltitudeMeters>2478.60009765625</AltitudeMeters>
            <DistanceMeters>19422.933277401</DistanceMeters>
          </Trackpoint>
          <Trackpoint>
            <Time>2022-07-09T15:03:16.000Z</Time>
            <Position>
              <LatitudeDegrees>42.7893536724150180816650390625</LatitudeDegrees>
              <LongitudeDegrees>-0.13251026161015033721923828125</LongitudeDegrees>
            </Position>
            <AltitudeMeters>2478.199951171875</AltitudeMeters>
            <DistanceMeters>19425.161851394</DistanceMeters>
          </Trackpoint>
          <Trackpoint>
            <Time>2022-07-09T15:03:19.000Z</Time>
            <Position>
              <LatitudeDegrees>42.78937571682035923004150390625</LatitudeDegrees>
              <LongitudeDegrees>-0.132515542209148406982421875</LongitudeDegrees>
            </Position>
            <AltitudeMeters>2477.199951171875</AltitudeMeters>
            <DistanceMeters>19427.650753249</DistanceMeters>
          </Trackpoint>
          <Trackpoint>
            <Time>2022-07-09T15:03:23.000Z</Time>
            <Position>
              <LatitudeDegrees>42.78939985670149326324462890625</LatitudeDegrees>
              <LongitudeDegrees>-0.13252518139779567718505859375</LongitudeDegrees>
            </Position>
            <AltitudeMeters>2476.199951171875</AltitudeMeters>
            <DistanceMeters>19430.448801904</DistanceMeters>
          </Trackpoint>
          <Trackpoint>
            <Time>2022-07-09T15:03:28.000Z</Time>
            <Position>
              <LatitudeDegrees>42.7894301153719425201416015625</LatitudeDegrees>
              <LongitudeDegrees>-0.13252794742584228515625</LongitudeDegrees>
            </Position>
            <AltitudeMeters>2475.800048828125</AltitudeMeters>
            <DistanceMeters>19433.823253918</DistanceMeters>
          </Trackpoint>
          <Trackpoint>
            <Time>2022-07-09T15:03:31.000Z</Time>
            <Position>
              <LatitudeDegrees>42.7894582785665988922119140625</LatitudeDegrees>
              <LongitudeDegrees>-0.13252451084554195404052734375</LongitudeDegrees>
            </Position>
            <AltitudeMeters>2475.199951171875</AltitudeMeters>
            <DistanceMeters>19436.970632805</DistanceMeters>
          </Trackpoint>
          <Trackpoint>
            <Time>2022-07-09T15:03:32.000Z</Time>
            <Position>
              <LatitudeDegrees>42.7894686721265316009521484375</LatitudeDegrees>
              <LongitudeDegrees>-0.1325239241123199462890625</LongitudeDegrees>
            </Position>
            <AltitudeMeters>2475</AltitudeMeters>
            <DistanceMeters>19438.12668268</DistanceMeters>
          </Trackpoint>
          <Trackpoint>
            <Time>2022-07-09T15:03:35.000Z</Time>
            <Position>
              <LatitudeDegrees>42.7895008586347103118896484375</LatitudeDegrees>
              <LongitudeDegrees>-0.13252166099846363067626953125</LongitudeDegrees>
            </Position>
            <AltitudeMeters>2474</AltitudeMeters>
            <DistanceMeters>19441.713862482</DistanceMeters>
          </Trackpoint>
          <Trackpoint>
            <Time>2022-07-09T15:03:36.000Z</Time>
            <Position>
              <LatitudeDegrees>42.78951301239430904388427734375</LatitudeDegrees>
              <LongitudeDegrees>-0.1325224153697490692138671875</LongitudeDegrees>
            </Position>
            <AltitudeMeters>2473.60009765625</AltitudeMeters>
            <DistanceMeters>19443.067784754</DistanceMeters>
          </Trackpoint>
          <Trackpoint>
            <Time>2022-07-09T15:03:40.000Z</Time>
            <Position>
              <LatitudeDegrees>42.789559699594974517822265625</LatitudeDegrees>
              <LongitudeDegrees>-0.13250338844954967498779296875</LongitudeDegrees>
            </Position>
            <AltitudeMeters>2473.39990234375</AltitudeMeters>
            <DistanceMeters>19448.491804394</DistanceMeters>
          </Trackpoint>
          <Trackpoint>
            <Time>2022-07-09T15:03:41.000Z</Time>
            <Position>
              <LatitudeDegrees>42.78956632129848003387451171875</LatitudeDegrees>
              <LongitudeDegrees>-0.132494084537029266357421875</LongitudeDegrees>
            </Position>
            <AltitudeMeters>2473.199951171875</AltitudeMeters>
            <DistanceMeters>19449.549977102</DistanceMeters>
          </Trackpoint>
          <Trackpoint>
            <Time>2022-07-09T15:03:42.000Z</Time>
            <Position>
              <LatitudeDegrees>42.78957235626876354217529296875</LatitudeDegrees>
              <LongitudeDegrees>-0.1324865408241748809814453125</LongitudeDegrees>
            </Position>
            <AltitudeMeters>2473.199951171875</AltitudeMeters>
            <DistanceMeters>19450.461441326</DistanceMeters>
          </Trackpoint>
          <Trackpoint>
            <Time>2022-07-09T15:03:45.000Z</Time>
            <Position>
              <LatitudeDegrees>42.7895873598754405975341796875</LatitudeDegrees>
              <LongitudeDegrees>-0.1324607245624065399169921875</LongitudeDegrees>
            </Position>
            <AltitudeMeters>2472.800048828125</AltitudeMeters>
            <DistanceMeters>19453.150882018</DistanceMeters>
          </Trackpoint>
          <Trackpoint>
            <Time>2022-07-09T15:03:46.000Z</Time>
            <Position>
              <LatitudeDegrees>42.78959364630281925201416015625</LatitudeDegrees>
              <LongitudeDegrees>-0.13245175592601299285888671875</LongitudeDegrees>
            </Position>
            <AltitudeMeters>2472.39990234375</AltitudeMeters>
            <DistanceMeters>19454.165489683</DistanceMeters>
          </Trackpoint>
          <Trackpoint>
            <Time>2022-07-09T15:03:47.000Z</Time>
            <Position>
              <LatitudeDegrees>42.7896004356443881988525390625</LatitudeDegrees>
              <LongitudeDegrees>-0.13244588859379291534423828125</LongitudeDegrees>
            </Position>
            <AltitudeMeters>2472.199951171875</AltitudeMeters>
            <DistanceMeters>19455.05691928</DistanceMeters>
          </Trackpoint>
          <Trackpoint>
            <Time>2022-07-09T15:03:53.000Z</Time>
            <Position>
              <LatitudeDegrees>42.789641506969928741455078125</LatitudeDegrees>
              <LongitudeDegrees>-0.132392831146717071533203125</LongitudeDegrees>
            </Position>
            <AltitudeMeters>2472</AltitudeMeters>
            <DistanceMeters>19461.355979202</DistanceMeters>
          </Trackpoint>
          <Trackpoint>
            <Time>2022-07-09T15:03:54.000Z</Time>
            <Position>
              <LatitudeDegrees>42.789648883044719696044921875</LatitudeDegrees>
              <LongitudeDegrees>-0.1323829405009746551513671875</LongitudeDegrees>
            </Position>
            <AltitudeMeters>2472.199951171875</AltitudeMeters>
            <DistanceMeters>19462.508116883</DistanceMeters>
          </Trackpoint>
          <Trackpoint>
            <Time>2022-07-09T15:03:58.000Z</Time>
            <Position>
              <LatitudeDegrees>42.7896809019148349761962890625</LatitudeDegrees>
              <LongitudeDegrees>-0.1323522627353668212890625</LongitudeDegrees>
            </Position>
            <AltitudeMeters>2471.800048828125</AltitudeMeters>
            <DistanceMeters>19466.864861159</DistanceMeters>
          </Trackpoint>
          <Trackpoint>
            <Time>2022-07-09T15:04:00.000Z</Time>
            <Position>
              <LatitudeDegrees>42.7896986715495586395263671875</LatitudeDegrees>
              <LongitudeDegrees>-0.13233860023319721221923828125</LongitudeDegrees>
            </Position>
            <AltitudeMeters>2471.800048828125</AltitudeMeters>
            <DistanceMeters>19469.137569615</DistanceMeters>
          </Trackpoint>
          <Trackpoint>
            <Time>2022-07-09T15:04:01.000Z</Time>
            <Position>
              <LatitudeDegrees>42.78971015475690364837646484375</LatitudeDegrees>
              <LongitudeDegrees>-0.13233139179646968841552734375</LongitudeDegrees>
            </Position>
            <AltitudeMeters>2471.800048828125</AltitudeMeters>
            <DistanceMeters>19470.540622239</DistanceMeters>
          </Trackpoint>
          <Trackpoint>
            <Time>2022-07-09T15:04:04.000Z</Time>
            <Position>
              <LatitudeDegrees>42.789738737046718597412109375</LatitudeDegrees>
              <LongitudeDegrees>-0.13231026940047740936279296875</LongitudeDegrees>
            </Position>
            <AltitudeMeters>2471.199951171875</AltitudeMeters>
            <DistanceMeters>19474.159131717</DistanceMeters>
          </Trackpoint>
          <Trackpoint>
            <Time>2022-07-09T15:04:06.000Z</Time>
            <Position>
              <LatitudeDegrees>42.7897538244724273681640625</LatitudeDegrees>
              <LongitudeDegrees>-0.13229501433670520782470703125</LongitudeDegrees>
            </Position>
            <AltitudeMeters>2471</AltitudeMeters>
            <DistanceMeters>19476.249719433</DistanceMeters>
          </Trackpoint>
          <Trackpoint>
            <Time>2022-07-09T15:04:09.000Z</Time>
            <Position>
              <LatitudeDegrees>42.7897781319916248321533203125</LatitudeDegrees>
              <LongitudeDegrees>-0.1322798430919647216796875</LongitudeDegrees>
            </Position>
            <AltitudeMeters>2470.60009765625</AltitudeMeters>
            <DistanceMeters>19479.226043507</DistanceMeters>
          </Trackpoint>
          <Trackpoint>
            <Time>2022-07-09T15:04:12.000Z</Time>
            <Position>
              <LatitudeDegrees>42.78980939649045467376708984375</LatitudeDegrees>
              <LongitudeDegrees>-0.13226282782852649688720703125</LongitudeDegrees>
            </Position>
            <AltitudeMeters>2470.199951171875</AltitudeMeters>
            <DistanceMeters>19482.973278337</DistanceMeters>
          </Trackpoint>
          <Trackpoint>
            <Time>2022-07-09T15:04:13.000Z</Time>
            <Position>
              <LatitudeDegrees>42.78982096351683139801025390625</LatitudeDegrees>
              <LongitudeDegrees>-0.13225528411567211151123046875</LongitudeDegrees>
            </Position>
            <AltitudeMeters>2470.199951171875</AltitudeMeters>
            <DistanceMeters>19484.401843098</DistanceMeters>
          </Trackpoint>
          <Trackpoint>
            <Time>2022-07-09T15:04:19.000Z</Time>
            <Position>
              <LatitudeDegrees>42.78987242840230464935302734375</LatitudeDegrees>
              <LongitudeDegrees>-0.13221002183854579925537109375</LongitudeDegrees>
            </Position>
            <AltitudeMeters>2469.39990234375</AltitudeMeters>
            <DistanceMeters>19491.219968466</DistanceMeters>
          </Trackpoint>
          <Trackpoint>
            <Time>2022-07-09T15:04:20.000Z</Time>
            <Position>
              <LatitudeDegrees>42.7898763678967952728271484375</LatitudeDegrees>
              <LongitudeDegrees>-0.13220029883086681365966796875</LongitudeDegrees>
            </Position>
            <AltitudeMeters>2469.199951171875</AltitudeMeters>
            <DistanceMeters>19492.121471034</DistanceMeters>
          </Trackpoint>
          <Trackpoint>
            <Time>2022-07-09T15:04:21.000Z</Time>
            <Position>
              <LatitudeDegrees>42.789880894124507904052734375</LatitudeDegrees>
              <LongitudeDegrees>-0.13219761662185192108154296875</LongitudeDegrees>
            </Position>
            <AltitudeMeters>2469</AltitudeMeters>
            <DistanceMeters>19492.667357947</DistanceMeters>
          </Trackpoint>
          <Trackpoint>
            <Time>2022-07-09T15:04:22.000Z</Time>
            <Position>
              <LatitudeDegrees>42.789885587990283966064453125</LatitudeDegrees>
              <LongitudeDegrees>-0.1322025619447231292724609375</LongitudeDegrees>
            </Position>
            <AltitudeMeters>2469</AltitudeMeters>
            <DistanceMeters>19493.325722337</DistanceMeters>
          </Trackpoint>
          <Trackpoint>
            <Time>2022-07-09T15:04:25.000Z</Time>
            <Position>
              <LatitudeDegrees>42.7899132482707500457763671875</LatitudeDegrees>
              <LongitudeDegrees>-0.13223399408161640167236328125</LongitudeDegrees>
            </Position>
            <AltitudeMeters>2468.800048828125</AltitudeMeters>
            <DistanceMeters>19497.334903808</DistanceMeters>
          </Trackpoint>
          <Trackpoint>
            <Time>2022-07-09T15:04:26.000Z</Time>
            <Position>
              <LatitudeDegrees>42.78992171399295330047607421875</LatitudeDegrees>
              <LongitudeDegrees>-0.132246650755405426025390625</LongitudeDegrees>
            </Position>
            <AltitudeMeters>2468.800048828125</AltitudeMeters>
            <DistanceMeters>19498.734734722</DistanceMeters>
          </Trackpoint>
          <Trackpoint>
            <Time>2022-07-09T15:04:28.000Z</Time>
            <Position>
              <LatitudeDegrees>42.7899350412189960479736328125</LatitudeDegrees>
              <LongitudeDegrees>-0.13228395022451877593994140625</LongitudeDegrees>
            </Position>
            <AltitudeMeters>2468.800048828125</AltitudeMeters>
            <DistanceMeters>19502.123872848</DistanceMeters>
          </Trackpoint>
          <Trackpoint>
            <Time>2022-07-09T15:04:30.000Z</Time>
            <Position>
              <LatitudeDegrees>42.78994627296924591064453125</LatitudeDegrees>
              <LongitudeDegrees>-0.1323219202458858489990234375</LongitudeDegrees>
            </Position>
            <AltitudeMeters>2468</AltitudeMeters>
            <DistanceMeters>19505.467409096</DistanceMeters>
          </Trackpoint>
          <Trackpoint>
            <Time>2022-07-09T15:04:32.000Z</Time>
            <Position>
              <LatitudeDegrees>42.78998273424804210662841796875</LatitudeDegrees>
              <LongitudeDegrees>-0.13233155943453311920166015625</LongitudeDegrees>
            </Position>
            <AltitudeMeters>2466.800048828125</AltitudeMeters>
            <DistanceMeters>19509.599705619</DistanceMeters>
          </Trackpoint>
          <Trackpoint>
            <Time>2022-07-09T15:04:36.000Z</Time>
            <Position>
              <LatitudeDegrees>42.790010310709476470947265625</LatitudeDegrees>
              <LongitudeDegrees>-0.1323839463293552398681640625</LongitudeDegrees>
            </Position>
            <AltitudeMeters>2465.39990234375</AltitudeMeters>
            <DistanceMeters>19514.86576342</DistanceMeters>
          </Trackpoint>
          <Trackpoint>
            <Time>2022-07-09T15:04:37.000Z</Time>
            <Position>
              <LatitudeDegrees>42.79001341201364994049072265625</LatitudeDegrees>
              <LongitudeDegrees>-0.13239744119346141815185546875</LongitudeDegrees>
            </Position>
            <AltitudeMeters>2465.39990234375</AltitudeMeters>
            <DistanceMeters>19516.021813295</DistanceMeters>
          </Trackpoint>
          <Trackpoint>
            <Time>2022-07-09T15:04:40.000Z</Time>
            <Position>
              <LatitudeDegrees>42.79000134207308292388916015625</LatitudeDegrees>
              <LongitudeDegrees>-0.13243951834738254547119140625</LongitudeDegrees>
            </Position>
            <AltitudeMeters>2465</AltitudeMeters>
            <DistanceMeters>19519.711983383</DistanceMeters>
          </Trackpoint>
          <Trackpoint>
            <Time>2022-07-09T15:04:42.000Z</Time>
            <Position>
              <LatitudeDegrees>42.789995558559894561767578125</LatitudeDegrees>
              <LongitudeDegrees>-0.13245083391666412353515625</LongitudeDegrees>
            </Position>
            <AltitudeMeters>2464.39990234375</AltitudeMeters>
            <DistanceMeters>19520.840363096</DistanceMeters>
          </Trackpoint>
          <Trackpoint>
            <Time>2022-07-09T15:04:44.000Z</Time>
            <Position>
              <LatitudeDegrees>42.78999161906540393829345703125</LatitudeDegrees>
              <LongitudeDegrees>-0.13245007954537868499755859375</LongitudeDegrees>
            </Position>
            <AltitudeMeters>2463.800048828125</AltitudeMeters>
            <DistanceMeters>19521.305897021</DistanceMeters>
          </Trackpoint>
          <Trackpoint>
            <Time>2022-07-09T15:04:45.000Z</Time>
            <Position>
              <LatitudeDegrees>42.7899896912276744842529296875</LatitudeDegrees>
              <LongitudeDegrees>-0.1324453018605709075927734375</LongitudeDegrees>
            </Position>
            <AltitudeMeters>2463.800048828125</AltitudeMeters>
            <DistanceMeters>19521.751611819</DistanceMeters>
          </Trackpoint>
          <Trackpoint>
            <Time>2022-07-09T15:04:46.000Z</Time>
            <Position>
              <LatitudeDegrees>42.78998960740864276885986328125</LatitudeDegrees>
              <LongitudeDegrees>-0.1324449665844440460205078125</LongitudeDegrees>
            </Position>
            <AltitudeMeters>2463.60009765625</AltitudeMeters>
            <DistanceMeters>19521.751611819</DistanceMeters>
          </Trackpoint>
          <Trackpoint>
            <Time>2022-07-09T15:04:47.000Z</Time>
            <Position>
              <LatitudeDegrees>42.78998843394219875335693359375</LatitudeDegrees>
              <LongitudeDegrees>-0.132445134222507476806640625</LongitudeDegrees>
            </Position>
            <AltitudeMeters>2463.60009765625</AltitudeMeters>
            <DistanceMeters>19521.885999888</DistanceMeters>
          </Trackpoint>
          <Trackpoint>
            <Time>2022-07-09T15:04:50.000Z</Time>
            <Position>
              <LatitudeDegrees>42.7899846620857715606689453125</LatitudeDegrees>
              <LongitudeDegrees>-0.13246047310531139373779296875</LongitudeDegrees>
            </Position>
            <AltitudeMeters>2463.39990234375</AltitudeMeters>
            <DistanceMeters>19523.209568862</DistanceMeters>
          </Trackpoint>
          <Trackpoint>
            <Time>2022-07-09T15:04:53.000Z</Time>
            <Position>
              <LatitudeDegrees>42.7899871766567230224609375</LatitudeDegrees>
              <LongitudeDegrees>-0.1324905641376972198486328125</LongitudeDegrees>
            </Position>
            <AltitudeMeters>2463.60009765625</AltitudeMeters>
            <DistanceMeters>19525.68391561</DistanceMeters>
          </Trackpoint>
          <Trackpoint>
            <Time>2022-07-09T15:04:54.000Z</Time>
            <Position>
              <LatitudeDegrees>42.7899923734366893768310546875</LatitudeDegrees>
              <LongitudeDegrees>-0.13250447809696197509765625</LongitudeDegrees>
            </Position>
            <AltitudeMeters>2463.60009765625</AltitudeMeters>
            <DistanceMeters>19526.958832768</DistanceMeters>
          </Trackpoint>
          <Trackpoint>
            <Time>2022-07-09T15:04:56.000Z</Time>
            <Position>
              <LatitudeDegrees>42.78998851776123046875</LatitudeDegrees>
              <LongitudeDegrees>-0.13252568431198596954345703125</LongitudeDegrees>
            </Position>
            <AltitudeMeters>2463.60009765625</AltitudeMeters>
            <DistanceMeters>19528.741691963</DistanceMeters>
          </Trackpoint>
          <Trackpoint>
            <Time>2022-07-09T15:04:58.000Z</Time>
            <Position>
              <LatitudeDegrees>42.789969407021999359130859375</LatitudeDegrees>
              <LongitudeDegrees>-0.13253926299512386322021484375</LongitudeDegrees>
            </Position>
            <AltitudeMeters>2462.800048828125</AltitudeMeters>
            <DistanceMeters>19531.141939611</DistanceMeters>
          </Trackpoint>
          <Trackpoint>
            <Time>2022-07-09T15:05:01.000Z</Time>
            <Position>
              <LatitudeDegrees>42.7899507991969585418701171875</LatitudeDegrees>
              <LongitudeDegrees>-0.13255736790597438812255859375</LongitudeDegrees>
            </Position>
            <AltitudeMeters>2461.39990234375</AltitudeMeters>
            <DistanceMeters>19533.684681189</DistanceMeters>
          </Trackpoint>
          <Trackpoint>
            <Time>2022-07-09T15:05:04.000Z</Time>
            <Position>
              <LatitudeDegrees>42.7899388968944549560546875</LatitudeDegrees>
              <LongitudeDegrees>-0.13259257189929485321044921875</LongitudeDegrees>
            </Position>
            <AltitudeMeters>2460.800048828125</AltitudeMeters>
            <DistanceMeters>19536.85065416</DistanceMeters>
          </Trackpoint>
          <Trackpoint>
            <Time>2022-07-09T15:05:06.000Z</Time>
            <Position>
              <LatitudeDegrees>42.789960689842700958251953125</LatitudeDegrees>
              <LongitudeDegrees>-0.13263280503451824188232421875</LongitudeDegrees>
            </Position>
            <AltitudeMeters>2460.39990234375</AltitudeMeters>
            <DistanceMeters>19540.935697767</DistanceMeters>
          </Trackpoint>
          <Trackpoint>
            <Time>2022-07-09T15:05:07.000Z</Time>
            <Position>
              <LatitudeDegrees>42.7899739332497119903564453125</LatitudeDegrees>
              <LongitudeDegrees>-0.1326471380889415740966796875</LongitudeDegrees>
            </Position>
            <AltitudeMeters>2460.199951171875</AltitudeMeters>
            <DistanceMeters>19542.817130722</DistanceMeters>
          </Trackpoint>
          <Trackpoint>
            <Time>2022-07-09T15:05:09.000Z</Time>
            <Position>
              <LatitudeDegrees>42.7900017611682415008544921875</LatitudeDegrees>
              <LongitudeDegrees>-0.13266281224787235260009765625</LongitudeDegrees>
            </Position>
            <AltitudeMeters>2459.800048828125</AltitudeMeters>
            <DistanceMeters>19546.168759445</DistanceMeters>
          </Trackpoint>
          <Trackpoint>
            <Time>2022-07-09T15:05:12.000Z</Time>
            <Position>
              <LatitudeDegrees>42.79004207812249660491943359375</LatitudeDegrees>
              <LongitudeDegrees>-0.13268091715872287750244140625</LongitudeDegrees>
            </Position>
            <AltitudeMeters>2459.199951171875</AltitudeMeters>
            <DistanceMeters>19550.893412762</DistanceMeters>
          </Trackpoint>
          <Trackpoint>
            <Time>2022-07-09T15:05:15.000Z</Time>
            <Position>
              <LatitudeDegrees>42.79007409699261188507080078125</LatitudeDegrees>
              <LongitudeDegrees>-0.1326739601790904998779296875</LongitudeDegrees>
            </Position>
            <AltitudeMeters>2458</AltitudeMeters>
            <DistanceMeters>19554.501926339</DistanceMeters>
          </Trackpoint>
          <Trackpoint>
            <Time>2022-07-09T15:05:16.000Z</Time>
            <Position>
              <LatitudeDegrees>42.79008130542933940887451171875</LatitudeDegrees>
              <LongitudeDegrees>-0.13266784138977527618408203125</LongitudeDegrees>
            </Position>
            <AltitudeMeters>2457.800048828125</AltitudeMeters>
            <DistanceMeters>19555.442642817</DistanceMeters>
          </Trackpoint>
          <Trackpoint>
            <Time>2022-07-09T15:05:19.000Z</Time>
            <Position>
              <LatitudeDegrees>42.79010117053985595703125</LatitudeDegrees>
              <LongitudeDegrees>-0.132648982107639312744140625</LongitudeDegrees>
            </Position>
            <AltitudeMeters>2457</AltitudeMeters>
            <DistanceMeters>19558.137115207</DistanceMeters>
          </Trackpoint>
          <Trackpoint>
            <Time>2022-07-09T15:05:21.000Z</Time>
            <Position>
              <LatitudeDegrees>42.79011768288910388946533203125</LatitudeDegrees>
              <LongitudeDegrees>-0.13265040703117847442626953125</LongitudeDegrees>
            </Position>
            <AltitudeMeters>2456.60009765625</AltitudeMeters>
            <DistanceMeters>19559.977299618</DistanceMeters>
          </Trackpoint>
          <Trackpoint>
            <Time>2022-07-09T15:05:22.000Z</Time>
            <Position>
              <LatitudeDegrees>42.79012489132583141326904296875</LatitudeDegrees>
              <LongitudeDegrees>-0.1326571963727474212646484375</LongitudeDegrees>
            </Position>
            <AltitudeMeters>2456.60009765625</AltitudeMeters>
            <DistanceMeters>19560.94638576</DistanceMeters>
          </Trackpoint>
          <Trackpoint>
            <Time>2022-07-09T15:05:24.000Z</Time>
            <Position>
              <LatitudeDegrees>42.79012254439294338226318359375</LatitudeDegrees>
              <LongitudeDegrees>-0.1326753012835979461669921875</LongitudeDegrees>
            </Position>
            <AltitudeMeters>2456.60009765625</AltitudeMeters>
            <DistanceMeters>19562.448890039</DistanceMeters>
          </Trackpoint>
          <Trackpoint>
            <Time>2022-07-09T15:05:27.000Z</Time>
            <Position>
              <LatitudeDegrees>42.79010452330112457275390625</LatitudeDegrees>
              <LongitudeDegrees>-0.13269818387925624847412109375</LongitudeDegrees>
            </Position>
            <AltitudeMeters>2456.60009765625</AltitudeMeters>
            <DistanceMeters>19565.189879569</DistanceMeters>
          </Trackpoint>
          <Trackpoint>
            <Time>2022-07-09T15:05:31.000Z</Time>
            <Position>
              <LatitudeDegrees>42.79007191769778728485107421875</LatitudeDegrees>
              <LongitudeDegrees>-0.13272131793200969696044921875</LongitudeDegrees>
            </Position>
            <AltitudeMeters>2456.199951171875</AltitudeMeters>
            <DistanceMeters>19569.281549366</DistanceMeters>
          </Trackpoint>
          <Trackpoint>
            <Time>2022-07-09T15:05:34.000Z</Time>
            <Position>
              <LatitudeDegrees>42.7900517173111438751220703125</LatitudeDegrees>
              <LongitudeDegrees>-0.13274763710796833038330078125</LongitudeDegrees>
            </Position>
            <AltitudeMeters>2455.39990234375</AltitudeMeters>
            <DistanceMeters>19572.392858085</DistanceMeters>
          </Trackpoint>
          <Trackpoint>
            <Time>2022-07-09T15:05:39.000Z</Time>
            <Position>
              <LatitudeDegrees>42.7900171838700771331787109375</LatitudeDegrees>
              <LongitudeDegrees>-0.1328124292194843292236328125</LongitudeDegrees>
            </Position>
            <AltitudeMeters>2454.60009765625</AltitudeMeters>
            <DistanceMeters>19578.933844417</DistanceMeters>
          </Trackpoint>
          <Trackpoint>
            <Time>2022-07-09T15:05:41.000Z</Time>
            <Position>
              <LatitudeDegrees>42.79000687412917613983154296875</LatitudeDegrees>
              <LongitudeDegrees>-0.13284034095704555511474609375</LongitudeDegrees>
            </Position>
            <AltitudeMeters>2454.39990234375</AltitudeMeters>
            <DistanceMeters>19581.487217714</DistanceMeters>
          </Trackpoint>
          <Trackpoint>
            <Time>2022-07-09T15:05:42.000Z</Time>
            <Position>
              <LatitudeDegrees>42.79000268317759037017822265625</LatitudeDegrees>
              <LongitudeDegrees>-0.13285492546856403350830078125</LongitudeDegrees>
            </Position>
            <AltitudeMeters>2454</AltitudeMeters>
            <DistanceMeters>19582.765671403</DistanceMeters>
          </Trackpoint>
          <Trackpoint>
            <Time>2022-07-09T15:05:48.000Z</Time>
            <Position>
              <LatitudeDegrees>42.7899662218987941741943359375</LatitudeDegrees>
              <LongitudeDegrees>-0.13292164541780948638916015625</LongitudeDegrees>
            </Position>
            <AltitudeMeters>2453.199951171875</AltitudeMeters>
            <DistanceMeters>19589.560579854</DistanceMeters>
          </Trackpoint>
          <Trackpoint>
            <Time>2022-07-09T15:05:49.000Z</Time>
            <Position>
              <LatitudeDegrees>42.78996102511882781982421875</LatitudeDegrees>
              <LongitudeDegrees>-0.13293019495904445648193359375</LongitudeDegrees>
            </Position>
            <AltitudeMeters>2453</AltitudeMeters>
            <DistanceMeters>19590.467076935</DistanceMeters>
          </Trackpoint>
          <Trackpoint>
            <Time>2022-07-09T15:05:50.000Z</Time>
            <Position>
              <LatitudeDegrees>42.789952643215656280517578125</LatitudeDegrees>
              <LongitudeDegrees>-0.13294260017573833465576171875</LongitudeDegrees>
            </Position>
            <AltitudeMeters>2453</AltitudeMeters>
            <DistanceMeters>19591.844144854</DistanceMeters>
          </Trackpoint>
          <Trackpoint>
            <Time>2022-07-09T15:05:52.000Z</Time>
            <Position>
              <LatitudeDegrees>42.78993395157158374786376953125</LatitudeDegrees>
              <LongitudeDegrees>-0.13296741060912609100341796875</LongitudeDegrees>
            </Position>
            <AltitudeMeters>2452.800048828125</AltitudeMeters>
            <DistanceMeters>19594.748295573</DistanceMeters>
          </Trackpoint>
          <Trackpoint>
            <Time>2022-07-09T15:05:58.000Z</Time>
            <Position>
              <LatitudeDegrees>42.7899035252630710601806640625</LatitudeDegrees>
              <LongitudeDegrees>-0.13305776752531528472900390625</LongitudeDegrees>
            </Position>
            <AltitudeMeters>2452.199951171875</AltitudeMeters>
            <DistanceMeters>19602.868493735</DistanceMeters>
          </Trackpoint>
          <Trackpoint>
            <Time>2022-07-09T15:05:59.000Z</Time>
            <Position>
              <LatitudeDegrees>42.78990210033953189849853515625</LatitudeDegrees>
              <LongitudeDegrees>-0.13306514360010623931884765625</LongitudeDegrees>
            </Position>
            <AltitudeMeters>2451.60009765625</AltitudeMeters>
            <DistanceMeters>19603.491625572</DistanceMeters>
          </Trackpoint>
          <Trackpoint>
            <Time>2022-07-09T15:06:04.000Z</Time>
            <Position>
              <LatitudeDegrees>42.78994149528443813323974609375</LatitudeDegrees>
              <LongitudeDegrees>-0.133095569908618927001953125</LongitudeDegrees>
            </Position>
            <AltitudeMeters>2450.39990234375</AltitudeMeters>
            <DistanceMeters>19608.532521833</DistanceMeters>
          </Trackpoint>
          <Trackpoint>
            <Time>2022-07-09T15:06:06.000Z</Time>
            <Position>
              <LatitudeDegrees>42.78995842672884464263916015625</LatitudeDegrees>
              <LongitudeDegrees>-0.13309783302247524261474609375</LongitudeDegrees>
            </Position>
            <AltitudeMeters>2449.39990234375</AltitudeMeters>
            <DistanceMeters>19610.428298831</DistanceMeters>
          </Trackpoint>
          <Trackpoint>
            <Time>2022-07-09T15:06:07.000Z</Time>
            <Position>
              <LatitudeDegrees>42.78996211476624011993408203125</LatitudeDegrees>
              <LongitudeDegrees>-0.1330937258899211883544921875</LongitudeDegrees>
            </Position>
            <AltitudeMeters>2449</AltitudeMeters>
            <DistanceMeters>19610.957385185</DistanceMeters>
          </Trackpoint>
          <Trackpoint>
            <Time>2022-07-09T15:06:11.000Z</Time>
            <Position>
              <LatitudeDegrees>42.78997686691582202911376953125</LatitudeDegrees>
              <LongitudeDegrees>-0.13309615664184093475341796875</LongitudeDegrees>
            </Position>
            <AltitudeMeters>2448.39990234375</AltitudeMeters>
            <DistanceMeters>19612.608773415</DistanceMeters>
          </Trackpoint>
          <Trackpoint>
            <Time>2022-07-09T15:06:12.000Z</Time>
            <Position>
              <LatitudeDegrees>42.78998005203902721405029296875</LatitudeDegrees>
              <LongitudeDegrees>-0.13308945111930370330810546875</LongitudeDegrees>
            </Position>
            <AltitudeMeters>2448</AltitudeMeters>
            <DistanceMeters>19613.253275949</DistanceMeters>
          </Trackpoint>
          <Trackpoint>
            <Time>2022-07-09T15:06:15.000Z</Time>
            <Position>
              <LatitudeDegrees>42.78999715112149715423583984375</LatitudeDegrees>
              <LongitudeDegrees>-0.13307687826454639434814453125</LongitudeDegrees>
            </Position>
            <AltitudeMeters>2447.800048828125</AltitudeMeters>
            <DistanceMeters>19615.416047226</DistanceMeters>
          </Trackpoint>
          <Trackpoint>
            <Time>2022-07-09T15:06:17.000Z</Time>
            <Position>
              <LatitudeDegrees>42.79000955633819103240966796875</LatitudeDegrees>
              <LongitudeDegrees>-0.13307536952197551727294921875</LongitudeDegrees>
            </Position>
            <AltitudeMeters>2447.39990234375</AltitudeMeters>
            <DistanceMeters>19616.799657072</DistanceMeters>
          </Trackpoint>
          <Trackpoint>
            <Time>2022-07-09T15:06:20.000Z</Time>
            <Position>
              <LatitudeDegrees>42.790023386478424072265625</LatitudeDegrees>
              <LongitudeDegrees>-0.1330789737403392791748046875</LongitudeDegrees>
            </Position>
            <AltitudeMeters>2446.800048828125</AltitudeMeters>
            <DistanceMeters>19618.366877795</DistanceMeters>
          </Trackpoint>
          <Trackpoint>
            <Time>2022-07-09T15:06:25.000Z</Time>
            <Position>
              <LatitudeDegrees>42.7900520525872707366943359375</LatitudeDegrees>
              <LongitudeDegrees>-0.13307268731296062469482421875</LongitudeDegrees>
            </Position>
            <AltitudeMeters>2445.800048828125</AltitudeMeters>
            <DistanceMeters>19621.597786083</DistanceMeters>
          </Trackpoint>
          <Trackpoint>
            <Time>2022-07-09T15:06:26.000Z</Time>
            <Position>
              <LatitudeDegrees>42.790061272680759429931640625</LatitudeDegrees>
              <LongitudeDegrees>-0.13307922519743442535400390625</LongitudeDegrees>
            </Position>
            <AltitudeMeters>2445.60009765625</AltitudeMeters>
            <DistanceMeters>19622.757734957</DistanceMeters>
          </Trackpoint>
          <Trackpoint>
            <Time>2022-07-09T15:06:30.000Z</Time>
            <Position>
              <LatitudeDegrees>42.7901388891041278839111328125</LatitudeDegrees>
              <LongitudeDegrees>-0.133093558251857757568359375</LongitudeDegrees>
            </Position>
            <AltitudeMeters>2445.60009765625</AltitudeMeters>
            <DistanceMeters>19631.47588576</DistanceMeters>
          </Trackpoint>
          <Trackpoint>
            <Time>2022-07-09T15:06:32.000Z</Time>
            <Position>
              <LatitudeDegrees>42.7901693992316722869873046875</LatitudeDegrees>
              <LongitudeDegrees>-0.1331005990505218505859375</LongitudeDegrees>
            </Position>
            <AltitudeMeters>2445.60009765625</AltitudeMeters>
            <DistanceMeters>19634.920522236</DistanceMeters>
          </Trackpoint>
          <Trackpoint>
            <Time>2022-07-09T15:06:37.000Z</Time>
            <Position>
              <LatitudeDegrees>42.7902017533779144287109375</LatitudeDegrees>
              <LongitudeDegrees>-0.1331182010471820831298828125</LongitudeDegrees>
            </Position>
            <AltitudeMeters>2445.199951171875</AltitudeMeters>
            <DistanceMeters>19638.796866803</DistanceMeters>
          </Trackpoint>
          <Trackpoint>
            <Time>2022-07-09T15:06:38.000Z</Time>
            <Position>
              <LatitudeDegrees>42.79020636342465877532958984375</LatitudeDegrees>
              <LongitudeDegrees>-0.1331242360174655914306640625</LongitudeDegrees>
            </Position>
            <AltitudeMeters>2445.199951171875</AltitudeMeters>
            <DistanceMeters>19639.507981618</DistanceMeters>
          </Trackpoint>
          <Trackpoint>
            <Time>2022-07-09T15:06:40.000Z</Time>
            <Position>
              <LatitudeDegrees>42.79021826572716236114501953125</LatitudeDegrees>
              <LongitudeDegrees>-0.13312943279743194580078125</LongitudeDegrees>
            </Position>
            <AltitudeMeters>2444.800048828125</AltitudeMeters>
            <DistanceMeters>19640.898102605</DistanceMeters>
          </Trackpoint>
          <Trackpoint>
            <Time>2022-07-09T15:06:41.000Z</Time>
            <Position>
              <LatitudeDegrees>42.79022388160228729248046875</LatitudeDegrees>
              <LongitudeDegrees>-0.13312784023582935333251953125</LongitudeDegrees>
            </Position>
            <AltitudeMeters>2444.199951171875</AltitudeMeters>
            <DistanceMeters>19641.528438519</DistanceMeters>
          </Trackpoint>
          <Trackpoint>
            <Time>2022-07-09T15:06:45.000Z</Time>
            <Position>
              <LatitudeDegrees>42.7902572415769100189208984375</LatitudeDegrees>
              <LongitudeDegrees>-0.133121721446514129638671875</LongitudeDegrees>
            </Position>
            <AltitudeMeters>2443.39990234375</AltitudeMeters>
            <DistanceMeters>19645.274468256</DistanceMeters>
          </Trackpoint>
          <Trackpoint>
            <Time>2022-07-09T15:06:48.000Z</Time>
            <Position>
              <LatitudeDegrees>42.790290601551532745361328125</LatitudeDegrees>
              <LongitudeDegrees>-0.13311459682881832122802734375</LongitudeDegrees>
            </Position>
            <AltitudeMeters>2443.199951171875</AltitudeMeters>
            <DistanceMeters>19649.034933615</DistanceMeters>
          </Trackpoint>
          <Trackpoint>
            <Time>2022-07-09T15:06:51.000Z</Time>
            <Position>
              <LatitudeDegrees>42.79032178223133087158203125</LatitudeDegrees>
              <LongitudeDegrees>-0.133101940155029296875</LongitudeDegrees>
            </Position>
            <AltitudeMeters>2442.60009765625</AltitudeMeters>
            <DistanceMeters>19652.655937757</DistanceMeters>
          </Trackpoint>
          <Trackpoint>
            <Time>2022-07-09T15:06:54.000Z</Time>
            <Position>
              <LatitudeDegrees>42.79036109335720539093017578125</LatitudeDegrees>
              <LongitudeDegrees>-0.13311468064785003662109375</LongitudeDegrees>
            </Position>
            <AltitudeMeters>2441.60009765625</AltitudeMeters>
            <DistanceMeters>19657.153422746</DistanceMeters>
          </Trackpoint>
          <Trackpoint>
            <Time>2022-07-09T15:06:58.000Z</Time>
            <Position>
              <LatitudeDegrees>42.7904030866920948028564453125</LatitudeDegrees>
              <LongitudeDegrees>-0.1331373117864131927490234375</LongitudeDegrees>
            </Position>
            <AltitudeMeters>2440.800048828125</AltitudeMeters>
            <DistanceMeters>19662.179967672</DistanceMeters>
          </Trackpoint>
          <Trackpoint>
            <Time>2022-07-09T15:07:00.000Z</Time>
            <Position>
              <LatitudeDegrees>42.79041700065135955810546875</LatitudeDegrees>
              <LongitudeDegrees>-0.1331399939954280853271484375</LongitudeDegrees>
            </Position>
            <AltitudeMeters>2440</AltitudeMeters>
            <DistanceMeters>19663.741415923</DistanceMeters>
          </Trackpoint>
          <Trackpoint>
            <Time>2022-07-09T15:07:02.000Z</Time>
            <Position>
              <LatitudeDegrees>42.7904270589351654052734375</LatitudeDegrees>
              <LongitudeDegrees>-0.13313856907188892364501953125</LongitudeDegrees>
            </Position>
            <AltitudeMeters>2439.199951171875</AltitudeMeters>
            <DistanceMeters>19664.869795637</DistanceMeters>
          </Trackpoint>
          <Trackpoint>
            <Time>2022-07-09T15:07:04.000Z</Time>
            <Position>
              <LatitudeDegrees>42.79044122435152530670166015625</LatitudeDegrees>
              <LongitudeDegrees>-0.1331420056521892547607421875</LongitudeDegrees>
            </Position>
            <AltitudeMeters>2439</AltitudeMeters>
            <DistanceMeters>19666.471214292</DistanceMeters>
          </Trackpoint>
          <Trackpoint>
            <Time>2022-07-09T15:07:10.000Z</Time>
            <Position>
              <LatitudeDegrees>42.7904855646193027496337890625</LatitudeDegrees>
              <LongitudeDegrees>-0.1331389881670475006103515625</LongitudeDegrees>
            </Position>
            <AltitudeMeters>2438.199951171875</AltitudeMeters>
            <DistanceMeters>19671.412603439</DistanceMeters>
          </Trackpoint>
          <Trackpoint>
            <Time>2022-07-09T15:07:11.000Z</Time>
            <Position>
              <LatitudeDegrees>42.7904905937612056732177734375</LatitudeDegrees>
              <LongitudeDegrees>-0.1331356354057788848876953125</LongitudeDegrees>
            </Position>
            <AltitudeMeters>2438.199951171875</AltitudeMeters>
            <DistanceMeters>19672.028446935</DistanceMeters>
          </Trackpoint>
          <Trackpoint>
            <Time>2022-07-09T15:07:16.000Z</Time>
            <Position>
              <LatitudeDegrees>42.79048380441963672637939453125</LatitudeDegrees>
              <LongitudeDegrees>-0.13312876224517822265625</LongitudeDegrees>
            </Position>
            <AltitudeMeters>2437.800048828125</AltitudeMeters>
            <DistanceMeters>19672.969163413</DistanceMeters>
          </Trackpoint>
          <Trackpoint>
            <Time>2022-07-09T15:07:17.000Z</Time>
            <Position>
              <LatitudeDegrees>42.79047525487840175628662109375</LatitudeDegrees>
              <LongitudeDegrees>-0.13312406837940216064453125</LongitudeDegrees>
            </Position>
            <AltitudeMeters>2437.199951171875</AltitudeMeters>
            <DistanceMeters>19674.001417752</DistanceMeters>
          </Trackpoint>
          <Trackpoint>
            <Time>2022-07-09T15:07:18.000Z</Time>
            <Position>
              <LatitudeDegrees>42.79046662151813507080078125</LatitudeDegrees>
              <LongitudeDegrees>-0.13312214054167270660400390625</LongitudeDegrees>
            </Position>
            <AltitudeMeters>2436.800048828125</AltitudeMeters>
            <DistanceMeters>19674.979777656</DistanceMeters>
          </Trackpoint>
          <Trackpoint>
            <Time>2022-07-09T15:07:22.000Z</Time>
            <Position>
              <LatitudeDegrees>42.79042630456387996673583984375</LatitudeDegrees>
              <LongitudeDegrees>-0.13314778916537761688232421875</LongitudeDegrees>
            </Position>
            <AltitudeMeters>2435.60009765625</AltitudeMeters>
            <DistanceMeters>19679.932119286</DistanceMeters>
          </Trackpoint>
          <Trackpoint>
            <Time>2022-07-09T15:07:24.000Z</Time>
            <Position>
              <LatitudeDegrees>42.79041507281363010406494140625</LatitudeDegrees>
              <LongitudeDegrees>-0.1331701688468456268310546875</LongitudeDegrees>
            </Position>
            <AltitudeMeters>2435.199951171875</AltitudeMeters>
            <DistanceMeters>19682.148504087</DistanceMeters>
          </Trackpoint>
          <Trackpoint>
            <Time>2022-07-09T15:07:26.000Z</Time>
            <Position>
              <LatitudeDegrees>42.7904067747294902801513671875</LatitudeDegrees>
              <LongitudeDegrees>-0.133186094462871551513671875</LongitudeDegrees>
            </Position>
            <AltitudeMeters>2434.39990234375</AltitudeMeters>
            <DistanceMeters>19683.744273982</DistanceMeters>
          </Trackpoint>
          <Trackpoint>
            <Time>2022-07-09T15:07:30.000Z</Time>
            <Position>
              <LatitudeDegrees>42.79038020409643650054931640625</LatitudeDegrees>
              <LongitudeDegrees>-0.1332218013703823089599609375</LongitudeDegrees>
            </Position>
            <AltitudeMeters>2433.60009765625</AltitudeMeters>
            <DistanceMeters>19687.897278438</DistanceMeters>
          </Trackpoint>
          <Trackpoint>
            <Time>2022-07-09T15:07:31.000Z</Time>
            <Position>
              <LatitudeDegrees>42.790371067821979522705078125</LatitudeDegrees>
              <LongitudeDegrees>-0.13322624377906322479248046875</LongitudeDegrees>
            </Position>
            <AltitudeMeters>2433.39990234375</AltitudeMeters>
            <DistanceMeters>19688.980749682</DistanceMeters>
          </Trackpoint>
          <Trackpoint>
            <Time>2022-07-09T15:07:32.000Z</Time>
            <Position>
              <LatitudeDegrees>42.79036159627139568328857421875</LatitudeDegrees>
              <LongitudeDegrees>-0.1332347095012664794921875</LongitudeDegrees>
            </Position>
            <AltitudeMeters>2433.199951171875</AltitudeMeters>
            <DistanceMeters>19690.241421509</DistanceMeters>
          </Trackpoint>
          <Trackpoint>
            <Time>2022-07-09T15:07:36.000Z</Time>
            <Position>
              <LatitudeDegrees>42.790342234075069427490234375</LatitudeDegrees>
              <LongitudeDegrees>-0.133264549076557159423828125</LongitudeDegrees>
            </Position>
            <AltitudeMeters>2432.199951171875</AltitudeMeters>
            <DistanceMeters>19693.495999771</DistanceMeters>
          </Trackpoint>
          <Trackpoint>
            <Time>2022-07-09T15:07:38.000Z</Time>
            <Position>
              <LatitudeDegrees>42.79035103507339954376220703125</LatitudeDegrees>
              <LongitudeDegrees>-0.133290030062198638916015625</LongitudeDegrees>
            </Position>
            <AltitudeMeters>2431.800048828125</AltitudeMeters>
            <DistanceMeters>19695.800275135</DistanceMeters>
          </Trackpoint>
          <Trackpoint>
            <Time>2022-07-09T15:07:39.000Z</Time>
            <Position>
              <LatitudeDegrees>42.79036411084234714508056640625</LatitudeDegrees>
              <LongitudeDegrees>-0.13330318965017795562744140625</LongitudeDegrees>
            </Position>
            <AltitudeMeters>2431.60009765625</AltitudeMeters>
            <DistanceMeters>19697.610777206</DistanceMeters>
          </Trackpoint>
          <Trackpoint>
            <Time>2022-07-09T15:07:40.000Z</Time>
            <Position>
              <LatitudeDegrees>42.79037668369710445404052734375</LatitudeDegrees>
              <LongitudeDegrees>-0.133314169943332672119140625</LongitudeDegrees>
            </Position>
            <AltitudeMeters>2431.199951171875</AltitudeMeters>
            <DistanceMeters>19699.273065806</DistanceMeters>
          </Trackpoint>
          <Trackpoint>
            <Time>2022-07-09T15:07:44.000Z</Time>
            <Position>
              <LatitudeDegrees>42.79041926376521587371826171875</LatitudeDegrees>
              <LongitudeDegrees>-0.1333317719399929046630859375</LongitudeDegrees>
            </Position>
            <AltitudeMeters>2430.39990234375</AltitudeMeters>
            <DistanceMeters>19704.225407436</DistanceMeters>
          </Trackpoint>
          <Trackpoint>
            <Time>2022-07-09T15:07:45.000Z</Time>
            <Position>
              <LatitudeDegrees>42.79043083079159259796142578125</LatitudeDegrees>
              <LongitudeDegrees>-0.13333269394934177398681640625</LongitudeDegrees>
            </Position>
            <AltitudeMeters>2430.199951171875</AltitudeMeters>
            <DistanceMeters>19705.517910489</DistanceMeters>
          </Trackpoint>
          <Trackpoint>
            <Time>2022-07-09T15:07:49.000Z</Time>
            <Position>
              <LatitudeDegrees>42.79048715718090534210205078125</LatitudeDegrees>
              <LongitudeDegrees>-0.1333431713283061981201171875</LongitudeDegrees>
            </Position>
            <AltitudeMeters>2430</AltitudeMeters>
            <DistanceMeters>19711.845576643</DistanceMeters>
          </Trackpoint>
          <Trackpoint>
            <Time>2022-07-09T15:07:51.000Z</Time>
            <Position>
              <LatitudeDegrees>42.79050576500594615936279296875</LatitudeDegrees>
              <LongitudeDegrees>-0.13334711082279682159423828125</LongitudeDegrees>
            </Position>
            <AltitudeMeters>2429.199951171875</AltitudeMeters>
            <DistanceMeters>19713.940479302</DistanceMeters>
          </Trackpoint>
          <Trackpoint>
            <Time>2022-07-09T15:07:54.000Z</Time>
            <Position>
              <LatitudeDegrees>42.7905257977545261383056640625</LatitudeDegrees>
              <LongitudeDegrees>-0.1333525590598583221435546875</LongitudeDegrees>
            </Position>
            <AltitudeMeters>2428</AltitudeMeters>
            <DistanceMeters>19716.213187758</DistanceMeters>
          </Trackpoint>
          <Trackpoint>
            <Time>2022-07-09T15:07:57.000Z</Time>
            <Position>
              <LatitudeDegrees>42.7905479259788990020751953125</LatitudeDegrees>
              <LongitudeDegrees>-0.1333478651940822601318359375</LongitudeDegrees>
            </Position>
            <AltitudeMeters>2427.60009765625</AltitudeMeters>
            <DistanceMeters>19718.705715109</DistanceMeters>
          </Trackpoint>
          <Trackpoint>
            <Time>2022-07-09T15:08:00.000Z</Time>
            <Position>
              <LatitudeDegrees>42.7905697189271450042724609375</LatitudeDegrees>
              <LongitudeDegrees>-0.1333151757717132568359375</LongitudeDegrees>
            </Position>
            <AltitudeMeters>2427</AltitudeMeters>
            <DistanceMeters>19722.311725381</DistanceMeters>
          </Trackpoint>
          <Trackpoint>
            <Time>2022-07-09T15:08:02.000Z</Time>
            <Position>
              <LatitudeDegrees>42.7905826270580291748046875</LatitudeDegrees>
              <LongitudeDegrees>-0.13330570422112941741943359375</LongitudeDegrees>
            </Position>
            <AltitudeMeters>2426.39990234375</AltitudeMeters>
            <DistanceMeters>19723.943862798</DistanceMeters>
          </Trackpoint>
          <Trackpoint>
            <Time>2022-07-09T15:08:03.000Z</Time>
            <Position>
              <LatitudeDegrees>42.790586985647678375244140625</LatitudeDegrees>
              <LongitudeDegrees>-0.1333005912601947784423828125</LongitudeDegrees>
            </Position>
            <AltitudeMeters>2426.39990234375</AltitudeMeters>
            <DistanceMeters>19724.574198712</DistanceMeters>
          </Trackpoint>
          <Trackpoint>
            <Time>2022-07-09T15:08:05.000Z</Time>
            <Position>
              <LatitudeDegrees>42.79059159569442272186279296875</LatitudeDegrees>
              <LongitudeDegrees>-0.13329799287021160125732421875</LongitudeDegrees>
            </Position>
            <AltitudeMeters>2426</AltitudeMeters>
            <DistanceMeters>19725.128294912</DistanceMeters>
          </Trackpoint>
          <Trackpoint>
            <Time>2022-07-09T15:08:09.000Z</Time>
            <Position>
              <LatitudeDegrees>42.79056259430944919586181640625</LatitudeDegrees>
              <LongitudeDegrees>-0.13331240974366664886474609375</LongitudeDegrees>
            </Position>
            <AltitudeMeters>2425.199951171875</AltitudeMeters>
            <DistanceMeters>19728.563743924</DistanceMeters>
          </Trackpoint>
          <Trackpoint>
            <Time>2022-07-09T15:08:11.000Z</Time>
            <Position>
              <LatitudeDegrees>42.79054197482764720916748046875</LatitudeDegrees>
              <LongitudeDegrees>-0.13332816772162914276123046875</LongitudeDegrees>
            </Position>
            <AltitudeMeters>2424.39990234375</AltitudeMeters>
            <DistanceMeters>19731.197201482</DistanceMeters>
          </Trackpoint>
          <Trackpoint>
            <Time>2022-07-09T15:08:14.000Z</Time>
            <Position>
              <LatitudeDegrees>42.79052001424133777618408203125</LatitudeDegrees>
              <LongitudeDegrees>-0.1333488710224628448486328125</LongitudeDegrees>
            </Position>
            <AltitudeMeters>2423.60009765625</AltitudeMeters>
            <DistanceMeters>19734.170490038</DistanceMeters>
          </Trackpoint>
          <Trackpoint>
            <Time>2022-07-09T15:08:15.000Z</Time>
            <Position>
              <LatitudeDegrees>42.7905123867094516754150390625</LatitudeDegrees>
              <LongitudeDegrees>-0.13336001895368099212646484375</LongitudeDegrees>
            </Position>
            <AltitudeMeters>2423.39990234375</AltitudeMeters>
            <DistanceMeters>19735.416753713</DistanceMeters>
          </Trackpoint>
          <Trackpoint>
            <Time>2022-07-09T15:08:16.000Z</Time>
            <Position>
              <LatitudeDegrees>42.79050341807305812835693359375</LatitudeDegrees>
              <LongitudeDegrees>-0.13336840085685253143310546875</LongitudeDegrees>
            </Position>
            <AltitudeMeters>2423.39990234375</AltitudeMeters>
            <DistanceMeters>19736.626246327</DistanceMeters>
          </Trackpoint>
          <Trackpoint>
            <Time>2022-07-09T15:08:21.000Z</Time>
            <Position>
              <LatitudeDegrees>42.7904634363949298858642578125</LatitudeDegrees>
              <LongitudeDegrees>-0.1333958096802234649658203125</LongitudeDegrees>
            </Position>
            <AltitudeMeters>2422.39990234375</AltitudeMeters>
            <DistanceMeters>19741.607676852</DistanceMeters>
          </Trackpoint>
          <Trackpoint>
            <Time>2022-07-09T15:08:22.000Z</Time>
            <Position>
              <LatitudeDegrees>42.79045580886304378509521484375</LatitudeDegrees>
              <LongitudeDegrees>-0.13340511359274387359619140625</LongitudeDegrees>
            </Position>
            <AltitudeMeters>2422.39990234375</AltitudeMeters>
            <DistanceMeters>19742.747997424</DistanceMeters>
          </Trackpoint>
          <Trackpoint>
            <Time>2022-07-09T15:08:23.000Z</Time>
            <Position>
              <LatitudeDegrees>42.79044575057923793792724609375</LatitudeDegrees>
              <LongitudeDegrees>-0.1334149204194545745849609375</LongitudeDegrees>
            </Position>
            <AltitudeMeters>2422.39990234375</AltitudeMeters>
            <DistanceMeters>19744.125065343</DistanceMeters>
          </Trackpoint>
          <Trackpoint>
            <Time>2022-07-09T15:08:24.000Z</Time>
            <Position>
              <LatitudeDegrees>42.790434099733829498291015625</LatitudeDegrees>
              <LongitudeDegrees>-0.1334222964942455291748046875</LongitudeDegrees>
            </Position>
            <AltitudeMeters>2421.60009765625</AltitudeMeters>
            <DistanceMeters>19745.553630104</DistanceMeters>
          </Trackpoint>
          <Trackpoint>
            <Time>2022-07-09T15:08:27.000Z</Time>
            <Position>
              <LatitudeDegrees>42.7903936989605426788330078125</LatitudeDegrees>
              <LongitudeDegrees>-0.133431516587734222412109375</LongitudeDegrees>
            </Position>
            <AltitudeMeters>2420</AltitudeMeters>
            <DistanceMeters>19750.112932241</DistanceMeters>
          </Trackpoint>
          <Trackpoint>
            <Time>2022-07-09T15:08:28.000Z</Time>
            <Position>
              <LatitudeDegrees>42.79038506560027599334716796875</LatitudeDegrees>
              <LongitudeDegrees>-0.13344014994800090789794921875</LongitudeDegrees>
            </Position>
            <AltitudeMeters>2419.199951171875</AltitudeMeters>
            <DistanceMeters>19751.307399519</DistanceMeters>
          </Trackpoint>
          <Trackpoint>
            <Time>2022-07-09T15:08:29.000Z</Time>
            <Position>
              <LatitudeDegrees>42.79037542641162872314453125</LatitudeDegrees>
              <LongitudeDegrees>-0.13344836421310901641845703125</LongitudeDegrees>
            </Position>
            <AltitudeMeters>2418.60009765625</AltitudeMeters>
            <DistanceMeters>19752.575214019</DistanceMeters>
          </Trackpoint>
          <Trackpoint>
            <Time>2022-07-09T15:08:32.000Z</Time>
            <Position>
              <LatitudeDegrees>42.79033678583800792694091796875</LatitudeDegrees>
              <LongitudeDegrees>-0.13345590792596340179443359375</LongitudeDegrees>
            </Position>
            <AltitudeMeters>2418.199951171875</AltitudeMeters>
            <DistanceMeters>19756.919504498</DistanceMeters>
          </Trackpoint>
          <Trackpoint>
            <Time>2022-07-09T15:08:35.000Z</Time>
            <Position>
              <LatitudeDegrees>42.7903055213391780853271484375</LatitudeDegrees>
              <LongitudeDegrees>-0.1334735937416553497314453125</LongitudeDegrees>
            </Position>
            <AltitudeMeters>2418</AltitudeMeters>
            <DistanceMeters>19760.687166926</DistanceMeters>
          </Trackpoint>
          <Trackpoint>
            <Time>2022-07-09T15:08:36.000Z</Time>
            <Position>
              <LatitudeDegrees>42.7902964688837528228759765625</LatitudeDegrees>
              <LongitudeDegrees>-0.13348155654966831207275390625</LongitudeDegrees>
            </Position>
            <AltitudeMeters>2417.199951171875</AltitudeMeters>
            <DistanceMeters>19761.88917035</DistanceMeters>
          </Trackpoint>
          <Trackpoint>
            <Time>2022-07-09T15:08:37.000Z</Time>
            <Position>
              <LatitudeDegrees>42.7902907691895961761474609375</LatitudeDegrees>
              <LongitudeDegrees>-0.13349144719541072845458984375</LongitudeDegrees>
            </Position>
            <AltitudeMeters>2417</AltitudeMeters>
            <DistanceMeters>19762.912639386</DistanceMeters>
          </Trackpoint>
          <Trackpoint>
            <Time>2022-07-09T15:08:41.000Z</Time>
            <Position>
              <LatitudeDegrees>42.790261767804622650146484375</LatitudeDegrees>
              <LongitudeDegrees>-0.13351240195333957672119140625</LongitudeDegrees>
            </Position>
            <AltitudeMeters>2416</AltitudeMeters>
            <DistanceMeters>19766.565919143</DistanceMeters>
          </Trackpoint>
          <Trackpoint>
            <Time>2022-07-09T15:08:42.000Z</Time>
            <Position>
              <LatitudeDegrees>42.7902553975582122802734375</LatitudeDegrees>
              <LongitudeDegrees>-0.1335190236568450927734375</LongitudeDegrees>
            </Position>
            <AltitudeMeters>2415.800048828125</AltitudeMeters>
            <DistanceMeters>19767.45734874</DistanceMeters>
          </Trackpoint>
          <Trackpoint>
            <Time>2022-07-09T15:08:45.000Z</Time>
            <Position>
              <LatitudeDegrees>42.79023854993283748626708984375</LatitudeDegrees>
              <LongitudeDegrees>-0.13355649076402187347412109375</LongitudeDegrees>
            </Position>
            <AltitudeMeters>2414.800048828125</AltitudeMeters>
            <DistanceMeters>19771.045786981</DistanceMeters>
          </Trackpoint>
          <Trackpoint>
            <Time>2022-07-09T15:08:47.000Z</Time>
            <Position>
              <LatitudeDegrees>42.79025137424468994140625</LatitudeDegrees>
              <LongitudeDegrees>-0.13358498923480510711669921875</LongitudeDegrees>
            </Position>
            <AltitudeMeters>2414.39990234375</AltitudeMeters>
            <DistanceMeters>19773.776875252</DistanceMeters>
          </Trackpoint>
          <Trackpoint>
            <Time>2022-07-09T15:08:48.000Z</Time>
            <Position>
              <LatitudeDegrees>42.79026805423200130462646484375</LatitudeDegrees>
              <LongitudeDegrees>-0.133602507412433624267578125</LongitudeDegrees>
            </Position>
            <AltitudeMeters>2414.199951171875</AltitudeMeters>
            <DistanceMeters>19776.121937416</DistanceMeters>
          </Trackpoint>
          <Trackpoint>
            <Time>2022-07-09T15:08:50.000Z</Time>
            <Position>
              <LatitudeDegrees>42.79029428958892822265625</LatitudeDegrees>
              <LongitudeDegrees>-0.13362270779907703399658203125</LongitudeDegrees>
            </Position>
            <AltitudeMeters>2413.800048828125</AltitudeMeters>
            <DistanceMeters>19779.476259292</DistanceMeters>
          </Trackpoint>
          <Trackpoint>
            <Time>2022-07-09T15:08:51.000Z</Time>
            <Position>
              <LatitudeDegrees>42.79030795209109783172607421875</LatitudeDegrees>
              <LongitudeDegrees>-0.13362773694097995758056640625</LongitudeDegrees>
            </Position>
            <AltitudeMeters>2413.60009765625</AltitudeMeters>
            <DistanceMeters>19781.049231303</DistanceMeters>
          </Trackpoint>
          <Trackpoint>
            <Time>2022-07-09T15:08:52.000Z</Time>
            <Position>
              <LatitudeDegrees>42.7903211116790771484375</LatitudeDegrees>
              <LongitudeDegrees>-0.1336294971406459808349609375</LongitudeDegrees>
            </Position>
            <AltitudeMeters>2413.39990234375</AltitudeMeters>
            <DistanceMeters>19782.521378832</DistanceMeters>
          </Trackpoint>
          <Trackpoint>
            <Time>2022-07-09T15:08:53.000Z</Time>
            <Position>
              <LatitudeDegrees>42.79033460654318332672119140625</LatitudeDegrees>
              <LongitudeDegrees>-0.1336315087974071502685546875</LongitudeDegrees>
            </Position>
            <AltitudeMeters>2413</AltitudeMeters>
            <DistanceMeters>19784.029881156</DistanceMeters>
          </Trackpoint>
          <Trackpoint>
            <Time>2022-07-09T15:08:55.000Z</Time>
            <Position>
              <LatitudeDegrees>42.7903601713478565216064453125</LatitudeDegrees>
              <LongitudeDegrees>-0.13363695703446865081787109375</LongitudeDegrees>
            </Position>
            <AltitudeMeters>2412.60009765625</AltitudeMeters>
            <DistanceMeters>19786.90904947</DistanceMeters>
          </Trackpoint>
          <Trackpoint>
            <Time>2022-07-09T15:08:59.000Z</Time>
            <Position>
              <LatitudeDegrees>42.79040493071079254150390625</LatitudeDegrees>
              <LongitudeDegrees>-0.13365321792662143707275390625</LongitudeDegrees>
            </Position>
            <AltitudeMeters>2411.39990234375</AltitudeMeters>
            <DistanceMeters>19792.064193985</DistanceMeters>
          </Trackpoint>
          <Trackpoint>
            <Time>2022-07-09T15:09:01.000Z</Time>
            <Position>
              <LatitudeDegrees>42.79042177833616733551025390625</LatitudeDegrees>
              <LongitudeDegrees>-0.1336600072681903839111328125</LongitudeDegrees>
            </Position>
            <AltitudeMeters>2410.39990234375</AltitudeMeters>
            <DistanceMeters>19794.020913794</DistanceMeters>
          </Trackpoint>
          <Trackpoint>
            <Time>2022-07-09T15:09:04.000Z</Time>
            <Position>
              <LatitudeDegrees>42.79045228846371173858642578125</LatitudeDegrees>
              <LongitudeDegrees>-0.13367786072194576263427734375</LongitudeDegrees>
            </Position>
            <AltitudeMeters>2409.60009765625</AltitudeMeters>
            <DistanceMeters>19797.715974766</DistanceMeters>
          </Trackpoint>
          <Trackpoint>
            <Time>2022-07-09T15:09:06.000Z</Time>
            <Position>
              <LatitudeDegrees>42.7904758416116237640380859375</LatitudeDegrees>
              <LongitudeDegrees>-0.13368959538638591766357421875</LongitudeDegrees>
            </Position>
            <AltitudeMeters>2409.199951171875</AltitudeMeters>
            <DistanceMeters>19800.509178312</DistanceMeters>
          </Trackpoint>
          <Trackpoint>
            <Time>2022-07-09T15:09:09.000Z</Time>
            <Position>
              <LatitudeDegrees>42.79049201868474483489990234375</LatitudeDegrees>
              <LongitudeDegrees>-0.13370719738304615020751953125</LongitudeDegrees>
            </Position>
            <AltitudeMeters>2408.199951171875</AltitudeMeters>
            <DistanceMeters>19802.813453675</DistanceMeters>
          </Trackpoint>
          <Trackpoint>
            <Time>2022-07-09T15:09:10.000Z</Time>
            <Position>
              <LatitudeDegrees>42.7904969640076160430908203125</LatitudeDegrees>
              <LongitudeDegrees>-0.133711136877536773681640625</LongitudeDegrees>
            </Position>
            <AltitudeMeters>2408.199951171875</AltitudeMeters>
            <DistanceMeters>19803.450912254</DistanceMeters>
          </Trackpoint>
          <Trackpoint>
            <Time>2022-07-09T15:09:15.000Z</Time>
            <Position>
              <LatitudeDegrees>42.7905314974486827850341796875</LatitudeDegrees>
              <LongitudeDegrees>-0.13372278772294521331787109375</LongitudeDegrees>
            </Position>
            <AltitudeMeters>2406.800048828125</AltitudeMeters>
            <DistanceMeters>19807.410231981</DistanceMeters>
          </Trackpoint>
          <Trackpoint>
            <Time>2022-07-09T15:09:16.000Z</Time>
            <Position>
              <LatitudeDegrees>42.79053878970444202423095703125</LatitudeDegrees>
              <LongitudeDegrees>-0.13372479937970638275146484375</LongitudeDegrees>
            </Position>
            <AltitudeMeters>2406.39990234375</AltitudeMeters>
            <DistanceMeters>19808.238655671</DistanceMeters>
          </Trackpoint>
          <Trackpoint>
            <Time>2022-07-09T15:09:18.000Z</Time>
            <Position>
              <LatitudeDegrees>42.79055840335786342620849609375</LatitudeDegrees>
              <LongitudeDegrees>-0.13373251073062419891357421875</LongitudeDegrees>
            </Position>
            <AltitudeMeters>2406</AltitudeMeters>
            <DistanceMeters>19810.511364127</DistanceMeters>
          </Trackpoint>
          <Trackpoint>
            <Time>2022-07-09T15:09:19.000Z</Time>
            <Position>
              <LatitudeDegrees>42.79056913219392299652099609375</LatitudeDegrees>
              <LongitudeDegrees>-0.1337394677102565765380859375</LongitudeDegrees>
            </Position>
            <AltitudeMeters>2405.800048828125</AltitudeMeters>
            <DistanceMeters>19811.834933102</DistanceMeters>
          </Trackpoint>
          <Trackpoint>
            <Time>2022-07-09T15:09:22.000Z</Time>
            <Position>
              <LatitudeDegrees>42.79059712775051593780517578125</LatitudeDegrees>
              <LongitudeDegrees>-0.1337485201656818389892578125</LongitudeDegrees>
            </Position>
            <AltitudeMeters>2405.199951171875</AltitudeMeters>
            <DistanceMeters>19815.037770413</DistanceMeters>
          </Trackpoint>
          <Trackpoint>
            <Time>2022-07-09T15:09:24.000Z</Time>
            <Position>
              <LatitudeDegrees>42.7906156517565250396728515625</LatitudeDegrees>
              <LongitudeDegrees>-0.13375178910791873931884765625</LongitudeDegrees>
            </Position>
            <AltitudeMeters>2404.39990234375</AltitudeMeters>
            <DistanceMeters>19817.117531605</DistanceMeters>
          </Trackpoint>
          <Trackpoint>
            <Time>2022-07-09T15:09:29.000Z</Time>
            <Position>
              <LatitudeDegrees>42.79066787101328372955322265625</LatitudeDegrees>
              <LongitudeDegrees>-0.13377928175032138824462890625</LongitudeDegrees>
            </Position>
            <AltitudeMeters>2403.199951171875</AltitudeMeters>
            <DistanceMeters>19823.347400669</DistanceMeters>
          </Trackpoint>
          <Trackpoint>
            <Time>2022-07-09T15:09:33.000Z</Time>
            <Position>
              <LatitudeDegrees>42.7907060086727142333984375</LatitudeDegrees>
              <LongitudeDegrees>-0.133796632289886474609375</LongitudeDegrees>
            </Position>
            <AltitudeMeters>2402.199951171875</AltitudeMeters>
            <DistanceMeters>19827.822745298</DistanceMeters>
          </Trackpoint>
          <Trackpoint>
            <Time>2022-07-09T15:09:35.000Z</Time>
            <Position>
              <LatitudeDegrees>42.790707685053348541259765625</LatitudeDegrees>
              <LongitudeDegrees>-0.1338033378124237060546875</LongitudeDegrees>
            </Position>
            <AltitudeMeters>2401.800048828125</AltitudeMeters>
            <DistanceMeters>19828.408529307</DistanceMeters>
          </Trackpoint>
          <Trackpoint>
            <Time>2022-07-09T15:09:37.000Z</Time>
            <Position>
              <LatitudeDegrees>42.7906954474747180938720703125</LatitudeDegrees>
              <LongitudeDegrees>-0.133798308670520782470703125</LongitudeDegrees>
            </Position>
            <AltitudeMeters>2401.60009765625</AltitudeMeters>
            <DistanceMeters>19829.830758938</DistanceMeters>
          </Trackpoint>
          <Trackpoint>
            <Time>2022-07-09T15:09:41.000Z</Time>
            <Position>
              <LatitudeDegrees>42.79064306057989597320556640625</LatitudeDegrees>
              <LongitudeDegrees>-0.1337979733943939208984375</LongitudeDegrees>
            </Position>
            <AltitudeMeters>2401.199951171875</AltitudeMeters>
            <DistanceMeters>19835.661559725</DistanceMeters>
          </Trackpoint>
          <Trackpoint>
            <Time>2022-07-09T15:09:44.000Z</Time>
            <Position>
              <LatitudeDegrees>42.7906146459281444549560546875</LatitudeDegrees>
              <LongitudeDegrees>-0.13383041135966777801513671875</LongitudeDegrees>
            </Position>
            <AltitudeMeters>2400.60009765625</AltitudeMeters>
            <DistanceMeters>19839.788389522</DistanceMeters>
          </Trackpoint>
          <Trackpoint>
            <Time>2022-07-09T15:09:45.000Z</Time>
            <Position>
              <LatitudeDegrees>42.79060567729175090789794921875</LatitudeDegrees>
              <LongitudeDegrees>-0.13384382240474224090576171875</LongitudeDegrees>
            </Position>
            <AltitudeMeters>2400.60009765625</AltitudeMeters>
            <DistanceMeters>19841.266658272</DistanceMeters>
          </Trackpoint>
          <Trackpoint>
            <Time>2022-07-09T15:09:49.000Z</Time>
            <Position>
              <LatitudeDegrees>42.79056452214717864990234375</LatitudeDegrees>
              <LongitudeDegrees>-0.13387366198003292083740234375</LongitudeDegrees>
            </Position>
            <AltitudeMeters>2400</AltitudeMeters>
            <DistanceMeters>19846.4558478</DistanceMeters>
          </Trackpoint>
          <Trackpoint>
            <Time>2022-07-09T15:09:50.000Z</Time>
            <Position>
              <LatitudeDegrees>42.79055438004434108734130859375</LatitudeDegrees>
              <LongitudeDegrees>-0.133886151015758514404296875</LongitudeDegrees>
            </Position>
            <AltitudeMeters>2399.800048828125</AltitudeMeters>
            <DistanceMeters>19847.97627523</DistanceMeters>
          </Trackpoint>
          <Trackpoint>
            <Time>2022-07-09T15:09:54.000Z</Time>
            <Position>
              <LatitudeDegrees>42.7905184216797351837158203125</LatitudeDegrees>
              <LongitudeDegrees>-0.1339111290872097015380859375</LongitudeDegrees>
            </Position>
            <AltitudeMeters>2398.800048828125</AltitudeMeters>
            <DistanceMeters>19852.469742814</DistanceMeters>
          </Trackpoint>
          <Trackpoint>
            <Time>2022-07-09T15:09:57.000Z</Time>
            <Position>
              <LatitudeDegrees>42.79050576500594615936279296875</LatitudeDegrees>
              <LongitudeDegrees>-0.13393250294029712677001953125</LongitudeDegrees>
            </Position>
            <AltitudeMeters>2398.39990234375</AltitudeMeters>
            <DistanceMeters>19854.714466106</DistanceMeters>
          </Trackpoint>
          <Trackpoint>
            <Time>2022-07-09T15:09:59.000Z</Time>
            <Position>
              <LatitudeDegrees>42.7904882468283176422119140625</LatitudeDegrees>
              <LongitudeDegrees>-0.133929066359996795654296875</LongitudeDegrees>
            </Position>
            <AltitudeMeters>2398.199951171875</AltitudeMeters>
            <DistanceMeters>19856.684981995</DistanceMeters>
          </Trackpoint>
          <Trackpoint>
            <Time>2022-07-09T15:10:01.000Z</Time>
            <Position>
              <LatitudeDegrees>42.79046670533716678619384765625</LatitudeDegrees>
              <LongitudeDegrees>-0.13393007218837738037109375</LongitudeDegrees>
            </Position>
            <AltitudeMeters>2397.60009765625</AltitudeMeters>
            <DistanceMeters>19859.085229643</DistanceMeters>
          </Trackpoint>
          <Trackpoint>
            <Time>2022-07-09T15:10:04.000Z</Time>
            <Position>
              <LatitudeDegrees>42.79043854214251041412353515625</LatitudeDegrees>
              <LongitudeDegrees>-0.1339674554765224456787109375</LongitudeDegrees>
            </Position>
            <AltitudeMeters>2397</AltitudeMeters>
            <DistanceMeters>19863.46058815</DistanceMeters>
          </Trackpoint>
          <Trackpoint>
            <Time>2022-07-09T15:10:05.000Z</Time>
            <Position>
              <LatitudeDegrees>42.79043041169643402099609375</LatitudeDegrees>
              <LongitudeDegrees>-0.13397541828453540802001953125</LongitudeDegrees>
            </Position>
            <AltitudeMeters>2396.800048828125</AltitudeMeters>
            <DistanceMeters>19864.576899284</DistanceMeters>
          </Trackpoint>
          <Trackpoint>
            <Time>2022-07-09T15:10:06.000Z</Time>
            <Position>
              <LatitudeDegrees>42.79041968286037445068359375</LatitudeDegrees>
              <LongitudeDegrees>-0.133980698883533477783203125</LongitudeDegrees>
            </Position>
            <AltitudeMeters>2396.60009765625</AltitudeMeters>
            <DistanceMeters>19865.837571111</DistanceMeters>
          </Trackpoint>
          <Trackpoint>
            <Time>2022-07-09T15:10:08.000Z</Time>
            <Position>
              <LatitudeDegrees>42.7904004044830799102783203125</LatitudeDegrees>
              <LongitudeDegrees>-0.1339969597756862640380859375</LongitudeDegrees>
            </Position>
            <AltitudeMeters>2396.60009765625</AltitudeMeters>
            <DistanceMeters>19868.362493678</DistanceMeters>
          </Trackpoint>
          <Trackpoint>
            <Time>2022-07-09T15:10:12.000Z</Time>
            <Position>
              <LatitudeDegrees>42.790356986224651336669921875</LatitudeDegrees>
              <LongitudeDegrees>-0.13403124175965785980224609375</LongitudeDegrees>
            </Position>
            <AltitudeMeters>2395.39990234375</AltitudeMeters>
            <DistanceMeters>19873.948900769</DistanceMeters>
          </Trackpoint>
          <Trackpoint>
            <Time>2022-07-09T15:10:13.000Z</Time>
            <Position>
              <LatitudeDegrees>42.7903497777879238128662109375</LatitudeDegrees>
              <LongitudeDegrees>-0.134035013616085052490234375</LongitudeDegrees>
            </Position>
            <AltitudeMeters>2395.39990234375</AltitudeMeters>
            <DistanceMeters>19874.809404266</DistanceMeters>
          </Trackpoint>
          <Trackpoint>
            <Time>2022-07-09T15:10:19.000Z</Time>
            <Position>
              <LatitudeDegrees>42.79030661098659038543701171875</LatitudeDegrees>
              <LongitudeDegrees>-0.134090669453144073486328125</LongitudeDegrees>
            </Position>
            <AltitudeMeters>2394.60009765625</AltitudeMeters>
            <DistanceMeters>19881.423836999</DistanceMeters>
          </Trackpoint>
          <Trackpoint>
            <Time>2022-07-09T15:10:21.000Z</Time>
            <Position>
              <LatitudeDegrees>42.79028599150478839874267578125</LatitudeDegrees>
              <LongitudeDegrees>-0.13409846462309360504150390625</LongitudeDegrees>
            </Position>
            <AltitudeMeters>2394.39990234375</AltitudeMeters>
            <DistanceMeters>19883.805199635</DistanceMeters>
          </Trackpoint>
          <Trackpoint>
            <Time>2022-07-09T15:10:24.000Z</Time>
            <Position>
              <LatitudeDegrees>42.7902607619762420654296875</LatitudeDegrees>
              <LongitudeDegrees>-0.13412780128419399261474609375</LongitudeDegrees>
            </Position>
            <AltitudeMeters>2393.60009765625</AltitudeMeters>
            <DistanceMeters>19887.496593051</DistanceMeters>
          </Trackpoint>
          <Trackpoint>
            <Time>2022-07-09T15:10:25.000Z</Time>
            <Position>
              <LatitudeDegrees>42.79025028459727764129638671875</LatitudeDegrees>
              <LongitudeDegrees>-0.134134925901889801025390625</LongitudeDegrees>
            </Position>
            <AltitudeMeters>2393.39990234375</AltitudeMeters>
            <DistanceMeters>19888.806445915</DistanceMeters>
          </Trackpoint>
          <Trackpoint>
            <Time>2022-07-09T15:10:28.000Z</Time>
            <Position>
              <LatitudeDegrees>42.79021893627941608428955078125</LatitudeDegrees>
              <LongitudeDegrees>-0.1341525278985500335693359375</LongitudeDegrees>
            </Position>
            <AltitudeMeters>2392.60009765625</AltitudeMeters>
            <DistanceMeters>19892.581291691</DistanceMeters>
          </Trackpoint>
          <Trackpoint>
            <Time>2022-07-09T15:10:31.000Z</Time>
            <Position>
              <LatitudeDegrees>42.7902069501578807830810546875</LatitudeDegrees>
              <LongitudeDegrees>-0.13421044684946537017822265625</LongitudeDegrees>
            </Position>
            <AltitudeMeters>2392.199951171875</AltitudeMeters>
            <DistanceMeters>19897.497030146</DistanceMeters>
          </Trackpoint>
          <Trackpoint>
            <Time>2022-07-09T15:10:35.000Z</Time>
            <Position>
              <LatitudeDegrees>42.79018096625804901123046875</LatitudeDegrees>
              <LongitudeDegrees>-0.13427029363811016082763671875</LongitudeDegrees>
            </Position>
            <AltitudeMeters>2391.199951171875</AltitudeMeters>
            <DistanceMeters>19903.177211757</DistanceMeters>
          </Trackpoint>
          <Trackpoint>
            <Time>2022-07-09T15:10:41.000Z</Time>
            <Position>
              <LatitudeDegrees>42.79016889631748199462890625</LatitudeDegrees>
              <LongitudeDegrees>-0.1343614049255847930908203125</LongitudeDegrees>
            </Position>
            <AltitudeMeters>2390.39990234375</AltitudeMeters>
            <DistanceMeters>19910.739451777</DistanceMeters>
          </Trackpoint>
          <Trackpoint>
            <Time>2022-07-09T15:10:43.000Z</Time>
            <Position>
              <LatitudeDegrees>42.7901610173285007476806640625</LatitudeDegrees>
              <LongitudeDegrees>-0.134369619190692901611328125</LongitudeDegrees>
            </Position>
            <AltitudeMeters>2390.199951171875</AltitudeMeters>
            <DistanceMeters>19911.839465524</DistanceMeters>
          </Trackpoint>
          <Trackpoint>
            <Time>2022-07-09T15:10:47.000Z</Time>
            <Position>
              <LatitudeDegrees>42.79019747860729694366455078125</LatitudeDegrees>
              <LongitudeDegrees>-0.134456790983676910400390625</LongitudeDegrees>
            </Position>
            <AltitudeMeters>2389.800048828125</AltitudeMeters>
            <DistanceMeters>19920.034934308</DistanceMeters>
          </Trackpoint>
          <Trackpoint>
            <Time>2022-07-09T15:10:49.000Z</Time>
            <Position>
              <LatitudeDegrees>42.7902156673371791839599609375</LatitudeDegrees>
              <LongitudeDegrees>-0.1344854570925235748291015625</LongitudeDegrees>
            </Position>
            <AltitudeMeters>2389.60009765625</AltitudeMeters>
            <DistanceMeters>19923.130238995</DistanceMeters>
          </Trackpoint>
          <Trackpoint>
            <Time>2022-07-09T15:10:51.000Z</Time>
            <Position>
              <LatitudeDegrees>42.7902337722480297088623046875</LatitudeDegrees>
              <LongitudeDegrees>-0.134496353566646575927734375</LongitudeDegrees>
            </Position>
            <AltitudeMeters>2389.199951171875</AltitudeMeters>
            <DistanceMeters>19925.334367197</DistanceMeters>
          </Trackpoint>
          <Trackpoint>
            <Time>2022-07-09T15:10:52.000Z</Time>
            <Position>
              <LatitudeDegrees>42.79024492017924785614013671875</LatitudeDegrees>
              <LongitudeDegrees>-0.13450029306113719940185546875</LongitudeDegrees>
            </Position>
            <AltitudeMeters>2389</AltitudeMeters>
            <DistanceMeters>19926.616347662</DistanceMeters>
          </Trackpoint>
          <Trackpoint>
            <Time>2022-07-09T15:10:58.000Z</Time>
            <Position>
              <LatitudeDegrees>42.7903246320784091949462890625</LatitudeDegrees>
              <LongitudeDegrees>-0.1345102675259113311767578125</LongitudeDegrees>
            </Position>
            <AltitudeMeters>2389</AltitudeMeters>
            <DistanceMeters>19935.525577255</DistanceMeters>
          </Trackpoint>
          <Trackpoint>
            <Time>2022-07-09T15:10:59.000Z</Time>
            <Position>
              <LatitudeDegrees>42.79033661819994449615478515625</LatitudeDegrees>
              <LongitudeDegrees>-0.134507752954959869384765625</LongitudeDegrees>
            </Position>
            <AltitudeMeters>2388.800048828125</AltitudeMeters>
            <DistanceMeters>19936.876160626</DistanceMeters>
          </Trackpoint>
          <Trackpoint>
            <Time>2022-07-09T15:11:05.000Z</Time>
            <Position>
              <LatitudeDegrees>42.79039881192147731781005859375</LatitudeDegrees>
              <LongitudeDegrees>-0.13449945487082004547119140625</LongitudeDegrees>
            </Position>
            <AltitudeMeters>2388.800048828125</AltitudeMeters>
            <DistanceMeters>19943.831960334</DistanceMeters>
          </Trackpoint>
          <Trackpoint>
            <Time>2022-07-09T15:11:10.000Z</Time>
            <Position>
              <LatitudeDegrees>42.7904691360890865325927734375</LatitudeDegrees>
              <LongitudeDegrees>-0.1345206610858440399169921875</LongitudeDegrees>
            </Position>
            <AltitudeMeters>2388.800048828125</AltitudeMeters>
            <DistanceMeters>19951.848070611</DistanceMeters>
          </Trackpoint>
          <Trackpoint>
            <Time>2022-07-09T15:11:11.000Z</Time>
            <Position>
              <LatitudeDegrees>42.7904842235147953033447265625</LatitudeDegrees>
              <LongitudeDegrees>-0.134526193141937255859375</LongitudeDegrees>
            </Position>
            <AltitudeMeters>2388.60009765625</AltitudeMeters>
            <DistanceMeters>19953.58734506</DistanceMeters>
          </Trackpoint>
          <Trackpoint>
            <Time>2022-07-09T15:11:14.000Z</Time>
            <Position>
              <LatitudeDegrees>42.79051817022264003753662109375</LatitudeDegrees>
              <LongitudeDegrees>-0.1345330663025379180908203125</LongitudeDegrees>
            </Position>
            <AltitudeMeters>2388.39990234375</AltitudeMeters>
            <DistanceMeters>19957.407371701</DistanceMeters>
          </Trackpoint>
          <Trackpoint>
            <Time>2022-07-09T15:11:15.000Z</Time>
            <Position>
              <LatitudeDegrees>42.79052973724901676177978515625</LatitudeDegrees>
              <LongitudeDegrees>-0.1345382630825042724609375</LongitudeDegrees>
            </Position>
            <AltitudeMeters>2388.39990234375</AltitudeMeters>
            <DistanceMeters>19958.76462466</DistanceMeters>
          </Trackpoint>
          <Trackpoint>
            <Time>2022-07-09T15:11:17.000Z</Time>
            <Position>
              <LatitudeDegrees>42.790550775825977325439453125</LatitudeDegrees>
              <LongitudeDegrees>-0.13456047512590885162353515625</LongitudeDegrees>
            </Position>
            <AltitudeMeters>2388.39990234375</AltitudeMeters>
            <DistanceMeters>19961.727264412</DistanceMeters>
          </Trackpoint>
          <Trackpoint>
            <Time>2022-07-09T15:11:22.000Z</Time>
            <Position>
              <LatitudeDegrees>42.7905703894793987274169921875</LatitudeDegrees>
              <LongitudeDegrees>-0.13458662666380405426025390625</LongitudeDegrees>
            </Position>
            <AltitudeMeters>2388.199951171875</AltitudeMeters>
            <DistanceMeters>19964.78145317</DistanceMeters>
          </Trackpoint>
          <Trackpoint>
            <Time>2022-07-09T15:11:25.000Z</Time>
            <Position>
              <LatitudeDegrees>42.790594361722469329833984375</LatitudeDegrees>
              <LongitudeDegrees>-0.13459634967148303985595703125</LongitudeDegrees>
            </Position>
            <AltitudeMeters>2388.199951171875</AltitudeMeters>
            <DistanceMeters>19967.564941195</DistanceMeters>
          </Trackpoint>
          <Trackpoint>
            <Time>2022-07-09T15:11:28.000Z</Time>
            <Position>
              <LatitudeDegrees>42.790619842708110809326171875</LatitudeDegrees>
              <LongitudeDegrees>-0.13459400273859500885009765625</LongitudeDegrees>
            </Position>
            <AltitudeMeters>2388</AltitudeMeters>
            <DistanceMeters>19970.407812705</DistanceMeters>
          </Trackpoint>
          <Trackpoint>
            <Time>2022-07-09T15:11:30.000Z</Time>
            <Position>
              <LatitudeDegrees>42.7906236983835697174072265625</LatitudeDegrees>
              <LongitudeDegrees>-0.13458453118801116943359375</LongitudeDegrees>
            </Position>
            <AltitudeMeters>2388</AltitudeMeters>
            <DistanceMeters>19971.299242302</DistanceMeters>
          </Trackpoint>
          <Trackpoint>
            <Time>2022-07-09T15:11:31.000Z</Time>
            <Position>
              <LatitudeDegrees>42.79062093235552310943603515625</LatitudeDegrees>
              <LongitudeDegrees>-0.1345756463706493377685546875</LongitudeDegrees>
            </Position>
            <AltitudeMeters>2388</AltitudeMeters>
            <DistanceMeters>19972.094292836</DistanceMeters>
          </Trackpoint>
          <Trackpoint>
            <Time>2022-07-09T15:11:37.000Z</Time>
            <Position>
              <LatitudeDegrees>42.7906126342713832855224609375</LatitudeDegrees>
              <LongitudeDegrees>-0.13457992114126682281494140625</LongitudeDegrees>
            </Position>
            <AltitudeMeters>2387.800048828125</AltitudeMeters>
            <DistanceMeters>19973.08183942</DistanceMeters>
          </Trackpoint>
          <Trackpoint>
            <Time>2022-07-09T15:11:40.000Z</Time>
            <Position>
              <LatitudeDegrees>42.79061414301395416259765625</LatitudeDegrees>
              <LongitudeDegrees>-0.13458184897899627685546875</LongitudeDegrees>
            </Position>
            <AltitudeMeters>2387.800048828125</AltitudeMeters>
            <DistanceMeters>19973.314606382</DistanceMeters>
          </Trackpoint>
          <Trackpoint>
            <Time>2022-07-09T15:11:41.000Z</Time>
            <Position>
              <LatitudeDegrees>42.79061322100460529327392578125</LatitudeDegrees>
              <LongitudeDegrees>-0.1345813460648059844970703125</LongitudeDegrees>
            </Position>
            <AltitudeMeters>2387.60009765625</AltitudeMeters>
            <DistanceMeters>19973.409633096</DistanceMeters>
          </Trackpoint>
          <Trackpoint>
            <Time>2022-07-09T15:11:42.000Z</Time>
            <Position>
              <LatitudeDegrees>42.79061171226203441619873046875</LatitudeDegrees>
              <LongitudeDegrees>-0.13458327390253543853759765625</LongitudeDegrees>
            </Position>
            <AltitudeMeters>2387.800048828125</AltitudeMeters>
            <DistanceMeters>19973.642400058</DistanceMeters>
          </Trackpoint>
          <Trackpoint>
            <Time>2022-07-09T15:11:45.000Z</Time>
            <Position>
              <LatitudeDegrees>42.79060165397822856903076171875</LatitudeDegrees>
              <LongitudeDegrees>-0.13460137881338596343994140625</LongitudeDegrees>
            </Position>
            <AltitudeMeters>2387.800048828125</AltitudeMeters>
            <DistanceMeters>19975.494811743</DistanceMeters>
          </Trackpoint>
          <Trackpoint>
            <Time>2022-07-09T15:11:50.000Z</Time>
            <Position>
              <LatitudeDegrees>42.79060299508273601531982421875</LatitudeDegrees>
              <LongitudeDegrees>-0.13464999385178089141845703125</LongitudeDegrees>
            </Position>
            <AltitudeMeters>2387.39990234375</AltitudeMeters>
            <DistanceMeters>19979.467792189</DistanceMeters>
          </Trackpoint>
          <Trackpoint>
            <Time>2022-07-09T15:11:54.000Z</Time>
            <Position>
              <LatitudeDegrees>42.79059964232146739959716796875</LatitudeDegrees>
              <LongitudeDegrees>-0.13461948372423648834228515625</LongitudeDegrees>
            </Position>
            <AltitudeMeters>2387</AltitudeMeters>
            <DistanceMeters>19981.98555184</DistanceMeters>
          </Trackpoint>
          <Trackpoint>
            <Time>2022-07-09T15:11:55.000Z</Time>
            <Position>
              <LatitudeDegrees>42.79059880413115024566650390625</LatitudeDegrees>
              <LongitudeDegrees>-0.13461981900036334991455078125</LongitudeDegrees>
            </Position>
            <AltitudeMeters>2387</AltitudeMeters>
            <DistanceMeters>19981.98555184</DistanceMeters>
          </Trackpoint>
          <Trackpoint>
            <Time>2022-07-09T15:11:57.000Z</Time>
            <Position>
              <LatitudeDegrees>42.7905938588082790374755859375</LatitudeDegrees>
              <LongitudeDegrees>-0.1346480660140514373779296875</LongitudeDegrees>
            </Position>
            <AltitudeMeters>2387</AltitudeMeters>
            <DistanceMeters>19984.359318405</DistanceMeters>
          </Trackpoint>
          <Trackpoint>
            <Time>2022-07-09T15:12:03.000Z</Time>
            <Position>
              <LatitudeDegrees>42.7905365265905857086181640625</LatitudeDegrees>
              <LongitudeDegrees>-0.13467480428516864776611328125</LongitudeDegrees>
            </Position>
            <AltitudeMeters>2387</AltitudeMeters>
            <DistanceMeters>19991.104207219</DistanceMeters>
          </Trackpoint>
          <Trackpoint>
            <Time>2022-07-09T15:12:09.000Z</Time>
            <Position>
              <LatitudeDegrees>42.79049134813249111175537109375</LatitudeDegrees>
              <LongitudeDegrees>-0.134674720466136932373046875</LongitudeDegrees>
            </Position>
            <AltitudeMeters>2386.39990234375</AltitudeMeters>
            <DistanceMeters>19996.132548302</DistanceMeters>
          </Trackpoint>
          <Trackpoint>
            <Time>2022-07-09T15:12:10.000Z</Time>
            <Position>
              <LatitudeDegrees>42.79048481024801731109619140625</LatitudeDegrees>
              <LongitudeDegrees>-0.1346799172461032867431640625</LongitudeDegrees>
            </Position>
            <AltitudeMeters>2386.199951171875</AltitudeMeters>
            <DistanceMeters>19996.977164214</DistanceMeters>
          </Trackpoint>
          <Trackpoint>
            <Time>2022-07-09T15:12:11.000Z</Time>
            <Position>
              <LatitudeDegrees>42.79047676362097263336181640625</LatitudeDegrees>
              <LongitudeDegrees>-0.13468201272189617156982421875</LongitudeDegrees>
            </Position>
            <AltitudeMeters>2386</AltitudeMeters>
            <DistanceMeters>19997.888628439</DistanceMeters>
          </Trackpoint>
          <Trackpoint>
            <Time>2022-07-09T15:12:12.000Z</Time>
            <Position>
              <LatitudeDegrees>42.79046989046037197113037109375</LatitudeDegrees>
              <LongitudeDegrees>-0.13468402437865734100341796875</LongitudeDegrees>
            </Position>
            <AltitudeMeters>2385.800048828125</AltitudeMeters>
            <DistanceMeters>19998.6722388</DistanceMeters>
          </Trackpoint>
          <Trackpoint>
            <Time>2022-07-09T15:12:16.000Z</Time>
            <Position>
              <LatitudeDegrees>42.7904292382299900054931640625</LatitudeDegrees>
              <LongitudeDegrees>-0.13468704186379909515380859375</LongitudeDegrees>
            </Position>
            <AltitudeMeters>2385.39990234375</AltitudeMeters>
            <DistanceMeters>20003.202731462</DistanceMeters>
          </Trackpoint>
          <Trackpoint>
            <Time>2022-07-09T15:12:17.000Z</Time>
            <Position>
              <LatitudeDegrees>42.7904144860804080963134765625</LatitudeDegrees>
              <LongitudeDegrees>-0.13468301855027675628662109375</LongitudeDegrees>
            </Position>
            <AltitudeMeters>2385.39990234375</AltitudeMeters>
            <DistanceMeters>20004.875849419</DistanceMeters>
          </Trackpoint>
          <Trackpoint>
            <Time>2022-07-09T15:12:18.000Z</Time>
            <Position>
              <LatitudeDegrees>42.79040182940661907196044921875</LatitudeDegrees>
              <LongitudeDegrees>-0.1346804201602935791015625</LongitudeDegrees>
            </Position>
            <AltitudeMeters>2385.39990234375</AltitudeMeters>
            <DistanceMeters>20006.301250134</DistanceMeters>
          </Trackpoint>
          <Trackpoint>
            <Time>2022-07-09T15:12:20.000Z</Time>
            <Position>
              <LatitudeDegrees>42.79038774780929088592529296875</LatitudeDegrees>
              <LongitudeDegrees>-0.13467178680002689361572265625</LongitudeDegrees>
            </Position>
            <AltitudeMeters>2384.800048828125</AltitudeMeters>
            <DistanceMeters>20008.019631639</DistanceMeters>
          </Trackpoint>
          <Trackpoint>
            <Time>2022-07-09T15:12:24.000Z</Time>
            <Position>
              <LatitudeDegrees>42.7903692238032817840576171875</LatitudeDegrees>
              <LongitudeDegrees>-0.13471688143908977508544921875</LongitudeDegrees>
            </Position>
            <AltitudeMeters>2384.199951171875</AltitudeMeters>
            <DistanceMeters>20012.239502579</DistanceMeters>
          </Trackpoint>
          <Trackpoint>
            <Time>2022-07-09T15:12:27.000Z</Time>
            <Position>
              <LatitudeDegrees>42.79033385217189788818359375</LatitudeDegrees>
              <LongitudeDegrees>-0.13472777791321277618408203125</LongitudeDegrees>
            </Position>
            <AltitudeMeters>2384.199951171875</AltitudeMeters>
            <DistanceMeters>20016.276740246</DistanceMeters>
          </Trackpoint>
          <Trackpoint>
            <Time>2022-07-09T15:12:29.000Z</Time>
            <Position>
              <LatitudeDegrees>42.790305353701114654541015625</LatitudeDegrees>
              <LongitudeDegrees>-0.13472677208483219146728515625</LongitudeDegrees>
            </Position>
            <AltitudeMeters>2384.39990234375</AltitudeMeters>
            <DistanceMeters>20019.449835775</DistanceMeters>
          </Trackpoint>
          <Trackpoint>
            <Time>2022-07-09T15:12:32.000Z</Time>
            <Position>
              <LatitudeDegrees>42.79027526266872882843017578125</LatitudeDegrees>
              <LongitudeDegrees>-0.13469844125211238861083984375</LongitudeDegrees>
            </Position>
            <AltitudeMeters>2384</AltitudeMeters>
            <DistanceMeters>20023.519376314</DistanceMeters>
          </Trackpoint>
          <Trackpoint>
            <Time>2022-07-09T15:12:34.000Z</Time>
            <Position>
              <LatitudeDegrees>42.7902567386627197265625</LatitudeDegrees>
              <LongitudeDegrees>-0.1346939988434314727783203125</LongitudeDegrees>
            </Position>
            <AltitudeMeters>2383.60009765625</AltitudeMeters>
            <DistanceMeters>20025.612122614</DistanceMeters>
          </Trackpoint>
          <Trackpoint>
            <Time>2022-07-09T15:12:36.000Z</Time>
            <Position>
              <LatitudeDegrees>42.79023871757090091705322265625</LatitudeDegrees>
              <LongitudeDegrees>-0.13470481149852275848388671875</LongitudeDegrees>
            </Position>
            <AltitudeMeters>2383</AltitudeMeters>
            <DistanceMeters>20027.803925677</DistanceMeters>
          </Trackpoint>
          <Trackpoint>
            <Time>2022-07-09T15:12:39.000Z</Time>
            <Position>
              <LatitudeDegrees>42.79022664763033390045166015625</LatitudeDegrees>
              <LongitudeDegrees>-0.1347503252327442169189453125</LongitudeDegrees>
            </Position>
            <AltitudeMeters>2382.60009765625</AltitudeMeters>
            <DistanceMeters>20031.758681346</DistanceMeters>
          </Trackpoint>
          <Trackpoint>
            <Time>2022-07-09T15:12:41.000Z</Time>
            <Position>
              <LatitudeDegrees>42.7902126498520374298095703125</LatitudeDegrees>
              <LongitudeDegrees>-0.134772621095180511474609375</LongitudeDegrees>
            </Position>
            <AltitudeMeters>2382.39990234375</AltitudeMeters>
            <DistanceMeters>20034.155163897</DistanceMeters>
          </Trackpoint>
          <Trackpoint>
            <Time>2022-07-09T15:12:43.000Z</Time>
            <Position>
              <LatitudeDegrees>42.7901856601238250732421875</LatitudeDegrees>
              <LongitudeDegrees>-0.13478695414960384368896484375</LongitudeDegrees>
            </Position>
            <AltitudeMeters>2381.800048828125</AltitudeMeters>
            <DistanceMeters>20037.380477535</DistanceMeters>
          </Trackpoint>
          <Trackpoint>
            <Time>2022-07-09T15:12:45.000Z</Time>
            <Position>
              <LatitudeDegrees>42.7901526354253292083740234375</LatitudeDegrees>
              <LongitudeDegrees>-0.1347863674163818359375</LongitudeDegrees>
            </Position>
            <AltitudeMeters>2381.39990234375</AltitudeMeters>
            <DistanceMeters>20041.055935923</DistanceMeters>
          </Trackpoint>
          <Trackpoint>
            <Time>2022-07-09T15:12:47.000Z</Time>
            <Position>
              <LatitudeDegrees>42.790128327906131744384765625</LatitudeDegrees>
              <LongitudeDegrees>-0.13478376902639865875244140625</LongitudeDegrees>
            </Position>
            <AltitudeMeters>2381</AltitudeMeters>
            <DistanceMeters>20043.7671132</DistanceMeters>
          </Trackpoint>
          <Trackpoint>
            <Time>2022-07-09T15:12:49.000Z</Time>
            <Position>
              <LatitudeDegrees>42.7901046909391880035400390625</LatitudeDegrees>
              <LongitudeDegrees>-0.1347915641963481903076171875</LongitudeDegrees>
            </Position>
            <AltitudeMeters>2380.60009765625</AltitudeMeters>
            <DistanceMeters>20046.474957743</DistanceMeters>
          </Trackpoint>
          <Trackpoint>
            <Time>2022-07-09T15:12:50.000Z</Time>
            <Position>
              <LatitudeDegrees>42.79009111225605010986328125</LatitudeDegrees>
              <LongitudeDegrees>-0.13479215092957019805908203125</LongitudeDegrees>
            </Position>
            <AltitudeMeters>2380.39990234375</AltitudeMeters>
            <DistanceMeters>20047.986450165</DistanceMeters>
          </Trackpoint>
          <Trackpoint>
            <Time>2022-07-09T15:12:55.000Z</Time>
            <Position>
              <LatitudeDegrees>42.7900389768183231353759765625</LatitudeDegrees>
              <LongitudeDegrees>-0.134808830916881561279296875</LongitudeDegrees>
            </Position>
            <AltitudeMeters>2379.39990234375</AltitudeMeters>
            <DistanceMeters>20053.947435889</DistanceMeters>
          </Trackpoint>
          <Trackpoint>
            <Time>2022-07-09T15:12:56.000Z</Time>
            <Position>
              <LatitudeDegrees>42.79003218747675418853759765625</LatitudeDegrees>
              <LongitudeDegrees>-0.13481159694492816925048828125</LongitudeDegrees>
            </Position>
            <AltitudeMeters>2379.39990234375</AltitudeMeters>
            <DistanceMeters>20054.73104625</DistanceMeters>
          </Trackpoint>
          <Trackpoint>
            <Time>2022-07-09T15:13:00.000Z</Time>
            <Position>
              <LatitudeDegrees>42.7900007553398609161376953125</LatitudeDegrees>
              <LongitudeDegrees>-0.13484193943440914154052734375</LongitudeDegrees>
            </Position>
            <AltitudeMeters>2378.199951171875</AltitudeMeters>
            <DistanceMeters>20059.018847043</DistanceMeters>
          </Trackpoint>
          <Trackpoint>
            <Time>2022-07-09T15:13:03.000Z</Time>
            <Position>
              <LatitudeDegrees>42.78996773064136505126953125</LatitudeDegrees>
              <LongitudeDegrees>-0.13488049618899822235107421875</LongitudeDegrees>
            </Position>
            <AltitudeMeters>2378</AltitudeMeters>
            <DistanceMeters>20063.858683641</DistanceMeters>
          </Trackpoint>
          <Trackpoint>
            <Time>2022-07-09T15:13:09.000Z</Time>
            <Position>
              <LatitudeDegrees>42.78989975340664386749267578125</LatitudeDegrees>
              <LongitudeDegrees>-0.1349508203566074371337890625</LongitudeDegrees>
            </Position>
            <AltitudeMeters>2377.800048828125</AltitudeMeters>
            <DistanceMeters>20073.358028561</DistanceMeters>
          </Trackpoint>
          <Trackpoint>
            <Time>2022-07-09T15:13:10.000Z</Time>
            <Position>
              <LatitudeDegrees>42.789891622960567474365234375</LatitudeDegrees>
              <LongitudeDegrees>-0.134955346584320068359375</LongitudeDegrees>
            </Position>
            <AltitudeMeters>2377.199951171875</AltitudeMeters>
            <DistanceMeters>20074.336388466</DistanceMeters>
          </Trackpoint>
          <Trackpoint>
            <Time>2022-07-09T15:13:11.000Z</Time>
            <Position>
              <LatitudeDegrees>42.78988332487642765045166015625</LatitudeDegrees>
              <LongitudeDegrees>-0.1349580287933349609375</LongitudeDegrees>
            </Position>
            <AltitudeMeters>2376.800048828125</AltitudeMeters>
            <DistanceMeters>20075.286655609</DistanceMeters>
          </Trackpoint>
          <Trackpoint>
            <Time>2022-07-09T15:13:15.000Z</Time>
            <Position>
              <LatitudeDegrees>42.78986002318561077117919921875</LatitudeDegrees>
              <LongitudeDegrees>-0.1349722780287265777587890625</LongitudeDegrees>
            </Position>
            <AltitudeMeters>2376.39990234375</AltitudeMeters>
            <DistanceMeters>20078.131114872</DistanceMeters>
          </Trackpoint>
          <Trackpoint>
            <Time>2022-07-09T15:13:16.000Z</Time>
            <Position>
              <LatitudeDegrees>42.78985784389078617095947265625</LatitudeDegrees>
              <LongitudeDegrees>-0.13497973792254924774169921875</LongitudeDegrees>
            </Position>
            <AltitudeMeters>2376.39990234375</AltitudeMeters>
            <DistanceMeters>20078.789479261</DistanceMeters>
          </Trackpoint>
          <Trackpoint>
            <Time>2022-07-09T15:13:19.000Z</Time>
            <Position>
              <LatitudeDegrees>42.7898425050079822540283203125</LatitudeDegrees>
              <LongitudeDegrees>-0.134998597204685211181640625</LongitudeDegrees>
            </Position>
            <AltitudeMeters>2375.60009765625</AltitudeMeters>
            <DistanceMeters>20081.08983245</DistanceMeters>
          </Trackpoint>
          <Trackpoint>
            <Time>2022-07-09T15:13:23.000Z</Time>
            <Position>
              <LatitudeDegrees>42.7897982485592365264892578125</LatitudeDegrees>
              <LongitudeDegrees>-0.1350104995071887969970703125</LongitudeDegrees>
            </Position>
            <AltitudeMeters>2375.39990234375</AltitudeMeters>
            <DistanceMeters>20086.109186321</DistanceMeters>
          </Trackpoint>
          <Trackpoint>
            <Time>2022-07-09T15:13:26.000Z</Time>
            <Position>
              <LatitudeDegrees>42.789763547480106353759765625</LatitudeDegrees>
              <LongitudeDegrees>-0.13501158915460109710693359375</LongitudeDegrees>
            </Position>
            <AltitudeMeters>2374.60009765625</AltitudeMeters>
            <DistanceMeters>20089.972697207</DistanceMeters>
          </Trackpoint>
          <Trackpoint>
            <Time>2022-07-09T15:13:27.000Z</Time>
            <Position>
              <LatitudeDegrees>42.78975524939596652984619140625</LatitudeDegrees>
              <LongitudeDegrees>-0.1350076496601104736328125</LongitudeDegrees>
            </Position>
            <AltitudeMeters>2374.199951171875</AltitudeMeters>
            <DistanceMeters>20090.951057111</DistanceMeters>
          </Trackpoint>
          <Trackpoint>
            <Time>2022-07-09T15:13:30.000Z</Time>
            <Position>
              <LatitudeDegrees>42.789736054837703704833984375</LatitudeDegrees>
              <LongitudeDegrees>-0.1350064761936664581298828125</LongitudeDegrees>
            </Position>
            <AltitudeMeters>2374</AltitudeMeters>
            <DistanceMeters>20093.088630193</DistanceMeters>
          </Trackpoint>
          <Trackpoint>
            <Time>2022-07-09T15:13:32.000Z</Time>
            <Position>
              <LatitudeDegrees>42.78972038067877292633056640625</LatitudeDegrees>
              <LongitudeDegrees>-0.13502382673323154449462890625</LongitudeDegrees>
            </Position>
            <AltitudeMeters>2373.39990234375</AltitudeMeters>
            <DistanceMeters>20095.337372688</DistanceMeters>
          </Trackpoint>
          <Trackpoint>
            <Time>2022-07-09T15:13:34.000Z</Time>
            <Position>
              <LatitudeDegrees>42.78971317224204540252685546875</LatitudeDegrees>
              <LongitudeDegrees>-0.135044865310192108154296875</LongitudeDegrees>
            </Position>
            <AltitudeMeters>2372.800048828125</AltitudeMeters>
            <DistanceMeters>20097.235529821</DistanceMeters>
          </Trackpoint>
          <Trackpoint>
            <Time>2022-07-09T15:13:36.000Z</Time>
            <Position>
              <LatitudeDegrees>42.7897348813712596893310546875</LatitudeDegrees>
              <LongitudeDegrees>-0.1350738666951656341552734375</LongitudeDegrees>
            </Position>
            <AltitudeMeters>2372.60009765625</AltitudeMeters>
            <DistanceMeters>20100.618000346</DistanceMeters>
          </Trackpoint>
          <Trackpoint>
            <Time>2022-07-09T15:13:37.000Z</Time>
            <Position>
              <LatitudeDegrees>42.7897452749311923980712890625</LatitudeDegrees>
              <LongitudeDegrees>-0.135083086788654327392578125</LongitudeDegrees>
            </Position>
            <AltitudeMeters>2372.39990234375</AltitudeMeters>
            <DistanceMeters>20101.998343104</DistanceMeters>
          </Trackpoint>
          <Trackpoint>
            <Time>2022-07-09T15:13:38.000Z</Time>
            <Position>
              <LatitudeDegrees>42.7897570095956325531005859375</LatitudeDegrees>
              <LongitudeDegrees>-0.1350953243672847747802734375</LongitudeDegrees>
            </Position>
            <AltitudeMeters>2372.199951171875</AltitudeMeters>
            <DistanceMeters>20103.641508603</DistanceMeters>
          </Trackpoint>
          <Trackpoint>
            <Time>2022-07-09T15:13:42.000Z</Time>
            <Position>
              <LatitudeDegrees>42.7897955663502216339111328125</LatitudeDegrees>
              <LongitudeDegrees>-0.1351244933903217315673828125</LongitudeDegrees>
            </Position>
            <AltitudeMeters>2371.60009765625</AltitudeMeters>
            <DistanceMeters>20108.549893669</DistanceMeters>
          </Trackpoint>
          <Trackpoint>
            <Time>2022-07-09T15:13:43.000Z</Time>
            <Position>
              <LatitudeDegrees>42.78980637900531291961669921875</LatitudeDegrees>
              <LongitudeDegrees>-0.135131366550922393798828125</LongitudeDegrees>
            </Position>
            <AltitudeMeters>2371.39990234375</AltitudeMeters>
            <DistanceMeters>20109.876869519</DistanceMeters>
          </Trackpoint>
          <Trackpoint>
            <Time>2022-07-09T15:13:44.000Z</Time>
            <Position>
              <LatitudeDegrees>42.78981341980397701263427734375</LatitudeDegrees>
              <LongitudeDegrees>-0.13513840734958648681640625</LongitudeDegrees>
            </Position>
            <AltitudeMeters>2371.199951171875</AltitudeMeters>
            <DistanceMeters>20110.855229424</DistanceMeters>
          </Trackpoint>
          <Trackpoint>
            <Time>2022-07-09T15:13:49.000Z</Time>
            <Position>
              <LatitudeDegrees>42.78984677977859973907470703125</LatitudeDegrees>
              <LongitudeDegrees>-0.135173611342906951904296875</LongitudeDegrees>
            </Position>
            <AltitudeMeters>2371</AltitudeMeters>
            <DistanceMeters>20115.552087602</DistanceMeters>
          </Trackpoint>
          <Trackpoint>
            <Time>2022-07-09T15:13:50.000Z</Time>
            <Position>
              <LatitudeDegrees>42.78985264711081981658935546875</LatitudeDegrees>
              <LongitudeDegrees>-0.13518492691218852996826171875</LongitudeDegrees>
            </Position>
            <AltitudeMeters>2371</AltitudeMeters>
            <DistanceMeters>20116.68844183</DistanceMeters>
          </Trackpoint>
          <Trackpoint>
            <Time>2022-07-09T15:13:54.000Z</Time>
            <Position>
              <LatitudeDegrees>42.789878547191619873046875</LatitudeDegrees>
              <LongitudeDegrees>-0.1352463662624359130859375</LongitudeDegrees>
            </Position>
            <AltitudeMeters>2370.800048828125</AltitudeMeters>
            <DistanceMeters>20122.475716969</DistanceMeters>
          </Trackpoint>
          <Trackpoint>
            <Time>2022-07-09T15:13:59.000Z</Time>
            <Position>
              <LatitudeDegrees>42.78992372564971446990966796875</LatitudeDegrees>
              <LongitudeDegrees>-0.1353031955659389495849609375</LongitudeDegrees>
            </Position>
            <AltitudeMeters>2370.800048828125</AltitudeMeters>
            <DistanceMeters>20129.318960092</DistanceMeters>
          </Trackpoint>
          <Trackpoint>
            <Time>2022-07-09T15:14:00.000Z</Time>
            <Position>
              <LatitudeDegrees>42.78993529267609119415283203125</LatitudeDegrees>
              <LongitudeDegrees>-0.13530562631785869598388671875</LongitudeDegrees>
            </Position>
            <AltitudeMeters>2370.39990234375</AltitudeMeters>
            <DistanceMeters>20130.621900755</DistanceMeters>
          </Trackpoint>
          <Trackpoint>
            <Time>2022-07-09T15:14:01.000Z</Time>
            <Position>
              <LatitudeDegrees>42.78994761407375335693359375</LatitudeDegrees>
              <LongitudeDegrees>-0.13530663214623928070068359375</LongitudeDegrees>
            </Position>
            <AltitudeMeters>2370</AltitudeMeters>
            <DistanceMeters>20131.998968674</DistanceMeters>
          </Trackpoint>
          <Trackpoint>
            <Time>2022-07-09T15:14:03.000Z</Time>
            <Position>
              <LatitudeDegrees>42.78997066430747509002685546875</LatitudeDegrees>
              <LongitudeDegrees>-0.13530361466109752655029296875</LongitudeDegrees>
            </Position>
            <AltitudeMeters>2369.60009765625</AltitudeMeters>
            <DistanceMeters>20134.573473696</DistanceMeters>
          </Trackpoint>
          <Trackpoint>
            <Time>2022-07-09T15:14:05.000Z</Time>
            <Position>
              <LatitudeDegrees>42.7899940498173236846923828125</LatitudeDegrees>
              <LongitudeDegrees>-0.135291628539562225341796875</LongitudeDegrees>
            </Position>
            <AltitudeMeters>2369</AltitudeMeters>
            <DistanceMeters>20137.353715671</DistanceMeters>
          </Trackpoint>
          <Trackpoint>
            <Time>2022-07-09T15:14:06.000Z</Time>
            <Position>
              <LatitudeDegrees>42.790006287395954132080078125</LatitudeDegrees>
              <LongitudeDegrees>-0.13528517447412014007568359375</LongitudeDegrees>
            </Position>
            <AltitudeMeters>2369</AltitudeMeters>
            <DistanceMeters>20138.816633343</DistanceMeters>
          </Trackpoint>
          <Trackpoint>
            <Time>2022-07-09T15:14:07.000Z</Time>
            <Position>
              <LatitudeDegrees>42.790017016232013702392578125</LatitudeDegrees>
              <LongitudeDegrees>-0.1352773793041706085205078125</LongitudeDegrees>
            </Position>
            <AltitudeMeters>2368.800048828125</AltitudeMeters>
            <DistanceMeters>20140.170555615</DistanceMeters>
          </Trackpoint>
          <Trackpoint>
            <Time>2022-07-09T15:14:11.000Z</Time>
            <Position>
              <LatitudeDegrees>42.790047861635684967041015625</LatitudeDegrees>
              <LongitudeDegrees>-0.135255418717861175537109375</LongitudeDegrees>
            </Position>
            <AltitudeMeters>2368.199951171875</AltitudeMeters>
            <DistanceMeters>20144.044569948</DistanceMeters>
          </Trackpoint>
          <Trackpoint>
            <Time>2022-07-09T15:14:13.000Z</Time>
            <Position>
              <LatitudeDegrees>42.790060937404632568359375</LatitudeDegrees>
              <LongitudeDegrees>-0.135250724852085113525390625</LongitudeDegrees>
            </Position>
            <AltitudeMeters>2368.199951171875</AltitudeMeters>
            <DistanceMeters>20145.550076237</DistanceMeters>
          </Trackpoint>
          <Trackpoint>
            <Time>2022-07-09T15:14:15.000Z</Time>
            <Position>
              <LatitudeDegrees>42.7900795452296733856201171875</LatitudeDegrees>
              <LongitudeDegrees>-0.13525374233722686767578125</LongitudeDegrees>
            </Position>
            <AltitudeMeters>2367.800048828125</AltitudeMeters>
            <DistanceMeters>20147.636340086</DistanceMeters>
          </Trackpoint>
          <Trackpoint>
            <Time>2022-07-09T15:14:16.000Z</Time>
            <Position>
              <LatitudeDegrees>42.79009220190346240997314453125</LatitudeDegrees>
              <LongitudeDegrees>-0.13525868766009807586669921875</LongitudeDegrees>
            </Position>
            <AltitudeMeters>2367.60009765625</AltitudeMeters>
            <DistanceMeters>20149.102340834</DistanceMeters>
          </Trackpoint>
          <Trackpoint>
            <Time>2022-07-09T15:14:19.000Z</Time>
            <Position>
              <LatitudeDegrees>42.79012287966907024383544921875</LatitudeDegrees>
              <LongitudeDegrees>-0.1352773793041706085205078125</LongitudeDegrees>
            </Position>
            <AltitudeMeters>2366.800048828125</AltitudeMeters>
            <DistanceMeters>20152.842339285</DistanceMeters>
          </Trackpoint>
          <Trackpoint>
            <Time>2022-07-09T15:14:21.000Z</Time>
            <Position>
              <LatitudeDegrees>42.79013763181865215301513671875</LatitudeDegrees>
              <LongitudeDegrees>-0.135290957987308502197265625</LongitudeDegrees>
            </Position>
            <AltitudeMeters>2366.60009765625</AltitudeMeters>
            <DistanceMeters>20154.821999149</DistanceMeters>
          </Trackpoint>
          <Trackpoint>
            <Time>2022-07-09T15:14:23.000Z</Time>
            <Position>
              <LatitudeDegrees>42.79015422798693180084228515625</LatitudeDegrees>
              <LongitudeDegrees>-0.13529841788113117218017578125</LongitudeDegrees>
            </Position>
            <AltitudeMeters>2366.39990234375</AltitudeMeters>
            <DistanceMeters>20156.76714748</DistanceMeters>
          </Trackpoint>
          <Trackpoint>
            <Time>2022-07-09T15:14:26.000Z</Time>
            <Position>
              <LatitudeDegrees>42.7901802957057952880859375</LatitudeDegrees>
              <LongitudeDegrees>-0.135299675166606903076171875</LongitudeDegrees>
            </Position>
            <AltitudeMeters>2365.199951171875</AltitudeMeters>
            <DistanceMeters>20159.671298199</DistanceMeters>
          </Trackpoint>
          <Trackpoint>
            <Time>2022-07-09T15:14:31.000Z</Time>
            <Position>
              <LatitudeDegrees>42.79022924602031707763671875</LatitudeDegrees>
              <LongitudeDegrees>-0.13533730991184711456298828125</LongitudeDegrees>
            </Position>
            <AltitudeMeters>2364</AltitudeMeters>
            <DistanceMeters>20165.927203514</DistanceMeters>
          </Trackpoint>
          <Trackpoint>
            <Time>2022-07-09T15:14:32.000Z</Time>
            <Position>
              <LatitudeDegrees>42.79023888520896434783935546875</LatitudeDegrees>
              <LongitudeDegrees>-0.135341584682464599609375</LongitudeDegrees>
            </Position>
            <AltitudeMeters>2363.800048828125</AltitudeMeters>
            <DistanceMeters>20167.051574761</DistanceMeters>
          </Trackpoint>
          <Trackpoint>
            <Time>2022-07-09T15:14:36.000Z</Time>
            <Position>
              <LatitudeDegrees>42.79028548859059810638427734375</LatitudeDegrees>
              <LongitudeDegrees>-0.13534317724406719207763671875</LongitudeDegrees>
            </Position>
            <AltitudeMeters>2363</AltitudeMeters>
            <DistanceMeters>20172.240764289</DistanceMeters>
          </Trackpoint>
          <Trackpoint>
            <Time>2022-07-09T15:14:38.000Z</Time>
            <Position>
              <LatitudeDegrees>42.790302671492099761962890625</LatitudeDegrees>
              <LongitudeDegrees>-0.13535030186176300048828125</LongitudeDegrees>
            </Position>
            <AltitudeMeters>2362.800048828125</AltitudeMeters>
            <DistanceMeters>20174.243101409</DistanceMeters>
          </Trackpoint>
          <Trackpoint>
            <Time>2022-07-09T15:14:39.000Z</Time>
            <Position>
              <LatitudeDegrees>42.7903090417385101318359375</LatitudeDegrees>
              <LongitudeDegrees>-0.13535206206142902374267578125</LongitudeDegrees>
            </Position>
            <AltitudeMeters>2362.800048828125</AltitudeMeters>
            <DistanceMeters>20174.966803304</DistanceMeters>
          </Trackpoint>
          <Trackpoint>
            <Time>2022-07-09T15:14:40.000Z</Time>
            <Position>
              <LatitudeDegrees>42.79031641781330108642578125</LatitudeDegrees>
              <LongitudeDegrees>-0.135350637137889862060546875</LongitudeDegrees>
            </Position>
            <AltitudeMeters>2362.60009765625</AltitudeMeters>
            <DistanceMeters>20175.795226994</DistanceMeters>
          </Trackpoint>
          <Trackpoint>
            <Time>2022-07-09T15:14:44.000Z</Time>
            <Position>
              <LatitudeDegrees>42.790348939597606658935546875</LatitudeDegrees>
              <LongitudeDegrees>-0.1353491283953189849853515625</LongitudeDegrees>
            </Position>
            <AltitudeMeters>2362.39990234375</AltitudeMeters>
            <DistanceMeters>20179.417477824</DistanceMeters>
          </Trackpoint>
          <Trackpoint>
            <Time>2022-07-09T15:14:45.000Z</Time>
            <Position>
              <LatitudeDegrees>42.79035908170044422149658203125</LatitudeDegrees>
              <LongitudeDegrees>-0.135350637137889862060546875</LongitudeDegrees>
            </Position>
            <AltitudeMeters>2362</AltitudeMeters>
            <DistanceMeters>20180.553832052</DistanceMeters>
          </Trackpoint>
          <Trackpoint>
            <Time>2022-07-09T15:14:46.000Z</Time>
            <Position>
              <LatitudeDegrees>42.79037006199359893798828125</LatitudeDegrees>
              <LongitudeDegrees>-0.1353511400520801544189453125</LongitudeDegrees>
            </Position>
            <AltitudeMeters>2362</AltitudeMeters>
            <DistanceMeters>20181.778165621</DistanceMeters>
          </Trackpoint>
          <Trackpoint>
            <Time>2022-07-09T15:14:47.000Z</Time>
            <Position>
              <LatitudeDegrees>42.79038037173449993133544921875</LatitudeDegrees>
              <LongitudeDegrees>-0.1353528164327144622802734375</LongitudeDegrees>
            </Position>
            <AltitudeMeters>2361.800048828125</AltitudeMeters>
            <DistanceMeters>20182.934215496</DistanceMeters>
          </Trackpoint>
          <Trackpoint>
            <Time>2022-07-09T15:14:48.000Z</Time>
            <Position>
              <LatitudeDegrees>42.790388166904449462890625</LatitudeDegrees>
              <LongitudeDegrees>-0.13535306788980960845947265625</LongitudeDegrees>
            </Position>
            <AltitudeMeters>2361.39990234375</AltitudeMeters>
            <DistanceMeters>20183.80514972</DistanceMeters>
          </Trackpoint>
          <Trackpoint>
            <Time>2022-07-09T15:14:49.000Z</Time>
            <Position>
              <LatitudeDegrees>42.7903920225799083709716796875</LatitudeDegrees>
              <LongitudeDegrees>-0.13535390608012676239013671875</LongitudeDegrees>
            </Position>
            <AltitudeMeters>2361.199951171875</AltitudeMeters>
            <DistanceMeters>20184.240616831</DistanceMeters>
          </Trackpoint>
          <Trackpoint>
            <Time>2022-07-09T15:14:51.000Z</Time>
            <Position>
              <LatitudeDegrees>42.790405936539173126220703125</LatitudeDegrees>
              <LongitudeDegrees>-0.135364048182964324951171875</LongitudeDegrees>
            </Position>
            <AltitudeMeters>2360.800048828125</AltitudeMeters>
            <DistanceMeters>20185.997968857</DistanceMeters>
          </Trackpoint>
          <Trackpoint>
            <Time>2022-07-09T15:14:54.000Z</Time>
            <Position>
              <LatitudeDegrees>42.7904282324016094207763671875</LatitudeDegrees>
              <LongitudeDegrees>-0.13538307510316371917724609375</LongitudeDegrees>
            </Position>
            <AltitudeMeters>2359.800048828125</AltitudeMeters>
            <DistanceMeters>20188.926888901</DistanceMeters>
          </Trackpoint>
          <Trackpoint>
            <Time>2022-07-09T15:14:55.000Z</Time>
            <Position>
              <LatitudeDegrees>42.79043384827673435211181640625</LatitudeDegrees>
              <LongitudeDegrees>-0.13538877479732036590576171875</LongitudeDegrees>
            </Position>
            <AltitudeMeters>2359.800048828125</AltitudeMeters>
            <DistanceMeters>20189.710499262</DistanceMeters>
          </Trackpoint>
          <Trackpoint>
            <Time>2022-07-09T15:14:57.000Z</Time>
            <Position>
              <LatitudeDegrees>42.79044893570244312286376953125</LatitudeDegrees>
              <LongitudeDegrees>-0.1354027725756168365478515625</LongitudeDegrees>
            </Position>
            <AltitudeMeters>2359.60009765625</AltitudeMeters>
            <DistanceMeters>20191.741938391</DistanceMeters>
          </Trackpoint>
          <Trackpoint>
            <Time>2022-07-09T15:14:58.000Z</Time>
            <Position>
              <LatitudeDegrees>42.790459580719470977783203125</LatitudeDegrees>
              <LongitudeDegrees>-0.13541333377361297607421875</LongitudeDegrees>
            </Position>
            <AltitudeMeters>2359.60009765625</AltitudeMeters>
            <DistanceMeters>20193.204856064</DistanceMeters>
          </Trackpoint>
          <Trackpoint>
            <Time>2022-07-09T15:15:01.000Z</Time>
            <Position>
              <LatitudeDegrees>42.79049587436020374298095703125</LatitudeDegrees>
              <LongitudeDegrees>-0.13542138040065765380859375</LongitudeDegrees>
            </Position>
            <AltitudeMeters>2359.199951171875</AltitudeMeters>
            <DistanceMeters>20197.297629183</DistanceMeters>
          </Trackpoint>
          <Trackpoint>
            <Time>2022-07-09T15:15:03.000Z</Time>
            <Position>
              <LatitudeDegrees>42.79051749967038631439208984375</LatitudeDegrees>
              <LongitudeDegrees>-0.1354259066283702850341796875</LongitudeDegrees>
            </Position>
            <AltitudeMeters>2358.60009765625</AltitudeMeters>
            <DistanceMeters>20199.731500615</DistanceMeters>
          </Trackpoint>
          <Trackpoint>
            <Time>2022-07-09T15:15:04.000Z</Time>
            <Position>
              <LatitudeDegrees>42.79052739031612873077392578125</LatitudeDegrees>
              <LongitudeDegrees>-0.13542967848479747772216796875</LongitudeDegrees>
            </Position>
            <AltitudeMeters>2358.199951171875</AltitudeMeters>
            <DistanceMeters>20200.871821187</DistanceMeters>
          </Trackpoint>
          <Trackpoint>
            <Time>2022-07-09T15:15:06.000Z</Time>
            <Position>
              <LatitudeDegrees>42.79054985381662845611572265625</LatitudeDegrees>
              <LongitudeDegrees>-0.1354413293302059173583984375</LongitudeDegrees>
            </Position>
            <AltitudeMeters>2357.39990234375</AltitudeMeters>
            <DistanceMeters>20203.54610998</DistanceMeters>
          </Trackpoint>
          <Trackpoint>
            <Time>2022-07-09T15:15:11.000Z</Time>
            <Position>
              <LatitudeDegrees>42.79060743749141693115234375</LatitudeDegrees>
              <LongitudeDegrees>-0.1354624517261981964111328125</LongitudeDegrees>
            </Position>
            <AltitudeMeters>2357</AltitudeMeters>
            <DistanceMeters>20210.183030417</DistanceMeters>
          </Trackpoint>
          <Trackpoint>
            <Time>2022-07-09T15:15:14.000Z</Time>
            <Position>
              <LatitudeDegrees>42.79064440168440341949462890625</LatitudeDegrees>
              <LongitudeDegrees>-0.13547779060900211334228515625</LongitudeDegrees>
            </Position>
            <AltitudeMeters>2356.39990234375</AltitudeMeters>
            <DistanceMeters>20214.483448601</DistanceMeters>
          </Trackpoint>
          <Trackpoint>
            <Time>2022-07-09T15:15:15.000Z</Time>
            <Position>
              <LatitudeDegrees>42.790652699768543243408203125</LatitudeDegrees>
              <LongitudeDegrees>-0.135475695133209228515625</LongitudeDegrees>
            </Position>
            <AltitudeMeters>2356.39990234375</AltitudeMeters>
            <DistanceMeters>20215.424165079</DistanceMeters>
          </Trackpoint>
          <Trackpoint>
            <Time>2022-07-09T15:15:16.000Z</Time>
            <Position>
              <LatitudeDegrees>42.79066032730042934417724609375</LatitudeDegrees>
              <LongitudeDegrees>-0.13547443784773349761962890625</LongitudeDegrees>
            </Position>
            <AltitudeMeters>2356</AltitudeMeters>
            <DistanceMeters>20216.279405508</DistanceMeters>
          </Trackpoint>
          <Trackpoint>
            <Time>2022-07-09T15:15:18.000Z</Time>
            <Position>
              <LatitudeDegrees>42.79066585935652256011962890625</LatitudeDegrees>
              <LongitudeDegrees>-0.13547309674322605133056640625</LongitudeDegrees>
            </Position>
            <AltitudeMeters>2355</AltitudeMeters>
            <DistanceMeters>20216.895249003</DistanceMeters>
          </Trackpoint>
          <Trackpoint>
            <Time>2022-07-09T15:15:19.000Z</Time>
            <Position>
              <LatitudeDegrees>42.79066150076687335968017578125</LatitudeDegrees>
              <LongitudeDegrees>-0.1354721747338771820068359375</LongitudeDegrees>
            </Position>
            <AltitudeMeters>2354.60009765625</AltitudeMeters>
            <DistanceMeters>20217.389022295</DistanceMeters>
          </Trackpoint>
          <Trackpoint>
            <Time>2022-07-09T15:15:22.000Z</Time>
            <Position>
              <LatitudeDegrees>42.79062747023999691009521484375</LatitudeDegrees>
              <LongitudeDegrees>-0.13548768125474452972412109375</LongitudeDegrees>
            </Position>
            <AltitudeMeters>2354.199951171875</AltitudeMeters>
            <DistanceMeters>20221.384666818</DistanceMeters>
          </Trackpoint>
          <Trackpoint>
            <Time>2022-07-09T15:15:24.000Z</Time>
            <Position>
              <LatitudeDegrees>42.79061070643365383148193359375</LatitudeDegrees>
              <LongitudeDegrees>-0.1354963146150112152099609375</LongitudeDegrees>
            </Position>
            <AltitudeMeters>2353.800048828125</AltitudeMeters>
            <DistanceMeters>20223.377963995</DistanceMeters>
          </Trackpoint>
          <Trackpoint>
            <Time>2022-07-09T15:15:26.000Z</Time>
            <Position>
              <LatitudeDegrees>42.79059126041829586029052734375</LatitudeDegrees>
              <LongitudeDegrees>-0.135505534708499908447265625</LongitudeDegrees>
            </Position>
            <AltitudeMeters>2353.39990234375</AltitudeMeters>
            <DistanceMeters>20225.670452706</DistanceMeters>
          </Trackpoint>
          <Trackpoint>
            <Time>2022-07-09T15:15:29.000Z</Time>
            <Position>
              <LatitudeDegrees>42.7905539609491825103759765625</LatitudeDegrees>
              <LongitudeDegrees>-0.135539732873439788818359375</LongitudeDegrees>
            </Position>
            <AltitudeMeters>2352.800048828125</AltitudeMeters>
            <DistanceMeters>20230.674491273</DistanceMeters>
          </Trackpoint>
          <Trackpoint>
            <Time>2022-07-09T15:15:32.000Z</Time>
            <Position>
              <LatitudeDegrees>42.79052956961095333099365234375</LatitudeDegrees>
              <LongitudeDegrees>-0.13555121608078479766845703125</LongitudeDegrees>
            </Position>
            <AltitudeMeters>2352.39990234375</AltitudeMeters>
            <DistanceMeters>20233.545808008</DistanceMeters>
          </Trackpoint>
          <Trackpoint>
            <Time>2022-07-09T15:15:33.000Z</Time>
            <Position>
              <LatitudeDegrees>42.7905224449932575225830078125</LatitudeDegrees>
              <LongitudeDegrees>-0.13555146753787994384765625</LongitudeDegrees>
            </Position>
            <AltitudeMeters>2352.199951171875</AltitudeMeters>
            <DistanceMeters>20234.335159181</DistanceMeters>
          </Trackpoint>
          <Trackpoint>
            <Time>2022-07-09T15:15:36.000Z</Time>
            <Position>
              <LatitudeDegrees>42.790487743914127349853515625</LatitudeDegrees>
              <LongitudeDegrees>-0.13556513004004955291748046875</LongitudeDegrees>
            </Position>
            <AltitudeMeters>2351.199951171875</AltitudeMeters>
            <DistanceMeters>20238.354463444</DistanceMeters>
          </Trackpoint>
          <Trackpoint>
            <Time>2022-07-09T15:15:40.000Z</Time>
            <Position>
              <LatitudeDegrees>42.790458910167217254638671875</LatitudeDegrees>
              <LongitudeDegrees>-0.1355754397809505462646484375</LongitudeDegrees>
            </Position>
            <AltitudeMeters>2350.39990234375</AltitudeMeters>
            <DistanceMeters>20241.673603885</DistanceMeters>
          </Trackpoint>
          <Trackpoint>
            <Time>2022-07-09T15:15:41.000Z</Time>
            <Position>
              <LatitudeDegrees>42.7904517017304897308349609375</LatitudeDegrees>
              <LongitudeDegrees>-0.13557619415223598480224609375</LongitudeDegrees>
            </Position>
            <AltitudeMeters>2350.199951171875</AltitudeMeters>
            <DistanceMeters>20242.479932294</DistanceMeters>
          </Trackpoint>
          <Trackpoint>
            <Time>2022-07-09T15:15:44.000Z</Time>
            <Position>
              <LatitudeDegrees>42.7904272265732288360595703125</LatitudeDegrees>
              <LongitudeDegrees>-0.13558725826442241668701171875</LongitudeDegrees>
            </Position>
            <AltitudeMeters>2349.800048828125</AltitudeMeters>
            <DistanceMeters>20245.34810238</DistanceMeters>
          </Trackpoint>
          <Trackpoint>
            <Time>2022-07-09T15:15:48.000Z</Time>
            <Position>
              <LatitudeDegrees>42.79038841836154460906982421875</LatitudeDegrees>
              <LongitudeDegrees>-0.1356165111064910888671875</LongitudeDegrees>
            </Position>
            <AltitudeMeters>2348.800048828125</AltitudeMeters>
            <DistanceMeters>20250.284006172</DistanceMeters>
          </Trackpoint>
          <Trackpoint>
            <Time>2022-07-09T15:15:51.000Z</Time>
            <Position>
              <LatitudeDegrees>42.7903859876096248626708984375</LatitudeDegrees>
              <LongitudeDegrees>-0.1356505416333675384521484375</LongitudeDegrees>
            </Position>
            <AltitudeMeters>2347.800048828125</AltitudeMeters>
            <DistanceMeters>20253.077209718</DistanceMeters>
          </Trackpoint>
          <Trackpoint>
            <Time>2022-07-09T15:15:52.000Z</Time>
            <Position>
              <LatitudeDegrees>42.790392525494098663330078125</LatitudeDegrees>
              <LongitudeDegrees>-0.1356612704694271087646484375</LongitudeDegrees>
            </Position>
            <AltitudeMeters>2347.39990234375</AltitudeMeters>
            <DistanceMeters>20254.21753029</DistanceMeters>
          </Trackpoint>
          <Trackpoint>
            <Time>2022-07-09T15:15:53.000Z</Time>
            <Position>
              <LatitudeDegrees>42.79040099121630191802978515625</LatitudeDegrees>
              <LongitudeDegrees>-0.13567141257226467132568359375</LongitudeDegrees>
            </Position>
            <AltitudeMeters>2346.800048828125</AltitudeMeters>
            <DistanceMeters>20255.471018743</DistanceMeters>
          </Trackpoint>
          <Trackpoint>
            <Time>2022-07-09T15:15:54.000Z</Time>
            <Position>
              <LatitudeDegrees>42.7904107980430126190185546875</LatitudeDegrees>
              <LongitudeDegrees>-0.135681889951229095458984375</LongitudeDegrees>
            </Position>
            <AltitudeMeters>2346.199951171875</AltitudeMeters>
            <DistanceMeters>20256.854628589</DistanceMeters>
          </Trackpoint>
          <Trackpoint>
            <Time>2022-07-09T15:15:58.000Z</Time>
            <Position>
              <LatitudeDegrees>42.7904537133872509002685546875</LatitudeDegrees>
              <LongitudeDegrees>-0.13571231625974178314208984375</LongitudeDegrees>
            </Position>
            <AltitudeMeters>2345.199951171875</AltitudeMeters>
            <DistanceMeters>20262.239382572</DistanceMeters>
          </Trackpoint>
          <Trackpoint>
            <Time>2022-07-09T15:16:01.000Z</Time>
            <Position>
              <LatitudeDegrees>42.7904791943728923797607421875</LatitudeDegrees>
              <LongitudeDegrees>-0.13572740368545055389404296875</LongitudeDegrees>
            </Position>
            <AltitudeMeters>2345</AltitudeMeters>
            <DistanceMeters>20265.331768537</DistanceMeters>
          </Trackpoint>
          <Trackpoint>
            <Time>2022-07-09T15:16:02.000Z</Time>
            <Position>
              <LatitudeDegrees>42.79049017466604709625244140625</LatitudeDegrees>
              <LongitudeDegrees>-0.13573863543570041656494140625</LongitudeDegrees>
            </Position>
            <AltitudeMeters>2345</AltitudeMeters>
            <DistanceMeters>20266.858123582</DistanceMeters>
          </Trackpoint>
          <Trackpoint>
            <Time>2022-07-09T15:16:07.000Z</Time>
            <Position>
              <LatitudeDegrees>42.79052873142063617706298828125</LatitudeDegrees>
              <LongitudeDegrees>-0.1357983984053134918212890625</LongitudeDegrees>
            </Position>
            <AltitudeMeters>2344.800048828125</AltitudeMeters>
            <DistanceMeters>20273.357561835</DistanceMeters>
          </Trackpoint>
          <Trackpoint>
            <Time>2022-07-09T15:16:09.000Z</Time>
            <Position>
              <LatitudeDegrees>42.79054574668407440185546875</LatitudeDegrees>
              <LongitudeDegrees>-0.13582547195255756378173828125</LongitudeDegrees>
            </Position>
            <AltitudeMeters>2344.199951171875</AltitudeMeters>
            <DistanceMeters>20276.269475601</DistanceMeters>
          </Trackpoint>
          <Trackpoint>
            <Time>2022-07-09T15:16:10.000Z</Time>
            <Position>
              <LatitudeDegrees>42.7905526198446750640869140625</LatitudeDegrees>
              <LongitudeDegrees>-0.13583846390247344970703125</LongitudeDegrees>
            </Position>
            <AltitudeMeters>2344</AltitudeMeters>
            <DistanceMeters>20277.579328464</DistanceMeters>
          </Trackpoint>
          <Trackpoint>
            <Time>2022-07-09T15:16:12.000Z</Time>
            <Position>
              <LatitudeDegrees>42.79055907391011714935302734375</LatitudeDegrees>
              <LongitudeDegrees>-0.13585933484137058258056640625</LongitudeDegrees>
            </Position>
            <AltitudeMeters>2343.60009765625</AltitudeMeters>
            <DistanceMeters>20279.429301159</DistanceMeters>
          </Trackpoint>
          <Trackpoint>
            <Time>2022-07-09T15:16:15.000Z</Time>
            <Position>
              <LatitudeDegrees>42.7905801124870777130126953125</LatitudeDegrees>
              <LongitudeDegrees>-0.13589210808277130126953125</LongitudeDegrees>
            </Position>
            <AltitudeMeters>2343</AltitudeMeters>
            <DistanceMeters>20282.986144858</DistanceMeters>
          </Trackpoint>
          <Trackpoint>
            <Time>2022-07-09T15:16:16.000Z</Time>
            <Position>
              <LatitudeDegrees>42.79058639891445636749267578125</LatitudeDegrees>
              <LongitudeDegrees>-0.13589906506240367889404296875</LongitudeDegrees>
            </Position>
            <AltitudeMeters>2342.800048828125</AltitudeMeters>
            <DistanceMeters>20283.887647426</DistanceMeters>
          </Trackpoint>
          <Trackpoint>
            <Time>2022-07-09T15:16:22.000Z</Time>
            <Position>
              <LatitudeDegrees>42.79064289294183254241943359375</LatitudeDegrees>
              <LongitudeDegrees>-0.13592035509645938873291015625</LongitudeDegrees>
            </Position>
            <AltitudeMeters>2342</AltitudeMeters>
            <DistanceMeters>20290.412046276</DistanceMeters>
          </Trackpoint>
          <Trackpoint>
            <Time>2022-07-09T15:16:23.000Z</Time>
            <Position>
              <LatitudeDegrees>42.79065261594951152801513671875</LatitudeDegrees>
              <LongitudeDegrees>-0.13591767288744449615478515625</LongitudeDegrees>
            </Position>
            <AltitudeMeters>2342</AltitudeMeters>
            <DistanceMeters>20291.516156923</DistanceMeters>
          </Trackpoint>
          <Trackpoint>
            <Time>2022-07-09T15:16:25.000Z</Time>
            <Position>
              <LatitudeDegrees>42.790667451918125152587890625</LatitudeDegrees>
              <LongitudeDegrees>-0.13591515831649303436279296875</LongitudeDegrees>
            </Position>
            <AltitudeMeters>2342</AltitudeMeters>
            <DistanceMeters>20293.181159466</DistanceMeters>
          </Trackpoint>
          <Trackpoint>
            <Time>2022-07-09T15:16:27.000Z</Time>
            <Position>
              <LatitudeDegrees>42.7906763367354869842529296875</LatitudeDegrees>
              <LongitudeDegrees>-0.135919265449047088623046875</LongitudeDegrees>
            </Position>
            <AltitudeMeters>2341.800048828125</AltitudeMeters>
            <DistanceMeters>20294.222124966</DistanceMeters>
          </Trackpoint>
          <Trackpoint>
            <Time>2022-07-09T15:16:28.000Z</Time>
            <Position>
              <LatitudeDegrees>42.7906696312129497528076171875</LatitudeDegrees>
              <LongitudeDegrees>-0.13592161238193511962890625</LongitudeDegrees>
            </Position>
            <AltitudeMeters>2341.800048828125</AltitudeMeters>
            <DistanceMeters>20294.994125643</DistanceMeters>
          </Trackpoint>
          <Trackpoint>
            <Time>2022-07-09T15:16:31.000Z</Time>
            <Position>
              <LatitudeDegrees>42.79063216410577297210693359375</LatitudeDegrees>
              <LongitudeDegrees>-0.13593946583569049835205078125</LongitudeDegrees>
            </Position>
            <AltitudeMeters>2341</AltitudeMeters>
            <DistanceMeters>20299.41056823</DistanceMeters>
          </Trackpoint>
          <Trackpoint>
            <Time>2022-07-09T15:16:32.000Z</Time>
            <Position>
              <LatitudeDegrees>42.7906215190887451171875</LatitudeDegrees>
              <LongitudeDegrees>-0.1359422318637371063232421875</LongitudeDegrees>
            </Position>
            <AltitudeMeters>2340.800048828125</AltitudeMeters>
            <DistanceMeters>20300.612571654</DistanceMeters>
          </Trackpoint>
          <Trackpoint>
            <Time>2022-07-09T15:16:38.000Z</Time>
            <Position>
              <LatitudeDegrees>42.7905693836510181427001953125</LatitudeDegrees>
              <LongitudeDegrees>-0.13596243225038051605224609375</LongitudeDegrees>
            </Position>
            <AltitudeMeters>2339.60009765625</AltitudeMeters>
            <DistanceMeters>20306.645832641</DistanceMeters>
          </Trackpoint>
          <Trackpoint>
            <Time>2022-07-09T15:16:42.000Z</Time>
            <Position>
              <LatitudeDegrees>42.79053795151412487030029296875</LatitudeDegrees>
              <LongitudeDegrees>-0.1359732449054718017578125</LongitudeDegrees>
            </Position>
            <AltitudeMeters>2338.39990234375</AltitudeMeters>
            <DistanceMeters>20310.254346218</DistanceMeters>
          </Trackpoint>
          <Trackpoint>
            <Time>2022-07-09T15:16:44.000Z</Time>
            <Position>
              <LatitudeDegrees>42.790526635944843292236328125</LatitudeDegrees>
              <LongitudeDegrees>-0.1359750889241695404052734375</LongitudeDegrees>
            </Position>
            <AltitudeMeters>2338</AltitudeMeters>
            <DistanceMeters>20311.522160718</DistanceMeters>
          </Trackpoint>
          <Trackpoint>
            <Time>2022-07-09T15:16:46.000Z</Time>
            <Position>
              <LatitudeDegrees>42.79050978831946849822998046875</LatitudeDegrees>
              <LongitudeDegrees>-0.13597299344837665557861328125</LongitudeDegrees>
            </Position>
            <AltitudeMeters>2338</AltitudeMeters>
            <DistanceMeters>20313.403593674</DistanceMeters>
          </Trackpoint>
          <Trackpoint>
            <Time>2022-07-09T15:16:49.000Z</Time>
            <Position>
              <LatitudeDegrees>42.79049067758023738861083984375</LatitudeDegrees>
              <LongitudeDegrees>-0.1359600014984607696533203125</LongitudeDegrees>
            </Position>
            <AltitudeMeters>2337.199951171875</AltitudeMeters>
            <DistanceMeters>20315.781161308</DistanceMeters>
          </Trackpoint>
          <Trackpoint>
            <Time>2022-07-09T15:16:50.000Z</Time>
            <Position>
              <LatitudeDegrees>42.79048413969576358795166015625</LatitudeDegrees>
              <LongitudeDegrees>-0.135954804718494415283203125</LongitudeDegrees>
            </Position>
            <AltitudeMeters>2337</AltitudeMeters>
            <DistanceMeters>20316.62577722</DistanceMeters>
          </Trackpoint>
          <Trackpoint>
            <Time>2022-07-09T15:16:51.000Z</Time>
            <Position>
              <LatitudeDegrees>42.79047667980194091796875</LatitudeDegrees>
              <LongitudeDegrees>-0.1359491050243377685546875</LongitudeDegrees>
            </Position>
            <AltitudeMeters>2336.800048828125</AltitudeMeters>
            <DistanceMeters>20317.58078388</DistanceMeters>
          </Trackpoint>
          <Trackpoint>
            <Time>2022-07-09T15:16:53.000Z</Time>
            <Position>
              <LatitudeDegrees>42.79046519659459590911865234375</LatitudeDegrees>
              <LongitudeDegrees>-0.1359388791024684906005859375</LongitudeDegrees>
            </Position>
            <AltitudeMeters>2336.39990234375</AltitudeMeters>
            <DistanceMeters>20319.107138925</DistanceMeters>
          </Trackpoint>
          <Trackpoint>
            <Time>2022-07-09T15:16:55.000Z</Time>
            <Position>
              <LatitudeDegrees>42.790451534092426300048828125</LatitudeDegrees>
              <LongitudeDegrees>-0.13592706061899662017822265625</LongitudeDegrees>
            </Position>
            <AltitudeMeters>2336.199951171875</AltitudeMeters>
            <DistanceMeters>20320.91014406</DistanceMeters>
          </Trackpoint>
          <Trackpoint>
            <Time>2022-07-09T15:16:56.000Z</Time>
            <Position>
              <LatitudeDegrees>42.79044248163700103759765625</LatitudeDegrees>
              <LongitudeDegrees>-0.1359204389154911041259765625</LongitudeDegrees>
            </Position>
            <AltitudeMeters>2335.800048828125</AltitudeMeters>
            <DistanceMeters>20322.050464633</DistanceMeters>
          </Trackpoint>
          <Trackpoint>
            <Time>2022-07-09T15:16:57.000Z</Time>
            <Position>
              <LatitudeDegrees>42.7904332615435123443603515625</LatitudeDegrees>
              <LongitudeDegrees>-0.135915577411651611328125</LongitudeDegrees>
            </Position>
            <AltitudeMeters>2335.60009765625</AltitudeMeters>
            <DistanceMeters>20323.15047838</DistanceMeters>
          </Trackpoint>
          <Trackpoint>
            <Time>2022-07-09T15:16:59.000Z</Time>
            <Position>
              <LatitudeDegrees>42.79041507281363010406494140625</LatitudeDegrees>
              <LongitudeDegrees>-0.135911889374256134033203125</LongitudeDegrees>
            </Position>
            <AltitudeMeters>2335.39990234375</AltitudeMeters>
            <DistanceMeters>20325.197416452</DistanceMeters>
          </Trackpoint>
          <Trackpoint>
            <Time>2022-07-09T15:17:01.000Z</Time>
            <Position>
              <LatitudeDegrees>42.79040266759693622589111328125</LatitudeDegrees>
              <LongitudeDegrees>-0.13590878807008266448974609375</LongitudeDegrees>
            </Position>
            <AltitudeMeters>2335.39990234375</AltitudeMeters>
            <DistanceMeters>20326.600469075</DistanceMeters>
          </Trackpoint>
          <Trackpoint>
            <Time>2022-07-09T15:17:04.000Z</Time>
            <Position>
              <LatitudeDegrees>42.790385149419307708740234375</LatitudeDegrees>
              <LongitudeDegrees>-0.1359117217361927032470703125</LongitudeDegrees>
            </Position>
            <AltitudeMeters>2334.800048828125</AltitudeMeters>
            <DistanceMeters>20328.566397029</DistanceMeters>
          </Trackpoint>
          <Trackpoint>
            <Time>2022-07-09T15:17:09.000Z</Time>
            <Position>
              <LatitudeDegrees>42.79036360792815685272216796875</LatitudeDegrees>
              <LongitudeDegrees>-0.13592622242867946624755859375</LongitudeDegrees>
            </Position>
            <AltitudeMeters>2334.39990234375</AltitudeMeters>
            <DistanceMeters>20331.240685821</DistanceMeters>
          </Trackpoint>
          <Trackpoint>
            <Time>2022-07-09T15:17:12.000Z</Time>
            <Position>
              <LatitudeDegrees>42.79039244167506694793701171875</LatitudeDegrees>
              <LongitudeDegrees>-0.13594700954854488372802734375</LongitudeDegrees>
            </Position>
            <AltitudeMeters>2333.800048828125</AltitudeMeters>
            <DistanceMeters>20334.870407784</DistanceMeters>
          </Trackpoint>
          <Trackpoint>
            <Time>2022-07-09T15:17:15.000Z</Time>
            <Position>
              <LatitudeDegrees>42.7904081158339977264404296875</LatitudeDegrees>
              <LongitudeDegrees>-0.13596259988844394683837890625</LongitudeDegrees>
            </Position>
            <AltitudeMeters>2333</AltitudeMeters>
            <DistanceMeters>20337.02899979</DistanceMeters>
          </Trackpoint>
          <Trackpoint>
            <Time>2022-07-09T15:17:19.000Z</Time>
            <Position>
              <LatitudeDegrees>42.7904297411441802978515625</LatitudeDegrees>
              <LongitudeDegrees>-0.1359791122376918792724609375</LongitudeDegrees>
            </Position>
            <AltitudeMeters>2332.60009765625</AltitudeMeters>
            <DistanceMeters>20339.789685306</DistanceMeters>
          </Trackpoint>
          <Trackpoint>
            <Time>2022-07-09T15:17:20.000Z</Time>
            <Position>
              <LatitudeDegrees>42.7904285676777362823486328125</LatitudeDegrees>
              <LongitudeDegrees>-0.13598439283668994903564453125</LongitudeDegrees>
            </Position>
            <AltitudeMeters>2332.60009765625</AltitudeMeters>
            <DistanceMeters>20340.235400104</DistanceMeters>
          </Trackpoint>
          <Trackpoint>
            <Time>2022-07-09T15:17:25.000Z</Time>
            <Position>
              <LatitudeDegrees>42.79037986882030963897705078125</LatitudeDegrees>
              <LongitudeDegrees>-0.13597819022834300994873046875</LongitudeDegrees>
            </Position>
            <AltitudeMeters>2332.199951171875</AltitudeMeters>
            <DistanceMeters>20345.67936106</DistanceMeters>
          </Trackpoint>
          <Trackpoint>
            <Time>2022-07-09T15:17:29.000Z</Time>
            <Position>
              <LatitudeDegrees>42.7903591655194759368896484375</LatitudeDegrees>
              <LongitudeDegrees>-0.135996378958225250244140625</LongitudeDegrees>
            </Position>
            <AltitudeMeters>2331.39990234375</AltitudeMeters>
            <DistanceMeters>20348.42035059</DistanceMeters>
          </Trackpoint>
          <Trackpoint>
            <Time>2022-07-09T15:17:31.000Z</Time>
            <Position>
              <LatitudeDegrees>42.7903507836163043975830078125</LatitudeDegrees>
              <LongitudeDegrees>-0.13600517995655536651611328125</LongitudeDegrees>
            </Position>
            <AltitudeMeters>2330.60009765625</AltitudeMeters>
            <DistanceMeters>20349.591918607</DistanceMeters>
          </Trackpoint>
          <Trackpoint>
            <Time>2022-07-09T15:17:32.000Z</Time>
            <Position>
              <LatitudeDegrees>42.79034650884568691253662109375</LatitudeDegrees>
              <LongitudeDegrees>-0.1360086165368556976318359375</LongitudeDegrees>
            </Position>
            <AltitudeMeters>2330.39990234375</AltitudeMeters>
            <DistanceMeters>20350.146014807</DistanceMeters>
          </Trackpoint>
          <Trackpoint>
            <Time>2022-07-09T15:17:34.000Z</Time>
            <Position>
              <LatitudeDegrees>42.79033812694251537322998046875</LatitudeDegrees>
              <LongitudeDegrees>-0.13602009974420070648193359375</LongitudeDegrees>
            </Position>
            <AltitudeMeters>2329.800048828125</AltitudeMeters>
            <DistanceMeters>20351.462743586</DistanceMeters>
          </Trackpoint>
          <Trackpoint>
            <Time>2022-07-09T15:17:36.000Z</Time>
            <Position>
              <LatitudeDegrees>42.79034902341663837432861328125</LatitudeDegrees>
              <LongitudeDegrees>-0.13604507781565189361572265625</LongitudeDegrees>
            </Position>
            <AltitudeMeters>2329.39990234375</AltitudeMeters>
            <DistanceMeters>20353.832702984</DistanceMeters>
          </Trackpoint>
          <Trackpoint>
            <Time>2022-07-09T15:17:39.000Z</Time>
            <Position>
              <LatitudeDegrees>42.790374755859375</LatitudeDegrees>
              <LongitudeDegrees>-0.1360582374036312103271484375</LongitudeDegrees>
            </Position>
            <AltitudeMeters>2328</AltitudeMeters>
            <DistanceMeters>20356.891323457</DistanceMeters>
          </Trackpoint>
          <Trackpoint>
            <Time>2022-07-09T15:17:42.000Z</Time>
            <Position>
              <LatitudeDegrees>42.790382802486419677734375</LatitudeDegrees>
              <LongitudeDegrees>-0.136067457497119903564453125</LongitudeDegrees>
            </Position>
            <AltitudeMeters>2327.60009765625</AltitudeMeters>
            <DistanceMeters>20358.062891474</DistanceMeters>
          </Trackpoint>
          <Trackpoint>
            <Time>2022-07-09T15:17:45.000Z</Time>
            <Position>
              <LatitudeDegrees>42.790354974567890167236328125</LatitudeDegrees>
              <LongitudeDegrees>-0.1360760070383548736572265625</LongitudeDegrees>
            </Position>
            <AltitudeMeters>2327</AltitudeMeters>
            <DistanceMeters>20361.238831554</DistanceMeters>
          </Trackpoint>
          <Trackpoint>
            <Time>2022-07-09T15:17:47.000Z</Time>
            <Position>
              <LatitudeDegrees>42.79034164734184741973876953125</LatitudeDegrees>
              <LongitudeDegrees>-0.1360832154750823974609375</LongitudeDegrees>
            </Position>
            <AltitudeMeters>2326.60009765625</AltitudeMeters>
            <DistanceMeters>20362.834601449</DistanceMeters>
          </Trackpoint>
          <Trackpoint>
            <Time>2022-07-09T15:17:49.000Z</Time>
            <Position>
              <LatitudeDegrees>42.7903278172016143798828125</LatitudeDegrees>
              <LongitudeDegrees>-0.1360981352627277374267578125</LongitudeDegrees>
            </Position>
            <AltitudeMeters>2326.199951171875</AltitudeMeters>
            <DistanceMeters>20364.795930734</DistanceMeters>
          </Trackpoint>
          <Trackpoint>
            <Time>2022-07-09T15:17:50.000Z</Time>
            <Position>
              <LatitudeDegrees>42.790317423641681671142578125</LatitudeDegrees>
              <LongitudeDegrees>-0.13610375113785266876220703125</LongitudeDegrees>
            </Position>
            <AltitudeMeters>2326</AltitudeMeters>
            <DistanceMeters>20366.038566269</DistanceMeters>
          </Trackpoint>
          <Trackpoint>
            <Time>2022-07-09T15:17:53.000Z</Time>
            <Position>
              <LatitudeDegrees>42.79030292294919490814208984375</LatitudeDegrees>
              <LongitudeDegrees>-0.13610408641397953033447265625</LongitudeDegrees>
            </Position>
            <AltitudeMeters>2325.39990234375</AltitudeMeters>
            <DistanceMeters>20367.651223088</DistanceMeters>
          </Trackpoint>
          <Trackpoint>
            <Time>2022-07-09T15:17:58.000Z</Time>
            <Position>
              <LatitudeDegrees>42.7902575768530368804931640625</LatitudeDegrees>
              <LongitudeDegrees>-0.13613593764603137969970703125</LongitudeDegrees>
            </Position>
            <AltitudeMeters>2324.800048828125</AltitudeMeters>
            <DistanceMeters>20373.329814725</DistanceMeters>
          </Trackpoint>
          <Trackpoint>
            <Time>2022-07-09T15:17:59.000Z</Time>
            <Position>
              <LatitudeDegrees>42.7902448363602161407470703125</LatitudeDegrees>
              <LongitudeDegrees>-0.136139877140522003173828125</LongitudeDegrees>
            </Position>
            <AltitudeMeters>2324.39990234375</AltitudeMeters>
            <DistanceMeters>20374.783443937</DistanceMeters>
          </Trackpoint>
          <Trackpoint>
            <Time>2022-07-09T15:18:03.000Z</Time>
            <Position>
              <LatitudeDegrees>42.79019999317824840545654296875</LatitudeDegrees>
              <LongitudeDegrees>-0.13615940697491168975830078125</LongitudeDegrees>
            </Position>
            <AltitudeMeters>2323.39990234375</AltitudeMeters>
            <DistanceMeters>20380.023717066</DistanceMeters>
          </Trackpoint>
          <Trackpoint>
            <Time>2022-07-09T15:18:06.000Z</Time>
            <Position>
              <LatitudeDegrees>42.79015573672950267791748046875</LatitudeDegrees>
              <LongitudeDegrees>-0.13616577722132205963134765625</LongitudeDegrees>
            </Position>
            <AltitudeMeters>2322.60009765625</AltitudeMeters>
            <DistanceMeters>20384.97697031</DistanceMeters>
          </Trackpoint>
          <Trackpoint>
            <Time>2022-07-09T15:18:08.000Z</Time>
            <Position>
              <LatitudeDegrees>42.790126316249370574951171875</LatitudeDegrees>
              <LongitudeDegrees>-0.1361672021448612213134765625</LongitudeDegrees>
            </Position>
            <AltitudeMeters>2322.39990234375</AltitudeMeters>
            <DistanceMeters>20388.256424692</DistanceMeters>
          </Trackpoint>
          <Trackpoint>
            <Time>2022-07-09T15:18:10.000Z</Time>
            <Position>
              <LatitudeDegrees>42.79010695405304431915283203125</LatitudeDegrees>
              <LongitudeDegrees>-0.136164017021656036376953125</LongitudeDegrees>
            </Position>
            <AltitudeMeters>2321.800048828125</AltitudeMeters>
            <DistanceMeters>20390.427530379</DistanceMeters>
          </Trackpoint>
          <Trackpoint>
            <Time>2022-07-09T15:18:13.000Z</Time>
            <Position>
              <LatitudeDegrees>42.79008650220930576324462890625</LatitudeDegrees>
              <LongitudeDegrees>-0.13615504838526248931884765625</LongitudeDegrees>
            </Position>
            <AltitudeMeters>2321.39990234375</AltitudeMeters>
            <DistanceMeters>20392.818354168</DistanceMeters>
          </Trackpoint>
          <Trackpoint>
            <Time>2022-07-09T15:18:15.000Z</Time>
            <Position>
              <LatitudeDegrees>42.79007124714553356170654296875</LatitudeDegrees>
              <LongitudeDegrees>-0.13615136034786701202392578125</LongitudeDegrees>
            </Position>
            <AltitudeMeters>2320.800048828125</AltitudeMeters>
            <DistanceMeters>20394.544600161</DistanceMeters>
          </Trackpoint>
          <Trackpoint>
            <Time>2022-07-09T15:18:17.000Z</Time>
            <Position>
              <LatitudeDegrees>42.790058590471744537353515625</LatitudeDegrees>
              <LongitudeDegrees>-0.136152617633342742919921875</LongitudeDegrees>
            </Position>
            <AltitudeMeters>2320.800048828125</AltitudeMeters>
            <DistanceMeters>20395.960466316</DistanceMeters>
          </Trackpoint>
          <Trackpoint>
            <Time>2022-07-09T15:18:18.000Z</Time>
            <Position>
              <LatitudeDegrees>42.79005515389144420623779296875</LatitudeDegrees>
              <LongitudeDegrees>-0.13615085743367671966552734375</LongitudeDegrees>
            </Position>
            <AltitudeMeters>2320.39990234375</AltitudeMeters>
            <DistanceMeters>20396.363630521</DistanceMeters>
          </Trackpoint>
          <Trackpoint>
            <Time>2022-07-09T15:18:19.000Z</Time>
            <Position>
              <LatitudeDegrees>42.7900533936917781829833984375</LatitudeDegrees>
              <LongitudeDegrees>-0.1361521147191524505615234375</LongitudeDegrees>
            </Position>
            <AltitudeMeters>2320.199951171875</AltitudeMeters>
            <DistanceMeters>20396.576116714</DistanceMeters>
          </Trackpoint>
          <Trackpoint>
            <Time>2022-07-09T15:18:23.000Z</Time>
            <Position>
              <LatitudeDegrees>42.79005381278693675994873046875</LatitudeDegrees>
              <LongitudeDegrees>-0.13619645498692989349365234375</LongitudeDegrees>
            </Position>
            <AltitudeMeters>2319.800048828125</AltitudeMeters>
            <DistanceMeters>20400.198367544</DistanceMeters>
          </Trackpoint>
          <Trackpoint>
            <Time>2022-07-09T15:18:24.000Z</Time>
            <Position>
              <LatitudeDegrees>42.79006026685237884521484375</LatitudeDegrees>
              <LongitudeDegrees>-0.1362077705562114715576171875</LongitudeDegrees>
            </Position>
            <AltitudeMeters>2319.39990234375</AltitudeMeters>
            <DistanceMeters>20401.373783085</DistanceMeters>
          </Trackpoint>
          <Trackpoint>
            <Time>2022-07-09T15:18:26.000Z</Time>
            <Position>
              <LatitudeDegrees>42.7900738455355167388916015625</LatitudeDegrees>
              <LongitudeDegrees>-0.13621958903968334197998046875</LongitudeDegrees>
            </Position>
            <AltitudeMeters>2319.199951171875</AltitudeMeters>
            <DistanceMeters>20403.166743546</DistanceMeters>
          </Trackpoint>
          <Trackpoint>
            <Time>2022-07-09T15:18:28.000Z</Time>
            <Position>
              <LatitudeDegrees>42.79008013196289539337158203125</LatitudeDegrees>
              <LongitudeDegrees>-0.13622947968542575836181640625</LongitudeDegrees>
            </Position>
            <AltitudeMeters>2318.800048828125</AltitudeMeters>
            <DistanceMeters>20404.233415769</DistanceMeters>
          </Trackpoint>
          <Trackpoint>
            <Time>2022-07-09T15:18:30.000Z</Time>
            <Position>
              <LatitudeDegrees>42.7900896035134792327880859375</LatitudeDegrees>
              <LongitudeDegrees>-0.13625043444335460662841796875</LongitudeDegrees>
            </Position>
            <AltitudeMeters>2318.39990234375</AltitudeMeters>
            <DistanceMeters>20406.24025759</DistanceMeters>
          </Trackpoint>
          <Trackpoint>
            <Time>2022-07-09T15:18:31.000Z</Time>
            <Position>
              <LatitudeDegrees>42.79009622521698474884033203125</LatitudeDegrees>
              <LongitudeDegrees>-0.136262588202953338623046875</LongitudeDegrees>
            </Position>
            <AltitudeMeters>2318.39990234375</AltitudeMeters>
            <DistanceMeters>20407.471944581</DistanceMeters>
          </Trackpoint>
          <Trackpoint>
            <Time>2022-07-09T15:18:33.000Z</Time>
            <Position>
              <LatitudeDegrees>42.790108881890773773193359375</LatitudeDegrees>
              <LongitudeDegrees>-0.13628664426505565643310546875</LongitudeDegrees>
            </Position>
            <AltitudeMeters>2318</AltitudeMeters>
            <DistanceMeters>20409.890929809</DistanceMeters>
          </Trackpoint>
          <Trackpoint>
            <Time>2022-07-09T15:18:35.000Z</Time>
            <Position>
              <LatitudeDegrees>42.790122292935848236083984375</LatitudeDegrees>
              <LongitudeDegrees>-0.13630039058625698089599609375</LongitudeDegrees>
            </Position>
            <AltitudeMeters>2317.60009765625</AltitudeMeters>
            <DistanceMeters>20411.753065506</DistanceMeters>
          </Trackpoint>
          <Trackpoint>
            <Time>2022-07-09T15:18:37.000Z</Time>
            <Position>
              <LatitudeDegrees>42.79013494960963726043701171875</LatitudeDegrees>
              <LongitudeDegrees>-0.13631514273583889007568359375</LongitudeDegrees>
            </Position>
            <AltitudeMeters>2317.39990234375</AltitudeMeters>
            <DistanceMeters>20413.605477191</DistanceMeters>
          </Trackpoint>
          <Trackpoint>
            <Time>2022-07-09T15:18:40.000Z</Time>
            <Position>
              <LatitudeDegrees>42.7901660464704036712646484375</LatitudeDegrees>
              <LongitudeDegrees>-0.13632771559059619903564453125</LongitudeDegrees>
            </Position>
            <AltitudeMeters>2316.60009765625</AltitudeMeters>
            <DistanceMeters>20417.216492337</DistanceMeters>
          </Trackpoint>
          <Trackpoint>
            <Time>2022-07-09T15:18:42.000Z</Time>
            <Position>
              <LatitudeDegrees>42.79019027017056941986083984375</LatitudeDegrees>
              <LongitudeDegrees>-0.13633827678859233856201171875</LongitudeDegrees>
            </Position>
            <AltitudeMeters>2316.199951171875</AltitudeMeters>
            <DistanceMeters>20420.048224648</DistanceMeters>
          </Trackpoint>
          <Trackpoint>
            <Time>2022-07-09T15:18:44.000Z</Time>
            <Position>
              <LatitudeDegrees>42.79021960683166980743408203125</LatitudeDegrees>
              <LongitudeDegrees>-0.1363529451191425323486328125</LongitudeDegrees>
            </Position>
            <AltitudeMeters>2315.60009765625</AltitudeMeters>
            <DistanceMeters>20423.526773546</DistanceMeters>
          </Trackpoint>
          <Trackpoint>
            <Time>2022-07-09T15:18:45.000Z</Time>
            <Position>
              <LatitudeDegrees>42.79022916220128536224365234375</LatitudeDegrees>
              <LongitudeDegrees>-0.1363552920520305633544921875</LongitudeDegrees>
            </Position>
            <AltitudeMeters>2315.199951171875</AltitudeMeters>
            <DistanceMeters>20424.601878092</DistanceMeters>
          </Trackpoint>
          <Trackpoint>
            <Time>2022-07-09T15:18:48.000Z</Time>
            <Position>
              <LatitudeDegrees>42.79025766067206859588623046875</LatitudeDegrees>
              <LongitudeDegrees>-0.13637356460094451904296875</LongitudeDegrees>
            </Position>
            <AltitudeMeters>2314.39990234375</AltitudeMeters>
            <DistanceMeters>20428.106290163</DistanceMeters>
          </Trackpoint>
          <Trackpoint>
            <Time>2022-07-09T15:18:53.000Z</Time>
            <Position>
              <LatitudeDegrees>42.79030024074018001556396484375</LatitudeDegrees>
              <LongitudeDegrees>-0.1364166475832462310791015625</LongitudeDegrees>
            </Position>
            <AltitudeMeters>2313.39990234375</AltitudeMeters>
            <DistanceMeters>20434.008665526</DistanceMeters>
          </Trackpoint>
          <Trackpoint>
            <Time>2022-07-09T15:18:55.000Z</Time>
            <Position>
              <LatitudeDegrees>42.79030225239694118499755859375</LatitudeDegrees>
              <LongitudeDegrees>-0.13643232174217700958251953125</LongitudeDegrees>
            </Position>
            <AltitudeMeters>2313.199951171875</AltitudeMeters>
            <DistanceMeters>20435.308136301</DistanceMeters>
          </Trackpoint>
          <Trackpoint>
            <Time>2022-07-09T15:18:57.000Z</Time>
            <Position>
              <LatitudeDegrees>42.79030879028141498565673828125</LatitudeDegrees>
              <LongitudeDegrees>-0.1364488340914249420166015625</LongitudeDegrees>
            </Position>
            <AltitudeMeters>2313.199951171875</AltitudeMeters>
            <DistanceMeters>20436.840396029</DistanceMeters>
          </Trackpoint>
          <Trackpoint>
            <Time>2022-07-09T15:18:59.000Z</Time>
            <Position>
              <LatitudeDegrees>42.79031516052782535552978515625</LatitudeDegrees>
              <LongitudeDegrees>-0.13645160011947154998779296875</LongitudeDegrees>
            </Position>
            <AltitudeMeters>2312.800048828125</AltitudeMeters>
            <DistanceMeters>20437.576469794</DistanceMeters>
          </Trackpoint>
          <Trackpoint>
            <Time>2022-07-09T15:19:01.000Z</Time>
            <Position>
              <LatitudeDegrees>42.79030761681497097015380859375</LatitudeDegrees>
              <LongitudeDegrees>-0.13644866645336151123046875</LongitudeDegrees>
            </Position>
            <AltitudeMeters>2312.199951171875</AltitudeMeters>
            <DistanceMeters>20438.447404017</DistanceMeters>
          </Trackpoint>
          <Trackpoint>
            <Time>2022-07-09T15:19:07.000Z</Time>
            <Position>
              <LatitudeDegrees>42.79026520438492298126220703125</LatitudeDegrees>
              <LongitudeDegrees>-0.13640298508107662200927734375</LongitudeDegrees>
            </Position>
            <AltitudeMeters>2311.39990234375</AltitudeMeters>
            <DistanceMeters>20444.464928968</DistanceMeters>
          </Trackpoint>
          <Trackpoint>
            <Time>2022-07-09T15:19:09.000Z</Time>
            <Position>
              <LatitudeDegrees>42.7902498655021190643310546875</LatitudeDegrees>
              <LongitudeDegrees>-0.1363908313214778900146484375</LongitudeDegrees>
            </Position>
            <AltitudeMeters>2311</AltitudeMeters>
            <DistanceMeters>20446.440022137</DistanceMeters>
          </Trackpoint>
          <Trackpoint>
            <Time>2022-07-09T15:19:12.000Z</Time>
            <Position>
              <LatitudeDegrees>42.79022664763033390045166015625</LatitudeDegrees>
              <LongitudeDegrees>-0.13638773001730442047119140625</LongitudeDegrees>
            </Position>
            <AltitudeMeters>2310.39990234375</AltitudeMeters>
            <DistanceMeters>20449.03548684</DistanceMeters>
          </Trackpoint>
          <Trackpoint>
            <Time>2022-07-09T15:19:13.000Z</Time>
            <Position>
              <LatitudeDegrees>42.7902190200984477996826171875</LatitudeDegrees>
              <LongitudeDegrees>-0.1363858021795749664306640625</LongitudeDegrees>
            </Position>
            <AltitudeMeters>2310.199951171875</AltitudeMeters>
            <DistanceMeters>20449.906421063</DistanceMeters>
          </Trackpoint>
          <Trackpoint>
            <Time>2022-07-09T15:19:15.000Z</Time>
            <Position>
              <LatitudeDegrees>42.79019831679761409759521484375</LatitudeDegrees>
              <LongitudeDegrees>-0.1363915018737316131591796875</LongitudeDegrees>
            </Position>
            <AltitudeMeters>2310</AltitudeMeters>
            <DistanceMeters>20452.257252147</DistanceMeters>
          </Trackpoint>
          <Trackpoint>
            <Time>2022-07-09T15:19:18.000Z</Time>
            <Position>
              <LatitudeDegrees>42.79016294516623020172119140625</LatitudeDegrees>
              <LongitudeDegrees>-0.13640248216688632965087890625</LongitudeDegrees>
            </Position>
            <AltitudeMeters>2309.60009765625</AltitudeMeters>
            <DistanceMeters>20456.295608008</DistanceMeters>
          </Trackpoint>
          <Trackpoint>
            <Time>2022-07-09T15:19:20.000Z</Time>
            <Position>
              <LatitudeDegrees>42.7901422418653964996337890625</LatitudeDegrees>
              <LongitudeDegrees>-0.13640264980494976043701171875</LongitudeDegrees>
            </Position>
            <AltitudeMeters>2309.199951171875</AltitudeMeters>
            <DistanceMeters>20458.599883371</DistanceMeters>
          </Trackpoint>
          <Trackpoint>
            <Time>2022-07-09T15:19:21.000Z</Time>
            <Position>
              <LatitudeDegrees>42.79013545252382755279541015625</LatitudeDegrees>
              <LongitudeDegrees>-0.1363992132246494293212890625</LongitudeDegrees>
            </Position>
            <AltitudeMeters>2309.199951171875</AltitudeMeters>
            <DistanceMeters>20459.40621178</DistanceMeters>
          </Trackpoint>
          <Trackpoint>
            <Time>2022-07-09T15:19:23.000Z</Time>
            <Position>
              <LatitudeDegrees>42.7901204489171504974365234375</LatitudeDegrees>
              <LongitudeDegrees>-0.136399380862712860107421875</LongitudeDegrees>
            </Position>
            <AltitudeMeters>2308.800048828125</AltitudeMeters>
            <DistanceMeters>20461.07662898</DistanceMeters>
          </Trackpoint>
          <Trackpoint>
            <Time>2022-07-09T15:19:26.000Z</Time>
            <Position>
              <LatitudeDegrees>42.79008180834352970123291015625</LatitudeDegrees>
              <LongitudeDegrees>-0.13641455210745334625244140625</LongitudeDegrees>
            </Position>
            <AltitudeMeters>2308.199951171875</AltitudeMeters>
            <DistanceMeters>20465.55197361</DistanceMeters>
          </Trackpoint>
          <Trackpoint>
            <Time>2022-07-09T15:19:27.000Z</Time>
            <Position>
              <LatitudeDegrees>42.790069319307804107666015625</LatitudeDegrees>
              <LongitudeDegrees>-0.136419832706451416015625</LongitudeDegrees>
            </Position>
            <AltitudeMeters>2307.800048828125</AltitudeMeters>
            <DistanceMeters>20467.005602822</DistanceMeters>
          </Trackpoint>
          <Trackpoint>
            <Time>2022-07-09T15:19:31.000Z</Time>
            <Position>
              <LatitudeDegrees>42.79003889299929141998291015625</LatitudeDegrees>
              <LongitudeDegrees>-0.1364360935986042022705078125</LongitudeDegrees>
            </Position>
            <AltitudeMeters>2306.800048828125</AltitudeMeters>
            <DistanceMeters>20470.642780573</DistanceMeters>
          </Trackpoint>
          <Trackpoint>
            <Time>2022-07-09T15:19:33.000Z</Time>
            <Position>
              <LatitudeDegrees>42.79003939591348171234130859375</LatitudeDegrees>
              <LongitudeDegrees>-0.13645092956721782684326171875</LongitudeDegrees>
            </Position>
            <AltitudeMeters>2306.199951171875</AltitudeMeters>
            <DistanceMeters>20471.859716289</DistanceMeters>
          </Trackpoint>
          <Trackpoint>
            <Time>2022-07-09T15:19:34.000Z</Time>
            <Position>
              <LatitudeDegrees>42.79004727490246295928955078125</LatitudeDegrees>
              <LongitudeDegrees>-0.1364659331738948822021484375</LongitudeDegrees>
            </Position>
            <AltitudeMeters>2306</AltitudeMeters>
            <DistanceMeters>20473.365222578</DistanceMeters>
          </Trackpoint>
          <Trackpoint>
            <Time>2022-07-09T15:19:35.000Z</Time>
            <Position>
              <LatitudeDegrees>42.790060602128505706787109375</LatitudeDegrees>
              <LongitudeDegrees>-0.13648755848407745361328125</LongitudeDegrees>
            </Position>
            <AltitudeMeters>2305.800048828125</AltitudeMeters>
            <DistanceMeters>20475.67341345</DistanceMeters>
          </Trackpoint>
          <Trackpoint>
            <Time>2022-07-09T15:19:36.000Z</Time>
            <Position>
              <LatitudeDegrees>42.79007141478359699249267578125</LatitudeDegrees>
              <LongitudeDegrees>-0.13650557957589626312255859375</LongitudeDegrees>
            </Position>
            <AltitudeMeters>2305.800048828125</AltitudeMeters>
            <DistanceMeters>20477.573947738</DistanceMeters>
          </Trackpoint>
          <Trackpoint>
            <Time>2022-07-09T15:19:38.000Z</Time>
            <Position>
              <LatitudeDegrees>42.79008599929511547088623046875</LatitudeDegrees>
              <LongitudeDegrees>-0.136534832417964935302734375</LongitudeDegrees>
            </Position>
            <AltitudeMeters>2305</AltitudeMeters>
            <DistanceMeters>20480.462509773</DistanceMeters>
          </Trackpoint>
          <Trackpoint>
            <Time>2022-07-09T15:19:40.000Z</Time>
            <Position>
              <LatitudeDegrees>42.79010326601564884185791015625</LatitudeDegrees>
              <LongitudeDegrees>-0.13656266033649444580078125</LongitudeDegrees>
            </Position>
            <AltitudeMeters>2304.60009765625</AltitudeMeters>
            <DistanceMeters>20483.438833847</DistanceMeters>
          </Trackpoint>
          <Trackpoint>
            <Time>2022-07-09T15:19:46.000Z</Time>
            <Position>
              <LatitudeDegrees>42.79016227461397647857666015625</LatitudeDegrees>
              <LongitudeDegrees>-0.13662192039191722869873046875</LongitudeDegrees>
            </Position>
            <AltitudeMeters>2303.800048828125</AltitudeMeters>
            <DistanceMeters>20491.597860967</DistanceMeters>
          </Trackpoint>
          <Trackpoint>
            <Time>2022-07-09T15:19:47.000Z</Time>
            <Position>
              <LatitudeDegrees>42.79017132706940174102783203125</LatitudeDegrees>
              <LongitudeDegrees>-0.13662812300026416778564453125</LongitudeDegrees>
            </Position>
            <AltitudeMeters>2303.39990234375</AltitudeMeters>
            <DistanceMeters>20492.730234958</DistanceMeters>
          </Trackpoint>
          <Trackpoint>
            <Time>2022-07-09T15:19:48.000Z</Time>
            <Position>
              <LatitudeDegrees>42.790176607668399810791015625</LatitudeDegrees>
              <LongitudeDegrees>-0.1366357505321502685546875</LongitudeDegrees>
            </Position>
            <AltitudeMeters>2303</AltitudeMeters>
            <DistanceMeters>20493.590738455</DistanceMeters>
          </Trackpoint>
          <Trackpoint>
            <Time>2022-07-09T15:19:51.000Z</Time>
            <Position>
              <LatitudeDegrees>42.7901978977024555206298828125</LatitudeDegrees>
              <LongitudeDegrees>-0.13664849102497100830078125</LongitudeDegrees>
            </Position>
            <AltitudeMeters>2302.800048828125</AltitudeMeters>
            <DistanceMeters>20496.179235455</DistanceMeters>
          </Trackpoint>
          <Trackpoint>
            <Time>2022-07-09T15:19:52.000Z</Time>
            <Position>
              <LatitudeDegrees>42.7902049385011196136474609375</LatitudeDegrees>
              <LongitudeDegrees>-0.1366506703197956085205078125</LongitudeDegrees>
            </Position>
            <AltitudeMeters>2302.60009765625</AltitudeMeters>
            <DistanceMeters>20496.985563865</DistanceMeters>
          </Trackpoint>
          <Trackpoint>
            <Time>2022-07-09T15:19:54.000Z</Time>
            <Position>
              <LatitudeDegrees>42.7902203612029552459716796875</LatitudeDegrees>
              <LongitudeDegrees>-0.136660225689411163330078125</LongitudeDegrees>
            </Position>
            <AltitudeMeters>2302.39990234375</AltitudeMeters>
            <DistanceMeters>20498.871790288</DistanceMeters>
          </Trackpoint>
          <Trackpoint>
            <Time>2022-07-09T15:19:55.000Z</Time>
            <Position>
              <LatitudeDegrees>42.790228910744190216064453125</LatitudeDegrees>
              <LongitudeDegrees>-0.13666885904967784881591796875</LongitudeDegrees>
            </Position>
            <AltitudeMeters>2302.199951171875</AltitudeMeters>
            <DistanceMeters>20500.054863341</DistanceMeters>
          </Trackpoint>
          <Trackpoint>
            <Time>2022-07-09T15:19:57.000Z</Time>
            <Position>
              <LatitudeDegrees>42.7902445010840892791748046875</LatitudeDegrees>
              <LongitudeDegrees>-0.13668059371411800384521484375</LongitudeDegrees>
            </Position>
            <AltitudeMeters>2302</AltitudeMeters>
            <DistanceMeters>20502.03907939</DistanceMeters>
          </Trackpoint>
          <Trackpoint>
            <Time>2022-07-09T15:19:58.000Z</Time>
            <Position>
              <LatitudeDegrees>42.79024626128375530242919921875</LatitudeDegrees>
              <LongitudeDegrees>-0.13668344356119632720947265625</LongitudeDegrees>
            </Position>
            <AltitudeMeters>2301.800048828125</AltitudeMeters>
            <DistanceMeters>20502.354247347</DistanceMeters>
          </Trackpoint>
          <Trackpoint>
            <Time>2022-07-09T15:19:59.000Z</Time>
            <Position>
              <LatitudeDegrees>42.790242992341518402099609375</LatitudeDegrees>
              <LongitudeDegrees>-0.1366841979324817657470703125</LongitudeDegrees>
            </Position>
            <AltitudeMeters>2301.39990234375</AltitudeMeters>
            <DistanceMeters>20502.734354204</DistanceMeters>
          </Trackpoint>
          <Trackpoint>
            <Time>2022-07-09T15:20:00.000Z</Time>
            <Position>
              <LatitudeDegrees>42.790240310132503509521484375</LatitudeDegrees>
              <LongitudeDegrees>-0.1366838626563549041748046875</LongitudeDegrees>
            </Position>
            <AltitudeMeters>2301.199951171875</AltitudeMeters>
            <DistanceMeters>20503.03485506</DistanceMeters>
          </Trackpoint>
          <Trackpoint>
            <Time>2022-07-09T15:20:04.000Z</Time>
            <Position>
              <LatitudeDegrees>42.790207453072071075439453125</LatitudeDegrees>
              <LongitudeDegrees>-0.13670959509909152984619140625</LongitudeDegrees>
            </Position>
            <AltitudeMeters>2300.800048828125</AltitudeMeters>
            <DistanceMeters>20507.252585563</DistanceMeters>
          </Trackpoint>
          <Trackpoint>
            <Time>2022-07-09T15:20:07.000Z</Time>
            <Position>
              <LatitudeDegrees>42.79016093350946903228759765625</LatitudeDegrees>
              <LongitudeDegrees>-0.1367425359785556793212890625</LongitudeDegrees>
            </Position>
            <AltitudeMeters>2300.199951171875</AltitudeMeters>
            <DistanceMeters>20513.087256779</DistanceMeters>
          </Trackpoint>
          <Trackpoint>
            <Time>2022-07-09T15:20:10.000Z</Time>
            <Position>
              <LatitudeDegrees>42.79012086801230907440185546875</LatitudeDegrees>
              <LongitudeDegrees>-0.1367569528520107269287109375</LongitudeDegrees>
            </Position>
            <AltitudeMeters>2299.800048828125</AltitudeMeters>
            <DistanceMeters>20517.697766506</DistanceMeters>
          </Trackpoint>
          <Trackpoint>
            <Time>2022-07-09T15:20:11.000Z</Time>
            <Position>
              <LatitudeDegrees>42.790106870234012603759765625</LatitudeDegrees>
              <LongitudeDegrees>-0.1367619819939136505126953125</LongitudeDegrees>
            </Position>
            <AltitudeMeters>2299.39990234375</AltitudeMeters>
            <DistanceMeters>20519.310423325</DistanceMeters>
          </Trackpoint>
          <Trackpoint>
            <Time>2022-07-09T15:20:12.000Z</Time>
            <Position>
              <LatitudeDegrees>42.7900946326553821563720703125</LatitudeDegrees>
              <LongitudeDegrees>-0.136765502393245697021484375</LongitudeDegrees>
            </Position>
            <AltitudeMeters>2298.800048828125</AltitudeMeters>
            <DistanceMeters>20520.707025098</DistanceMeters>
          </Trackpoint>
          <Trackpoint>
            <Time>2022-07-09T15:20:15.000Z</Time>
            <Position>
              <LatitudeDegrees>42.7900567464530467987060546875</LatitudeDegrees>
              <LongitudeDegrees>-0.1367757283151149749755859375</LongitudeDegrees>
            </Position>
            <AltitudeMeters>2297.60009765625</AltitudeMeters>
            <DistanceMeters>20525.005342956</DistanceMeters>
          </Trackpoint>
          <Trackpoint>
            <Time>2022-07-09T15:20:17.000Z</Time>
            <Position>
              <LatitudeDegrees>42.7900322712957859039306640625</LatitudeDegrees>
              <LongitudeDegrees>-0.13677665032446384429931640625</LongitudeDegrees>
            </Position>
            <AltitudeMeters>2296.60009765625</AltitudeMeters>
            <DistanceMeters>20527.731467112</DistanceMeters>
          </Trackpoint>
          <Trackpoint>
            <Time>2022-07-09T15:20:18.000Z</Time>
            <Position>
              <LatitudeDegrees>42.7900175191462039947509765625</LatitudeDegrees>
              <LongitudeDegrees>-0.13677782379090785980224609375</LongitudeDegrees>
            </Position>
            <AltitudeMeters>2296.39990234375</AltitudeMeters>
            <DistanceMeters>20529.377378085</DistanceMeters>
          </Trackpoint>
          <Trackpoint>
            <Time>2022-07-09T15:20:24.000Z</Time>
            <Position>
              <LatitudeDegrees>42.78995138593018054962158203125</LatitudeDegrees>
              <LongitudeDegrees>-0.13680011965334415435791015625</LongitudeDegrees>
            </Position>
            <AltitudeMeters>2296</AltitudeMeters>
            <DistanceMeters>20536.960486076</DistanceMeters>
          </Trackpoint>
          <Trackpoint>
            <Time>2022-07-09T15:20:26.000Z</Time>
            <Position>
              <LatitudeDegrees>42.78993814252316951751708984375</LatitudeDegrees>
              <LongitudeDegrees>-0.13681034557521343231201171875</LongitudeDegrees>
            </Position>
            <AltitudeMeters>2295.60009765625</AltitudeMeters>
            <DistanceMeters>20538.655055139</DistanceMeters>
          </Trackpoint>
          <Trackpoint>
            <Time>2022-07-09T15:20:28.000Z</Time>
            <Position>
              <LatitudeDegrees>42.78991878032684326171875</LatitudeDegrees>
              <LongitudeDegrees>-0.13682476244866847991943359375</LongitudeDegrees>
            </Position>
            <AltitudeMeters>2295.199951171875</AltitudeMeters>
            <DistanceMeters>20541.109247671</DistanceMeters>
          </Trackpoint>
          <Trackpoint>
            <Time>2022-07-09T15:20:33.000Z</Time>
            <Position>
              <LatitudeDegrees>42.789884917438030242919921875</LatitudeDegrees>
              <LongitudeDegrees>-0.1368565298616886138916015625</LongitudeDegrees>
            </Position>
            <AltitudeMeters>2294.60009765625</AltitudeMeters>
            <DistanceMeters>20545.684367036</DistanceMeters>
          </Trackpoint>
          <Trackpoint>
            <Time>2022-07-09T15:20:37.000Z</Time>
            <Position>
              <LatitudeDegrees>42.78985834680497646331787109375</LatitudeDegrees>
              <LongitudeDegrees>-0.1368582062423229217529296875</LongitudeDegrees>
            </Position>
            <AltitudeMeters>2294</AltitudeMeters>
            <DistanceMeters>20548.645482404</DistanceMeters>
          </Trackpoint>
          <Trackpoint>
            <Time>2022-07-09T15:20:39.000Z</Time>
            <Position>
              <LatitudeDegrees>42.7898260764777660369873046875</LatitudeDegrees>
              <LongitudeDegrees>-0.136853344738483428955078125</LongitudeDegrees>
            </Position>
            <AltitudeMeters>2293.60009765625</AltitudeMeters>
            <DistanceMeters>20552.258997388</DistanceMeters>
          </Trackpoint>
          <Trackpoint>
            <Time>2022-07-09T15:20:40.000Z</Time>
            <Position>
              <LatitudeDegrees>42.78981241397559642791748046875</LatitudeDegrees>
              <LongitudeDegrees>-0.1368530094623565673828125</LongitudeDegrees>
            </Position>
            <AltitudeMeters>2293.199951171875</AltitudeMeters>
            <DistanceMeters>20553.779424818</DistanceMeters>
          </Trackpoint>
          <Trackpoint>
            <Time>2022-07-09T15:20:41.000Z</Time>
            <Position>
              <LatitudeDegrees>42.78980067931115627288818359375</LatitudeDegrees>
              <LongitudeDegrees>-0.13685376383364200592041015625</LongitudeDegrees>
            </Position>
            <AltitudeMeters>2293</AltitudeMeters>
            <DistanceMeters>20555.089277682</DistanceMeters>
          </Trackpoint>
          <Trackpoint>
            <Time>2022-07-09T15:20:47.000Z</Time>
            <Position>
              <LatitudeDegrees>42.78973546810448169708251953125</LatitudeDegrees>
              <LongitudeDegrees>-0.13686851598322391510009765625</LongitudeDegrees>
            </Position>
            <AltitudeMeters>2292.199951171875</AltitudeMeters>
            <DistanceMeters>20562.446947713</DistanceMeters>
          </Trackpoint>
          <Trackpoint>
            <Time>2022-07-09T15:20:53.000Z</Time>
            <Position>
              <LatitudeDegrees>42.78968065045773983001708984375</LatitudeDegrees>
              <LongitudeDegrees>-0.13686315156519412994384765625</LongitudeDegrees>
            </Position>
            <AltitudeMeters>2292</AltitudeMeters>
            <DistanceMeters>20568.563450529</DistanceMeters>
          </Trackpoint>
          <Trackpoint>
            <Time>2022-07-09T15:20:57.000Z</Time>
            <Position>
              <LatitudeDegrees>42.78963513672351837158203125</LatitudeDegrees>
              <LongitudeDegrees>-0.13685368001461029052734375</LongitudeDegrees>
            </Position>
            <AltitudeMeters>2291.39990234375</AltitudeMeters>
            <DistanceMeters>20573.687849255</DistanceMeters>
          </Trackpoint>
          <Trackpoint>
            <Time>2022-07-09T15:21:03.000Z</Time>
            <Position>
              <LatitudeDegrees>42.78957302682101726531982421875</LatitudeDegrees>
              <LongitudeDegrees>-0.13686977326869964599609375</LongitudeDegrees>
            </Position>
            <AltitudeMeters>2291</AltitudeMeters>
            <DistanceMeters>20580.72431919</DistanceMeters>
          </Trackpoint>
          <Trackpoint>
            <Time>2022-07-09T15:21:04.000Z</Time>
            <Position>
              <LatitudeDegrees>42.78956229798495769500732421875</LatitudeDegrees>
              <LongitudeDegrees>-0.13687052763998508453369140625</LongitudeDegrees>
            </Position>
            <AltitudeMeters>2291</AltitudeMeters>
            <DistanceMeters>20581.922560465</DistanceMeters>
          </Trackpoint>
          <Trackpoint>
            <Time>2022-07-09T15:21:06.000Z</Time>
            <Position>
              <LatitudeDegrees>42.78953698463737964630126953125</LatitudeDegrees>
              <LongitudeDegrees>-0.1368840225040912628173828125</LongitudeDegrees>
            </Position>
            <AltitudeMeters>2291</AltitudeMeters>
            <DistanceMeters>20584.948530973</DistanceMeters>
          </Trackpoint>
          <Trackpoint>
            <Time>2022-07-09T15:21:09.000Z</Time>
            <Position>
              <LatitudeDegrees>42.789518125355243682861328125</LatitudeDegrees>
              <LongitudeDegrees>-0.136918723583221435546875</LongitudeDegrees>
            </Position>
            <AltitudeMeters>2290.800048828125</AltitudeMeters>
            <DistanceMeters>20588.476057775</DistanceMeters>
          </Trackpoint>
          <Trackpoint>
            <Time>2022-07-09T15:21:10.000Z</Time>
            <Position>
              <LatitudeDegrees>42.7895182929933071136474609375</LatitudeDegrees>
              <LongitudeDegrees>-0.136937163770198822021484375</LongitudeDegrees>
            </Position>
            <AltitudeMeters>2290.60009765625</AltitudeMeters>
            <DistanceMeters>20589.978562055</DistanceMeters>
          </Trackpoint>
          <Trackpoint>
            <Time>2022-07-09T15:21:13.000Z</Time>
            <Position>
              <LatitudeDegrees>42.789507396519184112548828125</LatitudeDegrees>
              <LongitudeDegrees>-0.13697312213480472564697265625</LongitudeDegrees>
            </Position>
            <AltitudeMeters>2290.199951171875</AltitudeMeters>
            <DistanceMeters>20593.155923455</DistanceMeters>
          </Trackpoint>
          <Trackpoint>
            <Time>2022-07-09T15:21:18.000Z</Time>
            <Position>
              <LatitudeDegrees>42.78948082588613033294677734375</LatitudeDegrees>
              <LongitudeDegrees>-0.13703263364732265472412109375</LongitudeDegrees>
            </Position>
            <AltitudeMeters>2289.800048828125</AltitudeMeters>
            <DistanceMeters>20598.846429067</DistanceMeters>
          </Trackpoint>
          <Trackpoint>
            <Time>2022-07-09T15:21:24.000Z</Time>
            <Position>
              <LatitudeDegrees>42.78941511176526546478271484375</LatitudeDegrees>
              <LongitudeDegrees>-0.13707253150641918182373046875</LongitudeDegrees>
            </Position>
            <AltitudeMeters>2288.800048828125</AltitudeMeters>
            <DistanceMeters>20606.853522345</DistanceMeters>
          </Trackpoint>
          <Trackpoint>
            <Time>2022-07-09T15:21:25.000Z</Time>
            <Position>
              <LatitudeDegrees>42.7894076518714427947998046875</LatitudeDegrees>
              <LongitudeDegrees>-0.13707236386835575103759765625</LongitudeDegrees>
            </Position>
            <AltitudeMeters>2288.800048828125</AltitudeMeters>
            <DistanceMeters>20607.681946035</DistanceMeters>
          </Trackpoint>
          <Trackpoint>
            <Time>2022-07-09T15:21:26.000Z</Time>
            <Position>
              <LatitudeDegrees>42.78940103016793727874755859375</LatitudeDegrees>
              <LongitudeDegrees>-0.13706716708838939666748046875</LongitudeDegrees>
            </Position>
            <AltitudeMeters>2288.800048828125</AltitudeMeters>
            <DistanceMeters>20608.531890807</DistanceMeters>
          </Trackpoint>
          <Trackpoint>
            <Time>2022-07-09T15:21:32.000Z</Time>
            <Position>
              <LatitudeDegrees>42.7893479727208614349365234375</LatitudeDegrees>
              <LongitudeDegrees>-0.13709147460758686065673828125</LongitudeDegrees>
            </Position>
            <AltitudeMeters>2288.39990234375</AltitudeMeters>
            <DistanceMeters>20614.761759871</DistanceMeters>
          </Trackpoint>
          <Trackpoint>
            <Time>2022-07-09T15:21:33.000Z</Time>
            <Position>
              <LatitudeDegrees>42.78933607041835784912109375</LatitudeDegrees>
              <LongitudeDegrees>-0.13709935359656810760498046875</LongitudeDegrees>
            </Position>
            <AltitudeMeters>2288.199951171875</AltitudeMeters>
            <DistanceMeters>20616.233907399</DistanceMeters>
          </Trackpoint>
          <Trackpoint>
            <Time>2022-07-09T15:21:39.000Z</Time>
            <Position>
              <LatitudeDegrees>42.7892718650400638580322265625</LatitudeDegrees>
              <LongitudeDegrees>-0.13713154010474681854248046875</LongitudeDegrees>
            </Position>
            <AltitudeMeters>2287.60009765625</AltitudeMeters>
            <DistanceMeters>20623.847913623</DistanceMeters>
          </Trackpoint>
          <Trackpoint>
            <Time>2022-07-09T15:21:40.000Z</Time>
            <Position>
              <LatitudeDegrees>42.78926122002303600311279296875</LatitudeDegrees>
              <LongitudeDegrees>-0.13713757507503032684326171875</LongitudeDegrees>
            </Position>
            <AltitudeMeters>2287.39990234375</AltitudeMeters>
            <DistanceMeters>20625.129894088</DistanceMeters>
          </Trackpoint>
          <Trackpoint>
            <Time>2022-07-09T15:21:41.000Z</Time>
            <Position>
              <LatitudeDegrees>42.78925032354891300201416015625</LatitudeDegrees>
              <LongitudeDegrees>-0.13714277185499668121337890625</LongitudeDegrees>
            </Position>
            <AltitudeMeters>2287.39990234375</AltitudeMeters>
            <DistanceMeters>20626.418899156</DistanceMeters>
          </Trackpoint>
          <Trackpoint>
            <Time>2022-07-09T15:21:42.000Z</Time>
            <Position>
              <LatitudeDegrees>42.78923674486577510833740234375</LatitudeDegrees>
              <LongitudeDegrees>-0.137145705521106719970703125</LongitudeDegrees>
            </Position>
            <AltitudeMeters>2287</AltitudeMeters>
            <DistanceMeters>20627.951158885</DistanceMeters>
          </Trackpoint>
          <Trackpoint>
            <Time>2022-07-09T15:21:47.000Z</Time>
            <Position>
              <LatitudeDegrees>42.78917857445776462554931640625</LatitudeDegrees>
              <LongitudeDegrees>-0.1371364854276180267333984375</LongitudeDegrees>
            </Position>
            <AltitudeMeters>2286.39990234375</AltitudeMeters>
            <DistanceMeters>20634.469326546</DistanceMeters>
          </Trackpoint>
          <Trackpoint>
            <Time>2022-07-09T15:21:50.000Z</Time>
            <Position>
              <LatitudeDegrees>42.7891468070447444915771484375</LatitudeDegrees>
              <LongitudeDegrees>-0.1371401734650135040283203125</LongitudeDegrees>
            </Position>
            <AltitudeMeters>2285.199951171875</AltitudeMeters>
            <DistanceMeters>20638.017273356</DistanceMeters>
          </Trackpoint>
          <Trackpoint>
            <Time>2022-07-09T15:21:54.000Z</Time>
            <Position>
              <LatitudeDegrees>42.78910917229950428009033203125</LatitudeDegrees>
              <LongitudeDegrees>-0.13716607354581356048583984375</LongitudeDegrees>
            </Position>
            <AltitudeMeters>2284.800048828125</AltitudeMeters>
            <DistanceMeters>20642.709322628</DistanceMeters>
          </Trackpoint>
          <Trackpoint>
            <Time>2022-07-09T15:21:58.000Z</Time>
            <Position>
              <LatitudeDegrees>42.78906474821269512176513671875</LatitudeDegrees>
              <LongitudeDegrees>-0.13718736357986927032470703125</LongitudeDegrees>
            </Position>
            <AltitudeMeters>2284</AltitudeMeters>
            <DistanceMeters>20647.951318681</DistanceMeters>
          </Trackpoint>
          <Trackpoint>
            <Time>2022-07-09T15:22:02.000Z</Time>
            <Position>
              <LatitudeDegrees>42.78903189115226268768310546875</LatitudeDegrees>
              <LongitudeDegrees>-0.13718686066567897796630859375</LongitudeDegrees>
            </Position>
            <AltitudeMeters>2283.199951171875</AltitudeMeters>
            <DistanceMeters>20651.609538643</DistanceMeters>
          </Trackpoint>
          <Trackpoint>
            <Time>2022-07-09T15:22:03.000Z</Time>
            <Position>
              <LatitudeDegrees>42.7890257723629474639892578125</LatitudeDegrees>
              <LongitudeDegrees>-0.137187279760837554931640625</LongitudeDegrees>
            </Position>
            <AltitudeMeters>2283</AltitudeMeters>
            <DistanceMeters>20652.294786025</DistanceMeters>
          </Trackpoint>
          <Trackpoint>
            <Time>2022-07-09T15:22:06.000Z</Time>
            <Position>
              <LatitudeDegrees>42.78900674544274806976318359375</LatitudeDegrees>
              <LongitudeDegrees>-0.13718971051275730133056640625</LongitudeDegrees>
            </Position>
            <AltitudeMeters>2282.800048828125</AltitudeMeters>
            <DistanceMeters>20654.419647955</DistanceMeters>
          </Trackpoint>
          <Trackpoint>
            <Time>2022-07-09T15:22:09.000Z</Time>
            <Position>
              <LatitudeDegrees>42.7889761514961719512939453125</LatitudeDegrees>
              <LongitudeDegrees>-0.1372043788433074951171875</LongitudeDegrees>
            </Position>
            <AltitudeMeters>2282.199951171875</AltitudeMeters>
            <DistanceMeters>20658.029412533</DistanceMeters>
          </Trackpoint>
          <Trackpoint>
            <Time>2022-07-09T15:22:10.000Z</Time>
            <Position>
              <LatitudeDegrees>42.78896651230752468109130859375</LatitudeDegrees>
              <LongitudeDegrees>-0.13720932416617870330810546875</LongitudeDegrees>
            </Position>
            <AltitudeMeters>2282</AltitudeMeters>
            <DistanceMeters>20659.177624692</DistanceMeters>
          </Trackpoint>
          <Trackpoint>
            <Time>2022-07-09T15:22:11.000Z</Time>
            <Position>
              <LatitudeDegrees>42.78895829804241657257080078125</LatitudeDegrees>
              <LongitudeDegrees>-0.1372115872800350189208984375</LongitudeDegrees>
            </Position>
            <AltitudeMeters>2281.60009765625</AltitudeMeters>
            <DistanceMeters>20660.10869254</DistanceMeters>
          </Trackpoint>
          <Trackpoint>
            <Time>2022-07-09T15:22:12.000Z</Time>
            <Position>
              <LatitudeDegrees>42.78895243071019649505615234375</LatitudeDegrees>
              <LongitudeDegrees>-0.13721670024096965789794921875</LongitudeDegrees>
            </Position>
            <AltitudeMeters>2281.39990234375</AltitudeMeters>
            <DistanceMeters>20660.880693217</DistanceMeters>
          </Trackpoint>
          <Trackpoint>
            <Time>2022-07-09T15:22:14.000Z</Time>
            <Position>
              <LatitudeDegrees>42.7889402769505977630615234375</LatitudeDegrees>
              <LongitudeDegrees>-0.137226842343807220458984375</LongitudeDegrees>
            </Position>
            <AltitudeMeters>2280.39990234375</AltitudeMeters>
            <DistanceMeters>20662.467952279</DistanceMeters>
          </Trackpoint>
          <Trackpoint>
            <Time>2022-07-09T15:22:16.000Z</Time>
            <Position>
              <LatitudeDegrees>42.78892091475427150726318359375</LatitudeDegrees>
              <LongitudeDegrees>-0.13724151067435741424560546875</LongitudeDegrees>
            </Position>
            <AltitudeMeters>2279.800048828125</AltitudeMeters>
            <DistanceMeters>20664.933158446</DistanceMeters>
          </Trackpoint>
          <Trackpoint>
            <Time>2022-07-09T15:22:19.000Z</Time>
            <Position>
              <LatitudeDegrees>42.78888084925711154937744140625</LatitudeDegrees>
              <LongitudeDegrees>-0.13724067248404026031494140625</LongitudeDegrees>
            </Position>
            <AltitudeMeters>2279.199951171875</AltitudeMeters>
            <DistanceMeters>20669.393344362</DistanceMeters>
          </Trackpoint>
          <Trackpoint>
            <Time>2022-07-09T15:22:23.000Z</Time>
            <Position>
              <LatitudeDegrees>42.7888299711048603057861328125</LatitudeDegrees>
              <LongitudeDegrees>-0.13723715208470821380615234375</LongitudeDegrees>
            </Position>
            <AltitudeMeters>2279</AltitudeMeters>
            <DistanceMeters>20675.063183173</DistanceMeters>
          </Trackpoint>
          <Trackpoint>
            <Time>2022-07-09T15:22:24.000Z</Time>
            <Position>
              <LatitudeDegrees>42.78881764970719814300537109375</LatitudeDegrees>
              <LongitudeDegrees>-0.1372380740940570831298828125</LongitudeDegrees>
            </Position>
            <AltitudeMeters>2279</AltitudeMeters>
            <DistanceMeters>20676.433677937</DistanceMeters>
          </Trackpoint>
          <Trackpoint>
            <Time>2022-07-09T15:22:27.000Z</Time>
            <Position>
              <LatitudeDegrees>42.7887863852083683013916015625</LatitudeDegrees>
              <LongitudeDegrees>-0.1372472941875457763671875</LongitudeDegrees>
            </Position>
            <AltitudeMeters>2278.39990234375</AltitudeMeters>
            <DistanceMeters>20679.994327784</DistanceMeters>
          </Trackpoint>
          <Trackpoint>
            <Time>2022-07-09T15:22:28.000Z</Time>
            <Position>
              <LatitudeDegrees>42.78877574019134044647216796875</LatitudeDegrees>
              <LongitudeDegrees>-0.13725274242460727691650390625</LongitudeDegrees>
            </Position>
            <AltitudeMeters>2278.199951171875</AltitudeMeters>
            <DistanceMeters>20681.262142284</DistanceMeters>
          </Trackpoint>
          <Trackpoint>
            <Time>2022-07-09T15:22:29.000Z</Time>
            <Position>
              <LatitudeDegrees>42.7887639217078685760498046875</LatitudeDegrees>
              <LongitudeDegrees>-0.13725609518587589263916015625</LongitudeDegrees>
            </Position>
            <AltitudeMeters>2277.800048828125</AltitudeMeters>
            <DistanceMeters>20682.606022966</DistanceMeters>
          </Trackpoint>
          <Trackpoint>
            <Time>2022-07-09T15:22:31.000Z</Time>
            <Position>
              <LatitudeDegrees>42.7887381054461002349853515625</LatitudeDegrees>
              <LongitudeDegrees>-0.13725601136684417724609375</LongitudeDegrees>
            </Position>
            <AltitudeMeters>2277.60009765625</AltitudeMeters>
            <DistanceMeters>20685.478911734</DistanceMeters>
          </Trackpoint>
          <Trackpoint>
            <Time>2022-07-09T15:22:32.000Z</Time>
            <Position>
              <LatitudeDegrees>42.78872913680970668792724609375</LatitudeDegrees>
              <LongitudeDegrees>-0.13725467026233673095703125</LongitudeDegrees>
            </Position>
            <AltitudeMeters>2277.60009765625</AltitudeMeters>
            <DistanceMeters>20686.480080294</DistanceMeters>
          </Trackpoint>
          <Trackpoint>
            <Time>2022-07-09T15:22:33.000Z</Time>
            <Position>
              <LatitudeDegrees>42.788719497621059417724609375</LatitudeDegrees>
              <LongitudeDegrees>-0.13725592754781246185302734375</LongitudeDegrees>
            </Position>
            <AltitudeMeters>2277.39990234375</AltitudeMeters>
            <DistanceMeters>20687.55518484</DistanceMeters>
          </Trackpoint>
          <Trackpoint>
            <Time>2022-07-09T15:22:35.000Z</Time>
            <Position>
              <LatitudeDegrees>42.78869996778666973114013671875</LatitudeDegrees>
              <LongitudeDegrees>-0.1372571848332881927490234375</LongitudeDegrees>
            </Position>
            <AltitudeMeters>2277</AltitudeMeters>
            <DistanceMeters>20689.730445757</DistanceMeters>
          </Trackpoint>
          <Trackpoint>
            <Time>2022-07-09T15:22:37.000Z</Time>
            <Position>
              <LatitudeDegrees>42.788683287799358367919921875</LatitudeDegrees>
              <LongitudeDegrees>-0.13726246543228626251220703125</LongitudeDegrees>
            </Position>
            <AltitudeMeters>2276.39990234375</AltitudeMeters>
            <DistanceMeters>20691.635725455</DistanceMeters>
          </Trackpoint>
          <Trackpoint>
            <Time>2022-07-09T15:22:39.000Z</Time>
            <Position>
              <LatitudeDegrees>42.78866677545011043548583984375</LatitudeDegrees>
              <LongitudeDegrees>-0.13727269135415554046630859375</LongitudeDegrees>
            </Position>
            <AltitudeMeters>2275.800048828125</AltitudeMeters>
            <DistanceMeters>20693.656021115</DistanceMeters>
          </Trackpoint>
          <Trackpoint>
            <Time>2022-07-09T15:22:42.000Z</Time>
            <Position>
              <LatitudeDegrees>42.78864137828350067138671875</LatitudeDegrees>
              <LongitudeDegrees>-0.137280486524105072021484375</LongitudeDegrees>
            </Position>
            <AltitudeMeters>2275.199951171875</AltitudeMeters>
            <DistanceMeters>20696.553946423</DistanceMeters>
          </Trackpoint>
          <Trackpoint>
            <Time>2022-07-09T15:22:44.000Z</Time>
            <Position>
              <LatitudeDegrees>42.78862218372523784637451171875</LatitudeDegrees>
              <LongitudeDegrees>-0.13728744350373744964599609375</LongitudeDegrees>
            </Position>
            <AltitudeMeters>2275</AltitudeMeters>
            <DistanceMeters>20698.766253236</DistanceMeters>
          </Trackpoint>
          <Trackpoint>
            <Time>2022-07-09T15:22:47.000Z</Time>
            <Position>
              <LatitudeDegrees>42.7886009775102138519287109375</LatitudeDegrees>
              <LongitudeDegrees>-0.13728819787502288818359375</LongitudeDegrees>
            </Position>
            <AltitudeMeters>2274.60009765625</AltitudeMeters>
            <DistanceMeters>20701.128579895</DistanceMeters>
          </Trackpoint>
          <Trackpoint>
            <Time>2022-07-09T15:22:51.000Z</Time>
            <Position>
              <LatitudeDegrees>42.78857105411589145660400390625</LatitudeDegrees>
              <LongitudeDegrees>-0.1372726075351238250732421875</LongitudeDegrees>
            </Position>
            <AltitudeMeters>2274.199951171875</AltitudeMeters>
            <DistanceMeters>20704.694298284</DistanceMeters>
          </Trackpoint>
          <Trackpoint>
            <Time>2022-07-09T15:22:53.000Z</Time>
            <Position>
              <LatitudeDegrees>42.78854641132056713104248046875</LatitudeDegrees>
              <LongitudeDegrees>-0.137275792658329010009765625</LongitudeDegrees>
            </Position>
            <AltitudeMeters>2274</AltitudeMeters>
            <DistanceMeters>20707.451710906</DistanceMeters>
          </Trackpoint>
          <Trackpoint>
            <Time>2022-07-09T15:22:54.000Z</Time>
            <Position>
              <LatitudeDegrees>42.788532078266143798828125</LatitudeDegrees>
              <LongitudeDegrees>-0.13728191144764423370361328125</LongitudeDegrees>
            </Position>
            <AltitudeMeters>2273.60009765625</AltitudeMeters>
            <DistanceMeters>20709.124828863</DistanceMeters>
          </Trackpoint>
          <Trackpoint>
            <Time>2022-07-09T15:22:57.000Z</Time>
            <Position>
              <LatitudeDegrees>42.7884931862354278564453125</LatitudeDegrees>
              <LongitudeDegrees>-0.13731040991842746734619140625</LongitudeDegrees>
            </Position>
            <AltitudeMeters>2272.60009765625</AltitudeMeters>
            <DistanceMeters>20714.039648746</DistanceMeters>
          </Trackpoint>
          <Trackpoint>
            <Time>2022-07-09T15:22:59.000Z</Time>
            <Position>
              <LatitudeDegrees>42.7884702198207378387451171875</LatitudeDegrees>
              <LongitudeDegrees>-0.1373063027858734130859375</LongitudeDegrees>
            </Position>
            <AltitudeMeters>2272.199951171875</AltitudeMeters>
            <DistanceMeters>20716.615906922</DistanceMeters>
          </Trackpoint>
          <Trackpoint>
            <Time>2022-07-09T15:23:02.000Z</Time>
            <Position>
              <LatitudeDegrees>42.7884326688945293426513671875</LatitudeDegrees>
              <LongitudeDegrees>-0.13731158338487148284912109375</LongitudeDegrees>
            </Position>
            <AltitudeMeters>2271.60009765625</AltitudeMeters>
            <DistanceMeters>20720.816474665</DistanceMeters>
          </Trackpoint>
          <Trackpoint>
            <Time>2022-07-09T15:23:07.000Z</Time>
            <Position>
              <LatitudeDegrees>42.7883924357593059539794921875</LatitudeDegrees>
              <LongitudeDegrees>-0.13733756728470325469970703125</LongitudeDegrees>
            </Position>
            <AltitudeMeters>2270.60009765625</AltitudeMeters>
            <DistanceMeters>20725.772461745</DistanceMeters>
          </Trackpoint>
          <Trackpoint>
            <Time>2022-07-09T15:23:10.000Z</Time>
            <Position>
              <LatitudeDegrees>42.788372822105884552001953125</LatitudeDegrees>
              <LongitudeDegrees>-0.1373626291751861572265625</LongitudeDegrees>
            </Position>
            <AltitudeMeters>2270.60009765625</AltitudeMeters>
            <DistanceMeters>20728.765426133</DistanceMeters>
          </Trackpoint>
          <Trackpoint>
            <Time>2022-07-09T15:23:12.000Z</Time>
            <Position>
              <LatitudeDegrees>42.78835781849920749664306640625</LatitudeDegrees>
              <LongitudeDegrees>-0.1373859308660030364990234375</LongitudeDegrees>
            </Position>
            <AltitudeMeters>2270.60009765625</AltitudeMeters>
            <DistanceMeters>20731.297491353</DistanceMeters>
          </Trackpoint>
          <Trackpoint>
            <Time>2022-07-09T15:23:13.000Z</Time>
            <Position>
              <LatitudeDegrees>42.7883510291576385498046875</LatitudeDegrees>
              <LongitudeDegrees>-0.13739925809204578399658203125</LongitudeDegrees>
            </Position>
            <AltitudeMeters>2270.39990234375</AltitudeMeters>
            <DistanceMeters>20732.621060327</DistanceMeters>
          </Trackpoint>
          <Trackpoint>
            <Time>2022-07-09T15:23:15.000Z</Time>
            <Position>
              <LatitudeDegrees>42.78833636082708835601806640625</LatitudeDegrees>
              <LongitudeDegrees>-0.13741803355515003204345703125</LongitudeDegrees>
            </Position>
            <AltitudeMeters>2270</AltitudeMeters>
            <DistanceMeters>20734.861757206</DistanceMeters>
          </Trackpoint>
          <Trackpoint>
            <Time>2022-07-09T15:23:19.000Z</Time>
            <Position>
              <LatitudeDegrees>42.78830149210989475250244140625</LatitudeDegrees>
              <LongitudeDegrees>-0.13742859475314617156982421875</LongitudeDegrees>
            </Position>
            <AltitudeMeters>2269</AltitudeMeters>
            <DistanceMeters>20738.835873925</DistanceMeters>
          </Trackpoint>
          <Trackpoint>
            <Time>2022-07-09T15:23:21.000Z</Time>
            <Position>
              <LatitudeDegrees>42.788284309208393096923828125</LatitudeDegrees>
              <LongitudeDegrees>-0.137428008019924163818359375</LongitudeDegrees>
            </Position>
            <AltitudeMeters>2268.60009765625</AltitudeMeters>
            <DistanceMeters>20740.745887246</DistanceMeters>
          </Trackpoint>
          <Trackpoint>
            <Time>2022-07-09T15:23:22.000Z</Time>
            <Position>
              <LatitudeDegrees>42.78827467001974582672119140625</LatitudeDegrees>
              <LongitudeDegrees>-0.1374285109341144561767578125</LongitudeDegrees>
            </Position>
            <AltitudeMeters>2268.39990234375</AltitudeMeters>
            <DistanceMeters>20741.820991792</DistanceMeters>
          </Trackpoint>
          <Trackpoint>
            <Time>2022-07-09T15:23:25.000Z</Time>
            <Position>
              <LatitudeDegrees>42.7882549725472927093505859375</LatitudeDegrees>
              <LongitudeDegrees>-0.13743781484663486480712890625</LongitudeDegrees>
            </Position>
            <AltitudeMeters>2268.199951171875</AltitudeMeters>
            <DistanceMeters>20744.14088954</DistanceMeters>
          </Trackpoint>
          <Trackpoint>
            <Time>2022-07-09T15:23:26.000Z</Time>
            <Position>
              <LatitudeDegrees>42.788250111043453216552734375</LatitudeDegrees>
              <LongitudeDegrees>-0.1374459452927112579345703125</LongitudeDegrees>
            </Position>
            <AltitudeMeters>2268</AltitudeMeters>
            <DistanceMeters>20745.001393037</DistanceMeters>
          </Trackpoint>
          <Trackpoint>
            <Time>2022-07-09T15:23:27.000Z</Time>
            <Position>
              <LatitudeDegrees>42.78824617154896259307861328125</LatitudeDegrees>
              <LongitudeDegrees>-0.1374586857855319976806640625</LongitudeDegrees>
            </Position>
            <AltitudeMeters>2267.800048828125</AltitudeMeters>
            <DistanceMeters>20746.12977275</DistanceMeters>
          </Trackpoint>
          <Trackpoint>
            <Time>2022-07-09T15:23:29.000Z</Time>
            <Position>
              <LatitudeDegrees>42.788230665028095245361328125</LatitudeDegrees>
              <LongitudeDegrees>-0.137468911707401275634765625</LongitudeDegrees>
            </Position>
            <AltitudeMeters>2266.60009765625</AltitudeMeters>
            <DistanceMeters>20748.046864588</DistanceMeters>
          </Trackpoint>
          <Trackpoint>
            <Time>2022-07-09T15:23:31.000Z</Time>
            <Position>
              <LatitudeDegrees>42.78821800835430622100830078125</LatitudeDegrees>
              <LongitudeDegrees>-0.137481652200222015380859375</LongitudeDegrees>
            </Position>
            <AltitudeMeters>2266.199951171875</AltitudeMeters>
            <DistanceMeters>20749.799070623</DistanceMeters>
          </Trackpoint>
          <Trackpoint>
            <Time>2022-07-09T15:23:33.000Z</Time>
            <Position>
              <LatitudeDegrees>42.788220606744289398193359375</LatitudeDegrees>
              <LongitudeDegrees>-0.13749732635915279388427734375</LongitudeDegrees>
            </Position>
            <AltitudeMeters>2266</AltitudeMeters>
            <DistanceMeters>20751.108923487</DistanceMeters>
          </Trackpoint>
          <Trackpoint>
            <Time>2022-07-09T15:23:34.000Z</Time>
            <Position>
              <LatitudeDegrees>42.78822538442909717559814453125</LatitudeDegrees>
              <LongitudeDegrees>-0.13750411570072174072265625</LongitudeDegrees>
            </Position>
            <AltitudeMeters>2265.800048828125</AltitudeMeters>
            <DistanceMeters>20751.869137202</DistanceMeters>
          </Trackpoint>
          <Trackpoint>
            <Time>2022-07-09T15:23:38.000Z</Time>
            <Position>
              <LatitudeDegrees>42.7882053516805171966552734375</LatitudeDegrees>
              <LongitudeDegrees>-0.137526579201221466064453125</LongitudeDegrees>
            </Position>
            <AltitudeMeters>2265.39990234375</AltitudeMeters>
            <DistanceMeters>20754.757699238</DistanceMeters>
          </Trackpoint>
          <Trackpoint>
            <Time>2022-07-09T15:23:39.000Z</Time>
            <Position>
              <LatitudeDegrees>42.78819353319704532623291015625</LatitudeDegrees>
              <LongitudeDegrees>-0.13753387145698070526123046875</LongitudeDegrees>
            </Position>
            <AltitudeMeters>2265.199951171875</AltitudeMeters>
            <DistanceMeters>20756.198850715</DistanceMeters>
          </Trackpoint>
          <Trackpoint>
            <Time>2022-07-09T15:23:42.000Z</Time>
            <Position>
              <LatitudeDegrees>42.78816000558435916900634765625</LatitudeDegrees>
              <LongitudeDegrees>-0.137562453746795654296875</LongitudeDegrees>
            </Position>
            <AltitudeMeters>2264.199951171875</AltitudeMeters>
            <DistanceMeters>20760.600957489</DistanceMeters>
          </Trackpoint>
          <Trackpoint>
            <Time>2022-07-09T15:23:46.000Z</Time>
            <Position>
              <LatitudeDegrees>42.78813452459871768951416015625</LatitudeDegrees>
              <LongitudeDegrees>-0.13761274516582489013671875</LongitudeDegrees>
            </Position>
            <AltitudeMeters>2263.39990234375</AltitudeMeters>
            <DistanceMeters>20765.593252651</DistanceMeters>
          </Trackpoint>
          <Trackpoint>
            <Time>2022-07-09T15:23:47.000Z</Time>
            <Position>
              <LatitudeDegrees>42.78813033364713191986083984375</LatitudeDegrees>
              <LongitudeDegrees>-0.13762950897216796875</LongitudeDegrees>
            </Position>
            <AltitudeMeters>2263.199951171875</AltitudeMeters>
            <DistanceMeters>20767.040656443</DistanceMeters>
          </Trackpoint>
          <Trackpoint>
            <Time>2022-07-09T15:23:48.000Z</Time>
            <Position>
              <LatitudeDegrees>42.7881310880184173583984375</LatitudeDegrees>
              <LongitudeDegrees>-0.13765205629169940948486328125</LongitudeDegrees>
            </Position>
            <AltitudeMeters>2263</AltitudeMeters>
            <DistanceMeters>20768.883292799</DistanceMeters>
          </Trackpoint>
          <Trackpoint>
            <Time>2022-07-09T15:23:52.000Z</Time>
            <Position>
              <LatitudeDegrees>42.78812966309487819671630859375</LatitudeDegrees>
              <LongitudeDegrees>-0.13772782869637012481689453125</LongitudeDegrees>
            </Position>
            <AltitudeMeters>2262</AltitudeMeters>
            <DistanceMeters>20775.074631468</DistanceMeters>
          </Trackpoint>
          <Trackpoint>
            <Time>2022-07-09T15:23:56.000Z</Time>
            <Position>
              <LatitudeDegrees>42.7881436608731746673583984375</LatitudeDegrees>
              <LongitudeDegrees>-0.1377622783184051513671875</LongitudeDegrees>
            </Position>
            <AltitudeMeters>2261</AltitudeMeters>
            <DistanceMeters>20778.291534886</DistanceMeters>
          </Trackpoint>
          <Trackpoint>
            <Time>2022-07-09T15:23:57.000Z</Time>
            <Position>
              <LatitudeDegrees>42.78815011493861675262451171875</LatitudeDegrees>
              <LongitudeDegrees>-0.13776806183159351348876953125</LongitudeDegrees>
            </Position>
            <AltitudeMeters>2260.800048828125</AltitudeMeters>
            <DistanceMeters>20779.152038383</DistanceMeters>
          </Trackpoint>
          <Trackpoint>
            <Time>2022-07-09T15:23:58.000Z</Time>
            <Position>
              <LatitudeDegrees>42.788154892623424530029296875</LatitudeDegrees>
              <LongitudeDegrees>-0.13777543790638446807861328125</LongitudeDegrees>
            </Position>
            <AltitudeMeters>2260.60009765625</AltitudeMeters>
            <DistanceMeters>20779.947088917</DistanceMeters>
          </Trackpoint>
          <Trackpoint>
            <Time>2022-07-09T15:23:59.000Z</Time>
            <Position>
              <LatitudeDegrees>42.78816335834562778472900390625</LatitudeDegrees>
              <LongitudeDegrees>-0.1377810537815093994140625</LongitudeDegrees>
            </Position>
            <AltitudeMeters>2260.60009765625</AltitudeMeters>
            <DistanceMeters>20780.996693283</DistanceMeters>
          </Trackpoint>
          <Trackpoint>
            <Time>2022-07-09T15:24:03.000Z</Time>
            <Position>
              <LatitudeDegrees>42.7881805412471294403076171875</LatitudeDegrees>
              <LongitudeDegrees>-0.1377946324646472930908203125</LongitudeDegrees>
            </Position>
            <AltitudeMeters>2259.60009765625</AltitudeMeters>
            <DistanceMeters>20783.209000096</DistanceMeters>
          </Trackpoint>
          <Trackpoint>
            <Time>2022-07-09T15:24:06.000Z</Time>
            <Position>
              <LatitudeDegrees>42.788201831281185150146484375</LatitudeDegrees>
              <LongitudeDegrees>-0.13782195746898651123046875</LongitudeDegrees>
            </Position>
            <AltitudeMeters>2258.60009765625</AltitudeMeters>
            <DistanceMeters>20786.464965351</DistanceMeters>
          </Trackpoint>
          <Trackpoint>
            <Time>2022-07-09T15:24:09.000Z</Time>
            <Position>
              <LatitudeDegrees>42.78822152875363826751708984375</LatitudeDegrees>
              <LongitudeDegrees>-0.13784567825496196746826171875</LongitudeDegrees>
            </Position>
            <AltitudeMeters>2257.800048828125</AltitudeMeters>
            <DistanceMeters>20789.390800697</DistanceMeters>
          </Trackpoint>
          <Trackpoint>
            <Time>2022-07-09T15:24:11.000Z</Time>
            <Position>
              <LatitudeDegrees>42.78823225758969783782958984375</LatitudeDegrees>
              <LongitudeDegrees>-0.1378593407571315765380859375</LongitudeDegrees>
            </Position>
            <AltitudeMeters>2257.60009765625</AltitudeMeters>
            <DistanceMeters>20791.025702109</DistanceMeters>
          </Trackpoint>
          <Trackpoint>
            <Time>2022-07-09T15:24:12.000Z</Time>
            <Position>
              <LatitudeDegrees>42.78823644854128360748291015625</LatitudeDegrees>
              <LongitudeDegrees>-0.1378647051751613616943359375</LongitudeDegrees>
            </Position>
            <AltitudeMeters>2257.39990234375</AltitudeMeters>
            <DistanceMeters>20791.670204643</DistanceMeters>
          </Trackpoint>
          <Trackpoint>
            <Time>2022-07-09T15:24:13.000Z</Time>
            <Position>
              <LatitudeDegrees>42.7882418967783451080322265625</LatitudeDegrees>
              <LongitudeDegrees>-0.137869901955127716064453125</LongitudeDegrees>
            </Position>
            <AltitudeMeters>2257.39990234375</AltitudeMeters>
            <DistanceMeters>20792.406278407</DistanceMeters>
          </Trackpoint>
          <Trackpoint>
            <Time>2022-07-09T15:24:17.000Z</Time>
            <Position>
              <LatitudeDegrees>42.78826897032558917999267578125</LatitudeDegrees>
              <LongitudeDegrees>-0.13791156001389026641845703125</LongitudeDegrees>
            </Position>
            <AltitudeMeters>2256.39990234375</AltitudeMeters>
            <DistanceMeters>20796.951695319</DistanceMeters>
          </Trackpoint>
          <Trackpoint>
            <Time>2022-07-09T15:24:20.000Z</Time>
            <Position>
              <LatitudeDegrees>42.78829294256865978240966796875</LatitudeDegrees>
              <LongitudeDegrees>-0.13793754391372203826904296875</LongitudeDegrees>
            </Position>
            <AltitudeMeters>2255.800048828125</AltitudeMeters>
            <DistanceMeters>20800.362082168</DistanceMeters>
          </Trackpoint>
          <Trackpoint>
            <Time>2022-07-09T15:24:21.000Z</Time>
            <Position>
              <LatitudeDegrees>42.78829478658735752105712890625</LatitudeDegrees>
              <LongitudeDegrees>-0.13794944621622562408447265625</LongitudeDegrees>
            </Position>
            <AltitudeMeters>2255.60009765625</AltitudeMeters>
            <DistanceMeters>20801.349628753</DistanceMeters>
          </Trackpoint>
          <Trackpoint>
            <Time>2022-07-09T15:24:23.000Z</Time>
            <Position>
              <LatitudeDegrees>42.78830886818468570709228515625</LatitudeDegrees>
              <LongitudeDegrees>-0.1379766874015331268310546875</LongitudeDegrees>
            </Position>
            <AltitudeMeters>2255.39990234375</AltitudeMeters>
            <DistanceMeters>20804.070779738</DistanceMeters>
          </Trackpoint>
          <Trackpoint>
            <Time>2022-07-09T15:24:27.000Z</Time>
            <Position>
              <LatitudeDegrees>42.78834373690187931060791015625</LatitudeDegrees>
              <LongitudeDegrees>-0.13804181478917598724365234375</LongitudeDegrees>
            </Position>
            <AltitudeMeters>2254.60009765625</AltitudeMeters>
            <DistanceMeters>20810.655109393</DistanceMeters>
          </Trackpoint>
          <Trackpoint>
            <Time>2022-07-09T15:24:28.000Z</Time>
            <Position>
              <LatitudeDegrees>42.78835195116698741912841796875</LatitudeDegrees>
              <LongitudeDegrees>-0.138055980205535888671875</LongitudeDegrees>
            </Position>
            <AltitudeMeters>2254.199951171875</AltitudeMeters>
            <DistanceMeters>20812.130320708</DistanceMeters>
          </Trackpoint>
          <Trackpoint>
            <Time>2022-07-09T15:24:30.000Z</Time>
            <Position>
              <LatitudeDegrees>42.788369469344615936279296875</LatitudeDegrees>
              <LongitudeDegrees>-0.138071067631244659423828125</LongitudeDegrees>
            </Position>
            <AltitudeMeters>2253.800048828125</AltitudeMeters>
            <DistanceMeters>20814.43851158</DistanceMeters>
          </Trackpoint>
          <Trackpoint>
            <Time>2022-07-09T15:24:32.000Z</Time>
            <Position>
              <LatitudeDegrees>42.7883874066174030303955078125</LatitudeDegrees>
              <LongitudeDegrees>-0.1380705647170543670654296875</LongitudeDegrees>
            </Position>
            <AltitudeMeters>2253</AltitudeMeters>
            <DistanceMeters>20816.436333841</DistanceMeters>
          </Trackpoint>
          <Trackpoint>
            <Time>2022-07-09T15:24:34.000Z</Time>
            <Position>
              <LatitudeDegrees>42.78840802609920501708984375</LatitudeDegrees>
              <LongitudeDegrees>-0.1380658708512783050537109375</LongitudeDegrees>
            </Position>
            <AltitudeMeters>2252.60009765625</AltitudeMeters>
            <DistanceMeters>20818.764003463</DistanceMeters>
          </Trackpoint>
          <Trackpoint>
            <Time>2022-07-09T15:24:36.000Z</Time>
            <Position>
              <LatitudeDegrees>42.788431830704212188720703125</LatitudeDegrees>
              <LongitudeDegrees>-0.1380707323551177978515625</LongitudeDegrees>
            </Position>
            <AltitudeMeters>2252.39990234375</AltitudeMeters>
            <DistanceMeters>20821.441666753</DistanceMeters>
          </Trackpoint>
          <Trackpoint>
            <Time>2022-07-09T15:24:40.000Z</Time>
            <Position>
              <LatitudeDegrees>42.78847985900938510894775390625</LatitudeDegrees>
              <LongitudeDegrees>-0.13808975927531719207763671875</LongitudeDegrees>
            </Position>
            <AltitudeMeters>2252.60009765625</AltitudeMeters>
            <DistanceMeters>20827.008642804</DistanceMeters>
          </Trackpoint>
          <Trackpoint>
            <Time>2022-07-09T15:24:44.000Z</Time>
            <Position>
              <LatitudeDegrees>42.78852629475295543670654296875</LatitudeDegrees>
              <LongitudeDegrees>-0.13811121694743633270263671875</LongitudeDegrees>
            </Position>
            <AltitudeMeters>2253.39990234375</AltitudeMeters>
            <DistanceMeters>20832.465857489</DistanceMeters>
          </Trackpoint>
          <Trackpoint>
            <Time>2022-07-09T15:24:46.000Z</Time>
            <Position>
              <LatitudeDegrees>42.788549177348613739013671875</LatitudeDegrees>
              <LongitudeDegrees>-0.13813309371471405029296875</LongitudeDegrees>
            </Position>
            <AltitudeMeters>2253.800048828125</AltitudeMeters>
            <DistanceMeters>20835.57861704</DistanceMeters>
          </Trackpoint>
          <Trackpoint>
            <Time>2022-07-09T15:24:49.000Z</Time>
            <Position>
              <LatitudeDegrees>42.78857641853392124176025390625</LatitudeDegrees>
              <LongitudeDegrees>-0.1381503604352474212646484375</LongitudeDegrees>
            </Position>
            <AltitudeMeters>2253.39990234375</AltitudeMeters>
            <DistanceMeters>20838.922153287</DistanceMeters>
          </Trackpoint>
          <Trackpoint>
            <Time>2022-07-09T15:24:51.000Z</Time>
            <Position>
              <LatitudeDegrees>42.78858731500804424285888671875</LatitudeDegrees>
              <LongitudeDegrees>-0.1381439901888370513916015625</LongitudeDegrees>
            </Position>
            <AltitudeMeters>2253.199951171875</AltitudeMeters>
            <DistanceMeters>20840.238882066</DistanceMeters>
          </Trackpoint>
          <Trackpoint>
            <Time>2022-07-09T15:24:54.000Z</Time>
            <Position>
              <LatitudeDegrees>42.7886043302714824676513671875</LatitudeDegrees>
              <LongitudeDegrees>-0.1381377875804901123046875</LongitudeDegrees>
            </Position>
            <AltitudeMeters>2253.199951171875</AltitudeMeters>
            <DistanceMeters>20842.200211352</DistanceMeters>
          </Trackpoint>
          <Trackpoint>
            <Time>2022-07-09T15:24:57.000Z</Time>
            <Position>
              <LatitudeDegrees>42.78863358311355113983154296875</LatitudeDegrees>
              <LongitudeDegrees>-0.1381295733153820037841796875</LongitudeDegrees>
            </Position>
            <AltitudeMeters>2253.60009765625</AltitudeMeters>
            <DistanceMeters>20845.524788553</DistanceMeters>
          </Trackpoint>
          <Trackpoint>
            <Time>2022-07-09T15:24:59.000Z</Time>
            <Position>
              <LatitudeDegrees>42.78865487314760684967041015625</LatitudeDegrees>
              <LongitudeDegrees>-0.13812898658215999603271484375</LongitudeDegrees>
            </Position>
            <AltitudeMeters>2254</AltitudeMeters>
            <DistanceMeters>20847.894747951</DistanceMeters>
          </Trackpoint>
          <Trackpoint>
            <Time>2022-07-09T15:25:00.000Z</Time>
            <Position>
              <LatitudeDegrees>42.7886666916310787200927734375</LatitudeDegrees>
              <LongitudeDegrees>-0.13812747783958911895751953125</LongitudeDegrees>
            </Position>
            <AltitudeMeters>2254.199951171875</AltitudeMeters>
            <DistanceMeters>20849.218316925</DistanceMeters>
          </Trackpoint>
          <Trackpoint>
            <Time>2022-07-09T15:25:03.000Z</Time>
            <Position>
              <LatitudeDegrees>42.78870181180536746978759765625</LatitudeDegrees>
              <LongitudeDegrees>-0.138118676841259002685546875</LongitudeDegrees>
            </Position>
            <AltitudeMeters>2254</AltitudeMeters>
            <DistanceMeters>20853.192433645</DistanceMeters>
          </Trackpoint>
          <Trackpoint>
            <Time>2022-07-09T15:25:05.000Z</Time>
            <Position>
              <LatitudeDegrees>42.788722515106201171875</LatitudeDegrees>
              <LongitudeDegrees>-0.13811255805194377899169921875</LongitudeDegrees>
            </Position>
            <AltitudeMeters>2253.800048828125</AltitudeMeters>
            <DistanceMeters>20855.549019525</DistanceMeters>
          </Trackpoint>
          <Trackpoint>
            <Time>2022-07-09T15:25:09.000Z</Time>
            <Position>
              <LatitudeDegrees>42.78876501135528087615966796875</LatitudeDegrees>
              <LongitudeDegrees>-0.1381171680986881256103515625</LongitudeDegrees>
            </Position>
            <AltitudeMeters>2253.60009765625</AltitudeMeters>
            <DistanceMeters>20860.293698711</DistanceMeters>
          </Trackpoint>
          <Trackpoint>
            <Time>2022-07-09T15:25:10.000Z</Time>
            <Position>
              <LatitudeDegrees>42.78877423144876956939697265625</LatitudeDegrees>
              <LongitudeDegrees>-0.1381148211658000946044921875</LongitudeDegrees>
            </Position>
            <AltitudeMeters>2253.60009765625</AltitudeMeters>
            <DistanceMeters>20861.334664212</DistanceMeters>
          </Trackpoint>
          <Trackpoint>
            <Time>2022-07-09T15:25:13.000Z</Time>
            <Position>
              <LatitudeDegrees>42.7887934260070323944091796875</LatitudeDegrees>
              <LongitudeDegrees>-0.13809462077915668487548828125</LongitudeDegrees>
            </Position>
            <AltitudeMeters>2252.60009765625</AltitudeMeters>
            <DistanceMeters>20864.032485854</DistanceMeters>
          </Trackpoint>
          <Trackpoint>
            <Time>2022-07-09T15:25:14.000Z</Time>
            <Position>
              <LatitudeDegrees>42.78880021534860134124755859375</LatitudeDegrees>
              <LongitudeDegrees>-0.1380863226950168609619140625</LongitudeDegrees>
            </Position>
            <AltitudeMeters>2252.199951171875</AltitudeMeters>
            <DistanceMeters>20865.047093519</DistanceMeters>
          </Trackpoint>
          <Trackpoint>
            <Time>2022-07-09T15:25:16.000Z</Time>
            <Position>
              <LatitudeDegrees>42.78881010599434375762939453125</LatitudeDegrees>
              <LongitudeDegrees>-0.13808003626763820648193359375</LongitudeDegrees>
            </Position>
            <AltitudeMeters>2251.199951171875</AltitudeMeters>
            <DistanceMeters>20866.260313392</DistanceMeters>
          </Trackpoint>
          <Trackpoint>
            <Time>2022-07-09T15:25:17.000Z</Time>
            <Position>
              <LatitudeDegrees>42.78881664387881755828857421875</LatitudeDegrees>
              <LongitudeDegrees>-0.13808548450469970703125</LongitudeDegrees>
            </Position>
            <AltitudeMeters>2250.800048828125</AltitudeMeters>
            <DistanceMeters>20867.110258164</DistanceMeters>
          </Trackpoint>
          <Trackpoint>
            <Time>2022-07-09T15:25:19.000Z</Time>
            <Position>
              <LatitudeDegrees>42.7888333238661289215087890625</LatitudeDegrees>
              <LongitudeDegrees>-0.1380921900272369384765625</LongitudeDegrees>
            </Position>
            <AltitudeMeters>2250</AltitudeMeters>
            <DistanceMeters>20869.043765767</DistanceMeters>
          </Trackpoint>
          <Trackpoint>
            <Time>2022-07-09T15:25:24.000Z</Time>
            <Position>
              <LatitudeDegrees>42.788886465132236480712890625</LatitudeDegrees>
              <LongitudeDegrees>-0.138091854751110076904296875</LongitudeDegrees>
            </Position>
            <AltitudeMeters>2249.60009765625</AltitudeMeters>
            <DistanceMeters>20874.95836771</DistanceMeters>
          </Trackpoint>
          <Trackpoint>
            <Time>2022-07-09T15:25:29.000Z</Time>
            <Position>
              <LatitudeDegrees>42.78894857503473758697509765625</LatitudeDegrees>
              <LongitudeDegrees>-0.13807534240186214447021484375</LongitudeDegrees>
            </Position>
            <AltitudeMeters>2249.199951171875</AltitudeMeters>
            <DistanceMeters>20882.001251345</DistanceMeters>
          </Trackpoint>
          <Trackpoint>
            <Time>2022-07-09T15:25:30.000Z</Time>
            <Position>
              <LatitudeDegrees>42.7889573760330677032470703125</LatitudeDegrees>
              <LongitudeDegrees>-0.1380779407918453216552734375</LongitudeDegrees>
            </Position>
            <AltitudeMeters>2248.800048828125</AltitudeMeters>
            <DistanceMeters>20882.997899934</DistanceMeters>
          </Trackpoint>
          <Trackpoint>
            <Time>2022-07-09T15:25:31.000Z</Time>
            <Position>
              <LatitudeDegrees>42.78896860778331756591796875</LatitudeDegrees>
              <LongitudeDegrees>-0.13808422721922397613525390625</LongitudeDegrees>
            </Position>
            <AltitudeMeters>2248.800048828125</AltitudeMeters>
            <DistanceMeters>20884.348483305</DistanceMeters>
          </Trackpoint>
          <Trackpoint>
            <Time>2022-07-09T15:25:37.000Z</Time>
            <Position>
              <LatitudeDegrees>42.78903138823807239532470703125</LatitudeDegrees>
              <LongitudeDegrees>-0.1381057687103748321533203125</LongitudeDegrees>
            </Position>
            <AltitudeMeters>2248</AltitudeMeters>
            <DistanceMeters>20891.554240694</DistanceMeters>
          </Trackpoint>
          <Trackpoint>
            <Time>2022-07-09T15:25:39.000Z</Time>
            <Position>
              <LatitudeDegrees>42.789042703807353973388671875</LatitudeDegrees>
              <LongitudeDegrees>-0.13811163604259490966796875</LongitudeDegrees>
            </Position>
            <AltitudeMeters>2247.800048828125</AltitudeMeters>
            <DistanceMeters>20892.898121376</DistanceMeters>
          </Trackpoint>
          <Trackpoint>
            <Time>2022-07-09T15:25:41.000Z</Time>
            <Position>
              <LatitudeDegrees>42.78905217535793781280517578125</LatitudeDegrees>
              <LongitudeDegrees>-0.13811540789902210235595703125</LongitudeDegrees>
            </Position>
            <AltitudeMeters>2247.39990234375</AltitudeMeters>
            <DistanceMeters>20893.998135123</DistanceMeters>
          </Trackpoint>
          <Trackpoint>
            <Time>2022-07-09T15:25:42.000Z</Time>
            <Position>
              <LatitudeDegrees>42.78905519284307956695556640625</LatitudeDegrees>
              <LongitudeDegrees>-0.1381144858896732330322265625</LongitudeDegrees>
            </Position>
            <AltitudeMeters>2247.39990234375</AltitudeMeters>
            <DistanceMeters>20894.353692531</DistanceMeters>
          </Trackpoint>
          <Trackpoint>
            <Time>2022-07-09T15:25:43.000Z</Time>
            <Position>
              <LatitudeDegrees>42.78905846178531646728515625</LatitudeDegrees>
              <LongitudeDegrees>-0.1381124742329120635986328125</LongitudeDegrees>
            </Position>
            <AltitudeMeters>2247</AltitudeMeters>
            <DistanceMeters>20894.756856736</DistanceMeters>
          </Trackpoint>
          <Trackpoint>
            <Time>2022-07-09T15:25:45.000Z</Time>
            <Position>
              <LatitudeDegrees>42.78906893916428089141845703125</LatitudeDegrees>
              <LongitudeDegrees>-0.13810987584292888641357421875</LongitudeDegrees>
            </Position>
            <AltitudeMeters>2246.800048828125</AltitudeMeters>
            <DistanceMeters>20895.943740018</DistanceMeters>
          </Trackpoint>
          <Trackpoint>
            <Time>2022-07-09T15:25:46.000Z</Time>
            <Position>
              <LatitudeDegrees>42.7890767343342304229736328125</LatitudeDegrees>
              <LongitudeDegrees>-0.13810769654810428619384765625</LongitudeDegrees>
            </Position>
            <AltitudeMeters>2246.800048828125</AltitudeMeters>
            <DistanceMeters>20896.835169615</DistanceMeters>
          </Trackpoint>
          <Trackpoint>
            <Time>2022-07-09T15:25:49.000Z</Time>
            <Position>
              <LatitudeDegrees>42.78909659944474697113037109375</LatitudeDegrees>
              <LongitudeDegrees>-0.13809998519718647003173828125</LongitudeDegrees>
            </Position>
            <AltitudeMeters>2245.60009765625</AltitudeMeters>
            <DistanceMeters>20899.135522805</DistanceMeters>
          </Trackpoint>
          <Trackpoint>
            <Time>2022-07-09T15:25:52.000Z</Time>
            <Position>
              <LatitudeDegrees>42.78912459500133991241455078125</LatitudeDegrees>
              <LongitudeDegrees>-0.1380948722362518310546875</LongitudeDegrees>
            </Position>
            <AltitudeMeters>2245.199951171875</AltitudeMeters>
            <DistanceMeters>20902.278595128</DistanceMeters>
          </Trackpoint>
          <Trackpoint>
            <Time>2022-07-09T15:25:54.000Z</Time>
            <Position>
              <LatitudeDegrees>42.78914630413055419921875</LatitudeDegrees>
              <LongitudeDegrees>-0.1380903460085391998291015625</LongitudeDegrees>
            </Position>
            <AltitudeMeters>2244.800048828125</AltitudeMeters>
            <DistanceMeters>20904.721724378</DistanceMeters>
          </Trackpoint>
          <Trackpoint>
            <Time>2022-07-09T15:25:55.000Z</Time>
            <Position>
              <LatitudeDegrees>42.7891568653285503387451171875</LatitudeDegrees>
              <LongitudeDegrees>-0.13808908872306346893310546875</LongitudeDegrees>
            </Position>
            <AltitudeMeters>2244.39990234375</AltitudeMeters>
            <DistanceMeters>20905.900974891</DistanceMeters>
          </Trackpoint>
          <Trackpoint>
            <Time>2022-07-09T15:25:59.000Z</Time>
            <Position>
              <LatitudeDegrees>42.78919399715960025787353515625</LatitudeDegrees>
              <LongitudeDegrees>-0.138085819780826568603515625</LongitudeDegrees>
            </Position>
            <AltitudeMeters>2244.199951171875</AltitudeMeters>
            <DistanceMeters>20910.042003165</DistanceMeters>
          </Trackpoint>
          <Trackpoint>
            <Time>2022-07-09T15:26:01.000Z</Time>
            <Position>
              <LatitudeDegrees>42.7892014570534229278564453125</LatitudeDegrees>
              <LongitudeDegrees>-0.13808808289468288421630859375</LongitudeDegrees>
            </Position>
            <AltitudeMeters>2243.60009765625</AltitudeMeters>
            <DistanceMeters>20910.891947937</DistanceMeters>
          </Trackpoint>
          <Trackpoint>
            <Time>2022-07-09T15:26:02.000Z</Time>
            <Position>
              <LatitudeDegrees>42.7892011217772960662841796875</LatitudeDegrees>
              <LongitudeDegrees>-0.13809395022690296173095703125</LongitudeDegrees>
            </Position>
            <AltitudeMeters>2243.39990234375</AltitudeMeters>
            <DistanceMeters>20911.367081509</DistanceMeters>
          </Trackpoint>
          <Trackpoint>
            <Time>2022-07-09T15:26:03.000Z</Time>
            <Position>
              <LatitudeDegrees>42.78920070268213748931884765625</LatitudeDegrees>
              <LongitudeDegrees>-0.13809545896947383880615234375</LongitudeDegrees>
            </Position>
            <AltitudeMeters>2243.199951171875</AltitudeMeters>
            <DistanceMeters>20911.501469577</DistanceMeters>
          </Trackpoint>
          <Trackpoint>
            <Time>2022-07-09T15:26:05.000Z</Time>
            <Position>
              <LatitudeDegrees>42.78920640237629413604736328125</LatitudeDegrees>
              <LongitudeDegrees>-0.1381037570536136627197265625</LongitudeDegrees>
            </Position>
            <AltitudeMeters>2242.39990234375</AltitudeMeters>
            <DistanceMeters>20912.432537425</DistanceMeters>
          </Trackpoint>
          <Trackpoint>
            <Time>2022-07-09T15:26:06.000Z</Time>
            <Position>
              <LatitudeDegrees>42.78921377845108509063720703125</LatitudeDegrees>
              <LongitudeDegrees>-0.1381081156432628631591796875</LongitudeDegrees>
            </Position>
            <AltitudeMeters>2242</AltitudeMeters>
            <DistanceMeters>20913.329017656</DistanceMeters>
          </Trackpoint>
          <Trackpoint>
            <Time>2022-07-09T15:26:10.000Z</Time>
            <Position>
              <LatitudeDegrees>42.7892540954053401947021484375</LatitudeDegrees>
              <LongitudeDegrees>-0.13811574317514896392822265625</LongitudeDegrees>
            </Position>
            <AltitudeMeters>2241.39990234375</AltitudeMeters>
            <DistanceMeters>20917.859510317</DistanceMeters>
          </Trackpoint>
          <Trackpoint>
            <Time>2022-07-09T15:26:11.000Z</Time>
            <Position>
              <LatitudeDegrees>42.78926138766109943389892578125</LatitudeDegrees>
              <LongitudeDegrees>-0.138122700154781341552734375</LongitudeDegrees>
            </Position>
            <AltitudeMeters>2241</AltitudeMeters>
            <DistanceMeters>20918.856158906</DistanceMeters>
          </Trackpoint>
          <Trackpoint>
            <Time>2022-07-09T15:26:17.000Z</Time>
            <Position>
              <LatitudeDegrees>42.78928720392286777496337890625</LatitudeDegrees>
              <LongitudeDegrees>-0.1381416432559490203857421875</LongitudeDegrees>
            </Position>
            <AltitudeMeters>2240.199951171875</AltitudeMeters>
            <DistanceMeters>20922.120433742</DistanceMeters>
          </Trackpoint>
          <Trackpoint>
            <Time>2022-07-09T15:26:18.000Z</Time>
            <Position>
              <LatitudeDegrees>42.78929357416927814483642578125</LatitudeDegrees>
              <LongitudeDegrees>-0.13813979923725128173828125</LongitudeDegrees>
            </Position>
            <AltitudeMeters>2240.199951171875</AltitudeMeters>
            <DistanceMeters>20922.850347785</DistanceMeters>
          </Trackpoint>
          <Trackpoint>
            <Time>2022-07-09T15:26:19.000Z</Time>
            <Position>
              <LatitudeDegrees>42.7893010340631008148193359375</LatitudeDegrees>
              <LongitudeDegrees>-0.13814189471304416656494140625</LongitudeDegrees>
            </Position>
            <AltitudeMeters>2240</AltitudeMeters>
            <DistanceMeters>20923.700292557</DistanceMeters>
          </Trackpoint>
          <Trackpoint>
            <Time>2022-07-09T15:26:23.000Z</Time>
            <Position>
              <LatitudeDegrees>42.7893352322280406951904296875</LatitudeDegrees>
              <LongitudeDegrees>-0.138152539730072021484375</LongitudeDegrees>
            </Position>
            <AltitudeMeters>2238.800048828125</AltitudeMeters>
            <DistanceMeters>20927.604491455</DistanceMeters>
          </Trackpoint>
          <Trackpoint>
            <Time>2022-07-09T15:26:25.000Z</Time>
            <Position>
              <LatitudeDegrees>42.78935107402503490447998046875</LatitudeDegrees>
              <LongitudeDegrees>-0.13815379701554775238037109375</LongitudeDegrees>
            </Position>
            <AltitudeMeters>2238.39990234375</AltitudeMeters>
            <DistanceMeters>20929.372090519</DistanceMeters>
          </Trackpoint>
          <Trackpoint>
            <Time>2022-07-09T15:26:26.000Z</Time>
            <Position>
              <LatitudeDegrees>42.78935995884239673614501953125</LatitudeDegrees>
              <LongitudeDegrees>-0.13815631158649921417236328125</LongitudeDegrees>
            </Position>
            <AltitudeMeters>2238.199951171875</AltitudeMeters>
            <DistanceMeters>20930.382238348</DistanceMeters>
          </Trackpoint>
          <Trackpoint>
            <Time>2022-07-09T15:26:28.000Z</Time>
            <Position>
              <LatitudeDegrees>42.78938024304807186126708984375</LatitudeDegrees>
              <LongitudeDegrees>-0.13816636987030506134033203125</LongitudeDegrees>
            </Position>
            <AltitudeMeters>2237.60009765625</AltitudeMeters>
            <DistanceMeters>20932.784366332</DistanceMeters>
          </Trackpoint>
          <Trackpoint>
            <Time>2022-07-09T15:26:30.000Z</Time>
            <Position>
              <LatitudeDegrees>42.7893959172070026397705078125</LatitudeDegrees>
              <LongitudeDegrees>-0.13817743398249149322509765625</LongitudeDegrees>
            </Position>
            <AltitudeMeters>2237</AltitudeMeters>
            <DistanceMeters>20934.747996297</DistanceMeters>
          </Trackpoint>
          <Trackpoint>
            <Time>2022-07-09T15:26:31.000Z</Time>
            <Position>
              <LatitudeDegrees>42.78940446674823760986328125</LatitudeDegrees>
              <LongitudeDegrees>-0.13817659579217433929443359375</LongitudeDegrees>
            </Position>
            <AltitudeMeters>2236.60009765625</AltitudeMeters>
            <DistanceMeters>20935.707719068</DistanceMeters>
          </Trackpoint>
          <Trackpoint>
            <Time>2022-07-09T15:26:32.000Z</Time>
            <Position>
              <LatitudeDegrees>42.7894126810133457183837890625</LatitudeDegrees>
              <LongitudeDegrees>-0.13817726634442806243896484375</LongitudeDegrees>
            </Position>
            <AltitudeMeters>2236.60009765625</AltitudeMeters>
            <DistanceMeters>20936.624123515</DistanceMeters>
          </Trackpoint>
          <Trackpoint>
            <Time>2022-07-09T15:26:36.000Z</Time>
            <Position>
              <LatitudeDegrees>42.7894331328570842742919921875</LatitudeDegrees>
              <LongitudeDegrees>-0.13817978091537952423095703125</LongitudeDegrees>
            </Position>
            <AltitudeMeters>2235.60009765625</AltitudeMeters>
            <DistanceMeters>20938.908720675</DistanceMeters>
          </Trackpoint>
          <Trackpoint>
            <Time>2022-07-09T15:26:38.000Z</Time>
            <Position>
              <LatitudeDegrees>42.78945517726242542266845703125</LatitudeDegrees>
              <LongitudeDegrees>-0.13818598352372646331787109375</LongitudeDegrees>
            </Position>
            <AltitudeMeters>2235.39990234375</AltitudeMeters>
            <DistanceMeters>20941.41569758</DistanceMeters>
          </Trackpoint>
          <Trackpoint>
            <Time>2022-07-09T15:26:41.000Z</Time>
            <Position>
              <LatitudeDegrees>42.7894904650747776031494140625</LatitudeDegrees>
              <LongitudeDegrees>-0.13819880783557891845703125</LongitudeDegrees>
            </Position>
            <AltitudeMeters>2234.39990234375</AltitudeMeters>
            <DistanceMeters>20945.480797812</DistanceMeters>
          </Trackpoint>
          <Trackpoint>
            <Time>2022-07-09T15:26:43.000Z</Time>
            <Position>
              <LatitudeDegrees>42.7895089052617549896240234375</LatitudeDegrees>
              <LongitudeDegrees>-0.1382117159664630889892578125</LongitudeDegrees>
            </Position>
            <AltitudeMeters>2234.199951171875</AltitudeMeters>
            <DistanceMeters>20947.788988684</DistanceMeters>
          </Trackpoint>
          <Trackpoint>
            <Time>2022-07-09T15:26:45.000Z</Time>
            <Position>
              <LatitudeDegrees>42.78953329659998416900634765625</LatitudeDegrees>
              <LongitudeDegrees>-0.13822319917380809783935546875</LongitudeDegrees>
            </Position>
            <AltitudeMeters>2234</AltitudeMeters>
            <DistanceMeters>20950.660305419</DistanceMeters>
          </Trackpoint>
          <Trackpoint>
            <Time>2022-07-09T15:26:47.000Z</Time>
            <Position>
              <LatitudeDegrees>42.7895571850240230560302734375</LatitudeDegrees>
              <LongitudeDegrees>-0.13823107816278934478759765625</LongitudeDegrees>
            </Position>
            <AltitudeMeters>2234</AltitudeMeters>
            <DistanceMeters>20953.394698093</DistanceMeters>
          </Trackpoint>
          <Trackpoint>
            <Time>2022-07-09T15:26:49.000Z</Time>
            <Position>
              <LatitudeDegrees>42.78957319445908069610595703125</LatitudeDegrees>
              <LongitudeDegrees>-0.13823292218148708343505859375</LongitudeDegrees>
            </Position>
            <AltitudeMeters>2233.800048828125</AltitudeMeters>
            <DistanceMeters>20955.182615055</DistanceMeters>
          </Trackpoint>
          <Trackpoint>
            <Time>2022-07-09T15:26:50.000Z</Time>
            <Position>
              <LatitudeDegrees>42.78958023525774478912353515625</LatitudeDegrees>
              <LongitudeDegrees>-0.13823635876178741455078125</LongitudeDegrees>
            </Position>
            <AltitudeMeters>2233.60009765625</AltitudeMeters>
            <DistanceMeters>20956.021868272</DistanceMeters>
          </Trackpoint>
          <Trackpoint>
            <Time>2022-07-09T15:26:52.000Z</Time>
            <Position>
              <LatitudeDegrees>42.7896021120250225067138671875</LatitudeDegrees>
              <LongitudeDegrees>-0.13823996298015117645263671875</LongitudeDegrees>
            </Position>
            <AltitudeMeters>2233.39990234375</AltitudeMeters>
            <DistanceMeters>20958.47422039</DistanceMeters>
          </Trackpoint>
          <Trackpoint>
            <Time>2022-07-09T15:26:53.000Z</Time>
            <Position>
              <LatitudeDegrees>42.7896158583462238311767578125</LatitudeDegrees>
              <LongitudeDegrees>-0.138240717351436614990234375</LongitudeDegrees>
            </Position>
            <AltitudeMeters>2233.199951171875</AltitudeMeters>
            <DistanceMeters>20960.009423944</DistanceMeters>
          </Trackpoint>
          <Trackpoint>
            <Time>2022-07-09T15:26:55.000Z</Time>
            <Position>
              <LatitudeDegrees>42.7896376512944698333740234375</LatitudeDegrees>
              <LongitudeDegrees>-0.13824851252138614654541015625</LongitudeDegrees>
            </Position>
            <AltitudeMeters>2232.800048828125</AltitudeMeters>
            <DistanceMeters>20962.520000244</DistanceMeters>
          </Trackpoint>
          <Trackpoint>
            <Time>2022-07-09T15:26:56.000Z</Time>
            <Position>
              <LatitudeDegrees>42.78964695520699024200439453125</LatitudeDegrees>
              <LongitudeDegrees>-0.1382519491016864776611328125</LongitudeDegrees>
            </Position>
            <AltitudeMeters>2232.60009765625</AltitudeMeters>
            <DistanceMeters>20963.59510479</DistanceMeters>
          </Trackpoint>
          <Trackpoint>
            <Time>2022-07-09T15:26:59.000Z</Time>
            <Position>
              <LatitudeDegrees>42.7896678261458873748779296875</LatitudeDegrees>
              <LongitudeDegrees>-0.138274915516376495361328125</LongitudeDegrees>
            </Position>
            <AltitudeMeters>2232.39990234375</AltitudeMeters>
            <DistanceMeters>20966.582028881</DistanceMeters>
          </Trackpoint>
          <Trackpoint>
            <Time>2022-07-09T15:27:00.000Z</Time>
            <Position>
              <LatitudeDegrees>42.78967260383069515228271484375</LatitudeDegrees>
              <LongitudeDegrees>-0.13828136958181858062744140625</LongitudeDegrees>
            </Position>
            <AltitudeMeters>2232.199951171875</AltitudeMeters>
            <DistanceMeters>20967.330269978</DistanceMeters>
          </Trackpoint>
          <Trackpoint>
            <Time>2022-07-09T15:27:02.000Z</Time>
            <Position>
              <LatitudeDegrees>42.789681740105152130126953125</LatitudeDegrees>
              <LongitudeDegrees>-0.13829964213073253631591796875</LongitudeDegrees>
            </Position>
            <AltitudeMeters>2231.800048828125</AltitudeMeters>
            <DistanceMeters>20969.135777551</DistanceMeters>
          </Trackpoint>
          <Trackpoint>
            <Time>2022-07-09T15:27:05.000Z</Time>
            <Position>
              <LatitudeDegrees>42.7897137589752674102783203125</LatitudeDegrees>
              <LongitudeDegrees>-0.1383149810135364532470703125</LongitudeDegrees>
            </Position>
            <AltitudeMeters>2231</AltitudeMeters>
            <DistanceMeters>20972.914209879</DistanceMeters>
          </Trackpoint>
          <Trackpoint>
            <Time>2022-07-09T15:27:06.000Z</Time>
            <Position>
              <LatitudeDegrees>42.78972188942134380340576171875</LatitudeDegrees>
              <LongitudeDegrees>-0.13831808231770992279052734375</LongitudeDegrees>
            </Position>
            <AltitudeMeters>2230.60009765625</AltitudeMeters>
            <DistanceMeters>20973.854926357</DistanceMeters>
          </Trackpoint>
          <Trackpoint>
            <Time>2022-07-09T15:27:08.000Z</Time>
            <Position>
              <LatitudeDegrees>42.7897375635802745819091796875</LatitudeDegrees>
              <LongitudeDegrees>-0.138334594666957855224609375</LongitudeDegrees>
            </Position>
            <AltitudeMeters>2230.39990234375</AltitudeMeters>
            <DistanceMeters>20976.059054558</DistanceMeters>
          </Trackpoint>
          <Trackpoint>
            <Time>2022-07-09T15:27:10.000Z</Time>
            <Position>
              <LatitudeDegrees>42.78975239954888820648193359375</LatitudeDegrees>
              <LongitudeDegrees>-0.13835362158715724945068359375</LongitudeDegrees>
            </Position>
            <AltitudeMeters>2230</AltitudeMeters>
            <DistanceMeters>20978.327786268</DistanceMeters>
          </Trackpoint>
          <Trackpoint>
            <Time>2022-07-09T15:27:11.000Z</Time>
            <Position>
              <LatitudeDegrees>42.78975876979529857635498046875</LatitudeDegrees>
              <LongitudeDegrees>-0.1383630931377410888671875</LongitudeDegrees>
            </Position>
            <AltitudeMeters>2229.800048828125</AltitudeMeters>
            <DistanceMeters>20979.377390635</DistanceMeters>
          </Trackpoint>
          <Trackpoint>
            <Time>2022-07-09T15:27:13.000Z</Time>
            <Position>
              <LatitudeDegrees>42.7897725999355316162109375</LatitudeDegrees>
              <LongitudeDegrees>-0.1383820362389087677001953125</LongitudeDegrees>
            </Position>
            <AltitudeMeters>2229.60009765625</AltitudeMeters>
            <DistanceMeters>20981.56093829</DistanceMeters>
          </Trackpoint>
          <Trackpoint>
            <Time>2022-07-09T15:27:16.000Z</Time>
            <Position>
              <LatitudeDegrees>42.78978944756090641021728515625</LatitudeDegrees>
              <LongitudeDegrees>-0.138399302959442138671875</LongitudeDegrees>
            </Position>
            <AltitudeMeters>2228.800048828125</AltitudeMeters>
            <DistanceMeters>20983.904074325</DistanceMeters>
          </Trackpoint>
          <Trackpoint>
            <Time>2022-07-09T15:27:19.000Z</Time>
            <Position>
              <LatitudeDegrees>42.7898059599101543426513671875</LatitudeDegrees>
              <LongitudeDegrees>-0.138394944369792938232421875</LongitudeDegrees>
            </Position>
            <AltitudeMeters>2228.199951171875</AltitudeMeters>
            <DistanceMeters>20985.775883519</DistanceMeters>
          </Trackpoint>
          <Trackpoint>
            <Time>2022-07-09T15:27:23.000Z</Time>
            <Position>
              <LatitudeDegrees>42.789823226630687713623046875</LatitudeDegrees>
              <LongitudeDegrees>-0.138416402041912078857421875</LongitudeDegrees>
            </Position>
            <AltitudeMeters>2228</AltitudeMeters>
            <DistanceMeters>20988.378297271</DistanceMeters>
          </Trackpoint>
          <Trackpoint>
            <Time>2022-07-09T15:27:24.000Z</Time>
            <Position>
              <LatitudeDegrees>42.78982180170714855194091796875</LatitudeDegrees>
              <LongitudeDegrees>-0.13842084445059299468994140625</LongitudeDegrees>
            </Position>
            <AltitudeMeters>2227.60009765625</AltitudeMeters>
            <DistanceMeters>20988.781461475</DistanceMeters>
          </Trackpoint>
          <Trackpoint>
            <Time>2022-07-09T15:27:25.000Z</Time>
            <Position>
              <LatitudeDegrees>42.789816521108150482177734375</LatitudeDegrees>
              <LongitudeDegrees>-0.13842604123055934906005859375</LongitudeDegrees>
            </Position>
            <AltitudeMeters>2227.60009765625</AltitudeMeters>
            <DistanceMeters>20989.505163371</DistanceMeters>
          </Trackpoint>
          <Trackpoint>
            <Time>2022-07-09T15:27:26.000Z</Time>
            <Position>
              <LatitudeDegrees>42.78980839066207408905029296875</LatitudeDegrees>
              <LongitudeDegrees>-0.13843710534274578094482421875</LongitudeDegrees>
            </Position>
            <AltitudeMeters>2227.60009765625</AltitudeMeters>
            <DistanceMeters>20990.780080529</DistanceMeters>
          </Trackpoint>
          <Trackpoint>
            <Time>2022-07-09T15:27:27.000Z</Time>
            <Position>
              <LatitudeDegrees>42.78979632072150707244873046875</LatitudeDegrees>
              <LongitudeDegrees>-0.13844800181686878204345703125</LongitudeDegrees>
            </Position>
            <AltitudeMeters>2227.39990234375</AltitudeMeters>
            <DistanceMeters>20992.392737348</DistanceMeters>
          </Trackpoint>
          <Trackpoint>
            <Time>2022-07-09T15:27:29.000Z</Time>
            <Position>
              <LatitudeDegrees>42.78976949863135814666748046875</LatitudeDegrees>
              <LongitudeDegrees>-0.138459317386150360107421875</LongitudeDegrees>
            </Position>
            <AltitudeMeters>2226.60009765625</AltitudeMeters>
            <DistanceMeters>20995.518524083</DistanceMeters>
          </Trackpoint>
          <Trackpoint>
            <Time>2022-07-09T15:27:31.000Z</Time>
            <Position>
              <LatitudeDegrees>42.7897399105131626129150390625</LatitudeDegrees>
              <LongitudeDegrees>-0.138470046222209930419921875</LongitudeDegrees>
            </Position>
            <AltitudeMeters>2226</AltitudeMeters>
            <DistanceMeters>20998.926262088</DistanceMeters>
          </Trackpoint>
          <Trackpoint>
            <Time>2022-07-09T15:27:33.000Z</Time>
            <Position>
              <LatitudeDegrees>42.7897130884230136871337890625</LatitudeDegrees>
              <LongitudeDegrees>-0.13846778310835361480712890625</LongitudeDegrees>
            </Position>
            <AltitudeMeters>2225.39990234375</AltitudeMeters>
            <DistanceMeters>21001.919226476</DistanceMeters>
          </Trackpoint>
          <Trackpoint>
            <Time>2022-07-09T15:27:34.000Z</Time>
            <Position>
              <LatitudeDegrees>42.7897067181766033172607421875</LatitudeDegrees>
              <LongitudeDegrees>-0.1384715549647808074951171875</LongitudeDegrees>
            </Position>
            <AltitudeMeters>2225.199951171875</AltitudeMeters>
            <DistanceMeters>21002.697053656</DistanceMeters>
          </Trackpoint>
          <Trackpoint>
            <Time>2022-07-09T15:27:37.000Z</Time>
            <Position>
              <LatitudeDegrees>42.78969003818929195404052734375</LatitudeDegrees>
              <LongitudeDegrees>-0.138489492237567901611328125</LongitudeDegrees>
            </Position>
            <AltitudeMeters>2224.39990234375</AltitudeMeters>
            <DistanceMeters>21005.063199762</DistanceMeters>
          </Trackpoint>
          <Trackpoint>
            <Time>2022-07-09T15:27:38.000Z</Time>
            <Position>
              <LatitudeDegrees>42.78968878090381622314453125</LatitudeDegrees>
              <LongitudeDegrees>-0.1385037414729595184326171875</LongitudeDegrees>
            </Position>
            <AltitudeMeters>2224.39990234375</AltitudeMeters>
            <DistanceMeters>21006.23476778</DistanceMeters>
          </Trackpoint>
          <Trackpoint>
            <Time>2022-07-09T15:27:40.000Z</Time>
            <Position>
              <LatitudeDegrees>42.78969087637960910797119140625</LatitudeDegrees>
              <LongitudeDegrees>-0.138521008193492889404296875</LongitudeDegrees>
            </Position>
            <AltitudeMeters>2224.39990234375</AltitudeMeters>
            <DistanceMeters>21007.663332541</DistanceMeters>
          </Trackpoint>
          <Trackpoint>
            <Time>2022-07-09T15:27:42.000Z</Time>
            <Position>
              <LatitudeDegrees>42.78970009647309780120849609375</LatitudeDegrees>
              <LongitudeDegrees>-0.138549171388149261474609375</LongitudeDegrees>
            </Position>
            <AltitudeMeters>2224.199951171875</AltitudeMeters>
            <DistanceMeters>21010.181092192</DistanceMeters>
          </Trackpoint>
          <Trackpoint>
            <Time>2022-07-09T15:27:43.000Z</Time>
            <Position>
              <LatitudeDegrees>42.78970596380531787872314453125</LatitudeDegrees>
              <LongitudeDegrees>-0.13855713419616222381591796875</LongitudeDegrees>
            </Position>
            <AltitudeMeters>2224.199951171875</AltitudeMeters>
            <DistanceMeters>21011.102410371</DistanceMeters>
          </Trackpoint>
          <Trackpoint>
            <Time>2022-07-09T15:27:48.000Z</Time>
            <Position>
              <LatitudeDegrees>42.789728008210659027099609375</LatitudeDegrees>
              <LongitudeDegrees>-0.13859066180884838104248046875</LongitudeDegrees>
            </Position>
            <AltitudeMeters>2223.199951171875</AltitudeMeters>
            <DistanceMeters>21014.780324795</DistanceMeters>
          </Trackpoint>
          <Trackpoint>
            <Time>2022-07-09T15:27:49.000Z</Time>
            <Position>
              <LatitudeDegrees>42.7897362224757671356201171875</LatitudeDegrees>
              <LongitudeDegrees>-0.13859166763722896575927734375</LongitudeDegrees>
            </Position>
            <AltitudeMeters>2222.800048828125</AltitudeMeters>
            <DistanceMeters>21015.701642973</DistanceMeters>
          </Trackpoint>
          <Trackpoint>
            <Time>2022-07-09T15:27:51.000Z</Time>
            <Position>
              <LatitudeDegrees>42.78974200598895549774169921875</LatitudeDegrees>
              <LongitudeDegrees>-0.13858965598046779632568359375</LongitudeDegrees>
            </Position>
            <AltitudeMeters>2222</AltitudeMeters>
            <DistanceMeters>21016.366829974</DistanceMeters>
          </Trackpoint>
          <Trackpoint>
            <Time>2022-07-09T15:27:54.000Z</Time>
            <Position>
              <LatitudeDegrees>42.78974385000765323638916015625</LatitudeDegrees>
              <LongitudeDegrees>-0.1386080123484134674072265625</LongitudeDegrees>
            </Position>
            <AltitudeMeters>2221</AltitudeMeters>
            <DistanceMeters>21017.881306589</DistanceMeters>
          </Trackpoint>
          <Trackpoint>
            <Time>2022-07-09T15:27:58.000Z</Time>
            <Position>
              <LatitudeDegrees>42.7897700853645801544189453125</LatitudeDegrees>
              <LongitudeDegrees>-0.138656459748744964599609375</LongitudeDegrees>
            </Position>
            <AltitudeMeters>2219.800048828125</AltitudeMeters>
            <DistanceMeters>21022.798881674</DistanceMeters>
          </Trackpoint>
          <Trackpoint>
            <Time>2022-07-09T15:27:59.000Z</Time>
            <Position>
              <LatitudeDegrees>42.7897777967154979705810546875</LatitudeDegrees>
              <LongitudeDegrees>-0.1386653445661067962646484375</LongitudeDegrees>
            </Position>
            <AltitudeMeters>2219.39990234375</AltitudeMeters>
            <DistanceMeters>21023.923252921</DistanceMeters>
          </Trackpoint>
          <Trackpoint>
            <Time>2022-07-09T15:28:00.000Z</Time>
            <Position>
              <LatitudeDegrees>42.7897841669619083404541015625</LatitudeDegrees>
              <LongitudeDegrees>-0.13867230154573917388916015625</LongitudeDegrees>
            </Position>
            <AltitudeMeters>2219</AltitudeMeters>
            <DistanceMeters>21024.829750001</DistanceMeters>
          </Trackpoint>
          <Trackpoint>
            <Time>2022-07-09T15:28:02.000Z</Time>
            <Position>
              <LatitudeDegrees>42.78978978283703327178955078125</LatitudeDegrees>
              <LongitudeDegrees>-0.1386723853647708892822265625</LongitudeDegrees>
            </Position>
            <AltitudeMeters>2218.60009765625</AltitudeMeters>
            <DistanceMeters>21025.460085915</DistanceMeters>
          </Trackpoint>
          <Trackpoint>
            <Time>2022-07-09T15:28:04.000Z</Time>
            <Position>
              <LatitudeDegrees>42.7897915430366992950439453125</LatitudeDegrees>
              <LongitudeDegrees>-0.13867129571735858917236328125</LongitudeDegrees>
            </Position>
            <AltitudeMeters>2217.39990234375</AltitudeMeters>
            <DistanceMeters>21025.692852877</DistanceMeters>
          </Trackpoint>
          <Trackpoint>
            <Time>2022-07-09T15:28:05.000Z</Time>
            <Position>
              <LatitudeDegrees>42.78979565016925334930419921875</LatitudeDegrees>
              <LongitudeDegrees>-0.1386690326035022735595703125</LongitudeDegrees>
            </Position>
            <AltitudeMeters>2217.199951171875</AltitudeMeters>
            <DistanceMeters>21026.195686985</DistanceMeters>
          </Trackpoint>
          <Trackpoint>
            <Time>2022-07-09T15:28:08.000Z</Time>
            <Position>
              <LatitudeDegrees>42.7898197062313556671142578125</LatitudeDegrees>
              <LongitudeDegrees>-0.13867163099348545074462890625</LongitudeDegrees>
            </Position>
            <AltitudeMeters>2216</AltitudeMeters>
            <DistanceMeters>21028.88344835</DistanceMeters>
          </Trackpoint>
          <Trackpoint>
            <Time>2022-07-09T15:28:11.000Z</Time>
            <Position>
              <LatitudeDegrees>42.78983772732317447662353515625</LatitudeDegrees>
              <LongitudeDegrees>-0.13870080001652240753173828125</LongitudeDegrees>
            </Position>
            <AltitudeMeters>2215.39990234375</AltitudeMeters>
            <DistanceMeters>21031.996207901</DistanceMeters>
          </Trackpoint>
          <Trackpoint>
            <Time>2022-07-09T15:28:12.000Z</Time>
            <Position>
              <LatitudeDegrees>42.78984460048377513885498046875</LatitudeDegrees>
              <LongitudeDegrees>-0.13870566152036190032958984375</LongitudeDegrees>
            </Position>
            <AltitudeMeters>2214.800048828125</AltitudeMeters>
            <DistanceMeters>21032.856711398</DistanceMeters>
          </Trackpoint>
          <Trackpoint>
            <Time>2022-07-09T15:28:17.000Z</Time>
            <Position>
              <LatitudeDegrees>42.7898803912103176116943359375</LatitudeDegrees>
              <LongitudeDegrees>-0.138708762824535369873046875</LongitudeDegrees>
            </Position>
            <AltitudeMeters>2213.60009765625</AltitudeMeters>
            <DistanceMeters>21036.847833402</DistanceMeters>
          </Trackpoint>
          <Trackpoint>
            <Time>2022-07-09T15:28:18.000Z</Time>
            <Position>
              <LatitudeDegrees>42.789888940751552581787109375</LatitudeDegrees>
              <LongitudeDegrees>-0.13871756382286548614501953125</LongitudeDegrees>
            </Position>
            <AltitudeMeters>2213.39990234375</AltitudeMeters>
            <DistanceMeters>21038.04230068</DistanceMeters>
          </Trackpoint>
          <Trackpoint>
            <Time>2022-07-09T15:28:20.000Z</Time>
            <Position>
              <LatitudeDegrees>42.7899120748043060302734375</LatitudeDegrees>
              <LongitudeDegrees>-0.1387391053140163421630859375</LongitudeDegrees>
            </Position>
            <AltitudeMeters>2213</AltitudeMeters>
            <DistanceMeters>21041.162304271</DistanceMeters>
          </Trackpoint>
          <Trackpoint>
            <Time>2022-07-09T15:28:23.000Z</Time>
            <Position>
              <LatitudeDegrees>42.78994627296924591064453125</LatitudeDegrees>
              <LongitudeDegrees>-0.13875796459615230560302734375</LongitudeDegrees>
            </Position>
            <AltitudeMeters>2212.60009765625</AltitudeMeters>
            <DistanceMeters>21045.269393605</DistanceMeters>
          </Trackpoint>
          <Trackpoint>
            <Time>2022-07-09T15:28:26.000Z</Time>
            <Position>
              <LatitudeDegrees>42.78996680863201618194580078125</LatitudeDegrees>
              <LongitudeDegrees>-0.1387733034789562225341796875</LongitudeDegrees>
            </Position>
            <AltitudeMeters>2211.39990234375</AltitudeMeters>
            <DistanceMeters>21047.875274931</DistanceMeters>
          </Trackpoint>
          <Trackpoint>
            <Time>2022-07-09T15:28:27.000Z</Time>
            <Position>
              <LatitudeDegrees>42.78997384943068027496337890625</LatitudeDegrees>
              <LongitudeDegrees>-0.13877288438379764556884765625</LongitudeDegrees>
            </Position>
            <AltitudeMeters>2210.800048828125</AltitudeMeters>
            <DistanceMeters>21048.658885292</DistanceMeters>
          </Trackpoint>
          <Trackpoint>
            <Time>2022-07-09T15:28:29.000Z</Time>
            <Position>
              <LatitudeDegrees>42.7899893559515476226806640625</LatitudeDegrees>
              <LongitudeDegrees>-0.13876936398446559906005859375</LongitudeDegrees>
            </Position>
            <AltitudeMeters>2210.39990234375</AltitudeMeters>
            <DistanceMeters>21050.405930179</DistanceMeters>
          </Trackpoint>
          <Trackpoint>
            <Time>2022-07-09T15:28:32.000Z</Time>
            <Position>
              <LatitudeDegrees>42.79000821523368358612060546875</LatitudeDegrees>
              <LongitudeDegrees>-0.13877640478312969207763671875</LongitudeDegrees>
            </Position>
            <AltitudeMeters>2209.199951171875</AltitudeMeters>
            <DistanceMeters>21052.583265738</DistanceMeters>
          </Trackpoint>
          <Trackpoint>
            <Time>2022-07-09T15:28:33.000Z</Time>
            <Position>
              <LatitudeDegrees>42.79001408256590366363525390625</LatitudeDegrees>
              <LongitudeDegrees>-0.13877925463020801544189453125</LongitudeDegrees>
            </Position>
            <AltitudeMeters>2208.800048828125</AltitudeMeters>
            <DistanceMeters>21053.281566624</DistanceMeters>
          </Trackpoint>
          <Trackpoint>
            <Time>2022-07-09T15:28:34.000Z</Time>
            <Position>
              <LatitudeDegrees>42.79001827351748943328857421875</LatitudeDegrees>
              <LongitudeDegrees>-0.138785205781459808349609375</LongitudeDegrees>
            </Position>
            <AltitudeMeters>2208.60009765625</AltitudeMeters>
            <DistanceMeters>21053.946753625</DistanceMeters>
          </Trackpoint>
          <Trackpoint>
            <Time>2022-07-09T15:28:36.000Z</Time>
            <Position>
              <LatitudeDegrees>42.7900322712957859039306640625</LatitudeDegrees>
              <LongitudeDegrees>-0.138802640140056610107421875</LongitudeDegrees>
            </Position>
            <AltitudeMeters>2208.39990234375</AltitudeMeters>
            <DistanceMeters>21056.056689094</DistanceMeters>
          </Trackpoint>
          <Trackpoint>
            <Time>2022-07-09T15:28:37.000Z</Time>
            <Position>
              <LatitudeDegrees>42.7900379709899425506591796875</LatitudeDegrees>
              <LongitudeDegrees>-0.13880825601518154144287109375</LongitudeDegrees>
            </Position>
            <AltitudeMeters>2207.800048828125</AltitudeMeters>
            <DistanceMeters>21056.840299456</DistanceMeters>
          </Trackpoint>
          <Trackpoint>
            <Time>2022-07-09T15:28:40.000Z</Time>
            <Position>
              <LatitudeDegrees>42.79003956355154514312744140625</LatitudeDegrees>
              <LongitudeDegrees>-0.13880020938813686370849609375</LongitudeDegrees>
            </Position>
            <AltitudeMeters>2207.199951171875</AltitudeMeters>
            <DistanceMeters>21057.525546838</DistanceMeters>
          </Trackpoint>
          <Trackpoint>
            <Time>2022-07-09T15:28:41.000Z</Time>
            <Position>
              <LatitudeDegrees>42.7900336124002933502197265625</LatitudeDegrees>
              <LongitudeDegrees>-0.13879358768463134765625</LongitudeDegrees>
            </Position>
            <AltitudeMeters>2206.800048828125</AltitudeMeters>
            <DistanceMeters>21058.386050335</DistanceMeters>
          </Trackpoint>
          <Trackpoint>
            <Time>2022-07-09T15:28:46.000Z</Time>
            <Position>
              <LatitudeDegrees>42.78997980058193206787109375</LatitudeDegrees>
              <LongitudeDegrees>-0.13879559934139251708984375</LongitudeDegrees>
            </Position>
            <AltitudeMeters>2206</AltitudeMeters>
            <DistanceMeters>21064.378010277</DistanceMeters>
          </Trackpoint>
          <Trackpoint>
            <Time>2022-07-09T15:28:47.000Z</Time>
            <Position>
              <LatitudeDegrees>42.7899689041078090667724609375</LatitudeDegrees>
              <LongitudeDegrees>-0.13879518024623394012451171875</LongitudeDegrees>
            </Position>
            <AltitudeMeters>2205.800048828125</AltitudeMeters>
            <DistanceMeters>21065.59123015</DistanceMeters>
          </Trackpoint>
          <Trackpoint>
            <Time>2022-07-09T15:28:48.000Z</Time>
            <Position>
              <LatitudeDegrees>42.7899601869285106658935546875</LatitudeDegrees>
              <LongitudeDegrees>-0.1388002932071685791015625</LongitudeDegrees>
            </Position>
            <AltitudeMeters>2205.60009765625</AltitudeMeters>
            <DistanceMeters>21066.649402857</DistanceMeters>
          </Trackpoint>
          <Trackpoint>
            <Time>2022-07-09T15:28:53.000Z</Time>
            <Position>
              <LatitudeDegrees>42.78993227519094944000244140625</LatitudeDegrees>
              <LongitudeDegrees>-0.13884664513170719146728515625</LongitudeDegrees>
            </Position>
            <AltitudeMeters>2204.60009765625</AltitudeMeters>
            <DistanceMeters>21071.546737136</DistanceMeters>
          </Trackpoint>
          <Trackpoint>
            <Time>2022-07-09T15:28:54.000Z</Time>
            <Position>
              <LatitudeDegrees>42.7899387292563915252685546875</LatitudeDegrees>
              <LongitudeDegrees>-0.13886793516576290130615234375</LongitudeDegrees>
            </Position>
            <AltitudeMeters>2204.39990234375</AltitudeMeters>
            <DistanceMeters>21073.428170091</DistanceMeters>
          </Trackpoint>
          <Trackpoint>
            <Time>2022-07-09T15:28:58.000Z</Time>
            <Position>
              <LatitudeDegrees>42.78996010310947895050048828125</LatitudeDegrees>
              <LongitudeDegrees>-0.13890095986425876617431640625</LongitudeDegrees>
            </Position>
            <AltitudeMeters>2204</AltitudeMeters>
            <DistanceMeters>21077.024149717</DistanceMeters>
          </Trackpoint>
          <Trackpoint>
            <Time>2022-07-09T15:29:00.000Z</Time>
            <Position>
              <LatitudeDegrees>42.78997384943068027496337890625</LatitudeDegrees>
              <LongitudeDegrees>-0.1388997025787830352783203125</LongitudeDegrees>
            </Position>
            <AltitudeMeters>2204</AltitudeMeters>
            <DistanceMeters>21078.559353271</DistanceMeters>
          </Trackpoint>
          <Trackpoint>
            <Time>2022-07-09T15:29:01.000Z</Time>
            <Position>
              <LatitudeDegrees>42.78998290188610553741455078125</LatitudeDegrees>
              <LongitudeDegrees>-0.13889727182686328887939453125</LongitudeDegrees>
            </Position>
            <AltitudeMeters>2203.60009765625</AltitudeMeters>
            <DistanceMeters>21079.582822307</DistanceMeters>
          </Trackpoint>
          <Trackpoint>
            <Time>2022-07-09T15:29:05.000Z</Time>
            <Position>
              <LatitudeDegrees>42.79002548195421695709228515625</LatitudeDegrees>
              <LongitudeDegrees>-0.13890816830098628997802734375</LongitudeDegrees>
            </Position>
            <AltitudeMeters>2202.60009765625</AltitudeMeters>
            <DistanceMeters>21084.405837641</DistanceMeters>
          </Trackpoint>
          <Trackpoint>
            <Time>2022-07-09T15:29:07.000Z</Time>
            <Position>
              <LatitudeDegrees>42.79004878364503383636474609375</LatitudeDegrees>
              <LongitudeDegrees>-0.1389157958328723907470703125</LongitudeDegrees>
            </Position>
            <AltitudeMeters>2202.199951171875</AltitudeMeters>
            <DistanceMeters>21087.0716715</DistanceMeters>
          </Trackpoint>
          <Trackpoint>
            <Time>2022-07-09T15:29:10.000Z</Time>
            <Position>
              <LatitudeDegrees>42.79008650220930576324462890625</LatitudeDegrees>
              <LongitudeDegrees>-0.13892459683120250701904296875</LongitudeDegrees>
            </Position>
            <AltitudeMeters>2202</AltitudeMeters>
            <DistanceMeters>21091.329886325</DistanceMeters>
          </Trackpoint>
          <Trackpoint>
            <Time>2022-07-09T15:29:13.000Z</Time>
            <Position>
              <LatitudeDegrees>42.79010192491114139556884765625</LatitudeDegrees>
              <LongitudeDegrees>-0.13894043862819671630859375</LongitudeDegrees>
            </Position>
            <AltitudeMeters>2202</AltitudeMeters>
            <DistanceMeters>21093.480095417</DistanceMeters>
          </Trackpoint>
          <Trackpoint>
            <Time>2022-07-09T15:29:15.000Z</Time>
            <Position>
              <LatitudeDegrees>42.7901172637939453125</LatitudeDegrees>
              <LongitudeDegrees>-0.13894521631300449371337890625</LongitudeDegrees>
            </Position>
            <AltitudeMeters>2202</AltitudeMeters>
            <DistanceMeters>21095.232301453</DistanceMeters>
          </Trackpoint>
          <Trackpoint>
            <Time>2022-07-09T15:29:20.000Z</Time>
            <Position>
              <LatitudeDegrees>42.7901566587388515472412109375</LatitudeDegrees>
              <LongitudeDegrees>-0.13897052966058254241943359375</LongitudeDegrees>
            </Position>
            <AltitudeMeters>2202.199951171875</AltitudeMeters>
            <DistanceMeters>21100.080526797</DistanceMeters>
          </Trackpoint>
          <Trackpoint>
            <Time>2022-07-09T15:29:22.000Z</Time>
            <Position>
              <LatitudeDegrees>42.79016998596489429473876953125</LatitudeDegrees>
              <LongitudeDegrees>-0.1389862038195133209228515625</LongitudeDegrees>
            </Position>
            <AltitudeMeters>2202.199951171875</AltitudeMeters>
            <DistanceMeters>21102.0395527</DistanceMeters>
          </Trackpoint>
          <Trackpoint>
            <Time>2022-07-09T15:29:26.000Z</Time>
            <Position>
              <LatitudeDegrees>42.790194042026996612548828125</LatitudeDegrees>
              <LongitudeDegrees>-0.13901931233704090118408203125</LongitudeDegrees>
            </Position>
            <AltitudeMeters>2201.800048828125</AltitudeMeters>
            <DistanceMeters>21105.845369644</DistanceMeters>
          </Trackpoint>
          <Trackpoint>
            <Time>2022-07-09T15:29:27.000Z</Time>
            <Position>
              <LatitudeDegrees>42.79020418412983417510986328125</LatitudeDegrees>
              <LongitudeDegrees>-0.13902685604989528656005859375</LongitudeDegrees>
            </Position>
            <AltitudeMeters>2201.800048828125</AltitudeMeters>
            <DistanceMeters>21107.134374712</DistanceMeters>
          </Trackpoint>
          <Trackpoint>
            <Time>2022-07-09T15:29:28.000Z</Time>
            <Position>
              <LatitudeDegrees>42.79021860100328922271728515625</LatitudeDegrees>
              <LongitudeDegrees>-0.13903356157243251800537109375</LongitudeDegrees>
            </Position>
            <AltitudeMeters>2201.39990234375</AltitudeMeters>
            <DistanceMeters>21108.828943775</DistanceMeters>
          </Trackpoint>
          <Trackpoint>
            <Time>2022-07-09T15:29:30.000Z</Time>
            <Position>
              <LatitudeDegrees>42.79024936258792877197265625</LatitudeDegrees>
              <LongitudeDegrees>-0.13903657905757427215576171875</LongitudeDegrees>
            </Position>
            <AltitudeMeters>2200.800048828125</AltitudeMeters>
            <DistanceMeters>21112.261763281</DistanceMeters>
          </Trackpoint>
          <Trackpoint>
            <Time>2022-07-09T15:29:32.000Z</Time>
            <Position>
              <LatitudeDegrees>42.7902756817638874053955078125</LatitudeDegrees>
              <LongitudeDegrees>-0.1390371657907962799072265625</LongitudeDegrees>
            </Position>
            <AltitudeMeters>2200.39990234375</AltitudeMeters>
            <DistanceMeters>21115.190683325</DistanceMeters>
          </Trackpoint>
          <Trackpoint>
            <Time>2022-07-09T15:29:36.000Z</Time>
            <Position>
              <LatitudeDegrees>42.79031599871814250946044921875</LatitudeDegrees>
              <LongitudeDegrees>-0.13904026709496974945068359375</LongitudeDegrees>
            </Position>
            <AltitudeMeters>2200.199951171875</AltitudeMeters>
            <DistanceMeters>21119.684150909</DistanceMeters>
          </Trackpoint>
          <Trackpoint>
            <Time>2022-07-09T15:29:37.000Z</Time>
            <Position>
              <LatitudeDegrees>42.790325470268726348876953125</LatitudeDegrees>
              <LongitudeDegrees>-0.13904077000916004180908203125</LongitudeDegrees>
            </Position>
            <AltitudeMeters>2200.199951171875</AltitudeMeters>
            <DistanceMeters>21120.738048154</DistanceMeters>
          </Trackpoint>
          <Trackpoint>
            <Time>2022-07-09T15:29:38.000Z</Time>
            <Position>
              <LatitudeDegrees>42.79033460654318332672119140625</LatitudeDegrees>
              <LongitudeDegrees>-0.1390416920185089111328125</LongitudeDegrees>
            </Position>
            <AltitudeMeters>2200.199951171875</AltitudeMeters>
            <DistanceMeters>21121.757096136</DistanceMeters>
          </Trackpoint>
          <Trackpoint>
            <Time>2022-07-09T15:29:40.000Z</Time>
            <Position>
              <LatitudeDegrees>42.7903524599969387054443359375</LatitudeDegrees>
              <LongitudeDegrees>-0.139038674533367156982421875</LongitudeDegrees>
            </Position>
            <AltitudeMeters>2200.39990234375</AltitudeMeters>
            <DistanceMeters>21123.757177101</DistanceMeters>
          </Trackpoint>
          <Trackpoint>
            <Time>2022-07-09T15:29:44.000Z</Time>
            <Position>
              <LatitudeDegrees>42.7903772704303264617919921875</LatitudeDegrees>
              <LongitudeDegrees>-0.13904093764722347259521484375</LongitudeDegrees>
            </Position>
            <AltitudeMeters>2200.60009765625</AltitudeMeters>
            <DistanceMeters>21126.524396793</DistanceMeters>
          </Trackpoint>
          <Trackpoint>
            <Time>2022-07-09T15:29:45.000Z</Time>
            <Position>
              <LatitudeDegrees>42.79037903062999248504638671875</LatitudeDegrees>
              <LongitudeDegrees>-0.13903993181884288787841796875</LongitudeDegrees>
            </Position>
            <AltitudeMeters>2200.60009765625</AltitudeMeters>
            <DistanceMeters>21126.736882986</DistanceMeters>
          </Trackpoint>
          <Trackpoint>
            <Time>2022-07-09T15:29:46.000Z</Time>
            <Position>
              <LatitudeDegrees>42.79037668369710445404052734375</LatitudeDegrees>
              <LongitudeDegrees>-0.1390341483056545257568359375</LongitudeDegrees>
            </Position>
            <AltitudeMeters>2200.60009765625</AltitudeMeters>
            <DistanceMeters>21127.274435259</DistanceMeters>
          </Trackpoint>
          <Trackpoint>
            <Time>2022-07-09T15:29:50.000Z</Time>
            <Position>
              <LatitudeDegrees>42.790380455553531646728515625</LatitudeDegrees>
              <LongitudeDegrees>-0.1390274427831172943115234375</LongitudeDegrees>
            </Position>
            <AltitudeMeters>2200</AltitudeMeters>
            <DistanceMeters>21127.966240182</DistanceMeters>
          </Trackpoint>
          <Trackpoint>
            <Time>2022-07-09T15:29:52.000Z</Time>
            <Position>
              <LatitudeDegrees>42.79037986882030963897705078125</LatitudeDegrees>
              <LongitudeDegrees>-0.13904906809329986572265625</LongitudeDegrees>
            </Position>
            <AltitudeMeters>2200</AltitudeMeters>
            <DistanceMeters>21129.736391737</DistanceMeters>
          </Trackpoint>
          <Trackpoint>
            <Time>2022-07-09T15:29:58.000Z</Time>
            <Position>
              <LatitudeDegrees>42.79038012027740478515625</LatitudeDegrees>
              <LongitudeDegrees>-0.13907496817409992218017578125</LongitudeDegrees>
            </Position>
            <AltitudeMeters>2199.800048828125</AltitudeMeters>
            <DistanceMeters>21131.852737152</DistanceMeters>
          </Trackpoint>
          <Trackpoint>
            <Time>2022-07-09T15:30:03.000Z</Time>
            <Position>
              <LatitudeDegrees>42.79043552465736865997314453125</LatitudeDegrees>
              <LongitudeDegrees>-0.1390857808291912078857421875</LongitudeDegrees>
            </Position>
            <AltitudeMeters>2200.199951171875</AltitudeMeters>
            <DistanceMeters>21138.081881433</DistanceMeters>
          </Trackpoint>
          <Trackpoint>
            <Time>2022-07-09T15:30:04.000Z</Time>
            <Position>
              <LatitudeDegrees>42.7904496900737285614013671875</LatitudeDegrees>
              <LongitudeDegrees>-0.13908871449530124664306640625</LongitudeDegrees>
            </Position>
            <AltitudeMeters>2200.199951171875</AltitudeMeters>
            <DistanceMeters>21139.674819436</DistanceMeters>
          </Trackpoint>
          <Trackpoint>
            <Time>2022-07-09T15:30:09.000Z</Time>
            <Position>
              <LatitudeDegrees>42.7905127219855785369873046875</LatitudeDegrees>
              <LongitudeDegrees>-0.139076225459575653076171875</LongitudeDegrees>
            </Position>
            <AltitudeMeters>2200.60009765625</AltitudeMeters>
            <DistanceMeters>21146.764347311</DistanceMeters>
          </Trackpoint>
          <Trackpoint>
            <Time>2022-07-09T15:30:13.000Z</Time>
            <Position>
              <LatitudeDegrees>42.790557481348514556884765625</LatitudeDegrees>
              <LongitudeDegrees>-0.13906625099480152130126953125</LongitudeDegrees>
            </Position>
            <AltitudeMeters>2201</AltitudeMeters>
            <DistanceMeters>21151.812403939</DistanceMeters>
          </Trackpoint>
          <Trackpoint>
            <Time>2022-07-09T15:30:15.000Z</Time>
            <Position>
              <LatitudeDegrees>42.79057382605969905853271484375</LatitudeDegrees>
              <LongitudeDegrees>-0.1390599645674228668212890625</LongitudeDegrees>
            </Position>
            <AltitudeMeters>2201</AltitudeMeters>
            <DistanceMeters>21153.703411679</DistanceMeters>
          </Trackpoint>
          <Trackpoint>
            <Time>2022-07-09T15:30:16.000Z</Time>
            <Position>
              <LatitudeDegrees>42.79058287851512432098388671875</LatitudeDegrees>
              <LongitudeDegrees>-0.139056108891963958740234375</LongitudeDegrees>
            </Position>
            <AltitudeMeters>2201</AltitudeMeters>
            <DistanceMeters>21154.761584387</DistanceMeters>
          </Trackpoint>
          <Trackpoint>
            <Time>2022-07-09T15:30:22.000Z</Time>
            <Position>
              <LatitudeDegrees>42.79063702560961246490478515625</LatitudeDegrees>
              <LongitudeDegrees>-0.13900724239647388458251953125</LongitudeDegrees>
            </Position>
            <AltitudeMeters>2199.800048828125</AltitudeMeters>
            <DistanceMeters>21161.989863733</DistanceMeters>
          </Trackpoint>
          <Trackpoint>
            <Time>2022-07-09T15:30:24.000Z</Time>
            <Position>
              <LatitudeDegrees>42.7906545437872409820556640625</LatitudeDegrees>
              <LongitudeDegrees>-0.13898276723921298980712890625</LongitudeDegrees>
            </Position>
            <AltitudeMeters>2199.199951171875</AltitudeMeters>
            <DistanceMeters>21164.783067278</DistanceMeters>
          </Trackpoint>
          <Trackpoint>
            <Time>2022-07-09T15:30:25.000Z</Time>
            <Position>
              <LatitudeDegrees>42.79066502116620540618896484375</LatitudeDegrees>
              <LongitudeDegrees>-0.13897740282118320465087890625</LongitudeDegrees>
            </Position>
            <AltitudeMeters>2198.800048828125</AltitudeMeters>
            <DistanceMeters>21166.029330954</DistanceMeters>
          </Trackpoint>
          <Trackpoint>
            <Time>2022-07-09T15:30:28.000Z</Time>
            <Position>
              <LatitudeDegrees>42.79069553129374980926513671875</LatitudeDegrees>
              <LongitudeDegrees>-0.13896415941417217254638671875</LongitudeDegrees>
            </Position>
            <AltitudeMeters>2198.199951171875</AltitudeMeters>
            <DistanceMeters>21169.593782883</DistanceMeters>
          </Trackpoint>
          <Trackpoint>
            <Time>2022-07-09T15:30:29.000Z</Time>
            <Position>
              <LatitudeDegrees>42.7907038293778896331787109375</LatitudeDegrees>
              <LongitudeDegrees>-0.13895829208195209503173828125</LongitudeDegrees>
            </Position>
            <AltitudeMeters>2198</AltitudeMeters>
            <DistanceMeters>21170.634748384</DistanceMeters>
          </Trackpoint>
          <Trackpoint>
            <Time>2022-07-09T15:30:35.000Z</Time>
            <Position>
              <LatitudeDegrees>42.79075755737721920013427734375</LatitudeDegrees>
              <LongitudeDegrees>-0.13894177973270416259765625</LongitudeDegrees>
            </Position>
            <AltitudeMeters>2197.60009765625</AltitudeMeters>
            <DistanceMeters>21176.764523916</DistanceMeters>
          </Trackpoint>
          <Trackpoint>
            <Time>2022-07-09T15:30:37.000Z</Time>
            <Position>
              <LatitudeDegrees>42.790776081383228302001953125</LatitudeDegrees>
              <LongitudeDegrees>-0.138936750590801239013671875</LongitudeDegrees>
            </Position>
            <AltitudeMeters>2197.39990234375</AltitudeMeters>
            <DistanceMeters>21178.868029908</DistanceMeters>
          </Trackpoint>
          <Trackpoint>
            <Time>2022-07-09T15:30:38.000Z</Time>
            <Position>
              <LatitudeDegrees>42.79078387655317783355712890625</LatitudeDegrees>
              <LongitudeDegrees>-0.13893297873437404632568359375</LongitudeDegrees>
            </Position>
            <AltitudeMeters>2197.39990234375</AltitudeMeters>
            <DistanceMeters>21179.789348087</DistanceMeters>
          </Trackpoint>
          <Trackpoint>
            <Time>2022-07-09T15:30:41.000Z</Time>
            <Position>
              <LatitudeDegrees>42.7908047474920749664306640625</LatitudeDegrees>
              <LongitudeDegrees>-0.13893264345824718475341796875</LongitudeDegrees>
            </Position>
            <AltitudeMeters>2197.39990234375</AltitudeMeters>
            <DistanceMeters>21182.11313502</DistanceMeters>
          </Trackpoint>
          <Trackpoint>
            <Time>2022-07-09T15:30:46.000Z</Time>
            <Position>
              <LatitudeDegrees>42.79081908054649829864501953125</LatitudeDegrees>
              <LongitudeDegrees>-0.1389531791210174560546875</LongitudeDegrees>
            </Position>
            <AltitudeMeters>2197</AltitudeMeters>
            <DistanceMeters>21184.429137051</DistanceMeters>
          </Trackpoint>
          <Trackpoint>
            <Time>2022-07-09T15:30:47.000Z</Time>
            <Position>
              <LatitudeDegrees>42.7908218465745449066162109375</LatitudeDegrees>
              <LongitudeDegrees>-0.13896432705223560333251953125</LongitudeDegrees>
            </Position>
            <AltitudeMeters>2196.60009765625</AltitudeMeters>
            <DistanceMeters>21185.388859822</DistanceMeters>
          </Trackpoint>
          <Trackpoint>
            <Time>2022-07-09T15:30:52.000Z</Time>
            <Position>
              <LatitudeDegrees>42.79084221459925174713134765625</LatitudeDegrees>
              <LongitudeDegrees>-0.1389992795884609222412109375</LongitudeDegrees>
            </Position>
            <AltitudeMeters>2195.800048828125</AltitudeMeters>
            <DistanceMeters>21189.034716721</DistanceMeters>
          </Trackpoint>
          <Trackpoint>
            <Time>2022-07-09T15:30:53.000Z</Time>
            <Position>
              <LatitudeDegrees>42.790849171578884124755859375</LatitudeDegrees>
              <LongitudeDegrees>-0.13900212943553924560546875</LongitudeDegrees>
            </Position>
            <AltitudeMeters>2195.800048828125</AltitudeMeters>
            <DistanceMeters>21189.841045131</DistanceMeters>
          </Trackpoint>
          <Trackpoint>
            <Time>2022-07-09T15:30:59.000Z</Time>
            <Position>
              <LatitudeDegrees>42.79090625233948230743408203125</LatitudeDegrees>
              <LongitudeDegrees>-0.139016546308994293212890625</LongitudeDegrees>
            </Position>
            <AltitudeMeters>2194.60009765625</AltitudeMeters>
            <DistanceMeters>21196.302162944</DistanceMeters>
          </Trackpoint>
          <Trackpoint>
            <Time>2022-07-09T15:31:00.000Z</Time>
            <Position>
              <LatitudeDegrees>42.7909170649945735931396484375</LatitudeDegrees>
              <LongitudeDegrees>-0.13902484439313411712646484375</LongitudeDegrees>
            </Position>
            <AltitudeMeters>2194.39990234375</AltitudeMeters>
            <DistanceMeters>21197.682505702</DistanceMeters>
          </Trackpoint>
          <Trackpoint>
            <Time>2022-07-09T15:31:02.000Z</Time>
            <Position>
              <LatitudeDegrees>42.79093408025801181793212890625</LatitudeDegrees>
              <LongitudeDegrees>-0.13903029263019561767578125</LongitudeDegrees>
            </Position>
            <AltitudeMeters>2193.800048828125</AltitudeMeters>
            <DistanceMeters>21199.627654033</DistanceMeters>
          </Trackpoint>
          <Trackpoint>
            <Time>2022-07-09T15:31:04.000Z</Time>
            <Position>
              <LatitudeDegrees>42.7909455634653568267822265625</LatitudeDegrees>
              <LongitudeDegrees>-0.1390388421714305877685546875</LongitudeDegrees>
            </Position>
            <AltitudeMeters>2193.60009765625</AltitudeMeters>
            <DistanceMeters>21201.081283246</DistanceMeters>
          </Trackpoint>
          <Trackpoint>
            <Time>2022-07-09T15:31:05.000Z</Time>
            <Position>
              <LatitudeDegrees>42.79095352627336978912353515625</LatitudeDegrees>
              <LongitudeDegrees>-0.13904370367527008056640625</LongitudeDegrees>
            </Position>
            <AltitudeMeters>2193.39990234375</AltitudeMeters>
            <DistanceMeters>21202.050369388</DistanceMeters>
          </Trackpoint>
          <Trackpoint>
            <Time>2022-07-09T15:31:06.000Z</Time>
            <Position>
              <LatitudeDegrees>42.79096148908138275146484375</LatitudeDegrees>
              <LongitudeDegrees>-0.1390499062836170196533203125</LongitudeDegrees>
            </Position>
            <AltitudeMeters>2193.39990234375</AltitudeMeters>
            <DistanceMeters>21203.073838424</DistanceMeters>
          </Trackpoint>
          <Trackpoint>
            <Time>2022-07-09T15:31:09.000Z</Time>
            <Position>
              <LatitudeDegrees>42.79098822735249996185302734375</LatitudeDegrees>
              <LongitudeDegrees>-0.13906323350965976715087890625</LongitudeDegrees>
            </Position>
            <AltitudeMeters>2192.800048828125</AltitudeMeters>
            <DistanceMeters>21206.242662339</DistanceMeters>
          </Trackpoint>
          <Trackpoint>
            <Time>2022-07-09T15:31:11.000Z</Time>
            <Position>
              <LatitudeDegrees>42.79100264422595500946044921875</LatitudeDegrees>
              <LongitudeDegrees>-0.139071531593799591064453125</LongitudeDegrees>
            </Position>
            <AltitudeMeters>2192.60009765625</AltitudeMeters>
            <DistanceMeters>21207.984530785</DistanceMeters>
          </Trackpoint>
          <Trackpoint>
            <Time>2022-07-09T15:31:13.000Z</Time>
            <Position>
              <LatitudeDegrees>42.79101672582328319549560546875</LatitudeDegrees>
              <LongitudeDegrees>-0.13908385299146175384521484375</LongitudeDegrees>
            </Position>
            <AltitudeMeters>2192.39990234375</AltitudeMeters>
            <DistanceMeters>21209.846666482</DistanceMeters>
          </Trackpoint>
          <Trackpoint>
            <Time>2022-07-09T15:31:16.000Z</Time>
            <Position>
              <LatitudeDegrees>42.79104455374181270599365234375</LatitudeDegrees>
              <LongitudeDegrees>-0.1391045562922954559326171875</LongitudeDegrees>
            </Position>
            <AltitudeMeters>2192</AltitudeMeters>
            <DistanceMeters>21213.375472997</DistanceMeters>
          </Trackpoint>
          <Trackpoint>
            <Time>2022-07-09T15:31:18.000Z</Time>
            <Position>
              <LatitudeDegrees>42.7910555340349674224853515625</LatitudeDegrees>
              <LongitudeDegrees>-0.1391263492405414581298828125</LongitudeDegrees>
            </Position>
            <AltitudeMeters>2191.800048828125</AltitudeMeters>
            <DistanceMeters>21215.534065002</DistanceMeters>
          </Trackpoint>
          <Trackpoint>
            <Time>2022-07-09T15:31:21.000Z</Time>
            <Position>
              <LatitudeDegrees>42.79107221402227878570556640625</LatitudeDegrees>
              <LongitudeDegrees>-0.1391669176518917083740234375</LongitudeDegrees>
            </Position>
            <AltitudeMeters>2191.60009765625</AltitudeMeters>
            <DistanceMeters>21219.332757166</DistanceMeters>
          </Trackpoint>
          <Trackpoint>
            <Time>2022-07-09T15:31:22.000Z</Time>
            <Position>
              <LatitudeDegrees>42.79107992537319660186767578125</LatitudeDegrees>
              <LongitudeDegrees>-0.1391739584505558013916015625</LongitudeDegrees>
            </Position>
            <AltitudeMeters>2191.60009765625</AltitudeMeters>
            <DistanceMeters>21220.369376236</DistanceMeters>
          </Trackpoint>
          <Trackpoint>
            <Time>2022-07-09T15:31:24.000Z</Time>
            <Position>
              <LatitudeDegrees>42.79110054485499858856201171875</LatitudeDegrees>
              <LongitudeDegrees>-0.13919466175138950347900390625</LongitudeDegrees>
            </Position>
            <AltitudeMeters>2191.60009765625</AltitudeMeters>
            <DistanceMeters>21223.221761006</DistanceMeters>
          </Trackpoint>
          <Trackpoint>
            <Time>2022-07-09T15:31:25.000Z</Time>
            <Position>
              <LatitudeDegrees>42.79111043550074100494384765625</LatitudeDegrees>
              <LongitudeDegrees>-0.139202289283275604248046875</LongitudeDegrees>
            </Position>
            <AltitudeMeters>2191.199951171875</AltitudeMeters>
            <DistanceMeters>21224.489575507</DistanceMeters>
          </Trackpoint>
          <Trackpoint>
            <Time>2022-07-09T15:31:29.000Z</Time>
            <Position>
              <LatitudeDegrees>42.79113675467669963836669921875</LatitudeDegrees>
              <LongitudeDegrees>-0.139226429164409637451171875</LongitudeDegrees>
            </Position>
            <AltitudeMeters>2190.800048828125</AltitudeMeters>
            <DistanceMeters>21228.019661269</DistanceMeters>
          </Trackpoint>
          <Trackpoint>
            <Time>2022-07-09T15:31:33.000Z</Time>
            <Position>
              <LatitudeDegrees>42.79116558842360973358154296875</LatitudeDegrees>
              <LongitudeDegrees>-0.13926825486123561859130859375</LongitudeDegrees>
            </Position>
            <AltitudeMeters>2190.199951171875</AltitudeMeters>
            <DistanceMeters>21232.706896701</DistanceMeters>
          </Trackpoint>
          <Trackpoint>
            <Time>2022-07-09T15:31:36.000Z</Time>
            <Position>
              <LatitudeDegrees>42.79117740690708160400390625</LatitudeDegrees>
              <LongitudeDegrees>-0.1392839290201663970947265625</LongitudeDegrees>
            </Position>
            <AltitudeMeters>2190</AltitudeMeters>
            <DistanceMeters>21234.544625895</DistanceMeters>
          </Trackpoint>
          <Trackpoint>
            <Time>2022-07-09T15:31:37.000Z</Time>
            <Position>
              <LatitudeDegrees>42.79118000529706478118896484375</LatitudeDegrees>
              <LongitudeDegrees>-0.13929055072367191314697265625</LongitudeDegrees>
            </Position>
            <AltitudeMeters>2189.199951171875</AltitudeMeters>
            <DistanceMeters>21235.16046939</DistanceMeters>
          </Trackpoint>
          <Trackpoint>
            <Time>2022-07-09T15:31:38.000Z</Time>
            <Position>
              <LatitudeDegrees>42.7911849506199359893798828125</LatitudeDegrees>
              <LongitudeDegrees>-0.13930127955973148345947265625</LongitudeDegrees>
            </Position>
            <AltitudeMeters>2188.800048828125</AltitudeMeters>
            <DistanceMeters>21236.192723729</DistanceMeters>
          </Trackpoint>
          <Trackpoint>
            <Time>2022-07-09T15:31:40.000Z</Time>
            <Position>
              <LatitudeDegrees>42.79119995422661304473876953125</LatitudeDegrees>
              <LongitudeDegrees>-0.1393157802522182464599609375</LongitudeDegrees>
            </Position>
            <AltitudeMeters>2188</AltitudeMeters>
            <DistanceMeters>21238.239661801</DistanceMeters>
          </Trackpoint>
          <Trackpoint>
            <Time>2022-07-09T15:31:41.000Z</Time>
            <Position>
              <LatitudeDegrees>42.791210599243640899658203125</LatitudeDegrees>
              <LongitudeDegrees>-0.13932290486991405487060546875</LongitudeDegrees>
            </Position>
            <AltitudeMeters>2187.60009765625</AltitudeMeters>
            <DistanceMeters>21239.563230775</DistanceMeters>
          </Trackpoint>
          <Trackpoint>
            <Time>2022-07-09T15:31:45.000Z</Time>
            <Position>
              <LatitudeDegrees>42.79124789871275424957275390625</LatitudeDegrees>
              <LongitudeDegrees>-0.1393286883831024169921875</LongitudeDegrees>
            </Position>
            <AltitudeMeters>2186.60009765625</AltitudeMeters>
            <DistanceMeters>21243.741165404</DistanceMeters>
          </Trackpoint>
          <Trackpoint>
            <Time>2022-07-09T15:31:47.000Z</Time>
            <Position>
              <LatitudeDegrees>42.79125577770173549652099609375</LatitudeDegrees>
              <LongitudeDegrees>-0.13933614827692508697509765625</LongitudeDegrees>
            </Position>
            <AltitudeMeters>2186</AltitudeMeters>
            <DistanceMeters>21244.807837628</DistanceMeters>
          </Trackpoint>
          <Trackpoint>
            <Time>2022-07-09T15:31:49.000Z</Time>
            <Position>
              <LatitudeDegrees>42.791261561214923858642578125</LatitudeDegrees>
              <LongitudeDegrees>-0.13933514244854450225830078125</LongitudeDegrees>
            </Position>
            <AltitudeMeters>2185.60009765625</AltitudeMeters>
            <DistanceMeters>21245.459307959</DistanceMeters>
          </Trackpoint>
          <Trackpoint>
            <Time>2022-07-09T15:31:53.000Z</Time>
            <Position>
              <LatitudeDegrees>42.791285701096057891845703125</LatitudeDegrees>
              <LongitudeDegrees>-0.13935349881649017333984375</LongitudeDegrees>
            </Position>
            <AltitudeMeters>2185.199951171875</AltitudeMeters>
            <DistanceMeters>21248.53559145</DistanceMeters>
          </Trackpoint>
          <Trackpoint>
            <Time>2022-07-09T15:31:56.000Z</Time>
            <Position>
              <LatitudeDegrees>42.79131780378520488739013671875</LatitudeDegrees>
              <LongitudeDegrees>-0.13937504030764102935791015625</LongitudeDegrees>
            </Position>
            <AltitudeMeters>2184.39990234375</AltitudeMeters>
            <DistanceMeters>21252.519920049</DistanceMeters>
          </Trackpoint>
          <Trackpoint>
            <Time>2022-07-09T15:31:59.000Z</Time>
            <Position>
              <LatitudeDegrees>42.79134194366633892059326171875</LatitudeDegrees>
              <LongitudeDegrees>-0.13940001837909221649169921875</LongitudeDegrees>
            </Position>
            <AltitudeMeters>2184.199951171875</AltitudeMeters>
            <DistanceMeters>21255.894372063</DistanceMeters>
          </Trackpoint>
          <Trackpoint>
            <Time>2022-07-09T15:32:04.000Z</Time>
            <Position>
              <LatitudeDegrees>42.79139139689505100250244140625</LatitudeDegrees>
              <LongitudeDegrees>-0.13943052850663661956787109375</LongitudeDegrees>
            </Position>
            <AltitudeMeters>2183.39990234375</AltitudeMeters>
            <DistanceMeters>21261.936606672</DistanceMeters>
          </Trackpoint>
          <Trackpoint>
            <Time>2022-07-09T15:32:08.000Z</Time>
            <Position>
              <LatitudeDegrees>42.79141620732843875885009765625</LatitudeDegrees>
              <LongitudeDegrees>-0.13943689875304698944091796875</LongitudeDegrees>
            </Position>
            <AltitudeMeters>2182.60009765625</AltitudeMeters>
            <DistanceMeters>21264.745928086</DistanceMeters>
          </Trackpoint>
          <Trackpoint>
            <Time>2022-07-09T15:32:09.000Z</Time>
            <Position>
              <LatitudeDegrees>42.79141989536583423614501953125</LatitudeDegrees>
              <LongitudeDegrees>-0.1394418440759181976318359375</LongitudeDegrees>
            </Position>
            <AltitudeMeters>2182.39990234375</AltitudeMeters>
            <DistanceMeters>21265.316088373</DistanceMeters>
          </Trackpoint>
          <Trackpoint>
            <Time>2022-07-09T15:32:10.000Z</Time>
            <Position>
              <LatitudeDegrees>42.79142425395548343658447265625</LatitudeDegrees>
              <LongitudeDegrees>-0.139447711408138275146484375</LongitudeDegrees>
            </Position>
            <AltitudeMeters>2182.199951171875</AltitudeMeters>
            <DistanceMeters>21265.988028714</DistanceMeters>
          </Trackpoint>
          <Trackpoint>
            <Time>2022-07-09T15:32:14.000Z</Time>
            <Position>
              <LatitudeDegrees>42.79143665917217731475830078125</LatitudeDegrees>
              <LongitudeDegrees>-0.13949607498943805694580078125</LongitudeDegrees>
            </Position>
            <AltitudeMeters>2181.39990234375</AltitudeMeters>
            <DistanceMeters>21270.173521314</DistanceMeters>
          </Trackpoint>
          <Trackpoint>
            <Time>2022-07-09T15:32:16.000Z</Time>
            <Position>
              <LatitudeDegrees>42.791445292532444000244140625</LatitudeDegrees>
              <LongitudeDegrees>-0.13951241970062255859375</LongitudeDegrees>
            </Position>
            <AltitudeMeters>2181</AltitudeMeters>
            <DistanceMeters>21271.819432287</DistanceMeters>
          </Trackpoint>
          <Trackpoint>
            <Time>2022-07-09T15:32:18.000Z</Time>
            <Position>
              <LatitudeDegrees>42.79146037995815277099609375</LatitudeDegrees>
              <LongitudeDegrees>-0.13953127898275852203369140625</LongitudeDegrees>
            </Position>
            <AltitudeMeters>2180.199951171875</AltitudeMeters>
            <DistanceMeters>21274.100073432</DistanceMeters>
          </Trackpoint>
          <Trackpoint>
            <Time>2022-07-09T15:32:21.000Z</Time>
            <Position>
              <LatitudeDegrees>42.791488207876682281494140625</LatitudeDegrees>
              <LongitudeDegrees>-0.13955332338809967041015625</LongitudeDegrees>
            </Position>
            <AltitudeMeters>2179.199951171875</AltitudeMeters>
            <DistanceMeters>21277.683475266</DistanceMeters>
          </Trackpoint>
          <Trackpoint>
            <Time>2022-07-09T15:32:22.000Z</Time>
            <Position>
              <LatitudeDegrees>42.79149214737117290496826171875</LatitudeDegrees>
              <LongitudeDegrees>-0.13955592177808284759521484375</LongitudeDegrees>
            </Position>
            <AltitudeMeters>2179.199951171875</AltitudeMeters>
            <DistanceMeters>21278.168018337</DistanceMeters>
          </Trackpoint>
          <Trackpoint>
            <Time>2022-07-09T15:32:24.000Z</Time>
            <Position>
              <LatitudeDegrees>42.7914991043508052825927734375</LatitudeDegrees>
              <LongitudeDegrees>-0.1395528204739093780517578125</LongitudeDegrees>
            </Position>
            <AltitudeMeters>2178.39990234375</AltitudeMeters>
            <DistanceMeters>21278.985469043</DistanceMeters>
          </Trackpoint>
          <Trackpoint>
            <Time>2022-07-09T15:32:26.000Z</Time>
            <Position>
              <LatitudeDegrees>42.79150421731173992156982421875</LatitudeDegrees>
              <LongitudeDegrees>-0.13954527676105499267578125</LongitudeDegrees>
            </Position>
            <AltitudeMeters>2178</AltitudeMeters>
            <DistanceMeters>21279.82472226</DistanceMeters>
          </Trackpoint>
          <Trackpoint>
            <Time>2022-07-09T15:32:27.000Z</Time>
            <Position>
              <LatitudeDegrees>42.7915133535861968994140625</LatitudeDegrees>
              <LongitudeDegrees>-0.13954770751297473907470703125</LongitudeDegrees>
            </Position>
            <AltitudeMeters>2177.60009765625</AltitudeMeters>
            <DistanceMeters>21280.856976599</DistanceMeters>
          </Trackpoint>
          <Trackpoint>
            <Time>2022-07-09T15:32:30.000Z</Time>
            <Position>
              <LatitudeDegrees>42.79155115596950054168701171875</LatitudeDegrees>
              <LongitudeDegrees>-0.1395742781460285186767578125</LongitudeDegrees>
            </Position>
            <AltitudeMeters>2177.199951171875</AltitudeMeters>
            <DistanceMeters>21285.591176609</DistanceMeters>
          </Trackpoint>
          <Trackpoint>
            <Time>2022-07-09T15:32:32.000Z</Time>
            <Position>
              <LatitudeDegrees>42.7915644831955432891845703125</LatitudeDegrees>
              <LongitudeDegrees>-0.1395783014595508575439453125</LongitudeDegrees>
            </Position>
            <AltitudeMeters>2177</AltitudeMeters>
            <DistanceMeters>21287.111604039</DistanceMeters>
          </Trackpoint>
          <Trackpoint>
            <Time>2022-07-09T15:32:33.000Z</Time>
            <Position>
              <LatitudeDegrees>42.79156900942325592041015625</LatitudeDegrees>
              <LongitudeDegrees>-0.13958039693534374237060546875</LongitudeDegrees>
            </Position>
            <AltitudeMeters>2177</AltitudeMeters>
            <DistanceMeters>21287.649156312</DistanceMeters>
          </Trackpoint>
          <Trackpoint>
            <Time>2022-07-09T15:32:34.000Z</Time>
            <Position>
              <LatitudeDegrees>42.7915711887180805206298828125</LatitudeDegrees>
              <LongitudeDegrees>-0.13958743773400783538818359375</LongitudeDegrees>
            </Position>
            <AltitudeMeters>2176.800048828125</AltitudeMeters>
            <DistanceMeters>21288.27228815</DistanceMeters>
          </Trackpoint>
          <Trackpoint>
            <Time>2022-07-09T15:32:35.000Z</Time>
            <Position>
              <LatitudeDegrees>42.791575379669666290283203125</LatitudeDegrees>
              <LongitudeDegrees>-0.139593891799449920654296875</LongitudeDegrees>
            </Position>
            <AltitudeMeters>2176.60009765625</AltitudeMeters>
            <DistanceMeters>21288.983402965</DistanceMeters>
          </Trackpoint>
          <Trackpoint>
            <Time>2022-07-09T15:32:37.000Z</Time>
            <Position>
              <LatitudeDegrees>42.79159440658986568450927734375</LatitudeDegrees>
              <LongitudeDegrees>-0.13960554264485836029052734375</LongitudeDegrees>
            </Position>
            <AltitudeMeters>2176</AltitudeMeters>
            <DistanceMeters>21291.303300713</DistanceMeters>
          </Trackpoint>
          <Trackpoint>
            <Time>2022-07-09T15:32:39.000Z</Time>
            <Position>
              <LatitudeDegrees>42.7916157804429531097412109375</LatitudeDegrees>
              <LongitudeDegrees>-0.13962364755570888519287109375</LongitudeDegrees>
            </Position>
            <AltitudeMeters>2175.39990234375</AltitudeMeters>
            <DistanceMeters>21294.102962541</DistanceMeters>
          </Trackpoint>
          <Trackpoint>
            <Time>2022-07-09T15:32:41.000Z</Time>
            <Position>
              <LatitudeDegrees>42.79162860475480556488037109375</LatitudeDegrees>
              <LongitudeDegrees>-0.13963286764919757843017578125</LongitudeDegrees>
            </Position>
            <AltitudeMeters>2175.199951171875</AltitudeMeters>
            <DistanceMeters>21295.718416686</DistanceMeters>
          </Trackpoint>
          <Trackpoint>
            <Time>2022-07-09T15:32:44.000Z</Time>
            <Position>
              <LatitudeDegrees>42.791651152074337005615234375</LatitudeDegrees>
              <LongitudeDegrees>-0.139643847942352294921875</LongitudeDegrees>
            </Position>
            <AltitudeMeters>2174.39990234375</AltitudeMeters>
            <DistanceMeters>21298.384250544</DistanceMeters>
          </Trackpoint>
          <Trackpoint>
            <Time>2022-07-09T15:32:46.000Z</Time>
            <Position>
              <LatitudeDegrees>42.79165827669203281402587890625</LatitudeDegrees>
              <LongitudeDegrees>-0.1396621204912662506103515625</LongitudeDegrees>
            </Position>
            <AltitudeMeters>2174</AltitudeMeters>
            <DistanceMeters>21300.078819607</DistanceMeters>
          </Trackpoint>
          <Trackpoint>
            <Time>2022-07-09T15:32:49.000Z</Time>
            <Position>
              <LatitudeDegrees>42.79167068190872669219970703125</LatitudeDegrees>
              <LongitudeDegrees>-0.139686428010463714599609375</LongitudeDegrees>
            </Position>
            <AltitudeMeters>2173.39990234375</AltitudeMeters>
            <DistanceMeters>21302.497804836</DistanceMeters>
          </Trackpoint>
          <Trackpoint>
            <Time>2022-07-09T15:32:51.000Z</Time>
            <Position>
              <LatitudeDegrees>42.79169348068535327911376953125</LatitudeDegrees>
              <LongitudeDegrees>-0.139693804085254669189453125</LongitudeDegrees>
            </Position>
            <AltitudeMeters>2173.199951171875</AltitudeMeters>
            <DistanceMeters>21305.103686162</DistanceMeters>
          </Trackpoint>
          <Trackpoint>
            <Time>2022-07-09T15:32:52.000Z</Time>
            <Position>
              <LatitudeDegrees>42.791703455150127410888671875</LatitudeDegrees>
              <LongitudeDegrees>-0.139699168503284454345703125</LongitudeDegrees>
            </Position>
            <AltitudeMeters>2172.800048828125</AltitudeMeters>
            <DistanceMeters>21306.29815344</DistanceMeters>
          </Trackpoint>
          <Trackpoint>
            <Time>2022-07-09T15:32:53.000Z</Time>
            <Position>
              <LatitudeDegrees>42.7917118370532989501953125</LatitudeDegrees>
              <LongitudeDegrees>-0.1397003419697284698486328125</LongitudeDegrees>
            </Position>
            <AltitudeMeters>2172.39990234375</AltitudeMeters>
            <DistanceMeters>21307.238869918</DistanceMeters>
          </Trackpoint>
          <Trackpoint>
            <Time>2022-07-09T15:32:54.000Z</Time>
            <Position>
              <LatitudeDegrees>42.7917198836803436279296875</LatitudeDegrees>
              <LongitudeDegrees>-0.13970746658742427825927734375</LongitudeDegrees>
            </Position>
            <AltitudeMeters>2172.199951171875</AltitudeMeters>
            <DistanceMeters>21308.309766602</DistanceMeters>
          </Trackpoint>
          <Trackpoint>
            <Time>2022-07-09T15:32:55.000Z</Time>
            <Position>
              <LatitudeDegrees>42.79172734357416629791259765625</LatitudeDegrees>
              <LongitudeDegrees>-0.139710567891597747802734375</LongitudeDegrees>
            </Position>
            <AltitudeMeters>2172.199951171875</AltitudeMeters>
            <DistanceMeters>21309.175501171</DistanceMeters>
          </Trackpoint>
          <Trackpoint>
            <Time>2022-07-09T15:32:59.000Z</Time>
            <Position>
              <LatitudeDegrees>42.79176522977650165557861328125</LatitudeDegrees>
              <LongitudeDegrees>-0.1397337019443511962890625</LongitudeDegrees>
            </Position>
            <AltitudeMeters>2171.800048828125</AltitudeMeters>
            <DistanceMeters>21313.794816125</DistanceMeters>
          </Trackpoint>
          <Trackpoint>
            <Time>2022-07-09T15:33:00.000Z</Time>
            <Position>
              <LatitudeDegrees>42.79177092947065830230712890625</LatitudeDegrees>
              <LongitudeDegrees>-0.1397430896759033203125</LongitudeDegrees>
            </Position>
            <AltitudeMeters>2171.60009765625</AltitudeMeters>
            <DistanceMeters>21314.786924149</DistanceMeters>
          </Trackpoint>
          <Trackpoint>
            <Time>2022-07-09T15:33:03.000Z</Time>
            <Position>
              <LatitudeDegrees>42.79178082011640071868896484375</LatitudeDegrees>
              <LongitudeDegrees>-0.13978223316371440887451171875</LongitudeDegrees>
            </Position>
            <AltitudeMeters>2171.199951171875</AltitudeMeters>
            <DistanceMeters>21318.168059577</DistanceMeters>
          </Trackpoint>
          <Trackpoint>
            <Time>2022-07-09T15:33:04.000Z</Time>
            <Position>
              <LatitudeDegrees>42.7917861007153987884521484375</LatitudeDegrees>
              <LongitudeDegrees>-0.1397922076284885406494140625</LongitudeDegrees>
            </Position>
            <AltitudeMeters>2171.199951171875</AltitudeMeters>
            <DistanceMeters>21319.169228136</DistanceMeters>
          </Trackpoint>
          <Trackpoint>
            <Time>2022-07-09T15:33:06.000Z</Time>
            <Position>
              <LatitudeDegrees>42.7917951531708240509033203125</LatitudeDegrees>
              <LongitudeDegrees>-0.13980603776872158050537109375</LongitudeDegrees>
            </Position>
            <AltitudeMeters>2170.800048828125</AltitudeMeters>
            <DistanceMeters>21320.683704751</DistanceMeters>
          </Trackpoint>
          <Trackpoint>
            <Time>2022-07-09T15:33:08.000Z</Time>
            <Position>
              <LatitudeDegrees>42.79180646874010562896728515625</LatitudeDegrees>
              <LongitudeDegrees>-0.13981106691062450408935546875</LongitudeDegrees>
            </Position>
            <AltitudeMeters>2170.199951171875</AltitudeMeters>
            <DistanceMeters>21322.010680601</DistanceMeters>
          </Trackpoint>
          <Trackpoint>
            <Time>2022-07-09T15:33:09.000Z</Time>
            <Position>
              <LatitudeDegrees>42.7918135933578014373779296875</LatitudeDegrees>
              <LongitudeDegrees>-0.13981140218675136566162109375</LongitudeDegrees>
            </Position>
            <AltitudeMeters>2169.800048828125</AltitudeMeters>
            <DistanceMeters>21322.805731135</DistanceMeters>
          </Trackpoint>
          <Trackpoint>
            <Time>2022-07-09T15:33:11.000Z</Time>
            <Position>
              <LatitudeDegrees>42.79182490892708301544189453125</LatitudeDegrees>
              <LongitudeDegrees>-0.139815174043178558349609375</LongitudeDegrees>
            </Position>
            <AltitudeMeters>2169</AltitudeMeters>
            <DistanceMeters>21324.10520191</DistanceMeters>
          </Trackpoint>
          <Trackpoint>
            <Time>2022-07-09T15:33:13.000Z</Time>
            <Position>
              <LatitudeDegrees>42.791836224496364593505859375</LatitudeDegrees>
              <LongitudeDegrees>-0.1398280821740627288818359375</LongitudeDegrees>
            </Position>
            <AltitudeMeters>2168.60009765625</AltitudeMeters>
            <DistanceMeters>21325.748367409</DistanceMeters>
          </Trackpoint>
          <Trackpoint>
            <Time>2022-07-09T15:33:14.000Z</Time>
            <Position>
              <LatitudeDegrees>42.79184318147599697113037109375</LatitudeDegrees>
              <LongitudeDegrees>-0.13983285985887050628662109375</LongitudeDegrees>
            </Position>
            <AltitudeMeters>2168.60009765625</AltitudeMeters>
            <DistanceMeters>21326.619301632</DistanceMeters>
          </Trackpoint>
          <Trackpoint>
            <Time>2022-07-09T15:33:15.000Z</Time>
            <Position>
              <LatitudeDegrees>42.79185156337916851043701171875</LatitudeDegrees>
              <LongitudeDegrees>-0.139839984476566314697265625</LongitudeDegrees>
            </Position>
            <AltitudeMeters>2168.39990234375</AltitudeMeters>
            <DistanceMeters>21327.723412279</DistanceMeters>
          </Trackpoint>
          <Trackpoint>
            <Time>2022-07-09T15:33:16.000Z</Time>
            <Position>
              <LatitudeDegrees>42.7918612025678157806396484375</LatitudeDegrees>
              <LongitudeDegrees>-0.139847695827484130859375</LongitudeDegrees>
            </Position>
            <AltitudeMeters>2168.199951171875</AltitudeMeters>
            <DistanceMeters>21328.969675954</DistanceMeters>
          </Trackpoint>
          <Trackpoint>
            <Time>2022-07-09T15:33:21.000Z</Time>
            <Position>
              <LatitudeDegrees>42.791906632483005523681640625</LatitudeDegrees>
              <LongitudeDegrees>-0.1398709975183010101318359375</LongitudeDegrees>
            </Position>
            <AltitudeMeters>2168.199951171875</AltitudeMeters>
            <DistanceMeters>21334.37284513</DistanceMeters>
          </Trackpoint>
          <Trackpoint>
            <Time>2022-07-09T15:33:22.000Z</Time>
            <Position>
              <LatitudeDegrees>42.791911996901035308837890625</LatitudeDegrees>
              <LongitudeDegrees>-0.13987661339342594146728515625</LongitudeDegrees>
            </Position>
            <AltitudeMeters>2168</AltitudeMeters>
            <DistanceMeters>21335.133058845</DistanceMeters>
          </Trackpoint>
          <Trackpoint>
            <Time>2022-07-09T15:33:23.000Z</Time>
            <Position>
              <LatitudeDegrees>42.7919171936810016632080078125</LatitudeDegrees>
              <LongitudeDegrees>-0.13988432474434375762939453125</LongitudeDegrees>
            </Position>
            <AltitudeMeters>2168</AltitudeMeters>
            <DistanceMeters>21335.983003617</DistanceMeters>
          </Trackpoint>
          <Trackpoint>
            <Time>2022-07-09T15:33:24.000Z</Time>
            <Position>
              <LatitudeDegrees>42.791924066841602325439453125</LatitudeDegrees>
              <LongitudeDegrees>-0.139892958104610443115234375</LongitudeDegrees>
            </Position>
            <AltitudeMeters>2168</AltitudeMeters>
            <DistanceMeters>21337.023969117</DistanceMeters>
          </Trackpoint>
          <Trackpoint>
            <Time>2022-07-09T15:33:26.000Z</Time>
            <Position>
              <LatitudeDegrees>42.791936807334423065185546875</LatitudeDegrees>
              <LongitudeDegrees>-0.1399011723697185516357421875</LongitudeDegrees>
            </Position>
            <AltitudeMeters>2167.199951171875</AltitudeMeters>
            <DistanceMeters>21338.596941128</DistanceMeters>
          </Trackpoint>
          <Trackpoint>
            <Time>2022-07-09T15:33:28.000Z</Time>
            <Position>
              <LatitudeDegrees>42.791950218379497528076171875</LatitudeDegrees>
              <LongitudeDegrees>-0.1399058662354946136474609375</LongitudeDegrees>
            </Position>
            <AltitudeMeters>2167.199951171875</AltitudeMeters>
            <DistanceMeters>21340.135082873</DistanceMeters>
          </Trackpoint>
          <Trackpoint>
            <Time>2022-07-09T15:33:31.000Z</Time>
            <Position>
              <LatitudeDegrees>42.791959606111049652099609375</LatitudeDegrees>
              <LongitudeDegrees>-0.13992086984217166900634765625</LongitudeDegrees>
            </Position>
            <AltitudeMeters>2167</AltitudeMeters>
            <DistanceMeters>21341.744937506</DistanceMeters>
          </Trackpoint>
          <Trackpoint>
            <Time>2022-07-09T15:33:34.000Z</Time>
            <Position>
              <LatitudeDegrees>42.7919812314212322235107421875</LatitudeDegrees>
              <LongitudeDegrees>-0.13995163142681121826171875</LongitudeDegrees>
            </Position>
            <AltitudeMeters>2166.39990234375</AltitudeMeters>
            <DistanceMeters>21345.223486404</DistanceMeters>
          </Trackpoint>
          <Trackpoint>
            <Time>2022-07-09T15:33:37.000Z</Time>
            <Position>
              <LatitudeDegrees>42.792001850903034210205078125</LatitudeDegrees>
              <LongitudeDegrees>-0.139988176524639129638671875</LongitudeDegrees>
            </Position>
            <AltitudeMeters>2165.800048828125</AltitudeMeters>
            <DistanceMeters>21348.988751337</DistanceMeters>
          </Trackpoint>
          <Trackpoint>
            <Time>2022-07-09T15:33:41.000Z</Time>
            <Position>
              <LatitudeDegrees>42.79201467521488666534423828125</LatitudeDegrees>
              <LongitudeDegrees>-0.140001587569713592529296875</LongitudeDegrees>
            </Position>
            <AltitudeMeters>2164.800048828125</AltitudeMeters>
            <DistanceMeters>21350.78674115</DistanceMeters>
          </Trackpoint>
          <Trackpoint>
            <Time>2022-07-09T15:33:46.000Z</Time>
            <Position>
              <LatitudeDegrees>42.792026661336421966552734375</LatitudeDegrees>
              <LongitudeDegrees>-0.140012316405773162841796875</LongitudeDegrees>
            </Position>
            <AltitudeMeters>2164.199951171875</AltitudeMeters>
            <DistanceMeters>21352.382511045</DistanceMeters>
          </Trackpoint>
          <Trackpoint>
            <Time>2022-07-09T15:33:48.000Z</Time>
            <Position>
              <LatitudeDegrees>42.792050801217555999755859375</LatitudeDegrees>
              <LongitudeDegrees>-0.1400180160999298095703125</LongitudeDegrees>
            </Position>
            <AltitudeMeters>2163.60009765625</AltitudeMeters>
            <DistanceMeters>21355.110290909</DistanceMeters>
          </Trackpoint>
          <Trackpoint>
            <Time>2022-07-09T15:33:53.000Z</Time>
            <Position>
              <LatitudeDegrees>42.79209547676146030426025390625</LatitudeDegrees>
              <LongitudeDegrees>-0.14005213044583797454833984375</LongitudeDegrees>
            </Position>
            <AltitudeMeters>2162.60009765625</AltitudeMeters>
            <DistanceMeters>21360.810309773</DistanceMeters>
          </Trackpoint>
          <Trackpoint>
            <Time>2022-07-09T15:33:54.000Z</Time>
            <Position>
              <LatitudeDegrees>42.79209849424660205841064453125</LatitudeDegrees>
              <LongitudeDegrees>-0.1400597579777240753173828125</LongitudeDegrees>
            </Position>
            <AltitudeMeters>2162.60009765625</AltitudeMeters>
            <DistanceMeters>21361.515046748</DistanceMeters>
          </Trackpoint>
          <Trackpoint>
            <Time>2022-07-09T15:33:58.000Z</Time>
            <Position>
              <LatitudeDegrees>42.79212984256446361541748046875</LatitudeDegrees>
              <LongitudeDegrees>-0.1400651223957538604736328125</LongitudeDegrees>
            </Position>
            <AltitudeMeters>2161.800048828125</AltitudeMeters>
            <DistanceMeters>21365.029750801</DistanceMeters>
          </Trackpoint>
          <Trackpoint>
            <Time>2022-07-09T15:34:00.000Z</Time>
            <Position>
              <LatitudeDegrees>42.792134620249271392822265625</LatitudeDegrees>
              <LongitudeDegrees>-0.1401144079864025115966796875</LongitudeDegrees>
            </Position>
            <AltitudeMeters>2161.60009765625</AltitudeMeters>
            <DistanceMeters>21369.090405869</DistanceMeters>
          </Trackpoint>
          <Trackpoint>
            <Time>2022-07-09T15:34:01.000Z</Time>
            <Position>
              <LatitudeDegrees>42.792137973010540008544921875</LatitudeDegrees>
              <LongitudeDegrees>-0.140125639736652374267578125</LongitudeDegrees>
            </Position>
            <AltitudeMeters>2161.60009765625</AltitudeMeters>
            <DistanceMeters>21370.077952453</DistanceMeters>
          </Trackpoint>
          <Trackpoint>
            <Time>2022-07-09T15:34:02.000Z</Time>
            <Position>
              <LatitudeDegrees>42.7921378053724765777587890625</LatitudeDegrees>
              <LongitudeDegrees>-0.14013268053531646728515625</LongitudeDegrees>
            </Position>
            <AltitudeMeters>2161.60009765625</AltitudeMeters>
            <DistanceMeters>21370.655977391</DistanceMeters>
          </Trackpoint>
          <Trackpoint>
            <Time>2022-07-09T15:34:05.000Z</Time>
            <Position>
              <LatitudeDegrees>42.79215238988399505615234375</LatitudeDegrees>
              <LongitudeDegrees>-0.140204764902591705322265625</LongitudeDegrees>
            </Position>
            <AltitudeMeters>2161.800048828125</AltitudeMeters>
            <DistanceMeters>21376.762876417</DistanceMeters>
          </Trackpoint>
          <Trackpoint>
            <Time>2022-07-09T15:34:07.000Z</Time>
            <Position>
              <LatitudeDegrees>42.79217577539384365081787109375</LatitudeDegrees>
              <LongitudeDegrees>-0.14021256007254123687744140625</LongitudeDegrees>
            </Position>
            <AltitudeMeters>2162.60009765625</AltitudeMeters>
            <DistanceMeters>21379.442225363</DistanceMeters>
          </Trackpoint>
          <Trackpoint>
            <Time>2022-07-09T15:34:09.000Z</Time>
            <Position>
              <LatitudeDegrees>42.79219270683825016021728515625</LatitudeDegrees>
              <LongitudeDegrees>-0.14021851122379302978515625</LongitudeDegrees>
            </Position>
            <AltitudeMeters>2163</AltitudeMeters>
            <DistanceMeters>21381.38969349</DistanceMeters>
          </Trackpoint>
          <Trackpoint>
            <Time>2022-07-09T15:34:11.000Z</Time>
            <Position>
              <LatitudeDegrees>42.79220947064459323883056640625</LatitudeDegrees>
              <LongitudeDegrees>-0.14021624810993671417236328125</LongitudeDegrees>
            </Position>
            <AltitudeMeters>2162.800048828125</AltitudeMeters>
            <DistanceMeters>21383.266320734</DistanceMeters>
          </Trackpoint>
          <Trackpoint>
            <Time>2022-07-09T15:34:13.000Z</Time>
            <Position>
              <LatitudeDegrees>42.7922348678112030029296875</LatitudeDegrees>
              <LongitudeDegrees>-0.14022789895534515380859375</LongitudeDegrees>
            </Position>
            <AltitudeMeters>2162.60009765625</AltitudeMeters>
            <DistanceMeters>21386.247192288</DistanceMeters>
          </Trackpoint>
          <Trackpoint>
            <Time>2022-07-09T15:34:15.000Z</Time>
            <Position>
              <LatitudeDegrees>42.79224920086562633514404296875</LatitudeDegrees>
              <LongitudeDegrees>-0.140239633619785308837890625</LongitudeDegrees>
            </Position>
            <AltitudeMeters>2162.60009765625</AltitudeMeters>
            <DistanceMeters>21388.109327985</DistanceMeters>
          </Trackpoint>
          <Trackpoint>
            <Time>2022-07-09T15:34:16.000Z</Time>
            <Position>
              <LatitudeDegrees>42.79225607402622699737548828125</LatitudeDegrees>
              <LongitudeDegrees>-0.140247680246829986572265625</LongitudeDegrees>
            </Position>
            <AltitudeMeters>2162.60009765625</AltitudeMeters>
            <DistanceMeters>21389.114996201</DistanceMeters>
          </Trackpoint>
          <Trackpoint>
            <Time>2022-07-09T15:34:18.000Z</Time>
            <Position>
              <LatitudeDegrees>42.7922737598419189453125</LatitudeDegrees>
              <LongitudeDegrees>-0.14025614596903324127197265625</LongitudeDegrees>
            </Position>
            <AltitudeMeters>2162.800048828125</AltitudeMeters>
            <DistanceMeters>21391.20126005</DistanceMeters>
          </Trackpoint>
          <Trackpoint>
            <Time>2022-07-09T15:34:21.000Z</Time>
            <Position>
              <LatitudeDegrees>42.79229898937046527862548828125</LatitudeDegrees>
              <LongitudeDegrees>-0.1402599178254604339599609375</LongitudeDegrees>
            </Position>
            <AltitudeMeters>2162.800048828125</AltitudeMeters>
            <DistanceMeters>21394.026607387</DistanceMeters>
          </Trackpoint>
          <Trackpoint>
            <Time>2022-07-09T15:34:22.000Z</Time>
            <Position>
              <LatitudeDegrees>42.79231055639684200286865234375</LatitudeDegrees>
              <LongitudeDegrees>-0.14026218093931674957275390625</LongitudeDegrees>
            </Position>
            <AltitudeMeters>2162.800048828125</AltitudeMeters>
            <DistanceMeters>21395.326078162</DistanceMeters>
          </Trackpoint>
          <Trackpoint>
            <Time>2022-07-09T15:34:26.000Z</Time>
            <Position>
              <LatitudeDegrees>42.79234995134174823760986328125</LatitudeDegrees>
              <LongitudeDegrees>-0.14028229750692844390869140625</LongitudeDegrees>
            </Position>
            <AltitudeMeters>2162.60009765625</AltitudeMeters>
            <DistanceMeters>21400.008494804</DistanceMeters>
          </Trackpoint>
          <Trackpoint>
            <Time>2022-07-09T15:34:27.000Z</Time>
            <Position>
              <LatitudeDegrees>42.79235112480819225311279296875</LatitudeDegrees>
              <LongitudeDegrees>-0.14028430916368961334228515625</LongitudeDegrees>
            </Position>
            <AltitudeMeters>2162.39990234375</AltitudeMeters>
            <DistanceMeters>21400.241261766</DistanceMeters>
          </Trackpoint>
          <Trackpoint>
            <Time>2022-07-09T15:34:28.000Z</Time>
            <Position>
              <LatitudeDegrees>42.79235078953206539154052734375</LatitudeDegrees>
              <LongitudeDegrees>-0.1402864046394824981689453125</LongitudeDegrees>
            </Position>
            <AltitudeMeters>2162.39990234375</AltitudeMeters>
            <DistanceMeters>21400.431315195</DistanceMeters>
          </Trackpoint>
          <Trackpoint>
            <Time>2022-07-09T15:34:29.000Z</Time>
            <Position>
              <LatitudeDegrees>42.7923500351607799530029296875</LatitudeDegrees>
              <LongitudeDegrees>-0.1402823813259601593017578125</LongitudeDegrees>
            </Position>
            <AltitudeMeters>2162.39990234375</AltitudeMeters>
            <DistanceMeters>21400.773938886</DistanceMeters>
          </Trackpoint>
          <Trackpoint>
            <Time>2022-07-09T15:34:31.000Z</Time>
            <Position>
              <LatitudeDegrees>42.7923537231981754302978515625</LatitudeDegrees>
              <LongitudeDegrees>-0.140286572277545928955078125</LongitudeDegrees>
            </Position>
            <AltitudeMeters>2162.39990234375</AltitudeMeters>
            <DistanceMeters>21401.311491159</DistanceMeters>
          </Trackpoint>
          <Trackpoint>
            <Time>2022-07-09T15:34:33.000Z</Time>
            <Position>
              <LatitudeDegrees>42.79236353002488613128662109375</LatitudeDegrees>
              <LongitudeDegrees>-0.1403004862368106842041015625</LongitudeDegrees>
            </Position>
            <AltitudeMeters>2162.60009765625</AltitudeMeters>
            <DistanceMeters>21402.884463169</DistanceMeters>
          </Trackpoint>
          <Trackpoint>
            <Time>2022-07-09T15:34:39.000Z</Time>
            <Position>
              <LatitudeDegrees>42.79240661300718784332275390625</LatitudeDegrees>
              <LongitudeDegrees>-0.14036125503480434417724609375</LongitudeDegrees>
            </Position>
            <AltitudeMeters>2162.39990234375</AltitudeMeters>
            <DistanceMeters>21409.785522738</DistanceMeters>
          </Trackpoint>
          <Trackpoint>
            <Time>2022-07-09T15:34:42.000Z</Time>
            <Position>
              <LatitudeDegrees>42.7924170903861522674560546875</LatitudeDegrees>
              <LongitudeDegrees>-0.140389837324619293212890625</LongitudeDegrees>
            </Position>
            <AltitudeMeters>2161.199951171875</AltitudeMeters>
            <DistanceMeters>21412.396596792</DistanceMeters>
          </Trackpoint>
          <Trackpoint>
            <Time>2022-07-09T15:34:45.000Z</Time>
            <Position>
              <LatitudeDegrees>42.79242170043289661407470703125</LatitudeDegrees>
              <LongitudeDegrees>-0.1404050923883914947509765625</LongitudeDegrees>
            </Position>
            <AltitudeMeters>2160.199951171875</AltitudeMeters>
            <DistanceMeters>21413.743832987</DistanceMeters>
          </Trackpoint>
          <Trackpoint>
            <Time>2022-07-09T15:34:51.000Z</Time>
            <Position>
              <LatitudeDegrees>42.7924646995961666107177734375</LatitudeDegrees>
              <LongitudeDegrees>-0.14043903909623622894287109375</LongitudeDegrees>
            </Position>
            <AltitudeMeters>2159.39990234375</AltitudeMeters>
            <DistanceMeters>21419.275008178</DistanceMeters>
          </Trackpoint>
          <Trackpoint>
            <Time>2022-07-09T15:34:52.000Z</Time>
            <Position>
              <LatitudeDegrees>42.79247484169900417327880859375</LatitudeDegrees>
              <LongitudeDegrees>-0.140440128743648529052734375</LongitudeDegrees>
            </Position>
            <AltitudeMeters>2159</AltitudeMeters>
            <DistanceMeters>21420.407382168</DistanceMeters>
          </Trackpoint>
          <Trackpoint>
            <Time>2022-07-09T15:34:57.000Z</Time>
            <Position>
              <LatitudeDegrees>42.79251608066260814666748046875</LatitudeDegrees>
              <LongitudeDegrees>-0.14048698358237743377685546875</LongitudeDegrees>
            </Position>
            <AltitudeMeters>2158</AltitudeMeters>
            <DistanceMeters>21426.384252789</DistanceMeters>
          </Trackpoint>
          <Trackpoint>
            <Time>2022-07-09T15:34:59.000Z</Time>
            <Position>
              <LatitudeDegrees>42.79253686778247356414794921875</LatitudeDegrees>
              <LongitudeDegrees>-0.1405009813606739044189453125</LongitudeDegrees>
            </Position>
            <AltitudeMeters>2157.39990234375</AltitudeMeters>
            <DistanceMeters>21428.96576328</DistanceMeters>
          </Trackpoint>
          <Trackpoint>
            <Time>2022-07-09T15:35:01.000Z</Time>
            <Position>
              <LatitudeDegrees>42.79255547560751438140869140625</LatitudeDegrees>
              <LongitudeDegrees>-0.1405157335102558135986328125</LongitudeDegrees>
            </Position>
            <AltitudeMeters>2156.800048828125</AltitudeMeters>
            <DistanceMeters>21431.362245831</DistanceMeters>
          </Trackpoint>
          <Trackpoint>
            <Time>2022-07-09T15:35:04.000Z</Time>
            <Position>
              <LatitudeDegrees>42.792584560811519622802734375</LatitudeDegrees>
              <LongitudeDegrees>-0.14054247178137302398681640625</LongitudeDegrees>
            </Position>
            <AltitudeMeters>2156.199951171875</AltitudeMeters>
            <DistanceMeters>21435.266444729</DistanceMeters>
          </Trackpoint>
          <Trackpoint>
            <Time>2022-07-09T15:35:07.000Z</Time>
            <Position>
              <LatitudeDegrees>42.79261364601552486419677734375</LatitudeDegrees>
              <LongitudeDegrees>-0.14056275598704814910888671875</LongitudeDegrees>
            </Position>
            <AltitudeMeters>2156</AltitudeMeters>
            <DistanceMeters>21438.902380911</DistanceMeters>
          </Trackpoint>
          <Trackpoint>
            <Time>2022-07-09T15:35:13.000Z</Time>
            <Position>
              <LatitudeDegrees>42.79265186749398708343505859375</LatitudeDegrees>
              <LongitudeDegrees>-0.140619166195392608642578125</LongitudeDegrees>
            </Position>
            <AltitudeMeters>2157.39990234375</AltitudeMeters>
            <DistanceMeters>21445.172704095</DistanceMeters>
          </Trackpoint>
          <Trackpoint>
            <Time>2022-07-09T15:35:14.000Z</Time>
            <Position>
              <LatitudeDegrees>42.7926544658839702606201171875</LatitudeDegrees>
              <LongitudeDegrees>-0.14063048176467418670654296875</LongitudeDegrees>
            </Position>
            <AltitudeMeters>2157.60009765625</AltitudeMeters>
            <DistanceMeters>21446.137119915</DistanceMeters>
          </Trackpoint>
          <Trackpoint>
            <Time>2022-07-09T15:35:20.000Z</Time>
            <Position>
              <LatitudeDegrees>42.79270282946527004241943359375</LatitudeDegrees>
              <LongitudeDegrees>-0.14071664772927761077880859375</LongitudeDegrees>
            </Position>
            <AltitudeMeters>2157.800048828125</AltitudeMeters>
            <DistanceMeters>21454.997564859</DistanceMeters>
          </Trackpoint>
          <Trackpoint>
            <Time>2022-07-09T15:35:21.000Z</Time>
            <Position>
              <LatitudeDegrees>42.79270215891301631927490234375</LatitudeDegrees>
              <LongitudeDegrees>-0.14073215425014495849609375</LongitudeDegrees>
            </Position>
            <AltitudeMeters>2157.800048828125</AltitudeMeters>
            <DistanceMeters>21456.268935648</DistanceMeters>
          </Trackpoint>
          <Trackpoint>
            <Time>2022-07-09T15:35:23.000Z</Time>
            <Position>
              <LatitudeDegrees>42.79269687831401824951171875</LatitudeDegrees>
              <LongitudeDegrees>-0.1407648436725139617919921875</LongitudeDegrees>
            </Position>
            <AltitudeMeters>2157.800048828125</AltitudeMeters>
            <DistanceMeters>21459.003328322</DistanceMeters>
          </Trackpoint>
          <Trackpoint>
            <Time>2022-07-09T15:35:28.000Z</Time>
            <Position>
              <LatitudeDegrees>42.7926926873624324798583984375</LatitudeDegrees>
              <LongitudeDegrees>-0.14083332382142543792724609375</LongitudeDegrees>
            </Position>
            <AltitudeMeters>2156.60009765625</AltitudeMeters>
            <DistanceMeters>21464.614734256</DistanceMeters>
          </Trackpoint>
          <Trackpoint>
            <Time>2022-07-09T15:35:29.000Z</Time>
            <Position>
              <LatitudeDegrees>42.7926921844482421875</LatitudeDegrees>
              <LongitudeDegrees>-0.14084556140005588531494140625</LongitudeDegrees>
            </Position>
            <AltitudeMeters>2156</AltitudeMeters>
            <DistanceMeters>21465.611382845</DistanceMeters>
          </Trackpoint>
          <Trackpoint>
            <Time>2022-07-09T15:35:30.000Z</Time>
            <Position>
              <LatitudeDegrees>42.7926933579146862030029296875</LatitudeDegrees>
              <LongitudeDegrees>-0.14086090028285980224609375</LongitudeDegrees>
            </Position>
            <AltitudeMeters>2155.60009765625</AltitudeMeters>
            <DistanceMeters>21466.872054671</DistanceMeters>
          </Trackpoint>
          <Trackpoint>
            <Time>2022-07-09T15:35:32.000Z</Time>
            <Position>
              <LatitudeDegrees>42.79270618222653865814208984375</LatitudeDegrees>
              <LongitudeDegrees>-0.14089903794229030609130859375</LongitudeDegrees>
            </Position>
            <AltitudeMeters>2155.39990234375</AltitudeMeters>
            <DistanceMeters>21470.298291583</DistanceMeters>
          </Trackpoint>
          <Trackpoint>
            <Time>2022-07-09T15:35:34.000Z</Time>
            <Position>
              <LatitudeDegrees>42.79272026382386684417724609375</LatitudeDegrees>
              <LongitudeDegrees>-0.14092820696532726287841796875</LongitudeDegrees>
            </Position>
            <AltitudeMeters>2155</AltitudeMeters>
            <DistanceMeters>21473.149093014</DistanceMeters>
          </Trackpoint>
          <Trackpoint>
            <Time>2022-07-09T15:35:36.000Z</Time>
            <Position>
              <LatitudeDegrees>42.79273384250700473785400390625</LatitudeDegrees>
              <LongitudeDegrees>-0.14095536433160305023193359375</LongitudeDegrees>
            </Position>
            <AltitudeMeters>2154</AltitudeMeters>
            <DistanceMeters>21475.833492575</DistanceMeters>
          </Trackpoint>
          <Trackpoint>
            <Time>2022-07-09T15:35:39.000Z</Time>
            <Position>
              <LatitudeDegrees>42.79275345616042613983154296875</LatitudeDegrees>
              <LongitudeDegrees>-0.14100515283644199371337890625</LongitudeDegrees>
            </Position>
            <AltitudeMeters>2152.800048828125</AltitudeMeters>
            <DistanceMeters>21480.448896169</DistanceMeters>
          </Trackpoint>
          <Trackpoint>
            <Time>2022-07-09T15:35:41.000Z</Time>
            <Position>
              <LatitudeDegrees>42.79275328852236270904541015625</LatitudeDegrees>
              <LongitudeDegrees>-0.14104060828685760498046875</LongitudeDegrees>
            </Position>
            <AltitudeMeters>2152.60009765625</AltitudeMeters>
            <DistanceMeters>21483.345263034</DistanceMeters>
          </Trackpoint>
          <Trackpoint>
            <Time>2022-07-09T15:35:43.000Z</Time>
            <Position>
              <LatitudeDegrees>42.7927449904382228851318359375</LatitudeDegrees>
              <LongitudeDegrees>-0.14105862937867641448974609375</LongitudeDegrees>
            </Position>
            <AltitudeMeters>2152.39990234375</AltitudeMeters>
            <DistanceMeters>21485.081939611</DistanceMeters>
          </Trackpoint>
          <Trackpoint>
            <Time>2022-07-09T15:35:48.000Z</Time>
            <Position>
              <LatitudeDegrees>42.7927439846098423004150390625</LatitudeDegrees>
              <LongitudeDegrees>-0.141113698482513427734375</LongitudeDegrees>
            </Position>
            <AltitudeMeters>2152.199951171875</AltitudeMeters>
            <DistanceMeters>21489.580428391</DistanceMeters>
          </Trackpoint>
          <Trackpoint>
            <Time>2022-07-09T15:35:49.000Z</Time>
            <Position>
              <LatitudeDegrees>42.79274339787662029266357421875</LatitudeDegrees>
              <LongitudeDegrees>-0.14112643897533416748046875</LongitudeDegrees>
            </Position>
            <AltitudeMeters>2152</AltitudeMeters>
            <DistanceMeters>21490.621393892</DistanceMeters>
          </Trackpoint>
          <Trackpoint>
            <Time>2022-07-09T15:35:53.000Z</Time>
            <Position>
              <LatitudeDegrees>42.7927329204976558685302734375</LatitudeDegrees>
              <LongitudeDegrees>-0.14117547310888767242431640625</LongitudeDegrees>
            </Position>
            <AltitudeMeters>2152.199951171875</AltitudeMeters>
            <DistanceMeters>21494.791756853</DistanceMeters>
          </Trackpoint>
          <Trackpoint>
            <Time>2022-07-09T15:35:55.000Z</Time>
            <Position>
              <LatitudeDegrees>42.79273685999214649200439453125</LatitudeDegrees>
              <LongitudeDegrees>-0.14119072817265987396240234375</LongitudeDegrees>
            </Position>
            <AltitudeMeters>2152.199951171875</AltitudeMeters>
            <DistanceMeters>21496.108485632</DistanceMeters>
          </Trackpoint>
          <Trackpoint>
            <Time>2022-07-09T15:35:58.000Z</Time>
            <Position>
              <LatitudeDegrees>42.7927433140575885772705078125</LatitudeDegrees>
              <LongitudeDegrees>-0.14121520332992076873779296875</LongitudeDegrees>
            </Position>
            <AltitudeMeters>2152.39990234375</AltitudeMeters>
            <DistanceMeters>21498.233347562</DistanceMeters>
          </Trackpoint>
          <Trackpoint>
            <Time>2022-07-09T15:36:04.000Z</Time>
            <Position>
              <LatitudeDegrees>42.79277944006025791168212890625</LatitudeDegrees>
              <LongitudeDegrees>-0.141245462000370025634765625</LongitudeDegrees>
            </Position>
            <AltitudeMeters>2151.800048828125</AltitudeMeters>
            <DistanceMeters>21502.952263594</DistanceMeters>
          </Trackpoint>
          <Trackpoint>
            <Time>2022-07-09T15:36:05.000Z</Time>
            <Position>
              <LatitudeDegrees>42.79278832487761974334716796875</LatitudeDegrees>
              <LongitudeDegrees>-0.14125409536063671112060546875</LongitudeDegrees>
            </Position>
            <AltitudeMeters>2151.60009765625</AltitudeMeters>
            <DistanceMeters>21504.16919931</DistanceMeters>
          </Trackpoint>
          <Trackpoint>
            <Time>2022-07-09T15:36:11.000Z</Time>
            <Position>
              <LatitudeDegrees>42.7928217686712741851806640625</LatitudeDegrees>
              <LongitudeDegrees>-0.14133372344076633453369140625</LongitudeDegrees>
            </Position>
            <AltitudeMeters>2150.800048828125</AltitudeMeters>
            <DistanceMeters>21511.662463974</DistanceMeters>
          </Trackpoint>
          <Trackpoint>
            <Time>2022-07-09T15:36:14.000Z</Time>
            <Position>
              <LatitudeDegrees>42.792842052876949310302734375</LatitudeDegrees>
              <LongitudeDegrees>-0.14135836623609066009521484375</LongitudeDegrees>
            </Position>
            <AltitudeMeters>2150</AltitudeMeters>
            <DistanceMeters>21514.685448817</DistanceMeters>
          </Trackpoint>
          <Trackpoint>
            <Time>2022-07-09T15:36:16.000Z</Time>
            <Position>
              <LatitudeDegrees>42.79286828823387622833251953125</LatitudeDegrees>
              <LongitudeDegrees>-0.1413653232157230377197265625</LongitudeDegrees>
            </Position>
            <AltitudeMeters>2149.60009765625</AltitudeMeters>
            <DistanceMeters>21517.660255519</DistanceMeters>
          </Trackpoint>
          <Trackpoint>
            <Time>2022-07-09T15:36:20.000Z</Time>
            <Position>
              <LatitudeDegrees>42.7928502671420574188232421875</LatitudeDegrees>
              <LongitudeDegrees>-0.14141502790153026580810546875</LongitudeDegrees>
            </Position>
            <AltitudeMeters>2149.199951171875</AltitudeMeters>
            <DistanceMeters>21522.187757427</DistanceMeters>
          </Trackpoint>
          <Trackpoint>
            <Time>2022-07-10T05:16:55.000Z</Time>
            <Position>
              <LatitudeDegrees>42.7928308211266994476318359375</LatitudeDegrees>
              <LongitudeDegrees>-0.14143489301204681396484375</LongitudeDegrees>
            </Position>
            <AltitudeMeters>2148</AltitudeMeters>
            <DistanceMeters>21524.892265131</DistanceMeters>
          </Trackpoint>
          <Trackpoint>
            <Time>2022-07-10T05:16:59.000Z</Time>
            <Position>
              <LatitudeDegrees>42.79281162656843662261962890625</LatitudeDegrees>
              <LongitudeDegrees>-0.14144562184810638427734375</LongitudeDegrees>
            </Position>
            <AltitudeMeters>2148</AltitudeMeters>
            <DistanceMeters>21527.200456003</DistanceMeters>
          </Trackpoint>
          <Trackpoint>
            <Time>2022-07-10T05:17:03.000Z</Time>
            <Position>
              <LatitudeDegrees>42.79280425049364566802978515625</LatitudeDegrees>
              <LongitudeDegrees>-0.14144562184810638427734375</LongitudeDegrees>
            </Position>
            <AltitudeMeters>2148</AltitudeMeters>
            <DistanceMeters>21528.017906709</DistanceMeters>
          </Trackpoint>
          <Trackpoint>
            <Time>2022-07-10T05:17:07.000Z</Time>
            <Position>
              <LatitudeDegrees>42.7928006462752819061279296875</LatitudeDegrees>
              <LongitudeDegrees>-0.14148241840302944183349609375</LongitudeDegrees>
            </Position>
            <AltitudeMeters>2147.39990234375</AltitudeMeters>
            <DistanceMeters>21531.048350199</DistanceMeters>
          </Trackpoint>
          <Trackpoint>
            <Time>2022-07-10T05:17:14.000Z</Time>
            <Position>
              <LatitudeDegrees>42.7928184159100055694580078125</LatitudeDegrees>
              <LongitudeDegrees>-0.141552574932575225830078125</LongitudeDegrees>
            </Position>
            <AltitudeMeters>2146</AltitudeMeters>
            <DistanceMeters>21537.110726888</DistanceMeters>
          </Trackpoint>
          <Trackpoint>
            <Time>2022-07-10T05:17:15.000Z</Time>
            <Position>
              <LatitudeDegrees>42.79282185249030590057373046875</LatitudeDegrees>
              <LongitudeDegrees>-0.14156171120703220367431640625</LongitudeDegrees>
            </Position>
            <AltitudeMeters>2145.800048828125</AltitudeMeters>
            <DistanceMeters>21537.949980106</DistanceMeters>
          </Trackpoint>
          <Trackpoint>
            <Time>2022-07-10T05:17:19.000Z</Time>
            <Position>
              <LatitudeDegrees>42.79282989911735057830810546875</LatitudeDegrees>
              <LongitudeDegrees>-0.1415239088237285614013671875</LongitudeDegrees>
            </Position>
            <AltitudeMeters>2144.800048828125</AltitudeMeters>
            <DistanceMeters>21541.164075227</DistanceMeters>
          </Trackpoint>
          <Trackpoint>
            <Time>2022-07-10T05:17:25.000Z</Time>
            <Position>
              <LatitudeDegrees>42.79280307702720165252685546875</LatitudeDegrees>
              <LongitudeDegrees>-0.14159305952489376068115234375</LongitudeDegrees>
            </Position>
            <AltitudeMeters>2143.60009765625</AltitudeMeters>
            <DistanceMeters>21547.552104301</DistanceMeters>
          </Trackpoint>
          <Trackpoint>
            <Time>2022-07-10T05:17:27.000Z</Time>
            <Position>
              <LatitudeDegrees>42.7928034961223602294921875</LatitudeDegrees>
              <LongitudeDegrees>-0.1415949873626232147216796875</LongitudeDegrees>
            </Position>
            <AltitudeMeters>2143.60009765625</AltitudeMeters>
            <DistanceMeters>21547.68649237</DistanceMeters>
          </Trackpoint>
          <Trackpoint>
            <Time>2022-07-10T05:17:28.000Z</Time>
            <Position>
              <LatitudeDegrees>42.79280290938913822174072265625</LatitudeDegrees>
              <LongitudeDegrees>-0.14159540645778179168701171875</LongitudeDegrees>
            </Position>
            <AltitudeMeters>2143.39990234375</AltitudeMeters>
            <DistanceMeters>21547.68649237</DistanceMeters>
          </Trackpoint>
          <Trackpoint>
            <Time>2022-07-10T05:17:29.000Z</Time>
            <Position>
              <LatitudeDegrees>42.79280274175107479095458984375</LatitudeDegrees>
              <LongitudeDegrees>-0.14159582555294036865234375</LongitudeDegrees>
            </Position>
            <AltitudeMeters>2143.39990234375</AltitudeMeters>
            <DistanceMeters>21547.68649237</DistanceMeters>
          </Trackpoint>
          <Trackpoint>
            <Time>2022-07-10T05:17:30.000Z</Time>
            <Position>
              <LatitudeDegrees>42.79280240647494792938232421875</LatitudeDegrees>
              <LongitudeDegrees>-0.141596831381320953369140625</LongitudeDegrees>
            </Position>
            <AltitudeMeters>2143.39990234375</AltitudeMeters>
            <DistanceMeters>21547.68649237</DistanceMeters>
          </Trackpoint>
          <Trackpoint>
            <Time>2022-07-10T05:17:35.000Z</Time>
            <Position>
              <LatitudeDegrees>42.79271624051034450531005859375</LatitudeDegrees>
              <LongitudeDegrees>-0.1415654830634593963623046875</LongitudeDegrees>
            </Position>
            <AltitudeMeters>2142.800048828125</AltitudeMeters>
            <DistanceMeters>21557.613032258</DistanceMeters>
          </Trackpoint>
          <Trackpoint>
            <Time>2022-07-10T05:17:37.000Z</Time>
            <Position>
              <LatitudeDegrees>42.79272277839481830596923828125</LatitudeDegrees>
              <LongitudeDegrees>-0.14159373007714748382568359375</LongitudeDegrees>
            </Position>
            <AltitudeMeters>2142.60009765625</AltitudeMeters>
            <DistanceMeters>21560.032017486</DistanceMeters>
          </Trackpoint>
          <Trackpoint>
            <Time>2022-07-10T05:17:38.000Z</Time>
            <Position>
              <LatitudeDegrees>42.79272311367094516754150390625</LatitudeDegrees>
              <LongitudeDegrees>-0.14160764403641223907470703125</LongitudeDegrees>
            </Position>
            <AltitudeMeters>2142.39990234375</AltitudeMeters>
            <DistanceMeters>21561.172338059</DistanceMeters>
          </Trackpoint>
          <Trackpoint>
            <Time>2022-07-10T05:17:42.000Z</Time>
            <Position>
              <LatitudeDegrees>42.7927295677363872528076171875</LatitudeDegrees>
              <LongitudeDegrees>-0.14165709726512432098388671875</LongitudeDegrees>
            </Position>
            <AltitudeMeters>2141.39990234375</AltitudeMeters>
            <DistanceMeters>21565.275027724</DistanceMeters>
          </Trackpoint>
          <Trackpoint>
            <Time>2022-07-10T05:17:43.000Z</Time>
            <Position>
              <LatitudeDegrees>42.79273484833538532257080078125</LatitudeDegrees>
              <LongitudeDegrees>-0.1416702568531036376953125</LongitudeDegrees>
            </Position>
            <AltitudeMeters>2141.39990234375</AltitudeMeters>
            <DistanceMeters>21566.499361294</DistanceMeters>
          </Trackpoint>
          <Trackpoint>
            <Time>2022-07-10T05:17:49.000Z</Time>
            <Position>
              <LatitudeDegrees>42.79278413392603397369384765625</LatitudeDegrees>
              <LongitudeDegrees>-0.1417207159101963043212890625</LongitudeDegrees>
            </Position>
            <AltitudeMeters>2140.39990234375</AltitudeMeters>
            <DistanceMeters>21573.361053402</DistanceMeters>
          </Trackpoint>
          <Trackpoint>
            <Time>2022-07-10T05:17:54.000Z</Time>
            <Position>
              <LatitudeDegrees>42.79285487718880176544189453125</LatitudeDegrees>
              <LongitudeDegrees>-0.14171258546411991119384765625</LongitudeDegrees>
            </Position>
            <AltitudeMeters>2140.199951171875</AltitudeMeters>
            <DistanceMeters>21581.26314038</DistanceMeters>
          </Trackpoint>
          <Trackpoint>
            <Time>2022-07-10T05:17:55.000Z</Time>
            <Position>
              <LatitudeDegrees>42.79286451637744903564453125</LatitudeDegrees>
              <LongitudeDegrees>-0.14171677641570568084716796875</LongitudeDegrees>
            </Position>
            <AltitudeMeters>2140.39990234375</AltitudeMeters>
            <DistanceMeters>21582.391520094</DistanceMeters>
          </Trackpoint>
          <Trackpoint>
            <Time>2022-07-10T05:18:01.000Z</Time>
            <Position>
              <LatitudeDegrees>42.7929215133190155029296875</LatitudeDegrees>
              <LongitudeDegrees>-0.1417512260377407073974609375</LongitudeDegrees>
            </Position>
            <AltitudeMeters>2140.39990234375</AltitudeMeters>
            <DistanceMeters>21589.331723819</DistanceMeters>
          </Trackpoint>
          <Trackpoint>
            <Time>2022-07-10T05:18:02.000Z</Time>
            <Position>
              <LatitudeDegrees>42.79293249361217021942138671875</LatitudeDegrees>
              <LongitudeDegrees>-0.14176212251186370849609375</LongitudeDegrees>
            </Position>
            <AltitudeMeters>2140.199951171875</AltitudeMeters>
            <DistanceMeters>21590.846200434</DistanceMeters>
          </Trackpoint>
          <Trackpoint>
            <Time>2022-07-10T05:18:07.000Z</Time>
            <Position>
              <LatitudeDegrees>42.79296870343387126922607421875</LatitudeDegrees>
              <LongitudeDegrees>-0.1417909562587738037109375</LongitudeDegrees>
            </Position>
            <AltitudeMeters>2140</AltitudeMeters>
            <DistanceMeters>21595.515098006</DistanceMeters>
          </Trackpoint>
          <Trackpoint>
            <Time>2022-07-10T05:18:10.000Z</Time>
            <Position>
              <LatitudeDegrees>42.79299502260982990264892578125</LatitudeDegrees>
              <LongitudeDegrees>-0.14181266538798809051513671875</LongitudeDegrees>
            </Position>
            <AltitudeMeters>2140.39990234375</AltitudeMeters>
            <DistanceMeters>21598.938698336</DistanceMeters>
          </Trackpoint>
          <Trackpoint>
            <Time>2022-07-10T05:18:15.000Z</Time>
            <Position>
              <LatitudeDegrees>42.79304690659046173095703125</LatitudeDegrees>
              <LongitudeDegrees>-0.14187117107212543487548828125</LongitudeDegrees>
            </Position>
            <AltitudeMeters>2140.60009765625</AltitudeMeters>
            <DistanceMeters>21606.434372798</DistanceMeters>
          </Trackpoint>
          <Trackpoint>
            <Time>2022-07-10T05:18:16.000Z</Time>
            <Position>
              <LatitudeDegrees>42.793059311807155609130859375</LatitudeDegrees>
              <LongitudeDegrees>-0.1418819837272167205810546875</LongitudeDegrees>
            </Position>
            <AltitudeMeters>2140.60009765625</AltitudeMeters>
            <DistanceMeters>21608.072033539</DistanceMeters>
          </Trackpoint>
          <Trackpoint>
            <Time>2022-07-10T05:18:18.000Z</Time>
            <Position>
              <LatitudeDegrees>42.79307909309864044189453125</LatitudeDegrees>
              <LongitudeDegrees>-0.1419036090373992919921875</LongitudeDegrees>
            </Position>
            <AltitudeMeters>2140.39990234375</AltitudeMeters>
            <DistanceMeters>21610.895782377</DistanceMeters>
          </Trackpoint>
          <Trackpoint>
            <Time>2022-07-10T05:18:23.000Z</Time>
            <Position>
              <LatitudeDegrees>42.793093509972095489501953125</LatitudeDegrees>
              <LongitudeDegrees>-0.14192934148013591766357421875</LongitudeDegrees>
            </Position>
            <AltitudeMeters>2140.199951171875</AltitudeMeters>
            <DistanceMeters>21613.539506865</DistanceMeters>
          </Trackpoint>
          <Trackpoint>
            <Time>2022-07-10T05:18:27.000Z</Time>
            <Position>
              <LatitudeDegrees>42.79311756603419780731201171875</LatitudeDegrees>
              <LongitudeDegrees>-0.14196253381669521331787109375</LongitudeDegrees>
            </Position>
            <AltitudeMeters>2140.60009765625</AltitudeMeters>
            <DistanceMeters>21617.350066263</DistanceMeters>
          </Trackpoint>
          <Trackpoint>
            <Time>2022-07-10T05:18:29.000Z</Time>
            <Position>
              <LatitudeDegrees>42.7931158058345317840576171875</LatitudeDegrees>
              <LongitudeDegrees>-0.14197401702404022216796875</LongitudeDegrees>
            </Position>
            <AltitudeMeters>2140.800048828125</AltitudeMeters>
            <DistanceMeters>21618.300333406</DistanceMeters>
          </Trackpoint>
          <Trackpoint>
            <Time>2022-07-10T05:18:30.000Z</Time>
            <Position>
              <LatitudeDegrees>42.79311530292034149169921875</LatitudeDegrees>
              <LongitudeDegrees>-0.1419761963188648223876953125</LongitudeDegrees>
            </Position>
            <AltitudeMeters>2140.800048828125</AltitudeMeters>
            <DistanceMeters>21618.490386835</DistanceMeters>
          </Trackpoint>
          <Trackpoint>
            <Time>2022-07-10T05:18:32.000Z</Time>
            <Position>
              <LatitudeDegrees>42.793114297091960906982421875</LatitudeDegrees>
              <LongitudeDegrees>-0.14197661541402339935302734375</LongitudeDegrees>
            </Position>
            <AltitudeMeters>2141</AltitudeMeters>
            <DistanceMeters>21618.58541355</DistanceMeters>
          </Trackpoint>
          <Trackpoint>
            <Time>2022-07-10T05:18:35.000Z</Time>
            <Position>
              <LatitudeDegrees>42.79313030652701854705810546875</LatitudeDegrees>
              <LongitudeDegrees>-0.1419989950954914093017578125</LongitudeDegrees>
            </Position>
            <AltitudeMeters>2141</AltitudeMeters>
            <DistanceMeters>21621.137017969</DistanceMeters>
          </Trackpoint>
          <Trackpoint>
            <Time>2022-07-10T05:18:37.000Z</Time>
            <Position>
              <LatitudeDegrees>42.79317523352801799774169921875</LatitudeDegrees>
              <LongitudeDegrees>-0.1420157589018344879150390625</LongitudeDegrees>
            </Position>
            <AltitudeMeters>2141</AltitudeMeters>
            <DistanceMeters>21626.320984356</DistanceMeters>
          </Trackpoint>
          <Trackpoint>
            <Time>2022-07-10T05:18:38.000Z</Time>
            <Position>
              <LatitudeDegrees>42.79318277724087238311767578125</LatitudeDegrees>
              <LongitudeDegrees>-0.14202187769114971160888671875</LongitudeDegrees>
            </Position>
            <AltitudeMeters>2141</AltitudeMeters>
            <DistanceMeters>21627.290070498</DistanceMeters>
          </Trackpoint>
          <Trackpoint>
            <Time>2022-07-10T05:18:40.000Z</Time>
            <Position>
              <LatitudeDegrees>42.79315561987459659576416015625</LatitudeDegrees>
              <LongitudeDegrees>-0.1419772021472454071044921875</LongitudeDegrees>
            </Position>
            <AltitudeMeters>2141.199951171875</AltitudeMeters>
            <DistanceMeters>21632.028083799</DistanceMeters>
          </Trackpoint>
          <Trackpoint>
            <Time>2022-07-10T05:18:42.000Z</Time>
            <Position>
              <LatitudeDegrees>42.7931691147387027740478515625</LatitudeDegrees>
              <LongitudeDegrees>-0.14199078083038330078125</LongitudeDegrees>
            </Position>
            <AltitudeMeters>2141.39990234375</AltitudeMeters>
            <DistanceMeters>21633.89506251</DistanceMeters>
          </Trackpoint>
          <Trackpoint>
            <Time>2022-07-10T05:18:45.000Z</Time>
            <Position>
              <LatitudeDegrees>42.79317640699446201324462890625</LatitudeDegrees>
              <LongitudeDegrees>-0.1420030184090137481689453125</LongitudeDegrees>
            </Position>
            <AltitudeMeters>2141.39990234375</AltitudeMeters>
            <DistanceMeters>21635.177042975</DistanceMeters>
          </Trackpoint>
          <Trackpoint>
            <Time>2022-07-10T05:18:48.000Z</Time>
            <Position>
              <LatitudeDegrees>42.79308713972568511962890625</LatitudeDegrees>
              <LongitudeDegrees>-0.14204920269548892974853515625</LongitudeDegrees>
            </Position>
            <AltitudeMeters>2141.60009765625</AltitudeMeters>
            <DistanceMeters>21645.804751861</DistanceMeters>
          </Trackpoint>
          <Trackpoint>
            <Time>2022-07-10T05:18:49.000Z</Time>
            <Position>
              <LatitudeDegrees>42.79303081333637237548828125</LatitudeDegrees>
              <LongitudeDegrees>-0.1422953791916370391845703125</LongitudeDegrees>
            </Position>
            <AltitudeMeters>2140.199951171875</AltitudeMeters>
            <DistanceMeters>21666.865982002</DistanceMeters>
          </Trackpoint>
          <Trackpoint>
            <Time>2022-07-10T05:18:51.000Z</Time>
            <Position>
              <LatitudeDegrees>42.792787067592144012451171875</LatitudeDegrees>
              <LongitudeDegrees>-0.1424046792089939117431640625</LongitudeDegrees>
            </Position>
            <AltitudeMeters>2140.60009765625</AltitudeMeters>
            <DistanceMeters>21695.426371272</DistanceMeters>
          </Trackpoint>
          <Trackpoint>
            <Time>2022-07-10T05:18:52.000Z</Time>
            <Position>
              <LatitudeDegrees>42.792695201933383941650390625</LatitudeDegrees>
              <LongitudeDegrees>-0.1424620114266872406005859375</LongitudeDegrees>
            </Position>
            <AltitudeMeters>2140.199951171875</AltitudeMeters>
            <DistanceMeters>21706.672492856</DistanceMeters>
          </Trackpoint>
          <Trackpoint>
            <Time>2022-07-10T05:18:53.000Z</Time>
            <Position>
              <LatitudeDegrees>42.79263879172503948211669921875</LatitudeDegrees>
              <LongitudeDegrees>-0.14249227009713649749755859375</LongitudeDegrees>
            </Position>
            <AltitudeMeters>2140.39990234375</AltitudeMeters>
            <DistanceMeters>21713.420058745</DistanceMeters>
          </Trackpoint>
          <Trackpoint>
            <Time>2022-07-10T05:18:54.000Z</Time>
            <Position>
              <LatitudeDegrees>42.79258196242153644561767578125</LatitudeDegrees>
              <LongitudeDegrees>-0.14251741580665111541748046875</LongitudeDegrees>
            </Position>
            <AltitudeMeters>2140.39990234375</AltitudeMeters>
            <DistanceMeters>21720.070571088</DistanceMeters>
          </Trackpoint>
          <Trackpoint>
            <Time>2022-07-10T05:18:55.000Z</Time>
            <Position>
              <LatitudeDegrees>42.79259034432470798492431640625</LatitudeDegrees>
              <LongitudeDegrees>-0.1425062678754329681396484375</LongitudeDegrees>
            </Position>
            <AltitudeMeters>2140.199951171875</AltitudeMeters>
            <DistanceMeters>21721.373511751</DistanceMeters>
          </Trackpoint>
          <Trackpoint>
            <Time>2022-07-10T05:18:56.000Z</Time>
            <Position>
              <LatitudeDegrees>42.79255866073071956634521484375</LatitudeDegrees>
              <LongitudeDegrees>-0.1425233669579029083251953125</LongitudeDegrees>
            </Position>
            <AltitudeMeters>2140.199951171875</AltitudeMeters>
            <DistanceMeters>21725.167446628</DistanceMeters>
          </Trackpoint>
          <Trackpoint>
            <Time>2022-07-10T05:18:58.000Z</Time>
            <Position>
              <LatitudeDegrees>42.79252010397613048553466796875</LatitudeDegrees>
              <LongitudeDegrees>-0.14252646826207637786865234375</LongitudeDegrees>
            </Position>
            <AltitudeMeters>2140.39990234375</AltitudeMeters>
            <DistanceMeters>21729.465764486</DistanceMeters>
          </Trackpoint>
          <Trackpoint>
            <Time>2022-07-10T05:19:00.000Z</Time>
            <Position>
              <LatitudeDegrees>42.7925465069711208343505859375</LatitudeDegrees>
              <LongitudeDegrees>-0.14250551350414752960205078125</LongitudeDegrees>
            </Position>
            <AltitudeMeters>2140.39990234375</AltitudeMeters>
            <DistanceMeters>21732.865543574</DistanceMeters>
          </Trackpoint>
          <Trackpoint>
            <Time>2022-07-10T05:19:02.000Z</Time>
            <Position>
              <LatitudeDegrees>42.7925706468522548675537109375</LatitudeDegrees>
              <LongitudeDegrees>-0.1424856483936309814453125</LongitudeDegrees>
            </Position>
            <AltitudeMeters>2140.39990234375</AltitudeMeters>
            <DistanceMeters>21736.002864617</DistanceMeters>
          </Trackpoint>
          <Trackpoint>
            <Time>2022-07-10T05:19:08.000Z</Time>
            <Position>
              <LatitudeDegrees>42.79266469180583953857421875</LatitudeDegrees>
              <LongitudeDegrees>-0.14240040443837642669677734375</LongitudeDegrees>
            </Position>
            <AltitudeMeters>2140.60009765625</AltitudeMeters>
            <DistanceMeters>21748.573717323</DistanceMeters>
          </Trackpoint>
          <Trackpoint>
            <Time>2022-07-10T05:19:14.000Z</Time>
            <Position>
              <LatitudeDegrees>42.79324161820113658905029296875</LatitudeDegrees>
              <LongitudeDegrees>-0.14197560958564281463623046875</LongitudeDegrees>
            </Position>
            <AltitudeMeters>2140.39990234375</AltitudeMeters>
            <DistanceMeters>21821.560482194</DistanceMeters>
          </Trackpoint>
          <Trackpoint>
            <Time>2022-07-10T05:19:15.000Z</Time>
            <Position>
              <LatitudeDegrees>42.793241702020168304443359375</LatitudeDegrees>
              <LongitudeDegrees>-0.14198617078363895416259765625</LongitudeDegrees>
            </Position>
            <AltitudeMeters>2140.199951171875</AltitudeMeters>
            <DistanceMeters>21822.426216763</DistanceMeters>
          </Trackpoint>
          <Trackpoint>
            <Time>2022-07-10T05:19:21.000Z</Time>
            <Position>
              <LatitudeDegrees>42.7932086773216724395751953125</LatitudeDegrees>
              <LongitudeDegrees>-0.1420497894287109375</LongitudeDegrees>
            </Position>
            <AltitudeMeters>2140.60009765625</AltitudeMeters>
            <DistanceMeters>21828.790878807</DistanceMeters>
          </Trackpoint>
          <Trackpoint>
            <Time>2022-07-10T05:19:24.000Z</Time>
            <Position>
              <LatitudeDegrees>42.7931899018585681915283203125</LatitudeDegrees>
              <LongitudeDegrees>-0.1420603506267070770263671875</LongitudeDegrees>
            </Position>
            <AltitudeMeters>2140.60009765625</AltitudeMeters>
            <DistanceMeters>21831.05163604</DistanceMeters>
          </Trackpoint>
          <Trackpoint>
            <Time>2022-07-10T05:19:29.000Z</Time>
            <Position>
              <LatitudeDegrees>42.7928777597844600677490234375</LatitudeDegrees>
              <LongitudeDegrees>-0.14228708110749721527099609375</LongitudeDegrees>
            </Position>
            <AltitudeMeters>2140.60009765625</AltitudeMeters>
            <DistanceMeters>21870.42091824</DistanceMeters>
          </Trackpoint>
          <Trackpoint>
            <Time>2022-07-10T05:19:36.000Z</Time>
            <Position>
              <LatitudeDegrees>42.79322233982384204864501953125</LatitudeDegrees>
              <LongitudeDegrees>-0.1420764438807964324951171875</LongitudeDegrees>
            </Position>
            <AltitudeMeters>2141.39990234375</AltitudeMeters>
            <DistanceMeters>21912.455177333</DistanceMeters>
          </Trackpoint>
          <Trackpoint>
            <Time>2022-07-10T05:19:39.000Z</Time>
            <Position>
              <LatitudeDegrees>42.79326341114938259124755859375</LatitudeDegrees>
              <LongitudeDegrees>-0.14208189211785793304443359375</LongitudeDegrees>
            </Position>
            <AltitudeMeters>2140.199951171875</AltitudeMeters>
            <DistanceMeters>21917.048025967</DistanceMeters>
          </Trackpoint>
          <Trackpoint>
            <Time>2022-07-10T05:19:42.000Z</Time>
            <Position>
              <LatitudeDegrees>42.7933059073984622955322265625</LatitudeDegrees>
              <LongitudeDegrees>-0.14209077693521976470947265625</LongitudeDegrees>
            </Position>
            <AltitudeMeters>2140.199951171875</AltitudeMeters>
            <DistanceMeters>21921.832505436</DistanceMeters>
          </Trackpoint>
          <Trackpoint>
            <Time>2022-07-10T05:19:43.000Z</Time>
            <Position>
              <LatitudeDegrees>42.79331915080547332763671875</LatitudeDegrees>
              <LongitudeDegrees>-0.14209069311618804931640625</LongitudeDegrees>
            </Position>
            <AltitudeMeters>2140.39990234375</AltitudeMeters>
            <DistanceMeters>21923.304652965</DistanceMeters>
          </Trackpoint>
          <Trackpoint>
            <Time>2022-07-10T05:19:46.000Z</Time>
            <Position>
              <LatitudeDegrees>42.79337204061448574066162109375</LatitudeDegrees>
              <LongitudeDegrees>-0.14210435561835765838623046875</LongitudeDegrees>
            </Position>
            <AltitudeMeters>2140.800048828125</AltitudeMeters>
            <DistanceMeters>21929.296612906</DistanceMeters>
          </Trackpoint>
          <Trackpoint>
            <Time>2022-07-10T05:19:49.000Z</Time>
            <Position>
              <LatitudeDegrees>42.79339031316339969635009765625</LatitudeDegrees>
              <LongitudeDegrees>-0.14212631620466709136962890625</LongitudeDegrees>
            </Position>
            <AltitudeMeters>2140.800048828125</AltitudeMeters>
            <DistanceMeters>21932.007790183</DistanceMeters>
          </Trackpoint>
          <Trackpoint>
            <Time>2022-07-10T05:19:55.000Z</Time>
            <Position>
              <LatitudeDegrees>42.793414033949375152587890625</LatitudeDegrees>
              <LongitudeDegrees>-0.14220393262803554534912109375</LongitudeDegrees>
            </Position>
            <AltitudeMeters>2140.800048828125</AltitudeMeters>
            <DistanceMeters>21938.874744325</DistanceMeters>
          </Trackpoint>
          <Trackpoint>
            <Time>2022-07-10T05:19:56.000Z</Time>
            <Position>
              <LatitudeDegrees>42.793417386710643768310546875</LatitudeDegrees>
              <LongitudeDegrees>-0.1422155834734439849853515625</LongitudeDegrees>
            </Position>
            <AltitudeMeters>2141</AltitudeMeters>
            <DistanceMeters>21939.898213361</DistanceMeters>
          </Trackpoint>
          <Trackpoint>
            <Time>2022-07-10T05:20:02.000Z</Time>
            <Position>
              <LatitudeDegrees>42.7934480644762516021728515625</LatitudeDegrees>
              <LongitudeDegrees>-0.14228221960365772247314453125</LongitudeDegrees>
            </Position>
            <AltitudeMeters>2141.199951171875</AltitudeMeters>
            <DistanceMeters>21946.322187936</DistanceMeters>
          </Trackpoint>
          <Trackpoint>
            <Time>2022-07-10T05:20:05.000Z</Time>
            <Position>
              <LatitudeDegrees>42.7934631519019603729248046875</LatitudeDegrees>
              <LongitudeDegrees>-0.14231909997761249542236328125</LongitudeDegrees>
            </Position>
            <AltitudeMeters>2140.60009765625</AltitudeMeters>
            <DistanceMeters>21949.770754403</DistanceMeters>
          </Trackpoint>
          <Trackpoint>
            <Time>2022-07-10T05:20:06.000Z</Time>
            <Position>
              <LatitudeDegrees>42.793470360338687896728515625</LatitudeDegrees>
              <LongitudeDegrees>-0.1423262245953083038330078125</LongitudeDegrees>
            </Position>
            <AltitudeMeters>2140.60009765625</AltitudeMeters>
            <DistanceMeters>21950.767402992</DistanceMeters>
          </Trackpoint>
          <Trackpoint>
            <Time>2022-07-10T05:20:07.000Z</Time>
            <Position>
              <LatitudeDegrees>42.7934792451560497283935546875</LatitudeDegrees>
              <LongitudeDegrees>-0.142334438860416412353515625</LongitudeDegrees>
            </Position>
            <AltitudeMeters>2140.60009765625</AltitudeMeters>
            <DistanceMeters>21951.965644267</DistanceMeters>
          </Trackpoint>
          <Trackpoint>
            <Time>2022-07-10T05:20:12.000Z</Time>
            <Position>
              <LatitudeDegrees>42.79350564815104007720947265625</LatitudeDegrees>
              <LongitudeDegrees>-0.14238129369914531707763671875</LongitudeDegrees>
            </Position>
            <AltitudeMeters>2140.60009765625</AltitudeMeters>
            <DistanceMeters>21956.790531527</DistanceMeters>
          </Trackpoint>
          <Trackpoint>
            <Time>2022-07-10T05:20:13.000Z</Time>
            <Position>
              <LatitudeDegrees>42.79350732453167438507080078125</LatitudeDegrees>
              <LongitudeDegrees>-0.1423812098801136016845703125</LongitudeDegrees>
            </Position>
            <AltitudeMeters>2140.60009765625</AltitudeMeters>
            <DistanceMeters>21956.980584956</DistanceMeters>
          </Trackpoint>
          <Trackpoint>
            <Time>2022-07-10T05:20:19.000Z</Time>
            <Position>
              <LatitudeDegrees>42.7935174666345119476318359375</LatitudeDegrees>
              <LongitudeDegrees>-0.1422521285712718963623046875</LongitudeDegrees>
            </Position>
            <AltitudeMeters>2140.60009765625</AltitudeMeters>
            <DistanceMeters>21967.583624696</DistanceMeters>
          </Trackpoint>
          <Trackpoint>
            <Time>2022-07-10T05:20:25.000Z</Time>
            <Position>
              <LatitudeDegrees>42.79349609278142452239990234375</LatitudeDegrees>
              <LongitudeDegrees>-0.1422321796417236328125</LongitudeDegrees>
            </Position>
            <AltitudeMeters>2140.60009765625</AltitudeMeters>
            <DistanceMeters>21970.465927652</DistanceMeters>
          </Trackpoint>
          <Trackpoint>
            <Time>2022-07-10T05:20:31.000Z</Time>
            <Position>
              <LatitudeDegrees>42.79347329400479793548583984375</LatitudeDegrees>
              <LongitudeDegrees>-0.1422678865492343902587890625</LongitudeDegrees>
            </Position>
            <AltitudeMeters>2140.800048828125</AltitudeMeters>
            <DistanceMeters>21974.331775103</DistanceMeters>
          </Trackpoint>
          <Trackpoint>
            <Time>2022-07-10T05:20:35.000Z</Time>
            <Position>
              <LatitudeDegrees>42.79346273280680179595947265625</LatitudeDegrees>
              <LongitudeDegrees>-0.14235933311283588409423828125</LongitudeDegrees>
            </Position>
            <AltitudeMeters>2140.800048828125</AltitudeMeters>
            <DistanceMeters>21981.89222376</DistanceMeters>
          </Trackpoint>
          <Trackpoint>
            <Time>2022-07-10T05:20:38.000Z</Time>
            <Position>
              <LatitudeDegrees>42.7934631519019603729248046875</LatitudeDegrees>
              <LongitudeDegrees>-0.1424023322761058807373046875</LongitudeDegrees>
            </Position>
            <AltitudeMeters>2140.39990234375</AltitudeMeters>
            <DistanceMeters>21985.404357644</DistanceMeters>
          </Trackpoint>
          <Trackpoint>
            <Time>2022-07-10T05:20:44.000Z</Time>
            <Position>
              <LatitudeDegrees>42.7934453822672367095947265625</LatitudeDegrees>
              <LongitudeDegrees>-0.1423885859549045562744140625</LongitudeDegrees>
            </Position>
            <AltitudeMeters>2140.39990234375</AltitudeMeters>
            <DistanceMeters>21987.6770661</DistanceMeters>
          </Trackpoint>
          <Trackpoint>
            <Time>2022-07-10T05:20:47.000Z</Time>
            <Position>
              <LatitudeDegrees>42.79344253242015838623046875</LatitudeDegrees>
              <LongitudeDegrees>-0.14235011301934719085693359375</LongitudeDegrees>
            </Position>
            <AltitudeMeters>2140.39990234375</AltitudeMeters>
            <DistanceMeters>21990.835900453</DistanceMeters>
          </Trackpoint>
          <Trackpoint>
            <Time>2022-07-10T05:20:51.000Z</Time>
            <Position>
              <LatitudeDegrees>42.79339752160012722015380859375</LatitudeDegrees>
              <LongitudeDegrees>-0.14232580550014972686767578125</LongitudeDegrees>
            </Position>
            <AltitudeMeters>2140.39990234375</AltitudeMeters>
            <DistanceMeters>21996.224845233</DistanceMeters>
          </Trackpoint>
          <Trackpoint>
            <Time>2022-07-10T05:20:54.000Z</Time>
            <Position>
              <LatitudeDegrees>42.79336349107325077056884765625</LatitudeDegrees>
              <LongitudeDegrees>-0.14231893233954906463623046875</LongitudeDegrees>
            </Position>
            <AltitudeMeters>2140.60009765625</AltitudeMeters>
            <DistanceMeters>22000.053136506</DistanceMeters>
          </Trackpoint>
          <Trackpoint>
            <Time>2022-07-10T05:20:56.000Z</Time>
            <Position>
              <LatitudeDegrees>42.79334253631532192230224609375</LatitudeDegrees>
              <LongitudeDegrees>-0.14232547022402286529541015625</LongitudeDegrees>
            </Position>
            <AltitudeMeters>2140.60009765625</AltitudeMeters>
            <DistanceMeters>22002.445848036</DistanceMeters>
          </Trackpoint>
          <Trackpoint>
            <Time>2022-07-10T05:21:01.000Z</Time>
            <Position>
              <LatitudeDegrees>42.79330515302717685699462890625</LatitudeDegrees>
              <LongitudeDegrees>-0.1423262245953083038330078125</LongitudeDegrees>
            </Position>
            <AltitudeMeters>2141.199951171875</AltitudeMeters>
            <DistanceMeters>22006.607540795</DistanceMeters>
          </Trackpoint>
          <Trackpoint>
            <Time>2022-07-10T05:21:02.000Z</Time>
            <Position>
              <LatitudeDegrees>42.7932992018759250640869140625</LatitudeDegrees>
              <LongitudeDegrees>-0.14232446439564228057861328125</LongitudeDegrees>
            </Position>
            <AltitudeMeters>2141</AltitudeMeters>
            <DistanceMeters>22007.286167274</DistanceMeters>
          </Trackpoint>
          <Trackpoint>
            <Time>2022-07-10T05:21:08.000Z</Time>
            <Position>
              <LatitudeDegrees>42.79325838200747966766357421875</LatitudeDegrees>
              <LongitudeDegrees>-0.14234625734388828277587890625</LongitudeDegrees>
            </Position>
            <AltitudeMeters>2140.800048828125</AltitudeMeters>
            <DistanceMeters>22012.165027951</DistanceMeters>
          </Trackpoint>
          <Trackpoint>
            <Time>2022-07-10T05:21:11.000Z</Time>
            <Position>
              <LatitudeDegrees>42.79324681498110294342041015625</LatitudeDegrees>
              <LongitudeDegrees>-0.14235698617994785308837890625</LongitudeDegrees>
            </Position>
            <AltitudeMeters>2140.39990234375</AltitudeMeters>
            <DistanceMeters>22013.726476202</DistanceMeters>
          </Trackpoint>
          <Trackpoint>
            <Time>2022-07-10T05:21:13.000Z</Time>
            <Position>
              <LatitudeDegrees>42.7932411991059780120849609375</LatitudeDegrees>
              <LongitudeDegrees>-0.14235631562769412994384765625</LongitudeDegrees>
            </Position>
            <AltitudeMeters>2140.199951171875</AltitudeMeters>
            <DistanceMeters>22014.356812116</DistanceMeters>
          </Trackpoint>
          <Trackpoint>
            <Time>2022-07-10T05:21:15.000Z</Time>
            <Position>
              <LatitudeDegrees>42.79323893599212169647216796875</LatitudeDegrees>
              <LongitudeDegrees>-0.14233653433620929718017578125</LongitudeDegrees>
            </Position>
            <AltitudeMeters>2140.199951171875</AltitudeMeters>
            <DistanceMeters>22015.991713528</DistanceMeters>
          </Trackpoint>
          <Trackpoint>
            <Time>2022-07-10T05:21:21.000Z</Time>
            <Position>
              <LatitudeDegrees>42.79324807226657867431640625</LatitudeDegrees>
              <LongitudeDegrees>-0.14229563064873218536376953125</LongitudeDegrees>
            </Position>
            <AltitudeMeters>2140.199951171875</AltitudeMeters>
            <DistanceMeters>22019.48321796</DistanceMeters>
          </Trackpoint>
          <Trackpoint>
            <Time>2022-07-10T05:21:27.000Z</Time>
            <Position>
              <LatitudeDegrees>42.79324983246624469757080078125</LatitudeDegrees>
              <LongitudeDegrees>-0.14232982881367206573486328125</LongitudeDegrees>
            </Position>
            <AltitudeMeters>2140.39990234375</AltitudeMeters>
            <DistanceMeters>22022.282879788</DistanceMeters>
          </Trackpoint>
          <Trackpoint>
            <Time>2022-07-10T05:21:28.000Z</Time>
            <Position>
              <LatitudeDegrees>42.7932455576956272125244140625</LatitudeDegrees>
              <LongitudeDegrees>-0.14233318157494068145751953125</LongitudeDegrees>
            </Position>
            <AltitudeMeters>2140.60009765625</AltitudeMeters>
            <DistanceMeters>22022.836975988</DistanceMeters>
          </Trackpoint>
          <Trackpoint>
            <Time>2022-07-10T05:21:34.000Z</Time>
            <Position>
              <LatitudeDegrees>42.7932036481797695159912109375</LatitudeDegrees>
              <LongitudeDegrees>-0.14236050657927989959716796875</LongitudeDegrees>
            </Position>
            <AltitudeMeters>2140.39990234375</AltitudeMeters>
            <DistanceMeters>22028.006988201</DistanceMeters>
          </Trackpoint>
          <Trackpoint>
            <Time>2022-07-10T05:21:40.000Z</Time>
            <Position>
              <LatitudeDegrees>42.79317640699446201324462890625</LatitudeDegrees>
              <LongitudeDegrees>-0.14239847660064697265625</LongitudeDegrees>
            </Position>
            <AltitudeMeters>2141</AltitudeMeters>
            <DistanceMeters>22032.342956277</DistanceMeters>
          </Trackpoint>
          <Trackpoint>
            <Time>2022-07-10T05:21:41.000Z</Time>
            <Position>
              <LatitudeDegrees>42.79317833483219146728515625</LatitudeDegrees>
              <LongitudeDegrees>-0.14240107499063014984130859375</LongitudeDegrees>
            </Position>
            <AltitudeMeters>2141</AltitudeMeters>
            <DistanceMeters>22032.643457133</DistanceMeters>
          </Trackpoint>
          <Trackpoint>
            <Time>2022-07-10T05:21:42.000Z</Time>
            <Position>
              <LatitudeDegrees>42.79317833483219146728515625</LatitudeDegrees>
              <LongitudeDegrees>-0.14240107499063014984130859375</LongitudeDegrees>
            </Position>
            <AltitudeMeters>2141.199951171875</AltitudeMeters>
            <DistanceMeters>22032.643457133</DistanceMeters>
          </Trackpoint>
          <Trackpoint>
            <Time>2022-07-10T05:21:44.000Z</Time>
            <Position>
              <LatitudeDegrees>42.79317925684154033660888671875</LatitudeDegrees>
              <LongitudeDegrees>-0.14240744523704051971435546875</LongitudeDegrees>
            </Position>
            <AltitudeMeters>2141</AltitudeMeters>
            <DistanceMeters>22033.181009406</DistanceMeters>
          </Trackpoint>
          <Trackpoint>
            <Time>2022-07-10T05:21:50.000Z</Time>
            <Position>
              <LatitudeDegrees>42.79317724518477916717529296875</LatitudeDegrees>
              <LongitudeDegrees>-0.14241230674088001251220703125</LongitudeDegrees>
            </Position>
            <AltitudeMeters>2140.39990234375</AltitudeMeters>
            <DistanceMeters>22033.626724204</DistanceMeters>
          </Trackpoint>
          <Trackpoint>
            <Time>2022-07-10T05:21:53.000Z</Time>
            <Position>
              <LatitudeDegrees>42.79318378306925296783447265625</LatitudeDegrees>
              <LongitudeDegrees>-0.14241012744605541229248046875</LongitudeDegrees>
            </Position>
            <AltitudeMeters>2140.39990234375</AltitudeMeters>
            <DistanceMeters>22034.380975367</DistanceMeters>
          </Trackpoint>
          <Trackpoint>
            <Time>2022-07-10T05:21:58.000Z</Time>
            <Position>
              <LatitudeDegrees>42.7931949310004711151123046875</LatitudeDegrees>
              <LongitudeDegrees>-0.1424358598887920379638671875</LongitudeDegrees>
            </Position>
            <AltitudeMeters>2140.39990234375</AltitudeMeters>
            <DistanceMeters>22036.820405705</DistanceMeters>
          </Trackpoint>
          <Trackpoint>
            <Time>2022-07-10T05:22:01.000Z</Time>
            <Position>
              <LatitudeDegrees>42.79322401620447635650634765625</LatitudeDegrees>
              <LongitudeDegrees>-0.14243694953620433807373046875</LongitudeDegrees>
            </Position>
            <AltitudeMeters>2140.60009765625</AltitudeMeters>
            <DistanceMeters>22040.059687852</DistanceMeters>
          </Trackpoint>
          <Trackpoint>
            <Time>2022-07-10T05:22:05.000Z</Time>
            <Position>
              <LatitudeDegrees>42.79324798844754695892333984375</LatitudeDegrees>
              <LongitudeDegrees>-0.14246896840631961822509765625</LongitudeDegrees>
            </Position>
            <AltitudeMeters>2140.39990234375</AltitudeMeters>
            <DistanceMeters>22043.796062858</DistanceMeters>
          </Trackpoint>
          <Trackpoint>
            <Time>2022-07-10T05:22:08.000Z</Time>
            <Position>
              <LatitudeDegrees>42.79325880110263824462890625</LatitudeDegrees>
              <LongitudeDegrees>-0.14248363673686981201171875</LongitudeDegrees>
            </Position>
            <AltitudeMeters>2140.199951171875</AltitudeMeters>
            <DistanceMeters>22045.495952402</DistanceMeters>
          </Trackpoint>
          <Trackpoint>
            <Time>2022-07-10T05:22:14.000Z</Time>
            <Position>
              <LatitudeDegrees>42.79324145056307315826416015625</LatitudeDegrees>
              <LongitudeDegrees>-0.14247894287109375</LongitudeDegrees>
            </Position>
            <AltitudeMeters>2140.39990234375</AltitudeMeters>
            <DistanceMeters>22047.466468291</DistanceMeters>
          </Trackpoint>
          <Trackpoint>
            <Time>2022-07-10T05:22:17.000Z</Time>
            <Position>
              <LatitudeDegrees>42.79324295930564403533935546875</LatitudeDegrees>
              <LongitudeDegrees>-0.14247584156692028045654296875</LongitudeDegrees>
            </Position>
            <AltitudeMeters>2140.39990234375</AltitudeMeters>
            <DistanceMeters>22047.766969147</DistanceMeters>
          </Trackpoint>
          <Trackpoint>
            <Time>2022-07-10T05:22:23.000Z</Time>
            <Position>
              <LatitudeDegrees>42.79324681498110294342041015625</LatitudeDegrees>
              <LongitudeDegrees>-0.1424856483936309814453125</LongitudeDegrees>
            </Position>
            <AltitudeMeters>2140.60009765625</AltitudeMeters>
            <DistanceMeters>22048.678433372</DistanceMeters>
          </Trackpoint>
          <Trackpoint>
            <Time>2022-07-10T05:22:25.000Z</Time>
            <Position>
              <LatitudeDegrees>42.7932415343821048736572265625</LatitudeDegrees>
              <LongitudeDegrees>-0.14248363673686981201171875</LongitudeDegrees>
            </Position>
            <AltitudeMeters>2140.60009765625</AltitudeMeters>
            <DistanceMeters>22049.28690123</DistanceMeters>
          </Trackpoint>
          <Trackpoint>
            <Time>2022-07-10T05:22:31.000Z</Time>
            <Position>
              <LatitudeDegrees>42.79322535730898380279541015625</LatitudeDegrees>
              <LongitudeDegrees>-0.14243527315557003021240234375</LongitudeDegrees>
            </Position>
            <AltitudeMeters>2140.800048828125</AltitudeMeters>
            <DistanceMeters>22053.628072678</DistanceMeters>
          </Trackpoint>
          <Trackpoint>
            <Time>2022-07-10T05:22:33.000Z</Time>
            <Position>
              <LatitudeDegrees>42.7932197414338588714599609375</LatitudeDegrees>
              <LongitudeDegrees>-0.142424292862415313720703125</LongitudeDegrees>
            </Position>
            <AltitudeMeters>2140.800048828125</AltitudeMeters>
            <DistanceMeters>22054.719846505</DistanceMeters>
          </Trackpoint>
          <Trackpoint>
            <Time>2022-07-10T05:22:39.000Z</Time>
            <Position>
              <LatitudeDegrees>42.79322468675673007965087890625</LatitudeDegrees>
              <LongitudeDegrees>-0.142416246235370635986328125</LongitudeDegrees>
            </Position>
            <AltitudeMeters>2140.800048828125</AltitudeMeters>
            <DistanceMeters>22055.580350002</DistanceMeters>
          </Trackpoint>
          <Trackpoint>
            <Time>2022-07-10T05:22:40.000Z</Time>
            <Position>
              <LatitudeDegrees>42.79322200454771518707275390625</LatitudeDegrees>
              <LongitudeDegrees>-0.14241700060665607452392578125</LongitudeDegrees>
            </Position>
            <AltitudeMeters>2140.800048828125</AltitudeMeters>
            <DistanceMeters>22055.895517959</DistanceMeters>
          </Trackpoint>
          <Trackpoint>
            <Time>2022-07-10T05:22:46.000Z</Time>
            <Position>
              <LatitudeDegrees>42.79321043752133846282958984375</LatitudeDegrees>
              <LongitudeDegrees>-0.14239101670682430267333984375</LongitudeDegrees>
            </Position>
            <AltitudeMeters>2140.800048828125</AltitudeMeters>
            <DistanceMeters>22058.380789028</DistanceMeters>
          </Trackpoint>
          <Trackpoint>
            <Time>2022-07-10T05:22:48.000Z</Time>
            <Position>
              <LatitudeDegrees>42.79321052134037017822265625</LatitudeDegrees>
              <LongitudeDegrees>-0.1423852331936359405517578125</LongitudeDegrees>
            </Position>
            <AltitudeMeters>2141.199951171875</AltitudeMeters>
            <DistanceMeters>22058.865332099</DistanceMeters>
          </Trackpoint>
          <Trackpoint>
            <Time>2022-07-10T05:22:49.000Z</Time>
            <Position>
              <LatitudeDegrees>42.79321127571165561676025390625</LatitudeDegrees>
              <LongitudeDegrees>-0.14238481409847736358642578125</LongitudeDegrees>
            </Position>
            <AltitudeMeters>2141</AltitudeMeters>
            <DistanceMeters>22058.999720167</DistanceMeters>
          </Trackpoint>
          <Trackpoint>
            <Time>2022-07-10T05:22:52.000Z</Time>
            <Position>
              <LatitudeDegrees>42.7932150475680828094482421875</LatitudeDegrees>
              <LongitudeDegrees>-0.142394118010997772216796875</LongitudeDegrees>
            </Position>
            <AltitudeMeters>2140.800048828125</AltitudeMeters>
            <DistanceMeters>22059.870654391</DistanceMeters>
          </Trackpoint>
          <Trackpoint>
            <Time>2022-07-10T05:22:58.000Z</Time>
            <Position>
              <LatitudeDegrees>42.7932492457330226898193359375</LatitudeDegrees>
              <LongitudeDegrees>-0.1423798687756061553955078125</LongitudeDegrees>
            </Position>
            <AltitudeMeters>2141</AltitudeMeters>
            <DistanceMeters>22063.850447612</DistanceMeters>
          </Trackpoint>
          <Trackpoint>
            <Time>2022-07-10T05:23:03.000Z</Time>
            <Position>
              <LatitudeDegrees>42.79324161820113658905029296875</LatitudeDegrees>
              <LongitudeDegrees>-0.14245086349546909332275390625</LongitudeDegrees>
            </Position>
            <AltitudeMeters>2141</AltitudeMeters>
            <DistanceMeters>22069.711369962</DistanceMeters>
          </Trackpoint>
          <Trackpoint>
            <Time>2022-07-10T05:23:07.000Z</Time>
            <Position>
              <LatitudeDegrees>42.7932393550872802734375</LatitudeDegrees>
              <LongitudeDegrees>-0.1424754224717617034912109375</LongitudeDegrees>
            </Position>
            <AltitudeMeters>2141.39990234375</AltitudeMeters>
            <DistanceMeters>22071.731665621</DistanceMeters>
          </Trackpoint>
          <Trackpoint>
            <Time>2022-07-10T05:23:13.000Z</Time>
            <Position>
              <LatitudeDegrees>42.79324044473469257354736328125</LatitudeDegrees>
              <LongitudeDegrees>-0.1424667052924633026123046875</LongitudeDegrees>
            </Position>
            <AltitudeMeters>2141.39990234375</AltitudeMeters>
            <DistanceMeters>22072.442780437</DistanceMeters>
          </Trackpoint>
          <Trackpoint>
            <Time>2022-07-10T05:23:14.000Z</Time>
            <Position>
              <LatitudeDegrees>42.7932425402104854583740234375</LatitudeDegrees>
              <LongitudeDegrees>-0.14245337806642055511474609375</LongitudeDegrees>
            </Position>
            <AltitudeMeters>2141.39990234375</AltitudeMeters>
            <DistanceMeters>22073.550972837</DistanceMeters>
          </Trackpoint>
          <Trackpoint>
            <Time>2022-07-10T05:23:20.000Z</Time>
            <Position>
              <LatitudeDegrees>42.79324279166758060455322265625</LatitudeDegrees>
              <LongitudeDegrees>-0.14242999255657196044921875</LongitudeDegrees>
            </Position>
            <AltitudeMeters>2141.199951171875</AltitudeMeters>
            <DistanceMeters>22075.460986158</DistanceMeters>
          </Trackpoint>
          <Trackpoint>
            <Time>2022-07-10T05:23:23.000Z</Time>
            <Position>
              <LatitudeDegrees>42.7932287938892841339111328125</LatitudeDegrees>
              <LongitudeDegrees>-0.14242370612919330596923828125</LongitudeDegrees>
            </Position>
            <AltitudeMeters>2139.800048828125</AltitudeMeters>
            <DistanceMeters>22077.101401587</DistanceMeters>
          </Trackpoint>
          <Trackpoint>
            <Time>2022-07-10T05:23:25.000Z</Time>
            <Position>
              <LatitudeDegrees>42.793220914900302886962890625</LatitudeDegrees>
              <LongitudeDegrees>-0.14241917990148067474365234375</LongitudeDegrees>
            </Position>
            <AltitudeMeters>2139.800048828125</AltitudeMeters>
            <DistanceMeters>22078.05166873</DistanceMeters>
          </Trackpoint>
          <Trackpoint>
            <Time>2022-07-10T05:23:31.000Z</Time>
            <Position>
              <LatitudeDegrees>42.79321379028260707855224609375</LatitudeDegrees>
              <LongitudeDegrees>-0.14237509109079837799072265625</LongitudeDegrees>
            </Position>
            <AltitudeMeters>2140.39990234375</AltitudeMeters>
            <DistanceMeters>22081.739390944</DistanceMeters>
          </Trackpoint>
          <Trackpoint>
            <Time>2022-07-10T05:23:37.000Z</Time>
            <Position>
              <LatitudeDegrees>42.79321110807359218597412109375</LatitudeDegrees>
              <LongitudeDegrees>-0.1424046792089939117431640625</LongitudeDegrees>
            </Position>
            <AltitudeMeters>2140.39990234375</AltitudeMeters>
            <DistanceMeters>22084.175116754</DistanceMeters>
          </Trackpoint>
          <Trackpoint>
            <Time>2022-07-10T05:23:38.000Z</Time>
            <Position>
              <LatitudeDegrees>42.7932066656649112701416015625</LatitudeDegrees>
              <LongitudeDegrees>-0.14241498894989490509033203125</LongitudeDegrees>
            </Position>
            <AltitudeMeters>2140.39990234375</AltitudeMeters>
            <DistanceMeters>22085.153476659</DistanceMeters>
          </Trackpoint>
          <Trackpoint>
            <Time>2022-07-10T05:23:43.000Z</Time>
            <Position>
              <LatitudeDegrees>42.7931828610599040985107421875</LatitudeDegrees>
              <LongitudeDegrees>-0.142473913729190826416015625</LongitudeDegrees>
            </Position>
            <AltitudeMeters>2140.39990234375</AltitudeMeters>
            <DistanceMeters>22090.646974222</DistanceMeters>
          </Trackpoint>
          <Trackpoint>
            <Time>2022-07-10T05:23:44.000Z</Time>
            <Position>
              <LatitudeDegrees>42.7931801788508892059326171875</LatitudeDegrees>
              <LongitudeDegrees>-0.14248506166040897369384765625</LongitudeDegrees>
            </Position>
            <AltitudeMeters>2140.39990234375</AltitudeMeters>
            <DistanceMeters>22091.606696993</DistanceMeters>
          </Trackpoint>
          <Trackpoint>
            <Time>2022-07-10T05:23:45.000Z</Time>
            <Position>
              <LatitudeDegrees>42.79317431151866912841796875</LatitudeDegrees>
              <LongitudeDegrees>-0.14249696396291255950927734375</LongitudeDegrees>
            </Position>
            <AltitudeMeters>2140.39990234375</AltitudeMeters>
            <DistanceMeters>22092.774404809</DistanceMeters>
          </Trackpoint>
          <Trackpoint>
            <Time>2022-07-10T05:23:51.000Z</Time>
            <Position>
              <LatitudeDegrees>42.79314153827726840972900390625</LatitudeDegrees>
              <LongitudeDegrees>-0.14254490844905376434326171875</LongitudeDegrees>
            </Position>
            <AltitudeMeters>2140.39990234375</AltitudeMeters>
            <DistanceMeters>22098.124670441</DistanceMeters>
          </Trackpoint>
          <Trackpoint>
            <Time>2022-07-10T05:23:53.000Z</Time>
            <Position>
              <LatitudeDegrees>42.7931312285363674163818359375</LatitudeDegrees>
              <LongitudeDegrees>-0.14256351627409458160400390625</LongitudeDegrees>
            </Position>
            <AltitudeMeters>2140.800048828125</AltitudeMeters>
            <DistanceMeters>22100.027578913</DistanceMeters>
          </Trackpoint>
          <Trackpoint>
            <Time>2022-07-10T05:23:54.000Z</Time>
            <Position>
              <LatitudeDegrees>42.79312326572835445404052734375</LatitudeDegrees>
              <LongitudeDegrees>-0.14257692731916904449462890625</LongitudeDegrees>
            </Position>
            <AltitudeMeters>2141</AltitudeMeters>
            <DistanceMeters>22101.437052864</DistanceMeters>
          </Trackpoint>
          <Trackpoint>
            <Time>2022-07-10T05:23:58.000Z</Time>
            <Position>
              <LatitudeDegrees>42.79310432262718677520751953125</LatitudeDegrees>
              <LongitudeDegrees>-0.14264398254454135894775390625</LongitudeDegrees>
            </Position>
            <AltitudeMeters>2141.199951171875</AltitudeMeters>
            <DistanceMeters>22107.305673788</DistanceMeters>
          </Trackpoint>
          <Trackpoint>
            <Time>2022-07-10T05:24:04.000Z</Time>
            <Position>
              <LatitudeDegrees>42.793057970702648162841796875</LatitudeDegrees>
              <LongitudeDegrees>-0.14272679574787616729736328125</LongitudeDegrees>
            </Position>
            <AltitudeMeters>2141</AltitudeMeters>
            <DistanceMeters>22115.812555275</DistanceMeters>
          </Trackpoint>
          <Trackpoint>
            <Time>2022-07-10T05:24:05.000Z</Time>
            <Position>
              <LatitudeDegrees>42.79305168427526950836181640625</LatitudeDegrees>
              <LongitudeDegrees>-0.142741464078426361083984375</LongitudeDegrees>
            </Position>
            <AltitudeMeters>2141</AltitudeMeters>
            <DistanceMeters>22117.199424512</DistanceMeters>
          </Trackpoint>
          <Trackpoint>
            <Time>2022-07-10T05:24:09.000Z</Time>
            <Position>
              <LatitudeDegrees>42.79304799623787403106689453125</LatitudeDegrees>
              <LongitudeDegrees>-0.142786391079425811767578125</LongitudeDegrees>
            </Position>
            <AltitudeMeters>2141.199951171875</AltitudeMeters>
            <DistanceMeters>22120.8895946</DistanceMeters>
          </Trackpoint>
          <Trackpoint>
            <Time>2022-07-10T05:24:10.000Z</Time>
            <Position>
              <LatitudeDegrees>42.79304615221917629241943359375</LatitudeDegrees>
              <LongitudeDegrees>-0.14279318042099475860595703125</LongitudeDegrees>
            </Position>
            <AltitudeMeters>2141.199951171875</AltitudeMeters>
            <DistanceMeters>22121.475378609</DistanceMeters>
          </Trackpoint>
          <Trackpoint>
            <Time>2022-07-10T05:24:12.000Z</Time>
            <Position>
              <LatitudeDegrees>42.79304062016308307647705078125</LatitudeDegrees>
              <LongitudeDegrees>-0.1428106985986232757568359375</LongitudeDegrees>
            </Position>
            <AltitudeMeters>2141.199951171875</AltitudeMeters>
            <DistanceMeters>22123.031032969</DistanceMeters>
          </Trackpoint>
          <Trackpoint>
            <Time>2022-07-10T05:24:15.000Z</Time>
            <Position>
              <LatitudeDegrees>42.7930192463099956512451171875</LatitudeDegrees>
              <LongitudeDegrees>-0.142838023602962493896484375</LongitudeDegrees>
            </Position>
            <AltitudeMeters>2141.199951171875</AltitudeMeters>
            <DistanceMeters>22126.291155662</DistanceMeters>
          </Trackpoint>
          <Trackpoint>
            <Time>2022-07-10T05:24:20.000Z</Time>
            <Position>
              <LatitudeDegrees>42.79297423548996448516845703125</LatitudeDegrees>
              <LongitudeDegrees>-0.14285017736256122589111328125</LongitudeDegrees>
            </Position>
            <AltitudeMeters>2141.60009765625</AltitudeMeters>
            <DistanceMeters>22131.397902255</DistanceMeters>
          </Trackpoint>
          <Trackpoint>
            <Time>2022-07-10T05:24:23.000Z</Time>
            <Position>
              <LatitudeDegrees>42.7929481677711009979248046875</LatitudeDegrees>
              <LongitudeDegrees>-0.1428415440022945404052734375</LongitudeDegrees>
            </Position>
            <AltitudeMeters>2141.800048828125</AltitudeMeters>
            <DistanceMeters>22134.383314363</DistanceMeters>
          </Trackpoint>
          <Trackpoint>
            <Time>2022-07-10T05:24:24.000Z</Time>
            <Position>
              <LatitudeDegrees>42.79293651692569255828857421875</LatitudeDegrees>
              <LongitudeDegrees>-0.142843388020992279052734375</LongitudeDegrees>
            </Position>
            <AltitudeMeters>2142</AltitudeMeters>
            <DistanceMeters>22135.689715697</DistanceMeters>
          </Trackpoint>
          <Trackpoint>
            <Time>2022-07-10T05:24:27.000Z</Time>
            <Position>
              <LatitudeDegrees>42.79290013946592807769775390625</LatitudeDegrees>
              <LongitudeDegrees>-0.14283726923167705535888671875</LongitudeDegrees>
            </Position>
            <AltitudeMeters>2142</AltitudeMeters>
            <DistanceMeters>22139.768122348</DistanceMeters>
          </Trackpoint>
          <Trackpoint>
            <Time>2022-07-10T05:24:29.000Z</Time>
            <Position>
              <LatitudeDegrees>42.7928864769637584686279296875</LatitudeDegrees>
              <LongitudeDegrees>-0.1428237743675708770751953125</LongitudeDegrees>
            </Position>
            <AltitudeMeters>2142</AltitudeMeters>
            <DistanceMeters>22141.644749592</DistanceMeters>
          </Trackpoint>
          <Trackpoint>
            <Time>2022-07-10T05:24:30.000Z</Time>
            <Position>
              <LatitudeDegrees>42.79287817887961864471435546875</LatitudeDegrees>
              <LongitudeDegrees>-0.14282285235822200775146484375</LongitudeDegrees>
            </Position>
            <AltitudeMeters>2142</AltitudeMeters>
            <DistanceMeters>22142.575817441</DistanceMeters>
          </Trackpoint>
          <Trackpoint>
            <Time>2022-07-10T05:24:33.000Z</Time>
            <Position>
              <LatitudeDegrees>42.792865522205829620361328125</LatitudeDegrees>
              <LongitudeDegrees>-0.14280172996222972869873046875</LongitudeDegrees>
            </Position>
            <AltitudeMeters>2142.39990234375</AltitudeMeters>
            <DistanceMeters>22144.806416491</DistanceMeters>
          </Trackpoint>
          <Trackpoint>
            <Time>2022-07-10T05:24:35.000Z</Time>
            <Position>
              <LatitudeDegrees>42.79285990633070468902587890625</LatitudeDegrees>
              <LongitudeDegrees>-0.1427892409265041351318359375</LongitudeDegrees>
            </Position>
            <AltitudeMeters>2142.60009765625</AltitudeMeters>
            <DistanceMeters>22146.000883769</DistanceMeters>
          </Trackpoint>
          <Trackpoint>
            <Time>2022-07-10T05:24:36.000Z</Time>
            <Position>
              <LatitudeDegrees>42.79284968040883541107177734375</LatitudeDegrees>
              <LongitudeDegrees>-0.14278630726039409637451171875</LongitudeDegrees>
            </Position>
            <AltitudeMeters>2142.60009765625</AltitudeMeters>
            <DistanceMeters>22147.164718579</DistanceMeters>
          </Trackpoint>
          <Trackpoint>
            <Time>2022-07-10T05:24:40.000Z</Time>
            <Position>
              <LatitudeDegrees>42.79279318638145923614501953125</LatitudeDegrees>
              <LongitudeDegrees>-0.14280022121965885162353515625</LongitudeDegrees>
            </Position>
            <AltitudeMeters>2142.60009765625</AltitudeMeters>
            <DistanceMeters>22153.554867692</DistanceMeters>
          </Trackpoint>
          <Trackpoint>
            <Time>2022-07-10T05:24:42.000Z</Time>
            <Position>
              <LatitudeDegrees>42.79277323745191097259521484375</LatitudeDegrees>
              <LongitudeDegrees>-0.14280273579061031341552734375</LongitudeDegrees>
            </Position>
            <AltitudeMeters>2142.39990234375</AltitudeMeters>
            <DistanceMeters>22155.783441685</DistanceMeters>
          </Trackpoint>
          <Trackpoint>
            <Time>2022-07-10T05:24:45.000Z</Time>
            <Position>
              <LatitudeDegrees>42.7927553839981555938720703125</LatitudeDegrees>
              <LongitudeDegrees>-0.14279502443969249725341796875</LongitudeDegrees>
            </Position>
            <AltitudeMeters>2142.60009765625</AltitudeMeters>
            <DistanceMeters>22157.869705534</DistanceMeters>
          </Trackpoint>
          <Trackpoint>
            <Time>2022-07-10T05:24:48.000Z</Time>
            <Position>
              <LatitudeDegrees>42.7927149832248687744140625</LatitudeDegrees>
              <LongitudeDegrees>-0.1427875645458698272705078125</LongitudeDegrees>
            </Position>
            <AltitudeMeters>2143</AltitudeMeters>
            <DistanceMeters>22162.407168954</DistanceMeters>
          </Trackpoint>
          <Trackpoint>
            <Time>2022-07-10T05:24:49.000Z</Time>
            <Position>
              <LatitudeDegrees>42.79270266182720661163330078125</LatitudeDegrees>
              <LongitudeDegrees>-0.142786391079425811767578125</LongitudeDegrees>
            </Position>
            <AltitudeMeters>2143</AltitudeMeters>
            <DistanceMeters>22163.780954227</DistanceMeters>
          </Trackpoint>
          <Trackpoint>
            <Time>2022-07-10T05:24:54.000Z</Time>
            <Position>
              <LatitudeDegrees>42.792642898857593536376953125</LatitudeDegrees>
              <LongitudeDegrees>-0.14276568777859210968017578125</LongitudeDegrees>
            </Position>
            <AltitudeMeters>2143.199951171875</AltitudeMeters>
            <DistanceMeters>22170.643962222</DistanceMeters>
          </Trackpoint>
          <Trackpoint>
            <Time>2022-07-10T05:24:55.000Z</Time>
            <Position>
              <LatitudeDegrees>42.7926303260028362274169921875</LatitudeDegrees>
              <LongitudeDegrees>-0.1427587307989597320556640625</LongitudeDegrees>
            </Position>
            <AltitudeMeters>2143</AltitudeMeters>
            <DistanceMeters>22172.158438837</DistanceMeters>
          </Trackpoint>
          <Trackpoint>
            <Time>2022-07-10T05:25:00.000Z</Time>
            <Position>
              <LatitudeDegrees>42.7925719879567623138427734375</LatitudeDegrees>
              <LongitudeDegrees>-0.14273576438426971435546875</LongitudeDegrees>
            </Position>
            <AltitudeMeters>2142.60009765625</AltitudeMeters>
            <DistanceMeters>22178.916702419</DistanceMeters>
          </Trackpoint>
          <Trackpoint>
            <Time>2022-07-10T05:25:01.000Z</Time>
            <Position>
              <LatitudeDegrees>42.792556397616863250732421875</LatitudeDegrees>
              <LongitudeDegrees>-0.1427382789552211761474609375</LongitudeDegrees>
            </Position>
            <AltitudeMeters>2142.39990234375</AltitudeMeters>
            <DistanceMeters>22180.663747307</DistanceMeters>
          </Trackpoint>
          <Trackpoint>
            <Time>2022-07-10T05:25:02.000Z</Time>
            <Position>
              <LatitudeDegrees>42.79254206456243991851806640625</LatitudeDegrees>
              <LongitudeDegrees>-0.14274121262133121490478515625</LongitudeDegrees>
            </Position>
            <AltitudeMeters>2142.39990234375</AltitudeMeters>
            <DistanceMeters>22182.276404126</DistanceMeters>
          </Trackpoint>
          <Trackpoint>
            <Time>2022-07-10T05:25:05.000Z</Time>
            <Position>
              <LatitudeDegrees>42.7925139851868152618408203125</LatitudeDegrees>
              <LongitudeDegrees>-0.14275998808443546295166015625</LongitudeDegrees>
            </Position>
            <AltitudeMeters>2143</AltitudeMeters>
            <DistanceMeters>22185.757547988</DistanceMeters>
          </Trackpoint>
          <Trackpoint>
            <Time>2022-07-10T05:25:08.000Z</Time>
            <Position>
              <LatitudeDegrees>42.792505435645580291748046875</LatitudeDegrees>
              <LongitudeDegrees>-0.14278731308877468109130859375</LongitudeDegrees>
            </Position>
            <AltitudeMeters>2143</AltitudeMeters>
            <DistanceMeters>22188.182126253</DistanceMeters>
          </Trackpoint>
          <Trackpoint>
            <Time>2022-07-10T05:25:09.000Z</Time>
            <Position>
              <LatitudeDegrees>42.792504094541072845458984375</LatitudeDegrees>
              <LongitudeDegrees>-0.142798125743865966796875</LongitudeDegrees>
            </Position>
            <AltitudeMeters>2143</AltitudeMeters>
            <DistanceMeters>22189.083628821</DistanceMeters>
          </Trackpoint>
          <Trackpoint>
            <Time>2022-07-10T05:25:11.000Z</Time>
            <Position>
              <LatitudeDegrees>42.79249529354274272918701171875</LatitudeDegrees>
              <LongitudeDegrees>-0.142820589244365692138671875</LongitudeDegrees>
            </Position>
            <AltitudeMeters>2143.39990234375</AltitudeMeters>
            <DistanceMeters>22191.165559822</DistanceMeters>
          </Trackpoint>
          <Trackpoint>
            <Time>2022-07-10T05:25:15.000Z</Time>
            <Position>
              <LatitudeDegrees>42.79247618280351161956787109375</LatitudeDegrees>
              <LongitudeDegrees>-0.14282469637691974639892578125</LongitudeDegrees>
            </Position>
            <AltitudeMeters>2143.800048828125</AltitudeMeters>
            <DistanceMeters>22193.317867703</DistanceMeters>
          </Trackpoint>
          <Trackpoint>
            <Time>2022-07-10T05:25:17.000Z</Time>
            <Position>
              <LatitudeDegrees>42.7924583293497562408447265625</LatitudeDegrees>
              <LongitudeDegrees>-0.14283006079494953155517578125</LongitudeDegrees>
            </Position>
            <AltitudeMeters>2144.199951171875</AltitudeMeters>
            <DistanceMeters>22195.351528199</DistanceMeters>
          </Trackpoint>
          <Trackpoint>
            <Time>2022-07-10T05:25:20.000Z</Time>
            <Position>
              <LatitudeDegrees>42.7924355305731296539306640625</LatitudeDegrees>
              <LongitudeDegrees>-0.142839364707469940185546875</LongitudeDegrees>
            </Position>
            <AltitudeMeters>2144.800048828125</AltitudeMeters>
            <DistanceMeters>22198.002075213</DistanceMeters>
          </Trackpoint>
          <Trackpoint>
            <Time>2022-07-10T05:25:22.000Z</Time>
            <Position>
              <LatitudeDegrees>42.79243578203022480010986328125</LatitudeDegrees>
              <LongitudeDegrees>-0.14284062199294567108154296875</LongitudeDegrees>
            </Position>
            <AltitudeMeters>2145.199951171875</AltitudeMeters>
            <DistanceMeters>22198.097101927</DistanceMeters>
          </Trackpoint>
          <Trackpoint>
            <Time>2022-07-10T05:25:23.000Z</Time>
            <Position>
              <LatitudeDegrees>42.79244667850434780120849609375</LatitudeDegrees>
              <LongitudeDegrees>-0.14284548349678516387939453125</LongitudeDegrees>
            </Position>
            <AltitudeMeters>2145.199951171875</AltitudeMeters>
            <DistanceMeters>22199.368472716</DistanceMeters>
          </Trackpoint>
          <Trackpoint>
            <Time>2022-07-10T05:25:27.000Z</Time>
            <Position>
              <LatitudeDegrees>42.792496718466281890869140625</LatitudeDegrees>
              <LongitudeDegrees>-0.14289024285972118377685546875</LongitudeDegrees>
            </Position>
            <AltitudeMeters>2145.60009765625</AltitudeMeters>
            <DistanceMeters>22206.030516376</DistanceMeters>
          </Trackpoint>
          <Trackpoint>
            <Time>2022-07-10T05:25:33.000Z</Time>
            <Position>
              <LatitudeDegrees>42.792500741779804229736328125</LatitudeDegrees>
              <LongitudeDegrees>-0.14298856258392333984375</LongitudeDegrees>
            </Position>
            <AltitudeMeters>2146</AltitudeMeters>
            <DistanceMeters>22214.073617</DistanceMeters>
          </Trackpoint>
          <Trackpoint>
            <Time>2022-07-10T05:25:34.000Z</Time>
            <Position>
              <LatitudeDegrees>42.792497389018535614013671875</LatitudeDegrees>
              <LongitudeDegrees>-0.1429974474012851715087890625</LongitudeDegrees>
            </Position>
            <AltitudeMeters>2146.199951171875</AltitudeMeters>
            <DistanceMeters>22214.885525603</DistanceMeters>
          </Trackpoint>
          <Trackpoint>
            <Time>2022-07-10T05:25:35.000Z</Time>
            <Position>
              <LatitudeDegrees>42.7924885042011737823486328125</LatitudeDegrees>
              <LongitudeDegrees>-0.143013037741184234619140625</LongitudeDegrees>
            </Position>
            <AltitudeMeters>2146.39990234375</AltitudeMeters>
            <DistanceMeters>22216.498182422</DistanceMeters>
          </Trackpoint>
          <Trackpoint>
            <Time>2022-07-10T05:25:37.000Z</Time>
            <Position>
              <LatitudeDegrees>42.79249378480017185211181640625</LatitudeDegrees>
              <LongitudeDegrees>-0.1430262811481952667236328125</LongitudeDegrees>
            </Position>
            <AltitudeMeters>2146.800048828125</AltitudeMeters>
            <DistanceMeters>22217.729869413</DistanceMeters>
          </Trackpoint>
          <Trackpoint>
            <Time>2022-07-10T05:25:38.000Z</Time>
            <Position>
              <LatitudeDegrees>42.79249579645693302154541015625</LatitudeDegrees>
              <LongitudeDegrees>-0.14303474687039852142333984375</LongitudeDegrees>
            </Position>
            <AltitudeMeters>2147.199951171875</AltitudeMeters>
            <DistanceMeters>22218.453571308</DistanceMeters>
          </Trackpoint>
          <Trackpoint>
            <Time>2022-07-10T05:25:40.000Z</Time>
            <Position>
              <LatitudeDegrees>42.7924982272088527679443359375</LatitudeDegrees>
              <LongitudeDegrees>-0.1430541090667247772216796875</LongitudeDegrees>
            </Position>
            <AltitudeMeters>2147.39990234375</AltitudeMeters>
            <DistanceMeters>22220.057806885</DistanceMeters>
          </Trackpoint>
          <Trackpoint>
            <Time>2022-07-10T05:25:42.000Z</Time>
            <Position>
              <LatitudeDegrees>42.79249629937112331390380859375</LatitudeDegrees>
              <LongitudeDegrees>-0.143076740205287933349609375</LongitudeDegrees>
            </Position>
            <AltitudeMeters>2147.60009765625</AltitudeMeters>
            <DistanceMeters>22221.919942582</DistanceMeters>
          </Trackpoint>
          <Trackpoint>
            <Time>2022-07-10T05:25:46.000Z</Time>
            <Position>
              <LatitudeDegrees>42.7924918569624423980712890625</LatitudeDegrees>
              <LongitudeDegrees>-0.14310062862932682037353515625</LongitudeDegrees>
            </Position>
            <AltitudeMeters>2148.39990234375</AltitudeMeters>
            <DistanceMeters>22223.935763606</DistanceMeters>
          </Trackpoint>
          <Trackpoint>
            <Time>2022-07-10T05:25:48.000Z</Time>
            <Position>
              <LatitudeDegrees>42.79247299768030643463134765625</LatitudeDegrees>
              <LongitudeDegrees>-0.14312040992081165313720703125</LongitudeDegrees>
            </Position>
            <AltitudeMeters>2148.800048828125</AltitudeMeters>
            <DistanceMeters>22226.58631062</DistanceMeters>
          </Trackpoint>
          <Trackpoint>
            <Time>2022-07-10T05:25:51.000Z</Time>
            <Position>
              <LatitudeDegrees>42.79244701378047466278076171875</LatitudeDegrees>
              <LongitudeDegrees>-0.14315376989543437957763671875</LongitudeDegrees>
            </Position>
            <AltitudeMeters>2149.60009765625</AltitudeMeters>
            <DistanceMeters>22230.56042734</DistanceMeters>
          </Trackpoint>
          <Trackpoint>
            <Time>2022-07-10T05:25:52.000Z</Time>
            <Position>
              <LatitudeDegrees>42.7924429066479206085205078125</LatitudeDegrees>
              <LongitudeDegrees>-0.14316097833216190338134765625</LongitudeDegrees>
            </Position>
            <AltitudeMeters>2149.800048828125</AltitudeMeters>
            <DistanceMeters>22231.308668437</DistanceMeters>
          </Trackpoint>
          <Trackpoint>
            <Time>2022-07-10T05:25:56.000Z</Time>
            <Position>
              <LatitudeDegrees>42.79243427328765392303466796875</LatitudeDegrees>
              <LongitudeDegrees>-0.14318645931780338287353515625</LongitudeDegrees>
            </Position>
            <AltitudeMeters>2150.199951171875</AltitudeMeters>
            <DistanceMeters>22233.601157148</DistanceMeters>
          </Trackpoint>
          <Trackpoint>
            <Time>2022-07-10T05:25:57.000Z</Time>
            <Position>
              <LatitudeDegrees>42.7924335189163684844970703125</LatitudeDegrees>
              <LongitudeDegrees>-0.143194086849689483642578125</LongitudeDegrees>
            </Position>
            <AltitudeMeters>2150.199951171875</AltitudeMeters>
            <DistanceMeters>22234.224288986</DistanceMeters>
          </Trackpoint>
          <Trackpoint>
            <Time>2022-07-10T05:26:00.000Z</Time>
            <Position>
              <LatitudeDegrees>42.7924268133938312530517578125</LatitudeDegrees>
              <LongitudeDegrees>-0.143209509551525115966796875</LongitudeDegrees>
            </Position>
            <AltitudeMeters>2150.199951171875</AltitudeMeters>
            <DistanceMeters>22235.690289734</DistanceMeters>
          </Trackpoint>
          <Trackpoint>
            <Time>2022-07-10T05:26:03.000Z</Time>
            <Position>
              <LatitudeDegrees>42.79241449199616909027099609375</LatitudeDegrees>
              <LongitudeDegrees>-0.14322099275887012481689453125</LongitudeDegrees>
            </Position>
            <AltitudeMeters>2149.60009765625</AltitudeMeters>
            <DistanceMeters>22237.352578334</DistanceMeters>
          </Trackpoint>
          <Trackpoint>
            <Time>2022-07-10T05:26:08.000Z</Time>
            <Position>
              <LatitudeDegrees>42.79240024276077747344970703125</LatitudeDegrees>
              <LongitudeDegrees>-0.14322300441563129425048828125</LongitudeDegrees>
            </Position>
            <AltitudeMeters>2149.199951171875</AltitudeMeters>
            <DistanceMeters>22238.948348229</DistanceMeters>
          </Trackpoint>
          <Trackpoint>
            <Time>2022-07-10T05:26:10.000Z</Time>
            <Position>
              <LatitudeDegrees>42.79239244759082794189453125</LatitudeDegrees>
              <LongitudeDegrees>-0.14322635717689990997314453125</LongitudeDegrees>
            </Position>
            <AltitudeMeters>2149.199951171875</AltitudeMeters>
            <DistanceMeters>22239.859812454</DistanceMeters>
          </Trackpoint>
          <Trackpoint>
            <Time>2022-07-10T05:26:15.000Z</Time>
            <Position>
              <LatitudeDegrees>42.79238280840218067169189453125</LatitudeDegrees>
              <LongitudeDegrees>-0.14323708601295948028564453125</LongitudeDegrees>
            </Position>
            <AltitudeMeters>2149.199951171875</AltitudeMeters>
            <DistanceMeters>22241.2434223</DistanceMeters>
          </Trackpoint>
          <Trackpoint>
            <Time>2022-07-10T05:26:18.000Z</Time>
            <Position>
              <LatitudeDegrees>42.792376689612865447998046875</LatitudeDegrees>
              <LongitudeDegrees>-0.14321051537990570068359375</LongitudeDegrees>
            </Position>
            <AltitudeMeters>2149.199951171875</AltitudeMeters>
            <DistanceMeters>22243.520100555</DistanceMeters>
          </Trackpoint>
          <Trackpoint>
            <Time>2022-07-10T05:26:23.000Z</Time>
            <Position>
              <LatitudeDegrees>42.792367637157440185546875</LatitudeDegrees>
              <LongitudeDegrees>-0.1432294584810733795166015625</LongitudeDegrees>
            </Position>
            <AltitudeMeters>2149.199951171875</AltitudeMeters>
            <DistanceMeters>22245.367631041</DistanceMeters>
          </Trackpoint>
          <Trackpoint>
            <Time>2022-07-10T05:26:28.000Z</Time>
            <Position>
              <LatitudeDegrees>42.7923456765711307525634765625</LatitudeDegrees>
              <LongitudeDegrees>-0.143271200358867645263671875</LongitudeDegrees>
            </Position>
            <AltitudeMeters>2149.199951171875</AltitudeMeters>
            <DistanceMeters>22249.562821024</DistanceMeters>
          </Trackpoint>
          <Trackpoint>
            <Time>2022-07-10T05:26:33.000Z</Time>
            <Position>
              <LatitudeDegrees>42.7923309244215488433837890625</LatitudeDegrees>
              <LongitudeDegrees>-0.14329173602163791656494140625</LongitudeDegrees>
            </Position>
            <AltitudeMeters>2148.60009765625</AltitudeMeters>
            <DistanceMeters>22251.909807737</DistanceMeters>
          </Trackpoint>
          <Trackpoint>
            <Time>2022-07-10T05:26:34.000Z</Time>
            <Position>
              <LatitudeDegrees>42.7923265658318996429443359375</LatitudeDegrees>
              <LongitudeDegrees>-0.14329391531646251678466796875</LongitudeDegrees>
            </Position>
            <AltitudeMeters>2148.60009765625</AltitudeMeters>
            <DistanceMeters>22252.430290487</DistanceMeters>
          </Trackpoint>
          <Trackpoint>
            <Time>2022-07-10T05:26:39.000Z</Time>
            <Position>
              <LatitudeDegrees>42.79231022112071514129638671875</LatitudeDegrees>
              <LongitudeDegrees>-0.143290646374225616455078125</LongitudeDegrees>
            </Position>
            <AltitudeMeters>2149.199951171875</AltitudeMeters>
            <DistanceMeters>22254.268019681</DistanceMeters>
          </Trackpoint>
          <Trackpoint>
            <Time>2022-07-10T05:26:45.000Z</Time>
            <Position>
              <LatitudeDegrees>42.79230401851236820220947265625</LatitudeDegrees>
              <LongitudeDegrees>-0.1432995311915874481201171875</LongitudeDegrees>
            </Position>
            <AltitudeMeters>2148</AltitudeMeters>
            <DistanceMeters>22255.264668269</DistanceMeters>
          </Trackpoint>
          <Trackpoint>
            <Time>2022-07-10T05:26:51.000Z</Time>
            <Position>
              <LatitudeDegrees>42.7922963909804821014404296875</LatitudeDegrees>
              <LongitudeDegrees>-0.14326818287372589111328125</LongitudeDegrees>
            </Position>
            <AltitudeMeters>2149.199951171875</AltitudeMeters>
            <DistanceMeters>22257.962489912</DistanceMeters>
          </Trackpoint>
          <Trackpoint>
            <Time>2022-07-10T05:26:54.000Z</Time>
            <Position>
              <LatitudeDegrees>42.79229362495243549346923828125</LatitudeDegrees>
              <LongitudeDegrees>-0.14327329583466053009033203125</LongitudeDegrees>
            </Position>
            <AltitudeMeters>2148</AltitudeMeters>
            <DistanceMeters>22258.482972662</DistanceMeters>
          </Trackpoint>
          <Trackpoint>
            <Time>2022-07-10T05:26:55.000Z</Time>
            <Position>
              <LatitudeDegrees>42.7922980673611164093017578125</LatitudeDegrees>
              <LongitudeDegrees>-0.14327220618724822998046875</LongitudeDegrees>
            </Position>
            <AltitudeMeters>2148</AltitudeMeters>
            <DistanceMeters>22258.98580677</DistanceMeters>
          </Trackpoint>
          <Trackpoint>
            <Time>2022-07-10T05:26:57.000Z</Time>
            <Position>
              <LatitudeDegrees>42.7922990731894969940185546875</LatitudeDegrees>
              <LongitudeDegrees>-0.1432673446834087371826171875</LongitudeDegrees>
            </Position>
            <AltitudeMeters>2148</AltitudeMeters>
            <DistanceMeters>22259.388970975</DistanceMeters>
          </Trackpoint>
          <Trackpoint>
            <Time>2022-07-10T05:27:03.000Z</Time>
            <Position>
              <LatitudeDegrees>42.7922675572335720062255859375</LatitudeDegrees>
              <LongitudeDegrees>-0.1432556100189685821533203125</LongitudeDegrees>
            </Position>
            <AltitudeMeters>2148</AltitudeMeters>
            <DistanceMeters>22263.024907156</DistanceMeters>
          </Trackpoint>
          <Trackpoint>
            <Time>2022-07-10T05:27:09.000Z</Time>
            <Position>
              <LatitudeDegrees>42.7922481112182140350341796875</LatitudeDegrees>
              <LongitudeDegrees>-0.14323465526103973388671875</LongitudeDegrees>
            </Position>
            <AltitudeMeters>2149.199951171875</AltitudeMeters>
            <DistanceMeters>22265.782319778</DistanceMeters>
          </Trackpoint>
          <Trackpoint>
            <Time>2022-07-10T05:27:15.000Z</Time>
            <Position>
              <LatitudeDegrees>42.79223243705928325653076171875</LatitudeDegrees>
              <LongitudeDegrees>-0.14324043877422809600830078125</LongitudeDegrees>
            </Position>
            <AltitudeMeters>2149.199951171875</AltitudeMeters>
            <DistanceMeters>22267.590326324</DistanceMeters>
          </Trackpoint>
          <Trackpoint>
            <Time>2022-07-10T05:27:21.000Z</Time>
            <Position>
              <LatitudeDegrees>42.7922108955681324005126953125</LatitudeDegrees>
              <LongitudeDegrees>-0.14326709322631359100341796875</LongitudeDegrees>
            </Position>
            <AltitudeMeters>2149</AltitudeMeters>
            <DistanceMeters>22270.828214332</DistanceMeters>
          </Trackpoint>
          <Trackpoint>
            <Time>2022-07-10T05:27:25.000Z</Time>
            <Position>
              <LatitudeDegrees>42.79219019226729869842529296875</LatitudeDegrees>
              <LongitudeDegrees>-0.14329089783132076263427734375</LongitudeDegrees>
            </Position>
            <AltitudeMeters>2148.60009765625</AltitudeMeters>
            <DistanceMeters>22273.842224435</DistanceMeters>
          </Trackpoint>
          <Trackpoint>
            <Time>2022-07-10T05:27:27.000Z</Time>
            <Position>
              <LatitudeDegrees>42.79218164272606372833251953125</LatitudeDegrees>
              <LongitudeDegrees>-0.1432995311915874481201171875</LongitudeDegrees>
            </Position>
            <AltitudeMeters>2148.60009765625</AltitudeMeters>
            <DistanceMeters>22275.029107718</DistanceMeters>
          </Trackpoint>
          <Trackpoint>
            <Time>2022-07-10T05:27:29.000Z</Time>
            <Position>
              <LatitudeDegrees>42.79218499548733234405517578125</LatitudeDegrees>
              <LongitudeDegrees>-0.14329944737255573272705078125</LongitudeDegrees>
            </Position>
            <AltitudeMeters>2149</AltitudeMeters>
            <DistanceMeters>22275.409214575</DistanceMeters>
          </Trackpoint>
          <Trackpoint>
            <Time>2022-07-10T05:27:30.000Z</Time>
            <Position>
              <LatitudeDegrees>42.79218935407698154449462890625</LatitudeDegrees>
              <LongitudeDegrees>-0.14329743571579456329345703125</LongitudeDegrees>
            </Position>
            <AltitudeMeters>2149</AltitudeMeters>
            <DistanceMeters>22275.929697325</DistanceMeters>
          </Trackpoint>
          <Trackpoint>
            <Time>2022-07-10T05:27:33.000Z</Time>
            <Position>
              <LatitudeDegrees>42.7921807207167148590087890625</LatitudeDegrees>
              <LongitudeDegrees>-0.14329726807773113250732421875</LongitudeDegrees>
            </Position>
            <AltitudeMeters>2149</AltitudeMeters>
            <DistanceMeters>22276.889420096</DistanceMeters>
          </Trackpoint>
          <Trackpoint>
            <Time>2022-07-10T05:27:39.000Z</Time>
            <Position>
              <LatitudeDegrees>42.79215767048299312591552734375</LatitudeDegrees>
              <LongitudeDegrees>-0.14328100718557834625244140625</LongitudeDegrees>
            </Position>
            <AltitudeMeters>2148</AltitudeMeters>
            <DistanceMeters>22279.777982132</DistanceMeters>
          </Trackpoint>
          <Trackpoint>
            <Time>2022-07-10T05:27:41.000Z</Time>
            <Position>
              <LatitudeDegrees>42.79214543290436267852783203125</LatitudeDegrees>
              <LongitudeDegrees>-0.143280923366546630859375</LongitudeDegrees>
            </Position>
            <AltitudeMeters>2147.800048828125</AltitudeMeters>
            <DistanceMeters>22281.141872064</DistanceMeters>
          </Trackpoint>
          <Trackpoint>
            <Time>2022-07-10T05:27:42.000Z</Time>
            <Position>
              <LatitudeDegrees>42.79213855974376201629638671875</LatitudeDegrees>
              <LongitudeDegrees>-0.14328083954751491546630859375</LongitudeDegrees>
            </Position>
            <AltitudeMeters>2147.60009765625</AltitudeMeters>
            <DistanceMeters>22281.913872741</DistanceMeters>
          </Trackpoint>
          <Trackpoint>
            <Time>2022-07-10T05:27:44.000Z</Time>
            <Position>
              <LatitudeDegrees>42.79212154448032379150390625</LatitudeDegrees>
              <LongitudeDegrees>-0.14328670687973499298095703125</LongitudeDegrees>
            </Position>
            <AltitudeMeters>2147.60009765625</AltitudeMeters>
            <DistanceMeters>22283.865972191</DistanceMeters>
          </Trackpoint>
          <Trackpoint>
            <Time>2022-07-10T05:27:45.000Z</Time>
            <Position>
              <LatitudeDegrees>42.79211542569100856781005859375</LatitudeDegrees>
              <LongitudeDegrees>-0.1432847790420055389404296875</LongitudeDegrees>
            </Position>
            <AltitudeMeters>2147.60009765625</AltitudeMeters>
            <DistanceMeters>22284.564273077</DistanceMeters>
          </Trackpoint>
          <Trackpoint>
            <Time>2022-07-10T05:27:50.000Z</Time>
            <Position>
              <LatitudeDegrees>42.79208273626863956451416015625</LatitudeDegrees>
              <LongitudeDegrees>-0.14329508878290653228759765625</LongitudeDegrees>
            </Position>
            <AltitudeMeters>2147.39990234375</AltitudeMeters>
            <DistanceMeters>22288.300648083</DistanceMeters>
          </Trackpoint>
          <Trackpoint>
            <Time>2022-07-10T05:27:55.000Z</Time>
            <Position>
              <LatitudeDegrees>42.79205390252172946929931640625</LatitudeDegrees>
              <LongitudeDegrees>-0.1433243416249752044677734375</LongitudeDegrees>
            </Position>
            <AltitudeMeters>2147.39990234375</AltitudeMeters>
            <DistanceMeters>22292.300810012</DistanceMeters>
          </Trackpoint>
          <Trackpoint>
            <Time>2022-07-10T05:27:58.000Z</Time>
            <Position>
              <LatitudeDegrees>42.79205314815044403076171875</LatitudeDegrees>
              <LongitudeDegrees>-0.1433417759835720062255859375</LongitudeDegrees>
            </Position>
            <AltitudeMeters>2147.199951171875</AltitudeMeters>
            <DistanceMeters>22293.729374773</DistanceMeters>
          </Trackpoint>
          <Trackpoint>
            <Time>2022-07-10T05:28:00.000Z</Time>
            <Position>
              <LatitudeDegrees>42.79205809347331523895263671875</LatitudeDegrees>
              <LongitudeDegrees>-0.14337907545268535614013671875</LongitudeDegrees>
            </Position>
            <AltitudeMeters>2147.60009765625</AltitudeMeters>
            <DistanceMeters>22296.82613779</DistanceMeters>
          </Trackpoint>
          <Trackpoint>
            <Time>2022-07-10T05:28:05.000Z</Time>
            <Position>
              <LatitudeDegrees>42.7920630387961864471435546875</LatitudeDegrees>
              <LongitudeDegrees>-0.14341612346470355987548828125</LongitudeDegrees>
            </Position>
            <AltitudeMeters>2147.39990234375</AltitudeMeters>
            <DistanceMeters>22299.90242128</DistanceMeters>
          </Trackpoint>
          <Trackpoint>
            <Time>2022-07-10T05:28:09.000Z</Time>
            <Position>
              <LatitudeDegrees>42.79208458028733730316162109375</LatitudeDegrees>
              <LongitudeDegrees>-0.14344261027872562408447265625</LongitudeDegrees>
            </Position>
            <AltitudeMeters>2147.60009765625</AltitudeMeters>
            <DistanceMeters>22303.133329569</DistanceMeters>
          </Trackpoint>
          <Trackpoint>
            <Time>2022-07-10T05:28:10.000Z</Time>
            <Position>
              <LatitudeDegrees>42.7920851670205593109130859375</LatitudeDegrees>
              <LongitudeDegrees>-0.14344478957355022430419921875</LongitudeDegrees>
            </Position>
            <AltitudeMeters>2147.60009765625</AltitudeMeters>
            <DistanceMeters>22303.366096531</DistanceMeters>
          </Trackpoint>
          <Trackpoint>
            <Time>2022-07-10T05:28:12.000Z</Time>
            <Position>
              <LatitudeDegrees>42.7920858375728130340576171875</LatitudeDegrees>
              <LongitudeDegrees>-0.143416710197925567626953125</LongitudeDegrees>
            </Position>
            <AltitudeMeters>2147.60009765625</AltitudeMeters>
            <DistanceMeters>22305.662520848</DistanceMeters>
          </Trackpoint>
          <Trackpoint>
            <Time>2022-07-10T05:28:14.000Z</Time>
            <Position>
              <LatitudeDegrees>42.79206194914877414703369140625</LatitudeDegrees>
              <LongitudeDegrees>-0.14340589754283428192138671875</LongitudeDegrees>
            </Position>
            <AltitudeMeters>2147.60009765625</AltitudeMeters>
            <DistanceMeters>22308.46379492</DistanceMeters>
          </Trackpoint>
          <Trackpoint>
            <Time>2022-07-10T05:28:20.000Z</Time>
            <Position>
              <LatitudeDegrees>42.79198232106864452362060546875</LatitudeDegrees>
              <LongitudeDegrees>-0.1433625631034374237060546875</LongitudeDegrees>
            </Position>
            <AltitudeMeters>2147</AltitudeMeters>
            <DistanceMeters>22318.006767253</DistanceMeters>
          </Trackpoint>
          <Trackpoint>
            <Time>2022-07-10T05:28:22.000Z</Time>
            <Position>
              <LatitudeDegrees>42.79196572490036487579345703125</LatitudeDegrees>
              <LongitudeDegrees>-0.14335175044834613800048828125</LongitudeDegrees>
            </Position>
            <AltitudeMeters>2147</AltitudeMeters>
            <DistanceMeters>22320.053705324</DistanceMeters>
          </Trackpoint>
          <Trackpoint>
            <Time>2022-07-10T05:28:25.000Z</Time>
            <Position>
              <LatitudeDegrees>42.791952900588512420654296875</LatitudeDegrees>
              <LongitudeDegrees>-0.1433385908603668212890625</LongitudeDegrees>
            </Position>
            <AltitudeMeters>2147</AltitudeMeters>
            <DistanceMeters>22321.841622286</DistanceMeters>
          </Trackpoint>
          <Trackpoint>
            <Time>2022-07-10T05:28:31.000Z</Time>
            <Position>
              <LatitudeDegrees>42.7919210493564605712890625</LatitudeDegrees>
              <LongitudeDegrees>-0.14340589754283428192138671875</LongitudeDegrees>
            </Position>
            <AltitudeMeters>2146.800048828125</AltitudeMeters>
            <DistanceMeters>22328.38329885</DistanceMeters>
          </Trackpoint>
          <Trackpoint>
            <Time>2022-07-10T05:28:32.000Z</Time>
            <Position>
              <LatitudeDegrees>42.79191459529101848602294921875</LatitudeDegrees>
              <LongitudeDegrees>-0.14341662637889385223388671875</LongitudeDegrees>
            </Position>
            <AltitudeMeters>2146.800048828125</AltitudeMeters>
            <DistanceMeters>22329.515672841</DistanceMeters>
          </Trackpoint>
          <Trackpoint>
            <Time>2022-07-10T05:28:34.000Z</Time>
            <Position>
              <LatitudeDegrees>42.79189900495111942291259765625</LatitudeDegrees>
              <LongitudeDegrees>-0.14343003742396831512451171875</LongitudeDegrees>
            </Position>
            <AltitudeMeters>2146.800048828125</AltitudeMeters>
            <DistanceMeters>22331.569217508</DistanceMeters>
          </Trackpoint>
          <Trackpoint>
            <Time>2022-07-10T05:28:36.000Z</Time>
            <Position>
              <LatitudeDegrees>42.7918779663741588592529296875</LatitudeDegrees>
              <LongitudeDegrees>-0.14343339018523693084716796875</LongitudeDegrees>
            </Position>
            <AltitudeMeters>2146.800048828125</AltitudeMeters>
            <DistanceMeters>22333.927718534</DistanceMeters>
          </Trackpoint>
          <Trackpoint>
            <Time>2022-07-10T05:28:38.000Z</Time>
            <Position>
              <LatitudeDegrees>42.79185575433075428009033203125</LatitudeDegrees>
              <LongitudeDegrees>-0.14343406073749065399169921875</LongitudeDegrees>
            </Position>
            <AltitudeMeters>2146.800048828125</AltitudeMeters>
            <DistanceMeters>22336.402065282</DistanceMeters>
          </Trackpoint>
          <Trackpoint>
            <Time>2022-07-10T05:28:42.000Z</Time>
            <Position>
              <LatitudeDegrees>42.79184368439018726348876953125</LatitudeDegrees>
              <LongitudeDegrees>-0.14345015399158000946044921875</LongitudeDegrees>
            </Position>
            <AltitudeMeters>2147</AltitudeMeters>
            <DistanceMeters>22338.281096918</DistanceMeters>
          </Trackpoint>
          <Trackpoint>
            <Time>2022-07-10T05:28:43.000Z</Time>
            <Position>
              <LatitudeDegrees>42.7918454445898532867431640625</LatitudeDegrees>
              <LongitudeDegrees>-0.1434507407248020172119140625</LongitudeDegrees>
            </Position>
            <AltitudeMeters>2147.199951171875</AltitudeMeters>
            <DistanceMeters>22338.471150346</DistanceMeters>
          </Trackpoint>
          <Trackpoint>
            <Time>2022-07-10T05:28:44.000Z</Time>
            <Position>
              <LatitudeDegrees>42.79185038991272449493408203125</LatitudeDegrees>
              <LongitudeDegrees>-0.1434557698667049407958984375</LongitudeDegrees>
            </Position>
            <AltitudeMeters>2147.39990234375</AltitudeMeters>
            <DistanceMeters>22339.156397729</DistanceMeters>
          </Trackpoint>
          <Trackpoint>
            <Time>2022-07-10T05:28:48.000Z</Time>
            <Position>
              <LatitudeDegrees>42.791873104870319366455078125</LatitudeDegrees>
              <LongitudeDegrees>-0.14344847761094570159912109375</LongitudeDegrees>
            </Position>
            <AltitudeMeters>2147.39990234375</AltitudeMeters>
            <DistanceMeters>22341.751862432</DistanceMeters>
          </Trackpoint>
          <Trackpoint>
            <Time>2022-07-10T05:28:51.000Z</Time>
            <Position>
              <LatitudeDegrees>42.79185592196881771087646484375</LatitudeDegrees>
              <LongitudeDegrees>-0.14352542348206043243408203125</LongitudeDegrees>
            </Position>
            <AltitudeMeters>2147.800048828125</AltitudeMeters>
            <DistanceMeters>22348.32108882</DistanceMeters>
          </Trackpoint>
          <Trackpoint>
            <Time>2022-07-10T05:28:54.000Z</Time>
            <Position>
              <LatitudeDegrees>42.79182943515479564666748046875</LatitudeDegrees>
              <LongitudeDegrees>-0.14355224557220935821533203125</LongitudeDegrees>
            </Position>
            <AltitudeMeters>2147.800048828125</AltitudeMeters>
            <DistanceMeters>22351.994089528</DistanceMeters>
          </Trackpoint>
          <Trackpoint>
            <Time>2022-07-10T05:28:56.000Z</Time>
            <Position>
              <LatitudeDegrees>42.79180529527366161346435546875</LatitudeDegrees>
              <LongitudeDegrees>-0.1435680873692035675048828125</LongitudeDegrees>
            </Position>
            <AltitudeMeters>2147.800048828125</AltitudeMeters>
            <DistanceMeters>22354.976475368</DistanceMeters>
          </Trackpoint>
          <Trackpoint>
            <Time>2022-07-10T05:29:02.000Z</Time>
            <Position>
              <LatitudeDegrees>42.79174528084695339202880859375</LatitudeDegrees>
              <LongitudeDegrees>-0.1435885392129421234130859375</LongitudeDegrees>
            </Position>
            <AltitudeMeters>2147.800048828125</AltitudeMeters>
            <DistanceMeters>22361.862470678</DistanceMeters>
          </Trackpoint>
          <Trackpoint>
            <Time>2022-07-10T05:29:03.000Z</Time>
            <Position>
              <LatitudeDegrees>42.791735641658306121826171875</LatitudeDegrees>
              <LongitudeDegrees>-0.14358895830810070037841796875</LongitudeDegrees>
            </Position>
            <AltitudeMeters>2147.800048828125</AltitudeMeters>
            <DistanceMeters>22362.937575224</DistanceMeters>
          </Trackpoint>
          <Trackpoint>
            <Time>2022-07-10T05:29:04.000Z</Time>
            <Position>
              <LatitudeDegrees>42.7917267568409442901611328125</LatitudeDegrees>
              <LongitudeDegrees>-0.143586359918117523193359375</LongitudeDegrees>
            </Position>
            <AltitudeMeters>2147.800048828125</AltitudeMeters>
            <DistanceMeters>22363.947723054</DistanceMeters>
          </Trackpoint>
          <Trackpoint>
            <Time>2022-07-10T05:29:07.000Z</Time>
            <Position>
              <LatitudeDegrees>42.79168191365897655487060546875</LatitudeDegrees>
              <LongitudeDegrees>-0.14358996413648128509521484375</LongitudeDegrees>
            </Position>
            <AltitudeMeters>2148</AltitudeMeters>
            <DistanceMeters>22368.947248191</DistanceMeters>
          </Trackpoint>
          <Trackpoint>
            <Time>2022-07-10T05:29:09.000Z</Time>
            <Position>
              <LatitudeDegrees>42.79165894724428653717041015625</LatitudeDegrees>
              <LongitudeDegrees>-0.14359532855451107025146484375</LongitudeDegrees>
            </Position>
            <AltitudeMeters>2148.199951171875</AltitudeMeters>
            <DistanceMeters>22371.539231384</DistanceMeters>
          </Trackpoint>
          <Trackpoint>
            <Time>2022-07-10T05:29:10.000Z</Time>
            <Position>
              <LatitudeDegrees>42.7916499786078929901123046875</LatitudeDegrees>
              <LongitudeDegrees>-0.14359633438289165496826171875</LongitudeDegrees>
            </Position>
            <AltitudeMeters>2148.199951171875</AltitudeMeters>
            <DistanceMeters>22372.544899601</DistanceMeters>
          </Trackpoint>
          <Trackpoint>
            <Time>2022-07-10T05:29:15.000Z</Time>
            <Position>
              <LatitudeDegrees>42.791608236730098724365234375</LatitudeDegrees>
              <LongitudeDegrees>-0.14360907487571239471435546875</LongitudeDegrees>
            </Position>
            <AltitudeMeters>2148.199951171875</AltitudeMeters>
            <DistanceMeters>22377.305728507</DistanceMeters>
          </Trackpoint>
          <Trackpoint>
            <Time>2022-07-10T05:29:18.000Z</Time>
            <Position>
              <LatitudeDegrees>42.7915755473077297210693359375</LatitudeDegrees>
              <LongitudeDegrees>-0.1436202228069305419921875</LongitudeDegrees>
            </Position>
            <AltitudeMeters>2148.199951171875</AltitudeMeters>
            <DistanceMeters>22381.056576291</DistanceMeters>
          </Trackpoint>
          <Trackpoint>
            <Time>2022-07-10T05:29:20.000Z</Time>
            <Position>
              <LatitudeDegrees>42.79155316762626171112060546875</LatitudeDegrees>
              <LongitudeDegrees>-0.14363187365233898162841796875</LongitudeDegrees>
            </Position>
            <AltitudeMeters>2148.39990234375</AltitudeMeters>
            <DistanceMeters>22383.72241015</DistanceMeters>
          </Trackpoint>
          <Trackpoint>
            <Time>2022-07-10T05:29:22.000Z</Time>
            <Position>
              <LatitudeDegrees>42.79153279960155487060546875</LatitudeDegrees>
              <LongitudeDegrees>-0.1436311192810535430908203125</LongitudeDegrees>
            </Position>
            <AltitudeMeters>2148.39990234375</AltitudeMeters>
            <DistanceMeters>22385.99114186</DistanceMeters>
          </Trackpoint>
          <Trackpoint>
            <Time>2022-07-10T05:29:24.000Z</Time>
            <Position>
              <LatitudeDegrees>42.79151360504329204559326171875</LatitudeDegrees>
              <LongitudeDegrees>-0.14361913315951824188232421875</LongitudeDegrees>
            </Position>
            <AltitudeMeters>2148.39990234375</AltitudeMeters>
            <DistanceMeters>22388.341972944</DistanceMeters>
          </Trackpoint>
          <Trackpoint>
            <Time>2022-07-10T05:29:26.000Z</Time>
            <Position>
              <LatitudeDegrees>42.79150203801691532135009765625</LatitudeDegrees>
              <LongitudeDegrees>-0.14361645095050334930419921875</LongitudeDegrees>
            </Position>
            <AltitudeMeters>2148.60009765625</AltitudeMeters>
            <DistanceMeters>22389.644913607</DistanceMeters>
          </Trackpoint>
          <Trackpoint>
            <Time>2022-07-10T05:29:27.000Z</Time>
            <Position>
              <LatitudeDegrees>42.7914964221417903900146484375</LatitudeDegrees>
              <LongitudeDegrees>-0.14360169880092144012451171875</LongitudeDegrees>
            </Position>
            <AltitudeMeters>2148.60009765625</AltitudeMeters>
            <DistanceMeters>22391.002166566</DistanceMeters>
          </Trackpoint>
          <Trackpoint>
            <Time>2022-07-10T05:29:28.000Z</Time>
            <Position>
              <LatitudeDegrees>42.7914972603321075439453125</LatitudeDegrees>
              <LongitudeDegrees>-0.14359834603965282440185546875</LongitudeDegrees>
            </Position>
            <AltitudeMeters>2148.800048828125</AltitudeMeters>
            <DistanceMeters>22391.287246709</DistanceMeters>
          </Trackpoint>
          <Trackpoint>
            <Time>2022-07-10T05:29:29.000Z</Time>
            <Position>
              <LatitudeDegrees>42.79150052927434444427490234375</LatitudeDegrees>
              <LongitudeDegrees>-0.1435965858399868011474609375</LongitudeDegrees>
            </Position>
            <AltitudeMeters>2148.800048828125</AltitudeMeters>
            <DistanceMeters>22391.667353566</DistanceMeters>
          </Trackpoint>
          <Trackpoint>
            <Time>2022-07-10T05:29:32.000Z</Time>
            <Position>
              <LatitudeDegrees>42.79148912988603115081787109375</LatitudeDegrees>
              <LongitudeDegrees>-0.14360588975250720977783203125</LongitudeDegrees>
            </Position>
            <AltitudeMeters>2148.60009765625</AltitudeMeters>
            <DistanceMeters>22393.145622317</DistanceMeters>
          </Trackpoint>
          <Trackpoint>
            <Time>2022-07-10T05:29:34.000Z</Time>
            <Position>
              <LatitudeDegrees>42.79145635664463043212890625</LatitudeDegrees>
              <LongitudeDegrees>-0.143622569739818572998046875</LongitudeDegrees>
            </Position>
            <AltitudeMeters>2148.60009765625</AltitudeMeters>
            <DistanceMeters>22397.040558571</DistanceMeters>
          </Trackpoint>
          <Trackpoint>
            <Time>2022-07-10T05:29:40.000Z</Time>
            <Position>
              <LatitudeDegrees>42.7913720346987247467041015625</LatitudeDegrees>
              <LongitudeDegrees>-0.14366154558956623077392578125</LongitudeDegrees>
            </Position>
            <AltitudeMeters>2149</AltitudeMeters>
            <DistanceMeters>22406.951166095</DistanceMeters>
          </Trackpoint>
          <Trackpoint>
            <Time>2022-07-10T05:29:41.000Z</Time>
            <Position>
              <LatitudeDegrees>42.7913609705865383148193359375</LatitudeDegrees>
              <LongitudeDegrees>-0.1436669938266277313232421875</LongitudeDegrees>
            </Position>
            <AltitudeMeters>2149</AltitudeMeters>
            <DistanceMeters>22408.261018958</DistanceMeters>
          </Trackpoint>
          <Trackpoint>
            <Time>2022-07-10T05:29:45.000Z</Time>
            <Position>
              <LatitudeDegrees>42.79132886789739131927490234375</LatitudeDegrees>
              <LongitudeDegrees>-0.14369490556418895721435546875</LongitudeDegrees>
            </Position>
            <AltitudeMeters>2149.199951171875</AltitudeMeters>
            <DistanceMeters>22412.500105195</DistanceMeters>
          </Trackpoint>
          <Trackpoint>
            <Time>2022-07-10T05:29:47.000Z</Time>
            <Position>
              <LatitudeDegrees>42.791317887604236602783203125</LatitudeDegrees>
              <LongitudeDegrees>-0.1437122561037540435791015625</LongitudeDegrees>
            </Position>
            <AltitudeMeters>2149.199951171875</AltitudeMeters>
            <DistanceMeters>22414.37191439</DistanceMeters>
          </Trackpoint>
          <Trackpoint>
            <Time>2022-07-10T05:29:52.000Z</Time>
            <Position>
              <LatitudeDegrees>42.79127052985131740570068359375</LatitudeDegrees>
              <LongitudeDegrees>-0.14374821446835994720458984375</LongitudeDegrees>
            </Position>
            <AltitudeMeters>2149.39990234375</AltitudeMeters>
            <DistanceMeters>22420.405923689</DistanceMeters>
          </Trackpoint>
          <Trackpoint>
            <Time>2022-07-10T05:29:58.000Z</Time>
            <Position>
              <LatitudeDegrees>42.7911886386573314666748046875</LatitudeDegrees>
              <LongitudeDegrees>-0.14378006570041179656982421875</LongitudeDegrees>
            </Position>
            <AltitudeMeters>2149.39990234375</AltitudeMeters>
            <DistanceMeters>22429.884808677</DistanceMeters>
          </Trackpoint>
          <Trackpoint>
            <Time>2022-07-10T05:29:59.000Z</Time>
            <Position>
              <LatitudeDegrees>42.7911769039928913116455078125</LatitudeDegrees>
              <LongitudeDegrees>-0.143786184489727020263671875</LongitudeDegrees>
            </Position>
            <AltitudeMeters>2149.39990234375</AltitudeMeters>
            <DistanceMeters>22431.28141045</DistanceMeters>
          </Trackpoint>
          <Trackpoint>
            <Time>2022-07-10T05:30:01.000Z</Time>
            <Position>
              <LatitudeDegrees>42.79115117155015468597412109375</LatitudeDegrees>
              <LongitudeDegrees>-0.14379833824932575225830078125</LongitudeDegrees>
            </Position>
            <AltitudeMeters>2149.60009765625</AltitudeMeters>
            <DistanceMeters>22434.311853939</DistanceMeters>
          </Trackpoint>
          <Trackpoint>
            <Time>2022-07-10T05:30:06.000Z</Time>
            <Position>
              <LatitudeDegrees>42.79109233058989048004150390625</LatitudeDegrees>
              <LongitudeDegrees>-0.1438064686954021453857421875</LongitudeDegrees>
            </Position>
            <AltitudeMeters>2149.800048828125</AltitudeMeters>
            <DistanceMeters>22440.894126098</DistanceMeters>
          </Trackpoint>
          <Trackpoint>
            <Time>2022-07-10T05:30:12.000Z</Time>
            <Position>
              <LatitudeDegrees>42.79102317988872528076171875</LatitudeDegrees>
              <LongitudeDegrees>-0.14379548840224742889404296875</LongitudeDegrees>
            </Position>
            <AltitudeMeters>2150.199951171875</AltitudeMeters>
            <DistanceMeters>22448.643320144</DistanceMeters>
          </Trackpoint>
          <Trackpoint>
            <Time>2022-07-10T05:30:13.000Z</Time>
            <Position>
              <LatitudeDegrees>42.791011445224285125732421875</LatitudeDegrees>
              <LongitudeDegrees>-0.14379381202161312103271484375</LongitudeDegrees>
            </Position>
            <AltitudeMeters>2150.39990234375</AltitudeMeters>
            <DistanceMeters>22449.960048923</DistanceMeters>
          </Trackpoint>
          <Trackpoint>
            <Time>2022-07-10T05:30:14.000Z</Time>
            <Position>
              <LatitudeDegrees>42.79100038111209869384765625</LatitudeDegrees>
              <LongitudeDegrees>-0.14379029162228107452392578125</LongitudeDegrees>
            </Position>
            <AltitudeMeters>2150.39990234375</AltitudeMeters>
            <DistanceMeters>22451.22429713</DistanceMeters>
          </Trackpoint>
          <Trackpoint>
            <Time>2022-07-10T05:30:19.000Z</Time>
            <Position>
              <LatitudeDegrees>42.79095738194882869720458984375</LatitudeDegrees>
              <LongitudeDegrees>-0.14380420558154582977294921875</LongitudeDegrees>
            </Position>
            <AltitudeMeters>2150.800048828125</AltitudeMeters>
            <DistanceMeters>22456.143708159</DistanceMeters>
          </Trackpoint>
          <Trackpoint>
            <Time>2022-07-10T05:30:22.000Z</Time>
            <Position>
              <LatitudeDegrees>42.790913544595241546630859375</LatitudeDegrees>
              <LongitudeDegrees>-0.1438195444643497467041015625</LongitudeDegrees>
            </Position>
            <AltitudeMeters>2150.800048828125</AltitudeMeters>
            <DistanceMeters>22461.181020419</DistanceMeters>
          </Trackpoint>
          <Trackpoint>
            <Time>2022-07-10T05:30:24.000Z</Time>
            <Position>
              <LatitudeDegrees>42.79089183546602725982666015625</LatitudeDegrees>
              <LongitudeDegrees>-0.1438158564269542694091796875</LongitudeDegrees>
            </Position>
            <AltitudeMeters>2150.800048828125</AltitudeMeters>
            <DistanceMeters>22463.614891851</DistanceMeters>
          </Trackpoint>
          <Trackpoint>
            <Time>2022-07-10T05:30:27.000Z</Time>
            <Position>
              <LatitudeDegrees>42.79085847549140453338623046875</LatitudeDegrees>
              <LongitudeDegrees>-0.1438106596469879150390625</LongitudeDegrees>
            </Position>
            <AltitudeMeters>2150.800048828125</AltitudeMeters>
            <DistanceMeters>22467.352475062</DistanceMeters>
          </Trackpoint>
          <Trackpoint>
            <Time>2022-07-10T05:30:28.000Z</Time>
            <Position>
              <LatitudeDegrees>42.79084674082696437835693359375</LatitudeDegrees>
              <LongitudeDegrees>-0.1438047923147678375244140625</LongitudeDegrees>
            </Position>
            <AltitudeMeters>2150.800048828125</AltitudeMeters>
            <DistanceMeters>22468.742596049</DistanceMeters>
          </Trackpoint>
          <Trackpoint>
            <Time>2022-07-10T05:30:33.000Z</Time>
            <Position>
              <LatitudeDegrees>42.79078957624733448028564453125</LatitudeDegrees>
              <LongitudeDegrees>-0.14380462467670440673828125</LongitudeDegrees>
            </Position>
            <AltitudeMeters>2151.199951171875</AltitudeMeters>
            <DistanceMeters>22475.105839151</DistanceMeters>
          </Trackpoint>
          <Trackpoint>
            <Time>2022-07-10T05:30:37.000Z</Time>
            <Position>
              <LatitudeDegrees>42.7907489240169525146484375</LatitudeDegrees>
              <LongitudeDegrees>-0.143799595534801483154296875</LongitudeDegrees>
            </Position>
            <AltitudeMeters>2151.199951171875</AltitudeMeters>
            <DistanceMeters>22479.650262638</DistanceMeters>
          </Trackpoint>
          <Trackpoint>
            <Time>2022-07-10T05:30:41.000Z</Time>
            <Position>
              <LatitudeDegrees>42.79070374555885791778564453125</LatitudeDegrees>
              <LongitudeDegrees>-0.1438051275908946990966796875</LongitudeDegrees>
            </Position>
            <AltitudeMeters>2151.199951171875</AltitudeMeters>
            <DistanceMeters>22484.699213599</DistanceMeters>
          </Trackpoint>
          <Trackpoint>
            <Time>2022-07-10T05:30:43.000Z</Time>
            <Position>
              <LatitudeDegrees>42.7906770072877407073974609375</LatitudeDegrees>
              <LongitudeDegrees>-0.1438145153224468231201171875</LongitudeDegrees>
            </Position>
            <AltitudeMeters>2151.60009765625</AltitudeMeters>
            <DistanceMeters>22487.772560302</DistanceMeters>
          </Trackpoint>
          <Trackpoint>
            <Time>2022-07-10T05:30:46.000Z</Time>
            <Position>
              <LatitudeDegrees>42.7906414680182933807373046875</LatitudeDegrees>
              <LongitudeDegrees>-0.14381761662662029266357421875</LongitudeDegrees>
            </Position>
            <AltitudeMeters>2152</AltitudeMeters>
            <DistanceMeters>22491.736438834</DistanceMeters>
          </Trackpoint>
          <Trackpoint>
            <Time>2022-07-10T05:30:52.000Z</Time>
            <Position>
              <LatitudeDegrees>42.79057801701128482818603515625</LatitudeDegrees>
              <LongitudeDegrees>-0.14381208457052707672119140625</LongitudeDegrees>
            </Position>
            <AltitudeMeters>2152.199951171875</AltitudeMeters>
            <DistanceMeters>22498.81385602</DistanceMeters>
          </Trackpoint>
          <Trackpoint>
            <Time>2022-07-10T05:30:55.000Z</Time>
            <Position>
              <LatitudeDegrees>42.7905371971428394317626953125</LatitudeDegrees>
              <LongitudeDegrees>-0.14383018948137760162353515625</LongitudeDegrees>
            </Position>
            <AltitudeMeters>2152</AltitudeMeters>
            <DistanceMeters>22503.591725132</DistanceMeters>
          </Trackpoint>
          <Trackpoint>
            <Time>2022-07-10T05:31:01.000Z</Time>
            <Position>
              <LatitudeDegrees>42.79047542251646518707275390625</LatitudeDegrees>
              <LongitudeDegrees>-0.14386204071342945098876953125</LongitudeDegrees>
            </Position>
            <AltitudeMeters>2152.39990234375</AltitudeMeters>
            <DistanceMeters>22510.943256096</DistanceMeters>
          </Trackpoint>
          <Trackpoint>
            <Time>2022-07-10T05:31:03.000Z</Time>
            <Position>
              <LatitudeDegrees>42.790463604032993316650390625</LatitudeDegrees>
              <LongitudeDegrees>-0.143858604133129119873046875</LongitudeDegrees>
            </Position>
            <AltitudeMeters>2152.39990234375</AltitudeMeters>
            <DistanceMeters>22512.293839467</DistanceMeters>
          </Trackpoint>
          <Trackpoint>
            <Time>2022-07-10T05:31:04.000Z</Time>
            <Position>
              <LatitudeDegrees>42.7904530428349971771240234375</LatitudeDegrees>
              <LongitudeDegrees>-0.14386036433279514312744140625</LongitudeDegrees>
            </Position>
            <AltitudeMeters>2152.39990234375</AltitudeMeters>
            <DistanceMeters>22513.480722749</DistanceMeters>
          </Trackpoint>
          <Trackpoint>
            <Time>2022-07-10T05:31:05.000Z</Time>
            <Position>
              <LatitudeDegrees>42.7904377877712249755859375</LatitudeDegrees>
              <LongitudeDegrees>-0.14386824332177639007568359375</LongitudeDegrees>
            </Position>
            <AltitudeMeters>2152.39990234375</AltitudeMeters>
            <DistanceMeters>22515.29869084</DistanceMeters>
          </Trackpoint>
          <Trackpoint>
            <Time>2022-07-10T05:31:06.000Z</Time>
            <Position>
              <LatitudeDegrees>42.790422029793262481689453125</LatitudeDegrees>
              <LongitudeDegrees>-0.14387696050107479095458984375</LongitudeDegrees>
            </Position>
            <AltitudeMeters>2152.39990234375</AltitudeMeters>
            <DistanceMeters>22517.18969858</DistanceMeters>
          </Trackpoint>
          <Trackpoint>
            <Time>2022-07-10T05:31:08.000Z</Time>
            <Position>
              <LatitudeDegrees>42.79039948247373104095458984375</LatitudeDegrees>
              <LongitudeDegrees>-0.14389204792678356170654296875</LongitudeDegrees>
            </Position>
            <AltitudeMeters>2152.39990234375</AltitudeMeters>
            <DistanceMeters>22519.982902125</DistanceMeters>
          </Trackpoint>
          <Trackpoint>
            <Time>2022-07-10T05:31:10.000Z</Time>
            <Position>
              <LatitudeDegrees>42.79037752188742160797119140625</LatitudeDegrees>
              <LongitudeDegrees>-0.14390344731509685516357421875</LongitudeDegrees>
            </Position>
            <AltitudeMeters>2152.39990234375</AltitudeMeters>
            <DistanceMeters>22522.599158601</DistanceMeters>
          </Trackpoint>
          <Trackpoint>
            <Time>2022-07-10T05:31:13.000Z</Time>
            <Position>
              <LatitudeDegrees>42.7903477661311626434326171875</LatitudeDegrees>
              <LongitudeDegrees>-0.1439233124256134033203125</LongitudeDegrees>
            </Position>
            <AltitudeMeters>2152.800048828125</AltitudeMeters>
            <DistanceMeters>22526.286880814</DistanceMeters>
          </Trackpoint>
          <Trackpoint>
            <Time>2022-07-10T05:31:15.000Z</Time>
            <Position>
              <LatitudeDegrees>42.79033946804702281951904296875</LatitudeDegrees>
              <LongitudeDegrees>-0.143927000463008880615234375</LongitudeDegrees>
            </Position>
            <AltitudeMeters>2152.800048828125</AltitudeMeters>
            <DistanceMeters>22527.255966956</DistanceMeters>
          </Trackpoint>
          <Trackpoint>
            <Time>2022-07-10T05:31:16.000Z</Time>
            <Position>
              <LatitudeDegrees>42.79034131206572055816650390625</LatitudeDegrees>
              <LongitudeDegrees>-0.14392691664397716522216796875</LongitudeDegrees>
            </Position>
            <AltitudeMeters>2152.800048828125</AltitudeMeters>
            <DistanceMeters>22527.446020385</DistanceMeters>
          </Trackpoint>
          <Trackpoint>
            <Time>2022-07-10T05:31:19.000Z</Time>
            <Position>
              <LatitudeDegrees>42.7903457544744014739990234375</LatitudeDegrees>
              <LongitudeDegrees>-0.1439298503100872039794921875</LongitudeDegrees>
            </Position>
            <AltitudeMeters>2152.800048828125</AltitudeMeters>
            <DistanceMeters>22527.983572658</DistanceMeters>
          </Trackpoint>
          <Trackpoint>
            <Time>2022-07-10T05:31:20.000Z</Time>
            <Position>
              <LatitudeDegrees>42.7903439104557037353515625</LatitudeDegrees>
              <LongitudeDegrees>-0.14393060468137264251708984375</LongitudeDegrees>
            </Position>
            <AltitudeMeters>2153</AltitudeMeters>
            <DistanceMeters>22528.21633962</DistanceMeters>
          </Trackpoint>
          <Trackpoint>
            <Time>2022-07-10T05:31:23.000Z</Time>
            <Position>
              <LatitudeDegrees>42.7903393842279911041259765625</LatitudeDegrees>
              <LongitudeDegrees>-0.143943764269351959228515625</LongitudeDegrees>
            </Position>
            <AltitudeMeters>2153.60009765625</AltitudeMeters>
            <DistanceMeters>22529.403222902</DistanceMeters>
          </Trackpoint>
          <Trackpoint>
            <Time>2022-07-10T05:31:27.000Z</Time>
            <Position>
              <LatitudeDegrees>42.79034449718892574310302734375</LatitudeDegrees>
              <LongitudeDegrees>-0.14398206956684589385986328125</LongitudeDegrees>
            </Position>
            <AltitudeMeters>2154.199951171875</AltitudeMeters>
            <DistanceMeters>22532.583425037</DistanceMeters>
          </Trackpoint>
          <Trackpoint>
            <Time>2022-07-10T05:31:31.000Z</Time>
            <Position>
              <LatitudeDegrees>42.79033510945737361907958984375</LatitudeDegrees>
              <LongitudeDegrees>-0.14402163214981555938720703125</LongitudeDegrees>
            </Position>
            <AltitudeMeters>2155.199951171875</AltitudeMeters>
            <DistanceMeters>22535.979217672</DistanceMeters>
          </Trackpoint>
          <Trackpoint>
            <Time>2022-07-10T05:31:32.000Z</Time>
            <Position>
              <LatitudeDegrees>42.790326140820980072021484375</LatitudeDegrees>
              <LongitudeDegrees>-0.14402456581592559814453125</LongitudeDegrees>
            </Position>
            <AltitudeMeters>2155.39990234375</AltitudeMeters>
            <DistanceMeters>22537.002686707</DistanceMeters>
          </Trackpoint>
          <Trackpoint>
            <Time>2022-07-10T05:31:33.000Z</Time>
            <Position>
              <LatitudeDegrees>42.7903175912797451019287109375</LatitudeDegrees>
              <LongitudeDegrees>-0.14402867294847965240478515625</LongitudeDegrees>
            </Position>
            <AltitudeMeters>2155.60009765625</AltitudeMeters>
            <DistanceMeters>22538.008354924</DistanceMeters>
          </Trackpoint>
          <Trackpoint>
            <Time>2022-07-10T05:31:36.000Z</Time>
            <Position>
              <LatitudeDegrees>42.79030862264335155487060546875</LatitudeDegrees>
              <LongitudeDegrees>-0.1440414972603321075439453125</LongitudeDegrees>
            </Position>
            <AltitudeMeters>2156.39990234375</AltitudeMeters>
            <DistanceMeters>22539.458874766</DistanceMeters>
          </Trackpoint>
          <Trackpoint>
            <Time>2022-07-10T05:31:37.000Z</Time>
            <Position>
              <LatitudeDegrees>42.79031046666204929351806640625</LatitudeDegrees>
              <LongitudeDegrees>-0.1440492086112499237060546875</LongitudeDegrees>
            </Position>
            <AltitudeMeters>2156.60009765625</AltitudeMeters>
            <DistanceMeters>22540.124061766</DistanceMeters>
          </Trackpoint>
          <Trackpoint>
            <Time>2022-07-10T05:31:38.000Z</Time>
            <Position>
              <LatitudeDegrees>42.790309377014636993408203125</LatitudeDegrees>
              <LongitudeDegrees>-0.14405733905732631683349609375</LongitudeDegrees>
            </Position>
            <AltitudeMeters>2156.800048828125</AltitudeMeters>
            <DistanceMeters>22540.796002108</DistanceMeters>
          </Trackpoint>
          <Trackpoint>
            <Time>2022-07-10T05:31:42.000Z</Time>
            <Position>
              <LatitudeDegrees>42.7902877517044544219970703125</LatitudeDegrees>
              <LongitudeDegrees>-0.1441075466573238372802734375</LongitudeDegrees>
            </Position>
            <AltitudeMeters>2157.60009765625</AltitudeMeters>
            <DistanceMeters>22545.550187773</DistanceMeters>
          </Trackpoint>
          <Trackpoint>
            <Time>2022-07-10T05:31:44.000Z</Time>
            <Position>
              <LatitudeDegrees>42.7902719937264919281005859375</LatitudeDegrees>
              <LongitudeDegrees>-0.144125483930110931396484375</LongitudeDegrees>
            </Position>
            <AltitudeMeters>2157.800048828125</AltitudeMeters>
            <DistanceMeters>22547.834784933</DistanceMeters>
          </Trackpoint>
          <Trackpoint>
            <Time>2022-07-10T05:31:47.000Z</Time>
            <Position>
              <LatitudeDegrees>42.7902528829872608184814453125</LatitudeDegrees>
              <LongitudeDegrees>-0.14415641315281391143798828125</LongitudeDegrees>
            </Position>
            <AltitudeMeters>2158.800048828125</AltitudeMeters>
            <DistanceMeters>22551.137561393</DistanceMeters>
          </Trackpoint>
          <Trackpoint>
            <Time>2022-07-10T05:31:49.000Z</Time>
            <Position>
              <LatitudeDegrees>42.79023821465671062469482421875</LatitudeDegrees>
              <LongitudeDegrees>-0.144187174737453460693359375</LongitudeDegrees>
            </Position>
            <AltitudeMeters>2159.199951171875</AltitudeMeters>
            <DistanceMeters>22554.133541364</DistanceMeters>
          </Trackpoint>
          <Trackpoint>
            <Time>2022-07-10T05:31:51.000Z</Time>
            <Position>
              <LatitudeDegrees>42.7902344428002834320068359375</LatitudeDegrees>
              <LongitudeDegrees>-0.14421106316149234771728515625</LongitudeDegrees>
            </Position>
            <AltitudeMeters>2159.39990234375</AltitudeMeters>
            <DistanceMeters>22556.129102366</DistanceMeters>
          </Trackpoint>
          <Trackpoint>
            <Time>2022-07-10T05:31:52.000Z</Time>
            <Position>
              <LatitudeDegrees>42.79023318551480770111083984375</LatitudeDegrees>
              <LongitudeDegrees>-0.1442228816449642181396484375</LongitudeDegrees>
            </Position>
            <AltitudeMeters>2159.60009765625</AltitudeMeters>
            <DistanceMeters>22557.102836429</DistanceMeters>
          </Trackpoint>
          <Trackpoint>
            <Time>2022-07-10T05:31:53.000Z</Time>
            <Position>
              <LatitudeDegrees>42.79023067094385623931884765625</LatitudeDegrees>
              <LongitudeDegrees>-0.1442329399287700653076171875</LongitudeDegrees>
            </Position>
            <AltitudeMeters>2159.60009765625</AltitudeMeters>
            <DistanceMeters>22557.973770652</DistanceMeters>
          </Trackpoint>
          <Trackpoint>
            <Time>2022-07-10T05:31:55.000Z</Time>
            <Position>
              <LatitudeDegrees>42.7902320958673954010009765625</LatitudeDegrees>
              <LongitudeDegrees>-0.1442520506680011749267578125</LongitudeDegrees>
            </Position>
            <AltitudeMeters>2159.60009765625</AltitudeMeters>
            <DistanceMeters>22559.540991375</DistanceMeters>
          </Trackpoint>
          <Trackpoint>
            <Time>2022-07-10T05:31:57.000Z</Time>
            <Position>
              <LatitudeDegrees>42.790235616266727447509765625</LatitudeDegrees>
              <LongitudeDegrees>-0.1442661322653293609619140625</LongitudeDegrees>
            </Position>
            <AltitudeMeters>2159.800048828125</AltitudeMeters>
            <DistanceMeters>22560.750483989</DistanceMeters>
          </Trackpoint>
          <Trackpoint>
            <Time>2022-07-10T05:31:58.000Z</Time>
            <Position>
              <LatitudeDegrees>42.790236957371234893798828125</LatitudeDegrees>
              <LongitudeDegrees>-0.14427359215915203094482421875</LongitudeDegrees>
            </Position>
            <AltitudeMeters>2159.800048828125</AltitudeMeters>
            <DistanceMeters>22561.380819902</DistanceMeters>
          </Trackpoint>
          <Trackpoint>
            <Time>2022-07-10T05:32:04.000Z</Time>
            <Position>
              <LatitudeDegrees>42.7902153320610523223876953125</LatitudeDegrees>
              <LongitudeDegrees>-0.14433159492909908294677734375</LongitudeDegrees>
            </Position>
            <AltitudeMeters>2160.800048828125</AltitudeMeters>
            <DistanceMeters>22566.694674345</DistanceMeters>
          </Trackpoint>
          <Trackpoint>
            <Time>2022-07-10T05:32:05.000Z</Time>
            <Position>
              <LatitudeDegrees>42.790212817490100860595703125</LatitudeDegrees>
              <LongitudeDegrees>-0.14434768818318843841552734375</LongitudeDegrees>
            </Position>
            <AltitudeMeters>2161</AltitudeMeters>
            <DistanceMeters>22568.038555028</DistanceMeters>
          </Trackpoint>
          <Trackpoint>
            <Time>2022-07-10T05:32:07.000Z</Time>
            <Position>
              <LatitudeDegrees>42.7902019210159778594970703125</LatitudeDegrees>
              <LongitudeDegrees>-0.14436529017984867095947265625</LongitudeDegrees>
            </Position>
            <AltitudeMeters>2161.60009765625</AltitudeMeters>
            <DistanceMeters>22569.919987983</DistanceMeters>
          </Trackpoint>
          <Trackpoint>
            <Time>2022-07-10T05:32:09.000Z</Time>
            <Position>
              <LatitudeDegrees>42.790189683437347412109375</LatitudeDegrees>
              <LongitudeDegrees>-0.14438574202358722686767578125</LongitudeDegrees>
            </Position>
            <AltitudeMeters>2162</AltitudeMeters>
            <DistanceMeters>22572.074392609</DistanceMeters>
          </Trackpoint>
          <Trackpoint>
            <Time>2022-07-10T05:32:10.000Z</Time>
            <Position>
              <LatitudeDegrees>42.7901807986199855804443359375</LatitudeDegrees>
              <LongitudeDegrees>-0.1443911902606487274169921875</LongitudeDegrees>
            </Position>
            <AltitudeMeters>2162.199951171875</AltitudeMeters>
            <DistanceMeters>22573.157863854</DistanceMeters>
          </Trackpoint>
          <Trackpoint>
            <Time>2022-07-10T05:32:11.000Z</Time>
            <Position>
              <LatitudeDegrees>42.7901764400303363800048828125</LatitudeDegrees>
              <LongitudeDegrees>-0.144393704831600189208984375</LongitudeDegrees>
            </Position>
            <AltitudeMeters>2162.39990234375</AltitudeMeters>
            <DistanceMeters>22573.695416127</DistanceMeters>
          </Trackpoint>
          <Trackpoint>
            <Time>2022-07-10T05:32:12.000Z</Time>
            <Position>
              <LatitudeDegrees>42.79017367400228977203369140625</LatitudeDegrees>
              <LongitudeDegrees>-0.14439848251640796661376953125</LongitudeDegrees>
            </Position>
            <AltitudeMeters>2162.60009765625</AltitudeMeters>
            <DistanceMeters>22574.198250235</DistanceMeters>
          </Trackpoint>
          <Trackpoint>
            <Time>2022-07-10T05:32:17.000Z</Time>
            <Position>
              <LatitudeDegrees>42.79016084969043731689453125</LatitudeDegrees>
              <LongitudeDegrees>-0.14442647807300090789794921875</LongitudeDegrees>
            </Position>
            <AltitudeMeters>2163.60009765625</AltitudeMeters>
            <DistanceMeters>22576.892722625</DistanceMeters>
          </Trackpoint>
          <Trackpoint>
            <Time>2022-07-10T05:32:18.000Z</Time>
            <Position>
              <LatitudeDegrees>42.790159173309803009033203125</LatitudeDegrees>
              <LongitudeDegrees>-0.14444055967032909393310546875</LongitudeDegrees>
            </Position>
            <AltitudeMeters>2164</AltitudeMeters>
            <DistanceMeters>22578.056557436</DistanceMeters>
          </Trackpoint>
          <Trackpoint>
            <Time>2022-07-10T05:32:21.000Z</Time>
            <Position>
              <LatitudeDegrees>42.79015875421464443206787109375</LatitudeDegrees>
              <LongitudeDegrees>-0.1444773562252521514892578125</LongitudeDegrees>
            </Position>
            <AltitudeMeters>2164.60009765625</AltitudeMeters>
            <DistanceMeters>22581.061565995</DistanceMeters>
          </Trackpoint>
          <Trackpoint>
            <Time>2022-07-10T05:32:26.000Z</Time>
            <Position>
              <LatitudeDegrees>42.7901298366487026214599609375</LatitudeDegrees>
              <LongitudeDegrees>-0.1445397175848484039306640625</LongitudeDegrees>
            </Position>
            <AltitudeMeters>2165.60009765625</AltitudeMeters>
            <DistanceMeters>22587.086589423</DistanceMeters>
          </Trackpoint>
          <Trackpoint>
            <Time>2022-07-10T05:32:27.000Z</Time>
            <Position>
              <LatitudeDegrees>42.79012757353484630584716796875</LatitudeDegrees>
              <LongitudeDegrees>-0.1445403881371021270751953125</LongitudeDegrees>
            </Position>
            <AltitudeMeters>2165.800048828125</AltitudeMeters>
            <DistanceMeters>22587.35536556</DistanceMeters>
          </Trackpoint>
          <Trackpoint>
            <Time>2022-07-10T05:32:33.000Z</Time>
            <Position>
              <LatitudeDegrees>42.790123634040355682373046875</LatitudeDegrees>
              <LongitudeDegrees>-0.14457617886364459991455078125</LongitudeDegrees>
            </Position>
            <AltitudeMeters>2166.60009765625</AltitudeMeters>
            <DistanceMeters>22590.311903061</DistanceMeters>
          </Trackpoint>
          <Trackpoint>
            <Time>2022-07-10T05:32:37.000Z</Time>
            <Position>
              <LatitudeDegrees>42.79012539424002170562744140625</LatitudeDegrees>
              <LongitudeDegrees>-0.14459663070738315582275390625</LongitudeDegrees>
            </Position>
            <AltitudeMeters>2167</AltitudeMeters>
            <DistanceMeters>22591.99578073</DistanceMeters>
          </Trackpoint>
          <Trackpoint>
            <Time>2022-07-10T05:32:38.000Z</Time>
            <Position>
              <LatitudeDegrees>42.79012254439294338226318359375</LatitudeDegrees>
              <LongitudeDegrees>-0.14460434205830097198486328125</LongitudeDegrees>
            </Position>
            <AltitudeMeters>2167</AltitudeMeters>
            <DistanceMeters>22592.706895546</DistanceMeters>
          </Trackpoint>
          <Trackpoint>
            <Time>2022-07-10T05:32:39.000Z</Time>
            <Position>
              <LatitudeDegrees>42.79012195765972137451171875</LatitudeDegrees>
              <LongitudeDegrees>-0.14461222104728221893310546875</LongitudeDegrees>
            </Position>
            <AltitudeMeters>2167.199951171875</AltitudeMeters>
            <DistanceMeters>22593.358365877</DistanceMeters>
          </Trackpoint>
          <Trackpoint>
            <Time>2022-07-10T05:32:40.000Z</Time>
            <Position>
              <LatitudeDegrees>42.79012405313551425933837890625</LatitudeDegrees>
              <LongitudeDegrees>-0.14461758546531200408935546875</LongitudeDegrees>
            </Position>
            <AltitudeMeters>2167.39990234375</AltitudeMeters>
            <DistanceMeters>22593.861199985</DistanceMeters>
          </Trackpoint>
          <Trackpoint>
            <Time>2022-07-10T05:32:44.000Z</Time>
            <Position>
              <LatitudeDegrees>42.7901320159435272216796875</LatitudeDegrees>
              <LongitudeDegrees>-0.14463879168033599853515625</LongitudeDegrees>
            </Position>
            <AltitudeMeters>2168</AltitudeMeters>
            <DistanceMeters>22595.808668112</DistanceMeters>
          </Trackpoint>
          <Trackpoint>
            <Time>2022-07-10T05:32:47.000Z</Time>
            <Position>
              <LatitudeDegrees>42.79014165513217449188232421875</LatitudeDegrees>
              <LongitudeDegrees>-0.1446661166846752166748046875</LongitudeDegrees>
            </Position>
            <AltitudeMeters>2168.39990234375</AltitudeMeters>
            <DistanceMeters>22598.28301486</DistanceMeters>
          </Trackpoint>
          <Trackpoint>
            <Time>2022-07-10T05:32:50.000Z</Time>
            <Position>
              <LatitudeDegrees>42.7901439182460308074951171875</LatitudeDegrees>
              <LongitudeDegrees>-0.1446832157671451568603515625</LongitudeDegrees>
            </Position>
            <AltitudeMeters>2169.199951171875</AltitudeMeters>
            <DistanceMeters>22599.702066321</DistanceMeters>
          </Trackpoint>
          <Trackpoint>
            <Time>2022-07-10T05:32:54.000Z</Time>
            <Position>
              <LatitudeDegrees>42.79014433734118938446044921875</LatitudeDegrees>
              <LongitudeDegrees>-0.1446998119354248046875</LongitudeDegrees>
            </Position>
            <AltitudeMeters>2169.60009765625</AltitudeMeters>
            <DistanceMeters>22601.05931928</DistanceMeters>
          </Trackpoint>
          <Trackpoint>
            <Time>2022-07-10T05:32:57.000Z</Time>
            <Position>
              <LatitudeDegrees>42.79015439562499523162841796875</LatitudeDegrees>
              <LongitudeDegrees>-0.14471665956079959869384765625</LongitudeDegrees>
            </Position>
            <AltitudeMeters>2170.199951171875</AltitudeMeters>
            <DistanceMeters>22602.83201965</DistanceMeters>
          </Trackpoint>
          <Trackpoint>
            <Time>2022-07-10T05:33:01.000Z</Time>
            <Position>
              <LatitudeDegrees>42.7901717461645603179931640625</LatitudeDegrees>
              <LongitudeDegrees>-0.144731663167476654052734375</LongitudeDegrees>
            </Position>
            <AltitudeMeters>2170.60009765625</AltitudeMeters>
            <DistanceMeters>22605.120565987</DistanceMeters>
          </Trackpoint>
          <Trackpoint>
            <Time>2022-07-10T05:33:05.000Z</Time>
            <Position>
              <LatitudeDegrees>42.7902017533779144287109375</LatitudeDegrees>
              <LongitudeDegrees>-0.144746415317058563232421875</LongitudeDegrees>
            </Position>
            <AltitudeMeters>2171.39990234375</AltitudeMeters>
            <DistanceMeters>22608.67105704</DistanceMeters>
          </Trackpoint>
          <Trackpoint>
            <Time>2022-07-10T05:33:09.000Z</Time>
            <Position>
              <LatitudeDegrees>42.79021910391747951507568359375</LatitudeDegrees>
              <LongitudeDegrees>-0.14477365650236606597900390625</LongitudeDegrees>
            </Position>
            <AltitudeMeters>2172.39990234375</AltitudeMeters>
            <DistanceMeters>22611.615352097</DistanceMeters>
          </Trackpoint>
          <Trackpoint>
            <Time>2022-07-10T05:33:10.000Z</Time>
            <Position>
              <LatitudeDegrees>42.79022128321230411529541015625</LatitudeDegrees>
              <LongitudeDegrees>-0.14477985911071300506591796875</LongitudeDegrees>
            </Position>
            <AltitudeMeters>2172.60009765625</AltitudeMeters>
            <DistanceMeters>22612.185512384</DistanceMeters>
          </Trackpoint>
          <Trackpoint>
            <Time>2022-07-10T05:33:16.000Z</Time>
            <Position>
              <LatitudeDegrees>42.79022363014519214630126953125</LatitudeDegrees>
              <LongitudeDegrees>-0.14481523074209690093994140625</LongitudeDegrees>
            </Position>
            <AltitudeMeters>2173.39990234375</AltitudeMeters>
            <DistanceMeters>22615.084995298</DistanceMeters>
          </Trackpoint>
          <Trackpoint>
            <Time>2022-07-10T05:33:17.000Z</Time>
            <Position>
              <LatitudeDegrees>42.7902200259268283843994140625</LatitudeDegrees>
              <LongitudeDegrees>-0.144817493855953216552734375</LongitudeDegrees>
            </Position>
            <AltitudeMeters>2173.60009765625</AltitudeMeters>
            <DistanceMeters>22615.530710096</DistanceMeters>
          </Trackpoint>
          <Trackpoint>
            <Time>2022-07-10T05:33:18.000Z</Time>
            <Position>
              <LatitudeDegrees>42.790214158594608306884765625</LatitudeDegrees>
              <LongitudeDegrees>-0.14482176862657070159912109375</LongitudeDegrees>
            </Position>
            <AltitudeMeters>2174</AltitudeMeters>
            <DistanceMeters>22616.266783861</DistanceMeters>
          </Trackpoint>
          <Trackpoint>
            <Time>2022-07-10T05:33:20.000Z</Time>
            <Position>
              <LatitudeDegrees>42.79020418412983417510986328125</LatitudeDegrees>
              <LongitudeDegrees>-0.14483685605227947235107421875</LongitudeDegrees>
            </Position>
            <AltitudeMeters>2174.199951171875</AltitudeMeters>
            <DistanceMeters>22617.92363124</DistanceMeters>
          </Trackpoint>
          <Trackpoint>
            <Time>2022-07-10T05:33:22.000Z</Time>
            <Position>
              <LatitudeDegrees>42.79019194655120372772216796875</LatitudeDegrees>
              <LongitudeDegrees>-0.14485311694443225860595703125</LongitudeDegrees>
            </Position>
            <AltitudeMeters>2174.39990234375</AltitudeMeters>
            <DistanceMeters>22619.826539713</DistanceMeters>
          </Trackpoint>
          <Trackpoint>
            <Time>2022-07-10T05:33:24.000Z</Time>
            <Position>
              <LatitudeDegrees>42.790189348161220550537109375</LatitudeDegrees>
              <LongitudeDegrees>-0.14486636035144329071044921875</LongitudeDegrees>
            </Position>
            <AltitudeMeters>2174.60009765625</AltitudeMeters>
            <DistanceMeters>22620.95091096</DistanceMeters>
          </Trackpoint>
          <Trackpoint>
            <Time>2022-07-10T05:33:25.000Z</Time>
            <Position>
              <LatitudeDegrees>42.79019127599895000457763671875</LatitudeDegrees>
              <LongitudeDegrees>-0.1448716409504413604736328125</LongitudeDegrees>
            </Position>
            <AltitudeMeters>2174.800048828125</AltitudeMeters>
            <DistanceMeters>22621.426044532</DistanceMeters>
          </Trackpoint>
          <Trackpoint>
            <Time>2022-07-10T05:33:27.000Z</Time>
            <Position>
              <LatitudeDegrees>42.79019571840763092041015625</LatitudeDegrees>
              <LongitudeDegrees>-0.1448843814432621002197265625</LongitudeDegrees>
            </Position>
            <AltitudeMeters>2174.800048828125</AltitudeMeters>
            <DistanceMeters>22622.582094407</DistanceMeters>
          </Trackpoint>
          <Trackpoint>
            <Time>2022-07-10T05:33:28.000Z</Time>
            <Position>
              <LatitudeDegrees>42.79019898734986782073974609375</LatitudeDegrees>
              <LongitudeDegrees>-0.14489050023257732391357421875</LongitudeDegrees>
            </Position>
            <AltitudeMeters>2175</AltitudeMeters>
            <DistanceMeters>22623.197937902</DistanceMeters>
          </Trackpoint>
          <Trackpoint>
            <Time>2022-07-10T05:33:30.000Z</Time>
            <Position>
              <LatitudeDegrees>42.79020401649177074432373046875</LatitudeDegrees>
              <LongitudeDegrees>-0.14489670284092426300048828125</LongitudeDegrees>
            </Position>
            <AltitudeMeters>2175.39990234375</AltitudeMeters>
            <DistanceMeters>22623.946179</DistanceMeters>
          </Trackpoint>
          <Trackpoint>
            <Time>2022-07-10T05:33:32.000Z</Time>
            <Position>
              <LatitudeDegrees>42.79020368121564388275146484375</LatitudeDegrees>
              <LongitudeDegrees>-0.14491011388599872589111328125</LongitudeDegrees>
            </Position>
            <AltitudeMeters>2175.800048828125</AltitudeMeters>
            <DistanceMeters>22625.042080531</DistanceMeters>
          </Trackpoint>
          <Trackpoint>
            <Time>2022-07-10T05:33:36.000Z</Time>
            <Position>
              <LatitudeDegrees>42.79018742032349109649658203125</LatitudeDegrees>
              <LongitudeDegrees>-0.14492553658783435821533203125</LongitudeDegrees>
            </Position>
            <AltitudeMeters>2176.39990234375</AltitudeMeters>
            <DistanceMeters>22627.248256228</DistanceMeters>
          </Trackpoint>
          <Trackpoint>
            <Time>2022-07-10T05:33:38.000Z</Time>
            <Position>
              <LatitudeDegrees>42.79018901288509368896484375</LatitudeDegrees>
              <LongitudeDegrees>-0.1449262909591197967529296875</LongitudeDegrees>
            </Position>
            <AltitudeMeters>2176.800048828125</AltitudeMeters>
            <DistanceMeters>22627.438309656</DistanceMeters>
          </Trackpoint>
          <Trackpoint>
            <Time>2022-07-10T05:33:40.000Z</Time>
            <Position>
              <LatitudeDegrees>42.7901955507695674896240234375</LatitudeDegrees>
              <LongitudeDegrees>-0.144930146634578704833984375</LongitudeDegrees>
            </Position>
            <AltitudeMeters>2177.199951171875</AltitudeMeters>
            <DistanceMeters>22628.23336019</DistanceMeters>
          </Trackpoint>
          <Trackpoint>
            <Time>2022-07-10T05:33:43.000Z</Time>
            <Position>
              <LatitudeDegrees>42.79020401649177074432373046875</LatitudeDegrees>
              <LongitudeDegrees>-0.144940204918384552001953125</LongitudeDegrees>
            </Position>
            <AltitudeMeters>2177.800048828125</AltitudeMeters>
            <DistanceMeters>22629.483241474</DistanceMeters>
          </Trackpoint>
          <Trackpoint>
            <Time>2022-07-10T05:33:47.000Z</Time>
            <Position>
              <LatitudeDegrees>42.79020468704402446746826171875</LatitudeDegrees>
              <LongitudeDegrees>-0.144965350627899169921875</LongitudeDegrees>
            </Position>
            <AltitudeMeters>2178.60009765625</AltitudeMeters>
            <DistanceMeters>22631.534586307</DistanceMeters>
          </Trackpoint>
          <Trackpoint>
            <Time>2022-07-10T05:33:50.000Z</Time>
            <Position>
              <LatitudeDegrees>42.79020602814853191375732421875</LatitudeDegrees>
              <LongitudeDegrees>-0.14498152770102024078369140625</LongitudeDegrees>
            </Position>
            <AltitudeMeters>2178.800048828125</AltitudeMeters>
            <DistanceMeters>22632.858155281</DistanceMeters>
          </Trackpoint>
          <Trackpoint>
            <Time>2022-07-10T05:33:53.000Z</Time>
            <Position>
              <LatitudeDegrees>42.79021809808909893035888671875</LatitudeDegrees>
              <LongitudeDegrees>-0.1449933461844921112060546875</LongitudeDegrees>
            </Position>
            <AltitudeMeters>2179.60009765625</AltitudeMeters>
            <DistanceMeters>22634.509543511</DistanceMeters>
          </Trackpoint>
          <Trackpoint>
            <Time>2022-07-10T05:33:54.000Z</Time>
            <Position>
              <LatitudeDegrees>42.7902227081358432769775390625</LatitudeDegrees>
              <LongitudeDegrees>-0.144997201859951019287109375</LongitudeDegrees>
            </Position>
            <AltitudeMeters>2179.800048828125</AltitudeMeters>
            <DistanceMeters>22635.110545223</DistanceMeters>
          </Trackpoint>
          <Trackpoint>
            <Time>2022-07-10T05:33:57.000Z</Time>
            <Position>
              <LatitudeDegrees>42.79022564180195331573486328125</LatitudeDegrees>
              <LongitudeDegrees>-0.1450230181217193603515625</LongitudeDegrees>
            </Position>
            <AltitudeMeters>2179.800048828125</AltitudeMeters>
            <DistanceMeters>22637.24388967</DistanceMeters>
          </Trackpoint>
          <Trackpoint>
            <Time>2022-07-10T05:33:59.000Z</Time>
            <Position>
              <LatitudeDegrees>42.79021491296589374542236328125</LatitudeDegrees>
              <LongitudeDegrees>-0.14504657126963138580322265625</LongitudeDegrees>
            </Position>
            <AltitudeMeters>2180.199951171875</AltitudeMeters>
            <DistanceMeters>22639.508637652</DistanceMeters>
          </Trackpoint>
          <Trackpoint>
            <Time>2022-07-10T05:34:02.000Z</Time>
            <Position>
              <LatitudeDegrees>42.79019446112215518951416015625</LatitudeDegrees>
              <LongitudeDegrees>-0.145075321197509765625</LongitudeDegrees>
            </Position>
            <AltitudeMeters>2180.800048828125</AltitudeMeters>
            <DistanceMeters>22642.778440476</DistanceMeters>
          </Trackpoint>
          <Trackpoint>
            <Time>2022-07-10T05:34:05.000Z</Time>
            <Position>
              <LatitudeDegrees>42.7902059443295001983642578125</LatitudeDegrees>
              <LongitudeDegrees>-0.1450852118432521820068359375</LongitudeDegrees>
            </Position>
            <AltitudeMeters>2181.199951171875</AltitudeMeters>
            <DistanceMeters>22644.292917091</DistanceMeters>
          </Trackpoint>
          <Trackpoint>
            <Time>2022-07-10T05:34:06.000Z</Time>
            <Position>
              <LatitudeDegrees>42.79020803980529308319091796875</LatitudeDegrees>
              <LongitudeDegrees>-0.14508781023323535919189453125</LongitudeDegrees>
            </Position>
            <AltitudeMeters>2181.39990234375</AltitudeMeters>
            <DistanceMeters>22644.608085047</DistanceMeters>
          </Trackpoint>
          <Trackpoint>
            <Time>2022-07-10T05:34:11.000Z</Time>
            <Position>
              <LatitudeDegrees>42.7902180142700672149658203125</LatitudeDegrees>
              <LongitudeDegrees>-0.1451237685978412628173828125</LongitudeDegrees>
            </Position>
            <AltitudeMeters>2182.39990234375</AltitudeMeters>
            <DistanceMeters>22647.748283047</DistanceMeters>
          </Trackpoint>
          <Trackpoint>
            <Time>2022-07-10T05:34:13.000Z</Time>
            <Position>
              <LatitudeDegrees>42.7902258932590484619140625</LatitudeDegrees>
              <LongitudeDegrees>-0.145131982862949371337890625</LongitudeDegrees>
            </Position>
            <AltitudeMeters>2182.60009765625</AltitudeMeters>
            <DistanceMeters>22648.852393693</DistanceMeters>
          </Trackpoint>
          <Trackpoint>
            <Time>2022-07-10T05:34:17.000Z</Time>
            <Position>
              <LatitudeDegrees>42.7902284078299999237060546875</LatitudeDegrees>
              <LongitudeDegrees>-0.1451375149190425872802734375</LongitudeDegrees>
            </Position>
            <AltitudeMeters>2183.39990234375</AltitudeMeters>
            <DistanceMeters>22649.381480047</DistanceMeters>
          </Trackpoint>
          <Trackpoint>
            <Time>2022-07-10T05:34:21.000Z</Time>
            <Position>
              <LatitudeDegrees>42.790230922400951385498046875</LatitudeDegrees>
              <LongitudeDegrees>-0.1451512612402439117431640625</LongitudeDegrees>
            </Position>
            <AltitudeMeters>2184.199951171875</AltitudeMeters>
            <DistanceMeters>22650.533617729</DistanceMeters>
          </Trackpoint>
          <Trackpoint>
            <Time>2022-07-10T05:34:22.000Z</Time>
            <Position>
              <LatitudeDegrees>42.79023117385804653167724609375</LatitudeDegrees>
              <LongitudeDegrees>-0.14515067450702190399169921875</LongitudeDegrees>
            </Position>
            <AltitudeMeters>2184.39990234375</AltitudeMeters>
            <DistanceMeters>22650.533617729</DistanceMeters>
          </Trackpoint>
          <Trackpoint>
            <Time>2022-07-10T05:34:28.000Z</Time>
            <Position>
              <LatitudeDegrees>42.790215499699115753173828125</LatitudeDegrees>
              <LongitudeDegrees>-0.14516894705593585968017578125</LongitudeDegrees>
            </Position>
            <AltitudeMeters>2185.39990234375</AltitudeMeters>
            <DistanceMeters>22652.830042046</DistanceMeters>
          </Trackpoint>
          <Trackpoint>
            <Time>2022-07-10T05:34:34.000Z</Time>
            <Position>
              <LatitudeDegrees>42.79021960683166980743408203125</LatitudeDegrees>
              <LongitudeDegrees>-0.1451868005096912384033203125</LongitudeDegrees>
            </Position>
            <AltitudeMeters>2186.39990234375</AltitudeMeters>
            <DistanceMeters>22654.35639709</DistanceMeters>
          </Trackpoint>
          <Trackpoint>
            <Time>2022-07-10T05:34:35.000Z</Time>
            <Position>
              <LatitudeDegrees>42.79021717607975006103515625</LatitudeDegrees>
              <LongitudeDegrees>-0.1451868005096912384033203125</LongitudeDegrees>
            </Position>
            <AltitudeMeters>2186.60009765625</AltitudeMeters>
            <DistanceMeters>22654.625173227</DistanceMeters>
          </Trackpoint>
          <Trackpoint>
            <Time>2022-07-10T05:34:39.000Z</Time>
            <Position>
              <LatitudeDegrees>42.79019630514085292816162109375</LatitudeDegrees>
              <LongitudeDegrees>-0.14519057236611843109130859375</LongitudeDegrees>
            </Position>
            <AltitudeMeters>2187.800048828125</AltitudeMeters>
            <DistanceMeters>22656.968309262</DistanceMeters>
          </Trackpoint>
          <Trackpoint>
            <Time>2022-07-10T05:34:42.000Z</Time>
            <Position>
              <LatitudeDegrees>42.790185324847698211669921875</LatitudeDegrees>
              <LongitudeDegrees>-0.14519870281219482421875</LongitudeDegrees>
            </Position>
            <AltitudeMeters>2188.39990234375</AltitudeMeters>
            <DistanceMeters>22658.36167441</DistanceMeters>
          </Trackpoint>
          <Trackpoint>
            <Time>2022-07-10T05:34:48.000Z</Time>
            <Position>
              <LatitudeDegrees>42.7901747636497020721435546875</LatitudeDegrees>
              <LongitudeDegrees>-0.1451075077056884765625</LongitudeDegrees>
            </Position>
            <AltitudeMeters>2189</AltitudeMeters>
            <DistanceMeters>22665.902988715</DistanceMeters>
          </Trackpoint>
          <Trackpoint>
            <Time>2022-07-10T05:34:49.000Z</Time>
            <Position>
              <LatitudeDegrees>42.790164537727832794189453125</LatitudeDegrees>
              <LongitudeDegrees>-0.1451016403734683990478515625</LongitudeDegrees>
            </Position>
            <AltitudeMeters>2189.199951171875</AltitudeMeters>
            <DistanceMeters>22667.138336001</DistanceMeters>
          </Trackpoint>
          <Trackpoint>
            <Time>2022-07-10T05:34:50.000Z</Time>
            <Position>
              <LatitudeDegrees>42.790153138339519500732421875</LatitudeDegrees>
              <LongitudeDegrees>-0.14510951936244964599609375</LongitudeDegrees>
            </Position>
            <AltitudeMeters>2189.199951171875</AltitudeMeters>
            <DistanceMeters>22668.563736717</DistanceMeters>
          </Trackpoint>
          <Trackpoint>
            <Time>2022-07-10T05:34:54.000Z</Time>
            <Position>
              <LatitudeDegrees>42.79013427905738353729248046875</LatitudeDegrees>
              <LongitudeDegrees>-0.14514044858515262603759765625</LongitudeDegrees>
            </Position>
            <AltitudeMeters>2190</AltitudeMeters>
            <DistanceMeters>22671.850067715</DistanceMeters>
          </Trackpoint>
          <Trackpoint>
            <Time>2022-07-10T05:34:56.000Z</Time>
            <Position>
              <LatitudeDegrees>42.79012371785938739776611328125</LatitudeDegrees>
              <LongitudeDegrees>-0.1451626606285572052001953125</LongitudeDegrees>
            </Position>
            <AltitudeMeters>2190.39990234375</AltitudeMeters>
            <DistanceMeters>22674.010750366</DistanceMeters>
          </Trackpoint>
          <Trackpoint>
            <Time>2022-07-10T05:35:00.000Z</Time>
            <Position>
              <LatitudeDegrees>42.79011583887040615081787109375</LatitudeDegrees>
              <LongitudeDegrees>-0.1452075876295566558837890625</LongitudeDegrees>
            </Position>
            <AltitudeMeters>2191.199951171875</AltitudeMeters>
            <DistanceMeters>22677.783203212</DistanceMeters>
          </Trackpoint>
          <Trackpoint>
            <Time>2022-07-10T05:35:01.000Z</Time>
            <Position>
              <LatitudeDegrees>42.79011667706072330474853515625</LatitudeDegrees>
              <LongitudeDegrees>-0.1452146284282207489013671875</LongitudeDegrees>
            </Position>
            <AltitudeMeters>2191.39990234375</AltitudeMeters>
            <DistanceMeters>22678.368987221</DistanceMeters>
          </Trackpoint>
          <Trackpoint>
            <Time>2022-07-10T05:35:05.000Z</Time>
            <Position>
              <LatitudeDegrees>42.79011852107942104339599609375</LatitudeDegrees>
              <LongitudeDegrees>-0.1452555321156978607177734375</LongitudeDegrees>
            </Position>
            <AltitudeMeters>2192.199951171875</AltitudeMeters>
            <DistanceMeters>22681.715223135</DistanceMeters>
          </Trackpoint>
          <Trackpoint>
            <Time>2022-07-10T05:35:06.000Z</Time>
            <Position>
              <LatitudeDegrees>42.7901164256036281585693359375</LatitudeDegrees>
              <LongitudeDegrees>-0.14526852406561374664306640625</LongitudeDegrees>
            </Position>
            <AltitudeMeters>2192.199951171875</AltitudeMeters>
            <DistanceMeters>22682.806996963</DistanceMeters>
          </Trackpoint>
          <Trackpoint>
            <Time>2022-07-10T05:35:08.000Z</Time>
            <Position>
              <LatitudeDegrees>42.7901097200810909271240234375</LatitudeDegrees>
              <LongitudeDegrees>-0.14530397951602935791015625</LongitudeDegrees>
            </Position>
            <AltitudeMeters>2192.60009765625</AltitudeMeters>
            <DistanceMeters>22685.79845242</DistanceMeters>
          </Trackpoint>
          <Trackpoint>
            <Time>2022-07-10T05:35:13.000Z</Time>
            <Position>
              <LatitudeDegrees>42.79010427184402942657470703125</LatitudeDegrees>
              <LongitudeDegrees>-0.1452853716909885406494140625</LongitudeDegrees>
            </Position>
            <AltitudeMeters>2193.199951171875</AltitudeMeters>
            <DistanceMeters>22687.433353832</DistanceMeters>
          </Trackpoint>
          <Trackpoint>
            <Time>2022-07-10T05:35:14.000Z</Time>
            <Position>
              <LatitudeDegrees>42.7900966443121433258056640625</LatitudeDegrees>
              <LongitudeDegrees>-0.145283527672290802001953125</LongitudeDegrees>
            </Position>
            <AltitudeMeters>2193.39990234375</AltitudeMeters>
            <DistanceMeters>22688.29385733</DistanceMeters>
          </Trackpoint>
          <Trackpoint>
            <Time>2022-07-10T05:35:15.000Z</Time>
            <Position>
              <LatitudeDegrees>42.790093459188938140869140625</LatitudeDegrees>
              <LongitudeDegrees>-0.1452831923961639404296875</LongitudeDegrees>
            </Position>
            <AltitudeMeters>2193.800048828125</AltitudeMeters>
            <DistanceMeters>22688.649414737</DistanceMeters>
          </Trackpoint>
          <Trackpoint>
            <Time>2022-07-10T05:35:16.000Z</Time>
            <Position>
              <LatitudeDegrees>42.7900929562747478485107421875</LatitudeDegrees>
              <LongitudeDegrees>-0.145282186567783355712890625</LongitudeDegrees>
            </Position>
            <AltitudeMeters>2193.800048828125</AltitudeMeters>
            <DistanceMeters>22688.783802806</DistanceMeters>
          </Trackpoint>
          <Trackpoint>
            <Time>2022-07-10T05:35:17.000Z</Time>
            <Position>
              <LatitudeDegrees>42.79009287245571613311767578125</LatitudeDegrees>
              <LongitudeDegrees>-0.1452791690826416015625</LongitudeDegrees>
            </Position>
            <AltitudeMeters>2194</AltitudeMeters>
            <DistanceMeters>22689.016569768</DistanceMeters>
          </Trackpoint>
          <Trackpoint>
            <Time>2022-07-10T05:35:18.000Z</Time>
            <Position>
              <LatitudeDegrees>42.790090106427669525146484375</LatitudeDegrees>
              <LongitudeDegrees>-0.14527908526360988616943359375</LongitudeDegrees>
            </Position>
            <AltitudeMeters>2194.199951171875</AltitudeMeters>
            <DistanceMeters>22689.331737724</DistanceMeters>
          </Trackpoint>
          <Trackpoint>
            <Time>2022-07-10T05:35:19.000Z</Time>
            <Position>
              <LatitudeDegrees>42.79008247889578342437744140625</LatitudeDegrees>
              <LongitudeDegrees>-0.1452779956161975860595703125</LongitudeDegrees>
            </Position>
            <AltitudeMeters>2194.60009765625</AltitudeMeters>
            <DistanceMeters>22690.192241221</DistanceMeters>
          </Trackpoint>
          <Trackpoint>
            <Time>2022-07-10T05:35:21.000Z</Time>
            <Position>
              <LatitudeDegrees>42.7900676429271697998046875</LatitudeDegrees>
              <LongitudeDegrees>-0.14527623541653156280517578125</LongitudeDegrees>
            </Position>
            <AltitudeMeters>2195</AltitudeMeters>
            <DistanceMeters>22691.851811441</DistanceMeters>
          </Trackpoint>
          <Trackpoint>
            <Time>2022-07-10T05:35:27.000Z</Time>
            <Position>
              <LatitudeDegrees>42.7900399826467037200927734375</LatitudeDegrees>
              <LongitudeDegrees>-0.1452954299747943878173828125</LongitudeDegrees>
            </Position>
            <AltitudeMeters>2195.60009765625</AltitudeMeters>
            <DistanceMeters>22695.306917961</DistanceMeters>
          </Trackpoint>
          <Trackpoint>
            <Time>2022-07-10T05:35:33.000Z</Time>
            <Position>
              <LatitudeDegrees>42.79000268317759037017822265625</LatitudeDegrees>
              <LongitudeDegrees>-0.14532543718814849853515625</LongitudeDegrees>
            </Position>
            <AltitudeMeters>2196.60009765625</AltitudeMeters>
            <DistanceMeters>22700.128060643</DistanceMeters>
          </Trackpoint>
          <Trackpoint>
            <Time>2022-07-10T05:35:34.000Z</Time>
            <Position>
              <LatitudeDegrees>42.78999983333051204681396484375</LatitudeDegrees>
              <LongitudeDegrees>-0.14532920904457569122314453125</LongitudeDegrees>
            </Position>
            <AltitudeMeters>2196.800048828125</AltitudeMeters>
            <DistanceMeters>22700.573775442</DistanceMeters>
          </Trackpoint>
          <Trackpoint>
            <Time>2022-07-10T05:35:38.000Z</Time>
            <Position>
              <LatitudeDegrees>42.789978794753551483154296875</LatitudeDegrees>
              <LongitudeDegrees>-0.1453480683267116546630859375</LongitudeDegrees>
            </Position>
            <AltitudeMeters>2197.800048828125</AltitudeMeters>
            <DistanceMeters>22703.378271222</DistanceMeters>
          </Trackpoint>
          <Trackpoint>
            <Time>2022-07-10T05:35:40.000Z</Time>
            <Position>
              <LatitudeDegrees>42.78996228240430355072021484375</LatitudeDegrees>
              <LongitudeDegrees>-0.14536458067595958709716796875</LongitudeDegrees>
            </Position>
            <AltitudeMeters>2198</AltitudeMeters>
            <DistanceMeters>22705.656931784</DistanceMeters>
          </Trackpoint>
          <Trackpoint>
            <Time>2022-07-10T05:35:45.000Z</Time>
            <Position>
              <LatitudeDegrees>42.78993613086640834808349609375</LatitudeDegrees>
              <LongitudeDegrees>-0.1453836075961589813232421875</LongitudeDegrees>
            </Position>
            <AltitudeMeters>2198.800048828125</AltitudeMeters>
            <DistanceMeters>22708.956973025</DistanceMeters>
          </Trackpoint>
          <Trackpoint>
            <Time>2022-07-10T05:35:47.000Z</Time>
            <Position>
              <LatitudeDegrees>42.789935208857059478759765625</LatitudeDegrees>
              <LongitudeDegrees>-0.145390816032886505126953125</LongitudeDegrees>
            </Position>
            <AltitudeMeters>2199.199951171875</AltitudeMeters>
            <DistanceMeters>22709.542757034</DistanceMeters>
          </Trackpoint>
          <Trackpoint>
            <Time>2022-07-10T05:35:51.000Z</Time>
            <Position>
              <LatitudeDegrees>42.78991769067943096160888671875</LatitudeDegrees>
              <LongitudeDegrees>-0.1453993655741214752197265625</LongitudeDegrees>
            </Position>
            <AltitudeMeters>2200</AltitudeMeters>
            <DistanceMeters>22711.613816258</DistanceMeters>
          </Trackpoint>
          <Trackpoint>
            <Time>2022-07-10T05:35:53.000Z</Time>
            <Position>
              <LatitudeDegrees>42.78990645892918109893798828125</LatitudeDegrees>
              <LongitudeDegrees>-0.14540313743054866790771484375</LongitudeDegrees>
            </Position>
            <AltitudeMeters>2200.199951171875</AltitudeMeters>
            <DistanceMeters>22712.902821326</DistanceMeters>
          </Trackpoint>
          <Trackpoint>
            <Time>2022-07-10T05:35:59.000Z</Time>
            <Position>
              <LatitudeDegrees>42.78986505232751369476318359375</LatitudeDegrees>
              <LongitudeDegrees>-0.14543733559548854827880859375</LongitudeDegrees>
            </Position>
            <AltitudeMeters>2201</AltitudeMeters>
            <DistanceMeters>22718.291766106</DistanceMeters>
          </Trackpoint>
          <Trackpoint>
            <Time>2022-07-10T05:36:00.000Z</Time>
            <Position>
              <LatitudeDegrees>42.789859436452388763427734375</LatitudeDegrees>
              <LongitudeDegrees>-0.14544219709932804107666015625</LongitudeDegrees>
            </Position>
            <AltitudeMeters>2201.199951171875</AltitudeMeters>
            <DistanceMeters>22719.027839871</DistanceMeters>
          </Trackpoint>
          <Trackpoint>
            <Time>2022-07-10T05:36:02.000Z</Time>
            <Position>
              <LatitudeDegrees>42.78985130600631237030029296875</LatitudeDegrees>
              <LongitudeDegrees>-0.1454352401196956634521484375</LongitudeDegrees>
            </Position>
            <AltitudeMeters>2201.60009765625</AltitudeMeters>
            <DistanceMeters>22720.094512094</DistanceMeters>
          </Trackpoint>
          <Trackpoint>
            <Time>2022-07-10T05:36:07.000Z</Time>
            <Position>
              <LatitudeDegrees>42.78980570845305919647216796875</LatitudeDegrees>
              <LongitudeDegrees>-0.14540229924023151397705078125</LongitudeDegrees>
            </Position>
            <AltitudeMeters>2202.199951171875</AltitudeMeters>
            <DistanceMeters>22725.838717812</DistanceMeters>
          </Trackpoint>
          <Trackpoint>
            <Time>2022-07-10T05:36:13.000Z</Time>
            <Position>
              <LatitudeDegrees>42.78976731933653354644775390625</LatitudeDegrees>
              <LongitudeDegrees>-0.1454459689557552337646484375</LongitudeDegrees>
            </Position>
            <AltitudeMeters>2202.800048828125</AltitudeMeters>
            <DistanceMeters>22731.404882764</DistanceMeters>
          </Trackpoint>
          <Trackpoint>
            <Time>2022-07-10T05:36:15.000Z</Time>
            <Position>
              <LatitudeDegrees>42.7897580154240131378173828125</LatitudeDegrees>
              <LongitudeDegrees>-0.14546683989465236663818359375</LongitudeDegrees>
            </Position>
            <AltitudeMeters>2203.199951171875</AltitudeMeters>
            <DistanceMeters>22733.400443766</DistanceMeters>
          </Trackpoint>
          <Trackpoint>
            <Time>2022-07-10T05:36:21.000Z</Time>
            <Position>
              <LatitudeDegrees>42.7897291816771030426025390625</LatitudeDegrees>
              <LongitudeDegrees>-0.145505480468273162841796875</LongitudeDegrees>
            </Position>
            <AltitudeMeters>2204</AltitudeMeters>
            <DistanceMeters>22737.901942576</DistanceMeters>
          </Trackpoint>
          <Trackpoint>
            <Time>2022-07-10T05:36:24.000Z</Time>
            <Position>
              <LatitudeDegrees>42.78970814310014247894287109375</LatitudeDegrees>
              <LongitudeDegrees>-0.14553791843354701995849609375</LongitudeDegrees>
            </Position>
            <AltitudeMeters>2204.199951171875</AltitudeMeters>
            <DistanceMeters>22741.439694115</DistanceMeters>
          </Trackpoint>
          <Trackpoint>
            <Time>2022-07-10T05:36:26.000Z</Time>
            <Position>
              <LatitudeDegrees>42.7897026948630809783935546875</LatitudeDegrees>
              <LongitudeDegrees>-0.14555099420249462127685546875</LongitudeDegrees>
            </Position>
            <AltitudeMeters>2204.60009765625</AltitudeMeters>
            <DistanceMeters>22742.671381106</DistanceMeters>
          </Trackpoint>
          <Trackpoint>
            <Time>2022-07-10T05:36:27.000Z</Time>
            <Position>
              <LatitudeDegrees>42.7896986715495586395263671875</LatitudeDegrees>
              <LongitudeDegrees>-0.1455566100776195526123046875</LongitudeDegrees>
            </Position>
            <AltitudeMeters>2204.800048828125</AltitudeMeters>
            <DistanceMeters>22743.31588364</DistanceMeters>
          </Trackpoint>
          <Trackpoint>
            <Time>2022-07-10T05:36:33.000Z</Time>
            <Position>
              <LatitudeDegrees>42.7896597795188426971435546875</LatitudeDegrees>
              <LongitudeDegrees>-0.14559759758412837982177734375</LongitudeDegrees>
            </Position>
            <AltitudeMeters>2205.199951171875</AltitudeMeters>
            <DistanceMeters>22748.787970398</DistanceMeters>
          </Trackpoint>
          <Trackpoint>
            <Time>2022-07-10T05:36:34.000Z</Time>
            <Position>
              <LatitudeDegrees>42.7896581031382083892822265625</LatitudeDegrees>
              <LongitudeDegrees>-0.14560547657310962677001953125</LongitudeDegrees>
            </Position>
            <AltitudeMeters>2205.39990234375</AltitudeMeters>
            <DistanceMeters>22749.459910739</DistanceMeters>
          </Trackpoint>
          <Trackpoint>
            <Time>2022-07-10T05:36:39.000Z</Time>
            <Position>
              <LatitudeDegrees>42.78964519500732421875</LatitudeDegrees>
              <LongitudeDegrees>-0.14564503915607929229736328125</LongitudeDegrees>
            </Position>
            <AltitudeMeters>2205.60009765625</AltitudeMeters>
            <DistanceMeters>22752.996385803</DistanceMeters>
          </Trackpoint>
          <Trackpoint>
            <Time>2022-07-10T05:36:43.000Z</Time>
            <Position>
              <LatitudeDegrees>42.78962415643036365509033203125</LatitudeDegrees>
              <LongitudeDegrees>-0.14566716738045215606689453125</LongitudeDegrees>
            </Position>
            <AltitudeMeters>2206.39990234375</AltitudeMeters>
            <DistanceMeters>22755.954450047</DistanceMeters>
          </Trackpoint>
          <Trackpoint>
            <Time>2022-07-10T05:36:48.000Z</Time>
            <Position>
              <LatitudeDegrees>42.7896074764430522918701171875</LatitudeDegrees>
              <LongitudeDegrees>-0.14570295810699462890625</LongitudeDegrees>
            </Position>
            <AltitudeMeters>2207.39990234375</AltitudeMeters>
            <DistanceMeters>22759.414779709</DistanceMeters>
          </Trackpoint>
          <Trackpoint>
            <Time>2022-07-10T05:36:49.000Z</Time>
            <Position>
              <LatitudeDegrees>42.7896131761372089385986328125</LatitudeDegrees>
              <LongitudeDegrees>-0.14571393840014934539794921875</LongitudeDegrees>
            </Position>
            <AltitudeMeters>2207.60009765625</AltitudeMeters>
            <DistanceMeters>22760.506553536</DistanceMeters>
          </Trackpoint>
          <Trackpoint>
            <Time>2022-07-10T05:36:50.000Z</Time>
            <Position>
              <LatitudeDegrees>42.78962113894522190093994140625</LatitudeDegrees>
              <LongitudeDegrees>-0.14572776854038238525390625</LongitudeDegrees>
            </Position>
            <AltitudeMeters>2207.800048828125</AltitudeMeters>
            <DistanceMeters>22761.941425457</DistanceMeters>
          </Trackpoint>
          <Trackpoint>
            <Time>2022-07-10T05:36:55.000Z</Time>
            <Position>
              <LatitudeDegrees>42.7896617911756038665771484375</LatitudeDegrees>
              <LongitudeDegrees>-0.14578384347259998321533203125</LongitudeDegrees>
            </Position>
            <AltitudeMeters>2208.199951171875</AltitudeMeters>
            <DistanceMeters>22768.379441524</DistanceMeters>
          </Trackpoint>
          <Trackpoint>
            <Time>2022-07-10T05:37:00.000Z</Time>
            <Position>
              <LatitudeDegrees>42.78968601487576961517333984375</LatitudeDegrees>
              <LongitudeDegrees>-0.14579993672668933868408203125</LongitudeDegrees>
            </Position>
            <AltitudeMeters>2208.39990234375</AltitudeMeters>
            <DistanceMeters>22771.376928148</DistanceMeters>
          </Trackpoint>
          <Trackpoint>
            <Time>2022-07-10T05:37:02.000Z</Time>
            <Position>
              <LatitudeDegrees>42.78968609869480133056640625</LatitudeDegrees>
              <LongitudeDegrees>-0.14580312184989452362060546875</LongitudeDegrees>
            </Position>
            <AltitudeMeters>2208.60009765625</AltitudeMeters>
            <DistanceMeters>22771.645704284</DistanceMeters>
          </Trackpoint>
          <Trackpoint>
            <Time>2022-07-10T05:37:06.000Z</Time>
            <Position>
              <LatitudeDegrees>42.78966128826141357421875</LatitudeDegrees>
              <LongitudeDegrees>-0.14581502415239810943603515625</LongitudeDegrees>
            </Position>
            <AltitudeMeters>2209.39990234375</AltitudeMeters>
            <DistanceMeters>22774.573082385</DistanceMeters>
          </Trackpoint>
          <Trackpoint>
            <Time>2022-07-10T05:37:07.000Z</Time>
            <Position>
              <LatitudeDegrees>42.789653241634368896484375</LatitudeDegrees>
              <LongitudeDegrees>-0.14581401832401752471923828125</LongitudeDegrees>
            </Position>
            <AltitudeMeters>2210</AltitudeMeters>
            <DistanceMeters>22775.474584953</DistanceMeters>
          </Trackpoint>
          <Trackpoint>
            <Time>2022-07-10T05:37:11.000Z</Time>
            <Position>
              <LatitudeDegrees>42.78962038457393646240234375</LatitudeDegrees>
              <LongitudeDegrees>-0.14582491479814052581787109375</LongitudeDegrees>
            </Position>
            <AltitudeMeters>2210.39990234375</AltitudeMeters>
            <DistanceMeters>22779.238650566</DistanceMeters>
          </Trackpoint>
          <Trackpoint>
            <Time>2022-07-10T05:37:12.000Z</Time>
            <Position>
              <LatitudeDegrees>42.78961678035557270050048828125</LatitudeDegrees>
              <LongitudeDegrees>-0.14582726173102855682373046875</LongitudeDegrees>
            </Position>
            <AltitudeMeters>2210.60009765625</AltitudeMeters>
            <DistanceMeters>22779.684365365</DistanceMeters>
          </Trackpoint>
          <Trackpoint>
            <Time>2022-07-10T05:37:14.000Z</Time>
            <Position>
              <LatitudeDegrees>42.7896078117191791534423828125</LatitudeDegrees>
              <LongitudeDegrees>-0.14584310352802276611328125</LongitudeDegrees>
            </Position>
            <AltitudeMeters>2211</AltitudeMeters>
            <DistanceMeters>22781.316502783</DistanceMeters>
          </Trackpoint>
          <Trackpoint>
            <Time>2022-07-10T05:37:18.000Z</Time>
            <Position>
              <LatitudeDegrees>42.78957654722034931182861328125</LatitudeDegrees>
              <LongitudeDegrees>-0.14586699195206165313720703125</LongitudeDegrees>
            </Position>
            <AltitudeMeters>2212</AltitudeMeters>
            <DistanceMeters>22785.305361604</DistanceMeters>
          </Trackpoint>
          <Trackpoint>
            <Time>2022-07-10T05:37:20.000Z</Time>
            <Position>
              <LatitudeDegrees>42.78956447727978229522705078125</LatitudeDegrees>
              <LongitudeDegrees>-0.14587671495974063873291015625</LongitudeDegrees>
            </Position>
            <AltitudeMeters>2212.39990234375</AltitudeMeters>
            <DistanceMeters>22786.866809855</DistanceMeters>
          </Trackpoint>
          <Trackpoint>
            <Time>2022-07-10T05:37:24.000Z</Time>
            <Position>
              <LatitudeDegrees>42.7895494736731052398681640625</LatitudeDegrees>
              <LongitudeDegrees>-0.14589180238544940948486328125</LongitudeDegrees>
            </Position>
            <AltitudeMeters>2213</AltitudeMeters>
            <DistanceMeters>22788.942224624</DistanceMeters>
          </Trackpoint>
          <Trackpoint>
            <Time>2022-07-10T05:37:28.000Z</Time>
            <Position>
              <LatitudeDegrees>42.78953832574188709259033203125</LatitudeDegrees>
              <LongitudeDegrees>-0.14590881764888763427734375</LongitudeDegrees>
            </Position>
            <AltitudeMeters>2213.60009765625</AltitudeMeters>
            <DistanceMeters>22790.804360321</DistanceMeters>
          </Trackpoint>
          <Trackpoint>
            <Time>2022-07-10T05:37:30.000Z</Time>
            <Position>
              <LatitudeDegrees>42.789526171982288360595703125</LatitudeDegrees>
              <LongitudeDegrees>-0.1459109969437122344970703125</LongitudeDegrees>
            </Position>
            <AltitudeMeters>2214.199951171875</AltitudeMeters>
            <DistanceMeters>22792.168250253</DistanceMeters>
          </Trackpoint>
          <Trackpoint>
            <Time>2022-07-10T05:37:36.000Z</Time>
            <Position>
              <LatitudeDegrees>42.789492309093475341796875</LatitudeDegrees>
              <LongitudeDegrees>-0.1459291018545627593994140625</LongitudeDegrees>
            </Position>
            <AltitudeMeters>2214.800048828125</AltitudeMeters>
            <DistanceMeters>22796.217771067</DistanceMeters>
          </Trackpoint>
          <Trackpoint>
            <Time>2022-07-10T05:37:38.000Z</Time>
            <Position>
              <LatitudeDegrees>42.78949976898729801177978515625</LatitudeDegrees>
              <LongitudeDegrees>-0.14594092033803462982177734375</LongitudeDegrees>
            </Position>
            <AltitudeMeters>2215.39990234375</AltitudeMeters>
            <DistanceMeters>22797.492688225</DistanceMeters>
          </Trackpoint>
          <Trackpoint>
            <Time>2022-07-10T05:37:41.000Z</Time>
            <Position>
              <LatitudeDegrees>42.78951452113687992095947265625</LatitudeDegrees>
              <LongitudeDegrees>-0.14597176574170589447021484375</LongitudeDegrees>
            </Position>
            <AltitudeMeters>2216</AltitudeMeters>
            <DistanceMeters>22800.500700293</DistanceMeters>
          </Trackpoint>
          <Trackpoint>
            <Time>2022-07-10T05:37:42.000Z</Time>
            <Position>
              <LatitudeDegrees>42.7895176224410533905029296875</LatitudeDegrees>
              <LongitudeDegrees>-0.1459832489490509033203125</LongitudeDegrees>
            </Position>
            <AltitudeMeters>2216.199951171875</AltitudeMeters>
            <DistanceMeters>22801.497348881</DistanceMeters>
          </Trackpoint>
          <Trackpoint>
            <Time>2022-07-10T05:37:44.000Z</Time>
            <Position>
              <LatitudeDegrees>42.78951569460332393646240234375</LatitudeDegrees>
              <LongitudeDegrees>-0.14600445516407489776611328125</LongitudeDegrees>
            </Position>
            <AltitudeMeters>2216.60009765625</AltitudeMeters>
            <DistanceMeters>22803.241807468</DistanceMeters>
          </Trackpoint>
          <Trackpoint>
            <Time>2022-07-10T05:37:48.000Z</Time>
            <Position>
              <LatitudeDegrees>42.78950228355824947357177734375</LatitudeDegrees>
              <LongitudeDegrees>-0.14602809213101863861083984375</LongitudeDegrees>
            </Position>
            <AltitudeMeters>2217</AltitudeMeters>
            <DistanceMeters>22805.683087963</DistanceMeters>
          </Trackpoint>
          <Trackpoint>
            <Time>2022-07-10T05:37:52.000Z</Time>
            <Position>
              <LatitudeDegrees>42.78947898186743259429931640625</LatitudeDegrees>
              <LongitudeDegrees>-0.1460451073944568634033203125</LongitudeDegrees>
            </Position>
            <AltitudeMeters>2217.800048828125</AltitudeMeters>
            <DistanceMeters>22808.625849134</DistanceMeters>
          </Trackpoint>
          <Trackpoint>
            <Time>2022-07-10T05:37:54.000Z</Time>
            <Position>
              <LatitudeDegrees>42.789473198354244232177734375</LatitudeDegrees>
              <LongitudeDegrees>-0.14605793170630931854248046875</LongitudeDegrees>
            </Position>
            <AltitudeMeters>2218.199951171875</AltitudeMeters>
            <DistanceMeters>22809.853864918</DistanceMeters>
          </Trackpoint>
          <Trackpoint>
            <Time>2022-07-10T05:37:57.000Z</Time>
            <Position>
              <LatitudeDegrees>42.78949473984539508819580078125</LatitudeDegrees>
              <LongitudeDegrees>-0.14606815762817859649658203125</LongitudeDegrees>
            </Position>
            <AltitudeMeters>2218.800048828125</AltitudeMeters>
            <DistanceMeters>22812.391273932</DistanceMeters>
          </Trackpoint>
          <Trackpoint>
            <Time>2022-07-10T05:38:01.000Z</Time>
            <Position>
              <LatitudeDegrees>42.78951804153621196746826171875</LatitudeDegrees>
              <LongitudeDegrees>-0.14608760364353656768798828125</LongitudeDegrees>
            </Position>
            <AltitudeMeters>2219.39990234375</AltitudeMeters>
            <DistanceMeters>22815.432128792</DistanceMeters>
          </Trackpoint>
          <Trackpoint>
            <Time>2022-07-10T05:38:04.000Z</Time>
            <Position>
              <LatitudeDegrees>42.78952642343938350677490234375</LatitudeDegrees>
              <LongitudeDegrees>-0.1461098156869411468505859375</LongitudeDegrees>
            </Position>
            <AltitudeMeters>2220</AltitudeMeters>
            <DistanceMeters>22817.474650595</DistanceMeters>
          </Trackpoint>
          <Trackpoint>
            <Time>2022-07-10T05:38:08.000Z</Time>
            <Position>
              <LatitudeDegrees>42.78950630687177181243896484375</LatitudeDegrees>
              <LongitudeDegrees>-0.1461547426879405975341796875</LongitudeDegrees>
            </Position>
            <AltitudeMeters>2220.60009765625</AltitudeMeters>
            <DistanceMeters>22821.774018744</DistanceMeters>
          </Trackpoint>
          <Trackpoint>
            <Time>2022-07-10T05:38:11.000Z</Time>
            <Position>
              <LatitudeDegrees>42.7894787304103374481201171875</LatitudeDegrees>
              <LongitudeDegrees>-0.14621366746723651885986328125</LongitudeDegrees>
            </Position>
            <AltitudeMeters>2221</AltitudeMeters>
            <DistanceMeters>22827.481953205</DistanceMeters>
          </Trackpoint>
          <Trackpoint>
            <Time>2022-07-10T05:38:15.000Z</Time>
            <Position>
              <LatitudeDegrees>42.789476551115512847900390625</LatitudeDegrees>
              <LongitudeDegrees>-0.1462328620254993438720703125</LongitudeDegrees>
            </Position>
            <AltitudeMeters>2222.199951171875</AltitudeMeters>
            <DistanceMeters>22829.072054272</DistanceMeters>
          </Trackpoint>
          <Trackpoint>
            <Time>2022-07-10T05:38:17.000Z</Time>
            <Position>
              <LatitudeDegrees>42.78947546146810054779052734375</LatitudeDegrees>
              <LongitudeDegrees>-0.14623847790062427520751953125</LongitudeDegrees>
            </Position>
            <AltitudeMeters>2222.60009765625</AltitudeMeters>
            <DistanceMeters>22829.537588196</DistanceMeters>
          </Trackpoint>
          <Trackpoint>
            <Time>2022-07-10T05:38:19.000Z</Time>
            <Position>
              <LatitudeDegrees>42.7894817478954792022705078125</LatitudeDegrees>
              <LongitudeDegrees>-0.1462412439286708831787109375</LongitudeDegrees>
            </Position>
            <AltitudeMeters>2223</AltitudeMeters>
            <DistanceMeters>22830.261290092</DistanceMeters>
          </Trackpoint>
          <Trackpoint>
            <Time>2022-07-10T05:38:20.000Z</Time>
            <Position>
              <LatitudeDegrees>42.78948937542736530303955078125</LatitudeDegrees>
              <LongitudeDegrees>-0.14623864553868770599365234375</LongitudeDegrees>
            </Position>
            <AltitudeMeters>2223.199951171875</AltitudeMeters>
            <DistanceMeters>22831.132224315</DistanceMeters>
          </Trackpoint>
          <Trackpoint>
            <Time>2022-07-10T05:38:21.000Z</Time>
            <Position>
              <LatitudeDegrees>42.7894944883882999420166015625</LatitudeDegrees>
              <LongitudeDegrees>-0.146237052977085113525390625</LongitudeDegrees>
            </Position>
            <AltitudeMeters>2223.199951171875</AltitudeMeters>
            <DistanceMeters>22831.718008324</DistanceMeters>
          </Trackpoint>
          <Trackpoint>
            <Time>2022-07-10T05:38:22.000Z</Time>
            <Position>
              <LatitudeDegrees>42.7894971705973148345947265625</LatitudeDegrees>
              <LongitudeDegrees>-0.14623663388192653656005859375</LongitudeDegrees>
            </Position>
            <AltitudeMeters>2223.39990234375</AltitudeMeters>
            <DistanceMeters>22832.01850918</DistanceMeters>
          </Trackpoint>
          <Trackpoint>
            <Time>2022-07-10T05:38:28.000Z</Time>
            <Position>
              <LatitudeDegrees>42.78953279368579387664794921875</LatitudeDegrees>
              <LongitudeDegrees>-0.14624677598476409912109375</LongitudeDegrees>
            </Position>
            <AltitudeMeters>2224</AltitudeMeters>
            <DistanceMeters>22836.070259293</DistanceMeters>
          </Trackpoint>
          <Trackpoint>
            <Time>2022-07-10T05:38:29.000Z</Time>
            <Position>
              <LatitudeDegrees>42.7895337156951427459716796875</LatitudeDegrees>
              <LongitudeDegrees>-0.14624811708927154541015625</LongitudeDegrees>
            </Position>
            <AltitudeMeters>2224.39990234375</AltitudeMeters>
            <DistanceMeters>22836.204647361</DistanceMeters>
          </Trackpoint>
          <Trackpoint>
            <Time>2022-07-10T05:38:30.000Z</Time>
            <Position>
              <LatitudeDegrees>42.78953597880899906158447265625</LatitudeDegrees>
              <LongitudeDegrees>-0.1462513022124767303466796875</LongitudeDegrees>
            </Position>
            <AltitudeMeters>2224.60009765625</AltitudeMeters>
            <DistanceMeters>22836.584754218</DistanceMeters>
          </Trackpoint>
          <Trackpoint>
            <Time>2022-07-10T05:38:36.000Z</Time>
            <Position>
              <LatitudeDegrees>42.7895501442253589630126953125</LatitudeDegrees>
              <LongitudeDegrees>-0.146274268627166748046875</LongitudeDegrees>
            </Position>
            <AltitudeMeters>2225.39990234375</AltitudeMeters>
            <DistanceMeters>22839.037106337</DistanceMeters>
          </Trackpoint>
          <Trackpoint>
            <Time>2022-07-10T05:38:37.000Z</Time>
            <Position>
              <LatitudeDegrees>42.789552323520183563232421875</LatitudeDegrees>
              <LongitudeDegrees>-0.14627820812165737152099609375</LongitudeDegrees>
            </Position>
            <AltitudeMeters>2225.39990234375</AltitudeMeters>
            <DistanceMeters>22839.440270541</DistanceMeters>
          </Trackpoint>
          <Trackpoint>
            <Time>2022-07-10T05:38:43.000Z</Time>
            <Position>
              <LatitudeDegrees>42.78954637236893177032470703125</LatitudeDegrees>
              <LongitudeDegrees>-0.14629296027123928070068359375</LongitudeDegrees>
            </Position>
            <AltitudeMeters>2226</AltitudeMeters>
            <DistanceMeters>22840.81733846</DistanceMeters>
          </Trackpoint>
          <Trackpoint>
            <Time>2022-07-10T05:38:47.000Z</Time>
            <Position>
              <LatitudeDegrees>42.78953648172318935394287109375</LatitudeDegrees>
              <LongitudeDegrees>-0.1462828181684017181396484375</LongitudeDegrees>
            </Position>
            <AltitudeMeters>2226</AltitudeMeters>
            <DistanceMeters>22842.191123733</DistanceMeters>
          </Trackpoint>
          <Trackpoint>
            <Time>2022-07-10T05:38:51.000Z</Time>
            <Position>
              <LatitudeDegrees>42.78954888693988323211669921875</LatitudeDegrees>
              <LongitudeDegrees>-0.14629111625254154205322265625</LongitudeDegrees>
            </Position>
            <AltitudeMeters>2226.60009765625</AltitudeMeters>
            <DistanceMeters>22843.729265479</DistanceMeters>
          </Trackpoint>
          <Trackpoint>
            <Time>2022-07-10T05:38:53.000Z</Time>
            <Position>
              <LatitudeDegrees>42.7895591966807842254638671875</LatitudeDegrees>
              <LongitudeDegrees>-0.1463009230792522430419921875</LongitudeDegrees>
            </Position>
            <AltitudeMeters>2227</AltitudeMeters>
            <DistanceMeters>22845.125867251</DistanceMeters>
          </Trackpoint>
          <Trackpoint>
            <Time>2022-07-10T05:38:55.000Z</Time>
            <Position>
              <LatitudeDegrees>42.789571769535541534423828125</LatitudeDegrees>
              <LongitudeDegrees>-0.14631450176239013671875</LongitudeDegrees>
            </Position>
            <AltitudeMeters>2227.60009765625</AltitudeMeters>
            <DistanceMeters>22846.911257121</DistanceMeters>
          </Trackpoint>
          <Trackpoint>
            <Time>2022-07-10T05:38:56.000Z</Time>
            <Position>
              <LatitudeDegrees>42.789572775363922119140625</LatitudeDegrees>
              <LongitudeDegrees>-0.14632363803684711456298828125</LongitudeDegrees>
            </Position>
            <AltitudeMeters>2227.800048828125</AltitudeMeters>
            <DistanceMeters>22847.665508283</DistanceMeters>
          </Trackpoint>
          <Trackpoint>
            <Time>2022-07-10T05:38:57.000Z</Time>
            <Position>
              <LatitudeDegrees>42.789574451744556427001953125</LatitudeDegrees>
              <LongitudeDegrees>-0.14633453451097011566162109375</LongitudeDegrees>
            </Position>
            <AltitudeMeters>2228</AltitudeMeters>
            <DistanceMeters>22848.576972508</DistanceMeters>
          </Trackpoint>
          <Trackpoint>
            <Time>2022-07-10T05:38:59.000Z</Time>
            <Position>
              <LatitudeDegrees>42.789585851132869720458984375</LatitudeDegrees>
              <LongitudeDegrees>-0.14634995721280574798583984375</LongitudeDegrees>
            </Position>
            <AltitudeMeters>2228.39990234375</AltitudeMeters>
            <DistanceMeters>22850.364889469</DistanceMeters>
          </Trackpoint>
          <Trackpoint>
            <Time>2022-07-10T05:39:02.000Z</Time>
            <Position>
              <LatitudeDegrees>42.78960471041500568389892578125</LatitudeDegrees>
              <LongitudeDegrees>-0.146368481218814849853515625</LongitudeDegrees>
            </Position>
            <AltitudeMeters>2228.800048828125</AltitudeMeters>
            <DistanceMeters>22852.951641611</DistanceMeters>
          </Trackpoint>
          <Trackpoint>
            <Time>2022-07-10T05:39:03.000Z</Time>
            <Position>
              <LatitudeDegrees>42.78961208648979663848876953125</LatitudeDegrees>
              <LongitudeDegrees>-0.14637275598943233489990234375</LongitudeDegrees>
            </Position>
            <AltitudeMeters>2229</AltitudeMeters>
            <DistanceMeters>22853.832883107</DistanceMeters>
          </Trackpoint>
          <Trackpoint>
            <Time>2022-07-10T05:39:04.000Z</Time>
            <Position>
              <LatitudeDegrees>42.78962130658328533172607421875</LatitudeDegrees>
              <LongitudeDegrees>-0.14637560583651065826416015625</LongitudeDegrees>
            </Position>
            <AltitudeMeters>2229.39990234375</AltitudeMeters>
            <DistanceMeters>22854.882487474</DistanceMeters>
          </Trackpoint>
          <Trackpoint>
            <Time>2022-07-10T05:39:09.000Z</Time>
            <Position>
              <LatitudeDegrees>42.7896359749138355255126953125</LatitudeDegrees>
              <LongitudeDegrees>-0.14639832079410552978515625</LongitudeDegrees>
            </Position>
            <AltitudeMeters>2229.800048828125</AltitudeMeters>
            <DistanceMeters>22857.353182047</DistanceMeters>
          </Trackpoint>
          <Trackpoint>
            <Time>2022-07-10T05:39:10.000Z</Time>
            <Position>
              <LatitudeDegrees>42.78963622637093067169189453125</LatitudeDegrees>
              <LongitudeDegrees>-0.14640091918408870697021484375</LongitudeDegrees>
            </Position>
            <AltitudeMeters>2230.199951171875</AltitudeMeters>
            <DistanceMeters>22857.56566824</DistanceMeters>
          </Trackpoint>
          <Trackpoint>
            <Time>2022-07-10T05:39:12.000Z</Time>
            <Position>
              <LatitudeDegrees>42.7896376512944698333740234375</LatitudeDegrees>
              <LongitudeDegrees>-0.14641181565821170806884765625</LongitudeDegrees>
            </Position>
            <AltitudeMeters>2231.199951171875</AltitudeMeters>
            <DistanceMeters>22858.477132465</DistanceMeters>
          </Trackpoint>
          <Trackpoint>
            <Time>2022-07-10T05:39:14.000Z</Time>
            <Position>
              <LatitudeDegrees>42.789644859731197357177734375</LatitudeDegrees>
              <LongitudeDegrees>-0.14642673544585704803466796875</LongitudeDegrees>
            </Position>
            <AltitudeMeters>2231.60009765625</AltitudeMeters>
            <DistanceMeters>22859.936960551</DistanceMeters>
          </Trackpoint>
          <Trackpoint>
            <Time>2022-07-10T05:39:17.000Z</Time>
            <Position>
              <LatitudeDegrees>42.78965868987143039703369140625</LatitudeDegrees>
              <LongitudeDegrees>-0.14645623974502086639404296875</LongitudeDegrees>
            </Position>
            <AltitudeMeters>2232</AltitudeMeters>
            <DistanceMeters>22862.797248868</DistanceMeters>
          </Trackpoint>
          <Trackpoint>
            <Time>2022-07-10T05:39:18.000Z</Time>
            <Position>
              <LatitudeDegrees>42.78965634293854236602783203125</LatitudeDegrees>
              <LongitudeDegrees>-0.14646294526755809783935546875</LongitudeDegrees>
            </Position>
            <AltitudeMeters>2232.39990234375</AltitudeMeters>
            <DistanceMeters>22863.39825058</DistanceMeters>
          </Trackpoint>
          <Trackpoint>
            <Time>2022-07-10T05:39:21.000Z</Time>
            <Position>
              <LatitudeDegrees>42.78964444063603878021240234375</LatitudeDegrees>
              <LongitudeDegrees>-0.1464903540909290313720703125</LongitudeDegrees>
            </Position>
            <AltitudeMeters>2232.800048828125</AltitudeMeters>
            <DistanceMeters>22865.99892881</DistanceMeters>
          </Trackpoint>
          <Trackpoint>
            <Time>2022-07-10T05:39:22.000Z</Time>
            <Position>
              <LatitudeDegrees>42.78964452445507049560546875</LatitudeDegrees>
              <LongitudeDegrees>-0.1464967243373394012451171875</LongitudeDegrees>
            </Position>
            <AltitudeMeters>2233</AltitudeMeters>
            <DistanceMeters>22866.519411561</DistanceMeters>
          </Trackpoint>
          <Trackpoint>
            <Time>2022-07-10T05:39:26.000Z</Time>
            <Position>
              <LatitudeDegrees>42.78966170735657215118408203125</LatitudeDegrees>
              <LongitudeDegrees>-0.14651139266788959503173828125</LongitudeDegrees>
            </Position>
            <AltitudeMeters>2233.39990234375</AltitudeMeters>
            <DistanceMeters>22868.776170988</DistanceMeters>
          </Trackpoint>
          <Trackpoint>
            <Time>2022-07-10T05:39:29.000Z</Time>
            <Position>
              <LatitudeDegrees>42.789666317403316497802734375</LatitudeDegrees>
              <LongitudeDegrees>-0.14653243124485015869140625</LongitudeDegrees>
            </Position>
            <AltitudeMeters>2233.800048828125</AltitudeMeters>
            <DistanceMeters>22870.569131449</DistanceMeters>
          </Trackpoint>
          <Trackpoint>
            <Time>2022-07-10T05:39:31.000Z</Time>
            <Position>
              <LatitudeDegrees>42.78967008925974369049072265625</LatitudeDegrees>
              <LongitudeDegrees>-0.1465426571667194366455078125</LongitudeDegrees>
            </Position>
            <AltitudeMeters>2234</AltitudeMeters>
            <DistanceMeters>22871.500199298</DistanceMeters>
          </Trackpoint>
          <Trackpoint>
            <Time>2022-07-10T05:39:32.000Z</Time>
            <Position>
              <LatitudeDegrees>42.789672352373600006103515625</LatitudeDegrees>
              <LongitudeDegrees>-0.14654944650828838348388671875</LongitudeDegrees>
            </Position>
            <AltitudeMeters>2234.39990234375</AltitudeMeters>
            <DistanceMeters>22872.116042793</DistanceMeters>
          </Trackpoint>
          <Trackpoint>
            <Time>2022-07-10T05:39:33.000Z</Time>
            <Position>
              <LatitudeDegrees>42.78967612423002719879150390625</LatitudeDegrees>
              <LongitudeDegrees>-0.14655916951596736907958984375</LongitudeDegrees>
            </Position>
            <AltitudeMeters>2234.60009765625</AltitudeMeters>
            <DistanceMeters>22873.017545361</DistanceMeters>
          </Trackpoint>
          <Trackpoint>
            <Time>2022-07-10T05:39:34.000Z</Time>
            <Position>
              <LatitudeDegrees>42.7896798960864543914794921875</LatitudeDegrees>
              <LongitudeDegrees>-0.1465704850852489471435546875</LongitudeDegrees>
            </Position>
            <AltitudeMeters>2234.60009765625</AltitudeMeters>
            <DistanceMeters>22874.032153026</DistanceMeters>
          </Trackpoint>
          <Trackpoint>
            <Time>2022-07-10T05:39:37.000Z</Time>
            <Position>
              <LatitudeDegrees>42.78969087637960910797119140625</LatitudeDegrees>
              <LongitudeDegrees>-0.146606527268886566162109375</LongitudeDegrees>
            </Position>
            <AltitudeMeters>2235.199951171875</AltitudeMeters>
            <DistanceMeters>22877.219445921</DistanceMeters>
          </Trackpoint>
          <Trackpoint>
            <Time>2022-07-10T05:39:39.000Z</Time>
            <Position>
              <LatitudeDegrees>42.7896974980831146240234375</LatitudeDegrees>
              <LongitudeDegrees>-0.14662924222648143768310546875</LongitudeDegrees>
            </Position>
            <AltitudeMeters>2235.800048828125</AltitudeMeters>
            <DistanceMeters>22879.217268183</DistanceMeters>
          </Trackpoint>
          <Trackpoint>
            <Time>2022-07-10T05:39:40.000Z</Time>
            <Position>
              <LatitudeDegrees>42.78969950973987579345703125</LatitudeDegrees>
              <LongitudeDegrees>-0.1466385461390018463134765625</LongitudeDegrees>
            </Position>
            <AltitudeMeters>2236</AltitudeMeters>
            <DistanceMeters>22880.012318716</DistanceMeters>
          </Trackpoint>
          <Trackpoint>
            <Time>2022-07-10T05:39:41.000Z</Time>
            <Position>
              <LatitudeDegrees>42.78970043174922466278076171875</LatitudeDegrees>
              <LongitudeDegrees>-0.14664432965219020843505859375</LongitudeDegrees>
            </Position>
            <AltitudeMeters>2236.199951171875</AltitudeMeters>
            <DistanceMeters>22880.487452288</DistanceMeters>
          </Trackpoint>
          <Trackpoint>
            <Time>2022-07-10T05:39:43.000Z</Time>
            <Position>
              <LatitudeDegrees>42.7896980009973049163818359375</LatitudeDegrees>
              <LongitudeDegrees>-0.146656148135662078857421875</LongitudeDegrees>
            </Position>
            <AltitudeMeters>2237</AltitudeMeters>
            <DistanceMeters>22881.484100877</DistanceMeters>
          </Trackpoint>
          <Trackpoint>
            <Time>2022-07-10T05:39:45.000Z</Time>
            <Position>
              <LatitudeDegrees>42.78969280421733856201171875</LatitudeDegrees>
              <LongitudeDegrees>-0.146666876971721649169921875</LongitudeDegrees>
            </Position>
            <AltitudeMeters>2237.199951171875</AltitudeMeters>
            <DistanceMeters>22882.533705243</DistanceMeters>
          </Trackpoint>
          <Trackpoint>
            <Time>2022-07-10T05:39:47.000Z</Time>
            <Position>
              <LatitudeDegrees>42.78968274593353271484375</LatitudeDegrees>
              <LongitudeDegrees>-0.146679617464542388916015625</LongitudeDegrees>
            </Position>
            <AltitudeMeters>2237.60009765625</AltitudeMeters>
            <DistanceMeters>22884.060060288</DistanceMeters>
          </Trackpoint>
          <Trackpoint>
            <Time>2022-07-10T05:39:48.000Z</Time>
            <Position>
              <LatitudeDegrees>42.789678387343883514404296875</LatitudeDegrees>
              <LongitudeDegrees>-0.14667995274066925048828125</LongitudeDegrees>
            </Position>
            <AltitudeMeters>2237.60009765625</AltitudeMeters>
            <DistanceMeters>22884.544603359</DistanceMeters>
          </Trackpoint>
          <Trackpoint>
            <Time>2022-07-10T05:39:49.000Z</Time>
            <Position>
              <LatitudeDegrees>42.78967662714421749114990234375</LatitudeDegrees>
              <LongitudeDegrees>-0.14667383395135402679443359375</LongitudeDegrees>
            </Position>
            <AltitudeMeters>2237.800048828125</AltitudeMeters>
            <DistanceMeters>22885.065086109</DistanceMeters>
          </Trackpoint>
          <Trackpoint>
            <Time>2022-07-10T05:39:50.000Z</Time>
            <Position>
              <LatitudeDegrees>42.7896738611161708831787109375</LatitudeDegrees>
              <LongitudeDegrees>-0.146669559180736541748046875</LongitudeDegrees>
            </Position>
            <AltitudeMeters>2238</AltitudeMeters>
            <DistanceMeters>22885.530620033</DistanceMeters>
          </Trackpoint>
          <Trackpoint>
            <Time>2022-07-10T05:39:51.000Z</Time>
            <Position>
              <LatitudeDegrees>42.78967042453587055206298828125</LatitudeDegrees>
              <LongitudeDegrees>-0.14666411094367504119873046875</LongitudeDegrees>
            </Position>
            <AltitudeMeters>2238.199951171875</AltitudeMeters>
            <DistanceMeters>22886.116404042</DistanceMeters>
          </Trackpoint>
          <Trackpoint>
            <Time>2022-07-10T05:39:55.000Z</Time>
            <Position>
              <LatitudeDegrees>42.7896465361118316650390625</LatitudeDegrees>
              <LongitudeDegrees>-0.1466013304889202117919921875</LongitudeDegrees>
            </Position>
            <AltitudeMeters>2239</AltitudeMeters>
            <DistanceMeters>22891.891964827</DistanceMeters>
          </Trackpoint>
          <Trackpoint>
            <Time>2022-07-10T05:39:57.000Z</Time>
            <Position>
              <LatitudeDegrees>42.789634130895137786865234375</LatitudeDegrees>
              <LongitudeDegrees>-0.14662270434200763702392578125</LongitudeDegrees>
            </Position>
            <AltitudeMeters>2239.39990234375</AltitudeMeters>
            <DistanceMeters>22894.116483178</DistanceMeters>
          </Trackpoint>
          <Trackpoint>
            <Time>2022-07-10T05:40:01.000Z</Time>
            <Position>
              <LatitudeDegrees>42.7896215580403804779052734375</LatitudeDegrees>
              <LongitudeDegrees>-0.1466512866318225860595703125</LongitudeDegrees>
            </Position>
            <AltitudeMeters>2240.199951171875</AltitudeMeters>
            <DistanceMeters>22896.839292896</DistanceMeters>
          </Trackpoint>
          <Trackpoint>
            <Time>2022-07-10T05:40:03.000Z</Time>
            <Position>
              <LatitudeDegrees>42.78961502015590667724609375</LatitudeDegrees>
              <LongitudeDegrees>-0.1466526277363300323486328125</LongitudeDegrees>
            </Position>
            <AltitudeMeters>2240.60009765625</AltitudeMeters>
            <DistanceMeters>22897.57536666</DistanceMeters>
          </Trackpoint>
          <Trackpoint>
            <Time>2022-07-10T05:40:05.000Z</Time>
            <Position>
              <LatitudeDegrees>42.7896021120250225067138671875</LatitudeDegrees>
              <LongitudeDegrees>-0.146648101508617401123046875</LongitudeDegrees>
            </Position>
            <AltitudeMeters>2240.60009765625</AltitudeMeters>
            <DistanceMeters>22899.05973139</DistanceMeters>
          </Trackpoint>
          <Trackpoint>
            <Time>2022-07-10T05:40:08.000Z</Time>
            <Position>
              <LatitudeDegrees>42.78957352973520755767822265625</LatitudeDegrees>
              <LongitudeDegrees>-0.1466430723667144775390625</LongitudeDegrees>
            </Position>
            <AltitudeMeters>2241.199951171875</AltitudeMeters>
            <DistanceMeters>22902.266795011</DistanceMeters>
          </Trackpoint>
          <Trackpoint>
            <Time>2022-07-10T05:40:11.000Z</Time>
            <Position>
              <LatitudeDegrees>42.789563052356243133544921875</LatitudeDegrees>
              <LongitudeDegrees>-0.14664240181446075439453125</LongitudeDegrees>
            </Position>
            <AltitudeMeters>2241.800048828125</AltitudeMeters>
            <DistanceMeters>22903.438363029</DistanceMeters>
          </Trackpoint>
          <Trackpoint>
            <Time>2022-07-10T05:40:13.000Z</Time>
            <Position>
              <LatitudeDegrees>42.78955793939530849456787109375</LatitudeDegrees>
              <LongitudeDegrees>-0.14664298854768276214599609375</LongitudeDegrees>
            </Position>
            <AltitudeMeters>2242.199951171875</AltitudeMeters>
            <DistanceMeters>22904.008523315</DistanceMeters>
          </Trackpoint>
          <Trackpoint>
            <Time>2022-07-10T05:40:18.000Z</Time>
            <Position>
              <LatitudeDegrees>42.78953916393220424652099609375</LatitudeDegrees>
              <LongitudeDegrees>-0.14665757305920124053955078125</LongitudeDegrees>
            </Position>
            <AltitudeMeters>2242.800048828125</AltitudeMeters>
            <DistanceMeters>22906.412530163</DistanceMeters>
          </Trackpoint>
          <Trackpoint>
            <Time>2022-07-10T05:40:20.000Z</Time>
            <Position>
              <LatitudeDegrees>42.78952441178262233734130859375</LatitudeDegrees>
              <LongitudeDegrees>-0.1466714031994342803955078125</LongitudeDegrees>
            </Position>
            <AltitudeMeters>2243.39990234375</AltitudeMeters>
            <DistanceMeters>22908.403560941</DistanceMeters>
          </Trackpoint>
          <Trackpoint>
            <Time>2022-07-10T05:40:24.000Z</Time>
            <Position>
              <LatitudeDegrees>42.78950680978596210479736328125</LatitudeDegrees>
              <LongitudeDegrees>-0.1466968841850757598876953125</LongitudeDegrees>
            </Position>
            <AltitudeMeters>2244.199951171875</AltitudeMeters>
            <DistanceMeters>22911.260690463</DistanceMeters>
          </Trackpoint>
          <Trackpoint>
            <Time>2022-07-10T05:40:25.000Z</Time>
            <Position>
              <LatitudeDegrees>42.7895099110901355743408203125</LatitudeDegrees>
              <LongitudeDegrees>-0.14670409262180328369140625</LongitudeDegrees>
            </Position>
            <AltitudeMeters>2244.39990234375</AltitudeMeters>
            <DistanceMeters>22911.932630804</DistanceMeters>
          </Trackpoint>
          <Trackpoint>
            <Time>2022-07-10T05:40:26.000Z</Time>
            <Position>
              <LatitudeDegrees>42.789516113698482513427734375</LatitudeDegrees>
              <LongitudeDegrees>-0.14670618809759616851806640625</LongitudeDegrees>
            </Position>
            <AltitudeMeters>2244.39990234375</AltitudeMeters>
            <DistanceMeters>22912.637367779</DistanceMeters>
          </Trackpoint>
          <Trackpoint>
            <Time>2022-07-10T05:40:27.000Z</Time>
            <Position>
              <LatitudeDegrees>42.78952709399163722991943359375</LatitudeDegrees>
              <LongitudeDegrees>-0.1467015780508518218994140625</LongitudeDegrees>
            </Position>
            <AltitudeMeters>2244.800048828125</AltitudeMeters>
            <DistanceMeters>22913.915821469</DistanceMeters>
          </Trackpoint>
          <Trackpoint>
            <Time>2022-07-10T05:40:28.000Z</Time>
            <Position>
              <LatitudeDegrees>42.78953866101801395416259765625</LatitudeDegrees>
              <LongitudeDegrees>-0.14669604599475860595703125</LongitudeDegrees>
            </Position>
            <AltitudeMeters>2245</AltitudeMeters>
            <DistanceMeters>22915.286316234</DistanceMeters>
          </Trackpoint>
          <Trackpoint>
            <Time>2022-07-10T05:40:30.000Z</Time>
            <Position>
              <LatitudeDegrees>42.78955039568245410919189453125</LatitudeDegrees>
              <LongitudeDegrees>-0.146701075136661529541015625</LongitudeDegrees>
            </Position>
            <AltitudeMeters>2245.60009765625</AltitudeMeters>
            <DistanceMeters>22916.656810999</DistanceMeters>
          </Trackpoint>
          <Trackpoint>
            <Time>2022-07-10T05:40:31.000Z</Time>
            <Position>
              <LatitudeDegrees>42.789552994072437286376953125</LatitudeDegrees>
              <LongitudeDegrees>-0.14670182950794696807861328125</LongitudeDegrees>
            </Position>
            <AltitudeMeters>2245.800048828125</AltitudeMeters>
            <DistanceMeters>22916.957311855</DistanceMeters>
          </Trackpoint>
          <Trackpoint>
            <Time>2022-07-10T05:40:34.000Z</Time>
            <Position>
              <LatitudeDegrees>42.78956514783203601837158203125</LatitudeDegrees>
              <LongitudeDegrees>-0.14672077260911464691162109375</LongitudeDegrees>
            </Position>
            <AltitudeMeters>2246.39990234375</AltitudeMeters>
            <DistanceMeters>22919.013054002</DistanceMeters>
          </Trackpoint>
          <Trackpoint>
            <Time>2022-07-10T05:40:35.000Z</Time>
            <Position>
              <LatitudeDegrees>42.7895682491362094879150390625</LatitudeDegrees>
              <LongitudeDegrees>-0.1467260532081127166748046875</LongitudeDegrees>
            </Position>
            <AltitudeMeters>2246.60009765625</AltitudeMeters>
            <DistanceMeters>22919.558940916</DistanceMeters>
          </Trackpoint>
          <Trackpoint>
            <Time>2022-07-10T05:40:40.000Z</Time>
            <Position>
              <LatitudeDegrees>42.78958459384739398956298828125</LatitudeDegrees>
              <LongitudeDegrees>-0.14673896133899688720703125</LongitudeDegrees>
            </Position>
            <AltitudeMeters>2247.60009765625</AltitudeMeters>
            <DistanceMeters>22921.660299376</DistanceMeters>
          </Trackpoint>
          <Trackpoint>
            <Time>2022-07-10T05:40:41.000Z</Time>
            <Position>
              <LatitudeDegrees>42.7895850129425525665283203125</LatitudeDegrees>
              <LongitudeDegrees>-0.14674508012831211090087890625</LongitudeDegrees>
            </Position>
            <AltitudeMeters>2248</AltitudeMeters>
            <DistanceMeters>22922.154072669</DistanceMeters>
          </Trackpoint>
          <Trackpoint>
            <Time>2022-07-10T05:40:43.000Z</Time>
            <Position>
              <LatitudeDegrees>42.78959146700799465179443359375</LatitudeDegrees>
              <LongitudeDegrees>-0.1467584073543548583984375</LongitudeDegrees>
            </Position>
            <AltitudeMeters>2248.800048828125</AltitudeMeters>
            <DistanceMeters>22923.457013332</DistanceMeters>
          </Trackpoint>
          <Trackpoint>
            <Time>2022-07-10T05:40:46.000Z</Time>
            <Position>
              <LatitudeDegrees>42.7895987592637538909912109375</LatitudeDegrees>
              <LongitudeDegrees>-0.14678296633064746856689453125</LongitudeDegrees>
            </Position>
            <AltitudeMeters>2249.60009765625</AltitudeMeters>
            <DistanceMeters>22925.619784609</DistanceMeters>
          </Trackpoint>
          <Trackpoint>
            <Time>2022-07-10T05:40:47.000Z</Time>
            <Position>
              <LatitudeDegrees>42.78959481976926326751708984375</LatitudeDegrees>
              <LongitudeDegrees>-0.146791934967041015625</LongitudeDegrees>
            </Position>
            <AltitudeMeters>2250</AltitudeMeters>
            <DistanceMeters>22926.469729381</DistanceMeters>
          </Trackpoint>
          <Trackpoint>
            <Time>2022-07-10T05:40:49.000Z</Time>
            <Position>
              <LatitudeDegrees>42.78958576731383800506591796875</LatitudeDegrees>
              <LongitudeDegrees>-0.14680735766887664794921875</LongitudeDegrees>
            </Position>
            <AltitudeMeters>2250.39990234375</AltitudeMeters>
            <DistanceMeters>22928.0823862</DistanceMeters>
          </Trackpoint>
          <Trackpoint>
            <Time>2022-07-10T05:40:54.000Z</Time>
            <Position>
              <LatitudeDegrees>42.789573110640048980712890625</LatitudeDegrees>
              <LongitudeDegrees>-0.14685689471662044525146484375</LongitudeDegrees>
            </Position>
            <AltitudeMeters>2251.199951171875</AltitudeMeters>
            <DistanceMeters>22932.365972937</DistanceMeters>
          </Trackpoint>
          <Trackpoint>
            <Time>2022-07-10T05:40:55.000Z</Time>
            <Position>
              <LatitudeDegrees>42.7895726077258586883544921875</LatitudeDegrees>
              <LongitudeDegrees>-0.14686292968690395355224609375</LongitudeDegrees>
            </Position>
            <AltitudeMeters>2251.60009765625</AltitudeMeters>
            <DistanceMeters>22932.868807045</DistanceMeters>
          </Trackpoint>
          <Trackpoint>
            <Time>2022-07-10T05:40:59.000Z</Time>
            <Position>
              <LatitudeDegrees>42.78957185335457324981689453125</LatitudeDegrees>
              <LongitudeDegrees>-0.1468531228601932525634765625</LongitudeDegrees>
            </Position>
            <AltitudeMeters>2252.60009765625</AltitudeMeters>
            <DistanceMeters>22933.675135455</DistanceMeters>
          </Trackpoint>
          <Trackpoint>
            <Time>2022-07-10T05:41:03.000Z</Time>
            <Position>
              <LatitudeDegrees>42.789548300206661224365234375</LatitudeDegrees>
              <LongitudeDegrees>-0.14686879701912403106689453125</LongitudeDegrees>
            </Position>
            <AltitudeMeters>2253</AltitudeMeters>
            <DistanceMeters>22936.591697131</DistanceMeters>
          </Trackpoint>
          <Trackpoint>
            <Time>2022-07-10T05:41:07.000Z</Time>
            <Position>
              <LatitudeDegrees>42.78952675871551036834716796875</LatitudeDegrees>
              <LongitudeDegrees>-0.14688774012029170989990234375</LongitudeDegrees>
            </Position>
            <AltitudeMeters>2253.800048828125</AltitudeMeters>
            <DistanceMeters>22939.445664361</DistanceMeters>
          </Trackpoint>
          <Trackpoint>
            <Time>2022-07-10T05:41:11.000Z</Time>
            <Position>
              <LatitudeDegrees>42.7895115874707698822021484375</LatitudeDegrees>
              <LongitudeDegrees>-0.14690618030726909637451171875</LongitudeDegrees>
            </Position>
            <AltitudeMeters>2254.800048828125</AltitudeMeters>
            <DistanceMeters>22941.706421594</DistanceMeters>
          </Trackpoint>
          <Trackpoint>
            <Time>2022-07-10T05:41:16.000Z</Time>
            <Position>
              <LatitudeDegrees>42.789494656026363372802734375</LatitudeDegrees>
              <LongitudeDegrees>-0.1469134725630283355712890625</LongitudeDegrees>
            </Position>
            <AltitudeMeters>2256</AltitudeMeters>
            <DistanceMeters>22943.681514763</DistanceMeters>
          </Trackpoint>
          <Trackpoint>
            <Time>2022-07-10T05:41:19.000Z</Time>
            <Position>
              <LatitudeDegrees>42.78948602266609668731689453125</LatitudeDegrees>
              <LongitudeDegrees>-0.146923363208770751953125</LongitudeDegrees>
            </Position>
            <AltitudeMeters>2256.199951171875</AltitudeMeters>
            <DistanceMeters>22944.935003216</DistanceMeters>
          </Trackpoint>
          <Trackpoint>
            <Time>2022-07-10T05:41:22.000Z</Time>
            <Position>
              <LatitudeDegrees>42.78947311453521251678466796875</LatitudeDegrees>
              <LongitudeDegrees>-0.1469376124441623687744140625</LongitudeDegrees>
            </Position>
            <AltitudeMeters>2257</AltitudeMeters>
            <DistanceMeters>22946.782533701</DistanceMeters>
          </Trackpoint>
          <Trackpoint>
            <Time>2022-07-10T05:41:23.000Z</Time>
            <Position>
              <LatitudeDegrees>42.7894700132310390472412109375</LatitudeDegrees>
              <LongitudeDegrees>-0.14694255776703357696533203125</LongitudeDegrees>
            </Position>
            <AltitudeMeters>2257.199951171875</AltitudeMeters>
            <DistanceMeters>22947.303016452</DistanceMeters>
          </Trackpoint>
          <Trackpoint>
            <Time>2022-07-10T05:41:25.000Z</Time>
            <Position>
              <LatitudeDegrees>42.78946657665073871612548828125</LatitudeDegrees>
              <LongitudeDegrees>-0.146949179470539093017578125</LongitudeDegrees>
            </Position>
            <AltitudeMeters>2257.60009765625</AltitudeMeters>
            <DistanceMeters>22947.961380841</DistanceMeters>
          </Trackpoint>
          <Trackpoint>
            <Time>2022-07-10T05:41:28.000Z</Time>
            <Position>
              <LatitudeDegrees>42.7894606254994869232177734375</LatitudeDegrees>
              <LongitudeDegrees>-0.146954543888568878173828125</LongitudeDegrees>
            </Position>
            <AltitudeMeters>2258.199951171875</AltitudeMeters>
            <DistanceMeters>22948.744991202</DistanceMeters>
          </Trackpoint>
          <Trackpoint>
            <Time>2022-07-10T05:41:29.000Z</Time>
            <Position>
              <LatitudeDegrees>42.78945274651050567626953125</LatitudeDegrees>
              <LongitudeDegrees>-0.146955549716949462890625</LongitudeDegrees>
            </Position>
            <AltitudeMeters>2258.39990234375</AltitudeMeters>
            <DistanceMeters>22949.62109422</DistanceMeters>
          </Trackpoint>
          <Trackpoint>
            <Time>2022-07-10T05:41:34.000Z</Time>
            <Position>
              <LatitudeDegrees>42.78941477648913860321044921875</LatitudeDegrees>
              <LongitudeDegrees>-0.1469741575419902801513671875</LongitudeDegrees>
            </Position>
            <AltitudeMeters>2259.199951171875</AltitudeMeters>
            <DistanceMeters>22954.112551754</DistanceMeters>
          </Trackpoint>
          <Trackpoint>
            <Time>2022-07-10T05:41:40.000Z</Time>
            <Position>
              <LatitudeDegrees>42.789390720427036285400390625</LatitudeDegrees>
              <LongitudeDegrees>-0.14697340317070484161376953125</LongitudeDegrees>
            </Position>
            <AltitudeMeters>2260.199951171875</AltitudeMeters>
            <DistanceMeters>22956.793585295</DistanceMeters>
          </Trackpoint>
          <Trackpoint>
            <Time>2022-07-10T05:41:41.000Z</Time>
            <Position>
              <LatitudeDegrees>42.78938326053321361541748046875</LatitudeDegrees>
              <LongitudeDegrees>-0.146974660456180572509765625</LongitudeDegrees>
            </Position>
            <AltitudeMeters>2260.39990234375</AltitudeMeters>
            <DistanceMeters>22957.632838512</DistanceMeters>
          </Trackpoint>
          <Trackpoint>
            <Time>2022-07-10T05:41:42.000Z</Time>
            <Position>
              <LatitudeDegrees>42.78937672264873981475830078125</LatitudeDegrees>
              <LongitudeDegrees>-0.14697759412229061126708984375</LongitudeDegrees>
            </Position>
            <AltitudeMeters>2260.60009765625</AltitudeMeters>
            <DistanceMeters>22958.393052227</DistanceMeters>
          </Trackpoint>
          <Trackpoint>
            <Time>2022-07-10T05:41:46.000Z</Time>
            <Position>
              <LatitudeDegrees>42.78936146758496761322021484375</LatitudeDegrees>
              <LongitudeDegrees>-0.1469647698104381561279296875</LongitudeDegrees>
            </Position>
            <AltitudeMeters>2261.60009765625</AltitudeMeters>
            <DistanceMeters>22960.390874489</DistanceMeters>
          </Trackpoint>
          <Trackpoint>
            <Time>2022-07-10T05:41:47.000Z</Time>
            <Position>
              <LatitudeDegrees>42.789356522262096405029296875</LatitudeDegrees>
              <LongitudeDegrees>-0.14696686528623104095458984375</LongitudeDegrees>
            </Position>
            <AltitudeMeters>2262</AltitudeMeters>
            <DistanceMeters>22960.968899426</DistanceMeters>
          </Trackpoint>
          <Trackpoint>
            <Time>2022-07-10T05:41:50.000Z</Time>
            <Position>
              <LatitudeDegrees>42.78934118337929248809814453125</LatitudeDegrees>
              <LongitudeDegrees>-0.146962590515613555908203125</LongitudeDegrees>
            </Position>
            <AltitudeMeters>2262.60009765625</AltitudeMeters>
            <DistanceMeters>22962.710767873</DistanceMeters>
          </Trackpoint>
          <Trackpoint>
            <Time>2022-07-10T05:41:51.000Z</Time>
            <Position>
              <LatitudeDegrees>42.78934000991284847259521484375</LatitudeDegrees>
              <LongitudeDegrees>-0.1469604112207889556884765625</LongitudeDegrees>
            </Position>
            <AltitudeMeters>2262.60009765625</AltitudeMeters>
            <DistanceMeters>22962.943534835</DistanceMeters>
          </Trackpoint>
          <Trackpoint>
            <Time>2022-07-10T05:41:53.000Z</Time>
            <Position>
              <LatitudeDegrees>42.7893285267055034637451171875</LatitudeDegrees>
              <LongitudeDegrees>-0.146956555545330047607421875</LongitudeDegrees>
            </Position>
            <AltitudeMeters>2263</AltitudeMeters>
            <DistanceMeters>22964.260263614</DistanceMeters>
          </Trackpoint>
          <Trackpoint>
            <Time>2022-07-10T05:41:57.000Z</Time>
            <Position>
              <LatitudeDegrees>42.78930933214724063873291015625</LatitudeDegrees>
              <LongitudeDegrees>-0.14694741927087306976318359375</LongitudeDegrees>
            </Position>
            <AltitudeMeters>2263.60009765625</AltitudeMeters>
            <DistanceMeters>22966.523017101</DistanceMeters>
          </Trackpoint>
          <Trackpoint>
            <Time>2022-07-10T05:42:00.000Z</Time>
            <Position>
              <LatitudeDegrees>42.78929776512086391448974609375</LatitudeDegrees>
              <LongitudeDegrees>-0.1469193398952484130859375</LongitudeDegrees>
            </Position>
            <AltitudeMeters>2263.800048828125</AltitudeMeters>
            <DistanceMeters>22969.153043442</DistanceMeters>
          </Trackpoint>
          <Trackpoint>
            <Time>2022-07-10T05:42:01.000Z</Time>
            <Position>
              <LatitudeDegrees>42.78929038904607295989990234375</LatitudeDegrees>
              <LongitudeDegrees>-0.1469164900481700897216796875</LongitudeDegrees>
            </Position>
            <AltitudeMeters>2264.199951171875</AltitudeMeters>
            <DistanceMeters>22970.002988214</DistanceMeters>
          </Trackpoint>
          <Trackpoint>
            <Time>2022-07-10T05:42:02.000Z</Time>
            <Position>
              <LatitudeDegrees>42.78927974402904510498046875</LatitudeDegrees>
              <LongitudeDegrees>-0.1469161547720432281494140625</LongitudeDegrees>
            </Position>
            <AltitudeMeters>2264.199951171875</AltitudeMeters>
            <DistanceMeters>22971.186061267</DistanceMeters>
          </Trackpoint>
          <Trackpoint>
            <Time>2022-07-10T05:42:03.000Z</Time>
            <Position>
              <LatitudeDegrees>42.7892711944878101348876953125</LatitudeDegrees>
              <LongitudeDegrees>-0.14691590331494808197021484375</LongitudeDegrees>
            </Position>
            <AltitudeMeters>2264.39990234375</AltitudeMeters>
            <DistanceMeters>22972.136328411</DistanceMeters>
          </Trackpoint>
          <Trackpoint>
            <Time>2022-07-10T05:42:05.000Z</Time>
            <Position>
              <LatitudeDegrees>42.78925719670951366424560546875</LatitudeDegrees>
              <LongitudeDegrees>-0.146906934678554534912109375</LongitudeDegrees>
            </Position>
            <AltitudeMeters>2265</AltitudeMeters>
            <DistanceMeters>22973.857335405</DistanceMeters>
          </Trackpoint>
          <Trackpoint>
            <Time>2022-07-10T05:42:06.000Z</Time>
            <Position>
              <LatitudeDegrees>42.7892534248530864715576171875</LatitudeDegrees>
              <LongitudeDegrees>-0.1468987204134464263916015625</LongitudeDegrees>
            </Position>
            <AltitudeMeters>2265.39990234375</AltitudeMeters>
            <DistanceMeters>22974.652385939</DistanceMeters>
          </Trackpoint>
          <Trackpoint>
            <Time>2022-07-10T05:42:08.000Z</Time>
            <Position>
              <LatitudeDegrees>42.78924110345542430877685546875</LatitudeDegrees>
              <LongitudeDegrees>-0.1468977145850658416748046875</LongitudeDegrees>
            </Position>
            <AltitudeMeters>2265.60009765625</AltitudeMeters>
            <DistanceMeters>22976.029453858</DistanceMeters>
          </Trackpoint>
          <Trackpoint>
            <Time>2022-07-10T05:42:09.000Z</Time>
            <Position>
              <LatitudeDegrees>42.78923288919031620025634765625</LatitudeDegrees>
              <LongitudeDegrees>-0.14689981006085872650146484375</LongitudeDegrees>
            </Position>
            <AltitudeMeters>2265.800048828125</AltitudeMeters>
            <DistanceMeters>22976.9556597</DistanceMeters>
          </Trackpoint>
          <Trackpoint>
            <Time>2022-07-10T05:42:10.000Z</Time>
            <Position>
              <LatitudeDegrees>42.78922299854457378387451171875</LatitudeDegrees>
              <LongitudeDegrees>-0.14689947478473186492919921875</LongitudeDegrees>
            </Position>
            <AltitudeMeters>2266</AltitudeMeters>
            <DistanceMeters>22978.055673447</DistanceMeters>
          </Trackpoint>
          <Trackpoint>
            <Time>2022-07-10T05:42:12.000Z</Time>
            <Position>
              <LatitudeDegrees>42.7892034687101840972900390625</LatitudeDegrees>
              <LongitudeDegrees>-0.1469059288501739501953125</LongitudeDegrees>
            </Position>
            <AltitudeMeters>2266.39990234375</AltitudeMeters>
            <DistanceMeters>22980.292336665</DistanceMeters>
          </Trackpoint>
          <Trackpoint>
            <Time>2022-07-10T05:42:13.000Z</Time>
            <Position>
              <LatitudeDegrees>42.7891977690160274505615234375</LatitudeDegrees>
              <LongitudeDegrees>-0.14690618030726909637451171875</LongitudeDegrees>
            </Position>
            <AltitudeMeters>2266.60009765625</AltitudeMeters>
            <DistanceMeters>22980.922672578</DistanceMeters>
          </Trackpoint>
          <Trackpoint>
            <Time>2022-07-10T05:42:16.000Z</Time>
            <Position>
              <LatitudeDegrees>42.78918041847646236419677734375</LatitudeDegrees>
              <LongitudeDegrees>-0.14688975177705287933349609375</LongitudeDegrees>
            </Position>
            <AltitudeMeters>2266.800048828125</AltitudeMeters>
            <DistanceMeters>22983.273503661</DistanceMeters>
          </Trackpoint>
          <Trackpoint>
            <Time>2022-07-10T05:42:17.000Z</Time>
            <Position>
              <LatitudeDegrees>42.78917203657329082489013671875</LatitudeDegrees>
              <LongitudeDegrees>-0.14688841067254543304443359375</LongitudeDegrees>
            </Position>
            <AltitudeMeters>2267</AltitudeMeters>
            <DistanceMeters>22984.214220139</DistanceMeters>
          </Trackpoint>
          <Trackpoint>
            <Time>2022-07-10T05:42:18.000Z</Time>
            <Position>
              <LatitudeDegrees>42.78916331939399242401123046875</LatitudeDegrees>
              <LongitudeDegrees>-0.14688807539641857147216796875</LongitudeDegrees>
            </Position>
            <AltitudeMeters>2267.199951171875</AltitudeMeters>
            <DistanceMeters>22985.183306281</DistanceMeters>
          </Trackpoint>
          <Trackpoint>
            <Time>2022-07-10T05:42:20.000Z</Time>
            <Position>
              <LatitudeDegrees>42.789149321615695953369140625</LatitudeDegrees>
              <LongitudeDegrees>-0.146894864737987518310546875</LongitudeDegrees>
            </Position>
            <AltitudeMeters>2267.800048828125</AltitudeMeters>
            <DistanceMeters>22986.837426338</DistanceMeters>
          </Trackpoint>
          <Trackpoint>
            <Time>2022-07-10T05:42:22.000Z</Time>
            <Position>
              <LatitudeDegrees>42.78914420865476131439208984375</LatitudeDegrees>
              <LongitudeDegrees>-0.14690685085952281951904296875</LongitudeDegrees>
            </Position>
            <AltitudeMeters>2268.199951171875</AltitudeMeters>
            <DistanceMeters>22987.969800329</DistanceMeters>
          </Trackpoint>
          <Trackpoint>
            <Time>2022-07-10T05:42:24.000Z</Time>
            <Position>
              <LatitudeDegrees>42.789132893085479736328125</LatitudeDegrees>
              <LongitudeDegrees>-0.1469064317643642425537109375</LongitudeDegrees>
            </Position>
            <AltitudeMeters>2268.39990234375</AltitudeMeters>
            <DistanceMeters>22989.230472155</DistanceMeters>
          </Trackpoint>
          <Trackpoint>
            <Time>2022-07-10T05:42:28.000Z</Time>
            <Position>
              <LatitudeDegrees>42.78910732828080654144287109375</LatitudeDegrees>
              <LongitudeDegrees>-0.14691020362079143524169921875</LongitudeDegrees>
            </Position>
            <AltitudeMeters>2269.199951171875</AltitudeMeters>
            <DistanceMeters>22992.093915783</DistanceMeters>
          </Trackpoint>
          <Trackpoint>
            <Time>2022-07-10T05:42:29.000Z</Time>
            <Position>
              <LatitudeDegrees>42.78909944929182529449462890625</LatitudeDegrees>
              <LongitudeDegrees>-0.14691037125885486602783203125</LongitudeDegrees>
            </Position>
            <AltitudeMeters>2269.39990234375</AltitudeMeters>
            <DistanceMeters>22992.970018801</DistanceMeters>
          </Trackpoint>
          <Trackpoint>
            <Time>2022-07-10T05:42:33.000Z</Time>
            <Position>
              <LatitudeDegrees>42.789079584181308746337890625</LatitudeDegrees>
              <LongitudeDegrees>-0.146912634372711181640625</LongitudeDegrees>
            </Position>
            <AltitudeMeters>2270.39990234375</AltitudeMeters>
            <DistanceMeters>22995.186403602</DistanceMeters>
          </Trackpoint>
          <Trackpoint>
            <Time>2022-07-10T05:42:36.000Z</Time>
            <Position>
              <LatitudeDegrees>42.789068520069122314453125</LatitudeDegrees>
              <LongitudeDegrees>-0.1469205133616924285888671875</LongitudeDegrees>
            </Position>
            <AltitudeMeters>2270.800048828125</AltitudeMeters>
            <DistanceMeters>22996.576524589</DistanceMeters>
          </Trackpoint>
          <Trackpoint>
            <Time>2022-07-10T05:42:38.000Z</Time>
            <Position>
              <LatitudeDegrees>42.78904848732054233551025390625</LatitudeDegrees>
              <LongitudeDegrees>-0.14692143537104129791259765625</LongitudeDegrees>
            </Position>
            <AltitudeMeters>2271</AltitudeMeters>
            <DistanceMeters>22998.809146858</DistanceMeters>
          </Trackpoint>
          <Trackpoint>
            <Time>2022-07-10T05:42:40.000Z</Time>
            <Position>
              <LatitudeDegrees>42.78903088532388210296630859375</LatitudeDegrees>
              <LongitudeDegrees>-0.1469228602945804595947265625</LongitudeDegrees>
            </Position>
            <AltitudeMeters>2271.39990234375</AltitudeMeters>
            <DistanceMeters>23000.770476144</DistanceMeters>
          </Trackpoint>
          <Trackpoint>
            <Time>2022-07-10T05:42:44.000Z</Time>
            <Position>
              <LatitudeDegrees>42.78901210986077785491943359375</LatitudeDegrees>
              <LongitudeDegrees>-0.14692269265651702880859375</LongitudeDegrees>
            </Position>
            <AltitudeMeters>2272.199951171875</AltitudeMeters>
            <DistanceMeters>23002.86106386</DistanceMeters>
          </Trackpoint>
          <Trackpoint>
            <Time>2022-07-10T05:42:45.000Z</Time>
            <Position>
              <LatitudeDegrees>42.78900942765176296234130859375</LatitudeDegrees>
              <LongitudeDegrees>-0.14692260883748531341552734375</LongitudeDegrees>
            </Position>
            <AltitudeMeters>2272.39990234375</AltitudeMeters>
            <DistanceMeters>23003.161564716</DistanceMeters>
          </Trackpoint>
          <Trackpoint>
            <Time>2022-07-10T05:42:47.000Z</Time>
            <Position>
              <LatitudeDegrees>42.78900121338665485382080078125</LatitudeDegrees>
              <LongitudeDegrees>-0.14691975899040699005126953125</LongitudeDegrees>
            </Position>
            <AltitudeMeters>2272.60009765625</AltitudeMeters>
            <DistanceMeters>23004.107068585</DistanceMeters>
          </Trackpoint>
          <Trackpoint>
            <Time>2022-07-10T05:42:50.000Z</Time>
            <Position>
              <LatitudeDegrees>42.78897665441036224365234375</LatitudeDegrees>
              <LongitudeDegrees>-0.1469220221042633056640625</LongitudeDegrees>
            </Position>
            <AltitudeMeters>2273</AltitudeMeters>
            <DistanceMeters>23006.848058115</DistanceMeters>
          </Trackpoint>
          <Trackpoint>
            <Time>2022-07-10T05:42:52.000Z</Time>
            <Position>
              <LatitudeDegrees>42.78896500356495380401611328125</LatitudeDegrees>
              <LongitudeDegrees>-0.14692269265651702880859375</LongitudeDegrees>
            </Position>
            <AltitudeMeters>2273.199951171875</AltitudeMeters>
            <DistanceMeters>23008.150998778</DistanceMeters>
          </Trackpoint>
          <Trackpoint>
            <Time>2022-07-10T05:42:53.000Z</Time>
            <Position>
              <LatitudeDegrees>42.78895796276628971099853515625</LatitudeDegrees>
              <LongitudeDegrees>-0.1469248719513416290283203125</LongitudeDegrees>
            </Position>
            <AltitudeMeters>2273.60009765625</AltitudeMeters>
            <DistanceMeters>23008.957327188</DistanceMeters>
          </Trackpoint>
          <Trackpoint>
            <Time>2022-07-10T05:42:56.000Z</Time>
            <Position>
              <LatitudeDegrees>42.78894807212054729461669921875</LatitudeDegrees>
              <LongitudeDegrees>-0.14692604541778564453125</LongitudeDegrees>
            </Position>
            <AltitudeMeters>2274</AltitudeMeters>
            <DistanceMeters>23010.065519588</DistanceMeters>
          </Trackpoint>
          <Trackpoint>
            <Time>2022-07-10T05:43:00.000Z</Time>
            <Position>
              <LatitudeDegrees>42.78892929665744304656982421875</LatitudeDegrees>
              <LongitudeDegrees>-0.1469273865222930908203125</LongitudeDegrees>
            </Position>
            <AltitudeMeters>2274.60009765625</AltitudeMeters>
            <DistanceMeters>23012.158265888</DistanceMeters>
          </Trackpoint>
          <Trackpoint>
            <Time>2022-07-10T05:43:04.000Z</Time>
            <Position>
              <LatitudeDegrees>42.78890247456729412078857421875</LatitudeDegrees>
              <LongitudeDegrees>-0.1469300687313079833984375</LongitudeDegrees>
            </Position>
            <AltitudeMeters>2275.39990234375</AltitudeMeters>
            <DistanceMeters>23015.151230277</DistanceMeters>
          </Trackpoint>
          <Trackpoint>
            <Time>2022-07-10T05:43:05.000Z</Time>
            <Position>
              <LatitudeDegrees>42.7888966910541057586669921875</LatitudeDegrees>
              <LongitudeDegrees>-0.14693400822579860687255859375</LongitudeDegrees>
            </Position>
            <AltitudeMeters>2275.800048828125</AltitudeMeters>
            <DistanceMeters>23015.862345092</DistanceMeters>
          </Trackpoint>
          <Trackpoint>
            <Time>2022-07-10T05:43:09.000Z</Time>
            <Position>
              <LatitudeDegrees>42.78888277709484100341796875</LatitudeDegrees>
              <LongitudeDegrees>-0.1469634287059307098388671875</LongitudeDegrees>
            </Position>
            <AltitudeMeters>2276.199951171875</AltitudeMeters>
            <DistanceMeters>23018.719474614</DistanceMeters>
          </Trackpoint>
          <Trackpoint>
            <Time>2022-07-10T05:43:13.000Z</Time>
            <Position>
              <LatitudeDegrees>42.78886928223073482513427734375</LatitudeDegrees>
              <LongitudeDegrees>-0.14700307510793209075927734375</LongitudeDegrees>
            </Position>
            <AltitudeMeters>2276.800048828125</AltitudeMeters>
            <DistanceMeters>23022.287724575</DistanceMeters>
          </Trackpoint>
          <Trackpoint>
            <Time>2022-07-10T05:43:14.000Z</Time>
            <Position>
              <LatitudeDegrees>42.7888658456504344940185546875</LatitudeDegrees>
              <LongitudeDegrees>-0.147013552486896514892578125</LongitudeDegrees>
            </Position>
            <AltitudeMeters>2277</AltitudeMeters>
            <DistanceMeters>23023.228441053</DistanceMeters>
          </Trackpoint>
          <Trackpoint>
            <Time>2022-07-10T05:43:17.000Z</Time>
            <Position>
              <LatitudeDegrees>42.78886073268949985504150390625</LatitudeDegrees>
              <LongitudeDegrees>-0.14705453999340534210205078125</LongitudeDegrees>
            </Position>
            <AltitudeMeters>2277.800048828125</AltitudeMeters>
            <DistanceMeters>23026.62290383</DistanceMeters>
          </Trackpoint>
          <Trackpoint>
            <Time>2022-07-10T05:43:19.000Z</Time>
            <Position>
              <LatitudeDegrees>42.78886056505143642425537109375</LatitudeDegrees>
              <LongitudeDegrees>-0.1470770873129367828369140625</LongitudeDegrees>
            </Position>
            <AltitudeMeters>2278.39990234375</AltitudeMeters>
            <DistanceMeters>23028.463088241</DistanceMeters>
          </Trackpoint>
          <Trackpoint>
            <Time>2022-07-10T05:43:25.000Z</Time>
            <Position>
              <LatitudeDegrees>42.7888789214193820953369140625</LatitudeDegrees>
              <LongitudeDegrees>-0.14710776507854461669921875</LongitudeDegrees>
            </Position>
            <AltitudeMeters>2278.800048828125</AltitudeMeters>
            <DistanceMeters>23031.696790225</DistanceMeters>
          </Trackpoint>
          <Trackpoint>
            <Time>2022-07-10T05:43:26.000Z</Time>
            <Position>
              <LatitudeDegrees>42.7888822741806507110595703125</LatitudeDegrees>
              <LongitudeDegrees>-0.1471116207540035247802734375</LongitudeDegrees>
            </Position>
            <AltitudeMeters>2279</AltitudeMeters>
            <DistanceMeters>23032.181333296</DistanceMeters>
          </Trackpoint>
          <Trackpoint>
            <Time>2022-07-10T05:43:30.000Z</Time>
            <Position>
              <LatitudeDegrees>42.78890155255794525146484375</LatitudeDegrees>
              <LongitudeDegrees>-0.14713131822645664215087890625</LongitudeDegrees>
            </Position>
            <AltitudeMeters>2280.199951171875</AltitudeMeters>
            <DistanceMeters>23034.864050375</DistanceMeters>
          </Trackpoint>
          <Trackpoint>
            <Time>2022-07-10T05:43:33.000Z</Time>
            <Position>
              <LatitudeDegrees>42.78891253285109996795654296875</LatitudeDegrees>
              <LongitudeDegrees>-0.1471428014338016510009765625</LongitudeDegrees>
            </Position>
            <AltitudeMeters>2280.39990234375</AltitudeMeters>
            <DistanceMeters>23036.40219212</DistanceMeters>
          </Trackpoint>
          <Trackpoint>
            <Time>2022-07-10T05:43:34.000Z</Time>
            <Position>
              <LatitudeDegrees>42.78891387395560741424560546875</LatitudeDegrees>
              <LongitudeDegrees>-0.14714531600475311279296875</LongitudeDegrees>
            </Position>
            <AltitudeMeters>2280.39990234375</AltitudeMeters>
            <DistanceMeters>23036.670968257</DistanceMeters>
          </Trackpoint>
          <Trackpoint>
            <Time>2022-07-10T05:43:38.000Z</Time>
            <Position>
              <LatitudeDegrees>42.78892912901937961578369140625</LatitudeDegrees>
              <LongitudeDegrees>-0.14715545810759067535400390625</LongitudeDegrees>
            </Position>
            <AltitudeMeters>2281</AltitudeMeters>
            <DistanceMeters>23038.55719468</DistanceMeters>
          </Trackpoint>
          <Trackpoint>
            <Time>2022-07-10T05:43:40.000Z</Time>
            <Position>
              <LatitudeDegrees>42.788940109312534332275390625</LatitudeDegrees>
              <LongitudeDegrees>-0.147167108952999114990234375</LongitudeDegrees>
            </Position>
            <AltitudeMeters>2281.199951171875</AltitudeMeters>
            <DistanceMeters>23040.107033489</DistanceMeters>
          </Trackpoint>
          <Trackpoint>
            <Time>2022-07-10T05:43:41.000Z</Time>
            <Position>
              <LatitudeDegrees>42.7889463119208812713623046875</LatitudeDegrees>
              <LongitudeDegrees>-0.14717373065650463104248046875</LongitudeDegrees>
            </Position>
            <AltitudeMeters>2281.39990234375</AltitudeMeters>
            <DistanceMeters>23040.983136506</DistanceMeters>
          </Trackpoint>
          <Trackpoint>
            <Time>2022-07-10T05:43:44.000Z</Time>
            <Position>
              <LatitudeDegrees>42.7889590524137020111083984375</LatitudeDegrees>
              <LongitudeDegrees>-0.14720541425049304962158203125</LongitudeDegrees>
            </Position>
            <AltitudeMeters>2282</AltitudeMeters>
            <DistanceMeters>23043.933559136</DistanceMeters>
          </Trackpoint>
          <Trackpoint>
            <Time>2022-07-10T05:43:45.000Z</Time>
            <Position>
              <LatitudeDegrees>42.7889630757272243499755859375</LatitudeDegrees>
              <LongitudeDegrees>-0.1472135446965694427490234375</LongitudeDegrees>
            </Position>
            <AltitudeMeters>2282.39990234375</AltitudeMeters>
            <DistanceMeters>23044.739887545</DistanceMeters>
          </Trackpoint>
          <Trackpoint>
            <Time>2022-07-10T05:43:50.000Z</Time>
            <Position>
              <LatitudeDegrees>42.78899299912154674530029296875</LatitudeDegrees>
              <LongitudeDegrees>-0.14725704677402973175048828125</LongitudeDegrees>
            </Position>
            <AltitudeMeters>2283</AltitudeMeters>
            <DistanceMeters>23049.609485141</DistanceMeters>
          </Trackpoint>
          <Trackpoint>
            <Time>2022-07-10T05:43:55.000Z</Time>
            <Position>
              <LatitudeDegrees>42.78901093639433383941650390625</LatitudeDegrees>
              <LongitudeDegrees>-0.14729778282344341278076171875</LongitudeDegrees>
            </Position>
            <AltitudeMeters>2283.60009765625</AltitudeMeters>
            <DistanceMeters>23053.489322435</DistanceMeters>
          </Trackpoint>
          <Trackpoint>
            <Time>2022-07-10T05:43:57.000Z</Time>
            <Position>
              <LatitudeDegrees>42.7890240959823131561279296875</LatitudeDegrees>
              <LongitudeDegrees>-0.1473055779933929443359375</LongitudeDegrees>
            </Position>
            <AltitudeMeters>2284</AltitudeMeters>
            <DistanceMeters>23055.090741091</DistanceMeters>
          </Trackpoint>
          <Trackpoint>
            <Time>2022-07-10T05:44:00.000Z</Time>
            <Position>
              <LatitudeDegrees>42.7890375070273876190185546875</LatitudeDegrees>
              <LongitudeDegrees>-0.1473221741616725921630859375</LongitudeDegrees>
            </Position>
            <AltitudeMeters>2284.39990234375</AltitudeMeters>
            <DistanceMeters>23057.11103675</DistanceMeters>
          </Trackpoint>
          <Trackpoint>
            <Time>2022-07-10T05:44:02.000Z</Time>
            <Position>
              <LatitudeDegrees>42.7890472300350666046142578125</LatitudeDegrees>
              <LongitudeDegrees>-0.1473295502364635467529296875</LongitudeDegrees>
            </Position>
            <AltitudeMeters>2284.39990234375</AltitudeMeters>
            <DistanceMeters>23058.35003352</DistanceMeters>
          </Trackpoint>
          <Trackpoint>
            <Time>2022-07-10T05:44:04.000Z</Time>
            <Position>
              <LatitudeDegrees>42.78905251063406467437744140625</LatitudeDegrees>
              <LongitudeDegrees>-0.14733784832060337066650390625</LongitudeDegrees>
            </Position>
            <AltitudeMeters>2284.60009765625</AltitudeMeters>
            <DistanceMeters>23059.246513751</DistanceMeters>
          </Trackpoint>
          <Trackpoint>
            <Time>2022-07-10T05:44:07.000Z</Time>
            <Position>
              <LatitudeDegrees>42.78906248509883880615234375</LatitudeDegrees>
              <LongitudeDegrees>-0.147351510822772979736328125</LongitudeDegrees>
            </Position>
            <AltitudeMeters>2284.800048828125</AltitudeMeters>
            <DistanceMeters>23060.819485761</DistanceMeters>
          </Trackpoint>
          <Trackpoint>
            <Time>2022-07-10T05:44:11.000Z</Time>
            <Position>
              <LatitudeDegrees>42.78907329775393009185791015625</LatitudeDegrees>
              <LongitudeDegrees>-0.14737053774297237396240234375</LongitudeDegrees>
            </Position>
            <AltitudeMeters>2285.60009765625</AltitudeMeters>
            <DistanceMeters>23062.785413714</DistanceMeters>
          </Trackpoint>
          <Trackpoint>
            <Time>2022-07-10T05:44:13.000Z</Time>
            <Position>
              <LatitudeDegrees>42.7890810929238796234130859375</LatitudeDegrees>
              <LongitudeDegrees>-0.14737732708454132080078125</LongitudeDegrees>
            </Position>
            <AltitudeMeters>2285.800048828125</AltitudeMeters>
            <DistanceMeters>23063.813284788</DistanceMeters>
          </Trackpoint>
          <Trackpoint>
            <Time>2022-07-10T05:44:19.000Z</Time>
            <Position>
              <LatitudeDegrees>42.78910405933856964111328125</LatitudeDegrees>
              <LongitudeDegrees>-0.14741010032594203948974609375</LongitudeDegrees>
            </Position>
            <AltitudeMeters>2286.199951171875</AltitudeMeters>
            <DistanceMeters>23067.515669971</DistanceMeters>
          </Trackpoint>
          <Trackpoint>
            <Time>2022-07-10T05:44:20.000Z</Time>
            <Position>
              <LatitudeDegrees>42.78910816647112369537353515625</LatitudeDegrees>
              <LongitudeDegrees>-0.14741529710590839385986328125</LongitudeDegrees>
            </Position>
            <AltitudeMeters>2286.39990234375</AltitudeMeters>
            <DistanceMeters>23068.146005884</DistanceMeters>
          </Trackpoint>
          <Trackpoint>
            <Time>2022-07-10T05:44:21.000Z</Time>
            <Position>
              <LatitudeDegrees>42.7891146205365657806396484375</LatitudeDegrees>
              <LongitudeDegrees>-0.1474173925817012786865234375</LongitudeDegrees>
            </Position>
            <AltitudeMeters>2286.800048828125</AltitudeMeters>
            <DistanceMeters>23068.882079649</DistanceMeters>
          </Trackpoint>
          <Trackpoint>
            <Time>2022-07-10T05:44:27.000Z</Time>
            <Position>
              <LatitudeDegrees>42.7891478128731250762939453125</LatitudeDegrees>
              <LongitudeDegrees>-0.1474381797015666961669921875</LongitudeDegrees>
            </Position>
            <AltitudeMeters>2287.800048828125</AltitudeMeters>
            <DistanceMeters>23072.94717988</DistanceMeters>
          </Trackpoint>
          <Trackpoint>
            <Time>2022-07-10T05:44:28.000Z</Time>
            <Position>
              <LatitudeDegrees>42.78915057890117168426513671875</LatitudeDegrees>
              <LongitudeDegrees>-0.147443376481533050537109375</LongitudeDegrees>
            </Position>
            <AltitudeMeters>2287.800048828125</AltitudeMeters>
            <DistanceMeters>23073.46766263</DistanceMeters>
          </Trackpoint>
          <Trackpoint>
            <Time>2022-07-10T05:44:31.000Z</Time>
            <Position>
              <LatitudeDegrees>42.78915208764374256134033203125</LatitudeDegrees>
              <LongitudeDegrees>-0.14745175838470458984375</LongitudeDegrees>
            </Position>
            <AltitudeMeters>2288.199951171875</AltitudeMeters>
            <DistanceMeters>23074.172399606</DistanceMeters>
          </Trackpoint>
          <Trackpoint>
            <Time>2022-07-10T05:44:35.000Z</Time>
            <Position>
              <LatitudeDegrees>42.7891583740711212158203125</LatitudeDegrees>
              <LongitudeDegrees>-0.1474693603813648223876953125</LongitudeDegrees>
            </Position>
            <AltitudeMeters>2289</AltitudeMeters>
            <DistanceMeters>23075.768169501</DistanceMeters>
          </Trackpoint>
          <Trackpoint>
            <Time>2022-07-10T05:44:39.000Z</Time>
            <Position>
              <LatitudeDegrees>42.78917513787746429443359375</LatitudeDegrees>
              <LongitudeDegrees>-0.147476904094219207763671875</LongitudeDegrees>
            </Position>
            <AltitudeMeters>2289.39990234375</AltitudeMeters>
            <DistanceMeters>23077.734097454</DistanceMeters>
          </Trackpoint>
          <Trackpoint>
            <Time>2022-07-10T05:44:43.000Z</Time>
            <Position>
              <LatitudeDegrees>42.78918184340000152587890625</LatitudeDegrees>
              <LongitudeDegrees>-0.1474841125309467315673828125</LongitudeDegrees>
            </Position>
            <AltitudeMeters>2290</AltitudeMeters>
            <DistanceMeters>23078.684364598</DistanceMeters>
          </Trackpoint>
          <Trackpoint>
            <Time>2022-07-10T05:44:47.000Z</Time>
            <Position>
              <LatitudeDegrees>42.7891843579709529876708984375</LatitudeDegrees>
              <LongitudeDegrees>-0.14749106951057910919189453125</LongitudeDegrees>
            </Position>
            <AltitudeMeters>2290.800048828125</AltitudeMeters>
            <DistanceMeters>23079.328867132</DistanceMeters>
          </Trackpoint>
          <Trackpoint>
            <Time>2022-07-10T05:44:48.000Z</Time>
            <Position>
              <LatitudeDegrees>42.78918762691318988800048828125</LatitudeDegrees>
              <LongitudeDegrees>-0.1475018821656703948974609375</LongitudeDegrees>
            </Position>
            <AltitudeMeters>2291</AltitudeMeters>
            <DistanceMeters>23080.283873792</DistanceMeters>
          </Trackpoint>
          <Trackpoint>
            <Time>2022-07-10T05:44:51.000Z</Time>
            <Position>
              <LatitudeDegrees>42.78919030912220478057861328125</LatitudeDegrees>
              <LongitudeDegrees>-0.14753566123545169830322265625</LongitudeDegrees>
            </Position>
            <AltitudeMeters>2291.60009765625</AltitudeMeters>
            <DistanceMeters>23083.060865921</DistanceMeters>
          </Trackpoint>
          <Trackpoint>
            <Time>2022-07-10T05:44:54.000Z</Time>
            <Position>
              <LatitudeDegrees>42.78917823918163776397705078125</LatitudeDegrees>
              <LongitudeDegrees>-0.14755611307919025421142578125</LongitudeDegrees>
            </Position>
            <AltitudeMeters>2292.199951171875</AltitudeMeters>
            <DistanceMeters>23085.206871276</DistanceMeters>
          </Trackpoint>
          <Trackpoint>
            <Time>2022-07-10T05:44:58.000Z</Time>
            <Position>
              <LatitudeDegrees>42.789171449840068817138671875</LatitudeDegrees>
              <LongitudeDegrees>-0.147574804723262786865234375</LongitudeDegrees>
            </Position>
            <AltitudeMeters>2292.800048828125</AltitudeMeters>
            <DistanceMeters>23086.912064701</DistanceMeters>
          </Trackpoint>
          <Trackpoint>
            <Time>2022-07-10T05:44:59.000Z</Time>
            <Position>
              <LatitudeDegrees>42.7891709469258785247802734375</LatitudeDegrees>
              <LongitudeDegrees>-0.1475791633129119873046875</LongitudeDegrees>
            </Position>
            <AltitudeMeters>2293.199951171875</AltitudeMeters>
            <DistanceMeters>23087.292171558</DistanceMeters>
          </Trackpoint>
          <Trackpoint>
            <Time>2022-07-10T05:45:04.000Z</Time>
            <Position>
              <LatitudeDegrees>42.78916114009916782379150390625</LatitudeDegrees>
              <LongitudeDegrees>-0.147582851350307464599609375</LongitudeDegrees>
            </Position>
            <AltitudeMeters>2294.39990234375</AltitudeMeters>
            <DistanceMeters>23088.424545549</DistanceMeters>
          </Trackpoint>
          <Trackpoint>
            <Time>2022-07-10T05:45:07.000Z</Time>
            <Position>
              <LatitudeDegrees>42.78916918672621250152587890625</LatitudeDegrees>
              <LongitudeDegrees>-0.14758176170289516448974609375</LongitudeDegrees>
            </Position>
            <AltitudeMeters>2295</AltitudeMeters>
            <DistanceMeters>23089.326048117</DistanceMeters>
          </Trackpoint>
          <Trackpoint>
            <Time>2022-07-10T05:45:08.000Z</Time>
            <Position>
              <LatitudeDegrees>42.789169438183307647705078125</LatitudeDegrees>
              <LongitudeDegrees>-0.14758209697902202606201171875</LongitudeDegrees>
            </Position>
            <AltitudeMeters>2295</AltitudeMeters>
            <DistanceMeters>23089.326048117</DistanceMeters>
          </Trackpoint>
          <Trackpoint>
            <Time>2022-07-10T05:45:11.000Z</Time>
            <Position>
              <LatitudeDegrees>42.78917874209582805633544921875</LatitudeDegrees>
              <LongitudeDegrees>-0.1475930772721767425537109375</LongitudeDegrees>
            </Position>
            <AltitudeMeters>2295.39990234375</AltitudeMeters>
            <DistanceMeters>23090.696542882</DistanceMeters>
          </Trackpoint>
          <Trackpoint>
            <Time>2022-07-10T05:45:16.000Z</Time>
            <Position>
              <LatitudeDegrees>42.78920137323439121246337890625</LatitudeDegrees>
              <LongitudeDegrees>-0.14760321937501430511474609375</LongitudeDegrees>
            </Position>
            <AltitudeMeters>2296.60009765625</AltitudeMeters>
            <DistanceMeters>23093.347089896</DistanceMeters>
          </Trackpoint>
          <Trackpoint>
            <Time>2022-07-10T05:45:22.000Z</Time>
            <Position>
              <LatitudeDegrees>42.78923054225742816925048828125</LatitudeDegrees>
              <LongitudeDegrees>-0.14762065373361110687255859375</LongitudeDegrees>
            </Position>
            <AltitudeMeters>2297.60009765625</AltitudeMeters>
            <DistanceMeters>23096.892490636</DistanceMeters>
          </Trackpoint>
          <Trackpoint>
            <Time>2022-07-10T05:45:28.000Z</Time>
            <Position>
              <LatitudeDegrees>42.7892450429499149322509765625</LatitudeDegrees>
              <LongitudeDegrees>-0.1476561091840267181396484375</LongitudeDegrees>
            </Position>
            <AltitudeMeters>2298.800048828125</AltitudeMeters>
            <DistanceMeters>23100.207547654</DistanceMeters>
          </Trackpoint>
          <Trackpoint>
            <Time>2022-07-10T05:45:29.000Z</Time>
            <Position>
              <LatitudeDegrees>42.789245545864105224609375</LatitudeDegrees>
              <LongitudeDegrees>-0.147657282650470733642578125</LongitudeDegrees>
            </Position>
            <AltitudeMeters>2298.800048828125</AltitudeMeters>
            <DistanceMeters>23100.341935722</DistanceMeters>
          </Trackpoint>
          <Trackpoint>
            <Time>2022-07-10T05:45:35.000Z</Time>
            <Position>
              <LatitudeDegrees>42.78925367631018161773681640625</LatitudeDegrees>
              <LongitudeDegrees>-0.14766926877200603485107421875</LongitudeDegrees>
            </Position>
            <AltitudeMeters>2299.800048828125</AltitudeMeters>
            <DistanceMeters>23101.675699217</DistanceMeters>
          </Trackpoint>
          <Trackpoint>
            <Time>2022-07-10T05:45:37.000Z</Time>
            <Position>
              <LatitudeDegrees>42.789263315498828887939453125</LatitudeDegrees>
              <LongitudeDegrees>-0.1476691849529743194580078125</LongitudeDegrees>
            </Position>
            <AltitudeMeters>2300.60009765625</AltitudeMeters>
            <DistanceMeters>23102.74237144</DistanceMeters>
          </Trackpoint>
          <Trackpoint>
            <Time>2022-07-10T05:45:38.000Z</Time>
            <Position>
              <LatitudeDegrees>42.78927127830684185028076171875</LatitudeDegrees>
              <LongitudeDegrees>-0.14767010696232318878173828125</LongitudeDegrees>
            </Position>
            <AltitudeMeters>2300.800048828125</AltitudeMeters>
            <DistanceMeters>23103.633801038</DistanceMeters>
          </Trackpoint>
          <Trackpoint>
            <Time>2022-07-10T05:45:44.000Z</Time>
            <Position>
              <LatitudeDegrees>42.7892966754734516143798828125</LatitudeDegrees>
              <LongitudeDegrees>-0.1476852782070636749267578125</LongitudeDegrees>
            </Position>
            <AltitudeMeters>2301.60009765625</AltitudeMeters>
            <DistanceMeters>23106.720341277</DistanceMeters>
          </Trackpoint>
          <Trackpoint>
            <Time>2022-07-10T05:45:45.000Z</Time>
            <Position>
              <LatitudeDegrees>42.78929843567311763763427734375</LatitudeDegrees>
              <LongitudeDegrees>-0.14769022352993488311767578125</LongitudeDegrees>
            </Position>
            <AltitudeMeters>2301.800048828125</AltitudeMeters>
            <DistanceMeters>23107.166056075</DistanceMeters>
          </Trackpoint>
          <Trackpoint>
            <Time>2022-07-10T05:45:46.000Z</Time>
            <Position>
              <LatitudeDegrees>42.7893043868243694305419921875</LatitudeDegrees>
              <LongitudeDegrees>-0.1476946659386157989501953125</LongitudeDegrees>
            </Position>
            <AltitudeMeters>2302</AltitudeMeters>
            <DistanceMeters>23107.92626979</DistanceMeters>
          </Trackpoint>
          <Trackpoint>
            <Time>2022-07-10T05:45:52.000Z</Time>
            <Position>
              <LatitudeDegrees>42.78932542540132999420166015625</LatitudeDegrees>
              <LongitudeDegrees>-0.14775283634662628173828125</LongitudeDegrees>
            </Position>
            <AltitudeMeters>2302.800048828125</AltitudeMeters>
            <DistanceMeters>23113.223103515</DistanceMeters>
          </Trackpoint>
          <Trackpoint>
            <Time>2022-07-10T05:45:53.000Z</Time>
            <Position>
              <LatitudeDegrees>42.78932676650583744049072265625</LatitudeDegrees>
              <LongitudeDegrees>-0.14776490628719329833984375</LongitudeDegrees>
            </Position>
            <AltitudeMeters>2303</AltitudeMeters>
            <DistanceMeters>23114.224272075</DistanceMeters>
          </Trackpoint>
          <Trackpoint>
            <Time>2022-07-10T05:45:59.000Z</Time>
            <Position>
              <LatitudeDegrees>42.78929860331118106842041015625</LatitudeDegrees>
              <LongitudeDegrees>-0.14780513942241668701171875</LongitudeDegrees>
            </Position>
            <AltitudeMeters>2304.199951171875</AltitudeMeters>
            <DistanceMeters>23118.765713983</DistanceMeters>
          </Trackpoint>
          <Trackpoint>
            <Time>2022-07-10T05:46:00.000Z</Time>
            <Position>
              <LatitudeDegrees>42.78930128552019596099853515625</LatitudeDegrees>
              <LongitudeDegrees>-0.14780606143176555633544921875</LongitudeDegrees>
            </Position>
            <AltitudeMeters>2304.39990234375</AltitudeMeters>
            <DistanceMeters>23119.066214839</DistanceMeters>
          </Trackpoint>
          <Trackpoint>
            <Time>2022-07-10T05:46:06.000Z</Time>
            <Position>
              <LatitudeDegrees>42.78932995162904262542724609375</LatitudeDegrees>
              <LongitudeDegrees>-0.14781109057366847991943359375</LongitudeDegrees>
            </Position>
            <AltitudeMeters>2304.800048828125</AltitudeMeters>
            <DistanceMeters>23122.283118257</DistanceMeters>
          </Trackpoint>
          <Trackpoint>
            <Time>2022-07-10T05:46:07.000Z</Time>
            <Position>
              <LatitudeDegrees>42.7893332205712795257568359375</LatitudeDegrees>
              <LongitudeDegrees>-0.14781075529754161834716796875</LongitudeDegrees>
            </Position>
            <AltitudeMeters>2305</AltitudeMeters>
            <DistanceMeters>23122.65115514</DistanceMeters>
          </Trackpoint>
          <Trackpoint>
            <Time>2022-07-10T05:46:09.000Z</Time>
            <Position>
              <LatitudeDegrees>42.789341770112514495849609375</LatitudeDegrees>
              <LongitudeDegrees>-0.1478190533816814422607421875</LongitudeDegrees>
            </Position>
            <AltitudeMeters>2305.39990234375</AltitudeMeters>
            <DistanceMeters>23123.822723157</DistanceMeters>
          </Trackpoint>
          <Trackpoint>
            <Time>2022-07-10T05:46:11.000Z</Time>
            <Position>
              <LatitudeDegrees>42.78935023583471775054931640625</LatitudeDegrees>
              <LongitudeDegrees>-0.14783120714128017425537109375</LongitudeDegrees>
            </Position>
            <AltitudeMeters>2305.800048828125</AltitudeMeters>
            <DistanceMeters>23125.193217922</DistanceMeters>
          </Trackpoint>
          <Trackpoint>
            <Time>2022-07-10T05:46:15.000Z</Time>
            <Position>
              <LatitudeDegrees>42.7893456257879734039306640625</LatitudeDegrees>
              <LongitudeDegrees>-0.14785551466047763824462890625</LongitudeDegrees>
            </Position>
            <AltitudeMeters>2306.39990234375</AltitudeMeters>
            <DistanceMeters>23127.244562755</DistanceMeters>
          </Trackpoint>
          <Trackpoint>
            <Time>2022-07-10T05:46:16.000Z</Time>
            <Position>
              <LatitudeDegrees>42.78934755362570285797119140625</LatitudeDegrees>
              <LongitudeDegrees>-0.1478616334497928619384765625</LongitudeDegrees>
            </Position>
            <AltitudeMeters>2306.800048828125</AltitudeMeters>
            <DistanceMeters>23127.782115028</DistanceMeters>
          </Trackpoint>
          <Trackpoint>
            <Time>2022-07-10T05:46:19.000Z</Time>
            <Position>
              <LatitudeDegrees>42.789358198642730712890625</LatitudeDegrees>
              <LongitudeDegrees>-0.14786842279136180877685546875</LongitudeDegrees>
            </Position>
            <AltitudeMeters>2307.60009765625</AltitudeMeters>
            <DistanceMeters>23129.091967891</DistanceMeters>
          </Trackpoint>
          <Trackpoint>
            <Time>2022-07-10T05:46:23.000Z</Time>
            <Position>
              <LatitudeDegrees>42.7893756330013275146484375</LatitudeDegrees>
              <LongitudeDegrees>-0.14787613414227962493896484375</LongitudeDegrees>
            </Position>
            <AltitudeMeters>2308.39990234375</AltitudeMeters>
            <DistanceMeters>23131.132277976</DistanceMeters>
          </Trackpoint>
          <Trackpoint>
            <Time>2022-07-10T05:46:24.000Z</Time>
            <Position>
              <LatitudeDegrees>42.78937404043972492218017578125</LatitudeDegrees>
              <LongitudeDegrees>-0.14788066036999225616455078125</LongitudeDegrees>
            </Position>
            <AltitudeMeters>2308.800048828125</AltitudeMeters>
            <DistanceMeters>23131.53544218</DistanceMeters>
          </Trackpoint>
          <Trackpoint>
            <Time>2022-07-10T05:46:25.000Z</Time>
            <Position>
              <LatitudeDegrees>42.78937638737261295318603515625</LatitudeDegrees>
              <LongitudeDegrees>-0.14788334257900714874267578125</LongitudeDegrees>
            </Position>
            <AltitudeMeters>2309</AltitudeMeters>
            <DistanceMeters>23131.864624375</DistanceMeters>
          </Trackpoint>
          <Trackpoint>
            <Time>2022-07-10T05:46:28.000Z</Time>
            <Position>
              <LatitudeDegrees>42.7893895469605922698974609375</LatitudeDegrees>
              <LongitudeDegrees>-0.14787127263844013214111328125</LongitudeDegrees>
            </Position>
            <AltitudeMeters>2309.800048828125</AltitudeMeters>
            <DistanceMeters>23133.632223439</DistanceMeters>
          </Trackpoint>
          <Trackpoint>
            <Time>2022-07-10T05:46:31.000Z</Time>
            <Position>
              <LatitudeDegrees>42.78941117227077484130859375</LatitudeDegrees>
              <LongitudeDegrees>-0.14787060208618640899658203125</LongitudeDegrees>
            </Position>
            <AltitudeMeters>2310.39990234375</AltitudeMeters>
            <DistanceMeters>23136.039983617</DistanceMeters>
          </Trackpoint>
          <Trackpoint>
            <Time>2022-07-10T05:46:34.000Z</Time>
            <Position>
              <LatitudeDegrees>42.78943221084773540496826171875</LatitudeDegrees>
              <LongitudeDegrees>-0.147880576550960540771484375</LongitudeDegrees>
            </Position>
            <AltitudeMeters>2311</AltitudeMeters>
            <DistanceMeters>23138.517977157</DistanceMeters>
          </Trackpoint>
          <Trackpoint>
            <Time>2022-07-10T05:46:37.000Z</Time>
            <Position>
              <LatitudeDegrees>42.78945920057594776153564453125</LatitudeDegrees>
              <LongitudeDegrees>-0.1479038782417774200439453125</LongitudeDegrees>
            </Position>
            <AltitudeMeters>2311.60009765625</AltitudeMeters>
            <DistanceMeters>23142.073551234</DistanceMeters>
          </Trackpoint>
          <Trackpoint>
            <Time>2022-07-10T05:46:38.000Z</Time>
            <Position>
              <LatitudeDegrees>42.78946909122169017791748046875</LatitudeDegrees>
              <LongitudeDegrees>-0.14791083522140979766845703125</LongitudeDegrees>
            </Position>
            <AltitudeMeters>2311.60009765625</AltitudeMeters>
            <DistanceMeters>23143.312548004</DistanceMeters>
          </Trackpoint>
          <Trackpoint>
            <Time>2022-07-10T05:46:39.000Z</Time>
            <Position>
              <LatitudeDegrees>42.7894753776490688323974609375</LatitudeDegrees>
              <LongitudeDegrees>-0.1479169540107250213623046875</LongitudeDegrees>
            </Position>
            <AltitudeMeters>2311.800048828125</AltitudeMeters>
            <DistanceMeters>23144.173051501</DistanceMeters>
          </Trackpoint>
          <Trackpoint>
            <Time>2022-07-10T05:46:41.000Z</Time>
            <Position>
              <LatitudeDegrees>42.78948702849447727203369140625</LatitudeDegrees>
              <LongitudeDegrees>-0.14793128706514835357666015625</LongitudeDegrees>
            </Position>
            <AltitudeMeters>2312</AltitudeMeters>
            <DistanceMeters>23145.920096388</DistanceMeters>
          </Trackpoint>
          <Trackpoint>
            <Time>2022-07-10T05:46:42.000Z</Time>
            <Position>
              <LatitudeDegrees>42.7894928120076656341552734375</LatitudeDegrees>
              <LongitudeDegrees>-0.1479397527873516082763671875</LongitudeDegrees>
            </Position>
            <AltitudeMeters>2312.199951171875</AltitudeMeters>
            <DistanceMeters>23146.865600258</DistanceMeters>
          </Trackpoint>
          <Trackpoint>
            <Time>2022-07-10T05:46:45.000Z</Time>
            <Position>
              <LatitudeDegrees>42.7895045466721057891845703125</LatitudeDegrees>
              <LongitudeDegrees>-0.14796875417232513427734375</LongitudeDegrees>
            </Position>
            <AltitudeMeters>2312.800048828125</AltitudeMeters>
            <DistanceMeters>23149.570107962</DistanceMeters>
          </Trackpoint>
          <Trackpoint>
            <Time>2022-07-10T05:46:46.000Z</Time>
            <Position>
              <LatitudeDegrees>42.78950764797627925872802734375</LatitudeDegrees>
              <LongitudeDegrees>-0.1479793153703212738037109375</LongitudeDegrees>
            </Position>
            <AltitudeMeters>2313</AltitudeMeters>
            <DistanceMeters>23150.496313804</DistanceMeters>
          </Trackpoint>
          <Trackpoint>
            <Time>2022-07-10T05:46:49.000Z</Time>
            <Position>
              <LatitudeDegrees>42.7895223163068294525146484375</LatitudeDegrees>
              <LongitudeDegrees>-0.148014016449451446533203125</LongitudeDegrees>
            </Position>
            <AltitudeMeters>2313.60009765625</AltitudeMeters>
            <DistanceMeters>23153.766116628</DistanceMeters>
          </Trackpoint>
          <Trackpoint>
            <Time>2022-07-10T05:46:53.000Z</Time>
            <Position>
              <LatitudeDegrees>42.7895508147776126861572265625</LatitudeDegrees>
              <LongitudeDegrees>-0.14805265702307224273681640625</LongitudeDegrees>
            </Position>
            <AltitudeMeters>2314.39990234375</AltitudeMeters>
            <DistanceMeters>23158.241461258</DistanceMeters>
          </Trackpoint>
          <Trackpoint>
            <Time>2022-07-10T05:46:54.000Z</Time>
            <Position>
              <LatitudeDegrees>42.78955844230949878692626953125</LatitudeDegrees>
              <LongitudeDegrees>-0.1480611227452754974365234375</LongitudeDegrees>
            </Position>
            <AltitudeMeters>2314.60009765625</AltitudeMeters>
            <DistanceMeters>23159.33736279</DistanceMeters>
          </Trackpoint>
          <Trackpoint>
            <Time>2022-07-10T05:46:55.000Z</Time>
            <Position>
              <LatitudeDegrees>42.7895689196884632110595703125</LatitudeDegrees>
              <LongitudeDegrees>-0.1480726897716522216796875</LongitudeDegrees>
            </Position>
            <AltitudeMeters>2314.800048828125</AltitudeMeters>
            <DistanceMeters>23160.839867069</DistanceMeters>
          </Trackpoint>
          <Trackpoint>
            <Time>2022-07-10T05:46:57.000Z</Time>
            <Position>
              <LatitudeDegrees>42.789586521685123443603515625</LatitudeDegrees>
              <LongitudeDegrees>-0.14813865534961223602294921875</LongitudeDegrees>
            </Position>
            <AltitudeMeters>2315</AltitudeMeters>
            <DistanceMeters>23166.573058001</DistanceMeters>
          </Trackpoint>
          <Trackpoint>
            <Time>2022-07-10T05:47:00.000Z</Time>
            <Position>
              <LatitudeDegrees>42.7895794808864593505859375</LatitudeDegrees>
              <LongitudeDegrees>-0.1481826603412628173828125</LongitudeDegrees>
            </Position>
            <AltitudeMeters>2315.39990234375</AltitudeMeters>
            <DistanceMeters>23170.250972425</DistanceMeters>
          </Trackpoint>
          <Trackpoint>
            <Time>2022-07-10T05:47:01.000Z</Time>
            <Position>
              <LatitudeDegrees>42.789571098983287811279296875</LatitudeDegrees>
              <LongitudeDegrees>-0.14817536808550357818603515625</LongitudeDegrees>
            </Position>
            <AltitudeMeters>2315.60009765625</AltitudeMeters>
            <DistanceMeters>23171.359164826</DistanceMeters>
          </Trackpoint>
          <Trackpoint>
            <Time>2022-07-10T05:47:06.000Z</Time>
            <Position>
              <LatitudeDegrees>42.789555005729198455810546875</LatitudeDegrees>
              <LongitudeDegrees>-0.1481600292026996612548828125</LongitudeDegrees>
            </Position>
            <AltitudeMeters>2316</AltitudeMeters>
            <DistanceMeters>23173.544779256</DistanceMeters>
          </Trackpoint>
          <Trackpoint>
            <Time>2022-07-10T05:47:08.000Z</Time>
            <Position>
              <LatitudeDegrees>42.78954930603504180908203125</LatitudeDegrees>
              <LongitudeDegrees>-0.14814804308116436004638671875</LongitudeDegrees>
            </Position>
            <AltitudeMeters>2316.39990234375</AltitudeMeters>
            <DistanceMeters>23174.708614067</DistanceMeters>
          </Trackpoint>
          <Trackpoint>
            <Time>2022-07-10T05:47:09.000Z</Time>
            <Position>
              <LatitudeDegrees>42.78955006040632724761962890625</LatitudeDegrees>
              <LongitudeDegrees>-0.1481399126350879669189453125</LongitudeDegrees>
            </Position>
            <AltitudeMeters>2316.60009765625</AltitudeMeters>
            <DistanceMeters>23175.380554408</DistanceMeters>
          </Trackpoint>
          <Trackpoint>
            <Time>2022-07-10T05:47:12.000Z</Time>
            <Position>
              <LatitudeDegrees>42.78954084031283855438232421875</LatitudeDegrees>
              <LongitudeDegrees>-0.14812909997999668121337890625</LongitudeDegrees>
            </Position>
            <AltitudeMeters>2317</AltitudeMeters>
            <DistanceMeters>23176.731137779</DistanceMeters>
          </Trackpoint>
          <Trackpoint>
            <Time>2022-07-10T05:47:14.000Z</Time>
            <Position>
              <LatitudeDegrees>42.78953178785741329193115234375</LatitudeDegrees>
              <LongitudeDegrees>-0.14812340028584003448486328125</LongitudeDegrees>
            </Position>
            <AltitudeMeters>2317.39990234375</AltitudeMeters>
            <DistanceMeters>23177.839330179</DistanceMeters>
          </Trackpoint>
          <Trackpoint>
            <Time>2022-07-10T05:47:15.000Z</Time>
            <Position>
              <LatitudeDegrees>42.78952910564839839935302734375</LatitudeDegrees>
              <LongitudeDegrees>-0.14812423847615718841552734375</LongitudeDegrees>
            </Position>
            <AltitudeMeters>2317.800048828125</AltitudeMeters>
            <DistanceMeters>23178.139831035</DistanceMeters>
          </Trackpoint>
          <Trackpoint>
            <Time>2022-07-10T05:47:16.000Z</Time>
            <Position>
              <LatitudeDegrees>42.78952524997293949127197265625</LatitudeDegrees>
              <LongitudeDegrees>-0.148121304810047149658203125</LongitudeDegrees>
            </Position>
            <AltitudeMeters>2317.800048828125</AltitudeMeters>
            <DistanceMeters>23178.624374106</DistanceMeters>
          </Trackpoint>
          <Trackpoint>
            <Time>2022-07-10T05:47:21.000Z</Time>
            <Position>
              <LatitudeDegrees>42.78949725441634654998779296875</LatitudeDegrees>
              <LongitudeDegrees>-0.14811468310654163360595703125</LongitudeDegrees>
            </Position>
            <AltitudeMeters>2318.60009765625</AltitudeMeters>
            <DistanceMeters>23181.784637473</DistanceMeters>
          </Trackpoint>
          <Trackpoint>
            <Time>2022-07-10T05:47:22.000Z</Time>
            <Position>
              <LatitudeDegrees>42.78949473984539508819580078125</LatitudeDegrees>
              <LongitudeDegrees>-0.14811887405812740325927734375</LongitudeDegrees>
            </Position>
            <AltitudeMeters>2318.60009765625</AltitudeMeters>
            <DistanceMeters>23182.220104585</DistanceMeters>
          </Trackpoint>
          <Trackpoint>
            <Time>2022-07-10T05:47:23.000Z</Time>
            <Position>
              <LatitudeDegrees>42.78949507512152194976806640625</LatitudeDegrees>
              <LongitudeDegrees>-0.14812440611422061920166015625</LongitudeDegrees>
            </Position>
            <AltitudeMeters>2318.800048828125</AltitudeMeters>
            <DistanceMeters>23182.675836697</DistanceMeters>
          </Trackpoint>
          <Trackpoint>
            <Time>2022-07-10T05:47:25.000Z</Time>
            <Position>
              <LatitudeDegrees>42.78949909843504428863525390625</LatitudeDegrees>
              <LongitudeDegrees>-0.14812893234193325042724609375</LongitudeDegrees>
            </Position>
            <AltitudeMeters>2319</AltitudeMeters>
            <DistanceMeters>23183.253861634</DistanceMeters>
          </Trackpoint>
          <Trackpoint>
            <Time>2022-07-10T05:47:29.000Z</Time>
            <Position>
              <LatitudeDegrees>42.7894814126193523406982421875</LatitudeDegrees>
              <LongitudeDegrees>-0.1481275074183940887451171875</LongitudeDegrees>
            </Position>
            <AltitudeMeters>2320</AltitudeMeters>
            <DistanceMeters>23185.226667491</DistanceMeters>
          </Trackpoint>
          <Trackpoint>
            <Time>2022-07-10T05:47:30.000Z</Time>
            <Position>
              <LatitudeDegrees>42.789477221667766571044921875</LatitudeDegrees>
              <LongitudeDegrees>-0.1481265015900135040283203125</LongitudeDegrees>
            </Position>
            <AltitudeMeters>2320</AltitudeMeters>
            <DistanceMeters>23185.711210562</DistanceMeters>
          </Trackpoint>
          <Trackpoint>
            <Time>2022-07-10T05:47:35.000Z</Time>
            <Position>
              <LatitudeDegrees>42.789477221667766571044921875</LatitudeDegrees>
              <LongitudeDegrees>-0.14815910719335079193115234375</LongitudeDegrees>
            </Position>
            <AltitudeMeters>2320.800048828125</AltitudeMeters>
            <DistanceMeters>23188.375350214</DistanceMeters>
          </Trackpoint>
          <Trackpoint>
            <Time>2022-07-10T05:47:37.000Z</Time>
            <Position>
              <LatitudeDegrees>42.7894824184477329254150390625</LatitudeDegrees>
              <LongitudeDegrees>-0.148170255124568939208984375</LongitudeDegrees>
            </Position>
            <AltitudeMeters>2321</AltitudeMeters>
            <DistanceMeters>23189.458821458</DistanceMeters>
          </Trackpoint>
          <Trackpoint>
            <Time>2022-07-10T05:47:41.000Z</Time>
            <Position>
              <LatitudeDegrees>42.78949029743671417236328125</LatitudeDegrees>
              <LongitudeDegrees>-0.1481828279793262481689453125</LongitudeDegrees>
            </Position>
            <AltitudeMeters>2322</AltitudeMeters>
            <DistanceMeters>23190.809404829</DistanceMeters>
          </Trackpoint>
          <Trackpoint>
            <Time>2022-07-10T05:47:42.000Z</Time>
            <Position>
              <LatitudeDegrees>42.78948920778930187225341796875</LatitudeDegrees>
              <LongitudeDegrees>-0.14818844385445117950439453125</LongitudeDegrees>
            </Position>
            <AltitudeMeters>2322.199951171875</AltitudeMeters>
            <DistanceMeters>23191.274938753</DistanceMeters>
          </Trackpoint>
          <Trackpoint>
            <Time>2022-07-10T05:47:44.000Z</Time>
            <Position>
              <LatitudeDegrees>42.789492309093475341796875</LatitudeDegrees>
              <LongitudeDegrees>-0.14819749630987644195556640625</LongitudeDegrees>
            </Position>
            <AltitudeMeters>2322.800048828125</AltitudeMeters>
            <DistanceMeters>23192.086847357</DistanceMeters>
          </Trackpoint>
          <Trackpoint>
            <Time>2022-07-10T05:47:45.000Z</Time>
            <Position>
              <LatitudeDegrees>42.7894968353211879730224609375</LatitudeDegrees>
              <LongitudeDegrees>-0.14820554293692111968994140625</LongitudeDegrees>
            </Position>
            <AltitudeMeters>2323</AltitudeMeters>
            <DistanceMeters>23192.920703391</DistanceMeters>
          </Trackpoint>
          <Trackpoint>
            <Time>2022-07-10T05:47:47.000Z</Time>
            <Position>
              <LatitudeDegrees>42.78950831852853298187255859375</LatitudeDegrees>
              <LongitudeDegrees>-0.148227252066135406494140625</LongitudeDegrees>
            </Position>
            <AltitudeMeters>2323.199951171875</AltitudeMeters>
            <DistanceMeters>23195.106317822</DistanceMeters>
          </Trackpoint>
          <Trackpoint>
            <Time>2022-07-10T05:47:48.000Z</Time>
            <Position>
              <LatitudeDegrees>42.789508402347564697265625</LatitudeDegrees>
              <LongitudeDegrees>-0.14823320321738719940185546875</LongitudeDegrees>
            </Position>
            <AltitudeMeters>2323.39990234375</AltitudeMeters>
            <DistanceMeters>23195.590860893</DistanceMeters>
          </Trackpoint>
          <Trackpoint>
            <Time>2022-07-10T05:47:49.000Z</Time>
            <Position>
              <LatitudeDegrees>42.78950647450983524322509765625</LatitudeDegrees>
              <LongitudeDegrees>-0.1482371427118778228759765625</LongitudeDegrees>
            </Position>
            <AltitudeMeters>2323.60009765625</AltitudeMeters>
            <DistanceMeters>23195.97096775</DistanceMeters>
          </Trackpoint>
          <Trackpoint>
            <Time>2022-07-10T05:47:52.000Z</Time>
            <Position>
              <LatitudeDegrees>42.789501361548900604248046875</LatitudeDegrees>
              <LongitudeDegrees>-0.1482549123466014862060546875</LongitudeDegrees>
            </Position>
            <AltitudeMeters>2324.39990234375</AltitudeMeters>
            <DistanceMeters>23197.52662211</DistanceMeters>
          </Trackpoint>
          <Trackpoint>
            <Time>2022-07-10T05:47:54.000Z</Time>
            <Position>
              <LatitudeDegrees>42.7895032055675983428955078125</LatitudeDegrees>
              <LongitudeDegrees>-0.14827075414359569549560546875</LongitudeDegrees>
            </Position>
            <AltitudeMeters>2325</AltitudeMeters>
            <DistanceMeters>23198.836474974</DistanceMeters>
          </Trackpoint>
          <Trackpoint>
            <Time>2022-07-10T05:47:56.000Z</Time>
            <Position>
              <LatitudeDegrees>42.78949834406375885009765625</LatitudeDegrees>
              <LongitudeDegrees>-0.14828667975962162017822265625</LongitudeDegrees>
            </Position>
            <AltitudeMeters>2325.39990234375</AltitudeMeters>
            <DistanceMeters>23200.242741926</DistanceMeters>
          </Trackpoint>
          <Trackpoint>
            <Time>2022-07-10T05:47:57.000Z</Time>
            <Position>
              <LatitudeDegrees>42.78949432075023651123046875</LatitudeDegrees>
              <LongitudeDegrees>-0.148294307291507720947265625</LongitudeDegrees>
            </Position>
            <AltitudeMeters>2325.60009765625</AltitudeMeters>
            <DistanceMeters>23201.014742603</DistanceMeters>
          </Trackpoint>
          <Trackpoint>
            <Time>2022-07-10T05:48:03.000Z</Time>
            <Position>
              <LatitudeDegrees>42.78947998769581317901611328125</LatitudeDegrees>
              <LongitudeDegrees>-0.1483642123639583587646484375</LongitudeDegrees>
            </Position>
            <AltitudeMeters>2326.39990234375</AltitudeMeters>
            <DistanceMeters>23206.943069308</DistanceMeters>
          </Trackpoint>
          <Trackpoint>
            <Time>2022-07-10T05:48:04.000Z</Time>
            <Position>
              <LatitudeDegrees>42.7894824184477329254150390625</LatitudeDegrees>
              <LongitudeDegrees>-0.1483829878270626068115234375</LongitudeDegrees>
            </Position>
            <AltitudeMeters>2326.39990234375</AltitudeMeters>
            <DistanceMeters>23208.501623305</DistanceMeters>
          </Trackpoint>
          <Trackpoint>
            <Time>2022-07-10T05:48:06.000Z</Time>
            <Position>
              <LatitudeDegrees>42.7894820831716060638427734375</LatitudeDegrees>
              <LongitudeDegrees>-0.14841257594525814056396484375</LongitudeDegrees>
            </Position>
            <AltitudeMeters>2326.60009765625</AltitudeMeters>
            <DistanceMeters>23210.920608534</DistanceMeters>
          </Trackpoint>
          <Trackpoint>
            <Time>2022-07-10T05:48:10.000Z</Time>
            <Position>
              <LatitudeDegrees>42.78947847895324230194091796875</LatitudeDegrees>
              <LongitudeDegrees>-0.148462951183319091796875</LongitudeDegrees>
            </Position>
            <AltitudeMeters>2326.800048828125</AltitudeMeters>
            <DistanceMeters>23215.053997535</DistanceMeters>
          </Trackpoint>
          <Trackpoint>
            <Time>2022-07-10T05:48:11.000Z</Time>
            <Position>
              <LatitudeDegrees>42.78947956860065460205078125</LatitudeDegrees>
              <LongitudeDegrees>-0.14847678132355213165283203125</LongitudeDegrees>
            </Position>
            <AltitudeMeters>2326.800048828125</AltitudeMeters>
            <DistanceMeters>23216.186371526</DistanceMeters>
          </Trackpoint>
          <Trackpoint>
            <Time>2022-07-10T05:48:13.000Z</Time>
            <Position>
              <LatitudeDegrees>42.78947713784873485565185546875</LatitudeDegrees>
              <LongitudeDegrees>-0.14850251376628875732421875</LongitudeDegrees>
            </Position>
            <AltitudeMeters>2326.60009765625</AltitudeMeters>
            <DistanceMeters>23218.304849279</DistanceMeters>
          </Trackpoint>
          <Trackpoint>
            <Time>2022-07-10T05:48:18.000Z</Time>
            <Position>
              <LatitudeDegrees>42.78947562910616397857666015625</LatitudeDegrees>
              <LongitudeDegrees>-0.14855691231787204742431640625</LongitudeDegrees>
            </Position>
            <AltitudeMeters>2327</AltitudeMeters>
            <DistanceMeters>23222.749824786</DistanceMeters>
          </Trackpoint>
          <Trackpoint>
            <Time>2022-07-10T05:48:24.000Z</Time>
            <Position>
              <LatitudeDegrees>42.78950161300599575042724609375</LatitudeDegrees>
              <LongitudeDegrees>-0.14858700335025787353515625</LongitudeDegrees>
            </Position>
            <AltitudeMeters>2327.39990234375</AltitudeMeters>
            <DistanceMeters>23226.546139052</DistanceMeters>
          </Trackpoint>
          <Trackpoint>
            <Time>2022-07-10T05:48:25.000Z</Time>
            <Position>
              <LatitudeDegrees>42.78950261883437633514404296875</LatitudeDegrees>
              <LongitudeDegrees>-0.14859111048281192779541015625</LongitudeDegrees>
            </Position>
            <AltitudeMeters>2327.39990234375</AltitudeMeters>
            <DistanceMeters>23226.90169646</DistanceMeters>
          </Trackpoint>
          <Trackpoint>
            <Time>2022-07-10T05:48:31.000Z</Time>
            <Position>
              <LatitudeDegrees>42.78950161300599575042724609375</LatitudeDegrees>
              <LongitudeDegrees>-0.14864467084407806396484375</LongitudeDegrees>
            </Position>
            <AltitudeMeters>2327</AltitudeMeters>
            <DistanceMeters>23231.279118328</DistanceMeters>
          </Trackpoint>
          <Trackpoint>
            <Time>2022-07-10T05:48:33.000Z</Time>
            <Position>
              <LatitudeDegrees>42.78950261883437633514404296875</LatitudeDegrees>
              <LongitudeDegrees>-0.14867258258163928985595703125</LongitudeDegrees>
            </Position>
            <AltitudeMeters>2326.800048828125</AltitudeMeters>
            <DistanceMeters>23233.563715489</DistanceMeters>
          </Trackpoint>
          <Trackpoint>
            <Time>2022-07-10T05:48:36.000Z</Time>
            <Position>
              <LatitudeDegrees>42.78949834406375885009765625</LatitudeDegrees>
              <LongitudeDegrees>-0.14870225451886653900146484375</LongitudeDegrees>
            </Position>
            <AltitudeMeters>2326.60009765625</AltitudeMeters>
            <DistanceMeters>23236.034410062</DistanceMeters>
          </Trackpoint>
          <Trackpoint>
            <Time>2022-07-10T05:48:37.000Z</Time>
            <Position>
              <LatitudeDegrees>42.7894968353211879730224609375</LatitudeDegrees>
              <LongitudeDegrees>-0.14871013350784778594970703125</LongitudeDegrees>
            </Position>
            <AltitudeMeters>2326.39990234375</AltitudeMeters>
            <DistanceMeters>23236.706350403</DistanceMeters>
          </Trackpoint>
          <Trackpoint>
            <Time>2022-07-10T05:48:38.000Z</Time>
            <Position>
              <LatitudeDegrees>42.7894958294928073883056640625</LatitudeDegrees>
              <LongitudeDegrees>-0.14871843159198760986328125</LongitudeDegrees>
            </Position>
            <AltitudeMeters>2326.39990234375</AltitudeMeters>
            <DistanceMeters>23237.391597786</DistanceMeters>
          </Trackpoint>
          <Trackpoint>
            <Time>2022-07-10T05:48:42.000Z</Time>
            <Position>
              <LatitudeDegrees>42.78950043953955173492431640625</LatitudeDegrees>
              <LongitudeDegrees>-0.1487244665622711181640625</LongitudeDegrees>
            </Position>
            <AltitudeMeters>2326.199951171875</AltitudeMeters>
            <DistanceMeters>23238.102712601</DistanceMeters>
          </Trackpoint>
          <Trackpoint>
            <Time>2022-07-10T05:48:45.000Z</Time>
            <Position>
              <LatitudeDegrees>42.789492644369602203369140625</LatitudeDegrees>
              <LongitudeDegrees>-0.14872656203806400299072265625</LongitudeDegrees>
            </Position>
            <AltitudeMeters>2326.199951171875</AltitudeMeters>
            <DistanceMeters>23238.989062786</DistanceMeters>
          </Trackpoint>
          <Trackpoint>
            <Time>2022-07-10T05:48:48.000Z</Time>
            <Position>
              <LatitudeDegrees>42.78949390165507793426513671875</LatitudeDegrees>
              <LongitudeDegrees>-0.14873318374156951904296875</LongitudeDegrees>
            </Position>
            <AltitudeMeters>2326.199951171875</AltitudeMeters>
            <DistanceMeters>23239.543158987</DistanceMeters>
          </Trackpoint>
          <Trackpoint>
            <Time>2022-07-10T05:48:51.000Z</Time>
            <Position>
              <LatitudeDegrees>42.789502702653408050537109375</LatitudeDegrees>
              <LongitudeDegrees>-0.1487313397228717803955078125</LongitudeDegrees>
            </Position>
            <AltitudeMeters>2326.39990234375</AltitudeMeters>
            <DistanceMeters>23240.535267011</DistanceMeters>
          </Trackpoint>
          <Trackpoint>
            <Time>2022-07-10T05:48:53.000Z</Time>
            <Position>
              <LatitudeDegrees>42.7895062230527400970458984375</LatitudeDegrees>
              <LongitudeDegrees>-0.14873293228447437286376953125</LongitudeDegrees>
            </Position>
            <AltitudeMeters>2326.39990234375</AltitudeMeters>
            <DistanceMeters>23240.938431216</DistanceMeters>
          </Trackpoint>
          <Trackpoint>
            <Time>2022-07-10T05:48:59.000Z</Time>
            <Position>
              <LatitudeDegrees>42.78952642343938350677490234375</LatitudeDegrees>
              <LongitudeDegrees>-0.1487377099692821502685546875</LongitudeDegrees>
            </Position>
            <AltitudeMeters>2326.60009765625</AltitudeMeters>
            <DistanceMeters>23243.219072361</DistanceMeters>
          </Trackpoint>
          <Trackpoint>
            <Time>2022-07-10T05:49:02.000Z</Time>
            <Position>
              <LatitudeDegrees>42.7895115874707698822021484375</LatitudeDegrees>
              <LongitudeDegrees>-0.14876361005008220672607421875</LongitudeDegrees>
            </Position>
            <AltitudeMeters>2326.60009765625</AltitudeMeters>
            <DistanceMeters>23245.903471922</DistanceMeters>
          </Trackpoint>
          <Trackpoint>
            <Time>2022-07-10T05:49:05.000Z</Time>
            <Position>
              <LatitudeDegrees>42.78951284475624561309814453125</LatitudeDegrees>
              <LongitudeDegrees>-0.148770399391651153564453125</LongitudeDegrees>
            </Position>
            <AltitudeMeters>2326.800048828125</AltitudeMeters>
            <DistanceMeters>23246.473632208</DistanceMeters>
          </Trackpoint>
          <Trackpoint>
            <Time>2022-07-10T05:49:06.000Z</Time>
            <Position>
              <LatitudeDegrees>42.78951267711818218231201171875</LatitudeDegrees>
              <LongitudeDegrees>-0.148769058287143707275390625</LongitudeDegrees>
            </Position>
            <AltitudeMeters>2326.800048828125</AltitudeMeters>
            <DistanceMeters>23246.608020276</DistanceMeters>
          </Trackpoint>
          <Trackpoint>
            <Time>2022-07-10T05:49:12.000Z</Time>
            <Position>
              <LatitudeDegrees>42.789516113698482513427734375</LatitudeDegrees>
              <LongitudeDegrees>-0.14878104440867900848388671875</LongitudeDegrees>
            </Position>
            <AltitudeMeters>2326.60009765625</AltitudeMeters>
            <DistanceMeters>23247.657624643</DistanceMeters>
          </Trackpoint>
          <Trackpoint>
            <Time>2022-07-10T05:49:13.000Z</Time>
            <Position>
              <LatitudeDegrees>42.78952139429748058319091796875</LatitudeDegrees>
              <LongitudeDegrees>-0.1487745903432369232177734375</LongitudeDegrees>
            </Position>
            <AltitudeMeters>2326.39990234375</AltitudeMeters>
            <DistanceMeters>23248.452675176</DistanceMeters>
          </Trackpoint>
          <Trackpoint>
            <Time>2022-07-10T05:49:19.000Z</Time>
            <Position>
              <LatitudeDegrees>42.78951787389814853668212890625</LatitudeDegrees>
              <LongitudeDegrees>-0.14876226894557476043701171875</LongitudeDegrees>
            </Position>
            <AltitudeMeters>2326.199951171875</AltitudeMeters>
            <DistanceMeters>23249.531971179</DistanceMeters>
          </Trackpoint>
          <Trackpoint>
            <Time>2022-07-10T05:49:21.000Z</Time>
            <Position>
              <LatitudeDegrees>42.789518125355243682861328125</LatitudeDegrees>
              <LongitudeDegrees>-0.1487486064434051513671875</LongitudeDegrees>
            </Position>
            <AltitudeMeters>2326.199951171875</AltitudeMeters>
            <DistanceMeters>23250.648282314</DistanceMeters>
          </Trackpoint>
          <Trackpoint>
            <Time>2022-07-10T05:49:27.000Z</Time>
            <Position>
              <LatitudeDegrees>42.7895129285752773284912109375</LatitudeDegrees>
              <LongitudeDegrees>-0.14878288842737674713134765625</LongitudeDegrees>
            </Position>
            <AltitudeMeters>2326.60009765625</AltitudeMeters>
            <DistanceMeters>23253.506991669</DistanceMeters>
          </Trackpoint>
          <Trackpoint>
            <Time>2022-07-10T05:49:28.000Z</Time>
            <Position>
              <LatitudeDegrees>42.78951535932719707489013671875</LatitudeDegrees>
              <LongitudeDegrees>-0.148786492645740509033203125</LongitudeDegrees>
            </Position>
            <AltitudeMeters>2326.800048828125</AltitudeMeters>
            <DistanceMeters>23253.910155874</DistanceMeters>
          </Trackpoint>
          <Trackpoint>
            <Time>2022-07-10T05:49:34.000Z</Time>
            <Position>
              <LatitudeDegrees>42.7895203046500682830810546875</LatitudeDegrees>
              <LongitudeDegrees>-0.14873662032186985015869140625</LongitudeDegrees>
            </Position>
            <AltitudeMeters>2326.60009765625</AltitudeMeters>
            <DistanceMeters>23258.020541869</DistanceMeters>
          </Trackpoint>
          <Trackpoint>
            <Time>2022-07-10T05:49:37.000Z</Time>
            <Position>
              <LatitudeDegrees>42.78951385058462619781494140625</LatitudeDegrees>
              <LongitudeDegrees>-0.1487601734697818756103515625</LongitudeDegrees>
            </Position>
            <AltitudeMeters>2326.800048828125</AltitudeMeters>
            <DistanceMeters>23260.071886702</DistanceMeters>
          </Trackpoint>
          <Trackpoint>
            <Time>2022-07-10T05:49:42.000Z</Time>
            <Position>
              <LatitudeDegrees>42.7895256690680980682373046875</LatitudeDegrees>
              <LongitudeDegrees>-0.14874936081469058990478515625</LongitudeDegrees>
            </Position>
            <AltitudeMeters>2326.800048828125</AltitudeMeters>
            <DistanceMeters>23261.65344643</DistanceMeters>
          </Trackpoint>
          <Trackpoint>
            <Time>2022-07-10T05:49:48.000Z</Time>
            <Position>
              <LatitudeDegrees>42.789529860019683837890625</LatitudeDegrees>
              <LongitudeDegrees>-0.14873863197863101959228515625</LongitudeDegrees>
            </Position>
            <AltitudeMeters>2327</AltitudeMeters>
            <DistanceMeters>23262.640993015</DistanceMeters>
          </Trackpoint>
          <Trackpoint>
            <Time>2022-07-10T05:49:49.000Z</Time>
            <Position>
              <LatitudeDegrees>42.78952692635357379913330078125</LatitudeDegrees>
              <LongitudeDegrees>-0.1487440802156925201416015625</LongitudeDegrees>
            </Position>
            <AltitudeMeters>2327</AltitudeMeters>
            <DistanceMeters>23263.195089215</DistanceMeters>
          </Trackpoint>
          <Trackpoint>
            <Time>2022-07-10T05:49:55.000Z</Time>
            <Position>
              <LatitudeDegrees>42.78952776454389095306396484375</LatitudeDegrees>
              <LongitudeDegrees>-0.14875061810016632080078125</LongitudeDegrees>
            </Position>
            <AltitudeMeters>2326.800048828125</AltitudeMeters>
            <DistanceMeters>23263.732641488</DistanceMeters>
          </Trackpoint>
          <Trackpoint>
            <Time>2022-07-10T05:49:58.000Z</Time>
            <Position>
              <LatitudeDegrees>42.78952793218195438385009765625</LatitudeDegrees>
              <LongitudeDegrees>-0.1487849839031696319580078125</LongitudeDegrees>
            </Position>
            <AltitudeMeters>2326.60009765625</AltitudeMeters>
            <DistanceMeters>23266.538746735</DistanceMeters>
          </Trackpoint>
          <Trackpoint>
            <Time>2022-07-10T05:50:04.000Z</Time>
            <Position>
              <LatitudeDegrees>42.7895285189151763916015625</LatitudeDegrees>
              <LongitudeDegrees>-0.14877333305776119232177734375</LongitudeDegrees>
            </Position>
            <AltitudeMeters>2327</AltitudeMeters>
            <DistanceMeters>23267.493753395</DistanceMeters>
          </Trackpoint>
          <Trackpoint>
            <Time>2022-07-10T05:50:05.000Z</Time>
            <Position>
              <LatitudeDegrees>42.78952910564839839935302734375</LatitudeDegrees>
              <LongitudeDegrees>-0.148769058287143707275390625</LongitudeDegrees>
            </Position>
            <AltitudeMeters>2327.199951171875</AltitudeMeters>
            <DistanceMeters>23267.849310803</DistanceMeters>
          </Trackpoint>
          <Trackpoint>
            <Time>2022-07-10T05:50:11.000Z</Time>
            <Position>
              <LatitudeDegrees>42.78953933157026767730712890625</LatitudeDegrees>
              <LongitudeDegrees>-0.14877953566610813140869140625</LongitudeDegrees>
            </Position>
            <AltitudeMeters>2327.199951171875</AltitudeMeters>
            <DistanceMeters>23269.274711519</DistanceMeters>
          </Trackpoint>
          <Trackpoint>
            <Time>2022-07-10T05:50:12.000Z</Time>
            <Position>
              <LatitudeDegrees>42.78954117558896541595458984375</LatitudeDegrees>
              <LongitudeDegrees>-0.148790180683135986328125</LongitudeDegrees>
            </Position>
            <AltitudeMeters>2327.199951171875</AltitudeMeters>
            <DistanceMeters>23270.171191749</DistanceMeters>
          </Trackpoint>
          <Trackpoint>
            <Time>2022-07-10T05:50:15.000Z</Time>
            <Position>
              <LatitudeDegrees>42.78954821638762950897216796875</LatitudeDegrees>
              <LongitudeDegrees>-0.148811303079128265380859375</LongitudeDegrees>
            </Position>
            <AltitudeMeters>2327</AltitudeMeters>
            <DistanceMeters>23272.066968747</DistanceMeters>
          </Trackpoint>
          <Trackpoint>
            <Time>2022-07-10T05:50:17.000Z</Time>
            <Position>
              <LatitudeDegrees>42.7895457856357097625732421875</LatitudeDegrees>
              <LongitudeDegrees>-0.1488071121275424957275390625</LongitudeDegrees>
            </Position>
            <AltitudeMeters>2327</AltitudeMeters>
            <DistanceMeters>23272.502435858</DistanceMeters>
          </Trackpoint>
          <Trackpoint>
            <Time>2022-07-10T05:50:22.000Z</Time>
            <Position>
              <LatitudeDegrees>42.78952223248779773712158203125</LatitudeDegrees>
              <LongitudeDegrees>-0.1487477682530879974365234375</LongitudeDegrees>
            </Position>
            <AltitudeMeters>2326.60009765625</AltitudeMeters>
            <DistanceMeters>23278.012346656</DistanceMeters>
          </Trackpoint>
          <Trackpoint>
            <Time>2022-07-10T05:50:28.000Z</Time>
            <Position>
              <LatitudeDegrees>42.78951485641300678253173828125</LatitudeDegrees>
              <LongitudeDegrees>-0.148767717182636260986328125</LongitudeDegrees>
            </Position>
            <AltitudeMeters>2326.199951171875</AltitudeMeters>
            <DistanceMeters>23279.835275106</DistanceMeters>
          </Trackpoint>
          <Trackpoint>
            <Time>2022-07-10T05:50:31.000Z</Time>
            <Position>
              <LatitudeDegrees>42.7895072288811206817626953125</LatitudeDegrees>
              <LongitudeDegrees>-0.1488232053816318511962890625</LongitudeDegrees>
            </Position>
            <AltitudeMeters>2326.199951171875</AltitudeMeters>
            <DistanceMeters>23284.446764022</DistanceMeters>
          </Trackpoint>
          <Trackpoint>
            <Time>2022-07-10T05:50:37.000Z</Time>
            <Position>
              <LatitudeDegrees>42.7895216457545757293701171875</LatitudeDegrees>
              <LongitudeDegrees>-0.148834772408008575439453125</LongitudeDegrees>
            </Position>
            <AltitudeMeters>2326.800048828125</AltitudeMeters>
            <DistanceMeters>23286.308899719</DistanceMeters>
          </Trackpoint>
          <Trackpoint>
            <Time>2022-07-10T05:50:41.000Z</Time>
            <Position>
              <LatitudeDegrees>42.78952793218195438385009765625</LatitudeDegrees>
              <LongitudeDegrees>-0.1487544737756252288818359375</LongitudeDegrees>
            </Position>
            <AltitudeMeters>2326.800048828125</AltitudeMeters>
            <DistanceMeters>23292.905560873</DistanceMeters>
          </Trackpoint>
          <Trackpoint>
            <Time>2022-07-10T05:50:47.000Z</Time>
            <Position>
              <LatitudeDegrees>42.78952508233487606048583984375</LatitudeDegrees>
              <LongitudeDegrees>-0.14871952123939990997314453125</LongitudeDegrees>
            </Position>
            <AltitudeMeters>2326.800048828125</AltitudeMeters>
            <DistanceMeters>23295.780020813</DistanceMeters>
          </Trackpoint>
          <Trackpoint>
            <Time>2022-07-10T05:50:48.000Z</Time>
            <Position>
              <LatitudeDegrees>42.78952709399163722991943359375</LatitudeDegrees>
              <LongitudeDegrees>-0.1487313397228717803955078125</LongitudeDegrees>
            </Position>
            <AltitudeMeters>2326.800048828125</AltitudeMeters>
            <DistanceMeters>23296.776669402</DistanceMeters>
          </Trackpoint>
          <Trackpoint>
            <Time>2022-07-10T05:50:52.000Z</Time>
            <Position>
              <LatitudeDegrees>42.789530865848064422607421875</LatitudeDegrees>
              <LongitudeDegrees>-0.14879378490149974822998046875</LongitudeDegrees>
            </Position>
            <AltitudeMeters>2326.800048828125</AltitudeMeters>
            <DistanceMeters>23301.894014581</DistanceMeters>
          </Trackpoint>
          <Trackpoint>
            <Time>2022-07-10T05:50:56.000Z</Time>
            <Position>
              <LatitudeDegrees>42.78953128494322299957275390625</LatitudeDegrees>
              <LongitudeDegrees>-0.14885715208947658538818359375</LongitudeDegrees>
            </Position>
            <AltitudeMeters>2327</AltitudeMeters>
            <DistanceMeters>23307.071008582</DistanceMeters>
          </Trackpoint>
          <Trackpoint>
            <Time>2022-07-10T05:51:02.000Z</Time>
            <Position>
              <LatitudeDegrees>42.78953212313354015350341796875</LatitudeDegrees>
              <LongitudeDegrees>-0.1488929428160190582275390625</LongitudeDegrees>
            </Position>
            <AltitudeMeters>2327</AltitudeMeters>
            <DistanceMeters>23309.993755974</DistanceMeters>
          </Trackpoint>
          <Trackpoint>
            <Time>2022-07-10T05:51:03.000Z</Time>
            <Position>
              <LatitudeDegrees>42.7895285189151763916015625</LatitudeDegrees>
              <LongitudeDegrees>-0.14888950623571872711181640625</LongitudeDegrees>
            </Position>
            <AltitudeMeters>2327</AltitudeMeters>
            <DistanceMeters>23310.478299045</DistanceMeters>
          </Trackpoint>
          <Trackpoint>
            <Time>2022-07-10T05:51:04.000Z</Time>
            <Position>
              <LatitudeDegrees>42.7895273454487323760986328125</LatitudeDegrees>
              <LongitudeDegrees>-0.148886740207672119140625</LongitudeDegrees>
            </Position>
            <AltitudeMeters>2327.199951171875</AltitudeMeters>
            <DistanceMeters>23310.729716099</DistanceMeters>
          </Trackpoint>
          <Trackpoint>
            <Time>2022-07-10T05:51:05.000Z</Time>
            <Position>
              <LatitudeDegrees>42.7895263396203517913818359375</LatitudeDegrees>
              <LongitudeDegrees>-0.14888162724673748016357421875</LongitudeDegrees>
            </Position>
            <AltitudeMeters>2327.199951171875</AltitudeMeters>
            <DistanceMeters>23311.154688485</DistanceMeters>
          </Trackpoint>
          <Trackpoint>
            <Time>2022-07-10T05:51:11.000Z</Time>
            <Position>
              <LatitudeDegrees>42.789536230266094207763671875</LatitudeDegrees>
              <LongitudeDegrees>-0.14882245101034641265869140625</LongitudeDegrees>
            </Position>
            <AltitudeMeters>2327.199951171875</AltitudeMeters>
            <DistanceMeters>23316.112497283</DistanceMeters>
          </Trackpoint>
          <Trackpoint>
            <Time>2022-07-10T05:51:12.000Z</Time>
            <Position>
              <LatitudeDegrees>42.7895360626280307769775390625</LatitudeDegrees>
              <LongitudeDegrees>-0.148816667497158050537109375</LongitudeDegrees>
            </Position>
            <AltitudeMeters>2327.199951171875</AltitudeMeters>
            <DistanceMeters>23316.587630855</DistanceMeters>
          </Trackpoint>
          <Trackpoint>
            <Time>2022-07-10T05:51:18.000Z</Time>
            <Position>
              <LatitudeDegrees>42.78952977620065212249755859375</LatitudeDegrees>
              <LongitudeDegrees>-0.1487997360527515411376953125</LongitudeDegrees>
            </Position>
            <AltitudeMeters>2327</AltitudeMeters>
            <DistanceMeters>23318.137469664</DistanceMeters>
          </Trackpoint>
          <Trackpoint>
            <Time>2022-07-10T05:51:21.000Z</Time>
            <Position>
              <LatitudeDegrees>42.789539583027362823486328125</LatitudeDegrees>
              <LongitudeDegrees>-0.1487682200968265533447265625</LongitudeDegrees>
            </Position>
            <AltitudeMeters>2327</AltitudeMeters>
            <DistanceMeters>23320.93228918</DistanceMeters>
          </Trackpoint>
          <Trackpoint>
            <Time>2022-07-10T05:51:22.000Z</Time>
            <Position>
              <LatitudeDegrees>42.78954285196959972381591796875</LatitudeDegrees>
              <LongitudeDegrees>-0.1487578265368938446044921875</LongitudeDegrees>
            </Position>
            <AltitudeMeters>2327.199951171875</AltitudeMeters>
            <DistanceMeters>23321.853607358</DistanceMeters>
          </Trackpoint>
          <Trackpoint>
            <Time>2022-07-10T05:51:23.000Z</Time>
            <Position>
              <LatitudeDegrees>42.7895417623221874237060546875</LatitudeDegrees>
              <LongitudeDegrees>-0.148754306137561798095703125</LongitudeDegrees>
            </Position>
            <AltitudeMeters>2327.199951171875</AltitudeMeters>
            <DistanceMeters>23322.154108214</DistanceMeters>
          </Trackpoint>
          <Trackpoint>
            <Time>2022-07-10T05:51:25.000Z</Time>
            <Position>
              <LatitudeDegrees>42.78953480534255504608154296875</LatitudeDegrees>
              <LongitudeDegrees>-0.14874265529215335845947265625</LongitudeDegrees>
            </Position>
            <AltitudeMeters>2327.39990234375</AltitudeMeters>
            <DistanceMeters>23323.378441784</DistanceMeters>
          </Trackpoint>
          <Trackpoint>
            <Time>2022-07-10T05:51:29.000Z</Time>
            <Position>
              <LatitudeDegrees>42.7895296923816204071044921875</LatitudeDegrees>
              <LongitudeDegrees>-0.1487118937075138092041015625</LongitudeDegrees>
            </Position>
            <AltitudeMeters>2327.60009765625</AltitudeMeters>
            <DistanceMeters>23325.95645192</DistanceMeters>
          </Trackpoint>
          <Trackpoint>
            <Time>2022-07-10T05:51:30.000Z</Time>
            <Position>
              <LatitudeDegrees>42.78953011147677898406982421875</LatitudeDegrees>
              <LongitudeDegrees>-0.148706026375293731689453125</LongitudeDegrees>
            </Position>
            <AltitudeMeters>2327.60009765625</AltitudeMeters>
            <DistanceMeters>23326.440994991</DistanceMeters>
          </Trackpoint>
          <Trackpoint>
            <Time>2022-07-10T05:51:36.000Z</Time>
            <Position>
              <LatitudeDegrees>42.78951820917427539825439453125</LatitudeDegrees>
              <LongitudeDegrees>-0.14869588427245616912841796875</LongitudeDegrees>
            </Position>
            <AltitudeMeters>2328</AltitudeMeters>
            <DistanceMeters>23328.002443242</DistanceMeters>
          </Trackpoint>
          <Trackpoint>
            <Time>2022-07-10T05:51:38.000Z</Time>
            <Position>
              <LatitudeDegrees>42.789522148668766021728515625</LatitudeDegrees>
              <LongitudeDegrees>-0.14870367944240570068359375</LongitudeDegrees>
            </Position>
            <AltitudeMeters>2327.800048828125</AltitudeMeters>
            <DistanceMeters>23328.780270422</DistanceMeters>
          </Trackpoint>
          <Trackpoint>
            <Time>2022-07-10T05:51:44.000Z</Time>
            <Position>
              <LatitudeDegrees>42.789518125355243682861328125</LatitudeDegrees>
              <LongitudeDegrees>-0.14872874133288860321044921875</LongitudeDegrees>
            </Position>
            <AltitudeMeters>2327.60009765625</AltitudeMeters>
            <DistanceMeters>23330.877327223</DistanceMeters>
          </Trackpoint>
          <Trackpoint>
            <Time>2022-07-10T05:51:47.000Z</Time>
            <Position>
              <LatitudeDegrees>42.7895149402320384979248046875</LatitudeDegrees>
              <LongitudeDegrees>-0.1487517915666103363037109375</LongitudeDegrees>
            </Position>
            <AltitudeMeters>2327.60009765625</AltitudeMeters>
            <DistanceMeters>23332.792062462</DistanceMeters>
          </Trackpoint>
          <Trackpoint>
            <Time>2022-07-10T05:51:50.000Z</Time>
            <Position>
              <LatitudeDegrees>42.78951577842235565185546875</LatitudeDegrees>
              <LongitudeDegrees>-0.14877551235258579254150390625</LongitudeDegrees>
            </Position>
            <AltitudeMeters>2327.39990234375</AltitudeMeters>
            <DistanceMeters>23334.732562881</DistanceMeters>
          </Trackpoint>
          <Trackpoint>
            <Time>2022-07-10T05:51:52.000Z</Time>
            <Position>
              <LatitudeDegrees>42.7895177900791168212890625</LatitudeDegrees>
              <LongitudeDegrees>-0.14877098612487316131591796875</LongitudeDegrees>
            </Position>
            <AltitudeMeters>2327.60009765625</AltitudeMeters>
            <DistanceMeters>23335.157535267</DistanceMeters>
          </Trackpoint>
          <Trackpoint>
            <Time>2022-07-10T05:51:54.000Z</Time>
            <Position>
              <LatitudeDegrees>42.7895119227468967437744140625</LatitudeDegrees>
              <LongitudeDegrees>-0.1487481035292148590087890625</LongitudeDegrees>
            </Position>
            <AltitudeMeters>2327.800048828125</AltitudeMeters>
            <DistanceMeters>23337.137195131</DistanceMeters>
          </Trackpoint>
          <Trackpoint>
            <Time>2022-07-10T05:52:00.000Z</Time>
            <Position>
              <LatitudeDegrees>42.78948417864739894866943359375</LatitudeDegrees>
              <LongitudeDegrees>-0.148748941719532012939453125</LongitudeDegrees>
            </Position>
            <AltitudeMeters>2328</AltitudeMeters>
            <DistanceMeters>23340.228120701</DistanceMeters>
          </Trackpoint>
          <Trackpoint>
            <Time>2022-07-10T05:52:02.000Z</Time>
            <Position>
              <LatitudeDegrees>42.7894861064851284027099609375</LatitudeDegrees>
              <LongitudeDegrees>-0.14874047599732875823974609375</LongitudeDegrees>
            </Position>
            <AltitudeMeters>2327.800048828125</AltitudeMeters>
            <DistanceMeters>23340.951822597</DistanceMeters>
          </Trackpoint>
          <Trackpoint>
            <Time>2022-07-10T05:52:08.000Z</Time>
            <Position>
              <LatitudeDegrees>42.78950010426342487335205078125</LatitudeDegrees>
              <LongitudeDegrees>-0.14864869415760040283203125</LongitudeDegrees>
            </Position>
            <AltitudeMeters>2327.800048828125</AltitudeMeters>
            <DistanceMeters>23348.608405142</DistanceMeters>
          </Trackpoint>
          <Trackpoint>
            <Time>2022-07-10T05:52:10.000Z</Time>
            <Position>
              <LatitudeDegrees>42.78949222527444362640380859375</LatitudeDegrees>
              <LongitudeDegrees>-0.1486270688474178314208984375</LongitudeDegrees>
            </Position>
            <AltitudeMeters>2327.800048828125</AltitudeMeters>
            <DistanceMeters>23350.581210999</DistanceMeters>
          </Trackpoint>
          <Trackpoint>
            <Time>2022-07-10T05:52:13.000Z</Time>
            <Position>
              <LatitudeDegrees>42.78948769904673099517822265625</LatitudeDegrees>
              <LongitudeDegrees>-0.1486103050410747528076171875</LongitudeDegrees>
            </Position>
            <AltitudeMeters>2327.800048828125</AltitudeMeters>
            <DistanceMeters>23352.041039085</DistanceMeters>
          </Trackpoint>
          <Trackpoint>
            <Time>2022-07-10T05:52:15.000Z</Time>
            <Position>
              <LatitudeDegrees>42.78949121944606304168701171875</LatitudeDegrees>
              <LongitudeDegrees>-0.14861072413623332977294921875</LongitudeDegrees>
            </Position>
            <AltitudeMeters>2327.800048828125</AltitudeMeters>
            <DistanceMeters>23352.421145942</DistanceMeters>
          </Trackpoint>
          <Trackpoint>
            <Time>2022-07-10T05:52:17.000Z</Time>
            <Position>
              <LatitudeDegrees>42.78950077481567859649658203125</LatitudeDegrees>
              <LongitudeDegrees>-0.14862765558063983917236328125</LongitudeDegrees>
            </Position>
            <AltitudeMeters>2327.800048828125</AltitudeMeters>
            <DistanceMeters>23354.168190829</DistanceMeters>
          </Trackpoint>
          <Trackpoint>
            <Time>2022-07-10T05:52:18.000Z</Time>
            <Position>
              <LatitudeDegrees>42.78950597159564495086669921875</LatitudeDegrees>
              <LongitudeDegrees>-0.14863930642604827880859375</LongitudeDegrees>
            </Position>
            <AltitudeMeters>2327.800048828125</AltitudeMeters>
            <DistanceMeters>23355.284501964</DistanceMeters>
          </Trackpoint>
          <Trackpoint>
            <Time>2022-07-10T05:52:20.000Z</Time>
            <Position>
              <LatitudeDegrees>42.78951770626008510589599609375</LatitudeDegrees>
              <LongitudeDegrees>-0.14867979101836681365966796875</LongitudeDegrees>
            </Position>
            <AltitudeMeters>2328</AltitudeMeters>
            <DistanceMeters>23358.840076042</DistanceMeters>
          </Trackpoint>
          <Trackpoint>
            <Time>2022-07-10T05:52:22.000Z</Time>
            <Position>
              <LatitudeDegrees>42.7895310334861278533935546875</LatitudeDegrees>
              <LongitudeDegrees>-0.1487179286777973175048828125</LongitudeDegrees>
            </Position>
            <AltitudeMeters>2328</AltitudeMeters>
            <DistanceMeters>23362.289951511</DistanceMeters>
          </Trackpoint>
          <Trackpoint>
            <Time>2022-07-10T05:52:25.000Z</Time>
            <Position>
              <LatitudeDegrees>42.789539583027362823486328125</LatitudeDegrees>
              <LongitudeDegrees>-0.14874734915792942047119140625</LongitudeDegrees>
            </Position>
            <AltitudeMeters>2328</AltitudeMeters>
            <DistanceMeters>23364.874957617</DistanceMeters>
          </Trackpoint>
          <Trackpoint>
            <Time>2022-07-10T05:52:26.000Z</Time>
            <Position>
              <LatitudeDegrees>42.789540924131870269775390625</LatitudeDegrees>
              <LongitudeDegrees>-0.14874835498631000518798828125</LongitudeDegrees>
            </Position>
            <AltitudeMeters>2328</AltitudeMeters>
            <DistanceMeters>23365.065011046</DistanceMeters>
          </Trackpoint>
          <Trackpoint>
            <Time>2022-07-10T05:52:28.000Z</Time>
            <Position>
              <LatitudeDegrees>42.789544276893138885498046875</LatitudeDegrees>
              <LongitudeDegrees>-0.14874047599732875823974609375</LongitudeDegrees>
            </Position>
            <AltitudeMeters>2327.800048828125</AltitudeMeters>
            <DistanceMeters>23365.813252143</DistanceMeters>
          </Trackpoint>
          <Trackpoint>
            <Time>2022-07-10T05:52:34.000Z</Time>
            <Position>
              <LatitudeDegrees>42.7895521558821201324462890625</LatitudeDegrees>
              <LongitudeDegrees>-0.148668475449085235595703125</LongitudeDegrees>
            </Position>
            <AltitudeMeters>2327.60009765625</AltitudeMeters>
            <DistanceMeters>23371.758310528</DistanceMeters>
          </Trackpoint>
          <Trackpoint>
            <Time>2022-07-10T05:52:40.000Z</Time>
            <Position>
              <LatitudeDegrees>42.7895486354827880859375</LatitudeDegrees>
              <LongitudeDegrees>-0.14869789592921733856201171875</LongitudeDegrees>
            </Position>
            <AltitudeMeters>2327.60009765625</AltitudeMeters>
            <DistanceMeters>23374.194036338</DistanceMeters>
          </Trackpoint>
          <Trackpoint>
            <Time>2022-07-10T05:52:41.000Z</Time>
            <Position>
              <LatitudeDegrees>42.78954603709280490875244140625</LatitudeDegrees>
              <LongitudeDegrees>-0.1487075351178646087646484375</LongitudeDegrees>
            </Position>
            <AltitudeMeters>2327.800048828125</AltitudeMeters>
            <DistanceMeters>23375.033289556</DistanceMeters>
          </Trackpoint>
          <Trackpoint>
            <Time>2022-07-10T05:52:44.000Z</Time>
            <Position>
              <LatitudeDegrees>42.78953044675290584564208984375</LatitudeDegrees>
              <LongitudeDegrees>-0.148726813495159149169921875</LongitudeDegrees>
            </Position>
            <AltitudeMeters>2328</AltitudeMeters>
            <DistanceMeters>23377.37642559</DistanceMeters>
          </Trackpoint>
          <Trackpoint>
            <Time>2022-07-10T05:52:47.000Z</Time>
            <Position>
              <LatitudeDegrees>42.78951971791684627532958984375</LatitudeDegrees>
              <LongitudeDegrees>-0.14872874133288860321044921875</LongitudeDegrees>
            </Position>
            <AltitudeMeters>2327.800048828125</AltitudeMeters>
            <DistanceMeters>23378.582179424</DistanceMeters>
          </Trackpoint>
          <Trackpoint>
            <Time>2022-07-10T05:52:49.000Z</Time>
            <Position>
              <LatitudeDegrees>42.7895199693739414215087890625</LatitudeDegrees>
              <LongitudeDegrees>-0.14871709048748016357421875</LongitudeDegrees>
            </Position>
            <AltitudeMeters>2327.800048828125</AltitudeMeters>
            <DistanceMeters>23379.532446568</DistanceMeters>
          </Trackpoint>
          <Trackpoint>
            <Time>2022-07-10T05:52:55.000Z</Time>
            <Position>
              <LatitudeDegrees>42.7895273454487323760986328125</LatitudeDegrees>
              <LongitudeDegrees>-0.1487484388053417205810546875</LongitudeDegrees>
            </Position>
            <AltitudeMeters>2327.60009765625</AltitudeMeters>
            <DistanceMeters>23382.220207933</DistanceMeters>
          </Trackpoint>
          <Trackpoint>
            <Time>2022-07-10T05:52:56.000Z</Time>
            <Position>
              <LatitudeDegrees>42.7895270101726055145263671875</LatitudeDegrees>
              <LongitudeDegrees>-0.14876042492687702178955078125</LongitudeDegrees>
            </Position>
            <AltitudeMeters>2327.60009765625</AltitudeMeters>
            <DistanceMeters>23383.198567837</DistanceMeters>
          </Trackpoint>
          <Trackpoint>
            <Time>2022-07-10T05:53:01.000Z</Time>
            <Position>
              <LatitudeDegrees>42.78952424414455890655517578125</LatitudeDegrees>
              <LongitudeDegrees>-0.14876511879265308380126953125</LongitudeDegrees>
            </Position>
            <AltitudeMeters>2331.199951171875</AltitudeMeters>
            <DistanceMeters>23383.683110908</DistanceMeters>
          </Trackpoint>
          <Trackpoint>
            <Time>2022-07-10T05:53:05.000Z</Time>
            <Position>
              <LatitudeDegrees>42.78952307067811489105224609375</LatitudeDegrees>
              <LongitudeDegrees>-0.1487085409462451934814453125</LongitudeDegrees>
            </Position>
            <AltitudeMeters>2329.800048828125</AltitudeMeters>
            <DistanceMeters>23388.305357209</DistanceMeters>
          </Trackpoint>
          <Trackpoint>
            <Time>2022-07-10T05:53:06.000Z</Time>
            <Position>
              <LatitudeDegrees>42.78952181339263916015625</LatitudeDegrees>
              <LongitudeDegrees>-0.1487015001475811004638671875</LongitudeDegrees>
            </Position>
            <AltitudeMeters>2329</AltitudeMeters>
            <DistanceMeters>23388.89879885</DistanceMeters>
          </Trackpoint>
          <Trackpoint>
            <Time>2022-07-10T05:53:07.000Z</Time>
            <Position>
              <LatitudeDegrees>42.7895203046500682830810546875</LatitudeDegrees>
              <LongitudeDegrees>-0.14870208688080310821533203125</LongitudeDegrees>
            </Position>
            <AltitudeMeters>2328.60009765625</AltitudeMeters>
            <DistanceMeters>23389.033186919</DistanceMeters>
          </Trackpoint>
          <Trackpoint>
            <Time>2022-07-10T05:53:09.000Z</Time>
            <Position>
              <LatitudeDegrees>42.78951183892786502838134765625</LatitudeDegrees>
              <LongitudeDegrees>-0.14871574938297271728515625</LongitudeDegrees>
            </Position>
            <AltitudeMeters>2328.199951171875</AltitudeMeters>
            <DistanceMeters>23390.493015005</DistanceMeters>
          </Trackpoint>
          <Trackpoint>
            <Time>2022-07-10T05:53:14.000Z</Time>
            <Position>
              <LatitudeDegrees>42.78950949199497699737548828125</LatitudeDegrees>
              <LongitudeDegrees>-0.14871851541101932525634765625</LongitudeDegrees>
            </Position>
            <AltitudeMeters>2328.199951171875</AltitudeMeters>
            <DistanceMeters>23390.835638696</DistanceMeters>
          </Trackpoint>
          <Trackpoint>
            <Time>2022-07-10T05:53:17.000Z</Time>
            <Position>
              <LatitudeDegrees>42.789519131183624267578125</LatitudeDegrees>
              <LongitudeDegrees>-0.1486968062818050384521484375</LongitudeDegrees>
            </Position>
            <AltitudeMeters>2328.199951171875</AltitudeMeters>
            <DistanceMeters>23392.908876836</DistanceMeters>
          </Trackpoint>
          <Trackpoint>
            <Time>2022-07-10T05:53:23.000Z</Time>
            <Position>
              <LatitudeDegrees>42.789528854191303253173828125</LatitudeDegrees>
              <LongitudeDegrees>-0.14866881072521209716796875</LongitudeDegrees>
            </Position>
            <AltitudeMeters>2328.199951171875</AltitudeMeters>
            <DistanceMeters>23395.437373252</DistanceMeters>
          </Trackpoint>
          <Trackpoint>
            <Time>2022-07-10T05:53:29.000Z</Time>
            <Position>
              <LatitudeDegrees>42.789522148668766021728515625</LatitudeDegrees>
              <LongitudeDegrees>-0.1486240513622760772705078125</LongitudeDegrees>
            </Position>
            <AltitudeMeters>2328.199951171875</AltitudeMeters>
            <DistanceMeters>23399.168911524</DistanceMeters>
          </Trackpoint>
          <Trackpoint>
            <Time>2022-07-10T05:53:33.000Z</Time>
            <Position>
              <LatitudeDegrees>42.78952139429748058319091796875</LatitudeDegrees>
              <LongitudeDegrees>-0.1486907713115215301513671875</LongitudeDegrees>
            </Position>
            <AltitudeMeters>2328.199951171875</AltitudeMeters>
            <DistanceMeters>23404.619503372</DistanceMeters>
          </Trackpoint>
          <Trackpoint>
            <Time>2022-07-10T05:53:39.000Z</Time>
            <Position>
              <LatitudeDegrees>42.7895283512771129608154296875</LatitudeDegrees>
              <LongitudeDegrees>-0.14868515543639659881591796875</LongitudeDegrees>
            </Position>
            <AltitudeMeters>2328.199951171875</AltitudeMeters>
            <DistanceMeters>23405.515983603</DistanceMeters>
          </Trackpoint>
          <Trackpoint>
            <Time>2022-07-10T05:53:45.000Z</Time>
            <Position>
              <LatitudeDegrees>42.78952407650649547576904296875</LatitudeDegrees>
              <LongitudeDegrees>-0.148737542331218719482421875</LongitudeDegrees>
            </Position>
            <AltitudeMeters>2328.199951171875</AltitudeMeters>
            <DistanceMeters>23409.821648121</DistanceMeters>
          </Trackpoint>
          <Trackpoint>
            <Time>2022-07-10T05:53:51.000Z</Time>
            <Position>
              <LatitudeDegrees>42.7895196340978145599365234375</LatitudeDegrees>
              <LongitudeDegrees>-0.1487123966217041015625</LongitudeDegrees>
            </Position>
            <AltitudeMeters>2328.199951171875</AltitudeMeters>
            <DistanceMeters>23411.9337224</DistanceMeters>
          </Trackpoint>
          <Trackpoint>
            <Time>2022-07-10T05:53:52.000Z</Time>
            <Position>
              <LatitudeDegrees>42.78951737098395824432373046875</LatitudeDegrees>
              <LongitudeDegrees>-0.148708038032054901123046875</LongitudeDegrees>
            </Position>
            <AltitudeMeters>2328.199951171875</AltitudeMeters>
            <DistanceMeters>23412.358694786</DistanceMeters>
          </Trackpoint>
          <Trackpoint>
            <Time>2022-07-10T05:53:58.000Z</Time>
            <Position>
              <LatitudeDegrees>42.78949054889380931854248046875</LatitudeDegrees>
              <LongitudeDegrees>-0.14878925867378711700439453125</LongitudeDegrees>
            </Position>
            <AltitudeMeters>2328.199951171875</AltitudeMeters>
            <DistanceMeters>23419.633050288</DistanceMeters>
          </Trackpoint>
          <Trackpoint>
            <Time>2022-07-10T05:54:04.000Z</Time>
            <Position>
              <LatitudeDegrees>42.78948233462870121002197265625</LatitudeDegrees>
              <LongitudeDegrees>-0.14879713766276836395263671875</LongitudeDegrees>
            </Position>
            <AltitudeMeters>2328.199951171875</AltitudeMeters>
            <DistanceMeters>23420.749361423</DistanceMeters>
          </Trackpoint>
          <Trackpoint>
            <Time>2022-07-10T05:54:09.000Z</Time>
            <Position>
              <LatitudeDegrees>42.78948786668479442596435546875</LatitudeDegrees>
              <LongitudeDegrees>-0.14880417846143245697021484375</LongitudeDegrees>
            </Position>
            <AltitudeMeters>2328.199951171875</AltitudeMeters>
            <DistanceMeters>23421.58861464</DistanceMeters>
          </Trackpoint>
          <Trackpoint>
            <Time>2022-07-10T05:54:15.000Z</Time>
            <Position>
              <LatitudeDegrees>42.78952206484973430633544921875</LatitudeDegrees>
              <LongitudeDegrees>-0.1487601734697818756103515625</LongitudeDegrees>
            </Position>
            <AltitudeMeters>2328.199951171875</AltitudeMeters>
            <DistanceMeters>23426.824577978</DistanceMeters>
          </Trackpoint>
          <Trackpoint>
            <Time>2022-07-10T05:54:17.000Z</Time>
            <Position>
              <LatitudeDegrees>42.789528183639049530029296875</LatitudeDegrees>
              <LongitudeDegrees>-0.14878213405609130859375</LongitudeDegrees>
            </Position>
            <AltitudeMeters>2328.199951171875</AltitudeMeters>
            <DistanceMeters>23428.744023521</DistanceMeters>
          </Trackpoint>
          <Trackpoint>
            <Time>2022-07-10T05:54:23.000Z</Time>
            <Position>
              <LatitudeDegrees>42.7895390801131725311279296875</LatitudeDegrees>
              <LongitudeDegrees>-0.148808956146240234375</LongitudeDegrees>
            </Position>
            <AltitudeMeters>2328.199951171875</AltitudeMeters>
            <DistanceMeters>23431.247395856</DistanceMeters>
          </Trackpoint>
          <Trackpoint>
            <Time>2022-07-10T05:54:25.000Z</Time>
            <Position>
              <LatitudeDegrees>42.7895343862473964691162109375</LatitudeDegrees>
              <LongitudeDegrees>-0.1488299109041690826416015625</LongitudeDegrees>
            </Position>
            <AltitudeMeters>2328.199951171875</AltitudeMeters>
            <DistanceMeters>23433.035312818</DistanceMeters>
          </Trackpoint>
          <Trackpoint>
            <Time>2022-07-10T05:54:26.000Z</Time>
            <Position>
              <LatitudeDegrees>42.7895338833332061767578125</LatitudeDegrees>
              <LongitudeDegrees>-0.14883150346577167510986328125</LongitudeDegrees>
            </Position>
            <AltitudeMeters>2328.199951171875</AltitudeMeters>
            <DistanceMeters>23433.169700886</DistanceMeters>
          </Trackpoint>
          <Trackpoint>
            <Time>2022-07-10T05:54:32.000Z</Time>
            <Position>
              <LatitudeDegrees>42.7895420975983142852783203125</LatitudeDegrees>
              <LongitudeDegrees>-0.14884156174957752227783203125</LongitudeDegrees>
            </Position>
            <AltitudeMeters>2328.199951171875</AltitudeMeters>
            <DistanceMeters>23434.401387877</DistanceMeters>
          </Trackpoint>
          <Trackpoint>
            <Time>2022-07-10T05:54:38.000Z</Time>
            <Position>
              <LatitudeDegrees>42.78953916393220424652099609375</LatitudeDegrees>
              <LongitudeDegrees>-0.148813985288143157958984375</LongitudeDegrees>
            </Position>
            <AltitudeMeters>2328.199951171875</AltitudeMeters>
            <DistanceMeters>23436.678066132</DistanceMeters>
          </Trackpoint>
          <Trackpoint>
            <Time>2022-07-10T05:54:44.000Z</Time>
            <Position>
              <LatitudeDegrees>42.7895293571054935455322265625</LatitudeDegrees>
              <LongitudeDegrees>-0.148788504302501678466796875</LongitudeDegrees>
            </Position>
            <AltitudeMeters>2328.199951171875</AltitudeMeters>
            <DistanceMeters>23439.030817045</DistanceMeters>
          </Trackpoint>
          <Trackpoint>
            <Time>2022-07-10T05:54:48.000Z</Time>
            <Position>
              <LatitudeDegrees>42.7895226515829563140869140625</LatitudeDegrees>
              <LongitudeDegrees>-0.14877819456160068511962890625</LongitudeDegrees>
            </Position>
            <AltitudeMeters>2328.199951171875</AltitudeMeters>
            <DistanceMeters>23440.163191036</DistanceMeters>
          </Trackpoint>
          <Trackpoint>
            <Time>2022-07-10T05:54:52.000Z</Time>
            <Position>
              <LatitudeDegrees>42.78952960856258869171142578125</LatitudeDegrees>
              <LongitudeDegrees>-0.14876645989716053009033203125</LongitudeDegrees>
            </Position>
            <AltitudeMeters>2328.199951171875</AltitudeMeters>
            <DistanceMeters>23441.398538323</DistanceMeters>
          </Trackpoint>
          <Trackpoint>
            <Time>2022-07-10T05:54:58.000Z</Time>
            <Position>
              <LatitudeDegrees>42.78953447006642818450927734375</LatitudeDegrees>
              <LongitudeDegrees>-0.1487534679472446441650390625</LongitudeDegrees>
            </Position>
            <AltitudeMeters>2328.199951171875</AltitudeMeters>
            <DistanceMeters>23442.593005601</DistanceMeters>
          </Trackpoint>
          <Trackpoint>
            <Time>2022-07-10T05:54:59.000Z</Time>
            <Position>
              <LatitudeDegrees>42.78952809982001781463623046875</LatitudeDegrees>
              <LongitudeDegrees>-0.14875723980367183685302734375</LongitudeDegrees>
            </Position>
            <AltitudeMeters>2328.199951171875</AltitudeMeters>
            <DistanceMeters>23443.370832781</DistanceMeters>
          </Trackpoint>
          <Trackpoint>
            <Time>2022-07-10T05:55:00.000Z</Time>
            <Position>
              <LatitudeDegrees>42.78952357359230518341064453125</LatitudeDegrees>
              <LongitudeDegrees>-0.14875464141368865966796875</LongitudeDegrees>
            </Position>
            <AltitudeMeters>2328.199951171875</AltitudeMeters>
            <DistanceMeters>23443.916719695</DistanceMeters>
          </Trackpoint>
          <Trackpoint>
            <Time>2022-07-10T05:55:06.000Z</Time>
            <Position>
              <LatitudeDegrees>42.78951519168913364410400390625</LatitudeDegrees>
              <LongitudeDegrees>-0.1487641967833042144775390625</LongitudeDegrees>
            </Position>
            <AltitudeMeters>2328.199951171875</AltitudeMeters>
            <DistanceMeters>23445.129939568</DistanceMeters>
          </Trackpoint>
          <Trackpoint>
            <Time>2022-07-10T05:55:08.000Z</Time>
            <Position>
              <LatitudeDegrees>42.78951980173587799072265625</LatitudeDegrees>
              <LongitudeDegrees>-0.1487410627305507659912109375</LongitudeDegrees>
            </Position>
            <AltitudeMeters>2328.199951171875</AltitudeMeters>
            <DistanceMeters>23447.086659377</DistanceMeters>
          </Trackpoint>
          <Trackpoint>
            <Time>2022-07-10T05:55:14.000Z</Time>
            <Position>
              <LatitudeDegrees>42.78950907289981842041015625</LatitudeDegrees>
              <LongitudeDegrees>-0.14876042492687702178955078125</LongitudeDegrees>
            </Position>
            <AltitudeMeters>2328.199951171875</AltitudeMeters>
            <DistanceMeters>23449.066319241</DistanceMeters>
          </Trackpoint>
          <Trackpoint>
            <Time>2022-07-10T05:55:20.000Z</Time>
            <Position>
              <LatitudeDegrees>42.7895011939108371734619140625</LatitudeDegrees>
              <LongitudeDegrees>-0.14878640882670879364013671875</LongitudeDegrees>
            </Position>
            <AltitudeMeters>2328.199951171875</AltitudeMeters>
            <DistanceMeters>23451.362743558</DistanceMeters>
          </Trackpoint>
          <Trackpoint>
            <Time>2022-07-10T05:55:26.000Z</Time>
            <Position>
              <LatitudeDegrees>42.78950211592018604278564453125</LatitudeDegrees>
              <LongitudeDegrees>-0.14878942631185054779052734375</LongitudeDegrees>
            </Position>
            <AltitudeMeters>2328.199951171875</AltitudeMeters>
            <DistanceMeters>23451.614160612</DistanceMeters>
          </Trackpoint>
          <Trackpoint>
            <Time>2022-07-10T05:55:31.000Z</Time>
            <Position>
              <LatitudeDegrees>42.7894965000450611114501953125</LatitudeDegrees>
              <LongitudeDegrees>-0.14878037385642528533935546875</LongitudeDegrees>
            </Position>
            <AltitudeMeters>2328.199951171875</AltitudeMeters>
            <DistanceMeters>23452.578576432</DistanceMeters>
          </Trackpoint>
          <Trackpoint>
            <Time>2022-07-10T05:55:37.000Z</Time>
            <Position>
              <LatitudeDegrees>42.78953447006642818450927734375</LatitudeDegrees>
              <LongitudeDegrees>-0.14879755675792694091796875</LongitudeDegrees>
            </Position>
            <AltitudeMeters>2328.199951171875</AltitudeMeters>
            <DistanceMeters>23457.031670623</DistanceMeters>
          </Trackpoint>
          <Trackpoint>
            <Time>2022-07-10T05:55:40.000Z</Time>
            <Position>
              <LatitudeDegrees>42.7895384095609188079833984375</LatitudeDegrees>
              <LongitudeDegrees>-0.14880292117595672607421875</LongitudeDegrees>
            </Position>
            <AltitudeMeters>2328.199951171875</AltitudeMeters>
            <DistanceMeters>23457.647514118</DistanceMeters>
          </Trackpoint>
          <Trackpoint>
            <Time>2022-07-10T05:55:41.000Z</Time>
            <Position>
              <LatitudeDegrees>42.789536900818347930908203125</LatitudeDegrees>
              <LongitudeDegrees>-0.14879311434924602508544921875</LongitudeDegrees>
            </Position>
            <AltitudeMeters>2328.199951171875</AltitudeMeters>
            <DistanceMeters>23458.464964824</DistanceMeters>
          </Trackpoint>
          <Trackpoint>
            <Time>2022-07-10T05:55:47.000Z</Time>
            <Position>
              <LatitudeDegrees>42.78951670043170452117919921875</LatitudeDegrees>
              <LongitudeDegrees>-0.148762352764606475830078125</LongitudeDegrees>
            </Position>
            <AltitudeMeters>2328.199951171875</AltitudeMeters>
            <DistanceMeters>23461.836739763</DistanceMeters>
          </Trackpoint>
          <Trackpoint>
            <Time>2022-07-10T05:55:50.000Z</Time>
            <Position>
              <LatitudeDegrees>42.78951116837561130523681640625</LatitudeDegrees>
              <LongitudeDegrees>-0.14877215959131717681884765625</LongitudeDegrees>
            </Position>
            <AltitudeMeters>2328.199951171875</AltitudeMeters>
            <DistanceMeters>23462.851347429</DistanceMeters>
          </Trackpoint>
          <Trackpoint>
            <Time>2022-07-10T05:55:55.000Z</Time>
            <Position>
              <LatitudeDegrees>42.7895092405378818511962890625</LatitudeDegrees>
              <LongitudeDegrees>-0.14878774993121623992919921875</LongitudeDegrees>
            </Position>
            <AltitudeMeters>2328.199951171875</AltitudeMeters>
            <DistanceMeters>23464.140352497</DistanceMeters>
          </Trackpoint>
          <Trackpoint>
            <Time>2022-07-10T05:56:00.000Z</Time>
            <Position>
              <LatitudeDegrees>42.7894958294928073883056640625</LatitudeDegrees>
              <LongitudeDegrees>-0.1487702317535877227783203125</LongitudeDegrees>
            </Position>
            <AltitudeMeters>2328.199951171875</AltitudeMeters>
            <DistanceMeters>23466.20923051</DistanceMeters>
          </Trackpoint>
          <Trackpoint>
            <Time>2022-07-10T05:56:04.000Z</Time>
            <Position>
              <LatitudeDegrees>42.78949021361768245697021484375</LatitudeDegrees>
              <LongitudeDegrees>-0.148769058287143707275390625</LongitudeDegrees>
            </Position>
            <AltitudeMeters>2328.199951171875</AltitudeMeters>
            <DistanceMeters>23466.846689089</DistanceMeters>
          </Trackpoint>
          <Trackpoint>
            <Time>2022-07-10T05:56:10.000Z</Time>
            <Position>
              <LatitudeDegrees>42.78949557803571224212646484375</LatitudeDegrees>
              <LongitudeDegrees>-0.148752629756927490234375</LongitudeDegrees>
            </Position>
            <AltitudeMeters>2328.199951171875</AltitudeMeters>
            <DistanceMeters>23468.318836618</DistanceMeters>
          </Trackpoint>
          <Trackpoint>
            <Time>2022-07-10T05:56:13.000Z</Time>
            <Position>
              <LatitudeDegrees>42.78950144536793231964111328125</LatitudeDegrees>
              <LongitudeDegrees>-0.14874123036861419677734375</LongitudeDegrees>
            </Position>
            <AltitudeMeters>2328.199951171875</AltitudeMeters>
            <DistanceMeters>23469.459157191</DistanceMeters>
          </Trackpoint>
          <Trackpoint>
            <Time>2022-07-10T05:56:15.000Z</Time>
            <Position>
              <LatitudeDegrees>42.78950194828212261199951171875</LatitudeDegrees>
              <LongitudeDegrees>-0.14873846434056758880615234375</LongitudeDegrees>
            </Position>
            <AltitudeMeters>2328.199951171875</AltitudeMeters>
            <DistanceMeters>23469.671643384</DistanceMeters>
          </Trackpoint>
          <Trackpoint>
            <Time>2022-07-10T05:56:21.000Z</Time>
            <Position>
              <LatitudeDegrees>42.789508067071437835693359375</LatitudeDegrees>
              <LongitudeDegrees>-0.14878942631185054779052734375</LongitudeDegrees>
            </Position>
            <AltitudeMeters>2328.199951171875</AltitudeMeters>
            <DistanceMeters>23473.888303261</DistanceMeters>
          </Trackpoint>
          <Trackpoint>
            <Time>2022-07-10T05:56:22.000Z</Time>
            <Position>
              <LatitudeDegrees>42.78950898908078670501708984375</LatitudeDegrees>
              <LongitudeDegrees>-0.148799233138561248779296875</LongitudeDegrees>
            </Position>
            <AltitudeMeters>2328.199951171875</AltitudeMeters>
            <DistanceMeters>23474.69463167</DistanceMeters>
          </Trackpoint>
          <Trackpoint>
            <Time>2022-07-10T05:56:24.000Z</Time>
            <Position>
              <LatitudeDegrees>42.78951351530849933624267578125</LatitudeDegrees>
              <LongitudeDegrees>-0.1488114707171916961669921875</LongitudeDegrees>
            </Position>
            <AltitudeMeters>2328.199951171875</AltitudeMeters>
            <DistanceMeters>23475.810942805</DistanceMeters>
          </Trackpoint>
          <Trackpoint>
            <Time>2022-07-10T05:56:29.000Z</Time>
            <Position>
              <LatitudeDegrees>42.78950345702469348907470703125</LatitudeDegrees>
              <LongitudeDegrees>-0.148801915347576141357421875</LongitudeDegrees>
            </Position>
            <AltitudeMeters>2328.199951171875</AltitudeMeters>
            <DistanceMeters>23477.174832737</DistanceMeters>
          </Trackpoint>
          <Trackpoint>
            <Time>2022-07-10T05:56:34.000Z</Time>
            <Position>
              <LatitudeDegrees>42.789512090384960174560546875</LatitudeDegrees>
              <LongitudeDegrees>-0.14880987815558910369873046875</LongitudeDegrees>
            </Position>
            <AltitudeMeters>2328.199951171875</AltitudeMeters>
            <DistanceMeters>23478.334781611</DistanceMeters>
          </Trackpoint>
          <Trackpoint>
            <Time>2022-07-10T05:56:40.000Z</Time>
            <Position>
              <LatitudeDegrees>42.78953296132385730743408203125</LatitudeDegrees>
              <LongitudeDegrees>-0.148835442960262298583984375</LongitudeDegrees>
            </Position>
            <AltitudeMeters>2328.199951171875</AltitudeMeters>
            <DistanceMeters>23481.457678113</DistanceMeters>
          </Trackpoint>
          <Trackpoint>
            <Time>2022-07-10T05:56:41.000Z</Time>
            <Position>
              <LatitudeDegrees>42.78953245840966701507568359375</LatitudeDegrees>
              <LongitudeDegrees>-0.1488344371318817138671875</LongitudeDegrees>
            </Position>
            <AltitudeMeters>2328.199951171875</AltitudeMeters>
            <DistanceMeters>23481.592066181</DistanceMeters>
          </Trackpoint>
          <Trackpoint>
            <Time>2022-07-10T05:56:46.000Z</Time>
            <Position>
              <LatitudeDegrees>42.78953128494322299957275390625</LatitudeDegrees>
              <LongitudeDegrees>-0.148827396333217620849609375</LongitudeDegrees>
            </Position>
            <AltitudeMeters>2328.199951171875</AltitudeMeters>
            <DistanceMeters>23482.185507822</DistanceMeters>
          </Trackpoint>
          <Trackpoint>
            <Time>2022-07-10T05:56:52.000Z</Time>
            <Position>
              <LatitudeDegrees>42.78954486362636089324951171875</LatitudeDegrees>
              <LongitudeDegrees>-0.14879512600600719451904296875</LongitudeDegrees>
            </Position>
            <AltitudeMeters>2328.199951171875</AltitudeMeters>
            <DistanceMeters>23485.224877527</DistanceMeters>
          </Trackpoint>
          <Trackpoint>
            <Time>2022-07-10T05:56:54.000Z</Time>
            <Position>
              <LatitudeDegrees>42.7895417623221874237060546875</LatitudeDegrees>
              <LongitudeDegrees>-0.14879160560667514801025390625</LongitudeDegrees>
            </Position>
            <AltitudeMeters>2328.199951171875</AltitudeMeters>
            <DistanceMeters>23485.670592325</DistanceMeters>
          </Trackpoint>
          <Trackpoint>
            <Time>2022-07-10T05:56:58.000Z</Time>
            <Position>
              <LatitudeDegrees>42.78953866101801395416259765625</LatitudeDegrees>
              <LongitudeDegrees>-0.14878657646477222442626953125</LongitudeDegrees>
            </Position>
            <AltitudeMeters>2328.199951171875</AltitudeMeters>
            <DistanceMeters>23486.208144598</DistanceMeters>
          </Trackpoint>
          <Trackpoint>
            <Time>2022-07-10T05:57:02.000Z</Time>
            <Position>
              <LatitudeDegrees>42.78956816531717777252197265625</LatitudeDegrees>
              <LongitudeDegrees>-0.1487910188734531402587890625</LongitudeDegrees>
            </Position>
            <AltitudeMeters>2328.199951171875</AltitudeMeters>
            <DistanceMeters>23489.513654014</DistanceMeters>
          </Trackpoint>
          <Trackpoint>
            <Time>2022-07-10T05:57:08.000Z</Time>
            <Position>
              <LatitudeDegrees>42.78959398157894611358642578125</LatitudeDegrees>
              <LongitudeDegrees>-0.14881675131618976593017578125</LongitudeDegrees>
            </Position>
            <AltitudeMeters>2328.199951171875</AltitudeMeters>
            <DistanceMeters>23493.073035597</DistanceMeters>
          </Trackpoint>
          <Trackpoint>
            <Time>2022-07-10T05:57:09.000Z</Time>
            <Position>
              <LatitudeDegrees>42.78959733434021472930908203125</LatitudeDegrees>
              <LongitudeDegrees>-0.14882035553455352783203125</LongitudeDegrees>
            </Position>
            <AltitudeMeters>2328.199951171875</AltitudeMeters>
            <DistanceMeters>23493.557578667</DistanceMeters>
          </Trackpoint>
          <Trackpoint>
            <Time>2022-07-10T05:57:12.000Z</Time>
            <Position>
              <LatitudeDegrees>42.78960722498595714569091796875</LatitudeDegrees>
              <LongitudeDegrees>-0.1488134823739528656005859375</LongitudeDegrees>
            </Position>
            <AltitudeMeters>2327</AltitudeMeters>
            <DistanceMeters>23494.789265658</DistanceMeters>
          </Trackpoint>
          <Trackpoint>
            <Time>2022-07-10T05:57:15.000Z</Time>
            <Position>
              <LatitudeDegrees>42.78961594216525554656982421875</LatitudeDegrees>
              <LongitudeDegrees>-0.14882077462971210479736328125</LongitudeDegrees>
            </Position>
            <AltitudeMeters>2327</AltitudeMeters>
            <DistanceMeters>23495.921639649</DistanceMeters>
          </Trackpoint>
          <Trackpoint>
            <Time>2022-07-10T05:57:19.000Z</Time>
            <Position>
              <LatitudeDegrees>42.78963035903871059417724609375</LatitudeDegrees>
              <LongitudeDegrees>-0.14885413460433483123779296875</LongitudeDegrees>
            </Position>
            <AltitudeMeters>2326.800048828125</AltitudeMeters>
            <DistanceMeters>23499.084759106</DistanceMeters>
          </Trackpoint>
          <Trackpoint>
            <Time>2022-07-10T05:57:21.000Z</Time>
            <Position>
              <LatitudeDegrees>42.78963622637093067169189453125</LatitudeDegrees>
              <LongitudeDegrees>-0.1488805375993251800537109375</LongitudeDegrees>
            </Position>
            <AltitudeMeters>2327.39990234375</AltitudeMeters>
            <DistanceMeters>23501.337513633</DistanceMeters>
          </Trackpoint>
          <Trackpoint>
            <Time>2022-07-10T05:57:22.000Z</Time>
            <Position>
              <LatitudeDegrees>42.7896399982273578643798828125</LatitudeDegrees>
              <LongitudeDegrees>-0.148897804319858551025390625</LongitudeDegrees>
            </Position>
            <AltitudeMeters>2327.60009765625</AltitudeMeters>
            <DistanceMeters>23502.809661162</DistanceMeters>
          </Trackpoint>
          <Trackpoint>
            <Time>2022-07-10T05:57:24.000Z</Time>
            <Position>
              <LatitudeDegrees>42.78964980505406856536865234375</LatitudeDegrees>
              <LongitudeDegrees>-0.14892756007611751556396484375</LongitudeDegrees>
            </Position>
            <AltitudeMeters>2326.60009765625</AltitudeMeters>
            <DistanceMeters>23505.473800814</DistanceMeters>
          </Trackpoint>
          <Trackpoint>
            <Time>2022-07-10T05:57:26.000Z</Time>
            <Position>
              <LatitudeDegrees>42.78965600766241550445556640625</LatitudeDegrees>
              <LongitudeDegrees>-0.14895454980432987213134765625</LongitudeDegrees>
            </Position>
            <AltitudeMeters>2326.60009765625</AltitudeMeters>
            <DistanceMeters>23507.781991686</DistanceMeters>
          </Trackpoint>
          <Trackpoint>
            <Time>2022-07-10T05:57:27.000Z</Time>
            <Position>
              <LatitudeDegrees>42.789658606052398681640625</LatitudeDegrees>
              <LongitudeDegrees>-0.14896812848746776580810546875</LongitudeDegrees>
            </Position>
            <AltitudeMeters>2327</AltitudeMeters>
            <DistanceMeters>23508.926264855</DistanceMeters>
          </Trackpoint>
          <Trackpoint>
            <Time>2022-07-10T05:57:29.000Z</Time>
            <Position>
              <LatitudeDegrees>42.78966841287910938262939453125</LatitudeDegrees>
              <LongitudeDegrees>-0.148997716605663299560546875</LongitudeDegrees>
            </Position>
            <AltitudeMeters>2326.39990234375</AltitudeMeters>
            <DistanceMeters>23511.578514758</DistanceMeters>
          </Trackpoint>
          <Trackpoint>
            <Time>2022-07-10T05:57:33.000Z</Time>
            <Position>
              <LatitudeDegrees>42.78969707898795604705810546875</LatitudeDegrees>
              <LongitudeDegrees>-0.14904054813086986541748046875</LongitudeDegrees>
            </Position>
            <AltitudeMeters>2326.39990234375</AltitudeMeters>
            <DistanceMeters>23516.314621797</DistanceMeters>
          </Trackpoint>
          <Trackpoint>
            <Time>2022-07-10T05:57:35.000Z</Time>
            <Position>
              <LatitudeDegrees>42.7897097356617450714111328125</LatitudeDegrees>
              <LongitudeDegrees>-0.14906016178429126739501953125</LongitudeDegrees>
            </Position>
            <AltitudeMeters>2326.199951171875</AltitudeMeters>
            <DistanceMeters>23518.447966244</DistanceMeters>
          </Trackpoint>
          <Trackpoint>
            <Time>2022-07-10T05:57:41.000Z</Time>
            <Position>
              <LatitudeDegrees>42.78975206427276134490966796875</LatitudeDegrees>
              <LongitudeDegrees>-0.14909452758729457855224609375</LongitudeDegrees>
            </Position>
            <AltitudeMeters>2326.800048828125</AltitudeMeters>
            <DistanceMeters>23523.931592285</DistanceMeters>
          </Trackpoint>
          <Trackpoint>
            <Time>2022-07-10T05:57:42.000Z</Time>
            <Position>
              <LatitudeDegrees>42.78975860215723514556884765625</LatitudeDegrees>
              <LongitudeDegrees>-0.1491008140146732330322265625</LongitudeDegrees>
            </Position>
            <AltitudeMeters>2326.800048828125</AltitudeMeters>
            <DistanceMeters>23524.823021882</DistanceMeters>
          </Trackpoint>
          <Trackpoint>
            <Time>2022-07-10T05:57:44.000Z</Time>
            <Position>
              <LatitudeDegrees>42.789765894412994384765625</LatitudeDegrees>
              <LongitudeDegrees>-0.1491091959178447723388671875</LongitudeDegrees>
            </Position>
            <AltitudeMeters>2327.199951171875</AltitudeMeters>
            <DistanceMeters>23525.889694106</DistanceMeters>
          </Trackpoint>
          <Trackpoint>
            <Time>2022-07-10T05:57:46.000Z</Time>
            <Position>
              <LatitudeDegrees>42.78977184556424617767333984375</LatitudeDegrees>
              <LongitudeDegrees>-0.14911648817360401153564453125</LongitudeDegrees>
            </Position>
            <AltitudeMeters>2327.60009765625</AltitudeMeters>
            <DistanceMeters>23526.781123703</DistanceMeters>
          </Trackpoint>
          <Trackpoint>
            <Time>2022-07-10T05:57:48.000Z</Time>
            <Position>
              <LatitudeDegrees>42.78977720998227596282958984375</LatitudeDegrees>
              <LongitudeDegrees>-0.14912218786776065826416015625</LongitudeDegrees>
            </Position>
            <AltitudeMeters>2328</AltitudeMeters>
            <DistanceMeters>23527.541337418</DistanceMeters>
          </Trackpoint>
          <Trackpoint>
            <Time>2022-07-10T05:57:49.000Z</Time>
            <Position>
              <LatitudeDegrees>42.78978106565773487091064453125</LatitudeDegrees>
              <LongitudeDegrees>-0.1491286419332027435302734375</LongitudeDegrees>
            </Position>
            <AltitudeMeters>2328</AltitudeMeters>
            <DistanceMeters>23528.2265848</DistanceMeters>
          </Trackpoint>
          <Trackpoint>
            <Time>2022-07-10T05:57:50.000Z</Time>
            <Position>
              <LatitudeDegrees>42.7897881902754306793212890625</LatitudeDegrees>
              <LongitudeDegrees>-0.14913727529346942901611328125</LongitudeDegrees>
            </Position>
            <AltitudeMeters>2328.199951171875</AltitudeMeters>
            <DistanceMeters>23529.284757508</DistanceMeters>
          </Trackpoint>
          <Trackpoint>
            <Time>2022-07-10T05:57:52.000Z</Time>
            <Position>
              <LatitudeDegrees>42.78980277478694915771484375</LatitudeDegrees>
              <LongitudeDegrees>-0.14915102161467075347900390625</LongitudeDegrees>
            </Position>
            <AltitudeMeters>2328.60009765625</AltitudeMeters>
            <DistanceMeters>23531.257563364</DistanceMeters>
          </Trackpoint>
          <Trackpoint>
            <Time>2022-07-10T05:57:53.000Z</Time>
            <Position>
              <LatitudeDegrees>42.78980411589145660400390625</LatitudeDegrees>
              <LongitudeDegrees>-0.1491611637175083160400390625</LongitudeDegrees>
            </Position>
            <AltitudeMeters>2328.60009765625</AltitudeMeters>
            <DistanceMeters>23532.096816582</DistanceMeters>
          </Trackpoint>
          <Trackpoint>
            <Time>2022-07-10T05:57:55.000Z</Time>
            <Position>
              <LatitudeDegrees>42.789806462824344635009765625</LatitudeDegrees>
              <LongitudeDegrees>-0.14917750842869281768798828125</LongitudeDegrees>
            </Position>
            <AltitudeMeters>2329</AltitudeMeters>
            <DistanceMeters>23533.457392074</DistanceMeters>
          </Trackpoint>
          <Trackpoint>
            <Time>2022-07-10T05:57:56.000Z</Time>
            <Position>
              <LatitudeDegrees>42.7898062951862812042236328125</LatitudeDegrees>
              <LongitudeDegrees>-0.149187482893466949462890625</LongitudeDegrees>
            </Position>
            <AltitudeMeters>2329.199951171875</AltitudeMeters>
            <DistanceMeters>23534.27484278</DistanceMeters>
          </Trackpoint>
          <Trackpoint>
            <Time>2022-07-10T05:57:57.000Z</Time>
            <Position>
              <LatitudeDegrees>42.7898086421191692352294921875</LatitudeDegrees>
              <LongitudeDegrees>-0.1491992175579071044921875</LongitudeDegrees>
            </Position>
            <AltitudeMeters>2329.199951171875</AltitudeMeters>
            <DistanceMeters>23535.271491369</DistanceMeters>
          </Trackpoint>
          <Trackpoint>
            <Time>2022-07-10T05:57:58.000Z</Time>
            <Position>
              <LatitudeDegrees>42.78981325216591358184814453125</LatitudeDegrees>
              <LongitudeDegrees>-0.14921036548912525177001953125</LongitudeDegrees>
            </Position>
            <AltitudeMeters>2329.60009765625</AltitudeMeters>
            <DistanceMeters>23536.321095735</DistanceMeters>
          </Trackpoint>
          <Trackpoint>
            <Time>2022-07-10T05:58:01.000Z</Time>
            <Position>
              <LatitudeDegrees>42.78982825577259063720703125</LatitudeDegrees>
              <LongitudeDegrees>-0.14923484064638614654541015625</LongitudeDegrees>
            </Position>
            <AltitudeMeters>2330.39990234375</AltitudeMeters>
            <DistanceMeters>23538.926977061</DistanceMeters>
          </Trackpoint>
          <Trackpoint>
            <Time>2022-07-10T05:58:03.000Z</Time>
            <Position>
              <LatitudeDegrees>42.7898262441158294677734375</LatitudeDegrees>
              <LongitudeDegrees>-0.14925487339496612548828125</LongitudeDegrees>
            </Position>
            <AltitudeMeters>2330.60009765625</AltitudeMeters>
            <DistanceMeters>23540.581097118</DistanceMeters>
          </Trackpoint>
          <Trackpoint>
            <Time>2022-07-10T05:58:09.000Z</Time>
            <Position>
              <LatitudeDegrees>42.789787352085113525390625</LatitudeDegrees>
              <LongitudeDegrees>-0.1492919214069843292236328125</LongitudeDegrees>
            </Position>
            <AltitudeMeters>2331.60009765625</AltitudeMeters>
            <DistanceMeters>23545.862565298</DistanceMeters>
          </Trackpoint>
          <Trackpoint>
            <Time>2022-07-10T05:58:10.000Z</Time>
            <Position>
              <LatitudeDegrees>42.7897804789245128631591796875</LatitudeDegrees>
              <LongitudeDegrees>-0.14929602853953838348388671875</LongitudeDegrees>
            </Position>
            <AltitudeMeters>2331.60009765625</AltitudeMeters>
            <DistanceMeters>23546.696421333</DistanceMeters>
          </Trackpoint>
          <Trackpoint>
            <Time>2022-07-10T05:58:16.000Z</Time>
            <Position>
              <LatitudeDegrees>42.78978307731449604034423828125</LatitudeDegrees>
              <LongitudeDegrees>-0.14929586090147495269775390625</LongitudeDegrees>
            </Position>
            <AltitudeMeters>2331.800048828125</AltitudeMeters>
            <DistanceMeters>23546.981501476</DistanceMeters>
          </Trackpoint>
          <Trackpoint>
            <Time>2022-07-10T05:58:17.000Z</Time>
            <Position>
              <LatitudeDegrees>42.78978911228477954864501953125</LatitudeDegrees>
              <LongitudeDegrees>-0.1492969505488872528076171875</LongitudeDegrees>
            </Position>
            <AltitudeMeters>2331.800048828125</AltitudeMeters>
            <DistanceMeters>23547.666748858</DistanceMeters>
          </Trackpoint>
          <Trackpoint>
            <Time>2022-07-10T05:58:21.000Z</Time>
            <Position>
              <LatitudeDegrees>42.78981618583202362060546875</LatitudeDegrees>
              <LongitudeDegrees>-0.149317570030689239501953125</LongitudeDegrees>
            </Position>
            <AltitudeMeters>2332.60009765625</AltitudeMeters>
            <DistanceMeters>23551.119240843</DistanceMeters>
          </Trackpoint>
          <Trackpoint>
            <Time>2022-07-10T05:58:23.000Z</Time>
            <Position>
              <LatitudeDegrees>42.789821214973926544189453125</LatitudeDegrees>
              <LongitudeDegrees>-0.1493187434971332550048828125</LongitudeDegrees>
            </Position>
            <AltitudeMeters>2333</AltitudeMeters>
            <DistanceMeters>23551.689401129</DistanceMeters>
          </Trackpoint>
          <Trackpoint>
            <Time>2022-07-10T05:58:25.000Z</Time>
            <Position>
              <LatitudeDegrees>42.78982155025005340576171875</LatitudeDegrees>
              <LongitudeDegrees>-0.14933223836123943328857421875</LongitudeDegrees>
            </Position>
            <AltitudeMeters>2333.199951171875</AltitudeMeters>
            <DistanceMeters>23552.79759353</DistanceMeters>
          </Trackpoint>
          <Trackpoint>
            <Time>2022-07-10T05:58:28.000Z</Time>
            <Position>
              <LatitudeDegrees>42.7898233942687511444091796875</LatitudeDegrees>
              <LongitudeDegrees>-0.1493371836841106414794921875</LongitudeDegrees>
            </Position>
            <AltitudeMeters>2333.800048828125</AltitudeMeters>
            <DistanceMeters>23553.243308328</DistanceMeters>
          </Trackpoint>
          <Trackpoint>
            <Time>2022-07-10T05:58:34.000Z</Time>
            <Position>
              <LatitudeDegrees>42.78982968069612979888916015625</LatitudeDegrees>
              <LongitudeDegrees>-0.14934749342501163482666015625</LongitudeDegrees>
            </Position>
            <AltitudeMeters>2334.800048828125</AltitudeMeters>
            <DistanceMeters>23554.33920986</DistanceMeters>
          </Trackpoint>
          <Trackpoint>
            <Time>2022-07-10T05:58:35.000Z</Time>
            <Position>
              <LatitudeDegrees>42.78983789496123790740966796875</LatitudeDegrees>
              <LongitudeDegrees>-0.1493519358336925506591796875</LongitudeDegrees>
            </Position>
            <AltitudeMeters>2335.199951171875</AltitudeMeters>
            <DistanceMeters>23555.326756444</DistanceMeters>
          </Trackpoint>
          <Trackpoint>
            <Time>2022-07-10T05:58:40.000Z</Time>
            <Position>
              <LatitudeDegrees>42.78988215140998363494873046875</LatitudeDegrees>
              <LongitudeDegrees>-0.14937263913452625274658203125</LongitudeDegrees>
            </Position>
            <AltitudeMeters>2336.39990234375</AltitudeMeters>
            <DistanceMeters>23560.535052676</DistanceMeters>
          </Trackpoint>
          <Trackpoint>
            <Time>2022-07-10T05:58:59.000Z</Time>
            <Position>
              <LatitudeDegrees>42.7898772060871124267578125</LatitudeDegrees>
              <LongitudeDegrees>-0.14929669909179210662841796875</LongitudeDegrees>
            </Position>
            <AltitudeMeters>2339.800048828125</AltitudeMeters>
            <DistanceMeters>23566.762022103</DistanceMeters>
          </Trackpoint>
          <Trackpoint>
            <Time>2022-07-10T05:59:00.000Z</Time>
            <Position>
              <LatitudeDegrees>42.7898834086954593658447265625</LatitudeDegrees>
              <LongitudeDegrees>-0.14929711818695068359375</LongitudeDegrees>
            </Position>
            <AltitudeMeters>2340</AltitudeMeters>
            <DistanceMeters>23567.453827026</DistanceMeters>
          </Trackpoint>
          <Trackpoint>
            <Time>2022-07-10T05:59:05.000Z</Time>
            <Position>
              <LatitudeDegrees>42.78994090855121612548828125</LatitudeDegrees>
              <LongitudeDegrees>-0.149327628314495086669921875</LongitudeDegrees>
            </Position>
            <AltitudeMeters>2340.800048828125</AltitudeMeters>
            <DistanceMeters>23574.322096047</DistanceMeters>
          </Trackpoint>
          <Trackpoint>
            <Time>2022-07-10T05:59:07.000Z</Time>
            <Position>
              <LatitudeDegrees>42.78994300402700901031494140625</LatitudeDegrees>
              <LongitudeDegrees>-0.14934313483536243438720703125</LongitudeDegrees>
            </Position>
            <AltitudeMeters>2341.199951171875</AltitudeMeters>
            <DistanceMeters>23575.611101115</DistanceMeters>
          </Trackpoint>
          <Trackpoint>
            <Time>2022-07-10T05:59:10.000Z</Time>
            <Position>
              <LatitudeDegrees>42.78993747197091579437255859375</LatitudeDegrees>
              <LongitudeDegrees>-0.149358473718166351318359375</LongitudeDegrees>
            </Position>
            <AltitudeMeters>2341.800048828125</AltitudeMeters>
            <DistanceMeters>23577.004466263</DistanceMeters>
          </Trackpoint>
          <Trackpoint>
            <Time>2022-07-10T05:59:15.000Z</Time>
            <Position>
              <LatitudeDegrees>42.78993017971515655517578125</LatitudeDegrees>
              <LongitudeDegrees>-0.14937783591449260711669921875</LongitudeDegrees>
            </Position>
            <AltitudeMeters>2342.199951171875</AltitudeMeters>
            <DistanceMeters>23578.782253302</DistanceMeters>
          </Trackpoint>
          <Trackpoint>
            <Time>2022-07-10T05:59:17.000Z</Time>
            <Position>
              <LatitudeDegrees>42.78993261046707630157470703125</LatitudeDegrees>
              <LongitudeDegrees>-0.149380266666412353515625</LongitudeDegrees>
            </Position>
            <AltitudeMeters>2343</AltitudeMeters>
            <DistanceMeters>23579.111435497</DistanceMeters>
          </Trackpoint>
          <Trackpoint>
            <Time>2022-07-10T05:59:22.000Z</Time>
            <Position>
              <LatitudeDegrees>42.78996446169912815093994140625</LatitudeDegrees>
              <LongitudeDegrees>-0.14941714704036712646484375</LongitudeDegrees>
            </Position>
            <AltitudeMeters>2343.800048828125</AltitudeMeters>
            <DistanceMeters>23583.763864243</DistanceMeters>
          </Trackpoint>
          <Trackpoint>
            <Time>2022-07-10T05:59:24.000Z</Time>
            <Position>
              <LatitudeDegrees>42.7899846620857715606689453125</LatitudeDegrees>
              <LongitudeDegrees>-0.14942477457225322723388671875</LongitudeDegrees>
            </Position>
            <AltitudeMeters>2344.199951171875</AltitudeMeters>
            <DistanceMeters>23586.097345783</DistanceMeters>
          </Trackpoint>
          <Trackpoint>
            <Time>2022-07-10T05:59:27.000Z</Time>
            <Position>
              <LatitudeDegrees>42.789992205798625946044921875</LatitudeDegrees>
              <LongitudeDegrees>-0.14943114481866359710693359375</LongitudeDegrees>
            </Position>
            <AltitudeMeters>2345</AltitudeMeters>
            <DistanceMeters>23587.084892367</DistanceMeters>
          </Trackpoint>
          <Trackpoint>
            <Time>2022-07-10T05:59:28.000Z</Time>
            <Position>
              <LatitudeDegrees>42.78998960740864276885986328125</LatitudeDegrees>
              <LongitudeDegrees>-0.1494441367685794830322265625</LongitudeDegrees>
            </Position>
            <AltitudeMeters>2345.199951171875</AltitudeMeters>
            <DistanceMeters>23588.184906114</DistanceMeters>
          </Trackpoint>
          <Trackpoint>
            <Time>2022-07-10T05:59:30.000Z</Time>
            <Position>
              <LatitudeDegrees>42.78998977504670619964599609375</LatitudeDegrees>
              <LongitudeDegrees>-0.1494719646871089935302734375</LongitudeDegrees>
            </Position>
            <AltitudeMeters>2345.800048828125</AltitudeMeters>
            <DistanceMeters>23590.45761457</DistanceMeters>
          </Trackpoint>
          <Trackpoint>
            <Time>2022-07-10T05:59:32.000Z</Time>
            <Position>
              <LatitudeDegrees>42.78999589383602142333984375</LatitudeDegrees>
              <LongitudeDegrees>-0.14949484728276729583740234375</LongitudeDegrees>
            </Position>
            <AltitudeMeters>2346.60009765625</AltitudeMeters>
            <DistanceMeters>23592.446376366</DistanceMeters>
          </Trackpoint>
          <Trackpoint>
            <Time>2022-07-10T05:59:33.000Z</Time>
            <Position>
              <LatitudeDegrees>42.7900014258921146392822265625</LatitudeDegrees>
              <LongitudeDegrees>-0.14950121752917766571044921875</LongitudeDegrees>
            </Position>
            <AltitudeMeters>2346.800048828125</AltitudeMeters>
            <DistanceMeters>23593.252704775</DistanceMeters>
          </Trackpoint>
          <Trackpoint>
            <Time>2022-07-10T05:59:34.000Z</Time>
            <Position>
              <LatitudeDegrees>42.7900059521198272705078125</LatitudeDegrees>
              <LongitudeDegrees>-0.149503648281097412109375</LongitudeDegrees>
            </Position>
            <AltitudeMeters>2347</AltitudeMeters>
            <DistanceMeters>23593.781791129</DistanceMeters>
          </Trackpoint>
          <Trackpoint>
            <Time>2022-07-10T05:59:35.000Z</Time>
            <Position>
              <LatitudeDegrees>42.7900064550340175628662109375</LatitudeDegrees>
              <LongitudeDegrees>-0.149498619139194488525390625</LongitudeDegrees>
            </Position>
            <AltitudeMeters>2347.199951171875</AltitudeMeters>
            <DistanceMeters>23594.196002974</DistanceMeters>
          </Trackpoint>
          <Trackpoint>
            <Time>2022-07-10T05:59:36.000Z</Time>
            <Position>
              <LatitudeDegrees>42.7900104783475399017333984375</LatitudeDegrees>
              <LongitudeDegrees>-0.14949358999729156494140625</LongitudeDegrees>
            </Position>
            <AltitudeMeters>2347.60009765625</AltitudeMeters>
            <DistanceMeters>23594.811846469</DistanceMeters>
          </Trackpoint>
          <Trackpoint>
            <Time>2022-07-10T05:59:39.000Z</Time>
            <Position>
              <LatitudeDegrees>42.7900714986026287078857421875</LatitudeDegrees>
              <LongitudeDegrees>-0.14956190250813961029052734375</LongitudeDegrees>
            </Position>
            <AltitudeMeters>2348.60009765625</AltitudeMeters>
            <DistanceMeters>23603.601689133</DistanceMeters>
          </Trackpoint>
          <Trackpoint>
            <Time>2022-07-10T05:59:40.000Z</Time>
            <Position>
              <LatitudeDegrees>42.79007107950747013092041015625</LatitudeDegrees>
              <LongitudeDegrees>-0.14957212843000888824462890625</LongitudeDegrees>
            </Position>
            <AltitudeMeters>2348.800048828125</AltitudeMeters>
            <DistanceMeters>23604.435545168</DistanceMeters>
          </Trackpoint>
          <Trackpoint>
            <Time>2022-07-10T05:59:45.000Z</Time>
            <Position>
              <LatitudeDegrees>42.7900969795882701873779296875</LatitudeDegrees>
              <LongitudeDegrees>-0.14959559775888919830322265625</LongitudeDegrees>
            </Position>
            <AltitudeMeters>2350</AltitudeMeters>
            <DistanceMeters>23607.898483446</DistanceMeters>
          </Trackpoint>
          <Trackpoint>
            <Time>2022-07-10T05:59:49.000Z</Time>
            <Position>
              <LatitudeDegrees>42.7901266515254974365234375</LatitudeDegrees>
              <LongitudeDegrees>-0.14957782812416553497314453125</LongitudeDegrees>
            </Position>
            <AltitudeMeters>2351.199951171875</AltitudeMeters>
            <DistanceMeters>23611.506997022</DistanceMeters>
          </Trackpoint>
          <Trackpoint>
            <Time>2022-07-10T05:59:53.000Z</Time>
            <Position>
              <LatitudeDegrees>42.79016696847975254058837890625</LatitudeDegrees>
              <LongitudeDegrees>-0.1495571248233318328857421875</LongitudeDegrees>
            </Position>
            <AltitudeMeters>2352</AltitudeMeters>
            <DistanceMeters>23616.301845782</DistanceMeters>
          </Trackpoint>
          <Trackpoint>
            <Time>2022-07-10T05:59:55.000Z</Time>
            <Position>
              <LatitudeDegrees>42.7901781164109706878662109375</LatitudeDegrees>
              <LongitudeDegrees>-0.1495514251291751861572265625</LongitudeDegrees>
            </Position>
            <AltitudeMeters>2352.39990234375</AltitudeMeters>
            <DistanceMeters>23617.628821632</DistanceMeters>
          </Trackpoint>
          <Trackpoint>
            <Time>2022-07-10T05:59:56.000Z</Time>
            <Position>
              <LatitudeDegrees>42.79018674977123737335205078125</LatitudeDegrees>
              <LongitudeDegrees>-0.149551592767238616943359375</LongitudeDegrees>
            </Position>
            <AltitudeMeters>2352.60009765625</AltitudeMeters>
            <DistanceMeters>23618.588544403</DistanceMeters>
          </Trackpoint>
          <Trackpoint>
            <Time>2022-07-10T06:00:01.000Z</Time>
            <Position>
              <LatitudeDegrees>42.7902196906507015228271484375</LatitudeDegrees>
              <LongitudeDegrees>-0.14955569989979267120361328125</LongitudeDegrees>
            </Position>
            <AltitudeMeters>2353.199951171875</AltitudeMeters>
            <DistanceMeters>23622.268913225</DistanceMeters>
          </Trackpoint>
          <Trackpoint>
            <Time>2022-07-10T06:00:02.000Z</Time>
            <Position>
              <LatitudeDegrees>42.790222875773906707763671875</LatitudeDegrees>
              <LongitudeDegrees>-0.149565674364566802978515625</LongitudeDegrees>
            </Position>
            <AltitudeMeters>2353.199951171875</AltitudeMeters>
            <DistanceMeters>23623.15526341</DistanceMeters>
          </Trackpoint>
          <Trackpoint>
            <Time>2022-07-10T06:00:03.000Z</Time>
            <Position>
              <LatitudeDegrees>42.79022396542131900787353515625</LatitudeDegrees>
              <LongitudeDegrees>-0.14956961385905742645263671875</LongitudeDegrees>
            </Position>
            <AltitudeMeters>2353.199951171875</AltitudeMeters>
            <DistanceMeters>23623.484445605</DistanceMeters>
          </Trackpoint>
          <Trackpoint>
            <Time>2022-07-10T06:00:04.000Z</Time>
            <Position>
              <LatitudeDegrees>42.79022396542131900787353515625</LatitudeDegrees>
              <LongitudeDegrees>-0.1495748944580554962158203125</LongitudeDegrees>
            </Position>
            <AltitudeMeters>2353.199951171875</AltitudeMeters>
            <DistanceMeters>23623.919912716</DistanceMeters>
          </Trackpoint>
          <Trackpoint>
            <Time>2022-07-10T06:00:06.000Z</Time>
            <Position>
              <LatitudeDegrees>42.7902253903448581695556640625</LatitudeDegrees>
              <LongitudeDegrees>-0.14958721585571765899658203125</LongitudeDegrees>
            </Position>
            <AltitudeMeters>2353.39990234375</AltitudeMeters>
            <DistanceMeters>23624.938960699</DistanceMeters>
          </Trackpoint>
          <Trackpoint>
            <Time>2022-07-10T06:00:09.000Z</Time>
            <Position>
              <LatitudeDegrees>42.7902156673371791839599609375</LatitudeDegrees>
              <LongitudeDegrees>-0.1496027223765850067138671875</LongitudeDegrees>
            </Position>
            <AltitudeMeters>2353.60009765625</AltitudeMeters>
            <DistanceMeters>23626.606672768</DistanceMeters>
          </Trackpoint>
          <Trackpoint>
            <Time>2022-07-10T06:00:10.000Z</Time>
            <Position>
              <LatitudeDegrees>42.7902119792997837066650390625</LatitudeDegrees>
              <LongitudeDegrees>-0.14960766769945621490478515625</LongitudeDegrees>
            </Position>
            <AltitudeMeters>2353.800048828125</AltitudeMeters>
            <DistanceMeters>23627.184697705</DistanceMeters>
          </Trackpoint>
          <Trackpoint>
            <Time>2022-07-10T06:00:16.000Z</Time>
            <Position>
              <LatitudeDegrees>42.79023217968642711639404296875</LatitudeDegrees>
              <LongitudeDegrees>-0.1496332325041294097900390625</LongitudeDegrees>
            </Position>
            <AltitudeMeters>2354.60009765625</AltitudeMeters>
            <DistanceMeters>23630.253633959</DistanceMeters>
          </Trackpoint>
          <Trackpoint>
            <Time>2022-07-10T06:00:19.000Z</Time>
            <Position>
              <LatitudeDegrees>42.7902361191809177398681640625</LatitudeDegrees>
              <LongitudeDegrees>-0.14963918365538120269775390625</LongitudeDegrees>
            </Position>
            <AltitudeMeters>2355.60009765625</AltitudeMeters>
            <DistanceMeters>23630.905104291</DistanceMeters>
          </Trackpoint>
          <Trackpoint>
            <Time>2022-07-10T06:00:25.000Z</Time>
            <Position>
              <LatitudeDegrees>42.7902672998607158660888671875</LatitudeDegrees>
              <LongitudeDegrees>-0.14960884116590023040771484375</LongitudeDegrees>
            </Position>
            <AltitudeMeters>2356.39990234375</AltitudeMeters>
            <DistanceMeters>23635.169676246</DistanceMeters>
          </Trackpoint>
          <Trackpoint>
            <Time>2022-07-10T06:00:26.000Z</Time>
            <Position>
              <LatitudeDegrees>42.7902750112116336822509765625</LatitudeDegrees>
              <LongitudeDegrees>-0.1495986990630626678466796875</LongitudeDegrees>
            </Position>
            <AltitudeMeters>2356.800048828125</AltitudeMeters>
            <DistanceMeters>23636.360357564</DistanceMeters>
          </Trackpoint>
          <Trackpoint>
            <Time>2022-07-10T06:00:30.000Z</Time>
            <Position>
              <LatitudeDegrees>42.79030828736722469329833984375</LatitudeDegrees>
              <LongitudeDegrees>-0.14959593303501605987548828125</LongitudeDegrees>
            </Position>
            <AltitudeMeters>2358</AltitudeMeters>
            <DistanceMeters>23640.070052498</DistanceMeters>
          </Trackpoint>
          <Trackpoint>
            <Time>2022-07-10T06:00:46.000Z</Time>
            <Position>
              <LatitudeDegrees>42.7903212793171405792236328125</LatitudeDegrees>
              <LongitudeDegrees>-0.149535834789276123046875</LongitudeDegrees>
            </Position>
            <AltitudeMeters>2360</AltitudeMeters>
            <DistanceMeters>23645.187397677</DistanceMeters>
          </Trackpoint>
          <Trackpoint>
            <Time>2022-07-10T06:00:47.000Z</Time>
            <Position>
              <LatitudeDegrees>42.7903313376009464263916015625</LatitudeDegrees>
              <LongitudeDegrees>-0.1495373435318470001220703125</LongitudeDegrees>
            </Position>
            <AltitudeMeters>2360.199951171875</AltitudeMeters>
            <DistanceMeters>23646.315777391</DistanceMeters>
          </Trackpoint>
          <Trackpoint>
            <Time>2022-07-10T06:00:49.000Z</Time>
            <Position>
              <LatitudeDegrees>42.7903211116790771484375</LatitudeDegrees>
              <LongitudeDegrees>-0.149534828960895538330078125</LongitudeDegrees>
            </Position>
            <AltitudeMeters>2360.60009765625</AltitudeMeters>
            <DistanceMeters>23647.475726265</DistanceMeters>
          </Trackpoint>
          <Trackpoint>
            <Time>2022-07-10T06:00:51.000Z</Time>
            <Position>
              <LatitudeDegrees>42.790365703403949737548828125</LatitudeDegrees>
              <LongitudeDegrees>-0.1496043987572193145751953125</LongitudeDegrees>
            </Position>
            <AltitudeMeters>2361.199951171875</AltitudeMeters>
            <DistanceMeters>23655.020631957</DistanceMeters>
          </Trackpoint>
          <Trackpoint>
            <Time>2022-07-10T06:00:57.000Z</Time>
            <Position>
              <LatitudeDegrees>42.790375091135501861572265625</LatitudeDegrees>
              <LongitudeDegrees>-0.149645470082759857177734375</LongitudeDegrees>
            </Position>
            <AltitudeMeters>2362.199951171875</AltitudeMeters>
            <DistanceMeters>23658.53533601</DistanceMeters>
          </Trackpoint>
          <Trackpoint>
            <Time>2022-07-10T06:01:00.000Z</Time>
            <Position>
              <LatitudeDegrees>42.7903953753411769866943359375</LatitudeDegrees>
              <LongitudeDegrees>-0.14963708817958831787109375</LongitudeDegrees>
            </Position>
            <AltitudeMeters>2362.60009765625</AltitudeMeters>
            <DistanceMeters>23660.893837035</DistanceMeters>
          </Trackpoint>
          <Trackpoint>
            <Time>2022-07-10T06:01:02.000Z</Time>
            <Position>
              <LatitudeDegrees>42.79041825793683528900146484375</LatitudeDegrees>
              <LongitudeDegrees>-0.14962174929678440093994140625</LongitudeDegrees>
            </Position>
            <AltitudeMeters>2363</AltitudeMeters>
            <DistanceMeters>23663.733530375</DistanceMeters>
          </Trackpoint>
          <Trackpoint>
            <Time>2022-07-10T06:01:03.000Z</Time>
            <Position>
              <LatitudeDegrees>42.7904272265732288360595703125</LatitudeDegrees>
              <LongitudeDegrees>-0.14960984699428081512451171875</LongitudeDegrees>
            </Position>
            <AltitudeMeters>2363.39990234375</AltitudeMeters>
            <DistanceMeters>23665.130132148</DistanceMeters>
          </Trackpoint>
          <Trackpoint>
            <Time>2022-07-10T06:06:53.000Z</Time>
            <Position>
              <LatitudeDegrees>42.7907041646540164947509765625</LatitudeDegrees>
              <LongitudeDegrees>-0.15069966204464435577392578125</LongitudeDegrees>
            </Position>
            <AltitudeMeters>2409.39990234375</AltitudeMeters>
            <DistanceMeters>23759.329937241</DistanceMeters>
          </Trackpoint>
          <Trackpoint>
            <Time>2022-07-10T06:06:55.000Z</Time>
            <Position>
              <LatitudeDegrees>42.79072687961161136627197265625</LatitudeDegrees>
              <LongitudeDegrees>-0.1507104746997356414794921875</LongitudeDegrees>
            </Position>
            <AltitudeMeters>2410</AltitudeMeters>
            <DistanceMeters>23762.007600531</DistanceMeters>
          </Trackpoint>
          <Trackpoint>
            <Time>2022-07-10T06:07:00.000Z</Time>
            <Position>
              <LatitudeDegrees>42.790776081383228302001953125</LatitudeDegrees>
              <LongitudeDegrees>-0.15071609057486057281494140625</LongitudeDegrees>
            </Position>
            <AltitudeMeters>2411</AltitudeMeters>
            <DistanceMeters>23767.502741624</DistanceMeters>
          </Trackpoint>
          <Trackpoint>
            <Time>2022-07-10T06:07:06.000Z</Time>
            <Position>
              <LatitudeDegrees>42.7907837927341461181640625</LatitudeDegrees>
              <LongitudeDegrees>-0.15073922462761402130126953125</LongitudeDegrees>
            </Position>
            <AltitudeMeters>2412.199951171875</AltitudeMeters>
            <DistanceMeters>23769.575979764</DistanceMeters>
          </Trackpoint>
          <Trackpoint>
            <Time>2022-07-10T06:07:12.000Z</Time>
            <Position>
              <LatitudeDegrees>42.79077264480292797088623046875</LatitudeDegrees>
              <LongitudeDegrees>-0.15073738060891628265380859375</LongitudeDegrees>
            </Position>
            <AltitudeMeters>2413</AltitudeMeters>
            <DistanceMeters>23770.82224344</DistanceMeters>
          </Trackpoint>
          <Trackpoint>
            <Time>2022-07-10T06:07:13.000Z</Time>
            <Position>
              <LatitudeDegrees>42.79076677747070789337158203125</LatitudeDegrees>
              <LongitudeDegrees>-0.15074609778821468353271484375</LongitudeDegrees>
            </Position>
            <AltitudeMeters>2413.60009765625</AltitudeMeters>
            <DistanceMeters>23771.78665926</DistanceMeters>
          </Trackpoint>
          <Trackpoint>
            <Time>2022-07-10T06:07:14.000Z</Time>
            <Position>
              <LatitudeDegrees>42.790766693651676177978515625</LatitudeDegrees>
              <LongitudeDegrees>-0.15075280331075191497802734375</LongitudeDegrees>
            </Position>
            <AltitudeMeters>2414.199951171875</AltitudeMeters>
            <DistanceMeters>23772.332546173</DistanceMeters>
          </Trackpoint>
          <Trackpoint>
            <Time>2022-07-10T06:07:31.000Z</Time>
            <Position>
              <LatitudeDegrees>42.790637277066707611083984375</LatitudeDegrees>
              <LongitudeDegrees>-0.15074894763529300689697265625</LongitudeDegrees>
            </Position>
            <AltitudeMeters>2415.199951171875</AltitudeMeters>
            <DistanceMeters>23786.740300936</DistanceMeters>
          </Trackpoint>
          <Trackpoint>
            <Time>2022-07-10T06:07:40.000Z</Time>
            <Position>
              <LatitudeDegrees>42.79069636948406696319580078125</LatitudeDegrees>
              <LongitudeDegrees>-0.15091306529939174652099609375</LongitudeDegrees>
            </Position>
            <AltitudeMeters>2416</AltitudeMeters>
            <DistanceMeters>23801.671595499</DistanceMeters>
          </Trackpoint>
          <Trackpoint>
            <Time>2022-07-10T06:07:42.000Z</Time>
            <Position>
              <LatitudeDegrees>42.79069938696920871734619140625</LatitudeDegrees>
              <LongitudeDegrees>-0.15092396177351474761962890625</LongitudeDegrees>
            </Position>
            <AltitudeMeters>2416.39990234375</AltitudeMeters>
            <DistanceMeters>23802.621862642</DistanceMeters>
          </Trackpoint>
          <Trackpoint>
            <Time>2022-07-10T06:07:47.000Z</Time>
            <Position>
              <LatitudeDegrees>42.79069460928440093994140625</LatitudeDegrees>
              <LongitudeDegrees>-0.1509441621601581573486328125</LongitudeDegrees>
            </Position>
            <AltitudeMeters>2416.800048828125</AltitudeMeters>
            <DistanceMeters>23804.358539219</DistanceMeters>
          </Trackpoint>
          <Trackpoint>
            <Time>2022-07-10T06:07:49.000Z</Time>
            <Position>
              <LatitudeDegrees>42.79068463481962680816650390625</LatitudeDegrees>
              <LongitudeDegrees>-0.15094474889338016510009765625</LongitudeDegrees>
            </Position>
            <AltitudeMeters>2417</AltitudeMeters>
            <DistanceMeters>23805.470798394</DistanceMeters>
          </Trackpoint>
          <Trackpoint>
            <Time>2022-07-10T06:07:50.000Z</Time>
            <Position>
              <LatitudeDegrees>42.79068044386804103851318359375</LatitudeDegrees>
              <LongitudeDegrees>-0.15094743110239505767822265625</LongitudeDegrees>
            </Position>
            <AltitudeMeters>2417.39990234375</AltitudeMeters>
            <DistanceMeters>23805.991281145</DistanceMeters>
          </Trackpoint>
          <Trackpoint>
            <Time>2022-07-10T06:07:55.000Z</Time>
            <Position>
              <LatitudeDegrees>42.79066569171845912933349609375</LatitudeDegrees>
              <LongitudeDegrees>-0.150988586246967315673828125</LongitudeDegrees>
            </Position>
            <AltitudeMeters>2418.199951171875</AltitudeMeters>
            <DistanceMeters>23809.732486631</DistanceMeters>
          </Trackpoint>
          <Trackpoint>
            <Time>2022-07-10T06:07:58.000Z</Time>
            <Position>
              <LatitudeDegrees>42.79065311886370182037353515625</LatitudeDegrees>
              <LongitudeDegrees>-0.15101750381290912628173828125</LongitudeDegrees>
            </Position>
            <AltitudeMeters>2419.199951171875</AltitudeMeters>
            <DistanceMeters>23812.476768641</DistanceMeters>
          </Trackpoint>
          <Trackpoint>
            <Time>2022-07-10T06:08:02.000Z</Time>
            <Position>
              <LatitudeDegrees>42.79063518159091472625732421875</LatitudeDegrees>
              <LongitudeDegrees>-0.15105119906365871429443359375</LongitudeDegrees>
            </Position>
            <AltitudeMeters>2420.199951171875</AltitudeMeters>
            <DistanceMeters>23815.87654773</DistanceMeters>
          </Trackpoint>
          <Trackpoint>
            <Time>2022-07-10T06:08:03.000Z</Time>
            <Position>
              <LatitudeDegrees>42.790628559887409210205078125</LatitudeDegrees>
              <LongitudeDegrees>-0.15105639584362506866455078125</LongitudeDegrees>
            </Position>
            <AltitudeMeters>2420.39990234375</AltitudeMeters>
            <DistanceMeters>23816.731788159</DistanceMeters>
          </Trackpoint>
          <Trackpoint>
            <Time>2022-07-10T06:08:08.000Z</Time>
            <Position>
              <LatitudeDegrees>42.7905972115695476531982421875</LatitudeDegrees>
              <LongitudeDegrees>-0.1510848104953765869140625</LongitudeDegrees>
            </Position>
            <AltitudeMeters>2420.199951171875</AltitudeMeters>
            <DistanceMeters>23820.923748173</DistanceMeters>
          </Trackpoint>
          <Trackpoint>
            <Time>2022-07-10T06:08:09.000Z</Time>
            <Position>
              <LatitudeDegrees>42.7905938588082790374755859375</LatitudeDegrees>
              <LongitudeDegrees>-0.15108657069504261016845703125</LongitudeDegrees>
            </Position>
            <AltitudeMeters>2420.199951171875</AltitudeMeters>
            <DistanceMeters>23821.326912378</DistanceMeters>
          </Trackpoint>
          <Trackpoint>
            <Time>2022-07-10T06:09:20.000Z</Time>
            <Position>
              <LatitudeDegrees>42.79041172005236148834228515625</LatitudeDegrees>
              <LongitudeDegrees>-0.151278264820575714111328125</LongitudeDegrees>
            </Position>
            <AltitudeMeters>2428</AltitudeMeters>
            <DistanceMeters>23846.941856344</DistanceMeters>
          </Trackpoint>
          <Trackpoint>
            <Time>2022-07-10T06:09:21.000Z</Time>
            <Position>
              <LatitudeDegrees>42.79041306115686893463134765625</LatitudeDegrees>
              <LongitudeDegrees>-0.151283629238605499267578125</LongitudeDegrees>
            </Position>
            <AltitudeMeters>2428</AltitudeMeters>
            <DistanceMeters>23847.407390269</DistanceMeters>
          </Trackpoint>
          <Trackpoint>
            <Time>2022-07-10T06:09:22.000Z</Time>
            <Position>
              <LatitudeDegrees>42.79041591100394725799560546875</LatitudeDegrees>
              <LongitudeDegrees>-0.15128974802792072296142578125</LongitudeDegrees>
            </Position>
            <AltitudeMeters>2428.39990234375</AltitudeMeters>
            <DistanceMeters>23848.00083191</DistanceMeters>
          </Trackpoint>
          <Trackpoint>
            <Time>2022-07-10T06:09:24.000Z</Time>
            <Position>
              <LatitudeDegrees>42.79042412526905536651611328125</LatitudeDegrees>
              <LongitudeDegrees>-0.1512993872165679931640625</LongitudeDegrees>
            </Position>
            <AltitudeMeters>2428.60009765625</AltitudeMeters>
            <DistanceMeters>23849.202835334</DistanceMeters>
          </Trackpoint>
          <Trackpoint>
            <Time>2022-07-10T06:09:25.000Z</Time>
            <Position>
              <LatitudeDegrees>42.79042747803032398223876953125</LatitudeDegrees>
              <LongitudeDegrees>-0.15130701474845409393310546875</LongitudeDegrees>
            </Position>
            <AltitudeMeters>2428.60009765625</AltitudeMeters>
            <DistanceMeters>23849.926537229</DistanceMeters>
          </Trackpoint>
          <Trackpoint>
            <Time>2022-07-10T06:09:27.000Z</Time>
            <Position>
              <LatitudeDegrees>42.7904356084764003753662109375</LatitudeDegrees>
              <LongitudeDegrees>-0.151313133537769317626953125</LongitudeDegrees>
            </Position>
            <AltitudeMeters>2429.39990234375</AltitudeMeters>
            <DistanceMeters>23850.958791568</DistanceMeters>
          </Trackpoint>
          <Trackpoint>
            <Time>2022-07-10T06:09:28.000Z</Time>
            <Position>
              <LatitudeDegrees>42.7904386259615421295166015625</LatitudeDegrees>
              <LongitudeDegrees>-0.1513159833848476409912109375</LongitudeDegrees>
            </Position>
            <AltitudeMeters>2429.60009765625</AltitudeMeters>
            <DistanceMeters>23851.361955773</DistanceMeters>
          </Trackpoint>
          <Trackpoint>
            <Time>2022-07-10T06:09:29.000Z</Time>
            <Position>
              <LatitudeDegrees>42.79044021852314472198486328125</LatitudeDegrees>
              <LongitudeDegrees>-0.15132076106965541839599609375</LongitudeDegrees>
            </Position>
            <AltitudeMeters>2429.800048828125</AltitudeMeters>
            <DistanceMeters>23851.797422885</DistanceMeters>
          </Trackpoint>
          <Trackpoint>
            <Time>2022-07-10T06:09:31.000Z</Time>
            <Position>
              <LatitudeDegrees>42.790437452495098114013671875</LatitudeDegrees>
              <LongitudeDegrees>-0.1513337530195713043212890625</LongitudeDegrees>
            </Position>
            <AltitudeMeters>2430</AltitudeMeters>
            <DistanceMeters>23852.905615285</DistanceMeters>
          </Trackpoint>
          <Trackpoint>
            <Time>2022-07-10T06:09:33.000Z</Time>
            <Position>
              <LatitudeDegrees>42.7904284000396728515625</LatitudeDegrees>
              <LongitudeDegrees>-0.15135277993977069854736328125</LongitudeDegrees>
            </Position>
            <AltitudeMeters>2430.39990234375</AltitudeMeters>
            <DistanceMeters>23854.75802697</DistanceMeters>
          </Trackpoint>
          <Trackpoint>
            <Time>2022-07-10T06:09:35.000Z</Time>
            <Position>
              <LatitudeDegrees>42.790423370897769927978515625</LatitudeDegrees>
              <LongitudeDegrees>-0.15137054957449436187744140625</LongitudeDegrees>
            </Position>
            <AltitudeMeters>2430.800048828125</AltitudeMeters>
            <DistanceMeters>23856.313681329</DistanceMeters>
          </Trackpoint>
          <Trackpoint>
            <Time>2022-07-10T06:09:36.000Z</Time>
            <Position>
              <LatitudeDegrees>42.79042211361229419708251953125</LatitudeDegrees>
              <LongitudeDegrees>-0.1513770036399364471435546875</LongitudeDegrees>
            </Position>
            <AltitudeMeters>2430.800048828125</AltitudeMeters>
            <DistanceMeters>23856.851233602</DistanceMeters>
          </Trackpoint>
          <Trackpoint>
            <Time>2022-07-10T06:09:37.000Z</Time>
            <Position>
              <LatitudeDegrees>42.790420353412628173828125</LatitudeDegrees>
              <LongitudeDegrees>-0.1513830386102199554443359375</LongitudeDegrees>
            </Position>
            <AltitudeMeters>2431</AltitudeMeters>
            <DistanceMeters>23857.380319956</DistanceMeters>
          </Trackpoint>
          <Trackpoint>
            <Time>2022-07-10T06:09:39.000Z</Time>
            <Position>
              <LatitudeDegrees>42.79041423462331295013427734375</LatitudeDegrees>
              <LongitudeDegrees>-0.151399634778499603271484375</LongitudeDegrees>
            </Position>
            <AltitudeMeters>2431.199951171875</AltitudeMeters>
            <DistanceMeters>23858.900747386</DistanceMeters>
          </Trackpoint>
          <Trackpoint>
            <Time>2022-07-10T06:09:42.000Z</Time>
            <Position>
              <LatitudeDegrees>42.79040216468274593353271484375</LatitudeDegrees>
              <LongitudeDegrees>-0.15142017044126987457275390625</LongitudeDegrees>
            </Position>
            <AltitudeMeters>2431.39990234375</AltitudeMeters>
            <DistanceMeters>23861.050956478</DistanceMeters>
          </Trackpoint>
          <Trackpoint>
            <Time>2022-07-10T06:09:43.000Z</Time>
            <Position>
              <LatitudeDegrees>42.79040434397757053375244140625</LatitudeDegrees>
              <LongitudeDegrees>-0.15143014490604400634765625</LongitudeDegrees>
            </Position>
            <AltitudeMeters>2431.60009765625</AltitudeMeters>
            <DistanceMeters>23861.90090125</DistanceMeters>
          </Trackpoint>
          <Trackpoint>
            <Time>2022-07-10T06:09:49.000Z</Time>
            <Position>
              <LatitudeDegrees>42.7904138155281543731689453125</LatitudeDegrees>
              <LongitudeDegrees>-0.1514403708279132843017578125</LongitudeDegrees>
            </Position>
            <AltitudeMeters>2432</AltitudeMeters>
            <DistanceMeters>23863.244781933</DistanceMeters>
          </Trackpoint>
          <Trackpoint>
            <Time>2022-07-10T06:09:51.000Z</Time>
            <Position>
              <LatitudeDegrees>42.7904114685952663421630859375</LatitudeDegrees>
              <LongitudeDegrees>-0.15144615434110164642333984375</LongitudeDegrees>
            </Position>
            <AltitudeMeters>2432.39990234375</AltitudeMeters>
            <DistanceMeters>23863.798878133</DistanceMeters>
          </Trackpoint>
          <Trackpoint>
            <Time>2022-07-10T06:09:53.000Z</Time>
            <Position>
              <LatitudeDegrees>42.7904111333191394805908203125</LatitudeDegrees>
              <LongitudeDegrees>-0.15145755372941493988037109375</LongitudeDegrees>
            </Position>
            <AltitudeMeters>2432.60009765625</AltitudeMeters>
            <DistanceMeters>23864.729945981</DistanceMeters>
          </Trackpoint>
          <Trackpoint>
            <Time>2022-07-10T06:09:59.000Z</Time>
            <Position>
              <LatitudeDegrees>42.79040937311947345733642578125</LatitudeDegrees>
              <LongitudeDegrees>-0.151496194303035736083984375</LongitudeDegrees>
            </Position>
            <AltitudeMeters>2432.60009765625</AltitudeMeters>
            <DistanceMeters>23867.890209348</DistanceMeters>
          </Trackpoint>
          <Trackpoint>
            <Time>2022-07-10T06:10:05.000Z</Time>
            <Position>
              <LatitudeDegrees>42.7904144860804080963134765625</LatitudeDegrees>
              <LongitudeDegrees>-0.15154405497014522552490234375</LongitudeDegrees>
            </Position>
            <AltitudeMeters>2433.39990234375</AltitudeMeters>
            <DistanceMeters>23871.840395685</DistanceMeters>
          </Trackpoint>
          <Trackpoint>
            <Time>2022-07-10T06:10:06.000Z</Time>
            <Position>
              <LatitudeDegrees>42.79041440226137638092041015625</LatitudeDegrees>
              <LongitudeDegrees>-0.1515483297407627105712890625</LongitudeDegrees>
            </Position>
            <AltitudeMeters>2433.60009765625</AltitudeMeters>
            <DistanceMeters>23872.195953093</DistanceMeters>
          </Trackpoint>
          <Trackpoint>
            <Time>2022-07-10T06:10:11.000Z</Time>
            <Position>
              <LatitudeDegrees>42.790403254330158233642578125</LatitudeDegrees>
              <LongitudeDegrees>-0.1515449769794940948486328125</LongitudeDegrees>
            </Position>
            <AltitudeMeters>2434.199951171875</AltitudeMeters>
            <DistanceMeters>23873.467323882</DistanceMeters>
          </Trackpoint>
          <Trackpoint>
            <Time>2022-07-10T06:10:13.000Z</Time>
            <Position>
              <LatitudeDegrees>42.79039554297924041748046875</LatitudeDegrees>
              <LongitudeDegrees>-0.15154506079852581024169921875</LongitudeDegrees>
            </Position>
            <AltitudeMeters>2434.39990234375</AltitudeMeters>
            <DistanceMeters>23874.327827379</DistanceMeters>
          </Trackpoint>
          <Trackpoint>
            <Time>2022-07-10T06:10:15.000Z</Time>
            <Position>
              <LatitudeDegrees>42.7903841435909271240234375</LatitudeDegrees>
              <LongitudeDegrees>-0.1515436358749866485595703125</LongitudeDegrees>
            </Position>
            <AltitudeMeters>2434.60009765625</AltitudeMeters>
            <DistanceMeters>23875.602744537</DistanceMeters>
          </Trackpoint>
          <Trackpoint>
            <Time>2022-07-10T06:10:20.000Z</Time>
            <Position>
              <LatitudeDegrees>42.79035606421530246734619140625</LatitudeDegrees>
              <LongitudeDegrees>-0.15152980573475360870361328125</LongitudeDegrees>
            </Position>
            <AltitudeMeters>2435.60009765625</AltitudeMeters>
            <DistanceMeters>23878.92460447</DistanceMeters>
          </Trackpoint>
          <Trackpoint>
            <Time>2022-07-10T06:10:22.000Z</Time>
            <Position>
              <LatitudeDegrees>42.79034793376922607421875</LatitudeDegrees>
              <LongitudeDegrees>-0.15153265558183193206787109375</LongitudeDegrees>
            </Position>
            <AltitudeMeters>2436</AltitudeMeters>
            <DistanceMeters>23879.855672318</DistanceMeters>
          </Trackpoint>
          <Trackpoint>
            <Time>2022-07-10T06:10:27.000Z</Time>
            <Position>
              <LatitudeDegrees>42.79034768231213092803955078125</LatitudeDegrees>
              <LongitudeDegrees>-0.15157691203057765960693359375</LongitudeDegrees>
            </Position>
            <AltitudeMeters>2436.60009765625</AltitudeMeters>
            <DistanceMeters>23883.471685412</DistanceMeters>
          </Trackpoint>
          <Trackpoint>
            <Time>2022-07-10T06:10:28.000Z</Time>
            <Position>
              <LatitudeDegrees>42.7903487719595432281494140625</LatitudeDegrees>
              <LongitudeDegrees>-0.1515862159430980682373046875</LongitudeDegrees>
            </Position>
            <AltitudeMeters>2436.800048828125</AltitudeMeters>
            <DistanceMeters>23884.243686089</DistanceMeters>
          </Trackpoint>
          <Trackpoint>
            <Time>2022-07-10T06:10:34.000Z</Time>
            <Position>
              <LatitudeDegrees>42.7903504483401775360107421875</LatitudeDegrees>
              <LongitudeDegrees>-0.15162016265094280242919921875</LongitudeDegrees>
            </Position>
            <AltitudeMeters>2437.800048828125</AltitudeMeters>
            <DistanceMeters>23887.022303615</DistanceMeters>
          </Trackpoint>
          <Trackpoint>
            <Time>2022-07-10T06:10:37.000Z</Time>
            <Position>
              <LatitudeDegrees>42.79034667648375034332275390625</LatitudeDegrees>
              <LongitudeDegrees>-0.15164329670369625091552734375</LongitudeDegrees>
            </Position>
            <AltitudeMeters>2438</AltitudeMeters>
            <DistanceMeters>23888.958144963</DistanceMeters>
          </Trackpoint>
          <Trackpoint>
            <Time>2022-07-10T06:10:43.000Z</Time>
            <Position>
              <LatitudeDegrees>42.79033795930445194244384765625</LatitudeDegrees>
              <LongitudeDegrees>-0.151672549545764923095703125</LongitudeDegrees>
            </Position>
            <AltitudeMeters>2438.60009765625</AltitudeMeters>
            <DistanceMeters>23891.5361551</DistanceMeters>
          </Trackpoint>
          <Trackpoint>
            <Time>2022-07-10T06:10:44.000Z</Time>
            <Position>
              <LatitudeDegrees>42.79033561237156391143798828125</LatitudeDegrees>
              <LongitudeDegrees>-0.1516696996986865997314453125</LongitudeDegrees>
            </Position>
            <AltitudeMeters>2438.800048828125</AltitudeMeters>
            <DistanceMeters>23891.891712507</DistanceMeters>
          </Trackpoint>
          <Trackpoint>
            <Time>2022-07-10T06:10:50.000Z</Time>
            <Position>
              <LatitudeDegrees>42.79031264595687389373779296875</LatitudeDegrees>
              <LongitudeDegrees>-0.1516748964786529541015625</LongitudeDegrees>
            </Position>
            <AltitudeMeters>2439.39990234375</AltitudeMeters>
            <DistanceMeters>23894.483695701</DistanceMeters>
          </Trackpoint>
          <Trackpoint>
            <Time>2022-07-10T06:10:56.000Z</Time>
            <Position>
              <LatitudeDegrees>42.7902770228683948516845703125</LatitudeDegrees>
              <LongitudeDegrees>-0.15165821649134159088134765625</LongitudeDegrees>
            </Position>
            <AltitudeMeters>2439.800048828125</AltitudeMeters>
            <DistanceMeters>23898.676732647</DistanceMeters>
          </Trackpoint>
          <Trackpoint>
            <Time>2022-07-10T06:10:58.000Z</Time>
            <Position>
              <LatitudeDegrees>42.7902716584503650665283203125</LatitudeDegrees>
              <LongitudeDegrees>-0.1516556181013584136962890625</LongitudeDegrees>
            </Position>
            <AltitudeMeters>2439.800048828125</AltitudeMeters>
            <DistanceMeters>23899.307068561</DistanceMeters>
          </Trackpoint>
          <Trackpoint>
            <Time>2022-07-10T06:10:59.000Z</Time>
            <Position>
              <LatitudeDegrees>42.79026947915554046630859375</LatitudeDegrees>
              <LongitudeDegrees>-0.15165067277848720550537109375</LongitudeDegrees>
            </Position>
            <AltitudeMeters>2439.800048828125</AltitudeMeters>
            <DistanceMeters>23899.772602485</DistanceMeters>
          </Trackpoint>
          <Trackpoint>
            <Time>2022-07-10T06:11:02.000Z</Time>
            <Position>
              <LatitudeDegrees>42.79025732539594173431396484375</LatitudeDegrees>
              <LongitudeDegrees>-0.151643715798854827880859375</LongitudeDegrees>
            </Position>
            <AltitudeMeters>2440.199951171875</AltitudeMeters>
            <DistanceMeters>23901.238603233</DistanceMeters>
          </Trackpoint>
          <Trackpoint>
            <Time>2022-07-10T06:11:04.000Z</Time>
            <Position>
              <LatitudeDegrees>42.7902491949498653411865234375</LatitudeDegrees>
              <LongitudeDegrees>-0.151641704142093658447265625</LongitudeDegrees>
            </Position>
            <AltitudeMeters>2440.39990234375</AltitudeMeters>
            <DistanceMeters>23902.159921411</DistanceMeters>
          </Trackpoint>
          <Trackpoint>
            <Time>2022-07-10T06:11:05.000Z</Time>
            <Position>
              <LatitudeDegrees>42.7902468480169773101806640625</LatitudeDegrees>
              <LongitudeDegrees>-0.15164514072239398956298828125</LongitudeDegrees>
            </Position>
            <AltitudeMeters>2440.39990234375</AltitudeMeters>
            <DistanceMeters>23902.540028269</DistanceMeters>
          </Trackpoint>
          <Trackpoint>
            <Time>2022-07-10T06:11:08.000Z</Time>
            <Position>
              <LatitudeDegrees>42.79023285023868083953857421875</LatitudeDegrees>
              <LongitudeDegrees>-0.151633322238922119140625</LongitudeDegrees>
            </Position>
            <AltitudeMeters>2441</AltitudeMeters>
            <DistanceMeters>23904.372837161</DistanceMeters>
          </Trackpoint>
          <Trackpoint>
            <Time>2022-07-10T06:11:13.000Z</Time>
            <Position>
              <LatitudeDegrees>42.790221869945526123046875</LatitudeDegrees>
              <LongitudeDegrees>-0.1516696996986865997314453125</LongitudeDegrees>
            </Position>
            <AltitudeMeters>2441.39990234375</AltitudeMeters>
            <DistanceMeters>23907.585527214</DistanceMeters>
          </Trackpoint>
          <Trackpoint>
            <Time>2022-07-10T06:11:17.000Z</Time>
            <Position>
              <LatitudeDegrees>42.79023016802966594696044921875</LatitudeDegrees>
              <LongitudeDegrees>-0.15171856619417667388916015625</LongitudeDegrees>
            </Position>
            <AltitudeMeters>2441.60009765625</AltitudeMeters>
            <DistanceMeters>23911.68271065</DistanceMeters>
          </Trackpoint>
          <Trackpoint>
            <Time>2022-07-10T06:11:22.000Z</Time>
            <Position>
              <LatitudeDegrees>42.79023486189544200897216796875</LatitudeDegrees>
              <LongitudeDegrees>-0.151759050786495208740234375</LongitudeDegrees>
            </Position>
            <AltitudeMeters>2442</AltitudeMeters>
            <DistanceMeters>23915.030295581</DistanceMeters>
          </Trackpoint>
          <Trackpoint>
            <Time>2022-07-10T06:11:25.000Z</Time>
            <Position>
              <LatitudeDegrees>42.79022295959293842315673828125</LatitudeDegrees>
              <LongitudeDegrees>-0.15176919288933277130126953125</LongitudeDegrees>
            </Position>
            <AltitudeMeters>2442.199951171875</AltitudeMeters>
            <DistanceMeters>23916.59463273</DistanceMeters>
          </Trackpoint>
          <Trackpoint>
            <Time>2022-07-10T06:11:30.000Z</Time>
            <Position>
              <LatitudeDegrees>42.79020502232015132904052734375</LatitudeDegrees>
              <LongitudeDegrees>-0.15177086926996707916259765625</LongitudeDegrees>
            </Position>
            <AltitudeMeters>2443</AltitudeMeters>
            <DistanceMeters>23918.59696985</DistanceMeters>
          </Trackpoint>
          <Trackpoint>
            <Time>2022-07-10T06:11:33.000Z</Time>
            <Position>
              <LatitudeDegrees>42.7902052737772464752197265625</LatitudeDegrees>
              <LongitudeDegrees>-0.15173600055277347564697265625</LongitudeDegrees>
            </Position>
            <AltitudeMeters>2443.39990234375</AltitudeMeters>
            <DistanceMeters>23921.444601962</DistanceMeters>
          </Trackpoint>
          <Trackpoint>
            <Time>2022-07-10T06:11:38.000Z</Time>
            <Position>
              <LatitudeDegrees>42.790183983743190765380859375</LatitudeDegrees>
              <LongitudeDegrees>-0.15171068720519542694091796875</LongitudeDegrees>
            </Position>
            <AltitudeMeters>2444</AltitudeMeters>
            <DistanceMeters>23924.587674285</DistanceMeters>
          </Trackpoint>
          <Trackpoint>
            <Time>2022-07-10T06:11:39.000Z</Time>
            <Position>
              <LatitudeDegrees>42.7901801280677318572998046875</LatitudeDegrees>
              <LongitudeDegrees>-0.1517152972519397735595703125</LongitudeDegrees>
            </Position>
            <AltitudeMeters>2444.199951171875</AltitudeMeters>
            <DistanceMeters>23925.157834572</DistanceMeters>
          </Trackpoint>
          <Trackpoint>
            <Time>2022-07-10T06:11:40.000Z</Time>
            <Position>
              <LatitudeDegrees>42.79017954133450984954833984375</LatitudeDegrees>
              <LongitudeDegrees>-0.15172409825026988983154296875</LongitudeDegrees>
            </Position>
            <AltitudeMeters>2444.39990234375</AltitudeMeters>
            <DistanceMeters>23925.881536467</DistanceMeters>
          </Trackpoint>
          <Trackpoint>
            <Time>2022-07-10T06:11:46.000Z</Time>
            <Position>
              <LatitudeDegrees>42.7901811338961124420166015625</LatitudeDegrees>
              <LongitudeDegrees>-0.15175737440586090087890625</LongitudeDegrees>
            </Position>
            <AltitudeMeters>2445.39990234375</AltitudeMeters>
            <DistanceMeters>23928.606003908</DistanceMeters>
          </Trackpoint>
          <Trackpoint>
            <Time>2022-07-10T06:11:48.000Z</Time>
            <Position>
              <LatitudeDegrees>42.79018138535320758819580078125</LatitudeDegrees>
              <LongitudeDegrees>-0.15177455730736255645751953125</LongitudeDegrees>
            </Position>
            <AltitudeMeters>2445.60009765625</AltitudeMeters>
            <DistanceMeters>23930.012270861</DistanceMeters>
          </Trackpoint>
          <Trackpoint>
            <Time>2022-07-10T06:11:49.000Z</Time>
            <Position>
              <LatitudeDegrees>42.79018071480095386505126953125</LatitudeDegrees>
              <LongitudeDegrees>-0.1517803408205509185791015625</LongitudeDegrees>
            </Position>
            <AltitudeMeters>2445.60009765625</AltitudeMeters>
            <DistanceMeters>23930.487404432</DistanceMeters>
          </Trackpoint>
          <Trackpoint>
            <Time>2022-07-10T06:11:55.000Z</Time>
            <Position>
              <LatitudeDegrees>42.79016294516623020172119140625</LatitudeDegrees>
              <LongitudeDegrees>-0.1518304646015167236328125</LongitudeDegrees>
            </Position>
            <AltitudeMeters>2446.199951171875</AltitudeMeters>
            <DistanceMeters>23935.032821344</DistanceMeters>
          </Trackpoint>
          <Trackpoint>
            <Time>2022-07-10T06:11:56.000Z</Time>
            <Position>
              <LatitudeDegrees>42.790159843862056732177734375</LatitudeDegrees>
              <LongitudeDegrees>-0.15183540992438793182373046875</LongitudeDegrees>
            </Position>
            <AltitudeMeters>2446.199951171875</AltitudeMeters>
            <DistanceMeters>23935.553304095</DistanceMeters>
          </Trackpoint>
          <Trackpoint>
            <Time>2022-07-10T06:11:57.000Z</Time>
            <Position>
              <LatitudeDegrees>42.79015556909143924713134765625</LatitudeDegrees>
              <LongitudeDegrees>-0.15183742158114910125732421875</LongitudeDegrees>
            </Position>
            <AltitudeMeters>2446.39990234375</AltitudeMeters>
            <DistanceMeters>23936.056138203</DistanceMeters>
          </Trackpoint>
          <Trackpoint>
            <Time>2022-07-10T06:12:01.000Z</Time>
            <Position>
              <LatitudeDegrees>42.7901301719248294830322265625</LatitudeDegrees>
              <LongitudeDegrees>-0.1518470607697963714599609375</LongitudeDegrees>
            </Position>
            <AltitudeMeters>2447.39990234375</AltitudeMeters>
            <DistanceMeters>23938.988139699</DistanceMeters>
          </Trackpoint>
          <Trackpoint>
            <Time>2022-07-10T06:12:03.000Z</Time>
            <Position>
              <LatitudeDegrees>42.79011927545070648193359375</LatitudeDegrees>
              <LongitudeDegrees>-0.15186206437647342681884765625</LongitudeDegrees>
            </Position>
            <AltitudeMeters>2447.60009765625</AltitudeMeters>
            <DistanceMeters>23940.709146693</DistanceMeters>
          </Trackpoint>
          <Trackpoint>
            <Time>2022-07-10T06:12:05.000Z</Time>
            <Position>
              <LatitudeDegrees>42.7901160903275012969970703125</LatitudeDegrees>
              <LongitudeDegrees>-0.15188276767730712890625</LongitudeDegrees>
            </Position>
            <AltitudeMeters>2447.800048828125</AltitudeMeters>
            <DistanceMeters>23942.435392686</DistanceMeters>
          </Trackpoint>
          <Trackpoint>
            <Time>2022-07-10T06:12:11.000Z</Time>
            <Position>
              <LatitudeDegrees>42.79011659324169158935546875</LatitudeDegrees>
              <LongitudeDegrees>-0.1519431173801422119140625</LongitudeDegrees>
            </Position>
            <AltitudeMeters>2448.39990234375</AltitudeMeters>
            <DistanceMeters>23947.364889183</DistanceMeters>
          </Trackpoint>
          <Trackpoint>
            <Time>2022-07-10T06:12:13.000Z</Time>
            <Position>
              <LatitudeDegrees>42.7901174314320087432861328125</LatitudeDegrees>
              <LongitudeDegrees>-0.15195527113974094390869140625</LongitudeDegrees>
            </Position>
            <AltitudeMeters>2448.39990234375</AltitudeMeters>
            <DistanceMeters>23948.361537771</DistanceMeters>
          </Trackpoint>
          <Trackpoint>
            <Time>2022-07-10T06:12:14.000Z</Time>
            <Position>
              <LatitudeDegrees>42.79011701233685016632080078125</LatitudeDegrees>
              <LongitudeDegrees>-0.1519603841006755828857421875</LongitudeDegrees>
            </Position>
            <AltitudeMeters>2448.39990234375</AltitudeMeters>
            <DistanceMeters>23948.775749616</DistanceMeters>
          </Trackpoint>
          <Trackpoint>
            <Time>2022-07-10T06:12:15.000Z</Time>
            <Position>
              <LatitudeDegrees>42.79011986218392848968505859375</LatitudeDegrees>
              <LongitudeDegrees>-0.15196599997580051422119140625</LongitudeDegrees>
            </Position>
            <AltitudeMeters>2448.60009765625</AltitudeMeters>
            <DistanceMeters>23949.33793524</DistanceMeters>
          </Trackpoint>
          <Trackpoint>
            <Time>2022-07-10T06:12:16.000Z</Time>
            <Position>
              <LatitudeDegrees>42.7901251427829265594482421875</LatitudeDegrees>
              <LongitudeDegrees>-0.15197287313640117645263671875</LongitudeDegrees>
            </Position>
            <AltitudeMeters>2448.800048828125</AltitudeMeters>
            <DistanceMeters>23950.149843843</DistanceMeters>
          </Trackpoint>
          <Trackpoint>
            <Time>2022-07-10T06:12:17.000Z</Time>
            <Position>
              <LatitudeDegrees>42.790128327906131744384765625</LatitudeDegrees>
              <LongitudeDegrees>-0.151984356343746185302734375</LongitudeDegrees>
            </Position>
            <AltitudeMeters>2448.800048828125</AltitudeMeters>
            <DistanceMeters>23951.146492431</DistanceMeters>
          </Trackpoint>
          <Trackpoint>
            <Time>2022-07-10T06:12:18.000Z</Time>
            <Position>
              <LatitudeDegrees>42.7901281602680683135986328125</LatitudeDegrees>
              <LongitudeDegrees>-0.15199332498013973236083984375</LongitudeDegrees>
            </Position>
            <AltitudeMeters>2449</AltitudeMeters>
            <DistanceMeters>23951.876406474</DistanceMeters>
          </Trackpoint>
          <Trackpoint>
            <Time>2022-07-10T06:12:20.000Z</Time>
            <Position>
              <LatitudeDegrees>42.790120951831340789794921875</LatitudeDegrees>
              <LongitudeDegrees>-0.15201511792838573455810546875</LongitudeDegrees>
            </Position>
            <AltitudeMeters>2449</AltitudeMeters>
            <DistanceMeters>23953.828505924</DistanceMeters>
          </Trackpoint>
          <Trackpoint>
            <Time>2022-07-10T06:12:21.000Z</Time>
            <Position>
              <LatitudeDegrees>42.79011701233685016632080078125</LatitudeDegrees>
              <LongitudeDegrees>-0.1520244218409061431884765625</LongitudeDegrees>
            </Position>
            <AltitudeMeters>2449.199951171875</AltitudeMeters>
            <DistanceMeters>23954.70974742</DistanceMeters>
          </Trackpoint>
          <Trackpoint>
            <Time>2022-07-10T06:12:24.000Z</Time>
            <Position>
              <LatitudeDegrees>42.79010494239628314971923828125</LatitudeDegrees>
              <LongitudeDegrees>-0.15205912292003631591796875</LongitudeDegrees>
            </Position>
            <AltitudeMeters>2449.39990234375</AltitudeMeters>
            <DistanceMeters>23957.847068462</DistanceMeters>
          </Trackpoint>
          <Trackpoint>
            <Time>2022-07-10T06:12:25.000Z</Time>
            <Position>
              <LatitudeDegrees>42.7901025116443634033203125</LatitudeDegrees>
              <LongitudeDegrees>-0.15206842683255672454833984375</LongitudeDegrees>
            </Position>
            <AltitudeMeters>2449.60009765625</AltitudeMeters>
            <DistanceMeters>23958.653396872</DistanceMeters>
          </Trackpoint>
          <Trackpoint>
            <Time>2022-07-10T06:12:28.000Z</Time>
            <Position>
              <LatitudeDegrees>42.79010259546339511871337890625</LatitudeDegrees>
              <LongitudeDegrees>-0.15208887867629528045654296875</LongitudeDegrees>
            </Position>
            <AltitudeMeters>2449.800048828125</AltitudeMeters>
            <DistanceMeters>23960.321108941</DistanceMeters>
          </Trackpoint>
          <Trackpoint>
            <Time>2022-07-10T06:12:29.000Z</Time>
            <Position>
              <LatitudeDegrees>42.79010360129177570343017578125</LatitudeDegrees>
              <LongitudeDegrees>-0.1520955003798007965087890625</LongitudeDegrees>
            </Position>
            <AltitudeMeters>2450</AltitudeMeters>
            <DistanceMeters>23960.875205141</DistanceMeters>
          </Trackpoint>
          <Trackpoint>
            <Time>2022-07-10T06:12:32.000Z</Time>
            <Position>
              <LatitudeDegrees>42.79010854661464691162109375</LatitudeDegrees>
              <LongitudeDegrees>-0.15211720950901508331298828125</LongitudeDegrees>
            </Position>
            <AltitudeMeters>2450.39990234375</AltitudeMeters>
            <DistanceMeters>23962.727616825</DistanceMeters>
          </Trackpoint>
          <Trackpoint>
            <Time>2022-07-10T06:12:35.000Z</Time>
            <Position>
              <LatitudeDegrees>42.79011927545070648193359375</LatitudeDegrees>
              <LongitudeDegrees>-0.15214025974273681640625</LongitudeDegrees>
            </Position>
            <AltitudeMeters>2450.60009765625</AltitudeMeters>
            <DistanceMeters>23964.958215875</DistanceMeters>
          </Trackpoint>
          <Trackpoint>
            <Time>2022-07-10T06:12:39.000Z</Time>
            <Position>
              <LatitudeDegrees>42.79013562016189098358154296875</LatitudeDegrees>
              <LongitudeDegrees>-0.15216213651001453399658203125</LongitudeDegrees>
            </Position>
            <AltitudeMeters>2450.60009765625</AltitudeMeters>
            <DistanceMeters>23967.511589172</DistanceMeters>
          </Trackpoint>
          <Trackpoint>
            <Time>2022-07-10T06:12:45.000Z</Time>
            <Position>
              <LatitudeDegrees>42.7901481091976165771484375</LatitudeDegrees>
              <LongitudeDegrees>-0.1521813310682773590087890625</LongitudeDegrees>
            </Position>
            <AltitudeMeters>2451.39990234375</AltitudeMeters>
            <DistanceMeters>23969.608645973</DistanceMeters>
          </Trackpoint>
          <Trackpoint>
            <Time>2022-07-10T06:12:47.000Z</Time>
            <Position>
              <LatitudeDegrees>42.79015037231147289276123046875</LatitudeDegrees>
              <LongitudeDegrees>-0.152189545333385467529296875</LongitudeDegrees>
            </Position>
            <AltitudeMeters>2451.60009765625</AltitudeMeters>
            <DistanceMeters>23970.332347869</DistanceMeters>
          </Trackpoint>
          <Trackpoint>
            <Time>2022-07-10T06:12:53.000Z</Time>
            <Position>
              <LatitudeDegrees>42.79013805091381072998046875</LatitudeDegrees>
              <LongitudeDegrees>-0.15221946872770786285400390625</LongitudeDegrees>
            </Position>
            <AltitudeMeters>2452</AltitudeMeters>
            <DistanceMeters>23973.135233258</DistanceMeters>
          </Trackpoint>
          <Trackpoint>
            <Time>2022-07-10T06:12:54.000Z</Time>
            <Position>
              <LatitudeDegrees>42.79013863764703273773193359375</LatitudeDegrees>
              <LongitudeDegrees>-0.1522306166589260101318359375</LongitudeDegrees>
            </Position>
            <AltitudeMeters>2452.199951171875</AltitudeMeters>
            <DistanceMeters>23974.051637704</DistanceMeters>
          </Trackpoint>
          <Trackpoint>
            <Time>2022-07-10T06:12:57.000Z</Time>
            <Position>
              <LatitudeDegrees>42.7901373803615570068359375</LatitudeDegrees>
              <LongitudeDegrees>-0.15224285423755645751953125</LongitudeDegrees>
            </Position>
            <AltitudeMeters>2452.800048828125</AltitudeMeters>
            <DistanceMeters>23975.057305921</DistanceMeters>
          </Trackpoint>
          <Trackpoint>
            <Time>2022-07-10T06:12:59.000Z</Time>
            <Position>
              <LatitudeDegrees>42.79013670980930328369140625</LatitudeDegrees>
              <LongitudeDegrees>-0.1522440277040004730224609375</LongitudeDegrees>
            </Position>
            <AltitudeMeters>2453</AltitudeMeters>
            <DistanceMeters>23975.152332635</DistanceMeters>
          </Trackpoint>
          <Trackpoint>
            <Time>2022-07-10T06:13:00.000Z</Time>
            <Position>
              <LatitudeDegrees>42.790138386189937591552734375</LatitudeDegrees>
              <LongitudeDegrees>-0.15224277041852474212646484375</LongitudeDegrees>
            </Position>
            <AltitudeMeters>2453</AltitudeMeters>
            <DistanceMeters>23975.385099597</DistanceMeters>
          </Trackpoint>
          <Trackpoint>
            <Time>2022-07-10T06:13:02.000Z</Time>
            <Position>
              <LatitudeDegrees>42.790148444473743438720703125</LatitudeDegrees>
              <LongitudeDegrees>-0.1522426865994930267333984375</LongitudeDegrees>
            </Position>
            <AltitudeMeters>2453.39990234375</AltitudeMeters>
            <DistanceMeters>23976.505448037</DistanceMeters>
          </Trackpoint>
          <Trackpoint>
            <Time>2022-07-10T06:13:03.000Z</Time>
            <Position>
              <LatitudeDegrees>42.79015389271080493927001953125</LatitudeDegrees>
              <LongitudeDegrees>-0.15223925001919269561767578125</LongitudeDegrees>
            </Position>
            <AltitudeMeters>2453.39990234375</AltitudeMeters>
            <DistanceMeters>23977.177388378</DistanceMeters>
          </Trackpoint>
          <Trackpoint>
            <Time>2022-07-10T06:13:05.000Z</Time>
            <Position>
              <LatitudeDegrees>42.79016227461397647857666015625</LatitudeDegrees>
              <LongitudeDegrees>-0.152240507304668426513671875</LongitudeDegrees>
            </Position>
            <AltitudeMeters>2453.60009765625</AltitudeMeters>
            <DistanceMeters>23978.113292975</DistanceMeters>
          </Trackpoint>
          <Trackpoint>
            <Time>2022-07-10T06:13:06.000Z</Time>
            <Position>
              <LatitudeDegrees>42.7901653759181499481201171875</LatitudeDegrees>
              <LongitudeDegrees>-0.15224419534206390380859375</LongitudeDegrees>
            </Position>
            <AltitudeMeters>2453.800048828125</AltitudeMeters>
            <DistanceMeters>23978.569025088</DistanceMeters>
          </Trackpoint>
          <Trackpoint>
            <Time>2022-07-10T06:13:08.000Z</Time>
            <Position>
              <LatitudeDegrees>42.79016965068876743316650390625</LatitudeDegrees>
              <LongitudeDegrees>-0.1522497273981571197509765625</LongitudeDegrees>
            </Position>
            <AltitudeMeters>2454.199951171875</AltitudeMeters>
            <DistanceMeters>23979.227389477</DistanceMeters>
          </Trackpoint>
          <Trackpoint>
            <Time>2022-07-10T06:13:14.000Z</Time>
            <Position>
              <LatitudeDegrees>42.79016495682299137115478515625</LatitudeDegrees>
              <LongitudeDegrees>-0.15223874710500240325927734375</LongitudeDegrees>
            </Position>
            <AltitudeMeters>2455</AltitudeMeters>
            <DistanceMeters>23980.268354978</DistanceMeters>
          </Trackpoint>
          <Trackpoint>
            <Time>2022-07-10T06:13:16.000Z</Time>
            <Position>
              <LatitudeDegrees>42.79015858657658100128173828125</LatitudeDegrees>
              <LongitudeDegrees>-0.1522396691143512725830078125</LongitudeDegrees>
            </Position>
            <AltitudeMeters>2455.199951171875</AltitudeMeters>
            <DistanceMeters>23980.985790938</DistanceMeters>
          </Trackpoint>
          <Trackpoint>
            <Time>2022-07-10T06:13:21.000Z</Time>
            <Position>
              <LatitudeDegrees>42.79014400206506252288818359375</LatitudeDegrees>
              <LongitudeDegrees>-0.1522322930395603179931640625</LongitudeDegrees>
            </Position>
            <AltitudeMeters>2456</AltitudeMeters>
            <DistanceMeters>23982.717260077</DistanceMeters>
          </Trackpoint>
          <Trackpoint>
            <Time>2022-07-10T06:13:22.000Z</Time>
            <Position>
              <LatitudeDegrees>42.79014064930379390716552734375</LatitudeDegrees>
              <LongitudeDegrees>-0.15224008820950984954833984375</LongitudeDegrees>
            </Position>
            <AltitudeMeters>2456.199951171875</AltitudeMeters>
            <DistanceMeters>23983.453333841</DistanceMeters>
          </Trackpoint>
          <Trackpoint>
            <Time>2022-07-10T06:13:28.000Z</Time>
            <Position>
              <LatitudeDegrees>42.79012790881097316741943359375</LatitudeDegrees>
              <LongitudeDegrees>-0.15228308737277984619140625</LongitudeDegrees>
            </Position>
            <AltitudeMeters>2457</AltitudeMeters>
            <DistanceMeters>23987.242505459</DistanceMeters>
          </Trackpoint>
          <Trackpoint>
            <Time>2022-07-10T06:13:30.000Z</Time>
            <Position>
              <LatitudeDegrees>42.79012941755354404449462890625</LatitudeDegrees>
              <LongitudeDegrees>-0.15230228193104267120361328125</LongitudeDegrees>
            </Position>
            <AltitudeMeters>2457.199951171875</AltitudeMeters>
            <DistanceMeters>23988.821207805</DistanceMeters>
          </Trackpoint>
          <Trackpoint>
            <Time>2022-07-10T06:13:31.000Z</Time>
            <Position>
              <LatitudeDegrees>42.7901320159435272216796875</LatitudeDegrees>
              <LongitudeDegrees>-0.15230831690132617950439453125</LongitudeDegrees>
            </Position>
            <AltitudeMeters>2457.199951171875</AltitudeMeters>
            <DistanceMeters>23989.391368091</DistanceMeters>
          </Trackpoint>
          <Trackpoint>
            <Time>2022-07-10T06:13:34.000Z</Time>
            <Position>
              <LatitudeDegrees>42.79013964347541332244873046875</LatitudeDegrees>
              <LongitudeDegrees>-0.15232072211802005767822265625</LongitudeDegrees>
            </Position>
            <AltitudeMeters>2457.60009765625</AltitudeMeters>
            <DistanceMeters>23990.714937066</DistanceMeters>
          </Trackpoint>
          <Trackpoint>
            <Time>2022-07-10T06:13:37.000Z</Time>
            <Position>
              <LatitudeDegrees>42.79014668427407741546630859375</LatitudeDegrees>
              <LongitudeDegrees>-0.15231502242386341094970703125</LongitudeDegrees>
            </Position>
            <AltitudeMeters>2458</AltitudeMeters>
            <DistanceMeters>23991.626401291</DistanceMeters>
          </Trackpoint>
          <Trackpoint>
            <Time>2022-07-10T06:13:41.000Z</Time>
            <Position>
              <LatitudeDegrees>42.79012640006840229034423828125</LatitudeDegrees>
              <LongitudeDegrees>-0.15230999328196048736572265625</LongitudeDegrees>
            </Position>
            <AltitudeMeters>2458.199951171875</AltitudeMeters>
            <DistanceMeters>23993.922825607</DistanceMeters>
          </Trackpoint>
          <Trackpoint>
            <Time>2022-07-10T06:13:42.000Z</Time>
            <Position>
              <LatitudeDegrees>42.79012287966907024383544921875</LatitudeDegrees>
              <LongitudeDegrees>-0.152310244739055633544921875</LongitudeDegrees>
            </Position>
            <AltitudeMeters>2458.39990234375</AltitudeMeters>
            <DistanceMeters>23994.302932465</DistanceMeters>
          </Trackpoint>
          <Trackpoint>
            <Time>2022-07-10T06:13:43.000Z</Time>
            <Position>
              <LatitudeDegrees>42.7901172637939453125</LatitudeDegrees>
              <LongitudeDegrees>-0.1523052155971527099609375</LongitudeDegrees>
            </Position>
            <AltitudeMeters>2458.39990234375</AltitudeMeters>
            <DistanceMeters>23995.06314618</DistanceMeters>
          </Trackpoint>
          <Trackpoint>
            <Time>2022-07-10T06:13:48.000Z</Time>
            <Position>
              <LatitudeDegrees>42.79010795988142490386962890625</LatitudeDegrees>
              <LongitudeDegrees>-0.15233136713504791259765625</LongitudeDegrees>
            </Position>
            <AltitudeMeters>2459.39990234375</AltitudeMeters>
            <DistanceMeters>23997.436912744</DistanceMeters>
          </Trackpoint>
          <Trackpoint>
            <Time>2022-07-10T06:13:49.000Z</Time>
            <Position>
              <LatitudeDegrees>42.79010645113885402679443359375</LatitudeDegrees>
              <LongitudeDegrees>-0.152336396276950836181640625</LongitudeDegrees>
            </Position>
            <AltitudeMeters>2459.60009765625</AltitudeMeters>
            <DistanceMeters>23997.882627543</DistanceMeters>
          </Trackpoint>
          <Trackpoint>
            <Time>2022-07-10T06:13:55.000Z</Time>
            <Position>
              <LatitudeDegrees>42.79009756632149219512939453125</LatitudeDegrees>
              <LongitudeDegrees>-0.15236900188028812408447265625</LongitudeDegrees>
            </Position>
            <AltitudeMeters>2460.39990234375</AltitudeMeters>
            <DistanceMeters>24000.722320883</DistanceMeters>
          </Trackpoint>
          <Trackpoint>
            <Time>2022-07-10T06:13:56.000Z</Time>
            <Position>
              <LatitudeDegrees>42.79009454883635044097900390625</LatitudeDegrees>
              <LongitudeDegrees>-0.1523684151470661163330078125</LongitudeDegrees>
            </Position>
            <AltitudeMeters>2460.39990234375</AltitudeMeters>
            <DistanceMeters>24001.064944574</DistanceMeters>
          </Trackpoint>
          <Trackpoint>
            <Time>2022-07-10T06:13:57.000Z</Time>
            <Position>
              <LatitudeDegrees>42.7900919504463672637939453125</LatitudeDegrees>
              <LongitudeDegrees>-0.1523664034903049468994140625</LongitudeDegrees>
            </Position>
            <AltitudeMeters>2460.60009765625</AltitudeMeters>
            <DistanceMeters>24001.407568265</DistanceMeters>
          </Trackpoint>
          <Trackpoint>
            <Time>2022-07-10T06:14:03.000Z</Time>
            <Position>
              <LatitudeDegrees>42.79007778503000736236572265625</LatitudeDegrees>
              <LongitudeDegrees>-0.1523613743484020233154296875</LongitudeDegrees>
            </Position>
            <AltitudeMeters>2461.60009765625</AltitudeMeters>
            <DistanceMeters>24003.039705683</DistanceMeters>
          </Trackpoint>
          <Trackpoint>
            <Time>2022-07-10T06:14:06.000Z</Time>
            <Position>
              <LatitudeDegrees>42.79006605036556720733642578125</LatitudeDegrees>
              <LongitudeDegrees>-0.15236891806125640869140625</LongitudeDegrees>
            </Position>
            <AltitudeMeters>2462.199951171875</AltitudeMeters>
            <DistanceMeters>24004.487109474</DistanceMeters>
          </Trackpoint>
          <Trackpoint>
            <Time>2022-07-10T06:14:08.000Z</Time>
            <Position>
              <LatitudeDegrees>42.7900600992143154144287109375</LatitudeDegrees>
              <LongitudeDegrees>-0.1523824967443943023681640625</LongitudeDegrees>
            </Position>
            <AltitudeMeters>2462.60009765625</AltitudeMeters>
            <DistanceMeters>24005.779612527</DistanceMeters>
          </Trackpoint>
          <Trackpoint>
            <Time>2022-07-10T06:14:11.000Z</Time>
            <Position>
              <LatitudeDegrees>42.7900542318820953369140625</LatitudeDegrees>
              <LongitudeDegrees>-0.1524016074836254119873046875</LongitudeDegrees>
            </Position>
            <AltitudeMeters>2463.199951171875</AltitudeMeters>
            <DistanceMeters>24007.47418159</DistanceMeters>
          </Trackpoint>
          <Trackpoint>
            <Time>2022-07-10T06:14:13.000Z</Time>
            <Position>
              <LatitudeDegrees>42.79005079530179500579833984375</LatitudeDegrees>
              <LongitudeDegrees>-0.15241074375808238983154296875</LongitudeDegrees>
            </Position>
            <AltitudeMeters>2463.39990234375</AltitudeMeters>
            <DistanceMeters>24008.318797502</DistanceMeters>
          </Trackpoint>
          <Trackpoint>
            <Time>2022-07-10T06:14:15.000Z</Time>
            <Position>
              <LatitudeDegrees>42.790048532187938690185546875</LatitudeDegrees>
              <LongitudeDegrees>-0.152415521442890167236328125</LongitudeDegrees>
            </Position>
            <AltitudeMeters>2463.800048828125</AltitudeMeters>
            <DistanceMeters>24008.784331427</DistanceMeters>
          </Trackpoint>
          <Trackpoint>
            <Time>2022-07-10T06:14:20.000Z</Time>
            <Position>
              <LatitudeDegrees>42.79003587551414966583251953125</LatitudeDegrees>
              <LongitudeDegrees>-0.1524472050368785858154296875</LongitudeDegrees>
            </Position>
            <AltitudeMeters>2464.60009765625</AltitudeMeters>
            <DistanceMeters>24011.731691863</DistanceMeters>
          </Trackpoint>
          <Trackpoint>
            <Time>2022-07-10T06:14:21.000Z</Time>
            <Position>
              <LatitudeDegrees>42.79003554023802280426025390625</LatitudeDegrees>
              <LongitudeDegrees>-0.15245868824422359466552734375</LongitudeDegrees>
            </Position>
            <AltitudeMeters>2464.800048828125</AltitudeMeters>
            <DistanceMeters>24012.662759711</DistanceMeters>
          </Trackpoint>
          <Trackpoint>
            <Time>2022-07-10T06:14:23.000Z</Time>
            <Position>
              <LatitudeDegrees>42.7900312654674053192138671875</LatitudeDegrees>
              <LongitudeDegrees>-0.1524715125560760498046875</LongitudeDegrees>
            </Position>
            <AltitudeMeters>2465.199951171875</AltitudeMeters>
            <DistanceMeters>24013.818809586</DistanceMeters>
          </Trackpoint>
          <Trackpoint>
            <Time>2022-07-10T06:14:25.000Z</Time>
            <Position>
              <LatitudeDegrees>42.79002405703067779541015625</LatitudeDegrees>
              <LongitudeDegrees>-0.152478553354740142822265625</LongitudeDegrees>
            </Position>
            <AltitudeMeters>2465.39990234375</AltitudeMeters>
            <DistanceMeters>24014.80635617</DistanceMeters>
          </Trackpoint>
          <Trackpoint>
            <Time>2022-07-10T06:14:28.000Z</Time>
            <Position>
              <LatitudeDegrees>42.79000972397625446319580078125</LatitudeDegrees>
              <LongitudeDegrees>-0.1524884440004825592041015625</LongitudeDegrees>
            </Position>
            <AltitudeMeters>2465.800048828125</AltitudeMeters>
            <DistanceMeters>24016.594273132</DistanceMeters>
          </Trackpoint>
          <Trackpoint>
            <Time>2022-07-10T06:14:29.000Z</Time>
            <Position>
              <LatitudeDegrees>42.790004275739192962646484375</LatitudeDegrees>
              <LongitudeDegrees>-0.15248986892402172088623046875</LongitudeDegrees>
            </Position>
            <AltitudeMeters>2466</AltitudeMeters>
            <DistanceMeters>24017.210116627</DistanceMeters>
          </Trackpoint>
          <Trackpoint>
            <Time>2022-07-10T06:14:31.000Z</Time>
            <Position>
              <LatitudeDegrees>42.78999631293118000030517578125</LatitudeDegrees>
              <LongitudeDegrees>-0.15249489806592464447021484375</LongitudeDegrees>
            </Position>
            <AltitudeMeters>2466.199951171875</AltitudeMeters>
            <DistanceMeters>24018.188476532</DistanceMeters>
          </Trackpoint>
          <Trackpoint>
            <Time>2022-07-10T06:14:34.000Z</Time>
            <Position>
              <LatitudeDegrees>42.78999061323702335357666015625</LatitudeDegrees>
              <LongitudeDegrees>-0.15250361524522304534912109375</LongitudeDegrees>
            </Position>
            <AltitudeMeters>2466.800048828125</AltitudeMeters>
            <DistanceMeters>24019.138743676</DistanceMeters>
          </Trackpoint>
          <Trackpoint>
            <Time>2022-07-10T06:14:36.000Z</Time>
            <Position>
              <LatitudeDegrees>42.7899883501231670379638671875</LatitudeDegrees>
              <LongitudeDegrees>-0.15251350589096546173095703125</LongitudeDegrees>
            </Position>
            <AltitudeMeters>2467</AltitudeMeters>
            <DistanceMeters>24019.977996893</DistanceMeters>
          </Trackpoint>
          <Trackpoint>
            <Time>2022-07-10T06:14:37.000Z</Time>
            <Position>
              <LatitudeDegrees>42.78998692519962787628173828125</LatitudeDegrees>
              <LongitudeDegrees>-0.15252104960381984710693359375</LongitudeDegrees>
            </Position>
            <AltitudeMeters>2467.199951171875</AltitudeMeters>
            <DistanceMeters>24020.622499427</DistanceMeters>
          </Trackpoint>
          <Trackpoint>
            <Time>2022-07-10T06:14:41.000Z</Time>
            <Position>
              <LatitudeDegrees>42.7899737656116485595703125</LatitudeDegrees>
              <LongitudeDegrees>-0.15254552476108074188232421875</LongitudeDegrees>
            </Position>
            <AltitudeMeters>2467.60009765625</AltitudeMeters>
            <DistanceMeters>24023.102314351</DistanceMeters>
          </Trackpoint>
          <Trackpoint>
            <Time>2022-07-10T06:14:46.000Z</Time>
            <Position>
              <LatitudeDegrees>42.7899518050253391265869140625</LatitudeDegrees>
              <LongitudeDegrees>-0.1525739394128322601318359375</LongitudeDegrees>
            </Position>
            <AltitudeMeters>2468</AltitudeMeters>
            <DistanceMeters>24026.474089291</DistanceMeters>
          </Trackpoint>
          <Trackpoint>
            <Time>2022-07-10T06:14:51.000Z</Time>
            <Position>
              <LatitudeDegrees>42.789937555789947509765625</LatitudeDegrees>
              <LongitudeDegrees>-0.1525833271443843841552734375</LongitudeDegrees>
            </Position>
            <AltitudeMeters>2469.199951171875</AltitudeMeters>
            <DistanceMeters>24028.236572282</DistanceMeters>
          </Trackpoint>
          <Trackpoint>
            <Time>2022-07-10T06:14:53.000Z</Time>
            <Position>
              <LatitudeDegrees>42.7899236418306827545166015625</LatitudeDegrees>
              <LongitudeDegrees>-0.1525759510695934295654296875</LongitudeDegrees>
            </Position>
            <AltitudeMeters>2469.60009765625</AltitudeMeters>
            <DistanceMeters>24029.898860883</DistanceMeters>
          </Trackpoint>
          <Trackpoint>
            <Time>2022-07-10T06:14:58.000Z</Time>
            <Position>
              <LatitudeDegrees>42.789902351796627044677734375</LatitudeDegrees>
              <LongitudeDegrees>-0.1525642164051532745361328125</LongitudeDegrees>
            </Position>
            <AltitudeMeters>2470.199951171875</AltitudeMeters>
            <DistanceMeters>24032.454001832</DistanceMeters>
          </Trackpoint>
          <Trackpoint>
            <Time>2022-07-10T06:15:04.000Z</Time>
            <Position>
              <LatitudeDegrees>42.789888270199298858642578125</LatitudeDegrees>
              <LongitudeDegrees>-0.15255709178745746612548828125</LongitudeDegrees>
            </Position>
            <AltitudeMeters>2470</AltitudeMeters>
            <DistanceMeters>24034.127119789</DistanceMeters>
          </Trackpoint>
          <Trackpoint>
            <Time>2022-07-10T06:15:06.000Z</Time>
            <Position>
              <LatitudeDegrees>42.78988801874220371246337890625</LatitudeDegrees>
              <LongitudeDegrees>-0.15256128273904323577880859375</LongitudeDegrees>
            </Position>
            <AltitudeMeters>2469.800048828125</AltitudeMeters>
            <DistanceMeters>24034.46974348</DistanceMeters>
          </Trackpoint>
          <Trackpoint>
            <Time>2022-07-10T06:15:07.000Z</Time>
            <Position>
              <LatitudeDegrees>42.78988785110414028167724609375</LatitudeDegrees>
              <LongitudeDegrees>-0.1525628753006458282470703125</LongitudeDegrees>
            </Position>
            <AltitudeMeters>2469.800048828125</AltitudeMeters>
            <DistanceMeters>24034.604131548</DistanceMeters>
          </Trackpoint>
          <Trackpoint>
            <Time>2022-07-10T06:15:08.000Z</Time>
            <Position>
              <LatitudeDegrees>42.78989137150347232818603515625</LatitudeDegrees>
              <LongitudeDegrees>-0.15256228856742382049560546875</LongitudeDegrees>
            </Position>
            <AltitudeMeters>2469.60009765625</AltitudeMeters>
            <DistanceMeters>24034.995936729</DistanceMeters>
          </Trackpoint>
          <Trackpoint>
            <Time>2022-07-10T06:15:09.000Z</Time>
            <Position>
              <LatitudeDegrees>42.78989321552217006683349609375</LatitudeDegrees>
              <LongitudeDegrees>-0.1525608636438846588134765625</LongitudeDegrees>
            </Position>
            <AltitudeMeters>2469.60009765625</AltitudeMeters>
            <DistanceMeters>24035.247353783</DistanceMeters>
          </Trackpoint>
          <Trackpoint>
            <Time>2022-07-10T06:15:14.000Z</Time>
            <Position>
              <LatitudeDegrees>42.78990092687308788299560546875</LatitudeDegrees>
              <LongitudeDegrees>-0.1525534875690937042236328125</LongitudeDegrees>
            </Position>
            <AltitudeMeters>2469.800048828125</AltitudeMeters>
            <DistanceMeters>24036.29695815</DistanceMeters>
          </Trackpoint>
          <Trackpoint>
            <Time>2022-07-10T06:15:19.000Z</Time>
            <Position>
              <LatitudeDegrees>42.78991450555622577667236328125</LatitudeDegrees>
              <LongitudeDegrees>-0.15254451893270015716552734375</LongitudeDegrees>
            </Position>
            <AltitudeMeters>2469.800048828125</AltitudeMeters>
            <DistanceMeters>24037.972772511</DistanceMeters>
          </Trackpoint>
          <Trackpoint>
            <Time>2022-07-10T06:15:22.000Z</Time>
            <Position>
              <LatitudeDegrees>42.78992188163101673126220703125</LatitudeDegrees>
              <LongitudeDegrees>-0.1525434292852878570556640625</LongitudeDegrees>
            </Position>
            <AltitudeMeters>2469.800048828125</AltitudeMeters>
            <DistanceMeters>24038.801196201</DistanceMeters>
          </Trackpoint>
          <Trackpoint>
            <Time>2022-07-10T06:15:24.000Z</Time>
            <Position>
              <LatitudeDegrees>42.7899440936744213104248046875</LatitudeDegrees>
              <LongitudeDegrees>-0.1525528170168399810791015625</LongitudeDegrees>
            </Position>
            <AltitudeMeters>2469.800048828125</AltitudeMeters>
            <DistanceMeters>24041.389693201</DistanceMeters>
          </Trackpoint>
          <Trackpoint>
            <Time>2022-07-10T06:15:27.000Z</Time>
            <Position>
              <LatitudeDegrees>42.7899528108537197113037109375</LatitudeDegrees>
              <LongitudeDegrees>-0.15258039347827434539794921875</LongitudeDegrees>
            </Position>
            <AltitudeMeters>2469.60009765625</AltitudeMeters>
            <DistanceMeters>24043.842045319</DistanceMeters>
          </Trackpoint>
          <Trackpoint>
            <Time>2022-07-10T06:15:31.000Z</Time>
            <Position>
              <LatitudeDegrees>42.78994300402700901031494140625</LatitudeDegrees>
              <LongitudeDegrees>-0.15261023305356502532958984375</LongitudeDegrees>
            </Position>
            <AltitudeMeters>2469.800048828125</AltitudeMeters>
            <DistanceMeters>24046.51295535</DistanceMeters>
          </Trackpoint>
          <Trackpoint>
            <Time>2022-07-10T06:15:34.000Z</Time>
            <Position>
              <LatitudeDegrees>42.78993420302867889404296875</LatitudeDegrees>
              <LongitudeDegrees>-0.15260738320648670196533203125</LongitudeDegrees>
            </Position>
            <AltitudeMeters>2470.199951171875</AltitudeMeters>
            <DistanceMeters>24047.518623566</DistanceMeters>
          </Trackpoint>
          <Trackpoint>
            <Time>2022-07-10T06:15:36.000Z</Time>
            <Position>
              <LatitudeDegrees>42.7899306826293468475341796875</LatitudeDegrees>
              <LongitudeDegrees>-0.15261274762451648712158203125</LongitudeDegrees>
            </Position>
            <AltitudeMeters>2470.39990234375</AltitudeMeters>
            <DistanceMeters>24048.104407575</DistanceMeters>
          </Trackpoint>
          <Trackpoint>
            <Time>2022-07-10T06:15:38.000Z</Time>
            <Position>
              <LatitudeDegrees>42.7899246476590633392333984375</LatitudeDegrees>
              <LongitudeDegrees>-0.15262012369930744171142578125</LongitudeDegrees>
            </Position>
            <AltitudeMeters>2470.800048828125</AltitudeMeters>
            <DistanceMeters>24049.005910143</DistanceMeters>
          </Trackpoint>
          <Trackpoint>
            <Time>2022-07-10T06:15:40.000Z</Time>
            <Position>
              <LatitudeDegrees>42.789924144744873046875</LatitudeDegrees>
              <LongitudeDegrees>-0.15262280590832233428955078125</LongitudeDegrees>
            </Position>
            <AltitudeMeters>2471</AltitudeMeters>
            <DistanceMeters>24049.238677105</DistanceMeters>
          </Trackpoint>
          <Trackpoint>
            <Time>2022-07-10T06:15:42.000Z</Time>
            <Position>
              <LatitudeDegrees>42.789925821125507354736328125</LatitudeDegrees>
              <LongitudeDegrees>-0.152628757059574127197265625</LongitudeDegrees>
            </Position>
            <AltitudeMeters>2471.39990234375</AltitudeMeters>
            <DistanceMeters>24049.759159855</DistanceMeters>
          </Trackpoint>
          <Trackpoint>
            <Time>2022-07-10T06:15:47.000Z</Time>
            <Position>
              <LatitudeDegrees>42.78990327380597591400146484375</LatitudeDegrees>
              <LongitudeDegrees>-0.15264786779880523681640625</LongitudeDegrees>
            </Position>
            <AltitudeMeters>2471.800048828125</AltitudeMeters>
            <DistanceMeters>24052.715697357</DistanceMeters>
          </Trackpoint>
          <Trackpoint>
            <Time>2022-07-10T06:15:49.000Z</Time>
            <Position>
              <LatitudeDegrees>42.78989036567509174346923828125</LatitudeDegrees>
              <LongitudeDegrees>-0.15265130437910556793212890625</LongitudeDegrees>
            </Position>
            <AltitudeMeters>2471.800048828125</AltitudeMeters>
            <DistanceMeters>24054.181698105</DistanceMeters>
          </Trackpoint>
          <Trackpoint>
            <Time>2022-07-10T06:15:50.000Z</Time>
            <Position>
              <LatitudeDegrees>42.78988449834287166595458984375</LatitudeDegrees>
              <LongitudeDegrees>-0.152652561664581298828125</LongitudeDegrees>
            </Position>
            <AltitudeMeters>2471.800048828125</AltitudeMeters>
            <DistanceMeters>24054.840062495</DistanceMeters>
          </Trackpoint>
          <Trackpoint>
            <Time>2022-07-10T06:15:53.000Z</Time>
            <Position>
              <LatitudeDegrees>42.78987410478293895721435546875</LatitudeDegrees>
              <LongitudeDegrees>-0.152656920254230499267578125</LongitudeDegrees>
            </Position>
            <AltitudeMeters>2472.39990234375</AltitudeMeters>
            <DistanceMeters>24056.049555109</DistanceMeters>
          </Trackpoint>
          <Trackpoint>
            <Time>2022-07-10T06:15:55.000Z</Time>
            <Position>
              <LatitudeDegrees>42.7898666448891162872314453125</LatitudeDegrees>
              <LongitudeDegrees>-0.15266186557710170745849609375</LongitudeDegrees>
            </Position>
            <AltitudeMeters>2472.800048828125</AltitudeMeters>
            <DistanceMeters>24056.970873287</DistanceMeters>
          </Trackpoint>
          <Trackpoint>
            <Time>2022-07-10T06:15:59.000Z</Time>
            <Position>
              <LatitudeDegrees>42.7898606099188327789306640625</LatitudeDegrees>
              <LongitudeDegrees>-0.15267276205122470855712890625</LongitudeDegrees>
            </Position>
            <AltitudeMeters>2473.60009765625</AltitudeMeters>
            <DistanceMeters>24058.087184422</DistanceMeters>
          </Trackpoint>
          <Trackpoint>
            <Time>2022-07-10T06:16:02.000Z</Time>
            <Position>
              <LatitudeDegrees>42.78985650278627872467041015625</LatitudeDegrees>
              <LongitudeDegrees>-0.1526845805346965789794921875</LongitudeDegrees>
            </Position>
            <AltitudeMeters>2474.60009765625</AltitudeMeters>
            <DistanceMeters>24059.153856645</DistanceMeters>
          </Trackpoint>
          <Trackpoint>
            <Time>2022-07-10T06:16:03.000Z</Time>
            <Position>
              <LatitudeDegrees>42.7898622862994670867919921875</LatitudeDegrees>
              <LongitudeDegrees>-0.15269480645656585693359375</LongitudeDegrees>
            </Position>
            <AltitudeMeters>2474.800048828125</AltitudeMeters>
            <DistanceMeters>24060.203461012</DistanceMeters>
          </Trackpoint>
          <Trackpoint>
            <Time>2022-07-10T06:16:06.000Z</Time>
            <Position>
              <LatitudeDegrees>42.7898673154413700103759765625</LatitudeDegrees>
              <LongitudeDegrees>-0.15273277647793292999267578125</LongitudeDegrees>
            </Position>
            <AltitudeMeters>2475.199951171875</AltitudeMeters>
            <DistanceMeters>24063.355140578</DistanceMeters>
          </Trackpoint>
          <Trackpoint>
            <Time>2022-07-10T06:16:08.000Z</Time>
            <Position>
              <LatitudeDegrees>42.789868824183940887451171875</LatitudeDegrees>
              <LongitudeDegrees>-0.15275239013135433197021484375</LongitudeDegrees>
            </Position>
            <AltitudeMeters>2475.39990234375</AltitudeMeters>
            <DistanceMeters>24064.967797397</DistanceMeters>
          </Trackpoint>
          <Trackpoint>
            <Time>2022-07-10T06:16:10.000Z</Time>
            <Position>
              <LatitudeDegrees>42.789864130318164825439453125</LatitudeDegrees>
              <LongitudeDegrees>-0.1527667231857776641845703125</LongitudeDegrees>
            </Position>
            <AltitudeMeters>2475.800048828125</AltitudeMeters>
            <DistanceMeters>24066.249777862</DistanceMeters>
          </Trackpoint>
          <Trackpoint>
            <Time>2022-07-10T06:16:12.000Z</Time>
            <Position>
              <LatitudeDegrees>42.78985910117626190185546875</LatitudeDegrees>
              <LongitudeDegrees>-0.1527821458876132965087890625</LongitudeDegrees>
            </Position>
            <AltitudeMeters>2476</AltitudeMeters>
            <DistanceMeters>24067.626845781</DistanceMeters>
          </Trackpoint>
          <Trackpoint>
            <Time>2022-07-10T06:16:13.000Z</Time>
            <Position>
              <LatitudeDegrees>42.78985834680497646331787109375</LatitudeDegrees>
              <LongitudeDegrees>-0.15279044397175312042236328125</LongitudeDegrees>
            </Position>
            <AltitudeMeters>2476</AltitudeMeters>
            <DistanceMeters>24068.30547226</DistanceMeters>
          </Trackpoint>
          <Trackpoint>
            <Time>2022-07-10T06:16:14.000Z</Time>
            <Position>
              <LatitudeDegrees>42.78985834680497646331787109375</LatitudeDegrees>
              <LongitudeDegrees>-0.1527952216565608978271484375</LongitudeDegrees>
            </Position>
            <AltitudeMeters>2476.199951171875</AltitudeMeters>
            <DistanceMeters>24068.708636465</DistanceMeters>
          </Trackpoint>
          <Trackpoint>
            <Time>2022-07-10T06:16:16.000Z</Time>
            <Position>
              <LatitudeDegrees>42.789860107004642486572265625</LatitudeDegrees>
              <LongitudeDegrees>-0.1528086327016353607177734375</LongitudeDegrees>
            </Position>
            <AltitudeMeters>2476.39990234375</AltitudeMeters>
            <DistanceMeters>24069.82089564</DistanceMeters>
          </Trackpoint>
          <Trackpoint>
            <Time>2022-07-10T06:16:17.000Z</Time>
            <Position>
              <LatitudeDegrees>42.7898596040904521942138671875</LatitudeDegrees>
              <LongitudeDegrees>-0.15281550586223602294921875</LongitudeDegrees>
            </Position>
            <AltitudeMeters>2476.39990234375</AltitudeMeters>
            <DistanceMeters>24070.37499184</DistanceMeters>
          </Trackpoint>
          <Trackpoint>
            <Time>2022-07-10T06:16:21.000Z</Time>
            <Position>
              <LatitudeDegrees>42.7898478694260120391845703125</LatitudeDegrees>
              <LongitudeDegrees>-0.1528523862361907958984375</LongitudeDegrees>
            </Position>
            <AltitudeMeters>2476.800048828125</AltitudeMeters>
            <DistanceMeters>24073.65857392</DistanceMeters>
          </Trackpoint>
          <Trackpoint>
            <Time>2022-07-10T06:16:24.000Z</Time>
            <Position>
              <LatitudeDegrees>42.78984996490180492401123046875</LatitudeDegrees>
              <LongitudeDegrees>-0.1528783701360225677490234375</LongitudeDegrees>
            </Position>
            <AltitudeMeters>2477.39990234375</AltitudeMeters>
            <DistanceMeters>24075.791918367</DistanceMeters>
          </Trackpoint>
          <Trackpoint>
            <Time>2022-07-10T06:16:29.000Z</Time>
            <Position>
              <LatitudeDegrees>42.7898572571575641632080078125</LatitudeDegrees>
              <LongitudeDegrees>-0.1529159210622310638427734375</LongitudeDegrees>
            </Position>
            <AltitudeMeters>2478</AltitudeMeters>
            <DistanceMeters>24078.963590664</DistanceMeters>
          </Trackpoint>
          <Trackpoint>
            <Time>2022-07-10T06:16:32.000Z</Time>
            <Position>
              <LatitudeDegrees>42.7898545749485492706298828125</LatitudeDegrees>
              <LongitudeDegrees>-0.15291273593902587890625</LongitudeDegrees>
            </Position>
            <AltitudeMeters>2478.199951171875</AltitudeMeters>
            <DistanceMeters>24079.366754868</DistanceMeters>
          </Trackpoint>
          <Trackpoint>
            <Time>2022-07-10T06:16:36.000Z</Time>
            <Position>
              <LatitudeDegrees>42.78984594158828258514404296875</LatitudeDegrees>
              <LongitudeDegrees>-0.15290259383618831634521484375</LongitudeDegrees>
            </Position>
            <AltitudeMeters>2479</AltitudeMeters>
            <DistanceMeters>24080.634569369</DistanceMeters>
          </Trackpoint>
          <Trackpoint>
            <Time>2022-07-10T06:16:40.000Z</Time>
            <Position>
              <LatitudeDegrees>42.78983470983803272247314453125</LatitudeDegrees>
              <LongitudeDegrees>-0.1528944633901119232177734375</LongitudeDegrees>
            </Position>
            <AltitudeMeters>2479.800048828125</AltitudeMeters>
            <DistanceMeters>24082.050435524</DistanceMeters>
          </Trackpoint>
          <Trackpoint>
            <Time>2022-07-10T06:16:41.000Z</Time>
            <Position>
              <LatitudeDegrees>42.7898280881345272064208984375</LatitudeDegrees>
              <LongitudeDegrees>-0.15289605595171451568603515625</LongitudeDegrees>
            </Position>
            <AltitudeMeters>2480.199951171875</AltitudeMeters>
            <DistanceMeters>24082.798676621</DistanceMeters>
          </Trackpoint>
          <Trackpoint>
            <Time>2022-07-10T06:16:44.000Z</Time>
            <Position>
              <LatitudeDegrees>42.78980973176658153533935546875</LatitudeDegrees>
              <LongitudeDegrees>-0.15289328992366790771484375</LongitudeDegrees>
            </Position>
            <AltitudeMeters>2481.199951171875</AltitudeMeters>
            <DistanceMeters>24084.852221288</DistanceMeters>
          </Trackpoint>
          <Trackpoint>
            <Time>2022-07-10T06:16:45.000Z</Time>
            <Position>
              <LatitudeDegrees>42.789801768958568572998046875</LatitudeDegrees>
              <LongitudeDegrees>-0.1528964750468730926513671875</LongitudeDegrees>
            </Position>
            <AltitudeMeters>2481.39990234375</AltitudeMeters>
            <DistanceMeters>24085.773539467</DistanceMeters>
          </Trackpoint>
          <Trackpoint>
            <Time>2022-07-10T06:16:47.000Z</Time>
            <Position>
              <LatitudeDegrees>42.7897871844470500946044921875</LatitudeDegrees>
              <LongitudeDegrees>-0.15291416086256504058837890625</LongitudeDegrees>
            </Position>
            <AltitudeMeters>2482.199951171875</AltitudeMeters>
            <DistanceMeters>24087.944645154</DistanceMeters>
          </Trackpoint>
          <Trackpoint>
            <Time>2022-07-10T06:16:48.000Z</Time>
            <Position>
              <LatitudeDegrees>42.78978265821933746337890625</LatitudeDegrees>
              <LongitudeDegrees>-0.15292237512767314910888671875</LongitudeDegrees>
            </Position>
            <AltitudeMeters>2482.60009765625</AltitudeMeters>
            <DistanceMeters>24088.783898371</DistanceMeters>
          </Trackpoint>
          <Trackpoint>
            <Time>2022-07-10T06:16:53.000Z</Time>
            <Position>
              <LatitudeDegrees>42.789782322943210601806640625</LatitudeDegrees>
              <LongitudeDegrees>-0.152962692081928253173828125</LongitudeDegrees>
            </Position>
            <AltitudeMeters>2483.199951171875</AltitudeMeters>
            <DistanceMeters>24092.077091625</DistanceMeters>
          </Trackpoint>
          <Trackpoint>
            <Time>2022-07-10T06:16:55.000Z</Time>
            <Position>
              <LatitudeDegrees>42.78978643007576465606689453125</LatitudeDegrees>
              <LongitudeDegrees>-0.15298406593501567840576171875</LongitudeDegrees>
            </Position>
            <AltitudeMeters>2483.199951171875</AltitudeMeters>
            <DistanceMeters>24093.882599198</DistanceMeters>
          </Trackpoint>
          <Trackpoint>
            <Time>2022-07-10T06:17:01.000Z</Time>
            <Position>
              <LatitudeDegrees>42.7897902019321918487548828125</LatitudeDegrees>
              <LongitudeDegrees>-0.152991525828838348388671875</LongitudeDegrees>
            </Position>
            <AltitudeMeters>2483.39990234375</AltitudeMeters>
            <DistanceMeters>24094.624781563</DistanceMeters>
          </Trackpoint>
          <Trackpoint>
            <Time>2022-07-10T06:17:02.000Z</Time>
            <Position>
              <LatitudeDegrees>42.78979003429412841796875</LatitudeDegrees>
              <LongitudeDegrees>-0.152988843619823455810546875</LongitudeDegrees>
            </Position>
            <AltitudeMeters>2483.39990234375</AltitudeMeters>
            <DistanceMeters>24094.837267756</DistanceMeters>
          </Trackpoint>
          <Trackpoint>
            <Time>2022-07-10T06:17:03.000Z</Time>
            <Position>
              <LatitudeDegrees>42.7897875197231769561767578125</LatitudeDegrees>
              <LongitudeDegrees>-0.15298624522984027862548828125</LongitudeDegrees>
            </Position>
            <AltitudeMeters>2483.60009765625</AltitudeMeters>
            <DistanceMeters>24095.166449951</DistanceMeters>
          </Trackpoint>
          <Trackpoint>
            <Time>2022-07-10T06:17:09.000Z</Time>
            <Position>
              <LatitudeDegrees>42.7897764556109905242919921875</LatitudeDegrees>
              <LongitudeDegrees>-0.15297300182282924652099609375</LongitudeDegrees>
            </Position>
            <AltitudeMeters>2484.800048828125</AltitudeMeters>
            <DistanceMeters>24096.80686538</DistanceMeters>
          </Trackpoint>
          <Trackpoint>
            <Time>2022-07-10T06:17:10.000Z</Time>
            <Position>
              <LatitudeDegrees>42.789770923554897308349609375</LatitudeDegrees>
              <LongitudeDegrees>-0.152970738708972930908203125</LongitudeDegrees>
            </Position>
            <AltitudeMeters>2485</AltitudeMeters>
            <DistanceMeters>24097.451367914</DistanceMeters>
          </Trackpoint>
          <Trackpoint>
            <Time>2022-07-10T06:17:13.000Z</Time>
            <Position>
              <LatitudeDegrees>42.78975927270948886871337890625</LatitudeDegrees>
              <LongitudeDegrees>-0.15297752805054187774658203125</LongitudeDegrees>
            </Position>
            <AltitudeMeters>2485.800048828125</AltitudeMeters>
            <DistanceMeters>24098.860841865</DistanceMeters>
          </Trackpoint>
          <Trackpoint>
            <Time>2022-07-10T06:17:15.000Z</Time>
            <Position>
              <LatitudeDegrees>42.78975960798561573028564453125</LatitudeDegrees>
              <LongitudeDegrees>-0.15299613587558269500732421875</LongitudeDegrees>
            </Position>
            <AltitudeMeters>2486</AltitudeMeters>
            <DistanceMeters>24100.381269295</DistanceMeters>
          </Trackpoint>
          <Trackpoint>
            <Time>2022-07-10T06:17:16.000Z</Time>
            <Position>
              <LatitudeDegrees>42.78976379893720149993896484375</LatitudeDegrees>
              <LongitudeDegrees>-0.1530067808926105499267578125</LongitudeDegrees>
            </Position>
            <AltitudeMeters>2486</AltitudeMeters>
            <DistanceMeters>24101.364233271</DistanceMeters>
          </Trackpoint>
          <Trackpoint>
            <Time>2022-07-10T06:17:17.000Z</Time>
            <Position>
              <LatitudeDegrees>42.78976631350815296173095703125</LatitudeDegrees>
              <LongitudeDegrees>-0.15301742590963840484619140625</LongitudeDegrees>
            </Position>
            <AltitudeMeters>2486.199951171875</AltitudeMeters>
            <DistanceMeters>24102.275697496</DistanceMeters>
          </Trackpoint>
          <Trackpoint>
            <Time>2022-07-10T06:17:18.000Z</Time>
            <Position>
              <LatitudeDegrees>42.789768241345882415771484375</LatitudeDegrees>
              <LongitudeDegrees>-0.15302731655538082122802734375</LongitudeDegrees>
            </Position>
            <AltitudeMeters>2486.199951171875</AltitudeMeters>
            <DistanceMeters>24103.114950713</DistanceMeters>
          </Trackpoint>
          <Trackpoint>
            <Time>2022-07-10T06:17:19.000Z</Time>
            <Position>
              <LatitudeDegrees>42.78976765461266040802001953125</LatitudeDegrees>
              <LongitudeDegrees>-0.153038799762725830078125</LongitudeDegrees>
            </Position>
            <AltitudeMeters>2486.39990234375</AltitudeMeters>
            <DistanceMeters>24104.050855311</DistanceMeters>
          </Trackpoint>
          <Trackpoint>
            <Time>2022-07-10T06:17:23.000Z</Time>
            <Position>
              <LatitudeDegrees>42.78976120054721832275390625</LatitudeDegrees>
              <LongitudeDegrees>-0.153074674308300018310546875</LongitudeDegrees>
            </Position>
            <AltitudeMeters>2486.60009765625</AltitudeMeters>
            <DistanceMeters>24107.06785996</DistanceMeters>
          </Trackpoint>
          <Trackpoint>
            <Time>2022-07-10T06:17:26.000Z</Time>
            <Position>
              <LatitudeDegrees>42.7897586859762668609619140625</LatitudeDegrees>
              <LongitudeDegrees>-0.15309713780879974365234375</LongitudeDegrees>
            </Position>
            <AltitudeMeters>2487</AltitudeMeters>
            <DistanceMeters>24108.925140015</DistanceMeters>
          </Trackpoint>
          <Trackpoint>
            <Time>2022-07-10T06:17:31.000Z</Time>
            <Position>
              <LatitudeDegrees>42.78977301903069019317626953125</LatitudeDegrees>
              <LongitudeDegrees>-0.15312387607991695404052734375</LongitudeDegrees>
            </Position>
            <AltitudeMeters>2487.39990234375</AltitudeMeters>
            <DistanceMeters>24111.629647719</DistanceMeters>
          </Trackpoint>
          <Trackpoint>
            <Time>2022-07-10T06:17:34.000Z</Time>
            <Position>
              <LatitudeDegrees>42.78976882807910442352294921875</LatitudeDegrees>
              <LongitudeDegrees>-0.15313460491597652435302734375</LongitudeDegrees>
            </Position>
            <AltitudeMeters>2487.800048828125</AltitudeMeters>
            <DistanceMeters>24112.626296307</DistanceMeters>
          </Trackpoint>
          <Trackpoint>
            <Time>2022-07-10T06:17:35.000Z</Time>
            <Position>
              <LatitudeDegrees>42.7897670678794384002685546875</LatitudeDegrees>
              <LongitudeDegrees>-0.15313602983951568603515625</LongitudeDegrees>
            </Position>
            <AltitudeMeters>2488.199951171875</AltitudeMeters>
            <DistanceMeters>24112.877713361</DistanceMeters>
          </Trackpoint>
          <Trackpoint>
            <Time>2022-07-10T06:17:36.000Z</Time>
            <Position>
              <LatitudeDegrees>42.7897632122039794921875</LatitudeDegrees>
              <LongitudeDegrees>-0.15313644893467426300048828125</LongitudeDegrees>
            </Position>
            <AltitudeMeters>2488.39990234375</AltitudeMeters>
            <DistanceMeters>24113.32342816</DistanceMeters>
          </Trackpoint>
          <Trackpoint>
            <Time>2022-07-10T06:17:38.000Z</Time>
            <Position>
              <LatitudeDegrees>42.78975692577660083770751953125</LatitudeDegrees>
              <LongitudeDegrees>-0.1531439088284969329833984375</LongitudeDegrees>
            </Position>
            <AltitudeMeters>2488.60009765625</AltitudeMeters>
            <DistanceMeters>24114.254496008</DistanceMeters>
          </Trackpoint>
          <Trackpoint>
            <Time>2022-07-10T06:17:41.000Z</Time>
            <Position>
              <LatitudeDegrees>42.7897503040730953216552734375</LatitudeDegrees>
              <LongitudeDegrees>-0.1531581580638885498046875</LongitudeDegrees>
            </Position>
            <AltitudeMeters>2488.800048828125</AltitudeMeters>
            <DistanceMeters>24115.631563927</DistanceMeters>
          </Trackpoint>
          <Trackpoint>
            <Time>2022-07-10T06:17:43.000Z</Time>
            <Position>
              <LatitudeDegrees>42.7897392399609088897705078125</LatitudeDegrees>
              <LongitudeDegrees>-0.1531603373587131500244140625</LongitudeDegrees>
            </Position>
            <AltitudeMeters>2489.199951171875</AltitudeMeters>
            <DistanceMeters>24116.877827603</DistanceMeters>
          </Trackpoint>
          <Trackpoint>
            <Time>2022-07-10T06:17:44.000Z</Time>
            <Position>
              <LatitudeDegrees>42.78973328880965709686279296875</LatitudeDegrees>
              <LongitudeDegrees>-0.15316276811063289642333984375</LongitudeDegrees>
            </Position>
            <AltitudeMeters>2489.39990234375</AltitudeMeters>
            <DistanceMeters>24117.569632526</DistanceMeters>
          </Trackpoint>
          <Trackpoint>
            <Time>2022-07-10T06:17:50.000Z</Time>
            <Position>
              <LatitudeDegrees>42.78970311395823955535888671875</LatitudeDegrees>
              <LongitudeDegrees>-0.15318959020078182220458984375</LongitudeDegrees>
            </Position>
            <AltitudeMeters>2490</AltitudeMeters>
            <DistanceMeters>24121.581065714</DistanceMeters>
          </Trackpoint>
          <Trackpoint>
            <Time>2022-07-10T06:17:52.000Z</Time>
            <Position>
              <LatitudeDegrees>42.78969657607376575469970703125</LatitudeDegrees>
              <LongitudeDegrees>-0.15319059602916240692138671875</LongitudeDegrees>
            </Position>
            <AltitudeMeters>2490.60009765625</AltitudeMeters>
            <DistanceMeters>24122.317139478</DistanceMeters>
          </Trackpoint>
          <Trackpoint>
            <Time>2022-07-10T06:17:53.000Z</Time>
            <Position>
              <LatitudeDegrees>42.78969238512217998504638671875</LatitudeDegrees>
              <LongitudeDegrees>-0.1531931944191455841064453125</LongitudeDegrees>
            </Position>
            <AltitudeMeters>2490.800048828125</AltitudeMeters>
            <DistanceMeters>24122.819973586</DistanceMeters>
          </Trackpoint>
          <Trackpoint>
            <Time>2022-07-10T06:17:58.000Z</Time>
            <Position>
              <LatitudeDegrees>42.78968207538127899169921875</LatitudeDegrees>
              <LongitudeDegrees>-0.1532146520912647247314453125</LongitudeDegrees>
            </Position>
            <AltitudeMeters>2491.800048828125</AltitudeMeters>
            <DistanceMeters>24124.914876246</DistanceMeters>
          </Trackpoint>
          <Trackpoint>
            <Time>2022-07-10T06:18:01.000Z</Time>
            <Position>
              <LatitudeDegrees>42.78969146311283111572265625</LatitudeDegrees>
              <LongitudeDegrees>-0.153232924640178680419921875</LongitudeDegrees>
            </Position>
            <AltitudeMeters>2492</AltitudeMeters>
            <DistanceMeters>24126.737804695</DistanceMeters>
          </Trackpoint>
          <Trackpoint>
            <Time>2022-07-10T06:18:07.000Z</Time>
            <Position>
              <LatitudeDegrees>42.7897110767662525177001953125</LatitudeDegrees>
              <LongitudeDegrees>-0.15326988883316516876220703125</LongitudeDegrees>
            </Position>
            <AltitudeMeters>2492.800048828125</AltitudeMeters>
            <DistanceMeters>24130.462076089</DistanceMeters>
          </Trackpoint>
          <Trackpoint>
            <Time>2022-07-10T06:18:10.000Z</Time>
            <Position>
              <LatitudeDegrees>42.78971652500331401824951171875</LatitudeDegrees>
              <LongitudeDegrees>-0.15326284803450107574462890625</LongitudeDegrees>
            </Position>
            <AltitudeMeters>2493.199951171875</AltitudeMeters>
            <DistanceMeters>24131.290499779</DistanceMeters>
          </Trackpoint>
          <Trackpoint>
            <Time>2022-07-10T06:18:16.000Z</Time>
            <Position>
              <LatitudeDegrees>42.7896943129599094390869140625</LatitudeDegrees>
              <LongitudeDegrees>-0.15326284803450107574462890625</LongitudeDegrees>
            </Position>
            <AltitudeMeters>2493.60009765625</AltitudeMeters>
            <DistanceMeters>24133.761194353</DistanceMeters>
          </Trackpoint>
          <Trackpoint>
            <Time>2022-07-10T06:18:17.000Z</Time>
            <Position>
              <LatitudeDegrees>42.78968819417059421539306640625</LatitudeDegrees>
              <LongitudeDegrees>-0.15326536260545253753662109375</LongitudeDegrees>
            </Position>
            <AltitudeMeters>2493.800048828125</AltitudeMeters>
            <DistanceMeters>24134.472309168</DistanceMeters>
          </Trackpoint>
          <Trackpoint>
            <Time>2022-07-10T06:18:18.000Z</Time>
            <Position>
              <LatitudeDegrees>42.7896798960864543914794921875</LatitudeDegrees>
              <LongitudeDegrees>-0.1532713137567043304443359375</LongitudeDegrees>
            </Position>
            <AltitudeMeters>2494</AltitudeMeters>
            <DistanceMeters>24135.517603026</DistanceMeters>
          </Trackpoint>
          <Trackpoint>
            <Time>2022-07-10T06:18:22.000Z</Time>
            <Position>
              <LatitudeDegrees>42.78964318335056304931640625</LatitudeDegrees>
              <LongitudeDegrees>-0.15330878086388111114501953125</LongitudeDegrees>
            </Position>
            <AltitudeMeters>2495</AltitudeMeters>
            <DistanceMeters>24140.622581049</DistanceMeters>
          </Trackpoint>
          <Trackpoint>
            <Time>2022-07-10T06:18:23.000Z</Time>
            <Position>
              <LatitudeDegrees>42.7896420098841190338134765625</LatitudeDegrees>
              <LongitudeDegrees>-0.153317749500274658203125</LongitudeDegrees>
            </Position>
            <AltitudeMeters>2495.199951171875</AltitudeMeters>
            <DistanceMeters>24141.358654814</DistanceMeters>
          </Trackpoint>
          <Trackpoint>
            <Time>2022-07-10T06:18:27.000Z</Time>
            <Position>
              <LatitudeDegrees>42.78963237069547176361083984375</LatitudeDegrees>
              <LongitudeDegrees>-0.15336661599576473236083984375</LongitudeDegrees>
            </Position>
            <AltitudeMeters>2495.39990234375</AltitudeMeters>
            <DistanceMeters>24145.492043815</DistanceMeters>
          </Trackpoint>
          <Trackpoint>
            <Time>2022-07-10T06:18:33.000Z</Time>
            <Position>
              <LatitudeDegrees>42.7896537445485591888427734375</LatitudeDegrees>
              <LongitudeDegrees>-0.15332269482314586639404296875</LongitudeDegrees>
            </Position>
            <AltitudeMeters>2494.800048828125</AltitudeMeters>
            <DistanceMeters>24149.796659577</DistanceMeters>
          </Trackpoint>
          <Trackpoint>
            <Time>2022-07-10T06:18:36.000Z</Time>
            <Position>
              <LatitudeDegrees>42.78965449891984462738037109375</LatitudeDegrees>
              <LongitudeDegrees>-0.15331749804317951202392578125</LongitudeDegrees>
            </Position>
            <AltitudeMeters>2495.199951171875</AltitudeMeters>
            <DistanceMeters>24150.232126689</DistanceMeters>
          </Trackpoint>
          <Trackpoint>
            <Time>2022-07-10T06:18:40.000Z</Time>
            <Position>
              <LatitudeDegrees>42.78965097852051258087158203125</LatitudeDegrees>
              <LongitudeDegrees>-0.15333895571529865264892578125</LongitudeDegrees>
            </Position>
            <AltitudeMeters>2496.199951171875</AltitudeMeters>
            <DistanceMeters>24152.027603587</DistanceMeters>
          </Trackpoint>
          <Trackpoint>
            <Time>2022-07-10T06:18:41.000Z</Time>
            <Position>
              <LatitudeDegrees>42.7896547503769397735595703125</LatitudeDegrees>
              <LongitudeDegrees>-0.15334666706621646881103515625</LongitudeDegrees>
            </Position>
            <AltitudeMeters>2496.39990234375</AltitudeMeters>
            <DistanceMeters>24152.787817301</DistanceMeters>
          </Trackpoint>
          <Trackpoint>
            <Time>2022-07-10T06:18:45.000Z</Time>
            <Position>
              <LatitudeDegrees>42.78966472484171390533447265625</LatitudeDegrees>
              <LongitudeDegrees>-0.1533490978181362152099609375</LongitudeDegrees>
            </Position>
            <AltitudeMeters>2497</AltitudeMeters>
            <DistanceMeters>24153.916197015</DistanceMeters>
          </Trackpoint>
          <Trackpoint>
            <Time>2022-07-10T06:18:48.000Z</Time>
            <Position>
              <LatitudeDegrees>42.78965248726308345794677734375</LatitudeDegrees>
              <LongitudeDegrees>-0.153344906866550445556640625</LongitudeDegrees>
            </Position>
            <AltitudeMeters>2497.39990234375</AltitudeMeters>
            <DistanceMeters>24155.325670966</DistanceMeters>
          </Trackpoint>
          <Trackpoint>
            <Time>2022-07-10T06:18:51.000Z</Time>
            <Position>
              <LatitudeDegrees>42.78963840566575527191162109375</LatitudeDegrees>
              <LongitudeDegrees>-0.15334532596170902252197265625</LongitudeDegrees>
            </Position>
            <AltitudeMeters>2497.60009765625</AltitudeMeters>
            <DistanceMeters>24156.892891688</DistanceMeters>
          </Trackpoint>
          <Trackpoint>
            <Time>2022-07-10T06:18:52.000Z</Time>
            <Position>
              <LatitudeDegrees>42.78963237069547176361083984375</LatitudeDegrees>
              <LongitudeDegrees>-0.15334817580878734588623046875</LongitudeDegrees>
            </Position>
            <AltitudeMeters>2497.800048828125</AltitudeMeters>
            <DistanceMeters>24157.597628664</DistanceMeters>
          </Trackpoint>
          <Trackpoint>
            <Time>2022-07-10T06:18:58.000Z</Time>
            <Position>
              <LatitudeDegrees>42.7896101586520671844482421875</LatitudeDegrees>
              <LongitudeDegrees>-0.15340156853199005126953125</LongitudeDegrees>
            </Position>
            <AltitudeMeters>2498</AltitudeMeters>
            <DistanceMeters>24162.611582475</DistanceMeters>
          </Trackpoint>
          <Trackpoint>
            <Time>2022-07-10T06:18:59.000Z</Time>
            <Position>
              <LatitudeDegrees>42.78960504569113254547119140625</LatitudeDegrees>
              <LongitudeDegrees>-0.15341606922447681427001953125</LongitudeDegrees>
            </Position>
            <AltitudeMeters>2498.199951171875</AltitudeMeters>
            <DistanceMeters>24163.924877796</DistanceMeters>
          </Trackpoint>
          <Trackpoint>
            <Time>2022-07-10T06:19:00.000Z</Time>
            <Position>
              <LatitudeDegrees>42.7896007709205150604248046875</LatitudeDegrees>
              <LongitudeDegrees>-0.15342436730861663818359375</LongitudeDegrees>
            </Position>
            <AltitudeMeters>2498.39990234375</AltitudeMeters>
            <DistanceMeters>24164.753301486</DistanceMeters>
          </Trackpoint>
          <Trackpoint>
            <Time>2022-07-10T06:19:06.000Z</Time>
            <Position>
              <LatitudeDegrees>42.78960554860532283782958984375</LatitudeDegrees>
              <LongitudeDegrees>-0.15344540588557720184326171875</LongitudeDegrees>
            </Position>
            <AltitudeMeters>2498.800048828125</AltitudeMeters>
            <DistanceMeters>24166.551291299</DistanceMeters>
          </Trackpoint>
          <Trackpoint>
            <Time>2022-07-10T06:19:08.000Z</Time>
            <Position>
              <LatitudeDegrees>42.78960286639630794525146484375</LatitudeDegrees>
              <LongitudeDegrees>-0.15345546416938304901123046875</LongitudeDegrees>
            </Position>
            <AltitudeMeters>2499</AltitudeMeters>
            <DistanceMeters>24167.432532795</DistanceMeters>
          </Trackpoint>
          <Trackpoint>
            <Time>2022-07-10T06:19:09.000Z</Time>
            <Position>
              <LatitudeDegrees>42.7896011061966419219970703125</LatitudeDegrees>
              <LongitudeDegrees>-0.153460912406444549560546875</LongitudeDegrees>
            </Position>
            <AltitudeMeters>2499</AltitudeMeters>
            <DistanceMeters>24167.917075865</DistanceMeters>
          </Trackpoint>
          <Trackpoint>
            <Time>2022-07-10T06:19:11.000Z</Time>
            <Position>
              <LatitudeDegrees>42.78959683142602443695068359375</LatitudeDegrees>
              <LongitudeDegrees>-0.1534657739102840423583984375</LongitudeDegrees>
            </Position>
            <AltitudeMeters>2499</AltitudeMeters>
            <DistanceMeters>24168.532919361</DistanceMeters>
          </Trackpoint>
          <Trackpoint>
            <Time>2022-07-10T06:19:12.000Z</Time>
            <Position>
              <LatitudeDegrees>42.78959498740732669830322265625</LatitudeDegrees>
              <LongitudeDegrees>-0.15346753410995006561279296875</LongitudeDegrees>
            </Position>
            <AltitudeMeters>2499</AltitudeMeters>
            <DistanceMeters>24168.765686323</DistanceMeters>
          </Trackpoint>
          <Trackpoint>
            <Time>2022-07-10T06:19:13.000Z</Time>
            <Position>
              <LatitudeDegrees>42.78959632851183414459228515625</LatitudeDegrees>
              <LongitudeDegrees>-0.15347239561378955841064453125</LongitudeDegrees>
            </Position>
            <AltitudeMeters>2499</AltitudeMeters>
            <DistanceMeters>24169.190658709</DistanceMeters>
          </Trackpoint>
          <Trackpoint>
            <Time>2022-07-10T06:19:14.000Z</Time>
            <Position>
              <LatitudeDegrees>42.7895984239876270294189453125</LatitudeDegrees>
              <LongitudeDegrees>-0.1534778438508510589599609375</LongitudeDegrees>
            </Position>
            <AltitudeMeters>2499</AltitudeMeters>
            <DistanceMeters>24169.693492817</DistanceMeters>
          </Trackpoint>
          <Trackpoint>
            <Time>2022-07-10T06:19:15.000Z</Time>
            <Position>
              <LatitudeDegrees>42.78959716670215129852294921875</LatitudeDegrees>
              <LongitudeDegrees>-0.15348312444984912872314453125</LongitudeDegrees>
            </Position>
            <AltitudeMeters>2499</AltitudeMeters>
            <DistanceMeters>24170.139207616</DistanceMeters>
          </Trackpoint>
          <Trackpoint>
            <Time>2022-07-10T06:19:20.000Z</Time>
            <Position>
              <LatitudeDegrees>42.78959448449313640594482421875</LatitudeDegrees>
              <LongitudeDegrees>-0.1534942723810672760009765625</LongitudeDegrees>
            </Position>
            <AltitudeMeters>2499.39990234375</AltitudeMeters>
            <DistanceMeters>24171.098930387</DistanceMeters>
          </Trackpoint>
          <Trackpoint>
            <Time>2022-07-10T06:19:21.000Z</Time>
            <Position>
              <LatitudeDegrees>42.78959280811250209808349609375</LatitudeDegrees>
              <LongitudeDegrees>-0.1534972898662090301513671875</LongitudeDegrees>
            </Position>
            <AltitudeMeters>2499.39990234375</AltitudeMeters>
            <DistanceMeters>24171.399431243</DistanceMeters>
          </Trackpoint>
          <Trackpoint>
            <Time>2022-07-10T06:19:26.000Z</Time>
            <Position>
              <LatitudeDegrees>42.78958157636225223541259765625</LatitudeDegrees>
              <LongitudeDegrees>-0.153517909348011016845703125</LongitudeDegrees>
            </Position>
            <AltitudeMeters>2500.39990234375</AltitudeMeters>
            <DistanceMeters>24173.496488044</DistanceMeters>
          </Trackpoint>
          <Trackpoint>
            <Time>2022-07-10T06:19:30.000Z</Time>
            <Position>
              <LatitudeDegrees>42.78957705013453960418701171875</LatitudeDegrees>
              <LongitudeDegrees>-0.153534673154354095458984375</LongitudeDegrees>
            </Position>
            <AltitudeMeters>2500.60009765625</AltitudeMeters>
            <DistanceMeters>24174.95631613</DistanceMeters>
          </Trackpoint>
          <Trackpoint>
            <Time>2022-07-10T06:19:36.000Z</Time>
            <Position>
              <LatitudeDegrees>42.78957252390682697296142578125</LatitudeDegrees>
              <LongitudeDegrees>-0.15355537645518779754638671875</LongitudeDegrees>
            </Position>
            <AltitudeMeters>2501.199951171875</AltitudeMeters>
            <DistanceMeters>24176.723915194</DistanceMeters>
          </Trackpoint>
          <Trackpoint>
            <Time>2022-07-10T06:19:38.000Z</Time>
            <Position>
              <LatitudeDegrees>42.7895714342594146728515625</LatitudeDegrees>
              <LongitudeDegrees>-0.15355889685451984405517578125</LongitudeDegrees>
            </Position>
            <AltitudeMeters>2501.60009765625</AltitudeMeters>
            <DistanceMeters>24177.02441605</DistanceMeters>
          </Trackpoint>
          <Trackpoint>
            <Time>2022-07-10T06:19:39.000Z</Time>
            <Position>
              <LatitudeDegrees>42.78956883586943149566650390625</LatitudeDegrees>
              <LongitudeDegrees>-0.153565518558025360107421875</LongitudeDegrees>
            </Position>
            <AltitudeMeters>2501.800048828125</AltitudeMeters>
            <DistanceMeters>24177.632883908</DistanceMeters>
          </Trackpoint>
          <Trackpoint>
            <Time>2022-07-10T06:19:42.000Z</Time>
            <Position>
              <LatitudeDegrees>42.7895602025091648101806640625</LatitudeDegrees>
              <LongitudeDegrees>-0.15358789823949337005615234375</LongitudeDegrees>
            </Position>
            <AltitudeMeters>2502</AltitudeMeters>
            <DistanceMeters>24179.697392586</DistanceMeters>
          </Trackpoint>
          <Trackpoint>
            <Time>2022-07-10T06:19:46.000Z</Time>
            <Position>
              <LatitudeDegrees>42.7895521558821201324462890625</LatitudeDegrees>
              <LongitudeDegrees>-0.15360767953097820281982421875</LongitudeDegrees>
            </Position>
            <AltitudeMeters>2502.60009765625</AltitudeMeters>
            <DistanceMeters>24181.54247763</DistanceMeters>
          </Trackpoint>
          <Trackpoint>
            <Time>2022-07-10T06:19:48.000Z</Time>
            <Position>
              <LatitudeDegrees>42.78954352252185344696044921875</LatitudeDegrees>
              <LongitudeDegrees>-0.15362025238573551177978515625</LongitudeDegrees>
            </Position>
            <AltitudeMeters>2502.60009765625</AltitudeMeters>
            <DistanceMeters>24182.95195158</DistanceMeters>
          </Trackpoint>
          <Trackpoint>
            <Time>2022-07-10T06:19:54.000Z</Time>
            <Position>
              <LatitudeDegrees>42.78953455388545989990234375</LatitudeDegrees>
              <LongitudeDegrees>-0.1536463201045989990234375</LongitudeDegrees>
            </Position>
            <AltitudeMeters>2503</AltitudeMeters>
            <DistanceMeters>24185.302782664</DistanceMeters>
          </Trackpoint>
          <Trackpoint>
            <Time>2022-07-10T06:20:00.000Z</Time>
            <Position>
              <LatitudeDegrees>42.78953044675290584564208984375</LatitudeDegrees>
              <LongitudeDegrees>-0.1536810211837291717529296875</LongitudeDegrees>
            </Position>
            <AltitudeMeters>2503.39990234375</AltitudeMeters>
            <DistanceMeters>24188.172526506</DistanceMeters>
          </Trackpoint>
          <Trackpoint>
            <Time>2022-07-10T06:20:04.000Z</Time>
            <Position>
              <LatitudeDegrees>42.7895296923816204071044921875</LatitudeDegrees>
              <LongitudeDegrees>-0.153713710606098175048828125</LongitudeDegrees>
            </Position>
            <AltitudeMeters>2503.800048828125</AltitudeMeters>
            <DistanceMeters>24190.846815298</DistanceMeters>
          </Trackpoint>
          <Trackpoint>
            <Time>2022-07-10T06:20:06.000Z</Time>
            <Position>
              <LatitudeDegrees>42.7895285189151763916015625</LatitudeDegrees>
              <LongitudeDegrees>-0.1537266187369823455810546875</LongitudeDegrees>
            </Position>
            <AltitudeMeters>2504</AltitudeMeters>
            <DistanceMeters>24191.913487521</DistanceMeters>
          </Trackpoint>
          <Trackpoint>
            <Time>2022-07-10T06:20:12.000Z</Time>
            <Position>
              <LatitudeDegrees>42.78951100073754787445068359375</LatitudeDegrees>
              <LongitudeDegrees>-0.15377196483314037322998046875</LongitudeDegrees>
            </Position>
            <AltitudeMeters>2504.800048828125</AltitudeMeters>
            <DistanceMeters>24196.098980121</DistanceMeters>
          </Trackpoint>
          <Trackpoint>
            <Time>2022-07-10T06:20:15.000Z</Time>
            <Position>
              <LatitudeDegrees>42.78950915671885013580322265625</LatitudeDegrees>
              <LongitudeDegrees>-0.1537852920591831207275390625</LongitudeDegrees>
            </Position>
            <AltitudeMeters>2505</AltitudeMeters>
            <DistanceMeters>24197.207172521</DistanceMeters>
          </Trackpoint>
          <Trackpoint>
            <Time>2022-07-10T06:20:19.000Z</Time>
            <Position>
              <LatitudeDegrees>42.78950932435691356658935546875</LatitudeDegrees>
              <LongitudeDegrees>-0.1537906564772129058837890625</LongitudeDegrees>
            </Position>
            <AltitudeMeters>2505.800048828125</AltitudeMeters>
            <DistanceMeters>24197.642639633</DistanceMeters>
          </Trackpoint>
          <Trackpoint>
            <Time>2022-07-10T06:20:22.000Z</Time>
            <Position>
              <LatitudeDegrees>42.7895078994333744049072265625</LatitudeDegrees>
              <LongitudeDegrees>-0.15380255877971649169921875</LongitudeDegrees>
            </Position>
            <AltitudeMeters>2506</AltitudeMeters>
            <DistanceMeters>24198.620999538</DistanceMeters>
          </Trackpoint>
          <Trackpoint>
            <Time>2022-07-10T06:20:27.000Z</Time>
            <Position>
              <LatitudeDegrees>42.78950580395758152008056640625</LatitudeDegrees>
              <LongitudeDegrees>-0.15383918769657611846923828125</LongitudeDegrees>
            </Position>
            <AltitudeMeters>2507.199951171875</AltitudeMeters>
            <DistanceMeters>24201.623001585</DistanceMeters>
          </Trackpoint>
          <Trackpoint>
            <Time>2022-07-10T06:20:30.000Z</Time>
            <Position>
              <LatitudeDegrees>42.78950504958629608154296875</LatitudeDegrees>
              <LongitudeDegrees>-0.1538662612438201904296875</LongitudeDegrees>
            </Position>
            <AltitudeMeters>2507.60009765625</AltitudeMeters>
            <DistanceMeters>24203.83734833</DistanceMeters>
          </Trackpoint>
          <Trackpoint>
            <Time>2022-07-10T06:20:33.000Z</Time>
            <Position>
              <LatitudeDegrees>42.78949834406375885009765625</LatitudeDegrees>
              <LongitudeDegrees>-0.15387640334665775299072265625</LongitudeDegrees>
            </Position>
            <AltitudeMeters>2508.199951171875</AltitudeMeters>
            <DistanceMeters>24204.953659465</DistanceMeters>
          </Trackpoint>
          <Trackpoint>
            <Time>2022-07-10T06:20:36.000Z</Time>
            <Position>
              <LatitudeDegrees>42.789494656026363372802734375</LatitudeDegrees>
              <LongitudeDegrees>-0.15388713218271732330322265625</LongitudeDegrees>
            </Position>
            <AltitudeMeters>2508.800048828125</AltitudeMeters>
            <DistanceMeters>24205.922745606</DistanceMeters>
          </Trackpoint>
          <Trackpoint>
            <Time>2022-07-10T06:20:38.000Z</Time>
            <Position>
              <LatitudeDegrees>42.78948895633220672607421875</LatitudeDegrees>
              <LongitudeDegrees>-0.153895430266857147216796875</LongitudeDegrees>
            </Position>
            <AltitudeMeters>2509.39990234375</AltitudeMeters>
            <DistanceMeters>24206.848951449</DistanceMeters>
          </Trackpoint>
          <Trackpoint>
            <Time>2022-07-10T06:20:42.000Z</Time>
            <Position>
              <LatitudeDegrees>42.78947286307811737060546875</LatitudeDegrees>
              <LongitudeDegrees>-0.1539059914648532867431640625</LongitudeDegrees>
            </Position>
            <AltitudeMeters>2510.800048828125</AltitudeMeters>
            <DistanceMeters>24208.833167498</DistanceMeters>
          </Trackpoint>
          <Trackpoint>
            <Time>2022-07-10T06:20:43.000Z</Time>
            <Position>
              <LatitudeDegrees>42.789473198354244232177734375</LatitudeDegrees>
              <LongitudeDegrees>-0.153914205729961395263671875</LongitudeDegrees>
            </Position>
            <AltitudeMeters>2511.199951171875</AltitudeMeters>
            <DistanceMeters>24209.505107839</DistanceMeters>
          </Trackpoint>
          <Trackpoint>
            <Time>2022-07-10T06:20:45.000Z</Time>
            <Position>
              <LatitudeDegrees>42.78947512619197368621826171875</LatitudeDegrees>
              <LongitudeDegrees>-0.153932310640811920166015625</LongitudeDegrees>
            </Position>
            <AltitudeMeters>2511.60009765625</AltitudeMeters>
            <DistanceMeters>24210.998569885</DistanceMeters>
          </Trackpoint>
          <Trackpoint>
            <Time>2022-07-10T06:20:47.000Z</Time>
            <Position>
              <LatitudeDegrees>42.7894753776490688323974609375</LatitudeDegrees>
              <LongitudeDegrees>-0.15394379384815692901611328125</LongitudeDegrees>
            </Position>
            <AltitudeMeters>2511.800048828125</AltitudeMeters>
            <DistanceMeters>24211.939286362</DistanceMeters>
          </Trackpoint>
          <Trackpoint>
            <Time>2022-07-10T06:20:49.000Z</Time>
            <Position>
              <LatitudeDegrees>42.789478562772274017333984375</LatitudeDegrees>
              <LongitudeDegrees>-0.1539492420852184295654296875</LongitudeDegrees>
            </Position>
            <AltitudeMeters>2511.800048828125</AltitudeMeters>
            <DistanceMeters>24212.509446649</DistanceMeters>
          </Trackpoint>
          <Trackpoint>
            <Time>2022-07-10T06:20:51.000Z</Time>
            <Position>
              <LatitudeDegrees>42.7894856035709381103515625</LatitudeDegrees>
              <LongitudeDegrees>-0.15395452268421649932861328125</LongitudeDegrees>
            </Position>
            <AltitudeMeters>2512</AltitudeMeters>
            <DistanceMeters>24213.400876246</DistanceMeters>
          </Trackpoint>
          <Trackpoint>
            <Time>2022-07-10T06:20:53.000Z</Time>
            <Position>
              <LatitudeDegrees>42.789489962160587310791015625</LatitudeDegrees>
              <LongitudeDegrees>-0.15395821072161197662353515625</LongitudeDegrees>
            </Position>
            <AltitudeMeters>2512</AltitudeMeters>
            <DistanceMeters>24213.971036532</DistanceMeters>
          </Trackpoint>
          <Trackpoint>
            <Time>2022-07-10T06:20:54.000Z</Time>
            <Position>
              <LatitudeDegrees>42.789489291608333587646484375</LatitudeDegrees>
              <LongitudeDegrees>-0.15396072529256343841552734375</LongitudeDegrees>
            </Position>
            <AltitudeMeters>2512.199951171875</AltitudeMeters>
            <DistanceMeters>24214.203803494</DistanceMeters>
          </Trackpoint>
          <Trackpoint>
            <Time>2022-07-10T06:20:59.000Z</Time>
            <Position>
              <LatitudeDegrees>42.78946691192686557769775390625</LatitudeDegrees>
              <LongitudeDegrees>-0.15398117713630199432373046875</LongitudeDegrees>
            </Position>
            <AltitudeMeters>2512.60009765625</AltitudeMeters>
            <DistanceMeters>24217.202796015</DistanceMeters>
          </Trackpoint>
          <Trackpoint>
            <Time>2022-07-10T06:21:00.000Z</Time>
            <Position>
              <LatitudeDegrees>42.78946205042302608489990234375</LatitudeDegrees>
              <LongitudeDegrees>-0.15398771502077579498291015625</LongitudeDegrees>
            </Position>
            <AltitudeMeters>2513</AltitudeMeters>
            <DistanceMeters>24217.96300973</DistanceMeters>
          </Trackpoint>
          <Trackpoint>
            <Time>2022-07-10T06:21:03.000Z</Time>
            <Position>
              <LatitudeDegrees>42.78945836238563060760498046875</LatitudeDegrees>
              <LongitudeDegrees>-0.15400699339807033538818359375</LongitudeDegrees>
            </Position>
            <AltitudeMeters>2513.800048828125</AltitudeMeters>
            <DistanceMeters>24219.592378465</DistanceMeters>
          </Trackpoint>
          <Trackpoint>
            <Time>2022-07-10T06:21:05.000Z</Time>
            <Position>
              <LatitudeDegrees>42.78946221806108951568603515625</LatitudeDegrees>
              <LongitudeDegrees>-0.1540186442434787750244140625</LongitudeDegrees>
            </Position>
            <AltitudeMeters>2514</AltitudeMeters>
            <DistanceMeters>24220.637672323</DistanceMeters>
          </Trackpoint>
          <Trackpoint>
            <Time>2022-07-10T06:21:09.000Z</Time>
            <Position>
              <LatitudeDegrees>42.7894633077085018157958984375</LatitudeDegrees>
              <LongitudeDegrees>-0.1540223322808742523193359375</LongitudeDegrees>
            </Position>
            <AltitudeMeters>2514.39990234375</AltitudeMeters>
            <DistanceMeters>24220.966854518</DistanceMeters>
          </Trackpoint>
          <Trackpoint>
            <Time>2022-07-10T06:21:14.000Z</Time>
            <Position>
              <LatitudeDegrees>42.78946305625140666961669921875</LatitudeDegrees>
              <LongitudeDegrees>-0.15404085628688335418701171875</LongitudeDegrees>
            </Position>
            <AltitudeMeters>2515.199951171875</AltitudeMeters>
            <DistanceMeters>24222.484309457</DistanceMeters>
          </Trackpoint>
          <Trackpoint>
            <Time>2022-07-10T06:21:17.000Z</Time>
            <Position>
              <LatitudeDegrees>42.78946372680366039276123046875</LatitudeDegrees>
              <LongitudeDegrees>-0.15405661426484584808349609375</LongitudeDegrees>
            </Position>
            <AltitudeMeters>2515.39990234375</AltitudeMeters>
            <DistanceMeters>24223.780301054</DistanceMeters>
          </Trackpoint>
          <Trackpoint>
            <Time>2022-07-10T06:21:20.000Z</Time>
            <Position>
              <LatitudeDegrees>42.789459787309169769287109375</LatitudeDegrees>
              <LongitudeDegrees>-0.154068768024444580078125</LongitudeDegrees>
            </Position>
            <AltitudeMeters>2516</AltitudeMeters>
            <DistanceMeters>24224.863772298</DistanceMeters>
          </Trackpoint>
          <Trackpoint>
            <Time>2022-07-10T06:21:22.000Z</Time>
            <Position>
              <LatitudeDegrees>42.78945316560566425323486328125</LatitudeDegrees>
              <LongitudeDegrees>-0.1540846936404705047607421875</LongitudeDegrees>
            </Position>
            <AltitudeMeters>2516.199951171875</AltitudeMeters>
            <DistanceMeters>24226.360254493</DistanceMeters>
          </Trackpoint>
          <Trackpoint>
            <Time>2022-07-10T06:21:24.000Z</Time>
            <Position>
              <LatitudeDegrees>42.7894472144544124603271484375</LatitudeDegrees>
              <LongitudeDegrees>-0.15409299172461032867431640625</LongitudeDegrees>
            </Position>
            <AltitudeMeters>2516.199951171875</AltitudeMeters>
            <DistanceMeters>24227.310521636</DistanceMeters>
          </Trackpoint>
          <Trackpoint>
            <Time>2022-07-10T06:21:25.000Z</Time>
            <Position>
              <LatitudeDegrees>42.78944193385541439056396484375</LatitudeDegrees>
              <LongitudeDegrees>-0.1540954224765300750732421875</LongitudeDegrees>
            </Position>
            <AltitudeMeters>2516.199951171875</AltitudeMeters>
            <DistanceMeters>24227.926365132</DistanceMeters>
          </Trackpoint>
          <Trackpoint>
            <Time>2022-07-10T06:21:28.000Z</Time>
            <Position>
              <LatitudeDegrees>42.78943036682903766632080078125</LatitudeDegrees>
              <LongitudeDegrees>-0.15410338528454303741455078125</LongitudeDegrees>
            </Position>
            <AltitudeMeters>2516.39990234375</AltitudeMeters>
            <DistanceMeters>24229.367516609</DistanceMeters>
          </Trackpoint>
          <Trackpoint>
            <Time>2022-07-10T06:21:30.000Z</Time>
            <Position>
              <LatitudeDegrees>42.78943187557160854339599609375</LatitudeDegrees>
              <LongitudeDegrees>-0.154113359749317169189453125</LongitudeDegrees>
            </Position>
            <AltitudeMeters>2516.60009765625</AltitudeMeters>
            <DistanceMeters>24230.195940299</DistanceMeters>
          </Trackpoint>
          <Trackpoint>
            <Time>2022-07-10T06:21:33.000Z</Time>
            <Position>
              <LatitudeDegrees>42.789432965219020843505859375</LatitudeDegrees>
              <LongitudeDegrees>-0.1541423611342906951904296875</LongitudeDegrees>
            </Position>
            <AltitudeMeters>2516.800048828125</AltitudeMeters>
            <DistanceMeters>24232.567804044</DistanceMeters>
          </Trackpoint>
          <Trackpoint>
            <Time>2022-07-10T06:21:39.000Z</Time>
            <Position>
              <LatitudeDegrees>42.78942785225808620452880859375</LatitudeDegrees>
              <LongitudeDegrees>-0.15416859649121761322021484375</LongitudeDegrees>
            </Position>
            <AltitudeMeters>2516.800048828125</AltitudeMeters>
            <DistanceMeters>24234.784188845</DistanceMeters>
          </Trackpoint>
          <Trackpoint>
            <Time>2022-07-10T06:21:42.000Z</Time>
            <Position>
              <LatitudeDegrees>42.7894348092377185821533203125</LatitudeDegrees>
              <LongitudeDegrees>-0.1541859470307826995849609375</LongitudeDegrees>
            </Position>
            <AltitudeMeters>2517</AltitudeMeters>
            <DistanceMeters>24236.396845664</DistanceMeters>
          </Trackpoint>
          <Trackpoint>
            <Time>2022-07-10T06:21:45.000Z</Time>
            <Position>
              <LatitudeDegrees>42.78944998048245906829833984375</LatitudeDegrees>
              <LongitudeDegrees>-0.15420581214129924774169921875</LongitudeDegrees>
            </Position>
            <AltitudeMeters>2517.39990234375</AltitudeMeters>
            <DistanceMeters>24238.738053985</DistanceMeters>
          </Trackpoint>
          <Trackpoint>
            <Time>2022-07-10T06:21:49.000Z</Time>
            <Position>
              <LatitudeDegrees>42.78946339152753353118896484375</LatitudeDegrees>
              <LongitudeDegrees>-0.15419818460941314697265625</LongitudeDegrees>
            </Position>
            <AltitudeMeters>2518</AltitudeMeters>
            <DistanceMeters>24240.356300619</DistanceMeters>
          </Trackpoint>
          <Trackpoint>
            <Time>2022-07-10T06:21:52.000Z</Time>
            <Position>
              <LatitudeDegrees>42.7894666604697704315185546875</LatitudeDegrees>
              <LongitudeDegrees>-0.15418611466884613037109375</LongitudeDegrees>
            </Position>
            <AltitudeMeters>2518.39990234375</AltitudeMeters>
            <DistanceMeters>24241.405904985</DistanceMeters>
          </Trackpoint>
          <Trackpoint>
            <Time>2022-07-10T06:21:56.000Z</Time>
            <Position>
              <LatitudeDegrees>42.78945165686309337615966796875</LatitudeDegrees>
              <LongitudeDegrees>-0.15418787486851215362548828125</LongitudeDegrees>
            </Position>
            <AltitudeMeters>2519</AltitudeMeters>
            <DistanceMeters>24243.079022942</DistanceMeters>
          </Trackpoint>
          <Trackpoint>
            <Time>2022-07-10T06:21:58.000Z</Time>
            <Position>
              <LatitudeDegrees>42.78944327495992183685302734375</LatitudeDegrees>
              <LongitudeDegrees>-0.1541919820010662078857421875</LongitudeDegrees>
            </Position>
            <AltitudeMeters>2519.60009765625</AltitudeMeters>
            <DistanceMeters>24244.066569526</DistanceMeters>
          </Trackpoint>
          <Trackpoint>
            <Time>2022-07-10T06:22:01.000Z</Time>
            <Position>
              <LatitudeDegrees>42.78943128883838653564453125</LatitudeDegrees>
              <LongitudeDegrees>-0.154215283691883087158203125</LongitudeDegrees>
            </Position>
            <AltitudeMeters>2520.60009765625</AltitudeMeters>
            <DistanceMeters>24246.388412682</DistanceMeters>
          </Trackpoint>
          <Trackpoint>
            <Time>2022-07-10T06:22:04.000Z</Time>
            <Position>
              <LatitudeDegrees>42.7894319593906402587890625</LatitudeDegrees>
              <LongitudeDegrees>-0.1542275212705135345458984375</LongitudeDegrees>
            </Position>
            <AltitudeMeters>2521.60009765625</AltitudeMeters>
            <DistanceMeters>24247.38506127</DistanceMeters>
          </Trackpoint>
          <Trackpoint>
            <Time>2022-07-10T06:22:05.000Z</Time>
            <Position>
              <LatitudeDegrees>42.78943237848579883575439453125</LatitudeDegrees>
              <LongitudeDegrees>-0.15423439443111419677734375</LongitudeDegrees>
            </Position>
            <AltitudeMeters>2522</AltitudeMeters>
            <DistanceMeters>24247.93915747</DistanceMeters>
          </Trackpoint>
          <Trackpoint>
            <Time>2022-07-10T06:22:06.000Z</Time>
            <Position>
              <LatitudeDegrees>42.78943154029548168182373046875</LatitudeDegrees>
              <LongitudeDegrees>-0.15424084849655628204345703125</LongitudeDegrees>
            </Position>
            <AltitudeMeters>2522.199951171875</AltitudeMeters>
            <DistanceMeters>24248.468243824</DistanceMeters>
          </Trackpoint>
          <Trackpoint>
            <Time>2022-07-10T06:22:10.000Z</Time>
            <Position>
              <LatitudeDegrees>42.7894213981926441192626953125</LatitudeDegrees>
              <LongitudeDegrees>-0.154268927872180938720703125</LongitudeDegrees>
            </Position>
            <AltitudeMeters>2522.800048828125</AltitudeMeters>
            <DistanceMeters>24251.025151203</DistanceMeters>
          </Trackpoint>
          <Trackpoint>
            <Time>2022-07-10T06:22:12.000Z</Time>
            <Position>
              <LatitudeDegrees>42.7894136868417263031005859375</LatitudeDegrees>
              <LongitudeDegrees>-0.1542737893760204315185546875</LongitudeDegrees>
            </Position>
            <AltitudeMeters>2523.39990234375</AltitudeMeters>
            <DistanceMeters>24251.965867681</DistanceMeters>
          </Trackpoint>
          <Trackpoint>
            <Time>2022-07-10T06:22:13.000Z</Time>
            <Position>
              <LatitudeDegrees>42.78941058553755283355712890625</LatitudeDegrees>
              <LongitudeDegrees>-0.15427337028086185455322265625</LongitudeDegrees>
            </Position>
            <AltitudeMeters>2523.800048828125</AltitudeMeters>
            <DistanceMeters>24252.295049876</DistanceMeters>
          </Trackpoint>
          <Trackpoint>
            <Time>2022-07-10T06:22:14.000Z</Time>
            <Position>
              <LatitudeDegrees>42.78940974734723567962646484375</LatitudeDegrees>
              <LongitudeDegrees>-0.1542761363089084625244140625</LongitudeDegrees>
            </Position>
            <AltitudeMeters>2524</AltitudeMeters>
            <DistanceMeters>24252.527816838</DistanceMeters>
          </Trackpoint>
          <Trackpoint>
            <Time>2022-07-10T06:22:20.000Z</Time>
            <Position>
              <LatitudeDegrees>42.78942801989614963531494140625</LatitudeDegrees>
              <LongitudeDegrees>-0.1543160341680049896240234375</LongitudeDegrees>
            </Position>
            <AltitudeMeters>2525</AltitudeMeters>
            <DistanceMeters>24256.369059463</DistanceMeters>
          </Trackpoint>
          <Trackpoint>
            <Time>2022-07-10T06:22:21.000Z</Time>
            <Position>
              <LatitudeDegrees>42.78943237848579883575439453125</LatitudeDegrees>
              <LongitudeDegrees>-0.15432282350957393646240234375</LongitudeDegrees>
            </Position>
            <AltitudeMeters>2525</AltitudeMeters>
            <DistanceMeters>24257.098973506</DistanceMeters>
          </Trackpoint>
          <Trackpoint>
            <Time>2022-07-10T06:22:26.000Z</Time>
            <Position>
              <LatitudeDegrees>42.7894381619989871978759765625</LatitudeDegrees>
              <LongitudeDegrees>-0.1543515734374523162841796875</LongitudeDegrees>
            </Position>
            <AltitudeMeters>2525.39990234375</AltitudeMeters>
            <DistanceMeters>24259.532844938</DistanceMeters>
          </Trackpoint>
          <Trackpoint>
            <Time>2022-07-10T06:22:27.000Z</Time>
            <Position>
              <LatitudeDegrees>42.78944226913154125213623046875</LatitudeDegrees>
              <LongitudeDegrees>-0.154360793530941009521484375</LongitudeDegrees>
            </Position>
            <AltitudeMeters>2525.39990234375</AltitudeMeters>
            <DistanceMeters>24260.414086434</DistanceMeters>
          </Trackpoint>
          <Trackpoint>
            <Time>2022-07-10T06:22:32.000Z</Time>
            <Position>
              <LatitudeDegrees>42.789449729025363922119140625</LatitudeDegrees>
              <LongitudeDegrees>-0.15440664254128932952880859375</LongitudeDegrees>
            </Position>
            <AltitudeMeters>2526.199951171875</AltitudeMeters>
            <DistanceMeters>24264.250624536</DistanceMeters>
          </Trackpoint>
          <Trackpoint>
            <Time>2022-07-10T06:22:36.000Z</Time>
            <Position>
              <LatitudeDegrees>42.78943858109414577484130859375</LatitudeDegrees>
              <LongitudeDegrees>-0.15443882904946804046630859375</LongitudeDegrees>
            </Position>
            <AltitudeMeters>2526.800048828125</AltitudeMeters>
            <DistanceMeters>24267.157882961</DistanceMeters>
          </Trackpoint>
          <Trackpoint>
            <Time>2022-07-10T06:22:39.000Z</Time>
            <Position>
              <LatitudeDegrees>42.78943606652319431304931640625</LatitudeDegrees>
              <LongitudeDegrees>-0.1544437743723392486572265625</LongitudeDegrees>
            </Position>
            <AltitudeMeters>2527.199951171875</AltitudeMeters>
            <DistanceMeters>24267.642426032</DistanceMeters>
          </Trackpoint>
          <Trackpoint>
            <Time>2022-07-10T06:22:45.000Z</Time>
            <Position>
              <LatitudeDegrees>42.7894408442080020904541015625</LatitudeDegrees>
              <LongitudeDegrees>-0.15447101555764675140380859375</LongitudeDegrees>
            </Position>
            <AltitudeMeters>2528.199951171875</AltitudeMeters>
            <DistanceMeters>24269.930972369</DistanceMeters>
          </Trackpoint>
          <Trackpoint>
            <Time>2022-07-10T06:22:46.000Z</Time>
            <Position>
              <LatitudeDegrees>42.789441011846065521240234375</LatitudeDegrees>
              <LongitudeDegrees>-0.15447805635631084442138671875</LongitudeDegrees>
            </Position>
            <AltitudeMeters>2528.39990234375</AltitudeMeters>
            <DistanceMeters>24270.501132655</DistanceMeters>
          </Trackpoint>
          <Trackpoint>
            <Time>2022-07-10T06:22:49.000Z</Time>
            <Position>
              <LatitudeDegrees>42.789442352950572967529296875</LatitudeDegrees>
              <LongitudeDegrees>-0.15449113212525844573974609375</LongitudeDegrees>
            </Position>
            <AltitudeMeters>2528.60009765625</AltitudeMeters>
            <DistanceMeters>24271.5846039</DistanceMeters>
          </Trackpoint>
          <Trackpoint>
            <Time>2022-07-10T06:22:55.000Z</Time>
            <Position>
              <LatitudeDegrees>42.78942952863872051239013671875</LatitudeDegrees>
              <LongitudeDegrees>-0.15449951402842998504638671875</LongitudeDegrees>
            </Position>
            <AltitudeMeters>2529.39990234375</AltitudeMeters>
            <DistanceMeters>24273.169015858</DistanceMeters>
          </Trackpoint>
          <Trackpoint>
            <Time>2022-07-10T06:23:01.000Z</Time>
            <Position>
              <LatitudeDegrees>42.7894234098494052886962890625</LatitudeDegrees>
              <LongitudeDegrees>-0.154534466564655303955078125</LongitudeDegrees>
            </Position>
            <AltitudeMeters>2530.199951171875</AltitudeMeters>
            <DistanceMeters>24276.104095572</DistanceMeters>
          </Trackpoint>
          <Trackpoint>
            <Time>2022-07-10T06:23:02.000Z</Time>
            <Position>
              <LatitudeDegrees>42.7894260920584201812744140625</LatitudeDegrees>
              <LongitudeDegrees>-0.1545376516878604888916015625</LongitudeDegrees>
            </Position>
            <AltitudeMeters>2530.199951171875</AltitudeMeters>
            <DistanceMeters>24276.507259776</DistanceMeters>
          </Trackpoint>
          <Trackpoint>
            <Time>2022-07-10T06:23:06.000Z</Time>
            <Position>
              <LatitudeDegrees>42.7894314564764499664306640625</LatitudeDegrees>
              <LongitudeDegrees>-0.1545604504644870758056640625</LongitudeDegrees>
            </Position>
            <AltitudeMeters>2530.39990234375</AltitudeMeters>
            <DistanceMeters>24278.461670771</DistanceMeters>
          </Trackpoint>
          <Trackpoint>
            <Time>2022-07-10T06:23:07.000Z</Time>
            <Position>
              <LatitudeDegrees>42.78943371959030628204345703125</LatitudeDegrees>
              <LongitudeDegrees>-0.154563970863819122314453125</LongitudeDegrees>
            </Position>
            <AltitudeMeters>2530.60009765625</AltitudeMeters>
            <DistanceMeters>24278.841777628</DistanceMeters>
          </Trackpoint>
          <Trackpoint>
            <Time>2022-07-10T06:23:12.000Z</Time>
            <Position>
              <LatitudeDegrees>42.7894401736557483673095703125</LatitudeDegrees>
              <LongitudeDegrees>-0.154573358595371246337890625</LongitudeDegrees>
            </Position>
            <AltitudeMeters>2530.800048828125</AltitudeMeters>
            <DistanceMeters>24279.891381995</DistanceMeters>
          </Trackpoint>
          <Trackpoint>
            <Time>2022-07-10T06:23:14.000Z</Time>
            <Position>
              <LatitudeDegrees>42.78944059275090694427490234375</LatitudeDegrees>
              <LongitudeDegrees>-0.154589116573333740234375</LongitudeDegrees>
            </Position>
            <AltitudeMeters>2531.800048828125</AltitudeMeters>
            <DistanceMeters>24281.180387063</DistanceMeters>
          </Trackpoint>
          <Trackpoint>
            <Time>2022-07-10T06:23:20.000Z</Time>
            <Position>
              <LatitudeDegrees>42.78944159857928752899169921875</LatitudeDegrees>
              <LongitudeDegrees>-0.1546187885105609893798828125</LongitudeDegrees>
            </Position>
            <AltitudeMeters>2532.800048828125</AltitudeMeters>
            <DistanceMeters>24283.606826809</DistanceMeters>
          </Trackpoint>
          <Trackpoint>
            <Time>2022-07-10T06:23:24.000Z</Time>
            <Position>
              <LatitudeDegrees>42.7894512377679347991943359375</LatitudeDegrees>
              <LongitudeDegrees>-0.15460261143743991851806640625</LongitudeDegrees>
            </Position>
            <AltitudeMeters>2534.199951171875</AltitudeMeters>
            <DistanceMeters>24285.306716353</DistanceMeters>
          </Trackpoint>
          <Trackpoint>
            <Time>2022-07-10T06:23:26.000Z</Time>
            <Position>
              <LatitudeDegrees>42.7894488908350467681884765625</LatitudeDegrees>
              <LongitudeDegrees>-0.15458534471690654754638671875</LongitudeDegrees>
            </Position>
            <AltitudeMeters>2534.800048828125</AltitudeMeters>
            <DistanceMeters>24286.741588274</DistanceMeters>
          </Trackpoint>
          <Trackpoint>
            <Time>2022-07-10T06:23:27.000Z</Time>
            <Position>
              <LatitudeDegrees>42.78944310732185840606689453125</LatitudeDegrees>
              <LongitudeDegrees>-0.1545755378901958465576171875</LongitudeDegrees>
            </Position>
            <AltitudeMeters>2535</AltitudeMeters>
            <DistanceMeters>24287.76505731</DistanceMeters>
          </Trackpoint>
          <Trackpoint>
            <Time>2022-07-10T06:23:28.000Z</Time>
            <Position>
              <LatitudeDegrees>42.78943723998963832855224609375</LatitudeDegrees>
              <LongitudeDegrees>-0.154576711356639862060546875</LongitudeDegrees>
            </Position>
            <AltitudeMeters>2535.199951171875</AltitudeMeters>
            <DistanceMeters>24288.423421699</DistanceMeters>
          </Trackpoint>
          <Trackpoint>
            <Time>2022-07-10T06:23:33.000Z</Time>
            <Position>
              <LatitudeDegrees>42.78941796161234378814697265625</LatitudeDegrees>
              <LongitudeDegrees>-0.1545869372785091400146484375</LongitudeDegrees>
            </Position>
            <AltitudeMeters>2536</AltitudeMeters>
            <DistanceMeters>24290.727697063</DistanceMeters>
          </Trackpoint>
          <Trackpoint>
            <Time>2022-07-10T06:23:34.000Z</Time>
            <Position>
              <LatitudeDegrees>42.78941662050783634185791015625</LatitudeDegrees>
              <LongitudeDegrees>-0.1545882783830165863037109375</LongitudeDegrees>
            </Position>
            <AltitudeMeters>2536.39990234375</AltitudeMeters>
            <DistanceMeters>24290.89228816</DistanceMeters>
          </Trackpoint>
          <Trackpoint>
            <Time>2022-07-10T06:23:37.000Z</Time>
            <Position>
              <LatitudeDegrees>42.7894200570881366729736328125</LatitudeDegrees>
              <LongitudeDegrees>-0.154615938663482666015625</LongitudeDegrees>
            </Position>
            <AltitudeMeters>2536.800048828125</AltitudeMeters>
            <DistanceMeters>24293.182806532</DistanceMeters>
          </Trackpoint>
          <Trackpoint>
            <Time>2022-07-10T06:23:41.000Z</Time>
            <Position>
              <LatitudeDegrees>42.7894212305545806884765625</LatitudeDegrees>
              <LongitudeDegrees>-0.1546630449593067169189453125</LongitudeDegrees>
            </Position>
            <AltitudeMeters>2537</AltitudeMeters>
            <DistanceMeters>24297.033440963</DistanceMeters>
          </Trackpoint>
          <Trackpoint>
            <Time>2022-07-10T06:23:44.000Z</Time>
            <Position>
              <LatitudeDegrees>42.78941360302269458770751953125</LatitudeDegrees>
              <LongitudeDegrees>-0.1546409167349338531494140625</LongitudeDegrees>
            </Position>
            <AltitudeMeters>2537.39990234375</AltitudeMeters>
            <DistanceMeters>24299.033521928</DistanceMeters>
          </Trackpoint>
          <Trackpoint>
            <Time>2022-07-10T06:23:47.000Z</Time>
            <Position>
              <LatitudeDegrees>42.7893875353038311004638671875</LatitudeDegrees>
              <LongitudeDegrees>-0.154655836522579193115234375</LongitudeDegrees>
            </Position>
            <AltitudeMeters>2538.60009765625</AltitudeMeters>
            <DistanceMeters>24302.179465949</DistanceMeters>
          </Trackpoint>
          <Trackpoint>
            <Time>2022-07-10T06:23:50.000Z</Time>
            <Position>
              <LatitudeDegrees>42.78935627080500125885009765625</LatitudeDegrees>
              <LongitudeDegrees>-0.15466153621673583984375</LongitudeDegrees>
            </Position>
            <AltitudeMeters>2539.199951171875</AltitudeMeters>
            <DistanceMeters>24305.689027783</DistanceMeters>
          </Trackpoint>
          <Trackpoint>
            <Time>2022-07-10T06:23:55.000Z</Time>
            <Position>
              <LatitudeDegrees>42.78934520669281482696533203125</LatitudeDegrees>
              <LongitudeDegrees>-0.15469011850655078887939453125</LongitudeDegrees>
            </Position>
            <AltitudeMeters>2539.60009765625</AltitudeMeters>
            <DistanceMeters>24308.329334397</DistanceMeters>
          </Trackpoint>
          <Trackpoint>
            <Time>2022-07-10T06:23:57.000Z</Time>
            <Position>
              <LatitudeDegrees>42.78934403322637081146240234375</LatitudeDegrees>
              <LongitudeDegrees>-0.1546875201165676116943359375</LongitudeDegrees>
            </Position>
            <AltitudeMeters>2539.60009765625</AltitudeMeters>
            <DistanceMeters>24308.580751451</DistanceMeters>
          </Trackpoint>
          <Trackpoint>
            <Time>2022-07-10T06:24:03.000Z</Time>
            <Position>
              <LatitudeDegrees>42.789373956620693206787109375</LatitudeDegrees>
              <LongitudeDegrees>-0.1546784676611423492431640625</LongitudeDegrees>
            </Position>
            <AltitudeMeters>2540</AltitudeMeters>
            <DistanceMeters>24311.993785089</DistanceMeters>
          </Trackpoint>
          <Trackpoint>
            <Time>2022-07-10T06:24:04.000Z</Time>
            <Position>
              <LatitudeDegrees>42.78937135823071002960205078125</LatitudeDegrees>
              <LongitudeDegrees>-0.1546771265566349029541015625</LongitudeDegrees>
            </Position>
            <AltitudeMeters>2540.60009765625</AltitudeMeters>
            <DistanceMeters>24312.294285945</DistanceMeters>
          </Trackpoint>
          <Trackpoint>
            <Time>2022-07-10T06:24:08.000Z</Time>
            <Position>
              <LatitudeDegrees>42.78933900408446788787841796875</LatitudeDegrees>
              <LongitudeDegrees>-0.1547153480350971221923828125</LongitudeDegrees>
            </Position>
            <AltitudeMeters>2541.800048828125</AltitudeMeters>
            <DistanceMeters>24317.059854353</DistanceMeters>
          </Trackpoint>
          <Trackpoint>
            <Time>2022-07-10T06:24:14.000Z</Time>
            <Position>
              <LatitudeDegrees>42.78936280868947505950927734375</LatitudeDegrees>
              <LongitudeDegrees>-0.154739320278167724609375</LongitudeDegrees>
            </Position>
            <AltitudeMeters>2542.39990234375</AltitudeMeters>
            <DistanceMeters>24320.354418343</DistanceMeters>
          </Trackpoint>
          <Trackpoint>
            <Time>2022-07-10T06:24:17.000Z</Time>
            <Position>
              <LatitudeDegrees>42.78937102295458316802978515625</LatitudeDegrees>
              <LongitudeDegrees>-0.15475147403776645660400390625</LongitudeDegrees>
            </Position>
            <AltitudeMeters>2542.60009765625</AltitudeMeters>
            <DistanceMeters>24321.705001714</DistanceMeters>
          </Trackpoint>
          <Trackpoint>
            <Time>2022-07-10T06:24:22.000Z</Time>
            <Position>
              <LatitudeDegrees>42.78937228024005889892578125</LatitudeDegrees>
              <LongitudeDegrees>-0.15476522035896778106689453125</LongitudeDegrees>
            </Position>
            <AltitudeMeters>2542.800048828125</AltitudeMeters>
            <DistanceMeters>24322.837375705</DistanceMeters>
          </Trackpoint>
          <Trackpoint>
            <Time>2022-07-10T06:24:24.000Z</Time>
            <Position>
              <LatitudeDegrees>42.78937672264873981475830078125</LatitudeDegrees>
              <LongitudeDegrees>-0.1547527313232421875</LongitudeDegrees>
            </Position>
            <AltitudeMeters>2543.199951171875</AltitudeMeters>
            <DistanceMeters>24323.969749696</DistanceMeters>
          </Trackpoint>
          <Trackpoint>
            <Time>2022-07-10T06:24:28.000Z</Time>
            <Position>
              <LatitudeDegrees>42.78939566574990749359130859375</LatitudeDegrees>
              <LongitudeDegrees>-0.15473085455596446990966796875</LongitudeDegrees>
            </Position>
            <AltitudeMeters>2544</AltitudeMeters>
            <DistanceMeters>24326.733704231</DistanceMeters>
          </Trackpoint>
          <Trackpoint>
            <Time>2022-07-10T06:24:34.000Z</Time>
            <Position>
              <LatitudeDegrees>42.78937186114490032196044921875</LatitudeDegrees>
              <LongitudeDegrees>-0.15473538078367710113525390625</LongitudeDegrees>
            </Position>
            <AltitudeMeters>2545</AltitudeMeters>
            <DistanceMeters>24329.409680804</DistanceMeters>
          </Trackpoint>
          <Trackpoint>
            <Time>2022-07-10T06:24:35.000Z</Time>
            <Position>
              <LatitudeDegrees>42.789363898336887359619140625</LatitudeDegrees>
              <LongitudeDegrees>-0.154741667211055755615234375</LongitudeDegrees>
            </Position>
            <AltitudeMeters>2545</AltitudeMeters>
            <DistanceMeters>24330.43314984</DistanceMeters>
          </Trackpoint>
          <Trackpoint>
            <Time>2022-07-10T06:24:38.000Z</Time>
            <Position>
              <LatitudeDegrees>42.7893462963402271270751953125</LatitudeDegrees>
              <LongitudeDegrees>-0.154761113226413726806640625</LongitudeDegrees>
            </Position>
            <AltitudeMeters>2545.39990234375</AltitudeMeters>
            <DistanceMeters>24332.958072407</DistanceMeters>
          </Trackpoint>
          <Trackpoint>
            <Time>2022-07-10T06:24:44.000Z</Time>
            <Position>
              <LatitudeDegrees>42.78933749534189701080322265625</LatitudeDegrees>
              <LongitudeDegrees>-0.15479891560971736907958984375</LongitudeDegrees>
            </Position>
            <AltitudeMeters>2545.60009765625</AltitudeMeters>
            <DistanceMeters>24336.197354554</DistanceMeters>
          </Trackpoint>
          <Trackpoint>
            <Time>2022-07-10T06:24:47.000Z</Time>
            <Position>
              <LatitudeDegrees>42.78933665715157985687255859375</LatitudeDegrees>
              <LongitudeDegrees>-0.1548023521900177001953125</LongitudeDegrees>
            </Position>
            <AltitudeMeters>2545.800048828125</AltitudeMeters>
            <DistanceMeters>24336.49785541</DistanceMeters>
          </Trackpoint>
          <Trackpoint>
            <Time>2022-07-10T06:24:49.000Z</Time>
            <Position>
              <LatitudeDegrees>42.78934336267411708831787109375</LatitudeDegrees>
              <LongitudeDegrees>-0.1548155955970287322998046875</LongitudeDegrees>
            </Position>
            <AltitudeMeters>2546</AltitudeMeters>
            <DistanceMeters>24337.814584189</DistanceMeters>
          </Trackpoint>
          <Trackpoint>
            <Time>2022-07-10T06:24:54.000Z</Time>
            <Position>
              <LatitudeDegrees>42.789352834224700927734375</LatitudeDegrees>
              <LongitudeDegrees>-0.15484954230487346649169921875</LongitudeDegrees>
            </Position>
            <AltitudeMeters>2546</AltitudeMeters>
            <DistanceMeters>24340.780270358</DistanceMeters>
          </Trackpoint>
          <Trackpoint>
            <Time>2022-07-10T06:24:57.000Z</Time>
            <Position>
              <LatitudeDegrees>42.78935543261468410491943359375</LatitudeDegrees>
              <LongitudeDegrees>-0.1548541523516178131103515625</LongitudeDegrees>
            </Position>
            <AltitudeMeters>2546.39990234375</AltitudeMeters>
            <DistanceMeters>24341.245804283</DistanceMeters>
          </Trackpoint>
          <Trackpoint>
            <Time>2022-07-10T06:25:00.000Z</Time>
            <Position>
              <LatitudeDegrees>42.78935526497662067413330078125</LatitudeDegrees>
              <LongitudeDegrees>-0.15486932359635829925537109375</LongitudeDegrees>
            </Position>
            <AltitudeMeters>2547.39990234375</AltitudeMeters>
            <DistanceMeters>24342.484801053</DistanceMeters>
          </Trackpoint>
          <Trackpoint>
            <Time>2022-07-10T06:25:01.000Z</Time>
            <Position>
              <LatitudeDegrees>42.7893553487956523895263671875</LatitudeDegrees>
              <LongitudeDegrees>-0.1548707485198974609375</LongitudeDegrees>
            </Position>
            <AltitudeMeters>2547.60009765625</AltitudeMeters>
            <DistanceMeters>24342.619189121</DistanceMeters>
          </Trackpoint>
          <Trackpoint>
            <Time>2022-07-10T06:25:07.000Z</Time>
            <Position>
              <LatitudeDegrees>42.7893566899001598358154296875</LatitudeDegrees>
              <LongitudeDegrees>-0.15490788035094738006591796875</LongitudeDegrees>
            </Position>
            <AltitudeMeters>2548</AltitudeMeters>
            <DistanceMeters>24345.655586336</DistanceMeters>
          </Trackpoint>
          <Trackpoint>
            <Time>2022-07-10T06:25:09.000Z</Time>
            <Position>
              <LatitudeDegrees>42.7893466316163539886474609375</LatitudeDegrees>
              <LongitudeDegrees>-0.1549235545098781585693359375</LongitudeDegrees>
            </Position>
            <AltitudeMeters>2548.199951171875</AltitudeMeters>
            <DistanceMeters>24347.35547588</DistanceMeters>
          </Trackpoint>
          <Trackpoint>
            <Time>2022-07-10T06:25:10.000Z</Time>
            <Position>
              <LatitudeDegrees>42.78934319503605365753173828125</LatitudeDegrees>
              <LongitudeDegrees>-0.15493134967982769012451171875</LongitudeDegrees>
            </Position>
            <AltitudeMeters>2548.60009765625</AltitudeMeters>
            <DistanceMeters>24348.103716977</DistanceMeters>
          </Trackpoint>
          <Trackpoint>
            <Time>2022-07-10T06:25:12.000Z</Time>
            <Position>
              <LatitudeDegrees>42.7893312089145183563232421875</LatitudeDegrees>
              <LongitudeDegrees>-0.15494559891521930694580078125</LongitudeDegrees>
            </Position>
            <AltitudeMeters>2549.39990234375</AltitudeMeters>
            <DistanceMeters>24349.876417348</DistanceMeters>
          </Trackpoint>
          <Trackpoint>
            <Time>2022-07-10T06:25:14.000Z</Time>
            <Position>
              <LatitudeDegrees>42.7893224917352199554443359375</LatitudeDegrees>
              <LongitudeDegrees>-0.1549497060477733612060546875</LongitudeDegrees>
            </Position>
            <AltitudeMeters>2549.800048828125</AltitudeMeters>
            <DistanceMeters>24350.899886383</DistanceMeters>
          </Trackpoint>
          <Trackpoint>
            <Time>2022-07-10T06:25:17.000Z</Time>
            <Position>
              <LatitudeDegrees>42.78931922279298305511474609375</LatitudeDegrees>
              <LongitudeDegrees>-0.15495297499001026153564453125</LongitudeDegrees>
            </Position>
            <AltitudeMeters>2550</AltitudeMeters>
            <DistanceMeters>24351.345601182</DistanceMeters>
          </Trackpoint>
          <Trackpoint>
            <Time>2022-07-10T06:25:20.000Z</Time>
            <Position>
              <LatitudeDegrees>42.78931058943271636962890625</LatitudeDegrees>
              <LongitudeDegrees>-0.15494911931455135345458984375</LongitudeDegrees>
            </Position>
            <AltitudeMeters>2550.199951171875</AltitudeMeters>
            <DistanceMeters>24352.355749012</DistanceMeters>
          </Trackpoint>
          <Trackpoint>
            <Time>2022-07-10T06:25:22.000Z</Time>
            <Position>
              <LatitudeDegrees>42.7893005311489105224609375</LatitudeDegrees>
              <LongitudeDegrees>-0.15494761057198047637939453125</LongitudeDegrees>
            </Position>
            <AltitudeMeters>2550.60009765625</AltitudeMeters>
            <DistanceMeters>24353.484128726</DistanceMeters>
          </Trackpoint>
          <Trackpoint>
            <Time>2022-07-10T06:25:23.000Z</Time>
            <Position>
              <LatitudeDegrees>42.78929357416927814483642578125</LatitudeDegrees>
              <LongitudeDegrees>-0.15494241379201412200927734375</LongitudeDegrees>
            </Position>
            <AltitudeMeters>2551</AltitudeMeters>
            <DistanceMeters>24354.365370222</DistanceMeters>
          </Trackpoint>
          <Trackpoint>
            <Time>2022-07-10T06:25:25.000Z</Time>
            <Position>
              <LatitudeDegrees>42.789280414581298828125</LatitudeDegrees>
              <LongitudeDegrees>-0.15494517982006072998046875</LongitudeDegrees>
            </Position>
            <AltitudeMeters>2551.60009765625</AltitudeMeters>
            <DistanceMeters>24355.846690098</DistanceMeters>
          </Trackpoint>
          <Trackpoint>
            <Time>2022-07-10T06:25:26.000Z</Time>
            <Position>
              <LatitudeDegrees>42.78927312232553958892822265625</LatitudeDegrees>
              <LongitudeDegrees>-0.1549453474581241607666015625</LongitudeDegrees>
            </Position>
            <AltitudeMeters>2552</AltitudeMeters>
            <DistanceMeters>24356.664140804</DistanceMeters>
          </Trackpoint>
          <Trackpoint>
            <Time>2022-07-10T06:25:27.000Z</Time>
            <Position>
              <LatitudeDegrees>42.78926708735525608062744140625</LatitudeDegrees>
              <LongitudeDegrees>-0.1549471914768218994140625</LongitudeDegrees>
            </Position>
            <AltitudeMeters>2552.39990234375</AltitudeMeters>
            <DistanceMeters>24357.362441691</DistanceMeters>
          </Trackpoint>
          <Trackpoint>
            <Time>2022-07-10T06:25:29.000Z</Time>
            <Position>
              <LatitudeDegrees>42.78925753198564052581787109375</LatitudeDegrees>
              <LongitudeDegrees>-0.1549419946968555450439453125</LongitudeDegrees>
            </Position>
            <AltitudeMeters>2552.800048828125</AltitudeMeters>
            <DistanceMeters>24358.510653849</DistanceMeters>
          </Trackpoint>
          <Trackpoint>
            <Time>2022-07-10T06:25:31.000Z</Time>
            <Position>
              <LatitudeDegrees>42.78926289640367031097412109375</LatitudeDegrees>
              <LongitudeDegrees>-0.15493688173592090606689453125</LongitudeDegrees>
            </Position>
            <AltitudeMeters>2553.39990234375</AltitudeMeters>
            <DistanceMeters>24359.240567892</DistanceMeters>
          </Trackpoint>
          <Trackpoint>
            <Time>2022-07-10T06:25:35.000Z</Time>
            <Position>
              <LatitudeDegrees>42.78925552032887935638427734375</LatitudeDegrees>
              <LongitudeDegrees>-0.154936797916889190673828125</LongitudeDegrees>
            </Position>
            <AltitudeMeters>2554</AltitudeMeters>
            <DistanceMeters>24360.058018598</DistanceMeters>
          </Trackpoint>
          <Trackpoint>
            <Time>2022-07-10T06:25:36.000Z</Time>
            <Position>
              <LatitudeDegrees>42.7892544306814670562744140625</LatitudeDegrees>
              <LongitudeDegrees>-0.15493604354560375213623046875</LongitudeDegrees>
            </Position>
            <AltitudeMeters>2554.199951171875</AltitudeMeters>
            <DistanceMeters>24360.222609695</DistanceMeters>
          </Trackpoint>
          <Trackpoint>
            <Time>2022-07-10T06:25:39.000Z</Time>
            <Position>
              <LatitudeDegrees>42.78924328275024890899658203125</LatitudeDegrees>
              <LongitudeDegrees>-0.1549366302788257598876953125</LongitudeDegrees>
            </Position>
            <AltitudeMeters>2554.800048828125</AltitudeMeters>
            <DistanceMeters>24361.46524523</DistanceMeters>
          </Trackpoint>
          <Trackpoint>
            <Time>2022-07-10T06:25:40.000Z</Time>
            <Position>
              <LatitudeDegrees>42.789237834513187408447265625</LatitudeDegrees>
              <LongitudeDegrees>-0.15494224615395069122314453125</LongitudeDegrees>
            </Position>
            <AltitudeMeters>2555</AltitudeMeters>
            <DistanceMeters>24362.225458945</DistanceMeters>
          </Trackpoint>
          <Trackpoint>
            <Time>2022-07-10T06:25:41.000Z</Time>
            <Position>
              <LatitudeDegrees>42.789230458438396453857421875</LatitudeDegrees>
              <LongitudeDegrees>-0.15494341962039470672607421875</LongitudeDegrees>
            </Position>
            <AltitudeMeters>2555.199951171875</AltitudeMeters>
            <DistanceMeters>24363.053882635</DistanceMeters>
          </Trackpoint>
          <Trackpoint>
            <Time>2022-07-10T06:25:44.000Z</Time>
            <Position>
              <LatitudeDegrees>42.78921511955559253692626953125</LatitudeDegrees>
              <LongitudeDegrees>-0.15493067912757396697998046875</LongitudeDegrees>
            </Position>
            <AltitudeMeters>2555.800048828125</AltitudeMeters>
            <DistanceMeters>24365.051704896</DistanceMeters>
          </Trackpoint>
          <Trackpoint>
            <Time>2022-07-10T06:25:50.000Z</Time>
            <Position>
              <LatitudeDegrees>42.7891779877245426177978515625</LatitudeDegrees>
              <LongitudeDegrees>-0.15491190366446971893310546875</LongitudeDegrees>
            </Position>
            <AltitudeMeters>2556.39990234375</AltitudeMeters>
            <DistanceMeters>24369.459961298</DistanceMeters>
          </Trackpoint>
          <Trackpoint>
            <Time>2022-07-10T06:25:52.000Z</Time>
            <Position>
              <LatitudeDegrees>42.78916868381202220916748046875</LatitudeDegrees>
              <LongitudeDegrees>-0.15490586869418621063232421875</LongitudeDegrees>
            </Position>
            <AltitudeMeters>2556.39990234375</AltitudeMeters>
            <DistanceMeters>24370.608173457</DistanceMeters>
          </Trackpoint>
          <Trackpoint>
            <Time>2022-07-10T06:25:58.000Z</Time>
            <Position>
              <LatitudeDegrees>42.78915544040501117706298828125</LatitudeDegrees>
              <LongitudeDegrees>-0.1549031026661396026611328125</LongitudeDegrees>
            </Position>
            <AltitudeMeters>2556.199951171875</AltitudeMeters>
            <DistanceMeters>24372.098609234</DistanceMeters>
          </Trackpoint>
          <Trackpoint>
            <Time>2022-07-10T06:26:00.000Z</Time>
            <Position>
              <LatitudeDegrees>42.78915124945342540740966796875</LatitudeDegrees>
              <LongitudeDegrees>-0.15489933080971240997314453125</LongitudeDegrees>
            </Position>
            <AltitudeMeters>2556</AltitudeMeters>
            <DistanceMeters>24372.660794858</DistanceMeters>
          </Trackpoint>
          <Trackpoint>
            <Time>2022-07-10T06:26:02.000Z</Time>
            <Position>
              <LatitudeDegrees>42.78914974071085453033447265625</LatitudeDegrees>
              <LongitudeDegrees>-0.15490620397031307220458984375</LongitudeDegrees>
            </Position>
            <AltitudeMeters>2555.800048828125</AltitudeMeters>
            <DistanceMeters>24373.246578866</DistanceMeters>
          </Trackpoint>
          <Trackpoint>
            <Time>2022-07-10T06:26:03.000Z</Time>
            <Position>
              <LatitudeDegrees>42.78915141709148883819580078125</LatitudeDegrees>
              <LongitudeDegrees>-0.15491165220737457275390625</LongitudeDegrees>
            </Position>
            <AltitudeMeters>2555.800048828125</AltitudeMeters>
            <DistanceMeters>24373.721712438</DistanceMeters>
          </Trackpoint>
          <Trackpoint>
            <Time>2022-07-10T06:26:05.000Z</Time>
            <Position>
              <LatitudeDegrees>42.7891501598060131072998046875</LatitudeDegrees>
              <LongitudeDegrees>-0.15491961501538753509521484375</LongitudeDegrees>
            </Position>
            <AltitudeMeters>2555.800048828125</AltitudeMeters>
            <DistanceMeters>24374.386899439</DistanceMeters>
          </Trackpoint>
          <Trackpoint>
            <Time>2022-07-10T06:26:07.000Z</Time>
            <Position>
              <LatitudeDegrees>42.789147309958934783935546875</LatitudeDegrees>
              <LongitudeDegrees>-0.15493520535528659820556640625</LongitudeDegrees>
            </Position>
            <AltitudeMeters>2555.800048828125</AltitudeMeters>
            <DistanceMeters>24375.696752302</DistanceMeters>
          </Trackpoint>
          <Trackpoint>
            <Time>2022-07-10T06:26:13.000Z</Time>
            <Position>
              <LatitudeDegrees>42.7891474775969982147216796875</LatitudeDegrees>
              <LongitudeDegrees>-0.15499069355428218841552734375</LongitudeDegrees>
            </Position>
            <AltitudeMeters>2556.199951171875</AltitudeMeters>
            <DistanceMeters>24380.229237703</DistanceMeters>
          </Trackpoint>
          <Trackpoint>
            <Time>2022-07-10T06:26:14.000Z</Time>
            <Position>
              <LatitudeDegrees>42.78914789669215679168701171875</LatitudeDegrees>
              <LongitudeDegrees>-0.154997818171977996826171875</LongitudeDegrees>
            </Position>
            <AltitudeMeters>2556.199951171875</AltitudeMeters>
            <DistanceMeters>24380.815021712</DistanceMeters>
          </Trackpoint>
          <Trackpoint>
            <Time>2022-07-10T06:26:18.000Z</Time>
            <Position>
              <LatitudeDegrees>42.7891525067389011383056640625</LatitudeDegrees>
              <LongitudeDegrees>-0.15501894056797027587890625</LongitudeDegrees>
            </Position>
            <AltitudeMeters>2556.39990234375</AltitudeMeters>
            <DistanceMeters>24382.613011525</DistanceMeters>
          </Trackpoint>
          <Trackpoint>
            <Time>2022-07-10T06:26:19.000Z</Time>
            <Position>
              <LatitudeDegrees>42.78915359638631343841552734375</LatitudeDegrees>
              <LongitudeDegrees>-0.15502086840569972991943359375</LongitudeDegrees>
            </Position>
            <AltitudeMeters>2556.60009765625</AltitudeMeters>
            <DistanceMeters>24382.803064954</DistanceMeters>
          </Trackpoint>
          <Trackpoint>
            <Time>2022-07-10T06:26:20.000Z</Time>
            <Position>
              <LatitudeDegrees>42.789154015481472015380859375</LatitudeDegrees>
              <LongitudeDegrees>-0.15501952730119228363037109375</LongitudeDegrees>
            </Position>
            <AltitudeMeters>2556.800048828125</AltitudeMeters>
            <DistanceMeters>24382.898091668</DistanceMeters>
          </Trackpoint>
          <Trackpoint>
            <Time>2022-07-10T06:26:22.000Z</Time>
            <Position>
              <LatitudeDegrees>42.78915502130985260009765625</LatitudeDegrees>
              <LongitudeDegrees>-0.15502757392823696136474609375</LongitudeDegrees>
            </Position>
            <AltitudeMeters>2557.199951171875</AltitudeMeters>
            <DistanceMeters>24383.563278669</DistanceMeters>
          </Trackpoint>
          <Trackpoint>
            <Time>2022-07-10T06:26:28.000Z</Time>
            <Position>
              <LatitudeDegrees>42.78913968242704868316650390625</LatitudeDegrees>
              <LongitudeDegrees>-0.1550657115876674652099609375</LongitudeDegrees>
            </Position>
            <AltitudeMeters>2557.800048828125</AltitudeMeters>
            <DistanceMeters>24387.11504116</DistanceMeters>
          </Trackpoint>
          <Trackpoint>
            <Time>2022-07-10T06:26:30.000Z</Time>
            <Position>
              <LatitudeDegrees>42.78912878595292568206787109375</LatitudeDegrees>
              <LongitudeDegrees>-0.1550630293786525726318359375</LongitudeDegrees>
            </Position>
            <AltitudeMeters>2557.800048828125</AltitudeMeters>
            <DistanceMeters>24388.34672815</DistanceMeters>
          </Trackpoint>
          <Trackpoint>
            <Time>2022-07-10T06:26:35.000Z</Time>
            <Position>
              <LatitudeDegrees>42.78910405933856964111328125</LatitudeDegrees>
              <LongitudeDegrees>-0.15506059862673282623291015625</LongitudeDegrees>
            </Position>
            <AltitudeMeters>2557.800048828125</AltitudeMeters>
            <DistanceMeters>24391.107413666</DistanceMeters>
          </Trackpoint>
          <Trackpoint>
            <Time>2022-07-10T06:26:36.000Z</Time>
            <Position>
              <LatitudeDegrees>42.789104394614696502685546875</LatitudeDegrees>
              <LongitudeDegrees>-0.1550660468637943267822265625</LongitudeDegrees>
            </Position>
            <AltitudeMeters>2558</AltitudeMeters>
            <DistanceMeters>24391.563145778</DistanceMeters>
          </Trackpoint>
          <Trackpoint>
            <Time>2022-07-10T06:26:39.000Z</Time>
            <Position>
              <LatitudeDegrees>42.78912073932588100433349609375</LatitudeDegrees>
              <LongitudeDegrees>-0.1550898514688014984130859375</LongitudeDegrees>
            </Position>
            <AltitudeMeters>2557.800048828125</AltitudeMeters>
            <DistanceMeters>24394.223893781</DistanceMeters>
          </Trackpoint>
          <Trackpoint>
            <Time>2022-07-10T06:26:45.000Z</Time>
            <Position>
              <LatitudeDegrees>42.7891364134848117828369140625</LatitudeDegrees>
              <LongitudeDegrees>-0.15512463636696338653564453125</LongitudeDegrees>
            </Position>
            <AltitudeMeters>2558</AltitudeMeters>
            <DistanceMeters>24397.556609494</DistanceMeters>
          </Trackpoint>
          <Trackpoint>
            <Time>2022-07-10T06:26:51.000Z</Time>
            <Position>
              <LatitudeDegrees>42.78915342874825000762939453125</LatitudeDegrees>
              <LongitudeDegrees>-0.1551253907382488250732421875</LongitudeDegrees>
            </Position>
            <AltitudeMeters>2558.60009765625</AltitudeMeters>
            <DistanceMeters>24399.452386492</DistanceMeters>
          </Trackpoint>
          <Trackpoint>
            <Time>2022-07-10T06:26:52.000Z</Time>
            <Position>
              <LatitudeDegrees>42.78915694914758205413818359375</LatitudeDegrees>
              <LongitudeDegrees>-0.1551284082233905792236328125</LongitudeDegrees>
            </Position>
            <AltitudeMeters>2558.800048828125</AltitudeMeters>
            <DistanceMeters>24399.908118604</DistanceMeters>
          </Trackpoint>
          <Trackpoint>
            <Time>2022-07-10T06:26:55.000Z</Time>
            <Position>
              <LatitudeDegrees>42.789158038794994354248046875</LatitudeDegrees>
              <LongitudeDegrees>-0.15514072962105274200439453125</LongitudeDegrees>
            </Position>
            <AltitudeMeters>2558.800048828125</AltitudeMeters>
            <DistanceMeters>24400.922726269</DistanceMeters>
          </Trackpoint>
          <Trackpoint>
            <Time>2022-07-10T06:27:01.000Z</Time>
            <Position>
              <LatitudeDegrees>42.7891434542834758758544921875</LatitudeDegrees>
              <LongitudeDegrees>-0.155141316354274749755859375</LongitudeDegrees>
            </Position>
            <AltitudeMeters>2558.199951171875</AltitudeMeters>
            <DistanceMeters>24402.546543476</DistanceMeters>
          </Trackpoint>
          <Trackpoint>
            <Time>2022-07-10T06:27:02.000Z</Time>
            <Position>
              <LatitudeDegrees>42.78914219699800014495849609375</LatitudeDegrees>
              <LongitudeDegrees>-0.1551297493278980255126953125</LongitudeDegrees>
            </Position>
            <AltitudeMeters>2558.199951171875</AltitudeMeters>
            <DistanceMeters>24403.506266247</DistanceMeters>
          </Trackpoint>
          <Trackpoint>
            <Time>2022-07-10T06:27:08.000Z</Time>
            <Position>
              <LatitudeDegrees>42.7891367487609386444091796875</LatitudeDegrees>
              <LongitudeDegrees>-0.15511013567447662353515625</LongitudeDegrees>
            </Position>
            <AltitudeMeters>2558.39990234375</AltitudeMeters>
            <DistanceMeters>24405.222018246</DistanceMeters>
          </Trackpoint>
          <Trackpoint>
            <Time>2022-07-10T06:27:10.000Z</Time>
            <Position>
              <LatitudeDegrees>42.7891478128731250762939453125</LatitudeDegrees>
              <LongitudeDegrees>-0.15510753728449344635009765625</LongitudeDegrees>
            </Position>
            <AltitudeMeters>2558.800048828125</AltitudeMeters>
            <DistanceMeters>24406.475506699</DistanceMeters>
          </Trackpoint>
          <Trackpoint>
            <Time>2022-07-10T06:27:11.000Z</Time>
            <Position>
              <LatitudeDegrees>42.7891555242240428924560546875</LatitudeDegrees>
              <LongitudeDegrees>-0.1551119796931743621826171875</LongitudeDegrees>
            </Position>
            <AltitudeMeters>2558.800048828125</AltitudeMeters>
            <DistanceMeters>24407.406574547</DistanceMeters>
          </Trackpoint>
          <Trackpoint>
            <Time>2022-07-10T06:27:12.000Z</Time>
            <Position>
              <LatitudeDegrees>42.7891635708510875701904296875</LatitudeDegrees>
              <LongitudeDegrees>-0.1551143266260623931884765625</LongitudeDegrees>
            </Position>
            <AltitudeMeters>2559</AltitudeMeters>
            <DistanceMeters>24408.322978994</DistanceMeters>
          </Trackpoint>
          <Trackpoint>
            <Time>2022-07-10T06:27:13.000Z</Time>
            <Position>
              <LatitudeDegrees>42.78917119838297367095947265625</LatitudeDegrees>
              <LongitudeDegrees>-0.15512212179601192474365234375</LongitudeDegrees>
            </Position>
            <AltitudeMeters>2559</AltitudeMeters>
            <DistanceMeters>24409.385409959</DistanceMeters>
          </Trackpoint>
          <Trackpoint>
            <Time>2022-07-10T06:27:16.000Z</Time>
            <Position>
              <LatitudeDegrees>42.7891880460083484649658203125</LatitudeDegrees>
              <LongitudeDegrees>-0.15512798912823200225830078125</LongitudeDegrees>
            </Position>
            <AltitudeMeters>2559.39990234375</AltitudeMeters>
            <DistanceMeters>24411.318917561</DistanceMeters>
          </Trackpoint>
          <Trackpoint>
            <Time>2022-07-10T06:27:19.000Z</Time>
            <Position>
              <LatitudeDegrees>42.78919382952153682708740234375</LatitudeDegrees>
              <LongitudeDegrees>-0.1551431603729724884033203125</LongitudeDegrees>
            </Position>
            <AltitudeMeters>2559.800048828125</AltitudeMeters>
            <DistanceMeters>24412.715519334</DistanceMeters>
          </Trackpoint>
          <Trackpoint>
            <Time>2022-07-10T06:27:20.000Z</Time>
            <Position>
              <LatitudeDegrees>42.7891937457025051116943359375</LatitudeDegrees>
              <LongitudeDegrees>-0.1551525481045246124267578125</LongitudeDegrees>
            </Position>
            <AltitudeMeters>2560</AltitudeMeters>
            <DistanceMeters>24413.475733049</DistanceMeters>
          </Trackpoint>
          <Trackpoint>
            <Time>2022-07-10T06:27:24.000Z</Time>
            <Position>
              <LatitudeDegrees>42.78919215314090251922607421875</LatitudeDegrees>
              <LongitudeDegrees>-0.155184231698513031005859375</LongitudeDegrees>
            </Position>
            <AltitudeMeters>2560.800048828125</AltitudeMeters>
            <DistanceMeters>24416.071197752</DistanceMeters>
          </Trackpoint>
          <Trackpoint>
            <Time>2022-07-10T06:27:25.000Z</Time>
            <Position>
              <LatitudeDegrees>42.78918863274157047271728515625</LatitudeDegrees>
              <LongitudeDegrees>-0.15518498606979846954345703125</LongitudeDegrees>
            </Position>
            <AltitudeMeters>2560.800048828125</AltitudeMeters>
            <DistanceMeters>24416.474361957</DistanceMeters>
          </Trackpoint>
          <Trackpoint>
            <Time>2022-07-10T06:27:27.000Z</Time>
            <Position>
              <LatitudeDegrees>42.78917941264808177947998046875</LatitudeDegrees>
              <LongitudeDegrees>-0.155194289982318878173828125</LongitudeDegrees>
            </Position>
            <AltitudeMeters>2561</AltitudeMeters>
            <DistanceMeters>24417.749279115</DistanceMeters>
          </Trackpoint>
          <Trackpoint>
            <Time>2022-07-10T06:27:31.000Z</Time>
            <Position>
              <LatitudeDegrees>42.78915443457663059234619140625</LatitudeDegrees>
              <LongitudeDegrees>-0.15519521199166774749755859375</LongitudeDegrees>
            </Position>
            <AltitudeMeters>2562</AltitudeMeters>
            <DistanceMeters>24420.52952109</DistanceMeters>
          </Trackpoint>
          <Trackpoint>
            <Time>2022-07-10T06:27:33.000Z</Time>
            <Position>
              <LatitudeDegrees>42.7891441248357295989990234375</LatitudeDegrees>
              <LongitudeDegrees>-0.1551966369152069091796875</LongitudeDegrees>
            </Position>
            <AltitudeMeters>2562.39990234375</AltitudeMeters>
            <DistanceMeters>24421.685570965</DistanceMeters>
          </Trackpoint>
          <Trackpoint>
            <Time>2022-07-10T06:27:37.000Z</Time>
            <Position>
              <LatitudeDegrees>42.7891287021338939666748046875</LatitudeDegrees>
              <LongitudeDegrees>-0.1552085392177104949951171875</LongitudeDegrees>
            </Position>
            <AltitudeMeters>2563</AltitudeMeters>
            <DistanceMeters>24423.656086854</DistanceMeters>
          </Trackpoint>
          <Trackpoint>
            <Time>2022-07-10T06:27:38.000Z</Time>
            <Position>
              <LatitudeDegrees>42.7891236729919910430908203125</LatitudeDegrees>
              <LongitudeDegrees>-0.15521918423473834991455078125</LongitudeDegrees>
            </Position>
            <AltitudeMeters>2563.39990234375</AltitudeMeters>
            <DistanceMeters>24424.688341193</DistanceMeters>
          </Trackpoint>
          <Trackpoint>
            <Time>2022-07-10T06:27:42.000Z</Time>
            <Position>
              <LatitudeDegrees>42.78908318839967250823974609375</LatitudeDegrees>
              <LongitudeDegrees>-0.1552417315542697906494140625</LongitudeDegrees>
            </Position>
            <AltitudeMeters>2564.199951171875</AltitudeMeters>
            <DistanceMeters>24429.555156426</DistanceMeters>
          </Trackpoint>
          <Trackpoint>
            <Time>2022-07-10T06:27:43.000Z</Time>
            <Position>
              <LatitudeDegrees>42.7890671789646148681640625</LatitudeDegrees>
              <LongitudeDegrees>-0.155235193669795989990234375</LongitudeDegrees>
            </Position>
            <AltitudeMeters>2564.39990234375</AltitudeMeters>
            <DistanceMeters>24431.414865887</DistanceMeters>
          </Trackpoint>
          <Trackpoint>
            <Time>2022-07-10T06:27:45.000Z</Time>
            <Position>
              <LatitudeDegrees>42.78904681093990802764892578125</LatitudeDegrees>
              <LongitudeDegrees>-0.1552507840096950531005859375</LongitudeDegrees>
            </Position>
            <AltitudeMeters>2564.60009765625</AltitudeMeters>
            <DistanceMeters>24434.013807437</DistanceMeters>
          </Trackpoint>
          <Trackpoint>
            <Time>2022-07-10T06:27:46.000Z</Time>
            <Position>
              <LatitudeDegrees>42.7890395186841487884521484375</LatitudeDegrees>
              <LongitudeDegrees>-0.1552584953606128692626953125</LongitudeDegrees>
            </Position>
            <AltitudeMeters>2564.60009765625</AltitudeMeters>
            <DistanceMeters>24435.04167851</DistanceMeters>
          </Trackpoint>
          <Trackpoint>
            <Time>2022-07-10T06:27:47.000Z</Time>
            <Position>
              <LatitudeDegrees>42.78903423808515071868896484375</LatitudeDegrees>
              <LongitudeDegrees>-0.15526235103607177734375</LongitudeDegrees>
            </Position>
            <AltitudeMeters>2564.800048828125</AltitudeMeters>
            <DistanceMeters>24435.713618852</DistanceMeters>
          </Trackpoint>
          <Trackpoint>
            <Time>2022-07-10T06:27:49.000Z</Time>
            <Position>
              <LatitudeDegrees>42.78902954421937465667724609375</LatitudeDegrees>
              <LongitudeDegrees>-0.1552784442901611328125</LongitudeDegrees>
            </Position>
            <AltitudeMeters>2565.199951171875</AltitudeMeters>
            <DistanceMeters>24437.129485007</DistanceMeters>
          </Trackpoint>
          <Trackpoint>
            <Time>2022-07-10T06:27:50.000Z</Time>
            <Position>
              <LatitudeDegrees>42.7890274487435817718505859375</LatitudeDegrees>
              <LongitudeDegrees>-0.15528942458331584930419921875</LongitudeDegrees>
            </Position>
            <AltitudeMeters>2565.39990234375</AltitudeMeters>
            <DistanceMeters>24438.060552856</DistanceMeters>
          </Trackpoint>
          <Trackpoint>
            <Time>2022-07-10T06:27:51.000Z</Time>
            <Position>
              <LatitudeDegrees>42.789025940001010894775390625</LatitudeDegrees>
              <LongitudeDegrees>-0.15529914759099483489990234375</LongitudeDegrees>
            </Position>
            <AltitudeMeters>2565.60009765625</AltitudeMeters>
            <DistanceMeters>24438.878003562</DistanceMeters>
          </Trackpoint>
          <Trackpoint>
            <Time>2022-07-10T06:27:56.000Z</Time>
            <Position>
              <LatitudeDegrees>42.789015211164951324462890625</LatitudeDegrees>
              <LongitudeDegrees>-0.15535413287580013275146484375</LongitudeDegrees>
            </Position>
            <AltitudeMeters>2566.39990234375</AltitudeMeters>
            <DistanceMeters>24443.524605845</DistanceMeters>
          </Trackpoint>
          <Trackpoint>
            <Time>2022-07-10T06:27:59.000Z</Time>
            <Position>
              <LatitudeDegrees>42.78900372795760631561279296875</LatitudeDegrees>
              <LongitudeDegrees>-0.1553778536617755889892578125</LongitudeDegrees>
            </Position>
            <AltitudeMeters>2567</AltitudeMeters>
            <DistanceMeters>24445.844503593</DistanceMeters>
          </Trackpoint>
          <Trackpoint>
            <Time>2022-07-10T06:28:02.000Z</Time>
            <Position>
              <LatitudeDegrees>42.789002470672130584716796875</LatitudeDegrees>
              <LongitudeDegrees>-0.1554090343415737152099609375</LongitudeDegrees>
            </Position>
            <AltitudeMeters>2567.60009765625</AltitudeMeters>
            <DistanceMeters>24448.394337909</DistanceMeters>
          </Trackpoint>
          <Trackpoint>
            <Time>2022-07-10T06:28:04.000Z</Time>
            <Position>
              <LatitudeDegrees>42.789001800119876861572265625</LatitudeDegrees>
              <LongitudeDegrees>-0.1554237864911556243896484375</LongitudeDegrees>
            </Position>
            <AltitudeMeters>2568.199951171875</AltitudeMeters>
            <DistanceMeters>24449.603830523</DistanceMeters>
          </Trackpoint>
          <Trackpoint>
            <Time>2022-07-10T06:28:06.000Z</Time>
            <Position>
              <LatitudeDegrees>42.78900473378598690032958984375</LatitudeDegrees>
              <LongitudeDegrees>-0.1554314978420734405517578125</LongitudeDegrees>
            </Position>
            <AltitudeMeters>2568.60009765625</AltitudeMeters>
            <DistanceMeters>24450.314945339</DistanceMeters>
          </Trackpoint>
          <Trackpoint>
            <Time>2022-07-10T06:28:07.000Z</Time>
            <Position>
              <LatitudeDegrees>42.78900858946144580841064453125</LatitudeDegrees>
              <LongitudeDegrees>-0.15543258748948574066162109375</LongitudeDegrees>
            </Position>
            <AltitudeMeters>2568.800048828125</AltitudeMeters>
            <DistanceMeters>24450.760660137</DistanceMeters>
          </Trackpoint>
          <Trackpoint>
            <Time>2022-07-10T06:28:10.000Z</Time>
            <Position>
              <LatitudeDegrees>42.78901210986077785491943359375</LatitudeDegrees>
              <LongitudeDegrees>-0.155453793704509735107421875</LongitudeDegrees>
            </Position>
            <AltitudeMeters>2569.39990234375</AltitudeMeters>
            <DistanceMeters>24452.533360508</DistanceMeters>
          </Trackpoint>
          <Trackpoint>
            <Time>2022-07-10T06:28:11.000Z</Time>
            <Position>
              <LatitudeDegrees>42.78901093639433383941650390625</LatitudeDegrees>
              <LongitudeDegrees>-0.155471898615360260009765625</LongitudeDegrees>
            </Position>
            <AltitudeMeters>2569.60009765625</AltitudeMeters>
            <DistanceMeters>24454.017725238</DistanceMeters>
          </Trackpoint>
          <Trackpoint>
            <Time>2022-07-10T06:28:12.000Z</Time>
            <Position>
              <LatitudeDegrees>42.78900791890919208526611328125</LatitudeDegrees>
              <LongitudeDegrees>-0.1554878242313861846923828125</LongitudeDegrees>
            </Position>
            <AltitudeMeters>2569.800048828125</AltitudeMeters>
            <DistanceMeters>24455.36160592</DistanceMeters>
          </Trackpoint>
          <Trackpoint>
            <Time>2022-07-10T06:28:13.000Z</Time>
            <Position>
              <LatitudeDegrees>42.78900641016662120819091796875</LatitudeDegrees>
              <LongitudeDegrees>-0.15550131909549236297607421875</LongitudeDegrees>
            </Position>
            <AltitudeMeters>2570.199951171875</AltitudeMeters>
            <DistanceMeters>24456.477917055</DistanceMeters>
          </Trackpoint>
          <Trackpoint>
            <Time>2022-07-10T06:28:14.000Z</Time>
            <Position>
              <LatitudeDegrees>42.78900506906211376190185546875</LatitudeDegrees>
              <LongitudeDegrees>-0.155512131750583648681640625</LongitudeDegrees>
            </Position>
            <AltitudeMeters>2571</AltitudeMeters>
            <DistanceMeters>24457.369346652</DistanceMeters>
          </Trackpoint>
          <Trackpoint>
            <Time>2022-07-10T06:28:15.000Z</Time>
            <Position>
              <LatitudeDegrees>42.7890054881572723388671875</LatitudeDegrees>
              <LongitudeDegrees>-0.1555223576724529266357421875</LongitudeDegrees>
            </Position>
            <AltitudeMeters>2571.199951171875</AltitudeMeters>
            <DistanceMeters>24458.203202687</DistanceMeters>
          </Trackpoint>
          <Trackpoint>
            <Time>2022-07-10T06:28:20.000Z</Time>
            <Position>
              <LatitudeDegrees>42.78900758363306522369384765625</LatitudeDegrees>
              <LongitudeDegrees>-0.15555127523839473724365234375</LongitudeDegrees>
            </Position>
            <AltitudeMeters>2572</AltitudeMeters>
            <DistanceMeters>24460.576969251</DistanceMeters>
          </Trackpoint>
          <Trackpoint>
            <Time>2022-07-10T06:28:21.000Z</Time>
            <Position>
              <LatitudeDegrees>42.789007835090160369873046875</LatitudeDegrees>
              <LongitudeDegrees>-0.15555932186543941497802734375</LongitudeDegrees>
            </Position>
            <AltitudeMeters>2572</AltitudeMeters>
            <DistanceMeters>24461.23533364</DistanceMeters>
          </Trackpoint>
          <Trackpoint>
            <Time>2022-07-10T06:28:23.000Z</Time>
            <Position>
              <LatitudeDegrees>42.78900674544274806976318359375</LatitudeDegrees>
              <LongitudeDegrees>-0.15557122416794300079345703125</LongitudeDegrees>
            </Position>
            <AltitudeMeters>2572</AltitudeMeters>
            <DistanceMeters>24462.209067704</DistanceMeters>
          </Trackpoint>
          <Trackpoint>
            <Time>2022-07-10T06:28:29.000Z</Time>
            <Position>
              <LatitudeDegrees>42.78901278041303157806396484375</LatitudeDegrees>
              <LongitudeDegrees>-0.15559695661067962646484375</LongitudeDegrees>
            </Position>
            <AltitudeMeters>2572.39990234375</AltitudeMeters>
            <DistanceMeters>24464.413195905</DistanceMeters>
          </Trackpoint>
          <Trackpoint>
            <Time>2022-07-10T06:28:31.000Z</Time>
            <Position>
              <LatitudeDegrees>42.78902485035359859466552734375</LatitudeDegrees>
              <LongitudeDegrees>-0.15560902655124664306640625</LongitudeDegrees>
            </Position>
            <AltitudeMeters>2572.60009765625</AltitudeMeters>
            <DistanceMeters>24466.078198448</DistanceMeters>
          </Trackpoint>
          <Trackpoint>
            <Time>2022-07-10T06:28:37.000Z</Time>
            <Position>
              <LatitudeDegrees>42.7890368364751338958740234375</LatitudeDegrees>
              <LongitudeDegrees>-0.1556283049285411834716796875</LongitudeDegrees>
            </Position>
            <AltitudeMeters>2572.60009765625</AltitudeMeters>
            <DistanceMeters>24468.142707126</DistanceMeters>
          </Trackpoint>
          <Trackpoint>
            <Time>2022-07-10T06:28:38.000Z</Time>
            <Position>
              <LatitudeDegrees>42.789033986628055572509765625</LatitudeDegrees>
              <LongitudeDegrees>-0.1556286402046680450439453125</LongitudeDegrees>
            </Position>
            <AltitudeMeters>2572.60009765625</AltitudeMeters>
            <DistanceMeters>24468.443207982</DistanceMeters>
          </Trackpoint>
          <Trackpoint>
            <Time>2022-07-10T06:28:40.000Z</Time>
            <Position>
              <LatitudeDegrees>42.78902937658131122589111328125</LatitudeDegrees>
              <LongitudeDegrees>-0.15563274733722209930419921875</LongitudeDegrees>
            </Position>
            <AltitudeMeters>2573.199951171875</AltitudeMeters>
            <DistanceMeters>24469.05167584</DistanceMeters>
          </Trackpoint>
          <Trackpoint>
            <Time>2022-07-10T06:28:45.000Z</Time>
            <Position>
              <LatitudeDegrees>42.7890267781913280487060546875</LatitudeDegrees>
              <LongitudeDegrees>-0.15565739013254642486572265625</LongitudeDegrees>
            </Position>
            <AltitudeMeters>2573.39990234375</AltitudeMeters>
            <DistanceMeters>24471.085336336</DistanceMeters>
          </Trackpoint>
          <Trackpoint>
            <Time>2022-07-10T06:28:46.000Z</Time>
            <Position>
              <LatitudeDegrees>42.78902669437229633331298828125</LatitudeDegrees>
              <LongitudeDegrees>-0.1556564681231975555419921875</LongitudeDegrees>
            </Position>
            <AltitudeMeters>2573.199951171875</AltitudeMeters>
            <DistanceMeters>24471.085336336</DistanceMeters>
          </Trackpoint>
          <Trackpoint>
            <Time>2022-07-10T06:28:50.000Z</Time>
            <Position>
              <LatitudeDegrees>42.78902518562972545623779296875</LatitudeDegrees>
              <LongitudeDegrees>-0.15565521083772182464599609375</LongitudeDegrees>
            </Position>
            <AltitudeMeters>2573.199951171875</AltitudeMeters>
            <DistanceMeters>24471.275389764</DistanceMeters>
          </Trackpoint>
          <Trackpoint>
            <Time>2022-07-10T06:28:53.000Z</Time>
            <Position>
              <LatitudeDegrees>42.78903876431286334991455078125</LatitudeDegrees>
              <LongitudeDegrees>-0.15564657747745513916015625</LongitudeDegrees>
            </Position>
            <AltitudeMeters>2573.199951171875</AltitudeMeters>
            <DistanceMeters>24472.943101833</DistanceMeters>
          </Trackpoint>
          <Trackpoint>
            <Time>2022-07-10T06:28:56.000Z</Time>
            <Position>
              <LatitudeDegrees>42.7890425361692905426025390625</LatitudeDegrees>
              <LongitudeDegrees>-0.1556195877492427825927734375</LongitudeDegrees>
            </Position>
            <AltitudeMeters>2573.39990234375</AltitudeMeters>
            <DistanceMeters>24475.187825125</DistanceMeters>
          </Trackpoint>
          <Trackpoint>
            <Time>2022-07-10T06:28:59.000Z</Time>
            <Position>
              <LatitudeDegrees>42.7890660054981708526611328125</LatitudeDegrees>
              <LongitudeDegrees>-0.15560776926577091217041015625</LongitudeDegrees>
            </Position>
            <AltitudeMeters>2573.800048828125</AltitudeMeters>
            <DistanceMeters>24477.971313151</DistanceMeters>
          </Trackpoint>
          <Trackpoint>
            <Time>2022-07-10T06:29:01.000Z</Time>
            <Position>
              <LatitudeDegrees>42.78906340710818767547607421875</LatitudeDegrees>
              <LongitudeDegrees>-0.1556222699582576751708984375</LongitudeDegrees>
            </Position>
            <AltitudeMeters>2574.199951171875</AltitudeMeters>
            <DistanceMeters>24479.188248866</DistanceMeters>
          </Trackpoint>
          <Trackpoint>
            <Time>2022-07-10T06:29:04.000Z</Time>
            <Position>
              <LatitudeDegrees>42.78904697857797145843505859375</LatitudeDegrees>
              <LongitudeDegrees>-0.155607350170612335205078125</LongitudeDegrees>
            </Position>
            <AltitudeMeters>2574.39990234375</AltitudeMeters>
            <DistanceMeters>24481.384167995</DistanceMeters>
          </Trackpoint>
          <Trackpoint>
            <Time>2022-07-10T06:29:10.000Z</Time>
            <Position>
              <LatitudeDegrees>42.78905653394758701324462890625</LatitudeDegrees>
              <LongitudeDegrees>-0.155584551393985748291015625</LongitudeDegrees>
            </Position>
            <AltitudeMeters>2575.199951171875</AltitudeMeters>
            <DistanceMeters>24483.530173351</DistanceMeters>
          </Trackpoint>
          <Trackpoint>
            <Time>2022-07-10T06:29:11.000Z</Time>
            <Position>
              <LatitudeDegrees>42.789058126509189605712890625</LatitudeDegrees>
              <LongitudeDegrees>-0.15558564104139804840087890625</LongitudeDegrees>
            </Position>
            <AltitudeMeters>2575.199951171875</AltitudeMeters>
            <DistanceMeters>24483.762940313</DistanceMeters>
          </Trackpoint>
          <Trackpoint>
            <Time>2022-07-10T06:29:13.000Z</Time>
            <Position>
              <LatitudeDegrees>42.78907145373523235321044921875</LatitudeDegrees>
              <LongitudeDegrees>-0.15560424886643886566162109375</LongitudeDegrees>
            </Position>
            <AltitudeMeters>2575.39990234375</AltitudeMeters>
            <DistanceMeters>24485.887802243</DistanceMeters>
          </Trackpoint>
          <Trackpoint>
            <Time>2022-07-10T06:29:19.000Z</Time>
            <Position>
              <LatitudeDegrees>42.78907732106745243072509765625</LatitudeDegrees>
              <LongitudeDegrees>-0.15563878230750560760498046875</LongitudeDegrees>
            </Position>
            <AltitudeMeters>2575.199951171875</AltitudeMeters>
            <DistanceMeters>24488.782609826</DistanceMeters>
          </Trackpoint>
          <Trackpoint>
            <Time>2022-07-10T06:29:21.000Z</Time>
            <Position>
              <LatitudeDegrees>42.7890660054981708526611328125</LatitudeDegrees>
              <LongitudeDegrees>-0.1556283049285411834716796875</LongitudeDegrees>
            </Position>
            <AltitudeMeters>2575.199951171875</AltitudeMeters>
            <DistanceMeters>24490.303037256</DistanceMeters>
          </Trackpoint>
          <Trackpoint>
            <Time>2022-07-10T06:29:26.000Z</Time>
            <Position>
              <LatitudeDegrees>42.789043374359607696533203125</LatitudeDegrees>
              <LongitudeDegrees>-0.15562956221401691436767578125</LongitudeDegrees>
            </Position>
            <AltitudeMeters>2575.199951171875</AltitudeMeters>
            <DistanceMeters>24492.824380909</DistanceMeters>
          </Trackpoint>
          <Trackpoint>
            <Time>2022-07-10T06:29:28.000Z</Time>
            <Position>
              <LatitudeDegrees>42.78904438018798828125</LatitudeDegrees>
              <LongitudeDegrees>-0.155634842813014984130859375</LongitudeDegrees>
            </Position>
            <AltitudeMeters>2575</AltitudeMeters>
            <DistanceMeters>24493.270095707</DistanceMeters>
          </Trackpoint>
          <Trackpoint>
            <Time>2022-07-10T06:29:30.000Z</Time>
            <Position>
              <LatitudeDegrees>42.789047397673130035400390625</LatitudeDegrees>
              <LongitudeDegrees>-0.155642889440059661865234375</LongitudeDegrees>
            </Position>
            <AltitudeMeters>2574.800048828125</AltitudeMeters>
            <DistanceMeters>24494.006169472</DistanceMeters>
          </Trackpoint>
          <Trackpoint>
            <Time>2022-07-10T06:29:34.000Z</Time>
            <Position>
              <LatitudeDegrees>42.78906089253723621368408203125</LatitudeDegrees>
              <LongitudeDegrees>-0.15564523637294769287109375</LongitudeDegrees>
            </Position>
            <AltitudeMeters>2575</AltitudeMeters>
            <DistanceMeters>24495.520646087</DistanceMeters>
          </Trackpoint>
          <Trackpoint>
            <Time>2022-07-10T06:29:39.000Z</Time>
            <Position>
              <LatitudeDegrees>42.7890794165432453155517578125</LatitudeDegrees>
              <LongitudeDegrees>-0.15564045868813991546630859375</LongitudeDegrees>
            </Position>
            <AltitudeMeters>2574.800048828125</AltitudeMeters>
            <DistanceMeters>24497.61985482</DistanceMeters>
          </Trackpoint>
          <Trackpoint>
            <Time>2022-07-10T06:29:42.000Z</Time>
            <Position>
              <LatitudeDegrees>42.78906784951686859130859375</LatitudeDegrees>
              <LongitudeDegrees>-0.15563224442303180694580078125</LongitudeDegrees>
            </Position>
            <AltitudeMeters>2574.800048828125</AltitudeMeters>
            <DistanceMeters>24499.073484032</DistanceMeters>
          </Trackpoint>
          <Trackpoint>
            <Time>2022-07-10T06:29:43.000Z</Time>
            <Position>
              <LatitudeDegrees>42.78906692750751972198486328125</LatitudeDegrees>
              <LongitudeDegrees>-0.1556293107569217681884765625</LongitudeDegrees>
            </Position>
            <AltitudeMeters>2574.60009765625</AltitudeMeters>
            <DistanceMeters>24499.342260169</DistanceMeters>
          </Trackpoint>
          <Trackpoint>
            <Time>2022-07-10T06:29:46.000Z</Time>
            <Position>
              <LatitudeDegrees>42.7890847809612751007080078125</LatitudeDegrees>
              <LongitudeDegrees>-0.1556413806974887847900390625</LongitudeDegrees>
            </Position>
            <AltitudeMeters>2574.199951171875</AltitudeMeters>
            <DistanceMeters>24501.560681153</DistanceMeters>
          </Trackpoint>
          <Trackpoint>
            <Time>2022-07-10T06:29:48.000Z</Time>
            <Position>
              <LatitudeDegrees>42.78910003602504730224609375</LatitudeDegrees>
              <LongitudeDegrees>-0.15564079396426677703857421875</LongitudeDegrees>
            </Position>
            <AltitudeMeters>2574.199951171875</AltitudeMeters>
            <DistanceMeters>24503.260570697</DistanceMeters>
          </Trackpoint>
          <Trackpoint>
            <Time>2022-07-10T06:29:50.000Z</Time>
            <Position>
              <LatitudeDegrees>42.789106406271457672119140625</LatitudeDegrees>
              <LongitudeDegrees>-0.1556380279362201690673828125</LongitudeDegrees>
            </Position>
            <AltitudeMeters>2574</AltitudeMeters>
            <DistanceMeters>24504.008811794</DistanceMeters>
          </Trackpoint>
          <Trackpoint>
            <Time>2022-07-10T06:29:54.000Z</Time>
            <Position>
              <LatitudeDegrees>42.78910137712955474853515625</LatitudeDegrees>
              <LongitudeDegrees>-0.15566426329314708709716796875</LongitudeDegrees>
            </Position>
            <AltitudeMeters>2573.60009765625</AltitudeMeters>
            <DistanceMeters>24506.221118607</DistanceMeters>
          </Trackpoint>
          <Trackpoint>
            <Time>2022-07-10T06:30:00.000Z</Time>
            <Position>
              <LatitudeDegrees>42.7891048975288867950439453125</LatitudeDegrees>
              <LongitudeDegrees>-0.15565923415124416351318359375</LongitudeDegrees>
            </Position>
            <AltitudeMeters>2573.199951171875</AltitudeMeters>
            <DistanceMeters>24506.791278893</DistanceMeters>
          </Trackpoint>
          <Trackpoint>
            <Time>2022-07-10T06:30:03.000Z</Time>
            <Position>
              <LatitudeDegrees>42.7890851162374019622802734375</LatitudeDegrees>
              <LongitudeDegrees>-0.1556397043168544769287109375</LongitudeDegrees>
            </Position>
            <AltitudeMeters>2573.60009765625</AltitudeMeters>
            <DistanceMeters>24509.509109375</DistanceMeters>
          </Trackpoint>
          <Trackpoint>
            <Time>2022-07-10T06:30:04.000Z</Time>
            <Position>
              <LatitudeDegrees>42.789080254733562469482421875</LatitudeDegrees>
              <LongitudeDegrees>-0.155638195574283599853515625</LongitudeDegrees>
            </Position>
            <AltitudeMeters>2574</AltitudeMeters>
            <DistanceMeters>24510.063205575</DistanceMeters>
          </Trackpoint>
          <Trackpoint>
            <Time>2022-07-10T06:30:08.000Z</Time>
            <Position>
              <LatitudeDegrees>42.78906675986945629119873046875</LatitudeDegrees>
              <LongitudeDegrees>-0.15563140623271465301513671875</LongitudeDegrees>
            </Position>
            <AltitudeMeters>2586.60009765625</AltitudeMeters>
            <DistanceMeters>24511.667441152</DistanceMeters>
          </Trackpoint>
          <Trackpoint>
            <Time>2022-07-10T06:30:10.000Z</Time>
            <Position>
              <LatitudeDegrees>42.78907028026878833770751953125</LatitudeDegrees>
              <LongitudeDegrees>-0.15562713146209716796875</LongitudeDegrees>
            </Position>
            <AltitudeMeters>2586.60009765625</AltitudeMeters>
            <DistanceMeters>24512.187923903</DistanceMeters>
          </Trackpoint>
          <Trackpoint>
            <Time>2022-07-10T06:30:12.000Z</Time>
            <Position>
              <LatitudeDegrees>42.7890636585652828216552734375</LatitudeDegrees>
              <LongitudeDegrees>-0.1556299813091754913330078125</LongitudeDegrees>
            </Position>
            <AltitudeMeters>2581</AltitudeMeters>
            <DistanceMeters>24512.95992458</DistanceMeters>
          </Trackpoint>
          <Trackpoint>
            <Time>2022-07-10T06:30:13.000Z</Time>
            <Position>
              <LatitudeDegrees>42.7890599705278873443603515625</LatitudeDegrees>
              <LongitudeDegrees>-0.15562872402369976043701171875</LongitudeDegrees>
            </Position>
            <AltitudeMeters>2578.199951171875</AltitudeMeters>
            <DistanceMeters>24513.384896966</DistanceMeters>
          </Trackpoint>
          <Trackpoint>
            <Time>2022-07-10T06:30:14.000Z</Time>
            <Position>
              <LatitudeDegrees>42.789058797061443328857421875</LatitudeDegrees>
              <LongitudeDegrees>-0.1556266285479068756103515625</LongitudeDegrees>
            </Position>
            <AltitudeMeters>2576.800048828125</AltitudeMeters>
            <DistanceMeters>24513.597383159</DistanceMeters>
          </Trackpoint>
          <Trackpoint>
            <Time>2022-07-10T06:30:16.000Z</Time>
            <Position>
              <LatitudeDegrees>42.78906005434691905975341796875</LatitudeDegrees>
              <LongitudeDegrees>-0.15563526190817356109619140625</LongitudeDegrees>
            </Position>
            <AltitudeMeters>2575.60009765625</AltitudeMeters>
            <DistanceMeters>24514.321085054</DistanceMeters>
          </Trackpoint>
          <Trackpoint>
            <Time>2022-07-10T06:30:17.000Z</Time>
            <Position>
              <LatitudeDegrees>42.789060808718204498291015625</LatitudeDegrees>
              <LongitudeDegrees>-0.15563962049782276153564453125</LongitudeDegrees>
            </Position>
            <AltitudeMeters>2575.39990234375</AltitudeMeters>
            <DistanceMeters>24514.689121937</DistanceMeters>
          </Trackpoint>
          <Trackpoint>
            <Time>2022-07-10T06:30:20.000Z</Time>
            <Position>
              <LatitudeDegrees>42.78905485756695270538330078125</LatitudeDegrees>
              <LongitudeDegrees>-0.155656635761260986328125</LongitudeDegrees>
            </Position>
            <AltitudeMeters>2575.39990234375</AltitudeMeters>
            <DistanceMeters>24516.230196271</DistanceMeters>
          </Trackpoint>
          <Trackpoint>
            <Time>2022-07-10T06:30:26.000Z</Time>
            <Position>
              <LatitudeDegrees>42.78904446400701999664306640625</LatitudeDegrees>
              <LongitudeDegrees>-0.155649594962596893310546875</LongitudeDegrees>
            </Position>
            <AltitudeMeters>2575.199951171875</AltitudeMeters>
            <DistanceMeters>24517.526187868</DistanceMeters>
          </Trackpoint>
          <Trackpoint>
            <Time>2022-07-10T06:30:32.000Z</Time>
            <Position>
              <LatitudeDegrees>42.78903029859066009521484375</LatitudeDegrees>
              <LongitudeDegrees>-0.1556024886667728424072265625</LongitudeDegrees>
            </Position>
            <AltitudeMeters>2575.199951171875</AltitudeMeters>
            <DistanceMeters>24521.683538745</DistanceMeters>
          </Trackpoint>
          <Trackpoint>
            <Time>2022-07-10T06:30:38.000Z</Time>
            <Position>
              <LatitudeDegrees>42.789027281105518341064453125</LatitudeDegrees>
              <LongitudeDegrees>-0.1556001417338848114013671875</LongitudeDegrees>
            </Position>
            <AltitudeMeters>2575.199951171875</AltitudeMeters>
            <DistanceMeters>24522.075343925</DistanceMeters>
          </Trackpoint>
          <Trackpoint>
            <Time>2022-07-10T06:30:43.000Z</Time>
            <Position>
              <LatitudeDegrees>42.78903055004775524139404296875</LatitudeDegrees>
              <LongitudeDegrees>-0.1555962860584259033203125</LongitudeDegrees>
            </Position>
            <AltitudeMeters>2575.199951171875</AltitudeMeters>
            <DistanceMeters>24522.559886996</DistanceMeters>
          </Trackpoint>
          <Trackpoint>
            <Time>2022-07-10T06:30:49.000Z</Time>
            <Position>
              <LatitudeDegrees>42.78904546983540058135986328125</LatitudeDegrees>
              <LongitudeDegrees>-0.15558580867946147918701171875</LongitudeDegrees>
            </Position>
            <AltitudeMeters>2575.199951171875</AltitudeMeters>
            <DistanceMeters>24524.431696191</DistanceMeters>
          </Trackpoint>
          <Trackpoint>
            <Time>2022-07-10T06:30:55.000Z</Time>
            <Position>
              <LatitudeDegrees>42.78907463885843753814697265625</LatitudeDegrees>
              <LongitudeDegrees>-0.15561615116894245147705078125</LongitudeDegrees>
            </Position>
            <AltitudeMeters>2575.199951171875</AltitudeMeters>
            <DistanceMeters>24528.515634387</DistanceMeters>
          </Trackpoint>
          <Trackpoint>
            <Time>2022-07-10T06:30:57.000Z</Time>
            <Position>
              <LatitudeDegrees>42.78908905573189258575439453125</LatitudeDegrees>
              <LongitudeDegrees>-0.15562805347144603729248046875</LongitudeDegrees>
            </Position>
            <AltitudeMeters>2575.199951171875</AltitudeMeters>
            <DistanceMeters>24530.387443581</DistanceMeters>
          </Trackpoint>
          <Trackpoint>
            <Time>2022-07-10T06:30:58.000Z</Time>
            <Position>
              <LatitudeDegrees>42.78909458778798580169677734375</LatitudeDegrees>
              <LongitudeDegrees>-0.1556217670440673828125</LongitudeDegrees>
            </Position>
            <AltitudeMeters>2575.199951171875</AltitudeMeters>
            <DistanceMeters>24531.193771991</DistanceMeters>
          </Trackpoint>
          <Trackpoint>
            <Time>2022-07-10T06:31:04.000Z</Time>
            <Position>
              <LatitudeDegrees>42.789068184792995452880859375</LatitudeDegrees>
              <LongitudeDegrees>-0.15564389526844024658203125</LongitudeDegrees>
            </Position>
            <AltitudeMeters>2575.199951171875</AltitudeMeters>
            <DistanceMeters>24534.64364746</DistanceMeters>
          </Trackpoint>
          <Trackpoint>
            <Time>2022-07-10T06:31:08.000Z</Time>
            <Position>
              <LatitudeDegrees>42.78906256891787052154541015625</LatitudeDegrees>
              <LongitudeDegrees>-0.1556410454213619232177734375</LongitudeDegrees>
            </Position>
            <AltitudeMeters>2575.199951171875</AltitudeMeters>
            <DistanceMeters>24535.30201185</DistanceMeters>
          </Trackpoint>
          <Trackpoint>
            <Time>2022-07-10T06:31:11.000Z</Time>
            <Position>
              <LatitudeDegrees>42.78906776569783687591552734375</LatitudeDegrees>
              <LongitudeDegrees>-0.1556365191936492919921875</LongitudeDegrees>
            </Position>
            <AltitudeMeters>2575.199951171875</AltitudeMeters>
            <DistanceMeters>24535.987259232</DistanceMeters>
          </Trackpoint>
          <Trackpoint>
            <Time>2022-07-10T06:31:12.000Z</Time>
            <Position>
              <LatitudeDegrees>42.789070196449756622314453125</LatitudeDegrees>
              <LongitudeDegrees>-0.1556366868317127227783203125</LongitudeDegrees>
            </Position>
            <AltitudeMeters>2575.199951171875</AltitudeMeters>
            <DistanceMeters>24536.256035368</DistanceMeters>
          </Trackpoint>
          <Trackpoint>
            <Time>2022-07-10T06:31:18.000Z</Time>
            <Position>
              <LatitudeDegrees>42.7890888042747974395751953125</LatitudeDegrees>
              <LongitudeDegrees>-0.155607350170612335205078125</LongitudeDegrees>
            </Position>
            <AltitudeMeters>2575.199951171875</AltitudeMeters>
            <DistanceMeters>24539.422008339</DistanceMeters>
          </Trackpoint>
          <Trackpoint>
            <Time>2022-07-10T06:31:21.000Z</Time>
            <Position>
              <LatitudeDegrees>42.7890713699162006378173828125</LatitudeDegrees>
              <LongitudeDegrees>-0.1556128822267055511474609375</LongitudeDegrees>
            </Position>
            <AltitudeMeters>2575.199951171875</AltitudeMeters>
            <DistanceMeters>24541.413039117</DistanceMeters>
          </Trackpoint>
          <Trackpoint>
            <Time>2022-07-10T06:31:23.000Z</Time>
            <Position>
              <LatitudeDegrees>42.789063155651092529296875</LatitudeDegrees>
              <LongitudeDegrees>-0.15560424886643886566162109375</LongitudeDegrees>
            </Position>
            <AltitudeMeters>2575.199951171875</AltitudeMeters>
            <DistanceMeters>24542.561251276</DistanceMeters>
          </Trackpoint>
          <Trackpoint>
            <Time>2022-07-10T06:31:25.000Z</Time>
            <Position>
              <LatitudeDegrees>42.78906491585075855255126953125</LatitudeDegrees>
              <LongitudeDegrees>-0.1556048355996608734130859375</LongitudeDegrees>
            </Position>
            <AltitudeMeters>2575.199951171875</AltitudeMeters>
            <DistanceMeters>24542.751304705</DistanceMeters>
          </Trackpoint>
          <Trackpoint>
            <Time>2022-07-10T06:31:28.000Z</Time>
            <Position>
              <LatitudeDegrees>42.78908201493322849273681640625</LatitudeDegrees>
              <LongitudeDegrees>-0.1556142233312129974365234375</LongitudeDegrees>
            </Position>
            <AltitudeMeters>2575.199951171875</AltitudeMeters>
            <DistanceMeters>24544.804849372</DistanceMeters>
          </Trackpoint>
          <Trackpoint>
            <Time>2022-07-10T06:31:33.000Z</Time>
            <Position>
              <LatitudeDegrees>42.78904194943606853485107421875</LatitudeDegrees>
              <LongitudeDegrees>-0.155610032379627227783203125</LongitudeDegrees>
            </Position>
            <AltitudeMeters>2575.199951171875</AltitudeMeters>
            <DistanceMeters>24549.278175807</DistanceMeters>
          </Trackpoint>
          <Trackpoint>
            <Time>2022-07-10T06:31:38.000Z</Time>
            <Position>
              <LatitudeDegrees>42.7890492416918277740478515625</LatitudeDegrees>
              <LongitudeDegrees>-0.15562243759632110595703125</LongitudeDegrees>
            </Position>
            <AltitudeMeters>2575.199951171875</AltitudeMeters>
            <DistanceMeters>24550.574167404</DistanceMeters>
          </Trackpoint>
          <Trackpoint>
            <Time>2022-07-10T06:31:43.000Z</Time>
            <Position>
              <LatitudeDegrees>42.7890633232891559600830078125</LatitudeDegrees>
              <LongitudeDegrees>-0.15562050975859165191650390625</LongitudeDegrees>
            </Position>
            <AltitudeMeters>2575.199951171875</AltitudeMeters>
            <DistanceMeters>24552.150007187</DistanceMeters>
          </Trackpoint>
          <Trackpoint>
            <Time>2022-07-10T06:31:49.000Z</Time>
            <Position>
              <LatitudeDegrees>42.78907120227813720703125</LatitudeDegrees>
              <LongitudeDegrees>-0.15561682172119617462158203125</LongitudeDegrees>
            </Position>
            <AltitudeMeters>2575.199951171875</AltitudeMeters>
            <DistanceMeters>24553.081075036</DistanceMeters>
          </Trackpoint>
          <Trackpoint>
            <Time>2022-07-10T06:31:52.000Z</Time>
            <Position>
              <LatitudeDegrees>42.78908184729516506195068359375</LatitudeDegrees>
              <LongitudeDegrees>-0.15558916144073009490966796875</LongitudeDegrees>
            </Position>
            <AltitudeMeters>2575.199951171875</AltitudeMeters>
            <DistanceMeters>24555.634448332</DistanceMeters>
          </Trackpoint>
          <Trackpoint>
            <Time>2022-07-10T06:31:58.000Z</Time>
            <Position>
              <LatitudeDegrees>42.789092324674129486083984375</LatitudeDegrees>
              <LongitudeDegrees>-0.15560877509415149688720703125</LongitudeDegrees>
            </Position>
            <AltitudeMeters>2575.199951171875</AltitudeMeters>
            <DistanceMeters>24557.616387598</DistanceMeters>
          </Trackpoint>
          <Trackpoint>
            <Time>2022-07-10T06:32:04.000Z</Time>
            <Position>
              <LatitudeDegrees>42.7890965156257152557373046875</LatitudeDegrees>
              <LongitudeDegrees>-0.15559435822069644927978515625</LongitudeDegrees>
            </Position>
            <AltitudeMeters>2575.199951171875</AltitudeMeters>
            <DistanceMeters>24558.880635806</DistanceMeters>
          </Trackpoint>
          <Trackpoint>
            <Time>2022-07-10T06:32:07.000Z</Time>
            <Position>
              <LatitudeDegrees>42.7890961803495883941650390625</LatitudeDegrees>
              <LongitudeDegrees>-0.1555947773158550262451171875</LongitudeDegrees>
            </Position>
            <AltitudeMeters>2575.199951171875</AltitudeMeters>
            <DistanceMeters>24558.880635806</DistanceMeters>
          </Trackpoint>
          <Trackpoint>
            <Time>2022-07-10T06:32:08.000Z</Time>
            <Position>
              <LatitudeDegrees>42.789097018539905548095703125</LatitudeDegrees>
              <LongitudeDegrees>-0.15559536404907703399658203125</LongitudeDegrees>
            </Position>
            <AltitudeMeters>2575.199951171875</AltitudeMeters>
            <DistanceMeters>24558.97566252</DistanceMeters>
          </Trackpoint>
          <Trackpoint>
            <Time>2022-07-10T06:32:09.000Z</Time>
            <Position>
              <LatitudeDegrees>42.78909735381603240966796875</LatitudeDegrees>
              <LongitudeDegrees>-0.15559569932520389556884765625</LongitudeDegrees>
            </Position>
            <AltitudeMeters>2575.199951171875</AltitudeMeters>
            <DistanceMeters>24559.070689234</DistanceMeters>
          </Trackpoint>
          <Trackpoint>
            <Time>2022-07-10T06:32:10.000Z</Time>
            <Position>
              <LatitudeDegrees>42.7890981920063495635986328125</LatitudeDegrees>
              <LongitudeDegrees>-0.1555947773158550262451171875</LongitudeDegrees>
            </Position>
            <AltitudeMeters>2575.199951171875</AltitudeMeters>
            <DistanceMeters>24559.165715949</DistanceMeters>
          </Trackpoint>
          <Trackpoint>
            <Time>2022-07-10T06:32:11.000Z</Time>
            <Position>
              <LatitudeDegrees>42.7891012094914913177490234375</LatitudeDegrees>
              <LongitudeDegrees>-0.15559293329715728759765625</LongitudeDegrees>
            </Position>
            <AltitudeMeters>2575.199951171875</AltitudeMeters>
            <DistanceMeters>24559.545822806</DistanceMeters>
          </Trackpoint>
          <Trackpoint>
            <Time>2022-07-10T06:32:15.000Z</Time>
            <Position>
              <LatitudeDegrees>42.78910112567245960235595703125</LatitudeDegrees>
              <LongitudeDegrees>-0.1555877365171909332275390625</LongitudeDegrees>
            </Position>
            <AltitudeMeters>2575.199951171875</AltitudeMeters>
            <DistanceMeters>24559.970795192</DistanceMeters>
          </Trackpoint>
          <Trackpoint>
            <Time>2022-07-10T06:32:20.000Z</Time>
            <Position>
              <LatitudeDegrees>42.78909810818731784820556640625</LatitudeDegrees>
              <LongitudeDegrees>-0.155600644648075103759765625</LongitudeDegrees>
            </Position>
            <AltitudeMeters>2575.199951171875</AltitudeMeters>
            <DistanceMeters>24561.078987593</DistanceMeters>
          </Trackpoint>
          <Trackpoint>
            <Time>2022-07-10T06:32:23.000Z</Time>
            <Position>
              <LatitudeDegrees>42.78909944929182529449462890625</LatitudeDegrees>
              <LongitudeDegrees>-0.1556068472564220428466796875</LongitudeDegrees>
            </Position>
            <AltitudeMeters>2575.199951171875</AltitudeMeters>
            <DistanceMeters>24561.616539866</DistanceMeters>
          </Trackpoint>
          <Trackpoint>
            <Time>2022-07-10T06:32:29.000Z</Time>
            <Position>
              <LatitudeDegrees>42.78912258334457874298095703125</LatitudeDegrees>
              <LongitudeDegrees>-0.15560575760900974273681640625</LongitudeDegrees>
            </Position>
            <AltitudeMeters>2575.199951171875</AltitudeMeters>
            <DistanceMeters>24564.191044888</DistanceMeters>
          </Trackpoint>
          <Trackpoint>
            <Time>2022-07-10T06:32:33.000Z</Time>
            <Position>
              <LatitudeDegrees>42.78910716064274311065673828125</LatitudeDegrees>
              <LongitudeDegrees>-0.15558463521301746368408203125</LongitudeDegrees>
            </Position>
            <AltitudeMeters>2575.199951171875</AltitudeMeters>
            <DistanceMeters>24566.62491632</DistanceMeters>
          </Trackpoint>
          <Trackpoint>
            <Time>2022-07-10T06:32:38.000Z</Time>
            <Position>
              <LatitudeDegrees>42.7890723757445812225341796875</LatitudeDegrees>
              <LongitudeDegrees>-0.15559368766844272613525390625</LongitudeDegrees>
            </Position>
            <AltitudeMeters>2575.199951171875</AltitudeMeters>
            <DistanceMeters>24570.564802284</DistanceMeters>
          </Trackpoint>
          <Trackpoint>
            <Time>2022-07-10T06:32:42.000Z</Time>
            <Position>
              <LatitudeDegrees>42.78908167965710163116455078125</LatitudeDegrees>
              <LongitudeDegrees>-0.155612044036388397216796875</LongitudeDegrees>
            </Position>
            <AltitudeMeters>2575.199951171875</AltitudeMeters>
            <DistanceMeters>24572.387730733</DistanceMeters>
          </Trackpoint>
          <Trackpoint>
            <Time>2022-07-10T06:32:48.000Z</Time>
            <Position>
              <LatitudeDegrees>42.789131216704845428466796875</LatitudeDegrees>
              <LongitudeDegrees>-0.1555971242487430572509765625</LongitudeDegrees>
            </Position>
            <AltitudeMeters>2575.199951171875</AltitudeMeters>
            <DistanceMeters>24578.033629231</DistanceMeters>
          </Trackpoint>
          <Trackpoint>
            <Time>2022-07-10T06:32:54.000Z</Time>
            <Position>
              <LatitudeDegrees>42.78912476263940334320068359375</LatitudeDegrees>
              <LongitudeDegrees>-0.15560592524707317352294921875</LongitudeDegrees>
            </Position>
            <AltitudeMeters>2575.199951171875</AltitudeMeters>
            <DistanceMeters>24579.048236896</DistanceMeters>
          </Trackpoint>
          <Trackpoint>
            <Time>2022-07-10T06:32:57.000Z</Time>
            <Position>
              <LatitudeDegrees>42.789083607494831085205078125</LatitudeDegrees>
              <LongitudeDegrees>-0.15559025108814239501953125</LongitudeDegrees>
            </Position>
            <AltitudeMeters>2575.199951171875</AltitudeMeters>
            <DistanceMeters>24583.803372164</DistanceMeters>
          </Trackpoint>
          <Trackpoint>
            <Time>2022-07-10T06:32:59.000Z</Time>
            <Position>
              <LatitudeDegrees>42.7890710346400737762451171875</LatitudeDegrees>
              <LongitudeDegrees>-0.15558295883238315582275390625</LongitudeDegrees>
            </Position>
            <AltitudeMeters>2575.199951171875</AltitudeMeters>
            <DistanceMeters>24585.323799594</DistanceMeters>
          </Trackpoint>
          <Trackpoint>
            <Time>2022-07-10T06:33:05.000Z</Time>
            <Position>
              <LatitudeDegrees>42.789034657180309295654296875</LatitudeDegrees>
              <LongitudeDegrees>-0.1556226052343845367431640625</LongitudeDegrees>
            </Position>
            <AltitudeMeters>2575.199951171875</AltitudeMeters>
            <DistanceMeters>24590.507765981</DistanceMeters>
          </Trackpoint>
          <Trackpoint>
            <Time>2022-07-10T06:33:11.000Z</Time>
            <Position>
              <LatitudeDegrees>42.7890257723629474639892578125</LatitudeDegrees>
              <LongitudeDegrees>-0.15563056804239749908447265625</LongitudeDegrees>
            </Position>
            <AltitudeMeters>2575.199951171875</AltitudeMeters>
            <DistanceMeters>24591.694649263</DistanceMeters>
          </Trackpoint>
          <Trackpoint>
            <Time>2022-07-10T06:33:16.000Z</Time>
            <Position>
              <LatitudeDegrees>42.78903742320835590362548828125</LatitudeDegrees>
              <LongitudeDegrees>-0.15564414672553539276123046875</LongitudeDegrees>
            </Position>
            <AltitudeMeters>2575.199951171875</AltitudeMeters>
            <DistanceMeters>24593.399842687</DistanceMeters>
          </Trackpoint>
          <Trackpoint>
            <Time>2022-07-10T06:33:22.000Z</Time>
            <Position>
              <LatitudeDegrees>42.78902837075293064117431640625</LatitudeDegrees>
              <LongitudeDegrees>-0.15565386973321437835693359375</LongitudeDegrees>
            </Position>
            <AltitudeMeters>2575.199951171875</AltitudeMeters>
            <DistanceMeters>24594.681823152</DistanceMeters>
          </Trackpoint>
          <Trackpoint>
            <Time>2022-07-10T06:33:26.000Z</Time>
            <Position>
              <LatitudeDegrees>42.78902568854391574859619140625</LatitudeDegrees>
              <LongitudeDegrees>-0.15565772540867328643798828125</LongitudeDegrees>
            </Position>
            <AltitudeMeters>2575.199951171875</AltitudeMeters>
            <DistanceMeters>24595.117290264</DistanceMeters>
          </Trackpoint>
          <Trackpoint>
            <Time>2022-07-10T06:33:27.000Z</Time>
            <Position>
              <LatitudeDegrees>42.789025269448757171630859375</LatitudeDegrees>
              <LongitudeDegrees>-0.1556564681231975555419921875</LongitudeDegrees>
            </Position>
            <AltitudeMeters>2575.199951171875</AltitudeMeters>
            <DistanceMeters>24595.117290264</DistanceMeters>
          </Trackpoint>
          <Trackpoint>
            <Time>2022-07-10T06:33:30.000Z</Time>
            <Position>
              <LatitudeDegrees>42.78903507627546787261962890625</LatitudeDegrees>
              <LongitudeDegrees>-0.15564565546810626983642578125</LongitudeDegrees>
            </Position>
            <AltitudeMeters>2575.199951171875</AltitudeMeters>
            <DistanceMeters>24596.520342888</DistanceMeters>
          </Trackpoint>
          <Trackpoint>
            <Time>2022-07-10T06:33:36.000Z</Time>
            <Position>
              <LatitudeDegrees>42.78904396109282970428466796875</LatitudeDegrees>
              <LongitudeDegrees>-0.15565655194222927093505859375</LongitudeDegrees>
            </Position>
            <AltitudeMeters>2575.199951171875</AltitudeMeters>
            <DistanceMeters>24597.850716889</DistanceMeters>
          </Trackpoint>
          <Trackpoint>
            <Time>2022-07-10T06:33:39.000Z</Time>
            <Position>
              <LatitudeDegrees>42.78903834521770477294921875</LatitudeDegrees>
              <LongitudeDegrees>-0.15564817003905773162841796875</LongitudeDegrees>
            </Position>
            <AltitudeMeters>2575.199951171875</AltitudeMeters>
            <DistanceMeters>24598.776922731</DistanceMeters>
          </Trackpoint>
          <Trackpoint>
            <Time>2022-07-10T06:33:45.000Z</Time>
            <Position>
              <LatitudeDegrees>42.78904194943606853485107421875</LatitudeDegrees>
              <LongitudeDegrees>-0.15564599074423313140869140625</LongitudeDegrees>
            </Position>
            <AltitudeMeters>2575.199951171875</AltitudeMeters>
            <DistanceMeters>24599.22263753</DistanceMeters>
          </Trackpoint>
          <Trackpoint>
            <Time>2022-07-10T06:33:51.000Z</Time>
            <Position>
              <LatitudeDegrees>42.78906223364174365997314453125</LatitudeDegrees>
              <LongitudeDegrees>-0.155645906925201416015625</LongitudeDegrees>
            </Position>
            <AltitudeMeters>2575.199951171875</AltitudeMeters>
            <DistanceMeters>24601.479396957</DistanceMeters>
          </Trackpoint>
          <Trackpoint>
            <Time>2022-07-10T06:33:56.000Z</Time>
            <Position>
              <LatitudeDegrees>42.78908050619065761566162109375</LatitudeDegrees>
              <LongitudeDegrees>-0.15563459135591983795166015625</LongitudeDegrees>
            </Position>
            <AltitudeMeters>2575.199951171875</AltitudeMeters>
            <DistanceMeters>24603.712019227</DistanceMeters>
          </Trackpoint>
          <Trackpoint>
            <Time>2022-07-10T06:33:58.000Z</Time>
            <Position>
              <LatitudeDegrees>42.78908268548548221588134765625</LatitudeDegrees>
              <LongitudeDegrees>-0.15562855638563632965087890625</LongitudeDegrees>
            </Position>
            <AltitudeMeters>2575.199951171875</AltitudeMeters>
            <DistanceMeters>24604.2495715</DistanceMeters>
          </Trackpoint>
          <Trackpoint>
            <Time>2022-07-10T06:34:04.000Z</Time>
            <Position>
              <LatitudeDegrees>42.7890720404684543609619140625</LatitudeDegrees>
              <LongitudeDegrees>-0.15562520362436771392822265625</LongitudeDegrees>
            </Position>
            <AltitudeMeters>2575.199951171875</AltitudeMeters>
            <DistanceMeters>24605.466507215</DistanceMeters>
          </Trackpoint>
          <Trackpoint>
            <Time>2022-07-10T06:34:10.000Z</Time>
            <Position>
              <LatitudeDegrees>42.7890807576477527618408203125</LatitudeDegrees>
              <LongitudeDegrees>-0.1556383632123470306396484375</LongitudeDegrees>
            </Position>
            <AltitudeMeters>2575.199951171875</AltitudeMeters>
            <DistanceMeters>24606.917027057</DistanceMeters>
          </Trackpoint>
          <Trackpoint>
            <Time>2022-07-10T06:34:12.000Z</Time>
            <Position>
              <LatitudeDegrees>42.78906005434691905975341796875</LatitudeDegrees>
              <LongitudeDegrees>-0.15565386973321437835693359375</LongitudeDegrees>
            </Position>
            <AltitudeMeters>2575.199951171875</AltitudeMeters>
            <DistanceMeters>24609.547053399</DistanceMeters>
          </Trackpoint>
          <Trackpoint>
            <Time>2022-07-10T06:34:13.000Z</Time>
            <Position>
              <LatitudeDegrees>42.789051420986652374267578125</LatitudeDegrees>
              <LongitudeDegrees>-0.15565956942737102508544921875</LongitudeDegrees>
            </Position>
            <AltitudeMeters>2575.199951171875</AltitudeMeters>
            <DistanceMeters>24610.613725622</DistanceMeters>
          </Trackpoint>
          <Trackpoint>
            <Time>2022-07-10T06:34:17.000Z</Time>
            <Position>
              <LatitudeDegrees>42.78903826139867305755615234375</LatitudeDegrees>
              <LongitudeDegrees>-0.155658312141895294189453125</LongitudeDegrees>
            </Position>
            <AltitudeMeters>2575.199951171875</AltitudeMeters>
            <DistanceMeters>24612.07972637</DistanceMeters>
          </Trackpoint>
          <Trackpoint>
            <Time>2022-07-10T06:34:23.000Z</Time>
            <Position>
              <LatitudeDegrees>42.78907581232488155364990234375</LatitudeDegrees>
              <LongitudeDegrees>-0.1556497626006603240966796875</LongitudeDegrees>
            </Position>
            <AltitudeMeters>2575.199951171875</AltitudeMeters>
            <DistanceMeters>24616.316681877</DistanceMeters>
          </Trackpoint>
          <Trackpoint>
            <Time>2022-07-10T06:34:26.000Z</Time>
            <Position>
              <LatitudeDegrees>42.78909224085509777069091796875</LatitudeDegrees>
              <LongitudeDegrees>-0.15567884780466556549072265625</LongitudeDegrees>
            </Position>
            <AltitudeMeters>2575.199951171875</AltitudeMeters>
            <DistanceMeters>24619.312661848</DistanceMeters>
          </Trackpoint>
          <Trackpoint>
            <Time>2022-07-10T06:34:32.000Z</Time>
            <Position>
              <LatitudeDegrees>42.78907715342938899993896484375</LatitudeDegrees>
              <LongitudeDegrees>-0.15568018890917301177978515625</LongitudeDegrees>
            </Position>
            <AltitudeMeters>2575.199951171875</AltitudeMeters>
            <DistanceMeters>24620.993856045</DistanceMeters>
          </Trackpoint>
          <Trackpoint>
            <Time>2022-07-10T06:34:38.000Z</Time>
            <Position>
              <LatitudeDegrees>42.7890770696103572845458984375</LatitudeDegrees>
              <LongitudeDegrees>-0.1556866429746150970458984375</LongitudeDegrees>
            </Position>
            <AltitudeMeters>2575.199951171875</AltitudeMeters>
            <DistanceMeters>24621.514338795</DistanceMeters>
          </Trackpoint>
          <Trackpoint>
            <Time>2022-07-10T06:34:39.000Z</Time>
            <Position>
              <LatitudeDegrees>42.789085619151592254638671875</LatitudeDegrees>
              <LongitudeDegrees>-0.1556853018701076507568359375</LongitudeDegrees>
            </Position>
            <AltitudeMeters>2575.199951171875</AltitudeMeters>
            <DistanceMeters>24622.474061566</DistanceMeters>
          </Trackpoint>
          <Trackpoint>
            <Time>2022-07-10T06:34:45.000Z</Time>
            <Position>
              <LatitudeDegrees>42.78910581953823566436767578125</LatitudeDegrees>
              <LongitudeDegrees>-0.15568790026009082794189453125</LongitudeDegrees>
            </Position>
            <AltitudeMeters>2575.199951171875</AltitudeMeters>
            <DistanceMeters>24624.734818799</DistanceMeters>
          </Trackpoint>
          <Trackpoint>
            <Time>2022-07-10T06:34:51.000Z</Time>
            <Position>
              <LatitudeDegrees>42.7890774048864841461181640625</LatitudeDegrees>
              <LongitudeDegrees>-0.155714638531208038330078125</LongitudeDegrees>
            </Position>
            <AltitudeMeters>2575.199951171875</AltitudeMeters>
            <DistanceMeters>24628.578411528</DistanceMeters>
          </Trackpoint>
          <Trackpoint>
            <Time>2022-07-10T06:34:52.000Z</Time>
            <Position>
              <LatitudeDegrees>42.78907430358231067657470703125</LatitudeDegrees>
              <LongitudeDegrees>-0.15572461299598217010498046875</LongitudeDegrees>
            </Position>
            <AltitudeMeters>2575.199951171875</AltitudeMeters>
            <DistanceMeters>24629.459653024</DistanceMeters>
          </Trackpoint>
          <Trackpoint>
            <Time>2022-07-10T06:34:58.000Z</Time>
            <Position>
              <LatitudeDegrees>42.78906382620334625244140625</LatitudeDegrees>
              <LongitudeDegrees>-0.1557168178260326385498046875</LongitudeDegrees>
            </Position>
            <AltitudeMeters>2575.199951171875</AltitudeMeters>
            <DistanceMeters>24630.786628874</DistanceMeters>
          </Trackpoint>
          <Trackpoint>
            <Time>2022-07-10T06:35:01.000Z</Time>
            <Position>
              <LatitudeDegrees>42.78907279483973979949951171875</LatitudeDegrees>
              <LongitudeDegrees>-0.15571773983538150787353515625</LongitudeDegrees>
            </Position>
            <AltitudeMeters>2575.199951171875</AltitudeMeters>
            <DistanceMeters>24631.787797434</DistanceMeters>
          </Trackpoint>
          <Trackpoint>
            <Time>2022-07-10T06:35:07.000Z</Time>
            <Position>
              <LatitudeDegrees>42.7890579588711261749267578125</LatitudeDegrees>
              <LongitudeDegrees>-0.155762918293476104736328125</LongitudeDegrees>
            </Position>
            <AltitudeMeters>2575.199951171875</AltitudeMeters>
            <DistanceMeters>24635.830622976</DistanceMeters>
          </Trackpoint>
          <Trackpoint>
            <Time>2022-07-10T06:35:08.000Z</Time>
            <Position>
              <LatitudeDegrees>42.78906089253723621368408203125</LatitudeDegrees>
              <LongitudeDegrees>-0.15577532351016998291015625</LongitudeDegrees>
            </Position>
            <AltitudeMeters>2575.199951171875</AltitudeMeters>
            <DistanceMeters>24636.897295199</DistanceMeters>
          </Trackpoint>
          <Trackpoint>
            <Time>2022-07-10T06:35:14.000Z</Time>
            <Position>
              <LatitudeDegrees>42.78909827582538127899169921875</LatitudeDegrees>
              <LongitudeDegrees>-0.1558465696871280670166015625</LongitudeDegrees>
            </Position>
            <AltitudeMeters>2575.199951171875</AltitudeMeters>
            <DistanceMeters>24644.051487906</DistanceMeters>
          </Trackpoint>
          <Trackpoint>
            <Time>2022-07-10T06:35:16.000Z</Time>
            <Position>
              <LatitudeDegrees>42.78912392444908618927001953125</LatitudeDegrees>
              <LongitudeDegrees>-0.155860148370265960693359375</LongitudeDegrees>
            </Position>
            <AltitudeMeters>2575.199951171875</AltitudeMeters>
            <DistanceMeters>24647.114533682</DistanceMeters>
          </Trackpoint>
          <Trackpoint>
            <Time>2022-07-10T06:35:18.000Z</Time>
            <Position>
              <LatitudeDegrees>42.78914940543472766876220703125</LatitudeDegrees>
              <LongitudeDegrees>-0.15588303096592426300048828125</LongitudeDegrees>
            </Position>
            <AltitudeMeters>2574</AltitudeMeters>
            <DistanceMeters>24650.511655654</DistanceMeters>
          </Trackpoint>
          <Trackpoint>
            <Time>2022-07-10T06:35:23.000Z</Time>
            <Position>
              <LatitudeDegrees>42.78917488642036914825439453125</LatitudeDegrees>
              <LongitudeDegrees>-0.155918486416339874267578125</LongitudeDegrees>
            </Position>
            <AltitudeMeters>2572.60009765625</AltitudeMeters>
            <DistanceMeters>24654.566747417</DistanceMeters>
          </Trackpoint>
          <Trackpoint>
            <Time>2022-07-10T06:35:24.000Z</Time>
            <Position>
              <LatitudeDegrees>42.78918326832354068756103515625</LatitudeDegrees>
              <LongitudeDegrees>-0.1559235155582427978515625</LongitudeDegrees>
            </Position>
            <AltitudeMeters>2572.39990234375</AltitudeMeters>
            <DistanceMeters>24655.590216453</DistanceMeters>
          </Trackpoint>
          <Trackpoint>
            <Time>2022-07-10T06:35:29.000Z</Time>
            <Position>
              <LatitudeDegrees>42.78923548758029937744140625</LatitudeDegrees>
              <LongitudeDegrees>-0.155929885804653167724609375</LongitudeDegrees>
            </Position>
            <AltitudeMeters>2572</AltitudeMeters>
            <DistanceMeters>24661.425661446</DistanceMeters>
          </Trackpoint>
          <Trackpoint>
            <Time>2022-07-10T06:35:30.000Z</Time>
            <Position>
              <LatitudeDegrees>42.7892390079796314239501953125</LatitudeDegrees>
              <LongitudeDegrees>-0.1559240184724330902099609375</LongitudeDegrees>
            </Position>
            <AltitudeMeters>2571.800048828125</AltitudeMeters>
            <DistanceMeters>24662.041504941</DistanceMeters>
          </Trackpoint>
          <Trackpoint>
            <Time>2022-07-10T06:35:31.000Z</Time>
            <Position>
              <LatitudeDegrees>42.78923238627612590789794921875</LatitudeDegrees>
              <LongitudeDegrees>-0.155911780893802642822265625</LongitudeDegrees>
            </Position>
            <AltitudeMeters>2571.39990234375</AltitudeMeters>
            <DistanceMeters>24663.280501711</DistanceMeters>
          </Trackpoint>
          <Trackpoint>
            <Time>2022-07-10T06:35:32.000Z</Time>
            <Position>
              <LatitudeDegrees>42.78923238627612590789794921875</LatitudeDegrees>
              <LongitudeDegrees>-0.15590884722769260406494140625</LongitudeDegrees>
            </Position>
            <AltitudeMeters>2571.199951171875</AltitudeMeters>
            <DistanceMeters>24663.513268673</DistanceMeters>
          </Trackpoint>
          <Trackpoint>
            <Time>2022-07-10T06:35:34.000Z</Time>
            <Position>
              <LatitudeDegrees>42.78923406265676021575927734375</LatitudeDegrees>
              <LongitudeDegrees>-0.155901722609996795654296875</LongitudeDegrees>
            </Position>
            <AltitudeMeters>2570.800048828125</AltitudeMeters>
            <DistanceMeters>24664.129112168</DistanceMeters>
          </Trackpoint>
          <Trackpoint>
            <Time>2022-07-10T06:35:39.000Z</Time>
            <Position>
              <LatitudeDegrees>42.78922878205776214599609375</LatitudeDegrees>
              <LongitudeDegrees>-0.155872888863086700439453125</LongitudeDegrees>
            </Position>
            <AltitudeMeters>2570.60009765625</AltitudeMeters>
            <DistanceMeters>24666.555551914</DistanceMeters>
          </Trackpoint>
          <Trackpoint>
            <Time>2022-07-10T06:35:41.000Z</Time>
            <Position>
              <LatitudeDegrees>42.78923272155225276947021484375</LatitudeDegrees>
              <LongitudeDegrees>-0.15589023940265178680419921875</LongitudeDegrees>
            </Position>
            <AltitudeMeters>2570.800048828125</AltitudeMeters>
            <DistanceMeters>24668.039916645</DistanceMeters>
          </Trackpoint>
          <Trackpoint>
            <Time>2022-07-10T06:35:45.000Z</Time>
            <Position>
              <LatitudeDegrees>42.7892547659575939178466796875</LatitudeDegrees>
              <LongitudeDegrees>-0.1559729687869548797607421875</LongitudeDegrees>
            </Position>
            <AltitudeMeters>2571.39990234375</AltitudeMeters>
            <DistanceMeters>24675.228108171</DistanceMeters>
          </Trackpoint>
          <Trackpoint>
            <Time>2022-07-10T06:35:51.000Z</Time>
            <Position>
              <LatitudeDegrees>42.7892973460257053375244140625</LatitudeDegrees>
              <LongitudeDegrees>-0.15604295767843723297119140625</LongitudeDegrees>
            </Position>
            <AltitudeMeters>2571.60009765625</AltitudeMeters>
            <DistanceMeters>24682.654189024</DistanceMeters>
          </Trackpoint>
          <Trackpoint>
            <Time>2022-07-10T06:35:52.000Z</Time>
            <Position>
              <LatitudeDegrees>42.78930061496794223785400390625</LatitudeDegrees>
              <LongitudeDegrees>-0.15604798682034015655517578125</LongitudeDegrees>
            </Position>
            <AltitudeMeters>2571.39990234375</AltitudeMeters>
            <DistanceMeters>24683.208285224</DistanceMeters>
          </Trackpoint>
          <Trackpoint>
            <Time>2022-07-10T06:35:56.000Z</Time>
            <Position>
              <LatitudeDegrees>42.78932106681168079376220703125</LatitudeDegrees>
              <LongitudeDegrees>-0.15607212670147418975830078125</LongitudeDegrees>
            </Position>
            <AltitudeMeters>2571</AltitudeMeters>
            <DistanceMeters>24686.219297803</DistanceMeters>
          </Trackpoint>
          <Trackpoint>
            <Time>2022-07-10T06:35:58.000Z</Time>
            <Position>
              <LatitudeDegrees>42.789341099560260772705078125</LatitudeDegrees>
              <LongitudeDegrees>-0.156092159450054168701171875</LongitudeDegrees>
            </Position>
            <AltitudeMeters>2570.800048828125</AltitudeMeters>
            <DistanceMeters>24688.983252338</DistanceMeters>
          </Trackpoint>
          <Trackpoint>
            <Time>2022-07-10T06:35:59.000Z</Time>
            <Position>
              <LatitudeDegrees>42.78935073874890804290771484375</LatitudeDegrees>
              <LongitudeDegrees>-0.15610062517225742340087890625</LongitudeDegrees>
            </Position>
            <AltitudeMeters>2570.800048828125</AltitudeMeters>
            <DistanceMeters>24690.258169496</DistanceMeters>
          </Trackpoint>
          <Trackpoint>
            <Time>2022-07-10T06:36:01.000Z</Time>
            <Position>
              <LatitudeDegrees>42.7893649041652679443359375</LatitudeDegrees>
              <LongitudeDegrees>-0.156123004853725433349609375</LongitudeDegrees>
            </Position>
            <AltitudeMeters>2570.199951171875</AltitudeMeters>
            <DistanceMeters>24692.671548726</DistanceMeters>
          </Trackpoint>
          <Trackpoint>
            <Time>2022-07-10T06:36:03.000Z</Time>
            <Position>
              <LatitudeDegrees>42.7893744595348834991455078125</LatitudeDegrees>
              <LongitudeDegrees>-0.15614672563970088958740234375</LongitudeDegrees>
            </Position>
            <AltitudeMeters>2570.199951171875</AltitudeMeters>
            <DistanceMeters>24694.883855538</DistanceMeters>
          </Trackpoint>
          <Trackpoint>
            <Time>2022-07-10T06:36:04.000Z</Time>
            <Position>
              <LatitudeDegrees>42.78938007541000843048095703125</LatitudeDegrees>
              <LongitudeDegrees>-0.15615745447576045989990234375</LongitudeDegrees>
            </Position>
            <AltitudeMeters>2570</AltitudeMeters>
            <DistanceMeters>24695.958960084</DistanceMeters>
          </Trackpoint>
          <Trackpoint>
            <Time>2022-07-10T06:36:06.000Z</Time>
            <Position>
              <LatitudeDegrees>42.789391390979290008544921875</LatitudeDegrees>
              <LongitudeDegrees>-0.1561702787876129150390625</LongitudeDegrees>
            </Position>
            <AltitudeMeters>2570</AltitudeMeters>
            <DistanceMeters>24697.599375514</DistanceMeters>
          </Trackpoint>
          <Trackpoint>
            <Time>2022-07-10T06:36:09.000Z</Time>
            <Position>
              <LatitudeDegrees>42.78941209428012371063232421875</LatitudeDegrees>
              <LongitudeDegrees>-0.1561783254146575927734375</LongitudeDegrees>
            </Position>
            <AltitudeMeters>2569</AltitudeMeters>
            <DistanceMeters>24699.995858065</DistanceMeters>
          </Trackpoint>
          <Trackpoint>
            <Time>2022-07-10T06:36:10.000Z</Time>
            <Position>
              <LatitudeDegrees>42.78942198492586612701416015625</LatitudeDegrees>
              <LongitudeDegrees>-0.1561815105378627777099609375</LongitudeDegrees>
            </Position>
            <AltitudeMeters>2568.60009765625</AltitudeMeters>
            <DistanceMeters>24701.128232056</DistanceMeters>
          </Trackpoint>
          <Trackpoint>
            <Time>2022-07-10T06:36:11.000Z</Time>
            <Position>
              <LatitudeDegrees>42.78943221084773540496826171875</LatitudeDegrees>
              <LongitudeDegrees>-0.15618008561432361602783203125</LongitudeDegrees>
            </Position>
            <AltitudeMeters>2568.60009765625</AltitudeMeters>
            <DistanceMeters>24702.276444214</DistanceMeters>
          </Trackpoint>
          <Trackpoint>
            <Time>2022-07-10T06:36:12.000Z</Time>
            <Position>
              <LatitudeDegrees>42.78943824581801891326904296875</LatitudeDegrees>
              <LongitudeDegrees>-0.1561810076236724853515625</LongitudeDegrees>
            </Position>
            <AltitudeMeters>2568.199951171875</AltitudeMeters>
            <DistanceMeters>24702.955070693</DistanceMeters>
          </Trackpoint>
          <Trackpoint>
            <Time>2022-07-10T06:36:14.000Z</Time>
            <Position>
              <LatitudeDegrees>42.789449729025363922119140625</LatitudeDegrees>
              <LongitudeDegrees>-0.15618964098393917083740234375</LongitudeDegrees>
            </Position>
            <AltitudeMeters>2568</AltitudeMeters>
            <DistanceMeters>24704.417988366</DistanceMeters>
          </Trackpoint>
          <Trackpoint>
            <Time>2022-07-10T06:36:17.000Z</Time>
            <Position>
              <LatitudeDegrees>42.7894757129251956939697265625</LatitudeDegrees>
              <LongitudeDegrees>-0.156212188303470611572265625</LongitudeDegrees>
            </Position>
            <AltitudeMeters>2567.199951171875</AltitudeMeters>
            <DistanceMeters>24707.846859832</DistanceMeters>
          </Trackpoint>
          <Trackpoint>
            <Time>2022-07-10T06:36:18.000Z</Time>
            <Position>
              <LatitudeDegrees>42.78948317281901836395263671875</LatitudeDegrees>
              <LongitudeDegrees>-0.15621981583535671234130859375</LongitudeDegrees>
            </Position>
            <AltitudeMeters>2567</AltitudeMeters>
            <DistanceMeters>24708.887825333</DistanceMeters>
          </Trackpoint>
          <Trackpoint>
            <Time>2022-07-10T06:36:19.000Z</Time>
            <Position>
              <LatitudeDegrees>42.78948987834155559539794921875</LatitudeDegrees>
              <LongitudeDegrees>-0.1562304608523845672607421875</LongitudeDegrees>
            </Position>
            <AltitudeMeters>2566.800048828125</AltitudeMeters>
            <DistanceMeters>24710.032098501</DistanceMeters>
          </Trackpoint>
          <Trackpoint>
            <Time>2022-07-10T06:36:22.000Z</Time>
            <Position>
              <LatitudeDegrees>42.78949792496860027313232421875</LatitudeDegrees>
              <LongitudeDegrees>-0.156275220215320587158203125</LongitudeDegrees>
            </Position>
            <AltitudeMeters>2565.800048828125</AltitudeMeters>
            <DistanceMeters>24713.794964412</DistanceMeters>
          </Trackpoint>
          <Trackpoint>
            <Time>2022-07-10T06:36:24.000Z</Time>
            <Position>
              <LatitudeDegrees>42.7894998528063297271728515625</LatitudeDegrees>
              <LongitudeDegrees>-0.15632408671081066131591796875</LongitudeDegrees>
            </Position>
            <AltitudeMeters>2565</AltitudeMeters>
            <DistanceMeters>24717.791738765</DistanceMeters>
          </Trackpoint>
          <Trackpoint>
            <Time>2022-07-10T06:36:25.000Z</Time>
            <Position>
              <LatitudeDegrees>42.7895058877766132354736328125</LatitudeDegrees>
              <LongitudeDegrees>-0.15635342337191104888916015625</LongitudeDegrees>
            </Position>
            <AltitudeMeters>2564.800048828125</AltitudeMeters>
            <DistanceMeters>24720.28064062</DistanceMeters>
          </Trackpoint>
          <Trackpoint>
            <Time>2022-07-10T06:36:26.000Z</Time>
            <Position>
              <LatitudeDegrees>42.7895099110901355743408203125</LatitudeDegrees>
              <LongitudeDegrees>-0.15637655742466449737548828125</LongitudeDegrees>
            </Position>
            <AltitudeMeters>2563.800048828125</AltitudeMeters>
            <DistanceMeters>24722.218812903</DistanceMeters>
          </Trackpoint>
          <Trackpoint>
            <Time>2022-07-10T06:36:27.000Z</Time>
            <Position>
              <LatitudeDegrees>42.78951351530849933624267578125</LatitudeDegrees>
              <LongitudeDegrees>-0.156400613486766815185546875</LongitudeDegrees>
            </Position>
            <AltitudeMeters>2563</AltitudeMeters>
            <DistanceMeters>24724.223403639</DistanceMeters>
          </Trackpoint>
          <Trackpoint>
            <Time>2022-07-10T06:36:28.000Z</Time>
            <Position>
              <LatitudeDegrees>42.789514102041721343994140625</LatitudeDegrees>
              <LongitudeDegrees>-0.1564312912523746490478515625</LongitudeDegrees>
            </Position>
            <AltitudeMeters>2561.800048828125</AltitudeMeters>
            <DistanceMeters>24726.730380544</DistanceMeters>
          </Trackpoint>
          <Trackpoint>
            <Time>2022-07-10T06:36:30.000Z</Time>
            <Position>
              <LatitudeDegrees>42.78951468877494335174560546875</LatitudeDegrees>
              <LongitudeDegrees>-0.1564641483128070831298828125</LongitudeDegrees>
            </Position>
            <AltitudeMeters>2560.60009765625</AltitudeMeters>
            <DistanceMeters>24729.416461533</DistanceMeters>
          </Trackpoint>
          <Trackpoint>
            <Time>2022-07-10T06:36:32.000Z</Time>
            <Position>
              <LatitudeDegrees>42.7895203046500682830810546875</LatitudeDegrees>
              <LongitudeDegrees>-0.1564862765371799468994140625</LongitudeDegrees>
            </Position>
            <AltitudeMeters>2559.39990234375</AltitudeMeters>
            <DistanceMeters>24731.32883727</DistanceMeters>
          </Trackpoint>
          <Trackpoint>
            <Time>2022-07-10T06:36:33.000Z</Time>
            <Position>
              <LatitudeDegrees>42.7895199693739414215087890625</LatitudeDegrees>
              <LongitudeDegrees>-0.15649490989744663238525390625</LongitudeDegrees>
            </Position>
            <AltitudeMeters>2558.800048828125</AltitudeMeters>
            <DistanceMeters>24732.039952086</DistanceMeters>
          </Trackpoint>
          <Trackpoint>
            <Time>2022-07-10T06:36:34.000Z</Time>
            <Position>
              <LatitudeDegrees>42.7895192988216876983642578125</LatitudeDegrees>
              <LongitudeDegrees>-0.1565027050673961639404296875</LongitudeDegrees>
            </Position>
            <AltitudeMeters>2558.39990234375</AltitudeMeters>
            <DistanceMeters>24732.68445462</DistanceMeters>
          </Trackpoint>
          <Trackpoint>
            <Time>2022-07-10T06:36:35.000Z</Time>
            <Position>
              <LatitudeDegrees>42.789517454802989959716796875</LatitudeDegrees>
              <LongitudeDegrees>-0.15650647692382335662841796875</LongitudeDegrees>
            </Position>
            <AltitudeMeters>2558</AltitudeMeters>
            <DistanceMeters>24733.064561477</DistanceMeters>
          </Trackpoint>
          <Trackpoint>
            <Time>2022-07-10T06:36:36.000Z</Time>
            <Position>
              <LatitudeDegrees>42.789513766765594482421875</LatitudeDegrees>
              <LongitudeDegrees>-0.15651200897991657257080078125</LongitudeDegrees>
            </Position>
            <AltitudeMeters>2557.199951171875</AltitudeMeters>
            <DistanceMeters>24733.680404973</DistanceMeters>
          </Trackpoint>
          <Trackpoint>
            <Time>2022-07-10T06:36:37.000Z</Time>
            <Position>
              <LatitudeDegrees>42.7895105816423892974853515625</LatitudeDegrees>
              <LongitudeDegrees>-0.15651469118893146514892578125</LongitudeDegrees>
            </Position>
            <AltitudeMeters>2556.800048828125</AltitudeMeters>
            <DistanceMeters>24734.083569177</DistanceMeters>
          </Trackpoint>
          <Trackpoint>
            <Time>2022-07-10T06:36:38.000Z</Time>
            <Position>
              <LatitudeDegrees>42.7895082347095012664794921875</LatitudeDegrees>
              <LongitudeDegrees>-0.15651821158826351165771484375</LongitudeDegrees>
            </Position>
            <AltitudeMeters>2556.199951171875</AltitudeMeters>
            <DistanceMeters>24734.463676035</DistanceMeters>
          </Trackpoint>
          <Trackpoint>
            <Time>2022-07-10T06:36:39.000Z</Time>
            <Position>
              <LatitudeDegrees>42.78950748033821582794189453125</LatitudeDegrees>
              <LongitudeDegrees>-0.15652407892048358917236328125</LongitudeDegrees>
            </Position>
            <AltitudeMeters>2555.60009765625</AltitudeMeters>
            <DistanceMeters>24734.948219106</DistanceMeters>
          </Trackpoint>
          <Trackpoint>
            <Time>2022-07-10T06:36:41.000Z</Time>
            <Position>
              <LatitudeDegrees>42.7895011939108371734619140625</LatitudeDegrees>
              <LongitudeDegrees>-0.1565377414226531982421875</LongitudeDegrees>
            </Position>
            <AltitudeMeters>2555</AltitudeMeters>
            <DistanceMeters>24736.264947885</DistanceMeters>
          </Trackpoint>
          <Trackpoint>
            <Time>2022-07-10T06:36:42.000Z</Time>
            <Position>
              <LatitudeDegrees>42.78949624858796596527099609375</LatitudeDegrees>
              <LongitudeDegrees>-0.15654352493584156036376953125</LongitudeDegrees>
            </Position>
            <AltitudeMeters>2554.60009765625</AltitudeMeters>
            <DistanceMeters>24736.98864978</DistanceMeters>
          </Trackpoint>
          <Trackpoint>
            <Time>2022-07-10T06:36:44.000Z</Time>
            <Position>
              <LatitudeDegrees>42.789503037929534912109375</LatitudeDegrees>
              <LongitudeDegrees>-0.15658023767173290252685546875</LongitudeDegrees>
            </Position>
            <AltitudeMeters>2554</AltitudeMeters>
            <DistanceMeters>24740.082495451</DistanceMeters>
          </Trackpoint>
          <Trackpoint>
            <Time>2022-07-10T06:36:46.000Z</Time>
            <Position>
              <LatitudeDegrees>42.7895182929933071136474609375</LatitudeDegrees>
              <LongitudeDegrees>-0.15663187019526958465576171875</LongitudeDegrees>
            </Position>
            <AltitudeMeters>2553.60009765625</AltitudeMeters>
            <DistanceMeters>24744.628905571</DistanceMeters>
          </Trackpoint>
          <Trackpoint>
            <Time>2022-07-10T06:36:47.000Z</Time>
            <Position>
              <LatitudeDegrees>42.78952541761100292205810546875</LatitudeDegrees>
              <LongitudeDegrees>-0.15665701590478420257568359375</LongitudeDegrees>
            </Position>
            <AltitudeMeters>2553</AltitudeMeters>
            <DistanceMeters>24746.828933065</DistanceMeters>
          </Trackpoint>
          <Trackpoint>
            <Time>2022-07-10T06:36:49.000Z</Time>
            <Position>
              <LatitudeDegrees>42.789541594684123992919921875</LatitudeDegrees>
              <LongitudeDegrees>-0.15669372864067554473876953125</LongitudeDegrees>
            </Position>
            <AltitudeMeters>2552.60009765625</AltitudeMeters>
            <DistanceMeters>24750.32560627</DistanceMeters>
          </Trackpoint>
          <Trackpoint>
            <Time>2022-07-10T06:36:50.000Z</Time>
            <Position>
              <LatitudeDegrees>42.78954989276826381683349609375</LatitudeDegrees>
              <LongitudeDegrees>-0.15670605003833770751953125</LongitudeDegrees>
            </Position>
            <AltitudeMeters>2552.199951171875</AltitudeMeters>
            <DistanceMeters>24751.689496202</DistanceMeters>
          </Trackpoint>
          <Trackpoint>
            <Time>2022-07-10T06:36:51.000Z</Time>
            <Position>
              <LatitudeDegrees>42.7895608730614185333251953125</LatitudeDegrees>
              <LongitudeDegrees>-0.156718455255031585693359375</LongitudeDegrees>
            </Position>
            <AltitudeMeters>2551.199951171875</AltitudeMeters>
            <DistanceMeters>24753.27959727</DistanceMeters>
          </Trackpoint>
          <Trackpoint>
            <Time>2022-07-10T06:36:52.000Z</Time>
            <Position>
              <LatitudeDegrees>42.78956942260265350341796875</LatitudeDegrees>
              <LongitudeDegrees>-0.1567249931395053863525390625</LongitudeDegrees>
            </Position>
            <AltitudeMeters>2550.39990234375</AltitudeMeters>
            <DistanceMeters>24754.371371097</DistanceMeters>
          </Trackpoint>
          <Trackpoint>
            <Time>2022-07-10T06:36:53.000Z</Time>
            <Position>
              <LatitudeDegrees>42.789573781192302703857421875</LatitudeDegrees>
              <LongitudeDegrees>-0.15673060901463031768798828125</LongitudeDegrees>
            </Position>
            <AltitudeMeters>2549.800048828125</AltitudeMeters>
            <DistanceMeters>24755.029735487</DistanceMeters>
          </Trackpoint>
          <Trackpoint>
            <Time>2022-07-10T06:36:54.000Z</Time>
            <Position>
              <LatitudeDegrees>42.78958006761968135833740234375</LatitudeDegrees>
              <LongitudeDegrees>-0.15673714689910411834716796875</LongitudeDegrees>
            </Position>
            <AltitudeMeters>2549.39990234375</AltitudeMeters>
            <DistanceMeters>24755.910976983</DistanceMeters>
          </Trackpoint>
          <Trackpoint>
            <Time>2022-07-10T06:36:55.000Z</Time>
            <Position>
              <LatitudeDegrees>42.78958878479897975921630859375</LatitudeDegrees>
              <LongitudeDegrees>-0.15674686990678310394287109375</LongitudeDegrees>
            </Position>
            <AltitudeMeters>2548.800048828125</AltitudeMeters>
            <DistanceMeters>24757.164465435</DistanceMeters>
          </Trackpoint>
          <Trackpoint>
            <Time>2022-07-10T06:36:56.000Z</Time>
            <Position>
              <LatitudeDegrees>42.78959817253053188323974609375</LatitudeDegrees>
              <LongitudeDegrees>-0.1567615382373332977294921875</LongitudeDegrees>
            </Position>
            <AltitudeMeters>2548.60009765625</AltitudeMeters>
            <DistanceMeters>24758.754566503</DistanceMeters>
          </Trackpoint>
          <Trackpoint>
            <Time>2022-07-10T06:36:58.000Z</Time>
            <Position>
              <LatitudeDegrees>42.78960873372852802276611328125</LatitudeDegrees>
              <LongitudeDegrees>-0.1567873544991016387939453125</LongitudeDegrees>
            </Position>
            <AltitudeMeters>2548</AltitudeMeters>
            <DistanceMeters>24761.167945732</DistanceMeters>
          </Trackpoint>
          <Trackpoint>
            <Time>2022-07-10T06:36:59.000Z</Time>
            <Position>
              <LatitudeDegrees>42.7896138466894626617431640625</LatitudeDegrees>
              <LongitudeDegrees>-0.1567980833351612091064453125</LongitudeDegrees>
            </Position>
            <AltitudeMeters>2547.39990234375</AltitudeMeters>
            <DistanceMeters>24762.21323959</DistanceMeters>
          </Trackpoint>
          <Trackpoint>
            <Time>2022-07-10T06:37:00.000Z</Time>
            <Position>
              <LatitudeDegrees>42.78961644507944583892822265625</LatitudeDegrees>
              <LongitudeDegrees>-0.15680487267673015594482421875</LongitudeDegrees>
            </Position>
            <AltitudeMeters>2547</AltitudeMeters>
            <DistanceMeters>24762.843575504</DistanceMeters>
          </Trackpoint>
          <Trackpoint>
            <Time>2022-07-10T06:37:03.000Z</Time>
            <Position>
              <LatitudeDegrees>42.78962583281099796295166015625</LatitudeDegrees>
              <LongitudeDegrees>-0.1568295992910861968994140625</LongitudeDegrees>
            </Position>
            <AltitudeMeters>2546</AltitudeMeters>
            <DistanceMeters>24765.120253759</DistanceMeters>
          </Trackpoint>
          <Trackpoint>
            <Time>2022-07-10T06:37:04.000Z</Time>
            <Position>
              <LatitudeDegrees>42.78962977230548858642578125</LatitudeDegrees>
              <LongitudeDegrees>-0.1568406634032726287841796875</LongitudeDegrees>
            </Position>
            <AltitudeMeters>2545.60009765625</AltitudeMeters>
            <DistanceMeters>24766.125921976</DistanceMeters>
          </Trackpoint>
          <Trackpoint>
            <Time>2022-07-10T06:37:05.000Z</Time>
            <Position>
              <LatitudeDegrees>42.78963513672351837158203125</LatitudeDegrees>
              <LongitudeDegrees>-0.1568510569632053375244140625</LongitudeDegrees>
            </Position>
            <AltitudeMeters>2545.60009765625</AltitudeMeters>
            <DistanceMeters>24767.162541046</DistanceMeters>
          </Trackpoint>
          <Trackpoint>
            <Time>2022-07-10T06:37:06.000Z</Time>
            <Position>
              <LatitudeDegrees>42.78963823802769184112548828125</LatitudeDegrees>
              <LongitudeDegrees>-0.156856589019298553466796875</LongitudeDegrees>
            </Position>
            <AltitudeMeters>2544.800048828125</AltitudeMeters>
            <DistanceMeters>24767.732701332</DistanceMeters>
          </Trackpoint>
          <Trackpoint>
            <Time>2022-07-10T06:37:08.000Z</Time>
            <Position>
              <LatitudeDegrees>42.7896403335034847259521484375</LatitudeDegrees>
              <LongitudeDegrees>-0.15686555765569210052490234375</LongitudeDegrees>
            </Position>
            <AltitudeMeters>2543.39990234375</AltitudeMeters>
            <DistanceMeters>24768.498831196</DistanceMeters>
          </Trackpoint>
          <Trackpoint>
            <Time>2022-07-10T06:37:10.000Z</Time>
            <Position>
              <LatitudeDegrees>42.78964829631149768829345703125</LatitudeDegrees>
              <LongitudeDegrees>-0.15688148327171802520751953125</LongitudeDegrees>
            </Position>
            <AltitudeMeters>2542</AltitudeMeters>
            <DistanceMeters>24770.071803207</DistanceMeters>
          </Trackpoint>
          <Trackpoint>
            <Time>2022-07-10T06:37:12.000Z</Time>
            <Position>
              <LatitudeDegrees>42.789658270776271820068359375</LatitudeDegrees>
              <LongitudeDegrees>-0.1569047011435031890869140625</LongitudeDegrees>
            </Position>
            <AltitudeMeters>2541.199951171875</AltitudeMeters>
            <DistanceMeters>24772.269777478</DistanceMeters>
          </Trackpoint>
          <Trackpoint>
            <Time>2022-07-10T06:37:13.000Z</Time>
            <Position>
              <LatitudeDegrees>42.78966539539396762847900390625</LatitudeDegrees>
              <LongitudeDegrees>-0.15692004002630710601806640625</LongitudeDegrees>
            </Position>
            <AltitudeMeters>2540.800048828125</AltitudeMeters>
            <DistanceMeters>24773.751097354</DistanceMeters>
          </Trackpoint>
          <Trackpoint>
            <Time>2022-07-10T06:37:15.000Z</Time>
            <Position>
              <LatitudeDegrees>42.7896812371909618377685546875</LatitudeDegrees>
              <LongitudeDegrees>-0.15694166533648967742919921875</LongitudeDegrees>
            </Position>
            <AltitudeMeters>2539.60009765625</AltitudeMeters>
            <DistanceMeters>24776.247244935</DistanceMeters>
          </Trackpoint>
          <Trackpoint>
            <Time>2022-07-10T06:37:17.000Z</Time>
            <Position>
              <LatitudeDegrees>42.7896986715495586395263671875</LatitudeDegrees>
              <LongitudeDegrees>-0.15696295537054538726806640625</LongitudeDegrees>
            </Position>
            <AltitudeMeters>2538.199951171875</AltitudeMeters>
            <DistanceMeters>24778.851393051</DistanceMeters>
          </Trackpoint>
          <Trackpoint>
            <Time>2022-07-10T06:37:18.000Z</Time>
            <Position>
              <LatitudeDegrees>42.78970831073820590972900390625</LatitudeDegrees>
              <LongitudeDegrees>-0.1569673977792263031005859375</LongitudeDegrees>
            </Position>
            <AltitudeMeters>2537.800048828125</AltitudeMeters>
            <DistanceMeters>24779.983767042</DistanceMeters>
          </Trackpoint>
          <Trackpoint>
            <Time>2022-07-10T06:37:19.000Z</Time>
            <Position>
              <LatitudeDegrees>42.7897140942513942718505859375</LatitudeDegrees>
              <LongitudeDegrees>-0.156964547932147979736328125</LongitudeDegrees>
            </Position>
            <AltitudeMeters>2537.39990234375</AltitudeMeters>
            <DistanceMeters>24780.669014425</DistanceMeters>
          </Trackpoint>
          <Trackpoint>
            <Time>2022-07-10T06:37:20.000Z</Time>
            <Position>
              <LatitudeDegrees>42.78971870429813861846923828125</LatitudeDegrees>
              <LongitudeDegrees>-0.15695692040026187896728515625</LongitudeDegrees>
            </Position>
            <AltitudeMeters>2537</AltitudeMeters>
            <DistanceMeters>24781.480923028</DistanceMeters>
          </Trackpoint>
          <Trackpoint>
            <Time>2022-07-10T06:37:21.000Z</Time>
            <Position>
              <LatitudeDegrees>42.78972306288778781890869140625</LatitudeDegrees>
              <LongitudeDegrees>-0.15695147216320037841796875</LongitudeDegrees>
            </Position>
            <AltitudeMeters>2536.39990234375</AltitudeMeters>
            <DistanceMeters>24782.139287418</DistanceMeters>
          </Trackpoint>
          <Trackpoint>
            <Time>2022-07-10T06:37:22.000Z</Time>
            <Position>
              <LatitudeDegrees>42.78972574509680271148681640625</LatitudeDegrees>
              <LongitudeDegrees>-0.15694619156420230865478515625</LongitudeDegrees>
            </Position>
            <AltitudeMeters>2536</AltitudeMeters>
            <DistanceMeters>24782.668373771</DistanceMeters>
          </Trackpoint>
          <Trackpoint>
            <Time>2022-07-10T06:37:24.000Z</Time>
            <Position>
              <LatitudeDegrees>42.78973647393286228179931640625</LatitudeDegrees>
              <LongitudeDegrees>-0.156949125230312347412109375</LongitudeDegrees>
            </Position>
            <AltitudeMeters>2535.39990234375</AltitudeMeters>
            <DistanceMeters>24783.885309487</DistanceMeters>
          </Trackpoint>
          <Trackpoint>
            <Time>2022-07-10T06:37:25.000Z</Time>
            <Position>
              <LatitudeDegrees>42.789743430912494659423828125</LatitudeDegrees>
              <LongitudeDegrees>-0.1569508016109466552734375</LongitudeDegrees>
            </Position>
            <AltitudeMeters>2535.199951171875</AltitudeMeters>
            <DistanceMeters>24784.67466066</DistanceMeters>
          </Trackpoint>
          <Trackpoint>
            <Time>2022-07-10T06:37:26.000Z</Time>
            <Position>
              <LatitudeDegrees>42.78974837623536586761474609375</LatitudeDegrees>
              <LongitudeDegrees>-0.1569459401071071624755859375</LongitudeDegrees>
            </Position>
            <AltitudeMeters>2534.800048828125</AltitudeMeters>
            <DistanceMeters>24785.346601002</DistanceMeters>
          </Trackpoint>
          <Trackpoint>
            <Time>2022-07-10T06:37:29.000Z</Time>
            <Position>
              <LatitudeDegrees>42.78976916335523128509521484375</LatitudeDegrees>
              <LongitudeDegrees>-0.1569231413304805755615234375</LongitudeDegrees>
            </Position>
            <AltitudeMeters>2533.60009765625</AltitudeMeters>
            <DistanceMeters>24788.315330462</DistanceMeters>
          </Trackpoint>
          <Trackpoint>
            <Time>2022-07-10T06:37:30.000Z</Time>
            <Position>
              <LatitudeDegrees>42.78978005982935428619384765625</LatitudeDegrees>
              <LongitudeDegrees>-0.156911909580230712890625</LongitudeDegrees>
            </Position>
            <AltitudeMeters>2533.199951171875</AltitudeMeters>
            <DistanceMeters>24789.835757892</DistanceMeters>
          </Trackpoint>
          <Trackpoint>
            <Time>2022-07-10T06:37:33.000Z</Time>
            <Position>
              <LatitudeDegrees>42.7898052893579006195068359375</LatitudeDegrees>
              <LongitudeDegrees>-0.1568513922393321990966796875</LongitudeDegrees>
            </Position>
            <AltitudeMeters>2531.800048828125</AltitudeMeters>
            <DistanceMeters>24795.519912492</DistanceMeters>
          </Trackpoint>
          <Trackpoint>
            <Time>2022-07-10T06:37:34.000Z</Time>
            <Position>
              <LatitudeDegrees>42.78981409035623073577880859375</LatitudeDegrees>
              <LongitudeDegrees>-0.1568483747541904449462890625</LongitudeDegrees>
            </Position>
            <AltitudeMeters>2531.199951171875</AltitudeMeters>
            <DistanceMeters>24796.525580709</DistanceMeters>
          </Trackpoint>
          <Trackpoint>
            <Time>2022-07-10T06:37:35.000Z</Time>
            <Position>
              <LatitudeDegrees>42.78982666321098804473876953125</LatitudeDegrees>
              <LongitudeDegrees>-0.1568523980677127838134765625</LongitudeDegrees>
            </Position>
            <AltitudeMeters>2530.199951171875</AltitudeMeters>
            <DistanceMeters>24797.963595836</DistanceMeters>
          </Trackpoint>
          <Trackpoint>
            <Time>2022-07-10T06:37:36.000Z</Time>
            <Position>
              <LatitudeDegrees>42.78984074480831623077392578125</LatitudeDegrees>
              <LongitudeDegrees>-0.156849883496761322021484375</LongitudeDegrees>
            </Position>
            <AltitudeMeters>2529.800048828125</AltitudeMeters>
            <DistanceMeters>24799.548007793</DistanceMeters>
          </Trackpoint>
          <Trackpoint>
            <Time>2022-07-10T06:37:38.000Z</Time>
            <Position>
              <LatitudeDegrees>42.789860107004642486572265625</LatitudeDegrees>
              <LongitudeDegrees>-0.156833790242671966552734375</LongitudeDegrees>
            </Position>
            <AltitudeMeters>2529</AltitudeMeters>
            <DistanceMeters>24802.069351446</DistanceMeters>
          </Trackpoint>
          <Trackpoint>
            <Time>2022-07-10T06:37:40.000Z</Time>
            <Position>
              <LatitudeDegrees>42.78987460769712924957275390625</LatitudeDegrees>
              <LongitudeDegrees>-0.15681602060794830322265625</LongitudeDegrees>
            </Position>
            <AltitudeMeters>2528.39990234375</AltitudeMeters>
            <DistanceMeters>24804.240457133</DistanceMeters>
          </Trackpoint>
          <Trackpoint>
            <Time>2022-07-10T06:37:41.000Z</Time>
            <Position>
              <LatitudeDegrees>42.789881229400634765625</LatitudeDegrees>
              <LongitudeDegrees>-0.15681509859859943389892578125</LongitudeDegrees>
            </Position>
            <AltitudeMeters>2528.199951171875</AltitudeMeters>
            <DistanceMeters>24804.976530898</DistanceMeters>
          </Trackpoint>
          <Trackpoint>
            <Time>2022-07-10T06:37:42.000Z</Time>
            <Position>
              <LatitudeDegrees>42.7898904494941234588623046875</LatitudeDegrees>
              <LongitudeDegrees>-0.15681828372180461883544921875</LongitudeDegrees>
            </Position>
            <AltitudeMeters>2528</AltitudeMeters>
            <DistanceMeters>24806.034703605</DistanceMeters>
          </Trackpoint>
          <Trackpoint>
            <Time>2022-07-10T06:37:43.000Z</Time>
            <Position>
              <LatitudeDegrees>42.78990042395889759063720703125</LatitudeDegrees>
              <LongitudeDegrees>-0.1568306051194667816162109375</LongitudeDegrees>
            </Position>
            <AltitudeMeters>2527.60009765625</AltitudeMeters>
            <DistanceMeters>24807.5311858</DistanceMeters>
          </Trackpoint>
          <Trackpoint>
            <Time>2022-07-10T06:37:45.000Z</Time>
            <Position>
              <LatitudeDegrees>42.7899192832410335540771484375</LatitudeDegrees>
              <LongitudeDegrees>-0.15685013495385646820068359375</LongitudeDegrees>
            </Position>
            <AltitudeMeters>2526.800048828125</AltitudeMeters>
            <DistanceMeters>24810.168070109</DistanceMeters>
          </Trackpoint>
          <Trackpoint>
            <Time>2022-07-10T06:37:47.000Z</Time>
            <Position>
              <LatitudeDegrees>42.7899424172937870025634765625</LatitudeDegrees>
              <LongitudeDegrees>-0.1568658091127872467041015625</LongitudeDegrees>
            </Position>
            <AltitudeMeters>2525.800048828125</AltitudeMeters>
            <DistanceMeters>24813.044100363</DistanceMeters>
          </Trackpoint>
          <Trackpoint>
            <Time>2022-07-10T06:37:49.000Z</Time>
            <Position>
              <LatitudeDegrees>42.78996915556490421295166015625</LatitudeDegrees>
              <LongitudeDegrees>-0.15687092207372188568115234375</LongitudeDegrees>
            </Position>
            <AltitudeMeters>2525</AltitudeMeters>
            <DistanceMeters>24816.049108923</DistanceMeters>
          </Trackpoint>
          <Trackpoint>
            <Time>2022-07-10T06:37:50.000Z</Time>
            <Position>
              <LatitudeDegrees>42.78998290188610553741455078125</LatitudeDegrees>
              <LongitudeDegrees>-0.15687343664467334747314453125</LongitudeDegrees>
            </Position>
            <AltitudeMeters>2524.39990234375</AltitudeMeters>
            <DistanceMeters>24817.593110277</DistanceMeters>
          </Trackpoint>
          <Trackpoint>
            <Time>2022-07-10T06:37:53.000Z</Time>
            <Position>
              <LatitudeDegrees>42.7900238893926143646240234375</LatitudeDegrees>
              <LongitudeDegrees>-0.15687980689108371734619140625</LongitudeDegrees>
            </Position>
            <AltitudeMeters>2523.800048828125</AltitudeMeters>
            <DistanceMeters>24822.183992373</DistanceMeters>
          </Trackpoint>
          <Trackpoint>
            <Time>2022-07-10T06:37:54.000Z</Time>
            <Position>
              <LatitudeDegrees>42.79003956355154514312744140625</LatitudeDegrees>
              <LongitudeDegrees>-0.156889446079730987548828125</LongitudeDegrees>
            </Position>
            <AltitudeMeters>2523.199951171875</AltitudeMeters>
            <DistanceMeters>24824.098727612</DistanceMeters>
          </Trackpoint>
          <Trackpoint>
            <Time>2022-07-10T06:37:55.000Z</Time>
            <Position>
              <LatitudeDegrees>42.79005263932049274444580078125</LatitudeDegrees>
              <LongitudeDegrees>-0.15689925290644168853759765625</LongitudeDegrees>
            </Position>
            <AltitudeMeters>2522.800048828125</AltitudeMeters>
            <DistanceMeters>24825.758297832</DistanceMeters>
          </Trackpoint>
          <Trackpoint>
            <Time>2022-07-10T06:37:57.000Z</Time>
            <Position>
              <LatitudeDegrees>42.7900815568864345550537109375</LatitudeDegrees>
              <LongitudeDegrees>-0.15692196786403656005859375</LongitudeDegrees>
            </Position>
            <AltitudeMeters>2521.800048828125</AltitudeMeters>
            <DistanceMeters>24829.472857942</DistanceMeters>
          </Trackpoint>
          <Trackpoint>
            <Time>2022-07-10T06:37:58.000Z</Time>
            <Position>
              <LatitudeDegrees>42.7900946326553821563720703125</LatitudeDegrees>
              <LongitudeDegrees>-0.156933031976222991943359375</LongitudeDegrees>
            </Position>
            <AltitudeMeters>2521.39990234375</AltitudeMeters>
            <DistanceMeters>24831.185976398</DistanceMeters>
          </Trackpoint>
          <Trackpoint>
            <Time>2022-07-10T06:37:59.000Z</Time>
            <Position>
              <LatitudeDegrees>42.7901050262153148651123046875</LatitudeDegrees>
              <LongitudeDegrees>-0.15693864785134792327880859375</LongitudeDegrees>
            </Position>
            <AltitudeMeters>2520.800048828125</AltitudeMeters>
            <DistanceMeters>24832.432240073</DistanceMeters>
          </Trackpoint>
          <Trackpoint>
            <Time>2022-07-10T06:38:00.000Z</Time>
            <Position>
              <LatitudeDegrees>42.79011852107942104339599609375</LatitudeDegrees>
              <LongitudeDegrees>-0.15694568865001201629638671875</LongitudeDegrees>
            </Position>
            <AltitudeMeters>2520.199951171875</AltitudeMeters>
            <DistanceMeters>24834.042094706</DistanceMeters>
          </Trackpoint>
          <Trackpoint>
            <Time>2022-07-10T06:38:01.000Z</Time>
            <Position>
              <LatitudeDegrees>42.79013461433351039886474609375</LatitudeDegrees>
              <LongitudeDegrees>-0.156950466334819793701171875</LongitudeDegrees>
            </Position>
            <AltitudeMeters>2519.39990234375</AltitudeMeters>
            <DistanceMeters>24835.877365398</DistanceMeters>
          </Trackpoint>
          <Trackpoint>
            <Time>2022-07-10T06:38:02.000Z</Time>
            <Position>
              <LatitudeDegrees>42.79015121050179004669189453125</LatitudeDegrees>
              <LongitudeDegrees>-0.15695591457188129425048828125</LongitudeDegrees>
            </Position>
            <AltitudeMeters>2519.199951171875</AltitudeMeters>
            <DistanceMeters>24837.777899686</DistanceMeters>
          </Trackpoint>
          <Trackpoint>
            <Time>2022-07-10T06:38:04.000Z</Time>
            <Position>
              <LatitudeDegrees>42.79018674977123737335205078125</LatitudeDegrees>
              <LongitudeDegrees>-0.1569586805999279022216796875</LongitudeDegrees>
            </Position>
            <AltitudeMeters>2517.39990234375</AltitudeMeters>
            <DistanceMeters>24841.739499471</DistanceMeters>
          </Trackpoint>
          <Trackpoint>
            <Time>2022-07-10T06:38:06.000Z</Time>
            <Position>
              <LatitudeDegrees>42.7902146615087985992431640625</LatitudeDegrees>
              <LongitudeDegrees>-0.15693730674684047698974609375</LongitudeDegrees>
            </Position>
            <AltitudeMeters>2516.39990234375</AltitudeMeters>
            <DistanceMeters>24845.3039514</DistanceMeters>
          </Trackpoint>
          <Trackpoint>
            <Time>2022-07-10T06:38:08.000Z</Time>
            <Position>
              <LatitudeDegrees>42.79024156741797924041748046875</LatitudeDegrees>
              <LongitudeDegrees>-0.1569238118827342987060546875</LongitudeDegrees>
            </Position>
            <AltitudeMeters>2514.60009765625</AltitudeMeters>
            <DistanceMeters>24848.496905566</DistanceMeters>
          </Trackpoint>
          <Trackpoint>
            <Time>2022-07-10T06:38:10.000Z</Time>
            <Position>
              <LatitudeDegrees>42.79026553966104984283447265625</LatitudeDegrees>
              <LongitudeDegrees>-0.1569221355020999908447265625</LongitudeDegrees>
            </Position>
            <AltitudeMeters>2513.60009765625</AltitudeMeters>
            <DistanceMeters>24851.167815597</DistanceMeters>
          </Trackpoint>
          <Trackpoint>
            <Time>2022-07-10T06:38:11.000Z</Time>
            <Position>
              <LatitudeDegrees>42.79027710668742656707763671875</LatitudeDegrees>
              <LongitudeDegrees>-0.156922638416290283203125</LongitudeDegrees>
            </Position>
            <AltitudeMeters>2512.60009765625</AltitudeMeters>
            <DistanceMeters>24852.456820665</DistanceMeters>
          </Trackpoint>
          <Trackpoint>
            <Time>2022-07-10T06:38:13.000Z</Time>
            <Position>
              <LatitudeDegrees>42.790296636521816253662109375</LatitudeDegrees>
              <LongitudeDegrees>-0.15691786073148250579833984375</LongitudeDegrees>
            </Position>
            <AltitudeMeters>2511.39990234375</AltitudeMeters>
            <DistanceMeters>24854.665041958</DistanceMeters>
          </Trackpoint>
          <Trackpoint>
            <Time>2022-07-10T06:38:15.000Z</Time>
            <Position>
              <LatitudeDegrees>42.79030644334852695465087890625</LatitudeDegrees>
              <LongitudeDegrees>-0.15692909248173236846923828125</LongitudeDegrees>
            </Position>
            <AltitudeMeters>2510.60009765625</AltitudeMeters>
            <DistanceMeters>24856.090442674</DistanceMeters>
          </Trackpoint>
          <Trackpoint>
            <Time>2022-07-10T06:38:16.000Z</Time>
            <Position>
              <LatitudeDegrees>42.7903115563094615936279296875</LatitudeDegrees>
              <LongitudeDegrees>-0.15693596564233303070068359375</LongitudeDegrees>
            </Position>
            <AltitudeMeters>2510</AltitudeMeters>
            <DistanceMeters>24856.885493207</DistanceMeters>
          </Trackpoint>
          <Trackpoint>
            <Time>2022-07-10T06:38:17.000Z</Time>
            <Position>
              <LatitudeDegrees>42.7903155796229839324951171875</LatitudeDegrees>
              <LongitudeDegrees>-0.15694342553615570068359375</LongitudeDegrees>
            </Position>
            <AltitudeMeters>2509.199951171875</AltitudeMeters>
            <DistanceMeters>24857.645706922</DistanceMeters>
          </Trackpoint>
          <Trackpoint>
            <Time>2022-07-10T06:38:18.000Z</Time>
            <Position>
              <LatitudeDegrees>42.79031901620328426361083984375</LatitudeDegrees>
              <LongitudeDegrees>-0.15694610774517059326171875</LongitudeDegrees>
            </Position>
            <AltitudeMeters>2508.800048828125</AltitudeMeters>
            <DistanceMeters>24858.091421721</DistanceMeters>
          </Trackpoint>
          <Trackpoint>
            <Time>2022-07-10T06:38:21.000Z</Time>
            <Position>
              <LatitudeDegrees>42.79032421298325061798095703125</LatitudeDegrees>
              <LongitudeDegrees>-0.15694300644099712371826171875</LongitudeDegrees>
            </Position>
            <AltitudeMeters>2508</AltitudeMeters>
            <DistanceMeters>24858.721757634</DistanceMeters>
          </Trackpoint>
          <Trackpoint>
            <Time>2022-07-10T06:38:22.000Z</Time>
            <Position>
              <LatitudeDegrees>42.790322788059711456298828125</LatitudeDegrees>
              <LongitudeDegrees>-0.1569462753832340240478515625</LongitudeDegrees>
            </Position>
            <AltitudeMeters>2508</AltitudeMeters>
            <DistanceMeters>24859.02225849</DistanceMeters>
          </Trackpoint>
          <Trackpoint>
            <Time>2022-07-10T06:38:23.000Z</Time>
            <Position>
              <LatitudeDegrees>42.7903246320784091949462890625</LatitudeDegrees>
              <LongitudeDegrees>-0.15695272944867610931396484375</LongitudeDegrees>
            </Position>
            <AltitudeMeters>2507.800048828125</AltitudeMeters>
            <DistanceMeters>24859.592418776</DistanceMeters>
          </Trackpoint>
          <Trackpoint>
            <Time>2022-07-10T06:38:26.000Z</Time>
            <Position>
              <LatitudeDegrees>42.7903439104557037353515625</LatitudeDegrees>
              <LongitudeDegrees>-0.15696999616920948028564453125</LongitudeDegrees>
            </Position>
            <AltitudeMeters>2507.800048828125</AltitudeMeters>
            <DistanceMeters>24862.159899215</DistanceMeters>
          </Trackpoint>
          <Trackpoint>
            <Time>2022-07-10T06:38:27.000Z</Time>
            <Position>
              <LatitudeDegrees>42.790351621806621551513671875</LatitudeDegrees>
              <LongitudeDegrees>-0.1569761149585247039794921875</LongitudeDegrees>
            </Position>
            <AltitudeMeters>2507.800048828125</AltitudeMeters>
            <DistanceMeters>24863.147445799</DistanceMeters>
          </Trackpoint>
          <Trackpoint>
            <Time>2022-07-10T06:38:28.000Z</Time>
            <Position>
              <LatitudeDegrees>42.790356315672397613525390625</LatitudeDegrees>
              <LongitudeDegrees>-0.1569803059101104736328125</LongitudeDegrees>
            </Position>
            <AltitudeMeters>2507.39990234375</AltitudeMeters>
            <DistanceMeters>24863.763289295</DistanceMeters>
          </Trackpoint>
          <Trackpoint>
            <Time>2022-07-10T06:38:29.000Z</Time>
            <Position>
              <LatitudeDegrees>42.79036109335720539093017578125</LatitudeDegrees>
              <LongitudeDegrees>-0.156979970633983612060546875</LongitudeDegrees>
            </Position>
            <AltitudeMeters>2506.39990234375</AltitudeMeters>
            <DistanceMeters>24864.292375648</DistanceMeters>
          </Trackpoint>
          <Trackpoint>
            <Time>2022-07-10T06:38:32.000Z</Time>
            <Position>
              <LatitudeDegrees>42.7903688885271549224853515625</LatitudeDegrees>
              <LongitudeDegrees>-0.15698391012847423553466796875</LongitudeDegrees>
            </Position>
            <AltitudeMeters>2505.39990234375</AltitudeMeters>
            <DistanceMeters>24865.213693827</DistanceMeters>
          </Trackpoint>
          <Trackpoint>
            <Time>2022-07-10T06:38:33.000Z</Time>
            <Position>
              <LatitudeDegrees>42.79037416912615299224853515625</LatitudeDegrees>
              <LongitudeDegrees>-0.15697955153882503509521484375</LongitudeDegrees>
            </Position>
            <AltitudeMeters>2505.39990234375</AltitudeMeters>
            <DistanceMeters>24865.90549875</DistanceMeters>
          </Trackpoint>
          <Trackpoint>
            <Time>2022-07-10T06:38:38.000Z</Time>
            <Position>
              <LatitudeDegrees>42.79038741253316402435302734375</LatitudeDegrees>
              <LongitudeDegrees>-0.1569546572864055633544921875</LongitudeDegrees>
            </Position>
            <AltitudeMeters>2506.199951171875</AltitudeMeters>
            <DistanceMeters>24868.419669291</DistanceMeters>
          </Trackpoint>
          <Trackpoint>
            <Time>2022-07-10T06:38:39.000Z</Time>
            <Position>
              <LatitudeDegrees>42.79038741253316402435302734375</LatitudeDegrees>
              <LongitudeDegrees>-0.15695147216320037841796875</LongitudeDegrees>
            </Position>
            <AltitudeMeters>2506.39990234375</AltitudeMeters>
            <DistanceMeters>24868.688445428</DistanceMeters>
          </Trackpoint>
          <Trackpoint>
            <Time>2022-07-10T06:38:41.000Z</Time>
            <Position>
              <LatitudeDegrees>42.79038749635219573974609375</LatitudeDegrees>
              <LongitudeDegrees>-0.1569513045251369476318359375</LongitudeDegrees>
            </Position>
            <AltitudeMeters>2506.800048828125</AltitudeMeters>
            <DistanceMeters>24868.688445428</DistanceMeters>
          </Trackpoint>
          <Trackpoint>
            <Time>2022-07-10T06:38:46.000Z</Time>
            <Position>
              <LatitudeDegrees>42.79040384106338024139404296875</LatitudeDegrees>
              <LongitudeDegrees>-0.15694610774517059326171875</LongitudeDegrees>
            </Position>
            <AltitudeMeters>2507.39990234375</AltitudeMeters>
            <DistanceMeters>24870.555424139</DistanceMeters>
          </Trackpoint>
          <Trackpoint>
            <Time>2022-07-10T06:38:49.000Z</Time>
            <Position>
              <LatitudeDegrees>42.79041037894785404205322265625</LatitudeDegrees>
              <LongitudeDegrees>-0.15693965367972850799560546875</LongitudeDegrees>
            </Position>
            <AltitudeMeters>2507.39990234375</AltitudeMeters>
            <DistanceMeters>24871.451904369</DistanceMeters>
          </Trackpoint>
          <Trackpoint>
            <Time>2022-07-10T06:38:50.000Z</Time>
            <Position>
              <LatitudeDegrees>42.79041071422398090362548828125</LatitudeDegrees>
              <LongitudeDegrees>-0.15694183297455310821533203125</LongitudeDegrees>
            </Position>
            <AltitudeMeters>2507.39990234375</AltitudeMeters>
            <DistanceMeters>24871.641957798</DistanceMeters>
          </Trackpoint>
          <Trackpoint>
            <Time>2022-07-10T06:38:56.000Z</Time>
            <Position>
              <LatitudeDegrees>42.79038305394351482391357421875</LatitudeDegrees>
              <LongitudeDegrees>-0.156926997005939483642578125</LongitudeDegrees>
            </Position>
            <AltitudeMeters>2508</AltitudeMeters>
            <DistanceMeters>24874.950197911</DistanceMeters>
          </Trackpoint>
          <Trackpoint>
            <Time>2022-07-10T06:38:59.000Z</Time>
            <Position>
              <LatitudeDegrees>42.7903854846954345703125</LatitudeDegrees>
              <LongitudeDegrees>-0.156933367252349853515625</LongitudeDegrees>
            </Position>
            <AltitudeMeters>2508</AltitudeMeters>
            <DistanceMeters>24875.528222849</DistanceMeters>
          </Trackpoint>
          <Trackpoint>
            <Time>2022-07-10T06:39:02.000Z</Time>
            <Position>
              <LatitudeDegrees>42.7903869934380054473876953125</LatitudeDegrees>
              <LongitudeDegrees>-0.15692406333982944488525390625</LongitudeDegrees>
            </Position>
            <AltitudeMeters>2508.199951171875</AltitudeMeters>
            <DistanceMeters>24876.300223526</DistanceMeters>
          </Trackpoint>
          <Trackpoint>
            <Time>2022-07-10T06:39:03.000Z</Time>
            <Position>
              <LatitudeDegrees>42.790385819971561431884765625</LatitudeDegrees>
              <LongitudeDegrees>-0.15692490153014659881591796875</LongitudeDegrees>
            </Position>
            <AltitudeMeters>2508.199951171875</AltitudeMeters>
            <DistanceMeters>24876.434611594</DistanceMeters>
          </Trackpoint>
          <Trackpoint>
            <Time>2022-07-10T06:39:04.000Z</Time>
            <Position>
              <LatitudeDegrees>42.79038473032414913177490234375</LatitudeDegrees>
              <LongitudeDegrees>-0.15692330896854400634765625</LongitudeDegrees>
            </Position>
            <AltitudeMeters>2508.199951171875</AltitudeMeters>
            <DistanceMeters>24876.624665023</DistanceMeters>
          </Trackpoint>
          <Trackpoint>
            <Time>2022-07-10T06:39:06.000Z</Time>
            <Position>
              <LatitudeDegrees>42.79037810862064361572265625</LatitudeDegrees>
              <LongitudeDegrees>-0.15693135559558868408203125</LongitudeDegrees>
            </Position>
            <AltitudeMeters>2508.199951171875</AltitudeMeters>
            <DistanceMeters>24877.612211607</DistanceMeters>
          </Trackpoint>
          <Trackpoint>
            <Time>2022-07-10T06:39:10.000Z</Time>
            <Position>
              <LatitudeDegrees>42.79037266038358211517333984375</LatitudeDegrees>
              <LongitudeDegrees>-0.1569204591214656829833984375</LongitudeDegrees>
            </Position>
            <AltitudeMeters>2507.800048828125</AltitudeMeters>
            <DistanceMeters>24878.69150761</DistanceMeters>
          </Trackpoint>
          <Trackpoint>
            <Time>2022-07-10T06:39:14.000Z</Time>
            <Position>
              <LatitudeDegrees>42.7903806231915950775146484375</LatitudeDegrees>
              <LongitudeDegrees>-0.1569110713899135589599609375</LongitudeDegrees>
            </Position>
            <AltitudeMeters>2507.39990234375</AltitudeMeters>
            <DistanceMeters>24879.863075627</DistanceMeters>
          </Trackpoint>
          <Trackpoint>
            <Time>2022-07-10T06:39:20.000Z</Time>
            <Position>
              <LatitudeDegrees>42.790362350642681121826171875</LatitudeDegrees>
              <LongitudeDegrees>-0.15688114799559116363525390625</LongitudeDegrees>
            </Position>
            <AltitudeMeters>2507.199951171875</AltitudeMeters>
            <DistanceMeters>24883.043277762</DistanceMeters>
          </Trackpoint>
          <Trackpoint>
            <Time>2022-07-10T06:39:23.000Z</Time>
            <Position>
              <LatitudeDegrees>42.79036327265202999114990234375</LatitudeDegrees>
              <LongitudeDegrees>-0.15686270780861377716064453125</LongitudeDegrees>
            </Position>
            <AltitudeMeters>2507</AltitudeMeters>
            <DistanceMeters>24884.551780087</DistanceMeters>
          </Trackpoint>
          <Trackpoint>
            <Time>2022-07-10T06:39:27.000Z</Time>
            <Position>
              <LatitudeDegrees>42.7903745882213115692138671875</LatitudeDegrees>
              <LongitudeDegrees>-0.1568453572690486907958984375</LongitudeDegrees>
            </Position>
            <AltitudeMeters>2507</AltitudeMeters>
            <DistanceMeters>24886.445173957</DistanceMeters>
          </Trackpoint>
          <Trackpoint>
            <Time>2022-07-10T06:39:30.000Z</Time>
            <Position>
              <LatitudeDegrees>42.79036872088909149169921875</LatitudeDegrees>
              <LongitudeDegrees>-0.15683974139392375946044921875</LongitudeDegrees>
            </Position>
            <AltitudeMeters>2507.39990234375</AltitudeMeters>
            <DistanceMeters>24887.240224491</DistanceMeters>
          </Trackpoint>
          <Trackpoint>
            <Time>2022-07-10T06:39:34.000Z</Time>
            <Position>
              <LatitudeDegrees>42.79037182219326496124267578125</LatitudeDegrees>
              <LongitudeDegrees>-0.1568681560456752777099609375</LongitudeDegrees>
            </Position>
            <AltitudeMeters>2507.60009765625</AltitudeMeters>
            <DistanceMeters>24889.587211204</DistanceMeters>
          </Trackpoint>
          <Trackpoint>
            <Time>2022-07-10T06:39:36.000Z</Time>
            <Position>
              <LatitudeDegrees>42.790383137762546539306640625</LatitudeDegrees>
              <LongitudeDegrees>-0.156868658959865570068359375</LongitudeDegrees>
            </Position>
            <AltitudeMeters>2508</AltitudeMeters>
            <DistanceMeters>24890.84788303</DistanceMeters>
          </Trackpoint>
          <Trackpoint>
            <Time>2022-07-10T06:39:42.000Z</Time>
            <Position>
              <LatitudeDegrees>42.7904061041772365570068359375</LatitudeDegrees>
              <LongitudeDegrees>-0.1568406634032726287841796875</LongitudeDegrees>
            </Position>
            <AltitudeMeters>2508.199951171875</AltitudeMeters>
            <DistanceMeters>24894.276754496</DistanceMeters>
          </Trackpoint>
          <Trackpoint>
            <Time>2022-07-10T06:39:43.000Z</Time>
            <Position>
              <LatitudeDegrees>42.7904136478900909423828125</LatitudeDegrees>
              <LongitudeDegrees>-0.156842507421970367431640625</LongitudeDegrees>
            </Position>
            <AltitudeMeters>2508.39990234375</AltitudeMeters>
            <DistanceMeters>24895.137257993</DistanceMeters>
          </Trackpoint>
          <Trackpoint>
            <Time>2022-07-10T06:39:46.000Z</Time>
            <Position>
              <LatitudeDegrees>42.790415994822978973388671875</LatitudeDegrees>
              <LongitudeDegrees>-0.1568574272096157073974609375</LongitudeDegrees>
            </Position>
            <AltitudeMeters>2506.60009765625</AltitudeMeters>
            <DistanceMeters>24896.383521668</DistanceMeters>
          </Trackpoint>
          <Trackpoint>
            <Time>2022-07-10T06:39:47.000Z</Time>
            <Position>
              <LatitudeDegrees>42.79040895402431488037109375</LatitudeDegrees>
              <LongitudeDegrees>-0.1568527333438396453857421875</LongitudeDegrees>
            </Position>
            <AltitudeMeters>2506.60009765625</AltitudeMeters>
            <DistanceMeters>24897.254455892</DistanceMeters>
          </Trackpoint>
          <Trackpoint>
            <Time>2022-07-10T06:39:49.000Z</Time>
            <Position>
              <LatitudeDegrees>42.79039411805570125579833984375</LatitudeDegrees>
              <LongitudeDegrees>-0.156849883496761322021484375</LongitudeDegrees>
            </Position>
            <AltitudeMeters>2506.60009765625</AltitudeMeters>
            <DistanceMeters>24898.922167961</DistanceMeters>
          </Trackpoint>
          <Trackpoint>
            <Time>2022-07-10T06:39:51.000Z</Time>
            <Position>
              <LatitudeDegrees>42.7903920225799083709716796875</LatitudeDegrees>
              <LongitudeDegrees>-0.1568664796650409698486328125</LongitudeDegrees>
            </Position>
            <AltitudeMeters>2507.199951171875</AltitudeMeters>
            <DistanceMeters>24900.302510719</DistanceMeters>
          </Trackpoint>
          <Trackpoint>
            <Time>2022-07-10T06:39:56.000Z</Time>
            <Position>
              <LatitudeDegrees>42.79040082357823848724365234375</LatitudeDegrees>
              <LongitudeDegrees>-0.1569067128002643585205078125</LongitudeDegrees>
            </Position>
            <AltitudeMeters>2507.39990234375</AltitudeMeters>
            <DistanceMeters>24903.734014716</DistanceMeters>
          </Trackpoint>
          <Trackpoint>
            <Time>2022-07-10T06:40:02.000Z</Time>
            <Position>
              <LatitudeDegrees>42.7903849817812442779541015625</LatitudeDegrees>
              <LongitudeDegrees>-0.15691098757088184356689453125</LongitudeDegrees>
            </Position>
            <AltitudeMeters>2507.60009765625</AltitudeMeters>
            <DistanceMeters>24905.532004529</DistanceMeters>
          </Trackpoint>
          <Trackpoint>
            <Time>2022-07-10T06:40:04.000Z</Time>
            <Position>
              <LatitudeDegrees>42.790377773344516754150390625</LatitudeDegrees>
              <LongitudeDegrees>-0.1568966545164585113525390625</LongitudeDegrees>
            </Position>
            <AltitudeMeters>2507.60009765625</AltitudeMeters>
            <DistanceMeters>24906.947870684</DistanceMeters>
          </Trackpoint>
          <Trackpoint>
            <Time>2022-07-10T06:40:10.000Z</Time>
            <Position>
              <LatitudeDegrees>42.79042236506938934326171875</LatitudeDegrees>
              <LongitudeDegrees>-0.15694015659391880035400390625</LongitudeDegrees>
            </Position>
            <AltitudeMeters>2507.60009765625</AltitudeMeters>
            <DistanceMeters>24913.051071921</DistanceMeters>
          </Trackpoint>
          <Trackpoint>
            <Time>2022-07-10T06:40:16.000Z</Time>
            <Position>
              <LatitudeDegrees>42.79046402312815189361572265625</LatitudeDegrees>
              <LongitudeDegrees>-0.15692959539592266082763671875</LongitudeDegrees>
            </Position>
            <AltitudeMeters>2507.60009765625</AltitudeMeters>
            <DistanceMeters>24917.767116692</DistanceMeters>
          </Trackpoint>
          <Trackpoint>
            <Time>2022-07-10T06:40:21.000Z</Time>
            <Position>
              <LatitudeDegrees>42.7904339320957660675048828125</LatitudeDegrees>
              <LongitudeDegrees>-0.15695256181061267852783203125</LongitudeDegrees>
            </Position>
            <AltitudeMeters>2507.60009765625</AltitudeMeters>
            <DistanceMeters>24921.606007776</DistanceMeters>
          </Trackpoint>
          <Trackpoint>
            <Time>2022-07-10T06:40:27.000Z</Time>
            <Position>
              <LatitudeDegrees>42.79041373170912265777587890625</LatitudeDegrees>
              <LongitudeDegrees>-0.156924314796924591064453125</LongitudeDegrees>
            </Position>
            <AltitudeMeters>2507.60009765625</AltitudeMeters>
            <DistanceMeters>24924.828520446</DistanceMeters>
          </Trackpoint>
          <Trackpoint>
            <Time>2022-07-10T06:40:28.000Z</Time>
            <Position>
              <LatitudeDegrees>42.7904104627668857574462890625</LatitudeDegrees>
              <LongitudeDegrees>-0.15692087821662425994873046875</LongitudeDegrees>
            </Position>
            <AltitudeMeters>2507.60009765625</AltitudeMeters>
            <DistanceMeters>24925.274235245</DistanceMeters>
          </Trackpoint>
          <Trackpoint>
            <Time>2022-07-10T06:40:31.000Z</Time>
            <Position>
              <LatitudeDegrees>42.79041431844234466552734375</LatitudeDegrees>
              <LongitudeDegrees>-0.15691719017922878265380859375</LongitudeDegrees>
            </Position>
            <AltitudeMeters>2507.60009765625</AltitudeMeters>
            <DistanceMeters>24925.794717995</DistanceMeters>
          </Trackpoint>
          <Trackpoint>
            <Time>2022-07-10T06:40:37.000Z</Time>
            <Position>
              <LatitudeDegrees>42.790428064763545989990234375</LatitudeDegrees>
              <LongitudeDegrees>-0.15693495981395244598388671875</LongitudeDegrees>
            </Position>
            <AltitudeMeters>2507.60009765625</AltitudeMeters>
            <DistanceMeters>24927.902512485</DistanceMeters>
          </Trackpoint>
          <Trackpoint>
            <Time>2022-07-10T06:40:42.000Z</Time>
            <Position>
              <LatitudeDegrees>42.7903658710420131683349609375</LatitudeDegrees>
              <LongitudeDegrees>-0.15700913965702056884765625</LongitudeDegrees>
            </Position>
            <AltitudeMeters>2507.60009765625</AltitudeMeters>
            <DistanceMeters>24937.101962274</DistanceMeters>
          </Trackpoint>
          <Trackpoint>
            <Time>2022-07-10T06:40:45.000Z</Time>
            <Position>
              <LatitudeDegrees>42.7903682179749011993408203125</LatitudeDegrees>
              <LongitudeDegrees>-0.15703369863331317901611328125</LongitudeDegrees>
            </Position>
            <AltitudeMeters>2507.60009765625</AltitudeMeters>
            <DistanceMeters>24939.122257934</DistanceMeters>
          </Trackpoint>
          <Trackpoint>
            <Time>2022-07-10T06:40:48.000Z</Time>
            <Position>
              <LatitudeDegrees>42.7903755940496921539306640625</LatitudeDegrees>
              <LongitudeDegrees>-0.15705230645835399627685546875</LongitudeDegrees>
            </Position>
            <AltitudeMeters>2507.60009765625</AltitudeMeters>
            <DistanceMeters>24940.848503927</DistanceMeters>
          </Trackpoint>
          <Trackpoint>
            <Time>2022-07-10T06:40:49.000Z</Time>
            <Position>
              <LatitudeDegrees>42.7903762646019458770751953125</LatitudeDegrees>
              <LongitudeDegrees>-0.15705406665802001953125</LongitudeDegrees>
            </Position>
            <AltitudeMeters>2507.60009765625</AltitudeMeters>
            <DistanceMeters>24940.982891995</DistanceMeters>
          </Trackpoint>
          <Trackpoint>
            <Time>2022-07-10T06:40:54.000Z</Time>
            <Position>
              <LatitudeDegrees>42.79036561958491802215576171875</LatitudeDegrees>
              <LongitudeDegrees>-0.15705381520092487335205078125</LongitudeDegrees>
            </Position>
            <AltitudeMeters>2507.60009765625</AltitudeMeters>
            <DistanceMeters>24942.169775277</DistanceMeters>
          </Trackpoint>
          <Trackpoint>
            <Time>2022-07-10T06:40:55.000Z</Time>
            <Position>
              <LatitudeDegrees>42.790365703403949737548828125</LatitudeDegrees>
              <LongitudeDegrees>-0.157052390277385711669921875</LongitudeDegrees>
            </Position>
            <AltitudeMeters>2507.60009765625</AltitudeMeters>
            <DistanceMeters>24942.304163345</DistanceMeters>
          </Trackpoint>
          <Trackpoint>
            <Time>2022-07-10T06:41:01.000Z</Time>
            <Position>
              <LatitudeDegrees>42.79037249274551868438720703125</LatitudeDegrees>
              <LongitudeDegrees>-0.1570445112884044647216796875</LongitudeDegrees>
            </Position>
            <AltitudeMeters>2507.60009765625</AltitudeMeters>
            <DistanceMeters>24943.29627137</DistanceMeters>
          </Trackpoint>
          <Trackpoint>
            <Time>2022-07-10T06:41:02.000Z</Time>
            <Position>
              <LatitudeDegrees>42.7903734147548675537109375</LatitudeDegrees>
              <LongitudeDegrees>-0.15704023651778697967529296875</LongitudeDegrees>
            </Position>
            <AltitudeMeters>2507.60009765625</AltitudeMeters>
            <DistanceMeters>24943.651828777</DistanceMeters>
          </Trackpoint>
          <Trackpoint>
            <Time>2022-07-10T06:41:04.000Z</Time>
            <Position>
              <LatitudeDegrees>42.79037333093583583831787109375</LatitudeDegrees>
              <LongitudeDegrees>-0.15703051351010799407958984375</LongitudeDegrees>
            </Position>
            <AltitudeMeters>2507.800048828125</AltitudeMeters>
            <DistanceMeters>24944.446879311</DistanceMeters>
          </Trackpoint>
          <Trackpoint>
            <Time>2022-07-10T06:41:05.000Z</Time>
            <Position>
              <LatitudeDegrees>42.79037048108875751495361328125</LatitudeDegrees>
              <LongitudeDegrees>-0.1570243947207927703857421875</LongitudeDegrees>
            </Position>
            <AltitudeMeters>2507.800048828125</AltitudeMeters>
            <DistanceMeters>24945.03266332</DistanceMeters>
          </Trackpoint>
          <Trackpoint>
            <Time>2022-07-10T06:41:11.000Z</Time>
            <Position>
              <LatitudeDegrees>42.79038615524768829345703125</LatitudeDegrees>
              <LongitudeDegrees>-0.15700318850576877593994140625</LongitudeDegrees>
            </Position>
            <AltitudeMeters>2508.39990234375</AltitudeMeters>
            <DistanceMeters>24947.492368834</DistanceMeters>
          </Trackpoint>
          <Trackpoint>
            <Time>2022-07-10T06:41:17.000Z</Time>
            <Position>
              <LatitudeDegrees>42.79039797373116016387939453125</LatitudeDegrees>
              <LongitudeDegrees>-0.15697334893047809600830078125</LongitudeDegrees>
            </Position>
            <AltitudeMeters>2508.39990234375</AltitudeMeters>
            <DistanceMeters>24950.262849835</DistanceMeters>
          </Trackpoint>
          <Trackpoint>
            <Time>2022-07-10T06:41:23.000Z</Time>
            <Position>
              <LatitudeDegrees>42.7904101274907588958740234375</LatitudeDegrees>
              <LongitudeDegrees>-0.15699078328907489776611328125</LongitudeDegrees>
            </Position>
            <AltitudeMeters>2508.39990234375</AltitudeMeters>
            <DistanceMeters>24952.228777789</DistanceMeters>
          </Trackpoint>
          <Trackpoint>
            <Time>2022-07-10T06:41:29.000Z</Time>
            <Position>
              <LatitudeDegrees>42.79040467925369739532470703125</LatitudeDegrees>
              <LongitudeDegrees>-0.15699346549808979034423828125</LongitudeDegrees>
            </Position>
            <AltitudeMeters>2507.800048828125</AltitudeMeters>
            <DistanceMeters>24952.873280323</DistanceMeters>
          </Trackpoint>
          <Trackpoint>
            <Time>2022-07-10T06:41:35.000Z</Time>
            <Position>
              <LatitudeDegrees>42.790420018136501312255859375</LatitudeDegrees>
              <LongitudeDegrees>-0.15697670169174671173095703125</LongitudeDegrees>
            </Position>
            <AltitudeMeters>2508</AltitudeMeters>
            <DistanceMeters>24955.060959576</DistanceMeters>
          </Trackpoint>
          <Trackpoint>
            <Time>2022-07-10T06:41:36.000Z</Time>
            <Position>
              <LatitudeDegrees>42.79042462818324565887451171875</LatitudeDegrees>
              <LongitudeDegrees>-0.1569818146526813507080078125</LongitudeDegrees>
            </Position>
            <AltitudeMeters>2508</AltitudeMeters>
            <DistanceMeters>24955.719323965</DistanceMeters>
          </Trackpoint>
          <Trackpoint>
            <Time>2022-07-10T06:41:40.000Z</Time>
            <Position>
              <LatitudeDegrees>42.79043720103800296783447265625</LatitudeDegrees>
              <LongitudeDegrees>-0.15695088542997837066650390625</LongitudeDegrees>
            </Position>
            <AltitudeMeters>2508.60009765625</AltitudeMeters>
            <DistanceMeters>24958.607886001</DistanceMeters>
          </Trackpoint>
          <Trackpoint>
            <Time>2022-07-10T06:41:42.000Z</Time>
            <Position>
              <LatitudeDegrees>42.7904325909912586212158203125</LatitudeDegrees>
              <LongitudeDegrees>-0.1569472812116146087646484375</LongitudeDegrees>
            </Position>
            <AltitudeMeters>2508.800048828125</AltitudeMeters>
            <DistanceMeters>24959.208887713</DistanceMeters>
          </Trackpoint>
          <Trackpoint>
            <Time>2022-07-10T06:41:45.000Z</Time>
            <Position>
              <LatitudeDegrees>42.79041834175586700439453125</LatitudeDegrees>
              <LongitudeDegrees>-0.156922973692417144775390625</LongitudeDegrees>
            </Position>
            <AltitudeMeters>2509.199951171875</AltitudeMeters>
            <DistanceMeters>24961.749853013</DistanceMeters>
          </Trackpoint>
          <Trackpoint>
            <Time>2022-07-10T06:41:48.000Z</Time>
            <Position>
              <LatitudeDegrees>42.7904114685952663421630859375</LatitudeDegrees>
              <LongitudeDegrees>-0.15691735781729221343994140625</LongitudeDegrees>
            </Position>
            <AltitudeMeters>2509.39990234375</AltitudeMeters>
            <DistanceMeters>24962.641282611</DistanceMeters>
          </Trackpoint>
          <Trackpoint>
            <Time>2022-07-10T06:41:50.000Z</Time>
            <Position>
              <LatitudeDegrees>42.79040157794952392578125</LatitudeDegrees>
              <LongitudeDegrees>-0.15693881548941135406494140625</LongitudeDegrees>
            </Position>
            <AltitudeMeters>2509.39990234375</AltitudeMeters>
            <DistanceMeters>24964.710160624</DistanceMeters>
          </Trackpoint>
          <Trackpoint>
            <Time>2022-07-10T06:41:53.000Z</Time>
            <Position>
              <LatitudeDegrees>42.79038506560027599334716796875</LatitudeDegrees>
              <LongitudeDegrees>-0.1569811441004276275634765625</LongitudeDegrees>
            </Position>
            <AltitudeMeters>2509.39990234375</AltitudeMeters>
            <DistanceMeters>24968.625907016</DistanceMeters>
          </Trackpoint>
          <Trackpoint>
            <Time>2022-07-10T06:41:54.000Z</Time>
            <Position>
              <LatitudeDegrees>42.7903776057064533233642578125</LatitudeDegrees>
              <LongitudeDegrees>-0.1569905318319797515869140625</LongitudeDegrees>
            </Position>
            <AltitudeMeters>2509.39990234375</AltitudeMeters>
            <DistanceMeters>24969.758281006</DistanceMeters>
          </Trackpoint>
          <Trackpoint>
            <Time>2022-07-10T06:41:55.000Z</Time>
            <Position>
              <LatitudeDegrees>42.7903655357658863067626953125</LatitudeDegrees>
              <LongitudeDegrees>-0.1570029370486736297607421875</LongitudeDegrees>
            </Position>
            <AltitudeMeters>2509.60009765625</AltitudeMeters>
            <DistanceMeters>24971.439475203</DistanceMeters>
          </Trackpoint>
          <Trackpoint>
            <Time>2022-07-10T06:41:57.000Z</Time>
            <Position>
              <LatitudeDegrees>42.79035153798758983612060546875</LatitudeDegrees>
              <LongitudeDegrees>-0.15700218267738819122314453125</LongitudeDegrees>
            </Position>
            <AltitudeMeters>2509.60009765625</AltitudeMeters>
            <DistanceMeters>24973.000923454</DistanceMeters>
          </Trackpoint>
          <Trackpoint>
            <Time>2022-07-10T06:42:03.000Z</Time>
            <Position>
              <LatitudeDegrees>42.790348939597606658935546875</LatitudeDegrees>
              <LongitudeDegrees>-0.15700721181929111480712890625</LongitudeDegrees>
            </Position>
            <AltitudeMeters>2510</AltitudeMeters>
            <DistanceMeters>24973.503757562</DistanceMeters>
          </Trackpoint>
          <Trackpoint>
            <Time>2022-07-10T06:42:06.000Z</Time>
            <Position>
              <LatitudeDegrees>42.79038883745670318603515625</LatitudeDegrees>
              <LongitudeDegrees>-0.1569928787648677825927734375</LongitudeDegrees>
            </Position>
            <AltitudeMeters>2510</AltitudeMeters>
            <DistanceMeters>24978.096606196</DistanceMeters>
          </Trackpoint>
          <Trackpoint>
            <Time>2022-07-10T06:42:11.000Z</Time>
            <Position>
              <LatitudeDegrees>42.79040652327239513397216796875</LatitudeDegrees>
              <LongitudeDegrees>-0.15693512745201587677001953125</LongitudeDegrees>
            </Position>
            <AltitudeMeters>2509.800048828125</AltitudeMeters>
            <DistanceMeters>24983.207771538</DistanceMeters>
          </Trackpoint>
          <Trackpoint>
            <Time>2022-07-10T06:42:13.000Z</Time>
            <Position>
              <LatitudeDegrees>42.7903980575501918792724609375</LatitudeDegrees>
              <LongitudeDegrees>-0.1569295115768909454345703125</LongitudeDegrees>
            </Position>
            <AltitudeMeters>2509.800048828125</AltitudeMeters>
            <DistanceMeters>24984.253065396</DistanceMeters>
          </Trackpoint>
          <Trackpoint>
            <Time>2022-07-10T06:42:19.000Z</Time>
            <Position>
              <LatitudeDegrees>42.79039227403700351715087890625</LatitudeDegrees>
              <LongitudeDegrees>-0.1569684036076068878173828125</LongitudeDegrees>
            </Position>
            <AltitudeMeters>2509.800048828125</AltitudeMeters>
            <DistanceMeters>24987.492347543</DistanceMeters>
          </Trackpoint>
          <Trackpoint>
            <Time>2022-07-10T06:42:20.000Z</Time>
            <Position>
              <LatitudeDegrees>42.79039713554084300994873046875</LatitudeDegrees>
              <LongitudeDegrees>-0.15696622431278228759765625</LongitudeDegrees>
            </Position>
            <AltitudeMeters>2510</AltitudeMeters>
            <DistanceMeters>24988.062507829</DistanceMeters>
          </Trackpoint>
          <Trackpoint>
            <Time>2022-07-10T06:42:21.000Z</Time>
            <Position>
              <LatitudeDegrees>42.790399901568889617919921875</LatitudeDegrees>
              <LongitudeDegrees>-0.15696999616920948028564453125</LongitudeDegrees>
            </Position>
            <AltitudeMeters>2510</AltitudeMeters>
            <DistanceMeters>24988.508222628</DistanceMeters>
          </Trackpoint>
          <Trackpoint>
            <Time>2022-07-10T06:42:25.000Z</Time>
            <Position>
              <LatitudeDegrees>42.79041557572782039642333984375</LatitudeDegrees>
              <LongitudeDegrees>-0.15699530951678752899169921875</LongitudeDegrees>
            </Position>
            <AltitudeMeters>2510.199951171875</AltitudeMeters>
            <DistanceMeters>24991.212730332</DistanceMeters>
          </Trackpoint>
          <Trackpoint>
            <Time>2022-07-10T06:42:27.000Z</Time>
            <Position>
              <LatitudeDegrees>42.79041658155620098114013671875</LatitudeDegrees>
              <LongitudeDegrees>-0.1569958962500095367431640625</LongitudeDegrees>
            </Position>
            <AltitudeMeters>2510.199951171875</AltitudeMeters>
            <DistanceMeters>24991.3471184</DistanceMeters>
          </Trackpoint>
          <Trackpoint>
            <Time>2022-07-10T06:42:31.000Z</Time>
            <Position>
              <LatitudeDegrees>42.790446169674396514892578125</LatitudeDegrees>
              <LongitudeDegrees>-0.1570518873631954193115234375</LongitudeDegrees>
            </Position>
            <AltitudeMeters>2510.39990234375</AltitudeMeters>
            <DistanceMeters>24996.9834123</DistanceMeters>
          </Trackpoint>
          <Trackpoint>
            <Time>2022-07-10T06:42:34.000Z</Time>
            <Position>
              <LatitudeDegrees>42.79045916162431240081787109375</LatitudeDegrees>
              <LongitudeDegrees>-0.157057084143161773681640625</LongitudeDegrees>
            </Position>
            <AltitudeMeters>2510.60009765625</AltitudeMeters>
            <DistanceMeters>24998.491914625</DistanceMeters>
          </Trackpoint>
          <Trackpoint>
            <Time>2022-07-10T06:42:35.000Z</Time>
            <Position>
              <LatitudeDegrees>42.79045916162431240081787109375</LatitudeDegrees>
              <LongitudeDegrees>-0.15704342164099216461181640625</LongitudeDegrees>
            </Position>
            <AltitudeMeters>2510.60009765625</AltitudeMeters>
            <DistanceMeters>24999.60822576</DistanceMeters>
          </Trackpoint>
          <Trackpoint>
            <Time>2022-07-10T06:42:36.000Z</Time>
            <Position>
              <LatitudeDegrees>42.79045430012047290802001953125</LatitudeDegrees>
              <LongitudeDegrees>-0.15702749602496623992919921875</LongitudeDegrees>
            </Position>
            <AltitudeMeters>2510.60009765625</AltitudeMeters>
            <DistanceMeters>25001.011278383</DistanceMeters>
          </Trackpoint>
          <Trackpoint>
            <Time>2022-07-10T06:42:39.000Z</Time>
            <Position>
              <LatitudeDegrees>42.790425382554531097412109375</LatitudeDegrees>
              <LongitudeDegrees>-0.1569963991641998291015625</LongitudeDegrees>
            </Position>
            <AltitudeMeters>2510.800048828125</AltitudeMeters>
            <DistanceMeters>25005.111766444</DistanceMeters>
          </Trackpoint>
          <Trackpoint>
            <Time>2022-07-10T06:42:41.000Z</Time>
            <Position>
              <LatitudeDegrees>42.79040618799626827239990234375</LatitudeDegrees>
              <LongitudeDegrees>-0.15703998506069183349609375</LongitudeDegrees>
            </Position>
            <AltitudeMeters>2510.800048828125</AltitudeMeters>
            <DistanceMeters>25009.262595982</DistanceMeters>
          </Trackpoint>
          <Trackpoint>
            <Time>2022-07-10T06:42:47.000Z</Time>
            <Position>
              <LatitudeDegrees>42.7903886698186397552490234375</LatitudeDegrees>
              <LongitudeDegrees>-0.1570401526987552642822265625</LongitudeDegrees>
            </Position>
            <AltitudeMeters>2510.800048828125</AltitudeMeters>
            <DistanceMeters>25011.21006411</DistanceMeters>
          </Trackpoint>
          <Trackpoint>
            <Time>2022-07-10T06:42:53.000Z</Time>
            <Position>
              <LatitudeDegrees>42.79042831622064113616943359375</LatitudeDegrees>
              <LongitudeDegrees>-0.1569824852049350738525390625</LongitudeDegrees>
            </Position>
            <AltitudeMeters>2511</AltitudeMeters>
            <DistanceMeters>25017.664190126</DistanceMeters>
          </Trackpoint>
          <Trackpoint>
            <Time>2022-07-10T06:42:59.000Z</Time>
            <Position>
              <LatitudeDegrees>42.790448851883411407470703125</LatitudeDegrees>
              <LongitudeDegrees>-0.1569942198693752288818359375</LongitudeDegrees>
            </Position>
            <AltitudeMeters>2511.199951171875</AltitudeMeters>
            <DistanceMeters>25020.142183666</DistanceMeters>
          </Trackpoint>
          <Trackpoint>
            <Time>2022-07-10T06:43:01.000Z</Time>
            <Position>
              <LatitudeDegrees>42.79042446054518222808837890625</LatitudeDegrees>
              <LongitudeDegrees>-0.15699262730777263641357421875</LongitudeDegrees>
            </Position>
            <AltitudeMeters>2511.39990234375</AltitudeMeters>
            <DistanceMeters>25022.860014148</DistanceMeters>
          </Trackpoint>
          <Trackpoint>
            <Time>2022-07-10T06:43:03.000Z</Time>
            <Position>
              <LatitudeDegrees>42.79040484689176082611083984375</LatitudeDegrees>
              <LongitudeDegrees>-0.15698139555752277374267578125</LongitudeDegrees>
            </Position>
            <AltitudeMeters>2511.39990234375</AltitudeMeters>
            <DistanceMeters>25025.228067668</DistanceMeters>
          </Trackpoint>
          <Trackpoint>
            <Time>2022-07-10T06:43:05.000Z</Time>
            <Position>
              <LatitudeDegrees>42.7903943695127964019775390625</LatitudeDegrees>
              <LongitudeDegrees>-0.1569771207869052886962890625</LongitudeDegrees>
            </Position>
            <AltitudeMeters>2511.39990234375</AltitudeMeters>
            <DistanceMeters>25026.441287541</DistanceMeters>
          </Trackpoint>
          <Trackpoint>
            <Time>2022-07-10T06:43:09.000Z</Time>
            <Position>
              <LatitudeDegrees>42.79038137756288051605224609375</LatitudeDegrees>
              <LongitudeDegrees>-0.156981982290744781494140625</LongitudeDegrees>
            </Position>
            <AltitudeMeters>2511.60009765625</AltitudeMeters>
            <DistanceMeters>25027.940783801</DistanceMeters>
          </Trackpoint>
          <Trackpoint>
            <Time>2022-07-10T06:43:12.000Z</Time>
            <Position>
              <LatitudeDegrees>42.79037869535386562347412109375</LatitudeDegrees>
              <LongitudeDegrees>-0.15699212439358234405517578125</LongitudeDegrees>
            </Position>
            <AltitudeMeters>2511.39990234375</AltitudeMeters>
            <DistanceMeters>25028.822025297</DistanceMeters>
          </Trackpoint>
          <Trackpoint>
            <Time>2022-07-10T06:43:18.000Z</Time>
            <Position>
              <LatitudeDegrees>42.7903799526393413543701171875</LatitudeDegrees>
              <LongitudeDegrees>-0.15702246688306331634521484375</LongitudeDegrees>
            </Position>
            <AltitudeMeters>2511</AltitudeMeters>
            <DistanceMeters>25031.301840221</DistanceMeters>
          </Trackpoint>
          <Trackpoint>
            <Time>2022-07-10T06:43:20.000Z</Time>
            <Position>
              <LatitudeDegrees>42.79037869535386562347412109375</LatitudeDegrees>
              <LongitudeDegrees>-0.15702179633080959320068359375</LongitudeDegrees>
            </Position>
            <AltitudeMeters>2510.800048828125</AltitudeMeters>
            <DistanceMeters>25031.436228289</DistanceMeters>
          </Trackpoint>
          <Trackpoint>
            <Time>2022-07-10T06:43:26.000Z</Time>
            <Position>
              <LatitudeDegrees>42.79036469757556915283203125</LatitudeDegrees>
              <LongitudeDegrees>-0.157045014202594757080078125</LongitudeDegrees>
            </Position>
            <AltitudeMeters>2510</AltitudeMeters>
            <DistanceMeters>25033.892259858</DistanceMeters>
          </Trackpoint>
          <Trackpoint>
            <Time>2022-07-10T06:43:27.000Z</Time>
            <Position>
              <LatitudeDegrees>42.7903638593852519989013671875</LatitudeDegrees>
              <LongitudeDegrees>-0.1570485346019268035888671875</LongitudeDegrees>
            </Position>
            <AltitudeMeters>2509.800048828125</AltitudeMeters>
            <DistanceMeters>25034.207427814</DistanceMeters>
          </Trackpoint>
          <Trackpoint>
            <Time>2022-07-10T06:43:28.000Z</Time>
            <Position>
              <LatitudeDegrees>42.7903640270233154296875</LatitudeDegrees>
              <LongitudeDegrees>-0.1570522226393222808837890625</LongitudeDegrees>
            </Position>
            <AltitudeMeters>2509.60009765625</AltitudeMeters>
            <DistanceMeters>25034.50792867</DistanceMeters>
          </Trackpoint>
          <Trackpoint>
            <Time>2022-07-10T06:43:30.000Z</Time>
            <Position>
              <LatitudeDegrees>42.79036075808107852935791015625</LatitudeDegrees>
              <LongitudeDegrees>-0.157062113285064697265625</LongitudeDegrees>
            </Position>
            <AltitudeMeters>2509.60009765625</AltitudeMeters>
            <DistanceMeters>25035.389170166</DistanceMeters>
          </Trackpoint>
          <Trackpoint>
            <Time>2022-07-10T06:43:32.000Z</Time>
            <Position>
              <LatitudeDegrees>42.79035053215920925140380859375</LatitudeDegrees>
              <LongitudeDegrees>-0.15708331950008869171142578125</LongitudeDegrees>
            </Position>
            <AltitudeMeters>2509.39990234375</AltitudeMeters>
            <DistanceMeters>25037.462408307</DistanceMeters>
          </Trackpoint>
          <Trackpoint>
            <Time>2022-07-10T06:43:34.000Z</Time>
            <Position>
              <LatitudeDegrees>42.79034449718892574310302734375</LatitudeDegrees>
              <LongitudeDegrees>-0.1571021787822246551513671875</LongitudeDegrees>
            </Position>
            <AltitudeMeters>2509</AltitudeMeters>
            <DistanceMeters>25039.146285975</DistanceMeters>
          </Trackpoint>
          <Trackpoint>
            <Time>2022-07-10T06:43:35.000Z</Time>
            <Position>
              <LatitudeDegrees>42.79034416191279888153076171875</LatitudeDegrees>
              <LongitudeDegrees>-0.157104022800922393798828125</LongitudeDegrees>
            </Position>
            <AltitudeMeters>2509</AltitudeMeters>
            <DistanceMeters>25039.336339404</DistanceMeters>
          </Trackpoint>
          <Trackpoint>
            <Time>2022-07-10T06:43:36.000Z</Time>
            <Position>
              <LatitudeDegrees>42.7903430722653865814208984375</LatitudeDegrees>
              <LongitudeDegrees>-0.15710695646703243255615234375</LongitudeDegrees>
            </Position>
            <AltitudeMeters>2508.800048828125</AltitudeMeters>
            <DistanceMeters>25039.605115541</DistanceMeters>
          </Trackpoint>
          <Trackpoint>
            <Time>2022-07-10T06:43:37.000Z</Time>
            <Position>
              <LatitudeDegrees>42.79033913277089595794677734375</LatitudeDegrees>
              <LongitudeDegrees>-0.15710829757153987884521484375</LongitudeDegrees>
            </Position>
            <AltitudeMeters>2508.60009765625</AltitudeMeters>
            <DistanceMeters>25040.050830339</DistanceMeters>
          </Trackpoint>
          <Trackpoint>
            <Time>2022-07-10T06:43:41.000Z</Time>
            <Position>
              <LatitudeDegrees>42.7903082035481929779052734375</LatitudeDegrees>
              <LongitudeDegrees>-0.15712154097855091094970703125</LongitudeDegrees>
            </Position>
            <AltitudeMeters>2507.60009765625</AltitudeMeters>
            <DistanceMeters>25043.659343916</DistanceMeters>
          </Trackpoint>
          <Trackpoint>
            <Time>2022-07-10T06:43:42.000Z</Time>
            <Position>
              <LatitudeDegrees>42.79030074365437030792236328125</LatitudeDegrees>
              <LongitudeDegrees>-0.157125480473041534423828125</LongitudeDegrees>
            </Position>
            <AltitudeMeters>2507.60009765625</AltitudeMeters>
            <DistanceMeters>25044.550773513</DistanceMeters>
          </Trackpoint>
          <Trackpoint>
            <Time>2022-07-10T06:43:45.000Z</Time>
            <Position>
              <LatitudeDegrees>42.79028431512415409088134765625</LatitudeDegrees>
              <LongitudeDegrees>-0.15715062618255615234375</LongitudeDegrees>
            </Position>
            <AltitudeMeters>2507.60009765625</AltitudeMeters>
            <DistanceMeters>25047.301628664</DistanceMeters>
          </Trackpoint>
          <Trackpoint>
            <Time>2022-07-10T06:43:47.000Z</Time>
            <Position>
              <LatitudeDegrees>42.79027492739260196685791015625</LatitudeDegrees>
              <LongitudeDegrees>-0.1571554876863956451416015625</LongitudeDegrees>
            </Position>
            <AltitudeMeters>2507.39990234375</AltitudeMeters>
            <DistanceMeters>25048.417939799</DistanceMeters>
          </Trackpoint>
          <Trackpoint>
            <Time>2022-07-10T06:43:48.000Z</Time>
            <Position>
              <LatitudeDegrees>42.79026989825069904327392578125</LatitudeDegrees>
              <LongitudeDegrees>-0.15715808607637882232666015625</LongitudeDegrees>
            </Position>
            <AltitudeMeters>2507.199951171875</AltitudeMeters>
            <DistanceMeters>25049.018941511</DistanceMeters>
          </Trackpoint>
          <Trackpoint>
            <Time>2022-07-10T06:43:50.000Z</Time>
            <Position>
              <LatitudeDegrees>42.79026210308074951171875</LatitudeDegrees>
              <LongitudeDegrees>-0.1571628637611865997314453125</LongitudeDegrees>
            </Position>
            <AltitudeMeters>2506</AltitudeMeters>
            <DistanceMeters>25049.969208654</DistanceMeters>
          </Trackpoint>
          <Trackpoint>
            <Time>2022-07-10T06:43:54.000Z</Time>
            <Position>
              <LatitudeDegrees>42.7902455069124698638916015625</LatitudeDegrees>
              <LongitudeDegrees>-0.157185159623622894287109375</LongitudeDegrees>
            </Position>
            <AltitudeMeters>2504.800048828125</AltitudeMeters>
            <DistanceMeters>25052.562933187</DistanceMeters>
          </Trackpoint>
          <Trackpoint>
            <Time>2022-07-10T06:43:56.000Z</Time>
            <Position>
              <LatitudeDegrees>42.79023000039160251617431640625</LatitudeDegrees>
              <LongitudeDegrees>-0.15719890594482421875</LongitudeDegrees>
            </Position>
            <AltitudeMeters>2504.199951171875</AltitudeMeters>
            <DistanceMeters>25054.618675334</DistanceMeters>
          </Trackpoint>
          <Trackpoint>
            <Time>2022-07-10T06:43:57.000Z</Time>
            <Position>
              <LatitudeDegrees>42.7902274020016193389892578125</LatitudeDegrees>
              <LongitudeDegrees>-0.1572074554860591888427734375</LongitudeDegrees>
            </Position>
            <AltitudeMeters>2503.60009765625</AltitudeMeters>
            <DistanceMeters>25055.372926496</DistanceMeters>
          </Trackpoint>
          <Trackpoint>
            <Time>2022-07-10T06:44:01.000Z</Time>
            <Position>
              <LatitudeDegrees>42.79023938812315464019775390625</LatitudeDegrees>
              <LongitudeDegrees>-0.157245509326457977294921875</LongitudeDegrees>
            </Position>
            <AltitudeMeters>2502.39990234375</AltitudeMeters>
            <DistanceMeters>25058.755397022</DistanceMeters>
          </Trackpoint>
          <Trackpoint>
            <Time>2022-07-10T06:44:02.000Z</Time>
            <Position>
              <LatitudeDegrees>42.79024341143667697906494140625</LatitudeDegrees>
              <LongitudeDegrees>-0.15724785625934600830078125</LongitudeDegrees>
            </Position>
            <AltitudeMeters>2502.199951171875</AltitudeMeters>
            <DistanceMeters>25059.239940093</DistanceMeters>
          </Trackpoint>
          <Trackpoint>
            <Time>2022-07-10T06:44:08.000Z</Time>
            <Position>
              <LatitudeDegrees>42.790225557982921600341796875</LatitudeDegrees>
              <LongitudeDegrees>-0.1572540588676929473876953125</LongitudeDegrees>
            </Position>
            <AltitudeMeters>2501.60009765625</AltitudeMeters>
            <DistanceMeters>25061.291284925</DistanceMeters>
          </Trackpoint>
          <Trackpoint>
            <Time>2022-07-10T06:44:09.000Z</Time>
            <Position>
              <LatitudeDegrees>42.7902260608971118927001953125</LatitudeDegrees>
              <LongitudeDegrees>-0.15725984238088130950927734375</LongitudeDegrees>
            </Position>
            <AltitudeMeters>2501.60009765625</AltitudeMeters>
            <DistanceMeters>25061.766418497</DistanceMeters>
          </Trackpoint>
          <Trackpoint>
            <Time>2022-07-10T06:44:12.000Z</Time>
            <Position>
              <LatitudeDegrees>42.79022396542131900787353515625</LatitudeDegrees>
              <LongitudeDegrees>-0.15727358870208263397216796875</LongitudeDegrees>
            </Position>
            <AltitudeMeters>2501.199951171875</AltitudeMeters>
            <DistanceMeters>25062.90673907</DistanceMeters>
          </Trackpoint>
          <Trackpoint>
            <Time>2022-07-10T06:44:15.000Z</Time>
            <Position>
              <LatitudeDegrees>42.79021927155554294586181640625</LatitudeDegrees>
              <LongitudeDegrees>-0.1572892628610134124755859375</LongitudeDegrees>
            </Position>
            <AltitudeMeters>2501</AltitudeMeters>
            <DistanceMeters>25064.290348916</DistanceMeters>
          </Trackpoint>
          <Trackpoint>
            <Time>2022-07-10T06:44:20.000Z</Time>
            <Position>
              <LatitudeDegrees>42.79022128321230411529541015625</LatitudeDegrees>
              <LongitudeDegrees>-0.157328657805919647216796875</LongitudeDegrees>
            </Position>
            <AltitudeMeters>2500</AltitudeMeters>
            <DistanceMeters>25067.515662554</DistanceMeters>
          </Trackpoint>
          <Trackpoint>
            <Time>2022-07-10T06:44:21.000Z</Time>
            <Position>
              <LatitudeDegrees>42.7902196906507015228271484375</LatitudeDegrees>
              <LongitudeDegrees>-0.1573439128696918487548828125</LongitudeDegrees>
            </Position>
            <AltitudeMeters>2499.800048828125</AltitudeMeters>
            <DistanceMeters>25068.769151006</DistanceMeters>
          </Trackpoint>
          <Trackpoint>
            <Time>2022-07-10T06:44:25.000Z</Time>
            <Position>
              <LatitudeDegrees>42.790218852460384368896484375</LatitudeDegrees>
              <LongitudeDegrees>-0.157375596463680267333984375</LongitudeDegrees>
            </Position>
            <AltitudeMeters>2498.800048828125</AltitudeMeters>
            <DistanceMeters>25071.357648007</DistanceMeters>
          </Trackpoint>
          <Trackpoint>
            <Time>2022-07-10T06:44:26.000Z</Time>
            <Position>
              <LatitudeDegrees>42.7902227081358432769775390625</LatitudeDegrees>
              <LongitudeDegrees>-0.15738137997686862945556640625</LongitudeDegrees>
            </Position>
            <AltitudeMeters>2498</AltitudeMeters>
            <DistanceMeters>25071.98798392</DistanceMeters>
          </Trackpoint>
          <Trackpoint>
            <Time>2022-07-10T06:44:27.000Z</Time>
            <Position>
              <LatitudeDegrees>42.7902324311435222625732421875</LatitudeDegrees>
              <LongitudeDegrees>-0.1573908515274524688720703125</LongitudeDegrees>
            </Position>
            <AltitudeMeters>2498</AltitudeMeters>
            <DistanceMeters>25073.318357921</DistanceMeters>
          </Trackpoint>
          <Trackpoint>
            <Time>2022-07-10T06:44:28.000Z</Time>
            <Position>
              <LatitudeDegrees>42.79024039395153522491455078125</LatitudeDegrees>
              <LongitudeDegrees>-0.1573987305164337158203125</LongitudeDegrees>
            </Position>
            <AltitudeMeters>2497</AltitudeMeters>
            <DistanceMeters>25074.414259453</DistanceMeters>
          </Trackpoint>
          <Trackpoint>
            <Time>2022-07-10T06:44:30.000Z</Time>
            <Position>
              <LatitudeDegrees>42.79024860821664333343505859375</LatitudeDegrees>
              <LongitudeDegrees>-0.15740199945867061614990234375</LongitudeDegrees>
            </Position>
            <AltitudeMeters>2496.60009765625</AltitudeMeters>
            <DistanceMeters>25075.364526597</DistanceMeters>
          </Trackpoint>
          <Trackpoint>
            <Time>2022-07-10T06:44:32.000Z</Time>
            <Position>
              <LatitudeDegrees>42.79025464318692684173583984375</LatitudeDegrees>
              <LongitudeDegrees>-0.157412476837635040283203125</LongitudeDegrees>
            </Position>
            <AltitudeMeters>2496.39990234375</AltitudeMeters>
            <DistanceMeters>25076.452157055</DistanceMeters>
          </Trackpoint>
          <Trackpoint>
            <Time>2022-07-10T06:44:37.000Z</Time>
            <Position>
              <LatitudeDegrees>42.79023595154285430908203125</LatitudeDegrees>
              <LongitudeDegrees>-0.1574753411114215850830078125</LongitudeDegrees>
            </Position>
            <AltitudeMeters>2495.800048828125</AltitudeMeters>
            <DistanceMeters>25081.993119057</DistanceMeters>
          </Trackpoint>
          <Trackpoint>
            <Time>2022-07-10T06:44:39.000Z</Time>
            <Position>
              <LatitudeDegrees>42.79022849164903163909912109375</LatitudeDegrees>
              <LongitudeDegrees>-0.15750375576317310333251953125</LongitudeDegrees>
            </Position>
            <AltitudeMeters>2495.60009765625</AltitudeMeters>
            <DistanceMeters>25084.46015605</DistanceMeters>
          </Trackpoint>
          <Trackpoint>
            <Time>2022-07-10T06:44:42.000Z</Time>
            <Position>
              <LatitudeDegrees>42.79023997485637664794921875</LatitudeDegrees>
              <LongitudeDegrees>-0.15755496919155120849609375</LongitudeDegrees>
            </Position>
            <AltitudeMeters>2495.199951171875</AltitudeMeters>
            <DistanceMeters>25088.834482511</DistanceMeters>
          </Trackpoint>
          <Trackpoint>
            <Time>2022-07-10T06:44:44.000Z</Time>
            <Position>
              <LatitudeDegrees>42.790248692035675048828125</LatitudeDegrees>
              <LongitudeDegrees>-0.157581456005573272705078125</LongitudeDegrees>
            </Position>
            <AltitudeMeters>2494.800048828125</AltitudeMeters>
            <DistanceMeters>25091.204441909</DistanceMeters>
          </Trackpoint>
          <Trackpoint>
            <Time>2022-07-10T06:44:46.000Z</Time>
            <Position>
              <LatitudeDegrees>42.79025531373918056488037109375</LatitudeDegrees>
              <LongitudeDegrees>-0.15760215930640697479248046875</LongitudeDegrees>
            </Position>
            <AltitudeMeters>2494.39990234375</AltitudeMeters>
            <DistanceMeters>25093.049526953</DistanceMeters>
          </Trackpoint>
          <Trackpoint>
            <Time>2022-07-10T06:44:48.000Z</Time>
            <Position>
              <LatitudeDegrees>42.79025682248175144195556640625</LatitudeDegrees>
              <LongitudeDegrees>-0.1576081104576587677001953125</LongitudeDegrees>
            </Position>
            <AltitudeMeters>2494.199951171875</AltitudeMeters>
            <DistanceMeters>25093.552361061</DistanceMeters>
          </Trackpoint>
          <Trackpoint>
            <Time>2022-07-10T06:44:51.000Z</Time>
            <Position>
              <LatitudeDegrees>42.79022916220128536224365234375</LatitudeDegrees>
              <LongitudeDegrees>-0.15759444795548915863037109375</LongitudeDegrees>
            </Position>
            <AltitudeMeters>2493.800048828125</AltitudeMeters>
            <DistanceMeters>25096.824924378</DistanceMeters>
          </Trackpoint>
          <Trackpoint>
            <Time>2022-07-10T06:44:52.000Z</Time>
            <Position>
              <LatitudeDegrees>42.790227234363555908203125</LatitudeDegrees>
              <LongitudeDegrees>-0.15759252011775970458984375</LongitudeDegrees>
            </Position>
            <AltitudeMeters>2493.60009765625</AltitudeMeters>
            <DistanceMeters>25097.093700514</DistanceMeters>
          </Trackpoint>
          <Trackpoint>
            <Time>2022-07-10T06:44:58.000Z</Time>
            <Position>
              <LatitudeDegrees>42.7902334369719028472900390625</LatitudeDegrees>
              <LongitudeDegrees>-0.15754415653645992279052734375</LongitudeDegrees>
            </Position>
            <AltitudeMeters>2493.199951171875</AltitudeMeters>
            <DistanceMeters>25101.104008002</DistanceMeters>
          </Trackpoint>
          <Trackpoint>
            <Time>2022-07-10T06:44:59.000Z</Time>
            <Position>
              <LatitudeDegrees>42.7902431599795818328857421875</LatitudeDegrees>
              <LongitudeDegrees>-0.1575507782399654388427734375</LongitudeDegrees>
            </Position>
            <AltitudeMeters>2493</AltitudeMeters>
            <DistanceMeters>25102.313500616</DistanceMeters>
          </Trackpoint>
          <Trackpoint>
            <Time>2022-07-10T06:45:01.000Z</Time>
            <Position>
              <LatitudeDegrees>42.79027107171714305877685546875</LatitudeDegrees>
              <LongitudeDegrees>-0.15758313238620758056640625</LongitudeDegrees>
            </Position>
            <AltitudeMeters>2493</AltitudeMeters>
            <DistanceMeters>25106.389692547</DistanceMeters>
          </Trackpoint>
          <Trackpoint>
            <Time>2022-07-10T06:45:06.000Z</Time>
            <Position>
              <LatitudeDegrees>42.7903236262500286102294921875</LatitudeDegrees>
              <LongitudeDegrees>-0.15765488147735595703125</LongitudeDegrees>
            </Position>
            <AltitudeMeters>2492.60009765625</AltitudeMeters>
            <DistanceMeters>25114.669568172</DistanceMeters>
          </Trackpoint>
          <Trackpoint>
            <Time>2022-07-10T06:45:11.000Z</Time>
            <Position>
              <LatitudeDegrees>42.7903514541685581207275390625</LatitudeDegrees>
              <LongitudeDegrees>-0.1576248742640018463134765625</LongitudeDegrees>
            </Position>
            <AltitudeMeters>2491.60009765625</AltitudeMeters>
            <DistanceMeters>25118.619754509</DistanceMeters>
          </Trackpoint>
          <Trackpoint>
            <Time>2022-07-10T06:45:12.000Z</Time>
            <Position>
              <LatitudeDegrees>42.79035271145403385162353515625</LatitudeDegrees>
              <LongitudeDegrees>-0.15761406160891056060791015625</LongitudeDegrees>
            </Position>
            <AltitudeMeters>2491.199951171875</AltitudeMeters>
            <DistanceMeters>25119.511184106</DistanceMeters>
          </Trackpoint>
          <Trackpoint>
            <Time>2022-07-10T06:45:14.000Z</Time>
            <Position>
              <LatitudeDegrees>42.79034483246505260467529296875</LatitudeDegrees>
              <LongitudeDegrees>-0.157601572573184967041015625</LongitudeDegrees>
            </Position>
            <AltitudeMeters>2491.199951171875</AltitudeMeters>
            <DistanceMeters>25120.855064788</DistanceMeters>
          </Trackpoint>
          <Trackpoint>
            <Time>2022-07-10T06:45:18.000Z</Time>
            <Position>
              <LatitudeDegrees>42.79032672755420207977294921875</LatitudeDegrees>
              <LongitudeDegrees>-0.15758371911942958831787109375</LongitudeDegrees>
            </Position>
            <AltitudeMeters>2491</AltitudeMeters>
            <DistanceMeters>25123.340335858</DistanceMeters>
          </Trackpoint>
          <Trackpoint>
            <Time>2022-07-10T06:45:21.000Z</Time>
            <Position>
              <LatitudeDegrees>42.790333516895771026611328125</LatitudeDegrees>
              <LongitudeDegrees>-0.157616324722766876220703125</LongitudeDegrees>
            </Position>
            <AltitudeMeters>2491</AltitudeMeters>
            <DistanceMeters>25126.10755555</DistanceMeters>
          </Trackpoint>
          <Trackpoint>
            <Time>2022-07-10T06:45:24.000Z</Time>
            <Position>
              <LatitudeDegrees>42.79033125378191471099853515625</LatitudeDegrees>
              <LongitudeDegrees>-0.1576366089284420013427734375</LongitudeDegrees>
            </Position>
            <AltitudeMeters>2490.800048828125</AltitudeMeters>
            <DistanceMeters>25127.786061984</DistanceMeters>
          </Trackpoint>
          <Trackpoint>
            <Time>2022-07-10T06:45:29.000Z</Time>
            <Position>
              <LatitudeDegrees>42.79035422019660472869873046875</LatitudeDegrees>
              <LongitudeDegrees>-0.157606936991214752197265625</LongitudeDegrees>
            </Position>
            <AltitudeMeters>2490.199951171875</AltitudeMeters>
            <DistanceMeters>25131.311027968</DistanceMeters>
          </Trackpoint>
          <Trackpoint>
            <Time>2022-07-10T06:45:30.000Z</Time>
            <Position>
              <LatitudeDegrees>42.7903541363775730133056640625</LatitudeDegrees>
              <LongitudeDegrees>-0.157598219811916351318359375</LongitudeDegrees>
            </Position>
            <AltitudeMeters>2490.199951171875</AltitudeMeters>
            <DistanceMeters>25132.022142784</DistanceMeters>
          </Trackpoint>
          <Trackpoint>
            <Time>2022-07-10T06:45:31.000Z</Time>
            <Position>
              <LatitudeDegrees>42.7903514541685581207275390625</LatitudeDegrees>
              <LongitudeDegrees>-0.1575936935842037200927734375</LongitudeDegrees>
            </Position>
            <AltitudeMeters>2489.800048828125</AltitudeMeters>
            <DistanceMeters>25132.506685855</DistanceMeters>
          </Trackpoint>
          <Trackpoint>
            <Time>2022-07-10T06:45:33.000Z</Time>
            <Position>
              <LatitudeDegrees>42.79035287909209728240966796875</LatitudeDegrees>
              <LongitudeDegrees>-0.157596208155155181884765625</LongitudeDegrees>
            </Position>
            <AltitudeMeters>2489.199951171875</AltitudeMeters>
            <DistanceMeters>25132.775461991</DistanceMeters>
          </Trackpoint>
          <Trackpoint>
            <Time>2022-07-10T06:45:34.000Z</Time>
            <Position>
              <LatitudeDegrees>42.790356986224651336669921875</LatitudeDegrees>
              <LongitudeDegrees>-0.157602243125438690185546875</LongitudeDegrees>
            </Position>
            <AltitudeMeters>2489</AltitudeMeters>
            <DistanceMeters>25133.447402332</DistanceMeters>
          </Trackpoint>
          <Trackpoint>
            <Time>2022-07-10T06:45:36.000Z</Time>
            <Position>
              <LatitudeDegrees>42.79036469757556915283203125</LatitudeDegrees>
              <LongitudeDegrees>-0.15760995447635650634765625</LongitudeDegrees>
            </Position>
            <AltitudeMeters>2488.60009765625</AltitudeMeters>
            <DistanceMeters>25134.514074556</DistanceMeters>
          </Trackpoint>
          <Trackpoint>
            <Time>2022-07-10T06:45:37.000Z</Time>
            <Position>
              <LatitudeDegrees>42.79036603868007659912109375</LatitudeDegrees>
              <LongitudeDegrees>-0.15761389397084712982177734375</LongitudeDegrees>
            </Position>
            <AltitudeMeters>2488.60009765625</AltitudeMeters>
            <DistanceMeters>25134.869631963</DistanceMeters>
          </Trackpoint>
          <Trackpoint>
            <Time>2022-07-10T06:45:43.000Z</Time>
            <Position>
              <LatitudeDegrees>42.79037517495453357696533203125</LatitudeDegrees>
              <LongitudeDegrees>-0.15762629918754100799560546875</LongitudeDegrees>
            </Position>
            <AltitudeMeters>2487.800048828125</AltitudeMeters>
            <DistanceMeters>25136.30764709</DistanceMeters>
          </Trackpoint>
          <Trackpoint>
            <Time>2022-07-10T06:45:45.000Z</Time>
            <Position>
              <LatitudeDegrees>42.79037676751613616943359375</LatitudeDegrees>
              <LongitudeDegrees>-0.1576372794806957244873046875</LongitudeDegrees>
            </Position>
            <AltitudeMeters>2487.60009765625</AltitudeMeters>
            <DistanceMeters>25137.219111315</DistanceMeters>
          </Trackpoint>
          <Trackpoint>
            <Time>2022-07-10T06:45:47.000Z</Time>
            <Position>
              <LatitudeDegrees>42.7903806231915950775146484375</LatitudeDegrees>
              <LongitudeDegrees>-0.15764339827001094818115234375</LongitudeDegrees>
            </Position>
            <AltitudeMeters>2486.800048828125</AltitudeMeters>
            <DistanceMeters>25137.870581647</DistanceMeters>
          </Trackpoint>
          <Trackpoint>
            <Time>2022-07-10T06:45:51.000Z</Time>
            <Position>
              <LatitudeDegrees>42.7903873287141323089599609375</LatitudeDegrees>
              <LongitudeDegrees>-0.1576527021825313568115234375</LongitudeDegrees>
            </Position>
            <AltitudeMeters>2486.39990234375</AltitudeMeters>
            <DistanceMeters>25138.93725387</DistanceMeters>
          </Trackpoint>
          <Trackpoint>
            <Time>2022-07-10T06:45:57.000Z</Time>
            <Position>
              <LatitudeDegrees>42.790393866598606109619140625</LatitudeDegrees>
              <LongitudeDegrees>-0.1576587371528148651123046875</LongitudeDegrees>
            </Position>
            <AltitudeMeters>2486</AltitudeMeters>
            <DistanceMeters>25139.813356888</DistanceMeters>
          </Trackpoint>
          <Trackpoint>
            <Time>2022-07-10T06:46:01.000Z</Time>
            <Position>
              <LatitudeDegrees>42.79040819965302944183349609375</LatitudeDegrees>
              <LongitudeDegrees>-0.15768078155815601348876953125</LongitudeDegrees>
            </Position>
            <AltitudeMeters>2485.800048828125</AltitudeMeters>
            <DistanceMeters>25142.221117066</DistanceMeters>
          </Trackpoint>
          <Trackpoint>
            <Time>2022-07-10T06:46:03.000Z</Time>
            <Position>
              <LatitudeDegrees>42.79041423462331295013427734375</LatitudeDegrees>
              <LongitudeDegrees>-0.15769184567034244537353515625</LongitudeDegrees>
            </Position>
            <AltitudeMeters>2485.39990234375</AltitudeMeters>
            <DistanceMeters>25143.345488314</DistanceMeters>
          </Trackpoint>
          <Trackpoint>
            <Time>2022-07-10T06:46:05.000Z</Time>
            <Position>
              <LatitudeDegrees>42.790423370897769927978515625</LatitudeDegrees>
              <LongitudeDegrees>-0.157706849277019500732421875</LongitudeDegrees>
            </Position>
            <AltitudeMeters>2485.199951171875</AltitudeMeters>
            <DistanceMeters>25144.935589381</DistanceMeters>
          </Trackpoint>
          <Trackpoint>
            <Time>2022-07-10T06:46:08.000Z</Time>
            <Position>
              <LatitudeDegrees>42.79043032787740230560302734375</LatitudeDegrees>
              <LongitudeDegrees>-0.1577060110867023468017578125</LongitudeDegrees>
            </Position>
            <AltitudeMeters>2484.60009765625</AltitudeMeters>
            <DistanceMeters>25145.719199742</DistanceMeters>
          </Trackpoint>
          <Trackpoint>
            <Time>2022-07-10T06:46:14.000Z</Time>
            <Position>
              <LatitudeDegrees>42.79044239781796932220458984375</LatitudeDegrees>
              <LongitudeDegrees>-0.15772797167301177978515625</LongitudeDegrees>
            </Position>
            <AltitudeMeters>2483.39990234375</AltitudeMeters>
            <DistanceMeters>25147.961910731</DistanceMeters>
          </Trackpoint>
          <Trackpoint>
            <Time>2022-07-10T06:46:16.000Z</Time>
            <Position>
              <LatitudeDegrees>42.79044843278825283050537109375</LatitudeDegrees>
              <LongitudeDegrees>-0.15774674713611602783203125</LongitudeDegrees>
            </Position>
            <AltitudeMeters>2483.199951171875</AltitudeMeters>
            <DistanceMeters>25149.635028688</DistanceMeters>
          </Trackpoint>
          <Trackpoint>
            <Time>2022-07-10T06:46:18.000Z</Time>
            <Position>
              <LatitudeDegrees>42.79045966453850269317626953125</LatitudeDegrees>
              <LongitudeDegrees>-0.15776560641825199127197265625</LongitudeDegrees>
            </Position>
            <AltitudeMeters>2482.800048828125</AltitudeMeters>
            <DistanceMeters>25151.619244737</DistanceMeters>
          </Trackpoint>
          <Trackpoint>
            <Time>2022-07-10T06:46:19.000Z</Time>
            <Position>
              <LatitudeDegrees>42.79046553187072277069091796875</LatitudeDegrees>
              <LongitudeDegrees>-0.1577683724462985992431640625</LongitudeDegrees>
            </Position>
            <AltitudeMeters>2482.800048828125</AltitudeMeters>
            <DistanceMeters>25152.304492119</DistanceMeters>
          </Trackpoint>
          <Trackpoint>
            <Time>2022-07-10T06:46:21.000Z</Time>
            <Position>
              <LatitudeDegrees>42.7904758416116237640380859375</LatitudeDegrees>
              <LongitudeDegrees>-0.15776845626533031463623046875</LongitudeDegrees>
            </Position>
            <AltitudeMeters>2482.60009765625</AltitudeMeters>
            <DistanceMeters>25153.452704278</DistanceMeters>
          </Trackpoint>
          <Trackpoint>
            <Time>2022-07-10T06:46:24.000Z</Time>
            <Position>
              <LatitudeDegrees>42.790490426123142242431640625</LatitudeDegrees>
              <LongitudeDegrees>-0.15777449123561382293701171875</LongitudeDegrees>
            </Position>
            <AltitudeMeters>2482.39990234375</AltitudeMeters>
            <DistanceMeters>25155.152593822</DistanceMeters>
          </Trackpoint>
          <Trackpoint>
            <Time>2022-07-10T06:46:28.000Z</Time>
            <Position>
              <LatitudeDegrees>42.7904828824102878570556640625</LatitudeDegrees>
              <LongitudeDegrees>-0.1577851362526416778564453125</LongitudeDegrees>
            </Position>
            <AltitudeMeters>2481</AltitudeMeters>
            <DistanceMeters>25156.358347656</DistanceMeters>
          </Trackpoint>
          <Trackpoint>
            <Time>2022-07-10T06:46:33.000Z</Time>
            <Position>
              <LatitudeDegrees>42.7904517017304897308349609375</LatitudeDegrees>
              <LongitudeDegrees>-0.1577606610953807830810546875</LongitudeDegrees>
            </Position>
            <AltitudeMeters>2480.199951171875</AltitudeMeters>
            <DistanceMeters>25160.364149178</DistanceMeters>
          </Trackpoint>
          <Trackpoint>
            <Time>2022-07-10T06:46:34.000Z</Time>
            <Position>
              <LatitudeDegrees>42.79044105671346187591552734375</LatitudeDegrees>
              <LongitudeDegrees>-0.157759152352809906005859375</LongitudeDegrees>
            </Position>
            <AltitudeMeters>2480</AltitudeMeters>
            <DistanceMeters>25161.55103246</DistanceMeters>
          </Trackpoint>
          <Trackpoint>
            <Time>2022-07-10T06:46:35.000Z</Time>
            <Position>
              <LatitudeDegrees>42.79043217189610004425048828125</LatitudeDegrees>
              <LongitudeDegrees>-0.15776275657117366790771484375</LongitudeDegrees>
            </Position>
            <AltitudeMeters>2479.800048828125</AltitudeMeters>
            <DistanceMeters>25162.583286799</DistanceMeters>
          </Trackpoint>
          <Trackpoint>
            <Time>2022-07-10T06:46:41.000Z</Time>
            <Position>
              <LatitudeDegrees>42.79042412526905536651611328125</LatitudeDegrees>
              <LongitudeDegrees>-0.15775823034346103668212890625</LongitudeDegrees>
            </Position>
            <AltitudeMeters>2479</AltitudeMeters>
            <DistanceMeters>25163.552372941</DistanceMeters>
          </Trackpoint>
          <Trackpoint>
            <Time>2022-07-10T06:46:42.000Z</Time>
            <Position>
              <LatitudeDegrees>42.79042496345937252044677734375</LatitudeDegrees>
              <LongitudeDegrees>-0.1577603258192539215087890625</LongitudeDegrees>
            </Position>
            <AltitudeMeters>2478.800048828125</AltitudeMeters>
            <DistanceMeters>25163.74242637</DistanceMeters>
          </Trackpoint>
          <Trackpoint>
            <Time>2022-07-10T06:46:48.000Z</Time>
            <Position>
              <LatitudeDegrees>42.7903967164456844329833984375</LatitudeDegrees>
              <LongitudeDegrees>-0.15780600719153881072998046875</LongitudeDegrees>
            </Position>
            <AltitudeMeters>2478.199951171875</AltitudeMeters>
            <DistanceMeters>25168.621287047</DistanceMeters>
          </Trackpoint>
          <Trackpoint>
            <Time>2022-07-10T06:46:49.000Z</Time>
            <Position>
              <LatitudeDegrees>42.7903953753411769866943359375</LatitudeDegrees>
              <LongitudeDegrees>-0.15781036578118801116943359375</LongitudeDegrees>
            </Position>
            <AltitudeMeters>2478.199951171875</AltitudeMeters>
            <DistanceMeters>25169.001393905</DistanceMeters>
          </Trackpoint>
          <Trackpoint>
            <Time>2022-07-10T06:46:53.000Z</Time>
            <Position>
              <LatitudeDegrees>42.79039210639894008636474609375</LatitudeDegrees>
              <LongitudeDegrees>-0.15781422145664691925048828125</LongitudeDegrees>
            </Position>
            <AltitudeMeters>2477.800048828125</AltitudeMeters>
            <DistanceMeters>25169.485936975</DistanceMeters>
          </Trackpoint>
          <Trackpoint>
            <Time>2022-07-10T06:46:57.000Z</Time>
            <Position>
              <LatitudeDegrees>42.79037551023066043853759765625</LatitudeDegrees>
              <LongitudeDegrees>-0.1578193344175815582275390625</LongitudeDegrees>
            </Position>
            <AltitudeMeters>2477.199951171875</AltitudeMeters>
            <DistanceMeters>25171.381713973</DistanceMeters>
          </Trackpoint>
          <Trackpoint>
            <Time>2022-07-10T06:47:02.000Z</Time>
            <Position>
              <LatitudeDegrees>42.79033527709543704986572265625</LatitudeDegrees>
              <LongitudeDegrees>-0.15786149539053440093994140625</LongitudeDegrees>
            </Position>
            <AltitudeMeters>2476.60009765625</AltitudeMeters>
            <DistanceMeters>25177.030810375</DistanceMeters>
          </Trackpoint>
          <Trackpoint>
            <Time>2022-07-10T06:47:04.000Z</Time>
            <Position>
              <LatitudeDegrees>42.79033326543867588043212890625</LatitudeDegrees>
              <LongitudeDegrees>-0.15786468051373958587646484375</LongitudeDegrees>
            </Position>
            <AltitudeMeters>2476.39990234375</AltitudeMeters>
            <DistanceMeters>25177.386367782</DistanceMeters>
          </Trackpoint>
          <Trackpoint>
            <Time>2022-07-10T06:47:10.000Z</Time>
            <Position>
              <LatitudeDegrees>42.790330834686756134033203125</LatitudeDegrees>
              <LongitudeDegrees>-0.157888568937778472900390625</LongitudeDegrees>
            </Position>
            <AltitudeMeters>2475.800048828125</AltitudeMeters>
            <DistanceMeters>25179.356883672</DistanceMeters>
          </Trackpoint>
          <Trackpoint>
            <Time>2022-07-10T06:47:12.000Z</Time>
            <Position>
              <LatitudeDegrees>42.79031046666204929351806640625</LatitudeDegrees>
              <LongitudeDegrees>-0.157911367714405059814453125</LongitudeDegrees>
            </Position>
            <AltitudeMeters>2475.800048828125</AltitudeMeters>
            <DistanceMeters>25182.288885168</DistanceMeters>
          </Trackpoint>
          <Trackpoint>
            <Time>2022-07-10T06:47:13.000Z</Time>
            <Position>
              <LatitudeDegrees>42.79030392877757549285888671875</LatitudeDegrees>
              <LongitudeDegrees>-0.15791698358952999114990234375</LongitudeDegrees>
            </Position>
            <AltitudeMeters>2475.39990234375</AltitudeMeters>
            <DistanceMeters>25183.149388665</DistanceMeters>
          </Trackpoint>
          <Trackpoint>
            <Time>2022-07-10T06:47:16.000Z</Time>
            <Position>
              <LatitudeDegrees>42.790301330387592315673828125</LatitudeDegrees>
              <LongitudeDegrees>-0.15793383121490478515625</LongitudeDegrees>
            </Position>
            <AltitudeMeters>2475.199951171875</AltitudeMeters>
            <DistanceMeters>25184.552441289</DistanceMeters>
          </Trackpoint>
          <Trackpoint>
            <Time>2022-07-10T06:47:19.000Z</Time>
            <Position>
              <LatitudeDegrees>42.7903118915855884552001953125</LatitudeDegrees>
              <LongitudeDegrees>-0.15793609432876110076904296875</LongitudeDegrees>
            </Position>
            <AltitudeMeters>2474.800048828125</AltitudeMeters>
            <DistanceMeters>25185.743122607</DistanceMeters>
          </Trackpoint>
          <Trackpoint>
            <Time>2022-07-10T06:47:22.000Z</Time>
            <Position>
              <LatitudeDegrees>42.7903145737946033477783203125</LatitudeDegrees>
              <LongitudeDegrees>-0.15794447623193264007568359375</LongitudeDegrees>
            </Position>
            <AltitudeMeters>2474.199951171875</AltitudeMeters>
            <DistanceMeters>25186.491363704</DistanceMeters>
          </Trackpoint>
          <Trackpoint>
            <Time>2022-07-10T06:47:25.000Z</Time>
            <Position>
              <LatitudeDegrees>42.79031231068074703216552734375</LatitudeDegrees>
              <LongitudeDegrees>-0.15796291641891002655029296875</LongitudeDegrees>
            </Position>
            <AltitudeMeters>2473.800048828125</AltitudeMeters>
            <DistanceMeters>25188.017718749</DistanceMeters>
          </Trackpoint>
          <Trackpoint>
            <Time>2022-07-10T06:47:29.000Z</Time>
            <Position>
              <LatitudeDegrees>42.79028967954218387603759765625</LatitudeDegrees>
              <LongitudeDegrees>-0.1579812727868556976318359375</LongitudeDegrees>
            </Position>
            <AltitudeMeters>2473</AltitudeMeters>
            <DistanceMeters>25190.948179924</DistanceMeters>
          </Trackpoint>
          <Trackpoint>
            <Time>2022-07-10T06:47:31.000Z</Time>
            <Position>
              <LatitudeDegrees>42.7902592532336711883544921875</LatitudeDegrees>
              <LongitudeDegrees>-0.15800558030605316162109375</LongitudeDegrees>
            </Position>
            <AltitudeMeters>2472.199951171875</AltitudeMeters>
            <DistanceMeters>25194.873139849</DistanceMeters>
          </Trackpoint>
          <Trackpoint>
            <Time>2022-07-10T06:47:36.000Z</Time>
            <Position>
              <LatitudeDegrees>42.790228240191936492919921875</LatitudeDegrees>
              <LongitudeDegrees>-0.15806098468601703643798828125</LongitudeDegrees>
            </Position>
            <AltitudeMeters>2471.800048828125</AltitudeMeters>
            <DistanceMeters>25200.565232108</DistanceMeters>
          </Trackpoint>
          <Trackpoint>
            <Time>2022-07-10T06:47:38.000Z</Time>
            <Position>
              <LatitudeDegrees>42.79022949747741222381591796875</LatitudeDegrees>
              <LongitudeDegrees>-0.15807456336915493011474609375</LongitudeDegrees>
            </Position>
            <AltitudeMeters>2471.199951171875</AltitudeMeters>
            <DistanceMeters>25201.681543242</DistanceMeters>
          </Trackpoint>
          <Trackpoint>
            <Time>2022-07-10T06:47:40.000Z</Time>
            <Position>
              <LatitudeDegrees>42.79023326933383941650390625</LatitudeDegrees>
              <LongitudeDegrees>-0.158087722957134246826171875</LongitudeDegrees>
            </Position>
            <AltitudeMeters>2470.800048828125</AltitudeMeters>
            <DistanceMeters>25202.837593117</DistanceMeters>
          </Trackpoint>
          <Trackpoint>
            <Time>2022-07-10T06:47:44.000Z</Time>
            <Position>
              <LatitudeDegrees>42.79024139977991580963134765625</LatitudeDegrees>
              <LongitudeDegrees>-0.1581220887601375579833984375</LongitudeDegrees>
            </Position>
            <AltitudeMeters>2470.199951171875</AltitudeMeters>
            <DistanceMeters>25205.788015747</DistanceMeters>
          </Trackpoint>
          <Trackpoint>
            <Time>2022-07-10T06:47:45.000Z</Time>
            <Position>
              <LatitudeDegrees>42.79024458490312099456787109375</LatitudeDegrees>
              <LongitudeDegrees>-0.1581267826259136199951171875</LongitudeDegrees>
            </Position>
            <AltitudeMeters>2470.199951171875</AltitudeMeters>
            <DistanceMeters>25206.308498497</DistanceMeters>
          </Trackpoint>
          <Trackpoint>
            <Time>2022-07-10T06:47:50.000Z</Time>
            <Position>
              <LatitudeDegrees>42.79029236175119876861572265625</LatitudeDegrees>
              <LongitudeDegrees>-0.1581328175961971282958984375</LongitudeDegrees>
            </Position>
            <AltitudeMeters>2469.39990234375</AltitudeMeters>
            <DistanceMeters>25211.648627841</DistanceMeters>
          </Trackpoint>
          <Trackpoint>
            <Time>2022-07-10T06:47:52.000Z</Time>
            <Position>
              <LatitudeDegrees>42.7903199382126331329345703125</LatitudeDegrees>
              <LongitudeDegrees>-0.1581214182078838348388671875</LongitudeDegrees>
            </Position>
            <AltitudeMeters>2469.39990234375</AltitudeMeters>
            <DistanceMeters>25214.857098995</DistanceMeters>
          </Trackpoint>
          <Trackpoint>
            <Time>2022-07-10T06:47:53.000Z</Time>
            <Position>
              <LatitudeDegrees>42.79033259488642215728759765625</LatitudeDegrees>
              <LongitudeDegrees>-0.15810909681022167205810546875</LongitudeDegrees>
            </Position>
            <AltitudeMeters>2468.60009765625</AltitudeMeters>
            <DistanceMeters>25216.588568134</DistanceMeters>
          </Trackpoint>
          <Trackpoint>
            <Time>2022-07-10T06:47:55.000Z</Time>
            <Position>
              <LatitudeDegrees>42.79033343307673931121826171875</LatitudeDegrees>
              <LongitudeDegrees>-0.1581224240362644195556640625</LongitudeDegrees>
            </Position>
            <AltitudeMeters>2468.199951171875</AltitudeMeters>
            <DistanceMeters>25217.680341962</DistanceMeters>
          </Trackpoint>
          <Trackpoint>
            <Time>2022-07-10T06:47:59.000Z</Time>
            <Position>
              <LatitudeDegrees>42.79033116996288299560546875</LatitudeDegrees>
              <LongitudeDegrees>-0.15812368132174015045166015625</LongitudeDegrees>
            </Position>
            <AltitudeMeters>2467.800048828125</AltitudeMeters>
            <DistanceMeters>25217.949118098</DistanceMeters>
          </Trackpoint>
          <Trackpoint>
            <Time>2022-07-10T06:48:05.000Z</Time>
            <Position>
              <LatitudeDegrees>42.79034567065536975860595703125</LatitudeDegrees>
              <LongitudeDegrees>-0.1581428758800029754638671875</LongitudeDegrees>
            </Position>
            <AltitudeMeters>2467.39990234375</AltitudeMeters>
            <DistanceMeters>25220.199867503</DistanceMeters>
          </Trackpoint>
          <Trackpoint>
            <Time>2022-07-10T06:48:06.000Z</Time>
            <Position>
              <LatitudeDegrees>42.790347598493099212646484375</LatitudeDegrees>
              <LongitudeDegrees>-0.15815217979252338409423828125</LongitudeDegrees>
            </Position>
            <AltitudeMeters>2467.39990234375</AltitudeMeters>
            <DistanceMeters>25220.983477865</DistanceMeters>
          </Trackpoint>
          <Trackpoint>
            <Time>2022-07-10T06:48:09.000Z</Time>
            <Position>
              <LatitudeDegrees>42.79034868814051151275634765625</LatitudeDegrees>
              <LongitudeDegrees>-0.15817967243492603302001953125</LongitudeDegrees>
            </Position>
            <AltitudeMeters>2467</AltitudeMeters>
            <DistanceMeters>25223.228201156</DistanceMeters>
          </Trackpoint>
          <Trackpoint>
            <Time>2022-07-10T06:48:10.000Z</Time>
            <Position>
              <LatitudeDegrees>42.790346927940845489501953125</LatitudeDegrees>
              <LongitudeDegrees>-0.15818838961422443389892578125</LongitudeDegrees>
            </Position>
            <AltitudeMeters>2466.800048828125</AltitudeMeters>
            <DistanceMeters>25223.964274921</DistanceMeters>
          </Trackpoint>
          <Trackpoint>
            <Time>2022-07-10T06:48:14.000Z</Time>
            <Position>
              <LatitudeDegrees>42.79033242724835872650146484375</LatitudeDegrees>
              <LongitudeDegrees>-0.15819828025996685028076171875</LongitudeDegrees>
            </Position>
            <AltitudeMeters>2465.800048828125</AltitudeMeters>
            <DistanceMeters>25225.767280056</DistanceMeters>
          </Trackpoint>
          <Trackpoint>
            <Time>2022-07-10T06:48:18.000Z</Time>
            <Position>
              <LatitudeDegrees>42.790318429470062255859375</LatitudeDegrees>
              <LongitudeDegrees>-0.15820347703993320465087890625</LongitudeDegrees>
            </Position>
            <AltitudeMeters>2465</AltitudeMeters>
            <DistanceMeters>25227.38552669</DistanceMeters>
          </Trackpoint>
          <Trackpoint>
            <Time>2022-07-10T06:48:21.000Z</Time>
            <Position>
              <LatitudeDegrees>42.79031398706138134002685546875</LatitudeDegrees>
              <LongitudeDegrees>-0.15818797051906585693359375</LongitudeDegrees>
            </Position>
            <AltitudeMeters>2464.800048828125</AltitudeMeters>
            <DistanceMeters>25228.746102183</DistanceMeters>
          </Trackpoint>
          <Trackpoint>
            <Time>2022-07-10T06:48:22.000Z</Time>
            <Position>
              <LatitudeDegrees>42.790310382843017578125</LatitudeDegrees>
              <LongitudeDegrees>-0.15818721614778041839599609375</LongitudeDegrees>
            </Position>
            <AltitudeMeters>2464.199951171875</AltitudeMeters>
            <DistanceMeters>25229.171074569</DistanceMeters>
          </Trackpoint>
          <Trackpoint>
            <Time>2022-07-10T06:48:24.000Z</Time>
            <Position>
              <LatitudeDegrees>42.79030694626271724700927734375</LatitudeDegrees>
              <LongitudeDegrees>-0.15819660387933254241943359375</LongitudeDegrees>
            </Position>
            <AltitudeMeters>2463.60009765625</AltitudeMeters>
            <DistanceMeters>25230.031578066</DistanceMeters>
          </Trackpoint>
          <Trackpoint>
            <Time>2022-07-10T06:48:26.000Z</Time>
            <Position>
              <LatitudeDegrees>42.79031096957623958587646484375</LatitudeDegrees>
              <LongitudeDegrees>-0.1582085900008678436279296875</LongitudeDegrees>
            </Position>
            <AltitudeMeters>2463.199951171875</AltitudeMeters>
            <DistanceMeters>25231.106682612</DistanceMeters>
          </Trackpoint>
          <Trackpoint>
            <Time>2022-07-10T06:48:29.000Z</Time>
            <Position>
              <LatitudeDegrees>42.7903149090707302093505859375</LatitudeDegrees>
              <LongitudeDegrees>-0.15821873210370540618896484375</LongitudeDegrees>
            </Position>
            <AltitudeMeters>2462.800048828125</AltitudeMeters>
            <DistanceMeters>25232.04739909</DistanceMeters>
          </Trackpoint>
          <Trackpoint>
            <Time>2022-07-10T06:48:34.000Z</Time>
            <Position>
              <LatitudeDegrees>42.7903041802346706390380859375</LatitudeDegrees>
              <LongitudeDegrees>-0.15823197551071643829345703125</LongitudeDegrees>
            </Position>
            <AltitudeMeters>2462</AltitudeMeters>
            <DistanceMeters>25233.660055909</DistanceMeters>
          </Trackpoint>
          <Trackpoint>
            <Time>2022-07-10T06:48:37.000Z</Time>
            <Position>
              <LatitudeDegrees>42.790277861058712005615234375</LatitudeDegrees>
              <LongitudeDegrees>-0.15823784284293651580810546875</LongitudeDegrees>
            </Position>
            <AltitudeMeters>2461.39990234375</AltitudeMeters>
            <DistanceMeters>25236.628785369</DistanceMeters>
          </Trackpoint>
          <Trackpoint>
            <Time>2022-07-10T06:48:39.000Z</Time>
            <Position>
              <LatitudeDegrees>42.7902609296143054962158203125</LatitudeDegrees>
              <LongitudeDegrees>-0.1582484878599643707275390625</LongitudeDegrees>
            </Position>
            <AltitudeMeters>2461.199951171875</AltitudeMeters>
            <DistanceMeters>25238.70202351</DistanceMeters>
          </Trackpoint>
          <Trackpoint>
            <Time>2022-07-10T06:48:40.000Z</Time>
            <Position>
              <LatitudeDegrees>42.79025229625403881072998046875</LatitudeDegrees>
              <LongitudeDegrees>-0.15825611539185047149658203125</LongitudeDegrees>
            </Position>
            <AltitudeMeters>2461</AltitudeMeters>
            <DistanceMeters>25239.850235668</DistanceMeters>
          </Trackpoint>
          <Trackpoint>
            <Time>2022-07-10T06:48:41.000Z</Time>
            <Position>
              <LatitudeDegrees>42.79024207033216953277587890625</LatitudeDegrees>
              <LongitudeDegrees>-0.1582665927708148956298828125</LongitudeDegrees>
            </Position>
            <AltitudeMeters>2460.800048828125</AltitudeMeters>
            <DistanceMeters>25241.275636384</DistanceMeters>
          </Trackpoint>
          <Trackpoint>
            <Time>2022-07-10T06:48:45.000Z</Time>
            <Position>
              <LatitudeDegrees>42.79021860100328922271728515625</LatitudeDegrees>
              <LongitudeDegrees>-0.1582994498312473297119140625</LongitudeDegrees>
            </Position>
            <AltitudeMeters>2460.199951171875</AltitudeMeters>
            <DistanceMeters>25245.021666121</DistanceMeters>
          </Trackpoint>
          <Trackpoint>
            <Time>2022-07-10T06:48:47.000Z</Time>
            <Position>
              <LatitudeDegrees>42.79020820744335651397705078125</LatitudeDegrees>
              <LongitudeDegrees>-0.15831227414309978485107421875</LongitudeDegrees>
            </Position>
            <AltitudeMeters>2459.800048828125</AltitudeMeters>
            <DistanceMeters>25246.583114372</DistanceMeters>
          </Trackpoint>
          <Trackpoint>
            <Time>2022-07-10T06:48:52.000Z</Time>
            <Position>
              <LatitudeDegrees>42.79016747139394283294677734375</LatitudeDegrees>
              <LongitudeDegrees>-0.15834026969969272613525390625</LongitudeDegrees>
            </Position>
            <AltitudeMeters>2458.800048828125</AltitudeMeters>
            <DistanceMeters>25251.661489932</DistanceMeters>
          </Trackpoint>
          <Trackpoint>
            <Time>2022-07-10T06:48:58.000Z</Time>
            <Position>
              <LatitudeDegrees>42.79018758796155452728271484375</LatitudeDegrees>
              <LongitudeDegrees>-0.15832836739718914031982421875</LongitudeDegrees>
            </Position>
            <AltitudeMeters>2458</AltitudeMeters>
            <DistanceMeters>25254.102770426</DistanceMeters>
          </Trackpoint>
          <Trackpoint>
            <Time>2022-07-10T06:48:59.000Z</Time>
            <Position>
              <LatitudeDegrees>42.7901955507695674896240234375</LatitudeDegrees>
              <LongitudeDegrees>-0.15833079814910888671875</LongitudeDegrees>
            </Position>
            <AltitudeMeters>2458</AltitudeMeters>
            <DistanceMeters>25255.014234651</DistanceMeters>
          </Trackpoint>
          <Trackpoint>
            <Time>2022-07-10T06:49:03.000Z</Time>
            <Position>
              <LatitudeDegrees>42.790202088654041290283203125</LatitudeDegrees>
              <LongitudeDegrees>-0.15835292637348175048828125</LongitudeDegrees>
            </Position>
            <AltitudeMeters>2457.800048828125</AltitudeMeters>
            <DistanceMeters>25256.961702778</DistanceMeters>
          </Trackpoint>
          <Trackpoint>
            <Time>2022-07-10T06:49:04.000Z</Time>
            <Position>
              <LatitudeDegrees>42.7902032621204853057861328125</LatitudeDegrees>
              <LongitudeDegrees>-0.158357955515384674072265625</LongitudeDegrees>
            </Position>
            <AltitudeMeters>2457.60009765625</AltitudeMeters>
            <DistanceMeters>25257.386675164</DistanceMeters>
          </Trackpoint>
          <Trackpoint>
            <Time>2022-07-10T06:49:06.000Z</Time>
            <Position>
              <LatitudeDegrees>42.7902056090533733367919921875</LatitudeDegrees>
              <LongitudeDegrees>-0.15837111510336399078369140625</LongitudeDegrees>
            </Position>
            <AltitudeMeters>2457</AltitudeMeters>
            <DistanceMeters>25258.494867564</DistanceMeters>
          </Trackpoint>
          <Trackpoint>
            <Time>2022-07-10T06:49:07.000Z</Time>
            <Position>
              <LatitudeDegrees>42.7902032621204853057861328125</LatitudeDegrees>
              <LongitudeDegrees>-0.15838150866329669952392578125</LongitudeDegrees>
            </Position>
            <AltitudeMeters>2456.60009765625</AltitudeMeters>
            <DistanceMeters>25259.386297162</DistanceMeters>
          </Trackpoint>
          <Trackpoint>
            <Time>2022-07-10T06:49:10.000Z</Time>
            <Position>
              <LatitudeDegrees>42.79018641449511051177978515625</LatitudeDegrees>
              <LongitudeDegrees>-0.15840631909668445587158203125</LongitudeDegrees>
            </Position>
            <AltitudeMeters>2456</AltitudeMeters>
            <DistanceMeters>25262.150251697</DistanceMeters>
          </Trackpoint>
          <Trackpoint>
            <Time>2022-07-10T06:49:11.000Z</Time>
            <Position>
              <LatitudeDegrees>42.7901794575154781341552734375</LatitudeDegrees>
              <LongitudeDegrees>-0.158415623009204864501953125</LongitudeDegrees>
            </Position>
            <AltitudeMeters>2455.800048828125</AltitudeMeters>
            <DistanceMeters>25263.237882155</DistanceMeters>
          </Trackpoint>
          <Trackpoint>
            <Time>2022-07-10T06:49:12.000Z</Time>
            <Position>
              <LatitudeDegrees>42.7901749312877655029296875</LatitudeDegrees>
              <LongitudeDegrees>-0.1584260165691375732421875</LongitudeDegrees>
            </Position>
            <AltitudeMeters>2455.60009765625</AltitudeMeters>
            <DistanceMeters>25264.22542874</DistanceMeters>
          </Trackpoint>
          <Trackpoint>
            <Time>2022-07-10T06:49:13.000Z</Time>
            <Position>
              <LatitudeDegrees>42.79017535038292407989501953125</LatitudeDegrees>
              <LongitudeDegrees>-0.15843666158616542816162109375</LongitudeDegrees>
            </Position>
            <AltitudeMeters>2455.39990234375</AltitudeMeters>
            <DistanceMeters>25265.085932237</DistanceMeters>
          </Trackpoint>
          <Trackpoint>
            <Time>2022-07-10T06:49:19.000Z</Time>
            <Position>
              <LatitudeDegrees>42.7901814691722393035888671875</LatitudeDegrees>
              <LongitudeDegrees>-0.158466584980487823486328125</LongitudeDegrees>
            </Position>
            <AltitudeMeters>2454.60009765625</AltitudeMeters>
            <DistanceMeters>25267.621561237</DistanceMeters>
          </Trackpoint>
          <Trackpoint>
            <Time>2022-07-10T06:49:20.000Z</Time>
            <Position>
              <LatitudeDegrees>42.7901787869632244110107421875</LatitudeDegrees>
              <LongitudeDegrees>-0.1584744639694690704345703125</LongitudeDegrees>
            </Position>
            <AltitudeMeters>2454.39990234375</AltitudeMeters>
            <DistanceMeters>25268.332676053</DistanceMeters>
          </Trackpoint>
          <Trackpoint>
            <Time>2022-07-10T06:49:26.000Z</Time>
            <Position>
              <LatitudeDegrees>42.790191359817981719970703125</LatitudeDegrees>
              <LongitudeDegrees>-0.158498771488666534423828125</LongitudeDegrees>
            </Position>
            <AltitudeMeters>2453.800048828125</AltitudeMeters>
            <DistanceMeters>25270.762834482</DistanceMeters>
          </Trackpoint>
          <Trackpoint>
            <Time>2022-07-10T06:49:27.000Z</Time>
            <Position>
              <LatitudeDegrees>42.79019831679761409759521484375</LatitudeDegrees>
              <LongitudeDegrees>-0.15850715339183807373046875</LongitudeDegrees>
            </Position>
            <AltitudeMeters>2453.60009765625</AltitudeMeters>
            <DistanceMeters>25271.795088821</DistanceMeters>
          </Trackpoint>
          <Trackpoint>
            <Time>2022-07-10T06:49:28.000Z</Time>
            <Position>
              <LatitudeDegrees>42.79020912945270538330078125</LatitudeDegrees>
              <LongitudeDegrees>-0.158513523638248443603515625</LongitudeDegrees>
            </Position>
            <AltitudeMeters>2453.39990234375</AltitudeMeters>
            <DistanceMeters>25273.104941685</DistanceMeters>
          </Trackpoint>
          <Trackpoint>
            <Time>2022-07-10T06:49:34.000Z</Time>
            <Position>
              <LatitudeDegrees>42.79026277363300323486328125</LatitudeDegrees>
              <LongitudeDegrees>-0.1585170440375804901123046875</LongitudeDegrees>
            </Position>
            <AltitudeMeters>2452.39990234375</AltitudeMeters>
            <DistanceMeters>25279.082567676</DistanceMeters>
          </Trackpoint>
          <Trackpoint>
            <Time>2022-07-10T06:49:35.000Z</Time>
            <Position>
              <LatitudeDegrees>42.79026570729911327362060546875</LatitudeDegrees>
              <LongitudeDegrees>-0.1585143618285655975341796875</LongitudeDegrees>
            </Position>
            <AltitudeMeters>2452.199951171875</AltitudeMeters>
            <DistanceMeters>25279.462674534</DistanceMeters>
          </Trackpoint>
          <Trackpoint>
            <Time>2022-07-10T06:49:41.000Z</Time>
            <Position>
              <LatitudeDegrees>42.79026671312749385833740234375</LatitudeDegrees>
              <LongitudeDegrees>-0.1585260964930057525634765625</LongitudeDegrees>
            </Position>
            <AltitudeMeters>2451.199951171875</AltitudeMeters>
            <DistanceMeters>25280.427090354</DistanceMeters>
          </Trackpoint>
          <Trackpoint>
            <Time>2022-07-10T06:49:47.000Z</Time>
            <Position>
              <LatitudeDegrees>42.790238298475742340087890625</LatitudeDegrees>
              <LongitudeDegrees>-0.15853556804358959197998046875</LongitudeDegrees>
            </Position>
            <AltitudeMeters>2450.39990234375</AltitudeMeters>
            <DistanceMeters>25283.683055609</DistanceMeters>
          </Trackpoint>
          <Trackpoint>
            <Time>2022-07-10T06:49:49.000Z</Time>
            <Position>
              <LatitudeDegrees>42.7902280725538730621337890625</LatitudeDegrees>
              <LongitudeDegrees>-0.1585445366799831390380859375</LongitudeDegrees>
            </Position>
            <AltitudeMeters>2450.199951171875</AltitudeMeters>
            <DistanceMeters>25285.03363898</DistanceMeters>
          </Trackpoint>
          <Trackpoint>
            <Time>2022-07-10T06:49:54.000Z</Time>
            <Position>
              <LatitudeDegrees>42.7902178466320037841796875</LatitudeDegrees>
              <LongitudeDegrees>-0.158555097877979278564453125</LongitudeDegrees>
            </Position>
            <AltitudeMeters>2449.39990234375</AltitudeMeters>
            <DistanceMeters>25286.462203741</DistanceMeters>
          </Trackpoint>
          <Trackpoint>
            <Time>2022-07-10T06:49:55.000Z</Time>
            <Position>
              <LatitudeDegrees>42.790222205221652984619140625</LatitudeDegrees>
              <LongitudeDegrees>-0.15854847617447376251220703125</LongitudeDegrees>
            </Position>
            <AltitudeMeters>2449.39990234375</AltitudeMeters>
            <DistanceMeters>25287.185905637</DistanceMeters>
          </Trackpoint>
          <Trackpoint>
            <Time>2022-07-10T06:49:58.000Z</Time>
            <Position>
              <LatitudeDegrees>42.790232934057712554931640625</LatitudeDegrees>
              <LongitudeDegrees>-0.15852567739784717559814453125</LongitudeDegrees>
            </Position>
            <AltitudeMeters>2449.39990234375</AltitudeMeters>
            <DistanceMeters>25289.398212449</DistanceMeters>
          </Trackpoint>
          <Trackpoint>
            <Time>2022-07-10T06:50:00.000Z</Time>
            <Position>
              <LatitudeDegrees>42.79022865928709506988525390625</LatitudeDegrees>
              <LongitudeDegrees>-0.15852601267397403717041015625</LongitudeDegrees>
            </Position>
            <AltitudeMeters>2449.60009765625</AltitudeMeters>
            <DistanceMeters>25289.873346021</DistanceMeters>
          </Trackpoint>
          <Trackpoint>
            <Time>2022-07-10T06:50:03.000Z</Time>
            <Position>
              <LatitudeDegrees>42.79021692462265491485595703125</LatitudeDegrees>
              <LongitudeDegrees>-0.1585613004863262176513671875</LongitudeDegrees>
            </Position>
            <AltitudeMeters>2449</AltitudeMeters>
            <DistanceMeters>25293.037892557</DistanceMeters>
          </Trackpoint>
          <Trackpoint>
            <Time>2022-07-10T06:50:06.000Z</Time>
            <Position>
              <LatitudeDegrees>42.79020083136856555938720703125</LatitudeDegrees>
              <LongitudeDegrees>-0.1585789024829864501953125</LongitudeDegrees>
            </Position>
            <AltitudeMeters>2447.800048828125</AltitudeMeters>
            <DistanceMeters>25295.334316873</DistanceMeters>
          </Trackpoint>
          <Trackpoint>
            <Time>2022-07-10T06:50:08.000Z</Time>
            <Position>
              <LatitudeDegrees>42.790202759206295013427734375</LatitudeDegrees>
              <LongitudeDegrees>-0.15859273262321949005126953125</LongitudeDegrees>
            </Position>
            <AltitudeMeters>2447.39990234375</AltitudeMeters>
            <DistanceMeters>25296.482529032</DistanceMeters>
          </Trackpoint>
          <Trackpoint>
            <Time>2022-07-10T06:50:14.000Z</Time>
            <Position>
              <LatitudeDegrees>42.79019144363701343536376953125</LatitudeDegrees>
              <LongitudeDegrees>-0.1586310379207134246826171875</LongitudeDegrees>
            </Position>
            <AltitudeMeters>2447</AltitudeMeters>
            <DistanceMeters>25299.855642774</DistanceMeters>
          </Trackpoint>
          <Trackpoint>
            <Time>2022-07-10T06:50:15.000Z</Time>
            <Position>
              <LatitudeDegrees>42.79018624685704708099365234375</LatitudeDegrees>
              <LongitudeDegrees>-0.15863497741520404815673828125</LongitudeDegrees>
            </Position>
            <AltitudeMeters>2447</AltitudeMeters>
            <DistanceMeters>25300.514007164</DistanceMeters>
          </Trackpoint>
          <Trackpoint>
            <Time>2022-07-10T06:50:17.000Z</Time>
            <Position>
              <LatitudeDegrees>42.79017283581197261810302734375</LatitudeDegrees>
              <LongitudeDegrees>-0.15863682143390178680419921875</LongitudeDegrees>
            </Position>
            <AltitudeMeters>2446.800048828125</AltitudeMeters>
            <DistanceMeters>25302.016511444</DistanceMeters>
          </Trackpoint>
          <Trackpoint>
            <Time>2022-07-10T06:50:19.000Z</Time>
            <Position>
              <LatitudeDegrees>42.79016914777457714080810546875</LatitudeDegrees>
              <LongitudeDegrees>-0.1586256735026836395263671875</LongitudeDegrees>
            </Position>
            <AltitudeMeters>2446.60009765625</AltitudeMeters>
            <DistanceMeters>25303.017680004</DistanceMeters>
          </Trackpoint>
          <Trackpoint>
            <Time>2022-07-10T06:50:22.000Z</Time>
            <Position>
              <LatitudeDegrees>42.79016898013651371002197265625</LatitudeDegrees>
              <LongitudeDegrees>-0.1586015336215496063232421875</LongitudeDegrees>
            </Position>
            <AltitudeMeters>2446.199951171875</AltitudeMeters>
            <DistanceMeters>25304.988195893</DistanceMeters>
          </Trackpoint>
          <Trackpoint>
            <Time>2022-07-10T06:50:24.000Z</Time>
            <Position>
              <LatitudeDegrees>42.79015892185270786285400390625</LatitudeDegrees>
              <LongitudeDegrees>-0.15860916115343570709228515625</LongitudeDegrees>
            </Position>
            <AltitudeMeters>2446.199951171875</AltitudeMeters>
            <DistanceMeters>25306.270176358</DistanceMeters>
          </Trackpoint>
          <Trackpoint>
            <Time>2022-07-10T06:50:26.000Z</Time>
            <Position>
              <LatitudeDegrees>42.79014249332249164581298828125</LatitudeDegrees>
              <LongitudeDegrees>-0.15862517058849334716796875</LongitudeDegrees>
            </Position>
            <AltitudeMeters>2446</AltitudeMeters>
            <DistanceMeters>25308.518918853</DistanceMeters>
          </Trackpoint>
          <Trackpoint>
            <Time>2022-07-10T06:50:28.000Z</Time>
            <Position>
              <LatitudeDegrees>42.79012874700129032135009765625</LatitudeDegrees>
              <LongitudeDegrees>-0.158652327954769134521484375</LongitudeDegrees>
            </Position>
            <AltitudeMeters>2446</AltitudeMeters>
            <DistanceMeters>25311.213391243</DistanceMeters>
          </Trackpoint>
          <Trackpoint>
            <Time>2022-07-10T06:50:31.000Z</Time>
            <Position>
              <LatitudeDegrees>42.79012908227741718292236328125</LatitudeDegrees>
              <LongitudeDegrees>-0.1586809940636157989501953125</LongitudeDegrees>
            </Position>
            <AltitudeMeters>2445.800048828125</AltitudeMeters>
            <DistanceMeters>25313.552670261</DistanceMeters>
          </Trackpoint>
          <Trackpoint>
            <Time>2022-07-10T06:50:35.000Z</Time>
            <Position>
              <LatitudeDegrees>42.7901271544396877288818359375</LatitudeDegrees>
              <LongitudeDegrees>-0.158691890537738800048828125</LongitudeDegrees>
            </Position>
            <AltitudeMeters>2445.39990234375</AltitudeMeters>
            <DistanceMeters>25314.47398844</DistanceMeters>
          </Trackpoint>
          <Trackpoint>
            <Time>2022-07-10T06:50:39.000Z</Time>
            <Position>
              <LatitudeDegrees>42.79013444669544696807861328125</LatitudeDegrees>
              <LongitudeDegrees>-0.15868686139583587646484375</LongitudeDegrees>
            </Position>
            <AltitudeMeters>2444.800048828125</AltitudeMeters>
            <DistanceMeters>25315.385452664</DistanceMeters>
          </Trackpoint>
          <Trackpoint>
            <Time>2022-07-10T06:50:40.000Z</Time>
            <Position>
              <LatitudeDegrees>42.79013679362833499908447265625</LatitudeDegrees>
              <LongitudeDegrees>-0.1586846821010112762451171875</LongitudeDegrees>
            </Position>
            <AltitudeMeters>2444.39990234375</AltitudeMeters>
            <DistanceMeters>25315.714634859</DistanceMeters>
          </Trackpoint>
          <Trackpoint>
            <Time>2022-07-10T06:50:42.000Z</Time>
            <Position>
              <LatitudeDegrees>42.79013805091381072998046875</LatitudeDegrees>
              <LongitudeDegrees>-0.15868744812905788421630859375</LongitudeDegrees>
            </Position>
            <AltitudeMeters>2444</AltitudeMeters>
            <DistanceMeters>25315.983410996</DistanceMeters>
          </Trackpoint>
          <Trackpoint>
            <Time>2022-07-10T06:50:48.000Z</Time>
            <Position>
              <LatitudeDegrees>42.79013897292315959930419921875</LatitudeDegrees>
              <LongitudeDegrees>-0.15871209092438220977783203125</LongitudeDegrees>
            </Position>
            <AltitudeMeters>2443.60009765625</AltitudeMeters>
            <DistanceMeters>25317.999232019</DistanceMeters>
          </Trackpoint>
          <Trackpoint>
            <Time>2022-07-10T06:50:49.000Z</Time>
            <Position>
              <LatitudeDegrees>42.7901385538280010223388671875</LatitudeDegrees>
              <LongitudeDegrees>-0.158719718456268310546875</LongitudeDegrees>
            </Position>
            <AltitudeMeters>2443.39990234375</AltitudeMeters>
            <DistanceMeters>25318.629567933</DistanceMeters>
          </Trackpoint>
          <Trackpoint>
            <Time>2022-07-10T06:50:50.000Z</Time>
            <Position>
              <LatitudeDegrees>42.7901355363428592681884765625</LatitudeDegrees>
              <LongitudeDegrees>-0.158725082874298095703125</LongitudeDegrees>
            </Position>
            <AltitudeMeters>2443.39990234375</AltitudeMeters>
            <DistanceMeters>25319.175454846</DistanceMeters>
          </Trackpoint>
          <Trackpoint>
            <Time>2022-07-10T06:50:52.000Z</Time>
            <Position>
              <LatitudeDegrees>42.79012673534452915191650390625</LatitudeDegrees>
              <LongitudeDegrees>-0.158735476434230804443359375</LongitudeDegrees>
            </Position>
            <AltitudeMeters>2443.199951171875</AltitudeMeters>
            <DistanceMeters>25320.467957899</DistanceMeters>
          </Trackpoint>
          <Trackpoint>
            <Time>2022-07-10T06:50:53.000Z</Time>
            <Position>
              <LatitudeDegrees>42.79012329876422882080078125</LatitudeDegrees>
              <LongitudeDegrees>-0.15874193049967288970947265625</LongitudeDegrees>
            </Position>
            <AltitudeMeters>2443</AltitudeMeters>
            <DistanceMeters>25321.126322289</DistanceMeters>
          </Trackpoint>
          <Trackpoint>
            <Time>2022-07-10T06:50:54.000Z</Time>
            <Position>
              <LatitudeDegrees>42.79011868871748447418212890625</LatitudeDegrees>
              <LongitudeDegrees>-0.15874478034675121307373046875</LongitudeDegrees>
            </Position>
            <AltitudeMeters>2443</AltitudeMeters>
            <DistanceMeters>25321.696482575</DistanceMeters>
          </Trackpoint>
          <Trackpoint>
            <Time>2022-07-10T06:50:55.000Z</Time>
            <Position>
              <LatitudeDegrees>42.7901164256036281585693359375</LatitudeDegrees>
              <LongitudeDegrees>-0.15874964185059070587158203125</LongitudeDegrees>
            </Position>
            <AltitudeMeters>2442.800048828125</AltitudeMeters>
            <DistanceMeters>25322.162016499</DistanceMeters>
          </Trackpoint>
          <Trackpoint>
            <Time>2022-07-10T06:50:56.000Z</Time>
            <Position>
              <LatitudeDegrees>42.790114246308803558349609375</LatitudeDegrees>
              <LongitudeDegrees>-0.158752910792827606201171875</LongitudeDegrees>
            </Position>
            <AltitudeMeters>2442.800048828125</AltitudeMeters>
            <DistanceMeters>25322.542123357</DistanceMeters>
          </Trackpoint>
          <Trackpoint>
            <Time>2022-07-10T06:50:58.000Z</Time>
            <Position>
              <LatitudeDegrees>42.79011181555688381195068359375</LatitudeDegrees>
              <LongitudeDegrees>-0.15877210535109043121337890625</LongitudeDegrees>
            </Position>
            <AltitudeMeters>2442.39990234375</AltitudeMeters>
            <DistanceMeters>25324.132224424</DistanceMeters>
          </Trackpoint>
          <Trackpoint>
            <Time>2022-07-10T06:50:59.000Z</Time>
            <Position>
              <LatitudeDegrees>42.790111564099788665771484375</LatitudeDegrees>
              <LongitudeDegrees>-0.15878048725426197052001953125</LongitudeDegrees>
            </Position>
            <AltitudeMeters>2442.199951171875</AltitudeMeters>
            <DistanceMeters>25324.817471807</DistanceMeters>
          </Trackpoint>
          <Trackpoint>
            <Time>2022-07-10T06:51:04.000Z</Time>
            <Position>
              <LatitudeDegrees>42.79011902399361133575439453125</LatitudeDegrees>
              <LongitudeDegrees>-0.15882155857980251312255859375</LongitudeDegrees>
            </Position>
            <AltitudeMeters>2441.199951171875</AltitudeMeters>
            <DistanceMeters>25328.272578326</DistanceMeters>
          </Trackpoint>
          <Trackpoint>
            <Time>2022-07-10T06:51:05.000Z</Time>
            <Position>
              <LatitudeDegrees>42.7901234664022922515869140625</LatitudeDegrees>
              <LongitudeDegrees>-0.15882457606494426727294921875</LongitudeDegrees>
            </Position>
            <AltitudeMeters>2441</AltitudeMeters>
            <DistanceMeters>25328.81846524</DistanceMeters>
          </Trackpoint>
          <Trackpoint>
            <Time>2022-07-10T06:51:07.000Z</Time>
            <Position>
              <LatitudeDegrees>42.79015355743467807769775390625</LatitudeDegrees>
              <LongitudeDegrees>-0.15883195213973522186279296875</LongitudeDegrees>
            </Position>
            <AltitudeMeters>2440.199951171875</AltitudeMeters>
            <DistanceMeters>25332.220899368</DistanceMeters>
          </Trackpoint>
          <Trackpoint>
            <Time>2022-07-10T06:51:11.000Z</Time>
            <Position>
              <LatitudeDegrees>42.79019261710345745086669921875</LatitudeDegrees>
              <LongitudeDegrees>-0.15884687192738056182861328125</LongitudeDegrees>
            </Position>
            <AltitudeMeters>2439.60009765625</AltitudeMeters>
            <DistanceMeters>25336.736418454</DistanceMeters>
          </Trackpoint>
          <Trackpoint>
            <Time>2022-07-10T06:51:13.000Z</Time>
            <Position>
              <LatitudeDegrees>42.79018892906606197357177734375</LatitudeDegrees>
              <LongitudeDegrees>-0.15885508619248867034912109375</LongitudeDegrees>
            </Position>
            <AltitudeMeters>2439.39990234375</AltitudeMeters>
            <DistanceMeters>25337.525769627</DistanceMeters>
          </Trackpoint>
          <Trackpoint>
            <Time>2022-07-10T06:51:15.000Z</Time>
            <Position>
              <LatitudeDegrees>42.79017736203968524932861328125</LatitudeDegrees>
              <LongitudeDegrees>-0.15888668596744537353515625</LongitudeDegrees>
            </Position>
            <AltitudeMeters>2439</AltitudeMeters>
            <DistanceMeters>25340.41120382</DistanceMeters>
          </Trackpoint>
          <Trackpoint>
            <Time>2022-07-10T06:51:16.000Z</Time>
            <Position>
              <LatitudeDegrees>42.7901720814406871795654296875</LatitudeDegrees>
              <LongitudeDegrees>-0.15889883972704410552978515625</LongitudeDegrees>
            </Position>
            <AltitudeMeters>2439</AltitudeMeters>
            <DistanceMeters>25341.567253695</DistanceMeters>
          </Trackpoint>
          <Trackpoint>
            <Time>2022-07-10T06:51:18.000Z</Time>
            <Position>
              <LatitudeDegrees>42.790163867175579071044921875</LatitudeDegrees>
              <LongitudeDegrees>-0.1589126698672771453857421875</LongitudeDegrees>
            </Position>
            <AltitudeMeters>2438.39990234375</AltitudeMeters>
            <DistanceMeters>25343.017773537</DistanceMeters>
          </Trackpoint>
          <Trackpoint>
            <Time>2022-07-10T06:51:19.000Z</Time>
            <Position>
              <LatitudeDegrees>42.79016177169978618621826171875</LatitudeDegrees>
              <LongitudeDegrees>-0.15891811810433864593505859375</LongitudeDegrees>
            </Position>
            <AltitudeMeters>2438.199951171875</AltitudeMeters>
            <DistanceMeters>25343.520607645</DistanceMeters>
          </Trackpoint>
          <Trackpoint>
            <Time>2022-07-10T06:51:20.000Z</Time>
            <Position>
              <LatitudeDegrees>42.79015976004302501678466796875</LatitudeDegrees>
              <LongitudeDegrees>-0.1589237339794635772705078125</LongitudeDegrees>
            </Position>
            <AltitudeMeters>2437.800048828125</AltitudeMeters>
            <DistanceMeters>25344.023441753</DistanceMeters>
          </Trackpoint>
          <Trackpoint>
            <Time>2022-07-10T06:51:22.000Z</Time>
            <Position>
              <LatitudeDegrees>42.7901588380336761474609375</LatitudeDegrees>
              <LongitudeDegrees>-0.15893320553004741668701171875</LongitudeDegrees>
            </Position>
            <AltitudeMeters>2437.39990234375</AltitudeMeters>
            <DistanceMeters>25344.807052114</DistanceMeters>
          </Trackpoint>
          <Trackpoint>
            <Time>2022-07-10T06:51:23.000Z</Time>
            <Position>
              <LatitudeDegrees>42.79016009531915187835693359375</LatitudeDegrees>
              <LongitudeDegrees>-0.1589371450245380401611328125</LongitudeDegrees>
            </Position>
            <AltitudeMeters>2437</AltitudeMeters>
            <DistanceMeters>25345.149675806</DistanceMeters>
          </Trackpoint>
          <Trackpoint>
            <Time>2022-07-10T06:51:24.000Z</Time>
            <Position>
              <LatitudeDegrees>42.7901615202426910400390625</LatitudeDegrees>
              <LongitudeDegrees>-0.1589438505470752716064453125</LongitudeDegrees>
            </Position>
            <AltitudeMeters>2436.39990234375</AltitudeMeters>
            <DistanceMeters>25345.711861429</DistanceMeters>
          </Trackpoint>
          <Trackpoint>
            <Time>2022-07-10T06:51:27.000Z</Time>
            <Position>
              <LatitudeDegrees>42.7901606820523738861083984375</LatitudeDegrees>
              <LongitudeDegrees>-0.15895952470600605010986328125</LongitudeDegrees>
            </Position>
            <AltitudeMeters>2435.60009765625</AltitudeMeters>
            <DistanceMeters>25346.993841894</DistanceMeters>
          </Trackpoint>
          <Trackpoint>
            <Time>2022-07-10T06:51:28.000Z</Time>
            <Position>
              <LatitudeDegrees>42.79015976004302501678466796875</LatitudeDegrees>
              <LongitudeDegrees>-0.158968158066272735595703125</LongitudeDegrees>
            </Position>
            <AltitudeMeters>2435.39990234375</AltitudeMeters>
            <DistanceMeters>25347.70495671</DistanceMeters>
          </Trackpoint>
          <Trackpoint>
            <Time>2022-07-10T06:51:34.000Z</Time>
            <Position>
              <LatitudeDegrees>42.7901341952383518218994140625</LatitudeDegrees>
              <LongitudeDegrees>-0.15899355523288249969482421875</LongitudeDegrees>
            </Position>
            <AltitudeMeters>2434.199951171875</AltitudeMeters>
            <DistanceMeters>25351.227360014</DistanceMeters>
          </Trackpoint>
          <Trackpoint>
            <Time>2022-07-10T06:51:36.000Z</Time>
            <Position>
              <LatitudeDegrees>42.79012505896389484405517578125</LatitudeDegrees>
              <LongitudeDegrees>-0.15899355523288249969482421875</LongitudeDegrees>
            </Position>
            <AltitudeMeters>2433.800048828125</AltitudeMeters>
            <DistanceMeters>25352.246407996</DistanceMeters>
          </Trackpoint>
          <Trackpoint>
            <Time>2022-07-10T06:51:39.000Z</Time>
            <Position>
              <LatitudeDegrees>42.79011248610913753509521484375</LatitudeDegrees>
              <LongitudeDegrees>-0.15901048667728900909423828125</LongitudeDegrees>
            </Position>
            <AltitudeMeters>2433</AltitudeMeters>
            <DistanceMeters>25354.214631255</DistanceMeters>
          </Trackpoint>
          <Trackpoint>
            <Time>2022-07-10T06:51:42.000Z</Time>
            <Position>
              <LatitudeDegrees>42.79009857214987277984619140625</LatitudeDegrees>
              <LongitudeDegrees>-0.15902339480817317962646484375</LongitudeDegrees>
            </Position>
            <AltitudeMeters>2432.60009765625</AltitudeMeters>
            <DistanceMeters>25356.086440449</DistanceMeters>
          </Trackpoint>
          <Trackpoint>
            <Time>2022-07-10T06:51:44.000Z</Time>
            <Position>
              <LatitudeDegrees>42.790081389248371124267578125</LatitudeDegrees>
              <LongitudeDegrees>-0.15903227962553501129150390625</LongitudeDegrees>
            </Position>
            <AltitudeMeters>2432.39990234375</AltitudeMeters>
            <DistanceMeters>25358.128962252</DistanceMeters>
          </Trackpoint>
          <Trackpoint>
            <Time>2022-07-10T06:51:46.000Z</Time>
            <Position>
              <LatitudeDegrees>42.79007233679294586181640625</LatitudeDegrees>
              <LongitudeDegrees>-0.15905172564089298248291015625</LongitudeDegrees>
            </Position>
            <AltitudeMeters>2432</AltitudeMeters>
            <DistanceMeters>25360.010395208</DistanceMeters>
          </Trackpoint>
          <Trackpoint>
            <Time>2022-07-10T06:51:51.000Z</Time>
            <Position>
              <LatitudeDegrees>42.790065295994281768798828125</LatitudeDegrees>
              <LongitudeDegrees>-0.15908248722553253173828125</LongitudeDegrees>
            </Position>
            <AltitudeMeters>2430.800048828125</AltitudeMeters>
            <DistanceMeters>25362.643852766</DistanceMeters>
          </Trackpoint>
          <Trackpoint>
            <Time>2022-07-10T06:51:54.000Z</Time>
            <Position>
              <LatitudeDegrees>42.790057919919490814208984375</LatitudeDegrees>
              <LongitudeDegrees>-0.159092880785465240478515625</LongitudeDegrees>
            </Position>
            <AltitudeMeters>2430.199951171875</AltitudeMeters>
            <DistanceMeters>25363.823103279</DistanceMeters>
          </Trackpoint>
          <Trackpoint>
            <Time>2022-07-10T06:51:59.000Z</Time>
            <Position>
              <LatitudeDegrees>42.79002942144870758056640625</LatitudeDegrees>
              <LongitudeDegrees>-0.1591282524168491363525390625</LongitudeDegrees>
            </Position>
            <AltitudeMeters>2429.39990234375</AltitudeMeters>
            <DistanceMeters>25368.113009547</DistanceMeters>
          </Trackpoint>
          <Trackpoint>
            <Time>2022-07-10T06:52:00.000Z</Time>
            <Position>
              <LatitudeDegrees>42.790026403963565826416015625</LatitudeDegrees>
              <LongitudeDegrees>-0.15913219191133975982666015625</LongitudeDegrees>
            </Position>
            <AltitudeMeters>2429</AltitudeMeters>
            <DistanceMeters>25368.578543472</DistanceMeters>
          </Trackpoint>
          <Trackpoint>
            <Time>2022-07-10T06:52:03.000Z</Time>
            <Position>
              <LatitudeDegrees>42.79001726768910884857177734375</LatitudeDegrees>
              <LongitudeDegrees>-0.15914392657577991485595703125</LongitudeDegrees>
            </Position>
            <AltitudeMeters>2428.39990234375</AltitudeMeters>
            <DistanceMeters>25369.975145244</DistanceMeters>
          </Trackpoint>
          <Trackpoint>
            <Time>2022-07-10T06:52:07.000Z</Time>
            <Position>
              <LatitudeDegrees>42.79001374728977680206298828125</LatitudeDegrees>
              <LongitudeDegrees>-0.1591440103948116302490234375</LongitudeDegrees>
            </Position>
            <AltitudeMeters>2427.199951171875</AltitudeMeters>
            <DistanceMeters>25370.355252102</DistanceMeters>
          </Trackpoint>
          <Trackpoint>
            <Time>2022-07-10T06:52:13.000Z</Time>
            <Position>
              <LatitudeDegrees>42.79000972397625446319580078125</LatitudeDegrees>
              <LongitudeDegrees>-0.15914191491901874542236328125</LongitudeDegrees>
            </Position>
            <AltitudeMeters>2426.60009765625</AltitudeMeters>
            <DistanceMeters>25370.820786026</DistanceMeters>
          </Trackpoint>
          <Trackpoint>
            <Time>2022-07-10T06:52:15.000Z</Time>
            <Position>
              <LatitudeDegrees>42.79000754468142986297607421875</LatitudeDegrees>
              <LongitudeDegrees>-0.1591403223574161529541015625</LongitudeDegrees>
            </Position>
            <AltitudeMeters>2426.39990234375</AltitudeMeters>
            <DistanceMeters>25371.089562163</DistanceMeters>
          </Trackpoint>
          <Trackpoint>
            <Time>2022-07-10T06:52:18.000Z</Time>
            <Position>
              <LatitudeDegrees>42.7900064550340175628662109375</LatitudeDegrees>
              <LongitudeDegrees>-0.15914090909063816070556640625</LongitudeDegrees>
            </Position>
            <AltitudeMeters>2426.199951171875</AltitudeMeters>
            <DistanceMeters>25371.184588877</DistanceMeters>
          </Trackpoint>
          <Trackpoint>
            <Time>2022-07-10T06:52:21.000Z</Time>
            <Position>
              <LatitudeDegrees>42.79000855050981044769287109375</LatitudeDegrees>
              <LongitudeDegrees>-0.15915180556476116180419921875</LongitudeDegrees>
            </Position>
            <AltitudeMeters>2426</AltitudeMeters>
            <DistanceMeters>25372.105907055</DistanceMeters>
          </Trackpoint>
          <Trackpoint>
            <Time>2022-07-10T06:52:22.000Z</Time>
            <Position>
              <LatitudeDegrees>42.790007628500461578369140625</LatitudeDegrees>
              <LongitudeDegrees>-0.15915465541183948516845703125</LongitudeDegrees>
            </Position>
            <AltitudeMeters>2425.800048828125</AltitudeMeters>
            <DistanceMeters>25372.374683192</DistanceMeters>
          </Trackpoint>
          <Trackpoint>
            <Time>2022-07-10T06:52:28.000Z</Time>
            <Position>
              <LatitudeDegrees>42.7899906970560550689697265625</LatitudeDegrees>
              <LongitudeDegrees>-0.15915893018245697021484375</LongitudeDegrees>
            </Position>
            <AltitudeMeters>2425.60009765625</AltitudeMeters>
            <DistanceMeters>25374.289418431</DistanceMeters>
          </Trackpoint>
          <Trackpoint>
            <Time>2022-07-10T06:52:31.000Z</Time>
            <Position>
              <LatitudeDegrees>42.78998441062867641448974609375</LatitudeDegrees>
              <LongitudeDegrees>-0.15917770564556121826171875</LongitudeDegrees>
            </Position>
            <AltitudeMeters>2425.39990234375</AltitudeMeters>
            <DistanceMeters>25375.978650255</DistanceMeters>
          </Trackpoint>
          <Trackpoint>
            <Time>2022-07-10T06:52:37.000Z</Time>
            <Position>
              <LatitudeDegrees>42.78997720219194889068603515625</LatitudeDegrees>
              <LongitudeDegrees>-0.1592157594859600067138671875</LongitudeDegrees>
            </Position>
            <AltitudeMeters>2425.199951171875</AltitudeMeters>
            <DistanceMeters>25379.188528325</DistanceMeters>
          </Trackpoint>
          <Trackpoint>
            <Time>2022-07-10T06:52:39.000Z</Time>
            <Position>
              <LatitudeDegrees>42.789979465305805206298828125</LatitudeDegrees>
              <LongitudeDegrees>-0.1592251472175121307373046875</LongitudeDegrees>
            </Position>
            <AltitudeMeters>2425.199951171875</AltitudeMeters>
            <DistanceMeters>25379.994856735</DistanceMeters>
          </Trackpoint>
          <Trackpoint>
            <Time>2022-07-10T06:52:40.000Z</Time>
            <Position>
              <LatitudeDegrees>42.78998114168643951416015625</LatitudeDegrees>
              <LongitudeDegrees>-0.1592274941504001617431640625</LongitudeDegrees>
            </Position>
            <AltitudeMeters>2425.199951171875</AltitudeMeters>
            <DistanceMeters>25380.263632871</DistanceMeters>
          </Trackpoint>
          <Trackpoint>
            <Time>2022-07-10T06:52:41.000Z</Time>
            <Position>
              <LatitudeDegrees>42.7899786271154880523681640625</LatitudeDegrees>
              <LongitudeDegrees>-0.15923109836876392364501953125</LongitudeDegrees>
            </Position>
            <AltitudeMeters>2425.199951171875</AltitudeMeters>
            <DistanceMeters>25380.666797076</DistanceMeters>
          </Trackpoint>
          <Trackpoint>
            <Time>2022-07-10T06:52:44.000Z</Time>
            <Position>
              <LatitudeDegrees>42.78998021967709064483642578125</LatitudeDegrees>
              <LongitudeDegrees>-0.15923864208161830902099609375</LongitudeDegrees>
            </Position>
            <AltitudeMeters>2424.800048828125</AltitudeMeters>
            <DistanceMeters>25381.304255655</DistanceMeters>
          </Trackpoint>
          <Trackpoint>
            <Time>2022-07-10T06:52:46.000Z</Time>
            <Position>
              <LatitudeDegrees>42.78997980058193206787109375</LatitudeDegrees>
              <LongitudeDegrees>-0.15923696570098400115966796875</LongitudeDegrees>
            </Position>
            <AltitudeMeters>2424</AltitudeMeters>
            <DistanceMeters>25381.438643723</DistanceMeters>
          </Trackpoint>
          <Trackpoint>
            <Time>2022-07-10T06:52:52.000Z</Time>
            <Position>
              <LatitudeDegrees>42.7899658866226673126220703125</LatitudeDegrees>
              <LongitudeDegrees>-0.1592697389423847198486328125</LongitudeDegrees>
            </Position>
            <AltitudeMeters>2422.800048828125</AltitudeMeters>
            <DistanceMeters>25384.531029688</DistanceMeters>
          </Trackpoint>
          <Trackpoint>
            <Time>2022-07-10T06:52:54.000Z</Time>
            <Position>
              <LatitudeDegrees>42.78994568623602390289306640625</LatitudeDegrees>
              <LongitudeDegrees>-0.15929278917610645294189453125</LongitudeDegrees>
            </Position>
            <AltitudeMeters>2422.199951171875</AltitudeMeters>
            <DistanceMeters>25387.463031184</DistanceMeters>
          </Trackpoint>
          <Trackpoint>
            <Time>2022-07-10T06:52:55.000Z</Time>
            <Position>
              <LatitudeDegrees>42.78993344865739345550537109375</LatitudeDegrees>
              <LongitudeDegrees>-0.159304775297641754150390625</LongitudeDegrees>
            </Position>
            <AltitudeMeters>2421.800048828125</AltitudeMeters>
            <DistanceMeters>25389.138845546</DistanceMeters>
          </Trackpoint>
          <Trackpoint>
            <Time>2022-07-10T06:52:58.000Z</Time>
            <Position>
              <LatitudeDegrees>42.78990805149078369140625</LatitudeDegrees>
              <LongitudeDegrees>-0.1593361236155033111572265625</LongitudeDegrees>
            </Position>
            <AltitudeMeters>2420.199951171875</AltitudeMeters>
            <DistanceMeters>25392.951773958</DistanceMeters>
          </Trackpoint>
          <Trackpoint>
            <Time>2022-07-10T06:52:59.000Z</Time>
            <Position>
              <LatitudeDegrees>42.78989925049245357513427734375</LatitudeDegrees>
              <LongitudeDegrees>-0.1593505404889583587646484375</LongitudeDegrees>
            </Position>
            <AltitudeMeters>2420</AltitudeMeters>
            <DistanceMeters>25394.481084194</DistanceMeters>
          </Trackpoint>
          <Trackpoint>
            <Time>2022-07-10T06:53:03.000Z</Time>
            <Position>
              <LatitudeDegrees>42.789868153631687164306640625</LatitudeDegrees>
              <LongitudeDegrees>-0.1593937911093235015869140625</LongitudeDegrees>
            </Position>
            <AltitudeMeters>2419.199951171875</AltitudeMeters>
            <DistanceMeters>25399.426126864</DistanceMeters>
          </Trackpoint>
          <Trackpoint>
            <Time>2022-07-10T06:53:07.000Z</Time>
            <Position>
              <LatitudeDegrees>42.78985097073018550872802734375</LatitudeDegrees>
              <LongitudeDegrees>-0.15944324433803558349609375</LongitudeDegrees>
            </Position>
            <AltitudeMeters>2418.60009765625</AltitudeMeters>
            <DistanceMeters>25403.894403827</DistanceMeters>
          </Trackpoint>
          <Trackpoint>
            <Time>2022-07-10T06:53:08.000Z</Time>
            <Position>
              <LatitudeDegrees>42.78984745033085346221923828125</LatitudeDegrees>
              <LongitudeDegrees>-0.159454979002475738525390625</LongitudeDegrees>
            </Position>
            <AltitudeMeters>2418.199951171875</AltitudeMeters>
            <DistanceMeters>25404.926658166</DistanceMeters>
          </Trackpoint>
          <Trackpoint>
            <Time>2022-07-10T06:53:11.000Z</Time>
            <Position>
              <LatitudeDegrees>42.789840996265411376953125</LatitudeDegrees>
              <LongitudeDegrees>-0.15946512110531330108642578125</LongitudeDegrees>
            </Position>
            <AltitudeMeters>2417.800048828125</AltitudeMeters>
            <DistanceMeters>25406.022559698</DistanceMeters>
          </Trackpoint>
          <Trackpoint>
            <Time>2022-07-10T06:53:12.000Z</Time>
            <Position>
              <LatitudeDegrees>42.78983705677092075347900390625</LatitudeDegrees>
              <LongitudeDegrees>-0.1594665460288524627685546875</LongitudeDegrees>
            </Position>
            <AltitudeMeters>2417.60009765625</AltitudeMeters>
            <DistanceMeters>25406.488093622</DistanceMeters>
          </Trackpoint>
          <Trackpoint>
            <Time>2022-07-10T06:53:14.000Z</Time>
            <Position>
              <LatitudeDegrees>42.78983202762901782989501953125</LatitudeDegrees>
              <LongitudeDegrees>-0.15947769396007061004638671875</LongitudeDegrees>
            </Position>
            <AltitudeMeters>2417.39990234375</AltitudeMeters>
            <DistanceMeters>25407.554765845</DistanceMeters>
          </Trackpoint>
          <Trackpoint>
            <Time>2022-07-10T06:53:15.000Z</Time>
            <Position>
              <LatitudeDegrees>42.78983370400965213775634765625</LatitudeDegrees>
              <LongitudeDegrees>-0.15948574058711528778076171875</LongitudeDegrees>
            </Position>
            <AltitudeMeters>2417.199951171875</AltitudeMeters>
            <DistanceMeters>25408.240013228</DistanceMeters>
          </Trackpoint>
          <Trackpoint>
            <Time>2022-07-10T06:53:16.000Z</Time>
            <Position>
              <LatitudeDegrees>42.78983630239963531494140625</LatitudeDegrees>
              <LongitudeDegrees>-0.15949546359479427337646484375</LongitudeDegrees>
            </Position>
            <AltitudeMeters>2417.199951171875</AltitudeMeters>
            <DistanceMeters>25409.08462914</DistanceMeters>
          </Trackpoint>
          <Trackpoint>
            <Time>2022-07-10T06:53:17.000Z</Time>
            <Position>
              <LatitudeDegrees>42.78984024189412593841552734375</LatitudeDegrees>
              <LongitudeDegrees>-0.1595020852982997894287109375</LongitudeDegrees>
            </Position>
            <AltitudeMeters>2417.199951171875</AltitudeMeters>
            <DistanceMeters>25409.776434063</DistanceMeters>
          </Trackpoint>
          <Trackpoint>
            <Time>2022-07-10T06:53:21.000Z</Time>
            <Position>
              <LatitudeDegrees>42.7898565866053104400634765625</LatitudeDegrees>
              <LongitudeDegrees>-0.15953452326357364654541015625</LongitudeDegrees>
            </Position>
            <AltitudeMeters>2416.199951171875</AltitudeMeters>
            <DistanceMeters>25412.99193364</DistanceMeters>
          </Trackpoint>
          <Trackpoint>
            <Time>2022-07-10T06:53:25.000Z</Time>
            <Position>
              <LatitudeDegrees>42.789839319884777069091796875</LatitudeDegrees>
              <LongitudeDegrees>-0.159565620124340057373046875</LongitudeDegrees>
            </Position>
            <AltitudeMeters>2414.800048828125</AltitudeMeters>
            <DistanceMeters>25416.179226535</DistanceMeters>
          </Trackpoint>
          <Trackpoint>
            <Time>2022-07-10T06:53:28.000Z</Time>
            <Position>
              <LatitudeDegrees>42.7898237295448780059814453125</LatitudeDegrees>
              <LongitudeDegrees>-0.15958447940647602081298828125</LongitudeDegrees>
            </Position>
            <AltitudeMeters>2414</AltitudeMeters>
            <DistanceMeters>25418.499124283</DistanceMeters>
          </Trackpoint>
          <Trackpoint>
            <Time>2022-07-10T06:53:29.000Z</Time>
            <Position>
              <LatitudeDegrees>42.78982020914554595947265625</LatitudeDegrees>
              <LongitudeDegrees>-0.15958799980580806732177734375</LongitudeDegrees>
            </Position>
            <AltitudeMeters>2413.60009765625</AltitudeMeters>
            <DistanceMeters>25418.983667354</DistanceMeters>
          </Trackpoint>
          <Trackpoint>
            <Time>2022-07-10T06:53:30.000Z</Time>
            <Position>
              <LatitudeDegrees>42.7898197062313556671142578125</LatitudeDegrees>
              <LongitudeDegrees>-0.15959051437675952911376953125</LongitudeDegrees>
            </Position>
            <AltitudeMeters>2413.39990234375</AltitudeMeters>
            <DistanceMeters>25419.216434316</DistanceMeters>
          </Trackpoint>
          <Trackpoint>
            <Time>2022-07-10T06:53:33.000Z</Time>
            <Position>
              <LatitudeDegrees>42.78981777839362621307373046875</LatitudeDegrees>
              <LongitudeDegrees>-0.1596204377710819244384765625</LongitudeDegrees>
            </Position>
            <AltitudeMeters>2412.60009765625</AltitudeMeters>
            <DistanceMeters>25421.668786434</DistanceMeters>
          </Trackpoint>
          <Trackpoint>
            <Time>2022-07-10T06:53:36.000Z</Time>
            <Position>
              <LatitudeDegrees>42.78980922885239124298095703125</LatitudeDegrees>
              <LongitudeDegrees>-0.1596579886972904205322265625</LongitudeDegrees>
            </Position>
            <AltitudeMeters>2411.800048828125</AltitudeMeters>
            <DistanceMeters>25424.880070803</DistanceMeters>
          </Trackpoint>
          <Trackpoint>
            <Time>2022-07-10T06:53:37.000Z</Time>
            <Position>
              <LatitudeDegrees>42.7898061275482177734375</LatitudeDegrees>
              <LongitudeDegrees>-0.15966813080012798309326171875</LongitudeDegrees>
            </Position>
            <AltitudeMeters>2411.39990234375</AltitudeMeters>
            <DistanceMeters>25425.781573371</DistanceMeters>
          </Trackpoint>
          <Trackpoint>
            <Time>2022-07-10T06:53:43.000Z</Time>
            <Position>
              <LatitudeDegrees>42.78979196213185787200927734375</LatitudeDegrees>
              <LongitudeDegrees>-0.159710459411144256591796875</LongitudeDegrees>
            </Position>
            <AltitudeMeters>2410.39990234375</AltitudeMeters>
            <DistanceMeters>25429.582641946</DistanceMeters>
          </Trackpoint>
          <Trackpoint>
            <Time>2022-07-10T06:53:44.000Z</Time>
            <Position>
              <LatitudeDegrees>42.7897928841412067413330078125</LatitudeDegrees>
              <LongitudeDegrees>-0.15971221961081027984619140625</LongitudeDegrees>
            </Position>
            <AltitudeMeters>2410</AltitudeMeters>
            <DistanceMeters>25429.747233043</DistanceMeters>
          </Trackpoint>
          <Trackpoint>
            <Time>2022-07-10T06:53:49.000Z</Time>
            <Position>
              <LatitudeDegrees>42.78981040231883525848388671875</LatitudeDegrees>
              <LongitudeDegrees>-0.15972663648426532745361328125</LongitudeDegrees>
            </Position>
            <AltitudeMeters>2409.39990234375</AltitudeMeters>
            <DistanceMeters>25432.023911299</DistanceMeters>
          </Trackpoint>
          <Trackpoint>
            <Time>2022-07-10T06:53:51.000Z</Time>
            <Position>
              <LatitudeDegrees>42.7898123301565647125244140625</LatitudeDegrees>
              <LongitudeDegrees>-0.1597320847213268280029296875</LongitudeDegrees>
            </Position>
            <AltitudeMeters>2409.199951171875</AltitudeMeters>
            <DistanceMeters>25432.508454369</DistanceMeters>
          </Trackpoint>
          <Trackpoint>
            <Time>2022-07-10T06:53:52.000Z</Time>
            <Position>
              <LatitudeDegrees>42.78981140814721584320068359375</LatitudeDegrees>
              <LongitudeDegrees>-0.1597361080348491668701171875</LongitudeDegrees>
            </Position>
            <AltitudeMeters>2408.800048828125</AltitudeMeters>
            <DistanceMeters>25432.851078061</DistanceMeters>
          </Trackpoint>
          <Trackpoint>
            <Time>2022-07-10T06:53:53.000Z</Time>
            <Position>
              <LatitudeDegrees>42.78980989940464496612548828125</LatitudeDegrees>
              <LongitudeDegrees>-0.15973904170095920562744140625</LongitudeDegrees>
            </Position>
            <AltitudeMeters>2408.60009765625</AltitudeMeters>
            <DistanceMeters>25433.151578917</DistanceMeters>
          </Trackpoint>
          <Trackpoint>
            <Time>2022-07-10T06:53:58.000Z</Time>
            <Position>
              <LatitudeDegrees>42.78978944756090641021728515625</LatitudeDegrees>
              <LongitudeDegrees>-0.15976401977241039276123046875</LongitudeDegrees>
            </Position>
            <AltitudeMeters>2408</AltitudeMeters>
            <DistanceMeters>25436.210199389</DistanceMeters>
          </Trackpoint>
          <Trackpoint>
            <Time>2022-07-10T06:54:00.000Z</Time>
            <Position>
              <LatitudeDegrees>42.78978693298995494842529296875</LatitudeDegrees>
              <LongitudeDegrees>-0.1597726531326770782470703125</LongitudeDegrees>
            </Position>
            <AltitudeMeters>2407.60009765625</AltitudeMeters>
            <DistanceMeters>25436.970413104</DistanceMeters>
          </Trackpoint>
          <Trackpoint>
            <Time>2022-07-10T06:54:04.000Z</Time>
            <Position>
              <LatitudeDegrees>42.78978643007576465606689453125</LatitudeDegrees>
              <LongitudeDegrees>-0.1598031632602214813232421875</LongitudeDegrees>
            </Position>
            <AltitudeMeters>2406.39990234375</AltitudeMeters>
            <DistanceMeters>25439.464751227</DistanceMeters>
          </Trackpoint>
          <Trackpoint>
            <Time>2022-07-10T06:54:06.000Z</Time>
            <Position>
              <LatitudeDegrees>42.78977989219129085540771484375</LatitudeDegrees>
              <LongitudeDegrees>-0.15982269309461116790771484375</LongitudeDegrees>
            </Position>
            <AltitudeMeters>2406</AltitudeMeters>
            <DistanceMeters>25441.219532144</DistanceMeters>
          </Trackpoint>
          <Trackpoint>
            <Time>2022-07-10T06:54:11.000Z</Time>
            <Position>
              <LatitudeDegrees>42.7897885255515575408935546875</LatitudeDegrees>
              <LongitudeDegrees>-0.15985496342182159423828125</LongitudeDegrees>
            </Position>
            <AltitudeMeters>2405.199951171875</AltitudeMeters>
            <DistanceMeters>25444.025637391</DistanceMeters>
          </Trackpoint>
          <Trackpoint>
            <Time>2022-07-10T06:54:12.000Z</Time>
            <Position>
              <LatitudeDegrees>42.78979196213185787200927734375</LatitudeDegrees>
              <LongitudeDegrees>-0.15985856764018535614013671875</LongitudeDegrees>
            </Position>
            <AltitudeMeters>2405.199951171875</AltitudeMeters>
            <DistanceMeters>25444.510180462</DistanceMeters>
          </Trackpoint>
          <Trackpoint>
            <Time>2022-07-10T06:54:17.000Z</Time>
            <Position>
              <LatitudeDegrees>42.7897781319916248321533203125</LatitudeDegrees>
              <LongitudeDegrees>-0.15987331978976726531982421875</LongitudeDegrees>
            </Position>
            <AltitudeMeters>2404.199951171875</AltitudeMeters>
            <DistanceMeters>25446.466900272</DistanceMeters>
          </Trackpoint>
          <Trackpoint>
            <Time>2022-07-10T06:54:19.000Z</Time>
            <Position>
              <LatitudeDegrees>42.78977000154554843902587890625</LatitudeDegrees>
              <LongitudeDegrees>-0.159881114959716796875</LongitudeDegrees>
            </Position>
            <AltitudeMeters>2404</AltitudeMeters>
            <DistanceMeters>25447.575092672</DistanceMeters>
          </Trackpoint>
          <Trackpoint>
            <Time>2022-07-10T06:54:25.000Z</Time>
            <Position>
              <LatitudeDegrees>42.7897479571402072906494140625</LatitudeDegrees>
              <LongitudeDegrees>-0.15990768559277057647705078125</LongitudeDegrees>
            </Position>
            <AltitudeMeters>2403</AltitudeMeters>
            <DistanceMeters>25450.850414155</DistanceMeters>
          </Trackpoint>
          <Trackpoint>
            <Time>2022-07-10T06:54:26.000Z</Time>
            <Position>
              <LatitudeDegrees>42.7897417545318603515625</LatitudeDegrees>
              <LongitudeDegrees>-0.1599174924194812774658203125</LongitudeDegrees>
            </Position>
            <AltitudeMeters>2403</AltitudeMeters>
            <DistanceMeters>25451.908586862</DistanceMeters>
          </Trackpoint>
          <Trackpoint>
            <Time>2022-07-10T06:54:32.000Z</Time>
            <Position>
              <LatitudeDegrees>42.78970889747142791748046875</LatitudeDegrees>
              <LongitudeDegrees>-0.15995747409760951995849609375</LongitudeDegrees>
            </Position>
            <AltitudeMeters>2402</AltitudeMeters>
            <DistanceMeters>25456.811449648</DistanceMeters>
          </Trackpoint>
          <Trackpoint>
            <Time>2022-07-10T06:54:33.000Z</Time>
            <Position>
              <LatitudeDegrees>42.789704538881778717041015625</LatitudeDegrees>
              <LongitudeDegrees>-0.159958563745021820068359375</LongitudeDegrees>
            </Position>
            <AltitudeMeters>2401.800048828125</AltitudeMeters>
            <DistanceMeters>25457.30522294</DistanceMeters>
          </Trackpoint>
          <Trackpoint>
            <Time>2022-07-10T06:54:34.000Z</Time>
            <Position>
              <LatitudeDegrees>42.78970294632017612457275390625</LatitudeDegrees>
              <LongitudeDegrees>-0.15996627509593963623046875</LongitudeDegrees>
            </Position>
            <AltitudeMeters>2401.800048828125</AltitudeMeters>
            <DistanceMeters>25457.963587329</DistanceMeters>
          </Trackpoint>
          <Trackpoint>
            <Time>2022-07-10T06:54:37.000Z</Time>
            <Position>
              <LatitudeDegrees>42.7896980009973049163818359375</LatitudeDegrees>
              <LongitudeDegrees>-0.15997306443750858306884765625</LongitudeDegrees>
            </Position>
            <AltitudeMeters>2401.199951171875</AltitudeMeters>
            <DistanceMeters>25458.747197691</DistanceMeters>
          </Trackpoint>
          <Trackpoint>
            <Time>2022-07-10T06:54:39.000Z</Time>
            <Position>
              <LatitudeDegrees>42.7896973304450511932373046875</LatitudeDegrees>
              <LongitudeDegrees>-0.15996770001947879791259765625</LongitudeDegrees>
            </Position>
            <AltitudeMeters>2400.800048828125</AltitudeMeters>
            <DistanceMeters>25459.182664802</DistanceMeters>
          </Trackpoint>
          <Trackpoint>
            <Time>2022-07-10T06:54:45.000Z</Time>
            <Position>
              <LatitudeDegrees>42.78968475759029388427734375</LatitudeDegrees>
              <LongitudeDegrees>-0.159980356693267822265625</LongitudeDegrees>
            </Position>
            <AltitudeMeters>2399.60009765625</AltitudeMeters>
            <DistanceMeters>25460.919341379</DistanceMeters>
          </Trackpoint>
          <Trackpoint>
            <Time>2022-07-10T06:54:47.000Z</Time>
            <Position>
              <LatitudeDegrees>42.78967880643904209136962890625</LatitudeDegrees>
              <LongitudeDegrees>-0.15999435447156429290771484375</LongitudeDegrees>
            </Position>
            <AltitudeMeters>2399</AltitudeMeters>
            <DistanceMeters>25462.242910354</DistanceMeters>
          </Trackpoint>
          <Trackpoint>
            <Time>2022-07-10T06:54:50.000Z</Time>
            <Position>
              <LatitudeDegrees>42.78967159800231456756591796875</LatitudeDegrees>
              <LongitudeDegrees>-0.16001430340111255645751953125</LongitudeDegrees>
            </Position>
            <AltitudeMeters>2398.60009765625</AltitudeMeters>
            <DistanceMeters>25464.060878444</DistanceMeters>
          </Trackpoint>
          <Trackpoint>
            <Time>2022-07-10T06:54:54.000Z</Time>
            <Position>
              <LatitudeDegrees>42.78966774232685565948486328125</LatitudeDegrees>
              <LongitudeDegrees>-0.16003844328224658966064453125</LongitudeDegrees>
            </Position>
            <AltitudeMeters>2397.60009765625</AltitudeMeters>
            <DistanceMeters>25466.076699468</DistanceMeters>
          </Trackpoint>
          <Trackpoint>
            <Time>2022-07-10T06:54:55.000Z</Time>
            <Position>
              <LatitudeDegrees>42.789662294089794158935546875</LatitudeDegrees>
              <LongitudeDegrees>-0.16004464589059352874755859375</LongitudeDegrees>
            </Position>
            <AltitudeMeters>2397.39990234375</AltitudeMeters>
            <DistanceMeters>25466.871750002</DistanceMeters>
          </Trackpoint>
          <Trackpoint>
            <Time>2022-07-10T06:54:58.000Z</Time>
            <Position>
              <LatitudeDegrees>42.7896519005298614501953125</LatitudeDegrees>
              <LongitudeDegrees>-0.1600619964301586151123046875</LongitudeDegrees>
            </Position>
            <AltitudeMeters>2396.800048828125</AltitudeMeters>
            <DistanceMeters>25468.699625349</DistanceMeters>
          </Trackpoint>
          <Trackpoint>
            <Time>2022-07-10T06:55:01.000Z</Time>
            <Position>
              <LatitudeDegrees>42.78965148143470287322998046875</LatitudeDegrees>
              <LongitudeDegrees>-0.1600750721991062164306640625</LongitudeDegrees>
            </Position>
            <AltitudeMeters>2396.39990234375</AltitudeMeters>
            <DistanceMeters>25469.770522033</DistanceMeters>
          </Trackpoint>
          <Trackpoint>
            <Time>2022-07-10T06:55:02.000Z</Time>
            <Position>
              <LatitudeDegrees>42.78965257108211517333984375</LatitudeDegrees>
              <LongitudeDegrees>-0.16007867641746997833251953125</LongitudeDegrees>
            </Position>
            <AltitudeMeters>2395.800048828125</AltitudeMeters>
            <DistanceMeters>25470.085689989</DistanceMeters>
          </Trackpoint>
          <Trackpoint>
            <Time>2022-07-10T06:55:06.000Z</Time>
            <Position>
              <LatitudeDegrees>42.78965055942535400390625</LatitudeDegrees>
              <LongitudeDegrees>-0.160077922046184539794921875</LongitudeDegrees>
            </Position>
            <AltitudeMeters>2395.39990234375</AltitudeMeters>
            <DistanceMeters>25470.337107044</DistanceMeters>
          </Trackpoint>
          <Trackpoint>
            <Time>2022-07-10T06:55:08.000Z</Time>
            <Position>
              <LatitudeDegrees>42.789653576910495758056640625</LatitudeDegrees>
              <LongitudeDegrees>-0.16006819903850555419921875</LongitudeDegrees>
            </Position>
            <AltitudeMeters>2394.60009765625</AltitudeMeters>
            <DistanceMeters>25471.197610541</DistanceMeters>
          </Trackpoint>
          <Trackpoint>
            <Time>2022-07-10T06:55:09.000Z</Time>
            <Position>
              <LatitudeDegrees>42.789644189178943634033203125</LatitudeDegrees>
              <LongitudeDegrees>-0.16007549129426479339599609375</LongitudeDegrees>
            </Position>
            <AltitudeMeters>2394.39990234375</AltitudeMeters>
            <DistanceMeters>25472.399613965</DistanceMeters>
          </Trackpoint>
          <Trackpoint>
            <Time>2022-07-10T06:55:10.000Z</Time>
            <Position>
              <LatitudeDegrees>42.78963454999029636383056640625</LatitudeDegrees>
              <LongitudeDegrees>-0.16008370555937290191650390625</LongitudeDegrees>
            </Position>
            <AltitudeMeters>2394</AltitudeMeters>
            <DistanceMeters>25473.663862172</DistanceMeters>
          </Trackpoint>
          <Trackpoint>
            <Time>2022-07-10T06:55:11.000Z</Time>
            <Position>
              <LatitudeDegrees>42.78962801210582256317138671875</LatitudeDegrees>
              <LongitudeDegrees>-0.160093344748020172119140625</LongitudeDegrees>
            </Position>
            <AltitudeMeters>2393.60009765625</AltitudeMeters>
            <DistanceMeters>25474.730534395</DistanceMeters>
          </Trackpoint>
          <Trackpoint>
            <Time>2022-07-10T06:55:12.000Z</Time>
            <Position>
              <LatitudeDegrees>42.78961828909814357757568359375</LatitudeDegrees>
              <LongitudeDegrees>-0.16010566614568233489990234375</LongitudeDegrees>
            </Position>
            <AltitudeMeters>2393.60009765625</AltitudeMeters>
            <DistanceMeters>25476.208803146</DistanceMeters>
          </Trackpoint>
          <Trackpoint>
            <Time>2022-07-10T06:55:15.000Z</Time>
            <Position>
              <LatitudeDegrees>42.78958023525774478912353515625</LatitudeDegrees>
              <LongitudeDegrees>-0.160136260092258453369140625</LongitudeDegrees>
            </Position>
            <AltitudeMeters>2392.60009765625</AltitudeMeters>
            <DistanceMeters>25481.126378231</DistanceMeters>
          </Trackpoint>
          <Trackpoint>
            <Time>2022-07-10T06:55:16.000Z</Time>
            <Position>
              <LatitudeDegrees>42.78957151807844638824462890625</LatitudeDegrees>
              <LongitudeDegrees>-0.16014690510928630828857421875</LongitudeDegrees>
            </Position>
            <AltitudeMeters>2392.39990234375</AltitudeMeters>
            <DistanceMeters>25482.425849006</DistanceMeters>
          </Trackpoint>
          <Trackpoint>
            <Time>2022-07-10T06:55:17.000Z</Time>
            <Position>
              <LatitudeDegrees>42.7895622141659259796142578125</LatitudeDegrees>
              <LongitudeDegrees>-0.1601558737456798553466796875</LongitudeDegrees>
            </Position>
            <AltitudeMeters>2392.199951171875</AltitudeMeters>
            <DistanceMeters>25483.693663506</DistanceMeters>
          </Trackpoint>
          <Trackpoint>
            <Time>2022-07-10T06:55:21.000Z</Time>
            <Position>
              <LatitudeDegrees>42.78953514061868190765380859375</LatitudeDegrees>
              <LongitudeDegrees>-0.16018931753933429718017578125</LongitudeDegrees>
            </Position>
            <AltitudeMeters>2391.39990234375</AltitudeMeters>
            <DistanceMeters>25487.759874269</DistanceMeters>
          </Trackpoint>
          <Trackpoint>
            <Time>2022-07-10T06:55:23.000Z</Time>
            <Position>
              <LatitudeDegrees>42.78952809982001781463623046875</LatitudeDegrees>
              <LongitudeDegrees>-0.16019971109926700592041015625</LongitudeDegrees>
            </Position>
            <AltitudeMeters>2390.800048828125</AltitudeMeters>
            <DistanceMeters>25488.915924145</DistanceMeters>
          </Trackpoint>
          <Trackpoint>
            <Time>2022-07-10T06:55:25.000Z</Time>
            <Position>
              <LatitudeDegrees>42.78952524997293949127197265625</LatitudeDegrees>
              <LongitudeDegrees>-0.1602095179259777069091796875</LongitudeDegrees>
            </Position>
            <AltitudeMeters>2390.199951171875</AltitudeMeters>
            <DistanceMeters>25489.776427642</DistanceMeters>
          </Trackpoint>
          <Trackpoint>
            <Time>2022-07-10T06:55:31.000Z</Time>
            <Position>
              <LatitudeDegrees>42.7895367331802845001220703125</LatitudeDegrees>
              <LongitudeDegrees>-0.1602178998291492462158203125</LongitudeDegrees>
            </Position>
            <AltitudeMeters>2389.199951171875</AltitudeMeters>
            <DistanceMeters>25491.230056854</DistanceMeters>
          </Trackpoint>
          <Trackpoint>
            <Time>2022-07-10T06:55:32.000Z</Time>
            <Position>
              <LatitudeDegrees>42.7895317040383815765380859375</LatitudeDegrees>
              <LongitudeDegrees>-0.16023139469325542449951171875</LongitudeDegrees>
            </Position>
            <AltitudeMeters>2389</AltitudeMeters>
            <DistanceMeters>25492.469053624</DistanceMeters>
          </Trackpoint>
          <Trackpoint>
            <Time>2022-07-10T06:55:36.000Z</Time>
            <Position>
              <LatitudeDegrees>42.7895260043442249298095703125</LatitudeDegrees>
              <LongitudeDegrees>-0.1602832786738872528076171875</LongitudeDegrees>
            </Position>
            <AltitudeMeters>2388.39990234375</AltitudeMeters>
            <DistanceMeters>25496.754747907</DistanceMeters>
          </Trackpoint>
          <Trackpoint>
            <Time>2022-07-10T06:55:37.000Z</Time>
            <Position>
              <LatitudeDegrees>42.78952784836292266845703125</LatitudeDegrees>
              <LongitudeDegrees>-0.16029660589993000030517578125</LongitudeDegrees>
            </Position>
            <AltitudeMeters>2388.199951171875</AltitudeMeters>
            <DistanceMeters>25497.858858554</DistanceMeters>
          </Trackpoint>
          <Trackpoint>
            <Time>2022-07-10T06:55:41.000Z</Time>
            <Position>
              <LatitudeDegrees>42.78953363187611103057861328125</LatitudeDegrees>
              <LongitudeDegrees>-0.1603275351226329803466796875</LongitudeDegrees>
            </Position>
            <AltitudeMeters>2388</AltitudeMeters>
            <DistanceMeters>25500.46473988</DistanceMeters>
          </Trackpoint>
          <Trackpoint>
            <Time>2022-07-10T06:55:42.000Z</Time>
            <Position>
              <LatitudeDegrees>42.7895330451428890228271484375</LatitudeDegrees>
              <LongitudeDegrees>-0.160333402454853057861328125</LongitudeDegrees>
            </Position>
            <AltitudeMeters>2388</AltitudeMeters>
            <DistanceMeters>25500.939873451</DistanceMeters>
          </Trackpoint>
          <Trackpoint>
            <Time>2022-07-10T06:55:44.000Z</Time>
            <Position>
              <LatitudeDegrees>42.78952860273420810699462890625</LatitudeDegrees>
              <LongitudeDegrees>-0.16034086234867572784423828125</LongitudeDegrees>
            </Position>
            <AltitudeMeters>2387.60009765625</AltitudeMeters>
            <DistanceMeters>25501.723483813</DistanceMeters>
          </Trackpoint>
          <Trackpoint>
            <Time>2022-07-10T06:55:49.000Z</Time>
            <Position>
              <LatitudeDegrees>42.7895070612430572509765625</LatitudeDegrees>
              <LongitudeDegrees>-0.16035913489758968353271484375</LongitudeDegrees>
            </Position>
            <AltitudeMeters>2386.800048828125</AltitudeMeters>
            <DistanceMeters>25504.547232651</DistanceMeters>
          </Trackpoint>
          <Trackpoint>
            <Time>2022-07-10T06:55:51.000Z</Time>
            <Position>
              <LatitudeDegrees>42.7894931472837924957275390625</LatitudeDegrees>
              <LongitudeDegrees>-0.16036835499107837677001953125</LongitudeDegrees>
            </Position>
            <AltitudeMeters>2386.39990234375</AltitudeMeters>
            <DistanceMeters>25506.268239645</DistanceMeters>
          </Trackpoint>
          <Trackpoint>
            <Time>2022-07-10T06:55:57.000Z</Time>
            <Position>
              <LatitudeDegrees>42.78946272097527980804443359375</LatitudeDegrees>
              <LongitudeDegrees>-0.16036718152463436126708984375</LongitudeDegrees>
            </Position>
            <AltitudeMeters>2385.800048828125</AltitudeMeters>
            <DistanceMeters>25509.657377771</DistanceMeters>
          </Trackpoint>
          <Trackpoint>
            <Time>2022-07-10T06:56:00.000Z</Time>
            <Position>
              <LatitudeDegrees>42.78946054168045520782470703125</LatitudeDegrees>
              <LongitudeDegrees>-0.1603855378925800323486328125</LongitudeDegrees>
            </Position>
            <AltitudeMeters>2385.800048828125</AltitudeMeters>
            <DistanceMeters>25511.177805201</DistanceMeters>
          </Trackpoint>
          <Trackpoint>
            <Time>2022-07-10T06:56:01.000Z</Time>
            <Position>
              <LatitudeDegrees>42.78945618309080600738525390625</LatitudeDegrees>
              <LongitudeDegrees>-0.16039635054767131805419921875</LongitudeDegrees>
            </Position>
            <AltitudeMeters>2385.800048828125</AltitudeMeters>
            <DistanceMeters>25512.17897376</DistanceMeters>
          </Trackpoint>
          <Trackpoint>
            <Time>2022-07-10T06:56:07.000Z</Time>
            <Position>
              <LatitudeDegrees>42.7894391678273677825927734375</LatitudeDegrees>
              <LongitudeDegrees>-0.1604053191840648651123046875</LongitudeDegrees>
            </Position>
            <AltitudeMeters>2386.199951171875</AltitudeMeters>
            <DistanceMeters>25514.208189091</DistanceMeters>
          </Trackpoint>
          <Trackpoint>
            <Time>2022-07-10T06:56:11.000Z</Time>
            <Position>
              <LatitudeDegrees>42.78939264826476573944091796875</LatitudeDegrees>
              <LongitudeDegrees>-0.16043272800743579864501953125</LongitudeDegrees>
            </Position>
            <AltitudeMeters>2386</AltitudeMeters>
            <DistanceMeters>25519.849287334</DistanceMeters>
          </Trackpoint>
          <Trackpoint>
            <Time>2022-07-10T06:56:12.000Z</Time>
            <Position>
              <LatitudeDegrees>42.78937655501067638397216796875</LatitudeDegrees>
              <LongitudeDegrees>-0.16043968498706817626953125</LongitudeDegrees>
            </Position>
            <AltitudeMeters>2386</AltitudeMeters>
            <DistanceMeters>25521.73072029</DistanceMeters>
          </Trackpoint>
          <Trackpoint>
            <Time>2022-07-10T06:56:16.000Z</Time>
            <Position>
              <LatitudeDegrees>42.78936934657394886016845703125</LatitudeDegrees>
              <LongitudeDegrees>-0.16045502386987209320068359375</LongitudeDegrees>
            </Position>
            <AltitudeMeters>2385.60009765625</AltitudeMeters>
            <DistanceMeters>25523.221156067</DistanceMeters>
          </Trackpoint>
          <Trackpoint>
            <Time>2022-07-10T06:56:22.000Z</Time>
            <Position>
              <LatitudeDegrees>42.78936314396560192108154296875</LatitudeDegrees>
              <LongitudeDegrees>-0.160429961979389190673828125</LongitudeDegrees>
            </Position>
            <AltitudeMeters>2385.60009765625</AltitudeMeters>
            <DistanceMeters>25525.379748072</DistanceMeters>
          </Trackpoint>
          <Trackpoint>
            <Time>2022-07-10T06:56:25.000Z</Time>
            <Position>
              <LatitudeDegrees>42.7894078195095062255859375</LatitudeDegrees>
              <LongitudeDegrees>-0.16037338413298130035400390625</LongitudeDegrees>
            </Position>
            <AltitudeMeters>2386.39990234375</AltitudeMeters>
            <DistanceMeters>25532.167343376</DistanceMeters>
          </Trackpoint>
          <Trackpoint>
            <Time>2022-07-10T06:56:31.000Z</Time>
            <Position>
              <LatitudeDegrees>42.7894629724323749542236328125</LatitudeDegrees>
              <LongitudeDegrees>-0.16032611019909381866455078125</LongitudeDegrees>
            </Position>
            <AltitudeMeters>2386.800048828125</AltitudeMeters>
            <DistanceMeters>25539.418697397</DistanceMeters>
          </Trackpoint>
          <Trackpoint>
            <Time>2022-07-10T06:56:35.000Z</Time>
            <Position>
              <LatitudeDegrees>42.789482586085796356201171875</LatitudeDegrees>
              <LongitudeDegrees>-0.16033097170293331146240234375</LongitudeDegrees>
            </Position>
            <AltitudeMeters>2387</AltitudeMeters>
            <DistanceMeters>25541.637118381</DistanceMeters>
          </Trackpoint>
          <Trackpoint>
            <Time>2022-07-10T06:56:36.000Z</Time>
            <Position>
              <LatitudeDegrees>42.789485938847064971923828125</LatitudeDegrees>
              <LongitudeDegrees>-0.16033700667321681976318359375</LongitudeDegrees>
            </Position>
            <AltitudeMeters>2387</AltitudeMeters>
            <DistanceMeters>25542.260250219</DistanceMeters>
          </Trackpoint>
          <Trackpoint>
            <Time>2022-07-10T06:56:42.000Z</Time>
            <Position>
              <LatitudeDegrees>42.78947344981133937835693359375</LatitudeDegrees>
              <LongitudeDegrees>-0.16036500222980976104736328125</LongitudeDegrees>
            </Position>
            <AltitudeMeters>2385.60009765625</AltitudeMeters>
            <DistanceMeters>25544.937913509</DistanceMeters>
          </Trackpoint>
          <Trackpoint>
            <Time>2022-07-10T06:56:46.000Z</Time>
            <Position>
              <LatitudeDegrees>42.78945584781467914581298828125</LatitudeDegrees>
              <LongitudeDegrees>-0.1603942550718784332275390625</LongitudeDegrees>
            </Position>
            <AltitudeMeters>2385.199951171875</AltitudeMeters>
            <DistanceMeters>25548.025916217</DistanceMeters>
          </Trackpoint>
          <Trackpoint>
            <Time>2022-07-10T06:56:47.000Z</Time>
            <Position>
              <LatitudeDegrees>42.78945676982402801513671875</LatitudeDegrees>
              <LongitudeDegrees>-0.1604096777737140655517578125</LongitudeDegrees>
            </Position>
            <AltitudeMeters>2385.199951171875</AltitudeMeters>
            <DistanceMeters>25549.293730717</DistanceMeters>
          </Trackpoint>
          <Trackpoint>
            <Time>2022-07-10T06:56:49.000Z</Time>
            <Position>
              <LatitudeDegrees>42.78945836238563060760498046875</LatitudeDegrees>
              <LongitudeDegrees>-0.1604200713336467742919921875</LongitudeDegrees>
            </Position>
            <AltitudeMeters>2385.199951171875</AltitudeMeters>
            <DistanceMeters>25550.164664941</DistanceMeters>
          </Trackpoint>
          <Trackpoint>
            <Time>2022-07-10T06:56:54.000Z</Time>
            <Position>
              <LatitudeDegrees>42.78943321667611598968505859375</LatitudeDegrees>
              <LongitudeDegrees>-0.16040875576436519622802734375</LongitudeDegrees>
            </Position>
            <AltitudeMeters>2385</AltitudeMeters>
            <DistanceMeters>25553.112025377</DistanceMeters>
          </Trackpoint>
          <Trackpoint>
            <Time>2022-07-10T06:57:00.000Z</Time>
            <Position>
              <LatitudeDegrees>42.78938912786543369293212890625</LatitudeDegrees>
              <LongitudeDegrees>-0.16039400361478328704833984375</LongitudeDegrees>
            </Position>
            <AltitudeMeters>2384.800048828125</AltitudeMeters>
            <DistanceMeters>25558.164552082</DistanceMeters>
          </Trackpoint>
          <Trackpoint>
            <Time>2022-07-10T06:57:01.000Z</Time>
            <Position>
              <LatitudeDegrees>42.7893845178186893463134765625</LatitudeDegrees>
              <LongitudeDegrees>-0.1603979431092739105224609375</LongitudeDegrees>
            </Position>
            <AltitudeMeters>2384.60009765625</AltitudeMeters>
            <DistanceMeters>25558.765553794</DistanceMeters>
          </Trackpoint>
          <Trackpoint>
            <Time>2022-07-10T06:57:07.000Z</Time>
            <Position>
              <LatitudeDegrees>42.78936163522303104400634765625</LatitudeDegrees>
              <LongitudeDegrees>-0.1604135334491729736328125</LongitudeDegrees>
            </Position>
            <AltitudeMeters>2383.60009765625</AltitudeMeters>
            <DistanceMeters>25561.613185906</DistanceMeters>
          </Trackpoint>
          <Trackpoint>
            <Time>2022-07-10T06:57:08.000Z</Time>
            <Position>
              <LatitudeDegrees>42.78936146758496761322021484375</LatitudeDegrees>
              <LongitudeDegrees>-0.16041764058172702789306640625</LongitudeDegrees>
            </Position>
            <AltitudeMeters>2383.199951171875</AltitudeMeters>
            <DistanceMeters>25561.942368101</DistanceMeters>
          </Trackpoint>
          <Trackpoint>
            <Time>2022-07-10T06:57:09.000Z</Time>
            <Position>
              <LatitudeDegrees>42.78936113230884075164794921875</LatitudeDegrees>
              <LongitudeDegrees>-0.16042250208556652069091796875</LongitudeDegrees>
            </Position>
            <AltitudeMeters>2383</AltitudeMeters>
            <DistanceMeters>25562.345532305</DistanceMeters>
          </Trackpoint>
          <Trackpoint>
            <Time>2022-07-10T06:57:10.000Z</Time>
            <Position>
              <LatitudeDegrees>42.78936062939465045928955078125</LatitudeDegrees>
              <LongitudeDegrees>-0.16043138690292835235595703125</LongitudeDegrees>
            </Position>
            <AltitudeMeters>2382.800048828125</AltitudeMeters>
            <DistanceMeters>25563.069234201</DistanceMeters>
          </Trackpoint>
          <Trackpoint>
            <Time>2022-07-10T06:57:11.000Z</Time>
            <Position>
              <LatitudeDegrees>42.7893597073853015899658203125</LatitudeDegrees>
              <LongitudeDegrees>-0.1604349911212921142578125</LongitudeDegrees>
            </Position>
            <AltitudeMeters>2382.800048828125</AltitudeMeters>
            <DistanceMeters>25563.384402158</DistanceMeters>
          </Trackpoint>
          <Trackpoint>
            <Time>2022-07-10T06:57:12.000Z</Time>
            <Position>
              <LatitudeDegrees>42.78935928829014301300048828125</LatitudeDegrees>
              <LongitudeDegrees>-0.16044027172029018402099609375</LongitudeDegrees>
            </Position>
            <AltitudeMeters>2382.60009765625</AltitudeMeters>
            <DistanceMeters>25563.809374544</DistanceMeters>
          </Trackpoint>
          <Trackpoint>
            <Time>2022-07-10T06:57:13.000Z</Time>
            <Position>
              <LatitudeDegrees>42.78935962356626987457275390625</LatitudeDegrees>
              <LongitudeDegrees>-0.16044479794800281524658203125</LongitudeDegrees>
            </Position>
            <AltitudeMeters>2382.39990234375</AltitudeMeters>
            <DistanceMeters>25564.177411426</DistanceMeters>
          </Trackpoint>
          <Trackpoint>
            <Time>2022-07-10T06:57:16.000Z</Time>
            <Position>
              <LatitudeDegrees>42.78936079703271389007568359375</LatitudeDegrees>
              <LongitudeDegrees>-0.16047949902713298797607421875</LongitudeDegrees>
            </Position>
            <AltitudeMeters>2382</AltitudeMeters>
            <DistanceMeters>25567.015514347</DistanceMeters>
          </Trackpoint>
          <Trackpoint>
            <Time>2022-07-10T06:57:19.000Z</Time>
            <Position>
              <LatitudeDegrees>42.78935442678630352020263671875</LatitudeDegrees>
              <LongitudeDegrees>-0.16052149236202239990234375</LongitudeDegrees>
            </Position>
            <AltitudeMeters>2381.39990234375</AltitudeMeters>
            <DistanceMeters>25570.518637794</DistanceMeters>
          </Trackpoint>
          <Trackpoint>
            <Time>2022-07-10T06:57:20.000Z</Time>
            <Position>
              <LatitudeDegrees>42.789355181157588958740234375</LatitudeDegrees>
              <LongitudeDegrees>-0.16052610240876674652099609375</LongitudeDegrees>
            </Position>
            <AltitudeMeters>2381.199951171875</AltitudeMeters>
            <DistanceMeters>25570.921801999</DistanceMeters>
          </Trackpoint>
          <Trackpoint>
            <Time>2022-07-10T06:57:21.000Z</Time>
            <Position>
              <LatitudeDegrees>42.78935342095792293548583984375</LatitudeDegrees>
              <LongitudeDegrees>-0.160531215369701385498046875</LongitudeDegrees>
            </Position>
            <AltitudeMeters>2380.800048828125</AltitudeMeters>
            <DistanceMeters>25571.387335923</DistanceMeters>
          </Trackpoint>
          <Trackpoint>
            <Time>2022-07-10T06:57:22.000Z</Time>
            <Position>
              <LatitudeDegrees>42.78935241512954235076904296875</LatitudeDegrees>
              <LongitudeDegrees>-0.1605360768735408782958984375</LongitudeDegrees>
            </Position>
            <AltitudeMeters>2380.39990234375</AltitudeMeters>
            <DistanceMeters>25571.790500128</DistanceMeters>
          </Trackpoint>
          <Trackpoint>
            <Time>2022-07-10T06:57:23.000Z</Time>
            <Position>
              <LatitudeDegrees>42.7893516607582569122314453125</LatitudeDegrees>
              <LongitudeDegrees>-0.16054353676736354827880859375</LongitudeDegrees>
            </Position>
            <AltitudeMeters>2380.39990234375</AltitudeMeters>
            <DistanceMeters>25572.406343623</DistanceMeters>
          </Trackpoint>
          <Trackpoint>
            <Time>2022-07-10T06:57:24.000Z</Time>
            <Position>
              <LatitudeDegrees>42.7893489785492420196533203125</LatitudeDegrees>
              <LongitudeDegrees>-0.16055560670793056488037109375</LongitudeDegrees>
            </Position>
            <AltitudeMeters>2380.199951171875</AltitudeMeters>
            <DistanceMeters>25573.438597962</DistanceMeters>
          </Trackpoint>
          <Trackpoint>
            <Time>2022-07-10T06:57:28.000Z</Time>
            <Position>
              <LatitudeDegrees>42.7893318794667720794677734375</LatitudeDegrees>
              <LongitudeDegrees>-0.16060204245150089263916015625</LongitudeDegrees>
            </Position>
            <AltitudeMeters>2379.800048828125</AltitudeMeters>
            <DistanceMeters>25577.681942448</DistanceMeters>
          </Trackpoint>
          <Trackpoint>
            <Time>2022-07-10T06:57:32.000Z</Time>
            <Position>
              <LatitudeDegrees>42.78932726942002773284912109375</LatitudeDegrees>
              <LongitudeDegrees>-0.16061914153397083282470703125</LongitudeDegrees>
            </Position>
            <AltitudeMeters>2379.199951171875</AltitudeMeters>
            <DistanceMeters>25579.169345799</DistanceMeters>
          </Trackpoint>
          <Trackpoint>
            <Time>2022-07-10T06:57:34.000Z</Time>
            <Position>
              <LatitudeDegrees>42.7893171273171901702880859375</LatitudeDegrees>
              <LongitudeDegrees>-0.16064210794866085052490234375</LongitudeDegrees>
            </Position>
            <AltitudeMeters>2378.800048828125</AltitudeMeters>
            <DistanceMeters>25581.357025053</DistanceMeters>
          </Trackpoint>
          <Trackpoint>
            <Time>2022-07-10T06:57:38.000Z</Time>
            <Position>
              <LatitudeDegrees>42.78930078260600566864013671875</LatitudeDegrees>
              <LongitudeDegrees>-0.16069357283413410186767578125</LongitudeDegrees>
            </Position>
            <AltitudeMeters>2378.199951171875</AltitudeMeters>
            <DistanceMeters>25585.938061797</DistanceMeters>
          </Trackpoint>
          <Trackpoint>
            <Time>2022-07-10T06:57:39.000Z</Time>
            <Position>
              <LatitudeDegrees>42.7892946638166904449462890625</LatitudeDegrees>
              <LongitudeDegrees>-0.16070296056568622589111328125</LongitudeDegrees>
            </Position>
            <AltitudeMeters>2378.199951171875</AltitudeMeters>
            <DistanceMeters>25586.961530833</DistanceMeters>
          </Trackpoint>
          <Trackpoint>
            <Time>2022-07-10T06:57:40.000Z</Time>
            <Position>
              <LatitudeDegrees>42.789286784827709197998046875</LatitudeDegrees>
              <LongitudeDegrees>-0.160714946687221527099609375</LongitudeDegrees>
            </Position>
            <AltitudeMeters>2378.199951171875</AltitudeMeters>
            <DistanceMeters>25588.274826154</DistanceMeters>
          </Trackpoint>
          <Trackpoint>
            <Time>2022-07-10T06:57:41.000Z</Time>
            <Position>
              <LatitudeDegrees>42.78928116895258426666259765625</LatitudeDegrees>
              <LongitudeDegrees>-0.16072542406618595123291015625</LongitudeDegrees>
            </Position>
            <AltitudeMeters>2378</AltitudeMeters>
            <DistanceMeters>25589.332998862</DistanceMeters>
          </Trackpoint>
          <Trackpoint>
            <Time>2022-07-10T06:57:46.000Z</Time>
            <Position>
              <LatitudeDegrees>42.78924512676894664764404296875</LatitudeDegrees>
              <LongitudeDegrees>-0.16075090505182743072509765625</LongitudeDegrees>
            </Position>
            <AltitudeMeters>2377.60009765625</AltitudeMeters>
            <DistanceMeters>25593.852515752</DistanceMeters>
          </Trackpoint>
          <Trackpoint>
            <Time>2022-07-10T06:57:48.000Z</Time>
            <Position>
              <LatitudeDegrees>42.78924194164574146270751953125</LatitudeDegrees>
              <LongitudeDegrees>-0.16075660474598407745361328125</LongitudeDegrees>
            </Position>
            <AltitudeMeters>2377.199951171875</AltitudeMeters>
            <DistanceMeters>25594.43829976</DistanceMeters>
          </Trackpoint>
          <Trackpoint>
            <Time>2022-07-10T06:57:49.000Z</Time>
            <Position>
              <LatitudeDegrees>42.7892393432557582855224609375</LatitudeDegrees>
              <LongitudeDegrees>-0.16076423227787017822265625</LongitudeDegrees>
            </Position>
            <AltitudeMeters>2377</AltitudeMeters>
            <DistanceMeters>25595.130104683</DistanceMeters>
          </Trackpoint>
          <Trackpoint>
            <Time>2022-07-10T06:57:51.000Z</Time>
            <Position>
              <LatitudeDegrees>42.7892307937145233154296875</LatitudeDegrees>
              <LongitudeDegrees>-0.16078074462711811065673828125</LongitudeDegrees>
            </Position>
            <AltitudeMeters>2376.39990234375</AltitudeMeters>
            <DistanceMeters>25596.781492913</DistanceMeters>
          </Trackpoint>
          <Trackpoint>
            <Time>2022-07-10T06:57:53.000Z</Time>
            <Position>
              <LatitudeDegrees>42.78921402990818023681640625</LatitudeDegrees>
              <LongitudeDegrees>-0.16079365275800228118896484375</LongitudeDegrees>
            </Position>
            <AltitudeMeters>2376.199951171875</AltitudeMeters>
            <DistanceMeters>25598.92539331</DistanceMeters>
          </Trackpoint>
          <Trackpoint>
            <Time>2022-07-10T06:57:54.000Z</Time>
            <Position>
              <LatitudeDegrees>42.78920908458530902862548828125</LatitudeDegrees>
              <LongitudeDegrees>-0.16080119647085666656494140625</LongitudeDegrees>
            </Position>
            <AltitudeMeters>2376</AltitudeMeters>
            <DistanceMeters>25599.748348797</DistanceMeters>
          </Trackpoint>
          <Trackpoint>
            <Time>2022-07-10T06:57:55.000Z</Time>
            <Position>
              <LatitudeDegrees>42.78920506127178668975830078125</LatitudeDegrees>
              <LongitudeDegrees>-0.160804800689220428466796875</LongitudeDegrees>
            </Position>
            <AltitudeMeters>2376</AltitudeMeters>
            <DistanceMeters>25600.28590107</DistanceMeters>
          </Trackpoint>
          <Trackpoint>
            <Time>2022-07-10T06:57:56.000Z</Time>
            <Position>
              <LatitudeDegrees>42.78919902630150318145751953125</LatitudeDegrees>
              <LongitudeDegrees>-0.16081008128821849822998046875</LongitudeDegrees>
            </Position>
            <AltitudeMeters>2375.800048828125</AltitudeMeters>
            <DistanceMeters>25601.080951603</DistanceMeters>
          </Trackpoint>
          <Trackpoint>
            <Time>2022-07-10T06:57:58.000Z</Time>
            <Position>
              <LatitudeDegrees>42.78918662108480930328369140625</LatitudeDegrees>
              <LongitudeDegrees>-0.16082650981843471527099609375</LongitudeDegrees>
            </Position>
            <AltitudeMeters>2375.39990234375</AltitudeMeters>
            <DistanceMeters>25603.005095918</DistanceMeters>
          </Trackpoint>
          <Trackpoint>
            <Time>2022-07-10T06:58:01.000Z</Time>
            <Position>
              <LatitudeDegrees>42.7891910634934902191162109375</LatitudeDegrees>
              <LongitudeDegrees>-0.16086808405816555023193359375</LongitudeDegrees>
            </Position>
            <AltitudeMeters>2375.199951171875</AltitudeMeters>
            <DistanceMeters>25606.436599915</DistanceMeters>
          </Trackpoint>
          <Trackpoint>
            <Time>2022-07-10T06:58:02.000Z</Time>
            <Position>
              <LatitudeDegrees>42.78919517062604427337646484375</LatitudeDegrees>
              <LongitudeDegrees>-0.16088300384581089019775390625</LongitudeDegrees>
            </Position>
            <AltitudeMeters>2375</AltitudeMeters>
            <DistanceMeters>25607.73607069</DistanceMeters>
          </Trackpoint>
          <Trackpoint>
            <Time>2022-07-10T06:58:03.000Z</Time>
            <Position>
              <LatitudeDegrees>42.78919927775859832763671875</LatitudeDegrees>
              <LongitudeDegrees>-0.1608941517770290374755859375</LongitudeDegrees>
            </Position>
            <AltitudeMeters>2375</AltitudeMeters>
            <DistanceMeters>25608.750678355</DistanceMeters>
          </Trackpoint>
          <Trackpoint>
            <Time>2022-07-10T06:58:05.000Z</Time>
            <Position>
              <LatitudeDegrees>42.789213694632053375244140625</LatitudeDegrees>
              <LongitudeDegrees>-0.16091988421976566314697265625</LongitudeDegrees>
            </Position>
            <AltitudeMeters>2374.60009765625</AltitudeMeters>
            <DistanceMeters>25611.394402843</DistanceMeters>
          </Trackpoint>
          <Trackpoint>
            <Time>2022-07-10T06:58:09.000Z</Time>
            <Position>
              <LatitudeDegrees>42.7892410196363925933837890625</LatitudeDegrees>
              <LongitudeDegrees>-0.16096782870590686798095703125</LongitudeDegrees>
            </Position>
            <AltitudeMeters>2373.60009765625</AltitudeMeters>
            <DistanceMeters>25616.352211641</DistanceMeters>
          </Trackpoint>
          <Trackpoint>
            <Time>2022-07-10T06:58:10.000Z</Time>
            <Position>
              <LatitudeDegrees>42.7892386727035045623779296875</LatitudeDegrees>
              <LongitudeDegrees>-0.16098593361675739288330078125</LongitudeDegrees>
            </Position>
            <AltitudeMeters>2373.39990234375</AltitudeMeters>
            <DistanceMeters>25617.854715921</DistanceMeters>
          </Trackpoint>
          <Trackpoint>
            <Time>2022-07-10T06:58:16.000Z</Time>
            <Position>
              <LatitudeDegrees>42.78925300575792789459228515625</LatitudeDegrees>
              <LongitudeDegrees>-0.16105231828987598419189453125</LongitudeDegrees>
            </Position>
            <AltitudeMeters>2373</AltitudeMeters>
            <DistanceMeters>25623.507008417</DistanceMeters>
          </Trackpoint>
          <Trackpoint>
            <Time>2022-07-10T06:58:19.000Z</Time>
            <Position>
              <LatitudeDegrees>42.789277397096157073974609375</LatitudeDegrees>
              <LongitudeDegrees>-0.16101661138236522674560546875</LongitudeDegrees>
            </Position>
            <AltitudeMeters>2373</AltitudeMeters>
            <DistanceMeters>25627.491337016</DistanceMeters>
          </Trackpoint>
          <Trackpoint>
            <Time>2022-07-10T06:58:24.000Z</Time>
            <Position>
              <LatitudeDegrees>42.78924009762704372406005859375</LatitudeDegrees>
              <LongitudeDegrees>-0.1610574312508106231689453125</LongitudeDegrees>
            </Position>
            <AltitudeMeters>2373.199951171875</AltitudeMeters>
            <DistanceMeters>25632.816225751</DistanceMeters>
          </Trackpoint>
          <Trackpoint>
            <Time>2022-07-10T06:58:30.000Z</Time>
            <Position>
              <LatitudeDegrees>42.78925367631018161773681640625</LatitudeDegrees>
              <LongitudeDegrees>-0.1610909588634967803955078125</LongitudeDegrees>
            </Position>
            <AltitudeMeters>2372.800048828125</AltitudeMeters>
            <DistanceMeters>25635.943456601</DistanceMeters>
          </Trackpoint>
          <Trackpoint>
            <Time>2022-07-10T06:58:31.000Z</Time>
            <Position>
              <LatitudeDegrees>42.7892597950994968414306640625</LatitudeDegrees>
              <LongitudeDegrees>-0.16109188087284564971923828125</LongitudeDegrees>
            </Position>
            <AltitudeMeters>2372.60009765625</AltitudeMeters>
            <DistanceMeters>25636.628703983</DistanceMeters>
          </Trackpoint>
          <Trackpoint>
            <Time>2022-07-10T06:58:33.000Z</Time>
            <Position>
              <LatitudeDegrees>42.7892779000103473663330078125</LatitudeDegrees>
              <LongitudeDegrees>-0.161086432635784149169921875</LongitudeDegrees>
            </Position>
            <AltitudeMeters>2372.39990234375</AltitudeMeters>
            <DistanceMeters>25638.693212661</DistanceMeters>
          </Trackpoint>
          <Trackpoint>
            <Time>2022-07-10T06:58:34.000Z</Time>
            <Position>
              <LatitudeDegrees>42.78929273597896099090576171875</LatitudeDegrees>
              <LongitudeDegrees>-0.1610785536468029022216796875</LongitudeDegrees>
            </Position>
            <AltitudeMeters>2372.39990234375</AltitudeMeters>
            <DistanceMeters>25640.463364216</DistanceMeters>
          </Trackpoint>
          <Trackpoint>
            <Time>2022-07-10T06:58:37.000Z</Time>
            <Position>
              <LatitudeDegrees>42.7893261797726154327392578125</LatitudeDegrees>
              <LongitudeDegrees>-0.16106874682009220123291015625</LongitudeDegrees>
            </Position>
            <AltitudeMeters>2372</AltitudeMeters>
            <DistanceMeters>25644.270367327</DistanceMeters>
          </Trackpoint>
          <Trackpoint>
            <Time>2022-07-10T06:58:38.000Z</Time>
            <Position>
              <LatitudeDegrees>42.78933045454323291778564453125</LatitudeDegrees>
              <LongitudeDegrees>-0.1610664837062358856201171875</LongitudeDegrees>
            </Position>
            <AltitudeMeters>2371.800048828125</AltitudeMeters>
            <DistanceMeters>25644.782101845</DistanceMeters>
          </Trackpoint>
          <Trackpoint>
            <Time>2022-07-10T06:58:40.000Z</Time>
            <Position>
              <LatitudeDegrees>42.789406813681125640869140625</LatitudeDegrees>
              <LongitudeDegrees>-0.1610151864588260650634765625</LongitudeDegrees>
            </Position>
            <AltitudeMeters>2371.800048828125</AltitudeMeters>
            <DistanceMeters>25654.258128447</DistanceMeters>
          </Trackpoint>
          <Trackpoint>
            <Time>2022-07-10T06:58:44.000Z</Time>
            <Position>
              <LatitudeDegrees>42.78937236405909061431884765625</LatitudeDegrees>
              <LongitudeDegrees>-0.1610433496534824371337890625</LongitudeDegrees>
            </Position>
            <AltitudeMeters>2371.800048828125</AltitudeMeters>
            <DistanceMeters>25658.730445444</DistanceMeters>
          </Trackpoint>
          <Trackpoint>
            <Time>2022-07-10T06:58:48.000Z</Time>
            <Position>
              <LatitudeDegrees>42.7892980165779590606689453125</LatitudeDegrees>
              <LongitudeDegrees>-0.161084420979022979736328125</LongitudeDegrees>
            </Position>
            <AltitudeMeters>2372</AltitudeMeters>
            <DistanceMeters>25667.659923313</DistanceMeters>
          </Trackpoint>
          <Trackpoint>
            <Time>2022-07-10T06:58:49.000Z</Time>
            <Position>
              <LatitudeDegrees>42.78928452171385288238525390625</LatitudeDegrees>
              <LongitudeDegrees>-0.16110110096633434295654296875</LongitudeDegrees>
            </Position>
            <AltitudeMeters>2372</AltitudeMeters>
            <DistanceMeters>25669.689138643</DistanceMeters>
          </Trackpoint>
          <Trackpoint>
            <Time>2022-07-10T06:58:51.000Z</Time>
            <Position>
              <LatitudeDegrees>42.78926725499331951141357421875</LatitudeDegrees>
              <LongitudeDegrees>-0.1611224748194217681884765625</LongitudeDegrees>
            </Position>
            <AltitudeMeters>2371.800048828125</AltitudeMeters>
            <DistanceMeters>25672.286342352</DistanceMeters>
          </Trackpoint>
          <Trackpoint>
            <Time>2022-07-10T06:58:54.000Z</Time>
            <Position>
              <LatitudeDegrees>42.78925417922437191009521484375</LatitudeDegrees>
              <LongitudeDegrees>-0.16114720143377780914306640625</LongitudeDegrees>
            </Position>
            <AltitudeMeters>2371.60009765625</AltitudeMeters>
            <DistanceMeters>25674.778869703</DistanceMeters>
          </Trackpoint>
          <Trackpoint>
            <Time>2022-07-10T06:58:56.000Z</Time>
            <Position>
              <LatitudeDegrees>42.7892306260764598846435546875</LatitudeDegrees>
              <LongitudeDegrees>-0.16118927858769893646240234375</LongitudeDegrees>
            </Position>
            <AltitudeMeters>2371.60009765625</AltitudeMeters>
            <DistanceMeters>25679.102324136</DistanceMeters>
          </Trackpoint>
          <Trackpoint>
            <Time>2022-07-10T06:58:58.000Z</Time>
            <Position>
              <LatitudeDegrees>42.7892209030687808990478515625</LatitudeDegrees>
              <LongitudeDegrees>-0.16118265688419342041015625</LongitudeDegrees>
            </Position>
            <AltitudeMeters>2371.60009765625</AltitudeMeters>
            <DistanceMeters>25680.31181675</DistanceMeters>
          </Trackpoint>
          <Trackpoint>
            <Time>2022-07-10T06:59:04.000Z</Time>
            <Position>
              <LatitudeDegrees>42.78924998827278614044189453125</LatitudeDegrees>
              <LongitudeDegrees>-0.16110797412693500518798828125</LongitudeDegrees>
            </Position>
            <AltitudeMeters>2372.199951171875</AltitudeMeters>
            <DistanceMeters>25687.218108358</DistanceMeters>
          </Trackpoint>
          <Trackpoint>
            <Time>2022-07-10T06:59:10.000Z</Time>
            <Position>
              <LatitudeDegrees>42.78929022140800952911376953125</LatitudeDegrees>
              <LongitudeDegrees>-0.16115088947117328643798828125</LongitudeDegrees>
            </Position>
            <AltitudeMeters>2371.39990234375</AltitudeMeters>
            <DistanceMeters>25692.905439351</DistanceMeters>
          </Trackpoint>
          <Trackpoint>
            <Time>2022-07-10T06:59:11.000Z</Time>
            <Position>
              <LatitudeDegrees>42.78928753919899463653564453125</LatitudeDegrees>
              <LongitudeDegrees>-0.161160528659820556640625</LongitudeDegrees>
            </Position>
            <AltitudeMeters>2371.199951171875</AltitudeMeters>
            <DistanceMeters>25693.744692569</DistanceMeters>
          </Trackpoint>
          <Trackpoint>
            <Time>2022-07-10T06:59:15.000Z</Time>
            <Position>
              <LatitudeDegrees>42.7892986871302127838134765625</LatitudeDegrees>
              <LongitudeDegrees>-0.1611767895519733428955078125</LongitudeDegrees>
            </Position>
            <AltitudeMeters>2370.800048828125</AltitudeMeters>
            <DistanceMeters>25695.557686729</DistanceMeters>
          </Trackpoint>
          <Trackpoint>
            <Time>2022-07-10T06:59:17.000Z</Time>
            <Position>
              <LatitudeDegrees>42.789303548634052276611328125</LatitudeDegrees>
              <LongitudeDegrees>-0.161216519773006439208984375</LongitudeDegrees>
            </Position>
            <AltitudeMeters>2370.800048828125</AltitudeMeters>
            <DistanceMeters>25698.848136798</DistanceMeters>
          </Trackpoint>
          <Trackpoint>
            <Time>2022-07-10T06:59:19.000Z</Time>
            <Position>
              <LatitudeDegrees>42.7893060632050037384033203125</LatitudeDegrees>
              <LongitudeDegrees>-0.161234624683856964111328125</LongitudeDegrees>
            </Position>
            <AltitudeMeters>2370.60009765625</AltitudeMeters>
            <DistanceMeters>25700.356639123</DistanceMeters>
          </Trackpoint>
          <Trackpoint>
            <Time>2022-07-10T06:59:21.000Z</Time>
            <Position>
              <LatitudeDegrees>42.78930329717695713043212890625</LatitudeDegrees>
              <LongitudeDegrees>-0.16125197522342205047607421875</LongitudeDegrees>
            </Position>
            <AltitudeMeters>2370.39990234375</AltitudeMeters>
            <DistanceMeters>25701.804042914</DistanceMeters>
          </Trackpoint>
          <Trackpoint>
            <Time>2022-07-10T06:59:22.000Z</Time>
            <Position>
              <LatitudeDegrees>42.78929994441568851470947265625</LatitudeDegrees>
              <LongitudeDegrees>-0.161264128983020782470703125</LongitudeDegrees>
            </Position>
            <AltitudeMeters>2370</AltitudeMeters>
            <DistanceMeters>25702.862215622</DistanceMeters>
          </Trackpoint>
          <Trackpoint>
            <Time>2022-07-10T06:59:26.000Z</Time>
            <Position>
              <LatitudeDegrees>42.78928737156093120574951171875</LatitudeDegrees>
              <LongitudeDegrees>-0.161284916102886199951171875</LongitudeDegrees>
            </Position>
            <AltitudeMeters>2368.800048828125</AltitudeMeters>
            <DistanceMeters>25705.062243115</DistanceMeters>
          </Trackpoint>
          <Trackpoint>
            <Time>2022-07-10T06:59:28.000Z</Time>
            <Position>
              <LatitudeDegrees>42.78927865438163280487060546875</LatitudeDegrees>
              <LongitudeDegrees>-0.16128466464579105377197265625</LongitudeDegrees>
            </Position>
            <AltitudeMeters>2368.39990234375</AltitudeMeters>
            <DistanceMeters>25706.031329257</DistanceMeters>
          </Trackpoint>
          <Trackpoint>
            <Time>2022-07-10T06:59:29.000Z</Time>
            <Position>
              <LatitudeDegrees>42.78927446343004703521728515625</LatitudeDegrees>
              <LongitudeDegrees>-0.16128189861774444580078125</LongitudeDegrees>
            </Position>
            <AltitudeMeters>2368.39990234375</AltitudeMeters>
            <DistanceMeters>25706.543063775</DistanceMeters>
          </Trackpoint>
          <Trackpoint>
            <Time>2022-07-10T06:59:33.000Z</Time>
            <Position>
              <LatitudeDegrees>42.78927664272487163543701171875</LatitudeDegrees>
              <LongitudeDegrees>-0.16130444593727588653564453125</LongitudeDegrees>
            </Position>
            <AltitudeMeters>2367.800048828125</AltitudeMeters>
            <DistanceMeters>25708.40034383</DistanceMeters>
          </Trackpoint>
          <Trackpoint>
            <Time>2022-07-10T06:59:34.000Z</Time>
            <Position>
              <LatitudeDegrees>42.78927748091518878936767578125</LatitudeDegrees>
              <LongitudeDegrees>-0.161315761506557464599609375</LongitudeDegrees>
            </Position>
            <AltitudeMeters>2367.800048828125</AltitudeMeters>
            <DistanceMeters>25709.331411678</DistanceMeters>
          </Trackpoint>
          <Trackpoint>
            <Time>2022-07-10T06:59:36.000Z</Time>
            <Position>
              <LatitudeDegrees>42.78927295468747615814208984375</LatitudeDegrees>
              <LongitudeDegrees>-0.1613353751599788665771484375</LongitudeDegrees>
            </Position>
            <AltitudeMeters>2367.39990234375</AltitudeMeters>
            <DistanceMeters>25711.009918113</DistanceMeters>
          </Trackpoint>
          <Trackpoint>
            <Time>2022-07-10T06:59:38.000Z</Time>
            <Position>
              <LatitudeDegrees>42.7892675064504146575927734375</LatitudeDegrees>
              <LongitudeDegrees>-0.16135255806148052215576171875</LongitudeDegrees>
            </Position>
            <AltitudeMeters>2366.60009765625</AltitudeMeters>
            <DistanceMeters>25712.536273158</DistanceMeters>
          </Trackpoint>
          <Trackpoint>
            <Time>2022-07-10T06:59:41.000Z</Time>
            <Position>
              <LatitudeDegrees>42.7892651595175266265869140625</LatitudeDegrees>
              <LongitudeDegrees>-0.1613735966384410858154296875</LongitudeDegrees>
            </Position>
            <AltitudeMeters>2365.800048828125</AltitudeMeters>
            <DistanceMeters>25714.278141604</DistanceMeters>
          </Trackpoint>
          <Trackpoint>
            <Time>2022-07-10T06:59:42.000Z</Time>
            <Position>
              <LatitudeDegrees>42.78927077539265155792236328125</LatitudeDegrees>
              <LongitudeDegrees>-0.16138390637934207916259765625</LongitudeDegrees>
            </Position>
            <AltitudeMeters>2365.60009765625</AltitudeMeters>
            <DistanceMeters>25715.332038849</DistanceMeters>
          </Trackpoint>
          <Trackpoint>
            <Time>2022-07-10T06:59:46.000Z</Time>
            <Position>
              <LatitudeDegrees>42.7893139421939849853515625</LatitudeDegrees>
              <LongitudeDegrees>-0.161408968269824981689453125</LongitudeDegrees>
            </Position>
            <AltitudeMeters>2365</AltitudeMeters>
            <DistanceMeters>25720.554186957</DistanceMeters>
          </Trackpoint>
          <Trackpoint>
            <Time>2022-07-10T06:59:48.000Z</Time>
            <Position>
              <LatitudeDegrees>42.7893154509365558624267578125</LatitudeDegrees>
              <LongitudeDegrees>-0.16142665408551692962646484375</LongitudeDegrees>
            </Position>
            <AltitudeMeters>2364.60009765625</AltitudeMeters>
            <DistanceMeters>25722.00781617</DistanceMeters>
          </Trackpoint>
          <Trackpoint>
            <Time>2022-07-10T06:59:49.000Z</Time>
            <Position>
              <LatitudeDegrees>42.78931218199431896209716796875</LatitudeDegrees>
              <LongitudeDegrees>-0.16143570654094219207763671875</LongitudeDegrees>
            </Position>
            <AltitudeMeters>2364.39990234375</AltitudeMeters>
            <DistanceMeters>25722.825266876</DistanceMeters>
          </Trackpoint>
          <Trackpoint>
            <Time>2022-07-10T06:59:51.000Z</Time>
            <Position>
              <LatitudeDegrees>42.78927848674356937408447265625</LatitudeDegrees>
              <LongitudeDegrees>-0.1614828966557979583740234375</LongitudeDegrees>
            </Position>
            <AltitudeMeters>2364</AltitudeMeters>
            <DistanceMeters>25728.203308792</DistanceMeters>
          </Trackpoint>
          <Trackpoint>
            <Time>2022-07-10T06:59:52.000Z</Time>
            <Position>
              <LatitudeDegrees>42.78926356695592403411865234375</LatitudeDegrees>
              <LongitudeDegrees>-0.16149991191923618316650390625</LongitudeDegrees>
            </Position>
            <AltitudeMeters>2363.60009765625</AltitudeMeters>
            <DistanceMeters>25730.370251281</DistanceMeters>
          </Trackpoint>
          <Trackpoint>
            <Time>2022-07-10T06:59:54.000Z</Time>
            <Position>
              <LatitudeDegrees>42.78926289640367031097412109375</LatitudeDegrees>
              <LongitudeDegrees>-0.16152505762875080108642578125</LongitudeDegrees>
            </Position>
            <AltitudeMeters>2363.199951171875</AltitudeMeters>
            <DistanceMeters>25732.425993428</DistanceMeters>
          </Trackpoint>
          <Trackpoint>
            <Time>2022-07-10T06:59:57.000Z</Time>
            <Position>
              <LatitudeDegrees>42.78926943428814411163330078125</LatitudeDegrees>
              <LongitudeDegrees>-0.161572583019733428955078125</LongitudeDegrees>
            </Position>
            <AltitudeMeters>2362.39990234375</AltitudeMeters>
            <DistanceMeters>25736.376179765</DistanceMeters>
          </Trackpoint>
          <Trackpoint>
            <Time>2022-07-10T06:59:58.000Z</Time>
            <Position>
              <LatitudeDegrees>42.78926909901201725006103515625</LatitudeDegrees>
              <LongitudeDegrees>-0.16158691607415676116943359375</LongitudeDegrees>
            </Position>
            <AltitudeMeters>2362</AltitudeMeters>
            <DistanceMeters>25737.547747782</DistanceMeters>
          </Trackpoint>
          <Trackpoint>
            <Time>2022-07-10T06:59:59.000Z</Time>
            <Position>
              <LatitudeDegrees>42.7892710268497467041015625</LatitudeDegrees>
              <LongitudeDegrees>-0.161604769527912139892578125</LongitudeDegrees>
            </Position>
            <AltitudeMeters>2361.800048828125</AltitudeMeters>
            <DistanceMeters>25739.019895311</DistanceMeters>
          </Trackpoint>
          <Trackpoint>
            <Time>2022-07-10T07:00:02.000Z</Time>
            <Position>
              <LatitudeDegrees>42.78927027247846126556396484375</LatitudeDegrees>
              <LongitudeDegrees>-0.16165799461305141448974609375</LongitudeDegrees>
            </Position>
            <AltitudeMeters>2361.39990234375</AltitudeMeters>
            <DistanceMeters>25743.368341019</DistanceMeters>
          </Trackpoint>
          <Trackpoint>
            <Time>2022-07-10T07:00:05.000Z</Time>
            <Position>
              <LatitudeDegrees>42.78927362523972988128662109375</LatitudeDegrees>
              <LongitudeDegrees>-0.161691941320896148681640625</LongitudeDegrees>
            </Position>
            <AltitudeMeters>2361</AltitudeMeters>
            <DistanceMeters>25746.16477557</DistanceMeters>
          </Trackpoint>
          <Trackpoint>
            <Time>2022-07-10T07:00:06.000Z</Time>
            <Position>
              <LatitudeDegrees>42.78926909901201725006103515625</LatitudeDegrees>
              <LongitudeDegrees>-0.1617051847279071807861328125</LongitudeDegrees>
            </Position>
            <AltitudeMeters>2361</AltitudeMeters>
            <DistanceMeters>25747.359242848</DistanceMeters>
          </Trackpoint>
          <Trackpoint>
            <Time>2022-07-10T07:00:09.000Z</Time>
            <Position>
              <LatitudeDegrees>42.78924579732120037078857421875</LatitudeDegrees>
              <LongitudeDegrees>-0.16175128519535064697265625</LongitudeDegrees>
            </Position>
            <AltitudeMeters>2361</AltitudeMeters>
            <DistanceMeters>25751.930413036</DistanceMeters>
          </Trackpoint>
          <Trackpoint>
            <Time>2022-07-10T07:00:10.000Z</Time>
            <Position>
              <LatitudeDegrees>42.78923909179866313934326171875</LatitudeDegrees>
              <LongitudeDegrees>-0.1617648638784885406494140625</LongitudeDegrees>
            </Position>
            <AltitudeMeters>2360.60009765625</AltitudeMeters>
            <DistanceMeters>25753.267557432</DistanceMeters>
          </Trackpoint>
          <Trackpoint>
            <Time>2022-07-10T07:00:11.000Z</Time>
            <Position>
              <LatitudeDegrees>42.78924244455993175506591796875</LatitudeDegrees>
              <LongitudeDegrees>-0.161772072315216064453125</LongitudeDegrees>
            </Position>
            <AltitudeMeters>2360.60009765625</AltitudeMeters>
            <DistanceMeters>25753.959362356</DistanceMeters>
          </Trackpoint>
          <Trackpoint>
            <Time>2022-07-10T07:00:13.000Z</Time>
            <Position>
              <LatitudeDegrees>42.78924965299665927886962890625</LatitudeDegrees>
              <LongitudeDegrees>-0.16178288497030735015869140625</LongitudeDegrees>
            </Position>
            <AltitudeMeters>2360.199951171875</AltitudeMeters>
            <DistanceMeters>25755.153829633</DistanceMeters>
          </Trackpoint>
          <Trackpoint>
            <Time>2022-07-10T07:00:15.000Z</Time>
            <Position>
              <LatitudeDegrees>42.78924680314958095550537109375</LatitudeDegrees>
              <LongitudeDegrees>-0.1617950387299060821533203125</LongitudeDegrees>
            </Position>
            <AltitudeMeters>2360</AltitudeMeters>
            <DistanceMeters>25756.194795134</DistanceMeters>
          </Trackpoint>
          <Trackpoint>
            <Time>2022-07-10T07:00:16.000Z</Time>
            <Position>
              <LatitudeDegrees>42.789240181446075439453125</LatitudeDegrees>
              <LongitudeDegrees>-0.16180870123207569122314453125</LongitudeDegrees>
            </Position>
            <AltitudeMeters>2359.800048828125</AltitudeMeters>
            <DistanceMeters>25757.53193953</DistanceMeters>
          </Trackpoint>
          <Trackpoint>
            <Time>2022-07-10T07:00:19.000Z</Time>
            <Position>
              <LatitudeDegrees>42.789213024079799652099609375</LatitudeDegrees>
              <LongitudeDegrees>-0.16185999847948551177978515625</LongitudeDegrees>
            </Position>
            <AltitudeMeters>2358.800048828125</AltitudeMeters>
            <DistanceMeters>25762.69845731</DistanceMeters>
          </Trackpoint>
          <Trackpoint>
            <Time>2022-07-10T07:00:22.000Z</Time>
            <Position>
              <LatitudeDegrees>42.789196260273456573486328125</LatitudeDegrees>
              <LongitudeDegrees>-0.16189889051020145416259765625</LongitudeDegrees>
            </Position>
            <AltitudeMeters>2357.800048828125</AltitudeMeters>
            <DistanceMeters>25766.383730023</DistanceMeters>
          </Trackpoint>
          <Trackpoint>
            <Time>2022-07-10T07:00:25.000Z</Time>
            <Position>
              <LatitudeDegrees>42.7892071567475795745849609375</LatitudeDegrees>
              <LongitudeDegrees>-0.16191598959267139434814453125</LongitudeDegrees>
            </Position>
            <AltitudeMeters>2357.199951171875</AltitudeMeters>
            <DistanceMeters>25768.236141708</DistanceMeters>
          </Trackpoint>
          <Trackpoint>
            <Time>2022-07-10T07:00:26.000Z</Time>
            <Position>
              <LatitudeDegrees>42.789204977452754974365234375</LatitudeDegrees>
              <LongitudeDegrees>-0.16191984526813030242919921875</LongitudeDegrees>
            </Position>
            <AltitudeMeters>2357</AltitudeMeters>
            <DistanceMeters>25768.627946888</DistanceMeters>
          </Trackpoint>
          <Trackpoint>
            <Time>2022-07-10T07:00:29.000Z</Time>
            <Position>
              <LatitudeDegrees>42.7891769818961620330810546875</LatitudeDegrees>
              <LongitudeDegrees>-0.161954462528228759765625</LongitudeDegrees>
            </Position>
            <AltitudeMeters>2356.60009765625</AltitudeMeters>
            <DistanceMeters>25772.834958872</DistanceMeters>
          </Trackpoint>
          <Trackpoint>
            <Time>2022-07-10T07:00:31.000Z</Time>
            <Position>
              <LatitudeDegrees>42.78915476985275745391845703125</LatitudeDegrees>
              <LongitudeDegrees>-0.16198539175093173980712890625</LongitudeDegrees>
            </Position>
            <AltitudeMeters>2356.39990234375</AltitudeMeters>
            <DistanceMeters>25776.370156999</DistanceMeters>
          </Trackpoint>
          <Trackpoint>
            <Time>2022-07-10T07:00:34.000Z</Time>
            <Position>
              <LatitudeDegrees>42.7891243435442447662353515625</LatitudeDegrees>
              <LongitudeDegrees>-0.162035934627056121826171875</LongitudeDegrees>
            </Position>
            <AltitudeMeters>2356</AltitudeMeters>
            <DistanceMeters>25781.710286343</DistanceMeters>
          </Trackpoint>
          <Trackpoint>
            <Time>2022-07-10T07:00:37.000Z</Time>
            <Position>
              <LatitudeDegrees>42.789129205048084259033203125</LatitudeDegrees>
              <LongitudeDegrees>-0.16207708977162837982177734375</LongitudeDegrees>
            </Position>
            <AltitudeMeters>2355.60009765625</AltitudeMeters>
            <DistanceMeters>25785.115373442</DistanceMeters>
          </Trackpoint>
          <Trackpoint>
            <Time>2022-07-10T07:00:39.000Z</Time>
            <Position>
              <LatitudeDegrees>42.789153344929218292236328125</LatitudeDegrees>
              <LongitudeDegrees>-0.16208614222705364227294921875</LongitudeDegrees>
            </Position>
            <AltitudeMeters>2355.60009765625</AltitudeMeters>
            <DistanceMeters>25787.900483075</DistanceMeters>
          </Trackpoint>
          <Trackpoint>
            <Time>2022-07-10T07:00:40.000Z</Time>
            <Position>
              <LatitudeDegrees>42.78916331939399242401123046875</LatitudeDegrees>
              <LongitudeDegrees>-0.1620880700647830963134765625</LongitudeDegrees>
            </Position>
            <AltitudeMeters>2355.60009765625</AltitudeMeters>
            <DistanceMeters>25789.016794209</DistanceMeters>
          </Trackpoint>
          <Trackpoint>
            <Time>2022-07-10T07:00:42.000Z</Time>
            <Position>
              <LatitudeDegrees>42.78918025083839893341064453125</LatitudeDegrees>
              <LongitudeDegrees>-0.1620979607105255126953125</LongitudeDegrees>
            </Position>
            <AltitudeMeters>2355.39990234375</AltitudeMeters>
            <DistanceMeters>25791.068139042</DistanceMeters>
          </Trackpoint>
          <Trackpoint>
            <Time>2022-07-10T07:00:43.000Z</Time>
            <Position>
              <LatitudeDegrees>42.7891846932470798492431640625</LatitudeDegrees>
              <LongitudeDegrees>-0.16210558824241161346435546875</LongitudeDegrees>
            </Position>
            <AltitudeMeters>2355.199951171875</AltitudeMeters>
            <DistanceMeters>25791.863189576</DistanceMeters>
          </Trackpoint>
          <Trackpoint>
            <Time>2022-07-10T07:00:44.000Z</Time>
            <Position>
              <LatitudeDegrees>42.78918561525642871856689453125</LatitudeDegrees>
              <LongitudeDegrees>-0.16211112029850482940673828125</LongitudeDegrees>
            </Position>
            <AltitudeMeters>2354.800048828125</AltitudeMeters>
            <DistanceMeters>25792.3287235</DistanceMeters>
          </Trackpoint>
          <Trackpoint>
            <Time>2022-07-10T07:00:45.000Z</Time>
            <Position>
              <LatitudeDegrees>42.78918477706611156463623046875</LatitudeDegrees>
              <LongitudeDegrees>-0.162120424211025238037109375</LongitudeDegrees>
            </Position>
            <AltitudeMeters>2354.39990234375</AltitudeMeters>
            <DistanceMeters>25793.100724177</DistanceMeters>
          </Trackpoint>
          <Trackpoint>
            <Time>2022-07-10T07:00:47.000Z</Time>
            <Position>
              <LatitudeDegrees>42.78918276540935039520263671875</LatitudeDegrees>
              <LongitudeDegrees>-0.1621433906257152557373046875</LongitudeDegrees>
            </Position>
            <AltitudeMeters>2353.60009765625</AltitudeMeters>
            <DistanceMeters>25794.991731917</DistanceMeters>
          </Trackpoint>
          <Trackpoint>
            <Time>2022-07-10T07:00:48.000Z</Time>
            <Position>
              <LatitudeDegrees>42.7891789935529232025146484375</LatitudeDegrees>
              <LongitudeDegrees>-0.16215386800467967987060546875</LongitudeDegrees>
            </Position>
            <AltitudeMeters>2353.39990234375</AltitudeMeters>
            <DistanceMeters>25795.946738577</DistanceMeters>
          </Trackpoint>
          <Trackpoint>
            <Time>2022-07-10T07:00:50.000Z</Time>
            <Position>
              <LatitudeDegrees>42.7891610562801361083984375</LatitudeDegrees>
              <LongitudeDegrees>-0.16217096708714962005615234375</LongitudeDegrees>
            </Position>
            <AltitudeMeters>2353.199951171875</AltitudeMeters>
            <DistanceMeters>25798.384317355</DistanceMeters>
          </Trackpoint>
          <Trackpoint>
            <Time>2022-07-10T07:00:54.000Z</Time>
            <Position>
              <LatitudeDegrees>42.7891099266707897186279296875</LatitudeDegrees>
              <LongitudeDegrees>-0.16223047859966754913330078125</LongitudeDegrees>
            </Position>
            <AltitudeMeters>2353.199951171875</AltitudeMeters>
            <DistanceMeters>25805.869141619</DistanceMeters>
          </Trackpoint>
          <Trackpoint>
            <Time>2022-07-10T07:00:57.000Z</Time>
            <Position>
              <LatitudeDegrees>42.789103053510189056396484375</LatitudeDegrees>
              <LongitudeDegrees>-0.16224556602537631988525390625</LongitudeDegrees>
            </Position>
            <AltitudeMeters>2353</AltitudeMeters>
            <DistanceMeters>25807.31654541</DistanceMeters>
          </Trackpoint>
          <Trackpoint>
            <Time>2022-07-10T07:00:58.000Z</Time>
            <Position>
              <LatitudeDegrees>42.7890877984464168548583984375</LatitudeDegrees>
              <LongitudeDegrees>-0.16227171756327152252197265625</LongitudeDegrees>
            </Position>
            <AltitudeMeters>2353.199951171875</AltitudeMeters>
            <DistanceMeters>25810.044325275</DistanceMeters>
          </Trackpoint>
          <Trackpoint>
            <Time>2022-07-10T07:01:02.000Z</Time>
            <Position>
              <LatitudeDegrees>42.78907011263072490692138671875</LatitudeDegrees>
              <LongitudeDegrees>-0.1623455621302127838134765625</LongitudeDegrees>
            </Position>
            <AltitudeMeters>2353.199951171875</AltitudeMeters>
            <DistanceMeters>25816.389804836</DistanceMeters>
          </Trackpoint>
          <Trackpoint>
            <Time>2022-07-10T07:01:05.000Z</Time>
            <Position>
              <LatitudeDegrees>42.78908771462738513946533203125</LatitudeDegrees>
              <LongitudeDegrees>-0.16237917356193065643310546875</LongitudeDegrees>
            </Position>
            <AltitudeMeters>2353.39990234375</AltitudeMeters>
            <DistanceMeters>25819.762918579</DistanceMeters>
          </Trackpoint>
          <Trackpoint>
            <Time>2022-07-10T07:01:06.000Z</Time>
            <Position>
              <LatitudeDegrees>42.78909307904541492462158203125</LatitudeDegrees>
              <LongitudeDegrees>-0.16239291988313198089599609375</LongitudeDegrees>
            </Position>
            <AltitudeMeters>2353.39990234375</AltitudeMeters>
            <DistanceMeters>25821.030733079</DistanceMeters>
          </Trackpoint>
          <Trackpoint>
            <Time>2022-07-10T07:01:12.000Z</Time>
            <Position>
              <LatitudeDegrees>42.78910540044307708740234375</LatitudeDegrees>
              <LongitudeDegrees>-0.16245528124272823333740234375</LongitudeDegrees>
            </Position>
            <AltitudeMeters>2353.39990234375</AltitudeMeters>
            <DistanceMeters>25826.306213683</DistanceMeters>
          </Trackpoint>
          <Trackpoint>
            <Time>2022-07-10T07:01:14.000Z</Time>
            <Position>
              <LatitudeDegrees>42.7891042269766330718994140625</LatitudeDegrees>
              <LongitudeDegrees>-0.16247003339231014251708984375</LongitudeDegrees>
            </Position>
            <AltitudeMeters>2353.39990234375</AltitudeMeters>
            <DistanceMeters>25827.519433556</DistanceMeters>
          </Trackpoint>
          <Trackpoint>
            <Time>2022-07-10T07:01:17.000Z</Time>
            <Position>
              <LatitudeDegrees>42.7890945039689540863037109375</LatitudeDegrees>
              <LongitudeDegrees>-0.162474475800991058349609375</LongitudeDegrees>
            </Position>
            <AltitudeMeters>2353.199951171875</AltitudeMeters>
            <DistanceMeters>25828.667645714</DistanceMeters>
          </Trackpoint>
          <Trackpoint>
            <Time>2022-07-10T07:01:19.000Z</Time>
            <Position>
              <LatitudeDegrees>42.78909525834023952484130859375</LatitudeDegrees>
              <LongitudeDegrees>-0.162481181323528289794921875</LongitudeDegrees>
            </Position>
            <AltitudeMeters>2353.39990234375</AltitudeMeters>
            <DistanceMeters>25829.221741914</DistanceMeters>
          </Trackpoint>
          <Trackpoint>
            <Time>2022-07-10T07:01:20.000Z</Time>
            <Position>
              <LatitudeDegrees>42.789095342159271240234375</LatitudeDegrees>
              <LongitudeDegrees>-0.16248377971351146697998046875</LongitudeDegrees>
            </Position>
            <AltitudeMeters>2353.39990234375</AltitudeMeters>
            <DistanceMeters>25829.454508876</DistanceMeters>
          </Trackpoint>
          <Trackpoint>
            <Time>2022-07-10T07:01:21.000Z</Time>
            <Position>
              <LatitudeDegrees>42.78909601271152496337890625</LatitudeDegrees>
              <LongitudeDegrees>-0.16249048523604869842529296875</LongitudeDegrees>
            </Position>
            <AltitudeMeters>2353.39990234375</AltitudeMeters>
            <DistanceMeters>25830.008605077</DistanceMeters>
          </Trackpoint>
          <Trackpoint>
            <Time>2022-07-10T07:01:27.000Z</Time>
            <Position>
              <LatitudeDegrees>42.78909542597830295562744140625</LatitudeDegrees>
              <LongitudeDegrees>-0.16252099536359310150146484375</LongitudeDegrees>
            </Position>
            <AltitudeMeters>2353.39990234375</AltitudeMeters>
            <DistanceMeters>25832.501132427</DistanceMeters>
          </Trackpoint>
          <Trackpoint>
            <Time>2022-07-10T07:01:28.000Z</Time>
            <Position>
              <LatitudeDegrees>42.789093665778636932373046875</LatitudeDegrees>
              <LongitudeDegrees>-0.1625279523432254791259765625</LongitudeDegrees>
            </Position>
            <AltitudeMeters>2353.199951171875</AltitudeMeters>
            <DistanceMeters>25833.102134139</DistanceMeters>
          </Trackpoint>
          <Trackpoint>
            <Time>2022-07-10T07:01:33.000Z</Time>
            <Position>
              <LatitudeDegrees>42.7890710346400737762451171875</LatitudeDegrees>
              <LongitudeDegrees>-0.16256609000265598297119140625</LongitudeDegrees>
            </Position>
            <AltitudeMeters>2353.199951171875</AltitudeMeters>
            <DistanceMeters>25837.107935662</DistanceMeters>
          </Trackpoint>
          <Trackpoint>
            <Time>2022-07-10T07:01:34.000Z</Time>
            <Position>
              <LatitudeDegrees>42.789062149822711944580078125</LatitudeDegrees>
              <LongitudeDegrees>-0.16257681883871555328369140625</LongitudeDegrees>
            </Position>
            <AltitudeMeters>2353.39990234375</AltitudeMeters>
            <DistanceMeters>25838.431504637</DistanceMeters>
          </Trackpoint>
          <Trackpoint>
            <Time>2022-07-10T07:01:39.000Z</Time>
            <Position>
              <LatitudeDegrees>42.78899685479700565338134765625</LatitudeDegrees>
              <LongitudeDegrees>-0.16266533173620700836181640625</LongitudeDegrees>
            </Position>
            <AltitudeMeters>2353.60009765625</AltitudeMeters>
            <DistanceMeters>25848.682945006</DistanceMeters>
          </Trackpoint>
          <Trackpoint>
            <Time>2022-07-10T07:01:45.000Z</Time>
            <Position>
              <LatitudeDegrees>42.7889030613005161285400390625</LatitudeDegrees>
              <LongitudeDegrees>-0.1627448759973049163818359375</LongitudeDegrees>
            </Position>
            <AltitudeMeters>2353</AltitudeMeters>
            <DistanceMeters>25860.97926966</DistanceMeters>
          </Trackpoint>
          <Trackpoint>
            <Time>2022-07-10T07:01:46.000Z</Time>
            <Position>
              <LatitudeDegrees>42.78888721950352191925048828125</LatitudeDegrees>
              <LongitudeDegrees>-0.16276122070848941802978515625</LongitudeDegrees>
            </Position>
            <AltitudeMeters>2353.199951171875</AltitudeMeters>
            <DistanceMeters>25863.189534656</DistanceMeters>
          </Trackpoint>
          <Trackpoint>
            <Time>2022-07-10T07:01:51.000Z</Time>
            <Position>
              <LatitudeDegrees>42.7888403646647930145263671875</LatitudeDegrees>
              <LongitudeDegrees>-0.16281000338494777679443359375</LongitudeDegrees>
            </Position>
            <AltitudeMeters>2353</AltitudeMeters>
            <DistanceMeters>25869.752572416</DistanceMeters>
          </Trackpoint>
          <Trackpoint>
            <Time>2022-07-10T07:01:53.000Z</Time>
            <Position>
              <LatitudeDegrees>42.78883324004709720611572265625</LatitudeDegrees>
              <LongitudeDegrees>-0.16280271112918853759765625</LongitudeDegrees>
            </Position>
            <AltitudeMeters>2352.800048828125</AltitudeMeters>
            <DistanceMeters>25870.749221005</DistanceMeters>
          </Trackpoint>
          <Trackpoint>
            <Time>2022-07-10T07:01:57.000Z</Time>
            <Position>
              <LatitudeDegrees>42.78881781734526157379150390625</LatitudeDegrees>
              <LongitudeDegrees>-0.16282576136291027069091796875</LongitudeDegrees>
            </Position>
            <AltitudeMeters>2352.60009765625</AltitudeMeters>
            <DistanceMeters>25873.299055321</DistanceMeters>
          </Trackpoint>
          <Trackpoint>
            <Time>2022-07-10T07:02:00.000Z</Time>
            <Position>
              <LatitudeDegrees>42.78883759863674640655517578125</LatitudeDegrees>
              <LongitudeDegrees>-0.162833221256732940673828125</LongitudeDegrees>
            </Position>
            <AltitudeMeters>2352.39990234375</AltitudeMeters>
            <DistanceMeters>25875.583652481</DistanceMeters>
          </Trackpoint>
          <Trackpoint>
            <Time>2022-07-10T07:02:04.000Z</Time>
            <Position>
              <LatitudeDegrees>42.78885385952889919281005859375</LatitudeDegrees>
              <LongitudeDegrees>-0.1628343947231769561767578125</LongitudeDegrees>
            </Position>
            <AltitudeMeters>2352.60009765625</AltitudeMeters>
            <DistanceMeters>25877.396646641</DistanceMeters>
          </Trackpoint>
          <Trackpoint>
            <Time>2022-07-10T07:02:05.000Z</Time>
            <Position>
              <LatitudeDegrees>42.788850255310535430908203125</LatitudeDegrees>
              <LongitudeDegrees>-0.16284353099763393402099609375</LongitudeDegrees>
            </Position>
            <AltitudeMeters>2352.60009765625</AltitudeMeters>
            <DistanceMeters>25878.246591413</DistanceMeters>
          </Trackpoint>
          <Trackpoint>
            <Time>2022-07-10T07:02:10.000Z</Time>
            <Position>
              <LatitudeDegrees>42.7887679450213909149169921875</LatitudeDegrees>
              <LongitudeDegrees>-0.16294059343636035919189453125</LongitudeDegrees>
            </Position>
            <AltitudeMeters>2352.60009765625</AltitudeMeters>
            <DistanceMeters>25890.362404332</DistanceMeters>
          </Trackpoint>
          <Trackpoint>
            <Time>2022-07-10T07:02:11.000Z</Time>
            <Position>
              <LatitudeDegrees>42.788752354681491851806640625</LatitudeDegrees>
              <LongitudeDegrees>-0.16295568086206912994384765625</LongitudeDegrees>
            </Position>
            <AltitudeMeters>2352.800048828125</AltitudeMeters>
            <DistanceMeters>25892.491511745</DistanceMeters>
          </Trackpoint>
          <Trackpoint>
            <Time>2022-07-10T07:02:17.000Z</Time>
            <Position>
              <LatitudeDegrees>42.78873165138065814971923828125</LatitudeDegrees>
              <LongitudeDegrees>-0.1629762165248394012451171875</LongitudeDegrees>
            </Position>
            <AltitudeMeters>2353</AltitudeMeters>
            <DistanceMeters>25895.342313176</DistanceMeters>
          </Trackpoint>
          <Trackpoint>
            <Time>2022-07-10T07:02:23.000Z</Time>
            <Position>
              <LatitudeDegrees>42.7887531928718090057373046875</LatitudeDegrees>
              <LongitudeDegrees>-0.1629602909088134765625</LongitudeDegrees>
            </Position>
            <AltitudeMeters>2352.800048828125</AltitudeMeters>
            <DistanceMeters>25898.07009304</DistanceMeters>
          </Trackpoint>
          <Trackpoint>
            <Time>2022-07-10T07:02:24.000Z</Time>
            <Position>
              <LatitudeDegrees>42.78874958865344524383544921875</LatitudeDegrees>
              <LongitudeDegrees>-0.16298283822834491729736328125</LongitudeDegrees>
            </Position>
            <AltitudeMeters>2352.60009765625</AltitudeMeters>
            <DistanceMeters>25899.951525996</DistanceMeters>
          </Trackpoint>
          <Trackpoint>
            <Time>2022-07-10T07:02:25.000Z</Time>
            <Position>
              <LatitudeDegrees>42.78874707408249378204345703125</LatitudeDegrees>
              <LongitudeDegrees>-0.163005888462066650390625</LongitudeDegrees>
            </Position>
            <AltitudeMeters>2352.39990234375</AltitudeMeters>
            <DistanceMeters>25901.856805695</DistanceMeters>
          </Trackpoint>
          <Trackpoint>
            <Time>2022-07-10T07:02:26.000Z</Time>
            <Position>
              <LatitudeDegrees>42.78874321840703487396240234375</LatitudeDegrees>
              <LongitudeDegrees>-0.1630318723618984222412109375</LongitudeDegrees>
            </Position>
            <AltitudeMeters>2352.39990234375</AltitudeMeters>
            <DistanceMeters>25904.023748184</DistanceMeters>
          </Trackpoint>
          <Trackpoint>
            <Time>2022-07-10T07:02:31.000Z</Time>
            <Position>
              <LatitudeDegrees>42.78875059448182582855224609375</LatitudeDegrees>
              <LongitudeDegrees>-0.1630717702209949493408203125</LongitudeDegrees>
            </Position>
            <AltitudeMeters>2352</AltitudeMeters>
            <DistanceMeters>25907.38344989</DistanceMeters>
          </Trackpoint>
          <Trackpoint>
            <Time>2022-07-10T07:02:32.000Z</Time>
            <Position>
              <LatitudeDegrees>42.7887568809092044830322265625</LatitudeDegrees>
              <LongitudeDegrees>-0.16307721845805644989013671875</LongitudeDegrees>
            </Position>
            <AltitudeMeters>2351.800048828125</AltitudeMeters>
            <DistanceMeters>25908.217305924</DistanceMeters>
          </Trackpoint>
          <Trackpoint>
            <Time>2022-07-10T07:02:34.000Z</Time>
            <Position>
              <LatitudeDegrees>42.7887736447155475616455078125</LatitudeDegrees>
              <LongitudeDegrees>-0.16309297643601894378662109375</LongitudeDegrees>
            </Position>
            <AltitudeMeters>2351.39990234375</AltitudeMeters>
            <DistanceMeters>25910.486037634</DistanceMeters>
          </Trackpoint>
          <Trackpoint>
            <Time>2022-07-10T07:02:35.000Z</Time>
            <Position>
              <LatitudeDegrees>42.7887769974768161773681640625</LatitudeDegrees>
              <LongitudeDegrees>-0.16310177743434906005859375</LongitudeDegrees>
            </Position>
            <AltitudeMeters>2351.199951171875</AltitudeMeters>
            <DistanceMeters>25911.292366044</DistanceMeters>
          </Trackpoint>
          <Trackpoint>
            <Time>2022-07-10T07:02:39.000Z</Time>
            <Position>
              <LatitudeDegrees>42.78876786120235919952392578125</LatitudeDegrees>
              <LongitudeDegrees>-0.16315684653818607330322265625</LongitudeDegrees>
            </Position>
            <AltitudeMeters>2350.199951171875</AltitudeMeters>
            <DistanceMeters>25915.902875772</DistanceMeters>
          </Trackpoint>
          <Trackpoint>
            <Time>2022-07-10T07:02:43.000Z</Time>
            <Position>
              <LatitudeDegrees>42.788775153458118438720703125</LatitudeDegrees>
              <LongitudeDegrees>-0.1631978340446949005126953125</LongitudeDegrees>
            </Position>
            <AltitudeMeters>2349.39990234375</AltitudeMeters>
            <DistanceMeters>25919.347512247</DistanceMeters>
          </Trackpoint>
          <Trackpoint>
            <Time>2022-07-10T07:02:45.000Z</Time>
            <Position>
              <LatitudeDegrees>42.7887833677232265472412109375</LatitudeDegrees>
              <LongitudeDegrees>-0.16320479102432727813720703125</LongitudeDegrees>
            </Position>
            <AltitudeMeters>2349</AltitudeMeters>
            <DistanceMeters>25920.42680825</DistanceMeters>
          </Trackpoint>
          <Trackpoint>
            <Time>2022-07-10T07:02:46.000Z</Time>
            <Position>
              <LatitudeDegrees>42.78878152370452880859375</LatitudeDegrees>
              <LongitudeDegrees>-0.16321099363267421722412109375</LongitudeDegrees>
            </Position>
            <AltitudeMeters>2349</AltitudeMeters>
            <DistanceMeters>25920.98090445</DistanceMeters>
          </Trackpoint>
          <Trackpoint>
            <Time>2022-07-10T07:02:48.000Z</Time>
            <Position>
              <LatitudeDegrees>42.78876333497464656829833984375</LatitudeDegrees>
              <LongitudeDegrees>-0.16323463059961795806884765625</LongitudeDegrees>
            </Position>
            <AltitudeMeters>2348.800048828125</AltitudeMeters>
            <DistanceMeters>25923.778953105</DistanceMeters>
          </Trackpoint>
          <Trackpoint>
            <Time>2022-07-10T07:02:50.000Z</Time>
            <Position>
              <LatitudeDegrees>42.78875268995761871337890625</LatitudeDegrees>
              <LongitudeDegrees>-0.1632486283779144287109375</LongitudeDegrees>
            </Position>
            <AltitudeMeters>2348.60009765625</AltitudeMeters>
            <DistanceMeters>25925.427604981</DistanceMeters>
          </Trackpoint>
          <Trackpoint>
            <Time>2022-07-10T07:02:54.000Z</Time>
            <Position>
              <LatitudeDegrees>42.78875361196696758270263671875</LatitudeDegrees>
              <LongitudeDegrees>-0.16324636526405811309814453125</LongitudeDegrees>
            </Position>
            <AltitudeMeters>2348</AltitudeMeters>
            <DistanceMeters>25925.660371944</DistanceMeters>
          </Trackpoint>
          <Trackpoint>
            <Time>2022-07-10T07:02:56.000Z</Time>
            <Position>
              <LatitudeDegrees>42.78876073658466339111328125</LatitudeDegrees>
              <LongitudeDegrees>-0.1632487960159778594970703125</LongitudeDegrees>
            </Position>
            <AltitudeMeters>2347.60009765625</AltitudeMeters>
            <DistanceMeters>25926.47782265</DistanceMeters>
          </Trackpoint>
          <Trackpoint>
            <Time>2022-07-10T07:03:01.000Z</Time>
            <Position>
              <LatitudeDegrees>42.7887381054461002349853515625</LatitudeDegrees>
              <LongitudeDegrees>-0.16329229809343814849853515625</LongitudeDegrees>
            </Position>
            <AltitudeMeters>2346.800048828125</AltitudeMeters>
            <DistanceMeters>25930.832493766</DistanceMeters>
          </Trackpoint>
          <Trackpoint>
            <Time>2022-07-10T07:03:03.000Z</Time>
            <Position>
              <LatitudeDegrees>42.78874330222606658935546875</LatitudeDegrees>
              <LongitudeDegrees>-0.1633074693381786346435546875</LongitudeDegrees>
            </Position>
            <AltitudeMeters>2346.60009765625</AltitudeMeters>
            <DistanceMeters>25932.199690103</DistanceMeters>
          </Trackpoint>
          <Trackpoint>
            <Time>2022-07-10T07:03:09.000Z</Time>
            <Position>
              <LatitudeDegrees>42.78871807269752025604248046875</LatitudeDegrees>
              <LongitudeDegrees>-0.16337645240128040313720703125</LongitudeDegrees>
            </Position>
            <AltitudeMeters>2346.39990234375</AltitudeMeters>
            <DistanceMeters>25938.495165106</DistanceMeters>
          </Trackpoint>
          <Trackpoint>
            <Time>2022-07-10T07:03:12.000Z</Time>
            <Position>
              <LatitudeDegrees>42.7887129597365856170654296875</LatitudeDegrees>
              <LongitudeDegrees>-0.16340075992047786712646484375</LongitudeDegrees>
            </Position>
            <AltitudeMeters>2346.39990234375</AltitudeMeters>
            <DistanceMeters>25940.559673784</DistanceMeters>
          </Trackpoint>
          <Trackpoint>
            <Time>2022-07-10T07:03:13.000Z</Time>
            <Position>
              <LatitudeDegrees>42.78871840797364711761474609375</LatitudeDegrees>
              <LongitudeDegrees>-0.1634134165942668914794921875</LongitudeDegrees>
            </Position>
            <AltitudeMeters>2346.39990234375</AltitudeMeters>
            <DistanceMeters>25941.75791506</DistanceMeters>
          </Trackpoint>
          <Trackpoint>
            <Time>2022-07-10T07:03:14.000Z</Time>
            <Position>
              <LatitudeDegrees>42.7887149713933467864990234375</LatitudeDegrees>
              <LongitudeDegrees>-0.16342339105904102325439453125</LongitudeDegrees>
            </Position>
            <AltitudeMeters>2346.39990234375</AltitudeMeters>
            <DistanceMeters>25942.659417628</DistanceMeters>
          </Trackpoint>
          <Trackpoint>
            <Time>2022-07-10T07:03:15.000Z</Time>
            <Position>
              <LatitudeDegrees>42.7887082658708095550537109375</LatitudeDegrees>
              <LongitudeDegrees>-0.1634365506470203399658203125</LongitudeDegrees>
            </Position>
            <AltitudeMeters>2346.39990234375</AltitudeMeters>
            <DistanceMeters>25943.965818963</DistanceMeters>
          </Trackpoint>
          <Trackpoint>
            <Time>2022-07-10T07:03:20.000Z</Time>
            <Position>
              <LatitudeDegrees>42.78869007714092731475830078125</LatitudeDegrees>
              <LongitudeDegrees>-0.16348910517990589141845703125</LongitudeDegrees>
            </Position>
            <AltitudeMeters>2346.39990234375</AltitudeMeters>
            <DistanceMeters>25948.712400967</DistanceMeters>
          </Trackpoint>
          <Trackpoint>
            <Time>2022-07-10T07:03:22.000Z</Time>
            <Position>
              <LatitudeDegrees>42.78868119232356548309326171875</LatitudeDegrees>
              <LongitudeDegrees>-0.1635046117007732391357421875</LongitudeDegrees>
            </Position>
            <AltitudeMeters>2346.39990234375</AltitudeMeters>
            <DistanceMeters>25950.3222556</DistanceMeters>
          </Trackpoint>
          <Trackpoint>
            <Time>2022-07-10T07:03:27.000Z</Time>
            <Position>
              <LatitudeDegrees>42.78864447958767414093017578125</LatitudeDegrees>
              <LongitudeDegrees>-0.16358516179025173187255859375</LongitudeDegrees>
            </Position>
            <AltitudeMeters>2346.39990234375</AltitudeMeters>
            <DistanceMeters>25958.067370049</DistanceMeters>
          </Trackpoint>
          <Trackpoint>
            <Time>2022-07-10T07:03:32.000Z</Time>
            <Position>
              <LatitudeDegrees>42.78862059116363525390625</LatitudeDegrees>
              <LongitudeDegrees>-0.1636283285915851593017578125</LongitudeDegrees>
            </Position>
            <AltitudeMeters>2346</AltitudeMeters>
            <DistanceMeters>25962.483812635</DistanceMeters>
          </Trackpoint>
          <Trackpoint>
            <Time>2022-07-10T07:03:36.000Z</Time>
            <Position>
              <LatitudeDegrees>42.7885805256664752960205078125</LatitudeDegrees>
              <LongitudeDegrees>-0.16366302967071533203125</LongitudeDegrees>
            </Position>
            <AltitudeMeters>2346</AltitudeMeters>
            <DistanceMeters>25967.767844842</DistanceMeters>
          </Trackpoint>
          <Trackpoint>
            <Time>2022-07-10T07:03:40.000Z</Time>
            <Position>
              <LatitudeDegrees>42.7885560505092144012451171875</LatitudeDegrees>
              <LongitudeDegrees>-0.16370125114917755126953125</LongitudeDegrees>
            </Position>
            <AltitudeMeters>2345.800048828125</AltitudeMeters>
            <DistanceMeters>25971.911053178</DistanceMeters>
          </Trackpoint>
          <Trackpoint>
            <Time>2022-07-10T07:03:41.000Z</Time>
            <Position>
              <LatitudeDegrees>42.7885506860911846160888671875</LatitudeDegrees>
              <LongitudeDegrees>-0.1637158356606960296630859375</LongitudeDegrees>
            </Position>
            <AltitudeMeters>2345.800048828125</AltitudeMeters>
            <DistanceMeters>25973.24142718</DistanceMeters>
          </Trackpoint>
          <Trackpoint>
            <Time>2022-07-10T07:03:43.000Z</Time>
            <Position>
              <LatitudeDegrees>42.78854926116764545440673828125</LatitudeDegrees>
              <LongitudeDegrees>-0.16374257393181324005126953125</LongitudeDegrees>
            </Position>
            <AltitudeMeters>2345.60009765625</AltitudeMeters>
            <DistanceMeters>25975.433230243</DistanceMeters>
          </Trackpoint>
          <Trackpoint>
            <Time>2022-07-10T07:03:48.000Z</Time>
            <Position>
              <LatitudeDegrees>42.7885218523442745208740234375</LatitudeDegrees>
              <LongitudeDegrees>-0.1638056896626949310302734375</LongitudeDegrees>
            </Position>
            <AltitudeMeters>2345</AltitudeMeters>
            <DistanceMeters>25981.423682963</DistanceMeters>
          </Trackpoint>
          <Trackpoint>
            <Time>2022-07-10T07:03:51.000Z</Time>
            <Position>
              <LatitudeDegrees>42.7885027416050434112548828125</LatitudeDegrees>
              <LongitudeDegrees>-0.1638425700366497039794921875</LongitudeDegrees>
            </Position>
            <AltitudeMeters>2345.60009765625</AltitudeMeters>
            <DistanceMeters>25985.111405176</DistanceMeters>
          </Trackpoint>
          <Trackpoint>
            <Time>2022-07-10T07:03:57.000Z</Time>
            <Position>
              <LatitudeDegrees>42.7884658612310886383056640625</LatitudeDegrees>
              <LongitudeDegrees>-0.1638901792466640472412109375</LongitudeDegrees>
            </Position>
            <AltitudeMeters>2346.199951171875</AltitudeMeters>
            <DistanceMeters>25990.765295042</DistanceMeters>
          </Trackpoint>
          <Trackpoint>
            <Time>2022-07-10T07:04:00.000Z</Time>
            <Position>
              <LatitudeDegrees>42.78845035471022129058837890625</LatitudeDegrees>
              <LongitudeDegrees>-0.16390107572078704833984375</LongitudeDegrees>
            </Position>
            <AltitudeMeters>2346.39990234375</AltitudeMeters>
            <DistanceMeters>25992.708120807</DistanceMeters>
          </Trackpoint>
          <Trackpoint>
            <Time>2022-07-10T07:04:03.000Z</Time>
            <Position>
              <LatitudeDegrees>42.78844197280704975128173828125</LatitudeDegrees>
              <LongitudeDegrees>-0.1639344356954097747802734375</LongitudeDegrees>
            </Position>
            <AltitudeMeters>2346.39990234375</AltitudeMeters>
            <DistanceMeters>25995.588856868</DistanceMeters>
          </Trackpoint>
          <Trackpoint>
            <Time>2022-07-10T07:04:04.000Z</Time>
            <Position>
              <LatitudeDegrees>42.78844448737800121307373046875</LatitudeDegrees>
              <LongitudeDegrees>-0.1639505289494991302490234375</LongitudeDegrees>
            </Position>
            <AltitudeMeters>2346.39990234375</AltitudeMeters>
            <DistanceMeters>25996.93273755</DistanceMeters>
          </Trackpoint>
          <Trackpoint>
            <Time>2022-07-10T07:04:08.000Z</Time>
            <Position>
              <LatitudeDegrees>42.7884316630661487579345703125</LatitudeDegrees>
              <LongitudeDegrees>-0.1640252955257892608642578125</LongitudeDegrees>
            </Position>
            <AltitudeMeters>2346.39990234375</AltitudeMeters>
            <DistanceMeters>26003.203060735</DistanceMeters>
          </Trackpoint>
          <Trackpoint>
            <Time>2022-07-10T07:04:10.000Z</Time>
            <Position>
              <LatitudeDegrees>42.78842403553426265716552734375</LatitudeDegrees>
              <LongitudeDegrees>-0.16404868103563785552978515625</LongitudeDegrees>
            </Position>
            <AltitudeMeters>2346.39990234375</AltitudeMeters>
            <DistanceMeters>26005.293648451</DistanceMeters>
          </Trackpoint>
          <Trackpoint>
            <Time>2022-07-10T07:04:11.000Z</Time>
            <Position>
              <LatitudeDegrees>42.788416408002376556396484375</LatitudeDegrees>
              <LongitudeDegrees>-0.1640675403177738189697265625</LongitudeDegrees>
            </Position>
            <AltitudeMeters>2346.39990234375</AltitudeMeters>
            <DistanceMeters>26007.056131443</DistanceMeters>
          </Trackpoint>
          <Trackpoint>
            <Time>2022-07-10T07:04:15.000Z</Time>
            <Position>
              <LatitudeDegrees>42.7883563935756683349609375</LatitudeDegrees>
              <LongitudeDegrees>-0.1641577295958995819091796875</LongitudeDegrees>
            </Position>
            <AltitudeMeters>2346.800048828125</AltitudeMeters>
            <DistanceMeters>26017.000848493</DistanceMeters>
          </Trackpoint>
          <Trackpoint>
            <Time>2022-07-10T07:04:16.000Z</Time>
            <Position>
              <LatitudeDegrees>42.78835899196565151214599609375</LatitudeDegrees>
              <LongitudeDegrees>-0.1641580648720264434814453125</LongitudeDegrees>
            </Position>
            <AltitudeMeters>2346.800048828125</AltitudeMeters>
            <DistanceMeters>26017.301349349</DistanceMeters>
          </Trackpoint>
          <Trackpoint>
            <Time>2022-07-10T07:04:18.000Z</Time>
            <Position>
              <LatitudeDegrees>42.7883684635162353515625</LatitudeDegrees>
              <LongitudeDegrees>-0.16417306847870349884033203125</LongitudeDegrees>
            </Position>
            <AltitudeMeters>2347</AltitudeMeters>
            <DistanceMeters>26018.919595983</DistanceMeters>
          </Trackpoint>
          <Trackpoint>
            <Time>2022-07-10T07:04:22.000Z</Time>
            <Position>
              <LatitudeDegrees>42.78837173245847225189208984375</LatitudeDegrees>
              <LongitudeDegrees>-0.16420458443462848663330078125</LongitudeDegrees>
            </Position>
            <AltitudeMeters>2347.60009765625</AltitudeMeters>
            <DistanceMeters>26021.518537533</DistanceMeters>
          </Trackpoint>
          <Trackpoint>
            <Time>2022-07-10T07:04:23.000Z</Time>
            <Position>
              <LatitudeDegrees>42.788368798792362213134765625</LatitudeDegrees>
              <LongitudeDegrees>-0.16421464271843433380126953125</LongitudeDegrees>
            </Position>
            <AltitudeMeters>2347.60009765625</AltitudeMeters>
            <DistanceMeters>26022.399779029</DistanceMeters>
          </Trackpoint>
          <Trackpoint>
            <Time>2022-07-10T07:04:25.000Z</Time>
            <Position>
              <LatitudeDegrees>42.78837139718234539031982421875</LatitudeDegrees>
              <LongitudeDegrees>-0.164211206138134002685546875</LongitudeDegrees>
            </Position>
            <AltitudeMeters>2347.60009765625</AltitudeMeters>
            <DistanceMeters>26022.802943234</DistanceMeters>
          </Trackpoint>
          <Trackpoint>
            <Time>2022-07-10T07:04:27.000Z</Time>
            <Position>
              <LatitudeDegrees>42.788388244807720184326171875</LatitudeDegrees>
              <LongitudeDegrees>-0.16417600214481353759765625</LongitudeDegrees>
            </Position>
            <AltitudeMeters>2347.60009765625</AltitudeMeters>
            <DistanceMeters>26026.237077744</DistanceMeters>
          </Trackpoint>
          <Trackpoint>
            <Time>2022-07-10T07:04:28.000Z</Time>
            <Position>
              <LatitudeDegrees>42.7883914299309253692626953125</LatitudeDegrees>
              <LongitudeDegrees>-0.16415647231042385101318359375</LongitudeDegrees>
            </Position>
            <AltitudeMeters>2347.60009765625</AltitudeMeters>
            <DistanceMeters>26027.871979157</DistanceMeters>
          </Trackpoint>
          <Trackpoint>
            <Time>2022-07-10T07:04:29.000Z</Time>
            <Position>
              <LatitudeDegrees>42.7884034998714923858642578125</LatitudeDegrees>
              <LongitudeDegrees>-0.16412193886935710906982421875</LongitudeDegrees>
            </Position>
            <AltitudeMeters>2347.60009765625</AltitudeMeters>
            <DistanceMeters>26030.996321109</DistanceMeters>
          </Trackpoint>
          <Trackpoint>
            <Time>2022-07-10T07:04:31.000Z</Time>
            <Position>
              <LatitudeDegrees>42.78838279657065868377685546875</LatitudeDegrees>
              <LongitudeDegrees>-0.16410299576818943023681640625</LongitudeDegrees>
            </Position>
            <AltitudeMeters>2347.39990234375</AltitudeMeters>
            <DistanceMeters>26033.773313238</DistanceMeters>
          </Trackpoint>
          <Trackpoint>
            <Time>2022-07-10T07:04:32.000Z</Time>
            <Position>
              <LatitudeDegrees>42.78836754150688648223876953125</LatitudeDegrees>
              <LongitudeDegrees>-0.164096541702747344970703125</LongitudeDegrees>
            </Position>
            <AltitudeMeters>2347.39990234375</AltitudeMeters>
            <DistanceMeters>26035.551100277</DistanceMeters>
          </Trackpoint>
          <Trackpoint>
            <Time>2022-07-10T07:04:35.000Z</Time>
            <Position>
              <LatitudeDegrees>42.78833216987550258636474609375</LatitudeDegrees>
              <LongitudeDegrees>-0.16408388502895832061767578125</LongitudeDegrees>
            </Position>
            <AltitudeMeters>2347.199951171875</AltitudeMeters>
            <DistanceMeters>26039.620640816</DistanceMeters>
          </Trackpoint>
          <Trackpoint>
            <Time>2022-07-10T07:04:41.000Z</Time>
            <Position>
              <LatitudeDegrees>42.7882801182568073272705078125</LatitudeDegrees>
              <LongitudeDegrees>-0.164133422076702117919921875</LongitudeDegrees>
            </Position>
            <AltitudeMeters>2347.199951171875</AltitudeMeters>
            <DistanceMeters>26046.686565572</DistanceMeters>
          </Trackpoint>
          <Trackpoint>
            <Time>2022-07-10T07:04:42.000Z</Time>
            <Position>
              <LatitudeDegrees>42.78826586902141571044921875</LatitudeDegrees>
              <LongitudeDegrees>-0.16414674930274486541748046875</LongitudeDegrees>
            </Position>
            <AltitudeMeters>2347.199951171875</AltitudeMeters>
            <DistanceMeters>26048.606011114</DistanceMeters>
          </Trackpoint>
          <Trackpoint>
            <Time>2022-07-10T07:04:43.000Z</Time>
            <Position>
              <LatitudeDegrees>42.78825304470956325531005859375</LatitudeDegrees>
              <LongitudeDegrees>-0.1641624234616756439208984375</LongitudeDegrees>
            </Position>
            <AltitudeMeters>2347.199951171875</AltitudeMeters>
            <DistanceMeters>26050.523102951</DistanceMeters>
          </Trackpoint>
          <Trackpoint>
            <Time>2022-07-10T07:04:44.000Z</Time>
            <Position>
              <LatitudeDegrees>42.7882325090467929840087890625</LatitudeDegrees>
              <LongitudeDegrees>-0.1641818694770336151123046875</LongitudeDegrees>
            </Position>
            <AltitudeMeters>2347.199951171875</AltitudeMeters>
            <DistanceMeters>26053.309833247</DistanceMeters>
          </Trackpoint>
          <Trackpoint>
            <Time>2022-07-10T07:04:46.000Z</Time>
            <Position>
              <LatitudeDegrees>42.78821800835430622100830078125</LatitudeDegrees>
              <LongitudeDegrees>-0.16419737599790096282958984375</LongitudeDegrees>
            </Position>
            <AltitudeMeters>2346.800048828125</AltitudeMeters>
            <DistanceMeters>26055.365575394</DistanceMeters>
          </Trackpoint>
          <Trackpoint>
            <Time>2022-07-10T07:04:48.000Z</Time>
            <Position>
              <LatitudeDegrees>42.7882207743823528289794921875</LatitudeDegrees>
              <LongitudeDegrees>-0.1641959510743618011474609375</LongitudeDegrees>
            </Position>
            <AltitudeMeters>2346.60009765625</AltitudeMeters>
            <DistanceMeters>26055.708199085</DistanceMeters>
          </Trackpoint>
          <Trackpoint>
            <Time>2022-07-10T07:04:54.000Z</Time>
            <Position>
              <LatitudeDegrees>42.78816117905080318450927734375</LatitudeDegrees>
              <LongitudeDegrees>-0.16425537876784801483154296875</LongitudeDegrees>
            </Position>
            <AltitudeMeters>2346</AltitudeMeters>
            <DistanceMeters>26063.92732324</DistanceMeters>
          </Trackpoint>
          <Trackpoint>
            <Time>2022-07-10T07:04:55.000Z</Time>
            <Position>
              <LatitudeDegrees>42.7881486900150775909423828125</LatitudeDegrees>
              <LongitudeDegrees>-0.16426845453679561614990234375</LongitudeDegrees>
            </Position>
            <AltitudeMeters>2345.800048828125</AltitudeMeters>
            <DistanceMeters>26065.679529276</DistanceMeters>
          </Trackpoint>
          <Trackpoint>
            <Time>2022-07-10T07:05:00.000Z</Time>
            <Position>
              <LatitudeDegrees>42.7881272323429584503173828125</LatitudeDegrees>
              <LongitudeDegrees>-0.1642650179564952850341796875</LongitudeDegrees>
            </Position>
            <AltitudeMeters>2345.60009765625</AltitudeMeters>
            <DistanceMeters>26068.085413521</DistanceMeters>
          </Trackpoint>
          <Trackpoint>
            <Time>2022-07-10T07:05:01.000Z</Time>
            <Position>
              <LatitudeDegrees>42.78812379576265811920166015625</LatitudeDegrees>
              <LongitudeDegrees>-0.164258815348148345947265625</LongitudeDegrees>
            </Position>
            <AltitudeMeters>2345.39990234375</AltitudeMeters>
            <DistanceMeters>26068.7228721</DistanceMeters>
          </Trackpoint>
          <Trackpoint>
            <Time>2022-07-10T07:05:06.000Z</Time>
            <Position>
              <LatitudeDegrees>42.7881091274321079254150390625</LatitudeDegrees>
              <LongitudeDegrees>-0.164215564727783203125</LongitudeDegrees>
            </Position>
            <AltitudeMeters>2344.800048828125</AltitudeMeters>
            <DistanceMeters>26072.61548925</DistanceMeters>
          </Trackpoint>
          <Trackpoint>
            <Time>2022-07-10T07:05:07.000Z</Time>
            <Position>
              <LatitudeDegrees>42.7881040982902050018310546875</LatitudeDegrees>
              <LongitudeDegrees>-0.1642107032239437103271484375</LongitudeDegrees>
            </Position>
            <AltitudeMeters>2344.800048828125</AltitudeMeters>
            <DistanceMeters>26073.300736632</DistanceMeters>
          </Trackpoint>
          <Trackpoint>
            <Time>2022-07-10T07:05:08.000Z</Time>
            <Position>
              <LatitudeDegrees>42.78809948824346065521240234375</LatitudeDegrees>
              <LongitudeDegrees>-0.16420994885265827178955078125</LongitudeDegrees>
            </Position>
            <AltitudeMeters>2344.60009765625</AltitudeMeters>
            <DistanceMeters>26073.829822986</DistanceMeters>
          </Trackpoint>
          <Trackpoint>
            <Time>2022-07-10T07:05:10.000Z</Time>
            <Position>
              <LatitudeDegrees>42.78808725066483020782470703125</LatitudeDegrees>
              <LongitudeDegrees>-0.16419083811342716217041015625</LongitudeDegrees>
            </Position>
            <AltitudeMeters>2344.39990234375</AltitudeMeters>
            <DistanceMeters>26075.903061126</DistanceMeters>
          </Trackpoint>
          <Trackpoint>
            <Time>2022-07-10T07:05:12.000Z</Time>
            <Position>
              <LatitudeDegrees>42.7880789525806903839111328125</LatitudeDegrees>
              <LongitudeDegrees>-0.16421891748905181884765625</LongitudeDegrees>
            </Position>
            <AltitudeMeters>2344.199951171875</AltitudeMeters>
            <DistanceMeters>26078.377407874</DistanceMeters>
          </Trackpoint>
          <Trackpoint>
            <Time>2022-07-10T07:05:17.000Z</Time>
            <Position>
              <LatitudeDegrees>42.78810870833694934844970703125</LatitudeDegrees>
              <LongitudeDegrees>-0.1642096973955631256103515625</LongitudeDegrees>
            </Position>
            <AltitudeMeters>2343.800048828125</AltitudeMeters>
            <DistanceMeters>26081.773200509</DistanceMeters>
          </Trackpoint>
          <Trackpoint>
            <Time>2022-07-10T07:05:18.000Z</Time>
            <Position>
              <LatitudeDegrees>42.7881178446114063262939453125</LatitudeDegrees>
              <LongitudeDegrees>-0.16420341096818447113037109375</LongitudeDegrees>
            </Position>
            <AltitudeMeters>2343.60009765625</AltitudeMeters>
            <DistanceMeters>26082.909554737</DistanceMeters>
          </Trackpoint>
          <Trackpoint>
            <Time>2022-07-10T07:05:19.000Z</Time>
            <Position>
              <LatitudeDegrees>42.78811968863010406494140625</LatitudeDegrees>
              <LongitudeDegrees>-0.16420441679656505584716796875</LongitudeDegrees>
            </Position>
            <AltitudeMeters>2343.39990234375</AltitudeMeters>
            <DistanceMeters>26083.12204093</DistanceMeters>
          </Trackpoint>
          <Trackpoint>
            <Time>2022-07-10T07:05:20.000Z</Time>
            <Position>
              <LatitudeDegrees>42.7881175093352794647216796875</LatitudeDegrees>
              <LongitudeDegrees>-0.16420324333012104034423828125</LongitudeDegrees>
            </Position>
            <AltitudeMeters>2343.199951171875</AltitudeMeters>
            <DistanceMeters>26083.354807892</DistanceMeters>
          </Trackpoint>
          <Trackpoint>
            <Time>2022-07-10T07:05:22.000Z</Time>
            <Position>
              <LatitudeDegrees>42.7880895137786865234375</LatitudeDegrees>
              <LongitudeDegrees>-0.164234004914760589599609375</LongitudeDegrees>
            </Position>
            <AltitudeMeters>2343</AltitudeMeters>
            <DistanceMeters>26087.357226612</DistanceMeters>
          </Trackpoint>
          <Trackpoint>
            <Time>2022-07-10T07:05:24.000Z</Time>
            <Position>
              <LatitudeDegrees>42.788105271756649017333984375</LatitudeDegrees>
              <LongitudeDegrees>-0.16424666158854961395263671875</LongitudeDegrees>
            </Position>
            <AltitudeMeters>2342.800048828125</AltitudeMeters>
            <DistanceMeters>26089.390887108</DistanceMeters>
          </Trackpoint>
          <Trackpoint>
            <Time>2022-07-10T07:05:28.000Z</Time>
            <Position>
              <LatitudeDegrees>42.78801583684980869293212890625</LatitudeDegrees>
              <LongitudeDegrees>-0.1643102802336215972900390625</LongitudeDegrees>
            </Position>
            <AltitudeMeters>2342.800048828125</AltitudeMeters>
            <DistanceMeters>26100.61973199</DistanceMeters>
          </Trackpoint>
          <Trackpoint>
            <Time>2022-07-10T07:05:31.000Z</Time>
            <Position>
              <LatitudeDegrees>42.78800225816667079925537109375</LatitudeDegrees>
              <LongitudeDegrees>-0.16435143537819385528564453125</LongitudeDegrees>
            </Position>
            <AltitudeMeters>2343.199951171875</AltitudeMeters>
            <DistanceMeters>26104.307454204</DistanceMeters>
          </Trackpoint>
          <Trackpoint>
            <Time>2022-07-10T07:05:32.000Z</Time>
            <Position>
              <LatitudeDegrees>42.78798968531191349029541015625</LatitudeDegrees>
              <LongitudeDegrees>-0.16435076482594013214111328125</LongitudeDegrees>
            </Position>
            <AltitudeMeters>2343.199951171875</AltitudeMeters>
            <DistanceMeters>26105.710506827</DistanceMeters>
          </Trackpoint>
          <Trackpoint>
            <Time>2022-07-10T07:05:35.000Z</Time>
            <Position>
              <LatitudeDegrees>42.78796269558370113372802734375</LatitudeDegrees>
              <LongitudeDegrees>-0.1643595658242702484130859375</LongitudeDegrees>
            </Position>
            <AltitudeMeters>2343.199951171875</AltitudeMeters>
            <DistanceMeters>26108.798509535</DistanceMeters>
          </Trackpoint>
          <Trackpoint>
            <Time>2022-07-10T07:05:37.000Z</Time>
            <Position>
              <LatitudeDegrees>42.7879471890628337860107421875</LatitudeDegrees>
              <LongitudeDegrees>-0.16436216421425342559814453125</LongitudeDegrees>
            </Position>
            <AltitudeMeters>2343.199951171875</AltitudeMeters>
            <DistanceMeters>26110.535186112</DistanceMeters>
          </Trackpoint>
          <Trackpoint>
            <Time>2022-07-10T07:05:38.000Z</Time>
            <Position>
              <LatitudeDegrees>42.78793637640774250030517578125</LatitudeDegrees>
              <LongitudeDegrees>-0.16436752863228321075439453125</LongitudeDegrees>
            </Position>
            <AltitudeMeters>2343.199951171875</AltitudeMeters>
            <DistanceMeters>26111.813639802</DistanceMeters>
          </Trackpoint>
          <Trackpoint>
            <Time>2022-07-10T07:05:39.000Z</Time>
            <Position>
              <LatitudeDegrees>42.7879253961145877838134765625</LatitudeDegrees>
              <LongitudeDegrees>-0.16437658108770847320556640625</LongitudeDegrees>
            </Position>
            <AltitudeMeters>2343.199951171875</AltitudeMeters>
            <DistanceMeters>26113.242204563</DistanceMeters>
          </Trackpoint>
          <Trackpoint>
            <Time>2022-07-10T07:05:40.000Z</Time>
            <Position>
              <LatitudeDegrees>42.78791659511625766754150390625</LatitudeDegrees>
              <LongitudeDegrees>-0.16438345424830913543701171875</LongitudeDegrees>
            </Position>
            <AltitudeMeters>2343.199951171875</AltitudeMeters>
            <DistanceMeters>26114.370584277</DistanceMeters>
          </Trackpoint>
          <Trackpoint>
            <Time>2022-07-10T07:05:44.000Z</Time>
            <Position>
              <LatitudeDegrees>42.78789178468286991119384765625</LatitudeDegrees>
              <LongitudeDegrees>-0.1643863879144191741943359375</LongitudeDegrees>
            </Position>
            <AltitudeMeters>2343.39990234375</AltitudeMeters>
            <DistanceMeters>26117.141065278</DistanceMeters>
          </Trackpoint>
          <Trackpoint>
            <Time>2022-07-10T07:05:47.000Z</Time>
            <Position>
              <LatitudeDegrees>42.7878734283149242401123046875</LatitudeDegrees>
              <LongitudeDegrees>-0.1643850468099117279052734375</LongitudeDegrees>
            </Position>
            <AltitudeMeters>2343.60009765625</AltitudeMeters>
            <DistanceMeters>26119.188003349</DistanceMeters>
          </Trackpoint>
          <Trackpoint>
            <Time>2022-07-10T07:05:49.000Z</Time>
            <Position>
              <LatitudeDegrees>42.787862531840801239013671875</LatitudeDegrees>
              <LongitudeDegrees>-0.16439267434179782867431640625</LongitudeDegrees>
            </Position>
            <AltitudeMeters>2343.60009765625</AltitudeMeters>
            <DistanceMeters>26120.551893282</DistanceMeters>
          </Trackpoint>
          <Trackpoint>
            <Time>2022-07-10T07:05:50.000Z</Time>
            <Position>
              <LatitudeDegrees>42.78785523958504199981689453125</LatitudeDegrees>
              <LongitudeDegrees>-0.1644024811685085296630859375</LongitudeDegrees>
            </Position>
            <AltitudeMeters>2343.800048828125</AltitudeMeters>
            <DistanceMeters>26121.692213854</DistanceMeters>
          </Trackpoint>
          <Trackpoint>
            <Time>2022-07-10T07:05:53.000Z</Time>
            <Position>
              <LatitudeDegrees>42.7878445945680141448974609375</LatitudeDegrees>
              <LongitudeDegrees>-0.16442419029772281646728515625</LongitudeDegrees>
            </Position>
            <AltitudeMeters>2344</AltitudeMeters>
            <DistanceMeters>26123.823440837</DistanceMeters>
          </Trackpoint>
          <Trackpoint>
            <Time>2022-07-10T07:05:56.000Z</Time>
            <Position>
              <LatitudeDegrees>42.78782674111425876617431640625</LatitudeDegrees>
              <LongitudeDegrees>-0.16445755027234554290771484375</LongitudeDegrees>
            </Position>
            <AltitudeMeters>2344</AltitudeMeters>
            <DistanceMeters>26127.196554579</DistanceMeters>
          </Trackpoint>
          <Trackpoint>
            <Time>2022-07-10T07:06:01.000Z</Time>
            <Position>
              <LatitudeDegrees>42.78780410997569561004638671875</LatitudeDegrees>
              <LongitudeDegrees>-0.16451655887067317962646484375</LongitudeDegrees>
            </Position>
            <AltitudeMeters>2343.60009765625</AltitudeMeters>
            <DistanceMeters>26132.63553706</DistanceMeters>
          </Trackpoint>
          <Trackpoint>
            <Time>2022-07-10T07:06:02.000Z</Time>
            <Position>
              <LatitudeDegrees>42.78779874555766582489013671875</LatitudeDegrees>
              <LongitudeDegrees>-0.1645292155444622039794921875</LongitudeDegrees>
            </Position>
            <AltitudeMeters>2343.60009765625</AltitudeMeters>
            <DistanceMeters>26133.826218379</DistanceMeters>
          </Trackpoint>
          <Trackpoint>
            <Time>2022-07-10T07:06:07.000Z</Time>
            <Position>
              <LatitudeDegrees>42.787776701152324676513671875</LatitudeDegrees>
              <LongitudeDegrees>-0.16461177729070186614990234375</LongitudeDegrees>
            </Position>
            <AltitudeMeters>2343.39990234375</AltitudeMeters>
            <DistanceMeters>26141.001836532</DistanceMeters>
          </Trackpoint>
          <Trackpoint>
            <Time>2022-07-10T07:06:13.000Z</Time>
            <Position>
              <LatitudeDegrees>42.78775080107152462005615234375</LatitudeDegrees>
              <LongitudeDegrees>-0.16469291411340236663818359375</LongitudeDegrees>
            </Position>
            <AltitudeMeters>2343.199951171875</AltitudeMeters>
            <DistanceMeters>26148.2288665</DistanceMeters>
          </Trackpoint>
          <Trackpoint>
            <Time>2022-07-10T07:06:14.000Z</Time>
            <Position>
              <LatitudeDegrees>42.7877426706254482269287109375</LatitudeDegrees>
              <LongitudeDegrees>-0.164701379835605621337890625</LongitudeDegrees>
            </Position>
            <AltitudeMeters>2343.199951171875</AltitudeMeters>
            <DistanceMeters>26149.369187072</DistanceMeters>
          </Trackpoint>
          <Trackpoint>
            <Time>2022-07-10T07:06:18.000Z</Time>
            <Position>
              <LatitudeDegrees>42.7877245657145977020263671875</LatitudeDegrees>
              <LongitudeDegrees>-0.164722837507724761962890625</LongitudeDegrees>
            </Position>
            <AltitudeMeters>2343</AltitudeMeters>
            <DistanceMeters>26152.040097102</DistanceMeters>
          </Trackpoint>
          <Trackpoint>
            <Time>2022-07-10T07:06:20.000Z</Time>
            <Position>
              <LatitudeDegrees>42.78771241195499897003173828125</LatitudeDegrees>
              <LongitudeDegrees>-0.1647372543811798095703125</LongitudeDegrees>
            </Position>
            <AltitudeMeters>2342.800048828125</AltitudeMeters>
            <DistanceMeters>26153.833057563</DistanceMeters>
          </Trackpoint>
          <Trackpoint>
            <Time>2022-07-10T07:06:21.000Z</Time>
            <Position>
              <LatitudeDegrees>42.78770201839506626129150390625</LatitudeDegrees>
              <LongitudeDegrees>-0.1647478155791759490966796875</LongitudeDegrees>
            </Position>
            <AltitudeMeters>2342.800048828125</AltitudeMeters>
            <DistanceMeters>26155.274209041</DistanceMeters>
          </Trackpoint>
          <Trackpoint>
            <Time>2022-07-10T07:06:22.000Z</Time>
            <Position>
              <LatitudeDegrees>42.78769196011126041412353515625</LatitudeDegrees>
              <LongitudeDegrees>-0.16475695185363292694091796875</LongitudeDegrees>
            </Position>
            <AltitudeMeters>2342.800048828125</AltitudeMeters>
            <DistanceMeters>26156.621445236</DistanceMeters>
          </Trackpoint>
          <Trackpoint>
            <Time>2022-07-10T07:06:23.000Z</Time>
            <Position>
              <LatitudeDegrees>42.78768391348421573638916015625</LatitudeDegrees>
              <LongitudeDegrees>-0.16476499848067760467529296875</LongitudeDegrees>
            </Position>
            <AltitudeMeters>2342.800048828125</AltitudeMeters>
            <DistanceMeters>26157.729637637</DistanceMeters>
          </Trackpoint>
          <Trackpoint>
            <Time>2022-07-10T07:06:25.000Z</Time>
            <Position>
              <LatitudeDegrees>42.787668071687221527099609375</LatitudeDegrees>
              <LongitudeDegrees>-0.16477924771606922149658203125</LongitudeDegrees>
            </Position>
            <AltitudeMeters>2342.39990234375</AltitudeMeters>
            <DistanceMeters>26159.841711916</DistanceMeters>
          </Trackpoint>
          <Trackpoint>
            <Time>2022-07-10T07:06:26.000Z</Time>
            <Position>
              <LatitudeDegrees>42.78766077943146228790283203125</LatitudeDegrees>
              <LongitudeDegrees>-0.16478377394378185272216796875</LongitudeDegrees>
            </Position>
            <AltitudeMeters>2342.39990234375</AltitudeMeters>
            <DistanceMeters>26160.743214484</DistanceMeters>
          </Trackpoint>
          <Trackpoint>
            <Time>2022-07-10T07:06:27.000Z</Time>
            <Position>
              <LatitudeDegrees>42.78765675611793994903564453125</LatitudeDegrees>
              <LongitudeDegrees>-0.16478830017149448394775390625</LongitudeDegrees>
            </Position>
            <AltitudeMeters>2342.39990234375</AltitudeMeters>
            <DistanceMeters>26161.328998493</DistanceMeters>
          </Trackpoint>
          <Trackpoint>
            <Time>2022-07-10T07:06:29.000Z</Time>
            <Position>
              <LatitudeDegrees>42.78764049522578716278076171875</LatitudeDegrees>
              <LongitudeDegrees>-0.164806656539440155029296875</LongitudeDegrees>
            </Position>
            <AltitudeMeters>2342.39990234375</AltitudeMeters>
            <DistanceMeters>26163.679829577</DistanceMeters>
          </Trackpoint>
          <Trackpoint>
            <Time>2022-07-10T07:06:31.000Z</Time>
            <Position>
              <LatitudeDegrees>42.78762741945683956146240234375</LatitudeDegrees>
              <LongitudeDegrees>-0.1648225821554660797119140625</LongitudeDegrees>
            </Position>
            <AltitudeMeters>2342.39990234375</AltitudeMeters>
            <DistanceMeters>26165.631929026</DistanceMeters>
          </Trackpoint>
          <Trackpoint>
            <Time>2022-07-10T07:06:34.000Z</Time>
            <Position>
              <LatitudeDegrees>42.7876112423837184906005859375</LatitudeDegrees>
              <LongitudeDegrees>-0.164854936301708221435546875</LongitudeDegrees>
            </Position>
            <AltitudeMeters>2342.39990234375</AltitudeMeters>
            <DistanceMeters>26168.829122566</DistanceMeters>
          </Trackpoint>
          <Trackpoint>
            <Time>2022-07-10T07:06:40.000Z</Time>
            <Position>
              <LatitudeDegrees>42.78758249245584011077880859375</LatitudeDegrees>
              <LongitudeDegrees>-0.1649100892245769500732421875</LongitudeDegrees>
            </Position>
            <AltitudeMeters>2342.60009765625</AltitudeMeters>
            <DistanceMeters>26174.353763584</DistanceMeters>
          </Trackpoint>
          <Trackpoint>
            <Time>2022-07-10T07:06:43.000Z</Time>
            <Position>
              <LatitudeDegrees>42.78755919076502323150634765625</LatitudeDegrees>
              <LongitudeDegrees>-0.16495342366397380828857421875</LongitudeDegrees>
            </Position>
            <AltitudeMeters>2342.60009765625</AltitudeMeters>
            <DistanceMeters>26178.740458571</DistanceMeters>
          </Trackpoint>
          <Trackpoint>
            <Time>2022-07-10T07:06:45.000Z</Time>
            <Position>
              <LatitudeDegrees>42.7875475399196147918701171875</LatitudeDegrees>
              <LongitudeDegrees>-0.16497387550771236419677734375</LongitudeDegrees>
            </Position>
            <AltitudeMeters>2342.60009765625</AltitudeMeters>
            <DistanceMeters>26180.85253285</DistanceMeters>
          </Trackpoint>
          <Trackpoint>
            <Time>2022-07-10T07:06:48.000Z</Time>
            <Position>
              <LatitudeDegrees>42.787535972893238067626953125</LatitudeDegrees>
              <LongitudeDegrees>-0.16499399207532405853271484375</LongitudeDegrees>
            </Position>
            <AltitudeMeters>2342.60009765625</AltitudeMeters>
            <DistanceMeters>26182.936631401</DistanceMeters>
          </Trackpoint>
          <Trackpoint>
            <Time>2022-07-10T07:06:51.000Z</Time>
            <Position>
              <LatitudeDegrees>42.78751493431627750396728515625</LatitudeDegrees>
              <LongitudeDegrees>-0.16502550803124904632568359375</LongitudeDegrees>
            </Position>
            <AltitudeMeters>2342.60009765625</AltitudeMeters>
            <DistanceMeters>26186.415180299</DistanceMeters>
          </Trackpoint>
          <Trackpoint>
            <Time>2022-07-10T07:06:53.000Z</Time>
            <Position>
              <LatitudeDegrees>42.7874965779483318328857421875</LatitudeDegrees>
              <LongitudeDegrees>-0.16505233012139797210693359375</LongitudeDegrees>
            </Position>
            <AltitudeMeters>2342.800048828125</AltitudeMeters>
            <DistanceMeters>26189.41116027</DistanceMeters>
          </Trackpoint>
          <Trackpoint>
            <Time>2022-07-10T07:06:55.000Z</Time>
            <Position>
              <LatitudeDegrees>42.78748375363647937774658203125</LatitudeDegrees>
              <LongitudeDegrees>-0.16508569009602069854736328125</LongitudeDegrees>
            </Position>
            <AltitudeMeters>2342.60009765625</AltitudeMeters>
            <DistanceMeters>26192.48744376</DistanceMeters>
          </Trackpoint>
          <Trackpoint>
            <Time>2022-07-10T07:06:56.000Z</Time>
            <Position>
              <LatitudeDegrees>42.7874751202762126922607421875</LatitudeDegrees>
              <LongitudeDegrees>-0.16510647721588611602783203125</LongitudeDegrees>
            </Position>
            <AltitudeMeters>2342.60009765625</AltitudeMeters>
            <DistanceMeters>26194.439543209</DistanceMeters>
          </Trackpoint>
          <Trackpoint>
            <Time>2022-07-10T07:07:02.000Z</Time>
            <Position>
              <LatitudeDegrees>42.78743949718773365020751953125</LatitudeDegrees>
              <LongitudeDegrees>-0.16518442891538143157958984375</LongitudeDegrees>
            </Position>
            <AltitudeMeters>2343.199951171875</AltitudeMeters>
            <DistanceMeters>26201.940636885</DistanceMeters>
          </Trackpoint>
          <Trackpoint>
            <Time>2022-07-10T07:07:03.000Z</Time>
            <Position>
              <LatitudeDegrees>42.7874337136745452880859375</LatitudeDegrees>
              <LongitudeDegrees>-0.16519197262823581695556640625</LongitudeDegrees>
            </Position>
            <AltitudeMeters>2343.39990234375</AltitudeMeters>
            <DistanceMeters>26202.832066482</DistanceMeters>
          </Trackpoint>
          <Trackpoint>
            <Time>2022-07-10T07:07:07.000Z</Time>
            <Position>
              <LatitudeDegrees>42.78741602785885334014892578125</LatitudeDegrees>
              <LongitudeDegrees>-0.16520538367331027984619140625</LongitudeDegrees>
            </Position>
            <AltitudeMeters>2343.60009765625</AltitudeMeters>
            <DistanceMeters>26205.084821009</DistanceMeters>
          </Trackpoint>
          <Trackpoint>
            <Time>2022-07-10T07:07:09.000Z</Time>
            <Position>
              <LatitudeDegrees>42.7874191291630268096923828125</LatitudeDegrees>
              <LongitudeDegrees>-0.165200941264629364013671875</LongitudeDegrees>
            </Position>
            <AltitudeMeters>2343.800048828125</AltitudeMeters>
            <DistanceMeters>26205.587655118</DistanceMeters>
          </Trackpoint>
          <Trackpoint>
            <Time>2022-07-10T07:07:10.000Z</Time>
            <Position>
              <LatitudeDegrees>42.78741426765918731689453125</LatitudeDegrees>
              <LongitudeDegrees>-0.16520521603524684906005859375</LongitudeDegrees>
            </Position>
            <AltitudeMeters>2343.800048828125</AltitudeMeters>
            <DistanceMeters>26206.232157652</DistanceMeters>
          </Trackpoint>
          <Trackpoint>
            <Time>2022-07-10T07:07:14.000Z</Time>
            <Position>
              <LatitudeDegrees>42.78739708475768566131591796875</LatitudeDegrees>
              <LongitudeDegrees>-0.16519901342689990997314453125</LongitudeDegrees>
            </Position>
            <AltitudeMeters>2343.800048828125</AltitudeMeters>
            <DistanceMeters>26208.211817516</DistanceMeters>
          </Trackpoint>
          <Trackpoint>
            <Time>2022-07-10T07:07:16.000Z</Time>
            <Position>
              <LatitudeDegrees>42.78737001121044158935546875</LatitudeDegrees>
              <LongitudeDegrees>-0.165219716727733612060546875</LongitudeDegrees>
            </Position>
            <AltitudeMeters>2343.800048828125</AltitudeMeters>
            <DistanceMeters>26211.666924035</DistanceMeters>
          </Trackpoint>
          <Trackpoint>
            <Time>2022-07-10T07:07:18.000Z</Time>
            <Position>
              <LatitudeDegrees>42.78733589686453342437744140625</LatitudeDegrees>
              <LongitudeDegrees>-0.165255926549434661865234375</LongitudeDegrees>
            </Position>
            <AltitudeMeters>2343.60009765625</AltitudeMeters>
            <DistanceMeters>26216.479630766</DistanceMeters>
          </Trackpoint>
          <Trackpoint>
            <Time>2022-07-10T07:07:22.000Z</Time>
            <Position>
              <LatitudeDegrees>42.7872620522975921630859375</LatitudeDegrees>
              <LongitudeDegrees>-0.165298171341419219970703125</LongitudeDegrees>
            </Position>
            <AltitudeMeters>2343.39990234375</AltitudeMeters>
            <DistanceMeters>26225.392913694</DistanceMeters>
          </Trackpoint>
          <Trackpoint>
            <Time>2022-07-10T07:07:24.000Z</Time>
            <Position>
              <LatitudeDegrees>42.787236236035823822021484375</LatitudeDegrees>
              <LongitudeDegrees>-0.16531166620552539825439453125</LongitudeDegrees>
            </Position>
            <AltitudeMeters>2342.60009765625</AltitudeMeters>
            <DistanceMeters>26228.47213117</DistanceMeters>
          </Trackpoint>
          <Trackpoint>
            <Time>2022-07-10T07:07:28.000Z</Time>
            <Position>
              <LatitudeDegrees>42.7872085757553577423095703125</LatitudeDegrees>
              <LongitudeDegrees>-0.16530093736946582794189453125</LongitudeDegrees>
            </Position>
            <AltitudeMeters>2341.60009765625</AltitudeMeters>
            <DistanceMeters>26231.674968481</DistanceMeters>
          </Trackpoint>
          <Trackpoint>
            <Time>2022-07-10T07:07:29.000Z</Time>
            <Position>
              <LatitudeDegrees>42.78720312751829624176025390625</LatitudeDegrees>
              <LongitudeDegrees>-0.16529758460819721221923828125</LongitudeDegrees>
            </Position>
            <AltitudeMeters>2341.39990234375</AltitudeMeters>
            <DistanceMeters>26232.346908822</DistanceMeters>
          </Trackpoint>
          <Trackpoint>
            <Time>2022-07-10T07:07:30.000Z</Time>
            <Position>
              <LatitudeDegrees>42.787200026214122772216796875</LatitudeDegrees>
              <LongitudeDegrees>-0.165296494960784912109375</LongitudeDegrees>
            </Position>
            <AltitudeMeters>2341.199951171875</AltitudeMeters>
            <DistanceMeters>26232.70246623</DistanceMeters>
          </Trackpoint>
          <Trackpoint>
            <Time>2022-07-10T07:07:33.000Z</Time>
            <Position>
              <LatitudeDegrees>42.7871757186949253082275390625</LatitudeDegrees>
              <LongitudeDegrees>-0.1653097383677959442138671875</LongitudeDegrees>
            </Position>
            <AltitudeMeters>2341.39990234375</AltitudeMeters>
            <DistanceMeters>26235.615930123</DistanceMeters>
          </Trackpoint>
          <Trackpoint>
            <Time>2022-07-10T07:07:34.000Z</Time>
            <Position>
              <LatitudeDegrees>42.78716725297272205352783203125</LatitudeDegrees>
              <LongitudeDegrees>-0.16531418077647686004638671875</LongitudeDegrees>
            </Position>
            <AltitudeMeters>2341.39990234375</AltitudeMeters>
            <DistanceMeters>26236.62159834</DistanceMeters>
          </Trackpoint>
          <Trackpoint>
            <Time>2022-07-10T07:07:36.000Z</Time>
            <Position>
              <LatitudeDegrees>42.7871520817279815673828125</LatitudeDegrees>
              <LongitudeDegrees>-0.165324993431568145751953125</LongitudeDegrees>
            </Position>
            <AltitudeMeters>2341.60009765625</AltitudeMeters>
            <DistanceMeters>26238.524506812</DistanceMeters>
          </Trackpoint>
          <Trackpoint>
            <Time>2022-07-10T07:07:37.000Z</Time>
            <Position>
              <LatitudeDegrees>42.7871452085673809051513671875</LatitudeDegrees>
              <LongitudeDegrees>-0.165329016745090484619140625</LongitudeDegrees>
            </Position>
            <AltitudeMeters>2341.60009765625</AltitudeMeters>
            <DistanceMeters>26239.358362847</DistanceMeters>
          </Trackpoint>
          <Trackpoint>
            <Time>2022-07-10T07:07:38.000Z</Time>
            <Position>
              <LatitudeDegrees>42.78713808394968509674072265625</LatitudeDegrees>
              <LongitudeDegrees>-0.1653301902115345001220703125</LongitudeDegrees>
            </Position>
            <AltitudeMeters>2341.60009765625</AltitudeMeters>
            <DistanceMeters>26240.159072174</DistanceMeters>
          </Trackpoint>
          <Trackpoint>
            <Time>2022-07-10T07:07:41.000Z</Time>
            <Position>
              <LatitudeDegrees>42.78711494989693164825439453125</LatitudeDegrees>
              <LongitudeDegrees>-0.165339410305023193359375</LongitudeDegrees>
            </Position>
            <AltitudeMeters>2340.800048828125</AltitudeMeters>
            <DistanceMeters>26242.841789253</DistanceMeters>
          </Trackpoint>
          <Trackpoint>
            <Time>2022-07-10T07:07:42.000Z</Time>
            <Position>
              <LatitudeDegrees>42.7871113456785678863525390625</LatitudeDegrees>
              <LongitudeDegrees>-0.165340416133403778076171875</LongitudeDegrees>
            </Position>
            <AltitudeMeters>2340.39990234375</AltitudeMeters>
            <DistanceMeters>26243.244953458</DistanceMeters>
          </Trackpoint>
          <Trackpoint>
            <Time>2022-07-10T07:07:44.000Z</Time>
            <Position>
              <LatitudeDegrees>42.787106148898601531982421875</LatitudeDegrees>
              <LongitudeDegrees>-0.1653415895998477935791015625</LongitudeDegrees>
            </Position>
            <AltitudeMeters>2340.199951171875</AltitudeMeters>
            <DistanceMeters>26243.830737467</DistanceMeters>
          </Trackpoint>
          <Trackpoint>
            <Time>2022-07-10T07:07:45.000Z</Time>
            <Position>
              <LatitudeDegrees>42.7871039696037769317626953125</LatitudeDegrees>
              <LongitudeDegrees>-0.1653449423611164093017578125</LongitudeDegrees>
            </Position>
            <AltitudeMeters>2340.199951171875</AltitudeMeters>
            <DistanceMeters>26244.210844324</DistanceMeters>
          </Trackpoint>
          <Trackpoint>
            <Time>2022-07-10T07:07:46.000Z</Time>
            <Position>
              <LatitudeDegrees>42.78710137121379375457763671875</LatitudeDegrees>
              <LongitudeDegrees>-0.16534402035176753997802734375</LongitudeDegrees>
            </Position>
            <AltitudeMeters>2340.199951171875</AltitudeMeters>
            <DistanceMeters>26244.526012281</DistanceMeters>
          </Trackpoint>
          <Trackpoint>
            <Time>2022-07-10T07:07:47.000Z</Time>
            <Position>
              <LatitudeDegrees>42.787097431719303131103515625</LatitudeDegrees>
              <LongitudeDegrees>-0.16534703783690929412841796875</LongitudeDegrees>
            </Position>
            <AltitudeMeters>2340.199951171875</AltitudeMeters>
            <DistanceMeters>26245.028846389</DistanceMeters>
          </Trackpoint>
          <Trackpoint>
            <Time>2022-07-10T07:07:49.000Z</Time>
            <Position>
              <LatitudeDegrees>42.7870922349393367767333984375</LatitudeDegrees>
              <LongitudeDegrees>-0.1653627119958400726318359375</LongitudeDegrees>
            </Position>
            <AltitudeMeters>2340</AltitudeMeters>
            <DistanceMeters>26246.43832034</DistanceMeters>
          </Trackpoint>
          <Trackpoint>
            <Time>2022-07-10T07:07:50.000Z</Time>
            <Position>
              <LatitudeDegrees>42.787084691226482391357421875</LatitudeDegrees>
              <LongitudeDegrees>-0.16537201590836048126220703125</LongitudeDegrees>
            </Position>
            <AltitudeMeters>2340</AltitudeMeters>
            <DistanceMeters>26247.570694331</DistanceMeters>
          </Trackpoint>
          <Trackpoint>
            <Time>2022-07-10T07:07:52.000Z</Time>
            <Position>
              <LatitudeDegrees>42.78707002289593219757080078125</LatitudeDegrees>
              <LongitudeDegrees>-0.16538676805794239044189453125</LongitudeDegrees>
            </Position>
            <AltitudeMeters>2339.800048828125</AltitudeMeters>
            <DistanceMeters>26249.599909661</DistanceMeters>
          </Trackpoint>
          <Trackpoint>
            <Time>2022-07-10T07:07:53.000Z</Time>
            <Position>
              <LatitudeDegrees>42.7870603837072849273681640625</LatitudeDegrees>
              <LongitudeDegrees>-0.165394730865955352783203125</LongitudeDegrees>
            </Position>
            <AltitudeMeters>2339.800048828125</AltitudeMeters>
            <DistanceMeters>26250.856994932</DistanceMeters>
          </Trackpoint>
          <Trackpoint>
            <Time>2022-07-10T07:07:56.000Z</Time>
            <Position>
              <LatitudeDegrees>42.7870345674455165863037109375</LatitudeDegrees>
              <LongitudeDegrees>-0.16540554352104663848876953125</LongitudeDegrees>
            </Position>
            <AltitudeMeters>2339.39990234375</AltitudeMeters>
            <DistanceMeters>26253.862003492</DistanceMeters>
          </Trackpoint>
          <Trackpoint>
            <Time>2022-07-10T07:07:58.000Z</Time>
            <Position>
              <LatitudeDegrees>42.78701235540211200714111328125</LatitudeDegrees>
              <LongitudeDegrees>-0.16541006974875926971435546875</LongitudeDegrees>
            </Position>
            <AltitudeMeters>2339.199951171875</AltitudeMeters>
            <DistanceMeters>26256.36176606</DistanceMeters>
          </Trackpoint>
          <Trackpoint>
            <Time>2022-07-10T07:08:01.000Z</Time>
            <Position>
              <LatitudeDegrees>42.786976732313632965087890625</LatitudeDegrees>
              <LongitudeDegrees>-0.165414847433567047119140625</LongitudeDegrees>
            </Position>
            <AltitudeMeters>2338.800048828125</AltitudeMeters>
            <DistanceMeters>26260.34609466</DistanceMeters>
          </Trackpoint>
          <Trackpoint>
            <Time>2022-07-10T07:08:05.000Z</Time>
            <Position>
              <LatitudeDegrees>42.786930464208126068115234375</LatitudeDegrees>
              <LongitudeDegrees>-0.16543337143957614898681640625</LongitudeDegrees>
            </Position>
            <AltitudeMeters>2338.199951171875</AltitudeMeters>
            <DistanceMeters>26265.713211563</DistanceMeters>
          </Trackpoint>
          <Trackpoint>
            <Time>2022-07-10T07:08:08.000Z</Time>
            <Position>
              <LatitudeDegrees>42.7869041450321674346923828125</LatitudeDegrees>
              <LongitudeDegrees>-0.16546455211937427520751953125</LongitudeDegrees>
            </Position>
            <AltitudeMeters>2338</AltitudeMeters>
            <DistanceMeters>26269.594212402</DistanceMeters>
          </Trackpoint>
          <Trackpoint>
            <Time>2022-07-10T07:08:11.000Z</Time>
            <Position>
              <LatitudeDegrees>42.78689098544418811798095703125</LatitudeDegrees>
              <LongitudeDegrees>-0.16549321822822093963623046875</LongitudeDegrees>
            </Position>
            <AltitudeMeters>2337.60009765625</AltitudeMeters>
            <DistanceMeters>26272.356532911</DistanceMeters>
          </Trackpoint>
          <Trackpoint>
            <Time>2022-07-10T07:08:13.000Z</Time>
            <Position>
              <LatitudeDegrees>42.78689534403383731842041015625</LatitudeDegrees>
              <LongitudeDegrees>-0.16550143249332904815673828125</LongitudeDegrees>
            </Position>
            <AltitudeMeters>2337.199951171875</AltitudeMeters>
            <DistanceMeters>26273.190388945</DistanceMeters>
          </Trackpoint>
          <Trackpoint>
            <Time>2022-07-10T07:08:14.000Z</Time>
            <Position>
              <LatitudeDegrees>42.786898277699947357177734375</LatitudeDegrees>
              <LongitudeDegrees>-0.16549975611269474029541015625</LongitudeDegrees>
            </Position>
            <AltitudeMeters>2337</AltitudeMeters>
            <DistanceMeters>26273.545946353</DistanceMeters>
          </Trackpoint>
          <Trackpoint>
            <Time>2022-07-10T07:08:17.000Z</Time>
            <Position>
              <LatitudeDegrees>42.78690523467957973480224609375</LatitudeDegrees>
              <LongitudeDegrees>-0.16550478525459766387939453125</LongitudeDegrees>
            </Position>
            <AltitudeMeters>2336.60009765625</AltitudeMeters>
            <DistanceMeters>26274.416880576</DistanceMeters>
          </Trackpoint>
          <Trackpoint>
            <Time>2022-07-10T07:08:21.000Z</Time>
            <Position>
              <LatitudeDegrees>42.786922417581081390380859375</LatitudeDegrees>
              <LongitudeDegrees>-0.16547109000384807586669921875</LongitudeDegrees>
            </Position>
            <AltitudeMeters>2336.199951171875</AltitudeMeters>
            <DistanceMeters>26277.768509299</DistanceMeters>
          </Trackpoint>
          <Trackpoint>
            <Time>2022-07-10T07:08:27.000Z</Time>
            <Position>
              <LatitudeDegrees>42.78690389357507228851318359375</LatitudeDegrees>
              <LongitudeDegrees>-0.16547611914575099945068359375</LongitudeDegrees>
            </Position>
            <AltitudeMeters>2335.39990234375</AltitudeMeters>
            <DistanceMeters>26279.86986776</DistanceMeters>
          </Trackpoint>
          <Trackpoint>
            <Time>2022-07-10T07:08:28.000Z</Time>
            <Position>
              <LatitudeDegrees>42.78689299710094928741455078125</LatitudeDegrees>
              <LongitudeDegrees>-0.16548165120184421539306640625</LongitudeDegrees>
            </Position>
            <AltitudeMeters>2335.39990234375</AltitudeMeters>
            <DistanceMeters>26281.165859357</DistanceMeters>
          </Trackpoint>
          <Trackpoint>
            <Time>2022-07-10T07:08:29.000Z</Time>
            <Position>
              <LatitudeDegrees>42.78687648475170135498046875</LatitudeDegrees>
              <LongitudeDegrees>-0.1654961518943309783935546875</LongitudeDegrees>
            </Position>
            <AltitudeMeters>2335.199951171875</AltitudeMeters>
            <DistanceMeters>26283.351473787</DistanceMeters>
          </Trackpoint>
          <Trackpoint>
            <Time>2022-07-10T07:08:34.000Z</Time>
            <Position>
              <LatitudeDegrees>42.786820828914642333984375</LatitudeDegrees>
              <LongitudeDegrees>-0.16555105336010456085205078125</LongitudeDegrees>
            </Position>
            <AltitudeMeters>2334.39990234375</AltitudeMeters>
            <DistanceMeters>26290.998615414</DistanceMeters>
          </Trackpoint>
          <Trackpoint>
            <Time>2022-07-10T07:08:38.000Z</Time>
            <Position>
              <LatitudeDegrees>42.7868089266121387481689453125</LatitudeDegrees>
              <LongitudeDegrees>-0.16557745635509490966796875</LongitudeDegrees>
            </Position>
            <AltitudeMeters>2334</AltitudeMeters>
            <DistanceMeters>26293.530680633</DistanceMeters>
          </Trackpoint>
          <Trackpoint>
            <Time>2022-07-10T07:08:42.000Z</Time>
            <Position>
              <LatitudeDegrees>42.786793000996112823486328125</LatitudeDegrees>
              <LongitudeDegrees>-0.16558491624891757965087890625</LongitudeDegrees>
            </Position>
            <AltitudeMeters>2333.60009765625</AltitudeMeters>
            <DistanceMeters>26295.4049004</DistanceMeters>
          </Trackpoint>
          <Trackpoint>
            <Time>2022-07-10T07:08:48.000Z</Time>
            <Position>
              <LatitudeDegrees>42.786795012652873992919921875</LatitudeDegrees>
              <LongitudeDegrees>-0.1655906997621059417724609375</LongitudeDegrees>
            </Position>
            <AltitudeMeters>2333.199951171875</AltitudeMeters>
            <DistanceMeters>26295.925383151</DistanceMeters>
          </Trackpoint>
          <Trackpoint>
            <Time>2022-07-10T07:08:49.000Z</Time>
            <Position>
              <LatitudeDegrees>42.7867926657199859619140625</LatitudeDegrees>
              <LongitudeDegrees>-0.16558977775275707244873046875</LongitudeDegrees>
            </Position>
            <AltitudeMeters>2333.199951171875</AltitudeMeters>
            <DistanceMeters>26296.194159287</DistanceMeters>
          </Trackpoint>
          <Trackpoint>
            <Time>2022-07-10T07:08:51.000Z</Time>
            <Position>
              <LatitudeDegrees>42.78678906150162220001220703125</LatitudeDegrees>
              <LongitudeDegrees>-0.16557770781219005584716796875</LongitudeDegrees>
            </Position>
            <AltitudeMeters>2333</AltitudeMeters>
            <DistanceMeters>26297.26083151</DistanceMeters>
          </Trackpoint>
          <Trackpoint>
            <Time>2022-07-10T07:08:53.000Z</Time>
            <Position>
              <LatitudeDegrees>42.78677833266556262969970703125</LatitudeDegrees>
              <LongitudeDegrees>-0.16555809415876865386962890625</LongitudeDegrees>
            </Position>
            <AltitudeMeters>2333</AltitudeMeters>
            <DistanceMeters>26299.258653772</DistanceMeters>
          </Trackpoint>
          <Trackpoint>
            <Time>2022-07-10T07:08:58.000Z</Time>
            <Position>
              <LatitudeDegrees>42.78672150336205959320068359375</LatitudeDegrees>
              <LongitudeDegrees>-0.16550763510167598724365234375</LongitudeDegrees>
            </Position>
            <AltitudeMeters>2332.800048828125</AltitudeMeters>
            <DistanceMeters>26306.807747256</DistanceMeters>
          </Trackpoint>
          <Trackpoint>
            <Time>2022-07-10T07:09:04.000Z</Time>
            <Position>
              <LatitudeDegrees>42.78672468848526477813720703125</LatitudeDegrees>
              <LongitudeDegrees>-0.1655414141714572906494140625</LongitudeDegrees>
            </Position>
            <AltitudeMeters>2332.800048828125</AltitudeMeters>
            <DistanceMeters>26309.58961273</DistanceMeters>
          </Trackpoint>
          <Trackpoint>
            <Time>2022-07-10T07:09:05.000Z</Time>
            <Position>
              <LatitudeDegrees>42.78672183863818645477294921875</LatitudeDegrees>
              <LongitudeDegrees>-0.16555625014007091522216796875</LongitudeDegrees>
            </Position>
            <AltitudeMeters>2332.60009765625</AltitudeMeters>
            <DistanceMeters>26310.843101183</DistanceMeters>
          </Trackpoint>
          <Trackpoint>
            <Time>2022-07-10T07:09:06.000Z</Time>
            <Position>
              <LatitudeDegrees>42.786718904972076416015625</LatitudeDegrees>
              <LongitudeDegrees>-0.165567733347415924072265625</LongitudeDegrees>
            </Position>
            <AltitudeMeters>2332.39990234375</AltitudeMeters>
            <DistanceMeters>26311.830647767</DistanceMeters>
          </Trackpoint>
          <Trackpoint>
            <Time>2022-07-10T07:09:10.000Z</Time>
            <Position>
              <LatitudeDegrees>42.7867096848785877227783203125</LatitudeDegrees>
              <LongitudeDegrees>-0.165613330900669097900390625</LongitudeDegrees>
            </Position>
            <AltitudeMeters>2331.800048828125</AltitudeMeters>
            <DistanceMeters>26315.694158652</DistanceMeters>
          </Trackpoint>
          <Trackpoint>
            <Time>2022-07-10T07:09:12.000Z</Time>
            <Position>
              <LatitudeDegrees>42.786690406501293182373046875</LatitudeDegrees>
              <LongitudeDegrees>-0.16563889570534229278564453125</LongitudeDegrees>
            </Position>
            <AltitudeMeters>2331.800048828125</AltitudeMeters>
            <DistanceMeters>26318.688631212</DistanceMeters>
          </Trackpoint>
          <Trackpoint>
            <Time>2022-07-10T07:09:16.000Z</Time>
            <Position>
              <LatitudeDegrees>42.78666769154369831085205078125</LatitudeDegrees>
              <LongitudeDegrees>-0.16567108221352100372314453125</LongitudeDegrees>
            </Position>
            <AltitudeMeters>2330.800048828125</AltitudeMeters>
            <DistanceMeters>26322.335726302</DistanceMeters>
          </Trackpoint>
          <Trackpoint>
            <Time>2022-07-10T07:09:20.000Z</Time>
            <Position>
              <LatitudeDegrees>42.78664170764386653900146484375</LatitudeDegrees>
              <LongitudeDegrees>-0.16564459539949893951416015625</LongitudeDegrees>
            </Position>
            <AltitudeMeters>2330.39990234375</AltitudeMeters>
            <DistanceMeters>26325.946741449</DistanceMeters>
          </Trackpoint>
          <Trackpoint>
            <Time>2022-07-10T07:09:26.000Z</Time>
            <Position>
              <LatitudeDegrees>42.78656291775405406951904296875</LatitudeDegrees>
              <LongitudeDegrees>-0.16564560122787952423095703125</LongitudeDegrees>
            </Position>
            <AltitudeMeters>2330.199951171875</AltitudeMeters>
            <DistanceMeters>26334.71652828</DistanceMeters>
          </Trackpoint>
          <Trackpoint>
            <Time>2022-07-10T07:09:30.000Z</Time>
            <Position>
              <LatitudeDegrees>42.7865909971296787261962890625</LatitudeDegrees>
              <LongitudeDegrees>-0.1656423322856426239013671875</LongitudeDegrees>
            </Position>
            <AltitudeMeters>2330.39990234375</AltitudeMeters>
            <DistanceMeters>26337.853849323</DistanceMeters>
          </Trackpoint>
          <Trackpoint>
            <Time>2022-07-10T07:09:36.000Z</Time>
            <Position>
              <LatitudeDegrees>42.7866681106388568878173828125</LatitudeDegrees>
              <LongitudeDegrees>-0.1656500436365604400634765625</LongitudeDegrees>
            </Position>
            <AltitudeMeters>2330.39990234375</AltitudeMeters>
            <DistanceMeters>26346.459933624</DistanceMeters>
          </Trackpoint>
          <Trackpoint>
            <Time>2022-07-10T07:09:38.000Z</Time>
            <Position>
              <LatitudeDegrees>42.78665092773735523223876953125</LatitudeDegrees>
              <LongitudeDegrees>-0.16567527316510677337646484375</LongitudeDegrees>
            </Position>
            <AltitudeMeters>2330</AltitudeMeters>
            <DistanceMeters>26349.272467528</DistanceMeters>
          </Trackpoint>
          <Trackpoint>
            <Time>2022-07-10T07:09:39.000Z</Time>
            <Position>
              <LatitudeDegrees>42.78664019890129566192626953125</LatitudeDegrees>
              <LongitudeDegrees>-0.16568985767662525177001953125</LongitudeDegrees>
            </Position>
            <AltitudeMeters>2329.800048828125</AltitudeMeters>
            <DistanceMeters>26350.961699353</DistanceMeters>
          </Trackpoint>
          <Trackpoint>
            <Time>2022-07-10T07:09:44.000Z</Time>
            <Position>
              <LatitudeDegrees>42.7866137959063053131103515625</LatitudeDegrees>
              <LongitudeDegrees>-0.16573579050600528717041015625</LongitudeDegrees>
            </Position>
            <AltitudeMeters>2328.800048828125</AltitudeMeters>
            <DistanceMeters>26355.728215096</DistanceMeters>
          </Trackpoint>
          <Trackpoint>
            <Time>2022-07-10T07:09:45.000Z</Time>
            <Position>
              <LatitudeDegrees>42.78660968877375125885009765625</LatitudeDegrees>
              <LongitudeDegrees>-0.1657430827617645263671875</LongitudeDegrees>
            </Position>
            <AltitudeMeters>2328.800048828125</AltitudeMeters>
            <DistanceMeters>26356.476456193</DistanceMeters>
          </Trackpoint>
          <Trackpoint>
            <Time>2022-07-10T07:09:47.000Z</Time>
            <Position>
              <LatitudeDegrees>42.78659845702350139617919921875</LatitudeDegrees>
              <LongitudeDegrees>-0.1657489500939846038818359375</LongitudeDegrees>
            </Position>
            <AltitudeMeters>2328.39990234375</AltitudeMeters>
            <DistanceMeters>26357.813600589</DistanceMeters>
          </Trackpoint>
          <Trackpoint>
            <Time>2022-07-10T07:09:50.000Z</Time>
            <Position>
              <LatitudeDegrees>42.78658521361649036407470703125</LatitudeDegrees>
              <LongitudeDegrees>-0.1657590083777904510498046875</LongitudeDegrees>
            </Position>
            <AltitudeMeters>2327.60009765625</AltitudeMeters>
            <DistanceMeters>26359.502832414</DistanceMeters>
          </Trackpoint>
          <Trackpoint>
            <Time>2022-07-10T07:09:52.000Z</Time>
            <Position>
              <LatitudeDegrees>42.78657280839979648590087890625</LatitudeDegrees>
              <LongitudeDegrees>-0.16577015630900859832763671875</LongitudeDegrees>
            </Position>
            <AltitudeMeters>2327.199951171875</AltitudeMeters>
            <DistanceMeters>26361.154220644</DistanceMeters>
          </Trackpoint>
          <Trackpoint>
            <Time>2022-07-10T07:09:55.000Z</Time>
            <Position>
              <LatitudeDegrees>42.78653978370130062103271484375</LatitudeDegrees>
              <LongitudeDegrees>-0.1657938770949840545654296875</LongitudeDegrees>
            </Position>
            <AltitudeMeters>2326.60009765625</AltitudeMeters>
            <DistanceMeters>26365.309398878</DistanceMeters>
          </Trackpoint>
          <Trackpoint>
            <Time>2022-07-10T07:09:58.000Z</Time>
            <Position>
              <LatitudeDegrees>42.78650424443185329437255859375</LatitudeDegrees>
              <LongitudeDegrees>-0.1658116467297077178955078125</LongitudeDegrees>
            </Position>
            <AltitudeMeters>2325.60009765625</AltitudeMeters>
            <DistanceMeters>26369.521773531</DistanceMeters>
          </Trackpoint>
          <Trackpoint>
            <Time>2022-07-10T07:09:59.000Z</Time>
            <Position>
              <LatitudeDegrees>42.78649234212934970855712890625</LatitudeDegrees>
              <LongitudeDegrees>-0.1658163405954837799072265625</LongitudeDegrees>
            </Position>
            <AltitudeMeters>2325.60009765625</AltitudeMeters>
            <DistanceMeters>26370.898841449</DistanceMeters>
          </Trackpoint>
          <Trackpoint>
            <Time>2022-07-10T07:10:01.000Z</Time>
            <Position>
              <LatitudeDegrees>42.78646937571465969085693359375</LatitudeDegrees>
              <LongitudeDegrees>-0.1658304221928119659423828125</LongitudeDegrees>
            </Position>
            <AltitudeMeters>2325.39990234375</AltitudeMeters>
            <DistanceMeters>26373.701726839</DistanceMeters>
          </Trackpoint>
          <Trackpoint>
            <Time>2022-07-10T07:10:06.000Z</Time>
            <Position>
              <LatitudeDegrees>42.78643014840781688690185546875</LatitudeDegrees>
              <LongitudeDegrees>-0.1658518798649311065673828125</LongitudeDegrees>
            </Position>
            <AltitudeMeters>2325</AltitudeMeters>
            <DistanceMeters>26378.406269044</DistanceMeters>
          </Trackpoint>
          <Trackpoint>
            <Time>2022-07-10T07:10:08.000Z</Time>
            <Position>
              <LatitudeDegrees>42.78641841374337673187255859375</LatitudeDegrees>
              <LongitudeDegrees>-0.16586311161518096923828125</LongitudeDegrees>
            </Position>
            <AltitudeMeters>2324.60009765625</AltitudeMeters>
            <DistanceMeters>26379.999207047</DistanceMeters>
          </Trackpoint>
          <Trackpoint>
            <Time>2022-07-10T07:10:11.000Z</Time>
            <Position>
              <LatitudeDegrees>42.78639796189963817596435546875</LatitudeDegrees>
              <LongitudeDegrees>-0.1658813841640949249267578125</LongitudeDegrees>
            </Position>
            <AltitudeMeters>2323.800048828125</AltitudeMeters>
            <DistanceMeters>26382.720358032</DistanceMeters>
          </Trackpoint>
          <Trackpoint>
            <Time>2022-07-10T07:10:13.000Z</Time>
            <Position>
              <LatitudeDegrees>42.786381281912326812744140625</LatitudeDegrees>
              <LongitudeDegrees>-0.1658870838582515716552734375</LongitudeDegrees>
            </Position>
            <AltitudeMeters>2323.60009765625</AltitudeMeters>
            <DistanceMeters>26384.635093272</DistanceMeters>
          </Trackpoint>
          <Trackpoint>
            <Time>2022-07-10T07:10:15.000Z</Time>
            <Position>
              <LatitudeDegrees>42.786376588046550750732421875</LatitudeDegrees>
              <LongitudeDegrees>-0.16588130034506320953369140625</LongitudeDegrees>
            </Position>
            <AltitudeMeters>2323.39990234375</AltitudeMeters>
            <DistanceMeters>26385.339830247</DistanceMeters>
          </Trackpoint>
          <Trackpoint>
            <Time>2022-07-10T07:10:20.000Z</Time>
            <Position>
              <LatitudeDegrees>42.7863740734755992889404296875</LatitudeDegrees>
              <LongitudeDegrees>-0.165925137698650360107421875</LongitudeDegrees>
            </Position>
            <AltitudeMeters>2322.800048828125</AltitudeMeters>
            <DistanceMeters>26388.932041159</DistanceMeters>
          </Trackpoint>
          <Trackpoint>
            <Time>2022-07-10T07:10:21.000Z</Time>
            <Position>
              <LatitudeDegrees>42.78637549839913845062255859375</LatitudeDegrees>
              <LongitudeDegrees>-0.1659460924565792083740234375</LongitudeDegrees>
            </Position>
            <AltitudeMeters>2322.60009765625</AltitudeMeters>
            <DistanceMeters>26390.650422664</DistanceMeters>
          </Trackpoint>
          <Trackpoint>
            <Time>2022-07-10T07:10:23.000Z</Time>
            <Position>
              <LatitudeDegrees>42.78637566603720188140869140625</LatitudeDegrees>
              <LongitudeDegrees>-0.1659688912332057952880859375</LongitudeDegrees>
            </Position>
            <AltitudeMeters>2322.39990234375</AltitudeMeters>
            <DistanceMeters>26392.512558362</DistanceMeters>
          </Trackpoint>
          <Trackpoint>
            <Time>2022-07-10T07:10:26.000Z</Time>
            <Position>
              <LatitudeDegrees>42.78635437600314617156982421875</LatitudeDegrees>
              <LongitudeDegrees>-0.16599646769464015960693359375</LongitudeDegrees>
            </Position>
            <AltitudeMeters>2322</AltitudeMeters>
            <DistanceMeters>26395.782361186</DistanceMeters>
          </Trackpoint>
          <Trackpoint>
            <Time>2022-07-10T07:10:30.000Z</Time>
            <Position>
              <LatitudeDegrees>42.78631162829697132110595703125</LatitudeDegrees>
              <LongitudeDegrees>-0.16604172997176647186279296875</LongitudeDegrees>
            </Position>
            <AltitudeMeters>2321.199951171875</AltitudeMeters>
            <DistanceMeters>26401.808133948</DistanceMeters>
          </Trackpoint>
          <Trackpoint>
            <Time>2022-07-10T07:10:34.000Z</Time>
            <Position>
              <LatitudeDegrees>42.7862540446221828460693359375</LatitudeDegrees>
              <LongitudeDegrees>-0.1660865731537342071533203125</LongitudeDegrees>
            </Position>
            <AltitudeMeters>2320.60009765625</AltitudeMeters>
            <DistanceMeters>26409.190920781</DistanceMeters>
          </Trackpoint>
          <Trackpoint>
            <Time>2022-07-10T07:10:37.000Z</Time>
            <Position>
              <LatitudeDegrees>42.78624306432902812957763671875</LatitudeDegrees>
              <LongitudeDegrees>-0.1660899259150028228759765625</LongitudeDegrees>
            </Position>
            <AltitudeMeters>2320</AltitudeMeters>
            <DistanceMeters>26410.444409233</DistanceMeters>
          </Trackpoint>
          <Trackpoint>
            <Time>2022-07-10T07:10:39.000Z</Time>
            <Position>
              <LatitudeDegrees>42.786253876984119415283203125</LatitudeDegrees>
              <LongitudeDegrees>-0.16607911325991153717041015625</LongitudeDegrees>
            </Position>
            <AltitudeMeters>2319.800048828125</AltitudeMeters>
            <DistanceMeters>26411.93484501</DistanceMeters>
          </Trackpoint>
          <Trackpoint>
            <Time>2022-07-10T07:10:40.000Z</Time>
            <Position>
              <LatitudeDegrees>42.78626619838178157806396484375</LatitudeDegrees>
              <LongitudeDegrees>-0.1660587452352046966552734375</LongitudeDegrees>
            </Position>
            <AltitudeMeters>2319.60009765625</AltitudeMeters>
            <DistanceMeters>26414.089249636</DistanceMeters>
          </Trackpoint>
          <Trackpoint>
            <Time>2022-07-10T07:10:43.000Z</Time>
            <Position>
              <LatitudeDegrees>42.78626167215406894683837890625</LatitudeDegrees>
              <LongitudeDegrees>-0.1660758443176746368408203125</LongitudeDegrees>
            </Position>
            <AltitudeMeters>2319.60009765625</AltitudeMeters>
            <DistanceMeters>26415.573614366</DistanceMeters>
          </Trackpoint>
          <Trackpoint>
            <Time>2022-07-10T07:10:46.000Z</Time>
            <Position>
              <LatitudeDegrees>42.786235101521015167236328125</LatitudeDegrees>
              <LongitudeDegrees>-0.16612437553703784942626953125</LongitudeDegrees>
            </Position>
            <AltitudeMeters>2319.60009765625</AltitudeMeters>
            <DistanceMeters>26420.519569996</DistanceMeters>
          </Trackpoint>
          <Trackpoint>
            <Time>2022-07-10T07:10:51.000Z</Time>
            <Position>
              <LatitudeDegrees>42.78615371324121952056884765625</LatitudeDegrees>
              <LongitudeDegrees>-0.16621355898678302764892578125</LongitudeDegrees>
            </Position>
            <AltitudeMeters>2319</AltitudeMeters>
            <DistanceMeters>26432.143943695</DistanceMeters>
          </Trackpoint>
          <Trackpoint>
            <Time>2022-07-10T07:10:54.000Z</Time>
            <Position>
              <LatitudeDegrees>42.786094285547733306884765625</LatitudeDegrees>
              <LongitudeDegrees>-0.16626619733870029449462890625</LongitudeDegrees>
            </Position>
            <AltitudeMeters>2318.199951171875</AltitudeMeters>
            <DistanceMeters>26440.032878151</DistanceMeters>
          </Trackpoint>
          <Trackpoint>
            <Time>2022-07-10T07:10:55.000Z</Time>
            <Position>
              <LatitudeDegrees>42.7860890887677669525146484375</LatitudeDegrees>
              <LongitudeDegrees>-0.16627541743218898773193359375</LongitudeDegrees>
            </Position>
            <AltitudeMeters>2317.800048828125</AltitudeMeters>
            <DistanceMeters>26440.983145295</DistanceMeters>
          </Trackpoint>
          <Trackpoint>
            <Time>2022-07-10T07:11:01.000Z</Time>
            <Position>
              <LatitudeDegrees>42.78606704436242580413818359375</LatitudeDegrees>
              <LongitudeDegrees>-0.16634448431432247161865234375</LongitudeDegrees>
            </Position>
            <AltitudeMeters>2316.800048828125</AltitudeMeters>
            <DistanceMeters>26447.135712276</DistanceMeters>
          </Trackpoint>
          <Trackpoint>
            <Time>2022-07-10T07:11:05.000Z</Time>
            <Position>
              <LatitudeDegrees>42.78604508377611637115478515625</LatitudeDegrees>
              <LongitudeDegrees>-0.1663910038769245147705078125</LongitudeDegrees>
            </Position>
            <AltitudeMeters>2315.39990234375</AltitudeMeters>
            <DistanceMeters>26451.654230046</DistanceMeters>
          </Trackpoint>
          <Trackpoint>
            <Time>2022-07-10T07:11:09.000Z</Time>
            <Position>
              <LatitudeDegrees>42.7860029228031635284423828125</LatitudeDegrees>
              <LongitudeDegrees>-0.16644171439111232757568359375</LongitudeDegrees>
            </Position>
            <AltitudeMeters>2315</AltitudeMeters>
            <DistanceMeters>26457.914464208</DistanceMeters>
          </Trackpoint>
          <Trackpoint>
            <Time>2022-07-10T07:11:12.000Z</Time>
            <Position>
              <LatitudeDegrees>42.78597534634172916412353515625</LatitudeDegrees>
              <LongitudeDegrees>-0.166460573673248291015625</LongitudeDegrees>
            </Position>
            <AltitudeMeters>2314.39990234375</AltitudeMeters>
            <DistanceMeters>26461.351227219</DistanceMeters>
          </Trackpoint>
          <Trackpoint>
            <Time>2022-07-10T07:11:13.000Z</Time>
            <Position>
              <LatitudeDegrees>42.78596210293471813201904296875</LatitudeDegrees>
              <LongitudeDegrees>-0.16646652482450008392333984375</LongitudeDegrees>
            </Position>
            <AltitudeMeters>2314</AltitudeMeters>
            <DistanceMeters>26462.903976526</DistanceMeters>
          </Trackpoint>
          <Trackpoint>
            <Time>2022-07-10T07:11:17.000Z</Time>
            <Position>
              <LatitudeDegrees>42.7859090454876422882080078125</LatitudeDegrees>
              <LongitudeDegrees>-0.16650089062750339508056640625</LongitudeDegrees>
            </Position>
            <AltitudeMeters>2313.39990234375</AltitudeMeters>
            <DistanceMeters>26469.442201199</DistanceMeters>
          </Trackpoint>
          <Trackpoint>
            <Time>2022-07-10T07:11:19.000Z</Time>
            <Position>
              <LatitudeDegrees>42.7858926169574260711669921875</LatitudeDegrees>
              <LongitudeDegrees>-0.16651564277708530426025390625</LongitudeDegrees>
            </Position>
            <AltitudeMeters>2313.199951171875</AltitudeMeters>
            <DistanceMeters>26471.631943329</DistanceMeters>
          </Trackpoint>
          <Trackpoint>
            <Time>2022-07-10T07:11:21.000Z</Time>
            <Position>
              <LatitudeDegrees>42.78587610460817813873291015625</LatitudeDegrees>
              <LongitudeDegrees>-0.16653324477374553680419921875</LongitudeDegrees>
            </Position>
            <AltitudeMeters>2313</AltitudeMeters>
            <DistanceMeters>26473.965424868</DistanceMeters>
          </Trackpoint>
          <Trackpoint>
            <Time>2022-07-10T07:11:23.000Z</Time>
            <Position>
              <LatitudeDegrees>42.785864286124706268310546875</LatitudeDegrees>
              <LongitudeDegrees>-0.1665536127984523773193359375</LongitudeDegrees>
            </Position>
            <AltitudeMeters>2312.60009765625</AltitudeMeters>
            <DistanceMeters>26476.086032816</DistanceMeters>
          </Trackpoint>
          <Trackpoint>
            <Time>2022-07-10T07:11:24.000Z</Time>
            <Position>
              <LatitudeDegrees>42.785859592258930206298828125</LatitudeDegrees>
              <LongitudeDegrees>-0.16656107269227504730224609375</LongitudeDegrees>
            </Position>
            <AltitudeMeters>2312.199951171875</AltitudeMeters>
            <DistanceMeters>26476.886742144</DistanceMeters>
          </Trackpoint>
          <Trackpoint>
            <Time>2022-07-10T07:11:27.000Z</Time>
            <Position>
              <LatitudeDegrees>42.78585297055542469024658203125</LatitudeDegrees>
              <LongitudeDegrees>-0.16658135689795017242431640625</LongitudeDegrees>
            </Position>
            <AltitudeMeters>2312</AltitudeMeters>
            <DistanceMeters>26478.699736304</DistanceMeters>
          </Trackpoint>
          <Trackpoint>
            <Time>2022-07-10T07:11:28.000Z</Time>
            <Position>
              <LatitudeDegrees>42.78584609739482402801513671875</LatitudeDegrees>
              <LongitudeDegrees>-0.1665911637246608734130859375</LongitudeDegrees>
            </Position>
            <AltitudeMeters>2311.800048828125</AltitudeMeters>
            <DistanceMeters>26479.811995479</DistanceMeters>
          </Trackpoint>
          <Trackpoint>
            <Time>2022-07-10T07:11:31.000Z</Time>
            <Position>
              <LatitudeDegrees>42.785826064646244049072265625</LatitudeDegrees>
              <LongitudeDegrees>-0.1666287146508693695068359375</LongitudeDegrees>
            </Position>
            <AltitudeMeters>2312</AltitudeMeters>
            <DistanceMeters>26483.605930357</DistanceMeters>
          </Trackpoint>
          <Trackpoint>
            <Time>2022-07-10T07:11:35.000Z</Time>
            <Position>
              <LatitudeDegrees>42.7857922017574310302734375</LatitudeDegrees>
              <LongitudeDegrees>-0.16669250093400478363037109375</LongitudeDegrees>
            </Position>
            <AltitudeMeters>2311.39990234375</AltitudeMeters>
            <DistanceMeters>26490.03692951</DistanceMeters>
          </Trackpoint>
          <Trackpoint>
            <Time>2022-07-10T07:11:36.000Z</Time>
            <Position>
              <LatitudeDegrees>42.78578541241586208343505859375</LatitudeDegrees>
              <LongitudeDegrees>-0.16670105047523975372314453125</LongitudeDegrees>
            </Position>
            <AltitudeMeters>2311.199951171875</AltitudeMeters>
            <DistanceMeters>26491.069183849</DistanceMeters>
          </Trackpoint>
          <Trackpoint>
            <Time>2022-07-10T07:11:37.000Z</Time>
            <Position>
              <LatitudeDegrees>42.78577988035976886749267578125</LatitudeDegrees>
              <LongitudeDegrees>-0.16670792363584041595458984375</LongitudeDegrees>
            </Position>
            <AltitudeMeters>2311</AltitudeMeters>
            <DistanceMeters>26491.903039884</DistanceMeters>
          </Trackpoint>
          <Trackpoint>
            <Time>2022-07-10T07:11:42.000Z</Time>
            <Position>
              <LatitudeDegrees>42.78574534691870212554931640625</LatitudeDegrees>
              <LongitudeDegrees>-0.16671898774802684783935546875</LongitudeDegrees>
            </Position>
            <AltitudeMeters>2310</AltitudeMeters>
            <DistanceMeters>26495.850939571</DistanceMeters>
          </Trackpoint>
          <Trackpoint>
            <Time>2022-07-10T07:11:43.000Z</Time>
            <Position>
              <LatitudeDegrees>42.78573880903422832489013671875</LatitudeDegrees>
              <LongitudeDegrees>-0.16671379096806049346923828125</LongitudeDegrees>
            </Position>
            <AltitudeMeters>2309.60009765625</AltitudeMeters>
            <DistanceMeters>26496.690192788</DistanceMeters>
          </Trackpoint>
          <Trackpoint>
            <Time>2022-07-10T07:11:44.000Z</Time>
            <Position>
              <LatitudeDegrees>42.78573528863489627838134765625</LatitudeDegrees>
              <LongitudeDegrees>-0.16670842655003070831298828125</LongitudeDegrees>
            </Position>
            <AltitudeMeters>2309.39990234375</AltitudeMeters>
            <DistanceMeters>26497.275976797</DistanceMeters>
          </Trackpoint>
          <Trackpoint>
            <Time>2022-07-10T07:11:47.000Z</Time>
            <Position>
              <LatitudeDegrees>42.785702012479305267333984375</LatitudeDegrees>
              <LongitudeDegrees>-0.16671278513967990875244140625</LongitudeDegrees>
            </Position>
            <AltitudeMeters>2308.800048828125</AltitudeMeters>
            <DistanceMeters>26500.995395718</DistanceMeters>
          </Trackpoint>
          <Trackpoint>
            <Time>2022-07-10T07:11:49.000Z</Time>
            <Position>
              <LatitudeDegrees>42.78567376546561717987060546875</LatitudeDegrees>
              <LongitudeDegrees>-0.16673340462148189544677734375</LongitudeDegrees>
            </Position>
            <AltitudeMeters>2308.39990234375</AltitudeMeters>
            <DistanceMeters>26504.562380118</DistanceMeters>
          </Trackpoint>
          <Trackpoint>
            <Time>2022-07-10T07:11:50.000Z</Time>
            <Position>
              <LatitudeDegrees>42.78566270135343074798583984375</LatitudeDegrees>
              <LongitudeDegrees>-0.16673860140144824981689453125</LongitudeDegrees>
            </Position>
            <AltitudeMeters>2308.39990234375</AltitudeMeters>
            <DistanceMeters>26505.865320781</DistanceMeters>
          </Trackpoint>
          <Trackpoint>
            <Time>2022-07-10T07:11:54.000Z</Time>
            <Position>
              <LatitudeDegrees>42.78559966944158077239990234375</LatitudeDegrees>
              <LongitudeDegrees>-0.1667752303183078765869140625</LongitudeDegrees>
            </Position>
            <AltitudeMeters>2307.60009765625</AltitudeMeters>
            <DistanceMeters>26513.492361653</DistanceMeters>
          </Trackpoint>
          <Trackpoint>
            <Time>2022-07-10T07:11:57.000Z</Time>
            <Position>
              <LatitudeDegrees>42.78555147349834442138671875</LatitudeDegrees>
              <LongitudeDegrees>-0.1667826063930988311767578125</LongitudeDegrees>
            </Position>
            <AltitudeMeters>2307.39990234375</AltitudeMeters>
            <DistanceMeters>26518.890514733</DistanceMeters>
          </Trackpoint>
          <Trackpoint>
            <Time>2022-07-10T07:11:58.000Z</Time>
            <Position>
              <LatitudeDegrees>42.78554116375744342803955078125</LatitudeDegrees>
              <LongitudeDegrees>-0.1667822711169719696044921875</LongitudeDegrees>
            </Position>
            <AltitudeMeters>2307.39990234375</AltitudeMeters>
            <DistanceMeters>26520.042652415</DistanceMeters>
          </Trackpoint>
          <Trackpoint>
            <Time>2022-07-10T07:12:00.000Z</Time>
            <Position>
              <LatitudeDegrees>42.78551517985761165618896484375</LatitudeDegrees>
              <LongitudeDegrees>-0.16678713262081146240234375</LongitudeDegrees>
            </Position>
            <AltitudeMeters>2307.199951171875</AltitudeMeters>
            <DistanceMeters>26522.962308587</DistanceMeters>
          </Trackpoint>
          <Trackpoint>
            <Time>2022-07-10T07:12:02.000Z</Time>
            <Position>
              <LatitudeDegrees>42.78548785485327243804931640625</LatitudeDegrees>
              <LongitudeDegrees>-0.1668064109981060028076171875</LongitudeDegrees>
            </Position>
            <AltitudeMeters>2307</AltitudeMeters>
            <DistanceMeters>26526.388545499</DistanceMeters>
          </Trackpoint>
          <Trackpoint>
            <Time>2022-07-10T07:12:07.000Z</Time>
            <Position>
              <LatitudeDegrees>42.78543077409267425537109375</LatitudeDegrees>
              <LongitudeDegrees>-0.1668295450508594512939453125</LongitudeDegrees>
            </Position>
            <AltitudeMeters>2307</AltitudeMeters>
            <DistanceMeters>26533.015935017</DistanceMeters>
          </Trackpoint>
          <Trackpoint>
            <Time>2022-07-10T07:12:10.000Z</Time>
            <Position>
              <LatitudeDegrees>42.7854031138122081756591796875</LatitudeDegrees>
              <LongitudeDegrees>-0.16684019006788730621337890625</LongitudeDegrees>
            </Position>
            <AltitudeMeters>2306.60009765625</AltitudeMeters>
            <DistanceMeters>26536.214540434</DistanceMeters>
          </Trackpoint>
          <Trackpoint>
            <Time>2022-07-10T07:12:11.000Z</Time>
            <Position>
              <LatitudeDegrees>42.78540085069835186004638671875</LatitudeDegrees>
              <LongitudeDegrees>-0.16683583147823810577392578125</LongitudeDegrees>
            </Position>
            <AltitudeMeters>2306.39990234375</AltitudeMeters>
            <DistanceMeters>26536.650007545</DistanceMeters>
          </Trackpoint>
          <Trackpoint>
            <Time>2022-07-10T07:12:12.000Z</Time>
            <Position>
              <LatitudeDegrees>42.785396911203861236572265625</LatitudeDegrees>
              <LongitudeDegrees>-0.1668369211256504058837890625</LongitudeDegrees>
            </Position>
            <AltitudeMeters>2306.39990234375</AltitudeMeters>
            <DistanceMeters>26537.105739658</DistanceMeters>
          </Trackpoint>
          <Trackpoint>
            <Time>2022-07-10T07:12:14.000Z</Time>
            <Position>
              <LatitudeDegrees>42.785386182367801666259765625</LatitudeDegrees>
              <LongitudeDegrees>-0.1668439619243144989013671875</LongitudeDegrees>
            </Position>
            <AltitudeMeters>2306.199951171875</AltitudeMeters>
            <DistanceMeters>26538.436113659</DistanceMeters>
          </Trackpoint>
          <Trackpoint>
            <Time>2022-07-10T07:12:16.000Z</Time>
            <Position>
              <LatitudeDegrees>42.78536916710436344146728515625</LatitudeDegrees>
              <LongitudeDegrees>-0.166863910853862762451171875</LongitudeDegrees>
            </Position>
            <AltitudeMeters>2306.199951171875</AltitudeMeters>
            <DistanceMeters>26540.935876227</DistanceMeters>
          </Trackpoint>
          <Trackpoint>
            <Time>2022-07-10T07:12:17.000Z</Time>
            <Position>
              <LatitudeDegrees>42.78535835444927215576171875</LatitudeDegrees>
              <LongitudeDegrees>-0.16687170602381229400634765625</LongitudeDegrees>
            </Position>
            <AltitudeMeters>2306</AltitudeMeters>
            <DistanceMeters>26542.29976616</DistanceMeters>
          </Trackpoint>
          <Trackpoint>
            <Time>2022-07-10T07:12:21.000Z</Time>
            <Position>
              <LatitudeDegrees>42.7853182889521121978759765625</LatitudeDegrees>
              <LongitudeDegrees>-0.16689484007656574249267578125</LongitudeDegrees>
            </Position>
            <AltitudeMeters>2306.60009765625</AltitudeMeters>
            <DistanceMeters>26547.142400621</DistanceMeters>
          </Trackpoint>
          <Trackpoint>
            <Time>2022-07-10T07:12:22.000Z</Time>
            <Position>
              <LatitudeDegrees>42.7853122539818286895751953125</LatitudeDegrees>
              <LongitudeDegrees>-0.16689266078174114227294921875</LongitudeDegrees>
            </Position>
            <AltitudeMeters>2306.60009765625</AltitudeMeters>
            <DistanceMeters>26547.840701507</DistanceMeters>
          </Trackpoint>
          <Trackpoint>
            <Time>2022-07-10T07:12:28.000Z</Time>
            <Position>
              <LatitudeDegrees>42.785246372222900390625</LatitudeDegrees>
              <LongitudeDegrees>-0.1669066585600376129150390625</LongitudeDegrees>
            </Position>
            <AltitudeMeters>2306.60009765625</AltitudeMeters>
            <DistanceMeters>26555.261916787</DistanceMeters>
          </Trackpoint>
          <Trackpoint>
            <Time>2022-07-10T07:12:29.000Z</Time>
            <Position>
              <LatitudeDegrees>42.78523094952106475830078125</LatitudeDegrees>
              <LongitudeDegrees>-0.16691210679709911346435546875</LongitudeDegrees>
            </Position>
            <AltitudeMeters>2306.60009765625</AltitudeMeters>
            <DistanceMeters>26557.034617158</DistanceMeters>
          </Trackpoint>
          <Trackpoint>
            <Time>2022-07-10T07:12:35.000Z</Time>
            <Position>
              <LatitudeDegrees>42.78513933531939983367919921875</LatitudeDegrees>
              <LongitudeDegrees>-0.16691361553966999053955078125</LongitudeDegrees>
            </Position>
            <AltitudeMeters>2306.800048828125</AltitudeMeters>
            <DistanceMeters>26567.23218355</DistanceMeters>
          </Trackpoint>
          <Trackpoint>
            <Time>2022-07-10T07:12:37.000Z</Time>
            <Position>
              <LatitudeDegrees>42.7851127646863460540771484375</LatitudeDegrees>
              <LongitudeDegrees>-0.16691395081579685211181640625</LongitudeDegrees>
            </Position>
            <AltitudeMeters>2307</AltitudeMeters>
            <DistanceMeters>26570.188721051</DistanceMeters>
          </Trackpoint>
          <Trackpoint>
            <Time>2022-07-10T07:12:41.000Z</Time>
            <Position>
              <LatitudeDegrees>42.78506406582891941070556640625</LatitudeDegrees>
              <LongitudeDegrees>-0.16693674959242343902587890625</LongitudeDegrees>
            </Position>
            <AltitudeMeters>2307.60009765625</AltitudeMeters>
            <DistanceMeters>26575.920336714</DistanceMeters>
          </Trackpoint>
          <Trackpoint>
            <Time>2022-07-10T07:12:44.000Z</Time>
            <Position>
              <LatitudeDegrees>42.78503690846264362335205078125</LatitudeDegrees>
              <LongitudeDegrees>-0.16697010956704616546630859375</LongitudeDegrees>
            </Position>
            <AltitudeMeters>2308</AltitudeMeters>
            <DistanceMeters>26579.989877253</DistanceMeters>
          </Trackpoint>
          <Trackpoint>
            <Time>2022-07-10T07:12:50.000Z</Time>
            <Position>
              <LatitudeDegrees>42.78501310385763645172119140625</LatitudeDegrees>
              <LongitudeDegrees>-0.16703180037438869476318359375</LongitudeDegrees>
            </Position>
            <AltitudeMeters>2308.39990234375</AltitudeMeters>
            <DistanceMeters>26585.682762669</DistanceMeters>
          </Trackpoint>
          <Trackpoint>
            <Time>2022-07-10T07:12:52.000Z</Time>
            <Position>
              <LatitudeDegrees>42.78500505723059177398681640625</LatitudeDegrees>
              <LongitudeDegrees>-0.16705845482647418975830078125</LongitudeDegrees>
            </Position>
            <AltitudeMeters>2308.60009765625</AltitudeMeters>
            <DistanceMeters>26588.037431847</DistanceMeters>
          </Trackpoint>
          <Trackpoint>
            <Time>2022-07-10T07:12:55.000Z</Time>
            <Position>
              <LatitudeDegrees>42.7850084938108921051025390625</LatitudeDegrees>
              <LongitudeDegrees>-0.167118050158023834228515625</LongitudeDegrees>
            </Position>
            <AltitudeMeters>2308.800048828125</AltitudeMeters>
            <DistanceMeters>26592.919992836</DistanceMeters>
          </Trackpoint>
          <Trackpoint>
            <Time>2022-07-10T07:12:57.000Z</Time>
            <Position>
              <LatitudeDegrees>42.78500497341156005859375</LatitudeDegrees>
              <LongitudeDegrees>-0.167136155068874359130859375</LongitudeDegrees>
            </Position>
            <AltitudeMeters>2308.800048828125</AltitudeMeters>
            <DistanceMeters>26594.449303072</DistanceMeters>
          </Trackpoint>
          <Trackpoint>
            <Time>2022-07-10T07:13:01.000Z</Time>
            <Position>
              <LatitudeDegrees>42.78499801643192768096923828125</LatitudeDegrees>
              <LongitudeDegrees>-0.1671524159610271453857421875</LongitudeDegrees>
            </Position>
            <AltitudeMeters>2309</AltitudeMeters>
            <DistanceMeters>26595.987444817</DistanceMeters>
          </Trackpoint>
          <Trackpoint>
            <Time>2022-07-10T07:13:02.000Z</Time>
            <Position>
              <LatitudeDegrees>42.7849970944225788116455078125</LatitudeDegrees>
              <LongitudeDegrees>-0.16716205514967441558837890625</LongitudeDegrees>
            </Position>
            <AltitudeMeters>2309</AltitudeMeters>
            <DistanceMeters>26596.771055178</DistanceMeters>
          </Trackpoint>
          <Trackpoint>
            <Time>2022-07-10T07:13:03.000Z</Time>
            <Position>
              <LatitudeDegrees>42.7849970944225788116455078125</LatitudeDegrees>
              <LongitudeDegrees>-0.16717278398573398590087890625</LongitudeDegrees>
            </Position>
            <AltitudeMeters>2309</AltitudeMeters>
            <DistanceMeters>26597.641989402</DistanceMeters>
          </Trackpoint>
          <Trackpoint>
            <Time>2022-07-10T07:13:09.000Z</Time>
            <Position>
              <LatitudeDegrees>42.78500488959252834320068359375</LatitudeDegrees>
              <LongitudeDegrees>-0.16720128245651721954345703125</LongitudeDegrees>
            </Position>
            <AltitudeMeters>2309</AltitudeMeters>
            <DistanceMeters>26600.127260471</DistanceMeters>
          </Trackpoint>
          <Trackpoint>
            <Time>2022-07-10T07:13:10.000Z</Time>
            <Position>
              <LatitudeDegrees>42.78500388376414775848388671875</LatitudeDegrees>
              <LongitudeDegrees>-0.16720497049391269683837890625</LongitudeDegrees>
            </Position>
            <AltitudeMeters>2308.800048828125</AltitudeMeters>
            <DistanceMeters>26600.456442666</DistanceMeters>
          </Trackpoint>
          <Trackpoint>
            <Time>2022-07-10T07:13:16.000Z</Time>
            <Position>
              <LatitudeDegrees>42.78498829342424869537353515625</LatitudeDegrees>
              <LongitudeDegrees>-0.16722173430025577545166015625</LongitudeDegrees>
            </Position>
            <AltitudeMeters>2308.60009765625</AltitudeMeters>
            <DistanceMeters>26602.668749478</DistanceMeters>
          </Trackpoint>
          <Trackpoint>
            <Time>2022-07-10T07:13:17.000Z</Time>
            <Position>
              <LatitudeDegrees>42.78498058207333087921142578125</LatitudeDegrees>
              <LongitudeDegrees>-0.1672228239476680755615234375</LongitudeDegrees>
            </Position>
            <AltitudeMeters>2308.60009765625</AltitudeMeters>
            <DistanceMeters>26603.529252975</DistanceMeters>
          </Trackpoint>
          <Trackpoint>
            <Time>2022-07-10T07:13:23.000Z</Time>
            <Position>
              <LatitudeDegrees>42.78496096841990947723388671875</LatitudeDegrees>
              <LongitudeDegrees>-0.167228020727634429931640625</LongitudeDegrees>
            </Position>
            <AltitudeMeters>2308</AltitudeMeters>
            <DistanceMeters>26605.753771326</DistanceMeters>
          </Trackpoint>
          <Trackpoint>
            <Time>2022-07-10T07:13:29.000Z</Time>
            <Position>
              <LatitudeDegrees>42.7849776484072208404541015625</LatitudeDegrees>
              <LongitudeDegrees>-0.16718946397304534912109375</LongitudeDegrees>
            </Position>
            <AltitudeMeters>2307.800048828125</AltitudeMeters>
            <DistanceMeters>26609.40952202</DistanceMeters>
          </Trackpoint>
          <Trackpoint>
            <Time>2022-07-10T07:13:31.000Z</Time>
            <Position>
              <LatitudeDegrees>42.7849753014743328094482421875</LatitudeDegrees>
              <LongitudeDegrees>-0.16719642095267772674560546875</LongitudeDegrees>
            </Position>
            <AltitudeMeters>2307.60009765625</AltitudeMeters>
            <DistanceMeters>26610.039857933</DistanceMeters>
          </Trackpoint>
          <Trackpoint>
            <Time>2022-07-10T07:13:32.000Z</Time>
            <Position>
              <LatitudeDegrees>42.7849756367504596710205078125</LatitudeDegrees>
              <LongitudeDegrees>-0.1672003604471683502197265625</LongitudeDegrees>
            </Position>
            <AltitudeMeters>2307.60009765625</AltitudeMeters>
            <DistanceMeters>26610.355025889</DistanceMeters>
          </Trackpoint>
          <Trackpoint>
            <Time>2022-07-10T07:13:36.000Z</Time>
            <Position>
              <LatitudeDegrees>42.7849716134369373321533203125</LatitudeDegrees>
              <LongitudeDegrees>-0.167179740965366363525390625</LongitudeDegrees>
            </Position>
            <AltitudeMeters>2307.39990234375</AltitudeMeters>
            <DistanceMeters>26612.096894336</DistanceMeters>
          </Trackpoint>
          <Trackpoint>
            <Time>2022-07-10T07:13:40.000Z</Time>
            <Position>
              <LatitudeDegrees>42.784977816045284271240234375</LatitudeDegrees>
              <LongitudeDegrees>-0.1671923138201236724853515625</LongitudeDegrees>
            </Position>
            <AltitudeMeters>2308</AltitudeMeters>
            <DistanceMeters>26613.332241623</DistanceMeters>
          </Trackpoint>
          <Trackpoint>
            <Time>2022-07-10T07:13:44.000Z</Time>
            <Position>
              <LatitudeDegrees>42.7849954180419445037841796875</LatitudeDegrees>
              <LongitudeDegrees>-0.16717529855668544769287109375</LongitudeDegrees>
            </Position>
            <AltitudeMeters>2308.39990234375</AltitudeMeters>
            <DistanceMeters>26615.734369606</DistanceMeters>
          </Trackpoint>
          <Trackpoint>
            <Time>2022-07-10T07:13:45.000Z</Time>
            <Position>
              <LatitudeDegrees>42.784993909299373626708984375</LatitudeDegrees>
              <LongitudeDegrees>-0.1671785674989223480224609375</LongitudeDegrees>
            </Position>
            <AltitudeMeters>2308.39990234375</AltitudeMeters>
            <DistanceMeters>26616.049537563</DistanceMeters>
          </Trackpoint>
          <Trackpoint>
            <Time>2022-07-10T07:13:49.000Z</Time>
            <Position>
              <LatitudeDegrees>42.7849877066910266876220703125</LatitudeDegrees>
              <LongitudeDegrees>-0.16718787141144275665283203125</LongitudeDegrees>
            </Position>
            <AltitudeMeters>2307.60009765625</AltitudeMeters>
            <DistanceMeters>26617.077408636</DistanceMeters>
          </Trackpoint>
          <Trackpoint>
            <Time>2022-07-10T07:13:52.000Z</Time>
            <Position>
              <LatitudeDegrees>42.7849903889000415802001953125</LatitudeDegrees>
              <LongitudeDegrees>-0.16719524748623371124267578125</LongitudeDegrees>
            </Position>
            <AltitudeMeters>2307.39990234375</AltitudeMeters>
            <DistanceMeters>26617.749348978</DistanceMeters>
          </Trackpoint>
          <Trackpoint>
            <Time>2022-07-10T07:13:58.000Z</Time>
            <Position>
              <LatitudeDegrees>42.78500338084995746612548828125</LatitudeDegrees>
              <LongitudeDegrees>-0.16720513813197612762451171875</LongitudeDegrees>
            </Position>
            <AltitudeMeters>2307.199951171875</AltitudeMeters>
            <DistanceMeters>26619.400737208</DistanceMeters>
          </Trackpoint>
          <Trackpoint>
            <Time>2022-07-10T07:14:00.000Z</Time>
            <Position>
              <LatitudeDegrees>42.78499784879386425018310546875</LatitudeDegrees>
              <LongitudeDegrees>-0.167206563055515289306640625</LongitudeDegrees>
            </Position>
            <AltitudeMeters>2307.199951171875</AltitudeMeters>
            <DistanceMeters>26620.031073121</DistanceMeters>
          </Trackpoint>
          <Trackpoint>
            <Time>2022-07-10T07:14:06.000Z</Time>
            <Position>
              <LatitudeDegrees>42.78499449603259563446044921875</LatitudeDegrees>
              <LongitudeDegrees>-0.1672382466495037078857421875</LongitudeDegrees>
            </Position>
            <AltitudeMeters>2307.199951171875</AltitudeMeters>
            <DistanceMeters>26622.645603264</DistanceMeters>
          </Trackpoint>
          <Trackpoint>
            <Time>2022-07-10T07:14:09.000Z</Time>
            <Position>
              <LatitudeDegrees>42.7849875390529632568359375</LatitudeDegrees>
              <LongitudeDegrees>-0.1672342233359813690185546875</LongitudeDegrees>
            </Position>
            <AltitudeMeters>2307</AltitudeMeters>
            <DistanceMeters>26623.484856481</DistanceMeters>
          </Trackpoint>
          <Trackpoint>
            <Time>2022-07-10T07:14:15.000Z</Time>
            <Position>
              <LatitudeDegrees>42.78498225845396518707275390625</LatitudeDegrees>
              <LongitudeDegrees>-0.16717513091862201690673828125</LongitudeDegrees>
            </Position>
            <AltitudeMeters>2306.800048828125</AltitudeMeters>
            <DistanceMeters>26628.347030905</DistanceMeters>
          </Trackpoint>
          <Trackpoint>
            <Time>2022-07-10T07:14:18.000Z</Time>
            <Position>
              <LatitudeDegrees>42.78499566949903964996337890625</LatitudeDegrees>
              <LongitudeDegrees>-0.167206227779388427734375</LongitudeDegrees>
            </Position>
            <AltitudeMeters>2306.800048828125</AltitudeMeters>
            <DistanceMeters>26631.294391341</DistanceMeters>
          </Trackpoint>
          <Trackpoint>
            <Time>2022-07-10T07:14:19.000Z</Time>
            <Position>
              <LatitudeDegrees>42.7849996089935302734375</LatitudeDegrees>
              <LongitudeDegrees>-0.16721896827220916748046875</LongitudeDegrees>
            </Position>
            <AltitudeMeters>2306.800048828125</AltitudeMeters>
            <DistanceMeters>26632.426765332</DistanceMeters>
          </Trackpoint>
          <Trackpoint>
            <Time>2022-07-10T07:14:20.000Z</Time>
            <Position>
              <LatitudeDegrees>42.7850084938108921051025390625</LatitudeDegrees>
              <LongitudeDegrees>-0.1672303676605224609375</LongitudeDegrees>
            </Position>
            <AltitudeMeters>2306.800048828125</AltitudeMeters>
            <DistanceMeters>26633.787340824</DistanceMeters>
          </Trackpoint>
          <Trackpoint>
            <Time>2022-07-10T07:14:25.000Z</Time>
            <Position>
              <LatitudeDegrees>42.785071022808551788330078125</LatitudeDegrees>
              <LongitudeDegrees>-0.16731980256736278533935546875</LongitudeDegrees>
            </Position>
            <AltitudeMeters>2306.60009765625</AltitudeMeters>
            <DistanceMeters>26643.877191261</DistanceMeters>
          </Trackpoint>
          <Trackpoint>
            <Time>2022-07-10T07:14:27.000Z</Time>
            <Position>
              <LatitudeDegrees>42.78508669696748256683349609375</LatitudeDegrees>
              <LongitudeDegrees>-0.16734025441110134124755859375</LongitudeDegrees>
            </Position>
            <AltitudeMeters>2306.60009765625</AltitudeMeters>
            <DistanceMeters>26646.292440602</DistanceMeters>
          </Trackpoint>
          <Trackpoint>
            <Time>2022-07-10T07:14:30.000Z</Time>
            <Position>
              <LatitudeDegrees>42.78510128147900104522705078125</LatitudeDegrees>
              <LongitudeDegrees>-0.167361460626125335693359375</LongitudeDegrees>
            </Position>
            <AltitudeMeters>2306.800048828125</AltitudeMeters>
            <DistanceMeters>26648.666207167</DistanceMeters>
          </Trackpoint>
          <Trackpoint>
            <Time>2022-07-10T07:14:33.000Z</Time>
            <Position>
              <LatitudeDegrees>42.7851060591638088226318359375</LatitudeDegrees>
              <LongitudeDegrees>-0.16733488999307155609130859375</LongitudeDegrees>
            </Position>
            <AltitudeMeters>2306.60009765625</AltitudeMeters>
            <DistanceMeters>26650.902870384</DistanceMeters>
          </Trackpoint>
          <Trackpoint>
            <Time>2022-07-10T07:14:39.000Z</Time>
            <Position>
              <LatitudeDegrees>42.7850331366062164306640625</LatitudeDegrees>
              <LongitudeDegrees>-0.1672573573887348175048828125</LongitudeDegrees>
            </Position>
            <AltitudeMeters>2306.199951171875</AltitudeMeters>
            <DistanceMeters>26661.198259512</DistanceMeters>
          </Trackpoint>
          <Trackpoint>
            <Time>2022-07-10T07:14:41.000Z</Time>
            <Position>
              <LatitudeDegrees>42.785026766359806060791015625</LatitudeDegrees>
              <LongitudeDegrees>-0.16723598353564739227294921875</LongitudeDegrees>
            </Position>
            <AltitudeMeters>2306.39990234375</AltitudeMeters>
            <DistanceMeters>26663.084485935</DistanceMeters>
          </Trackpoint>
          <Trackpoint>
            <Time>2022-07-10T07:14:42.000Z</Time>
            <Position>
              <LatitudeDegrees>42.78502483852207660675048828125</LatitudeDegrees>
              <LongitudeDegrees>-0.16723413951694965362548828125</LongitudeDegrees>
            </Position>
            <AltitudeMeters>2306.60009765625</AltitudeMeters>
            <DistanceMeters>26663.353262072</DistanceMeters>
          </Trackpoint>
          <Trackpoint>
            <Time>2022-07-10T07:14:48.000Z</Time>
            <Position>
              <LatitudeDegrees>42.78498661704361438751220703125</LatitudeDegrees>
              <LongitudeDegrees>-0.16722022555768489837646484375</LongitudeDegrees>
            </Position>
            <AltitudeMeters>2306.39990234375</AltitudeMeters>
            <DistanceMeters>26667.75639438</DistanceMeters>
          </Trackpoint>
          <Trackpoint>
            <Time>2022-07-10T07:14:51.000Z</Time>
            <Position>
              <LatitudeDegrees>42.784960381686687469482421875</LatitudeDegrees>
              <LongitudeDegrees>-0.16721838153898715972900390625</LongitudeDegrees>
            </Position>
            <AltitudeMeters>2306.199951171875</AltitudeMeters>
            <DistanceMeters>26670.680686157</DistanceMeters>
          </Trackpoint>
          <Trackpoint>
            <Time>2022-07-10T07:14:55.000Z</Time>
            <Position>
              <LatitudeDegrees>42.78498527593910694122314453125</LatitudeDegrees>
              <LongitudeDegrees>-0.16714193858206272125244140625</LongitudeDegrees>
            </Position>
            <AltitudeMeters>2306.199951171875</AltitudeMeters>
            <DistanceMeters>26677.512042908</DistanceMeters>
          </Trackpoint>
          <Trackpoint>
            <Time>2022-07-10T07:15:01.000Z</Time>
            <Position>
              <LatitudeDegrees>42.7849484793841838836669921875</LatitudeDegrees>
              <LongitudeDegrees>-0.16713791526854038238525390625</LongitudeDegrees>
            </Position>
            <AltitudeMeters>2306</AltitudeMeters>
            <DistanceMeters>26681.62133031</DistanceMeters>
          </Trackpoint>
          <Trackpoint>
            <Time>2022-07-10T07:15:03.000Z</Time>
            <Position>
              <LatitudeDegrees>42.78488771058619022369384765625</LatitudeDegrees>
              <LongitudeDegrees>-0.1671386696398258209228515625</LongitudeDegrees>
            </Position>
            <AltitudeMeters>2306</AltitudeMeters>
            <DistanceMeters>26688.384936394</DistanceMeters>
          </Trackpoint>
          <Trackpoint>
            <Time>2022-07-10T07:15:06.000Z</Time>
            <Position>
              <LatitudeDegrees>42.7848167158663272857666015625</LatitudeDegrees>
              <LongitudeDegrees>-0.16710958443582057952880859375</LongitudeDegrees>
            </Position>
            <AltitudeMeters>2306</AltitudeMeters>
            <DistanceMeters>26696.636407559</DistanceMeters>
          </Trackpoint>
          <Trackpoint>
            <Time>2022-07-10T07:15:12.000Z</Time>
            <Position>
              <LatitudeDegrees>42.78487312607467174530029296875</LatitudeDegrees>
              <LongitudeDegrees>-0.1670729555189609527587890625</LongitudeDegrees>
            </Position>
            <AltitudeMeters>2305.800048828125</AltitudeMeters>
            <DistanceMeters>26703.591558133</DistanceMeters>
          </Trackpoint>
          <Trackpoint>
            <Time>2022-07-10T07:15:14.000Z</Time>
            <Position>
              <LatitudeDegrees>42.7849062345921993255615234375</LatitudeDegrees>
              <LongitudeDegrees>-0.16711897216737270355224609375</LongitudeDegrees>
            </Position>
            <AltitudeMeters>2305.800048828125</AltitudeMeters>
            <DistanceMeters>26708.855043151</DistanceMeters>
          </Trackpoint>
          <Trackpoint>
            <Time>2022-07-10T07:15:15.000Z</Time>
            <Position>
              <LatitudeDegrees>42.78492157347500324249267578125</LatitudeDegrees>
              <LongitudeDegrees>-0.1671457104384899139404296875</LongitudeDegrees>
            </Position>
            <AltitudeMeters>2305.800048828125</AltitudeMeters>
            <DistanceMeters>26711.625524152</DistanceMeters>
          </Trackpoint>
          <Trackpoint>
            <Time>2022-07-10T07:15:21.000Z</Time>
            <Position>
              <LatitudeDegrees>42.78496113605797290802001953125</LatitudeDegrees>
              <LongitudeDegrees>-0.16719524748623371124267578125</LongitudeDegrees>
            </Position>
            <AltitudeMeters>2305.800048828125</AltitudeMeters>
            <DistanceMeters>26717.605415683</DistanceMeters>
          </Trackpoint>
          <Trackpoint>
            <Time>2022-07-10T07:15:22.000Z</Time>
            <Position>
              <LatitudeDegrees>42.78496205806732177734375</LatitudeDegrees>
              <LongitudeDegrees>-0.16719792969524860382080078125</LongitudeDegrees>
            </Position>
            <AltitudeMeters>2305.60009765625</AltitudeMeters>
            <DistanceMeters>26717.817901876</DistanceMeters>
          </Trackpoint>
          <Trackpoint>
            <Time>2022-07-10T07:15:26.000Z</Time>
            <Position>
              <LatitudeDegrees>42.784962393343448638916015625</LatitudeDegrees>
              <LongitudeDegrees>-0.16722500324249267578125</LongitudeDegrees>
            </Position>
            <AltitudeMeters>2305.60009765625</AltitudeMeters>
            <DistanceMeters>26720.030208688</DistanceMeters>
          </Trackpoint>
          <Trackpoint>
            <Time>2022-07-10T07:15:28.000Z</Time>
            <Position>
              <LatitudeDegrees>42.78496013022959232330322265625</LatitudeDegrees>
              <LongitudeDegrees>-0.16721100546419620513916015625</LongitudeDegrees>
            </Position>
            <AltitudeMeters>2292</AltitudeMeters>
            <DistanceMeters>26721.201776705</DistanceMeters>
          </Trackpoint>
          <Trackpoint>
            <Time>2022-07-10T07:15:32.000Z</Time>
            <Position>
              <LatitudeDegrees>42.7849732898175716400146484375</LatitudeDegrees>
              <LongitudeDegrees>-0.1671557687222957611083984375</LongitudeDegrees>
            </Position>
            <AltitudeMeters>2298.800048828125</AltitudeMeters>
            <DistanceMeters>26725.945504195</DistanceMeters>
          </Trackpoint>
          <Trackpoint>
            <Time>2022-07-10T07:15:33.000Z</Time>
            <Position>
              <LatitudeDegrees>42.78497119434177875518798828125</LatitudeDegrees>
              <LongitudeDegrees>-0.167147554457187652587890625</LongitudeDegrees>
            </Position>
            <AltitudeMeters>2302.199951171875</AltitudeMeters>
            <DistanceMeters>26726.656619011</DistanceMeters>
          </Trackpoint>
          <Trackpoint>
            <Time>2022-07-10T07:15:34.000Z</Time>
            <Position>
              <LatitudeDegrees>42.78497018851339817047119140625</LatitudeDegrees>
              <LongitudeDegrees>-0.167142860591411590576171875</LongitudeDegrees>
            </Position>
            <AltitudeMeters>2304</AltitudeMeters>
            <DistanceMeters>26727.048424191</DistanceMeters>
          </Trackpoint>
          <Trackpoint>
            <Time>2022-07-10T07:15:35.000Z</Time>
            <Position>
              <LatitudeDegrees>42.7849685959517955780029296875</LatitudeDegrees>
              <LongitudeDegrees>-0.1671376638114452362060546875</LongitudeDegrees>
            </Position>
            <AltitudeMeters>2304.800048828125</AltitudeMeters>
            <DistanceMeters>26727.504156304</DistanceMeters>
          </Trackpoint>
          <Trackpoint>
            <Time>2022-07-10T07:15:36.000Z</Time>
            <Position>
              <LatitudeDegrees>42.784964405000209808349609375</LatitudeDegrees>
              <LongitudeDegrees>-0.16713313758373260498046875</LongitudeDegrees>
            </Position>
            <AltitudeMeters>2305.199951171875</AltitudeMeters>
            <DistanceMeters>26728.097597945</DistanceMeters>
          </Trackpoint>
          <Trackpoint>
            <Time>2022-07-10T07:15:42.000Z</Time>
            <Position>
              <LatitudeDegrees>42.784970104694366455078125</LatitudeDegrees>
              <LongitudeDegrees>-0.16711863689124584197998046875</LongitudeDegrees>
            </Position>
            <AltitudeMeters>2305.60009765625</AltitudeMeters>
            <DistanceMeters>26729.438114715</DistanceMeters>
          </Trackpoint>
          <Trackpoint>
            <Time>2022-07-10T07:15:43.000Z</Time>
            <Position>
              <LatitudeDegrees>42.78496985323727130889892578125</LatitudeDegrees>
              <LongitudeDegrees>-0.1671190559864044189453125</LongitudeDegrees>
            </Position>
            <AltitudeMeters>2305.60009765625</AltitudeMeters>
            <DistanceMeters>26729.438114715</DistanceMeters>
          </Trackpoint>
          <Trackpoint>
            <Time>2022-07-10T07:15:48.000Z</Time>
            <Position>
              <LatitudeDegrees>42.78492542915046215057373046875</LatitudeDegrees>
              <LongitudeDegrees>-0.16715333797037601470947265625</LongitudeDegrees>
            </Position>
            <AltitudeMeters>2305.60009765625</AltitudeMeters>
            <DistanceMeters>26735.119885855</DistanceMeters>
          </Trackpoint>
          <Trackpoint>
            <Time>2022-07-10T07:15:51.000Z</Time>
            <Position>
              <LatitudeDegrees>42.78490841388702392578125</LatitudeDegrees>
              <LongitudeDegrees>-0.16717110760509967803955078125</LongitudeDegrees>
            </Position>
            <AltitudeMeters>2305.60009765625</AltitudeMeters>
            <DistanceMeters>26737.505037456</DistanceMeters>
          </Trackpoint>
          <Trackpoint>
            <Time>2022-07-10T07:15:53.000Z</Time>
            <Position>
              <LatitudeDegrees>42.78490648604929447174072265625</LatitudeDegrees>
              <LongitudeDegrees>-0.167179405689239501953125</LongitudeDegrees>
            </Position>
            <AltitudeMeters>2305.60009765625</AltitudeMeters>
            <DistanceMeters>26738.216152272</DistanceMeters>
          </Trackpoint>
          <Trackpoint>
            <Time>2022-07-10T07:15:54.000Z</Time>
            <Position>
              <LatitudeDegrees>42.78490514494478702545166015625</LatitudeDegrees>
              <LongitudeDegrees>-0.16718636266887187957763671875</LongitudeDegrees>
            </Position>
            <AltitudeMeters>2305.60009765625</AltitudeMeters>
            <DistanceMeters>26738.801936281</DistanceMeters>
          </Trackpoint>
          <Trackpoint>
            <Time>2022-07-10T07:15:58.000Z</Time>
            <Position>
              <LatitudeDegrees>42.78490698896348476409912109375</LatitudeDegrees>
              <LongitudeDegrees>-0.16721687279641628265380859375</LongitudeDegrees>
            </Position>
            <AltitudeMeters>2305.60009765625</AltitudeMeters>
            <DistanceMeters>26741.301698849</DistanceMeters>
          </Trackpoint>
          <Trackpoint>
            <Time>2022-07-10T07:16:01.000Z</Time>
            <Position>
              <LatitudeDegrees>42.78491185046732425689697265625</LatitudeDegrees>
              <LongitudeDegrees>-0.16722441650927066802978515625</LongitudeDegrees>
            </Position>
            <AltitudeMeters>2305.60009765625</AltitudeMeters>
            <DistanceMeters>26742.119149555</DistanceMeters>
          </Trackpoint>
          <Trackpoint>
            <Time>2022-07-10T07:16:03.000Z</Time>
            <Position>
              <LatitudeDegrees>42.784919477999210357666015625</LatitudeDegrees>
              <LongitudeDegrees>-0.1672104187309741973876953125</LongitudeDegrees>
            </Position>
            <AltitudeMeters>2305.60009765625</AltitudeMeters>
            <DistanceMeters>26743.541379186</DistanceMeters>
          </Trackpoint>
          <Trackpoint>
            <Time>2022-07-10T07:16:05.000Z</Time>
            <Position>
              <LatitudeDegrees>42.7849183045327663421630859375</LatitudeDegrees>
              <LongitudeDegrees>-0.1672070659697055816650390625</LongitudeDegrees>
            </Position>
            <AltitudeMeters>2305.60009765625</AltitudeMeters>
            <DistanceMeters>26743.841880042</DistanceMeters>
          </Trackpoint>
          <Trackpoint>
            <Time>2022-07-10T07:16:08.000Z</Time>
            <Position>
              <LatitudeDegrees>42.784916125237941741943359375</LatitudeDegrees>
              <LongitudeDegrees>-0.16723363660275936126708984375</LongitudeDegrees>
            </Position>
            <AltitudeMeters>2305.60009765625</AltitudeMeters>
            <DistanceMeters>26746.025427698</DistanceMeters>
          </Trackpoint>
          <Trackpoint>
            <Time>2022-07-10T07:16:14.000Z</Time>
            <Position>
              <LatitudeDegrees>42.78492693789303302764892578125</LatitudeDegrees>
              <LongitudeDegrees>-0.16723950393497943878173828125</LongitudeDegrees>
            </Position>
            <AltitudeMeters>2305.60009765625</AltitudeMeters>
            <DistanceMeters>26747.321419294</DistanceMeters>
          </Trackpoint>
          <Trackpoint>
            <Time>2022-07-10T07:16:17.000Z</Time>
            <Position>
              <LatitudeDegrees>42.78491687960922718048095703125</LatitudeDegrees>
              <LongitudeDegrees>-0.167238079011440277099609375</LongitudeDegrees>
            </Position>
            <AltitudeMeters>2305.60009765625</AltitudeMeters>
            <DistanceMeters>26748.445790542</DistanceMeters>
          </Trackpoint>
          <Trackpoint>
            <Time>2022-07-10T07:16:18.000Z</Time>
            <Position>
              <LatitudeDegrees>42.784914784133434295654296875</LatitudeDegrees>
              <LongitudeDegrees>-0.16723967157304286956787109375</LongitudeDegrees>
            </Position>
            <AltitudeMeters>2305.60009765625</AltitudeMeters>
            <DistanceMeters>26748.714566678</DistanceMeters>
          </Trackpoint>
          <Trackpoint>
            <Time>2022-07-10T07:16:19.000Z</Time>
            <Position>
              <LatitudeDegrees>42.784910760819911956787109375</LatitudeDegrees>
              <LongitudeDegrees>-0.16723799519240856170654296875</LongitudeDegrees>
            </Position>
            <AltitudeMeters>2305.60009765625</AltitudeMeters>
            <DistanceMeters>26749.180100602</DistanceMeters>
          </Trackpoint>
          <Trackpoint>
            <Time>2022-07-10T07:16:25.000Z</Time>
            <Position>
              <LatitudeDegrees>42.784935571253299713134765625</LatitudeDegrees>
              <LongitudeDegrees>-0.16723464243113994598388671875</LongitudeDegrees>
            </Position>
            <AltitudeMeters>2305.60009765625</AltitudeMeters>
            <DistanceMeters>26751.953839078</DistanceMeters>
          </Trackpoint>
          <Trackpoint>
            <Time>2022-07-10T07:16:28.000Z</Time>
            <Position>
              <LatitudeDegrees>42.78494940139353275299072265625</LatitudeDegrees>
              <LongitudeDegrees>-0.167255513370037078857421875</LongitudeDegrees>
            </Position>
            <AltitudeMeters>2305.60009765625</AltitudeMeters>
            <DistanceMeters>26754.254192267</DistanceMeters>
          </Trackpoint>
          <Trackpoint>
            <Time>2022-07-10T07:16:32.000Z</Time>
            <Position>
              <LatitudeDegrees>42.78496013022959232330322265625</LatitudeDegrees>
              <LongitudeDegrees>-0.16727554611861705780029296875</LongitudeDegrees>
            </Position>
            <AltitudeMeters>2305.60009765625</AltitudeMeters>
            <DistanceMeters>26756.283407598</DistanceMeters>
          </Trackpoint>
          <Trackpoint>
            <Time>2022-07-10T07:16:38.000Z</Time>
            <Position>
              <LatitudeDegrees>42.78493666090071201324462890625</LatitudeDegrees>
              <LongitudeDegrees>-0.16725107096135616302490234375</LongitudeDegrees>
            </Position>
            <AltitudeMeters>2305.60009765625</AltitudeMeters>
            <DistanceMeters>26759.575229545</DistanceMeters>
          </Trackpoint>
          <Trackpoint>
            <Time>2022-07-10T07:16:43.000Z</Time>
            <Position>
              <LatitudeDegrees>42.7848998643457889556884765625</LatitudeDegrees>
              <LongitudeDegrees>-0.167217291891574859619140625</LongitudeDegrees>
            </Position>
            <AltitudeMeters>2305.60009765625</AltitudeMeters>
            <DistanceMeters>26764.514790918</DistanceMeters>
          </Trackpoint>
          <Trackpoint>
            <Time>2022-07-10T07:16:45.000Z</Time>
            <Position>
              <LatitudeDegrees>42.78488066978752613067626953125</LatitudeDegrees>
              <LongitudeDegrees>-0.16720094718039035797119140625</LongitudeDegrees>
            </Position>
            <AltitudeMeters>2305.60009765625</AltitudeMeters>
            <DistanceMeters>26767.032550569</DistanceMeters>
          </Trackpoint>
          <Trackpoint>
            <Time>2022-07-10T07:16:51.000Z</Time>
            <Position>
              <LatitudeDegrees>42.78481177054345607757568359375</LatitudeDegrees>
              <LongitudeDegrees>-0.16724151559174060821533203125</LongitudeDegrees>
            </Position>
            <AltitudeMeters>2305.60009765625</AltitudeMeters>
            <DistanceMeters>26775.386258175</DistanceMeters>
          </Trackpoint>
          <Trackpoint>
            <Time>2022-07-10T07:16:55.000Z</Time>
            <Position>
              <LatitudeDegrees>42.7848703600466251373291015625</LatitudeDegrees>
              <LongitudeDegrees>-0.16725794412195682525634765625</LongitudeDegrees>
            </Position>
            <AltitudeMeters>2305.60009765625</AltitudeMeters>
            <DistanceMeters>26782.043556064</DistanceMeters>
          </Trackpoint>
          <Trackpoint>
            <Time>2022-07-10T07:17:01.000Z</Time>
            <Position>
              <LatitudeDegrees>42.78491235338151454925537109375</LatitudeDegrees>
              <LongitudeDegrees>-0.167285017669200897216796875</LongitudeDegrees>
            </Position>
            <AltitudeMeters>2305.60009765625</AltitudeMeters>
            <DistanceMeters>26787.215314607</DistanceMeters>
          </Trackpoint>
          <Trackpoint>
            <Time>2022-07-10T07:17:03.000Z</Time>
            <Position>
              <LatitudeDegrees>42.78493188321590423583984375</LatitudeDegrees>
              <LongitudeDegrees>-0.1672942377626895904541015625</LongitudeDegrees>
            </Position>
            <AltitudeMeters>2305.60009765625</AltitudeMeters>
            <DistanceMeters>26789.517629719</DistanceMeters>
          </Trackpoint>
          <Trackpoint>
            <Time>2022-07-10T07:17:06.000Z</Time>
            <Position>
              <LatitudeDegrees>42.78496767394244670867919921875</LatitudeDegrees>
              <LongitudeDegrees>-0.16730077564716339111328125</LongitudeDegrees>
            </Position>
            <AltitudeMeters>2305.60009765625</AltitudeMeters>
            <DistanceMeters>26793.538057163</DistanceMeters>
          </Trackpoint>
          <Trackpoint>
            <Time>2022-07-10T07:17:07.000Z</Time>
            <Position>
              <LatitudeDegrees>42.784975133836269378662109375</LatitudeDegrees>
              <LongitudeDegrees>-0.167302787303924560546875</LongitudeDegrees>
            </Position>
            <AltitudeMeters>2305.60009765625</AltitudeMeters>
            <DistanceMeters>26794.388001935</DistanceMeters>
          </Trackpoint>
          <Trackpoint>
            <Time>2022-07-10T07:17:08.000Z</Time>
            <Position>
              <LatitudeDegrees>42.78497940860688686370849609375</LatitudeDegrees>
              <LongitudeDegrees>-0.1673063077032566070556640625</LongitudeDegrees>
            </Position>
            <AltitudeMeters>2305.60009765625</AltitudeMeters>
            <DistanceMeters>26794.942098135</DistanceMeters>
          </Trackpoint>
          <Trackpoint>
            <Time>2022-07-10T07:17:09.000Z</Time>
            <Position>
              <LatitudeDegrees>42.784981839358806610107421875</LatitudeDegrees>
              <LongitudeDegrees>-0.167308486998081207275390625</LongitudeDegrees>
            </Position>
            <AltitudeMeters>2305.60009765625</AltitudeMeters>
            <DistanceMeters>26795.27128033</DistanceMeters>
          </Trackpoint>
          <Trackpoint>
            <Time>2022-07-10T07:17:10.000Z</Time>
            <Position>
              <LatitudeDegrees>42.7849823422729969024658203125</LatitudeDegrees>
              <LongitudeDegrees>-0.16731309704482555389404296875</LongitudeDegrees>
            </Position>
            <AltitudeMeters>2305.60009765625</AltitudeMeters>
            <DistanceMeters>26795.663085511</DistanceMeters>
          </Trackpoint>
          <Trackpoint>
            <Time>2022-07-10T07:17:11.000Z</Time>
            <Position>
              <LatitudeDegrees>42.78498108498752117156982421875</LatitudeDegrees>
              <LongitudeDegrees>-0.1673190481960773468017578125</LongitudeDegrees>
            </Position>
            <AltitudeMeters>2305.60009765625</AltitudeMeters>
            <DistanceMeters>26796.165919619</DistanceMeters>
          </Trackpoint>
          <Trackpoint>
            <Time>2022-07-10T07:17:12.000Z</Time>
            <Position>
              <LatitudeDegrees>42.78497890569269657135009765625</LatitudeDegrees>
              <LongitudeDegrees>-0.16733053140342235565185546875</LongitudeDegrees>
            </Position>
            <AltitudeMeters>2305.60009765625</AltitudeMeters>
            <DistanceMeters>26797.130335439</DistanceMeters>
          </Trackpoint>
          <Trackpoint>
            <Time>2022-07-10T07:17:13.000Z</Time>
            <Position>
              <LatitudeDegrees>42.78497555293142795562744140625</LatitudeDegrees>
              <LongitudeDegrees>-0.16734293662011623382568359375</LongitudeDegrees>
            </Position>
            <AltitudeMeters>2305.60009765625</AltitudeMeters>
            <DistanceMeters>26798.209631441</DistanceMeters>
          </Trackpoint>
          <Trackpoint>
            <Time>2022-07-10T07:17:14.000Z</Time>
            <Position>
              <LatitudeDegrees>42.78497052378952503204345703125</LatitudeDegrees>
              <LongitudeDegrees>-0.1673572696745395660400390625</LongitudeDegrees>
            </Position>
            <AltitudeMeters>2305.60009765625</AltitudeMeters>
            <DistanceMeters>26799.505623038</DistanceMeters>
          </Trackpoint>
          <Trackpoint>
            <Time>2022-07-10T07:17:20.000Z</Time>
            <Position>
              <LatitudeDegrees>42.78493230231106281280517578125</LatitudeDegrees>
              <LongitudeDegrees>-0.167425833642482757568359375</LongitudeDegrees>
            </Position>
            <AltitudeMeters>2304</AltitudeMeters>
            <DistanceMeters>26806.538883929</DistanceMeters>
          </Trackpoint>
          <Trackpoint>
            <Time>2022-07-10T07:17:22.000Z</Time>
            <Position>
              <LatitudeDegrees>42.7849280275404453277587890625</LatitudeDegrees>
              <LongitudeDegrees>-0.167448632419109344482421875</LongitudeDegrees>
            </Position>
            <AltitudeMeters>2302.60009765625</AltitudeMeters>
            <DistanceMeters>26808.460680293</DistanceMeters>
          </Trackpoint>
          <Trackpoint>
            <Time>2022-07-10T07:17:23.000Z</Time>
            <Position>
              <LatitudeDegrees>42.78492811135947704315185546875</LatitudeDegrees>
              <LongitudeDegrees>-0.1674638874828815460205078125</LongitudeDegrees>
            </Position>
            <AltitudeMeters>2302.39990234375</AltitudeMeters>
            <DistanceMeters>26809.706943969</DistanceMeters>
          </Trackpoint>
          <Trackpoint>
            <Time>2022-07-10T07:17:28.000Z</Time>
            <Position>
              <LatitudeDegrees>42.78490732423961162567138671875</LatitudeDegrees>
              <LongitudeDegrees>-0.16750906594097614288330078125</LongitudeDegrees>
            </Position>
            <AltitudeMeters>2302</AltitudeMeters>
            <DistanceMeters>26814.061615085</DistanceMeters>
          </Trackpoint>
          <Trackpoint>
            <Time>2022-07-10T07:17:31.000Z</Time>
            <Position>
              <LatitudeDegrees>42.78489039279520511627197265625</LatitudeDegrees>
              <LongitudeDegrees>-0.16753119416534900665283203125</LongitudeDegrees>
            </Position>
            <AltitudeMeters>2301.39990234375</AltitudeMeters>
            <DistanceMeters>26816.674417755</DistanceMeters>
          </Trackpoint>
          <Trackpoint>
            <Time>2022-07-10T07:17:33.000Z</Time>
            <Position>
              <LatitudeDegrees>42.78487865813076496124267578125</LatitudeDegrees>
              <LongitudeDegrees>-0.1675487123429775238037109375</LongitudeDegrees>
            </Position>
            <AltitudeMeters>2300.800048828125</AltitudeMeters>
            <DistanceMeters>26818.612590038</DistanceMeters>
          </Trackpoint>
          <Trackpoint>
            <Time>2022-07-10T07:17:35.000Z</Time>
            <Position>
              <LatitudeDegrees>42.784861810505390167236328125</LatitudeDegrees>
              <LongitudeDegrees>-0.16757125966250896453857421875</LongitudeDegrees>
            </Position>
            <AltitudeMeters>2300.39990234375</AltitudeMeters>
            <DistanceMeters>26821.240899092</DistanceMeters>
          </Trackpoint>
          <Trackpoint>
            <Time>2022-07-10T07:17:36.000Z</Time>
            <Position>
              <LatitudeDegrees>42.78485066257417201995849609375</LatitudeDegrees>
              <LongitudeDegrees>-0.16758634708821773529052734375</LongitudeDegrees>
            </Position>
            <AltitudeMeters>2300.199951171875</AltitudeMeters>
            <DistanceMeters>26822.993105127</DistanceMeters>
          </Trackpoint>
          <Trackpoint>
            <Time>2022-07-10T07:17:41.000Z</Time>
            <Position>
              <LatitudeDegrees>42.7847944200038909912109375</LatitudeDegrees>
              <LongitudeDegrees>-0.1676378957927227020263671875</LongitudeDegrees>
            </Position>
            <AltitudeMeters>2299.199951171875</AltitudeMeters>
            <DistanceMeters>26830.53681388</DistanceMeters>
          </Trackpoint>
          <Trackpoint>
            <Time>2022-07-10T07:17:42.000Z</Time>
            <Position>
              <LatitudeDegrees>42.78478545136749744415283203125</LatitudeDegrees>
              <LongitudeDegrees>-0.167641751468181610107421875</LongitudeDegrees>
            </Position>
            <AltitudeMeters>2299</AltitudeMeters>
            <DistanceMeters>26831.586418247</DistanceMeters>
          </Trackpoint>
          <Trackpoint>
            <Time>2022-07-10T07:17:48.000Z</Time>
            <Position>
              <LatitudeDegrees>42.78473599813878536224365234375</LatitudeDegrees>
              <LongitudeDegrees>-0.16768776811659336090087890625</LongitudeDegrees>
            </Position>
            <AltitudeMeters>2298.199951171875</AltitudeMeters>
            <DistanceMeters>26838.251849673</DistanceMeters>
          </Trackpoint>
          <Trackpoint>
            <Time>2022-07-10T07:17:50.000Z</Time>
            <Position>
              <LatitudeDegrees>42.7847225032746791839599609375</LatitudeDegrees>
              <LongitudeDegrees>-0.16770042479038238525390625</LongitudeDegrees>
            </Position>
            <AltitudeMeters>2298.199951171875</AltitudeMeters>
            <DistanceMeters>26840.074778123</DistanceMeters>
          </Trackpoint>
          <Trackpoint>
            <Time>2022-07-10T07:17:52.000Z</Time>
            <Position>
              <LatitudeDegrees>42.7847030572593212127685546875</LatitudeDegrees>
              <LongitudeDegrees>-0.167724899947643280029296875</LongitudeDegrees>
            </Position>
            <AltitudeMeters>2298.199951171875</AltitudeMeters>
            <DistanceMeters>26843.022138559</DistanceMeters>
          </Trackpoint>
          <Trackpoint>
            <Time>2022-07-10T07:17:53.000Z</Time>
            <Position>
              <LatitudeDegrees>42.7846923284232616424560546875</LatitudeDegrees>
              <LongitudeDegrees>-0.16773487441241741180419921875</LongitudeDegrees>
            </Position>
            <AltitudeMeters>2298.199951171875</AltitudeMeters>
            <DistanceMeters>26844.46954235</DistanceMeters>
          </Trackpoint>
          <Trackpoint>
            <Time>2022-07-10T07:17:55.000Z</Time>
            <Position>
              <LatitudeDegrees>42.784667350351810455322265625</LatitudeDegrees>
              <LongitudeDegrees>-0.1677654683589935302734375</LongitudeDegrees>
            </Position>
            <AltitudeMeters>2298</AltitudeMeters>
            <DistanceMeters>26848.208333376</DistanceMeters>
          </Trackpoint>
          <Trackpoint>
            <Time>2022-07-10T07:17:57.000Z</Time>
            <Position>
              <LatitudeDegrees>42.78464899398386478424072265625</LatitudeDegrees>
              <LongitudeDegrees>-0.1677924580872058868408203125</LongitudeDegrees>
            </Position>
            <AltitudeMeters>2298</AltitudeMeters>
            <DistanceMeters>26851.213341935</DistanceMeters>
          </Trackpoint>
          <Trackpoint>
            <Time>2022-07-10T07:18:03.000Z</Time>
            <Position>
              <LatitudeDegrees>42.7846081741154193878173828125</LatitudeDegrees>
              <LongitudeDegrees>-0.16784048639237880706787109375</LongitudeDegrees>
            </Position>
            <AltitudeMeters>2297.800048828125</AltitudeMeters>
            <DistanceMeters>26857.215841832</DistanceMeters>
          </Trackpoint>
          <Trackpoint>
            <Time>2022-07-10T07:18:04.000Z</Time>
            <Position>
              <LatitudeDegrees>42.7846044860780239105224609375</LatitudeDegrees>
              <LongitudeDegrees>-0.16786026768386363983154296875</LongitudeDegrees>
            </Position>
            <AltitudeMeters>2297.60009765625</AltitudeMeters>
            <DistanceMeters>26858.883553901</DistanceMeters>
          </Trackpoint>
          <Trackpoint>
            <Time>2022-07-10T07:18:08.000Z</Time>
            <Position>
              <LatitudeDegrees>42.78456785716116428375244140625</LatitudeDegrees>
              <LongitudeDegrees>-0.16789312474429607391357421875</LongitudeDegrees>
            </Position>
            <AltitudeMeters>2296.800048828125</AltitudeMeters>
            <DistanceMeters>26863.764265085</DistanceMeters>
          </Trackpoint>
          <Trackpoint>
            <Time>2022-07-10T07:18:11.000Z</Time>
            <Position>
              <LatitudeDegrees>42.78454656712710857391357421875</LatitudeDegrees>
              <LongitudeDegrees>-0.16790091991424560546875</LongitudeDegrees>
            </Position>
            <AltitudeMeters>2295.800048828125</AltitudeMeters>
            <DistanceMeters>26866.216617203</DistanceMeters>
          </Trackpoint>
          <Trackpoint>
            <Time>2022-07-10T07:18:13.000Z</Time>
            <Position>
              <LatitudeDegrees>42.78452460654079914093017578125</LatitudeDegrees>
              <LongitudeDegrees>-0.16791726462543010711669921875</LongitudeDegrees>
            </Position>
            <AltitudeMeters>2295.60009765625</AltitudeMeters>
            <DistanceMeters>26869.001726836</DistanceMeters>
          </Trackpoint>
          <Trackpoint>
            <Time>2022-07-10T07:18:14.000Z</Time>
            <Position>
              <LatitudeDegrees>42.78451169840991497039794921875</LatitudeDegrees>
              <LongitudeDegrees>-0.1679258979856967926025390625</LongitudeDegrees>
            </Position>
            <AltitudeMeters>2295.60009765625</AltitudeMeters>
            <DistanceMeters>26870.603145491</DistanceMeters>
          </Trackpoint>
          <Trackpoint>
            <Time>2022-07-10T07:18:18.000Z</Time>
            <Position>
              <LatitudeDegrees>42.78447917662560939788818359375</LatitudeDegrees>
              <LongitudeDegrees>-0.16793939284980297088623046875</LongitudeDegrees>
            </Position>
            <AltitudeMeters>2296.800048828125</AltitudeMeters>
            <DistanceMeters>26874.387547854</DistanceMeters>
          </Trackpoint>
          <Trackpoint>
            <Time>2022-07-10T07:18:20.000Z</Time>
            <Position>
              <LatitudeDegrees>42.78446760959923267364501953125</LatitudeDegrees>
              <LongitudeDegrees>-0.16794341616332530975341796875</LongitudeDegrees>
            </Position>
            <AltitudeMeters>2297</AltitudeMeters>
            <DistanceMeters>26875.714523704</DistanceMeters>
          </Trackpoint>
          <Trackpoint>
            <Time>2022-07-10T07:18:22.000Z</Time>
            <Position>
              <LatitudeDegrees>42.78445017524063587188720703125</LatitudeDegrees>
              <LongitudeDegrees>-0.16794852912425994873046875</LongitudeDegrees>
            </Position>
            <AltitudeMeters>2297.39990234375</AltitudeMeters>
            <DistanceMeters>26877.698739753</DistanceMeters>
          </Trackpoint>
          <Trackpoint>
            <Time>2022-07-10T07:18:24.000Z</Time>
            <Position>
              <LatitudeDegrees>42.78442704118788242340087890625</LatitudeDegrees>
              <LongitudeDegrees>-0.16795816831290721893310546875</LongitudeDegrees>
            </Position>
            <AltitudeMeters>2298</AltitudeMeters>
            <DistanceMeters>26880.389858722</DistanceMeters>
          </Trackpoint>
          <Trackpoint>
            <Time>2022-07-10T07:18:28.000Z</Time>
            <Position>
              <LatitudeDegrees>42.78437105007469654083251953125</LatitudeDegrees>
              <LongitudeDegrees>-0.1679896004498004913330078125</LongitudeDegrees>
            </Position>
            <AltitudeMeters>2299</AltitudeMeters>
            <DistanceMeters>26887.130060098</DistanceMeters>
          </Trackpoint>
          <Trackpoint>
            <Time>2022-07-10T07:18:29.000Z</Time>
            <Position>
              <LatitudeDegrees>42.78435520827770233154296875</LatitudeDegrees>
              <LongitudeDegrees>-0.16799689270555973052978515625</LongitudeDegrees>
            </Position>
            <AltitudeMeters>2299</AltitudeMeters>
            <DistanceMeters>26888.992195795</DistanceMeters>
          </Trackpoint>
          <Trackpoint>
            <Time>2022-07-10T07:18:30.000Z</Time>
            <Position>
              <LatitudeDegrees>42.78434179723262786865234375</LatitudeDegrees>
              <LongitudeDegrees>-0.16799471341073513031005859375</LongitudeDegrees>
            </Position>
            <AltitudeMeters>2299.199951171875</AltitudeMeters>
            <DistanceMeters>26890.497702085</DistanceMeters>
          </Trackpoint>
          <Trackpoint>
            <Time>2022-07-10T07:18:31.000Z</Time>
            <Position>
              <LatitudeDegrees>42.78432746417820453643798828125</LatitudeDegrees>
              <LongitudeDegrees>-0.1679966412484645843505859375</LongitudeDegrees>
            </Position>
            <AltitudeMeters>2299.39990234375</AltitudeMeters>
            <DistanceMeters>26892.09912074</DistanceMeters>
          </Trackpoint>
          <Trackpoint>
            <Time>2022-07-10T07:18:35.000Z</Time>
            <Position>
              <LatitudeDegrees>42.78427281416952610015869140625</LatitudeDegrees>
              <LongitudeDegrees>-0.16801298595964908599853515625</LongitudeDegrees>
            </Position>
            <AltitudeMeters>2299.60009765625</AltitudeMeters>
            <DistanceMeters>26898.326090168</DistanceMeters>
          </Trackpoint>
          <Trackpoint>
            <Time>2022-07-10T07:18:36.000Z</Time>
            <Position>
              <LatitudeDegrees>42.784259654581546783447265625</LatitudeDegrees>
              <LongitudeDegrees>-0.1680184341967105865478515625</LongitudeDegrees>
            </Position>
            <AltitudeMeters>2299.60009765625</AltitudeMeters>
            <DistanceMeters>26899.858349896</DistanceMeters>
          </Trackpoint>
          <Trackpoint>
            <Time>2022-07-10T07:18:37.000Z</Time>
            <Position>
              <LatitudeDegrees>42.78424951247870922088623046875</LatitudeDegrees>
              <LongitudeDegrees>-0.16802220605313777923583984375</LongitudeDegrees>
            </Position>
            <AltitudeMeters>2299.800048828125</AltitudeMeters>
            <DistanceMeters>26901.029917914</DistanceMeters>
          </Trackpoint>
          <Trackpoint>
            <Time>2022-07-10T07:18:39.000Z</Time>
            <Position>
              <LatitudeDegrees>42.78423241339623928070068359375</LatitudeDegrees>
              <LongitudeDegrees>-0.1680221222341060638427734375</LongitudeDegrees>
            </Position>
            <AltitudeMeters>2300</AltitudeMeters>
            <DistanceMeters>26902.930452201</DistanceMeters>
          </Trackpoint>
          <Trackpoint>
            <Time>2022-07-10T07:18:40.000Z</Time>
            <Position>
              <LatitudeDegrees>42.78422109782695770263671875</LatitudeDegrees>
              <LongitudeDegrees>-0.16802522353827953338623046875</LongitudeDegrees>
            </Position>
            <AltitudeMeters>2300.199951171875</AltitudeMeters>
            <DistanceMeters>26904.215949766</DistanceMeters>
          </Trackpoint>
          <Trackpoint>
            <Time>2022-07-10T07:18:42.000Z</Time>
            <Position>
              <LatitudeDegrees>42.78420123271644115447998046875</LatitudeDegrees>
              <LongitudeDegrees>-0.16802773810923099517822265625</LongitudeDegrees>
            </Position>
            <AltitudeMeters>2300.39990234375</AltitudeMeters>
            <DistanceMeters>26906.438437519</DistanceMeters>
          </Trackpoint>
          <Trackpoint>
            <Time>2022-07-10T07:18:48.000Z</Time>
            <Position>
              <LatitudeDegrees>42.78414758853614330291748046875</LatitudeDegrees>
              <LongitudeDegrees>-0.16803310252726078033447265625</LongitudeDegrees>
            </Position>
            <AltitudeMeters>2300.60009765625</AltitudeMeters>
            <DistanceMeters>26912.424366297</DistanceMeters>
          </Trackpoint>
          <Trackpoint>
            <Time>2022-07-10T07:18:54.000Z</Time>
            <Position>
              <LatitudeDegrees>42.784097380936145782470703125</LatitudeDegrees>
              <LongitudeDegrees>-0.16805179417133331298828125</LongitudeDegrees>
            </Position>
            <AltitudeMeters>2300.60009765625</AltitudeMeters>
            <DistanceMeters>26918.217100027</DistanceMeters>
          </Trackpoint>
          <Trackpoint>
            <Time>2022-07-10T07:18:57.000Z</Time>
            <Position>
              <LatitudeDegrees>42.78405857272446155548095703125</LatitudeDegrees>
              <LongitudeDegrees>-0.16807191073894500732421875</LongitudeDegrees>
            </Position>
            <AltitudeMeters>2300.60009765625</AltitudeMeters>
            <DistanceMeters>26922.839346328</DistanceMeters>
          </Trackpoint>
          <Trackpoint>
            <Time>2022-07-10T07:19:00.000Z</Time>
            <Position>
              <LatitudeDegrees>42.7839952893555164337158203125</LatitudeDegrees>
              <LongitudeDegrees>-0.16811926849186420440673828125</LongitudeDegrees>
            </Position>
            <AltitudeMeters>2300.39990234375</AltitudeMeters>
            <DistanceMeters>26930.875146017</DistanceMeters>
          </Trackpoint>
          <Trackpoint>
            <Time>2022-07-10T07:19:03.000Z</Time>
            <Position>
              <LatitudeDegrees>42.78392605483531951904296875</LatitudeDegrees>
              <LongitudeDegrees>-0.1681458391249179840087890625</LongitudeDegrees>
            </Position>
            <AltitudeMeters>2300.39990234375</AltitudeMeters>
            <DistanceMeters>26938.881111456</DistanceMeters>
          </Trackpoint>
          <Trackpoint>
            <Time>2022-07-10T07:19:05.000Z</Time>
            <Position>
              <LatitudeDegrees>42.78391725383698940277099609375</LatitudeDegrees>
              <LongitudeDegrees>-0.1681190170347690582275390625</LongitudeDegrees>
            </Position>
            <AltitudeMeters>2300.39990234375</AltitudeMeters>
            <DistanceMeters>26941.281359103</DistanceMeters>
          </Trackpoint>
          <Trackpoint>
            <Time>2022-07-10T07:19:06.000Z</Time>
            <Position>
              <LatitudeDegrees>42.78391130268573760986328125</LatitudeDegrees>
              <LongitudeDegrees>-0.1681114733219146728515625</LongitudeDegrees>
            </Position>
            <AltitudeMeters>2300.39990234375</AltitudeMeters>
            <DistanceMeters>26942.182861671</DistanceMeters>
          </Trackpoint>
          <Trackpoint>
            <Time>2022-07-10T07:19:07.000Z</Time>
            <Position>
              <LatitudeDegrees>42.7839034236967563629150390625</LatitudeDegrees>
              <LongitudeDegrees>-0.1681076176464557647705078125</LongitudeDegrees>
            </Position>
            <AltitudeMeters>2300.60009765625</AltitudeMeters>
            <DistanceMeters>26943.11392952</DistanceMeters>
          </Trackpoint>
          <Trackpoint>
            <Time>2022-07-10T07:19:09.000Z</Time>
            <Position>
              <LatitudeDegrees>42.78388422913849353790283203125</LatitudeDegrees>
              <LongitudeDegrees>-0.168103091418743133544921875</LongitudeDegrees>
            </Position>
            <AltitudeMeters>2300.39990234375</AltitudeMeters>
            <DistanceMeters>26945.282954607</DistanceMeters>
          </Trackpoint>
          <Trackpoint>
            <Time>2022-07-10T07:19:14.000Z</Time>
            <Position>
              <LatitudeDegrees>42.78384164907038211822509765625</LatitudeDegrees>
              <LongitudeDegrees>-0.16812044195830821990966796875</LongitudeDegrees>
            </Position>
            <AltitudeMeters>2300.199951171875</AltitudeMeters>
            <DistanceMeters>26950.229823027</DistanceMeters>
          </Trackpoint>
          <Trackpoint>
            <Time>2022-07-10T07:19:16.000Z</Time>
            <Position>
              <LatitudeDegrees>42.78381549753248691558837890625</LatitudeDegrees>
              <LongitudeDegrees>-0.16813670285046100616455078125</LongitudeDegrees>
            </Position>
            <AltitudeMeters>2300.199951171875</AltitudeMeters>
            <DistanceMeters>26953.429839696</DistanceMeters>
          </Trackpoint>
          <Trackpoint>
            <Time>2022-07-10T07:19:20.000Z</Time>
            <Position>
              <LatitudeDegrees>42.78376302681863307952880859375</LatitudeDegrees>
              <LongitudeDegrees>-0.168161429464817047119140625</LongitudeDegrees>
            </Position>
            <AltitudeMeters>2300</AltitudeMeters>
            <DistanceMeters>26959.608768666</DistanceMeters>
          </Trackpoint>
          <Trackpoint>
            <Time>2022-07-10T07:19:24.000Z</Time>
            <Position>
              <LatitudeDegrees>42.78372346423566341400146484375</LatitudeDegrees>
              <LongitudeDegrees>-0.168145336210727691650390625</LongitudeDegrees>
            </Position>
            <AltitudeMeters>2299.800048828125</AltitudeMeters>
            <DistanceMeters>26964.203582995</DistanceMeters>
          </Trackpoint>
          <Trackpoint>
            <Time>2022-07-10T07:19:25.000Z</Time>
            <Position>
              <LatitudeDegrees>42.78370971791446208953857421875</LatitudeDegrees>
              <LongitudeDegrees>-0.16814424656331539154052734375</LongitudeDegrees>
            </Position>
            <AltitudeMeters>2300</AltitudeMeters>
            <DistanceMeters>26965.735842724</DistanceMeters>
          </Trackpoint>
          <Trackpoint>
            <Time>2022-07-10T07:19:27.000Z</Time>
            <Position>
              <LatitudeDegrees>42.78368105180561542510986328125</LatitudeDegrees>
              <LongitudeDegrees>-0.1681404747068881988525390625</LongitudeDegrees>
            </Position>
            <AltitudeMeters>2300.199951171875</AltitudeMeters>
            <DistanceMeters>26968.941498194</DistanceMeters>
          </Trackpoint>
          <Trackpoint>
            <Time>2022-07-10T07:19:32.000Z</Time>
            <Position>
              <LatitudeDegrees>42.78361223638057708740234375</LatitudeDegrees>
              <LongitudeDegrees>-0.16815061680972576141357421875</LongitudeDegrees>
            </Position>
            <AltitudeMeters>2300.39990234375</AltitudeMeters>
            <DistanceMeters>26976.645111787</DistanceMeters>
          </Trackpoint>
          <Trackpoint>
            <Time>2022-07-10T07:19:38.000Z</Time>
            <Position>
              <LatitudeDegrees>42.78353218920528888702392578125</LatitudeDegrees>
              <LongitudeDegrees>-0.1681579090654850006103515625</LongitudeDegrees>
            </Position>
            <AltitudeMeters>2300.199951171875</AltitudeMeters>
            <DistanceMeters>26985.574589655</DistanceMeters>
          </Trackpoint>
          <Trackpoint>
            <Time>2022-07-10T07:19:40.000Z</Time>
            <Position>
              <LatitudeDegrees>42.78351299464702606201171875</LatitudeDegrees>
              <LongitudeDegrees>-0.16814525239169597625732421875</LongitudeDegrees>
            </Position>
            <AltitudeMeters>2300.199951171875</AltitudeMeters>
            <DistanceMeters>26987.948356219</DistanceMeters>
          </Trackpoint>
          <Trackpoint>
            <Time>2022-07-10T07:19:45.000Z</Time>
            <Position>
              <LatitudeDegrees>42.783451974391937255859375</LatitudeDegrees>
              <LongitudeDegrees>-0.16811910085380077362060546875</LongitudeDegrees>
            </Position>
            <AltitudeMeters>2299.800048828125</AltitudeMeters>
            <DistanceMeters>26995.067119385</DistanceMeters>
          </Trackpoint>
          <Trackpoint>
            <Time>2022-07-10T07:19:46.000Z</Time>
            <Position>
              <LatitudeDegrees>42.7834357134997844696044921875</LatitudeDegrees>
              <LongitudeDegrees>-0.16811558045446872711181640625</LongitudeDegrees>
            </Position>
            <AltitudeMeters>2299.60009765625</AltitudeMeters>
            <DistanceMeters>26996.899928277</DistanceMeters>
          </Trackpoint>
          <Trackpoint>
            <Time>2022-07-10T07:19:52.000Z</Time>
            <Position>
              <LatitudeDegrees>42.783377207815647125244140625</LatitudeDegrees>
              <LongitudeDegrees>-0.16813284717500209808349609375</LongitudeDegrees>
            </Position>
            <AltitudeMeters>2299.199951171875</AltitudeMeters>
            <DistanceMeters>27003.562649628</DistanceMeters>
          </Trackpoint>
          <Trackpoint>
            <Time>2022-07-10T07:19:54.000Z</Time>
            <Position>
              <LatitudeDegrees>42.78336002491414546966552734375</LatitudeDegrees>
              <LongitudeDegrees>-0.168135277926921844482421875</LongitudeDegrees>
            </Position>
            <AltitudeMeters>2298.800048828125</AltitudeMeters>
            <DistanceMeters>27005.486793942</DistanceMeters>
          </Trackpoint>
          <Trackpoint>
            <Time>2022-07-10T07:19:55.000Z</Time>
            <Position>
              <LatitudeDegrees>42.78334979899227619171142578125</LatitudeDegrees>
              <LongitudeDegrees>-0.16813335008919239044189453125</LongitudeDegrees>
            </Position>
            <AltitudeMeters>2298.60009765625</AltitudeMeters>
            <DistanceMeters>27006.635006101</DistanceMeters>
          </Trackpoint>
          <Trackpoint>
            <Time>2022-07-10T07:19:58.000Z</Time>
            <Position>
              <LatitudeDegrees>42.78330386616289615631103515625</LatitudeDegrees>
              <LongitudeDegrees>-0.16812580637633800506591796875</LongitudeDegrees>
            </Position>
            <AltitudeMeters>2298.39990234375</AltitudeMeters>
            <DistanceMeters>27011.784016146</DistanceMeters>
          </Trackpoint>
          <Trackpoint>
            <Time>2022-07-10T07:20:03.000Z</Time>
            <Position>
              <LatitudeDegrees>42.7832499705255031585693359375</LatitudeDegrees>
              <LongitudeDegrees>-0.16810418106615543365478515625</LongitudeDegrees>
            </Position>
            <AltitudeMeters>2298</AltitudeMeters>
            <DistanceMeters>27018.037755913</DistanceMeters>
          </Trackpoint>
          <Trackpoint>
            <Time>2022-07-10T07:20:05.000Z</Time>
            <Position>
              <LatitudeDegrees>42.78322826139628887176513671875</LatitudeDegrees>
              <LongitudeDegrees>-0.1681139878928661346435546875</LongitudeDegrees>
            </Position>
            <AltitudeMeters>2297.60009765625</AltitudeMeters>
            <DistanceMeters>27020.58404633</DistanceMeters>
          </Trackpoint>
          <Trackpoint>
            <Time>2022-07-10T07:20:09.000Z</Time>
            <Position>
              <LatitudeDegrees>42.78319926001131534576416015625</LatitudeDegrees>
              <LongitudeDegrees>-0.16810485161840915679931640625</LongitudeDegrees>
            </Position>
            <AltitudeMeters>2296.800048828125</AltitudeMeters>
            <DistanceMeters>27023.897741089</DistanceMeters>
          </Trackpoint>
          <Trackpoint>
            <Time>2022-07-10T07:20:10.000Z</Time>
            <Position>
              <LatitudeDegrees>42.78318400494754314422607421875</LatitudeDegrees>
              <LongitudeDegrees>-0.1681096293032169342041015625</LongitudeDegrees>
            </Position>
            <AltitudeMeters>2296.60009765625</AltitudeMeters>
            <DistanceMeters>27025.639609535</DistanceMeters>
          </Trackpoint>
          <Trackpoint>
            <Time>2022-07-10T07:20:14.000Z</Time>
            <Position>
              <LatitudeDegrees>42.78313220478594303131103515625</LatitudeDegrees>
              <LongitudeDegrees>-0.16810082830488681793212890625</LongitudeDegrees>
            </Position>
            <AltitudeMeters>2295.199951171875</AltitudeMeters>
            <DistanceMeters>27031.44946545</DistanceMeters>
          </Trackpoint>
          <Trackpoint>
            <Time>2022-07-10T07:20:15.000Z</Time>
            <Position>
              <LatitudeDegrees>42.78312181122601032257080078125</LatitudeDegrees>
              <LongitudeDegrees>-0.16809697262942790985107421875</LongitudeDegrees>
            </Position>
            <AltitudeMeters>2295</AltitudeMeters>
            <DistanceMeters>27032.647706725</DistanceMeters>
          </Trackpoint>
          <Trackpoint>
            <Time>2022-07-10T07:20:17.000Z</Time>
            <Position>
              <LatitudeDegrees>42.78310001827776432037353515625</LatitudeDegrees>
              <LongitudeDegrees>-0.16808590851724147796630859375</LongitudeDegrees>
            </Position>
            <AltitudeMeters>2294.199951171875</AltitudeMeters>
            <DistanceMeters>27035.234458868</DistanceMeters>
          </Trackpoint>
          <Trackpoint>
            <Time>2022-07-10T07:20:19.000Z</Time>
            <Position>
              <LatitudeDegrees>42.783075459301471710205078125</LatitudeDegrees>
              <LongitudeDegrees>-0.16807987354695796966552734375</LongitudeDegrees>
            </Position>
            <AltitudeMeters>2293.800048828125</AltitudeMeters>
            <DistanceMeters>27038.011450996</DistanceMeters>
          </Trackpoint>
          <Trackpoint>
            <Time>2022-07-10T07:20:20.000Z</Time>
            <Position>
              <LatitudeDegrees>42.78306548483669757843017578125</LatitudeDegrees>
              <LongitudeDegrees>-0.1680764369666576385498046875</LongitudeDegrees>
            </Position>
            <AltitudeMeters>2293.800048828125</AltitudeMeters>
            <DistanceMeters>27039.159663155</DistanceMeters>
          </Trackpoint>
          <Trackpoint>
            <Time>2022-07-10T07:20:22.000Z</Time>
            <Position>
              <LatitudeDegrees>42.7830410934984683990478515625</LatitudeDegrees>
              <LongitudeDegrees>-0.1680844835937023162841796875</LongitudeDegrees>
            </Position>
            <AltitudeMeters>2293.199951171875</AltitudeMeters>
            <DistanceMeters>27041.952866701</DistanceMeters>
          </Trackpoint>
          <Trackpoint>
            <Time>2022-07-10T07:20:27.000Z</Time>
            <Position>
              <LatitudeDegrees>42.7829651534557342529296875</LatitudeDegrees>
              <LongitudeDegrees>-0.1681491918861865997314453125</LongitudeDegrees>
            </Position>
            <AltitudeMeters>2291.800048828125</AltitudeMeters>
            <DistanceMeters>27051.922070347</DistanceMeters>
          </Trackpoint>
          <Trackpoint>
            <Time>2022-07-10T07:20:28.000Z</Time>
            <Position>
              <LatitudeDegrees>42.78294998221099376678466796875</LatitudeDegrees>
              <LongitudeDegrees>-0.16816369257867336273193359375</LongitudeDegrees>
            </Position>
            <AltitudeMeters>2291.60009765625</AltitudeMeters>
            <DistanceMeters>27053.982200423</DistanceMeters>
          </Trackpoint>
          <Trackpoint>
            <Time>2022-07-10T07:20:34.000Z</Time>
            <Position>
              <LatitudeDegrees>42.78288024477660655975341796875</LatitudeDegrees>
              <LongitudeDegrees>-0.16819805838167667388916015625</LongitudeDegrees>
            </Position>
            <AltitudeMeters>2290.800048828125</AltitudeMeters>
            <DistanceMeters>27062.236407033</DistanceMeters>
          </Trackpoint>
          <Trackpoint>
            <Time>2022-07-10T07:20:35.000Z</Time>
            <Position>
              <LatitudeDegrees>42.78287203051149845123291015625</LatitudeDegrees>
              <LongitudeDegrees>-0.16819931566715240478515625</LongitudeDegrees>
            </Position>
            <AltitudeMeters>2290.800048828125</AltitudeMeters>
            <DistanceMeters>27063.157725211</DistanceMeters>
          </Trackpoint>
          <Trackpoint>
            <Time>2022-07-10T07:20:37.000Z</Time>
            <Position>
              <LatitudeDegrees>42.78285861946642398834228515625</LatitudeDegrees>
              <LongitudeDegrees>-0.1682001538574695587158203125</LongitudeDegrees>
            </Position>
            <AltitudeMeters>2290.60009765625</AltitudeMeters>
            <DistanceMeters>27064.654207406</DistanceMeters>
          </Trackpoint>
          <Trackpoint>
            <Time>2022-07-10T07:20:39.000Z</Time>
            <Position>
              <LatitudeDegrees>42.78284152038395404815673828125</LatitudeDegrees>
              <LongitudeDegrees>-0.1681833900511264801025390625</LongitudeDegrees>
            </Position>
            <AltitudeMeters>2290.39990234375</AltitudeMeters>
            <DistanceMeters>27066.997343441</DistanceMeters>
          </Trackpoint>
          <Trackpoint>
            <Time>2022-07-10T07:20:44.000Z</Time>
            <Position>
              <LatitudeDegrees>42.78280078433454036712646484375</LatitudeDegrees>
              <LongitudeDegrees>-0.16818665899336338043212890625</LongitudeDegrees>
            </Position>
            <AltitudeMeters>2290</AltitudeMeters>
            <DistanceMeters>27071.538785348</DistanceMeters>
          </Trackpoint>
          <Trackpoint>
            <Time>2022-07-10T07:20:50.000Z</Time>
            <Position>
              <LatitudeDegrees>42.78268494643270969390869140625</LatitudeDegrees>
              <LongitudeDegrees>-0.168174169957637786865234375</LongitudeDegrees>
            </Position>
            <AltitudeMeters>2289.800048828125</AltitudeMeters>
            <DistanceMeters>27084.472196965</DistanceMeters>
          </Trackpoint>
          <Trackpoint>
            <Time>2022-07-10T07:20:51.000Z</Time>
            <Position>
              <LatitudeDegrees>42.782668434083461761474609375</LatitudeDegrees>
              <LongitudeDegrees>-0.16816939227283000946044921875</LongitudeDegrees>
            </Position>
            <AltitudeMeters>2289.60009765625</AltitudeMeters>
            <DistanceMeters>27086.351228601</DistanceMeters>
          </Trackpoint>
          <Trackpoint>
            <Time>2022-07-10T07:20:57.000Z</Time>
            <Position>
              <LatitudeDegrees>42.78260045684874057769775390625</LatitudeDegrees>
              <LongitudeDegrees>-0.1681434921920299530029296875</LongitudeDegrees>
            </Position>
            <AltitudeMeters>2289.60009765625</AltitudeMeters>
            <DistanceMeters>27094.208047459</DistanceMeters>
          </Trackpoint>
          <Trackpoint>
            <Time>2022-07-10T07:21:03.000Z</Time>
            <Position>
              <LatitudeDegrees>42.78253105469048023223876953125</LatitudeDegrees>
              <LongitudeDegrees>-0.168134607374668121337890625</LongitudeDegrees>
            </Position>
            <AltitudeMeters>2288.800048828125</AltitudeMeters>
            <DistanceMeters>27101.966558242</DistanceMeters>
          </Trackpoint>
          <Trackpoint>
            <Time>2022-07-10T07:21:06.000Z</Time>
            <Position>
              <LatitudeDegrees>42.78248763643205165863037109375</LatitudeDegrees>
              <LongitudeDegrees>-0.16813896596431732177734375</LongitudeDegrees>
            </Position>
            <AltitudeMeters>2288.800048828125</AltitudeMeters>
            <DistanceMeters>27106.811988951</DistanceMeters>
          </Trackpoint>
          <Trackpoint>
            <Time>2022-07-10T07:21:10.000Z</Time>
            <Position>
              <LatitudeDegrees>42.78243541717529296875</LatitudeDegrees>
              <LongitudeDegrees>-0.16813452355563640594482421875</LongitudeDegrees>
            </Position>
            <AltitudeMeters>2288.199951171875</AltitudeMeters>
            <DistanceMeters>27112.635816483</DistanceMeters>
          </Trackpoint>
          <Trackpoint>
            <Time>2022-07-10T07:21:15.000Z</Time>
            <Position>
              <LatitudeDegrees>42.782365344464778900146484375</LatitudeDegrees>
              <LongitudeDegrees>-0.1681250520050525665283203125</LongitudeDegrees>
            </Position>
            <AltitudeMeters>2287.60009765625</AltitudeMeters>
            <DistanceMeters>27120.473648457</DistanceMeters>
          </Trackpoint>
          <Trackpoint>
            <Time>2022-07-10T07:21:17.000Z</Time>
            <Position>
              <LatitudeDegrees>42.78234061785042285919189453125</LatitudeDegrees>
              <LongitudeDegrees>-0.16812664456665515899658203125</LongitudeDegrees>
            </Position>
            <AltitudeMeters>2287.39990234375</AltitudeMeters>
            <DistanceMeters>27123.231061079</DistanceMeters>
          </Trackpoint>
          <Trackpoint>
            <Time>2022-07-10T07:21:23.000Z</Time>
            <Position>
              <LatitudeDegrees>42.782261073589324951171875</LatitudeDegrees>
              <LongitudeDegrees>-0.1681213639676570892333984375</LongitudeDegrees>
            </Position>
            <AltitudeMeters>2286.800048828125</AltitudeMeters>
            <DistanceMeters>27132.095072312</DistanceMeters>
          </Trackpoint>
          <Trackpoint>
            <Time>2022-07-10T07:21:24.000Z</Time>
            <Position>
              <LatitudeDegrees>42.7822461538016796112060546875</LatitudeDegrees>
              <LongitudeDegrees>-0.168120861053466796875</LongitudeDegrees>
            </Position>
            <AltitudeMeters>2286.800048828125</AltitudeMeters>
            <DistanceMeters>27133.757360912</DistanceMeters>
          </Trackpoint>
          <Trackpoint>
            <Time>2022-07-10T07:21:27.000Z</Time>
            <Position>
              <LatitudeDegrees>42.78219477273523807525634765625</LatitudeDegrees>
              <LongitudeDegrees>-0.1681230403482913970947265625</LongitudeDegrees>
            </Position>
            <AltitudeMeters>2286.60009765625</AltitudeMeters>
            <DistanceMeters>27139.479515855</DistanceMeters>
          </Trackpoint>
          <Trackpoint>
            <Time>2022-07-10T07:21:30.000Z</Time>
            <Position>
              <LatitudeDegrees>42.78216828592121601104736328125</LatitudeDegrees>
              <LongitudeDegrees>-0.16812689602375030517578125</LongitudeDegrees>
            </Position>
            <AltitudeMeters>2286</AltitudeMeters>
            <DistanceMeters>27142.445202024</DistanceMeters>
          </Trackpoint>
          <Trackpoint>
            <Time>2022-07-10T07:21:31.000Z</Time>
            <Position>
              <LatitudeDegrees>42.782158814370632171630859375</LatitudeDegrees>
              <LongitudeDegrees>-0.16813200898468494415283203125</LongitudeDegrees>
            </Position>
            <AltitudeMeters>2286</AltitudeMeters>
            <DistanceMeters>27143.577576015</DistanceMeters>
          </Trackpoint>
          <Trackpoint>
            <Time>2022-07-10T07:21:34.000Z</Time>
            <Position>
              <LatitudeDegrees>42.7821175754070281982421875</LatitudeDegrees>
              <LongitudeDegrees>-0.168151371181011199951171875</LongitudeDegrees>
            </Position>
            <AltitudeMeters>2285.800048828125</AltitudeMeters>
            <DistanceMeters>27148.432315917</DistanceMeters>
          </Trackpoint>
          <Trackpoint>
            <Time>2022-07-10T07:21:36.000Z</Time>
            <Position>
              <LatitudeDegrees>42.7820889092981815338134765625</LatitudeDegrees>
              <LongitudeDegrees>-0.1681595854461193084716796875</LongitudeDegrees>
            </Position>
            <AltitudeMeters>2285.800048828125</AltitudeMeters>
            <DistanceMeters>27151.693823246</DistanceMeters>
          </Trackpoint>
          <Trackpoint>
            <Time>2022-07-10T07:21:37.000Z</Time>
            <Position>
              <LatitudeDegrees>42.782077006995677947998046875</LatitudeDegrees>
              <LongitudeDegrees>-0.168159417808055877685546875</LongitudeDegrees>
            </Position>
            <AltitudeMeters>2285.60009765625</AltitudeMeters>
            <DistanceMeters>27153.01739222</DistanceMeters>
          </Trackpoint>
          <Trackpoint>
            <Time>2022-07-10T07:21:38.000Z</Time>
            <Position>
              <LatitudeDegrees>42.78206460177898406982421875</LatitudeDegrees>
              <LongitudeDegrees>-0.168155729770660400390625</LongitudeDegrees>
            </Position>
            <AltitudeMeters>2285.39990234375</AltitudeMeters>
            <DistanceMeters>27154.430065889</DistanceMeters>
          </Trackpoint>
          <Trackpoint>
            <Time>2022-07-10T07:21:43.000Z</Time>
            <Position>
              <LatitudeDegrees>42.7820057608187198638916015625</LatitudeDegrees>
              <LongitudeDegrees>-0.16816754825413227081298828125</LongitudeDegrees>
            </Position>
            <AltitudeMeters>2285</AltitudeMeters>
            <DistanceMeters>27161.049275124</DistanceMeters>
          </Trackpoint>
          <Trackpoint>
            <Time>2022-07-10T07:21:46.000Z</Time>
            <Position>
              <LatitudeDegrees>42.7819628454744815826416015625</LatitudeDegrees>
              <LongitudeDegrees>-0.1681838929653167724609375</LongitudeDegrees>
            </Position>
            <AltitudeMeters>2284.60009765625</AltitudeMeters>
            <DistanceMeters>27166.007083923</DistanceMeters>
          </Trackpoint>
          <Trackpoint>
            <Time>2022-07-10T07:21:48.000Z</Time>
            <Position>
              <LatitudeDegrees>42.78193241916596889495849609375</LatitudeDegrees>
              <LongitudeDegrees>-0.1681900955736637115478515625</LongitudeDegrees>
            </Position>
            <AltitudeMeters>2283.800048828125</AltitudeMeters>
            <DistanceMeters>27169.433320835</DistanceMeters>
          </Trackpoint>
          <Trackpoint>
            <Time>2022-07-10T07:21:50.000Z</Time>
            <Position>
              <LatitudeDegrees>42.78190224431455135345458984375</LatitudeDegrees>
              <LongitudeDegrees>-0.16820124350488185882568359375</LongitudeDegrees>
            </Position>
            <AltitudeMeters>2283.39990234375</AltitudeMeters>
            <DistanceMeters>27172.914464697</DistanceMeters>
          </Trackpoint>
          <Trackpoint>
            <Time>2022-07-10T07:21:53.000Z</Time>
            <Position>
              <LatitudeDegrees>42.7818528749048709869384765625</LatitudeDegrees>
              <LongitudeDegrees>-0.16822521574795246124267578125</LongitudeDegrees>
            </Position>
            <AltitudeMeters>2283</AltitudeMeters>
            <DistanceMeters>27178.747588049</DistanceMeters>
          </Trackpoint>
          <Trackpoint>
            <Time>2022-07-10T07:21:57.000Z</Time>
            <Position>
              <LatitudeDegrees>42.7818062715232372283935546875</LatitudeDegrees>
              <LongitudeDegrees>-0.1682219468057155609130859375</LongitudeDegrees>
            </Position>
            <AltitudeMeters>2282.39990234375</AltitudeMeters>
            <DistanceMeters>27183.941995466</DistanceMeters>
          </Trackpoint>
          <Trackpoint>
            <Time>2022-07-10T07:22:01.000Z</Time>
            <Position>
              <LatitudeDegrees>42.7817529626190662384033203125</LatitudeDegrees>
              <LongitudeDegrees>-0.16820794902741909027099609375</LongitudeDegrees>
            </Position>
            <AltitudeMeters>2281.800048828125</AltitudeMeters>
            <DistanceMeters>27189.984977274</DistanceMeters>
          </Trackpoint>
          <Trackpoint>
            <Time>2022-07-10T07:22:04.000Z</Time>
            <Position>
              <LatitudeDegrees>42.781706862151622772216796875</LatitudeDegrees>
              <LongitudeDegrees>-0.1682152412831783294677734375</LongitudeDegrees>
            </Position>
            <AltitudeMeters>2281.60009765625</AltitudeMeters>
            <DistanceMeters>27195.151495054</DistanceMeters>
          </Trackpoint>
          <Trackpoint>
            <Time>2022-07-10T07:22:08.000Z</Time>
            <Position>
              <LatitudeDegrees>42.78165061958134174346923828125</LatitudeDegrees>
              <LongitudeDegrees>-0.16821851022541522979736328125</LongitudeDegrees>
            </Position>
            <AltitudeMeters>2281.39990234375</AltitudeMeters>
            <DistanceMeters>27201.417496361</DistanceMeters>
          </Trackpoint>
          <Trackpoint>
            <Time>2022-07-10T07:22:09.000Z</Time>
            <Position>
              <LatitudeDegrees>42.7816403098404407501220703125</LatitudeDegrees>
              <LongitudeDegrees>-0.1682159118354320526123046875</LongitudeDegrees>
            </Position>
            <AltitudeMeters>2281.39990234375</AltitudeMeters>
            <DistanceMeters>27202.581331172</DistanceMeters>
          </Trackpoint>
          <Trackpoint>
            <Time>2022-07-10T07:22:15.000Z</Time>
            <Position>
              <LatitudeDegrees>42.78158138506114482879638671875</LatitudeDegrees>
              <LongitudeDegrees>-0.1681857369840145111083984375</LongitudeDegrees>
            </Position>
            <AltitudeMeters>2280.39990234375</AltitudeMeters>
            <DistanceMeters>27209.587578066</DistanceMeters>
          </Trackpoint>
          <Trackpoint>
            <Time>2022-07-10T07:22:16.000Z</Time>
            <Position>
              <LatitudeDegrees>42.78156965039670467376708984375</LatitudeDegrees>
              <LongitudeDegrees>-0.168180204927921295166015625</LongitudeDegrees>
            </Position>
            <AltitudeMeters>2280.39990234375</AltitudeMeters>
            <DistanceMeters>27210.971187913</DistanceMeters>
          </Trackpoint>
          <Trackpoint>
            <Time>2022-07-10T07:22:17.000Z</Time>
            <Position>
              <LatitudeDegrees>42.7815564908087253570556640625</LatitudeDegrees>
              <LongitudeDegrees>-0.16817593015730381011962890625</LongitudeDegrees>
            </Position>
            <AltitudeMeters>2280.199951171875</AltitudeMeters>
            <DistanceMeters>27212.473692192</DistanceMeters>
          </Trackpoint>
          <Trackpoint>
            <Time>2022-07-10T07:22:18.000Z</Time>
            <Position>
              <LatitudeDegrees>42.78154098428785800933837890625</LatitudeDegrees>
              <LongitudeDegrees>-0.1681753434240818023681640625</LongitudeDegrees>
            </Position>
            <AltitudeMeters>2280.199951171875</AltitudeMeters>
            <DistanceMeters>27214.199938185</DistanceMeters>
          </Trackpoint>
          <Trackpoint>
            <Time>2022-07-10T07:22:22.000Z</Time>
            <Position>
              <LatitudeDegrees>42.78146856464445590972900390625</LatitudeDegrees>
              <LongitudeDegrees>-0.16819722019135951995849609375</LongitudeDegrees>
            </Position>
            <AltitudeMeters>2280</AltitudeMeters>
            <DistanceMeters>27222.456879335</DistanceMeters>
          </Trackpoint>
          <Trackpoint>
            <Time>2022-07-10T07:22:28.000Z</Time>
            <Position>
              <LatitudeDegrees>42.78138776309788227081298828125</LatitudeDegrees>
              <LongitudeDegrees>-0.168219767510890960693359375</LongitudeDegrees>
            </Position>
            <AltitudeMeters>2279.199951171875</AltitudeMeters>
            <DistanceMeters>27231.636676357</DistanceMeters>
          </Trackpoint>
          <Trackpoint>
            <Time>2022-07-10T07:22:29.000Z</Time>
            <Position>
              <LatitudeDegrees>42.78137150220572948455810546875</LatitudeDegrees>
              <LongitudeDegrees>-0.16822278499603271484375</LongitudeDegrees>
            </Position>
            <AltitudeMeters>2279</AltitudeMeters>
            <DistanceMeters>27233.459604807</DistanceMeters>
          </Trackpoint>
          <Trackpoint>
            <Time>2022-07-10T07:22:35.000Z</Time>
            <Position>
              <LatitudeDegrees>42.7812725119292736053466796875</LatitudeDegrees>
              <LongitudeDegrees>-0.1682246290147304534912109375</LongitudeDegrees>
            </Position>
            <AltitudeMeters>2278.800048828125</AltitudeMeters>
            <DistanceMeters>27244.478606933</DistanceMeters>
          </Trackpoint>
          <Trackpoint>
            <Time>2022-07-10T07:22:37.000Z</Time>
            <Position>
              <LatitudeDegrees>42.78123822994530200958251953125</LatitudeDegrees>
              <LongitudeDegrees>-0.16822907142341136932373046875</LongitudeDegrees>
            </Position>
            <AltitudeMeters>2278.60009765625</AltitudeMeters>
            <DistanceMeters>27248.311612852</DistanceMeters>
          </Trackpoint>
          <Trackpoint>
            <Time>2022-07-10T07:22:42.000Z</Time>
            <Position>
              <LatitudeDegrees>42.78115608729422092437744140625</LatitudeDegrees>
              <LongitudeDegrees>-0.16824818216264247894287109375</LongitudeDegrees>
            </Position>
            <AltitudeMeters>2278</AltitudeMeters>
            <DistanceMeters>27257.58633701</DistanceMeters>
          </Trackpoint>
          <Trackpoint>
            <Time>2022-07-10T07:22:43.000Z</Time>
            <Position>
              <LatitudeDegrees>42.78114259243011474609375</LatitudeDegrees>
              <LongitudeDegrees>-0.16824801452457904815673828125</LongitudeDegrees>
            </Position>
            <AltitudeMeters>2278</AltitudeMeters>
            <DistanceMeters>27259.08884129</DistanceMeters>
          </Trackpoint>
          <Trackpoint>
            <Time>2022-07-10T07:22:49.000Z</Time>
            <Position>
              <LatitudeDegrees>42.7810710109770298004150390625</LatitudeDegrees>
              <LongitudeDegrees>-0.16822571866214275360107421875</LongitudeDegrees>
            </Position>
            <AltitudeMeters>2277</AltitudeMeters>
            <DistanceMeters>27267.261691188</DistanceMeters>
          </Trackpoint>
          <Trackpoint>
            <Time>2022-07-10T07:22:50.000Z</Time>
            <Position>
              <LatitudeDegrees>42.78105567209422588348388671875</LatitudeDegrees>
              <LongitudeDegrees>-0.16822337172925472259521484375</LongitudeDegrees>
            </Position>
            <AltitudeMeters>2276.800048828125</AltitudeMeters>
            <DistanceMeters>27268.982698182</DistanceMeters>
          </Trackpoint>
          <Trackpoint>
            <Time>2022-07-10T07:22:52.000Z</Time>
            <Position>
              <LatitudeDegrees>42.78103329241275787353515625</LatitudeDegrees>
              <LongitudeDegrees>-0.1682169176638126373291015625</LongitudeDegrees>
            </Position>
            <AltitudeMeters>2276</AltitudeMeters>
            <DistanceMeters>27271.528988599</DistanceMeters>
          </Trackpoint>
          <Trackpoint>
            <Time>2022-07-10T07:22:55.000Z</Time>
            <Position>
              <LatitudeDegrees>42.78099096380174160003662109375</LatitudeDegrees>
              <LongitudeDegrees>-0.16819621436297893524169921875</LongitudeDegrees>
            </Position>
            <AltitudeMeters>2274.800048828125</AltitudeMeters>
            <DistanceMeters>27276.534831398</DistanceMeters>
          </Trackpoint>
          <Trackpoint>
            <Time>2022-07-10T07:22:56.000Z</Time>
            <Position>
              <LatitudeDegrees>42.7809734456241130828857421875</LatitudeDegrees>
              <LongitudeDegrees>-0.168194286525249481201171875</LongitudeDegrees>
            </Position>
            <AltitudeMeters>2274.60009765625</AltitudeMeters>
            <DistanceMeters>27278.491551207</DistanceMeters>
          </Trackpoint>
          <Trackpoint>
            <Time>2022-07-10T07:23:00.000Z</Time>
            <Position>
              <LatitudeDegrees>42.78091351501643657684326171875</LatitudeDegrees>
              <LongitudeDegrees>-0.16819554381072521209716796875</LongitudeDegrees>
            </Position>
            <AltitudeMeters>2273.60009765625</AltitudeMeters>
            <DistanceMeters>27285.162399483</DistanceMeters>
          </Trackpoint>
          <Trackpoint>
            <Time>2022-07-10T07:23:04.000Z</Time>
            <Position>
              <LatitudeDegrees>42.78087101876735687255859375</LatitudeDegrees>
              <LongitudeDegrees>-0.1682174205780029296875</LongitudeDegrees>
            </Position>
            <AltitudeMeters>2272.60009765625</AltitudeMeters>
            <DistanceMeters>27290.219392314</DistanceMeters>
          </Trackpoint>
          <Trackpoint>
            <Time>2022-07-10T07:23:07.000Z</Time>
            <Position>
              <LatitudeDegrees>42.7808604575693607330322265625</LatitudeDegrees>
              <LongitudeDegrees>-0.1682581566274166107177734375</LongitudeDegrees>
            </Position>
            <AltitudeMeters>2272.39990234375</AltitudeMeters>
            <DistanceMeters>27293.749478076</DistanceMeters>
          </Trackpoint>
          <Trackpoint>
            <Time>2022-07-10T07:23:10.000Z</Time>
            <Position>
              <LatitudeDegrees>42.78085450641810894012451171875</LatitudeDegrees>
              <LongitudeDegrees>-0.16826947219669818878173828125</LongitudeDegrees>
            </Position>
            <AltitudeMeters>2271.60009765625</AltitudeMeters>
            <DistanceMeters>27294.889798649</DistanceMeters>
          </Trackpoint>
          <Trackpoint>
            <Time>2022-07-10T07:23:12.000Z</Time>
            <Position>
              <LatitudeDegrees>42.780845873057842254638671875</LatitudeDegrees>
              <LongitudeDegrees>-0.16826930455863475799560546875</LongitudeDegrees>
            </Position>
            <AltitudeMeters>2271.39990234375</AltitudeMeters>
            <DistanceMeters>27295.84952142</DistanceMeters>
          </Trackpoint>
          <Trackpoint>
            <Time>2022-07-10T07:23:16.000Z</Time>
            <Position>
              <LatitudeDegrees>42.78081209398806095123291015625</LatitudeDegrees>
              <LongitudeDegrees>-0.16824885271489620208740234375</LongitudeDegrees>
            </Position>
            <AltitudeMeters>2270</AltitudeMeters>
            <DistanceMeters>27299.963201434</DistanceMeters>
          </Trackpoint>
          <Trackpoint>
            <Time>2022-07-10T07:23:17.000Z</Time>
            <Position>
              <LatitudeDegrees>42.78080605901777744293212890625</LatitudeDegrees>
              <LongitudeDegrees>-0.1682437397539615631103515625</LongitudeDegrees>
            </Position>
            <AltitudeMeters>2269.800048828125</AltitudeMeters>
            <DistanceMeters>27300.746811795</DistanceMeters>
          </Trackpoint>
          <Trackpoint>
            <Time>2022-07-10T07:23:18.000Z</Time>
            <Position>
              <LatitudeDegrees>42.78080253861844539642333984375</LatitudeDegrees>
              <LongitudeDegrees>-0.16824549995362758636474609375</LongitudeDegrees>
            </Position>
            <AltitudeMeters>2269.199951171875</AltitudeMeters>
            <DistanceMeters>27301.16102364</DistanceMeters>
          </Trackpoint>
          <Trackpoint>
            <Time>2022-07-10T07:23:19.000Z</Time>
            <Position>
              <LatitudeDegrees>42.7807994373142719268798828125</LatitudeDegrees>
              <LongitudeDegrees>-0.16824784688651561737060546875</LongitudeDegrees>
            </Position>
            <AltitudeMeters>2269</AltitudeMeters>
            <DistanceMeters>27301.55282882</DistanceMeters>
          </Trackpoint>
          <Trackpoint>
            <Time>2022-07-10T07:23:23.000Z</Time>
            <Position>
              <LatitudeDegrees>42.7807840146124362945556640625</LatitudeDegrees>
              <LongitudeDegrees>-0.16827064566314220428466796875</LongitudeDegrees>
            </Position>
            <AltitudeMeters>2268</AltitudeMeters>
            <DistanceMeters>27304.08489404</DistanceMeters>
          </Trackpoint>
          <Trackpoint>
            <Time>2022-07-10T07:23:25.000Z</Time>
            <Position>
              <LatitudeDegrees>42.78076909482479095458984375</LatitudeDegrees>
              <LongitudeDegrees>-0.16826360486447811126708984375</LongitudeDegrees>
            </Position>
            <AltitudeMeters>2267.39990234375</AltitudeMeters>
            <DistanceMeters>27305.842246066</DistanceMeters>
          </Trackpoint>
          <Trackpoint>
            <Time>2022-07-10T07:23:27.000Z</Time>
            <Position>
              <LatitudeDegrees>42.7807488106191158294677734375</LatitudeDegrees>
              <LongitudeDegrees>-0.16825354658067226409912109375</LongitudeDegrees>
            </Position>
            <AltitudeMeters>2266.60009765625</AltitudeMeters>
            <DistanceMeters>27308.246252914</DistanceMeters>
          </Trackpoint>
          <Trackpoint>
            <Time>2022-07-10T07:23:29.000Z</Time>
            <Position>
              <LatitudeDegrees>42.78072609566152095794677734375</LatitudeDegrees>
              <LongitudeDegrees>-0.1682509481906890869140625</LongitudeDegrees>
            </Position>
            <AltitudeMeters>2265.800048828125</AltitudeMeters>
            <DistanceMeters>27310.781881914</DistanceMeters>
          </Trackpoint>
          <Trackpoint>
            <Time>2022-07-10T07:23:30.000Z</Time>
            <Position>
              <LatitudeDegrees>42.78071838431060314178466796875</LatitudeDegrees>
              <LongitudeDegrees>-0.16824902035295963287353515625</LongitudeDegrees>
            </Position>
            <AltitudeMeters>2265.199951171875</AltitudeMeters>
            <DistanceMeters>27311.66312341</DistanceMeters>
          </Trackpoint>
          <Trackpoint>
            <Time>2022-07-10T07:23:31.000Z</Time>
            <Position>
              <LatitudeDegrees>42.78071268461644649505615234375</LatitudeDegrees>
              <LongitudeDegrees>-0.1682460866868495941162109375</LongitudeDegrees>
            </Position>
            <AltitudeMeters>2265</AltitudeMeters>
            <DistanceMeters>27312.348370793</DistanceMeters>
          </Trackpoint>
          <Trackpoint>
            <Time>2022-07-10T07:23:34.000Z</Time>
            <Position>
              <LatitudeDegrees>42.78069407679140567779541015625</LatitudeDegrees>
              <LongitudeDegrees>-0.16823351383209228515625</LongitudeDegrees>
            </Position>
            <AltitudeMeters>2264.199951171875</AltitudeMeters>
            <DistanceMeters>27314.660470543</DistanceMeters>
          </Trackpoint>
          <Trackpoint>
            <Time>2022-07-10T07:23:37.000Z</Time>
            <Position>
              <LatitudeDegrees>42.7806723676621913909912109375</LatitudeDegrees>
              <LongitudeDegrees>-0.168237872421741485595703125</LongitudeDegrees>
            </Position>
            <AltitudeMeters>2263</AltitudeMeters>
            <DistanceMeters>27317.103599792</DistanceMeters>
          </Trackpoint>
          <Trackpoint>
            <Time>2022-07-10T07:23:38.000Z</Time>
            <Position>
              <LatitudeDegrees>42.780664823949337005615234375</LatitudeDegrees>
              <LongitudeDegrees>-0.16823544166982173919677734375</LongitudeDegrees>
            </Position>
            <AltitudeMeters>2262.60009765625</AltitudeMeters>
            <DistanceMeters>27317.964103289</DistanceMeters>
          </Trackpoint>
          <Trackpoint>
            <Time>2022-07-10T07:23:40.000Z</Time>
            <Position>
              <LatitudeDegrees>42.78065082617104053497314453125</LatitudeDegrees>
              <LongitudeDegrees>-0.1682296581566333770751953125</LongitudeDegrees>
            </Position>
            <AltitudeMeters>2261.800048828125</AltitudeMeters>
            <DistanceMeters>27319.593472024</DistanceMeters>
          </Trackpoint>
          <Trackpoint>
            <Time>2022-07-10T07:23:42.000Z</Time>
            <Position>
              <LatitudeDegrees>42.78063640929758548736572265625</LatitudeDegrees>
              <LongitudeDegrees>-0.16822169534862041473388671875</LongitudeDegrees>
            </Position>
            <AltitudeMeters>2261.39990234375</AltitudeMeters>
            <DistanceMeters>27321.324941163</DistanceMeters>
          </Trackpoint>
          <Trackpoint>
            <Time>2022-07-10T07:23:45.000Z</Time>
            <Position>
              <LatitudeDegrees>42.78061478398740291595458984375</LatitudeDegrees>
              <LongitudeDegrees>-0.1682082004845142364501953125</LongitudeDegrees>
            </Position>
            <AltitudeMeters>2260.39990234375</AltitudeMeters>
            <DistanceMeters>27323.972079112</DistanceMeters>
          </Trackpoint>
          <Trackpoint>
            <Time>2022-07-10T07:23:47.000Z</Time>
            <Position>
              <LatitudeDegrees>42.780599109828472137451171875</LatitudeDegrees>
              <LongitudeDegrees>-0.16820509918034076690673828125</LongitudeDegrees>
            </Position>
            <AltitudeMeters>2259.60009765625</AltitudeMeters>
            <DistanceMeters>27325.731998491</DistanceMeters>
          </Trackpoint>
          <Trackpoint>
            <Time>2022-07-10T07:23:48.000Z</Time>
            <Position>
              <LatitudeDegrees>42.78059081174433231353759765625</LatitudeDegrees>
              <LongitudeDegrees>-0.16820409335196018218994140625</LongitudeDegrees>
            </Position>
            <AltitudeMeters>2259.199951171875</AltitudeMeters>
            <DistanceMeters>27326.658204333</DistanceMeters>
          </Trackpoint>
          <Trackpoint>
            <Time>2022-07-10T07:23:52.000Z</Time>
            <Position>
              <LatitudeDegrees>42.78055611066520214080810546875</LatitudeDegrees>
              <LongitudeDegrees>-0.16819453798234462738037109375</LongitudeDegrees>
            </Position>
            <AltitudeMeters>2258.199951171875</AltitudeMeters>
            <DistanceMeters>27330.598090297</DistanceMeters>
          </Trackpoint>
          <Trackpoint>
            <Time>2022-07-10T07:23:55.000Z</Time>
            <Position>
              <LatitudeDegrees>42.780516631901264190673828125</LatitudeDegrees>
              <LongitudeDegrees>-0.168190933763980865478515625</LongitudeDegrees>
            </Position>
            <AltitudeMeters>2257.39990234375</AltitudeMeters>
            <DistanceMeters>27335.003272958</DistanceMeters>
          </Trackpoint>
          <Trackpoint>
            <Time>2022-07-10T07:23:56.000Z</Time>
            <Position>
              <LatitudeDegrees>42.78049911372363567352294921875</LatitudeDegrees>
              <LongitudeDegrees>-0.1681840606033802032470703125</LongitudeDegrees>
            </Position>
            <AltitudeMeters>2256.800048828125</AltitudeMeters>
            <DistanceMeters>27337.032488289</DistanceMeters>
          </Trackpoint>
          <Trackpoint>
            <Time>2022-07-10T07:23:58.000Z</Time>
            <Position>
              <LatitudeDegrees>42.780477069318294525146484375</LatitudeDegrees>
              <LongitudeDegrees>-0.16816335730254650115966796875</LongitudeDegrees>
            </Position>
            <AltitudeMeters>2255.800048828125</AltitudeMeters>
            <DistanceMeters>27340.013359843</DistanceMeters>
          </Trackpoint>
          <Trackpoint>
            <Time>2022-07-10T07:23:59.000Z</Time>
            <Position>
              <LatitudeDegrees>42.78046776540577411651611328125</LatitudeDegrees>
              <LongitudeDegrees>-0.16815430484712123870849609375</LongitudeDegrees>
            </Position>
            <AltitudeMeters>2255.60009765625</AltitudeMeters>
            <DistanceMeters>27341.281174343</DistanceMeters>
          </Trackpoint>
          <Trackpoint>
            <Time>2022-07-10T07:24:00.000Z</Time>
            <Position>
              <LatitudeDegrees>42.78045938350260257720947265625</LatitudeDegrees>
              <LongitudeDegrees>-0.16814776696264743804931640625</LongitudeDegrees>
            </Position>
            <AltitudeMeters>2255.199951171875</AltitudeMeters>
            <DistanceMeters>27342.356278889</DistanceMeters>
          </Trackpoint>
          <Trackpoint>
            <Time>2022-07-10T07:24:03.000Z</Time>
            <Position>
              <LatitudeDegrees>42.780439853668212890625</LatitudeDegrees>
              <LongitudeDegrees>-0.16814701259136199951171875</LongitudeDegrees>
            </Position>
            <AltitudeMeters>2254.60009765625</AltitudeMeters>
            <DistanceMeters>27344.531539806</DistanceMeters>
          </Trackpoint>
          <Trackpoint>
            <Time>2022-07-10T07:24:07.000Z</Time>
            <Position>
              <LatitudeDegrees>42.78041579760611057281494140625</LatitudeDegrees>
              <LongitudeDegrees>-0.16815933398902416229248046875</LongitudeDegrees>
            </Position>
            <AltitudeMeters>2253.60009765625</AltitudeMeters>
            <DistanceMeters>27347.391828123</DistanceMeters>
          </Trackpoint>
          <Trackpoint>
            <Time>2022-07-10T07:24:08.000Z</Time>
            <Position>
              <LatitudeDegrees>42.78041076846420764923095703125</LatitudeDegrees>
              <LongitudeDegrees>-0.16816402785480022430419921875</LongitudeDegrees>
            </Position>
            <AltitudeMeters>2253.199951171875</AltitudeMeters>
            <DistanceMeters>27348.063768464</DistanceMeters>
          </Trackpoint>
          <Trackpoint>
            <Time>2022-07-10T07:24:11.000Z</Time>
            <Position>
              <LatitudeDegrees>42.78040163218975067138671875</LatitudeDegrees>
              <LongitudeDegrees>-0.16819185577332973480224609375</LongitudeDegrees>
            </Position>
            <AltitudeMeters>2252.199951171875</AltitudeMeters>
            <DistanceMeters>27350.552670319</DistanceMeters>
          </Trackpoint>
          <Trackpoint>
            <Time>2022-07-10T07:24:14.000Z</Time>
            <Position>
              <LatitudeDegrees>42.780373133718967437744140625</LatitudeDegrees>
              <LongitudeDegrees>-0.1681823842227458953857421875</LongitudeDegrees>
            </Position>
            <AltitudeMeters>2251.800048828125</AltitudeMeters>
            <DistanceMeters>27353.816945155</DistanceMeters>
          </Trackpoint>
          <Trackpoint>
            <Time>2022-07-10T07:24:15.000Z</Time>
            <Position>
              <LatitudeDegrees>42.7803598903119564056396484375</LatitudeDegrees>
              <LongitudeDegrees>-0.1681726612150669097900390625</LongitudeDegrees>
            </Position>
            <AltitudeMeters>2251.60009765625</AltitudeMeters>
            <DistanceMeters>27355.495451589</DistanceMeters>
          </Trackpoint>
          <Trackpoint>
            <Time>2022-07-10T07:24:18.000Z</Time>
            <Position>
              <LatitudeDegrees>42.78032544068992137908935546875</LatitudeDegrees>
              <LongitudeDegrees>-0.16813988797366619110107421875</LongitudeDegrees>
            </Position>
            <AltitudeMeters>2251</AltitudeMeters>
            <DistanceMeters>27360.172079129</DistanceMeters>
          </Trackpoint>
          <Trackpoint>
            <Time>2022-07-10T07:24:23.000Z</Time>
            <Position>
              <LatitudeDegrees>42.780281603336334228515625</LatitudeDegrees>
              <LongitudeDegrees>-0.16808356158435344696044921875</LongitudeDegrees>
            </Position>
            <AltitudeMeters>2250.800048828125</AltitudeMeters>
            <DistanceMeters>27366.878030269</DistanceMeters>
          </Trackpoint>
          <Trackpoint>
            <Time>2022-07-10T07:24:25.000Z</Time>
            <Position>
              <LatitudeDegrees>42.78028219006955623626708984375</LatitudeDegrees>
              <LongitudeDegrees>-0.168058834969997406005859375</LongitudeDegrees>
            </Position>
            <AltitudeMeters>2251</AltitudeMeters>
            <DistanceMeters>27368.898325929</DistanceMeters>
          </Trackpoint>
          <Trackpoint>
            <Time>2022-07-10T07:24:28.000Z</Time>
            <Position>
              <LatitudeDegrees>42.780281603336334228515625</LatitudeDegrees>
              <LongitudeDegrees>-0.16801952384412288665771484375</LongitudeDegrees>
            </Position>
            <AltitudeMeters>2251.39990234375</AltitudeMeters>
            <DistanceMeters>27372.109610298</DistanceMeters>
          </Trackpoint>
          <Trackpoint>
            <Time>2022-07-10T07:24:31.000Z</Time>
            <Position>
              <LatitudeDegrees>42.7802784182131290435791015625</LatitudeDegrees>
              <LongitudeDegrees>-0.1679802127182483673095703125</LongitudeDegrees>
            </Position>
            <AltitudeMeters>2251.60009765625</AltitudeMeters>
            <DistanceMeters>27375.340518586</DistanceMeters>
          </Trackpoint>
          <Trackpoint>
            <Time>2022-07-10T07:24:34.000Z</Time>
            <Position>
              <LatitudeDegrees>42.78026995249092578887939453125</LatitudeDegrees>
              <LongitudeDegrees>-0.1679235510528087615966796875</LongitudeDegrees>
            </Position>
            <AltitudeMeters>2251.800048828125</AltitudeMeters>
            <DistanceMeters>27380.063260249</DistanceMeters>
          </Trackpoint>
          <Trackpoint>
            <Time>2022-07-10T07:24:35.000Z</Time>
            <Position>
              <LatitudeDegrees>42.78026106767356395721435546875</LatitudeDegrees>
              <LongitudeDegrees>-0.167907290160655975341796875</LongitudeDegrees>
            </Position>
            <AltitudeMeters>2251.800048828125</AltitudeMeters>
            <DistanceMeters>27381.720107629</DistanceMeters>
          </Trackpoint>
          <Trackpoint>
            <Time>2022-07-10T07:24:38.000Z</Time>
            <Position>
              <LatitudeDegrees>42.78023541904985904693603515625</LatitudeDegrees>
              <LongitudeDegrees>-0.1678541488945484161376953125</LongitudeDegrees>
            </Position>
            <AltitudeMeters>2252</AltitudeMeters>
            <DistanceMeters>27386.916253178</DistanceMeters>
          </Trackpoint>
          <Trackpoint>
            <Time>2022-07-10T07:24:42.000Z</Time>
            <Position>
              <LatitudeDegrees>42.78020448982715606689453125</LatitudeDegrees>
              <LongitudeDegrees>-0.16781064681708812713623046875</LongitudeDegrees>
            </Position>
            <AltitudeMeters>2251.800048828125</AltitudeMeters>
            <DistanceMeters>27391.863121598</DistanceMeters>
          </Trackpoint>
          <Trackpoint>
            <Time>2022-07-10T07:24:44.000Z</Time>
            <Position>
              <LatitudeDegrees>42.78021966107189655303955078125</LatitudeDegrees>
              <LongitudeDegrees>-0.16778449527919292449951171875</LongitudeDegrees>
            </Position>
            <AltitudeMeters>2252.199951171875</AltitudeMeters>
            <DistanceMeters>27394.584272583</DistanceMeters>
          </Trackpoint>
          <Trackpoint>
            <Time>2022-07-10T07:24:48.000Z</Time>
            <Position>
              <LatitudeDegrees>42.7802153863012790679931640625</LatitudeDegrees>
              <LongitudeDegrees>-0.16773797571659088134765625</LongitudeDegrees>
            </Position>
            <AltitudeMeters>2253.39990234375</AltitudeMeters>
            <DistanceMeters>27398.413743061</DistanceMeters>
          </Trackpoint>
          <Trackpoint>
            <Time>2022-07-10T07:24:49.000Z</Time>
            <Position>
              <LatitudeDegrees>42.78021429665386676788330078125</LatitudeDegrees>
              <LongitudeDegrees>-0.16772632487118244171142578125</LongitudeDegrees>
            </Position>
            <AltitudeMeters>2253.60009765625</AltitudeMeters>
            <DistanceMeters>27399.373465832</DistanceMeters>
          </Trackpoint>
          <Trackpoint>
            <Time>2022-07-10T07:24:53.000Z</Time>
            <Position>
              <LatitudeDegrees>42.78020071797072887420654296875</LatitudeDegrees>
              <LongitudeDegrees>-0.16768575645983219146728515625</LongitudeDegrees>
            </Position>
            <AltitudeMeters>2254</AltitudeMeters>
            <DistanceMeters>27403.015605629</DistanceMeters>
          </Trackpoint>
          <Trackpoint>
            <Time>2022-07-10T07:24:55.000Z</Time>
            <Position>
              <LatitudeDegrees>42.78016819618642330169677734375</LatitudeDegrees>
              <LongitudeDegrees>-0.16765876673161983489990234375</LongitudeDegrees>
            </Position>
            <AltitudeMeters>2254</AltitudeMeters>
            <DistanceMeters>27407.253626635</DistanceMeters>
          </Trackpoint>
          <Trackpoint>
            <Time>2022-07-10T07:25:00.000Z</Time>
            <Position>
              <LatitudeDegrees>42.78006509877741336822509765625</LatitudeDegrees>
              <LongitudeDegrees>-0.16755022108554840087890625</LongitudeDegrees>
            </Position>
            <AltitudeMeters>2253.199951171875</AltitudeMeters>
            <DistanceMeters>27421.755712015</DistanceMeters>
          </Trackpoint>
          <Trackpoint>
            <Time>2022-07-10T07:25:02.000Z</Time>
            <Position>
              <LatitudeDegrees>42.78003743849694728851318359375</LatitudeDegrees>
              <LongitudeDegrees>-0.16753655858337879180908203125</LongitudeDegrees>
            </Position>
            <AltitudeMeters>2252.800048828125</AltitudeMeters>
            <DistanceMeters>27425.031033498</DistanceMeters>
          </Trackpoint>
          <Trackpoint>
            <Time>2022-07-10T07:25:06.000Z</Time>
            <Position>
              <LatitudeDegrees>42.77993501164019107818603515625</LatitudeDegrees>
              <LongitudeDegrees>-0.16753471456468105316162109375</LongitudeDegrees>
            </Position>
            <AltitudeMeters>2252.199951171875</AltitudeMeters>
            <DistanceMeters>27436.432655334</DistanceMeters>
          </Trackpoint>
          <Trackpoint>
            <Time>2022-07-10T07:25:09.000Z</Time>
            <Position>
              <LatitudeDegrees>42.77987415902316570281982421875</LatitudeDegrees>
              <LongitudeDegrees>-0.1675215549767017364501953125</LongitudeDegrees>
            </Position>
            <AltitudeMeters>2251.800048828125</AltitudeMeters>
            <DistanceMeters>27443.290398266</DistanceMeters>
          </Trackpoint>
          <Trackpoint>
            <Time>2022-07-10T07:25:12.000Z</Time>
            <Position>
              <LatitudeDegrees>42.779830656945705413818359375</LatitudeDegrees>
              <LongitudeDegrees>-0.1675245724618434906005859375</LongitudeDegrees>
            </Position>
            <AltitudeMeters>2251.800048828125</AltitudeMeters>
            <DistanceMeters>27448.137692243</DistanceMeters>
          </Trackpoint>
          <Trackpoint>
            <Time>2022-07-10T07:25:14.000Z</Time>
            <Position>
              <LatitudeDegrees>42.77980928309261798858642578125</LatitudeDegrees>
              <LongitudeDegrees>-0.167523063719272613525390625</LongitudeDegrees>
            </Position>
            <AltitudeMeters>2252</AltitudeMeters>
            <DistanceMeters>27450.51905488</DistanceMeters>
          </Trackpoint>
          <Trackpoint>
            <Time>2022-07-10T07:25:19.000Z</Time>
            <Position>
              <LatitudeDegrees>42.77973367832601070404052734375</LatitudeDegrees>
              <LongitudeDegrees>-0.167517364025115966796875</LongitudeDegrees>
            </Position>
            <AltitudeMeters>2252.39990234375</AltitudeMeters>
            <DistanceMeters>27458.946483387</DistanceMeters>
          </Trackpoint>
          <Trackpoint>
            <Time>2022-07-10T07:25:23.000Z</Time>
            <Position>
              <LatitudeDegrees>42.77965304441750049591064453125</LatitudeDegrees>
              <LongitudeDegrees>-0.16748392023146152496337890625</LongitudeDegrees>
            </Position>
            <AltitudeMeters>2252.39990234375</AltitudeMeters>
            <DistanceMeters>27468.327694663</DistanceMeters>
          </Trackpoint>
          <Trackpoint>
            <Time>2022-07-10T07:25:24.000Z</Time>
            <Position>
              <LatitudeDegrees>42.77963862754404544830322265625</LatitudeDegrees>
              <LongitudeDegrees>-0.167488865554332733154296875</LongitudeDegrees>
            </Position>
            <AltitudeMeters>2252.60009765625</AltitudeMeters>
            <DistanceMeters>27469.984542043</DistanceMeters>
          </Trackpoint>
          <Trackpoint>
            <Time>2022-07-10T07:25:29.000Z</Time>
            <Position>
              <LatitudeDegrees>42.77958934195339679718017578125</LatitudeDegrees>
              <LongitudeDegrees>-0.16752968542277812957763671875</LongitudeDegrees>
            </Position>
            <AltitudeMeters>2252.39990234375</AltitudeMeters>
            <DistanceMeters>27476.405001448</DistanceMeters>
          </Trackpoint>
          <Trackpoint>
            <Time>2022-07-10T07:25:33.000Z</Time>
            <Position>
              <LatitudeDegrees>42.77955112047493457794189453125</LatitudeDegrees>
              <LongitudeDegrees>-0.16755080781877040863037109375</LongitudeDegrees>
            </Position>
            <AltitudeMeters>2251.800048828125</AltitudeMeters>
            <DistanceMeters>27480.995883544</DistanceMeters>
          </Trackpoint>
          <Trackpoint>
            <Time>2022-07-10T07:25:34.000Z</Time>
            <Position>
              <LatitudeDegrees>42.7795381285250186920166015625</LatitudeDegrees>
              <LongitudeDegrees>-0.167552568018436431884765625</LongitudeDegrees>
            </Position>
            <AltitudeMeters>2251.800048828125</AltitudeMeters>
            <DistanceMeters>27482.449512756</DistanceMeters>
          </Trackpoint>
          <Trackpoint>
            <Time>2022-07-10T07:25:35.000Z</Time>
            <Position>
              <LatitudeDegrees>42.7795233763754367828369140625</LatitudeDegrees>
              <LongitudeDegrees>-0.1675544120371341705322265625</LongitudeDegrees>
            </Position>
            <AltitudeMeters>2251.800048828125</AltitudeMeters>
            <DistanceMeters>27484.100900986</DistanceMeters>
          </Trackpoint>
          <Trackpoint>
            <Time>2022-07-10T07:25:38.000Z</Time>
            <Position>
              <LatitudeDegrees>42.77947953902184963226318359375</LatitudeDegrees>
              <LongitudeDegrees>-0.16756673343479633331298828125</LongitudeDegrees>
            </Position>
            <AltitudeMeters>2251.800048828125</AltitudeMeters>
            <DistanceMeters>27489.082331511</DistanceMeters>
          </Trackpoint>
          <Trackpoint>
            <Time>2022-07-10T07:25:39.000Z</Time>
            <Position>
              <LatitudeDegrees>42.77946394868195056915283203125</LatitudeDegrees>
              <LongitudeDegrees>-0.16756455413997173309326171875</LongitudeDegrees>
            </Position>
            <AltitudeMeters>2251.800048828125</AltitudeMeters>
            <DistanceMeters>27490.829376398</DistanceMeters>
          </Trackpoint>
          <Trackpoint>
            <Time>2022-07-10T07:25:43.000Z</Time>
            <Position>
              <LatitudeDegrees>42.77941365726292133331298828125</LatitudeDegrees>
              <LongitudeDegrees>-0.167549215257167816162109375</LongitudeDegrees>
            </Position>
            <AltitudeMeters>2251.199951171875</AltitudeMeters>
            <DistanceMeters>27496.565716569</DistanceMeters>
          </Trackpoint>
          <Trackpoint>
            <Time>2022-07-10T07:25:45.000Z</Time>
            <Position>
              <LatitudeDegrees>42.7793882600963115692138671875</LatitudeDegrees>
              <LongitudeDegrees>-0.16755156219005584716796875</LongitudeDegrees>
            </Position>
            <AltitudeMeters>2250.800048828125</AltitudeMeters>
            <DistanceMeters>27499.39744888</DistanceMeters>
          </Trackpoint>
          <Trackpoint>
            <Time>2022-07-10T07:25:50.000Z</Time>
            <Position>
              <LatitudeDegrees>42.779332101345062255859375</LatitudeDegrees>
              <LongitudeDegrees>-0.1675490476191043853759765625</LongitudeDegrees>
            </Position>
            <AltitudeMeters>2250.199951171875</AltitudeMeters>
            <DistanceMeters>27505.650466632</DistanceMeters>
          </Trackpoint>
          <Trackpoint>
            <Time>2022-07-10T07:25:52.000Z</Time>
            <Position>
              <LatitudeDegrees>42.7793235518038272857666015625</LatitudeDegrees>
              <LongitudeDegrees>-0.167572684586048126220703125</LongitudeDegrees>
            </Position>
            <AltitudeMeters>2249.800048828125</AltitudeMeters>
            <DistanceMeters>27507.802774513</DistanceMeters>
          </Trackpoint>
          <Trackpoint>
            <Time>2022-07-10T07:25:54.000Z</Time>
            <Position>
              <LatitudeDegrees>42.779303602874279022216796875</LatitudeDegrees>
              <LongitudeDegrees>-0.16757511533796787261962890625</LongitudeDegrees>
            </Position>
            <AltitudeMeters>2249.60009765625</AltitudeMeters>
            <DistanceMeters>27510.031348507</DistanceMeters>
          </Trackpoint>
          <Trackpoint>
            <Time>2022-07-10T07:25:56.000Z</Time>
            <Position>
              <LatitudeDegrees>42.77927703224122524261474609375</LatitudeDegrees>
              <LongitudeDegrees>-0.1675696671009063720703125</LongitudeDegrees>
            </Position>
            <AltitudeMeters>2249.39990234375</AltitudeMeters>
            <DistanceMeters>27513.021294272</DistanceMeters>
          </Trackpoint>
          <Trackpoint>
            <Time>2022-07-10T07:25:59.000Z</Time>
            <Position>
              <LatitudeDegrees>42.7792300097644329071044921875</LatitudeDegrees>
              <LongitudeDegrees>-0.16758383251726627349853515625</LongitudeDegrees>
            </Position>
            <AltitudeMeters>2248.800048828125</AltitudeMeters>
            <DistanceMeters>27518.38083466</DistanceMeters>
          </Trackpoint>
          <Trackpoint>
            <Time>2022-07-10T07:26:00.000Z</Time>
            <Position>
              <LatitudeDegrees>42.77921668253839015960693359375</LatitudeDegrees>
              <LongitudeDegrees>-0.167583413422107696533203125</LongitudeDegrees>
            </Position>
            <AltitudeMeters>2248.39990234375</AltitudeMeters>
            <DistanceMeters>27519.86519939</DistanceMeters>
          </Trackpoint>
          <Trackpoint>
            <Time>2022-07-10T07:26:01.000Z</Time>
            <Position>
              <LatitudeDegrees>42.77920327149331569671630859375</LatitudeDegrees>
              <LongitudeDegrees>-0.1675822399556636810302734375</LongitudeDegrees>
            </Position>
            <AltitudeMeters>2248.39990234375</AltitudeMeters>
            <DistanceMeters>27521.361681584</DistanceMeters>
          </Trackpoint>
          <Trackpoint>
            <Time>2022-07-10T07:26:03.000Z</Time>
            <Position>
              <LatitudeDegrees>42.779180891811847686767578125</LatitudeDegrees>
              <LongitudeDegrees>-0.1675778813660144805908203125</LongitudeDegrees>
            </Position>
            <AltitudeMeters>2247.60009765625</AltitudeMeters>
            <DistanceMeters>27523.877647321</DistanceMeters>
          </Trackpoint>
          <Trackpoint>
            <Time>2022-07-10T07:26:05.000Z</Time>
            <Position>
              <LatitudeDegrees>42.77915951795876026153564453125</LatitudeDegrees>
              <LongitudeDegrees>-0.167574696242809295654296875</LongitudeDegrees>
            </Position>
            <AltitudeMeters>2247</AltitudeMeters>
            <DistanceMeters>27526.274129872</DistanceMeters>
          </Trackpoint>
          <Trackpoint>
            <Time>2022-07-10T07:26:07.000Z</Time>
            <Position>
              <LatitudeDegrees>42.77914493344724178314208984375</LatitudeDegrees>
              <LongitudeDegrees>-0.167576707899570465087890625</LongitudeDegrees>
            </Position>
            <AltitudeMeters>2246.39990234375</AltitudeMeters>
            <DistanceMeters>27527.90626729</DistanceMeters>
          </Trackpoint>
          <Trackpoint>
            <Time>2022-07-10T07:26:10.000Z</Time>
            <Position>
              <LatitudeDegrees>42.7791150100529193878173828125</LatitudeDegrees>
              <LongitudeDegrees>-0.16758668236434459686279296875</LongitudeDegrees>
            </Position>
            <AltitudeMeters>2245</AltitudeMeters>
            <DistanceMeters>27531.333821732</DistanceMeters>
          </Trackpoint>
          <Trackpoint>
            <Time>2022-07-10T07:26:11.000Z</Time>
            <Position>
              <LatitudeDegrees>42.77910285629332065582275390625</LatitudeDegrees>
              <LongitudeDegrees>-0.16759305261075496673583984375</LongitudeDegrees>
            </Position>
            <AltitudeMeters>2244.800048828125</AltitudeMeters>
            <DistanceMeters>27532.781225523</DistanceMeters>
          </Trackpoint>
          <Trackpoint>
            <Time>2022-07-10T07:26:15.000Z</Time>
            <Position>
              <LatitudeDegrees>42.7790620364248752593994140625</LatitudeDegrees>
              <LongitudeDegrees>-0.167618952691555023193359375</LongitudeDegrees>
            </Position>
            <AltitudeMeters>2244</AltitudeMeters>
            <DistanceMeters>27537.793378022</DistanceMeters>
          </Trackpoint>
          <Trackpoint>
            <Time>2022-07-10T07:26:16.000Z</Time>
            <Position>
              <LatitudeDegrees>42.7790491282939910888671875</LatitudeDegrees>
              <LongitudeDegrees>-0.16762238927185535430908203125</LongitudeDegrees>
            </Position>
            <AltitudeMeters>2243.800048828125</AltitudeMeters>
            <DistanceMeters>27539.25937877</DistanceMeters>
          </Trackpoint>
          <Trackpoint>
            <Time>2022-07-10T07:26:18.000Z</Time>
            <Position>
              <LatitudeDegrees>42.7790248207747936248779296875</LatitudeDegrees>
              <LongitudeDegrees>-0.16762590967118740081787109375</LongitudeDegrees>
            </Position>
            <AltitudeMeters>2243.60009765625</AltitudeMeters>
            <DistanceMeters>27541.980529755</DistanceMeters>
          </Trackpoint>
          <Trackpoint>
            <Time>2022-07-10T07:26:23.000Z</Time>
            <Position>
              <LatitudeDegrees>42.7789604477584362030029296875</LatitudeDegrees>
              <LongitudeDegrees>-0.1676412485539913177490234375</LongitudeDegrees>
            </Position>
            <AltitudeMeters>2242.800048828125</AltitudeMeters>
            <DistanceMeters>27549.254264551</DistanceMeters>
          </Trackpoint>
          <Trackpoint>
            <Time>2022-07-10T07:26:24.000Z</Time>
            <Position>
              <LatitudeDegrees>42.7789483778178691864013671875</LatitudeDegrees>
              <LongitudeDegrees>-0.16765139065682888031005859375</LongitudeDegrees>
            </Position>
            <AltitudeMeters>2242.60009765625</AltitudeMeters>
            <DistanceMeters>27550.832966898</DistanceMeters>
          </Trackpoint>
          <Trackpoint>
            <Time>2022-07-10T07:26:26.000Z</Time>
            <Position>
              <LatitudeDegrees>42.7789265848696231842041015625</LatitudeDegrees>
              <LongitudeDegrees>-0.1676620356738567352294921875</LongitudeDegrees>
            </Position>
            <AltitudeMeters>2242.39990234375</AltitudeMeters>
            <DistanceMeters>27553.410977034</DistanceMeters>
          </Trackpoint>
          <Trackpoint>
            <Time>2022-07-10T07:26:32.000Z</Time>
            <Position>
              <LatitudeDegrees>42.7788441069424152374267578125</LatitudeDegrees>
              <LongitudeDegrees>-0.16765910200774669647216796875</LongitudeDegrees>
            </Position>
            <AltitudeMeters>2242.60009765625</AltitudeMeters>
            <DistanceMeters>27562.593724653</DistanceMeters>
          </Trackpoint>
          <Trackpoint>
            <Time>2022-07-10T07:26:33.000Z</Time>
            <Position>
              <LatitudeDegrees>42.7788317017257213592529296875</LatitudeDegrees>
              <LongitudeDegrees>-0.1676714234054088592529296875</LongitudeDegrees>
            </Position>
            <AltitudeMeters>2242.60009765625</AltitudeMeters>
            <DistanceMeters>27564.301563841</DistanceMeters>
          </Trackpoint>
          <Trackpoint>
            <Time>2022-07-10T07:26:36.000Z</Time>
            <Position>
              <LatitudeDegrees>42.7787891216576099395751953125</LatitudeDegrees>
              <LongitudeDegrees>-0.16769363544881343841552734375</LongitudeDegrees>
            </Position>
            <AltitudeMeters>2242</AltitudeMeters>
            <DistanceMeters>27569.376381869</DistanceMeters>
          </Trackpoint>
          <Trackpoint>
            <Time>2022-07-10T07:26:39.000Z</Time>
            <Position>
              <LatitudeDegrees>42.77876540087163448333740234375</LatitudeDegrees>
              <LongitudeDegrees>-0.1677083037793636322021484375</LongitudeDegrees>
            </Position>
            <AltitudeMeters>2241.800048828125</AltitudeMeters>
            <DistanceMeters>27572.275864783</DistanceMeters>
          </Trackpoint>
          <Trackpoint>
            <Time>2022-07-10T07:26:41.000Z</Time>
            <Position>
              <LatitudeDegrees>42.778756432235240936279296875</LatitudeDegrees>
              <LongitudeDegrees>-0.16772188246250152587890625</LongitudeDegrees>
            </Position>
            <AltitudeMeters>2241.800048828125</AltitudeMeters>
            <DistanceMeters>27573.76630056</DistanceMeters>
          </Trackpoint>
          <Trackpoint>
            <Time>2022-07-10T07:26:43.000Z</Time>
            <Position>
              <LatitudeDegrees>42.7787433564662933349609375</LatitudeDegrees>
              <LongitudeDegrees>-0.1677076332271099090576171875</LongitudeDegrees>
            </Position>
            <AltitudeMeters>2242</AltitudeMeters>
            <DistanceMeters>27575.628436257</DistanceMeters>
          </Trackpoint>
          <Trackpoint>
            <Time>2022-07-10T07:26:44.000Z</Time>
            <Position>
              <LatitudeDegrees>42.7787274308502674102783203125</LatitudeDegrees>
              <LongitudeDegrees>-0.16770168207585811614990234375</LongitudeDegrees>
            </Position>
            <AltitudeMeters>2242</AltitudeMeters>
            <DistanceMeters>27577.466165451</DistanceMeters>
          </Trackpoint>
          <Trackpoint>
            <Time>2022-07-10T07:26:45.000Z</Time>
            <Position>
              <LatitudeDegrees>42.77870781719684600830078125</LatitudeDegrees>
              <LongitudeDegrees>-0.16769296489655971527099609375</LongitudeDegrees>
            </Position>
            <AltitudeMeters>2242</AltitudeMeters>
            <DistanceMeters>27579.762589768</DistanceMeters>
          </Trackpoint>
          <Trackpoint>
            <Time>2022-07-10T07:26:50.000Z</Time>
            <Position>
              <LatitudeDegrees>42.77860455214977264404296875</LatitudeDegrees>
              <LongitudeDegrees>-0.1677015982568264007568359375</LongitudeDegrees>
            </Position>
            <AltitudeMeters>2242.199951171875</AltitudeMeters>
            <DistanceMeters>27591.277694739</DistanceMeters>
          </Trackpoint>
          <Trackpoint>
            <Time>2022-07-10T07:26:52.000Z</Time>
            <Position>
              <LatitudeDegrees>42.7785695157945156097412109375</LatitudeDegrees>
              <LongitudeDegrees>-0.1677290908992290496826171875</LongitudeDegrees>
            </Position>
            <AltitudeMeters>2241.199951171875</AltitudeMeters>
            <DistanceMeters>27595.777187087</DistanceMeters>
          </Trackpoint>
          <Trackpoint>
            <Time>2022-07-10T07:26:55.000Z</Time>
            <Position>
              <LatitudeDegrees>42.77852810919284820556640625</LatitudeDegrees>
              <LongitudeDegrees>-0.16772079281508922576904296875</LongitudeDegrees>
            </Position>
            <AltitudeMeters>2240</AltitudeMeters>
            <DistanceMeters>27600.434465651</DistanceMeters>
          </Trackpoint>
          <Trackpoint>
            <Time>2022-07-10T07:26:57.000Z</Time>
            <Position>
              <LatitudeDegrees>42.7784977667033672332763671875</LatitudeDegrees>
              <LongitudeDegrees>-0.16772054135799407958984375</LongitudeDegrees>
            </Position>
            <AltitudeMeters>2239.800048828125</AltitudeMeters>
            <DistanceMeters>27603.812929299</DistanceMeters>
          </Trackpoint>
          <Trackpoint>
            <Time>2022-07-10T07:27:00.000Z</Time>
            <Position>
              <LatitudeDegrees>42.778462059795856475830078125</LatitudeDegrees>
              <LongitudeDegrees>-0.16772448085248470306396484375</LongitudeDegrees>
            </Position>
            <AltitudeMeters>2239.800048828125</AltitudeMeters>
            <DistanceMeters>27607.799523653</DistanceMeters>
          </Trackpoint>
          <Trackpoint>
            <Time>2022-07-10T07:27:01.000Z</Time>
            <Position>
              <LatitudeDegrees>42.77845242060720920562744140625</LatitudeDegrees>
              <LongitudeDegrees>-0.1677287556231021881103515625</LongitudeDegrees>
            </Position>
            <AltitudeMeters>2239.800048828125</AltitudeMeters>
            <DistanceMeters>27608.9238949</DistanceMeters>
          </Trackpoint>
          <Trackpoint>
            <Time>2022-07-10T07:27:02.000Z</Time>
            <Position>
              <LatitudeDegrees>42.778441272675991058349609375</LatitudeDegrees>
              <LongitudeDegrees>-0.1677304320037364959716796875</LongitudeDegrees>
            </Position>
            <AltitudeMeters>2239.800048828125</AltitudeMeters>
            <DistanceMeters>27610.170158576</DistanceMeters>
          </Trackpoint>
          <Trackpoint>
            <Time>2022-07-10T07:27:03.000Z</Time>
            <Position>
              <LatitudeDegrees>42.778430879116058349609375</LatitudeDegrees>
              <LongitudeDegrees>-0.167731940746307373046875</LongitudeDegrees>
            </Position>
            <AltitudeMeters>2239.199951171875</AltitudeMeters>
            <DistanceMeters>27611.333993386</DistanceMeters>
          </Trackpoint>
          <Trackpoint>
            <Time>2022-07-10T07:27:04.000Z</Time>
            <Position>
              <LatitudeDegrees>42.7784216590225696563720703125</LatitudeDegrees>
              <LongitudeDegrees>-0.16773437149822711944580078125</LongitudeDegrees>
            </Position>
            <AltitudeMeters>2239</AltitudeMeters>
            <DistanceMeters>27612.374958887</DistanceMeters>
          </Trackpoint>
          <Trackpoint>
            <Time>2022-07-10T07:27:06.000Z</Time>
            <Position>
              <LatitudeDegrees>42.77840212918817996978759765625</LatitudeDegrees>
              <LongitudeDegrees>-0.16775071620941162109375</LongitudeDegrees>
            </Position>
            <AltitudeMeters>2238.60009765625</AltitudeMeters>
            <DistanceMeters>27614.924793203</DistanceMeters>
          </Trackpoint>
          <Trackpoint>
            <Time>2022-07-10T07:27:09.000Z</Time>
            <Position>
              <LatitudeDegrees>42.77836692519485950469970703125</LatitudeDegrees>
              <LongitudeDegrees>-0.1677864231169223785400390625</LongitudeDegrees>
            </Position>
            <AltitudeMeters>2238</AltitudeMeters>
            <DistanceMeters>27619.809203297</DistanceMeters>
          </Trackpoint>
          <Trackpoint>
            <Time>2022-07-10T07:27:10.000Z</Time>
            <Position>
              <LatitudeDegrees>42.77835351414978504180908203125</LatitudeDegrees>
              <LongitudeDegrees>-0.167789943516254425048828125</LongitudeDegrees>
            </Position>
            <AltitudeMeters>2237.800048828125</AltitudeMeters>
            <DistanceMeters>27621.329630727</DistanceMeters>
          </Trackpoint>
          <Trackpoint>
            <Time>2022-07-10T07:27:13.000Z</Time>
            <Position>
              <LatitudeDegrees>42.77830909006297588348388671875</LatitudeDegrees>
              <LongitudeDegrees>-0.16780058853328227996826171875</LongitudeDegrees>
            </Position>
            <AltitudeMeters>2237.60009765625</AltitudeMeters>
            <DistanceMeters>27626.349884043</DistanceMeters>
          </Trackpoint>
          <Trackpoint>
            <Time>2022-07-10T07:27:15.000Z</Time>
            <Position>
              <LatitudeDegrees>42.778286039829254150390625</LatitudeDegrees>
              <LongitudeDegrees>-0.16780477948486804962158203125</LongitudeDegrees>
            </Position>
            <AltitudeMeters>2238.199951171875</AltitudeMeters>
            <DistanceMeters>27628.938381043</DistanceMeters>
          </Trackpoint>
          <Trackpoint>
            <Time>2022-07-10T07:27:16.000Z</Time>
            <Position>
              <LatitudeDegrees>42.77827598154544830322265625</LatitudeDegrees>
              <LongitudeDegrees>-0.1678048633038997650146484375</LongitudeDegrees>
            </Position>
            <AltitudeMeters>2238.39990234375</AltitudeMeters>
            <DistanceMeters>27630.054692178</DistanceMeters>
          </Trackpoint>
          <Trackpoint>
            <Time>2022-07-10T07:27:22.000Z</Time>
            <Position>
              <LatitudeDegrees>42.778185792267322540283203125</LatitudeDegrees>
              <LongitudeDegrees>-0.16782439313828945159912109375</LongitudeDegrees>
            </Position>
            <AltitudeMeters>2238</AltitudeMeters>
            <DistanceMeters>27640.218553379</DistanceMeters>
          </Trackpoint>
          <Trackpoint>
            <Time>2022-07-10T07:27:28.000Z</Time>
            <Position>
              <LatitudeDegrees>42.77811563573777675628662109375</LatitudeDegrees>
              <LongitudeDegrees>-0.167896561324596405029296875</LongitudeDegrees>
            </Position>
            <AltitudeMeters>2237.60009765625</AltitudeMeters>
            <DistanceMeters>27650.002152426</DistanceMeters>
          </Trackpoint>
          <Trackpoint>
            <Time>2022-07-10T07:27:29.000Z</Time>
            <Position>
              <LatitudeDegrees>42.778102643787860870361328125</LatitudeDegrees>
              <LongitudeDegrees>-0.16790217719972133636474609375</LongitudeDegrees>
            </Position>
            <AltitudeMeters>2237.60009765625</AltitudeMeters>
            <DistanceMeters>27651.51662904</DistanceMeters>
          </Trackpoint>
          <Trackpoint>
            <Time>2022-07-10T07:27:31.000Z</Time>
            <Position>
              <LatitudeDegrees>42.77808160521090030670166015625</LatitudeDegrees>
              <LongitudeDegrees>-0.1679098047316074371337890625</LongitudeDegrees>
            </Position>
            <AltitudeMeters>2236.60009765625</AltitudeMeters>
            <DistanceMeters>27653.939344395</DistanceMeters>
          </Trackpoint>
          <Trackpoint>
            <Time>2022-07-10T07:27:34.000Z</Time>
            <Position>
              <LatitudeDegrees>42.7780545316636562347412109375</LatitudeDegrees>
              <LongitudeDegrees>-0.167912654578685760498046875</LongitudeDegrees>
            </Position>
            <AltitudeMeters>2236.199951171875</AltitudeMeters>
            <DistanceMeters>27656.962329238</DistanceMeters>
          </Trackpoint>
          <Trackpoint>
            <Time>2022-07-10T07:27:35.000Z</Time>
            <Position>
              <LatitudeDegrees>42.77804321609437465667724609375</LatitudeDegrees>
              <LongitudeDegrees>-0.1679165102541446685791015625</LongitudeDegrees>
            </Position>
            <AltitudeMeters>2236.199951171875</AltitudeMeters>
            <DistanceMeters>27658.261800013</DistanceMeters>
          </Trackpoint>
          <Trackpoint>
            <Time>2022-07-10T07:27:37.000Z</Time>
            <Position>
              <LatitudeDegrees>42.77801739983260631561279296875</LatitudeDegrees>
              <LongitudeDegrees>-0.167918689548969268798828125</LongitudeDegrees>
            </Position>
            <AltitudeMeters>2236</AltitudeMeters>
            <DistanceMeters>27661.140968326</DistanceMeters>
          </Trackpoint>
          <Trackpoint>
            <Time>2022-07-10T07:27:41.000Z</Time>
            <Position>
              <LatitudeDegrees>42.77795084752142429351806640625</LatitudeDegrees>
              <LongitudeDegrees>-0.16793319024145603179931640625</LongitudeDegrees>
            </Position>
            <AltitudeMeters>2235.39990234375</AltitudeMeters>
            <DistanceMeters>27668.642663894</DistanceMeters>
          </Trackpoint>
          <Trackpoint>
            <Time>2022-07-10T07:27:45.000Z</Time>
            <Position>
              <LatitudeDegrees>42.777896784245967864990234375</LatitudeDegrees>
              <LongitudeDegrees>-0.16792866401374340057373046875</LongitudeDegrees>
            </Position>
            <AltitudeMeters>2234.60009765625</AltitudeMeters>
            <DistanceMeters>27674.671433063</DistanceMeters>
          </Trackpoint>
          <Trackpoint>
            <Time>2022-07-10T07:27:46.000Z</Time>
            <Position>
              <LatitudeDegrees>42.777882032096385955810546875</LatitudeDegrees>
              <LongitudeDegrees>-0.16792631708085536956787109375</LongitudeDegrees>
            </Position>
            <AltitudeMeters>2234.39990234375</AltitudeMeters>
            <DistanceMeters>27676.322821293</DistanceMeters>
          </Trackpoint>
          <Trackpoint>
            <Time>2022-07-10T07:27:47.000Z</Time>
            <Position>
              <LatitudeDegrees>42.77787071652710437774658203125</LatitudeDegrees>
              <LongitudeDegrees>-0.16792614944279193878173828125</LongitudeDegrees>
            </Position>
            <AltitudeMeters>2234.39990234375</AltitudeMeters>
            <DistanceMeters>27677.583493119</DistanceMeters>
          </Trackpoint>
          <Trackpoint>
            <Time>2022-07-10T07:27:48.000Z</Time>
            <Position>
              <LatitudeDegrees>42.777862250804901123046875</LatitudeDegrees>
              <LongitudeDegrees>-0.16792698763310909271240234375</LongitudeDegrees>
            </Position>
            <AltitudeMeters>2234.199951171875</AltitudeMeters>
            <DistanceMeters>27678.533760263</DistanceMeters>
          </Trackpoint>
          <Trackpoint>
            <Time>2022-07-10T07:27:49.000Z</Time>
            <Position>
              <LatitudeDegrees>42.7778563834726810455322265625</LatitudeDegrees>
              <LongitudeDegrees>-0.16792749054729938507080078125</LongitudeDegrees>
            </Position>
            <AltitudeMeters>2234</AltitudeMeters>
            <DistanceMeters>27679.185230595</DistanceMeters>
          </Trackpoint>
          <Trackpoint>
            <Time>2022-07-10T07:27:52.000Z</Time>
            <Position>
              <LatitudeDegrees>42.7778402902185916900634765625</LatitudeDegrees>
              <LongitudeDegrees>-0.16792665235698223114013671875</LongitudeDegrees>
            </Position>
            <AltitudeMeters>2233.60009765625</AltitudeMeters>
            <DistanceMeters>27680.978191055</DistanceMeters>
          </Trackpoint>
          <Trackpoint>
            <Time>2022-07-10T07:27:56.000Z</Time>
            <Position>
              <LatitudeDegrees>42.77779259718954563140869140625</LatitudeDegrees>
              <LongitudeDegrees>-0.16795582138001918792724609375</LongitudeDegrees>
            </Position>
            <AltitudeMeters>2233.199951171875</AltitudeMeters>
            <DistanceMeters>27686.797365109</DistanceMeters>
          </Trackpoint>
          <Trackpoint>
            <Time>2022-07-10T07:27:58.000Z</Time>
            <Position>
              <LatitudeDegrees>42.77777164243161678314208984375</LatitudeDegrees>
              <LongitudeDegrees>-0.1679637841880321502685546875</LongitudeDegrees>
            </Position>
            <AltitudeMeters>2232.199951171875</AltitudeMeters>
            <DistanceMeters>27689.220080463</DistanceMeters>
          </Trackpoint>
          <Trackpoint>
            <Time>2022-07-10T07:28:01.000Z</Time>
            <Position>
              <LatitudeDegrees>42.7777370251715183258056640625</LatitudeDegrees>
              <LongitudeDegrees>-0.16798750497400760650634765625</LongitudeDegrees>
            </Position>
            <AltitudeMeters>2231.39990234375</AltitudeMeters>
            <DistanceMeters>27693.533079127</DistanceMeters>
          </Trackpoint>
          <Trackpoint>
            <Time>2022-07-10T07:28:02.000Z</Time>
            <Position>
              <LatitudeDegrees>42.77772788889706134796142578125</LatitudeDegrees>
              <LongitudeDegrees>-0.16799739561975002288818359375</LongitudeDegrees>
            </Position>
            <AltitudeMeters>2231.199951171875</AltitudeMeters>
            <DistanceMeters>27694.829070724</DistanceMeters>
          </Trackpoint>
          <Trackpoint>
            <Time>2022-07-10T07:28:03.000Z</Time>
            <Position>
              <LatitudeDegrees>42.7777229435741901397705078125</LatitudeDegrees>
              <LongitudeDegrees>-0.1680053584277629852294921875</LongitudeDegrees>
            </Position>
            <AltitudeMeters>2231</AltitudeMeters>
            <DistanceMeters>27695.679015496</DistanceMeters>
          </Trackpoint>
          <Trackpoint>
            <Time>2022-07-10T07:28:06.000Z</Time>
            <Position>
              <LatitudeDegrees>42.77770827524363994598388671875</LatitudeDegrees>
              <LongitudeDegrees>-0.1680160872638225555419921875</LongitudeDegrees>
            </Position>
            <AltitudeMeters>2230.60009765625</AltitudeMeters>
            <DistanceMeters>27697.53142718</DistanceMeters>
          </Trackpoint>
          <Trackpoint>
            <Time>2022-07-10T07:28:08.000Z</Time>
            <Position>
              <LatitudeDegrees>42.77770006097853183746337890625</LatitudeDegrees>
              <LongitudeDegrees>-0.168021619319915771484375</LongitudeDegrees>
            </Position>
            <AltitudeMeters>2230.60009765625</AltitudeMeters>
            <DistanceMeters>27698.554896216</DistanceMeters>
          </Trackpoint>
          <Trackpoint>
            <Time>2022-07-10T07:28:09.000Z</Time>
            <Position>
              <LatitudeDegrees>42.7776927687227725982666015625</LatitudeDegrees>
              <LongitudeDegrees>-0.16802421770989894866943359375</LongitudeDegrees>
            </Position>
            <AltitudeMeters>2230.60009765625</AltitudeMeters>
            <DistanceMeters>27699.394149433</DistanceMeters>
          </Trackpoint>
          <Trackpoint>
            <Time>2022-07-10T07:28:13.000Z</Time>
            <Position>
              <LatitudeDegrees>42.77764566242694854736328125</LatitudeDegrees>
              <LongitudeDegrees>-0.16802094876766204833984375</LongitudeDegrees>
            </Position>
            <AltitudeMeters>2230.39990234375</AltitudeMeters>
            <DistanceMeters>27704.643891647</DistanceMeters>
          </Trackpoint>
          <Trackpoint>
            <Time>2022-07-10T07:28:14.000Z</Time>
            <Position>
              <LatitudeDegrees>42.7776294015347957611083984375</LatitudeDegrees>
              <LongitudeDegrees>-0.16802103258669376373291015625</LongitudeDegrees>
            </Position>
            <AltitudeMeters>2230.199951171875</AltitudeMeters>
            <DistanceMeters>27706.451898193</DistanceMeters>
          </Trackpoint>
          <Trackpoint>
            <Time>2022-07-10T07:28:16.000Z</Time>
            <Position>
              <LatitudeDegrees>42.77760316617786884307861328125</LatitudeDegrees>
              <LongitudeDegrees>-0.16802807338535785675048828125</LongitudeDegrees>
            </Position>
            <AltitudeMeters>2230.199951171875</AltitudeMeters>
            <DistanceMeters>27709.429738865</DistanceMeters>
          </Trackpoint>
          <Trackpoint>
            <Time>2022-07-10T07:28:17.000Z</Time>
            <Position>
              <LatitudeDegrees>42.77759009040892124176025390625</LatitudeDegrees>
              <LongitudeDegrees>-0.16803301870822906494140625</LongitudeDegrees>
            </Position>
            <AltitudeMeters>2230.39990234375</AltitudeMeters>
            <DistanceMeters>27710.94421548</DistanceMeters>
          </Trackpoint>
          <Trackpoint>
            <Time>2022-07-10T07:28:19.000Z</Time>
            <Position>
              <LatitudeDegrees>42.7775605022907257080078125</LatitudeDegrees>
              <LongitudeDegrees>-0.16804886050522327423095703125</LongitudeDegrees>
            </Position>
            <AltitudeMeters>2230.39990234375</AltitudeMeters>
            <DistanceMeters>27714.481967019</DistanceMeters>
          </Trackpoint>
          <Trackpoint>
            <Time>2022-07-10T07:28:25.000Z</Time>
            <Position>
              <LatitudeDegrees>42.7774574048817157745361328125</LatitudeDegrees>
              <LongitudeDegrees>-0.16805824823677539825439453125</LongitudeDegrees>
            </Position>
            <AltitudeMeters>2230.60009765625</AltitudeMeters>
            <DistanceMeters>27725.982555251</DistanceMeters>
          </Trackpoint>
          <Trackpoint>
            <Time>2022-07-10T07:28:29.000Z</Time>
            <Position>
              <LatitudeDegrees>42.77739060111343860626220703125</LatitudeDegrees>
              <LongitudeDegrees>-0.16805045306682586669921875</LongitudeDegrees>
            </Position>
            <AltitudeMeters>2230.199951171875</AltitudeMeters>
            <DistanceMeters>27733.445631795</DistanceMeters>
          </Trackpoint>
          <Trackpoint>
            <Time>2022-07-10T07:28:30.000Z</Time>
            <Position>
              <LatitudeDegrees>42.777374424040317535400390625</LatitudeDegrees>
              <LongitudeDegrees>-0.16804634593427181243896484375</LongitudeDegrees>
            </Position>
            <AltitudeMeters>2229.800048828125</AltitudeMeters>
            <DistanceMeters>27735.275975577</DistanceMeters>
          </Trackpoint>
          <Trackpoint>
            <Time>2022-07-10T07:28:36.000Z</Time>
            <Position>
              <LatitudeDegrees>42.77729588560760021209716796875</LatitudeDegrees>
              <LongitudeDegrees>-0.1680180989205837249755859375</LongitudeDegrees>
            </Position>
            <AltitudeMeters>2229.39990234375</AltitudeMeters>
            <DistanceMeters>27744.317007154</DistanceMeters>
          </Trackpoint>
          <Trackpoint>
            <Time>2022-07-10T07:28:37.000Z</Time>
            <Position>
              <LatitudeDegrees>42.77728498913347721099853515625</LatitudeDegrees>
              <LongitudeDegrees>-0.16802706755697727203369140625</LongitudeDegrees>
            </Position>
            <AltitudeMeters>2229.60009765625</AltitudeMeters>
            <DistanceMeters>27745.729680823</DistanceMeters>
          </Trackpoint>
          <Trackpoint>
            <Time>2022-07-10T07:28:42.000Z</Time>
            <Position>
              <LatitudeDegrees>42.77724777348339557647705078125</LatitudeDegrees>
              <LongitudeDegrees>-0.16808439977467060089111328125</LongitudeDegrees>
            </Position>
            <AltitudeMeters>2229</AltitudeMeters>
            <DistanceMeters>27751.981254293</DistanceMeters>
          </Trackpoint>
          <Trackpoint>
            <Time>2022-07-10T07:28:48.000Z</Time>
            <Position>
              <LatitudeDegrees>42.777235619723796844482421875</LatitudeDegrees>
              <LongitudeDegrees>-0.1681937836110591888427734375</LongitudeDegrees>
            </Position>
            <AltitudeMeters>2227.800048828125</AltitudeMeters>
            <DistanceMeters>27761.018789434</DistanceMeters>
          </Trackpoint>
          <Trackpoint>
            <Time>2022-07-10T07:28:51.000Z</Time>
            <Position>
              <LatitudeDegrees>42.7772227115929126739501953125</LatitudeDegrees>
              <LongitudeDegrees>-0.168232508003711700439453125</LongitudeDegrees>
            </Position>
            <AltitudeMeters>2227.39990234375</AltitudeMeters>
            <DistanceMeters>27764.493442252</DistanceMeters>
          </Trackpoint>
          <Trackpoint>
            <Time>2022-07-10T07:28:53.000Z</Time>
            <Position>
              <LatitudeDegrees>42.7772143296897411346435546875</LatitudeDegrees>
              <LongitudeDegrees>-0.16825438477098941802978515625</LongitudeDegrees>
            </Position>
            <AltitudeMeters>2227.199951171875</AltitudeMeters>
            <DistanceMeters>27766.509263276</DistanceMeters>
          </Trackpoint>
          <Trackpoint>
            <Time>2022-07-10T07:28:54.000Z</Time>
            <Position>
              <LatitudeDegrees>42.7772126533091068267822265625</LatitudeDegrees>
              <LongitudeDegrees>-0.16825270839035511016845703125</LongitudeDegrees>
            </Position>
            <AltitudeMeters>2227.199951171875</AltitudeMeters>
            <DistanceMeters>27766.721749469</DistanceMeters>
          </Trackpoint>
          <Trackpoint>
            <Time>2022-07-10T07:28:57.000Z</Time>
            <Position>
              <LatitudeDegrees>42.77721089310944080352783203125</LatitudeDegrees>
              <LongitudeDegrees>-0.16825497150421142578125</LongitudeDegrees>
            </Position>
            <AltitudeMeters>2227</AltitudeMeters>
            <DistanceMeters>27767.006829612</DistanceMeters>
          </Trackpoint>
          <Trackpoint>
            <Time>2022-07-10T07:28:58.000Z</Time>
            <Position>
              <LatitudeDegrees>42.7772113122045993804931640625</LatitudeDegrees>
              <LongitudeDegrees>-0.16824969090521335601806640625</LongitudeDegrees>
            </Position>
            <AltitudeMeters>2227</AltitudeMeters>
            <DistanceMeters>27767.431801998</DistanceMeters>
          </Trackpoint>
          <Trackpoint>
            <Time>2022-07-10T07:29:00.000Z</Time>
            <Position>
              <LatitudeDegrees>42.7772163413465023040771484375</LatitudeDegrees>
              <LongitudeDegrees>-0.1682380400598049163818359375</LongitudeDegrees>
            </Position>
            <AltitudeMeters>2227</AltitudeMeters>
            <DistanceMeters>27768.531815745</DistanceMeters>
          </Trackpoint>
          <Trackpoint>
            <Time>2022-07-10T07:29:01.000Z</Time>
            <Position>
              <LatitudeDegrees>42.77721650898456573486328125</LatitudeDegrees>
              <LongitudeDegrees>-0.16823351383209228515625</LongitudeDegrees>
            </Position>
            <AltitudeMeters>2227</AltitudeMeters>
            <DistanceMeters>27768.899852627</DistanceMeters>
          </Trackpoint>
          <Trackpoint>
            <Time>2022-07-10T07:29:07.000Z</Time>
            <Position>
              <LatitudeDegrees>42.7772310934960842132568359375</LatitudeDegrees>
              <LongitudeDegrees>-0.16820476390421390533447265625</LongitudeDegrees>
            </Position>
            <AltitudeMeters>2227</AltitudeMeters>
            <DistanceMeters>27771.756982149</DistanceMeters>
          </Trackpoint>
          <Trackpoint>
            <Time>2022-07-10T07:29:09.000Z</Time>
            <Position>
              <LatitudeDegrees>42.7772230468690395355224609375</LatitudeDegrees>
              <LongitudeDegrees>-0.16819437034428119659423828125</LongitudeDegrees>
            </Position>
            <AltitudeMeters>2226.800048828125</AltitudeMeters>
            <DistanceMeters>27772.995978919</DistanceMeters>
          </Trackpoint>
          <Trackpoint>
            <Time>2022-07-10T07:29:15.000Z</Time>
            <Position>
              <LatitudeDegrees>42.77720401994884014129638671875</LatitudeDegrees>
              <LongitudeDegrees>-0.168201662600040435791015625</LongitudeDegrees>
            </Position>
            <AltitudeMeters>2226.60009765625</AltitudeMeters>
            <DistanceMeters>27775.196006413</DistanceMeters>
          </Trackpoint>
          <Trackpoint>
            <Time>2022-07-10T07:29:16.000Z</Time>
            <Position>
              <LatitudeDegrees>42.777196727693080902099609375</LatitudeDegrees>
              <LongitudeDegrees>-0.16821029596030712127685546875</LongitudeDegrees>
            </Position>
            <AltitudeMeters>2226.60009765625</AltitudeMeters>
            <DistanceMeters>27776.271110959</DistanceMeters>
          </Trackpoint>
          <Trackpoint>
            <Time>2022-07-10T07:29:21.000Z</Time>
            <Position>
              <LatitudeDegrees>42.7771653793752193450927734375</LatitudeDegrees>
              <LongitudeDegrees>-0.1682350225746631622314453125</LongitudeDegrees>
            </Position>
            <AltitudeMeters>2226.800048828125</AltitudeMeters>
            <DistanceMeters>27780.302753006</DistanceMeters>
          </Trackpoint>
          <Trackpoint>
            <Time>2022-07-10T07:29:23.000Z</Time>
            <Position>
              <LatitudeDegrees>42.7771466039121150970458984375</LatitudeDegrees>
              <LongitudeDegrees>-0.1682467572391033172607421875</LongitudeDegrees>
            </Position>
            <AltitudeMeters>2226.800048828125</AltitudeMeters>
            <DistanceMeters>27782.601142599</DistanceMeters>
          </Trackpoint>
          <Trackpoint>
            <Time>2022-07-10T07:29:28.000Z</Time>
            <Position>
              <LatitudeDegrees>42.77708566747605800628662109375</LatitudeDegrees>
              <LongitudeDegrees>-0.16828112304210662841796875</LongitudeDegrees>
            </Position>
            <AltitudeMeters>2227</AltitudeMeters>
            <DistanceMeters>27789.941610305</DistanceMeters>
          </Trackpoint>
          <Trackpoint>
            <Time>2022-07-10T07:29:30.000Z</Time>
            <Position>
              <LatitudeDegrees>42.77706890366971492767333984375</LatitudeDegrees>
              <LongitudeDegrees>-0.16831062734127044677734375</LongitudeDegrees>
            </Position>
            <AltitudeMeters>2227</AltitudeMeters>
            <DistanceMeters>27792.988398546</DistanceMeters>
          </Trackpoint>
          <Trackpoint>
            <Time>2022-07-10T07:29:36.000Z</Time>
            <Position>
              <LatitudeDegrees>42.77700134553015232086181640625</LatitudeDegrees>
              <LongitudeDegrees>-0.16838547773659229278564453125</LongitudeDegrees>
            </Position>
            <AltitudeMeters>2227</AltitudeMeters>
            <DistanceMeters>27802.680191732</DistanceMeters>
          </Trackpoint>
          <Trackpoint>
            <Time>2022-07-10T07:29:37.000Z</Time>
            <Position>
              <LatitudeDegrees>42.7769866771996021270751953125</LatitudeDegrees>
              <LongitudeDegrees>-0.16839872114360332489013671875</LongitudeDegrees>
            </Position>
            <AltitudeMeters>2227</AltitudeMeters>
            <DistanceMeters>27804.639217635</DistanceMeters>
          </Trackpoint>
          <Trackpoint>
            <Time>2022-07-10T07:29:38.000Z</Time>
            <Position>
              <LatitudeDegrees>42.7769722603261470794677734375</LatitudeDegrees>
              <LongitudeDegrees>-0.16841632314026355743408203125</LongitudeDegrees>
            </Position>
            <AltitudeMeters>2227</AltitudeMeters>
            <DistanceMeters>27806.793622261</DistanceMeters>
          </Trackpoint>
          <Trackpoint>
            <Time>2022-07-10T07:29:40.000Z</Time>
            <Position>
              <LatitudeDegrees>42.7769430913031101226806640625</LatitudeDegrees>
              <LongitudeDegrees>-0.16845152713358402252197265625</LongitudeDegrees>
            </Position>
            <AltitudeMeters>2227.199951171875</AltitudeMeters>
            <DistanceMeters>27811.131672435</DistanceMeters>
          </Trackpoint>
          <Trackpoint>
            <Time>2022-07-10T07:29:42.000Z</Time>
            <Position>
              <LatitudeDegrees>42.77692993171513080596923828125</LatitudeDegrees>
              <LongitudeDegrees>-0.1684777624905109405517578125</LongitudeDegrees>
            </Position>
            <AltitudeMeters>2227.199951171875</AltitudeMeters>
            <DistanceMeters>27813.727137138</DistanceMeters>
          </Trackpoint>
          <Trackpoint>
            <Time>2022-07-10T07:29:44.000Z</Time>
            <Position>
              <LatitudeDegrees>42.776914425194263458251953125</LatitudeDegrees>
              <LongitudeDegrees>-0.16849729232490062713623046875</LongitudeDegrees>
            </Position>
            <AltitudeMeters>2226.800048828125</AltitudeMeters>
            <DistanceMeters>27816.077968222</DistanceMeters>
          </Trackpoint>
          <Trackpoint>
            <Time>2022-07-10T07:29:50.000Z</Time>
            <Position>
              <LatitudeDegrees>42.77685399167239665985107421875</LatitudeDegrees>
              <LongitudeDegrees>-0.16852847300469875335693359375</LongitudeDegrees>
            </Position>
            <AltitudeMeters>2226.39990234375</AltitudeMeters>
            <DistanceMeters>27823.271182943</DistanceMeters>
          </Trackpoint>
          <Trackpoint>
            <Time>2022-07-10T07:29:51.000Z</Time>
            <Position>
              <LatitudeDegrees>42.77684225700795650482177734375</LatitudeDegrees>
              <LongitudeDegrees>-0.16853786073625087738037109375</LongitudeDegrees>
            </Position>
            <AltitudeMeters>2226.39990234375</AltitudeMeters>
            <DistanceMeters>27824.785659558</DistanceMeters>
          </Trackpoint>
          <Trackpoint>
            <Time>2022-07-10T07:29:52.000Z</Time>
            <Position>
              <LatitudeDegrees>42.77683136053383350372314453125</LatitudeDegrees>
              <LongitudeDegrees>-0.16854557208716869354248046875</LongitudeDegrees>
            </Position>
            <AltitudeMeters>2226</AltitudeMeters>
            <DistanceMeters>27826.14954949</DistanceMeters>
          </Trackpoint>
          <Trackpoint>
            <Time>2022-07-10T07:29:53.000Z</Time>
            <Position>
              <LatitudeDegrees>42.7768190391361713409423828125</LatitudeDegrees>
              <LongitudeDegrees>-0.16855278052389621734619140625</LongitudeDegrees>
            </Position>
            <AltitudeMeters>2225.800048828125</AltitudeMeters>
            <DistanceMeters>27827.639985267</DistanceMeters>
          </Trackpoint>
          <Trackpoint>
            <Time>2022-07-10T07:29:56.000Z</Time>
            <Position>
              <LatitudeDegrees>42.7767757885158061981201171875</LatitudeDegrees>
              <LongitudeDegrees>-0.1685813628137111663818359375</LongitudeDegrees>
            </Position>
            <AltitudeMeters>2225.39990234375</AltitudeMeters>
            <DistanceMeters>27832.991094723</DistanceMeters>
          </Trackpoint>
          <Trackpoint>
            <Time>2022-07-10T07:29:57.000Z</Time>
            <Position>
              <LatitudeDegrees>42.7767590247094631195068359375</LatitudeDegrees>
              <LongitudeDegrees>-0.1685867272317409515380859375</LongitudeDegrees>
            </Position>
            <AltitudeMeters>2225.199951171875</AltitudeMeters>
            <DistanceMeters>27834.905829962</DistanceMeters>
          </Trackpoint>
          <Trackpoint>
            <Time>2022-07-10T07:29:58.000Z</Time>
            <Position>
              <LatitudeDegrees>42.77674318291246891021728515625</LatitudeDegrees>
              <LongitudeDegrees>-0.1685887388885021209716796875</LongitudeDegrees>
            </Position>
            <AltitudeMeters>2225.199951171875</AltitudeMeters>
            <DistanceMeters>27836.673429025</DistanceMeters>
          </Trackpoint>
          <Trackpoint>
            <Time>2022-07-10T07:30:02.000Z</Time>
            <Position>
              <LatitudeDegrees>42.77668006718158721923828125</LatitudeDegrees>
              <LongitudeDegrees>-0.1685773395001888275146484375</LongitudeDegrees>
            </Position>
            <AltitudeMeters>2225</AltitudeMeters>
            <DistanceMeters>27843.760409001</DistanceMeters>
          </Trackpoint>
          <Trackpoint>
            <Time>2022-07-10T07:30:04.000Z</Time>
            <Position>
              <LatitudeDegrees>42.77664595283567905426025390625</LatitudeDegrees>
              <LongitudeDegrees>-0.1685552112758159637451171875</LongitudeDegrees>
            </Position>
            <AltitudeMeters>2225</AltitudeMeters>
            <DistanceMeters>27847.967420985</DistanceMeters>
          </Trackpoint>
          <Trackpoint>
            <Time>2022-07-10T07:30:05.000Z</Time>
            <Position>
              <LatitudeDegrees>42.77662910521030426025390625</LatitudeDegrees>
              <LongitudeDegrees>-0.16854825429618358612060546875</LongitudeDegrees>
            </Position>
            <AltitudeMeters>2224.800048828125</AltitudeMeters>
            <DistanceMeters>27849.92875027</DistanceMeters>
          </Trackpoint>
          <Trackpoint>
            <Time>2022-07-10T07:30:06.000Z</Time>
            <Position>
              <LatitudeDegrees>42.77661695145070552825927734375</LatitudeDegrees>
              <LongitudeDegrees>-0.16854825429618358612060546875</LongitudeDegrees>
            </Position>
            <AltitudeMeters>2224.60009765625</AltitudeMeters>
            <DistanceMeters>27851.282672542</DistanceMeters>
          </Trackpoint>
          <Trackpoint>
            <Time>2022-07-10T07:30:09.000Z</Time>
            <Position>
              <LatitudeDegrees>42.77658375911414623260498046875</LatitudeDegrees>
              <LongitudeDegrees>-0.168568454682826995849609375</LongitudeDegrees>
            </Position>
            <AltitudeMeters>2225</AltitudeMeters>
            <DistanceMeters>27855.328847105</DistanceMeters>
          </Trackpoint>
          <Trackpoint>
            <Time>2022-07-10T07:30:12.000Z</Time>
            <Position>
              <LatitudeDegrees>42.77655693702399730682373046875</LatitudeDegrees>
              <LongitudeDegrees>-0.16860835254192352294921875</LongitudeDegrees>
            </Position>
            <AltitudeMeters>2224.800048828125</AltitudeMeters>
            <DistanceMeters>27859.749377099</DistanceMeters>
          </Trackpoint>
          <Trackpoint>
            <Time>2022-07-10T07:30:14.000Z</Time>
            <Position>
              <LatitudeDegrees>42.77654017321765422821044921875</LatitudeDegrees>
              <LongitudeDegrees>-0.1686184108257293701171875</LongitudeDegrees>
            </Position>
            <AltitudeMeters>2224.39990234375</AltitudeMeters>
            <DistanceMeters>27861.787473064</DistanceMeters>
          </Trackpoint>
          <Trackpoint>
            <Time>2022-07-10T07:30:16.000Z</Time>
            <Position>
              <LatitudeDegrees>42.77652852237224578857421875</LatitudeDegrees>
              <LongitudeDegrees>-0.16861262731254100799560546875</LongitudeDegrees>
            </Position>
            <AltitudeMeters>2223.800048828125</AltitudeMeters>
            <DistanceMeters>27863.17108291</DistanceMeters>
          </Trackpoint>
          <Trackpoint>
            <Time>2022-07-10T07:30:17.000Z</Time>
            <Position>
              <LatitudeDegrees>42.7765250019729137420654296875</LatitudeDegrees>
              <LongitudeDegrees>-0.16860592179000377655029296875</LongitudeDegrees>
            </Position>
            <AltitudeMeters>2223.39990234375</AltitudeMeters>
            <DistanceMeters>27863.849709389</DistanceMeters>
          </Trackpoint>
          <Trackpoint>
            <Time>2022-07-10T07:30:19.000Z</Time>
            <Position>
              <LatitudeDegrees>42.77651988901197910308837890625</LatitudeDegrees>
              <LongitudeDegrees>-0.16860541887581348419189453125</LongitudeDegrees>
            </Position>
            <AltitudeMeters>2222.800048828125</AltitudeMeters>
            <DistanceMeters>27864.419869676</DistanceMeters>
          </Trackpoint>
          <Trackpoint>
            <Time>2022-07-10T07:30:21.000Z</Time>
            <Position>
              <LatitudeDegrees>42.77650027535855770111083984375</LatitudeDegrees>
              <LongitudeDegrees>-0.16861346550285816192626953125</LongitudeDegrees>
            </Position>
            <AltitudeMeters>2222.39990234375</AltitudeMeters>
            <DistanceMeters>27866.700510821</DistanceMeters>
          </Trackpoint>
          <Trackpoint>
            <Time>2022-07-10T07:30:22.000Z</Time>
            <Position>
              <LatitudeDegrees>42.77648652903735637664794921875</LatitudeDegrees>
              <LongitudeDegrees>-0.168624110519886016845703125</LongitudeDegrees>
            </Position>
            <AltitudeMeters>2222.199951171875</AltitudeMeters>
            <DistanceMeters>27868.462993812</DistanceMeters>
          </Trackpoint>
          <Trackpoint>
            <Time>2022-07-10T07:30:25.000Z</Time>
            <Position>
              <LatitudeDegrees>42.77645409107208251953125</LatitudeDegrees>
              <LongitudeDegrees>-0.1686651818454265594482421875</LongitudeDegrees>
            </Position>
            <AltitudeMeters>2222</AltitudeMeters>
            <DistanceMeters>27873.393406147</DistanceMeters>
          </Trackpoint>
          <Trackpoint>
            <Time>2022-07-10T07:30:31.000Z</Time>
            <Position>
              <LatitudeDegrees>42.77636700309813022613525390625</LatitudeDegrees>
              <LongitudeDegrees>-0.168683789670467376708984375</LongitudeDegrees>
            </Position>
            <AltitudeMeters>2221.199951171875</AltitudeMeters>
            <DistanceMeters>27883.205115731</DistanceMeters>
          </Trackpoint>
          <Trackpoint>
            <Time>2022-07-10T07:30:32.000Z</Time>
            <Position>
              <LatitudeDegrees>42.77635325677692890167236328125</LatitudeDegrees>
              <LongitudeDegrees>-0.1686812750995159149169921875</LongitudeDegrees>
            </Position>
            <AltitudeMeters>2221.199951171875</AltitudeMeters>
            <DistanceMeters>27884.749117085</DistanceMeters>
          </Trackpoint>
          <Trackpoint>
            <Time>2022-07-10T07:30:34.000Z</Time>
            <Position>
              <LatitudeDegrees>42.7763285301625728607177734375</LatitudeDegrees>
              <LongitudeDegrees>-0.16867163591086864471435546875</LongitudeDegrees>
            </Position>
            <AltitudeMeters>2221</AltitudeMeters>
            <DistanceMeters>27887.610983493</DistanceMeters>
          </Trackpoint>
          <Trackpoint>
            <Time>2022-07-10T07:30:40.000Z</Time>
            <Position>
              <LatitudeDegrees>42.7762376703321933746337890625</LatitudeDegrees>
              <LongitudeDegrees>-0.1686554588377475738525390625</LongitudeDegrees>
            </Position>
            <AltitudeMeters>2220.800048828125</AltitudeMeters>
            <DistanceMeters>27897.80943536</DistanceMeters>
          </Trackpoint>
          <Trackpoint>
            <Time>2022-07-10T07:30:46.000Z</Time>
            <Position>
              <LatitudeDegrees>42.77615946717560291290283203125</LatitudeDegrees>
              <LongitudeDegrees>-0.16868974082171916961669921875</LongitudeDegrees>
            </Position>
            <AltitudeMeters>2220.39990234375</AltitudeMeters>
            <DistanceMeters>27906.953750964</DistanceMeters>
          </Trackpoint>
          <Trackpoint>
            <Time>2022-07-10T07:30:47.000Z</Time>
            <Position>
              <LatitudeDegrees>42.776145637035369873046875</LatitudeDegrees>
              <LongitudeDegrees>-0.168689824640750885009765625</LongitudeDegrees>
            </Position>
            <AltitudeMeters>2220.60009765625</AltitudeMeters>
            <DistanceMeters>27908.497752318</DistanceMeters>
          </Trackpoint>
          <Trackpoint>
            <Time>2022-07-10T07:30:49.000Z</Time>
            <Position>
              <LatitudeDegrees>42.7761201560497283935546875</LatitudeDegrees>
              <LongitudeDegrees>-0.168698541820049285888671875</LongitudeDegrees>
            </Position>
            <AltitudeMeters>2220.39990234375</AltitudeMeters>
            <DistanceMeters>27911.422044094</DistanceMeters>
          </Trackpoint>
          <Trackpoint>
            <Time>2022-07-10T07:30:50.000Z</Time>
            <Position>
              <LatitudeDegrees>42.77611018158495426177978515625</LatitudeDegrees>
              <LongitudeDegrees>-0.1687013916671276092529296875</LongitudeDegrees>
            </Position>
            <AltitudeMeters>2220</AltitudeMeters>
            <DistanceMeters>27912.554418085</DistanceMeters>
          </Trackpoint>
          <Trackpoint>
            <Time>2022-07-10T07:30:54.000Z</Time>
            <Position>
              <LatitudeDegrees>42.7760405279695987701416015625</LatitudeDegrees>
              <LongitudeDegrees>-0.16868940554559230804443359375</LongitudeDegrees>
            </Position>
            <AltitudeMeters>2219.60009765625</AltitudeMeters>
            <DistanceMeters>27920.368596027</DistanceMeters>
          </Trackpoint>
          <Trackpoint>
            <Time>2022-07-10T07:30:58.000Z</Time>
            <Position>
              <LatitudeDegrees>42.7759748138487339019775390625</LatitudeDegrees>
              <LongitudeDegrees>-0.1686765812337398529052734375</LongitudeDegrees>
            </Position>
            <AltitudeMeters>2219</AltitudeMeters>
            <DistanceMeters>27927.75871797</DistanceMeters>
          </Trackpoint>
          <Trackpoint>
            <Time>2022-07-10T07:31:01.000Z</Time>
            <Position>
              <LatitudeDegrees>42.77592745609581470489501953125</LatitudeDegrees>
              <LongitudeDegrees>-0.16868236474692821502685546875</LongitudeDegrees>
            </Position>
            <AltitudeMeters>2218.60009765625</AltitudeMeters>
            <DistanceMeters>27933.051287963</DistanceMeters>
          </Trackpoint>
          <Trackpoint>
            <Time>2022-07-10T07:31:03.000Z</Time>
            <Position>
              <LatitudeDegrees>42.7759027294814586639404296875</LatitudeDegrees>
              <LongitudeDegrees>-0.1686977036297321319580078125</LongitudeDegrees>
            </Position>
            <AltitudeMeters>2218.39990234375</AltitudeMeters>
            <DistanceMeters>27936.075766007</DistanceMeters>
          </Trackpoint>
          <Trackpoint>
            <Time>2022-07-10T07:31:06.000Z</Time>
            <Position>
              <LatitudeDegrees>42.7758678607642650604248046875</LatitudeDegrees>
              <LongitudeDegrees>-0.1687134616076946258544921875</LongitudeDegrees>
            </Position>
            <AltitudeMeters>2218</AltitudeMeters>
            <DistanceMeters>27940.165228267</DistanceMeters>
          </Trackpoint>
          <Trackpoint>
            <Time>2022-07-10T07:31:07.000Z</Time>
            <Position>
              <LatitudeDegrees>42.77585855685174465179443359375</LatitudeDegrees>
              <LongitudeDegrees>-0.16872041858732700347900390625</LongitudeDegrees>
            </Position>
            <AltitudeMeters>2218</AltitudeMeters>
            <DistanceMeters>27941.352111549</DistanceMeters>
          </Trackpoint>
          <Trackpoint>
            <Time>2022-07-10T07:31:11.000Z</Time>
            <Position>
              <LatitudeDegrees>42.77581212110817432403564453125</LatitudeDegrees>
              <LongitudeDegrees>-0.16873869113624095916748046875</LongitudeDegrees>
            </Position>
            <AltitudeMeters>2217</AltitudeMeters>
            <DistanceMeters>27946.732671471</DistanceMeters>
          </Trackpoint>
          <Trackpoint>
            <Time>2022-07-10T07:31:15.000Z</Time>
            <Position>
              <LatitudeDegrees>42.77578094042837619781494140625</LatitudeDegrees>
              <LongitudeDegrees>-0.16875361092388629913330078125</LongitudeDegrees>
            </Position>
            <AltitudeMeters>2216.39990234375</AltitudeMeters>
            <DistanceMeters>27950.409358083</DistanceMeters>
          </Trackpoint>
          <Trackpoint>
            <Time>2022-07-10T07:31:16.000Z</Time>
            <Position>
              <LatitudeDegrees>42.77577423490583896636962890625</LatitudeDegrees>
              <LongitudeDegrees>-0.168761909008026123046875</LongitudeDegrees>
            </Position>
            <AltitudeMeters>2216.39990234375</AltitudeMeters>
            <DistanceMeters>27951.419505912</DistanceMeters>
          </Trackpoint>
          <Trackpoint>
            <Time>2022-07-10T07:31:18.000Z</Time>
            <Position>
              <LatitudeDegrees>42.775753699243068695068359375</LatitudeDegrees>
              <LongitudeDegrees>-0.16877741552889347076416015625</LongitudeDegrees>
            </Position>
            <AltitudeMeters>2216.39990234375</AltitudeMeters>
            <DistanceMeters>27954.032308582</DistanceMeters>
          </Trackpoint>
          <Trackpoint>
            <Time>2022-07-10T07:31:22.000Z</Time>
            <Position>
              <LatitudeDegrees>42.775675915181636810302734375</LatitudeDegrees>
              <LongitudeDegrees>-0.16873785294592380523681640625</LongitudeDegrees>
            </Position>
            <AltitudeMeters>2216.199951171875</AltitudeMeters>
            <DistanceMeters>27963.27338173</DistanceMeters>
          </Trackpoint>
          <Trackpoint>
            <Time>2022-07-10T07:31:23.000Z</Time>
            <Position>
              <LatitudeDegrees>42.77565403841435909271240234375</LatitudeDegrees>
              <LongitudeDegrees>-0.16872704029083251953125</LongitudeDegrees>
            </Position>
            <AltitudeMeters>2215.800048828125</AltitudeMeters>
            <DistanceMeters>27965.861878731</DistanceMeters>
          </Trackpoint>
          <Trackpoint>
            <Time>2022-07-10T07:31:29.000Z</Time>
            <Position>
              <LatitudeDegrees>42.77554356493055820465087890625</LatitudeDegrees>
              <LongitudeDegrees>-0.1687176525592803955078125</LongitudeDegrees>
            </Position>
            <AltitudeMeters>2215</AltitudeMeters>
            <DistanceMeters>27978.181680875</DistanceMeters>
          </Trackpoint>
          <Trackpoint>
            <Time>2022-07-10T07:31:31.000Z</Time>
            <Position>
              <LatitudeDegrees>42.77552193962037563323974609375</LatitudeDegrees>
              <LongitudeDegrees>-0.1687362603843212127685546875</LongitudeDegrees>
            </Position>
            <AltitudeMeters>2214.800048828125</AltitudeMeters>
            <DistanceMeters>27981.029312987</DistanceMeters>
          </Trackpoint>
          <Trackpoint>
            <Time>2022-07-10T07:31:34.000Z</Time>
            <Position>
              <LatitudeDegrees>42.775481455028057098388671875</LatitudeDegrees>
              <LongitudeDegrees>-0.16872829757630825042724609375</LongitudeDegrees>
            </Position>
            <AltitudeMeters>2214.39990234375</AltitudeMeters>
            <DistanceMeters>27985.582669498</DistanceMeters>
          </Trackpoint>
          <Trackpoint>
            <Time>2022-07-10T07:31:35.000Z</Time>
            <Position>
              <LatitudeDegrees>42.7754675410687923431396484375</LatitudeDegrees>
              <LongitudeDegrees>-0.1687305606901645660400390625</LongitudeDegrees>
            </Position>
            <AltitudeMeters>2214.199951171875</AltitudeMeters>
            <DistanceMeters>27987.144117749</DistanceMeters>
          </Trackpoint>
          <Trackpoint>
            <Time>2022-07-10T07:31:40.000Z</Time>
            <Position>
              <LatitudeDegrees>42.77538430877029895782470703125</LatitudeDegrees>
              <LongitudeDegrees>-0.1687409542500972747802734375</LongitudeDegrees>
            </Position>
            <AltitudeMeters>2214</AltitudeMeters>
            <DistanceMeters>27996.4470341</DistanceMeters>
          </Trackpoint>
          <Trackpoint>
            <Time>2022-07-10T07:31:41.000Z</Time>
            <Position>
              <LatitudeDegrees>42.77536846697330474853515625</LatitudeDegrees>
              <LongitudeDegrees>-0.16874036751687526702880859375</LongitudeDegrees>
            </Position>
            <AltitudeMeters>2214</AltitudeMeters>
            <DistanceMeters>27998.209517092</DistanceMeters>
          </Trackpoint>
          <Trackpoint>
            <Time>2022-07-10T07:31:42.000Z</Time>
            <Position>
              <LatitudeDegrees>42.77535312809050083160400390625</LatitudeDegrees>
              <LongitudeDegrees>-0.16873869113624095916748046875</LongitudeDegrees>
            </Position>
            <AltitudeMeters>2214</AltitudeMeters>
            <DistanceMeters>27999.919997951</DistanceMeters>
          </Trackpoint>
          <Trackpoint>
            <Time>2022-07-10T07:31:48.000Z</Time>
            <Position>
              <LatitudeDegrees>42.7752685546875</LatitudeDegrees>
              <LongitudeDegrees>-0.16873936168849468231201171875</LongitudeDegrees>
            </Position>
            <AltitudeMeters>2213.800048828125</AltitudeMeters>
            <DistanceMeters>28009.333879734</DistanceMeters>
          </Trackpoint>
          <Trackpoint>
            <Time>2022-07-10T07:31:50.000Z</Time>
            <Position>
              <LatitudeDegrees>42.77524533681571483612060546875</LatitudeDegrees>
              <LongitudeDegrees>-0.168740451335906982421875</LongitudeDegrees>
            </Position>
            <AltitudeMeters>2213.60009765625</AltitudeMeters>
            <DistanceMeters>28011.91888584</DistanceMeters>
          </Trackpoint>
          <Trackpoint>
            <Time>2022-07-10T07:31:53.000Z</Time>
            <Position>
              <LatitudeDegrees>42.7752082049846649169921875</LatitudeDegrees>
              <LongitudeDegrees>-0.168740786612033843994140625</LongitudeDegrees>
            </Position>
            <AltitudeMeters>2213.39990234375</AltitudeMeters>
            <DistanceMeters>28016.052274841</DistanceMeters>
          </Trackpoint>
          <Trackpoint>
            <Time>2022-07-10T07:31:55.000Z</Time>
            <Position>
              <LatitudeDegrees>42.77518230490386486053466796875</LatitudeDegrees>
              <LongitudeDegrees>-0.1687419600784778594970703125</LongitudeDegrees>
            </Position>
            <AltitudeMeters>2213</AltitudeMeters>
            <DistanceMeters>28018.937709033</DistanceMeters>
          </Trackpoint>
          <Trackpoint>
            <Time>2022-07-10T07:31:58.000Z</Time>
            <Position>
              <LatitudeDegrees>42.775136791169643402099609375</LatitudeDegrees>
              <LongitudeDegrees>-0.16874439083039760589599609375</LongitudeDegrees>
            </Position>
            <AltitudeMeters>2212.60009765625</AltitudeMeters>
            <DistanceMeters>28024.007186083</DistanceMeters>
          </Trackpoint>
          <Trackpoint>
            <Time>2022-07-10T07:31:59.000Z</Time>
            <Position>
              <LatitudeDegrees>42.775120697915554046630859375</LatitudeDegrees>
              <LongitudeDegrees>-0.16874372027814388275146484375</LongitudeDegrees>
            </Position>
            <AltitudeMeters>2212.39990234375</AltitudeMeters>
            <DistanceMeters>28025.802662981</DistanceMeters>
          </Trackpoint>
          <Trackpoint>
            <Time>2022-07-10T07:32:01.000Z</Time>
            <Position>
              <LatitudeDegrees>42.7750955522060394287109375</LatitudeDegrees>
              <LongitudeDegrees>-0.168750174343585968017578125</LongitudeDegrees>
            </Position>
            <AltitudeMeters>2212.199951171875</AltitudeMeters>
            <DistanceMeters>28028.650295093</DistanceMeters>
          </Trackpoint>
          <Trackpoint>
            <Time>2022-07-10T07:32:05.000Z</Time>
            <Position>
              <LatitudeDegrees>42.77502958662807941436767578125</LatitudeDegrees>
              <LongitudeDegrees>-0.16875361092388629913330078125</LongitudeDegrees>
            </Position>
            <AltitudeMeters>2211.60009765625</AltitudeMeters>
            <DistanceMeters>28035.997525659</DistanceMeters>
          </Trackpoint>
          <Trackpoint>
            <Time>2022-07-10T07:32:06.000Z</Time>
            <Position>
              <LatitudeDegrees>42.77501231990754604339599609375</LatitudeDegrees>
              <LongitudeDegrees>-0.1687520183622837066650390625</LongitudeDegrees>
            </Position>
            <AltitudeMeters>2211</AltitudeMeters>
            <DistanceMeters>28037.926357299</DistanceMeters>
          </Trackpoint>
          <Trackpoint>
            <Time>2022-07-10T07:32:10.000Z</Time>
            <Position>
              <LatitudeDegrees>42.774951048195362091064453125</LatitudeDegrees>
              <LongitudeDegrees>-0.16874070279300212860107421875</LongitudeDegrees>
            </Position>
            <AltitudeMeters>2210.39990234375</AltitudeMeters>
            <DistanceMeters>28044.809073407</DistanceMeters>
          </Trackpoint>
          <Trackpoint>
            <Time>2022-07-10T07:32:12.000Z</Time>
            <Position>
              <LatitudeDegrees>42.7749220468103885650634765625</LatitudeDegrees>
              <LongitudeDegrees>-0.168742127716541290283203125</LongitudeDegrees>
            </Position>
            <AltitudeMeters>2210</AltitudeMeters>
            <DistanceMeters>28048.038583941</DistanceMeters>
          </Trackpoint>
          <Trackpoint>
            <Time>2022-07-10T07:32:18.000Z</Time>
            <Position>
              <LatitudeDegrees>42.77481718920171260833740234375</LatitudeDegrees>
              <LongitudeDegrees>-0.1687194965779781341552734375</LongitudeDegrees>
            </Position>
            <AltitudeMeters>2209.39990234375</AltitudeMeters>
            <DistanceMeters>28059.854803386</DistanceMeters>
          </Trackpoint>
          <Trackpoint>
            <Time>2022-07-10T07:32:19.000Z</Time>
            <Position>
              <LatitudeDegrees>42.774800844490528106689453125</LatitudeDegrees>
              <LongitudeDegrees>-0.168718658387660980224609375</LongitudeDegrees>
            </Position>
            <AltitudeMeters>2209.199951171875</AltitudeMeters>
            <DistanceMeters>28061.675253346</DistanceMeters>
          </Trackpoint>
          <Trackpoint>
            <Time>2022-07-10T07:32:23.000Z</Time>
            <Position>
              <LatitudeDegrees>42.77475549839437007904052734375</LatitudeDegrees>
              <LongitudeDegrees>-0.168718993663787841796875</LongitudeDegrees>
            </Position>
            <AltitudeMeters>2208</AltitudeMeters>
            <DistanceMeters>28066.723309974</DistanceMeters>
          </Trackpoint>
          <Trackpoint>
            <Time>2022-07-10T07:32:24.000Z</Time>
            <Position>
              <LatitudeDegrees>42.77474761940538883209228515625</LatitudeDegrees>
              <LongitudeDegrees>-0.168726034462451934814453125</LongitudeDegrees>
            </Position>
            <AltitudeMeters>2207.800048828125</AltitudeMeters>
            <DistanceMeters>28067.772914341</DistanceMeters>
          </Trackpoint>
          <Trackpoint>
            <Time>2022-07-10T07:32:25.000Z</Time>
            <Position>
              <LatitudeDegrees>42.77473890222609043121337890625</LatitudeDegrees>
              <LongitudeDegrees>-0.1687337458133697509765625</LongitudeDegrees>
            </Position>
            <AltitudeMeters>2207.800048828125</AltitudeMeters>
            <DistanceMeters>28068.928964216</DistanceMeters>
          </Trackpoint>
          <Trackpoint>
            <Time>2022-07-10T07:32:31.000Z</Time>
            <Position>
              <LatitudeDegrees>42.77466396801173686981201171875</LatitudeDegrees>
              <LongitudeDegrees>-0.16874455846846103668212890625</LongitudeDegrees>
            </Position>
            <AltitudeMeters>2207.199951171875</AltitudeMeters>
            <DistanceMeters>28077.316114835</DistanceMeters>
          </Trackpoint>
          <Trackpoint>
            <Time>2022-07-10T07:32:32.000Z</Time>
            <Position>
              <LatitudeDegrees>42.774645276367664337158203125</LatitudeDegrees>
              <LongitudeDegrees>-0.1687389425933361053466796875</LongitudeDegrees>
            </Position>
            <AltitudeMeters>2206.800048828125</AltitudeMeters>
            <DistanceMeters>28079.445222247</DistanceMeters>
          </Trackpoint>
          <Trackpoint>
            <Time>2022-07-10T07:32:36.000Z</Time>
            <Position>
              <LatitudeDegrees>42.7745810709893703460693359375</LatitudeDegrees>
              <LongitudeDegrees>-0.16871656291186809539794921875</LongitudeDegrees>
            </Position>
            <AltitudeMeters>2206</AltitudeMeters>
            <DistanceMeters>28086.821278821</DistanceMeters>
          </Trackpoint>
          <Trackpoint>
            <Time>2022-07-10T07:32:37.000Z</Time>
            <Position>
              <LatitudeDegrees>42.774568833410739898681640625</LatitudeDegrees>
              <LongitudeDegrees>-0.16870516352355480194091796875</LongitudeDegrees>
            </Position>
            <AltitudeMeters>2205.800048828125</AltitudeMeters>
            <DistanceMeters>28088.472667051</DistanceMeters>
          </Trackpoint>
          <Trackpoint>
            <Time>2022-07-10T07:32:38.000Z</Time>
            <Position>
              <LatitudeDegrees>42.77455575764179229736328125</LatitudeDegrees>
              <LongitudeDegrees>-0.16869376413524150848388671875</LongitudeDegrees>
            </Position>
            <AltitudeMeters>2205.39990234375</AltitudeMeters>
            <DistanceMeters>28090.198913043</DistanceMeters>
          </Trackpoint>
          <Trackpoint>
            <Time>2022-07-10T07:32:40.000Z</Time>
            <Position>
              <LatitudeDegrees>42.7745421789586544036865234375</LatitudeDegrees>
              <LongitudeDegrees>-0.16866677440702915191650390625</LongitudeDegrees>
            </Position>
            <AltitudeMeters>2204.800048828125</AltitudeMeters>
            <DistanceMeters>28092.871512988</DistanceMeters>
          </Trackpoint>
          <Trackpoint>
            <Time>2022-07-10T07:32:41.000Z</Time>
            <Position>
              <LatitudeDegrees>42.77453840710222721099853515625</LatitudeDegrees>
              <LongitudeDegrees>-0.168650262057781219482421875</LongitudeDegrees>
            </Position>
            <AltitudeMeters>2204.39990234375</AltitudeMeters>
            <DistanceMeters>28094.287379144</DistanceMeters>
          </Trackpoint>
          <Trackpoint>
            <Time>2022-07-10T07:32:47.000Z</Time>
            <Position>
              <LatitudeDegrees>42.774524576961994171142578125</LatitudeDegrees>
              <LongitudeDegrees>-0.1685713045299053192138671875</LongitudeDegrees>
            </Position>
            <AltitudeMeters>2203.60009765625</AltitudeMeters>
            <DistanceMeters>28100.918855019</DistanceMeters>
          </Trackpoint>
          <Trackpoint>
            <Time>2022-07-10T07:32:48.000Z</Time>
            <Position>
              <LatitudeDegrees>42.77452088892459869384765625</LatitudeDegrees>
              <LongitudeDegrees>-0.16856409609317779541015625</LongitudeDegrees>
            </Position>
            <AltitudeMeters>2203.199951171875</AltitudeMeters>
            <DistanceMeters>28101.629969835</DistanceMeters>
          </Trackpoint>
          <Trackpoint>
            <Time>2022-07-10T07:32:50.000Z</Time>
            <Position>
              <LatitudeDegrees>42.77449515648186206817626953125</LatitudeDegrees>
              <LongitudeDegrees>-0.1685334183275699615478515625</LongitudeDegrees>
            </Position>
            <AltitudeMeters>2202.800048828125</AltitudeMeters>
            <DistanceMeters>28105.435786779</DistanceMeters>
          </Trackpoint>
          <Trackpoint>
            <Time>2022-07-10T07:32:51.000Z</Time>
            <Position>
              <LatitudeDegrees>42.774477303028106689453125</LatitudeDegrees>
              <LongitudeDegrees>-0.16852109692990779876708984375</LongitudeDegrees>
            </Position>
            <AltitudeMeters>2202.800048828125</AltitudeMeters>
            <DistanceMeters>28107.664360773</DistanceMeters>
          </Trackpoint>
          <Trackpoint>
            <Time>2022-07-10T07:32:54.000Z</Time>
            <Position>
              <LatitudeDegrees>42.7744271792471408843994140625</LatitudeDegrees>
              <LongitudeDegrees>-0.168494693934917449951171875</LongitudeDegrees>
            </Position>
            <AltitudeMeters>2202</AltitudeMeters>
            <DistanceMeters>28113.645762186</DistanceMeters>
          </Trackpoint>
          <Trackpoint>
            <Time>2022-07-10T07:32:57.000Z</Time>
            <Position>
              <LatitudeDegrees>42.77438485063612461090087890625</LatitudeDegrees>
              <LongitudeDegrees>-0.16847985796630382537841796875</LongitudeDegrees>
            </Position>
            <AltitudeMeters>2201.39990234375</AltitudeMeters>
            <DistanceMeters>28118.511649612</DistanceMeters>
          </Trackpoint>
          <Trackpoint>
            <Time>2022-07-10T07:33:00.000Z</Time>
            <Position>
              <LatitudeDegrees>42.77434227056801319122314453125</LatitudeDegrees>
              <LongitudeDegrees>-0.1684633456170558929443359375</LongitudeDegrees>
            </Position>
            <AltitudeMeters>2201</AltitudeMeters>
            <DistanceMeters>28123.439313922</DistanceMeters>
          </Trackpoint>
          <Trackpoint>
            <Time>2022-07-10T07:33:02.000Z</Time>
            <Position>
              <LatitudeDegrees>42.7743158675730228424072265625</LatitudeDegrees>
              <LongitudeDegrees>-0.16845672391355037689208984375</LongitudeDegrees>
            </Position>
            <AltitudeMeters>2200.60009765625</AltitudeMeters>
            <DistanceMeters>28126.426238013</DistanceMeters>
          </Trackpoint>
          <Trackpoint>
            <Time>2022-07-10T07:33:07.000Z</Time>
            <Position>
              <LatitudeDegrees>42.77426130138337612152099609375</LatitudeDegrees>
              <LongitudeDegrees>-0.16845412552356719970703125</LongitudeDegrees>
            </Position>
            <AltitudeMeters>2199.800048828125</AltitudeMeters>
            <DistanceMeters>28132.503491723</DistanceMeters>
          </Trackpoint>
          <Trackpoint>
            <Time>2022-07-10T07:33:08.000Z</Time>
            <Position>
              <LatitudeDegrees>42.7742528356611728668212890625</LatitudeDegrees>
              <LongitudeDegrees>-0.168453119695186614990234375</LongitudeDegrees>
            </Position>
            <AltitudeMeters>2199.39990234375</AltitudeMeters>
            <DistanceMeters>28133.448995593</DistanceMeters>
          </Trackpoint>
          <Trackpoint>
            <Time>2022-07-10T07:33:10.000Z</Time>
            <Position>
              <LatitudeDegrees>42.77423682622611522674560546875</LatitudeDegrees>
              <LongitudeDegrees>-0.16845320351421833038330078125</LongitudeDegrees>
            </Position>
            <AltitudeMeters>2198.60009765625</AltitudeMeters>
            <DistanceMeters>28135.231854788</DistanceMeters>
          </Trackpoint>
          <Trackpoint>
            <Time>2022-07-10T07:33:15.000Z</Time>
            <Position>
              <LatitudeDegrees>42.774191983044147491455078125</LatitudeDegrees>
              <LongitudeDegrees>-0.1684093661606311798095703125</LongitudeDegrees>
            </Position>
            <AltitudeMeters>2197.60009765625</AltitudeMeters>
            <DistanceMeters>28141.375609303</DistanceMeters>
          </Trackpoint>
          <Trackpoint>
            <Time>2022-07-10T07:33:16.000Z</Time>
            <Position>
              <LatitudeDegrees>42.77418452315032482147216796875</LatitudeDegrees>
              <LongitudeDegrees>-0.1683999784290790557861328125</LongitudeDegrees>
            </Position>
            <AltitudeMeters>2197.39990234375</AltitudeMeters>
            <DistanceMeters>28142.507983294</DistanceMeters>
          </Trackpoint>
          <Trackpoint>
            <Time>2022-07-10T07:33:19.000Z</Time>
            <Position>
              <LatitudeDegrees>42.774143032729625701904296875</LatitudeDegrees>
              <LongitudeDegrees>-0.1684011518955230712890625</LongitudeDegrees>
            </Position>
            <AltitudeMeters>2196.39990234375</AltitudeMeters>
            <DistanceMeters>28147.126320717</DistanceMeters>
          </Trackpoint>
          <Trackpoint>
            <Time>2022-07-10T07:33:20.000Z</Time>
            <Position>
              <LatitudeDegrees>42.77412853203713893890380859375</LatitudeDegrees>
              <LongitudeDegrees>-0.1684003137052059173583984375</LongitudeDegrees>
            </Position>
            <AltitudeMeters>2196.199951171875</AltitudeMeters>
            <DistanceMeters>28148.741774862</DistanceMeters>
          </Trackpoint>
          <Trackpoint>
            <Time>2022-07-10T07:33:23.000Z</Time>
            <Position>
              <LatitudeDegrees>42.774101458489894866943359375</LatitudeDegrees>
              <LongitudeDegrees>-0.168390087783336639404296875</LongitudeDegrees>
            </Position>
            <AltitudeMeters>2195</AltitudeMeters>
            <DistanceMeters>28151.867561597</DistanceMeters>
          </Trackpoint>
          <Trackpoint>
            <Time>2022-07-10T07:33:24.000Z</Time>
            <Position>
              <LatitudeDegrees>42.77409500442445278167724609375</LatitudeDegrees>
              <LongitudeDegrees>-0.1683842204511165618896484375</LongitudeDegrees>
            </Position>
            <AltitudeMeters>2194.800048828125</AltitudeMeters>
            <DistanceMeters>28152.728065094</DistanceMeters>
          </Trackpoint>
          <Trackpoint>
            <Time>2022-07-10T07:33:26.000Z</Time>
            <Position>
              <LatitudeDegrees>42.7740788273513317108154296875</LatitudeDegrees>
              <LongitudeDegrees>-0.16837206669151782989501953125</LongitudeDegrees>
            </Position>
            <AltitudeMeters>2193.39990234375</AltitudeMeters>
            <DistanceMeters>28154.783807241</DistanceMeters>
          </Trackpoint>
          <Trackpoint>
            <Time>2022-07-10T07:33:27.000Z</Time>
            <Position>
              <LatitudeDegrees>42.77406801469624042510986328125</LatitudeDegrees>
              <LongitudeDegrees>-0.168364942073822021484375</LongitudeDegrees>
            </Position>
            <AltitudeMeters>2193</AltitudeMeters>
            <DistanceMeters>28156.124324011</DistanceMeters>
          </Trackpoint>
          <Trackpoint>
            <Time>2022-07-10T07:33:29.000Z</Time>
            <Position>
              <LatitudeDegrees>42.77405242435634136199951171875</LatitudeDegrees>
              <LongitudeDegrees>-0.16834306530654430389404296875</LongitudeDegrees>
            </Position>
            <AltitudeMeters>2192.39990234375</AltitudeMeters>
            <DistanceMeters>28158.616851362</DistanceMeters>
          </Trackpoint>
          <Trackpoint>
            <Time>2022-07-10T07:33:31.000Z</Time>
            <Position>
              <LatitudeDegrees>42.774035073816776275634765625</LatitudeDegrees>
              <LongitudeDegrees>-0.16831708140671253204345703125</LongitudeDegrees>
            </Position>
            <AltitudeMeters>2191.800048828125</AltitudeMeters>
            <DistanceMeters>28161.486595204</DistanceMeters>
          </Trackpoint>
          <Trackpoint>
            <Time>2022-07-10T07:33:33.000Z</Time>
            <Position>
              <LatitudeDegrees>42.7740181423723697662353515625</LatitudeDegrees>
              <LongitudeDegrees>-0.16829528845846652984619140625</LongitudeDegrees>
            </Position>
            <AltitudeMeters>2191</AltitudeMeters>
            <DistanceMeters>28164.078578397</DistanceMeters>
          </Trackpoint>
          <Trackpoint>
            <Time>2022-07-10T07:33:36.000Z</Time>
            <Position>
              <LatitudeDegrees>42.7739933319389820098876953125</LatitudeDegrees>
              <LongitudeDegrees>-0.1682712323963642120361328125</LongitudeDegrees>
            </Position>
            <AltitudeMeters>2189.800048828125</AltitudeMeters>
            <DistanceMeters>28167.467716523</DistanceMeters>
          </Trackpoint>
          <Trackpoint>
            <Time>2022-07-10T07:33:37.000Z</Time>
            <Position>
              <LatitudeDegrees>42.77398520149290561676025390625</LatitudeDegrees>
              <LongitudeDegrees>-0.1682665385305881500244140625</LongitudeDegrees>
            </Position>
            <AltitudeMeters>2189.60009765625</AltitudeMeters>
            <DistanceMeters>28168.446076428</DistanceMeters>
          </Trackpoint>
          <Trackpoint>
            <Time>2022-07-10T07:33:40.000Z</Time>
            <Position>
              <LatitudeDegrees>42.77394748292863368988037109375</LatitudeDegrees>
              <LongitudeDegrees>-0.1682611741125583648681640625</LongitudeDegrees>
            </Position>
            <AltitudeMeters>2189</AltitudeMeters>
            <DistanceMeters>28172.668086719</DistanceMeters>
          </Trackpoint>
          <Trackpoint>
            <Time>2022-07-10T07:33:41.000Z</Time>
            <Position>
              <LatitudeDegrees>42.77393348515033721923828125</LatitudeDegrees>
              <LongitudeDegrees>-0.16826528124511241912841796875</LongitudeDegrees>
            </Position>
            <AltitudeMeters>2188.60009765625</AltitudeMeters>
            <DistanceMeters>28174.263856614</DistanceMeters>
          </Trackpoint>
          <Trackpoint>
            <Time>2022-07-10T07:33:43.000Z</Time>
            <Position>
              <LatitudeDegrees>42.77390993200242519378662109375</LatitudeDegrees>
              <LongitudeDegrees>-0.1682571507990360260009765625</LongitudeDegrees>
            </Position>
            <AltitudeMeters>2187.800048828125</AltitudeMeters>
            <DistanceMeters>28176.968364318</DistanceMeters>
          </Trackpoint>
          <Trackpoint>
            <Time>2022-07-10T07:33:47.000Z</Time>
            <Position>
              <LatitudeDegrees>42.77388579212129116058349609375</LatitudeDegrees>
              <LongitudeDegrees>-0.16821096651256084442138671875</LongitudeDegrees>
            </Position>
            <AltitudeMeters>2187.39990234375</AltitudeMeters>
            <DistanceMeters>28181.60036838</DistanceMeters>
          </Trackpoint>
          <Trackpoint>
            <Time>2022-07-10T07:33:48.000Z</Time>
            <Position>
              <LatitudeDegrees>42.7738692797720432281494140625</LatitudeDegrees>
              <LongitudeDegrees>-0.168203003704547882080078125</LongitudeDegrees>
            </Position>
            <AltitudeMeters>2187.199951171875</AltitudeMeters>
            <DistanceMeters>28183.552467829</DistanceMeters>
          </Trackpoint>
          <Trackpoint>
            <Time>2022-07-10T07:33:49.000Z</Time>
            <Position>
              <LatitudeDegrees>42.77385394088923931121826171875</LatitudeDegrees>
              <LongitudeDegrees>-0.1681934483349323272705078125</LongitudeDegrees>
            </Position>
            <AltitudeMeters>2187.199951171875</AltitudeMeters>
            <DistanceMeters>28185.429095073</DistanceMeters>
          </Trackpoint>
          <Trackpoint>
            <Time>2022-07-10T07:33:54.000Z</Time>
            <Position>
              <LatitudeDegrees>42.7737925015389919281005859375</LatitudeDegrees>
              <LongitudeDegrees>-0.1680851541459560394287109375</LongitudeDegrees>
            </Position>
            <AltitudeMeters>2186.199951171875</AltitudeMeters>
            <DistanceMeters>28196.611603673</DistanceMeters>
          </Trackpoint>
          <Trackpoint>
            <Time>2022-07-10T07:33:55.000Z</Time>
            <Position>
              <LatitudeDegrees>42.7737723849713802337646484375</LatitudeDegrees>
              <LongitudeDegrees>-0.16806294210255146026611328125</LongitudeDegrees>
            </Position>
            <AltitudeMeters>2186</AltitudeMeters>
            <DistanceMeters>28199.493906629</DistanceMeters>
          </Trackpoint>
          <Trackpoint>
            <Time>2022-07-10T07:34:00.000Z</Time>
            <Position>
              <LatitudeDegrees>42.7737100236117839813232421875</LatitudeDegrees>
              <LongitudeDegrees>-0.168109796941280364990234375</LongitudeDegrees>
            </Position>
            <AltitudeMeters>2185.60009765625</AltitudeMeters>
            <DistanceMeters>28207.420524564</DistanceMeters>
          </Trackpoint>
          <Trackpoint>
            <Time>2022-07-10T07:34:02.000Z</Time>
            <Position>
              <LatitudeDegrees>42.77365562506020069122314453125</LatitudeDegrees>
              <LongitudeDegrees>-0.168112479150295257568359375</LongitudeDegrees>
            </Position>
            <AltitudeMeters>2185.199951171875</AltitudeMeters>
            <DistanceMeters>28213.479176291</DistanceMeters>
          </Trackpoint>
          <Trackpoint>
            <Time>2022-07-10T07:34:03.000Z</Time>
            <Position>
              <LatitudeDegrees>42.77363316155970096588134765625</LatitudeDegrees>
              <LongitudeDegrees>-0.16811206005513668060302734375</LongitudeDegrees>
            </Position>
            <AltitudeMeters>2185</AltitudeMeters>
            <DistanceMeters>28215.97893886</DistanceMeters>
          </Trackpoint>
          <Trackpoint>
            <Time>2022-07-10T07:34:07.000Z</Time>
            <Position>
              <LatitudeDegrees>42.7735464088618755340576171875</LatitudeDegrees>
              <LongitudeDegrees>-0.1681106351315975189208984375</LongitudeDegrees>
            </Position>
            <AltitudeMeters>2184.60009765625</AltitudeMeters>
            <DistanceMeters>28225.635261626</DistanceMeters>
          </Trackpoint>
          <Trackpoint>
            <Time>2022-07-10T07:34:10.000Z</Time>
            <Position>
              <LatitudeDegrees>42.77350575663149356842041015625</LatitudeDegrees>
              <LongitudeDegrees>-0.1681220345199108123779296875</LongitudeDegrees>
            </Position>
            <AltitudeMeters>2184.39990234375</AltitudeMeters>
            <DistanceMeters>28230.253599049</DistanceMeters>
          </Trackpoint>
          <Trackpoint>
            <Time>2022-07-10T07:34:14.000Z</Time>
            <Position>
              <LatitudeDegrees>42.77345697395503520965576171875</LatitudeDegrees>
              <LongitudeDegrees>-0.16814298927783966064453125</LongitudeDegrees>
            </Position>
            <AltitudeMeters>2184.199951171875</AltitudeMeters>
            <DistanceMeters>28235.946484465</DistanceMeters>
          </Trackpoint>
          <Trackpoint>
            <Time>2022-07-10T07:34:16.000Z</Time>
            <Position>
              <LatitudeDegrees>42.773444987833499908447265625</LatitudeDegrees>
              <LongitudeDegrees>-0.16816033981740474700927734375</LongitudeDegrees>
            </Position>
            <AltitudeMeters>2183.39990234375</AltitudeMeters>
            <DistanceMeters>28237.896269629</DistanceMeters>
          </Trackpoint>
          <Trackpoint>
            <Time>2022-07-10T07:34:17.000Z</Time>
            <Position>
              <LatitudeDegrees>42.7734438143670558929443359375</LatitudeDegrees>
              <LongitudeDegrees>-0.1681656204164028167724609375</LongitudeDegrees>
            </Position>
            <AltitudeMeters>2183.199951171875</AltitudeMeters>
            <DistanceMeters>28238.341984427</DistanceMeters>
          </Trackpoint>
          <Trackpoint>
            <Time>2022-07-10T07:34:18.000Z</Time>
            <Position>
              <LatitudeDegrees>42.77344356290996074676513671875</LatitudeDegrees>
              <LongitudeDegrees>-0.16817115247249603271484375</LongitudeDegrees>
            </Position>
            <AltitudeMeters>2183.199951171875</AltitudeMeters>
            <DistanceMeters>28238.79771654</DistanceMeters>
          </Trackpoint>
          <Trackpoint>
            <Time>2022-07-10T07:34:20.000Z</Time>
            <Position>
              <LatitudeDegrees>42.773438952863216400146484375</LatitudeDegrees>
              <LongitudeDegrees>-0.16817090101540088653564453125</LongitudeDegrees>
            </Position>
            <AltitudeMeters>2183.199951171875</AltitudeMeters>
            <DistanceMeters>28239.300550648</DistanceMeters>
          </Trackpoint>
          <Trackpoint>
            <Time>2022-07-10T07:34:22.000Z</Time>
            <Position>
              <LatitudeDegrees>42.77342545799911022186279296875</LatitudeDegrees>
              <LongitudeDegrees>-0.16817341558635234832763671875</LongitudeDegrees>
            </Position>
            <AltitudeMeters>2182.800048828125</AltitudeMeters>
            <DistanceMeters>28240.818005587</DistanceMeters>
          </Trackpoint>
          <Trackpoint>
            <Time>2022-07-10T07:34:24.000Z</Time>
            <Position>
              <LatitudeDegrees>42.773404754698276519775390625</LatitudeDegrees>
              <LongitudeDegrees>-0.16818028874695301055908203125</LongitudeDegrees>
            </Position>
            <AltitudeMeters>2182</AltitudeMeters>
            <DistanceMeters>28243.189869332</DistanceMeters>
          </Trackpoint>
          <Trackpoint>
            <Time>2022-07-10T07:34:28.000Z</Time>
            <Position>
              <LatitudeDegrees>42.77335940860211849212646484375</LatitudeDegrees>
              <LongitudeDegrees>-0.168177522718906402587890625</LongitudeDegrees>
            </Position>
            <AltitudeMeters>2181.60009765625</AltitudeMeters>
            <DistanceMeters>28248.241502338</DistanceMeters>
          </Trackpoint>
          <Trackpoint>
            <Time>2022-07-10T07:34:30.000Z</Time>
            <Position>
              <LatitudeDegrees>42.77334314770996570587158203125</LatitudeDegrees>
              <LongitudeDegrees>-0.16817425377666950225830078125</LongitudeDegrees>
            </Position>
            <AltitudeMeters>2181.39990234375</AltitudeMeters>
            <DistanceMeters>28250.069377686</DistanceMeters>
          </Trackpoint>
          <Trackpoint>
            <Time>2022-07-10T07:34:32.000Z</Time>
            <Position>
              <LatitudeDegrees>42.7733241207897663116455078125</LatitudeDegrees>
              <LongitudeDegrees>-0.16817023046314716339111328125</LongitudeDegrees>
            </Position>
            <AltitudeMeters>2181</AltitudeMeters>
            <DistanceMeters>28252.213278082</DistanceMeters>
          </Trackpoint>
          <Trackpoint>
            <Time>2022-07-10T07:34:33.000Z</Time>
            <Position>
              <LatitudeDegrees>42.77331431396305561065673828125</LatitudeDegrees>
              <LongitudeDegrees>-0.16817274503409862518310546875</LongitudeDegrees>
            </Position>
            <AltitudeMeters>2180.60009765625</AltitudeMeters>
            <DistanceMeters>28253.325537257</DistanceMeters>
          </Trackpoint>
          <Trackpoint>
            <Time>2022-07-10T07:34:35.000Z</Time>
            <Position>
              <LatitudeDegrees>42.7732862345874309539794921875</LatitudeDegrees>
              <LongitudeDegrees>-0.16817911528050899505615234375</LongitudeDegrees>
            </Position>
            <AltitudeMeters>2180</AltitudeMeters>
            <DistanceMeters>28256.494361172</DistanceMeters>
          </Trackpoint>
          <Trackpoint>
            <Time>2022-07-10T07:34:36.000Z</Time>
            <Position>
              <LatitudeDegrees>42.77327190153300762176513671875</LatitudeDegrees>
              <LongitudeDegrees>-0.1681854017078876495361328125</LongitudeDegrees>
            </Position>
            <AltitudeMeters>2179.39990234375</AltitudeMeters>
            <DistanceMeters>28258.167479129</DistanceMeters>
          </Trackpoint>
          <Trackpoint>
            <Time>2022-07-10T07:34:39.000Z</Time>
            <Position>
              <LatitudeDegrees>42.7732332609593868255615234375</LatitudeDegrees>
              <LongitudeDegrees>-0.16820602118968963623046875</LongitudeDegrees>
            </Position>
            <AltitudeMeters>2178.60009765625</AltitudeMeters>
            <DistanceMeters>28262.786794083</DistanceMeters>
          </Trackpoint>
          <Trackpoint>
            <Time>2022-07-10T07:34:40.000Z</Time>
            <Position>
              <LatitudeDegrees>42.77322278358042240142822265625</LatitudeDegrees>
              <LongitudeDegrees>-0.16821012832224369049072265625</LongitudeDegrees>
            </Position>
            <AltitudeMeters>2178.60009765625</AltitudeMeters>
            <DistanceMeters>28264.003729798</DistanceMeters>
          </Trackpoint>
          <Trackpoint>
            <Time>2022-07-10T07:34:42.000Z</Time>
            <Position>
              <LatitudeDegrees>42.773204259574413299560546875</LatitudeDegrees>
              <LongitudeDegrees>-0.1682296581566333770751953125</LongitudeDegrees>
            </Position>
            <AltitudeMeters>2178.199951171875</AltitudeMeters>
            <DistanceMeters>28266.611343183</DistanceMeters>
          </Trackpoint>
          <Trackpoint>
            <Time>2022-07-10T07:34:44.000Z</Time>
            <Position>
              <LatitudeDegrees>42.773182131350040435791015625</LatitudeDegrees>
              <LongitudeDegrees>-0.1682402193546295166015625</LongitudeDegrees>
            </Position>
            <AltitudeMeters>2178</AltitudeMeters>
            <DistanceMeters>28269.220687476</DistanceMeters>
          </Trackpoint>
          <Trackpoint>
            <Time>2022-07-10T07:34:45.000Z</Time>
            <Position>
              <LatitudeDegrees>42.77317249216139316558837890625</LatitudeDegrees>
              <LongitudeDegrees>-0.168243907392024993896484375</LongitudeDegrees>
            </Position>
            <AltitudeMeters>2177.60009765625</AltitudeMeters>
            <DistanceMeters>28270.332946651</DistanceMeters>
          </Trackpoint>
          <Trackpoint>
            <Time>2022-07-10T07:34:47.000Z</Time>
            <Position>
              <LatitudeDegrees>42.77315966784954071044921875</LatitudeDegrees>
              <LongitudeDegrees>-0.168251954019069671630859375</LongitudeDegrees>
            </Position>
            <AltitudeMeters>2177</AltitudeMeters>
            <DistanceMeters>28271.905918661</DistanceMeters>
          </Trackpoint>
          <Trackpoint>
            <Time>2022-07-10T07:34:48.000Z</Time>
            <Position>
              <LatitudeDegrees>42.7731584943830966949462890625</LatitudeDegrees>
              <LongitudeDegrees>-0.1682641915977001190185546875</LongitudeDegrees>
            </Position>
            <AltitudeMeters>2177</AltitudeMeters>
            <DistanceMeters>28272.911586878</DistanceMeters>
          </Trackpoint>
          <Trackpoint>
            <Time>2022-07-10T07:34:50.000Z</Time>
            <Position>
              <LatitudeDegrees>42.77314365841448307037353515625</LatitudeDegrees>
              <LongitudeDegrees>-0.168278105556964874267578125</LongitudeDegrees>
            </Position>
            <AltitudeMeters>2175.800048828125</AltitudeMeters>
            <DistanceMeters>28274.918428699</DistanceMeters>
          </Trackpoint>
          <Trackpoint>
            <Time>2022-07-10T07:34:51.000Z</Time>
            <Position>
              <LatitudeDegrees>42.7731350250542163848876953125</LatitudeDegrees>
              <LongitudeDegrees>-0.16828514635562896728515625</LongitudeDegrees>
            </Position>
            <AltitudeMeters>2175.39990234375</AltitudeMeters>
            <DistanceMeters>28276.042799946</DistanceMeters>
          </Trackpoint>
          <Trackpoint>
            <Time>2022-07-10T07:34:52.000Z</Time>
            <Position>
              <LatitudeDegrees>42.77312521822750568389892578125</LatitudeDegrees>
              <LongitudeDegrees>-0.1682913489639759063720703125</LongitudeDegrees>
            </Position>
            <AltitudeMeters>2175.199951171875</AltitudeMeters>
            <DistanceMeters>28277.25229256</DistanceMeters>
          </Trackpoint>
          <Trackpoint>
            <Time>2022-07-10T07:34:55.000Z</Time>
            <Position>
              <LatitudeDegrees>42.7730914391577243804931640625</LatitudeDegrees>
              <LongitudeDegrees>-0.16830635257065296173095703125</LongitudeDegrees>
            </Position>
            <AltitudeMeters>2174.60009765625</AltitudeMeters>
            <DistanceMeters>28281.207048229</DistanceMeters>
          </Trackpoint>
          <Trackpoint>
            <Time>2022-07-10T07:34:56.000Z</Time>
            <Position>
              <LatitudeDegrees>42.77307827956974506378173828125</LatitudeDegrees>
              <LongitudeDegrees>-0.16830484382808208465576171875</LongitudeDegrees>
            </Position>
            <AltitudeMeters>2174.60009765625</AltitudeMeters>
            <DistanceMeters>28282.679195758</DistanceMeters>
          </Trackpoint>
          <Trackpoint>
            <Time>2022-07-10T07:35:01.000Z</Time>
            <Position>
              <LatitudeDegrees>42.77300552465021610260009765625</LatitudeDegrees>
              <LongitudeDegrees>-0.16827709972858428955078125</LongitudeDegrees>
            </Position>
            <AltitudeMeters>2173.60009765625</AltitudeMeters>
            <DistanceMeters>28291.087851926</DistanceMeters>
          </Trackpoint>
          <Trackpoint>
            <Time>2022-07-10T07:35:04.000Z</Time>
            <Position>
              <LatitudeDegrees>42.7729563228785991668701171875</LatitudeDegrees>
              <LongitudeDegrees>-0.16826578415930271148681640625</LongitudeDegrees>
            </Position>
            <AltitudeMeters>2172.60009765625</AltitudeMeters>
            <DistanceMeters>28296.641836184</DistanceMeters>
          </Trackpoint>
          <Trackpoint>
            <Time>2022-07-10T07:35:05.000Z</Time>
            <Position>
              <LatitudeDegrees>42.7729445882141590118408203125</LatitudeDegrees>
              <LongitudeDegrees>-0.16826461069285869598388671875</LongitudeDegrees>
            </Position>
            <AltitudeMeters>2172.39990234375</AltitudeMeters>
            <DistanceMeters>28297.951689048</DistanceMeters>
          </Trackpoint>
          <Trackpoint>
            <Time>2022-07-10T07:35:08.000Z</Time>
            <Position>
              <LatitudeDegrees>42.77290728874504566192626953125</LatitudeDegrees>
              <LongitudeDegrees>-0.168274082243442535400390625</LongitudeDegrees>
            </Position>
            <AltitudeMeters>2171.39990234375</AltitudeMeters>
            <DistanceMeters>28302.174768608</DistanceMeters>
          </Trackpoint>
          <Trackpoint>
            <Time>2022-07-10T07:35:09.000Z</Time>
            <Position>
              <LatitudeDegrees>42.77289505116641521453857421875</LatitudeDegrees>
              <LongitudeDegrees>-0.16827081330120563507080078125</LongitudeDegrees>
            </Position>
            <AltitudeMeters>2171.199951171875</AltitudeMeters>
            <DistanceMeters>28303.564889596</DistanceMeters>
          </Trackpoint>
          <Trackpoint>
            <Time>2022-07-10T07:35:15.000Z</Time>
            <Position>
              <LatitudeDegrees>42.772817350924015045166015625</LatitudeDegrees>
              <LongitudeDegrees>-0.1682239584624767303466796875</LongitudeDegrees>
            </Position>
            <AltitudeMeters>2171</AltitudeMeters>
            <DistanceMeters>28313.022793024</DistanceMeters>
          </Trackpoint>
          <Trackpoint>
            <Time>2022-07-10T07:35:16.000Z</Time>
            <Position>
              <LatitudeDegrees>42.772799916565418243408203125</LatitudeDegrees>
              <LongitudeDegrees>-0.1682279817759990692138671875</LongitudeDegrees>
            </Position>
            <AltitudeMeters>2171</AltitudeMeters>
            <DistanceMeters>28314.993308913</DistanceMeters>
          </Trackpoint>
          <Trackpoint>
            <Time>2022-07-10T07:35:18.000Z</Time>
            <Position>
              <LatitudeDegrees>42.77275339700281620025634765625</LatitudeDegrees>
              <LongitudeDegrees>-0.16823678277432918548583984375</LongitudeDegrees>
            </Position>
            <AltitudeMeters>2171</AltitudeMeters>
            <DistanceMeters>28320.220642011</DistanceMeters>
          </Trackpoint>
          <Trackpoint>
            <Time>2022-07-10T07:35:21.000Z</Time>
            <Position>
              <LatitudeDegrees>42.77270880527794361114501953125</LatitudeDegrees>
              <LongitudeDegrees>-0.1682279817759990692138671875</LongitudeDegrees>
            </Position>
            <AltitudeMeters>2170.800048828125</AltitudeMeters>
            <DistanceMeters>28325.234595822</DistanceMeters>
          </Trackpoint>
          <Trackpoint>
            <Time>2022-07-10T07:35:23.000Z</Time>
            <Position>
              <LatitudeDegrees>42.7726750262081623077392578125</LatitudeDegrees>
              <LongitudeDegrees>-0.1681900955736637115478515625</LongitudeDegrees>
            </Position>
            <AltitudeMeters>2170.60009765625</AltitudeMeters>
            <DistanceMeters>28330.104193418</DistanceMeters>
          </Trackpoint>
          <Trackpoint>
            <Time>2022-07-10T07:35:25.000Z</Time>
            <Position>
              <LatitudeDegrees>42.77263521216809749603271484375</LatitudeDegrees>
              <LongitudeDegrees>-0.1681481860578060150146484375</LongitudeDegrees>
            </Position>
            <AltitudeMeters>2170.39990234375</AltitudeMeters>
            <DistanceMeters>28335.704323371</DistanceMeters>
          </Trackpoint>
          <Trackpoint>
            <Time>2022-07-10T07:35:26.000Z</Time>
            <Position>
              <LatitudeDegrees>42.7726176939904689788818359375</LatitudeDegrees>
              <LongitudeDegrees>-0.1681341044604778289794921875</LongitudeDegrees>
            </Position>
            <AltitudeMeters>2170.199951171875</AltitudeMeters>
            <DistanceMeters>28337.969071352</DistanceMeters>
          </Trackpoint>
          <Trackpoint>
            <Time>2022-07-10T07:35:31.000Z</Time>
            <Position>
              <LatitudeDegrees>42.77254636399447917938232421875</LatitudeDegrees>
              <LongitudeDegrees>-0.1681431569159030914306640625</LongitudeDegrees>
            </Position>
            <AltitudeMeters>2169</AltitudeMeters>
            <DistanceMeters>28345.94226006</DistanceMeters>
          </Trackpoint>
          <Trackpoint>
            <Time>2022-07-10T07:35:37.000Z</Time>
            <Position>
              <LatitudeDegrees>42.77249204926192760467529296875</LatitudeDegrees>
              <LongitudeDegrees>-0.16813837923109531402587890625</LongitudeDegrees>
            </Position>
            <AltitudeMeters>2168.60009765625</AltitudeMeters>
            <DistanceMeters>28352.000166519</DistanceMeters>
          </Trackpoint>
          <Trackpoint>
            <Time>2022-07-10T07:35:39.000Z</Time>
            <Position>
              <LatitudeDegrees>42.772491462528705596923828125</LatitudeDegrees>
              <LongitudeDegrees>-0.16814542002975940704345703125</LongitudeDegrees>
            </Position>
            <AltitudeMeters>2168.199951171875</AltitudeMeters>
            <DistanceMeters>28352.585950528</DistanceMeters>
          </Trackpoint>
          <Trackpoint>
            <Time>2022-07-10T07:35:40.000Z</Time>
            <Position>
              <LatitudeDegrees>42.77249121107161045074462890625</LatitudeDegrees>
              <LongitudeDegrees>-0.1681545563042163848876953125</LongitudeDegrees>
            </Position>
            <AltitudeMeters>2168</AltitudeMeters>
            <DistanceMeters>28353.334191625</DistanceMeters>
          </Trackpoint>
          <Trackpoint>
            <Time>2022-07-10T07:35:41.000Z</Time>
            <Position>
              <LatitudeDegrees>42.77248643338680267333984375</LatitudeDegrees>
              <LongitudeDegrees>-0.1681579090654850006103515625</LongitudeDegrees>
            </Position>
            <AltitudeMeters>2168</AltitudeMeters>
            <DistanceMeters>28353.935193337</DistanceMeters>
          </Trackpoint>
          <Trackpoint>
            <Time>2022-07-10T07:35:42.000Z</Time>
            <Position>
              <LatitudeDegrees>42.7724822424352169036865234375</LatitudeDegrees>
              <LongitudeDegrees>-0.1681592501699924468994140625</LongitudeDegrees>
            </Position>
            <AltitudeMeters>2168</AltitudeMeters>
            <DistanceMeters>28354.400727261</DistanceMeters>
          </Trackpoint>
          <Trackpoint>
            <Time>2022-07-10T07:35:45.000Z</Time>
            <Position>
              <LatitudeDegrees>42.77249045670032501220703125</LatitudeDegrees>
              <LongitudeDegrees>-0.1681731641292572021484375</LongitudeDegrees>
            </Position>
            <AltitudeMeters>2167.800048828125</AltitudeMeters>
            <DistanceMeters>28355.860555347</DistanceMeters>
          </Trackpoint>
          <Trackpoint>
            <Time>2022-07-10T07:35:46.000Z</Time>
            <Position>
              <LatitudeDegrees>42.77248718775808811187744140625</LatitudeDegrees>
              <LongitudeDegrees>-0.1681612618267536163330078125</LongitudeDegrees>
            </Position>
            <AltitudeMeters>2167.39990234375</AltitudeMeters>
            <DistanceMeters>28356.901520848</DistanceMeters>
          </Trackpoint>
          <Trackpoint>
            <Time>2022-07-10T07:35:47.000Z</Time>
            <Position>
              <LatitudeDegrees>42.77248500846326351165771484375</LatitudeDegrees>
              <LongitudeDegrees>-0.16814927570521831512451171875</LongitudeDegrees>
            </Position>
            <AltitudeMeters>2167</AltitudeMeters>
            <DistanceMeters>28357.907189064</DistanceMeters>
          </Trackpoint>
          <Trackpoint>
            <Time>2022-07-10T07:35:50.000Z</Time>
            <Position>
              <LatitudeDegrees>42.77246405370533466339111328125</LatitudeDegrees>
              <LongitudeDegrees>-0.16812463290989398956298828125</LongitudeDegrees>
            </Position>
            <AltitudeMeters>2165.60009765625</AltitudeMeters>
            <DistanceMeters>28360.989337734</DistanceMeters>
          </Trackpoint>
          <Trackpoint>
            <Time>2022-07-10T07:35:51.000Z</Time>
            <Position>
              <LatitudeDegrees>42.77245248667895793914794921875</LatitudeDegrees>
              <LongitudeDegrees>-0.16812362708151340484619140625</LongitudeDegrees>
            </Position>
            <AltitudeMeters>2165.199951171875</AltitudeMeters>
            <DistanceMeters>28362.281840787</DistanceMeters>
          </Trackpoint>
          <Trackpoint>
            <Time>2022-07-10T07:35:54.000Z</Time>
            <Position>
              <LatitudeDegrees>42.77241937816143035888671875</LatitudeDegrees>
              <LongitudeDegrees>-0.1681284047663211822509765625</LongitudeDegrees>
            </Position>
            <AltitudeMeters>2164.800048828125</AltitudeMeters>
            <DistanceMeters>28365.986664155</DistanceMeters>
          </Trackpoint>
          <Trackpoint>
            <Time>2022-07-10T07:35:55.000Z</Time>
            <Position>
              <LatitudeDegrees>42.77240873314440250396728515625</LatitudeDegrees>
              <LongitudeDegrees>-0.16812496818602085113525390625</LongitudeDegrees>
            </Position>
            <AltitudeMeters>2164.60009765625</AltitudeMeters>
            <DistanceMeters>28367.203599871</DistanceMeters>
          </Trackpoint>
          <Trackpoint>
            <Time>2022-07-10T07:35:57.000Z</Time>
            <Position>
              <LatitudeDegrees>42.77238853275775909423828125</LatitudeDegrees>
              <LongitudeDegrees>-0.16812345944344997406005859375</LongitudeDegrees>
            </Position>
            <AltitudeMeters>2164.39990234375</AltitudeMeters>
            <DistanceMeters>28369.456354399</DistanceMeters>
          </Trackpoint>
          <Trackpoint>
            <Time>2022-07-10T07:36:02.000Z</Time>
            <Position>
              <LatitudeDegrees>42.7723290212452411651611328125</LatitudeDegrees>
              <LongitudeDegrees>-0.16810334287583827972412109375</LongitudeDegrees>
            </Position>
            <AltitudeMeters>2164</AltitudeMeters>
            <DistanceMeters>28376.281098665</DistanceMeters>
          </Trackpoint>
          <Trackpoint>
            <Time>2022-07-10T07:36:04.000Z</Time>
            <Position>
              <LatitudeDegrees>42.77230203151702880859375</LatitudeDegrees>
              <LongitudeDegrees>-0.1681005768477916717529296875</LongitudeDegrees>
            </Position>
            <AltitudeMeters>2163.39990234375</AltitudeMeters>
            <DistanceMeters>28379.292111244</DistanceMeters>
          </Trackpoint>
          <Trackpoint>
            <Time>2022-07-10T07:36:05.000Z</Time>
            <Position>
              <LatitudeDegrees>42.77228853665292263031005859375</LatitudeDegrees>
              <LongitudeDegrees>-0.1680958829820156097412109375</LongitudeDegrees>
            </Position>
            <AltitudeMeters>2163.199951171875</AltitudeMeters>
            <DistanceMeters>28380.841950053</DistanceMeters>
          </Trackpoint>
          <Trackpoint>
            <Time>2022-07-10T07:36:07.000Z</Time>
            <Position>
              <LatitudeDegrees>42.7722515724599361419677734375</LatitudeDegrees>
              <LongitudeDegrees>-0.1680975593626499176025390625</LongitudeDegrees>
            </Position>
            <AltitudeMeters>2163</AltitudeMeters>
            <DistanceMeters>28384.957824615</DistanceMeters>
          </Trackpoint>
          <Trackpoint>
            <Time>2022-07-10T07:36:10.000Z</Time>
            <Position>
              <LatitudeDegrees>42.77221544645726680755615234375</LatitudeDegrees>
              <LongitudeDegrees>-0.168095715343952178955078125</LongitudeDegrees>
            </Position>
            <AltitudeMeters>2162.39990234375</AltitudeMeters>
            <DistanceMeters>28388.98274165</DistanceMeters>
          </Trackpoint>
          <Trackpoint>
            <Time>2022-07-10T07:36:11.000Z</Time>
            <Position>
              <LatitudeDegrees>42.772204466164112091064453125</LatitudeDegrees>
              <LongitudeDegrees>-0.1680975593626499176025390625</LongitudeDegrees>
            </Position>
            <AltitudeMeters>2162.199951171875</AltitudeMeters>
            <DistanceMeters>28390.214428641</DistanceMeters>
          </Trackpoint>
          <Trackpoint>
            <Time>2022-07-10T07:36:12.000Z</Time>
            <Position>
              <LatitudeDegrees>42.77219298295676708221435546875</LatitudeDegrees>
              <LongitudeDegrees>-0.16809747554361820220947265625</LongitudeDegrees>
            </Position>
            <AltitudeMeters>2162</AltitudeMeters>
            <DistanceMeters>28391.49288233</DistanceMeters>
          </Trackpoint>
          <Trackpoint>
            <Time>2022-07-10T07:36:13.000Z</Time>
            <Position>
              <LatitudeDegrees>42.77217739261686801910400390625</LatitudeDegrees>
              <LongitudeDegrees>-0.16809931956231594085693359375</LongitudeDegrees>
            </Position>
            <AltitudeMeters>2162</AltitudeMeters>
            <DistanceMeters>28393.234750777</DistanceMeters>
          </Trackpoint>
          <Trackpoint>
            <Time>2022-07-10T07:36:17.000Z</Time>
            <Position>
              <LatitudeDegrees>42.772105224430561065673828125</LatitudeDegrees>
              <LongitudeDegrees>-0.16812865622341632843017578125</LongitudeDegrees>
            </Position>
            <AltitudeMeters>2161.60009765625</AltitudeMeters>
            <DistanceMeters>28401.616516386</DistanceMeters>
          </Trackpoint>
          <Trackpoint>
            <Time>2022-07-10T07:36:18.000Z</Time>
            <Position>
              <LatitudeDegrees>42.7720886282622814178466796875</LatitudeDegrees>
              <LongitudeDegrees>-0.16813200898468494415283203125</LongitudeDegrees>
            </Position>
            <AltitudeMeters>2161.199951171875</AltitudeMeters>
            <DistanceMeters>28403.483495097</DistanceMeters>
          </Trackpoint>
          <Trackpoint>
            <Time>2022-07-10T07:36:22.000Z</Time>
            <Position>
              <LatitudeDegrees>42.77202350087463855743408203125</LatitudeDegrees>
              <LongitudeDegrees>-0.16810099594295024871826171875</LongitudeDegrees>
            </Position>
            <AltitudeMeters>2160.199951171875</AltitudeMeters>
            <DistanceMeters>28411.162453307</DistanceMeters>
          </Trackpoint>
          <Trackpoint>
            <Time>2022-07-10T07:36:24.000Z</Time>
            <Position>
              <LatitudeDegrees>42.772002629935741424560546875</LatitudeDegrees>
              <LongitudeDegrees>-0.1680660434067249298095703125</LongitudeDegrees>
            </Position>
            <AltitudeMeters>2159.39990234375</AltitudeMeters>
            <DistanceMeters>28414.842822129</DistanceMeters>
          </Trackpoint>
          <Trackpoint>
            <Time>2022-07-10T07:36:25.000Z</Time>
            <Position>
              <LatitudeDegrees>42.7719917334616184234619140625</LatitudeDegrees>
              <LongitudeDegrees>-0.168048106133937835693359375</LongitudeDegrees>
            </Position>
            <AltitudeMeters>2158.800048828125</AltitudeMeters>
            <DistanceMeters>28416.748101827</DistanceMeters>
          </Trackpoint>
          <Trackpoint>
            <Time>2022-07-10T07:36:26.000Z</Time>
            <Position>
              <LatitudeDegrees>42.771981172263622283935546875</LatitudeDegrees>
              <LongitudeDegrees>-0.1680457592010498046875</LongitudeDegrees>
            </Position>
            <AltitudeMeters>2158.60009765625</AltitudeMeters>
            <DistanceMeters>28417.942569105</DistanceMeters>
          </Trackpoint>
          <Trackpoint>
            <Time>2022-07-10T07:36:27.000Z</Time>
            <Position>
              <LatitudeDegrees>42.7719699405133724212646484375</LatitudeDegrees>
              <LongitudeDegrees>-0.16804316081106662750244140625</LongitudeDegrees>
            </Position>
            <AltitudeMeters>2157.800048828125</AltitudeMeters>
            <DistanceMeters>28419.213939894</DistanceMeters>
          </Trackpoint>
          <Trackpoint>
            <Time>2022-07-10T07:36:29.000Z</Time>
            <Position>
              <LatitudeDegrees>42.77194219641387462615966796875</LatitudeDegrees>
              <LongitudeDegrees>-0.168027319014072418212890625</LongitudeDegrees>
            </Position>
            <AltitudeMeters>2157.199951171875</AltitudeMeters>
            <DistanceMeters>28422.562873298</DistanceMeters>
          </Trackpoint>
          <Trackpoint>
            <Time>2022-07-10T07:36:31.000Z</Time>
            <Position>
              <LatitudeDegrees>42.77192442677915096282958984375</LatitudeDegrees>
              <LongitudeDegrees>-0.16801558434963226318359375</LongitudeDegrees>
            </Position>
            <AltitudeMeters>2156.60009765625</AltitudeMeters>
            <DistanceMeters>28424.762900792</DistanceMeters>
          </Trackpoint>
          <Trackpoint>
            <Time>2022-07-10T07:36:34.000Z</Time>
            <Position>
              <LatitudeDegrees>42.77189374901354312896728515625</LatitudeDegrees>
              <LongitudeDegrees>-0.167979709804058074951171875</LongitudeDegrees>
            </Position>
            <AltitudeMeters>2156</AltitudeMeters>
            <DistanceMeters>28429.264399603</DistanceMeters>
          </Trackpoint>
          <Trackpoint>
            <Time>2022-07-10T07:36:35.000Z</Time>
            <Position>
              <LatitudeDegrees>42.771881259977817535400390625</LatitudeDegrees>
              <LongitudeDegrees>-0.16796998679637908935546875</LongitudeDegrees>
            </Position>
            <AltitudeMeters>2155.60009765625</AltitudeMeters>
            <DistanceMeters>28430.865818258</DistanceMeters>
          </Trackpoint>
          <Trackpoint>
            <Time>2022-07-10T07:36:36.000Z</Time>
            <Position>
              <LatitudeDegrees>42.77186927385628223419189453125</LatitudeDegrees>
              <LongitudeDegrees>-0.1679617725312709808349609375</LongitudeDegrees>
            </Position>
            <AltitudeMeters>2155.39990234375</AltitudeMeters>
            <DistanceMeters>28432.359280304</DistanceMeters>
          </Trackpoint>
          <Trackpoint>
            <Time>2022-07-10T07:36:37.000Z</Time>
            <Position>
              <LatitudeDegrees>42.7718579582870006561279296875</LatitudeDegrees>
              <LongitudeDegrees>-0.1679590903222560882568359375</LongitudeDegrees>
            </Position>
            <AltitudeMeters>2155.199951171875</AltitudeMeters>
            <DistanceMeters>28433.641260769</DistanceMeters>
          </Trackpoint>
          <Trackpoint>
            <Time>2022-07-10T07:36:42.000Z</Time>
            <Position>
              <LatitudeDegrees>42.77180791832506656646728515625</LatitudeDegrees>
              <LongitudeDegrees>-0.1679450087249279022216796875</LongitudeDegrees>
            </Position>
            <AltitudeMeters>2154.800048828125</AltitudeMeters>
            <DistanceMeters>28439.329385583</DistanceMeters>
          </Trackpoint>
          <Trackpoint>
            <Time>2022-07-10T07:36:44.000Z</Time>
            <Position>
              <LatitudeDegrees>42.77179442346096038818359375</LatitudeDegrees>
              <LongitudeDegrees>-0.167945511639118194580078125</LongitudeDegrees>
            </Position>
            <AltitudeMeters>2154.60009765625</AltitudeMeters>
            <DistanceMeters>28440.831889863</DistanceMeters>
          </Trackpoint>
          <Trackpoint>
            <Time>2022-07-10T07:36:45.000Z</Time>
            <Position>
              <LatitudeDegrees>42.7717895619571208953857421875</LatitudeDegrees>
              <LongitudeDegrees>-0.16794676892459392547607421875</LongitudeDegrees>
            </Position>
            <AltitudeMeters>2154.60009765625</AltitudeMeters>
            <DistanceMeters>28441.377776776</DistanceMeters>
          </Trackpoint>
          <Trackpoint>
            <Time>2022-07-10T07:36:46.000Z</Time>
            <Position>
              <LatitudeDegrees>42.771784700453281402587890625</LatitudeDegrees>
              <LongitudeDegrees>-0.16794559545814990997314453125</LongitudeDegrees>
            </Position>
            <AltitudeMeters>2154.60009765625</AltitudeMeters>
            <DistanceMeters>28441.931872977</DistanceMeters>
          </Trackpoint>
          <Trackpoint>
            <Time>2022-07-10T07:36:47.000Z</Time>
            <Position>
              <LatitudeDegrees>42.7717801742255687713623046875</LatitudeDegrees>
              <LongitudeDegrees>-0.16794626601040363311767578125</LongitudeDegrees>
            </Position>
            <AltitudeMeters>2154.39990234375</AltitudeMeters>
            <DistanceMeters>28442.443607494</DistanceMeters>
          </Trackpoint>
          <Trackpoint>
            <Time>2022-07-10T07:36:48.000Z</Time>
            <Position>
              <LatitudeDegrees>42.77177506126463413238525390625</LatitudeDegrees>
              <LongitudeDegrees>-0.1679460145533084869384765625</LongitudeDegrees>
            </Position>
            <AltitudeMeters>2154.199951171875</AltitudeMeters>
            <DistanceMeters>28443.005793118</DistanceMeters>
          </Trackpoint>
          <Trackpoint>
            <Time>2022-07-10T07:36:50.000Z</Time>
            <Position>
              <LatitudeDegrees>42.771772630512714385986328125</LatitudeDegrees>
              <LongitudeDegrees>-0.167934782803058624267578125</LongitudeDegrees>
            </Position>
            <AltitudeMeters>2154</AltitudeMeters>
            <DistanceMeters>28443.956060262</DistanceMeters>
          </Trackpoint>
          <Trackpoint>
            <Time>2022-07-10T07:36:52.000Z</Time>
            <Position>
              <LatitudeDegrees>42.77177304960787296295166015625</LatitudeDegrees>
              <LongitudeDegrees>-0.16792413778603076934814453125</LongitudeDegrees>
            </Position>
            <AltitudeMeters>2153.39990234375</AltitudeMeters>
            <DistanceMeters>28444.83216328</DistanceMeters>
          </Trackpoint>
          <Trackpoint>
            <Time>2022-07-10T07:36:53.000Z</Time>
            <Position>
              <LatitudeDegrees>42.7717694453895092010498046875</LatitudeDegrees>
              <LongitudeDegrees>-0.1679141633212566375732421875</LongitudeDegrees>
            </Position>
            <AltitudeMeters>2153.39990234375</AltitudeMeters>
            <DistanceMeters>28445.743627504</DistanceMeters>
          </Trackpoint>
          <Trackpoint>
            <Time>2022-07-10T07:36:54.000Z</Time>
            <Position>
              <LatitudeDegrees>42.77176626026630401611328125</LatitudeDegrees>
              <LongitudeDegrees>-0.1679037697613239288330078125</LongitudeDegrees>
            </Position>
            <AltitudeMeters>2153.199951171875</AltitudeMeters>
            <DistanceMeters>28446.664945683</DistanceMeters>
          </Trackpoint>
          <Trackpoint>
            <Time>2022-07-10T07:36:56.000Z</Time>
            <Position>
              <LatitudeDegrees>42.7717577107250690460205078125</LatitudeDegrees>
              <LongitudeDegrees>-0.16788356937468051910400390625</LongitudeDegrees>
            </Position>
            <AltitudeMeters>2152.800048828125</AltitudeMeters>
            <DistanceMeters>28448.570225381</DistanceMeters>
          </Trackpoint>
          <Trackpoint>
            <Time>2022-07-10T07:36:58.000Z</Time>
            <Position>
              <LatitudeDegrees>42.771741785109043121337890625</LatitudeDegrees>
              <LongitudeDegrees>-0.1678772829473018646240234375</LongitudeDegrees>
            </Position>
            <AltitudeMeters>2152.199951171875</AltitudeMeters>
            <DistanceMeters>28450.417755867</DistanceMeters>
          </Trackpoint>
          <Trackpoint>
            <Time>2022-07-10T07:36:59.000Z</Time>
            <Position>
              <LatitudeDegrees>42.7717325650155544281005859375</LatitudeDegrees>
              <LongitudeDegrees>-0.1678759418427944183349609375</LongitudeDegrees>
            </Position>
            <AltitudeMeters>2151.60009765625</AltitudeMeters>
            <DistanceMeters>28451.445626941</DistanceMeters>
          </Trackpoint>
          <Trackpoint>
            <Time>2022-07-10T07:37:01.000Z</Time>
            <Position>
              <LatitudeDegrees>42.771714963018894195556640625</LatitudeDegrees>
              <LongitudeDegrees>-0.16787619329988956451416015625</LongitudeDegrees>
            </Position>
            <AltitudeMeters>2151.199951171875</AltitudeMeters>
            <DistanceMeters>28453.40234675</DistanceMeters>
          </Trackpoint>
          <Trackpoint>
            <Time>2022-07-10T07:37:02.000Z</Time>
            <Position>
              <LatitudeDegrees>42.7717087604105472564697265625</LatitudeDegrees>
              <LongitudeDegrees>-0.167878456413745880126953125</LongitudeDegrees>
            </Position>
            <AltitudeMeters>2151</AltitudeMeters>
            <DistanceMeters>28454.113461566</DistanceMeters>
          </Trackpoint>
          <Trackpoint>
            <Time>2022-07-10T07:37:04.000Z</Time>
            <Position>
              <LatitudeDegrees>42.77169518172740936279296875</LatitudeDegrees>
              <LongitudeDegrees>-0.16788189299404621124267578125</LongitudeDegrees>
            </Position>
            <AltitudeMeters>2150.199951171875</AltitudeMeters>
            <DistanceMeters>28455.651603311</DistanceMeters>
          </Trackpoint>
          <Trackpoint>
            <Time>2022-07-10T07:37:05.000Z</Time>
            <Position>
              <LatitudeDegrees>42.771689482033252716064453125</LatitudeDegrees>
              <LongitudeDegrees>-0.16788373701274394989013671875</LongitudeDegrees>
            </Position>
            <AltitudeMeters>2150</AltitudeMeters>
            <DistanceMeters>28456.3099677</DistanceMeters>
          </Trackpoint>
          <Trackpoint>
            <Time>2022-07-10T07:37:06.000Z</Time>
            <Position>
              <LatitudeDegrees>42.7716859616339206695556640625</LatitudeDegrees>
              <LongitudeDegrees>-0.1678839884698390960693359375</LongitudeDegrees>
            </Position>
            <AltitudeMeters>2149.800048828125</AltitudeMeters>
            <DistanceMeters>28456.701772881</DistanceMeters>
          </Trackpoint>
          <Trackpoint>
            <Time>2022-07-10T07:37:08.000Z</Time>
            <Position>
              <LatitudeDegrees>42.77168151922523975372314453125</LatitudeDegrees>
              <LongitudeDegrees>-0.16787971369922161102294921875</LongitudeDegrees>
            </Position>
            <AltitudeMeters>2149</AltitudeMeters>
            <DistanceMeters>28457.302774593</DistanceMeters>
          </Trackpoint>
          <Trackpoint>
            <Time>2022-07-10T07:37:09.000Z</Time>
            <Position>
              <LatitudeDegrees>42.7716792561113834381103515625</LatitudeDegrees>
              <LongitudeDegrees>-0.16787518747150897979736328125</LongitudeDegrees>
            </Position>
            <AltitudeMeters>2148.60009765625</AltitudeMeters>
            <DistanceMeters>28457.738241705</DistanceMeters>
          </Trackpoint>
          <Trackpoint>
            <Time>2022-07-10T07:37:12.000Z</Time>
            <Position>
              <LatitudeDegrees>42.77167548425495624542236328125</LatitudeDegrees>
              <LongitudeDegrees>-0.16787518747150897979736328125</LongitudeDegrees>
            </Position>
            <AltitudeMeters>2147.60009765625</AltitudeMeters>
            <DistanceMeters>28458.141405909</DistanceMeters>
          </Trackpoint>
          <Trackpoint>
            <Time>2022-07-10T07:37:15.000Z</Time>
            <Position>
              <LatitudeDegrees>42.77167749591171741485595703125</LatitudeDegrees>
              <LongitudeDegrees>-0.16787216998636722564697265625</LongitudeDegrees>
            </Position>
            <AltitudeMeters>2146.60009765625</AltitudeMeters>
            <DistanceMeters>28458.441906765</DistanceMeters>
          </Trackpoint>
          <Trackpoint>
            <Time>2022-07-10T07:37:16.000Z</Time>
            <Position>
              <LatitudeDegrees>42.7716822735965251922607421875</LatitudeDegrees>
              <LongitudeDegrees>-0.167866051197052001953125</LongitudeDegrees>
            </Position>
            <AltitudeMeters>2146.39990234375</AltitudeMeters>
            <DistanceMeters>28459.165608661</DistanceMeters>
          </Trackpoint>
          <Trackpoint>
            <Time>2022-07-10T07:37:17.000Z</Time>
            <Position>
              <LatitudeDegrees>42.7716940082609653472900390625</LatitudeDegrees>
              <LongitudeDegrees>-0.1678621955215930938720703125</LongitudeDegrees>
            </Position>
            <AltitudeMeters>2146.199951171875</AltitudeMeters>
            <DistanceMeters>28460.509489343</DistanceMeters>
          </Trackpoint>
          <Trackpoint>
            <Time>2022-07-10T07:37:18.000Z</Time>
            <Position>
              <LatitudeDegrees>42.77170850895345211029052734375</LatitudeDegrees>
              <LongitudeDegrees>-0.16785892657935619354248046875</LongitudeDegrees>
            </Position>
            <AltitudeMeters>2146</AltitudeMeters>
            <DistanceMeters>28462.144390756</DistanceMeters>
          </Trackpoint>
          <Trackpoint>
            <Time>2022-07-10T07:37:19.000Z</Time>
            <Position>
              <LatitudeDegrees>42.77171756140887737274169921875</LatitudeDegrees>
              <LongitudeDegrees>-0.16784601844847202301025390625</LongitudeDegrees>
            </Position>
            <AltitudeMeters>2146</AltitudeMeters>
            <DistanceMeters>28463.601122702</DistanceMeters>
          </Trackpoint>
          <Trackpoint>
            <Time>2022-07-10T07:37:21.000Z</Time>
            <Position>
              <LatitudeDegrees>42.77172057889401912689208984375</LatitudeDegrees>
              <LongitudeDegrees>-0.16782137565314769744873046875</LongitudeDegrees>
            </Position>
            <AltitudeMeters>2145.800048828125</AltitudeMeters>
            <DistanceMeters>28465.643644505</DistanceMeters>
          </Trackpoint>
          <Trackpoint>
            <Time>2022-07-10T07:37:24.000Z</Time>
            <Position>
              <LatitudeDegrees>42.77170079760253429412841796875</LatitudeDegrees>
              <LongitudeDegrees>-0.16781316138803958892822265625</LongitudeDegrees>
            </Position>
            <AltitudeMeters>2146</AltitudeMeters>
            <DistanceMeters>28467.947919869</DistanceMeters>
          </Trackpoint>
          <Trackpoint>
            <Time>2022-07-10T07:37:26.000Z</Time>
            <Position>
              <LatitudeDegrees>42.77168319560587406158447265625</LatitudeDegrees>
              <LongitudeDegrees>-0.1678182743489742279052734375</LongitudeDegrees>
            </Position>
            <AltitudeMeters>2146</AltitudeMeters>
            <DistanceMeters>28469.950256988</DistanceMeters>
          </Trackpoint>
          <Trackpoint>
            <Time>2022-07-10T07:37:32.000Z</Time>
            <Position>
              <LatitudeDegrees>42.77160474099218845367431640625</LatitudeDegrees>
              <LongitudeDegrees>-0.16783411614596843719482421875</LongitudeDegrees>
            </Position>
            <AltitudeMeters>2147.199951171875</AltitudeMeters>
            <DistanceMeters>28478.778029058</DistanceMeters>
          </Trackpoint>
          <Trackpoint>
            <Time>2022-07-10T07:37:34.000Z</Time>
            <Position>
              <LatitudeDegrees>42.771580852568149566650390625</LatitudeDegrees>
              <LongitudeDegrees>-0.16784258186817169189453125</LongitudeDegrees>
            </Position>
            <AltitudeMeters>2146.60009765625</AltitudeMeters>
            <DistanceMeters>28481.525599604</DistanceMeters>
          </Trackpoint>
          <Trackpoint>
            <Time>2022-07-10T07:37:38.000Z</Time>
            <Position>
              <LatitudeDegrees>42.77155327610671520233154296875</LatitudeDegrees>
              <LongitudeDegrees>-0.167878456413745880126953125</LongitudeDegrees>
            </Position>
            <AltitudeMeters>2145.39990234375</AltitudeMeters>
            <DistanceMeters>28485.770007985</DistanceMeters>
          </Trackpoint>
          <Trackpoint>
            <Time>2022-07-10T07:37:40.000Z</Time>
            <Position>
              <LatitudeDegrees>42.7715645916759967803955078125</LatitudeDegrees>
              <LongitudeDegrees>-0.16788549721240997314453125</LongitudeDegrees>
            </Position>
            <AltitudeMeters>2145.39990234375</AltitudeMeters>
            <DistanceMeters>28487.156877223</DistanceMeters>
          </Trackpoint>
          <Trackpoint>
            <Time>2022-07-10T07:37:46.000Z</Time>
            <Position>
              <LatitudeDegrees>42.77159350924193859100341796875</LatitudeDegrees>
              <LongitudeDegrees>-0.16782590188086032867431640625</LongitudeDegrees>
            </Position>
            <AltitudeMeters>2145.39990234375</AltitudeMeters>
            <DistanceMeters>28492.993095892</DistanceMeters>
          </Trackpoint>
          <Trackpoint>
            <Time>2022-07-10T07:37:47.000Z</Time>
            <Position>
              <LatitudeDegrees>42.77158931829035282135009765625</LatitudeDegrees>
              <LongitudeDegrees>-0.167817771434783935546875</LongitudeDegrees>
            </Position>
            <AltitudeMeters>2145.39990234375</AltitudeMeters>
            <DistanceMeters>28493.805004495</DistanceMeters>
          </Trackpoint>
          <Trackpoint>
            <Time>2022-07-10T07:37:52.000Z</Time>
            <Position>
              <LatitudeDegrees>42.77156383730471134185791015625</LatitudeDegrees>
              <LongitudeDegrees>-0.16781919635832309722900390625</LongitudeDegrees>
            </Position>
            <AltitudeMeters>2146.199951171875</AltitudeMeters>
            <DistanceMeters>28496.644697835</DistanceMeters>
          </Trackpoint>
          <Trackpoint>
            <Time>2022-07-10T07:37:53.000Z</Time>
            <Position>
              <LatitudeDegrees>42.77155679650604724884033203125</LatitudeDegrees>
              <LongitudeDegrees>-0.16782087273895740509033203125</LongitudeDegrees>
            </Position>
            <AltitudeMeters>2146</AltitudeMeters>
            <DistanceMeters>28497.439748369</DistanceMeters>
          </Trackpoint>
          <Trackpoint>
            <Time>2022-07-10T07:37:55.000Z</Time>
            <Position>
              <LatitudeDegrees>42.771541289985179901123046875</LatitudeDegrees>
              <LongitudeDegrees>-0.16782623715698719024658203125</LongitudeDegrees>
            </Position>
            <AltitudeMeters>2145</AltitudeMeters>
            <DistanceMeters>28499.217535407</DistanceMeters>
          </Trackpoint>
          <Trackpoint>
            <Time>2022-07-10T07:37:59.000Z</Time>
            <Position>
              <LatitudeDegrees>42.771499045193195343017578125</LatitudeDegrees>
              <LongitudeDegrees>-0.16784115694463253021240234375</LongitudeDegrees>
            </Position>
            <AltitudeMeters>2144.60009765625</AltitudeMeters>
            <DistanceMeters>28504.074135007</DistanceMeters>
          </Trackpoint>
          <Trackpoint>
            <Time>2022-07-10T07:38:01.000Z</Time>
            <Position>
              <LatitudeDegrees>42.7714770846068859100341796875</LatitudeDegrees>
              <LongitudeDegrees>-0.16785054467618465423583984375</LongitudeDegrees>
            </Position>
            <AltitudeMeters>2144.39990234375</AltitudeMeters>
            <DistanceMeters>28506.638095937</DistanceMeters>
          </Trackpoint>
          <Trackpoint>
            <Time>2022-07-10T07:38:03.000Z</Time>
            <Position>
              <LatitudeDegrees>42.77145436964929103851318359375</LatitudeDegrees>
              <LongitudeDegrees>-0.16786043532192707061767578125</LongitudeDegrees>
            </Position>
            <AltitudeMeters>2144.199951171875</AltitudeMeters>
            <DistanceMeters>28509.292047637</DistanceMeters>
          </Trackpoint>
          <Trackpoint>
            <Time>2022-07-10T07:38:08.000Z</Time>
            <Position>
              <LatitudeDegrees>42.77138672769069671630859375</LatitudeDegrees>
              <LongitudeDegrees>-0.16786864958703517913818359375</LongitudeDegrees>
            </Position>
            <AltitudeMeters>2143.800048828125</AltitudeMeters>
            <DistanceMeters>28516.850704506</DistanceMeters>
          </Trackpoint>
          <Trackpoint>
            <Time>2022-07-10T07:38:10.000Z</Time>
            <Position>
              <LatitudeDegrees>42.7713557146489620208740234375</LatitudeDegrees>
              <LongitudeDegrees>-0.1678593456745147705078125</LongitudeDegrees>
            </Position>
            <AltitudeMeters>2143.39990234375</AltitudeMeters>
            <DistanceMeters>28520.385902633</DistanceMeters>
          </Trackpoint>
          <Trackpoint>
            <Time>2022-07-10T07:38:12.000Z</Time>
            <Position>
              <LatitudeDegrees>42.77132637798786163330078125</LatitudeDegrees>
              <LongitudeDegrees>-0.1678511314094066619873046875</LongitudeDegrees>
            </Position>
            <AltitudeMeters>2143.199951171875</AltitudeMeters>
            <DistanceMeters>28523.719972834</DistanceMeters>
          </Trackpoint>
          <Trackpoint>
            <Time>2022-07-10T07:38:15.000Z</Time>
            <Position>
              <LatitudeDegrees>42.7712889946997165679931640625</LatitudeDegrees>
              <LongitudeDegrees>-0.16784719191491603851318359375</LongitudeDegrees>
            </Position>
            <AltitudeMeters>2142.39990234375</AltitudeMeters>
            <DistanceMeters>28527.892500531</DistanceMeters>
          </Trackpoint>
          <Trackpoint>
            <Time>2022-07-10T07:38:17.000Z</Time>
            <Position>
              <LatitudeDegrees>42.77127164416015148162841796875</LatitudeDegrees>
              <LongitudeDegrees>-0.1678290031850337982177734375</LongitudeDegrees>
            </Position>
            <AltitudeMeters>2142</AltitudeMeters>
            <DistanceMeters>28530.330079309</DistanceMeters>
          </Trackpoint>
          <Trackpoint>
            <Time>2022-07-10T07:38:19.000Z</Time>
            <Position>
              <LatitudeDegrees>42.771257646381855010986328125</LatitudeDegrees>
              <LongitudeDegrees>-0.16780444420874118804931640625</LongitudeDegrees>
            </Position>
            <AltitudeMeters>2141.60009765625</AltitudeMeters>
            <DistanceMeters>28532.869267089</DistanceMeters>
          </Trackpoint>
          <Trackpoint>
            <Time>2022-07-10T07:38:20.000Z</Time>
            <Position>
              <LatitudeDegrees>42.771249599754810333251953125</LatitudeDegrees>
              <LongitudeDegrees>-0.16778759658336639404296875</LongitudeDegrees>
            </Position>
            <AltitudeMeters>2141.60009765625</AltitudeMeters>
            <DistanceMeters>28534.512432588</DistanceMeters>
          </Trackpoint>
          <Trackpoint>
            <Time>2022-07-10T07:38:21.000Z</Time>
            <Position>
              <LatitudeDegrees>42.77123929001390933990478515625</LatitudeDegrees>
              <LongitudeDegrees>-0.16775649972259998321533203125</LongitudeDegrees>
            </Position>
            <AltitudeMeters>2141.39990234375</AltitudeMeters>
            <DistanceMeters>28537.302401386</DistanceMeters>
          </Trackpoint>
          <Trackpoint>
            <Time>2022-07-10T07:38:23.000Z</Time>
            <Position>
              <LatitudeDegrees>42.77121917344629764556884765625</LatitudeDegrees>
              <LongitudeDegrees>-0.16773319803178310394287109375</LongitudeDegrees>
            </Position>
            <AltitudeMeters>2141.199951171875</AltitudeMeters>
            <DistanceMeters>28540.240556093</DistanceMeters>
          </Trackpoint>
          <Trackpoint>
            <Time>2022-07-10T07:38:25.000Z</Time>
            <Position>
              <LatitudeDegrees>42.771205008029937744140625</LatitudeDegrees>
              <LongitudeDegrees>-0.167728923261165618896484375</LongitudeDegrees>
            </Position>
            <AltitudeMeters>2141</AltitudeMeters>
            <DistanceMeters>28541.853212912</DistanceMeters>
          </Trackpoint>
          <Trackpoint>
            <Time>2022-07-10T07:38:26.000Z</Time>
            <Position>
              <LatitudeDegrees>42.7712036669254302978515625</LatitudeDegrees>
              <LongitudeDegrees>-0.16772632487118244171142578125</LongitudeDegrees>
            </Position>
            <AltitudeMeters>2141</AltitudeMeters>
            <DistanceMeters>28542.121989048</DistanceMeters>
          </Trackpoint>
          <Trackpoint>
            <Time>2022-07-10T07:38:28.000Z</Time>
            <Position>
              <LatitudeDegrees>42.7712197601795196533203125</LatitudeDegrees>
              <LongitudeDegrees>-0.16771844588220119476318359375</LongitudeDegrees>
            </Position>
            <AltitudeMeters>2140.60009765625</AltitudeMeters>
            <DistanceMeters>28544.027268747</DistanceMeters>
          </Trackpoint>
          <Trackpoint>
            <Time>2022-07-10T07:38:32.000Z</Time>
            <Position>
              <LatitudeDegrees>42.77122638188302516937255859375</LatitudeDegrees>
              <LongitudeDegrees>-0.1677314378321170806884765625</LongitudeDegrees>
            </Position>
            <AltitudeMeters>2140.39990234375</AltitudeMeters>
            <DistanceMeters>28545.323260344</DistanceMeters>
          </Trackpoint>
          <Trackpoint>
            <Time>2022-07-10T07:38:33.000Z</Time>
            <Position>
              <LatitudeDegrees>42.771228812634944915771484375</LatitudeDegrees>
              <LongitudeDegrees>-0.16772699542343616485595703125</LongitudeDegrees>
            </Position>
            <AltitudeMeters>2140.60009765625</AltitudeMeters>
            <DistanceMeters>28545.778992456</DistanceMeters>
          </Trackpoint>
          <Trackpoint>
            <Time>2022-07-10T07:38:34.000Z</Time>
            <Position>
              <LatitudeDegrees>42.77123442851006984710693359375</LatitudeDegrees>
              <LongitudeDegrees>-0.16772481612861156463623046875</LongitudeDegrees>
            </Position>
            <AltitudeMeters>2140.60009765625</AltitudeMeters>
            <DistanceMeters>28546.430462788</DistanceMeters>
          </Trackpoint>
          <Trackpoint>
            <Time>2022-07-10T07:38:37.000Z</Time>
            <Position>
              <LatitudeDegrees>42.7712410502135753631591796875</LatitudeDegrees>
              <LongitudeDegrees>-0.16772062517702579498291015625</LongitudeDegrees>
            </Position>
            <AltitudeMeters>2140.60009765625</AltitudeMeters>
            <DistanceMeters>28547.236791197</DistanceMeters>
          </Trackpoint>
          <Trackpoint>
            <Time>2022-07-10T07:38:38.000Z</Time>
            <Position>
              <LatitudeDegrees>42.771245576441287994384765625</LatitudeDegrees>
              <LongitudeDegrees>-0.167713500559329986572265625</LongitudeDegrees>
            </Position>
            <AltitudeMeters>2140.60009765625</AltitudeMeters>
            <DistanceMeters>28548.008791874</DistanceMeters>
          </Trackpoint>
          <Trackpoint>
            <Time>2022-07-10T07:38:44.000Z</Time>
            <Position>
              <LatitudeDegrees>42.771230824291706085205078125</LatitudeDegrees>
              <LongitudeDegrees>-0.1677032746374607086181640625</LongitudeDegrees>
            </Position>
            <AltitudeMeters>2140.39990234375</AltitudeMeters>
            <DistanceMeters>28549.848976285</DistanceMeters>
          </Trackpoint>
          <Trackpoint>
            <Time>2022-07-10T07:38:45.000Z</Time>
            <Position>
              <LatitudeDegrees>42.7712266333401203155517578125</LatitudeDegrees>
              <LongitudeDegrees>-0.16771023161709308624267578125</LongitudeDegrees>
            </Position>
            <AltitudeMeters>2140.199951171875</AltitudeMeters>
            <DistanceMeters>28550.585050049</DistanceMeters>
          </Trackpoint>
          <Trackpoint>
            <Time>2022-07-10T07:38:47.000Z</Time>
            <Position>
              <LatitudeDegrees>42.7711977995932102203369140625</LatitudeDegrees>
              <LongitudeDegrees>-0.16769832931458950042724609375</LongitudeDegrees>
            </Position>
            <AltitudeMeters>2139.39990234375</AltitudeMeters>
            <DistanceMeters>28553.936678772</DistanceMeters>
          </Trackpoint>
          <Trackpoint>
            <Time>2022-07-10T07:38:50.000Z</Time>
            <Position>
              <LatitudeDegrees>42.77113552205264568328857421875</LatitudeDegrees>
              <LongitudeDegrees>-0.167667232453823089599609375</LongitudeDegrees>
            </Position>
            <AltitudeMeters>2138.60009765625</AltitudeMeters>
            <DistanceMeters>28561.319465605</DistanceMeters>
          </Trackpoint>
          <Trackpoint>
            <Time>2022-07-10T07:38:51.000Z</Time>
            <Position>
              <LatitudeDegrees>42.771105431020259857177734375</LatitudeDegrees>
              <LongitudeDegrees>-0.1676590181887149810791015625</LongitudeDegrees>
            </Position>
            <AltitudeMeters>2138</AltitudeMeters>
            <DistanceMeters>28564.735143981</DistanceMeters>
          </Trackpoint>
          <Trackpoint>
            <Time>2022-07-10T07:38:54.000Z</Time>
            <Position>
              <LatitudeDegrees>42.77104030363261699676513671875</LatitudeDegrees>
              <LongitudeDegrees>-0.16763898544013500213623046875</LongitudeDegrees>
            </Position>
            <AltitudeMeters>2137</AltitudeMeters>
            <DistanceMeters>28572.166694797</DistanceMeters>
          </Trackpoint>
          <Trackpoint>
            <Time>2022-07-10T07:38:55.000Z</Time>
            <Position>
              <LatitudeDegrees>42.77102421037852764129638671875</LatitudeDegrees>
              <LongitudeDegrees>-0.167635045945644378662109375</LongitudeDegrees>
            </Position>
            <AltitudeMeters>2136.800048828125</AltitudeMeters>
            <DistanceMeters>28573.984662887</DistanceMeters>
          </Trackpoint>
          <Trackpoint>
            <Time>2022-07-10T07:38:56.000Z</Time>
            <Position>
              <LatitudeDegrees>42.7710113860666751861572265625</LatitudeDegrees>
              <LongitudeDegrees>-0.16762926243245601654052734375</LongitudeDegrees>
            </Position>
            <AltitudeMeters>2136.800048828125</AltitudeMeters>
            <DistanceMeters>28575.487167167</DistanceMeters>
          </Trackpoint>
          <Trackpoint>
            <Time>2022-07-10T07:39:01.000Z</Time>
            <Position>
              <LatitudeDegrees>42.77096134610474109649658203125</LatitudeDegrees>
              <LongitudeDegrees>-0.1676157675683498382568359375</LongitudeDegrees>
            </Position>
            <AltitudeMeters>2135.800048828125</AltitudeMeters>
            <DistanceMeters>28581.16496365</DistanceMeters>
          </Trackpoint>
          <Trackpoint>
            <Time>2022-07-10T07:39:02.000Z</Time>
            <Position>
              <LatitudeDegrees>42.7709542214870452880859375</LatitudeDegrees>
              <LongitudeDegrees>-0.1676104031503200531005859375</LongitudeDegrees>
            </Position>
            <AltitudeMeters>2135.60009765625</AltitudeMeters>
            <DistanceMeters>28582.066466218</DistanceMeters>
          </Trackpoint>
          <Trackpoint>
            <Time>2022-07-10T07:39:05.000Z</Time>
            <Position>
              <LatitudeDegrees>42.770939804613590240478515625</LatitudeDegrees>
              <LongitudeDegrees>-0.16759741120040416717529296875</LongitudeDegrees>
            </Position>
            <AltitudeMeters>2135</AltitudeMeters>
            <DistanceMeters>28583.990610532</DistanceMeters>
          </Trackpoint>
          <Trackpoint>
            <Time>2022-07-10T07:39:06.000Z</Time>
            <Position>
              <LatitudeDegrees>42.77093620039522647857666015625</LatitudeDegrees>
              <LongitudeDegrees>-0.16759221442043781280517578125</LongitudeDegrees>
            </Position>
            <AltitudeMeters>2135</AltitudeMeters>
            <DistanceMeters>28584.576394541</DistanceMeters>
          </Trackpoint>
          <Trackpoint>
            <Time>2022-07-10T07:39:08.000Z</Time>
            <Position>
              <LatitudeDegrees>42.7709342725574970245361328125</LatitudeDegrees>
              <LongitudeDegrees>-0.1675872690975666046142578125</LongitudeDegrees>
            </Position>
            <AltitudeMeters>2135</AltitudeMeters>
            <DistanceMeters>28585.041928465</DistanceMeters>
          </Trackpoint>
          <Trackpoint>
            <Time>2022-07-10T07:39:09.000Z</Time>
            <Position>
              <LatitudeDegrees>42.77092446573078632354736328125</LatitudeDegrees>
              <LongitudeDegrees>-0.16758441925048828125</LongitudeDegrees>
            </Position>
            <AltitudeMeters>2134.800048828125</AltitudeMeters>
            <DistanceMeters>28586.1582396</DistanceMeters>
          </Trackpoint>
          <Trackpoint>
            <Time>2022-07-10T07:39:10.000Z</Time>
            <Position>
              <LatitudeDegrees>42.77091658674180507659912109375</LatitudeDegrees>
              <LongitudeDegrees>-0.16758249141275882720947265625</LongitudeDegrees>
            </Position>
            <AltitudeMeters>2134.800048828125</AltitudeMeters>
            <DistanceMeters>28587.049669197</DistanceMeters>
          </Trackpoint>
          <Trackpoint>
            <Time>2022-07-10T07:39:14.000Z</Time>
            <Position>
              <LatitudeDegrees>42.77086931280791759490966796875</LatitudeDegrees>
              <LongitudeDegrees>-0.167582742869853973388671875</LongitudeDegrees>
            </Position>
            <AltitudeMeters>2133.39990234375</AltitudeMeters>
            <DistanceMeters>28592.311438327</DistanceMeters>
          </Trackpoint>
          <Trackpoint>
            <Time>2022-07-10T07:39:16.000Z</Time>
            <Position>
              <LatitudeDegrees>42.77085925452411174774169921875</LatitudeDegrees>
              <LongitudeDegrees>-0.1675936393439769744873046875</LongitudeDegrees>
            </Position>
            <AltitudeMeters>2133.199951171875</AltitudeMeters>
            <DistanceMeters>28593.746310248</DistanceMeters>
          </Trackpoint>
          <Trackpoint>
            <Time>2022-07-10T07:39:17.000Z</Time>
            <Position>
              <LatitudeDegrees>42.7708561532199382781982421875</LatitudeDegrees>
              <LongitudeDegrees>-0.16760118305683135986328125</LongitudeDegrees>
            </Position>
            <AltitudeMeters>2133</AltitudeMeters>
            <DistanceMeters>28594.457425064</DistanceMeters>
          </Trackpoint>
          <Trackpoint>
            <Time>2022-07-10T07:39:19.000Z</Time>
            <Position>
              <LatitudeDegrees>42.77084969915449619293212890625</LatitudeDegrees>
              <LongitudeDegrees>-0.167628340423107147216796875</LongitudeDegrees>
            </Position>
            <AltitudeMeters>2132.39990234375</AltitudeMeters>
            <DistanceMeters>28596.788970907</DistanceMeters>
          </Trackpoint>
          <Trackpoint>
            <Time>2022-07-10T07:39:20.000Z</Time>
            <Position>
              <LatitudeDegrees>42.77085321955382823944091796875</LatitudeDegrees>
              <LongitudeDegrees>-0.167645104229450225830078125</LongitudeDegrees>
            </Position>
            <AltitudeMeters>2132</AltitudeMeters>
            <DistanceMeters>28598.211200538</DistanceMeters>
          </Trackpoint>
          <Trackpoint>
            <Time>2022-07-10T07:39:21.000Z</Time>
            <Position>
              <LatitudeDegrees>42.77086101472377777099609375</LatitudeDegrees>
              <LongitudeDegrees>-0.16766614280641078948974609375</LongitudeDegrees>
            </Position>
            <AltitudeMeters>2131.800048828125</AltitudeMeters>
            <DistanceMeters>28600.135344852</DistanceMeters>
          </Trackpoint>
          <Trackpoint>
            <Time>2022-07-10T07:39:22.000Z</Time>
            <Position>
              <LatitudeDegrees>42.7708759345114231109619140625</LatitudeDegrees>
              <LongitudeDegrees>-0.16769908368587493896484375</LongitudeDegrees>
            </Position>
            <AltitudeMeters>2131.60009765625</AltitudeMeters>
            <DistanceMeters>28603.298464309</DistanceMeters>
          </Trackpoint>
          <Trackpoint>
            <Time>2022-07-10T07:39:23.000Z</Time>
            <Position>
              <LatitudeDegrees>42.77088909409940242767333984375</LatitudeDegrees>
              <LongitudeDegrees>-0.167725570499897003173828125</LongitudeDegrees>
            </Position>
            <AltitudeMeters>2131.39990234375</AltitudeMeters>
            <DistanceMeters>28605.911266979</DistanceMeters>
          </Trackpoint>
          <Trackpoint>
            <Time>2022-07-10T07:39:28.000Z</Time>
            <Position>
              <LatitudeDegrees>42.77094055898487567901611328125</LatitudeDegrees>
              <LongitudeDegrees>-0.16778348945081233978271484375</LongitudeDegrees>
            </Position>
            <AltitudeMeters>2131</AltitudeMeters>
            <DistanceMeters>28613.341602596</DistanceMeters>
          </Trackpoint>
          <Trackpoint>
            <Time>2022-07-10T07:39:34.000Z</Time>
            <Position>
              <LatitudeDegrees>42.770963273942470550537109375</LatitudeDegrees>
              <LongitudeDegrees>-0.16779589466750621795654296875</LongitudeDegrees>
            </Position>
            <AltitudeMeters>2131.199951171875</AltitudeMeters>
            <DistanceMeters>28616.066070037</DistanceMeters>
          </Trackpoint>
          <Trackpoint>
            <Time>2022-07-10T07:39:40.000Z</Time>
            <Position>
              <LatitudeDegrees>42.77097098529338836669921875</LatitudeDegrees>
              <LongitudeDegrees>-0.16778080724179744720458984375</LongitudeDegrees>
            </Position>
            <AltitudeMeters>2131.39990234375</AltitudeMeters>
            <DistanceMeters>28617.568574317</DistanceMeters>
          </Trackpoint>
          <Trackpoint>
            <Time>2022-07-10T07:39:43.000Z</Time>
            <Position>
              <LatitudeDegrees>42.7709812112152576446533203125</LatitudeDegrees>
              <LongitudeDegrees>-0.1677914522588253021240234375</LongitudeDegrees>
            </Position>
            <AltitudeMeters>2131.60009765625</AltitudeMeters>
            <DistanceMeters>28619.003446238</DistanceMeters>
          </Trackpoint>
          <Trackpoint>
            <Time>2022-07-10T07:39:45.000Z</Time>
            <Position>
              <LatitudeDegrees>42.77099135331809520721435546875</LatitudeDegrees>
              <LongitudeDegrees>-0.1677777059376239776611328125</LongitudeDegrees>
            </Position>
            <AltitudeMeters>2131.60009765625</AltitudeMeters>
            <DistanceMeters>28620.599216133</DistanceMeters>
          </Trackpoint>
          <Trackpoint>
            <Time>2022-07-10T07:39:46.000Z</Time>
            <Position>
              <LatitudeDegrees>42.7709932811558246612548828125</LatitudeDegrees>
              <LongitudeDegrees>-0.16777862794697284698486328125</LongitudeDegrees>
            </Position>
            <AltitudeMeters>2131.60009765625</AltitudeMeters>
            <DistanceMeters>28620.831983095</DistanceMeters>
          </Trackpoint>
          <Trackpoint>
            <Time>2022-07-10T07:39:52.000Z</Time>
            <Position>
              <LatitudeDegrees>42.77096888981759548187255859375</LatitudeDegrees>
              <LongitudeDegrees>-0.16775750555098056793212890625</LongitudeDegrees>
            </Position>
            <AltitudeMeters>2131.60009765625</AltitudeMeters>
            <DistanceMeters>28624.048886513</DistanceMeters>
          </Trackpoint>
          <Trackpoint>
            <Time>2022-07-10T07:39:58.000Z</Time>
            <Position>
              <LatitudeDegrees>42.77094952762126922607421875</LatitudeDegrees>
              <LongitudeDegrees>-0.1677750237286090850830078125</LongitudeDegrees>
            </Position>
            <AltitudeMeters>2131.60009765625</AltitudeMeters>
            <DistanceMeters>28626.637383514</DistanceMeters>
          </Trackpoint>
          <Trackpoint>
            <Time>2022-07-10T07:40:00.000Z</Time>
            <Position>
              <LatitudeDegrees>42.77095698751509189605712890625</LatitudeDegrees>
              <LongitudeDegrees>-0.1677904464304447174072265625</LongitudeDegrees>
            </Position>
            <AltitudeMeters>2131.60009765625</AltitudeMeters>
            <DistanceMeters>28628.151860129</DistanceMeters>
          </Trackpoint>
          <Trackpoint>
            <Time>2022-07-10T07:40:03.000Z</Time>
            <Position>
              <LatitudeDegrees>42.77096687816083431243896484375</LatitudeDegrees>
              <LongitudeDegrees>-0.16780695877969264984130859375</LongitudeDegrees>
            </Position>
            <AltitudeMeters>2131.60009765625</AltitudeMeters>
            <DistanceMeters>28629.896318716</DistanceMeters>
          </Trackpoint>
          <Trackpoint>
            <Time>2022-07-10T07:40:04.000Z</Time>
            <Position>
              <LatitudeDegrees>42.7709738351404666900634765625</LatitudeDegrees>
              <LongitudeDegrees>-0.1678149215877056121826171875</LongitudeDegrees>
            </Position>
            <AltitudeMeters>2131.60009765625</AltitudeMeters>
            <DistanceMeters>28630.910926381</DistanceMeters>
          </Trackpoint>
          <Trackpoint>
            <Time>2022-07-10T07:40:09.000Z</Time>
            <Position>
              <LatitudeDegrees>42.77095061726868152618408203125</LatitudeDegrees>
              <LongitudeDegrees>-0.16781668178737163543701171875</LongitudeDegrees>
            </Position>
            <AltitudeMeters>2131.60009765625</AltitudeMeters>
            <DistanceMeters>28633.499423381</DistanceMeters>
          </Trackpoint>
          <Trackpoint>
            <Time>2022-07-10T07:40:15.000Z</Time>
            <Position>
              <LatitudeDegrees>42.77092010714113712310791015625</LatitudeDegrees>
              <LongitudeDegrees>-0.1677978225052356719970703125</LongitudeDegrees>
            </Position>
            <AltitudeMeters>2131.800048828125</AltitudeMeters>
            <DistanceMeters>28637.228540934</DistanceMeters>
          </Trackpoint>
          <Trackpoint>
            <Time>2022-07-10T07:40:18.000Z</Time>
            <Position>
              <LatitudeDegrees>42.77091004885733127593994140625</LatitudeDegrees>
              <LongitudeDegrees>-0.16777552664279937744140625</LongitudeDegrees>
            </Position>
            <AltitudeMeters>2131.800048828125</AltitudeMeters>
            <DistanceMeters>28639.366114016</DistanceMeters>
          </Trackpoint>
          <Trackpoint>
            <Time>2022-07-10T07:40:24.000Z</Time>
            <Position>
              <LatitudeDegrees>42.77089026756584644317626953125</LatitudeDegrees>
              <LongitudeDegrees>-0.16777795739471912384033203125</LongitudeDegrees>
            </Position>
            <AltitudeMeters>2131.800048828125</AltitudeMeters>
            <DistanceMeters>28641.57433531</DistanceMeters>
          </Trackpoint>
          <Trackpoint>
            <Time>2022-07-10T07:40:30.000Z</Time>
            <Position>
              <LatitudeDegrees>42.7708937041461467742919921875</LatitudeDegrees>
              <LongitudeDegrees>-0.1677227206528186798095703125</LongitudeDegrees>
            </Position>
            <AltitudeMeters>2131.60009765625</AltitudeMeters>
            <DistanceMeters>28646.103831273</DistanceMeters>
          </Trackpoint>
          <Trackpoint>
            <Time>2022-07-10T07:40:34.000Z</Time>
            <Position>
              <LatitudeDegrees>42.77089194394648075103759765625</LatitudeDegrees>
              <LongitudeDegrees>-0.16770503483712673187255859375</LongitudeDegrees>
            </Position>
            <AltitudeMeters>2131.60009765625</AltitudeMeters>
            <DistanceMeters>28647.563659359</DistanceMeters>
          </Trackpoint>
          <Trackpoint>
            <Time>2022-07-10T07:40:40.000Z</Time>
            <Position>
              <LatitudeDegrees>42.770910300314426422119140625</LatitudeDegrees>
              <LongitudeDegrees>-0.16778717748820781707763671875</LongitudeDegrees>
            </Position>
            <AltitudeMeters>2128.39990234375</AltitudeMeters>
            <DistanceMeters>28654.57956605</DistanceMeters>
          </Trackpoint>
          <Trackpoint>
            <Time>2022-07-10T07:40:41.000Z</Time>
            <Position>
              <LatitudeDegrees>42.77091926895081996917724609375</LatitudeDegrees>
              <LongitudeDegrees>-0.16778684221208095550537109375</LongitudeDegrees>
            </Position>
            <AltitudeMeters>2128.39990234375</AltitudeMeters>
            <DistanceMeters>28655.576214638</DistanceMeters>
          </Trackpoint>
          <Trackpoint>
            <Time>2022-07-10T07:40:44.000Z</Time>
            <Position>
              <LatitudeDegrees>42.77090485207736492156982421875</LatitudeDegrees>
              <LongitudeDegrees>-0.16777259297668933868408203125</LongitudeDegrees>
            </Position>
            <AltitudeMeters>2129.800048828125</AltitudeMeters>
            <DistanceMeters>28657.560430687</DistanceMeters>
          </Trackpoint>
          <Trackpoint>
            <Time>2022-07-10T07:40:46.000Z</Time>
            <Position>
              <LatitudeDegrees>42.77089722454547882080078125</LatitudeDegrees>
              <LongitudeDegrees>-0.16776940785348415374755859375</LongitudeDegrees>
            </Position>
            <AltitudeMeters>2130.800048828125</AltitudeMeters>
            <DistanceMeters>28658.451860285</DistanceMeters>
          </Trackpoint>
          <Trackpoint>
            <Time>2022-07-10T07:40:48.000Z</Time>
            <Position>
              <LatitudeDegrees>42.7708819694817066192626953125</LatitudeDegrees>
              <LongitudeDegrees>-0.1677683182060718536376953125</LongitudeDegrees>
            </Position>
            <AltitudeMeters>2131.199951171875</AltitudeMeters>
            <DistanceMeters>28660.151749829</DistanceMeters>
          </Trackpoint>
          <Trackpoint>
            <Time>2022-07-10T07:40:50.000Z</Time>
            <Position>
              <LatitudeDegrees>42.7708675526082515716552734375</LatitudeDegrees>
              <LongitudeDegrees>-0.1677788794040679931640625</LongitudeDegrees>
            </Position>
            <AltitudeMeters>2131.199951171875</AltitudeMeters>
            <DistanceMeters>28661.972199788</DistanceMeters>
          </Trackpoint>
          <Trackpoint>
            <Time>2022-07-10T07:40:55.000Z</Time>
            <Position>
              <LatitudeDegrees>42.770851291716098785400390625</LatitudeDegrees>
              <LongitudeDegrees>-0.16783780418336391448974609375</LongitudeDegrees>
            </Position>
            <AltitudeMeters>2131.199951171875</AltitudeMeters>
            <DistanceMeters>28667.115945892</DistanceMeters>
          </Trackpoint>
          <Trackpoint>
            <Time>2022-07-10T07:40:56.000Z</Time>
            <Position>
              <LatitudeDegrees>42.77084081433713436126708984375</LatitudeDegrees>
              <LongitudeDegrees>-0.16784534789621829986572265625</LongitudeDegrees>
            </Position>
            <AltitudeMeters>2131.199951171875</AltitudeMeters>
            <DistanceMeters>28668.436099199</DistanceMeters>
          </Trackpoint>
          <Trackpoint>
            <Time>2022-07-10T07:40:58.000Z</Time>
            <Position>
              <LatitudeDegrees>42.7708152495324611663818359375</LatitudeDegrees>
              <LongitudeDegrees>-0.167869068682193756103515625</LongitudeDegrees>
            </Position>
            <AltitudeMeters>2131.199951171875</AltitudeMeters>
            <DistanceMeters>28671.878113187</DistanceMeters>
          </Trackpoint>
          <Trackpoint>
            <Time>2022-07-10T07:41:00.000Z</Time>
            <Position>
              <LatitudeDegrees>42.770800329744815826416015625</LatitudeDegrees>
              <LongitudeDegrees>-0.16790217719972133636474609375</LongitudeDegrees>
            </Position>
            <AltitudeMeters>2129.60009765625</AltitudeMeters>
            <DistanceMeters>28675.05263131</DistanceMeters>
          </Trackpoint>
          <Trackpoint>
            <Time>2022-07-10T07:41:02.000Z</Time>
            <Position>
              <LatitudeDegrees>42.77078968472778797149658203125</LatitudeDegrees>
              <LongitudeDegrees>-0.1679312624037265777587890625</LongitudeDegrees>
            </Position>
            <AltitudeMeters>2128.199951171875</AltitudeMeters>
            <DistanceMeters>28677.709983334</DistanceMeters>
          </Trackpoint>
          <Trackpoint>
            <Time>2022-07-10T07:41:03.000Z</Time>
            <Position>
              <LatitudeDegrees>42.77079002000391483306884765625</LatitudeDegrees>
              <LongitudeDegrees>-0.16794727183878421783447265625</LongitudeDegrees>
            </Position>
            <AltitudeMeters>2128</AltitudeMeters>
            <DistanceMeters>28679.019836197</DistanceMeters>
          </Trackpoint>
          <Trackpoint>
            <Time>2022-07-10T07:41:04.000Z</Time>
            <Position>
              <LatitudeDegrees>42.77079085819423198699951171875</LatitudeDegrees>
              <LongitudeDegrees>-0.16796059906482696533203125</LongitudeDegrees>
            </Position>
            <AltitudeMeters>2127.60009765625</AltitudeMeters>
            <DistanceMeters>28680.111610025</DistanceMeters>
          </Trackpoint>
          <Trackpoint>
            <Time>2022-07-10T07:41:05.000Z</Time>
            <Position>
              <LatitudeDegrees>42.77078884653747081756591796875</LatitudeDegrees>
              <LongitudeDegrees>-0.16797727905213832855224609375</LongitudeDegrees>
            </Position>
            <AltitudeMeters>2127.39990234375</AltitudeMeters>
            <DistanceMeters>28681.495219871</DistanceMeters>
          </Trackpoint>
          <Trackpoint>
            <Time>2022-07-10T07:41:07.000Z</Time>
            <Position>
              <LatitudeDegrees>42.77077878825366497039794921875</LatitudeDegrees>
              <LongitudeDegrees>-0.16799655742943286895751953125</LongitudeDegrees>
            </Position>
            <AltitudeMeters>2127.199951171875</AltitudeMeters>
            <DistanceMeters>28683.428727473</DistanceMeters>
          </Trackpoint>
          <Trackpoint>
            <Time>2022-07-10T07:41:11.000Z</Time>
            <Position>
              <LatitudeDegrees>42.7707458473742008209228515625</LatitudeDegrees>
              <LongitudeDegrees>-0.16802790574729442596435546875</LongitudeDegrees>
            </Position>
            <AltitudeMeters>2127.199951171875</AltitudeMeters>
            <DistanceMeters>28687.900034804</DistanceMeters>
          </Trackpoint>
          <Trackpoint>
            <Time>2022-07-10T07:41:12.000Z</Time>
            <Position>
              <LatitudeDegrees>42.77073453180491924285888671875</LatitudeDegrees>
              <LongitudeDegrees>-0.16803444363176822662353515625</LongitudeDegrees>
            </Position>
            <AltitudeMeters>2127</AltitudeMeters>
            <DistanceMeters>28689.270529569</DistanceMeters>
          </Trackpoint>
          <Trackpoint>
            <Time>2022-07-10T07:41:16.000Z</Time>
            <Position>
              <LatitudeDegrees>42.7707036025822162628173828125</LatitudeDegrees>
              <LongitudeDegrees>-0.1680244691669940948486328125</LongitudeDegrees>
            </Position>
            <AltitudeMeters>2126.800048828125</AltitudeMeters>
            <DistanceMeters>28692.807004632</DistanceMeters>
          </Trackpoint>
          <Trackpoint>
            <Time>2022-07-10T07:41:18.000Z</Time>
            <Position>
              <LatitudeDegrees>42.770691029727458953857421875</LatitudeDegrees>
              <LongitudeDegrees>-0.1680144108831882476806640625</LongitudeDegrees>
            </Position>
            <AltitudeMeters>2127</AltitudeMeters>
            <DistanceMeters>28694.428038946</DistanceMeters>
          </Trackpoint>
          <Trackpoint>
            <Time>2022-07-10T07:41:20.000Z</Time>
            <Position>
              <LatitudeDegrees>42.77067569084465503692626953125</LatitudeDegrees>
              <LongitudeDegrees>-0.167986415326595306396484375</LongitudeDegrees>
            </Position>
            <AltitudeMeters>2126.800048828125</AltitudeMeters>
            <DistanceMeters>28697.282006176</DistanceMeters>
          </Trackpoint>
          <Trackpoint>
            <Time>2022-07-10T07:41:24.000Z</Time>
            <Position>
              <LatitudeDegrees>42.7706476114690303802490234375</LatitudeDegrees>
              <LongitudeDegrees>-0.16796152107417583465576171875</LongitudeDegrees>
            </Position>
            <AltitudeMeters>2126</AltitudeMeters>
            <DistanceMeters>28701.011123729</DistanceMeters>
          </Trackpoint>
          <Trackpoint>
            <Time>2022-07-10T07:41:26.000Z</Time>
            <Position>
              <LatitudeDegrees>42.77062338776886463165283203125</LatitudeDegrees>
              <LongitudeDegrees>-0.16794995404779911041259765625</LongitudeDegrees>
            </Position>
            <AltitudeMeters>2124.39990234375</AltitudeMeters>
            <DistanceMeters>28703.868253251</DistanceMeters>
          </Trackpoint>
          <Trackpoint>
            <Time>2022-07-10T07:41:28.000Z</Time>
            <Position>
              <LatitudeDegrees>42.7705922909080982208251953125</LatitudeDegrees>
              <LongitudeDegrees>-0.167949534952640533447265625</LongitudeDegrees>
            </Position>
            <AltitudeMeters>2123.60009765625</AltitudeMeters>
            <DistanceMeters>28707.328582912</DistanceMeters>
          </Trackpoint>
          <Trackpoint>
            <Time>2022-07-10T07:41:30.000Z</Time>
            <Position>
              <LatitudeDegrees>42.77056504972279071807861328125</LatitudeDegrees>
              <LongitudeDegrees>-0.1679463498294353485107421875</LongitudeDegrees>
            </Position>
            <AltitudeMeters>2123.39990234375</AltitudeMeters>
            <DistanceMeters>28710.372405908</DistanceMeters>
          </Trackpoint>
          <Trackpoint>
            <Time>2022-07-10T07:41:33.000Z</Time>
            <Position>
              <LatitudeDegrees>42.770530097186565399169921875</LatitudeDegrees>
              <LongitudeDegrees>-0.16795079223811626434326171875</LongitudeDegrees>
            </Position>
            <AltitudeMeters>2122.39990234375</AltitudeMeters>
            <DistanceMeters>28714.280072638</DistanceMeters>
          </Trackpoint>
          <Trackpoint>
            <Time>2022-07-10T07:41:35.000Z</Time>
            <Position>
              <LatitudeDegrees>42.7705148421227931976318359375</LatitudeDegrees>
              <LongitudeDegrees>-0.16795121133327484130859375</LongitudeDegrees>
            </Position>
            <AltitudeMeters>2122.199951171875</AltitudeMeters>
            <DistanceMeters>28715.979962182</DistanceMeters>
          </Trackpoint>
          <Trackpoint>
            <Time>2022-07-10T07:41:37.000Z</Time>
            <Position>
              <LatitudeDegrees>42.770505957305431365966796875</LatitudeDegrees>
              <LongitudeDegrees>-0.16795800067484378814697265625</LongitudeDegrees>
            </Position>
            <AltitudeMeters>2122</AltitudeMeters>
            <DistanceMeters>28717.112336173</DistanceMeters>
          </Trackpoint>
          <Trackpoint>
            <Time>2022-07-10T07:41:39.000Z</Time>
            <Position>
              <LatitudeDegrees>42.7704927138984203338623046875</LatitudeDegrees>
              <LongitudeDegrees>-0.1679631136357784271240234375</LongitudeDegrees>
            </Position>
            <AltitudeMeters>2121.39990234375</AltitudeMeters>
            <DistanceMeters>28718.644595901</DistanceMeters>
          </Trackpoint>
          <Trackpoint>
            <Time>2022-07-10T07:41:40.000Z</Time>
            <Position>
              <LatitudeDegrees>42.7704813145101070404052734375</LatitudeDegrees>
              <LongitudeDegrees>-0.16796722076833248138427734375</LongitudeDegrees>
            </Position>
            <AltitudeMeters>2121.199951171875</AltitudeMeters>
            <DistanceMeters>28719.954448765</DistanceMeters>
          </Trackpoint>
          <Trackpoint>
            <Time>2022-07-10T07:41:41.000Z</Time>
            <Position>
              <LatitudeDegrees>42.7704675681889057159423828125</LatitudeDegrees>
              <LongitudeDegrees>-0.16797442920506000518798828125</LongitudeDegrees>
            </Position>
            <AltitudeMeters>2121.199951171875</AltitudeMeters>
            <DistanceMeters>28721.594864194</DistanceMeters>
          </Trackpoint>
          <Trackpoint>
            <Time>2022-07-10T07:41:45.000Z</Time>
            <Position>
              <LatitudeDegrees>42.77042976580560207366943359375</LatitudeDegrees>
              <LongitudeDegrees>-0.16804240643978118896484375</LongitudeDegrees>
            </Position>
            <AltitudeMeters>2119.800048828125</AltitudeMeters>
            <DistanceMeters>28728.56233798</DistanceMeters>
          </Trackpoint>
          <Trackpoint>
            <Time>2022-07-10T07:41:48.000Z</Time>
            <Position>
              <LatitudeDegrees>42.7703964896500110626220703125</LatitudeDegrees>
              <LongitudeDegrees>-0.1680764369666576385498046875</LongitudeDegrees>
            </Position>
            <AltitudeMeters>2118.800048828125</AltitudeMeters>
            <DistanceMeters>28733.192392135</DistanceMeters>
          </Trackpoint>
          <Trackpoint>
            <Time>2022-07-10T07:41:50.000Z</Time>
            <Position>
              <LatitudeDegrees>42.77037695981562137603759765625</LatitudeDegrees>
              <LongitudeDegrees>-0.16807685606181621551513671875</LongitudeDegrees>
            </Position>
            <AltitudeMeters>2118.60009765625</AltitudeMeters>
            <DistanceMeters>28735.363497822</DistanceMeters>
          </Trackpoint>
          <Trackpoint>
            <Time>2022-07-10T07:41:51.000Z</Time>
            <Position>
              <LatitudeDegrees>42.77037008665502071380615234375</LatitudeDegrees>
              <LongitudeDegrees>-0.1680767722427845001220703125</LongitudeDegrees>
            </Position>
            <AltitudeMeters>2118.60009765625</AltitudeMeters>
            <DistanceMeters>28736.135498499</DistanceMeters>
          </Trackpoint>
          <Trackpoint>
            <Time>2022-07-10T07:41:53.000Z</Time>
            <Position>
              <LatitudeDegrees>42.7703542448580265045166015625</LatitudeDegrees>
              <LongitudeDegrees>-0.1680767722427845001220703125</LongitudeDegrees>
            </Position>
            <AltitudeMeters>2118.60009765625</AltitudeMeters>
            <DistanceMeters>28737.90054138</DistanceMeters>
          </Trackpoint>
          <Trackpoint>
            <Time>2022-07-10T07:41:56.000Z</Time>
            <Position>
              <LatitudeDegrees>42.77032063342630863189697265625</LatitudeDegrees>
              <LongitudeDegrees>-0.1680807955563068389892578125</LongitudeDegrees>
            </Position>
            <AltitudeMeters>2119</AltitudeMeters>
            <DistanceMeters>28741.65620103</DistanceMeters>
          </Trackpoint>
          <Trackpoint>
            <Time>2022-07-10T07:41:57.000Z</Time>
            <Position>
              <LatitudeDegrees>42.77031040750443935394287109375</LatitudeDegrees>
              <LongitudeDegrees>-0.1680791191756725311279296875</LongitudeDegrees>
            </Position>
            <AltitudeMeters>2119</AltitudeMeters>
            <DistanceMeters>28742.804413189</DistanceMeters>
          </Trackpoint>
          <Trackpoint>
            <Time>2022-07-10T07:42:01.000Z</Time>
            <Position>
              <LatitudeDegrees>42.77025223709642887115478515625</LatitudeDegrees>
              <LongitudeDegrees>-0.1680921949446201324462890625</LongitudeDegrees>
            </Position>
            <AltitudeMeters>2119</AltitudeMeters>
            <DistanceMeters>28749.367450949</DistanceMeters>
          </Trackpoint>
          <Trackpoint>
            <Time>2022-07-10T07:42:03.000Z</Time>
            <Position>
              <LatitudeDegrees>42.77022927068173885345458984375</LatitudeDegrees>
              <LongitudeDegrees>-0.1680989004671573638916015625</LongitudeDegrees>
            </Position>
            <AltitudeMeters>2118.800048828125</AltitudeMeters>
            <DistanceMeters>28751.983707424</DistanceMeters>
          </Trackpoint>
          <Trackpoint>
            <Time>2022-07-10T07:42:08.000Z</Time>
            <Position>
              <LatitudeDegrees>42.7701641432940959930419921875</LatitudeDegrees>
              <LongitudeDegrees>-0.168085992336273193359375</LongitudeDegrees>
            </Position>
            <AltitudeMeters>2118.800048828125</AltitudeMeters>
            <DistanceMeters>28759.308781774</DistanceMeters>
          </Trackpoint>
          <Trackpoint>
            <Time>2022-07-10T07:42:09.000Z</Time>
            <Position>
              <LatitudeDegrees>42.77014545165002346038818359375</LatitudeDegrees>
              <LongitudeDegrees>-0.1680697314441204071044921875</LongitudeDegrees>
            </Position>
            <AltitudeMeters>2118.800048828125</AltitudeMeters>
            <DistanceMeters>28761.779476347</DistanceMeters>
          </Trackpoint>
          <Trackpoint>
            <Time>2022-07-10T07:42:15.000Z</Time>
            <Position>
              <LatitudeDegrees>42.77007252909243106842041015625</LatitudeDegrees>
              <LongitudeDegrees>-0.168088339269161224365234375</LongitudeDegrees>
            </Position>
            <AltitudeMeters>2118.199951171875</AltitudeMeters>
            <DistanceMeters>28770.036964296</DistanceMeters>
          </Trackpoint>
          <Trackpoint>
            <Time>2022-07-10T07:42:16.000Z</Time>
            <Position>
              <LatitudeDegrees>42.77006682939827442169189453125</LatitudeDegrees>
              <LongitudeDegrees>-0.16810334287583827972412109375</LongitudeDegrees>
            </Position>
            <AltitudeMeters>2118.199951171875</AltitudeMeters>
            <DistanceMeters>28771.420574142</DistanceMeters>
          </Trackpoint>
          <Trackpoint>
            <Time>2022-07-10T07:42:17.000Z</Time>
            <Position>
              <LatitudeDegrees>42.7700608782470226287841796875</LatitudeDegrees>
              <LongitudeDegrees>-0.168119184672832489013671875</LongitudeDegrees>
            </Position>
            <AltitudeMeters>2118.199951171875</AltitudeMeters>
            <DistanceMeters>28772.874203355</DistanceMeters>
          </Trackpoint>
          <Trackpoint>
            <Time>2022-07-10T07:42:22.000Z</Time>
            <Position>
              <LatitudeDegrees>42.770058698952198028564453125</LatitudeDegrees>
              <LongitudeDegrees>-0.1682321727275848388671875</LongitudeDegrees>
            </Position>
            <AltitudeMeters>2118</AltitudeMeters>
            <DistanceMeters>28782.10892273</DistanceMeters>
          </Trackpoint>
          <Trackpoint>
            <Time>2022-07-10T07:42:24.000Z</Time>
            <Position>
              <LatitudeDegrees>42.77004034258425235748291015625</LatitudeDegrees>
              <LongitudeDegrees>-0.16823686659336090087890625</LongitudeDegrees>
            </Position>
            <AltitudeMeters>2117.60009765625</AltitudeMeters>
            <DistanceMeters>28784.186511847</DistanceMeters>
          </Trackpoint>
          <Trackpoint>
            <Time>2022-07-10T07:42:28.000Z</Time>
            <Position>
              <LatitudeDegrees>42.7699805796146392822265625</LatitudeDegrees>
              <LongitudeDegrees>-0.1682470925152301788330078125</LongitudeDegrees>
            </Position>
            <AltitudeMeters>2117.199951171875</AltitudeMeters>
            <DistanceMeters>28790.891116276</DistanceMeters>
          </Trackpoint>
          <Trackpoint>
            <Time>2022-07-10T07:42:30.000Z</Time>
            <Position>
              <LatitudeDegrees>42.7699613012373447418212890625</LatitudeDegrees>
              <LongitudeDegrees>-0.168255977332592010498046875</LongitudeDegrees>
            </Position>
            <AltitudeMeters>2116.60009765625</AltitudeMeters>
            <DistanceMeters>28793.155864257</DistanceMeters>
          </Trackpoint>
          <Trackpoint>
            <Time>2022-07-10T07:42:34.000Z</Time>
            <Position>
              <LatitudeDegrees>42.76991444639861583709716796875</LatitudeDegrees>
              <LongitudeDegrees>-0.16826980747282505035400390625</LongitudeDegrees>
            </Position>
            <AltitudeMeters>2116.199951171875</AltitudeMeters>
            <DistanceMeters>28798.490918235</DistanceMeters>
          </Trackpoint>
          <Trackpoint>
            <Time>2022-07-10T07:42:36.000Z</Time>
            <Position>
              <LatitudeDegrees>42.76988728903234004974365234375</LatitudeDegrees>
              <LongitudeDegrees>-0.16827642917633056640625</LongitudeDegrees>
            </Position>
            <AltitudeMeters>2115.60009765625</AltitudeMeters>
            <DistanceMeters>28801.559854489</DistanceMeters>
          </Trackpoint>
          <Trackpoint>
            <Time>2022-07-10T07:42:40.000Z</Time>
            <Position>
              <LatitudeDegrees>42.7698518335819244384765625</LatitudeDegrees>
              <LongitudeDegrees>-0.168300904333591461181640625</LongitudeDegrees>
            </Position>
            <AltitudeMeters>2115.199951171875</AltitudeMeters>
            <DistanceMeters>28805.98242677</DistanceMeters>
          </Trackpoint>
          <Trackpoint>
            <Time>2022-07-10T07:42:42.000Z</Time>
            <Position>
              <LatitudeDegrees>42.7698384225368499755859375</LatitudeDegrees>
              <LongitudeDegrees>-0.1683309115469455718994140625</LongitudeDegrees>
            </Position>
            <AltitudeMeters>2115</AltitudeMeters>
            <DistanceMeters>28808.852170612</DistanceMeters>
          </Trackpoint>
          <Trackpoint>
            <Time>2022-07-10T07:42:45.000Z</Time>
            <Position>
              <LatitudeDegrees>42.76981629431247711181640625</LatitudeDegrees>
              <LongitudeDegrees>-0.168386064469814300537109375</LongitudeDegrees>
            </Position>
            <AltitudeMeters>2114.39990234375</AltitudeMeters>
            <DistanceMeters>28813.98713149</DistanceMeters>
          </Trackpoint>
          <Trackpoint>
            <Time>2022-07-10T07:42:46.000Z</Time>
            <Position>
              <LatitudeDegrees>42.76981453411281108856201171875</LatitudeDegrees>
              <LongitudeDegrees>-0.16840391792356967926025390625</LongitudeDegrees>
            </Position>
            <AltitudeMeters>2114</AltitudeMeters>
            <DistanceMeters>28815.456208843</DistanceMeters>
          </Trackpoint>
          <Trackpoint>
            <Time>2022-07-10T07:42:47.000Z</Time>
            <Position>
              <LatitudeDegrees>42.7698100917041301727294921875</LatitudeDegrees>
              <LongitudeDegrees>-0.16841934062540531158447265625</LongitudeDegrees>
            </Position>
            <AltitudeMeters>2113.800048828125</AltitudeMeters>
            <DistanceMeters>28816.813461802</DistanceMeters>
          </Trackpoint>
          <Trackpoint>
            <Time>2022-07-10T07:42:48.000Z</Time>
            <Position>
              <LatitudeDegrees>42.76980430819094181060791015625</LatitudeDegrees>
              <LongitudeDegrees>-0.168430320918560028076171875</LongitudeDegrees>
            </Position>
            <AltitudeMeters>2113.39990234375</AltitudeMeters>
            <DistanceMeters>28817.913475549</DistanceMeters>
          </Trackpoint>
          <Trackpoint>
            <Time>2022-07-10T07:42:49.000Z</Time>
            <Position>
              <LatitudeDegrees>42.76979492045938968658447265625</LatitudeDegrees>
              <LongitudeDegrees>-0.1684360206127166748046875</LongitudeDegrees>
            </Position>
            <AltitudeMeters>2113</AltitudeMeters>
            <DistanceMeters>28819.057748717</DistanceMeters>
          </Trackpoint>
          <Trackpoint>
            <Time>2022-07-10T07:42:50.000Z</Time>
            <Position>
              <LatitudeDegrees>42.76978687383234500885009765625</LatitudeDegrees>
              <LongitudeDegrees>-0.16843803226947784423828125</LongitudeDegrees>
            </Position>
            <AltitudeMeters>2112.60009765625</AltitudeMeters>
            <DistanceMeters>28819.969212942</DistanceMeters>
          </Trackpoint>
          <Trackpoint>
            <Time>2022-07-10T07:42:51.000Z</Time>
            <Position>
              <LatitudeDegrees>42.76977798901498317718505859375</LatitudeDegrees>
              <LongitudeDegrees>-0.1684348471462726593017578125</LongitudeDegrees>
            </Position>
            <AltitudeMeters>2112.39990234375</AltitudeMeters>
            <DistanceMeters>28820.992681978</DistanceMeters>
          </Trackpoint>
          <Trackpoint>
            <Time>2022-07-10T07:42:52.000Z</Time>
            <Position>
              <LatitudeDegrees>42.769765667617321014404296875</LatitudeDegrees>
              <LongitudeDegrees>-0.16843107528984546661376953125</LongitudeDegrees>
            </Position>
            <AltitudeMeters>2112.199951171875</AltitudeMeters>
            <DistanceMeters>28822.402155929</DistanceMeters>
          </Trackpoint>
          <Trackpoint>
            <Time>2022-07-10T07:42:54.000Z</Time>
            <Position>
              <LatitudeDegrees>42.7697329781949520111083984375</LatitudeDegrees>
              <LongitudeDegrees>-0.16842462122440338134765625</LongitudeDegrees>
            </Position>
            <AltitudeMeters>2111.39990234375</AltitudeMeters>
            <DistanceMeters>28826.07884254</DistanceMeters>
          </Trackpoint>
          <Trackpoint>
            <Time>2022-07-10T07:42:58.000Z</Time>
            <Position>
              <LatitudeDegrees>42.76967908255755901336669921875</LatitudeDegrees>
              <LongitudeDegrees>-0.16839738003909587860107421875</LongitudeDegrees>
            </Position>
            <AltitudeMeters>2111.199951171875</AltitudeMeters>
            <DistanceMeters>28832.477464782</DistanceMeters>
          </Trackpoint>
          <Trackpoint>
            <Time>2022-07-10T07:42:59.000Z</Time>
            <Position>
              <LatitudeDegrees>42.7696667611598968505859375</LatitudeDegrees>
              <LongitudeDegrees>-0.16838581301271915435791015625</LongitudeDegrees>
            </Position>
            <AltitudeMeters>2111.199951171875</AltitudeMeters>
            <DistanceMeters>28834.142467325</DistanceMeters>
          </Trackpoint>
          <Trackpoint>
            <Time>2022-07-10T07:43:02.000Z</Time>
            <Position>
              <LatitudeDegrees>42.76963616721332073211669921875</LatitudeDegrees>
              <LongitudeDegrees>-0.1683553867042064666748046875</LongitudeDegrees>
            </Position>
            <AltitudeMeters>2110</AltitudeMeters>
            <DistanceMeters>28838.358056304</DistanceMeters>
          </Trackpoint>
          <Trackpoint>
            <Time>2022-07-10T07:43:04.000Z</Time>
            <Position>
              <LatitudeDegrees>42.76961538009345531463623046875</LatitudeDegrees>
              <LongitudeDegrees>-0.1683356054127216339111328125</LongitudeDegrees>
            </Position>
            <AltitudeMeters>2108.800048828125</AltitudeMeters>
            <DistanceMeters>28841.178605426</DistanceMeters>
          </Trackpoint>
          <Trackpoint>
            <Time>2022-07-10T07:43:06.000Z</Time>
            <Position>
              <LatitudeDegrees>42.76959140785038471221923828125</LatitudeDegrees>
              <LongitudeDegrees>-0.16832428984344005584716796875</LongitudeDegrees>
            </Position>
            <AltitudeMeters>2108.39990234375</AltitudeMeters>
            <DistanceMeters>28844.003952763</DistanceMeters>
          </Trackpoint>
          <Trackpoint>
            <Time>2022-07-10T07:43:07.000Z</Time>
            <Position>
              <LatitudeDegrees>42.7695767395198345184326171875</LatitudeDegrees>
              <LongitudeDegrees>-0.168318338692188262939453125</LongitudeDegrees>
            </Position>
            <AltitudeMeters>2108.39990234375</AltitudeMeters>
            <DistanceMeters>28845.706496313</DistanceMeters>
          </Trackpoint>
          <Trackpoint>
            <Time>2022-07-10T07:43:09.000Z</Time>
            <Position>
              <LatitudeDegrees>42.76953734457492828369140625</LatitudeDegrees>
              <LongitudeDegrees>-0.16830383799970149993896484375</LongitudeDegrees>
            </Position>
            <AltitudeMeters>2108.199951171875</AltitudeMeters>
            <DistanceMeters>28850.246943925</DistanceMeters>
          </Trackpoint>
          <Trackpoint>
            <Time>2022-07-10T07:43:12.000Z</Time>
            <Position>
              <LatitudeDegrees>42.76948512531816959381103515625</LatitudeDegrees>
              <LongitudeDegrees>-0.16831859014928340911865234375</LongitudeDegrees>
            </Position>
            <AltitudeMeters>2107.60009765625</AltitudeMeters>
            <DistanceMeters>28856.182881786</DistanceMeters>
          </Trackpoint>
          <Trackpoint>
            <Time>2022-07-10T07:43:15.000Z</Time>
            <Position>
              <LatitudeDegrees>42.7694285474717617034912109375</LatitudeDegrees>
              <LongitudeDegrees>-0.16834289766848087310791015625</LongitudeDegrees>
            </Position>
            <AltitudeMeters>2106.39990234375</AltitudeMeters>
            <DistanceMeters>28862.786383822</DistanceMeters>
          </Trackpoint>
          <Trackpoint>
            <Time>2022-07-10T07:43:17.000Z</Time>
            <Position>
              <LatitudeDegrees>42.7693943493068218231201171875</LatitudeDegrees>
              <LongitudeDegrees>-0.16836066730320453643798828125</LongitudeDegrees>
            </Position>
            <AltitudeMeters>2105.39990234375</AltitudeMeters>
            <DistanceMeters>28866.860359829</DistanceMeters>
          </Trackpoint>
          <Trackpoint>
            <Time>2022-07-10T07:43:19.000Z</Time>
            <Position>
              <LatitudeDegrees>42.76936794631183147430419921875</LatitudeDegrees>
              <LongitudeDegrees>-0.1683664508163928985595703125</LongitudeDegrees>
            </Position>
            <AltitudeMeters>2105</AltitudeMeters>
            <DistanceMeters>28869.838200501</DistanceMeters>
          </Trackpoint>
          <Trackpoint>
            <Time>2022-07-10T07:43:20.000Z</Time>
            <Position>
              <LatitudeDegrees>42.7693578042089939117431640625</LatitudeDegrees>
              <LongitudeDegrees>-0.16836636699736118316650390625</LongitudeDegrees>
            </Position>
            <AltitudeMeters>2104.800048828125</AltitudeMeters>
            <DistanceMeters>28870.966580215</DistanceMeters>
          </Trackpoint>
          <Trackpoint>
            <Time>2022-07-10T07:43:24.000Z</Time>
            <Position>
              <LatitudeDegrees>42.7693088538944721221923828125</LatitudeDegrees>
              <LongitudeDegrees>-0.1683704741299152374267578125</LongitudeDegrees>
            </Position>
            <AltitudeMeters>2104.60009765625</AltitudeMeters>
            <DistanceMeters>28876.424622189</DistanceMeters>
          </Trackpoint>
          <Trackpoint>
            <Time>2022-07-10T07:43:26.000Z</Time>
            <Position>
              <LatitudeDegrees>42.7692894078791141510009765625</LatitudeDegrees>
              <LongitudeDegrees>-0.1683734916150569915771484375</LongitudeDegrees>
            </Position>
            <AltitudeMeters>2104.39990234375</AltitudeMeters>
            <DistanceMeters>28878.599883106</DistanceMeters>
          </Trackpoint>
          <Trackpoint>
            <Time>2022-07-10T07:43:27.000Z</Time>
            <Position>
              <LatitudeDegrees>42.76928094215691089630126953125</LatitudeDegrees>
              <LongitudeDegrees>-0.1683758385479450225830078125</LongitudeDegrees>
            </Position>
            <AltitudeMeters>2103.60009765625</AltitudeMeters>
            <DistanceMeters>28879.564298926</DistanceMeters>
          </Trackpoint>
          <Trackpoint>
            <Time>2022-07-10T07:43:30.000Z</Time>
            <Position>
              <LatitudeDegrees>42.7692464925348758697509765625</LatitudeDegrees>
              <LongitudeDegrees>-0.16838581301271915435791015625</LongitudeDegrees>
            </Position>
            <AltitudeMeters>2102.39990234375</AltitudeMeters>
            <DistanceMeters>28883.484654791</DistanceMeters>
          </Trackpoint>
          <Trackpoint>
            <Time>2022-07-10T07:43:31.000Z</Time>
            <Position>
              <LatitudeDegrees>42.769238613545894622802734375</LatitudeDegrees>
              <LongitudeDegrees>-0.1683885790407657623291015625</LongitudeDegrees>
            </Position>
            <AltitudeMeters>2102</AltitudeMeters>
            <DistanceMeters>28884.386157359</DistanceMeters>
          </Trackpoint>
          <Trackpoint>
            <Time>2022-07-10T07:43:34.000Z</Time>
            <Position>
              <LatitudeDegrees>42.7692149765789508819580078125</LatitudeDegrees>
              <LongitudeDegrees>-0.16839905641973018646240234375</LongitudeDegrees>
            </Position>
            <AltitudeMeters>2101.199951171875</AltitudeMeters>
            <DistanceMeters>28887.153377051</DistanceMeters>
          </Trackpoint>
          <Trackpoint>
            <Time>2022-07-10T07:43:36.000Z</Time>
            <Position>
              <LatitudeDegrees>42.76919695548713207244873046875</LatitudeDegrees>
              <LongitudeDegrees>-0.16840492375195026397705078125</LongitudeDegrees>
            </Position>
            <AltitudeMeters>2101</AltitudeMeters>
            <DistanceMeters>28889.213507126</DistanceMeters>
          </Trackpoint>
          <Trackpoint>
            <Time>2022-07-10T07:43:38.000Z</Time>
            <Position>
              <LatitudeDegrees>42.769182957708835601806640625</LatitudeDegrees>
              <LongitudeDegrees>-0.168417580425739288330078125</LongitudeDegrees>
            </Position>
            <AltitudeMeters>2100.60009765625</AltitudeMeters>
            <DistanceMeters>28891.085316321</DistanceMeters>
          </Trackpoint>
          <Trackpoint>
            <Time>2022-07-10T07:43:39.000Z</Time>
            <Position>
              <LatitudeDegrees>42.7691794373095035552978515625</LatitudeDegrees>
              <LongitudeDegrees>-0.1684341765940189361572265625</LongitudeDegrees>
            </Position>
            <AltitudeMeters>2100.199951171875</AltitudeMeters>
            <DistanceMeters>28892.494790271</DistanceMeters>
          </Trackpoint>
          <Trackpoint>
            <Time>2022-07-10T07:43:42.000Z</Time>
            <Position>
              <LatitudeDegrees>42.76916007511317729949951171875</LatitudeDegrees>
              <LongitudeDegrees>-0.168458484113216400146484375</LongitudeDegrees>
            </Position>
            <AltitudeMeters>2099.60009765625</AltitudeMeters>
            <DistanceMeters>28895.426791768</DistanceMeters>
          </Trackpoint>
          <Trackpoint>
            <Time>2022-07-10T07:43:45.000Z</Time>
            <Position>
              <LatitudeDegrees>42.76914716698229312896728515625</LatitudeDegrees>
              <LongitudeDegrees>-0.16851556487381458282470703125</LongitudeDegrees>
            </Position>
            <AltitudeMeters>2099.199951171875</AltitudeMeters>
            <DistanceMeters>28900.307502952</DistanceMeters>
          </Trackpoint>
          <Trackpoint>
            <Time>2022-07-10T07:43:46.000Z</Time>
            <Position>
              <LatitudeDegrees>42.76912964880466461181640625</LatitudeDegrees>
              <LongitudeDegrees>-0.16852361150085926055908203125</LongitudeDegrees>
            </Position>
            <AltitudeMeters>2098.800048828125</AltitudeMeters>
            <DistanceMeters>28902.365440232</DistanceMeters>
          </Trackpoint>
          <Trackpoint>
            <Time>2022-07-10T07:43:49.000Z</Time>
            <Position>
              <LatitudeDegrees>42.76908631436526775360107421875</LatitudeDegrees>
              <LongitudeDegrees>-0.16854339279234409332275390625</LongitudeDegrees>
            </Position>
            <AltitudeMeters>2097.800048828125</AltitudeMeters>
            <DistanceMeters>28907.452698737</DistanceMeters>
          </Trackpoint>
          <Trackpoint>
            <Time>2022-07-10T07:43:51.000Z</Time>
            <Position>
              <LatitudeDegrees>42.769058234989643096923828125</LatitudeDegrees>
              <LongitudeDegrees>-0.1685676164925098419189453125</LongitudeDegrees>
            </Position>
            <AltitudeMeters>2097.60009765625</AltitudeMeters>
            <DistanceMeters>28911.152644127</DistanceMeters>
          </Trackpoint>
          <Trackpoint>
            <Time>2022-07-10T07:43:54.000Z</Time>
            <Position>
              <LatitudeDegrees>42.76902764104306697845458984375</LatitudeDegrees>
              <LongitudeDegrees>-0.16861530952155590057373046875</LongitudeDegrees>
            </Position>
            <AltitudeMeters>2097.39990234375</AltitudeMeters>
            <DistanceMeters>28916.327021061</DistanceMeters>
          </Trackpoint>
          <Trackpoint>
            <Time>2022-07-10T07:43:56.000Z</Time>
            <Position>
              <LatitudeDegrees>42.76902378536760807037353515625</LatitudeDegrees>
              <LongitudeDegrees>-0.16863157041370868682861328125</LongitudeDegrees>
            </Position>
            <AltitudeMeters>2097.39990234375</AltitudeMeters>
            <DistanceMeters>28917.726851975</DistanceMeters>
          </Trackpoint>
          <Trackpoint>
            <Time>2022-07-10T07:43:59.000Z</Time>
            <Position>
              <LatitudeDegrees>42.769020684063434600830078125</LatitudeDegrees>
              <LongitudeDegrees>-0.16866241581737995147705078125</LongitudeDegrees>
            </Position>
            <AltitudeMeters>2096.800048828125</AltitudeMeters>
            <DistanceMeters>28920.269593553</DistanceMeters>
          </Trackpoint>
          <Trackpoint>
            <Time>2022-07-10T07:44:00.000Z</Time>
            <Position>
              <LatitudeDegrees>42.76902101933956146240234375</LatitudeDegrees>
              <LongitudeDegrees>-0.16866643913090229034423828125</LongitudeDegrees>
            </Position>
            <AltitudeMeters>2096.60009765625</AltitudeMeters>
            <DistanceMeters>28920.598775748</DistanceMeters>
          </Trackpoint>
          <Trackpoint>
            <Time>2022-07-10T07:44:01.000Z</Time>
            <Position>
              <LatitudeDegrees>42.76901858858764171600341796875</LatitudeDegrees>
              <LongitudeDegrees>-0.16866870224475860595703125</LongitudeDegrees>
            </Position>
            <AltitudeMeters>2096.39990234375</AltitudeMeters>
            <DistanceMeters>28920.927957943</DistanceMeters>
          </Trackpoint>
          <Trackpoint>
            <Time>2022-07-10T07:44:02.000Z</Time>
            <Position>
              <LatitudeDegrees>42.76901205070316791534423828125</LatitudeDegrees>
              <LongitudeDegrees>-0.1686738990247249603271484375</LongitudeDegrees>
            </Position>
            <AltitudeMeters>2096.39990234375</AltitudeMeters>
            <DistanceMeters>28921.76721116</DistanceMeters>
          </Trackpoint>
          <Trackpoint>
            <Time>2022-07-10T07:44:05.000Z</Time>
            <Position>
              <LatitudeDegrees>42.76898346841335296630859375</LatitudeDegrees>
              <LongitudeDegrees>-0.16868890263140201568603515625</LongitudeDegrees>
            </Position>
            <AltitudeMeters>2096.39990234375</AltitudeMeters>
            <DistanceMeters>28925.177598009</DistanceMeters>
          </Trackpoint>
          <Trackpoint>
            <Time>2022-07-10T07:44:07.000Z</Time>
            <Position>
              <LatitudeDegrees>42.7689618431031703948974609375</LatitudeDegrees>
              <LongitudeDegrees>-0.1686956919729709625244140625</LongitudeDegrees>
            </Position>
            <AltitudeMeters>2096.39990234375</AltitudeMeters>
            <DistanceMeters>28927.644635002</DistanceMeters>
          </Trackpoint>
          <Trackpoint>
            <Time>2022-07-10T07:44:13.000Z</Time>
            <Position>
              <LatitudeDegrees>42.76888816617429256439208984375</LatitudeDegrees>
              <LongitudeDegrees>-0.1687258668243885040283203125</LongitudeDegrees>
            </Position>
            <AltitudeMeters>2096.199951171875</AltitudeMeters>
            <DistanceMeters>28936.207591309</DistanceMeters>
          </Trackpoint>
          <Trackpoint>
            <Time>2022-07-10T07:44:16.000Z</Time>
            <Position>
              <LatitudeDegrees>42.768861763179302215576171875</LatitudeDegrees>
              <LongitudeDegrees>-0.16874640248715877532958984375</LongitudeDegrees>
            </Position>
            <AltitudeMeters>2095.60009765625</AltitudeMeters>
            <DistanceMeters>28939.591396406</DistanceMeters>
          </Trackpoint>
          <Trackpoint>
            <Time>2022-07-10T07:44:19.000Z</Time>
            <Position>
              <LatitudeDegrees>42.76883737184107303619384765625</LatitudeDegrees>
              <LongitudeDegrees>-0.1687831990420818328857421875</LongitudeDegrees>
            </Position>
            <AltitudeMeters>2095.39990234375</AltitudeMeters>
            <DistanceMeters>28943.643146518</DistanceMeters>
          </Trackpoint>
          <Trackpoint>
            <Time>2022-07-10T07:44:25.000Z</Time>
            <Position>
              <LatitudeDegrees>42.76880233548581600189208984375</LatitudeDegrees>
              <LongitudeDegrees>-0.16882720403373241424560546875</LongitudeDegrees>
            </Position>
            <AltitudeMeters>2095.199951171875</AltitudeMeters>
            <DistanceMeters>28948.947646325</DistanceMeters>
          </Trackpoint>
          <Trackpoint>
            <Time>2022-07-10T07:44:28.000Z</Time>
            <Position>
              <LatitudeDegrees>42.76875338517129421234130859375</LatitudeDegrees>
              <LongitudeDegrees>-0.16885134391486644744873046875</LongitudeDegrees>
            </Position>
            <AltitudeMeters>2094.60009765625</AltitudeMeters>
            <DistanceMeters>28954.741938708</DistanceMeters>
          </Trackpoint>
          <Trackpoint>
            <Time>2022-07-10T07:44:29.000Z</Time>
            <Position>
              <LatitudeDegrees>42.7687388844788074493408203125</LatitudeDegrees>
              <LongitudeDegrees>-0.16884933225810527801513671875</LongitudeDegrees>
            </Position>
            <AltitudeMeters>2094.39990234375</AltitudeMeters>
            <DistanceMeters>28956.362973021</DistanceMeters>
          </Trackpoint>
          <Trackpoint>
            <Time>2022-07-10T07:44:32.000Z</Time>
            <Position>
              <LatitudeDegrees>42.76871013455092906951904296875</LatitudeDegrees>
              <LongitudeDegrees>-0.16882401891052722930908203125</LongitudeDegrees>
            </Position>
            <AltitudeMeters>2094.39990234375</AltitudeMeters>
            <DistanceMeters>28960.173532419</DistanceMeters>
          </Trackpoint>
          <Trackpoint>
            <Time>2022-07-10T07:44:36.000Z</Time>
            <Position>
              <LatitudeDegrees>42.76867241598665714263916015625</LatitudeDegrees>
              <LongitudeDegrees>-0.1688276231288909912109375</LongitudeDegrees>
            </Position>
            <AltitudeMeters>2093.39990234375</AltitudeMeters>
            <DistanceMeters>28964.38269029</DistanceMeters>
          </Trackpoint>
          <Trackpoint>
            <Time>2022-07-10T07:44:39.000Z</Time>
            <Position>
              <LatitudeDegrees>42.76863436214625835418701171875</LatitudeDegrees>
              <LongitudeDegrees>-0.1688673533499240875244140625</LongitudeDegrees>
            </Position>
            <AltitudeMeters>2092.39990234375</AltitudeMeters>
            <DistanceMeters>28969.719436593</DistanceMeters>
          </Trackpoint>
          <Trackpoint>
            <Time>2022-07-10T07:44:41.000Z</Time>
            <Position>
              <LatitudeDegrees>42.76861256919801235198974609375</LatitudeDegrees>
              <LongitudeDegrees>-0.16888730227947235107421875</LongitudeDegrees>
            </Position>
            <AltitudeMeters>2092.199951171875</AltitudeMeters>
            <DistanceMeters>28972.642183985</DistanceMeters>
          </Trackpoint>
          <Trackpoint>
            <Time>2022-07-10T07:44:44.000Z</Time>
            <Position>
              <LatitudeDegrees>42.76857334189116954803466796875</LatitudeDegrees>
              <LongitudeDegrees>-0.16890264116227626800537109375</LongitudeDegrees>
            </Position>
            <AltitudeMeters>2092</AltitudeMeters>
            <DistanceMeters>28977.185613829</DistanceMeters>
          </Trackpoint>
          <Trackpoint>
            <Time>2022-07-10T07:44:47.000Z</Time>
            <Position>
              <LatitudeDegrees>42.768537215888500213623046875</LatitudeDegrees>
              <LongitudeDegrees>-0.16892711631953716278076171875</LongitudeDegrees>
            </Position>
            <AltitudeMeters>2091.199951171875</AltitudeMeters>
            <DistanceMeters>28981.677071363</DistanceMeters>
          </Trackpoint>
          <Trackpoint>
            <Time>2022-07-10T07:44:49.000Z</Time>
            <Position>
              <LatitudeDegrees>42.76851718313992023468017578125</LatitudeDegrees>
              <LongitudeDegrees>-0.16894723288714885711669921875</LongitudeDegrees>
            </Position>
            <AltitudeMeters>2090.800048828125</AltitudeMeters>
            <DistanceMeters>28984.447552364</DistanceMeters>
          </Trackpoint>
          <Trackpoint>
            <Time>2022-07-10T07:44:53.000Z</Time>
            <Position>
              <LatitudeDegrees>42.76847979985177516937255859375</LatitudeDegrees>
              <LongitudeDegrees>-0.16898528672754764556884765625</LongitudeDegrees>
            </Position>
            <AltitudeMeters>2090.199951171875</AltitudeMeters>
            <DistanceMeters>28989.642828919</DistanceMeters>
          </Trackpoint>
          <Trackpoint>
            <Time>2022-07-10T07:44:56.000Z</Time>
            <Position>
              <LatitudeDegrees>42.7684552408754825592041015625</LatitudeDegrees>
              <LongitudeDegrees>-0.16902602277696132659912109375</LongitudeDegrees>
            </Position>
            <AltitudeMeters>2089.60009765625</AltitudeMeters>
            <DistanceMeters>28993.949541937</DistanceMeters>
          </Trackpoint>
          <Trackpoint>
            <Time>2022-07-10T07:45:00.000Z</Time>
            <Position>
              <LatitudeDegrees>42.7684170193970203399658203125</LatitudeDegrees>
              <LongitudeDegrees>-0.16905552707612514495849609375</LongitudeDegrees>
            </Position>
            <AltitudeMeters>2089.199951171875</AltitudeMeters>
            <DistanceMeters>28998.83949515</DistanceMeters>
          </Trackpoint>
          <Trackpoint>
            <Time>2022-07-10T07:45:03.000Z</Time>
            <Position>
              <LatitudeDegrees>42.76838039048016071319580078125</LatitudeDegrees>
              <LongitudeDegrees>-0.16905804164707660675048828125</LongitudeDegrees>
            </Position>
            <AltitudeMeters>2088.60009765625</AltitudeMeters>
            <DistanceMeters>29002.922327637</DistanceMeters>
          </Trackpoint>
          <Trackpoint>
            <Time>2022-07-10T07:45:05.000Z</Time>
            <Position>
              <LatitudeDegrees>42.7683549933135509490966796875</LatitudeDegrees>
              <LongitudeDegrees>-0.1690634898841381072998046875</LongitudeDegrees>
            </Position>
            <AltitudeMeters>2088.199951171875</AltitudeMeters>
            <DistanceMeters>29005.785771265</DistanceMeters>
          </Trackpoint>
          <Trackpoint>
            <Time>2022-07-10T07:45:07.000Z</Time>
            <Position>
              <LatitudeDegrees>42.7683269977569580078125</LatitudeDegrees>
              <LongitudeDegrees>-0.16907212324440479278564453125</LongitudeDegrees>
            </Position>
            <AltitudeMeters>2087.60009765625</AltitudeMeters>
            <DistanceMeters>29008.980139181</DistanceMeters>
          </Trackpoint>
          <Trackpoint>
            <Time>2022-07-10T07:45:09.000Z</Time>
            <Position>
              <LatitudeDegrees>42.7682963199913501739501953125</LatitudeDegrees>
              <LongitudeDegrees>-0.16907866112887859344482421875</LongitudeDegrees>
            </Position>
            <AltitudeMeters>2086.800048828125</AltitudeMeters>
            <DistanceMeters>29012.4352457</DistanceMeters>
          </Trackpoint>
          <Trackpoint>
            <Time>2022-07-10T07:45:12.000Z</Time>
            <Position>
              <LatitudeDegrees>42.76825147680938243865966796875</LatitudeDegrees>
              <LongitudeDegrees>-0.16909274272620677947998046875</LongitudeDegrees>
            </Position>
            <AltitudeMeters>2086.199951171875</AltitudeMeters>
            <DistanceMeters>29017.557881949</DistanceMeters>
          </Trackpoint>
          <Trackpoint>
            <Time>2022-07-10T07:45:14.000Z</Time>
            <Position>
              <LatitudeDegrees>42.76823219843208789825439453125</LatitudeDegrees>
              <LongitudeDegrees>-0.1691164635121822357177734375</LongitudeDegrees>
            </Position>
            <AltitudeMeters>2085.60009765625</AltitudeMeters>
            <DistanceMeters>29020.449568445</DistanceMeters>
          </Trackpoint>
          <Trackpoint>
            <Time>2022-07-10T07:45:16.000Z</Time>
            <Position>
              <LatitudeDegrees>42.76820654980838298797607421875</LatitudeDegrees>
              <LongitudeDegrees>-0.16914286650717258453369140625</LongitudeDegrees>
            </Position>
            <AltitudeMeters>2085.199951171875</AltitudeMeters>
            <DistanceMeters>29024.027926783</DistanceMeters>
          </Trackpoint>
          <Trackpoint>
            <Time>2022-07-10T07:45:20.000Z</Time>
            <Position>
              <LatitudeDegrees>42.76819112710654735565185546875</LatitudeDegrees>
              <LongitudeDegrees>-0.16920103691518306732177734375</LongitudeDegrees>
            </Position>
            <AltitudeMeters>2084.39990234375</AltitudeMeters>
            <DistanceMeters>29029.081347029</DistanceMeters>
          </Trackpoint>
          <Trackpoint>
            <Time>2022-07-10T07:45:23.000Z</Time>
            <Position>
              <LatitudeDegrees>42.7681930549442768096923828125</LatitudeDegrees>
              <LongitudeDegrees>-0.1692150346934795379638671875</LongitudeDegrees>
            </Position>
            <AltitudeMeters>2083.60009765625</AltitudeMeters>
            <DistanceMeters>29030.24518184</DistanceMeters>
          </Trackpoint>
          <Trackpoint>
            <Time>2022-07-10T07:45:24.000Z</Time>
            <Position>
              <LatitudeDegrees>42.768201939761638641357421875</LatitudeDegrees>
              <LongitudeDegrees>-0.169216208159923553466796875</LongitudeDegrees>
            </Position>
            <AltitudeMeters>2083.39990234375</AltitudeMeters>
            <DistanceMeters>29031.237289864</DistanceMeters>
          </Trackpoint>
          <Trackpoint>
            <Time>2022-07-10T07:45:29.000Z</Time>
            <Position>
              <LatitudeDegrees>42.76819867081940174102783203125</LatitudeDegrees>
              <LongitudeDegrees>-0.16920925118029117584228515625</LongitudeDegrees>
            </Position>
            <AltitudeMeters>2083.39990234375</AltitudeMeters>
            <DistanceMeters>29031.909230206</DistanceMeters>
          </Trackpoint>
          <Trackpoint>
            <Time>2022-07-10T07:45:32.000Z</Time>
            <Position>
              <LatitudeDegrees>42.7681799791753292083740234375</LatitudeDegrees>
              <LongitudeDegrees>-0.169207155704498291015625</LongitudeDegrees>
            </Position>
            <AltitudeMeters>2083.199951171875</AltitudeMeters>
            <DistanceMeters>29033.995494054</DistanceMeters>
          </Trackpoint>
          <Trackpoint>
            <Time>2022-07-10T07:45:37.000Z</Time>
            <Position>
              <LatitudeDegrees>42.76819598861038684844970703125</LatitudeDegrees>
              <LongitudeDegrees>-0.1692331396043300628662109375</LongitudeDegrees>
            </Position>
            <AltitudeMeters>2082.800048828125</AltitudeMeters>
            <DistanceMeters>29036.765975055</DistanceMeters>
          </Trackpoint>
          <Trackpoint>
            <Time>2022-07-10T07:45:40.000Z</Time>
            <Position>
              <LatitudeDegrees>42.76820856146514415740966796875</LatitudeDegrees>
              <LongitudeDegrees>-0.1692552678287029266357421875</LongitudeDegrees>
            </Position>
            <AltitudeMeters>2083</AltitudeMeters>
            <DistanceMeters>29039.050572216</DistanceMeters>
          </Trackpoint>
          <Trackpoint>
            <Time>2022-07-10T07:45:43.000Z</Time>
            <Position>
              <LatitudeDegrees>42.7682269178330898284912109375</LatitudeDegrees>
              <LongitudeDegrees>-0.16927890479564666748046875</LongitudeDegrees>
            </Position>
            <AltitudeMeters>2083</AltitudeMeters>
            <DistanceMeters>29041.861500334</DistanceMeters>
          </Trackpoint>
          <Trackpoint>
            <Time>2022-07-10T07:45:48.000Z</Time>
            <Position>
              <LatitudeDegrees>42.76818978600203990936279296875</LatitudeDegrees>
              <LongitudeDegrees>-0.169393904507160186767578125</LongitudeDegrees>
            </Position>
            <AltitudeMeters>2082.800048828125</AltitudeMeters>
            <DistanceMeters>29052.126145089</DistanceMeters>
          </Trackpoint>
          <Trackpoint>
            <Time>2022-07-10T07:45:51.000Z</Time>
            <Position>
              <LatitudeDegrees>42.768191210925579071044921875</LatitudeDegrees>
              <LongitudeDegrees>-0.16943841241300106048583984375</LongitudeDegrees>
            </Position>
            <AltitudeMeters>2082.199951171875</AltitudeMeters>
            <DistanceMeters>29055.764563986</DistanceMeters>
          </Trackpoint>
          <Trackpoint>
            <Time>2022-07-10T07:45:55.000Z</Time>
            <Position>
              <LatitudeDegrees>42.768200598657131195068359375</LatitudeDegrees>
              <LongitudeDegrees>-0.169503875076770782470703125</LongitudeDegrees>
            </Position>
            <AltitudeMeters>2082</AltitudeMeters>
            <DistanceMeters>29061.213498868</DistanceMeters>
          </Trackpoint>
          <Trackpoint>
            <Time>2022-07-10T07:46:00.000Z</Time>
            <Position>
              <LatitudeDegrees>42.7682114951312541961669921875</LatitudeDegrees>
              <LongitudeDegrees>-0.1695727743208408355712890625</LongitudeDegrees>
            </Position>
            <AltitudeMeters>2081.800048828125</AltitudeMeters>
            <DistanceMeters>29066.971835494</DistanceMeters>
          </Trackpoint>
          <Trackpoint>
            <Time>2022-07-10T07:46:01.000Z</Time>
            <Position>
              <LatitudeDegrees>42.76821593753993511199951171875</LatitudeDegrees>
              <LongitudeDegrees>-0.16959138214588165283203125</LongitudeDegrees>
            </Position>
            <AltitudeMeters>2081.60009765625</AltitudeMeters>
            <DistanceMeters>29068.570432264</DistanceMeters>
          </Trackpoint>
          <Trackpoint>
            <Time>2022-07-10T07:46:03.000Z</Time>
            <Position>
              <LatitudeDegrees>42.7682259120047092437744140625</LatitudeDegrees>
              <LongitudeDegrees>-0.1696296036243438720703125</LongitudeDegrees>
            </Position>
            <AltitudeMeters>2081</AltitudeMeters>
            <DistanceMeters>29071.884127023</DistanceMeters>
          </Trackpoint>
          <Trackpoint>
            <Time>2022-07-10T07:46:04.000Z</Time>
            <Position>
              <LatitudeDegrees>42.76822063140571117401123046875</LatitudeDegrees>
              <LongitudeDegrees>-0.16963773407042026519775390625</LongitudeDegrees>
            </Position>
            <AltitudeMeters>2080.800048828125</AltitudeMeters>
            <DistanceMeters>29072.765368519</DistanceMeters>
          </Trackpoint>
          <Trackpoint>
            <Time>2022-07-10T07:46:07.000Z</Time>
            <Position>
              <LatitudeDegrees>42.76818794198334217071533203125</LatitudeDegrees>
              <LongitudeDegrees>-0.16966053284704685211181640625</LongitudeDegrees>
            </Position>
            <AltitudeMeters>2080.60009765625</AltitudeMeters>
            <DistanceMeters>29076.85262205</DistanceMeters>
          </Trackpoint>
          <Trackpoint>
            <Time>2022-07-10T07:46:12.000Z</Time>
            <Position>
              <LatitudeDegrees>42.768148966133594512939453125</LatitudeDegrees>
              <LongitudeDegrees>-0.1697159372270107269287109375</LongitudeDegrees>
            </Position>
            <AltitudeMeters>2080.60009765625</AltitudeMeters>
            <DistanceMeters>29083.122945234</DistanceMeters>
          </Trackpoint>
          <Trackpoint>
            <Time>2022-07-10T07:46:14.000Z</Time>
            <Position>
              <LatitudeDegrees>42.76814301498234272003173828125</LatitudeDegrees>
              <LongitudeDegrees>-0.16974418424069881439208984375</LongitudeDegrees>
            </Position>
            <AltitudeMeters>2080.60009765625</AltitudeMeters>
            <DistanceMeters>29085.523192882</DistanceMeters>
          </Trackpoint>
          <Trackpoint>
            <Time>2022-07-10T07:46:15.000Z</Time>
            <Position>
              <LatitudeDegrees>42.76814620010554790496826171875</LatitudeDegrees>
              <LongitudeDegrees>-0.16975910402834415435791015625</LongitudeDegrees>
            </Position>
            <AltitudeMeters>2080.199951171875</AltitudeMeters>
            <DistanceMeters>29086.791007382</DistanceMeters>
          </Trackpoint>
          <Trackpoint>
            <Time>2022-07-10T07:46:16.000Z</Time>
            <Position>
              <LatitudeDegrees>42.76815273799002170562744140625</LatitudeDegrees>
              <LongitudeDegrees>-0.16978424973785877227783203125</LongitudeDegrees>
            </Position>
            <AltitudeMeters>2080</AltitudeMeters>
            <DistanceMeters>29088.970415607</DistanceMeters>
          </Trackpoint>
          <Trackpoint>
            <Time>2022-07-10T07:46:18.000Z</Time>
            <Position>
              <LatitudeDegrees>42.76816313154995441436767578125</LatitudeDegrees>
              <LongitudeDegrees>-0.16982247121632099151611328125</LongitudeDegrees>
            </Position>
            <AltitudeMeters>2079.60009765625</AltitudeMeters>
            <DistanceMeters>29092.300420693</DistanceMeters>
          </Trackpoint>
          <Trackpoint>
            <Time>2022-07-10T07:46:19.000Z</Time>
            <Position>
              <LatitudeDegrees>42.76817168109118938446044921875</LatitudeDegrees>
              <LongitudeDegrees>-0.1698376424610614776611328125</LongitudeDegrees>
            </Position>
            <AltitudeMeters>2079.60009765625</AltitudeMeters>
            <DistanceMeters>29093.861868944</DistanceMeters>
          </Trackpoint>
          <Trackpoint>
            <Time>2022-07-10T07:46:23.000Z</Time>
            <Position>
              <LatitudeDegrees>42.7681995928287506103515625</LatitudeDegrees>
              <LongitudeDegrees>-0.16989388503134250640869140625</LongitudeDegrees>
            </Position>
            <AltitudeMeters>2079.39990234375</AltitudeMeters>
            <DistanceMeters>29099.408531945</DistanceMeters>
          </Trackpoint>
          <Trackpoint>
            <Time>2022-07-10T07:46:25.000Z</Time>
            <Position>
              <LatitudeDegrees>42.7681843377649784088134765625</LatitudeDegrees>
              <LongitudeDegrees>-0.16992724500596523284912109375</LongitudeDegrees>
            </Position>
            <AltitudeMeters>2078.800048828125</AltitudeMeters>
            <DistanceMeters>29102.619816314</DistanceMeters>
          </Trackpoint>
          <Trackpoint>
            <Time>2022-07-10T07:46:28.000Z</Time>
            <Position>
              <LatitudeDegrees>42.7681647241115570068359375</LatitudeDegrees>
              <LongitudeDegrees>-0.1699791289865970611572265625</LongitudeDegrees>
            </Position>
            <AltitudeMeters>2078.800048828125</AltitudeMeters>
            <DistanceMeters>29107.387279204</DistanceMeters>
          </Trackpoint>
          <Trackpoint>
            <Time>2022-07-10T07:46:30.000Z</Time>
            <Position>
              <LatitudeDegrees>42.76815324090421199798583984375</LatitudeDegrees>
              <LongitudeDegrees>-0.17001491971313953399658203125</LongitudeDegrees>
            </Position>
            <AltitudeMeters>2078.60009765625</AltitudeMeters>
            <DistanceMeters>29110.578818993</DistanceMeters>
          </Trackpoint>
          <Trackpoint>
            <Time>2022-07-10T07:46:32.000Z</Time>
            <Position>
              <LatitudeDegrees>42.76814167387783527374267578125</LatitudeDegrees>
              <LongitudeDegrees>-0.17004895024001598358154296875</LongitudeDegrees>
            </Position>
            <AltitudeMeters>2078.39990234375</AltitudeMeters>
            <DistanceMeters>29113.64333845</DistanceMeters>
          </Trackpoint>
          <Trackpoint>
            <Time>2022-07-10T07:46:36.000Z</Time>
            <Position>
              <LatitudeDegrees>42.768101356923580169677734375</LatitudeDegrees>
              <LongitudeDegrees>-0.1700884290039539337158203125</LongitudeDegrees>
            </Position>
            <AltitudeMeters>2077.800048828125</AltitudeMeters>
            <DistanceMeters>29119.169613736</DistanceMeters>
          </Trackpoint>
          <Trackpoint>
            <Time>2022-07-10T07:46:39.000Z</Time>
            <Position>
              <LatitudeDegrees>42.7680840902030467987060546875</LatitudeDegrees>
              <LongitudeDegrees>-0.170114748179912567138671875</LongitudeDegrees>
            </Position>
            <AltitudeMeters>2078</AltitudeMeters>
            <DistanceMeters>29122.055047929</DistanceMeters>
          </Trackpoint>
          <Trackpoint>
            <Time>2022-07-10T07:46:40.000Z</Time>
            <Position>
              <LatitudeDegrees>42.76807512156665325164794921875</LatitudeDegrees>
              <LongitudeDegrees>-0.17012002877891063690185546875</LongitudeDegrees>
            </Position>
            <AltitudeMeters>2078</AltitudeMeters>
            <DistanceMeters>29123.142678387</DistanceMeters>
          </Trackpoint>
          <Trackpoint>
            <Time>2022-07-10T07:46:42.000Z</Time>
            <Position>
              <LatitudeDegrees>42.76805802248418331146240234375</LatitudeDegrees>
              <LongitudeDegrees>-0.1701231300830841064453125</LongitudeDegrees>
            </Position>
            <AltitudeMeters>2078</AltitudeMeters>
            <DistanceMeters>29125.062123929</DistanceMeters>
          </Trackpoint>
          <Trackpoint>
            <Time>2022-07-10T07:46:43.000Z</Time>
            <Position>
              <LatitudeDegrees>42.768056429922580718994140625</LatitudeDegrees>
              <LongitudeDegrees>-0.1701286621391773223876953125</LongitudeDegrees>
            </Position>
            <AltitudeMeters>2077.800048828125</AltitudeMeters>
            <DistanceMeters>29125.546667</DistanceMeters>
          </Trackpoint>
          <Trackpoint>
            <Time>2022-07-10T07:46:44.000Z</Time>
            <Position>
              <LatitudeDegrees>42.76805299334228038787841796875</LatitudeDegrees>
              <LongitudeDegrees>-0.17013779841363430023193359375</LongitudeDegrees>
            </Position>
            <AltitudeMeters>2077.60009765625</AltitudeMeters>
            <DistanceMeters>29126.385920218</DistanceMeters>
          </Trackpoint>
          <Trackpoint>
            <Time>2022-07-10T07:46:47.000Z</Time>
            <Position>
              <LatitudeDegrees>42.76803195476531982421875</LatitudeDegrees>
              <LongitudeDegrees>-0.17018557526171207427978515625</LongitudeDegrees>
            </Position>
            <AltitudeMeters>2077.39990234375</AltitudeMeters>
            <DistanceMeters>29130.937293127</DistanceMeters>
          </Trackpoint>
          <Trackpoint>
            <Time>2022-07-10T07:46:50.000Z</Time>
            <Position>
              <LatitudeDegrees>42.76802047155797481536865234375</LatitudeDegrees>
              <LongitudeDegrees>-0.17022144980728626251220703125</LongitudeDegrees>
            </Position>
            <AltitudeMeters>2077</AltitudeMeters>
            <DistanceMeters>29134.135898544</DistanceMeters>
          </Trackpoint>
          <Trackpoint>
            <Time>2022-07-10T07:46:52.000Z</Time>
            <Position>
              <LatitudeDegrees>42.7680207230150699615478515625</LatitudeDegrees>
              <LongitudeDegrees>-0.17024978064000606536865234375</LongitudeDegrees>
            </Position>
            <AltitudeMeters>2076.800048828125</AltitudeMeters>
            <DistanceMeters>29136.451900575</DistanceMeters>
          </Trackpoint>
          <Trackpoint>
            <Time>2022-07-10T07:46:53.000Z</Time>
            <Position>
              <LatitudeDegrees>42.76801762171089649200439453125</LatitudeDegrees>
              <LongitudeDegrees>-0.1702599227428436279296875</LongitudeDegrees>
            </Position>
            <AltitudeMeters>2076.60009765625</AltitudeMeters>
            <DistanceMeters>29137.353403143</DistanceMeters>
          </Trackpoint>
          <Trackpoint>
            <Time>2022-07-10T07:46:54.000Z</Time>
            <Position>
              <LatitudeDegrees>42.7680160291492938995361328125</LatitudeDegrees>
              <LongitudeDegrees>-0.1702704839408397674560546875</LongitudeDegrees>
            </Position>
            <AltitudeMeters>2076.60009765625</AltitudeMeters>
            <DistanceMeters>29138.234644639</DistanceMeters>
          </Trackpoint>
          <Trackpoint>
            <Time>2022-07-10T07:46:55.000Z</Time>
            <Position>
              <LatitudeDegrees>42.76801778934895992279052734375</LatitudeDegrees>
              <LongitudeDegrees>-0.17028029076755046844482421875</LongitudeDegrees>
            </Position>
            <AltitudeMeters>2076.39990234375</AltitudeMeters>
            <DistanceMeters>29139.063068328</DistanceMeters>
          </Trackpoint>
          <Trackpoint>
            <Time>2022-07-10T07:46:57.000Z</Time>
            <Position>
              <LatitudeDegrees>42.7680197171866893768310546875</LatitudeDegrees>
              <LongitudeDegrees>-0.1703016646206378936767578125</LongitudeDegrees>
            </Position>
            <AltitudeMeters>2076.39990234375</AltitudeMeters>
            <DistanceMeters>29140.82555132</DistanceMeters>
          </Trackpoint>
          <Trackpoint>
            <Time>2022-07-10T07:47:01.000Z</Time>
            <Position>
              <LatitudeDegrees>42.76800672523677349090576171875</LatitudeDegrees>
              <LongitudeDegrees>-0.17035556025803089141845703125</LongitudeDegrees>
            </Position>
            <AltitudeMeters>2076.199951171875</AltitudeMeters>
            <DistanceMeters>29145.461452736</DistanceMeters>
          </Trackpoint>
          <Trackpoint>
            <Time>2022-07-10T07:47:03.000Z</Time>
            <Position>
              <LatitudeDegrees>42.7679984271526336669921875</LatitudeDegrees>
              <LongitudeDegrees>-0.17039260827004909515380859375</LongitudeDegrees>
            </Position>
            <AltitudeMeters>2076.199951171875</AltitudeMeters>
            <DistanceMeters>29148.627425707</DistanceMeters>
          </Trackpoint>
          <Trackpoint>
            <Time>2022-07-10T07:47:07.000Z</Time>
            <Position>
              <LatitudeDegrees>42.76797831058502197265625</LatitudeDegrees>
              <LongitudeDegrees>-0.17042412422597408294677734375</LongitudeDegrees>
            </Position>
            <AltitudeMeters>2075.39990234375</AltitudeMeters>
            <DistanceMeters>29152.04178197</DistanceMeters>
          </Trackpoint>
          <Trackpoint>
            <Time>2022-07-10T07:47:09.000Z</Time>
            <Position>
              <LatitudeDegrees>42.76795676909387111663818359375</LatitudeDegrees>
              <LongitudeDegrees>-0.1704377867281436920166015625</LongitudeDegrees>
            </Position>
            <AltitudeMeters>2075</AltitudeMeters>
            <DistanceMeters>29154.688919919</DistanceMeters>
          </Trackpoint>
          <Trackpoint>
            <Time>2022-07-10T07:47:12.000Z</Time>
            <Position>
              <LatitudeDegrees>42.767935059964656829833984375</LatitudeDegrees>
              <LongitudeDegrees>-0.170494616031646728515625</LongitudeDegrees>
            </Position>
            <AltitudeMeters>2074.39990234375</AltitudeMeters>
            <DistanceMeters>29159.924020874</DistanceMeters>
          </Trackpoint>
          <Trackpoint>
            <Time>2022-07-10T07:47:15.000Z</Time>
            <Position>
              <LatitudeDegrees>42.76794453151524066925048828125</LatitudeDegrees>
              <LongitudeDegrees>-0.1705330051481723785400390625</LongitudeDegrees>
            </Position>
            <AltitudeMeters>2073.60009765625</AltitudeMeters>
            <DistanceMeters>29163.234989433</DistanceMeters>
          </Trackpoint>
          <Trackpoint>
            <Time>2022-07-10T07:47:16.000Z</Time>
            <Position>
              <LatitudeDegrees>42.7679501473903656005859375</LatitudeDegrees>
              <LongitudeDegrees>-0.1705447398126125335693359375</LongitudeDegrees>
            </Position>
            <AltitudeMeters>2073.39990234375</AltitudeMeters>
            <DistanceMeters>29164.383201592</DistanceMeters>
          </Trackpoint>
          <Trackpoint>
            <Time>2022-07-10T07:47:17.000Z</Time>
            <Position>
              <LatitudeDegrees>42.76795777492225170135498046875</LatitudeDegrees>
              <LongitudeDegrees>-0.17055840231478214263916015625</LongitudeDegrees>
            </Position>
            <AltitudeMeters>2073.199951171875</AltitudeMeters>
            <DistanceMeters>29165.786254215</DistanceMeters>
          </Trackpoint>
          <Trackpoint>
            <Time>2022-07-10T07:47:20.000Z</Time>
            <Position>
              <LatitudeDegrees>42.76797202415764331817626953125</LatitudeDegrees>
              <LongitudeDegrees>-0.17060131765902042388916015625</LongitudeDegrees>
            </Position>
            <AltitudeMeters>2073</AltitudeMeters>
            <DistanceMeters>29169.634542844</DistanceMeters>
          </Trackpoint>
          <Trackpoint>
            <Time>2022-07-10T07:47:22.000Z</Time>
            <Position>
              <LatitudeDegrees>42.767975963652133941650390625</LatitudeDegrees>
              <LongitudeDegrees>-0.17062403261661529541015625</LongitudeDegrees>
            </Position>
            <AltitudeMeters>2072.39990234375</AltitudeMeters>
            <DistanceMeters>29171.544556164</DistanceMeters>
          </Trackpoint>
          <Trackpoint>
            <Time>2022-07-10T07:47:23.000Z</Time>
            <Position>
              <LatitudeDegrees>42.7679747901856899261474609375</LatitudeDegrees>
              <LongitudeDegrees>-0.1706354320049285888671875</LongitudeDegrees>
            </Position>
            <AltitudeMeters>2072.199951171875</AltitudeMeters>
            <DistanceMeters>29172.485272642</DistanceMeters>
          </Trackpoint>
          <Trackpoint>
            <Time>2022-07-10T07:47:28.000Z</Time>
            <Position>
              <LatitudeDegrees>42.767954505980014801025390625</LatitudeDegrees>
              <LongitudeDegrees>-0.1706778444349765777587890625</LongitudeDegrees>
            </Position>
            <AltitudeMeters>2071</AltitudeMeters>
            <DistanceMeters>29176.620845732</DistanceMeters>
          </Trackpoint>
          <Trackpoint>
            <Time>2022-07-10T07:47:30.000Z</Time>
            <Position>
              <LatitudeDegrees>42.767947800457477569580078125</LatitudeDegrees>
              <LongitudeDegrees>-0.17070273868739604949951171875</LongitudeDegrees>
            </Position>
            <AltitudeMeters>2070.800048828125</AltitudeMeters>
            <DistanceMeters>29178.787788221</DistanceMeters>
          </Trackpoint>
          <Trackpoint>
            <Time>2022-07-10T07:47:31.000Z</Time>
            <Position>
              <LatitudeDegrees>42.7679474651813507080078125</LatitudeDegrees>
              <LongitudeDegrees>-0.17071363516151905059814453125</LongitudeDegrees>
            </Position>
            <AltitudeMeters>2070.800048828125</AltitudeMeters>
            <DistanceMeters>29179.679217818</DistanceMeters>
          </Trackpoint>
          <Trackpoint>
            <Time>2022-07-10T07:47:36.000Z</Time>
            <Position>
              <LatitudeDegrees>42.7679724432528018951416015625</LatitudeDegrees>
              <LongitudeDegrees>-0.17074406147003173828125</LongitudeDegrees>
            </Position>
            <AltitudeMeters>2070.199951171875</AltitudeMeters>
            <DistanceMeters>29183.408335371</DistanceMeters>
          </Trackpoint>
          <Trackpoint>
            <Time>2022-07-10T07:47:40.000Z</Time>
            <Position>
              <LatitudeDegrees>42.7679610438644886016845703125</LatitudeDegrees>
              <LongitudeDegrees>-0.17078898847103118896484375</LongitudeDegrees>
            </Position>
            <AltitudeMeters>2070</AltitudeMeters>
            <DistanceMeters>29187.291662252</DistanceMeters>
          </Trackpoint>
          <Trackpoint>
            <Time>2022-07-10T07:47:42.000Z</Time>
            <Position>
              <LatitudeDegrees>42.76794821955263614654541015625</LatitudeDegrees>
              <LongitudeDegrees>-0.17080910503864288330078125</LongitudeDegrees>
            </Position>
            <AltitudeMeters>2069.800048828125</AltitudeMeters>
            <DistanceMeters>29189.466923169</DistanceMeters>
          </Trackpoint>
          <Trackpoint>
            <Time>2022-07-10T07:47:46.000Z</Time>
            <Position>
              <LatitudeDegrees>42.7679335512220859527587890625</LatitudeDegrees>
              <LongitudeDegrees>-0.17084338702261447906494140625</LongitudeDegrees>
            </Position>
            <AltitudeMeters>2069</AltitudeMeters>
            <DistanceMeters>29192.708991796</DistanceMeters>
          </Trackpoint>
          <Trackpoint>
            <Time>2022-07-10T07:47:49.000Z</Time>
            <Position>
              <LatitudeDegrees>42.7679265104234218597412109375</LatitudeDegrees>
              <LongitudeDegrees>-0.17086283303797245025634765625</LongitudeDegrees>
            </Position>
            <AltitudeMeters>2068.39990234375</AltitudeMeters>
            <DistanceMeters>29194.481692166</DistanceMeters>
          </Trackpoint>
          <Trackpoint>
            <Time>2022-07-10T07:47:50.000Z</Time>
            <Position>
              <LatitudeDegrees>42.7679193019866943359375</LatitudeDegrees>
              <LongitudeDegrees>-0.17087155021727085113525390625</LongitudeDegrees>
            </Position>
            <AltitudeMeters>2068.39990234375</AltitudeMeters>
            <DistanceMeters>29195.55258885</DistanceMeters>
          </Trackpoint>
          <Trackpoint>
            <Time>2022-07-10T07:47:52.000Z</Time>
            <Position>
              <LatitudeDegrees>42.767905555665493011474609375</LatitudeDegrees>
              <LongitudeDegrees>-0.1708826981484889984130859375</LongitudeDegrees>
            </Position>
            <AltitudeMeters>2068</AltitudeMeters>
            <DistanceMeters>29197.335448045</DistanceMeters>
          </Trackpoint>
          <Trackpoint>
            <Time>2022-07-10T07:47:54.000Z</Time>
            <Position>
              <LatitudeDegrees>42.7679077349603176116943359375</LatitudeDegrees>
              <LongitudeDegrees>-0.17089225351810455322265625</LongitudeDegrees>
            </Position>
            <AltitudeMeters>2068</AltitudeMeters>
            <DistanceMeters>29198.152898751</DistanceMeters>
          </Trackpoint>
          <Trackpoint>
            <Time>2022-07-10T07:47:55.000Z</Time>
            <Position>
              <LatitudeDegrees>42.76791100390255451202392578125</LatitudeDegrees>
              <LongitudeDegrees>-0.170892588794231414794921875</LongitudeDegrees>
            </Position>
            <AltitudeMeters>2067.800048828125</AltitudeMeters>
            <DistanceMeters>29198.520935633</DistanceMeters>
          </Trackpoint>
          <Trackpoint>
            <Time>2022-07-10T07:48:00.000Z</Time>
            <Position>
              <LatitudeDegrees>42.76790815405547618865966796875</LatitudeDegrees>
              <LongitudeDegrees>-0.17090541310608386993408203125</LongitudeDegrees>
            </Position>
            <AltitudeMeters>2067</AltitudeMeters>
            <DistanceMeters>29199.62094938</DistanceMeters>
          </Trackpoint>
          <Trackpoint>
            <Time>2022-07-10T07:48:02.000Z</Time>
            <Position>
              <LatitudeDegrees>42.76789491064846515655517578125</LatitudeDegrees>
              <LongitudeDegrees>-0.17091982997953891754150390625</LongitudeDegrees>
            </Position>
            <AltitudeMeters>2066.60009765625</AltitudeMeters>
            <DistanceMeters>29201.507175803</DistanceMeters>
          </Trackpoint>
          <Trackpoint>
            <Time>2022-07-10T07:48:06.000Z</Time>
            <Position>
              <LatitudeDegrees>42.7679003588855266571044921875</LatitudeDegrees>
              <LongitudeDegrees>-0.17096375115215778350830078125</LongitudeDegrees>
            </Position>
            <AltitudeMeters>2066</AltitudeMeters>
            <DistanceMeters>29205.1455947</DistanceMeters>
          </Trackpoint>
          <Trackpoint>
            <Time>2022-07-10T07:48:08.000Z</Time>
            <Position>
              <LatitudeDegrees>42.76790765114128589630126953125</LatitudeDegrees>
              <LongitudeDegrees>-0.1709894835948944091796875</LongitudeDegrees>
            </Position>
            <AltitudeMeters>2065.800048828125</AltitudeMeters>
            <DistanceMeters>29207.398349227</DistanceMeters>
          </Trackpoint>
          <Trackpoint>
            <Time>2022-07-10T07:48:09.000Z</Time>
            <Position>
              <LatitudeDegrees>42.767904885113239288330078125</LatitudeDegrees>
              <LongitudeDegrees>-0.17099878750741481781005859375</LongitudeDegrees>
            </Position>
            <AltitudeMeters>2065.60009765625</AltitudeMeters>
            <DistanceMeters>29208.221304714</DistanceMeters>
          </Trackpoint>
          <Trackpoint>
            <Time>2022-07-10T07:48:12.000Z</Time>
            <Position>
              <LatitudeDegrees>42.7678876183927059173583984375</LatitudeDegrees>
              <LongitudeDegrees>-0.17103197984397411346435546875</LongitudeDegrees>
            </Position>
            <AltitudeMeters>2065</AltitudeMeters>
            <DistanceMeters>29211.543164647</DistanceMeters>
          </Trackpoint>
          <Trackpoint>
            <Time>2022-07-10T07:48:15.000Z</Time>
            <Position>
              <LatitudeDegrees>42.7678805775940418243408203125</LatitudeDegrees>
              <LongitudeDegrees>-0.17105762846767902374267578125</LongitudeDegrees>
            </Position>
            <AltitudeMeters>2064.199951171875</AltitudeMeters>
            <DistanceMeters>29213.779827865</DistanceMeters>
          </Trackpoint>
          <Trackpoint>
            <Time>2022-07-10T07:48:17.000Z</Time>
            <Position>
              <LatitudeDegrees>42.76786959730088710784912109375</LatitudeDegrees>
              <LongitudeDegrees>-0.171068944036960601806640625</LongitudeDegrees>
            </Position>
            <AltitudeMeters>2063.60009765625</AltitudeMeters>
            <DistanceMeters>29215.312087593</DistanceMeters>
          </Trackpoint>
          <Trackpoint>
            <Time>2022-07-10T07:48:19.000Z</Time>
            <Position>
              <LatitudeDegrees>42.7678547613322734832763671875</LatitudeDegrees>
              <LongitudeDegrees>-0.17108126543462276458740234375</LongitudeDegrees>
            </Position>
            <AltitudeMeters>2063.199951171875</AltitudeMeters>
            <DistanceMeters>29217.245595196</DistanceMeters>
          </Trackpoint>
          <Trackpoint>
            <Time>2022-07-10T07:48:20.000Z</Time>
            <Position>
              <LatitudeDegrees>42.76785333640873432159423828125</LatitudeDegrees>
              <LongitudeDegrees>-0.171087048947811126708984375</LongitudeDegrees>
            </Position>
            <AltitudeMeters>2062.800048828125</AltitudeMeters>
            <DistanceMeters>29217.748429304</DistanceMeters>
          </Trackpoint>
          <Trackpoint>
            <Time>2022-07-10T07:48:21.000Z</Time>
            <Position>
              <LatitudeDegrees>42.7678540907800197601318359375</LatitudeDegrees>
              <LongitudeDegrees>-0.17109048552811145782470703125</LongitudeDegrees>
            </Position>
            <AltitudeMeters>2062.60009765625</AltitudeMeters>
            <DistanceMeters>29218.04893016</DistanceMeters>
          </Trackpoint>
          <Trackpoint>
            <Time>2022-07-10T07:48:23.000Z</Time>
            <Position>
              <LatitudeDegrees>42.76785786263644695281982421875</LatitudeDegrees>
              <LongitudeDegrees>-0.1710885576903820037841796875</LongitudeDegrees>
            </Position>
            <AltitudeMeters>2062.199951171875</AltitudeMeters>
            <DistanceMeters>29218.494644958</DistanceMeters>
          </Trackpoint>
          <Trackpoint>
            <Time>2022-07-10T07:48:26.000Z</Time>
            <Position>
              <LatitudeDegrees>42.7678534202277660369873046875</LatitudeDegrees>
              <LongitudeDegrees>-0.171072296798229217529296875</LongitudeDegrees>
            </Position>
            <AltitudeMeters>2061.60009765625</AltitudeMeters>
            <DistanceMeters>29219.913696419</DistanceMeters>
          </Trackpoint>
          <Trackpoint>
            <Time>2022-07-10T07:48:32.000Z</Time>
            <Position>
              <LatitudeDegrees>42.76782299391925334930419921875</LatitudeDegrees>
              <LongitudeDegrees>-0.1710774935781955718994140625</LongitudeDegrees>
            </Position>
            <AltitudeMeters>2061</AltitudeMeters>
            <DistanceMeters>29223.326730057</DistanceMeters>
          </Trackpoint>
          <Trackpoint>
            <Time>2022-07-10T07:48:38.000Z</Time>
            <Position>
              <LatitudeDegrees>42.7677994407713413238525390625</LatitudeDegrees>
              <LongitudeDegrees>-0.17109811305999755859375</LongitudeDegrees>
            </Position>
            <AltitudeMeters>2060.60009765625</AltitudeMeters>
            <DistanceMeters>29226.442389245</DistanceMeters>
          </Trackpoint>
          <Trackpoint>
            <Time>2022-07-10T07:48:44.000Z</Time>
            <Position>
              <LatitudeDegrees>42.7677731215953826904296875</LatitudeDegrees>
              <LongitudeDegrees>-0.1711371727287769317626953125</LongitudeDegrees>
            </Position>
            <AltitudeMeters>2060.39990234375</AltitudeMeters>
            <DistanceMeters>29230.774190123</DistanceMeters>
          </Trackpoint>
          <Trackpoint>
            <Time>2022-07-10T07:48:48.000Z</Time>
            <Position>
              <LatitudeDegrees>42.76777245104312896728515625</LatitudeDegrees>
              <LongitudeDegrees>-0.171138681471347808837890625</LongitudeDegrees>
            </Position>
            <AltitudeMeters>2060.39990234375</AltitudeMeters>
            <DistanceMeters>29230.908578191</DistanceMeters>
          </Trackpoint>
          <Trackpoint>
            <Time>2022-07-10T07:48:49.000Z</Time>
            <Position>
              <LatitudeDegrees>42.767771780490875244140625</LatitudeDegrees>
              <LongitudeDegrees>-0.17114429734647274017333984375</LongitudeDegrees>
            </Position>
            <AltitudeMeters>2060.39990234375</AltitudeMeters>
            <DistanceMeters>29231.374112116</DistanceMeters>
          </Trackpoint>
          <Trackpoint>
            <Time>2022-07-10T07:48:52.000Z</Time>
            <Position>
              <LatitudeDegrees>42.7677913941442966461181640625</LatitudeDegrees>
              <LongitudeDegrees>-0.17114513553678989410400390625</LongitudeDegrees>
            </Position>
            <AltitudeMeters>2060.39990234375</AltitudeMeters>
            <DistanceMeters>29233.561791369</DistanceMeters>
          </Trackpoint>
          <Trackpoint>
            <Time>2022-07-10T07:48:58.000Z</Time>
            <Position>
              <LatitudeDegrees>42.76782299391925334930419921875</LatitudeDegrees>
              <LongitudeDegrees>-0.17115284688770771026611328125</LongitudeDegrees>
            </Position>
            <AltitudeMeters>2060</AltitudeMeters>
            <DistanceMeters>29237.135099093</DistanceMeters>
          </Trackpoint>
          <Trackpoint>
            <Time>2022-07-10T07:49:02.000Z</Time>
            <Position>
              <LatitudeDegrees>42.76783875189721584320068359375</LatitudeDegrees>
              <LongitudeDegrees>-0.17116458155214786529541015625</LongitudeDegrees>
            </Position>
            <AltitudeMeters>2059.60009765625</AltitudeMeters>
            <DistanceMeters>29239.132921355</DistanceMeters>
          </Trackpoint>
          <Trackpoint>
            <Time>2022-07-10T07:49:06.000Z</Time>
            <Position>
              <LatitudeDegrees>42.76782835833728313446044921875</LatitudeDegrees>
              <LongitudeDegrees>-0.1711817644536495208740234375</LongitudeDegrees>
            </Position>
            <AltitudeMeters>2059.199951171875</AltitudeMeters>
            <DistanceMeters>29240.950889445</DistanceMeters>
          </Trackpoint>
          <Trackpoint>
            <Time>2022-07-10T07:49:12.000Z</Time>
            <Position>
              <LatitudeDegrees>42.7678321301937103271484375</LatitudeDegrees>
              <LongitudeDegrees>-0.17122157849371433258056640625</LongitudeDegrees>
            </Position>
            <AltitudeMeters>2059</AltitudeMeters>
            <DistanceMeters>29244.231720304</DistanceMeters>
          </Trackpoint>
          <Trackpoint>
            <Time>2022-07-10T07:49:13.000Z</Time>
            <Position>
              <LatitudeDegrees>42.76784378103911876678466796875</LatitudeDegrees>
              <LongitudeDegrees>-0.1712354086339473724365234375</LongitudeDegrees>
            </Position>
            <AltitudeMeters>2058.800048828125</AltitudeMeters>
            <DistanceMeters>29245.947472302</DistanceMeters>
          </Trackpoint>
          <Trackpoint>
            <Time>2022-07-10T07:49:16.000Z</Time>
            <Position>
              <LatitudeDegrees>42.76786339469254016876220703125</LatitudeDegrees>
              <LongitudeDegrees>-0.17127036117017269134521484375</LongitudeDegrees>
            </Position>
            <AltitudeMeters>2058.800048828125</AltitudeMeters>
            <DistanceMeters>29249.540939891</DistanceMeters>
          </Trackpoint>
          <Trackpoint>
            <Time>2022-07-10T07:49:19.000Z</Time>
            <Position>
              <LatitudeDegrees>42.7678643167018890380859375</LatitudeDegrees>
              <LongitudeDegrees>-0.17129399813711643218994140625</LongitudeDegrees>
            </Position>
            <AltitudeMeters>2058.800048828125</AltitudeMeters>
            <DistanceMeters>29251.474447494</DistanceMeters>
          </Trackpoint>
          <Trackpoint>
            <Time>2022-07-10T07:49:21.000Z</Time>
            <Position>
              <LatitudeDegrees>42.767861969769001007080078125</LatitudeDegrees>
              <LongitudeDegrees>-0.17130807973444461822509765625</LongitudeDegrees>
            </Position>
            <AltitudeMeters>2058.60009765625</AltitudeMeters>
            <DistanceMeters>29252.653698007</DistanceMeters>
          </Trackpoint>
          <Trackpoint>
            <Time>2022-07-10T07:49:22.000Z</Time>
            <Position>
              <LatitudeDegrees>42.76786104775965213775634765625</LatitudeDegrees>
              <LongitudeDegrees>-0.17131562344729900360107421875</LongitudeDegrees>
            </Position>
            <AltitudeMeters>2058.60009765625</AltitudeMeters>
            <DistanceMeters>29253.276829844</DistanceMeters>
          </Trackpoint>
          <Trackpoint>
            <Time>2022-07-10T07:49:23.000Z</Time>
            <Position>
              <LatitudeDegrees>42.76785383932292461395263671875</LatitudeDegrees>
              <LongitudeDegrees>-0.17132274806499481201171875</LongitudeDegrees>
            </Position>
            <AltitudeMeters>2058.60009765625</AltitudeMeters>
            <DistanceMeters>29254.273478433</DistanceMeters>
          </Trackpoint>
          <Trackpoint>
            <Time>2022-07-10T07:49:25.000Z</Time>
            <Position>
              <LatitudeDegrees>42.76784528978168964385986328125</LatitudeDegrees>
              <LongitudeDegrees>-0.17133691348135471343994140625</LongitudeDegrees>
            </Position>
            <AltitudeMeters>2058.60009765625</AltitudeMeters>
            <DistanceMeters>29255.769960627</DistanceMeters>
          </Trackpoint>
          <Trackpoint>
            <Time>2022-07-10T07:49:26.000Z</Time>
            <Position>
              <LatitudeDegrees>42.7678450383245944976806640625</LatitudeDegrees>
              <LongitudeDegrees>-0.17134294845163822174072265625</LongitudeDegrees>
            </Position>
            <AltitudeMeters>2058.60009765625</AltitudeMeters>
            <DistanceMeters>29256.263733919</DistanceMeters>
          </Trackpoint>
          <Trackpoint>
            <Time>2022-07-10T07:49:32.000Z</Time>
            <Position>
              <LatitudeDegrees>42.767832465469837188720703125</LatitudeDegrees>
              <LongitudeDegrees>-0.1713918149471282958984375</LongitudeDegrees>
            </Position>
            <AltitudeMeters>2058.39990234375</AltitudeMeters>
            <DistanceMeters>29260.49322342</DistanceMeters>
          </Trackpoint>
          <Trackpoint>
            <Time>2022-07-10T07:49:38.000Z</Time>
            <Position>
              <LatitudeDegrees>42.767817042768001556396484375</LatitudeDegrees>
              <LongitudeDegrees>-0.17145308665931224822998046875</LongitudeDegrees>
            </Position>
            <AltitudeMeters>2059.199951171875</AltitudeMeters>
            <DistanceMeters>29265.784940254</DistanceMeters>
          </Trackpoint>
          <Trackpoint>
            <Time>2022-07-10T07:49:44.000Z</Time>
            <Position>
              <LatitudeDegrees>42.7677903883159160614013671875</LatitudeDegrees>
              <LongitudeDegrees>-0.17150706611573696136474609375</LongitudeDegrees>
            </Position>
            <AltitudeMeters>2059.199951171875</AltitudeMeters>
            <DistanceMeters>29271.099644302</DistanceMeters>
          </Trackpoint>
          <Trackpoint>
            <Time>2022-07-10T07:49:45.000Z</Time>
            <Position>
              <LatitudeDegrees>42.76778913103044033050537109375</LatitudeDegrees>
              <LongitudeDegrees>-0.1715151965618133544921875</LongitudeDegrees>
            </Position>
            <AltitudeMeters>2059</AltitudeMeters>
            <DistanceMeters>29271.784891684</DistanceMeters>
          </Trackpoint>
          <Trackpoint>
            <Time>2022-07-10T07:49:46.000Z</Time>
            <Position>
              <LatitudeDegrees>42.7677863650023937225341796875</LatitudeDegrees>
              <LongitudeDegrees>-0.1715217344462871551513671875</LongitudeDegrees>
            </Position>
            <AltitudeMeters>2059</AltitudeMeters>
            <DistanceMeters>29272.408023522</DistanceMeters>
          </Trackpoint>
          <Trackpoint>
            <Time>2022-07-10T07:49:48.000Z</Time>
            <Position>
              <LatitudeDegrees>42.76778577826917171478271484375</LatitudeDegrees>
              <LongitudeDegrees>-0.17152181826531887054443359375</LongitudeDegrees>
            </Position>
            <AltitudeMeters>2059</AltitudeMeters>
            <DistanceMeters>29272.408023522</DistanceMeters>
          </Trackpoint>
          <Trackpoint>
            <Time>2022-07-10T07:49:51.000Z</Time>
            <Position>
              <LatitudeDegrees>42.76778695173561573028564453125</LatitudeDegrees>
              <LongitudeDegrees>-0.17151712439954280853271484375</LongitudeDegrees>
            </Position>
            <AltitudeMeters>2059</AltitudeMeters>
            <DistanceMeters>29272.799828702</DistanceMeters>
          </Trackpoint>
          <Trackpoint>
            <Time>2022-07-10T07:49:52.000Z</Time>
            <Position>
              <LatitudeDegrees>42.76778586208820343017578125</LatitudeDegrees>
              <LongitudeDegrees>-0.171516872942447662353515625</LongitudeDegrees>
            </Position>
            <AltitudeMeters>2059</AltitudeMeters>
            <DistanceMeters>29272.934216771</DistanceMeters>
          </Trackpoint>
          <Trackpoint>
            <Time>2022-07-10T07:49:58.000Z</Time>
            <Position>
              <LatitudeDegrees>42.76778846047818660736083984375</LatitudeDegrees>
              <LongitudeDegrees>-0.171582587063312530517578125</LongitudeDegrees>
            </Position>
            <AltitudeMeters>2059.199951171875</AltitudeMeters>
            <DistanceMeters>29278.311419089</DistanceMeters>
          </Trackpoint>
          <Trackpoint>
            <Time>2022-07-10T07:49:59.000Z</Time>
            <Position>
              <LatitudeDegrees>42.76778611354529857635498046875</LatitudeDegrees>
              <LongitudeDegrees>-0.1715954951941967010498046875</LongitudeDegrees>
            </Position>
            <AltitudeMeters>2059.199951171875</AltitudeMeters>
            <DistanceMeters>29279.394890334</DistanceMeters>
          </Trackpoint>
          <Trackpoint>
            <Time>2022-07-10T07:50:02.000Z</Time>
            <Position>
              <LatitudeDegrees>42.7677860297262668609619140625</LatitudeDegrees>
              <LongitudeDegrees>-0.17161452211439609527587890625</LongitudeDegrees>
            </Position>
            <AltitudeMeters>2059.199951171875</AltitudeMeters>
            <DistanceMeters>29280.950544693</DistanceMeters>
          </Trackpoint>
          <Trackpoint>
            <Time>2022-07-10T07:50:03.000Z</Time>
            <Position>
              <LatitudeDegrees>42.76778829284012317657470703125</LatitudeDegrees>
              <LongitudeDegrees>-0.1716229878365993499755859375</LongitudeDegrees>
            </Position>
            <AltitudeMeters>2059.199951171875</AltitudeMeters>
            <DistanceMeters>29281.686618458</DistanceMeters>
          </Trackpoint>
          <Trackpoint>
            <Time>2022-07-10T07:50:09.000Z</Time>
            <Position>
              <LatitudeDegrees>42.76776348240673542022705078125</LatitudeDegrees>
              <LongitudeDegrees>-0.17164452932775020599365234375</LongitudeDegrees>
            </Position>
            <AltitudeMeters>2058.60009765625</AltitudeMeters>
            <DistanceMeters>29284.961939941</DistanceMeters>
          </Trackpoint>
          <Trackpoint>
            <Time>2022-07-10T07:50:10.000Z</Time>
            <Position>
              <LatitudeDegrees>42.767762057483196258544921875</LatitudeDegrees>
              <LongitudeDegrees>-0.1716531626880168914794921875</LongitudeDegrees>
            </Position>
            <AltitudeMeters>2058.60009765625</AltitudeMeters>
            <DistanceMeters>29285.685641836</DistanceMeters>
          </Trackpoint>
          <Trackpoint>
            <Time>2022-07-10T07:50:14.000Z</Time>
            <Position>
              <LatitudeDegrees>42.76775501668453216552734375</LatitudeDegrees>
              <LongitudeDegrees>-0.1717074774205684661865234375</LongitudeDegrees>
            </Position>
            <AltitudeMeters>2058.60009765625</AltitudeMeters>
            <DistanceMeters>29290.191150891</DistanceMeters>
          </Trackpoint>
          <Trackpoint>
            <Time>2022-07-10T07:50:15.000Z</Time>
            <Position>
              <LatitudeDegrees>42.76775158010423183441162109375</LatitudeDegrees>
              <LongitudeDegrees>-0.1717192120850086212158203125</LongitudeDegrees>
            </Position>
            <AltitudeMeters>2058.60009765625</AltitudeMeters>
            <DistanceMeters>29291.22340523</DistanceMeters>
          </Trackpoint>
          <Trackpoint>
            <Time>2022-07-10T07:50:17.000Z</Time>
            <Position>
              <LatitudeDegrees>42.7677431143820285797119140625</LatitudeDegrees>
              <LongitudeDegrees>-0.17173840664327144622802734375</LongitudeDegrees>
            </Position>
            <AltitudeMeters>2059</AltitudeMeters>
            <DistanceMeters>29293.051280577</DistanceMeters>
          </Trackpoint>
          <Trackpoint>
            <Time>2022-07-10T07:50:18.000Z</Time>
            <Position>
              <LatitudeDegrees>42.76774018071591854095458984375</LatitudeDegrees>
              <LongitudeDegrees>-0.1717480458319187164306640625</LongitudeDegrees>
            </Position>
            <AltitudeMeters>2059</AltitudeMeters>
            <DistanceMeters>29293.901225349</DistanceMeters>
          </Trackpoint>
          <Trackpoint>
            <Time>2022-07-10T07:50:20.000Z</Time>
            <Position>
              <LatitudeDegrees>42.76773666031658649444580078125</LatitudeDegrees>
              <LongitudeDegrees>-0.17176506109535694122314453125</LongitudeDegrees>
            </Position>
            <AltitudeMeters>2059.39990234375</AltitudeMeters>
            <DistanceMeters>29295.348629141</DistanceMeters>
          </Trackpoint>
          <Trackpoint>
            <Time>2022-07-10T07:50:22.000Z</Time>
            <Position>
              <LatitudeDegrees>42.76773900724947452545166015625</LatitudeDegrees>
              <LongitudeDegrees>-0.1717879436910152435302734375</LongitudeDegrees>
            </Position>
            <AltitudeMeters>2059.60009765625</AltitudeMeters>
            <DistanceMeters>29297.234855564</DistanceMeters>
          </Trackpoint>
          <Trackpoint>
            <Time>2022-07-10T07:50:26.000Z</Time>
            <Position>
              <LatitudeDegrees>42.76773666031658649444580078125</LatitudeDegrees>
              <LongitudeDegrees>-0.171832703053951263427734375</LongitudeDegrees>
            </Position>
            <AltitudeMeters>2060.199951171875</AltitudeMeters>
            <DistanceMeters>29300.900473349</DistanceMeters>
          </Trackpoint>
          <Trackpoint>
            <Time>2022-07-10T07:50:27.000Z</Time>
            <Position>
              <LatitudeDegrees>42.76773096062242984771728515625</LatitudeDegrees>
              <LongitudeDegrees>-0.17184217460453510284423828125</LongitudeDegrees>
            </Position>
            <AltitudeMeters>2060.199951171875</AltitudeMeters>
            <DistanceMeters>29301.897121938</DistanceMeters>
          </Trackpoint>
          <Trackpoint>
            <Time>2022-07-10T07:50:28.000Z</Time>
            <Position>
              <LatitudeDegrees>42.767726518213748931884765625</LatitudeDegrees>
              <LongitudeDegrees>-0.17185273580253124237060546875</LongitudeDegrees>
            </Position>
            <AltitudeMeters>2060.199951171875</AltitudeMeters>
            <DistanceMeters>29302.889229962</DistanceMeters>
          </Trackpoint>
          <Trackpoint>
            <Time>2022-07-10T07:50:33.000Z</Time>
            <Position>
              <LatitudeDegrees>42.76771117933094501495361328125</LatitudeDegrees>
              <LongitudeDegrees>-0.17186463810503482818603515625</LongitudeDegrees>
            </Position>
            <AltitudeMeters>2060</AltitudeMeters>
            <DistanceMeters>29304.855157916</DistanceMeters>
          </Trackpoint>
          <Trackpoint>
            <Time>2022-07-10T07:50:34.000Z</Time>
            <Position>
              <LatitudeDegrees>42.76771017350256443023681640625</LatitudeDegrees>
              <LongitudeDegrees>-0.17186899669468402862548828125</LongitudeDegrees>
            </Position>
            <AltitudeMeters>2060</AltitudeMeters>
            <DistanceMeters>29305.235264773</DistanceMeters>
          </Trackpoint>
          <Trackpoint>
            <Time>2022-07-10T07:50:39.000Z</Time>
            <Position>
              <LatitudeDegrees>42.76770648546516895294189453125</LatitudeDegrees>
              <LongitudeDegrees>-0.1719190366566181182861328125</LongitudeDegrees>
            </Position>
            <AltitudeMeters>2059.60009765625</AltitudeMeters>
            <DistanceMeters>29309.343453288</DistanceMeters>
          </Trackpoint>
          <Trackpoint>
            <Time>2022-07-10T07:50:45.000Z</Time>
            <Position>
              <LatitudeDegrees>42.76768670417368412017822265625</LatitudeDegrees>
              <LongitudeDegrees>-0.171947367489337921142578125</LongitudeDegrees>
            </Position>
            <AltitudeMeters>2060.39990234375</AltitudeMeters>
            <DistanceMeters>29312.534993078</DistanceMeters>
          </Trackpoint>
          <Trackpoint>
            <Time>2022-07-10T07:50:47.000Z</Time>
            <Position>
              <LatitudeDegrees>42.767685949802398681640625</LatitudeDegrees>
              <LongitudeDegrees>-0.1719428412616252899169921875</LongitudeDegrees>
            </Position>
            <AltitudeMeters>2060.39990234375</AltitudeMeters>
            <DistanceMeters>29312.915099935</DistanceMeters>
          </Trackpoint>
          <Trackpoint>
            <Time>2022-07-10T07:50:51.000Z</Time>
            <Position>
              <LatitudeDegrees>42.767732553184032440185546875</LatitudeDegrees>
              <LongitudeDegrees>-0.17195046879351139068603515625</LongitudeDegrees>
            </Position>
            <AltitudeMeters>2060.39990234375</AltitudeMeters>
            <DistanceMeters>29318.138976945</DistanceMeters>
          </Trackpoint>
          <Trackpoint>
            <Time>2022-07-10T07:50:57.000Z</Time>
            <Position>
              <LatitudeDegrees>42.767760716378688812255859375</LatitudeDegrees>
              <LongitudeDegrees>-0.171953402459621429443359375</LongitudeDegrees>
            </Position>
            <AltitudeMeters>2060.39990234375</AltitudeMeters>
            <DistanceMeters>29321.282049268</DistanceMeters>
          </Trackpoint>
          <Trackpoint>
            <Time>2022-07-10T07:51:03.000Z</Time>
            <Position>
              <LatitudeDegrees>42.767760045826435089111328125</LatitudeDegrees>
              <LongitudeDegrees>-0.17195038497447967529296875</LongitudeDegrees>
            </Position>
            <AltitudeMeters>2060</AltitudeMeters>
            <DistanceMeters>29321.550825405</DistanceMeters>
          </Trackpoint>
          <Trackpoint>
            <Time>2022-07-10T07:51:07.000Z</Time>
            <Position>
              <LatitudeDegrees>42.7677558548748493194580078125</LatitudeDegrees>
              <LongitudeDegrees>-0.17194845713675022125244140625</LongitudeDegrees>
            </Position>
            <AltitudeMeters>2060</AltitudeMeters>
            <DistanceMeters>29322.044598697</DistanceMeters>
          </Trackpoint>
          <Trackpoint>
            <Time>2022-07-10T07:51:10.000Z</Time>
            <Position>
              <LatitudeDegrees>42.7677474729716777801513671875</LatitudeDegrees>
              <LongitudeDegrees>-0.171958096325397491455078125</LongitudeDegrees>
            </Position>
            <AltitudeMeters>2060</AltitudeMeters>
            <DistanceMeters>29323.261534413</DistanceMeters>
          </Trackpoint>
          <Trackpoint>
            <Time>2022-07-10T07:51:16.000Z</Time>
            <Position>
              <LatitudeDegrees>42.76767312549054622650146484375</LatitudeDegrees>
              <LongitudeDegrees>-0.171993635594844818115234375</LongitudeDegrees>
            </Position>
            <AltitudeMeters>2060.39990234375</AltitudeMeters>
            <DistanceMeters>29332.031836069</DistanceMeters>
          </Trackpoint>
          <Trackpoint>
            <Time>2022-07-10T07:51:19.000Z</Time>
            <Position>
              <LatitudeDegrees>42.767644710838794708251953125</LatitudeDegrees>
              <LongitudeDegrees>-0.1720169372856616973876953125</LongitudeDegrees>
            </Position>
            <AltitudeMeters>2060.60009765625</AltitudeMeters>
            <DistanceMeters>29335.724452409</DistanceMeters>
          </Trackpoint>
          <Trackpoint>
            <Time>2022-07-10T07:51:20.000Z</Time>
            <Position>
              <LatitudeDegrees>42.7676334790885448455810546875</LatitudeDegrees>
              <LongitudeDegrees>-0.17202640883624553680419921875</LongitudeDegrees>
            </Position>
            <AltitudeMeters>2060.39990234375</AltitudeMeters>
            <DistanceMeters>29337.196599938</DistanceMeters>
          </Trackpoint>
          <Trackpoint>
            <Time>2022-07-10T07:51:22.000Z</Time>
            <Position>
              <LatitudeDegrees>42.76761529035866260528564453125</LatitudeDegrees>
              <LongitudeDegrees>-0.17204962670803070068359375</LongitudeDegrees>
            </Position>
            <AltitudeMeters>2060.39990234375</AltitudeMeters>
            <DistanceMeters>29339.970338413</DistanceMeters>
          </Trackpoint>
          <Trackpoint>
            <Time>2022-07-10T07:51:23.000Z</Time>
            <Position>
              <LatitudeDegrees>42.7676116861402988433837890625</LatitudeDegrees>
              <LongitudeDegrees>-0.17206043936312198638916015625</LongitudeDegrees>
            </Position>
            <AltitudeMeters>2060.39990234375</AltitudeMeters>
            <DistanceMeters>29340.939424555</DistanceMeters>
          </Trackpoint>
          <Trackpoint>
            <Time>2022-07-10T07:51:25.000Z</Time>
            <Position>
              <LatitudeDegrees>42.767603136599063873291015625</LatitudeDegrees>
              <LongitudeDegrees>-0.1720766164362430572509765625</LongitudeDegrees>
            </Position>
            <AltitudeMeters>2060.199951171875</AltitudeMeters>
            <DistanceMeters>29342.563241762</DistanceMeters>
          </Trackpoint>
          <Trackpoint>
            <Time>2022-07-10T07:51:29.000Z</Time>
            <Position>
              <LatitudeDegrees>42.76757505722343921661376953125</LatitudeDegrees>
              <LongitudeDegrees>-0.1721020974218845367431640625</LongitudeDegrees>
            </Position>
            <AltitudeMeters>2060.800048828125</AltitudeMeters>
            <DistanceMeters>29346.318901412</DistanceMeters>
          </Trackpoint>
          <Trackpoint>
            <Time>2022-07-10T07:51:35.000Z</Time>
            <Position>
              <LatitudeDegrees>42.7675328962504863739013671875</LatitudeDegrees>
              <LongitudeDegrees>-0.17214358784258365631103515625</LongitudeDegrees>
            </Position>
            <AltitudeMeters>2061.39990234375</AltitudeMeters>
            <DistanceMeters>29352.107736673</DistanceMeters>
          </Trackpoint>
          <Trackpoint>
            <Time>2022-07-10T07:51:36.000Z</Time>
            <Position>
              <LatitudeDegrees>42.7675238437950611114501953125</LatitudeDegrees>
              <LongitudeDegrees>-0.17215196974575519561767578125</LongitudeDegrees>
            </Position>
            <AltitudeMeters>2061.39990234375</AltitudeMeters>
            <DistanceMeters>29353.324672389</DistanceMeters>
          </Trackpoint>
          <Trackpoint>
            <Time>2022-07-10T07:51:38.000Z</Time>
            <Position>
              <LatitudeDegrees>42.76750531978905200958251953125</LatitudeDegrees>
              <LongitudeDegrees>-0.1721621118485927581787109375</LongitudeDegrees>
            </Position>
            <AltitudeMeters>2061.199951171875</AltitudeMeters>
            <DistanceMeters>29355.545127689</DistanceMeters>
          </Trackpoint>
          <Trackpoint>
            <Time>2022-07-10T07:51:42.000Z</Time>
            <Position>
              <LatitudeDegrees>42.76746106334030628204345703125</LatitudeDegrees>
              <LongitudeDegrees>-0.17219672910869121551513671875</LongitudeDegrees>
            </Position>
            <AltitudeMeters>2061</AltitudeMeters>
            <DistanceMeters>29361.224514369</DistanceMeters>
          </Trackpoint>
          <Trackpoint>
            <Time>2022-07-10T07:51:45.000Z</Time>
            <Position>
              <LatitudeDegrees>42.767422758042812347412109375</LatitudeDegrees>
              <LongitudeDegrees>-0.1722117327153682708740234375</LongitudeDegrees>
            </Position>
            <AltitudeMeters>2060.800048828125</AltitudeMeters>
            <DistanceMeters>29365.661356336</DistanceMeters>
          </Trackpoint>
          <Trackpoint>
            <Time>2022-07-10T07:51:49.000Z</Time>
            <Position>
              <LatitudeDegrees>42.767395935952663421630859375</LatitudeDegrees>
              <LongitudeDegrees>-0.17224282957613468170166015625</LongitudeDegrees>
            </Position>
            <AltitudeMeters>2061.199951171875</AltitudeMeters>
            <DistanceMeters>29369.581712201</DistanceMeters>
          </Trackpoint>
          <Trackpoint>
            <Time>2022-07-10T07:51:50.000Z</Time>
            <Position>
              <LatitudeDegrees>42.76739300228655338287353515625</LatitudeDegrees>
              <LongitudeDegrees>-0.17225087620317935943603515625</LongitudeDegrees>
            </Position>
            <AltitudeMeters>2061.199951171875</AltitudeMeters>
            <DistanceMeters>29370.311626244</DistanceMeters>
          </Trackpoint>
          <Trackpoint>
            <Time>2022-07-10T07:51:54.000Z</Time>
            <Position>
              <LatitudeDegrees>42.7673681080341339111328125</LatitudeDegrees>
              <LongitudeDegrees>-0.17228675074875354766845703125</LongitudeDegrees>
            </Position>
            <AltitudeMeters>2061.800048828125</AltitudeMeters>
            <DistanceMeters>29374.345507471</DistanceMeters>
          </Trackpoint>
          <Trackpoint>
            <Time>2022-07-10T07:51:58.000Z</Time>
            <Position>
              <LatitudeDegrees>42.7673625759780406951904296875</LatitudeDegrees>
              <LongitudeDegrees>-0.1723196916282176971435546875</LongitudeDegrees>
            </Position>
            <AltitudeMeters>2062.39990234375</AltitudeMeters>
            <DistanceMeters>29377.106192987</DistanceMeters>
          </Trackpoint>
          <Trackpoint>
            <Time>2022-07-10T07:51:59.000Z</Time>
            <Position>
              <LatitudeDegrees>42.76736249215900897979736328125</LatitudeDegrees>
              <LongitudeDegrees>-0.17232798971235752105712890625</LongitudeDegrees>
            </Position>
            <AltitudeMeters>2062.60009765625</AltitudeMeters>
            <DistanceMeters>29377.778133329</DistanceMeters>
          </Trackpoint>
          <Trackpoint>
            <Time>2022-07-10T07:52:05.000Z</Time>
            <Position>
              <LatitudeDegrees>42.76733147911727428436279296875</LatitudeDegrees>
              <LongitudeDegrees>-0.17236470244824886322021484375</LongitudeDegrees>
            </Position>
            <AltitudeMeters>2062.60009765625</AltitudeMeters>
            <DistanceMeters>29382.351278531</DistanceMeters>
          </Trackpoint>
          <Trackpoint>
            <Time>2022-07-10T07:52:11.000Z</Time>
            <Position>
              <LatitudeDegrees>42.76728403754532337188720703125</LatitudeDegrees>
              <LongitudeDegrees>-0.17241097055375576019287109375</LongitudeDegrees>
            </Position>
            <AltitudeMeters>2062.39990234375</AltitudeMeters>
            <DistanceMeters>29388.845156956</DistanceMeters>
          </Trackpoint>
          <Trackpoint>
            <Time>2022-07-10T07:52:14.000Z</Time>
            <Position>
              <LatitudeDegrees>42.76727196760475635528564453125</LatitudeDegrees>
              <LongitudeDegrees>-0.17244416289031505584716796875</LongitudeDegrees>
            </Position>
            <AltitudeMeters>2062.199951171875</AltitudeMeters>
            <DistanceMeters>29391.871127464</DistanceMeters>
          </Trackpoint>
          <Trackpoint>
            <Time>2022-07-10T07:52:17.000Z</Time>
            <Position>
              <LatitudeDegrees>42.76726542972028255462646484375</LatitudeDegrees>
              <LongitudeDegrees>-0.1724947057664394378662109375</LongitudeDegrees>
            </Position>
            <AltitudeMeters>2062.199951171875</AltitudeMeters>
            <DistanceMeters>29396.065241066</DistanceMeters>
          </Trackpoint>
          <Trackpoint>
            <Time>2022-07-10T07:52:18.000Z</Time>
            <Position>
              <LatitudeDegrees>42.76726392097771167755126953125</LatitudeDegrees>
              <LongitudeDegrees>-0.17250937409698963165283203125</LongitudeDegrees>
            </Position>
            <AltitudeMeters>2062.199951171875</AltitudeMeters>
            <DistanceMeters>29397.274733681</DistanceMeters>
          </Trackpoint>
          <Trackpoint>
            <Time>2022-07-10T07:52:20.000Z</Time>
            <Position>
              <LatitudeDegrees>42.76726475916802883148193359375</LatitudeDegrees>
              <LongitudeDegrees>-0.17253099940717220306396484375</LongitudeDegrees>
            </Position>
            <AltitudeMeters>2062</AltitudeMeters>
            <DistanceMeters>29399.044885235</DistanceMeters>
          </Trackpoint>
          <Trackpoint>
            <Time>2022-07-10T07:52:24.000Z</Time>
            <Position>
              <LatitudeDegrees>42.76725587435066699981689453125</LatitudeDegrees>
              <LongitudeDegrees>-0.172558240592479705810546875</LongitudeDegrees>
            </Position>
            <AltitudeMeters>2062</AltitudeMeters>
            <DistanceMeters>29401.482464013</DistanceMeters>
          </Trackpoint>
          <Trackpoint>
            <Time>2022-07-10T07:52:30.000Z</Time>
            <Position>
              <LatitudeDegrees>42.7672623284161090850830078125</LatitudeDegrees>
              <LongitudeDegrees>-0.1725614257156848907470703125</LongitudeDegrees>
            </Position>
            <AltitudeMeters>2062.199951171875</AltitudeMeters>
            <DistanceMeters>29402.25446469</DistanceMeters>
          </Trackpoint>
          <Trackpoint>
            <Time>2022-07-10T07:52:36.000Z</Time>
            <Position>
              <LatitudeDegrees>42.7672985382378101348876953125</LatitudeDegrees>
              <LongitudeDegrees>-0.17254256643354892730712890625</LongitudeDegrees>
            </Position>
            <AltitudeMeters>2061.60009765625</AltitudeMeters>
            <DistanceMeters>29406.569556535</DistanceMeters>
          </Trackpoint>
          <Trackpoint>
            <Time>2022-07-10T07:52:42.000Z</Time>
            <Position>
              <LatitudeDegrees>42.76731722988188266754150390625</LatitudeDegrees>
              <LongitudeDegrees>-0.1725171692669391632080078125</LongitudeDegrees>
            </Position>
            <AltitudeMeters>2061.800048828125</AltitudeMeters>
            <DistanceMeters>29409.507711242</DistanceMeters>
          </Trackpoint>
          <Trackpoint>
            <Time>2022-07-10T07:52:43.000Z</Time>
            <Position>
              <LatitudeDegrees>42.76731505058705806732177734375</LatitudeDegrees>
              <LongitudeDegrees>-0.1725185103714466094970703125</LongitudeDegrees>
            </Position>
            <AltitudeMeters>2061.800048828125</AltitudeMeters>
            <DistanceMeters>29409.776487378</DistanceMeters>
          </Trackpoint>
          <Trackpoint>
            <Time>2022-07-10T07:52:49.000Z</Time>
            <Position>
              <LatitudeDegrees>42.76728940196335315704345703125</LatitudeDegrees>
              <LongitudeDegrees>-0.1725252158939838409423828125</LongitudeDegrees>
            </Position>
            <AltitudeMeters>2061.39990234375</AltitudeMeters>
            <DistanceMeters>29412.683745803</DistanceMeters>
          </Trackpoint>
          <Trackpoint>
            <Time>2022-07-10T07:52:55.000Z</Time>
            <Position>
              <LatitudeDegrees>42.767304070293903350830078125</LatitudeDegrees>
              <LongitudeDegrees>-0.1725154928863048553466796875</LongitudeDegrees>
            </Position>
            <AltitudeMeters>2061.60009765625</AltitudeMeters>
            <DistanceMeters>29414.501713894</DistanceMeters>
          </Trackpoint>
          <Trackpoint>
            <Time>2022-07-10T07:53:00.000Z</Time>
            <Position>
              <LatitudeDegrees>42.7673069201409816741943359375</LatitudeDegrees>
              <LongitudeDegrees>-0.17251373268663883209228515625</LongitudeDegrees>
            </Position>
            <AltitudeMeters>2061.800048828125</AltitudeMeters>
            <DistanceMeters>29414.844337585</DistanceMeters>
          </Trackpoint>
          <Trackpoint>
            <Time>2022-07-10T07:53:06.000Z</Time>
            <Position>
              <LatitudeDegrees>42.76731488294899463653564453125</LatitudeDegrees>
              <LongitudeDegrees>-0.17249998636543750762939453125</LongitudeDegrees>
            </Position>
            <AltitudeMeters>2062</AltitudeMeters>
            <DistanceMeters>29416.276059399</DistanceMeters>
          </Trackpoint>
          <Trackpoint>
            <Time>2022-07-10T07:53:12.000Z</Time>
            <Position>
              <LatitudeDegrees>42.76730683632194995880126953125</LatitudeDegrees>
              <LongitudeDegrees>-0.17250853590667247772216796875</LongitudeDegrees>
            </Position>
            <AltitudeMeters>2061.39990234375</AltitudeMeters>
            <DistanceMeters>29417.416379972</DistanceMeters>
          </Trackpoint>
          <Trackpoint>
            <Time>2022-07-10T07:53:18.000Z</Time>
            <Position>
              <LatitudeDegrees>42.76728219352662563323974609375</LatitudeDegrees>
              <LongitudeDegrees>-0.17252303659915924072265625</LongitudeDegrees>
            </Position>
            <AltitudeMeters>2061.199951171875</AltitudeMeters>
            <DistanceMeters>29420.403304063</DistanceMeters>
          </Trackpoint>
          <Trackpoint>
            <Time>2022-07-10T07:53:22.000Z</Time>
            <Position>
              <LatitudeDegrees>42.7672629989683628082275390625</LatitudeDegrees>
              <LongitudeDegrees>-0.17256637103855609893798828125</LongitudeDegrees>
            </Position>
            <AltitudeMeters>2061.60009765625</AltitudeMeters>
            <DistanceMeters>29424.538877153</DistanceMeters>
          </Trackpoint>
          <Trackpoint>
            <Time>2022-07-10T07:53:24.000Z</Time>
            <Position>
              <LatitudeDegrees>42.76725746691226959228515625</LatitudeDegrees>
              <LongitudeDegrees>-0.17258179374039173126220703125</LongitudeDegrees>
            </Position>
            <AltitudeMeters>2061.800048828125</AltitudeMeters>
            <DistanceMeters>29425.941929777</DistanceMeters>
          </Trackpoint>
          <Trackpoint>
            <Time>2022-07-10T07:53:26.000Z</Time>
            <Position>
              <LatitudeDegrees>42.76725688017904758453369140625</LatitudeDegrees>
              <LongitudeDegrees>-0.1725899241864681243896484375</LongitudeDegrees>
            </Position>
            <AltitudeMeters>2062</AltitudeMeters>
            <DistanceMeters>29426.613870118</DistanceMeters>
          </Trackpoint>
          <Trackpoint>
            <Time>2022-07-10T07:53:28.000Z</Time>
            <Position>
              <LatitudeDegrees>42.76724363677203655242919921875</LatitudeDegrees>
              <LongitudeDegrees>-0.1726063527166843414306640625</LongitudeDegrees>
            </Position>
            <AltitudeMeters>2062</AltitudeMeters>
            <DistanceMeters>29428.607167295</DistanceMeters>
          </Trackpoint>
          <Trackpoint>
            <Time>2022-07-10T07:53:29.000Z</Time>
            <Position>
              <LatitudeDegrees>42.76723307557404041290283203125</LatitudeDegrees>
              <LongitudeDegrees>-0.1726194284856319427490234375</LongitudeDegrees>
            </Position>
            <AltitudeMeters>2062.199951171875</AltitudeMeters>
            <DistanceMeters>29430.197268362</DistanceMeters>
          </Trackpoint>
          <Trackpoint>
            <Time>2022-07-10T07:53:33.000Z</Time>
            <Position>
              <LatitudeDegrees>42.7671937644481658935546875</LatitudeDegrees>
              <LongitudeDegrees>-0.172670893371105194091796875</LongitudeDegrees>
            </Position>
            <AltitudeMeters>2062.39990234375</AltitudeMeters>
            <DistanceMeters>29436.265600237</DistanceMeters>
          </Trackpoint>
          <Trackpoint>
            <Time>2022-07-10T07:53:36.000Z</Time>
            <Position>
              <LatitudeDegrees>42.7671785093843936920166015625</LatitudeDegrees>
              <LongitudeDegrees>-0.17269997857511043548583984375</LongitudeDegrees>
            </Position>
            <AltitudeMeters>2063</AltitudeMeters>
            <DistanceMeters>29439.188347629</DistanceMeters>
          </Trackpoint>
          <Trackpoint>
            <Time>2022-07-10T07:53:39.000Z</Time>
            <Position>
              <LatitudeDegrees>42.76716099120676517486572265625</LatitudeDegrees>
              <LongitudeDegrees>-0.17273350618779659271240234375</LongitudeDegrees>
            </Position>
            <AltitudeMeters>2063.199951171875</AltitudeMeters>
            <DistanceMeters>29442.550736022</DistanceMeters>
          </Trackpoint>
          <Trackpoint>
            <Time>2022-07-10T07:53:43.000Z</Time>
            <Position>
              <LatitudeDegrees>42.767144478857517242431640625</LatitudeDegrees>
              <LongitudeDegrees>-0.17277181148529052734375</LongitudeDegrees>
            </Position>
            <AltitudeMeters>2063.39990234375</AltitudeMeters>
            <DistanceMeters>29446.180457985</DistanceMeters>
          </Trackpoint>
          <Trackpoint>
            <Time>2022-07-10T07:53:46.000Z</Time>
            <Position>
              <LatitudeDegrees>42.767126373946666717529296875</LatitudeDegrees>
              <LongitudeDegrees>-0.17280223779380321502685546875</LongitudeDegrees>
            </Position>
            <AltitudeMeters>2063.39990234375</AltitudeMeters>
            <DistanceMeters>29449.380474655</DistanceMeters>
          </Trackpoint>
          <Trackpoint>
            <Time>2022-07-10T07:53:48.000Z</Time>
            <Position>
              <LatitudeDegrees>42.76712645776569843292236328125</LatitudeDegrees>
              <LongitudeDegrees>-0.1728182472288608551025390625</LongitudeDegrees>
            </Position>
            <AltitudeMeters>2063.800048828125</AltitudeMeters>
            <DistanceMeters>29450.690327519</DistanceMeters>
          </Trackpoint>
          <Trackpoint>
            <Time>2022-07-10T07:53:49.000Z</Time>
            <Position>
              <LatitudeDegrees>42.7671298943459987640380859375</LatitudeDegrees>
              <LongitudeDegrees>-0.17283149063587188720703125</LongitudeDegrees>
            </Position>
            <AltitudeMeters>2064</AltitudeMeters>
            <DistanceMeters>29451.8424652</DistanceMeters>
          </Trackpoint>
          <Trackpoint>
            <Time>2022-07-10T07:53:50.000Z</Time>
            <Position>
              <LatitudeDegrees>42.76712830178439617156982421875</LatitudeDegrees>
              <LongitudeDegrees>-0.17283895052969455718994140625</LongitudeDegrees>
            </Position>
            <AltitudeMeters>2064.199951171875</AltitudeMeters>
            <DistanceMeters>29452.479923779</DistanceMeters>
          </Trackpoint>
          <Trackpoint>
            <Time>2022-07-10T07:53:55.000Z</Time>
            <Position>
              <LatitudeDegrees>42.7671235240995883941650390625</LatitudeDegrees>
              <LongitudeDegrees>-0.1728812791407108306884765625</LongitudeDegrees>
            </Position>
            <AltitudeMeters>2064.39990234375</AltitudeMeters>
            <DistanceMeters>29455.979178508</DistanceMeters>
          </Trackpoint>
          <Trackpoint>
            <Time>2022-07-10T07:53:57.000Z</Time>
            <Position>
              <LatitudeDegrees>42.767118997871875762939453125</LatitudeDegrees>
              <LongitudeDegrees>-0.1729000546038150787353515625</LongitudeDegrees>
            </Position>
            <AltitudeMeters>2064.60009765625</AltitudeMeters>
            <DistanceMeters>29457.594632653</DistanceMeters>
          </Trackpoint>
          <Trackpoint>
            <Time>2022-07-10T07:53:59.000Z</Time>
            <Position>
              <LatitudeDegrees>42.76711103506386280059814453125</LatitudeDegrees>
              <LongitudeDegrees>-0.17292159609496593475341796875</LongitudeDegrees>
            </Position>
            <AltitudeMeters>2065</AltitudeMeters>
            <DistanceMeters>29459.565148542</DistanceMeters>
          </Trackpoint>
          <Trackpoint>
            <Time>2022-07-10T07:54:02.000Z</Time>
            <Position>
              <LatitudeDegrees>42.7671040780842304229736328125</LatitudeDegrees>
              <LongitudeDegrees>-0.17294540069997310638427734375</LongitudeDegrees>
            </Position>
            <AltitudeMeters>2066</AltitudeMeters>
            <DistanceMeters>29461.660051201</DistanceMeters>
          </Trackpoint>
          <Trackpoint>
            <Time>2022-07-10T07:54:04.000Z</Time>
            <Position>
              <LatitudeDegrees>42.76709653437137603759765625</LatitudeDegrees>
              <LongitudeDegrees>-0.1729748211801052093505859375</LongitudeDegrees>
            </Position>
            <AltitudeMeters>2066.39990234375</AltitudeMeters>
            <DistanceMeters>29464.206341618</DistanceMeters>
          </Trackpoint>
          <Trackpoint>
            <Time>2022-07-10T07:54:07.000Z</Time>
            <Position>
              <LatitudeDegrees>42.76708974502980709075927734375</LatitudeDegrees>
              <LongitudeDegrees>-0.1730267889797687530517578125</LongitudeDegrees>
            </Position>
            <AltitudeMeters>2066.39990234375</AltitudeMeters>
            <DistanceMeters>29468.520386999</DistanceMeters>
          </Trackpoint>
          <Trackpoint>
            <Time>2022-07-10T07:54:13.000Z</Time>
            <Position>
              <LatitudeDegrees>42.767040543258190155029296875</LatitudeDegrees>
              <LongitudeDegrees>-0.17306618392467498779296875</LongitudeDegrees>
            </Position>
            <AltitudeMeters>2066</AltitudeMeters>
            <DistanceMeters>29474.872267158</DistanceMeters>
          </Trackpoint>
          <Trackpoint>
            <Time>2022-07-10T07:54:14.000Z</Time>
            <Position>
              <LatitudeDegrees>42.767031490802764892578125</LatitudeDegrees>
              <LongitudeDegrees>-0.173064507544040679931640625</LongitudeDegrees>
            </Position>
            <AltitudeMeters>2066</AltitudeMeters>
            <DistanceMeters>29475.891315141</DistanceMeters>
          </Trackpoint>
          <Trackpoint>
            <Time>2022-07-10T07:54:15.000Z</Time>
            <Position>
              <LatitudeDegrees>42.767028473317623138427734375</LatitudeDegrees>
              <LongitudeDegrees>-0.17306643538177013397216796875</LongitudeDegrees>
            </Position>
            <AltitudeMeters>2065.800048828125</AltitudeMeters>
            <DistanceMeters>29476.271421998</DistanceMeters>
          </Trackpoint>
          <Trackpoint>
            <Time>2022-07-10T07:54:18.000Z</Time>
            <Position>
              <LatitudeDegrees>42.76702604256570339202880859375</LatitudeDegrees>
              <LongitudeDegrees>-0.17307431437075138092041015625</LongitudeDegrees>
            </Position>
            <AltitudeMeters>2065.60009765625</AltitudeMeters>
            <DistanceMeters>29476.969722885</DistanceMeters>
          </Trackpoint>
          <Trackpoint>
            <Time>2022-07-10T07:54:20.000Z</Time>
            <Position>
              <LatitudeDegrees>42.7670202590525150299072265625</LatitudeDegrees>
              <LongitudeDegrees>-0.173077248036861419677734375</LongitudeDegrees>
            </Position>
            <AltitudeMeters>2065.199951171875</AltitudeMeters>
            <DistanceMeters>29477.654970267</DistanceMeters>
          </Trackpoint>
          <Trackpoint>
            <Time>2022-07-10T07:54:21.000Z</Time>
            <Position>
              <LatitudeDegrees>42.76701916940510272979736328125</LatitudeDegrees>
              <LongitudeDegrees>-0.17307691276073455810546875</LongitudeDegrees>
            </Position>
            <AltitudeMeters>2065.199951171875</AltitudeMeters>
            <DistanceMeters>29477.789358335</DistanceMeters>
          </Trackpoint>
          <Trackpoint>
            <Time>2022-07-10T07:54:27.000Z</Time>
            <Position>
              <LatitudeDegrees>42.76702352799475193023681640625</LatitudeDegrees>
              <LongitudeDegrees>-0.17308839596807956695556640625</LongitudeDegrees>
            </Position>
            <AltitudeMeters>2064.800048828125</AltitudeMeters>
            <DistanceMeters>29478.847531043</DistanceMeters>
          </Trackpoint>
          <Trackpoint>
            <Time>2022-07-10T07:54:28.000Z</Time>
            <Position>
              <LatitudeDegrees>42.76702218689024448394775390625</LatitudeDegrees>
              <LongitudeDegrees>-0.173083953559398651123046875</LongitudeDegrees>
            </Position>
            <AltitudeMeters>2064.60009765625</AltitudeMeters>
            <DistanceMeters>29479.250695248</DistanceMeters>
          </Trackpoint>
          <Trackpoint>
            <Time>2022-07-10T07:54:30.000Z</Time>
            <Position>
              <LatitudeDegrees>42.7670175768435001373291015625</LatitudeDegrees>
              <LongitudeDegrees>-0.17307917587459087371826171875</LongitudeDegrees>
            </Position>
            <AltitudeMeters>2064.60009765625</AltitudeMeters>
            <DistanceMeters>29479.888153827</DistanceMeters>
          </Trackpoint>
          <Trackpoint>
            <Time>2022-07-10T07:54:35.000Z</Time>
            <Position>
              <LatitudeDegrees>42.7670122124254703521728515625</LatitudeDegrees>
              <LongitudeDegrees>-0.1730686984956264495849609375</LongitudeDegrees>
            </Position>
            <AltitudeMeters>2064.60009765625</AltitudeMeters>
            <DistanceMeters>29480.929119327</DistanceMeters>
          </Trackpoint>
          <Trackpoint>
            <Time>2022-07-10T07:54:39.000Z</Time>
            <Position>
              <LatitudeDegrees>42.76702344417572021484375</LatitudeDegrees>
              <LongitudeDegrees>-0.1730613224208354949951171875</LongitudeDegrees>
            </Position>
            <AltitudeMeters>2064.39990234375</AltitudeMeters>
            <DistanceMeters>29482.315988565</DistanceMeters>
          </Trackpoint>
          <Trackpoint>
            <Time>2022-07-10T07:54:41.000Z</Time>
            <Position>
              <LatitudeDegrees>42.76702872477471828460693359375</LatitudeDegrees>
              <LongitudeDegrees>-0.17306526191532611846923828125</LongitudeDegrees>
            </Position>
            <AltitudeMeters>2064.199951171875</AltitudeMeters>
            <DistanceMeters>29482.981175566</DistanceMeters>
          </Trackpoint>
          <Trackpoint>
            <Time>2022-07-10T07:54:45.000Z</Time>
            <Position>
              <LatitudeDegrees>42.767043896019458770751953125</LatitudeDegrees>
              <LongitudeDegrees>-0.173092000186443328857421875</LongitudeDegrees>
            </Position>
            <AltitudeMeters>2063.800048828125</AltitudeMeters>
            <DistanceMeters>29485.741861082</DistanceMeters>
          </Trackpoint>
          <Trackpoint>
            <Time>2022-07-10T07:54:49.000Z</Time>
            <Position>
              <LatitudeDegrees>42.76706560514867305755615234375</LatitudeDegrees>
              <LongitudeDegrees>-0.17314438708126544952392578125</LongitudeDegrees>
            </Position>
            <AltitudeMeters>2063.800048828125</AltitudeMeters>
            <DistanceMeters>29490.657599537</DistanceMeters>
          </Trackpoint>
          <Trackpoint>
            <Time>2022-07-10T07:54:50.000Z</Time>
            <Position>
              <LatitudeDegrees>42.76706996373832225799560546875</LatitudeDegrees>
              <LongitudeDegrees>-0.17315360717475414276123046875</LongitudeDegrees>
            </Position>
            <AltitudeMeters>2063.800048828125</AltitudeMeters>
            <DistanceMeters>29491.554079768</DistanceMeters>
          </Trackpoint>
          <Trackpoint>
            <Time>2022-07-10T07:54:56.000Z</Time>
            <Position>
              <LatitudeDegrees>42.7670527808368206024169921875</LatitudeDegrees>
              <LongitudeDegrees>-0.17319954000413417816162109375</LongitudeDegrees>
            </Position>
            <AltitudeMeters>2065</AltitudeMeters>
            <DistanceMeters>29495.767526135</DistanceMeters>
          </Trackpoint>
          <Trackpoint>
            <Time>2022-07-10T07:54:57.000Z</Time>
            <Position>
              <LatitudeDegrees>42.76704557240009307861328125</LatitudeDegrees>
              <LongitudeDegrees>-0.17320423386991024017333984375</LongitudeDegrees>
            </Position>
            <AltitudeMeters>2065.39990234375</AltitudeMeters>
            <DistanceMeters>29496.658955732</DistanceMeters>
          </Trackpoint>
          <Trackpoint>
            <Time>2022-07-10T07:55:03.000Z</Time>
            <Position>
              <LatitudeDegrees>42.76701145805418491363525390625</LatitudeDegrees>
              <LongitudeDegrees>-0.17324832268059253692626953125</LongitudeDegrees>
            </Position>
            <AltitudeMeters>2065.800048828125</AltitudeMeters>
            <DistanceMeters>29501.893194161</DistanceMeters>
          </Trackpoint>
          <Trackpoint>
            <Time>2022-07-10T07:55:07.000Z</Time>
            <Position>
              <LatitudeDegrees>42.766964100301265716552734375</LatitudeDegrees>
              <LongitudeDegrees>-0.17326877452433109283447265625</LongitudeDegrees>
            </Position>
            <AltitudeMeters>2065.800048828125</AltitudeMeters>
            <DistanceMeters>29507.422736533</DistanceMeters>
          </Trackpoint>
          <Trackpoint>
            <Time>2022-07-10T07:55:09.000Z</Time>
            <Position>
              <LatitudeDegrees>42.7669470012187957763671875</LatitudeDegrees>
              <LongitudeDegrees>-0.17328050918877124786376953125</LongitudeDegrees>
            </Position>
            <AltitudeMeters>2066</AltitudeMeters>
            <DistanceMeters>29509.551843946</DistanceMeters>
          </Trackpoint>
          <Trackpoint>
            <Time>2022-07-10T07:55:10.000Z</Time>
            <Position>
              <LatitudeDegrees>42.76694188825786113739013671875</LatitudeDegrees>
              <LongitudeDegrees>-0.17328478395938873291015625</LongitudeDegrees>
            </Position>
            <AltitudeMeters>2066</AltitudeMeters>
            <DistanceMeters>29510.217030946</DistanceMeters>
          </Trackpoint>
          <Trackpoint>
            <Time>2022-07-10T07:55:16.000Z</Time>
            <Position>
              <LatitudeDegrees>42.76690953411161899566650390625</LatitudeDegrees>
              <LongitudeDegrees>-0.1732919923961162567138671875</LongitudeDegrees>
            </Position>
            <AltitudeMeters>2066</AltitudeMeters>
            <DistanceMeters>29513.865363809</DistanceMeters>
          </Trackpoint>
          <Trackpoint>
            <Time>2022-07-10T07:55:17.000Z</Time>
            <Position>
              <LatitudeDegrees>42.7669092826545238494873046875</LatitudeDegrees>
              <LongitudeDegrees>-0.173300206661224365234375</LongitudeDegrees>
            </Position>
            <AltitudeMeters>2066</AltitudeMeters>
            <DistanceMeters>29514.53055081</DistanceMeters>
          </Trackpoint>
          <Trackpoint>
            <Time>2022-07-10T07:55:20.000Z</Time>
            <Position>
              <LatitudeDegrees>42.7669102884829044342041015625</LatitudeDegrees>
              <LongitudeDegrees>-0.1733369193971157073974609375</LongitudeDegrees>
            </Position>
            <AltitudeMeters>2066.199951171875</AltitudeMeters>
            <DistanceMeters>29517.532552857</DistanceMeters>
          </Trackpoint>
          <Trackpoint>
            <Time>2022-07-10T07:55:22.000Z</Time>
            <Position>
              <LatitudeDegrees>42.7669049240648746490478515625</LatitudeDegrees>
              <LongitudeDegrees>-0.1733553595840930938720703125</LongitudeDegrees>
            </Position>
            <AltitudeMeters>2066.39990234375</AltitudeMeters>
            <DistanceMeters>29519.150799491</DistanceMeters>
          </Trackpoint>
          <Trackpoint>
            <Time>2022-07-10T07:55:23.000Z</Time>
            <Position>
              <LatitudeDegrees>42.7669055946171283721923828125</LatitudeDegrees>
              <LongitudeDegrees>-0.17336164601147174835205078125</LongitudeDegrees>
            </Position>
            <AltitudeMeters>2066.60009765625</AltitudeMeters>
            <DistanceMeters>29519.662534009</DistanceMeters>
          </Trackpoint>
          <Trackpoint>
            <Time>2022-07-10T07:55:28.000Z</Time>
            <Position>
              <LatitudeDegrees>42.7669089473783969879150390625</LatitudeDegrees>
              <LongitudeDegrees>-0.17335988581180572509765625</LongitudeDegrees>
            </Position>
            <AltitudeMeters>2066.800048828125</AltitudeMeters>
            <DistanceMeters>29520.065698214</DistanceMeters>
          </Trackpoint>
          <Trackpoint>
            <Time>2022-07-10T07:55:29.000Z</Time>
            <Position>
              <LatitudeDegrees>42.7669099532067775726318359375</LatitudeDegrees>
              <LongitudeDegrees>-0.17336499877274036407470703125</LongitudeDegrees>
            </Position>
            <AltitudeMeters>2066.800048828125</AltitudeMeters>
            <DistanceMeters>29520.501165325</DistanceMeters>
          </Trackpoint>
          <Trackpoint>
            <Time>2022-07-10T07:55:30.000Z</Time>
            <Position>
              <LatitudeDegrees>42.76690852828323841094970703125</LatitudeDegrees>
              <LongitudeDegrees>-0.17337036319077014923095703125</LongitudeDegrees>
            </Position>
            <AltitudeMeters>2066.800048828125</AltitudeMeters>
            <DistanceMeters>29520.966699249</DistanceMeters>
          </Trackpoint>
          <Trackpoint>
            <Time>2022-07-10T07:55:31.000Z</Time>
            <Position>
              <LatitudeDegrees>42.76690366677939891815185546875</LatitudeDegrees>
              <LongitudeDegrees>-0.173374973237514495849609375</LongitudeDegrees>
            </Position>
            <AltitudeMeters>2067</AltitudeMeters>
            <DistanceMeters>29521.625063639</DistanceMeters>
          </Trackpoint>
          <Trackpoint>
            <Time>2022-07-10T07:55:32.000Z</Time>
            <Position>
              <LatitudeDegrees>42.7668985538184642791748046875</LatitudeDegrees>
              <LongitudeDegrees>-0.17338159494102001190185546875</LongitudeDegrees>
            </Position>
            <AltitudeMeters>2067.39990234375</AltitudeMeters>
            <DistanceMeters>29522.402890819</DistanceMeters>
          </Trackpoint>
          <Trackpoint>
            <Time>2022-07-10T07:55:36.000Z</Time>
            <Position>
              <LatitudeDegrees>42.7668955363333225250244140625</LatitudeDegrees>
              <LongitudeDegrees>-0.1734113506972789764404296875</LongitudeDegrees>
            </Position>
            <AltitudeMeters>2068</AltitudeMeters>
            <DistanceMeters>29524.855242937</DistanceMeters>
          </Trackpoint>
          <Trackpoint>
            <Time>2022-07-10T07:55:42.000Z</Time>
            <Position>
              <LatitudeDegrees>42.76686075143516063690185546875</LatitudeDegrees>
              <LongitudeDegrees>-0.17343088053166866302490234375</LongitudeDegrees>
            </Position>
            <AltitudeMeters>2068.39990234375</AltitudeMeters>
            <DistanceMeters>29529.041814133</DistanceMeters>
          </Trackpoint>
          <Trackpoint>
            <Time>2022-07-10T07:55:46.000Z</Time>
            <Position>
              <LatitudeDegrees>42.76685304008424282073974609375</LatitudeDegrees>
              <LongitudeDegrees>-0.17346407286822795867919921875</LongitudeDegrees>
            </Position>
            <AltitudeMeters>2069</AltitudeMeters>
            <DistanceMeters>29531.886273395</DistanceMeters>
          </Trackpoint>
          <Trackpoint>
            <Time>2022-07-10T07:55:48.000Z</Time>
            <Position>
              <LatitudeDegrees>42.76684331707656383514404296875</LatitudeDegrees>
              <LongitudeDegrees>-0.17347656190395355224609375</LongitudeDegrees>
            </Position>
            <AltitudeMeters>2069.39990234375</AltitudeMeters>
            <DistanceMeters>29533.376709172</DistanceMeters>
          </Trackpoint>
          <Trackpoint>
            <Time>2022-07-10T07:55:49.000Z</Time>
            <Position>
              <LatitudeDegrees>42.7668358571827411651611328125</LatitudeDegrees>
              <LongitudeDegrees>-0.17348594963550567626953125</LongitudeDegrees>
            </Position>
            <AltitudeMeters>2069.800048828125</AltitudeMeters>
            <DistanceMeters>29534.509083163</DistanceMeters>
          </Trackpoint>
          <Trackpoint>
            <Time>2022-07-10T07:55:51.000Z</Time>
            <Position>
              <LatitudeDegrees>42.76681817136704921722412109375</LatitudeDegrees>
              <LongitudeDegrees>-0.17350916750729084014892578125</LongitudeDegrees>
            </Position>
            <AltitudeMeters>2070</AltitudeMeters>
            <DistanceMeters>29537.243475837</DistanceMeters>
          </Trackpoint>
          <Trackpoint>
            <Time>2022-07-10T07:55:53.000Z</Time>
            <Position>
              <LatitudeDegrees>42.7668063528835773468017578125</LatitudeDegrees>
              <LongitudeDegrees>-0.17353347502648830413818359375</LongitudeDegrees>
            </Position>
            <AltitudeMeters>2070</AltitudeMeters>
            <DistanceMeters>29539.624838473</DistanceMeters>
          </Trackpoint>
          <Trackpoint>
            <Time>2022-07-10T07:55:55.000Z</Time>
            <Position>
              <LatitudeDegrees>42.76680828072130680084228515625</LatitudeDegrees>
              <LongitudeDegrees>-0.17354805953800678253173828125</LongitudeDegrees>
            </Position>
            <AltitudeMeters>2070.199951171875</AltitudeMeters>
            <DistanceMeters>29540.834331087</DistanceMeters>
          </Trackpoint>
          <Trackpoint>
            <Time>2022-07-10T07:55:58.000Z</Time>
            <Position>
              <LatitudeDegrees>42.76681431569159030914306640625</LatitudeDegrees>
              <LongitudeDegrees>-0.173535235226154327392578125</LongitudeDegrees>
            </Position>
            <AltitudeMeters>2070</AltitudeMeters>
            <DistanceMeters>29542.080594763</DistanceMeters>
          </Trackpoint>
          <Trackpoint>
            <Time>2022-07-10T07:56:01.000Z</Time>
            <Position>
              <LatitudeDegrees>42.766836024820804595947265625</LatitudeDegrees>
              <LongitudeDegrees>-0.17349131405353546142578125</LongitudeDegrees>
            </Position>
            <AltitudeMeters>2070</AltitudeMeters>
            <DistanceMeters>29546.406137317</DistanceMeters>
          </Trackpoint>
          <Trackpoint>
            <Time>2022-07-10T07:56:04.000Z</Time>
            <Position>
              <LatitudeDegrees>42.76684977114200592041015625</LatitudeDegrees>
              <LongitudeDegrees>-0.17348955385386943817138671875</LongitudeDegrees>
            </Position>
            <AltitudeMeters>2070</AltitudeMeters>
            <DistanceMeters>29547.941340871</DistanceMeters>
          </Trackpoint>
          <Trackpoint>
            <Time>2022-07-10T07:56:09.000Z</Time>
            <Position>
              <LatitudeDegrees>42.7668249607086181640625</LatitudeDegrees>
              <LongitudeDegrees>-0.17351402901113033294677734375</LongitudeDegrees>
            </Position>
            <AltitudeMeters>2070</AltitudeMeters>
            <DistanceMeters>29551.35172772</DistanceMeters>
          </Trackpoint>
          <Trackpoint>
            <Time>2022-07-10T07:56:11.000Z</Time>
            <Position>
              <LatitudeDegrees>42.7668268047273159027099609375</LatitudeDegrees>
              <LongitudeDegrees>-0.17353364266455173492431640625</LongitudeDegrees>
            </Position>
            <AltitudeMeters>2069.800048828125</AltitudeMeters>
            <DistanceMeters>29552.969974354</DistanceMeters>
          </Trackpoint>
          <Trackpoint>
            <Time>2022-07-10T07:56:15.000Z</Time>
            <Position>
              <LatitudeDegrees>42.7668143995106220245361328125</LatitudeDegrees>
              <LongitudeDegrees>-0.17358074896037578582763671875</LongitudeDegrees>
            </Position>
            <AltitudeMeters>2069.800048828125</AltitudeMeters>
            <DistanceMeters>29557.059436614</DistanceMeters>
          </Trackpoint>
          <Trackpoint>
            <Time>2022-07-10T07:56:16.000Z</Time>
            <Position>
              <LatitudeDegrees>42.7668090350925922393798828125</LatitudeDegrees>
              <LongitudeDegrees>-0.1735944114625453948974609375</LongitudeDegrees>
            </Position>
            <AltitudeMeters>2069.800048828125</AltitudeMeters>
            <DistanceMeters>29558.327251114</DistanceMeters>
          </Trackpoint>
          <Trackpoint>
            <Time>2022-07-10T07:56:17.000Z</Time>
            <Position>
              <LatitudeDegrees>42.7668016590178012847900390625</LatitudeDegrees>
              <LongitudeDegrees>-0.173604302108287811279296875</LongitudeDegrees>
            </Position>
            <AltitudeMeters>2070</AltitudeMeters>
            <DistanceMeters>29559.479388796</DistanceMeters>
          </Trackpoint>
          <Trackpoint>
            <Time>2022-07-10T07:56:18.000Z</Time>
            <Position>
              <LatitudeDegrees>42.76679386384785175323486328125</LatitudeDegrees>
              <LongitudeDegrees>-0.1736168749630451202392578125</LongitudeDegrees>
            </Position>
            <AltitudeMeters>2070</AltitudeMeters>
            <DistanceMeters>29560.826624991</DistanceMeters>
          </Trackpoint>
          <Trackpoint>
            <Time>2022-07-10T07:56:20.000Z</Time>
            <Position>
              <LatitudeDegrees>42.7667778544127941131591796875</LatitudeDegrees>
              <LongitudeDegrees>-0.173630453646183013916015625</LongitudeDegrees>
            </Position>
            <AltitudeMeters>2070.39990234375</AltitudeMeters>
            <DistanceMeters>29562.925833724</DistanceMeters>
          </Trackpoint>
          <Trackpoint>
            <Time>2022-07-10T07:56:21.000Z</Time>
            <Position>
              <LatitudeDegrees>42.76677374728024005889892578125</LatitudeDegrees>
              <LongitudeDegrees>-0.17363925464451313018798828125</LongitudeDegrees>
            </Position>
            <AltitudeMeters>2070.60009765625</AltitudeMeters>
            <DistanceMeters>29563.775778496</DistanceMeters>
          </Trackpoint>
          <Trackpoint>
            <Time>2022-07-10T07:56:22.000Z</Time>
            <Position>
              <LatitudeDegrees>42.76676922105252742767333984375</LatitudeDegrees>
              <LongitudeDegrees>-0.1736487261950969696044921875</LongitudeDegrees>
            </Position>
            <AltitudeMeters>2071</AltitudeMeters>
            <DistanceMeters>29564.697096674</DistanceMeters>
          </Trackpoint>
          <Trackpoint>
            <Time>2022-07-10T07:56:23.000Z</Time>
            <Position>
              <LatitudeDegrees>42.76676117442548274993896484375</LatitudeDegrees>
              <LongitudeDegrees>-0.1736564375460147857666015625</LongitudeDegrees>
            </Position>
            <AltitudeMeters>2071.199951171875</AltitudeMeters>
            <DistanceMeters>29565.788870502</DistanceMeters>
          </Trackpoint>
          <Trackpoint>
            <Time>2022-07-10T07:56:26.000Z</Time>
            <Position>
              <LatitudeDegrees>42.76673368178308010101318359375</LatitudeDegrees>
              <LongitudeDegrees>-0.1736792363226413726806640625</LongitudeDegrees>
            </Position>
            <AltitudeMeters>2071.800048828125</AltitudeMeters>
            <DistanceMeters>29569.371012128</DistanceMeters>
          </Trackpoint>
          <Trackpoint>
            <Time>2022-07-10T07:56:28.000Z</Time>
            <Position>
              <LatitudeDegrees>42.7667185105383396148681640625</LatitudeDegrees>
              <LongitudeDegrees>-0.17369340173900127410888671875</LongitudeDegrees>
            </Position>
            <AltitudeMeters>2072.39990234375</AltitudeMeters>
            <DistanceMeters>29571.4179502</DistanceMeters>
          </Trackpoint>
          <Trackpoint>
            <Time>2022-07-10T07:56:30.000Z</Time>
            <Position>
              <LatitudeDegrees>42.7667082846164703369140625</LatitudeDegrees>
              <LongitudeDegrees>-0.17371418885886669158935546875</LongitudeDegrees>
            </Position>
            <AltitudeMeters>2073.199951171875</AltitudeMeters>
            <DistanceMeters>29573.464888271</DistanceMeters>
          </Trackpoint>
          <Trackpoint>
            <Time>2022-07-10T07:56:31.000Z</Time>
            <Position>
              <LatitudeDegrees>42.766710631549358367919921875</LatitudeDegrees>
              <LongitudeDegrees>-0.17372868955135345458984375</LongitudeDegrees>
            </Position>
            <AltitudeMeters>2073.199951171875</AltitudeMeters>
            <DistanceMeters>29574.678108144</DistanceMeters>
          </Trackpoint>
          <Trackpoint>
            <Time>2022-07-10T07:56:33.000Z</Time>
            <Position>
              <LatitudeDegrees>42.76671725325286388397216796875</LatitudeDegrees>
              <LongitudeDegrees>-0.17375023104250431060791015625</LongitudeDegrees>
            </Position>
            <AltitudeMeters>2073.60009765625</AltitudeMeters>
            <DistanceMeters>29576.585756122</DistanceMeters>
          </Trackpoint>
          <Trackpoint>
            <Time>2022-07-10T07:56:35.000Z</Time>
            <Position>
              <LatitudeDegrees>42.7667148225009441375732421875</LatitudeDegrees>
              <LongitudeDegrees>-0.173758529126644134521484375</LongitudeDegrees>
            </Position>
            <AltitudeMeters>2074</AltitudeMeters>
            <DistanceMeters>29577.321829887</DistanceMeters>
          </Trackpoint>
          <Trackpoint>
            <Time>2022-07-10T07:56:36.000Z</Time>
            <Position>
              <LatitudeDegrees>42.76671390049159526824951171875</LatitudeDegrees>
              <LongitudeDegrees>-0.173763893544673919677734375</LongitudeDegrees>
            </Position>
            <AltitudeMeters>2074.199951171875</AltitudeMeters>
            <DistanceMeters>29577.777561999</DistanceMeters>
          </Trackpoint>
          <Trackpoint>
            <Time>2022-07-10T07:56:37.000Z</Time>
            <Position>
              <LatitudeDegrees>42.7667128108441829681396484375</LatitudeDegrees>
              <LongitudeDegrees>-0.17376682721078395843505859375</LongitudeDegrees>
            </Position>
            <AltitudeMeters>2074.60009765625</AltitudeMeters>
            <DistanceMeters>29578.046338135</DistanceMeters>
          </Trackpoint>
          <Trackpoint>
            <Time>2022-07-10T07:56:39.000Z</Time>
            <Position>
              <LatitudeDegrees>42.766726724803447723388671875</LatitudeDegrees>
              <LongitudeDegrees>-0.17377101816236972808837890625</LongitudeDegrees>
            </Position>
            <AltitudeMeters>2074.800048828125</AltitudeMeters>
            <DistanceMeters>29579.630750093</DistanceMeters>
          </Trackpoint>
          <Trackpoint>
            <Time>2022-07-10T07:56:45.000Z</Time>
            <Position>
              <LatitudeDegrees>42.7667517028748989105224609375</LatitudeDegrees>
              <LongitudeDegrees>-0.17381560988724231719970703125</LongitudeDegrees>
            </Position>
            <AltitudeMeters>2075.199951171875</AltitudeMeters>
            <DistanceMeters>29584.212772325</DistanceMeters>
          </Trackpoint>
          <Trackpoint>
            <Time>2022-07-10T07:56:47.000Z</Time>
            <Position>
              <LatitudeDegrees>42.766728736460208892822265625</LatitudeDegrees>
              <LongitudeDegrees>-0.17381628043949604034423828125</LongitudeDegrees>
            </Position>
            <AltitudeMeters>2075.199951171875</AltitudeMeters>
            <DistanceMeters>29586.771444915</DistanceMeters>
          </Trackpoint>
          <Trackpoint>
            <Time>2022-07-10T07:56:48.000Z</Time>
            <Position>
              <LatitudeDegrees>42.76672278530895709991455078125</LatitudeDegrees>
              <LongitudeDegrees>-0.173822902143001556396484375</LongitudeDegrees>
            </Position>
            <AltitudeMeters>2075.199951171875</AltitudeMeters>
            <DistanceMeters>29587.621389687</DistanceMeters>
          </Trackpoint>
          <Trackpoint>
            <Time>2022-07-10T07:56:49.000Z</Time>
            <Position>
              <LatitudeDegrees>42.766720689833164215087890625</LatitudeDegrees>
              <LongitudeDegrees>-0.17382902093231678009033203125</LongitudeDegrees>
            </Position>
            <AltitudeMeters>2075.39990234375</AltitudeMeters>
            <DistanceMeters>29588.15894196</DistanceMeters>
          </Trackpoint>
          <Trackpoint>
            <Time>2022-07-10T07:56:54.000Z</Time>
            <Position>
              <LatitudeDegrees>42.7667377889156341552734375</LatitudeDegrees>
              <LongitudeDegrees>-0.173855088651180267333984375</LongitudeDegrees>
            </Position>
            <AltitudeMeters>2075.60009765625</AltitudeMeters>
            <DistanceMeters>29591.016071482</DistanceMeters>
          </Trackpoint>
          <Trackpoint>
            <Time>2022-07-10T07:56:55.000Z</Time>
            <Position>
              <LatitudeDegrees>42.76673954911530017852783203125</LatitudeDegrees>
              <LongitudeDegrees>-0.17385466955602169036865234375</LongitudeDegrees>
            </Position>
            <AltitudeMeters>2075.39990234375</AltitudeMeters>
            <DistanceMeters>29591.20612491</DistanceMeters>
          </Trackpoint>
          <Trackpoint>
            <Time>2022-07-10T07:56:57.000Z</Time>
            <Position>
              <LatitudeDegrees>42.7667027525603771209716796875</LatitudeDegrees>
              <LongitudeDegrees>-0.1738287694752216339111328125</LongitudeDegrees>
            </Position>
            <AltitudeMeters>2075.39990234375</AltitudeMeters>
            <DistanceMeters>29595.816634638</DistanceMeters>
          </Trackpoint>
          <Trackpoint>
            <Time>2022-07-10T08:11:08.000Z</Time>
            <Position>
              <LatitudeDegrees>42.7667708136141300201416015625</LatitudeDegrees>
              <LongitudeDegrees>-0.17387495376169681549072265625</LongitudeDegrees>
            </Position>
            <AltitudeMeters>2078</AltitudeMeters>
            <DistanceMeters>29604.279882617</DistanceMeters>
          </Trackpoint>
          <Trackpoint>
            <Time>2022-07-10T08:11:09.000Z</Time>
            <Position>
              <LatitudeDegrees>42.7667674608528614044189453125</LatitudeDegrees>
              <LongitudeDegrees>-0.1738844253122806549072265625</LongitudeDegrees>
            </Position>
            <AltitudeMeters>2078.199951171875</AltitudeMeters>
            <DistanceMeters>29605.140386114</DistanceMeters>
          </Trackpoint>
          <Trackpoint>
            <Time>2022-07-10T08:11:13.000Z</Time>
            <Position>
              <LatitudeDegrees>42.766749523580074310302734375</LatitudeDegrees>
              <LongitudeDegrees>-0.17392206005752086639404296875</LongitudeDegrees>
            </Position>
            <AltitudeMeters>2079</AltitudeMeters>
            <DistanceMeters>29608.806003899</DistanceMeters>
          </Trackpoint>
          <Trackpoint>
            <Time>2022-07-10T08:11:14.000Z</Time>
            <Position>
              <LatitudeDegrees>42.7667446620762348175048828125</LatitudeDegrees>
              <LongitudeDegrees>-0.1739318668842315673828125</LongitudeDegrees>
            </Position>
            <AltitudeMeters>2079.199951171875</AltitudeMeters>
            <DistanceMeters>29609.76572667</DistanceMeters>
          </Trackpoint>
          <Trackpoint>
            <Time>2022-07-10T08:11:19.000Z</Time>
            <Position>
              <LatitudeDegrees>42.76676150970160961151123046875</LatitudeDegrees>
              <LongitudeDegrees>-0.17395072616636753082275390625</LongitudeDegrees>
            </Position>
            <AltitudeMeters>2079.800048828125</AltitudeMeters>
            <DistanceMeters>29612.19402647</DistanceMeters>
          </Trackpoint>
          <Trackpoint>
            <Time>2022-07-10T08:11:21.000Z</Time>
            <Position>
              <LatitudeDegrees>42.7667584083974361419677734375</LatitudeDegrees>
              <LongitudeDegrees>-0.17395198345184326171875</LongitudeDegrees>
            </Position>
            <AltitudeMeters>2079.800048828125</AltitudeMeters>
            <DistanceMeters>29612.549583878</DistanceMeters>
          </Trackpoint>
          <Trackpoint>
            <Time>2022-07-10T08:11:24.000Z</Time>
            <Position>
              <LatitudeDegrees>42.766743488609790802001953125</LatitudeDegrees>
              <LongitudeDegrees>-0.173985175788402557373046875</LongitudeDegrees>
            </Position>
            <AltitudeMeters>2079.800048828125</AltitudeMeters>
            <DistanceMeters>29615.728365963</DistanceMeters>
          </Trackpoint>
          <Trackpoint>
            <Time>2022-07-10T08:11:26.000Z</Time>
            <Position>
              <LatitudeDegrees>42.76672848500311374664306640625</LatitudeDegrees>
              <LongitudeDegrees>-0.17402465455234050750732421875</LongitudeDegrees>
            </Position>
            <AltitudeMeters>2080</AltitudeMeters>
            <DistanceMeters>29619.361817732</DistanceMeters>
          </Trackpoint>
          <Trackpoint>
            <Time>2022-07-10T08:11:29.000Z</Time>
            <Position>
              <LatitudeDegrees>42.7667208574712276458740234375</LatitudeDegrees>
              <LongitudeDegrees>-0.17404829151928424835205078125</LongitudeDegrees>
            </Position>
            <AltitudeMeters>2080.39990234375</AltitudeMeters>
            <DistanceMeters>29621.471753202</DistanceMeters>
          </Trackpoint>
          <Trackpoint>
            <Time>2022-07-10T08:11:32.000Z</Time>
            <Position>
              <LatitudeDegrees>42.76674248278141021728515625</LatitudeDegrees>
              <LongitudeDegrees>-0.1740391552448272705078125</LongitudeDegrees>
            </Position>
            <AltitudeMeters>2080.800048828125</AltitudeMeters>
            <DistanceMeters>29623.993096855</DistanceMeters>
          </Trackpoint>
          <Trackpoint>
            <Time>2022-07-10T08:11:34.000Z</Time>
            <Position>
              <LatitudeDegrees>42.766760922968387603759765625</LatitudeDegrees>
              <LongitudeDegrees>-0.17402373254299163818359375</LongitudeDegrees>
            </Position>
            <AltitudeMeters>2081.60009765625</AltitudeMeters>
            <DistanceMeters>29626.400857033</DistanceMeters>
          </Trackpoint>
          <Trackpoint>
            <Time>2022-07-10T08:11:38.000Z</Time>
            <Position>
              <LatitudeDegrees>42.76678497903048992156982421875</LatitudeDegrees>
              <LongitudeDegrees>-0.1739895343780517578125</LongitudeDegrees>
            </Position>
            <AltitudeMeters>2082.60009765625</AltitudeMeters>
            <DistanceMeters>29630.270206687</DistanceMeters>
          </Trackpoint>
          <Trackpoint>
            <Time>2022-07-10T08:11:39.000Z</Time>
            <Position>
              <LatitudeDegrees>42.7667916007339954376220703125</LatitudeDegrees>
              <LongitudeDegrees>-0.17398542724549770355224609375</LongitudeDegrees>
            </Position>
            <AltitudeMeters>2082.800048828125</AltitudeMeters>
            <DistanceMeters>29631.076535097</DistanceMeters>
          </Trackpoint>
          <Trackpoint>
            <Time>2022-07-10T08:11:41.000Z</Time>
            <Position>
              <LatitudeDegrees>42.76679654605686664581298828125</LatitudeDegrees>
              <LongitudeDegrees>-0.1739863492548465728759765625</LongitudeDegrees>
            </Position>
            <AltitudeMeters>2083</AltitudeMeters>
            <DistanceMeters>29631.630631297</DistanceMeters>
          </Trackpoint>
          <Trackpoint>
            <Time>2022-07-10T08:11:46.000Z</Time>
            <Position>
              <LatitudeDegrees>42.7667959593236446380615234375</LatitudeDegrees>
              <LongitudeDegrees>-0.174052231013774871826171875</LongitudeDegrees>
            </Position>
            <AltitudeMeters>2083</AltitudeMeters>
            <DistanceMeters>29637.01454673</DistanceMeters>
          </Trackpoint>
          <Trackpoint>
            <Time>2022-07-10T08:11:49.000Z</Time>
            <Position>
              <LatitudeDegrees>42.76680626906454563140869140625</LatitudeDegrees>
              <LongitudeDegrees>-0.17407176084816455841064453125</LongitudeDegrees>
            </Position>
            <AltitudeMeters>2083.60009765625</AltitudeMeters>
            <DistanceMeters>29638.980474683</DistanceMeters>
          </Trackpoint>
          <Trackpoint>
            <Time>2022-07-10T08:11:53.000Z</Time>
            <Position>
              <LatitudeDegrees>42.76681632734835147857666015625</LatitudeDegrees>
              <LongitudeDegrees>-0.17410562373697757720947265625</LongitudeDegrees>
            </Position>
            <AltitudeMeters>2084.199951171875</AltitudeMeters>
            <DistanceMeters>29641.96437404</DistanceMeters>
          </Trackpoint>
          <Trackpoint>
            <Time>2022-07-10T08:11:55.000Z</Time>
            <Position>
              <LatitudeDegrees>42.766806520521640777587890625</LatitudeDegrees>
              <LongitudeDegrees>-0.174121968448162078857421875</LongitudeDegrees>
            </Position>
            <AltitudeMeters>2084.60009765625</AltitudeMeters>
            <DistanceMeters>29643.685381034</DistanceMeters>
          </Trackpoint>
          <Trackpoint>
            <Time>2022-07-10T08:11:58.000Z</Time>
            <Position>
              <LatitudeDegrees>42.76681758463382720947265625</LatitudeDegrees>
              <LongitudeDegrees>-0.17413781024515628814697265625</LongitudeDegrees>
            </Position>
            <AltitudeMeters>2084.800048828125</AltitudeMeters>
            <DistanceMeters>29645.470770903</DistanceMeters>
          </Trackpoint>
          <Trackpoint>
            <Time>2022-07-10T08:11:59.000Z</Time>
            <Position>
              <LatitudeDegrees>42.76681867428123950958251953125</LatitudeDegrees>
              <LongitudeDegrees>-0.17414501868188381195068359375</LongitudeDegrees>
            </Position>
            <AltitudeMeters>2085</AltitudeMeters>
            <DistanceMeters>29646.064212544</DistanceMeters>
          </Trackpoint>
          <Trackpoint>
            <Time>2022-07-10T08:12:01.000Z</Time>
            <Position>
              <LatitudeDegrees>42.76681750081479549407958984375</LatitudeDegrees>
              <LongitudeDegrees>-0.17414501868188381195068359375</LongitudeDegrees>
            </Position>
            <AltitudeMeters>2085</AltitudeMeters>
            <DistanceMeters>29646.064212544</DistanceMeters>
          </Trackpoint>
          <Trackpoint>
            <Time>2022-07-10T08:12:03.000Z</Time>
            <Position>
              <LatitudeDegrees>42.76683233678340911865234375</LatitudeDegrees>
              <LongitudeDegrees>-0.1741291768848896026611328125</LongitudeDegrees>
            </Position>
            <AltitudeMeters>2085</AltitudeMeters>
            <DistanceMeters>29648.159115204</DistanceMeters>
          </Trackpoint>
          <Trackpoint>
            <Time>2022-07-10T08:12:05.000Z</Time>
            <Position>
              <LatitudeDegrees>42.76683912612497806549072265625</LatitudeDegrees>
              <LongitudeDegrees>-0.17412590794265270233154296875</LongitudeDegrees>
            </Position>
            <AltitudeMeters>2085</AltitudeMeters>
            <DistanceMeters>29648.959824531</DistanceMeters>
          </Trackpoint>
          <Trackpoint>
            <Time>2022-07-10T08:12:11.000Z</Time>
            <Position>
              <LatitudeDegrees>42.7668450772762298583984375</LatitudeDegrees>
              <LongitudeDegrees>-0.17414652742445468902587890625</LongitudeDegrees>
            </Position>
            <AltitudeMeters>2084.800048828125</AltitudeMeters>
            <DistanceMeters>29650.767831078</DistanceMeters>
          </Trackpoint>
          <Trackpoint>
            <Time>2022-07-10T08:12:12.000Z</Time>
            <Position>
              <LatitudeDegrees>42.766849435865879058837890625</LatitudeDegrees>
              <LongitudeDegrees>-0.17414719797670841217041015625</LongitudeDegrees>
            </Position>
            <AltitudeMeters>2085</AltitudeMeters>
            <DistanceMeters>29651.26160437</DistanceMeters>
          </Trackpoint>
          <Trackpoint>
            <Time>2022-07-10T08:12:15.000Z</Time>
            <Position>
              <LatitudeDegrees>42.76685723103582859039306640625</LatitudeDegrees>
              <LongitudeDegrees>-0.174160189926624298095703125</LongitudeDegrees>
            </Position>
            <AltitudeMeters>2085.800048828125</AltitudeMeters>
            <DistanceMeters>29652.632099135</DistanceMeters>
          </Trackpoint>
          <Trackpoint>
            <Time>2022-07-10T08:12:19.000Z</Time>
            <Position>
              <LatitudeDegrees>42.7668703906238079071044921875</LatitudeDegrees>
              <LongitudeDegrees>-0.1741680689156055450439453125</LongitudeDegrees>
            </Position>
            <AltitudeMeters>2086.800048828125</AltitudeMeters>
            <DistanceMeters>29654.23351779</DistanceMeters>
          </Trackpoint>
          <Trackpoint>
            <Time>2022-07-10T08:12:20.000Z</Time>
            <Position>
              <LatitudeDegrees>42.766877599060535430908203125</LatitudeDegrees>
              <LongitudeDegrees>-0.1741707511246204376220703125</LongitudeDegrees>
            </Position>
            <AltitudeMeters>2087</AltitudeMeters>
            <DistanceMeters>29655.06194148</DistanceMeters>
          </Trackpoint>
          <Trackpoint>
            <Time>2022-07-10T08:12:23.000Z</Time>
            <Position>
              <LatitudeDegrees>42.76688656769692897796630859375</LatitudeDegrees>
              <LongitudeDegrees>-0.17419874668121337890625</LongitudeDegrees>
            </Position>
            <AltitudeMeters>2087.39990234375</AltitudeMeters>
            <DistanceMeters>29657.556279603</DistanceMeters>
          </Trackpoint>
          <Trackpoint>
            <Time>2022-07-10T08:12:26.000Z</Time>
            <Position>
              <LatitudeDegrees>42.76688489131629467010498046875</LatitudeDegrees>
              <LongitudeDegrees>-0.1742267422378063201904296875</LongitudeDegrees>
            </Position>
            <AltitudeMeters>2087.60009765625</AltitudeMeters>
            <DistanceMeters>29659.848768314</DistanceMeters>
          </Trackpoint>
          <Trackpoint>
            <Time>2022-07-10T08:12:29.000Z</Time>
            <Position>
              <LatitudeDegrees>42.76688505895435810089111328125</LatitudeDegrees>
              <LongitudeDegrees>-0.1742408238351345062255859375</LongitudeDegrees>
            </Position>
            <AltitudeMeters>2088.39990234375</AltitudeMeters>
            <DistanceMeters>29660.996980472</DistanceMeters>
          </Trackpoint>
          <Trackpoint>
            <Time>2022-07-10T08:12:34.000Z</Time>
            <Position>
              <LatitudeDegrees>42.76689729653298854827880859375</LatitudeDegrees>
              <LongitudeDegrees>-0.17424627207219600677490234375</LongitudeDegrees>
            </Position>
            <AltitudeMeters>2089.199951171875</AltitudeMeters>
            <DistanceMeters>29662.431852393</DistanceMeters>
          </Trackpoint>
          <Trackpoint>
            <Time>2022-07-10T08:12:37.000Z</Time>
            <Position>
              <LatitudeDegrees>42.7669039182364940643310546875</LatitudeDegrees>
              <LongitudeDegrees>-0.17421827651560306549072265625</LongitudeDegrees>
            </Position>
            <AltitudeMeters>2089.60009765625</AltitudeMeters>
            <DistanceMeters>29664.832100041</DistanceMeters>
          </Trackpoint>
          <Trackpoint>
            <Time>2022-07-10T08:12:38.000Z</Time>
            <Position>
              <LatitudeDegrees>42.76690651662647724151611328125</LatitudeDegrees>
              <LongitudeDegrees>-0.17421827651560306549072265625</LongitudeDegrees>
            </Position>
            <AltitudeMeters>2089.60009765625</AltitudeMeters>
            <DistanceMeters>29665.132600897</DistanceMeters>
          </Trackpoint>
          <Trackpoint>
            <Time>2022-07-10T08:12:39.000Z</Time>
            <Position>
              <LatitudeDegrees>42.7669094502925872802734375</LatitudeDegrees>
              <LongitudeDegrees>-0.17421685159206390380859375</LongitudeDegrees>
            </Position>
            <AltitudeMeters>2090</AltitudeMeters>
            <DistanceMeters>29665.488158305</DistanceMeters>
          </Trackpoint>
          <Trackpoint>
            <Time>2022-07-10T08:12:41.000Z</Time>
            <Position>
              <LatitudeDegrees>42.76692043058574199676513671875</LatitudeDegrees>
              <LongitudeDegrees>-0.1742123253643512725830078125</LongitudeDegrees>
            </Position>
            <AltitudeMeters>2090.199951171875</AltitudeMeters>
            <DistanceMeters>29666.766611994</DistanceMeters>
          </Trackpoint>
          <Trackpoint>
            <Time>2022-07-10T08:12:42.000Z</Time>
            <Position>
              <LatitudeDegrees>42.7669283933937549591064453125</LatitudeDegrees>
              <LongitudeDegrees>-0.1742099784314632415771484375</LongitudeDegrees>
            </Position>
            <AltitudeMeters>2090.60009765625</AltitudeMeters>
            <DistanceMeters>29667.673109074</DistanceMeters>
          </Trackpoint>
          <Trackpoint>
            <Time>2022-07-10T08:12:46.000Z</Time>
            <Position>
              <LatitudeDegrees>42.76694440282881259918212890625</LatitudeDegrees>
              <LongitudeDegrees>-0.17423789016902446746826171875</LongitudeDegrees>
            </Position>
            <AltitudeMeters>2091.60009765625</AltitudeMeters>
            <DistanceMeters>29670.567916657</DistanceMeters>
          </Trackpoint>
          <Trackpoint>
            <Time>2022-07-10T08:12:48.000Z</Time>
            <Position>
              <LatitudeDegrees>42.76695027016103267669677734375</LatitudeDegrees>
              <LongitudeDegrees>-0.17426203005015850067138671875</LongitudeDegrees>
            </Position>
            <AltitudeMeters>2091.800048828125</AltitudeMeters>
            <DistanceMeters>29672.645505774</DistanceMeters>
          </Trackpoint>
          <Trackpoint>
            <Time>2022-07-10T08:12:50.000Z</Time>
            <Position>
              <LatitudeDegrees>42.76695144362747669219970703125</LatitudeDegrees>
              <LongitudeDegrees>-0.17429220490157604217529296875</LongitudeDegrees>
            </Position>
            <AltitudeMeters>2092</AltitudeMeters>
            <DistanceMeters>29675.114372235</DistanceMeters>
          </Trackpoint>
          <Trackpoint>
            <Time>2022-07-10T08:12:54.000Z</Time>
            <Position>
              <LatitudeDegrees>42.7669429779052734375</LatitudeDegrees>
              <LongitudeDegrees>-0.17432816326618194580078125</LongitudeDegrees>
            </Position>
            <AltitudeMeters>2092.60009765625</AltitudeMeters>
            <DistanceMeters>29678.199449312</DistanceMeters>
          </Trackpoint>
          <Trackpoint>
            <Time>2022-07-10T08:12:55.000Z</Time>
            <Position>
              <LatitudeDegrees>42.7669441513717174530029296875</LatitudeDegrees>
              <LongitudeDegrees>-0.17433461733162403106689453125</LongitudeDegrees>
            </Position>
            <AltitudeMeters>2092.800048828125</AltitudeMeters>
            <DistanceMeters>29678.737001585</DistanceMeters>
          </Trackpoint>
          <Trackpoint>
            <Time>2022-07-10T08:12:59.000Z</Time>
            <Position>
              <LatitudeDegrees>42.76694222353398799896240234375</LatitudeDegrees>
              <LongitudeDegrees>-0.17436747439205646514892578125</LongitudeDegrees>
            </Position>
            <AltitudeMeters>2092.800048828125</AltitudeMeters>
            <DistanceMeters>29681.428120554</DistanceMeters>
          </Trackpoint>
          <Trackpoint>
            <Time>2022-07-10T08:13:03.000Z</Time>
            <Position>
              <LatitudeDegrees>42.7669357694685459136962890625</LatitudeDegrees>
              <LongitudeDegrees>-0.174419023096561431884765625</LongitudeDegrees>
            </Position>
            <AltitudeMeters>2093</AltitudeMeters>
            <DistanceMeters>29685.700097204</DistanceMeters>
          </Trackpoint>
          <Trackpoint>
            <Time>2022-07-10T08:13:07.000Z</Time>
            <Position>
              <LatitudeDegrees>42.76692353188991546630859375</LatitudeDegrees>
              <LongitudeDegrees>-0.1744691468775272369384765625</LongitudeDegrees>
            </Position>
            <AltitudeMeters>2093</AltitudeMeters>
            <DistanceMeters>29690.017281214</DistanceMeters>
          </Trackpoint>
          <Trackpoint>
            <Time>2022-07-10T08:13:09.000Z</Time>
            <Position>
              <LatitudeDegrees>42.76692294515669345855712890625</LatitudeDegrees>
              <LongitudeDegrees>-0.1744924485683441162109375</LongitudeDegrees>
            </Position>
            <AltitudeMeters>2093.800048828125</AltitudeMeters>
            <DistanceMeters>29691.922560913</DistanceMeters>
          </Trackpoint>
          <Trackpoint>
            <Time>2022-07-10T08:13:12.000Z</Time>
            <Position>
              <LatitudeDegrees>42.76692043058574199676513671875</LatitudeDegrees>
              <LongitudeDegrees>-0.17451147548854351043701171875</LongitudeDegrees>
            </Position>
            <AltitudeMeters>2094.199951171875</AltitudeMeters>
            <DistanceMeters>29693.504120642</DistanceMeters>
          </Trackpoint>
          <Trackpoint>
            <Time>2022-07-10T08:13:14.000Z</Time>
            <Position>
              <LatitudeDegrees>42.76691540144383907318115234375</LatitudeDegrees>
              <LongitudeDegrees>-0.17450795508921146392822265625</LongitudeDegrees>
            </Position>
            <AltitudeMeters>2094.800048828125</AltitudeMeters>
            <DistanceMeters>29694.134456555</DistanceMeters>
          </Trackpoint>
          <Trackpoint>
            <Time>2022-07-10T08:13:15.000Z</Time>
            <Position>
              <LatitudeDegrees>42.76691774837672710418701171875</LatitudeDegrees>
              <LongitudeDegrees>-0.17450988292694091796875</LongitudeDegrees>
            </Position>
            <AltitudeMeters>2095.199951171875</AltitudeMeters>
            <DistanceMeters>29694.434957411</DistanceMeters>
          </Trackpoint>
          <Trackpoint>
            <Time>2022-07-10T08:13:21.000Z</Time>
            <Position>
              <LatitudeDegrees>42.76693166233599185943603515625</LatitudeDegrees>
              <LongitudeDegrees>-0.1745273172855377197265625</LongitudeDegrees>
            </Position>
            <AltitudeMeters>2096</AltitudeMeters>
            <DistanceMeters>29696.538463403</DistanceMeters>
          </Trackpoint>
          <Trackpoint>
            <Time>2022-07-10T08:13:22.000Z</Time>
            <Position>
              <LatitudeDegrees>42.76692948304116725921630859375</LatitudeDegrees>
              <LongitudeDegrees>-0.174521617591381072998046875</LongitudeDegrees>
            </Position>
            <AltitudeMeters>2096.199951171875</AltitudeMeters>
            <DistanceMeters>29697.058946153</DistanceMeters>
          </Trackpoint>
          <Trackpoint>
            <Time>2022-07-10T08:13:23.000Z</Time>
            <Position>
              <LatitudeDegrees>42.76693317107856273651123046875</LatitudeDegrees>
              <LongitudeDegrees>-0.17451331950724124908447265625</LongitudeDegrees>
            </Position>
            <AltitudeMeters>2096.39990234375</AltitudeMeters>
            <DistanceMeters>29697.853996687</DistanceMeters>
          </Trackpoint>
          <Trackpoint>
            <Time>2022-07-10T08:13:28.000Z</Time>
            <Position>
              <LatitudeDegrees>42.76693048886954784393310546875</LatitudeDegrees>
              <LongitudeDegrees>-0.1745533011853694915771484375</LongitudeDegrees>
            </Position>
            <AltitudeMeters>2097.199951171875</AltitudeMeters>
            <DistanceMeters>29701.134827545</DistanceMeters>
          </Trackpoint>
          <Trackpoint>
            <Time>2022-07-10T08:13:29.000Z</Time>
            <Position>
              <LatitudeDegrees>42.766924537718296051025390625</LatitudeDegrees>
              <LongitudeDegrees>-0.17457224428653717041015625</LongitudeDegrees>
            </Position>
            <AltitudeMeters>2097.39990234375</AltitudeMeters>
            <DistanceMeters>29702.818705214</DistanceMeters>
          </Trackpoint>
          <Trackpoint>
            <Time>2022-07-10T08:13:33.000Z</Time>
            <Position>
              <LatitudeDegrees>42.7669129706919193267822265625</LatitudeDegrees>
              <LongitudeDegrees>-0.17461373470723628997802734375</LongitudeDegrees>
            </Position>
            <AltitudeMeters>2098.60009765625</AltitudeMeters>
            <DistanceMeters>29706.444693534</DistanceMeters>
          </Trackpoint>
          <Trackpoint>
            <Time>2022-07-10T08:13:34.000Z</Time>
            <Position>
              <LatitudeDegrees>42.76691280305385589599609375</LatitudeDegrees>
              <LongitudeDegrees>-0.1746186800301074981689453125</LongitudeDegrees>
            </Position>
            <AltitudeMeters>2098.60009765625</AltitudeMeters>
            <DistanceMeters>29706.847857739</DistanceMeters>
          </Trackpoint>
          <Trackpoint>
            <Time>2022-07-10T08:13:35.000Z</Time>
            <Position>
              <LatitudeDegrees>42.7669121325016021728515625</LatitudeDegrees>
              <LongitudeDegrees>-0.17462044022977352142333984375</LongitudeDegrees>
            </Position>
            <AltitudeMeters>2098.800048828125</AltitudeMeters>
            <DistanceMeters>29706.982245807</DistanceMeters>
          </Trackpoint>
          <Trackpoint>
            <Time>2022-07-10T08:13:41.000Z</Time>
            <Position>
              <LatitudeDegrees>42.76694624684751033782958984375</LatitudeDegrees>
              <LongitudeDegrees>-0.1746109686791896820068359375</LongitudeDegrees>
            </Position>
            <AltitudeMeters>2098.800048828125</AltitudeMeters>
            <DistanceMeters>29710.85626014</DistanceMeters>
          </Trackpoint>
          <Trackpoint>
            <Time>2022-07-10T08:13:42.000Z</Time>
            <Position>
              <LatitudeDegrees>42.76695513166487216949462890625</LatitudeDegrees>
              <LongitudeDegrees>-0.17461792565882205963134765625</LongitudeDegrees>
            </Position>
            <AltitudeMeters>2098.800048828125</AltitudeMeters>
            <DistanceMeters>29711.996580713</DistanceMeters>
          </Trackpoint>
          <Trackpoint>
            <Time>2022-07-10T08:13:48.000Z</Time>
            <Position>
              <LatitudeDegrees>42.7669589035212993621826171875</LatitudeDegrees>
              <LongitudeDegrees>-0.17470174469053745269775390625</LongitudeDegrees>
            </Position>
            <AltitudeMeters>2099.199951171875</AltitudeMeters>
            <DistanceMeters>29718.85827282</DistanceMeters>
          </Trackpoint>
          <Trackpoint>
            <Time>2022-07-10T08:13:50.000Z</Time>
            <Position>
              <LatitudeDegrees>42.76695781387388706207275390625</LatitudeDegrees>
              <LongitudeDegrees>-0.17471532337367534637451171875</LongitudeDegrees>
            </Position>
            <AltitudeMeters>2099.199951171875</AltitudeMeters>
            <DistanceMeters>29719.974583955</DistanceMeters>
          </Trackpoint>
          <Trackpoint>
            <Time>2022-07-10T08:13:53.000Z</Time>
            <Position>
              <LatitudeDegrees>42.766959406435489654541015625</LatitudeDegrees>
              <LongitudeDegrees>-0.17473828978836536407470703125</LongitudeDegrees>
            </Position>
            <AltitudeMeters>2099.60009765625</AltitudeMeters>
            <DistanceMeters>29721.858415169</DistanceMeters>
          </Trackpoint>
          <Trackpoint>
            <Time>2022-07-10T08:13:55.000Z</Time>
            <Position>
              <LatitudeDegrees>42.7669622562825679779052734375</LatitudeDegrees>
              <LongitudeDegrees>-0.1747511141002178192138671875</LongitudeDegrees>
            </Position>
            <AltitudeMeters>2099.800048828125</AltitudeMeters>
            <DistanceMeters>29722.958428916</DistanceMeters>
          </Trackpoint>
          <Trackpoint>
            <Time>2022-07-10T08:13:58.000Z</Time>
            <Position>
              <LatitudeDegrees>42.7669729851186275482177734375</LatitudeDegrees>
              <LongitudeDegrees>-0.17477952875196933746337890625</LongitudeDegrees>
            </Position>
            <AltitudeMeters>2100.199951171875</AltitudeMeters>
            <DistanceMeters>29725.571231585</DistanceMeters>
          </Trackpoint>
          <Trackpoint>
            <Time>2022-07-10T08:14:00.000Z</Time>
            <Position>
              <LatitudeDegrees>42.76697508059442043304443359375</LatitudeDegrees>
              <LongitudeDegrees>-0.174793191254138946533203125</LongitudeDegrees>
            </Position>
            <AltitudeMeters>2100.39990234375</AltitudeMeters>
            <DistanceMeters>29726.707585813</DistanceMeters>
          </Trackpoint>
          <Trackpoint>
            <Time>2022-07-10T08:14:05.000Z</Time>
            <Position>
              <LatitudeDegrees>42.76697591878473758697509765625</LatitudeDegrees>
              <LongitudeDegrees>-0.17481640912592411041259765625</LongitudeDegrees>
            </Position>
            <AltitudeMeters>2100.60009765625</AltitudeMeters>
            <DistanceMeters>29728.608120101</DistanceMeters>
          </Trackpoint>
          <Trackpoint>
            <Time>2022-07-10T08:14:07.000Z</Time>
            <Position>
              <LatitudeDegrees>42.76696720160543918609619140625</LatitudeDegrees>
              <LongitudeDegrees>-0.17482965253293514251708984375</LongitudeDegrees>
            </Position>
            <AltitudeMeters>2100.60009765625</AltitudeMeters>
            <DistanceMeters>29730.061749313</DistanceMeters>
          </Trackpoint>
          <Trackpoint>
            <Time>2022-07-10T08:14:09.000Z</Time>
            <Position>
              <LatitudeDegrees>42.76694088242948055267333984375</LatitudeDegrees>
              <LongitudeDegrees>-0.17483149655163288116455078125</LongitudeDegrees>
            </Position>
            <AltitudeMeters>2101.199951171875</AltitudeMeters>
            <DistanceMeters>29732.996829027</DistanceMeters>
          </Trackpoint>
          <Trackpoint>
            <Time>2022-07-10T08:14:12.000Z</Time>
            <Position>
              <LatitudeDegrees>42.76692495681345462799072265625</LatitudeDegrees>
              <LongitudeDegrees>-0.1748641021549701690673828125</LongitudeDegrees>
            </Position>
            <AltitudeMeters>2102.39990234375</AltitudeMeters>
            <DistanceMeters>29736.196845697</DistanceMeters>
          </Trackpoint>
          <Trackpoint>
            <Time>2022-07-10T08:14:16.000Z</Time>
            <Position>
              <LatitudeDegrees>42.76691439561545848846435546875</LatitudeDegrees>
              <LongitudeDegrees>-0.1748902536928653717041015625</LongitudeDegrees>
            </Position>
            <AltitudeMeters>2102.800048828125</AltitudeMeters>
            <DistanceMeters>29738.636276036</DistanceMeters>
          </Trackpoint>
          <Trackpoint>
            <Time>2022-07-10T08:14:20.000Z</Time>
            <Position>
              <LatitudeDegrees>42.766916491091251373291015625</LatitudeDegrees>
              <LongitudeDegrees>-0.174917243421077728271484375</LongitudeDegrees>
            </Position>
            <AltitudeMeters>2103.199951171875</AltitudeMeters>
            <DistanceMeters>29740.852660837</DistanceMeters>
          </Trackpoint>
          <Trackpoint>
            <Time>2022-07-10T08:14:21.000Z</Time>
            <Position>
              <LatitudeDegrees>42.76690634898841381072998046875</LatitudeDegrees>
              <LongitudeDegrees>-0.17492093145847320556640625</LongitudeDegrees>
            </Position>
            <AltitudeMeters>2103.39990234375</AltitudeMeters>
            <DistanceMeters>29742.024228854</DistanceMeters>
          </Trackpoint>
          <Trackpoint>
            <Time>2022-07-10T08:14:26.000Z</Time>
            <Position>
              <LatitudeDegrees>42.766893021762371063232421875</LatitudeDegrees>
              <LongitudeDegrees>-0.17498304136097431182861328125</LongitudeDegrees>
            </Position>
            <AltitudeMeters>2103.800048828125</AltitudeMeters>
            <DistanceMeters>29747.31167783</DistanceMeters>
          </Trackpoint>
          <Trackpoint>
            <Time>2022-07-10T08:14:27.000Z</Time>
            <Position>
              <LatitudeDegrees>42.766880951821804046630859375</LatitudeDegrees>
              <LongitudeDegrees>-0.174994356930255889892578125</LongitudeDegrees>
            </Position>
            <AltitudeMeters>2103.800048828125</AltitudeMeters>
            <DistanceMeters>29748.943815248</DistanceMeters>
          </Trackpoint>
          <Trackpoint>
            <Time>2022-07-10T08:14:30.000Z</Time>
            <Position>
              <LatitudeDegrees>42.76685806922614574432373046875</LatitudeDegrees>
              <LongitudeDegrees>-0.17501656897366046905517578125</LongitudeDegrees>
            </Position>
            <AltitudeMeters>2104.199951171875</AltitudeMeters>
            <DistanceMeters>29752.072489546</DistanceMeters>
          </Trackpoint>
          <Trackpoint>
            <Time>2022-07-10T08:14:32.000Z</Time>
            <Position>
              <LatitudeDegrees>42.766859494149684906005859375</LatitudeDegrees>
              <LongitudeDegrees>-0.17502729780972003936767578125</LongitudeDegrees>
            </Position>
            <AltitudeMeters>2104.60009765625</AltitudeMeters>
            <DistanceMeters>29752.963919144</DistanceMeters>
          </Trackpoint>
          <Trackpoint>
            <Time>2022-07-10T08:14:35.000Z</Time>
            <Position>
              <LatitudeDegrees>42.76685513556003570556640625</LatitudeDegrees>
              <LongitudeDegrees>-0.17504355870187282562255859375</LongitudeDegrees>
            </Position>
            <AltitudeMeters>2105.199951171875</AltitudeMeters>
            <DistanceMeters>29754.379785299</DistanceMeters>
          </Trackpoint>
          <Trackpoint>
            <Time>2022-07-10T08:14:37.000Z</Time>
            <Position>
              <LatitudeDegrees>42.766833007335662841796875</LatitudeDegrees>
              <LongitudeDegrees>-0.17506551928818225860595703125</LongitudeDegrees>
            </Position>
            <AltitudeMeters>2105.800048828125</AltitudeMeters>
            <DistanceMeters>29757.429535902</DistanceMeters>
          </Trackpoint>
          <Trackpoint>
            <Time>2022-07-10T08:14:42.000Z</Time>
            <Position>
              <LatitudeDegrees>42.7668019942939281463623046875</LatitudeDegrees>
              <LongitudeDegrees>-0.17513575963675975799560546875</LongitudeDegrees>
            </Position>
            <AltitudeMeters>2106.60009765625</AltitudeMeters>
            <DistanceMeters>29764.127402709</DistanceMeters>
          </Trackpoint>
          <Trackpoint>
            <Time>2022-07-10T08:14:43.000Z</Time>
            <Position>
              <LatitudeDegrees>42.7667996473610401153564453125</LatitudeDegrees>
              <LongitudeDegrees>-0.1751507632434368133544921875</LongitudeDegrees>
            </Position>
            <AltitudeMeters>2106.800048828125</AltitudeMeters>
            <DistanceMeters>29765.380891162</DistanceMeters>
          </Trackpoint>
          <Trackpoint>
            <Time>2022-07-10T08:14:44.000Z</Time>
            <Position>
              <LatitudeDegrees>42.76679587550461292266845703125</LatitudeDegrees>
              <LongitudeDegrees>-0.17516677267849445343017578125</LongitudeDegrees>
            </Position>
            <AltitudeMeters>2106.800048828125</AltitudeMeters>
            <DistanceMeters>29766.757959081</DistanceMeters>
          </Trackpoint>
          <Trackpoint>
            <Time>2022-07-10T08:14:45.000Z</Time>
            <Position>
              <LatitudeDegrees>42.7667936123907566070556640625</LatitudeDegrees>
              <LongitudeDegrees>-0.1751826144754886627197265625</LongitudeDegrees>
            </Position>
            <AltitudeMeters>2107</AltitudeMeters>
            <DistanceMeters>29768.078112388</DistanceMeters>
          </Trackpoint>
          <Trackpoint>
            <Time>2022-07-10T08:14:48.000Z</Time>
            <Position>
              <LatitudeDegrees>42.7667875774204730987548828125</LatitudeDegrees>
              <LongitudeDegrees>-0.17522460781037807464599609375</LongitudeDegrees>
            </Position>
            <AltitudeMeters>2107.39990234375</AltitudeMeters>
            <DistanceMeters>29771.576076593</DistanceMeters>
          </Trackpoint>
          <Trackpoint>
            <Time>2022-07-10T08:14:50.000Z</Time>
            <Position>
              <LatitudeDegrees>42.76679738424718379974365234375</LatitudeDegrees>
              <LongitudeDegrees>-0.17526718787848949432373046875</LongitudeDegrees>
            </Position>
            <AltitudeMeters>2108.199951171875</AltitudeMeters>
            <DistanceMeters>29775.221933492</DistanceMeters>
          </Trackpoint>
          <Trackpoint>
            <Time>2022-07-10T08:14:55.000Z</Time>
            <Position>
              <LatitudeDegrees>42.766797132790088653564453125</LatitudeDegrees>
              <LongitudeDegrees>-0.175323598086833953857421875</LongitudeDegrees>
            </Position>
            <AltitudeMeters>2109.199951171875</AltitudeMeters>
            <DistanceMeters>29779.830484218</DistanceMeters>
          </Trackpoint>
          <Trackpoint>
            <Time>2022-07-10T08:14:58.000Z</Time>
            <Position>
              <LatitudeDegrees>42.76679134927690029144287109375</LatitudeDegrees>
              <LongitudeDegrees>-0.17536357976496219635009765625</LongitudeDegrees>
            </Position>
            <AltitudeMeters>2109.800048828125</AltitudeMeters>
            <DistanceMeters>29783.159133163</DistanceMeters>
          </Trackpoint>
          <Trackpoint>
            <Time>2022-07-10T08:15:00.000Z</Time>
            <Position>
              <LatitudeDegrees>42.7667842246592044830322265625</LatitudeDegrees>
              <LongitudeDegrees>-0.17539693973958492279052734375</LongitudeDegrees>
            </Position>
            <AltitudeMeters>2110.60009765625</AltitudeMeters>
            <DistanceMeters>29786.000416032</DistanceMeters>
          </Trackpoint>
          <Trackpoint>
            <Time>2022-07-10T08:15:01.000Z</Time>
            <Position>
              <LatitudeDegrees>42.7667802013456821441650390625</LatitudeDegrees>
              <LongitudeDegrees>-0.17541336826980113983154296875</LongitudeDegrees>
            </Position>
            <AltitudeMeters>2111</AltitudeMeters>
            <DistanceMeters>29787.416282187</DistanceMeters>
          </Trackpoint>
          <Trackpoint>
            <Time>2022-07-10T08:15:02.000Z</Time>
            <Position>
              <LatitudeDegrees>42.7667807042598724365234375</LatitudeDegrees>
              <LongitudeDegrees>-0.17543449066579341888427734375</LongitudeDegrees>
            </Position>
            <AltitudeMeters>2111.199951171875</AltitudeMeters>
            <DistanceMeters>29789.145141725</DistanceMeters>
          </Trackpoint>
          <Trackpoint>
            <Time>2022-07-10T08:15:04.000Z</Time>
            <Position>
              <LatitudeDegrees>42.76678313501179218292236328125</LatitudeDegrees>
              <LongitudeDegrees>-0.1754716224968433380126953125</LongitudeDegrees>
            </Position>
            <AltitudeMeters>2111.60009765625</AltitudeMeters>
            <DistanceMeters>29792.191929966</DistanceMeters>
          </Trackpoint>
          <Trackpoint>
            <Time>2022-07-10T08:15:06.000Z</Time>
            <Position>
              <LatitudeDegrees>42.76679210364818572998046875</LatitudeDegrees>
              <LongitudeDegrees>-0.1754967682063579559326171875</LongitudeDegrees>
            </Position>
            <AltitudeMeters>2111.60009765625</AltitudeMeters>
            <DistanceMeters>29794.476527126</DistanceMeters>
          </Trackpoint>
          <Trackpoint>
            <Time>2022-07-10T08:15:10.000Z</Time>
            <Position>
              <LatitudeDegrees>42.766817249357700347900390625</LatitudeDegrees>
              <LongitudeDegrees>-0.175529457628726959228515625</LongitudeDegrees>
            </Position>
            <AltitudeMeters>2111.60009765625</AltitudeMeters>
            <DistanceMeters>29798.344709732</DistanceMeters>
          </Trackpoint>
          <Trackpoint>
            <Time>2022-07-10T08:15:13.000Z</Time>
            <Position>
              <LatitudeDegrees>42.76682387106120586395263671875</LatitudeDegrees>
              <LongitudeDegrees>-0.1755725406110286712646484375</LongitudeDegrees>
            </Position>
            <AltitudeMeters>2111.199951171875</AltitudeMeters>
            <DistanceMeters>29801.940689357</DistanceMeters>
          </Trackpoint>
          <Trackpoint>
            <Time>2022-07-10T08:15:16.000Z</Time>
            <Position>
              <LatitudeDegrees>42.76683661155402660369873046875</LatitudeDegrees>
              <LongitudeDegrees>-0.17561721615493297576904296875</LongitudeDegrees>
            </Position>
            <AltitudeMeters>2111.199951171875</AltitudeMeters>
            <DistanceMeters>29805.857588626</DistanceMeters>
          </Trackpoint>
          <Trackpoint>
            <Time>2022-07-10T08:15:19.000Z</Time>
            <Position>
              <LatitudeDegrees>42.76685270480811595916748046875</LatitudeDegrees>
              <LongitudeDegrees>-0.17564320005476474761962890625</LongitudeDegrees>
            </Position>
            <AltitudeMeters>2111.60009765625</AltitudeMeters>
            <DistanceMeters>29808.634580754</DistanceMeters>
          </Trackpoint>
          <Trackpoint>
            <Time>2022-07-10T08:15:23.000Z</Time>
            <Position>
              <LatitudeDegrees>42.7668589912354946136474609375</LatitudeDegrees>
              <LongitudeDegrees>-0.17568142153322696685791015625</LongitudeDegrees>
            </Position>
            <AltitudeMeters>2112.800048828125</AltitudeMeters>
            <DistanceMeters>29811.834597424</DistanceMeters>
          </Trackpoint>
          <Trackpoint>
            <Time>2022-07-10T08:15:26.000Z</Time>
            <Position>
              <LatitudeDegrees>42.76685723103582859039306640625</LatitudeDegrees>
              <LongitudeDegrees>-0.1757101714611053466796875</LongitudeDegrees>
            </Position>
            <AltitudeMeters>2113</AltitudeMeters>
            <DistanceMeters>29814.19309845</DistanceMeters>
          </Trackpoint>
          <Trackpoint>
            <Time>2022-07-10T08:15:27.000Z</Time>
            <Position>
              <LatitudeDegrees>42.7668583206832408905029296875</LatitudeDegrees>
              <LongitudeDegrees>-0.17572031356394290924072265625</LongitudeDegrees>
            </Position>
            <AltitudeMeters>2113.199951171875</AltitudeMeters>
            <DistanceMeters>29815.032351667</DistanceMeters>
          </Trackpoint>
          <Trackpoint>
            <Time>2022-07-10T08:15:30.000Z</Time>
            <Position>
              <LatitudeDegrees>42.76685178279876708984375</LatitudeDegrees>
              <LongitudeDegrees>-0.1757646538317203521728515625</LongitudeDegrees>
            </Position>
            <AltitudeMeters>2113.39990234375</AltitudeMeters>
            <DistanceMeters>29818.728634349</DistanceMeters>
          </Trackpoint>
          <Trackpoint>
            <Time>2022-07-10T08:15:31.000Z</Time>
            <Position>
              <LatitudeDegrees>42.76685404591262340545654296875</LatitudeDegrees>
              <LongitudeDegrees>-0.17578133381903171539306640625</LongitudeDegrees>
            </Position>
            <AltitudeMeters>2113.60009765625</AltitudeMeters>
            <DistanceMeters>29820.115503586</DistanceMeters>
          </Trackpoint>
          <Trackpoint>
            <Time>2022-07-10T08:15:32.000Z</Time>
            <Position>
              <LatitudeDegrees>42.7668502740561962127685546875</LatitudeDegrees>
              <LongitudeDegrees>-0.17578988336026668548583984375</LongitudeDegrees>
            </Position>
            <AltitudeMeters>2114.199951171875</AltitudeMeters>
            <DistanceMeters>29820.932954292</DistanceMeters>
          </Trackpoint>
          <Trackpoint>
            <Time>2022-07-10T08:15:38.000Z</Time>
            <Position>
              <LatitudeDegrees>42.76687868870794773101806640625</LatitudeDegrees>
              <LongitudeDegrees>-0.17587034963071346282958984375</LongitudeDegrees>
            </Position>
            <AltitudeMeters>2115</AltitudeMeters>
            <DistanceMeters>29828.228382351</DistanceMeters>
          </Trackpoint>
          <Trackpoint>
            <Time>2022-07-10T08:15:42.000Z</Time>
            <Position>
              <LatitudeDegrees>42.7668727375566959381103515625</LatitudeDegrees>
              <LongitudeDegrees>-0.17592567019164562225341796875</LongitudeDegrees>
            </Position>
            <AltitudeMeters>2115.60009765625</AltitudeMeters>
            <DistanceMeters>29832.795599949</DistanceMeters>
          </Trackpoint>
          <Trackpoint>
            <Time>2022-07-10T08:15:43.000Z</Time>
            <Position>
              <LatitudeDegrees>42.7668718993663787841796875</LatitudeDegrees>
              <LongitudeDegrees>-0.17593941651284694671630859375</LongitudeDegrees>
            </Position>
            <AltitudeMeters>2115.800048828125</AltitudeMeters>
            <DistanceMeters>29833.923979663</DistanceMeters>
          </Trackpoint>
          <Trackpoint>
            <Time>2022-07-10T08:15:45.000Z</Time>
            <Position>
              <LatitudeDegrees>42.76687114499509334564208984375</LatitudeDegrees>
              <LongitudeDegrees>-0.17595534212887287139892578125</LongitudeDegrees>
            </Position>
            <AltitudeMeters>2116</AltitudeMeters>
            <DistanceMeters>29835.230380998</DistanceMeters>
          </Trackpoint>
          <Trackpoint>
            <Time>2022-07-10T08:15:47.000Z</Time>
            <Position>
              <LatitudeDegrees>42.7668770961463451385498046875</LatitudeDegrees>
              <LongitudeDegrees>-0.1759701780974864959716796875</LongitudeDegrees>
            </Position>
            <AltitudeMeters>2116.199951171875</AltitudeMeters>
            <DistanceMeters>29836.613990844</DistanceMeters>
          </Trackpoint>
          <Trackpoint>
            <Time>2022-07-10T08:15:53.000Z</Time>
            <Position>
              <LatitudeDegrees>42.766901738941669464111328125</LatitudeDegrees>
              <LongitudeDegrees>-0.1760117523372173309326171875</LongitudeDegrees>
            </Position>
            <AltitudeMeters>2116.39990234375</AltitudeMeters>
            <DistanceMeters>29840.981086154</DistanceMeters>
          </Trackpoint>
          <Trackpoint>
            <Time>2022-07-10T08:15:55.000Z</Time>
            <Position>
              <LatitudeDegrees>42.76689964346587657928466796875</LatitudeDegrees>
              <LongitudeDegrees>-0.17603128217160701751708984375</LongitudeDegrees>
            </Position>
            <AltitudeMeters>2116.800048828125</AltitudeMeters>
            <DistanceMeters>29842.596540298</DistanceMeters>
          </Trackpoint>
          <Trackpoint>
            <Time>2022-07-10T08:16:00.000Z</Time>
            <Position>
              <LatitudeDegrees>42.76688220910727977752685546875</LatitudeDegrees>
              <LongitudeDegrees>-0.17609364353120326995849609375</LongitudeDegrees>
            </Position>
            <AltitudeMeters>2118</AltitudeMeters>
            <DistanceMeters>29848.04878861</DistanceMeters>
          </Trackpoint>
          <Trackpoint>
            <Time>2022-07-10T08:16:05.000Z</Time>
            <Position>
              <LatitudeDegrees>42.7668710611760616302490234375</LatitudeDegrees>
              <LongitudeDegrees>-0.1761354692280292510986328125</LongitudeDegrees>
            </Position>
            <AltitudeMeters>2118.39990234375</AltitudeMeters>
            <DistanceMeters>29851.68224038</DistanceMeters>
          </Trackpoint>
          <Trackpoint>
            <Time>2022-07-10T08:16:06.000Z</Time>
            <Position>
              <LatitudeDegrees>42.76686720550060272216796875</LatitudeDegrees>
              <LongitudeDegrees>-0.17614133656024932861328125</LongitudeDegrees>
            </Position>
            <AltitudeMeters>2118.39990234375</AltitudeMeters>
            <DistanceMeters>29852.326742914</DistanceMeters>
          </Trackpoint>
          <Trackpoint>
            <Time>2022-07-10T08:16:07.000Z</Time>
            <Position>
              <LatitudeDegrees>42.76686460711061954498291015625</LatitudeDegrees>
              <LongitudeDegrees>-0.1761482097208499908447265625</LongitudeDegrees>
            </Position>
            <AltitudeMeters>2118.60009765625</AltitudeMeters>
            <DistanceMeters>29852.957078827</DistanceMeters>
          </Trackpoint>
          <Trackpoint>
            <Time>2022-07-10T08:16:12.000Z</Time>
            <Position>
              <LatitudeDegrees>42.76685086078941822052001953125</LatitudeDegrees>
              <LongitudeDegrees>-0.17618936486542224884033203125</LongitudeDegrees>
            </Position>
            <AltitudeMeters>2118.800048828125</AltitudeMeters>
            <DistanceMeters>29856.649695167</DistanceMeters>
          </Trackpoint>
          <Trackpoint>
            <Time>2022-07-10T08:16:14.000Z</Time>
            <Position>
              <LatitudeDegrees>42.76686251163482666015625</LatitudeDegrees>
              <LongitudeDegrees>-0.17620696686208248138427734375</LongitudeDegrees>
            </Position>
            <AltitudeMeters>2118.800048828125</AltitudeMeters>
            <DistanceMeters>29858.585536514</DistanceMeters>
          </Trackpoint>
          <Trackpoint>
            <Time>2022-07-10T08:16:15.000Z</Time>
            <Position>
              <LatitudeDegrees>42.76686628349125385284423828125</LatitudeDegrees>
              <LongitudeDegrees>-0.176220126450061798095703125</LongitudeDegrees>
            </Position>
            <AltitudeMeters>2118.800048828125</AltitudeMeters>
            <DistanceMeters>29859.74158639</DistanceMeters>
          </Trackpoint>
          <Trackpoint>
            <Time>2022-07-10T08:16:21.000Z</Time>
            <Position>
              <LatitudeDegrees>42.76686963625252246856689453125</LatitudeDegrees>
              <LongitudeDegrees>-0.17628810368478298187255859375</LongitudeDegrees>
            </Position>
            <AltitudeMeters>2118.60009765625</AltitudeMeters>
            <DistanceMeters>29865.308562441</DistanceMeters>
          </Trackpoint>
          <Trackpoint>
            <Time>2022-07-10T08:16:22.000Z</Time>
            <Position>
              <LatitudeDegrees>42.766864188015460968017578125</LatitudeDegrees>
              <LongitudeDegrees>-0.17629531212151050567626953125</LongitudeDegrees>
            </Position>
            <AltitudeMeters>2118.60009765625</AltitudeMeters>
            <DistanceMeters>29866.147815658</DistanceMeters>
          </Trackpoint>
          <Trackpoint>
            <Time>2022-07-10T08:16:24.000Z</Time>
            <Position>
              <LatitudeDegrees>42.766857482492923736572265625</LatitudeDegrees>
              <LongitudeDegrees>-0.1763171888887882232666015625</LongitudeDegrees>
            </Position>
            <AltitudeMeters>2118.800048828125</AltitudeMeters>
            <DistanceMeters>29868.085987942</DistanceMeters>
          </Trackpoint>
          <Trackpoint>
            <Time>2022-07-10T08:16:25.000Z</Time>
            <Position>
              <LatitudeDegrees>42.766854465007781982421875</LatitudeDegrees>
              <LongitudeDegrees>-0.17632531933486461639404296875</LongitudeDegrees>
            </Position>
            <AltitudeMeters>2119</AltitudeMeters>
            <DistanceMeters>29868.834229039</DistanceMeters>
          </Trackpoint>
          <Trackpoint>
            <Time>2022-07-10T08:16:26.000Z</Time>
            <Position>
              <LatitudeDegrees>42.76685102842748165130615234375</LatitudeDegrees>
              <LongitudeDegrees>-0.17633101902902126312255859375</LongitudeDegrees>
            </Position>
            <AltitudeMeters>2119</AltitudeMeters>
            <DistanceMeters>29869.435230751</DistanceMeters>
          </Trackpoint>
          <Trackpoint>
            <Time>2022-07-10T08:16:29.000Z</Time>
            <Position>
              <LatitudeDegrees>42.766833007335662841796875</LatitudeDegrees>
              <LongitudeDegrees>-0.1763473637402057647705078125</LongitudeDegrees>
            </Position>
            <AltitudeMeters>2119</AltitudeMeters>
            <DistanceMeters>29871.842990929</DistanceMeters>
          </Trackpoint>
          <Trackpoint>
            <Time>2022-07-10T08:16:32.000Z</Time>
            <Position>
              <LatitudeDegrees>42.7668197639286518096923828125</LatitudeDegrees>
              <LongitudeDegrees>-0.17635080032050609588623046875</LongitudeDegrees>
            </Position>
            <AltitudeMeters>2119.39990234375</AltitudeMeters>
            <DistanceMeters>29873.345495209</DistanceMeters>
          </Trackpoint>
          <Trackpoint>
            <Time>2022-07-10T08:16:38.000Z</Time>
            <Position>
              <LatitudeDegrees>42.766793109476566314697265625</LatitudeDegrees>
              <LongitudeDegrees>-0.17632381059229373931884765625</LongitudeDegrees>
            </Position>
            <AltitudeMeters>2119.800048828125</AltitudeMeters>
            <DistanceMeters>29877.04177789</DistanceMeters>
          </Trackpoint>
          <Trackpoint>
            <Time>2022-07-10T08:16:39.000Z</Time>
            <Position>
              <LatitudeDegrees>42.7667887508869171142578125</LatitudeDegrees>
              <LongitudeDegrees>-0.17632531933486461639404296875</LongitudeDegrees>
            </Position>
            <AltitudeMeters>2119.800048828125</AltitudeMeters>
            <DistanceMeters>29877.544611999</DistanceMeters>
          </Trackpoint>
          <Trackpoint>
            <Time>2022-07-10T08:16:42.000Z</Time>
            <Position>
              <LatitudeDegrees>42.76677324436604976654052734375</LatitudeDegrees>
              <LongitudeDegrees>-0.176326744258403778076171875</LongitudeDegrees>
            </Position>
            <AltitudeMeters>2120</AltitudeMeters>
            <DistanceMeters>29879.278686811</DistanceMeters>
          </Trackpoint>
          <Trackpoint>
            <Time>2022-07-10T08:16:45.000Z</Time>
            <Position>
              <LatitudeDegrees>42.76676301844418048858642578125</LatitudeDegrees>
              <LongitudeDegrees>-0.176318027079105377197265625</LongitudeDegrees>
            </Position>
            <AltitudeMeters>2120</AltitudeMeters>
            <DistanceMeters>29880.619203582</DistanceMeters>
          </Trackpoint>
          <Trackpoint>
            <Time>2022-07-10T08:16:51.000Z</Time>
            <Position>
              <LatitudeDegrees>42.7667550556361675262451171875</LatitudeDegrees>
              <LongitudeDegrees>-0.17632666043937206268310546875</LongitudeDegrees>
            </Position>
            <AltitudeMeters>2120.199951171875</AltitudeMeters>
            <DistanceMeters>29881.751577573</DistanceMeters>
          </Trackpoint>
          <Trackpoint>
            <Time>2022-07-10T08:16:57.000Z</Time>
            <Position>
              <LatitudeDegrees>42.7667540498077869415283203125</LatitudeDegrees>
              <LongitudeDegrees>-0.1763029396533966064453125</LongitudeDegrees>
            </Position>
            <AltitudeMeters>2120</AltitudeMeters>
            <DistanceMeters>29883.694403338</DistanceMeters>
          </Trackpoint>
          <Trackpoint>
            <Time>2022-07-10T08:16:58.000Z</Time>
            <Position>
              <LatitudeDegrees>42.76675446890294551849365234375</LatitudeDegrees>
              <LongitudeDegrees>-0.17630352638661861419677734375</LongitudeDegrees>
            </Position>
            <AltitudeMeters>2120</AltitudeMeters>
            <DistanceMeters>29883.694403338</DistanceMeters>
          </Trackpoint>
          <Trackpoint>
            <Time>2022-07-10T08:17:03.000Z</Time>
            <Position>
              <LatitudeDegrees>42.766766957938671112060546875</LatitudeDegrees>
              <LongitudeDegrees>-0.176344178617000579833984375</LongitudeDegrees>
            </Position>
            <AltitudeMeters>2119.60009765625</AltitudeMeters>
            <DistanceMeters>29887.295401779</DistanceMeters>
          </Trackpoint>
          <Trackpoint>
            <Time>2022-07-10T08:17:08.000Z</Time>
            <Position>
              <LatitudeDegrees>42.7667818777263164520263671875</LatitudeDegrees>
              <LongitudeDegrees>-0.176334120333194732666015625</LongitudeDegrees>
            </Position>
            <AltitudeMeters>2119.39990234375</AltitudeMeters>
            <DistanceMeters>29889.150249246</DistanceMeters>
          </Trackpoint>
          <Trackpoint>
            <Time>2022-07-10T08:17:10.000Z</Time>
            <Position>
              <LatitudeDegrees>42.76678632013499736785888671875</LatitudeDegrees>
              <LongitudeDegrees>-0.17632246948778629302978515625</LongitudeDegrees>
            </Position>
            <AltitudeMeters>2119</AltitudeMeters>
            <DistanceMeters>29890.225353792</DistanceMeters>
          </Trackpoint>
          <Trackpoint>
            <Time>2022-07-10T08:17:14.000Z</Time>
            <Position>
              <LatitudeDegrees>42.76679101400077342987060546875</LatitudeDegrees>
              <LongitudeDegrees>-0.17632615752518177032470703125</LongitudeDegrees>
            </Position>
            <AltitudeMeters>2118</AltitudeMeters>
            <DistanceMeters>29890.826355504</DistanceMeters>
          </Trackpoint>
          <Trackpoint>
            <Time>2022-07-10T08:17:15.000Z</Time>
            <Position>
              <LatitudeDegrees>42.76679084636270999908447265625</LatitudeDegrees>
              <LongitudeDegrees>-0.17632649280130863189697265625</LongitudeDegrees>
            </Position>
            <AltitudeMeters>2117.800048828125</AltitudeMeters>
            <DistanceMeters>29890.826355504</DistanceMeters>
          </Trackpoint>
          <Trackpoint>
            <Time>2022-07-10T08:17:18.000Z</Time>
            <Position>
              <LatitudeDegrees>42.766782380640506744384765625</LatitudeDegrees>
              <LongitudeDegrees>-0.1763235591351985931396484375</LongitudeDegrees>
            </Position>
            <AltitudeMeters>2117.60009765625</AltitudeMeters>
            <DistanceMeters>29891.795441645</DistanceMeters>
          </Trackpoint>
          <Trackpoint>
            <Time>2022-07-10T08:17:20.000Z</Time>
            <Position>
              <LatitudeDegrees>42.76678497903048992156982421875</LatitudeDegrees>
              <LongitudeDegrees>-0.17632448114454746246337890625</LongitudeDegrees>
            </Position>
            <AltitudeMeters>2117.39990234375</AltitudeMeters>
            <DistanceMeters>29892.095942501</DistanceMeters>
          </Trackpoint>
          <Trackpoint>
            <Time>2022-07-10T08:17:22.000Z</Time>
            <Position>
              <LatitudeDegrees>42.766787074506282806396484375</LatitudeDegrees>
              <LongitudeDegrees>-0.17632179893553256988525390625</LongitudeDegrees>
            </Position>
            <AltitudeMeters>2117</AltitudeMeters>
            <DistanceMeters>29892.396443357</DistanceMeters>
          </Trackpoint>
          <Trackpoint>
            <Time>2022-07-10T08:17:24.000Z</Time>
            <Position>
              <LatitudeDegrees>42.7667909301817417144775390625</LatitudeDegrees>
              <LongitudeDegrees>-0.17631660215556621551513671875</LongitudeDegrees>
            </Position>
            <AltitudeMeters>2117</AltitudeMeters>
            <DistanceMeters>29892.997445069</DistanceMeters>
          </Trackpoint>
          <Trackpoint>
            <Time>2022-07-10T08:17:26.000Z</Time>
            <Position>
              <LatitudeDegrees>42.7668026648461818695068359375</LatitudeDegrees>
              <LongitudeDegrees>-0.1763051189482212066650390625</LongitudeDegrees>
            </Position>
            <AltitudeMeters>2117.199951171875</AltitudeMeters>
            <DistanceMeters>29894.60449263</DistanceMeters>
          </Trackpoint>
          <Trackpoint>
            <Time>2022-07-10T08:17:28.000Z</Time>
            <Position>
              <LatitudeDegrees>42.76680945418775081634521484375</LatitudeDegrees>
              <LongitudeDegrees>-0.17627251334488391876220703125</LongitudeDegrees>
            </Position>
            <AltitudeMeters>2117.199951171875</AltitudeMeters>
            <DistanceMeters>29897.374973631</DistanceMeters>
          </Trackpoint>
          <Trackpoint>
            <Time>2022-07-10T08:17:34.000Z</Time>
            <Position>
              <LatitudeDegrees>42.7667983062565326690673828125</LatitudeDegrees>
              <LongitudeDegrees>-0.1762534864246845245361328125</LongitudeDegrees>
            </Position>
            <AltitudeMeters>2117.199951171875</AltitudeMeters>
            <DistanceMeters>29899.363735428</DistanceMeters>
          </Trackpoint>
          <Trackpoint>
            <Time>2022-07-10T08:17:37.000Z</Time>
            <Position>
              <LatitudeDegrees>42.76676821522414684295654296875</LatitudeDegrees>
              <LongitudeDegrees>-0.17628676258027553558349609375</LongitudeDegrees>
            </Position>
            <AltitudeMeters>2117</AltitudeMeters>
            <DistanceMeters>29903.677780809</DistanceMeters>
          </Trackpoint>
          <Trackpoint>
            <Time>2022-07-10T08:17:43.000Z</Time>
            <Position>
              <LatitudeDegrees>42.7667456679046154022216796875</LatitudeDegrees>
              <LongitudeDegrees>-0.17629816196858882904052734375</LongitudeDegrees>
            </Position>
            <AltitudeMeters>2118</AltitudeMeters>
            <DistanceMeters>29906.353757382</DistanceMeters>
          </Trackpoint>
          <Trackpoint>
            <Time>2022-07-10T08:17:45.000Z</Time>
            <Position>
              <LatitudeDegrees>42.7667389623820781707763671875</LatitudeDegrees>
              <LongitudeDegrees>-0.17629564739763736724853515625</LongitudeDegrees>
            </Position>
            <AltitudeMeters>2118</AltitudeMeters>
            <DistanceMeters>29907.125758059</DistanceMeters>
          </Trackpoint>
          <Trackpoint>
            <Time>2022-07-10T08:17:47.000Z</Time>
            <Position>
              <LatitudeDegrees>42.766731083393096923828125</LatitudeDegrees>
              <LongitudeDegrees>-0.1762933842837810516357421875</LongitudeDegrees>
            </Position>
            <AltitudeMeters>2118</AltitudeMeters>
            <DistanceMeters>29908.022238289</DistanceMeters>
          </Trackpoint>
          <Trackpoint>
            <Time>2022-07-10T08:17:48.000Z</Time>
            <Position>
              <LatitudeDegrees>42.76672504842281341552734375</LatitudeDegrees>
              <LongitudeDegrees>-0.1762977428734302520751953125</LongitudeDegrees>
            </Position>
            <AltitudeMeters>2118.39990234375</AltitudeMeters>
            <DistanceMeters>29908.782452004</DistanceMeters>
          </Trackpoint>
          <Trackpoint>
            <Time>2022-07-10T08:17:49.000Z</Time>
            <Position>
              <LatitudeDegrees>42.76671507395803928375244140625</LatitudeDegrees>
              <LongitudeDegrees>-0.17629933543503284454345703125</LongitudeDegrees>
            </Position>
            <AltitudeMeters>2118.800048828125</AltitudeMeters>
            <DistanceMeters>29909.898763139</DistanceMeters>
          </Trackpoint>
          <Trackpoint>
            <Time>2022-07-10T08:17:50.000Z</Time>
            <Position>
              <LatitudeDegrees>42.76670417748391628265380859375</LatitudeDegrees>
              <LongitudeDegrees>-0.17630855552852153778076171875</LongitudeDegrees>
            </Position>
            <AltitudeMeters>2118.800048828125</AltitudeMeters>
            <DistanceMeters>29911.3273279</DistanceMeters>
          </Trackpoint>
          <Trackpoint>
            <Time>2022-07-10T08:17:51.000Z</Time>
            <Position>
              <LatitudeDegrees>42.76669747196137905120849609375</LatitudeDegrees>
              <LongitudeDegrees>-0.17632582224905490875244140625</LongitudeDegrees>
            </Position>
            <AltitudeMeters>2119.39990234375</AltitudeMeters>
            <DistanceMeters>29912.923097795</DistanceMeters>
          </Trackpoint>
          <Trackpoint>
            <Time>2022-07-10T08:17:53.000Z</Time>
            <Position>
              <LatitudeDegrees>42.76670065708458423614501953125</LatitudeDegrees>
              <LongitudeDegrees>-0.17636538483202457427978515625</LongitudeDegrees>
            </Position>
            <AltitudeMeters>2120</AltitudeMeters>
            <DistanceMeters>29916.174900297</DistanceMeters>
          </Trackpoint>
          <Trackpoint>
            <Time>2022-07-10T08:17:54.000Z</Time>
            <Position>
              <LatitudeDegrees>42.76670417748391628265380859375</LatitudeDegrees>
              <LongitudeDegrees>-0.1763788796961307525634765625</LongitudeDegrees>
            </Position>
            <AltitudeMeters>2120</AltitudeMeters>
            <DistanceMeters>29917.346468315</DistanceMeters>
          </Trackpoint>
          <Trackpoint>
            <Time>2022-07-10T08:18:00.000Z</Time>
            <Position>
              <LatitudeDegrees>42.7667121402919292449951171875</LatitudeDegrees>
              <LongitudeDegrees>-0.1763902790844440460205078125</LongitudeDegrees>
            </Position>
            <AltitudeMeters>2119.800048828125</AltitudeMeters>
            <DistanceMeters>29918.63196588</DistanceMeters>
          </Trackpoint>
          <Trackpoint>
            <Time>2022-07-10T08:18:01.000Z</Time>
            <Position>
              <LatitudeDegrees>42.76671607978641986846923828125</LatitudeDegrees>
              <LongitudeDegrees>-0.1763953082263469696044921875</LongitudeDegrees>
            </Position>
            <AltitudeMeters>2119.800048828125</AltitudeMeters>
            <DistanceMeters>29919.232967592</DistanceMeters>
          </Trackpoint>
          <Trackpoint>
            <Time>2022-07-10T08:18:07.000Z</Time>
            <Position>
              <LatitudeDegrees>42.76670987717807292938232421875</LatitudeDegrees>
              <LongitudeDegrees>-0.1764127425849437713623046875</LongitudeDegrees>
            </Position>
            <AltitudeMeters>2119.60009765625</AltitudeMeters>
            <DistanceMeters>29920.817379549</DistanceMeters>
          </Trackpoint>
          <Trackpoint>
            <Time>2022-07-10T08:18:12.000Z</Time>
            <Position>
              <LatitudeDegrees>42.766677439212799072265625</LatitudeDegrees>
              <LongitudeDegrees>-0.17639891244471073150634765625</LongitudeDegrees>
            </Position>
            <AltitudeMeters>2119.39990234375</AltitudeMeters>
            <DistanceMeters>29924.599395029</DistanceMeters>
          </Trackpoint>
          <Trackpoint>
            <Time>2022-07-10T08:18:18.000Z</Time>
            <Position>
              <LatitudeDegrees>42.76664734818041324615478515625</LatitudeDegrees>
              <LongitudeDegrees>-0.17641969956457614898681640625</LongitudeDegrees>
            </Position>
            <AltitudeMeters>2119.800048828125</AltitudeMeters>
            <DistanceMeters>29928.355054679</DistanceMeters>
          </Trackpoint>
          <Trackpoint>
            <Time>2022-07-10T08:18:20.000Z</Time>
            <Position>
              <LatitudeDegrees>42.766634859144687652587890625</LatitudeDegrees>
              <LongitudeDegrees>-0.17644844949245452880859375</LongitudeDegrees>
            </Position>
            <AltitudeMeters>2119.800048828125</AltitudeMeters>
            <DistanceMeters>29931.082834543</DistanceMeters>
          </Trackpoint>
          <Trackpoint>
            <Time>2022-07-10T08:18:23.000Z</Time>
            <Position>
              <LatitudeDegrees>42.766619436442852020263671875</LatitudeDegrees>
              <LongitudeDegrees>-0.17648734152317047119140625</LongitudeDegrees>
            </Position>
            <AltitudeMeters>2120.39990234375</AltitudeMeters>
            <DistanceMeters>29934.693849689</DistanceMeters>
          </Trackpoint>
          <Trackpoint>
            <Time>2022-07-10T08:18:24.000Z</Time>
            <Position>
              <LatitudeDegrees>42.76662169955670833587646484375</LatitudeDegrees>
              <LongitudeDegrees>-0.17650921829044818878173828125</LongitudeDegrees>
            </Position>
            <AltitudeMeters>2120.60009765625</AltitudeMeters>
            <DistanceMeters>29936.496854825</DistanceMeters>
          </Trackpoint>
          <Trackpoint>
            <Time>2022-07-10T08:18:25.000Z</Time>
            <Position>
              <LatitudeDegrees>42.7666229568421840667724609375</LatitudeDegrees>
              <LongitudeDegrees>-0.17653168179094791412353515625</LongitudeDegrees>
            </Position>
            <AltitudeMeters>2121</AltitudeMeters>
            <DistanceMeters>29938.334584019</DistanceMeters>
          </Trackpoint>
          <Trackpoint>
            <Time>2022-07-10T08:18:26.000Z</Time>
            <Position>
              <LatitudeDegrees>42.7666224539279937744140625</LatitudeDegrees>
              <LongitudeDegrees>-0.17655230127274990081787109375</LongitudeDegrees>
            </Position>
            <AltitudeMeters>2121.199951171875</AltitudeMeters>
            <DistanceMeters>29940.018461688</DistanceMeters>
          </Trackpoint>
          <Trackpoint>
            <Time>2022-07-10T08:18:28.000Z</Time>
            <Position>
              <LatitudeDegrees>42.7666242979466915130615234375</LatitudeDegrees>
              <LongitudeDegrees>-0.176594965159893035888671875</LongitudeDegrees>
            </Position>
            <AltitudeMeters>2121.199951171875</AltitudeMeters>
            <DistanceMeters>29943.50996612</DistanceMeters>
          </Trackpoint>
          <Trackpoint>
            <Time>2022-07-10T08:18:31.000Z</Time>
            <Position>
              <LatitudeDegrees>42.7666149102151393890380859375</LatitudeDegrees>
              <LongitudeDegrees>-0.1766336895525455474853515625</LongitudeDegrees>
            </Position>
            <AltitudeMeters>2120.800048828125</AltitudeMeters>
            <DistanceMeters>29946.842681833</DistanceMeters>
          </Trackpoint>
          <Trackpoint>
            <Time>2022-07-10T08:18:35.000Z</Time>
            <Position>
              <LatitudeDegrees>42.766616083681583404541015625</LatitudeDegrees>
              <LongitudeDegrees>-0.176678784191608428955078125</LongitudeDegrees>
            </Position>
            <AltitudeMeters>2120.60009765625</AltitudeMeters>
            <DistanceMeters>29950.530404047</DistanceMeters>
          </Trackpoint>
          <Trackpoint>
            <Time>2022-07-10T08:18:37.000Z</Time>
            <Position>
              <LatitudeDegrees>42.76661935262382030487060546875</LatitudeDegrees>
              <LongitudeDegrees>-0.176691524684429168701171875</LongitudeDegrees>
            </Position>
            <AltitudeMeters>2120.60009765625</AltitudeMeters>
            <DistanceMeters>29951.634514693</DistanceMeters>
          </Trackpoint>
          <Trackpoint>
            <Time>2022-07-10T08:18:38.000Z</Time>
            <Position>
              <LatitudeDegrees>42.76662052609026432037353515625</LatitudeDegrees>
              <LongitudeDegrees>-0.1766967214643955230712890625</LongitudeDegrees>
            </Position>
            <AltitudeMeters>2120.60009765625</AltitudeMeters>
            <DistanceMeters>29952.080229492</DistanceMeters>
          </Trackpoint>
          <Trackpoint>
            <Time>2022-07-10T08:18:39.000Z</Time>
            <Position>
              <LatitudeDegrees>42.7666239626705646514892578125</LatitudeDegrees>
              <LongitudeDegrees>-0.17670401372015476226806640625</LongitudeDegrees>
            </Position>
            <AltitudeMeters>2120.800048828125</AltitudeMeters>
            <DistanceMeters>29952.784966467</DistanceMeters>
          </Trackpoint>
          <Trackpoint>
            <Time>2022-07-10T08:18:43.000Z</Time>
            <Position>
              <LatitudeDegrees>42.7666521258652210235595703125</LatitudeDegrees>
              <LongitudeDegrees>-0.176726393401622772216796875</LongitudeDegrees>
            </Position>
            <AltitudeMeters>2121.800048828125</AltitudeMeters>
            <DistanceMeters>29956.41344431</DistanceMeters>
          </Trackpoint>
          <Trackpoint>
            <Time>2022-07-10T08:18:45.000Z</Time>
            <Position>
              <LatitudeDegrees>42.76665522716939449310302734375</LatitudeDegrees>
              <LongitudeDegrees>-0.17674474976956844329833984375</LongitudeDegrees>
            </Position>
            <AltitudeMeters>2122.199951171875</AltitudeMeters>
            <DistanceMeters>29957.951586055</DistanceMeters>
          </Trackpoint>
          <Trackpoint>
            <Time>2022-07-10T08:18:46.000Z</Time>
            <Position>
              <LatitudeDegrees>42.76665153913199901580810546875</LatitudeDegrees>
              <LongitudeDegrees>-0.1767580769956111907958984375</LongitudeDegrees>
            </Position>
            <AltitudeMeters>2122.199951171875</AltitudeMeters>
            <DistanceMeters>29959.115420866</DistanceMeters>
          </Trackpoint>
          <Trackpoint>
            <Time>2022-07-10T08:18:48.000Z</Time>
            <Position>
              <LatitudeDegrees>42.76664257049560546875</LatitudeDegrees>
              <LongitudeDegrees>-0.17678640782833099365234375</LongitudeDegrees>
            </Position>
            <AltitudeMeters>2122.199951171875</AltitudeMeters>
            <DistanceMeters>29961.634973156</DistanceMeters>
          </Trackpoint>
          <Trackpoint>
            <Time>2022-07-10T08:18:51.000Z</Time>
            <Position>
              <LatitudeDegrees>42.76664248667657375335693359375</LatitudeDegrees>
              <LongitudeDegrees>-0.17681700177490711212158203125</LongitudeDegrees>
            </Position>
            <AltitudeMeters>2122.199951171875</AltitudeMeters>
            <DistanceMeters>29964.134735724</DistanceMeters>
          </Trackpoint>
          <Trackpoint>
            <Time>2022-07-10T08:18:55.000Z</Time>
            <Position>
              <LatitudeDegrees>42.76662890799343585968017578125</LatitudeDegrees>
              <LongitudeDegrees>-0.17687416635453701019287109375</LongitudeDegrees>
            </Position>
            <AltitudeMeters>2122.199951171875</AltitudeMeters>
            <DistanceMeters>29969.04496017</DistanceMeters>
          </Trackpoint>
          <Trackpoint>
            <Time>2022-07-10T08:18:57.000Z</Time>
            <Position>
              <LatitudeDegrees>42.76663192547857761383056640625</LatitudeDegrees>
              <LongitudeDegrees>-0.1768891699612140655517578125</LongitudeDegrees>
            </Position>
            <AltitudeMeters>2122.39990234375</AltitudeMeters>
            <DistanceMeters>29970.319877328</DistanceMeters>
          </Trackpoint>
          <Trackpoint>
            <Time>2022-07-10T08:18:59.000Z</Time>
            <Position>
              <LatitudeDegrees>42.76663678698241710662841796875</LatitudeDegrees>
              <LongitudeDegrees>-0.17690584994852542877197265625</LongitudeDegrees>
            </Position>
            <AltitudeMeters>2122.800048828125</AltitudeMeters>
            <DistanceMeters>29971.788954681</DistanceMeters>
          </Trackpoint>
          <Trackpoint>
            <Time>2022-07-10T08:19:02.000Z</Time>
            <Position>
              <LatitudeDegrees>42.7666470967233180999755859375</LatitudeDegrees>
              <LongitudeDegrees>-0.17694055102765560150146484375</LongitudeDegrees>
            </Position>
            <AltitudeMeters>2123</AltitudeMeters>
            <DistanceMeters>29974.847575154</DistanceMeters>
          </Trackpoint>
          <Trackpoint>
            <Time>2022-07-10T08:19:03.000Z</Time>
            <Position>
              <LatitudeDegrees>42.7666507847607135772705078125</LatitudeDegrees>
              <LongitudeDegrees>-0.1769565604627132415771484375</LongitudeDegrees>
            </Position>
            <AltitudeMeters>2123</AltitudeMeters>
            <DistanceMeters>29976.218069919</DistanceMeters>
          </Trackpoint>
          <Trackpoint>
            <Time>2022-07-10T08:19:04.000Z</Time>
            <Position>
              <LatitudeDegrees>42.76664952747523784637451171875</LatitudeDegrees>
              <LongitudeDegrees>-0.1769706420600414276123046875</LongitudeDegrees>
            </Position>
            <AltitudeMeters>2123.199951171875</AltitudeMeters>
            <DistanceMeters>29977.374119794</DistanceMeters>
          </Trackpoint>
          <Trackpoint>
            <Time>2022-07-10T08:19:05.000Z</Time>
            <Position>
              <LatitudeDegrees>42.76664935983717441558837890625</LatitudeDegrees>
              <LongitudeDegrees>-0.17697894014418125152587890625</LongitudeDegrees>
            </Position>
            <AltitudeMeters>2123.39990234375</AltitudeMeters>
            <DistanceMeters>29978.052746273</DistanceMeters>
          </Trackpoint>
          <Trackpoint>
            <Time>2022-07-10T08:19:06.000Z</Time>
            <Position>
              <LatitudeDegrees>42.7666492760181427001953125</LatitudeDegrees>
              <LongitudeDegrees>-0.17698782496154308319091796875</LongitudeDegrees>
            </Position>
            <AltitudeMeters>2123.60009765625</AltitudeMeters>
            <DistanceMeters>29978.776448169</DistanceMeters>
          </Trackpoint>
          <Trackpoint>
            <Time>2022-07-10T08:19:11.000Z</Time>
            <Position>
              <LatitudeDegrees>42.76665623299777507781982421875</LatitudeDegrees>
              <LongitudeDegrees>-0.17704649828374385833740234375</LongitudeDegrees>
            </Position>
            <AltitudeMeters>2124.199951171875</AltitudeMeters>
            <DistanceMeters>29983.631188071</DistanceMeters>
          </Trackpoint>
          <Trackpoint>
            <Time>2022-07-10T08:19:17.000Z</Time>
            <Position>
              <LatitudeDegrees>42.766679786145687103271484375</LatitudeDegrees>
              <LongitudeDegrees>-0.177111290395259857177734375</LongitudeDegrees>
            </Position>
            <AltitudeMeters>2124</AltitudeMeters>
            <DistanceMeters>29989.538151367</DistanceMeters>
          </Trackpoint>
          <Trackpoint>
            <Time>2022-07-10T08:19:18.000Z</Time>
            <Position>
              <LatitudeDegrees>42.766683138906955718994140625</LatitudeDegrees>
              <LongitudeDegrees>-0.177116654813289642333984375</LongitudeDegrees>
            </Position>
            <AltitudeMeters>2124.199951171875</AltitudeMeters>
            <DistanceMeters>29990.123935376</DistanceMeters>
          </Trackpoint>
          <Trackpoint>
            <Time>2022-07-10T08:19:19.000Z</Time>
            <Position>
              <LatitudeDegrees>42.7666856534779071807861328125</LatitudeDegrees>
              <LongitudeDegrees>-0.17712042666971683502197265625</LongitudeDegrees>
            </Position>
            <AltitudeMeters>2124.39990234375</AltitudeMeters>
            <DistanceMeters>29990.548907762</DistanceMeters>
          </Trackpoint>
          <Trackpoint>
            <Time>2022-07-10T08:19:22.000Z</Time>
            <Position>
              <LatitudeDegrees>42.76668188162147998809814453125</LatitudeDegrees>
              <LongitudeDegrees>-0.17715512774884700775146484375</LongitudeDegrees>
            </Position>
            <AltitudeMeters>2125.199951171875</AltitudeMeters>
            <DistanceMeters>29993.413927742</DistanceMeters>
          </Trackpoint>
          <Trackpoint>
            <Time>2022-07-10T08:19:23.000Z</Time>
            <Position>
              <LatitudeDegrees>42.7666841447353363037109375</LatitudeDegrees>
              <LongitudeDegrees>-0.17717289738357067108154296875</LongitudeDegrees>
            </Position>
            <AltitudeMeters>2125.39990234375</AltitudeMeters>
            <DistanceMeters>29994.886075271</DistanceMeters>
          </Trackpoint>
          <Trackpoint>
            <Time>2022-07-10T08:19:24.000Z</Time>
            <Position>
              <LatitudeDegrees>42.76668909005820751190185546875</LatitudeDegrees>
              <LongitudeDegrees>-0.1771912537515163421630859375</LongitudeDegrees>
            </Position>
            <AltitudeMeters>2125.800048828125</AltitudeMeters>
            <DistanceMeters>29996.481845166</DistanceMeters>
          </Trackpoint>
          <Trackpoint>
            <Time>2022-07-10T08:19:25.000Z</Time>
            <Position>
              <LatitudeDegrees>42.76669085025787353515625</LatitudeDegrees>
              <LongitudeDegrees>-0.17720391042530536651611328125</LongitudeDegrees>
            </Position>
            <AltitudeMeters>2126.199951171875</AltitudeMeters>
            <DistanceMeters>29997.531449532</DistanceMeters>
          </Trackpoint>
          <Trackpoint>
            <Time>2022-07-10T08:19:27.000Z</Time>
            <Position>
              <LatitudeDegrees>42.76669529266655445098876953125</LatitudeDegrees>
              <LongitudeDegrees>-0.17722520045936107635498046875</LongitudeDegrees>
            </Position>
            <AltitudeMeters>2126.800048828125</AltitudeMeters>
            <DistanceMeters>29999.339456079</DistanceMeters>
          </Trackpoint>
          <Trackpoint>
            <Time>2022-07-10T08:19:30.000Z</Time>
            <Position>
              <LatitudeDegrees>42.76667752303183078765869140625</LatitudeDegrees>
              <LongitudeDegrees>-0.177232660353183746337890625</LongitudeDegrees>
            </Position>
            <AltitudeMeters>2127.39990234375</AltitudeMeters>
            <DistanceMeters>30001.408334092</DistanceMeters>
          </Trackpoint>
          <Trackpoint>
            <Time>2022-07-10T08:19:32.000Z</Time>
            <Position>
              <LatitudeDegrees>42.766657657921314239501953125</LatitudeDegrees>
              <LongitudeDegrees>-0.17724380828440189361572265625</LongitudeDegrees>
            </Position>
            <AltitudeMeters>2127.800048828125</AltitudeMeters>
            <DistanceMeters>30003.799157881</DistanceMeters>
          </Trackpoint>
          <Trackpoint>
            <Time>2022-07-10T08:19:33.000Z</Time>
            <Position>
              <LatitudeDegrees>42.766652964055538177490234375</LatitudeDegrees>
              <LongitudeDegrees>-0.1772532798349857330322265625</LongitudeDegrees>
            </Position>
            <AltitudeMeters>2128</AltitudeMeters>
            <DistanceMeters>30004.73022573</DistanceMeters>
          </Trackpoint>
          <Trackpoint>
            <Time>2022-07-10T08:19:34.000Z</Time>
            <Position>
              <LatitudeDegrees>42.76664718054234981536865234375</LatitudeDegrees>
              <LongitudeDegrees>-0.1772616617381572723388671875</LongitudeDegrees>
            </Position>
            <AltitudeMeters>2128</AltitudeMeters>
            <DistanceMeters>30005.670942207</DistanceMeters>
          </Trackpoint>
          <Trackpoint>
            <Time>2022-07-10T08:19:38.000Z</Time>
            <Position>
              <LatitudeDegrees>42.76663527823984622955322265625</LatitudeDegrees>
              <LongitudeDegrees>-0.17729795537889003753662109375</LongitudeDegrees>
            </Position>
            <AltitudeMeters>2128.800048828125</AltitudeMeters>
            <DistanceMeters>30008.918576621</DistanceMeters>
          </Trackpoint>
          <Trackpoint>
            <Time>2022-07-10T08:19:39.000Z</Time>
            <Position>
              <LatitudeDegrees>42.76663460768759250640869140625</LatitudeDegrees>
              <LongitudeDegrees>-0.17730298452079296112060546875</LongitudeDegrees>
            </Position>
            <AltitudeMeters>2129</AltitudeMeters>
            <DistanceMeters>30009.332788466</DistanceMeters>
          </Trackpoint>
          <Trackpoint>
            <Time>2022-07-10T08:19:40.000Z</Time>
            <Position>
              <LatitudeDegrees>42.76663519442081451416015625</LatitudeDegrees>
              <LongitudeDegrees>-0.1773116178810596466064453125</LongitudeDegrees>
            </Position>
            <AltitudeMeters>2129.199951171875</AltitudeMeters>
            <DistanceMeters>30010.031089353</DistanceMeters>
          </Trackpoint>
          <Trackpoint>
            <Time>2022-07-10T08:19:42.000Z</Time>
            <Position>
              <LatitudeDegrees>42.766629159450531005859375</LatitudeDegrees>
              <LongitudeDegrees>-0.177321843802928924560546875</LongitudeDegrees>
            </Position>
            <AltitudeMeters>2129.39990234375</AltitudeMeters>
            <DistanceMeters>30011.097761576</DistanceMeters>
          </Trackpoint>
          <Trackpoint>
            <Time>2022-07-10T08:19:43.000Z</Time>
            <Position>
              <LatitudeDegrees>42.7666199393570423126220703125</LatitudeDegrees>
              <LongitudeDegrees>-0.17732687294483184814453125</LongitudeDegrees>
            </Position>
            <AltitudeMeters>2129.60009765625</AltitudeMeters>
            <DistanceMeters>30012.205953976</DistanceMeters>
          </Trackpoint>
          <Trackpoint>
            <Time>2022-07-10T08:19:45.000Z</Time>
            <Position>
              <LatitudeDegrees>42.766602002084255218505859375</LatitudeDegrees>
              <LongitudeDegrees>-0.1773498393595218658447265625</LongitudeDegrees>
            </Position>
            <AltitudeMeters>2129.60009765625</AltitudeMeters>
            <DistanceMeters>30014.945295781</DistanceMeters>
          </Trackpoint>
          <Trackpoint>
            <Time>2022-07-10T08:19:46.000Z</Time>
            <Position>
              <LatitudeDegrees>42.76660057716071605682373046875</LatitudeDegrees>
              <LongitudeDegrees>-0.177361071109771728515625</LongitudeDegrees>
            </Position>
            <AltitudeMeters>2129.800048828125</AltitudeMeters>
            <DistanceMeters>30015.87636363</DistanceMeters>
          </Trackpoint>
          <Trackpoint>
            <Time>2022-07-10T08:19:48.000Z</Time>
            <Position>
              <LatitudeDegrees>42.766600660979747772216796875</LatitudeDegrees>
              <LongitudeDegrees>-0.177386887371540069580078125</LongitudeDegrees>
            </Position>
            <AltitudeMeters>2130.199951171875</AltitudeMeters>
            <DistanceMeters>30017.98415812</DistanceMeters>
          </Trackpoint>
          <Trackpoint>
            <Time>2022-07-10T08:19:50.000Z</Time>
            <Position>
              <LatitudeDegrees>42.7665964700281620025634765625</LatitudeDegrees>
              <LongitudeDegrees>-0.17740641720592975616455078125</LongitudeDegrees>
            </Position>
            <AltitudeMeters>2130.60009765625</AltitudeMeters>
            <DistanceMeters>30019.64644672</DistanceMeters>
          </Trackpoint>
          <Trackpoint>
            <Time>2022-07-10T08:19:51.000Z</Time>
            <Position>
              <LatitudeDegrees>42.76659538038074970245361328125</LatitudeDegrees>
              <LongitudeDegrees>-0.17741731368005275726318359375</LongitudeDegrees>
            </Position>
            <AltitudeMeters>2130.800048828125</AltitudeMeters>
            <DistanceMeters>30020.542926951</DistanceMeters>
          </Trackpoint>
          <Trackpoint>
            <Time>2022-07-10T08:19:52.000Z</Time>
            <Position>
              <LatitudeDegrees>42.7665988169610500335693359375</LatitudeDegrees>
              <LongitudeDegrees>-0.17742804251611232757568359375</LongitudeDegrees>
            </Position>
            <AltitudeMeters>2130.800048828125</AltitudeMeters>
            <DistanceMeters>30021.493194094</DistanceMeters>
          </Trackpoint>
          <Trackpoint>
            <Time>2022-07-10T08:19:53.000Z</Time>
            <Position>
              <LatitudeDegrees>42.7666038461029529571533203125</LatitudeDegrees>
              <LongitudeDegrees>-0.17743927426636219024658203125</LongitudeDegrees>
            </Position>
            <AltitudeMeters>2130.800048828125</AltitudeMeters>
            <DistanceMeters>30022.564090779</DistanceMeters>
          </Trackpoint>
          <Trackpoint>
            <Time>2022-07-10T08:19:55.000Z</Time>
            <Position>
              <LatitudeDegrees>42.76661239564418792724609375</LatitudeDegrees>
              <LongitudeDegrees>-0.17746173776686191558837890625</LongitudeDegrees>
            </Position>
            <AltitudeMeters>2130.800048828125</AltitudeMeters>
            <DistanceMeters>30024.628599457</DistanceMeters>
          </Trackpoint>
          <Trackpoint>
            <Time>2022-07-10T08:19:58.000Z</Time>
            <Position>
              <LatitudeDegrees>42.76661080308258533477783203125</LatitudeDegrees>
              <LongitudeDegrees>-0.1774940080940723419189453125</LongitudeDegrees>
            </Position>
            <AltitudeMeters>2131.199951171875</AltitudeMeters>
            <DistanceMeters>30027.272323944</DistanceMeters>
          </Trackpoint>
          <Trackpoint>
            <Time>2022-07-10T08:19:59.000Z</Time>
            <Position>
              <LatitudeDegrees>42.766610719263553619384765625</LatitudeDegrees>
              <LongitudeDegrees>-0.177504234015941619873046875</LongitudeDegrees>
            </Position>
            <AltitudeMeters>2131.39990234375</AltitudeMeters>
            <DistanceMeters>30028.106179979</DistanceMeters>
          </Trackpoint>
          <Trackpoint>
            <Time>2022-07-10T08:20:00.000Z</Time>
            <Position>
              <LatitudeDegrees>42.76661231182515621185302734375</LatitudeDegrees>
              <LongitudeDegrees>-0.17751789651811122894287109375</LongitudeDegrees>
            </Position>
            <AltitudeMeters>2131.60009765625</AltitudeMeters>
            <DistanceMeters>30029.23855397</DistanceMeters>
          </Trackpoint>
          <Trackpoint>
            <Time>2022-07-10T08:20:04.000Z</Time>
            <Position>
              <LatitudeDegrees>42.76662521995604038238525390625</LatitudeDegrees>
              <LongitudeDegrees>-0.177603475749492645263671875</LongitudeDegrees>
            </Position>
            <AltitudeMeters>2132</AltitudeMeters>
            <DistanceMeters>30036.377584117</DistanceMeters>
          </Trackpoint>
          <Trackpoint>
            <Time>2022-07-10T08:20:06.000Z</Time>
            <Position>
              <LatitudeDegrees>42.76662354357540607452392578125</LatitudeDegrees>
              <LongitudeDegrees>-0.17761914990842342376708984375</LongitudeDegrees>
            </Position>
            <AltitudeMeters>2132.199951171875</AltitudeMeters>
            <DistanceMeters>30037.673575714</DistanceMeters>
          </Trackpoint>
          <Trackpoint>
            <Time>2022-07-10T08:20:08.000Z</Time>
            <Position>
              <LatitudeDegrees>42.766621112823486328125</LatitudeDegrees>
              <LongitudeDegrees>-0.17763507552444934844970703125</LongitudeDegrees>
            </Position>
            <AltitudeMeters>2132.39990234375</AltitudeMeters>
            <DistanceMeters>30039.003949715</DistanceMeters>
          </Trackpoint>
          <Trackpoint>
            <Time>2022-07-10T08:20:10.000Z</Time>
            <Position>
              <LatitudeDegrees>42.76660996489226818084716796875</LatitudeDegrees>
              <LongitudeDegrees>-0.17764530144631862640380859375</LongitudeDegrees>
            </Position>
            <AltitudeMeters>2132.800048828125</AltitudeMeters>
            <DistanceMeters>30040.50043191</DistanceMeters>
          </Trackpoint>
          <Trackpoint>
            <Time>2022-07-10T08:20:12.000Z</Time>
            <Position>
              <LatitudeDegrees>42.7665978111326694488525390625</LatitudeDegrees>
              <LongitudeDegrees>-0.17766172997653484344482421875</LongitudeDegrees>
            </Position>
            <AltitudeMeters>2133</AltitudeMeters>
            <DistanceMeters>30042.405711608</DistanceMeters>
          </Trackpoint>
          <Trackpoint>
            <Time>2022-07-10T08:20:14.000Z</Time>
            <Position>
              <LatitudeDegrees>42.7666071988642215728759765625</LatitudeDegrees>
              <LongitudeDegrees>-0.17769508995115756988525390625</LongitudeDegrees>
            </Position>
            <AltitudeMeters>2133</AltitudeMeters>
            <DistanceMeters>30045.32536778</DistanceMeters>
          </Trackpoint>
          <Trackpoint>
            <Time>2022-07-10T08:20:15.000Z</Time>
            <Position>
              <LatitudeDegrees>42.76660778559744358062744140625</LatitudeDegrees>
              <LongitudeDegrees>-0.17770699225366115570068359375</LongitudeDegrees>
            </Position>
            <AltitudeMeters>2133</AltitudeMeters>
            <DistanceMeters>30046.303727685</DistanceMeters>
          </Trackpoint>
          <Trackpoint>
            <Time>2022-07-10T08:20:17.000Z</Time>
            <Position>
              <LatitudeDegrees>42.7666132338345050811767578125</LatitudeDegrees>
              <LongitudeDegrees>-0.1777149550616741180419921875</LongitudeDegrees>
            </Position>
            <AltitudeMeters>2133.199951171875</AltitudeMeters>
            <DistanceMeters>30047.195157282</DistanceMeters>
          </Trackpoint>
          <Trackpoint>
            <Time>2022-07-10T08:20:19.000Z</Time>
            <Position>
              <LatitudeDegrees>42.76661599986255168914794921875</LatitudeDegrees>
              <LongitudeDegrees>-0.17771822400391101837158203125</LongitudeDegrees>
            </Position>
            <AltitudeMeters>2133.39990234375</AltitudeMeters>
            <DistanceMeters>30047.598321487</DistanceMeters>
          </Trackpoint>
          <Trackpoint>
            <Time>2022-07-10T08:20:24.000Z</Time>
            <Position>
              <LatitudeDegrees>42.766587249934673309326171875</LatitudeDegrees>
              <LongitudeDegrees>-0.17776583321392536163330078125</LongitudeDegrees>
            </Position>
            <AltitudeMeters>2133.199951171875</AltitudeMeters>
            <DistanceMeters>30052.635633747</DistanceMeters>
          </Trackpoint>
          <Trackpoint>
            <Time>2022-07-10T08:20:27.000Z</Time>
            <Position>
              <LatitudeDegrees>42.7665636129677295684814453125</LatitudeDegrees>
              <LongitudeDegrees>-0.1778001151978969573974609375</LongitudeDegrees>
            </Position>
            <AltitudeMeters>2133.39990234375</AltitudeMeters>
            <DistanceMeters>30056.478051604</DistanceMeters>
          </Trackpoint>
          <Trackpoint>
            <Time>2022-07-10T08:20:31.000Z</Time>
            <Position>
              <LatitudeDegrees>42.76656704954802989959716796875</LatitudeDegrees>
              <LongitudeDegrees>-0.177858956158161163330078125</LongitudeDegrees>
            </Position>
            <AltitudeMeters>2134</AltitudeMeters>
            <DistanceMeters>30061.301066939</DistanceMeters>
          </Trackpoint>
          <Trackpoint>
            <Time>2022-07-10T08:20:33.000Z</Time>
            <Position>
              <LatitudeDegrees>42.76656704954802989959716796875</LatitudeDegrees>
              <LongitudeDegrees>-0.17787714488804340362548828125</LongitudeDegrees>
            </Position>
            <AltitudeMeters>2134.39990234375</AltitudeMeters>
            <DistanceMeters>30062.78847029</DistanceMeters>
          </Trackpoint>
          <Trackpoint>
            <Time>2022-07-10T08:20:34.000Z</Time>
            <Position>
              <LatitudeDegrees>42.76656839065253734588623046875</LatitudeDegrees>
              <LongitudeDegrees>-0.1778906397521495819091796875</LongitudeDegrees>
            </Position>
            <AltitudeMeters>2134.39990234375</AltitudeMeters>
            <DistanceMeters>30063.904781425</DistanceMeters>
          </Trackpoint>
          <Trackpoint>
            <Time>2022-07-10T08:20:39.000Z</Time>
            <Position>
              <LatitudeDegrees>42.7665844000875949859619140625</LatitudeDegrees>
              <LongitudeDegrees>-0.1779509894549846649169921875</LongitudeDegrees>
            </Position>
            <AltitudeMeters>2135.60009765625</AltitudeMeters>
            <DistanceMeters>30069.147638727</DistanceMeters>
          </Trackpoint>
          <Trackpoint>
            <Time>2022-07-10T08:20:40.000Z</Time>
            <Position>
              <LatitudeDegrees>42.76658297516405582427978515625</LatitudeDegrees>
              <LongitudeDegrees>-0.177958868443965911865234375</LongitudeDegrees>
            </Position>
            <AltitudeMeters>2135.800048828125</AltitudeMeters>
            <DistanceMeters>30069.812825728</DistanceMeters>
          </Trackpoint>
          <Trackpoint>
            <Time>2022-07-10T08:20:41.000Z</Time>
            <Position>
              <LatitudeDegrees>42.76658062823116779327392578125</LatitudeDegrees>
              <LongitudeDegrees>-0.17796121537685394287109375</LongitudeDegrees>
            </Position>
            <AltitudeMeters>2136.199951171875</AltitudeMeters>
            <DistanceMeters>30070.142007923</DistanceMeters>
          </Trackpoint>
          <Trackpoint>
            <Time>2022-07-10T08:20:43.000Z</Time>
            <Position>
              <LatitudeDegrees>42.76657258160412311553955078125</LatitudeDegrees>
              <LongitudeDegrees>-0.177978985011577606201171875</LongitudeDegrees>
            </Position>
            <AltitudeMeters>2137</AltitudeMeters>
            <DistanceMeters>30071.847201347</DistanceMeters>
          </Trackpoint>
          <Trackpoint>
            <Time>2022-07-10T08:20:45.000Z</Time>
            <Position>
              <LatitudeDegrees>42.7665572427213191986083984375</LatitudeDegrees>
              <LongitudeDegrees>-0.178011171519756317138671875</LongitudeDegrees>
            </Position>
            <AltitudeMeters>2137.60009765625</AltitudeMeters>
            <DistanceMeters>30074.981642792</DistanceMeters>
          </Trackpoint>
          <Trackpoint>
            <Time>2022-07-10T08:20:46.000Z</Time>
            <Position>
              <LatitudeDegrees>42.76655313558876514434814453125</LatitudeDegrees>
              <LongitudeDegrees>-0.17803363502025604248046875</LongitudeDegrees>
            </Position>
            <AltitudeMeters>2137.800048828125</AltitudeMeters>
            <DistanceMeters>30076.872650532</DistanceMeters>
          </Trackpoint>
          <Trackpoint>
            <Time>2022-07-10T08:20:48.000Z</Time>
            <Position>
              <LatitudeDegrees>42.7665475197136402130126953125</LatitudeDegrees>
              <LongitudeDegrees>-0.178061462938785552978515625</LongitudeDegrees>
            </Position>
            <AltitudeMeters>2138</AltitudeMeters>
            <DistanceMeters>30079.231151558</DistanceMeters>
          </Trackpoint>
          <Trackpoint>
            <Time>2022-07-10T08:20:50.000Z</Time>
            <Position>
              <LatitudeDegrees>42.7665414847433567047119140625</LatitudeDegrees>
              <LongitudeDegrees>-0.178078897297382354736328125</LongitudeDegrees>
            </Position>
            <AltitudeMeters>2138.199951171875</AltitudeMeters>
            <DistanceMeters>30080.804123568</DistanceMeters>
          </Trackpoint>
          <Trackpoint>
            <Time>2022-07-10T08:20:54.000Z</Time>
            <Position>
              <LatitudeDegrees>42.76653192937374114990234375</LatitudeDegrees>
              <LongitudeDegrees>-0.17811099998652935028076171875</LongitudeDegrees>
            </Position>
            <AltitudeMeters>2138.39990234375</AltitudeMeters>
            <DistanceMeters>30083.632665194</DistanceMeters>
          </Trackpoint>
          <Trackpoint>
            <Time>2022-07-10T08:20:55.000Z</Time>
            <Position>
              <LatitudeDegrees>42.766529582440853118896484375</LatitudeDegrees>
              <LongitudeDegrees>-0.1781186275184154510498046875</LongitudeDegrees>
            </Position>
            <AltitudeMeters>2138.60009765625</AltitudeMeters>
            <DistanceMeters>30084.304605535</DistanceMeters>
          </Trackpoint>
          <Trackpoint>
            <Time>2022-07-10T08:20:59.000Z</Time>
            <Position>
              <LatitudeDegrees>42.76652379892766475677490234375</LatitudeDegrees>
              <LongitudeDegrees>-0.17817470245063304901123046875</LongitudeDegrees>
            </Position>
            <AltitudeMeters>2139</AltitudeMeters>
            <DistanceMeters>30088.932708962</DistanceMeters>
          </Trackpoint>
          <Trackpoint>
            <Time>2022-07-10T08:21:00.000Z</Time>
            <Position>
              <LatitudeDegrees>42.76651826687157154083251953125</LatitudeDegrees>
              <LongitudeDegrees>-0.17818844877183437347412109375</LongitudeDegrees>
            </Position>
            <AltitudeMeters>2139.39990234375</AltitudeMeters>
            <DistanceMeters>30090.214689427</DistanceMeters>
          </Trackpoint>
          <Trackpoint>
            <Time>2022-07-10T08:21:03.000Z</Time>
            <Position>
              <LatitudeDegrees>42.76650703512132167816162109375</LatitudeDegrees>
              <LongitudeDegrees>-0.1782135106623172760009765625</LongitudeDegrees>
            </Position>
            <AltitudeMeters>2139.800048828125</AltitudeMeters>
            <DistanceMeters>30092.614937074</DistanceMeters>
          </Trackpoint>
          <Trackpoint>
            <Time>2022-07-10T08:21:04.000Z</Time>
            <Position>
              <LatitudeDegrees>42.76650846004486083984375</LatitudeDegrees>
              <LongitudeDegrees>-0.1782222278416156768798828125</LongitudeDegrees>
            </Position>
            <AltitudeMeters>2139.800048828125</AltitudeMeters>
            <DistanceMeters>30093.33863897</DistanceMeters>
          </Trackpoint>
          <Trackpoint>
            <Time>2022-07-10T08:21:07.000Z</Time>
            <Position>
              <LatitudeDegrees>42.76650703512132167816162109375</LatitudeDegrees>
              <LongitudeDegrees>-0.17825131304562091827392578125</LongitudeDegrees>
            </Position>
            <AltitudeMeters>2140.199951171875</AltitudeMeters>
            <DistanceMeters>30095.720001607</DistanceMeters>
          </Trackpoint>
          <Trackpoint>
            <Time>2022-07-10T08:21:09.000Z</Time>
            <Position>
              <LatitudeDegrees>42.7664989046752452850341796875</LatitudeDegrees>
              <LongitudeDegrees>-0.1782688312232494354248046875</LongitudeDegrees>
            </Position>
            <AltitudeMeters>2140.39990234375</AltitudeMeters>
            <DistanceMeters>30097.41457067</DistanceMeters>
          </Trackpoint>
          <Trackpoint>
            <Time>2022-07-10T08:21:12.000Z</Time>
            <Position>
              <LatitudeDegrees>42.766477279365062713623046875</LatitudeDegrees>
              <LongitudeDegrees>-0.17827612347900867462158203125</LongitudeDegrees>
            </Position>
            <AltitudeMeters>2141</AltitudeMeters>
            <DistanceMeters>30099.892564209</DistanceMeters>
          </Trackpoint>
          <Trackpoint>
            <Time>2022-07-10T08:21:13.000Z</Time>
            <Position>
              <LatitudeDegrees>42.76647116057574748992919921875</LatitudeDegrees>
              <LongitudeDegrees>-0.1782785542309284210205078125</LongitudeDegrees>
            </Position>
            <AltitudeMeters>2141</AltitudeMeters>
            <DistanceMeters>30100.597301185</DistanceMeters>
          </Trackpoint>
          <Trackpoint>
            <Time>2022-07-10T08:21:16.000Z</Time>
            <Position>
              <LatitudeDegrees>42.76646395213901996612548828125</LatitudeDegrees>
              <LongitudeDegrees>-0.1783083938062191009521484375</LongitudeDegrees>
            </Position>
            <AltitudeMeters>2141.800048828125</AltitudeMeters>
            <DistanceMeters>30103.164781623</DistanceMeters>
          </Trackpoint>
          <Trackpoint>
            <Time>2022-07-10T08:21:18.000Z</Time>
            <Position>
              <LatitudeDegrees>42.7664616890251636505126953125</LatitudeDegrees>
              <LongitudeDegrees>-0.1783358864486217498779296875</LongitudeDegrees>
            </Position>
            <AltitudeMeters>2141.800048828125</AltitudeMeters>
            <DistanceMeters>30105.425538857</DistanceMeters>
          </Trackpoint>
          <Trackpoint>
            <Time>2022-07-10T08:21:23.000Z</Time>
            <Position>
              <LatitudeDegrees>42.76646864600479602813720703125</LatitudeDegrees>
              <LongitudeDegrees>-0.17840269021689891815185546875</LongitudeDegrees>
            </Position>
            <AltitudeMeters>2142.60009765625</AltitudeMeters>
            <DistanceMeters>30110.938726438</DistanceMeters>
          </Trackpoint>
          <Trackpoint>
            <Time>2022-07-10T08:21:24.000Z</Time>
            <Position>
              <LatitudeDegrees>42.7664704062044620513916015625</LatitudeDegrees>
              <LongitudeDegrees>-0.17841241322457790374755859375</LongitudeDegrees>
            </Position>
            <AltitudeMeters>2142.800048828125</AltitudeMeters>
            <DistanceMeters>30111.756177144</DistanceMeters>
          </Trackpoint>
          <Trackpoint>
            <Time>2022-07-10T08:21:25.000Z</Time>
            <Position>
              <LatitudeDegrees>42.7664730884134769439697265625</LatitudeDegrees>
              <LongitudeDegrees>-0.17841995693743228912353515625</LongitudeDegrees>
            </Position>
            <AltitudeMeters>2143.39990234375</AltitudeMeters>
            <DistanceMeters>30112.441424527</DistanceMeters>
          </Trackpoint>
          <Trackpoint>
            <Time>2022-07-10T08:21:27.000Z</Time>
            <Position>
              <LatitudeDegrees>42.76647266931831836700439453125</LatitudeDegrees>
              <LongitudeDegrees>-0.17843688838183879852294921875</LongitudeDegrees>
            </Position>
            <AltitudeMeters>2144</AltitudeMeters>
            <DistanceMeters>30113.825034373</DistanceMeters>
          </Trackpoint>
          <Trackpoint>
            <Time>2022-07-10T08:21:31.000Z</Time>
            <Position>
              <LatitudeDegrees>42.76646378450095653533935546875</LatitudeDegrees>
              <LongitudeDegrees>-0.1784844137728214263916015625</LongitudeDegrees>
            </Position>
            <AltitudeMeters>2144.800048828125</AltitudeMeters>
            <DistanceMeters>30117.831962862</DistanceMeters>
          </Trackpoint>
          <Trackpoint>
            <Time>2022-07-10T08:21:33.000Z</Time>
            <Position>
              <LatitudeDegrees>42.7664720825850963592529296875</LatitudeDegrees>
              <LongitudeDegrees>-0.1785021834075450897216796875</LongitudeDegrees>
            </Position>
            <AltitudeMeters>2145.199951171875</AltitudeMeters>
            <DistanceMeters>30119.552969856</DistanceMeters>
          </Trackpoint>
          <Trackpoint>
            <Time>2022-07-10T08:21:34.000Z</Time>
            <Position>
              <LatitudeDegrees>42.76647518388926982879638671875</LatitudeDegrees>
              <LongitudeDegrees>-0.17850914038717746734619140625</LongitudeDegrees>
            </Position>
            <AltitudeMeters>2145.39990234375</AltitudeMeters>
            <DistanceMeters>30120.218156857</DistanceMeters>
          </Trackpoint>
          <Trackpoint>
            <Time>2022-07-10T08:21:37.000Z</Time>
            <Position>
              <LatitudeDegrees>42.7664740942418575286865234375</LatitudeDegrees>
              <LongitudeDegrees>-0.17852825112640857696533203125</LongitudeDegrees>
            </Position>
            <AltitudeMeters>2145.800048828125</AltitudeMeters>
            <DistanceMeters>30121.782494006</DistanceMeters>
          </Trackpoint>
          <Trackpoint>
            <Time>2022-07-10T08:21:38.000Z</Time>
            <Position>
              <LatitudeDegrees>42.7664704062044620513916015625</LatitudeDegrees>
              <LongitudeDegrees>-0.17853244207799434661865234375</LongitudeDegrees>
            </Position>
            <AltitudeMeters>2145.800048828125</AltitudeMeters>
            <DistanceMeters>30122.320046279</DistanceMeters>
          </Trackpoint>
          <Trackpoint>
            <Time>2022-07-10T08:21:40.000Z</Time>
            <Position>
              <LatitudeDegrees>42.76646361686289310455322265625</LatitudeDegrees>
              <LongitudeDegrees>-0.17854803241789340972900390625</LongitudeDegrees>
            </Position>
            <AltitudeMeters>2146.39990234375</AltitudeMeters>
            <DistanceMeters>30123.798315029</DistanceMeters>
          </Trackpoint>
          <Trackpoint>
            <Time>2022-07-10T08:21:42.000Z</Time>
            <Position>
              <LatitudeDegrees>42.76645481586456298828125</LatitudeDegrees>
              <LongitudeDegrees>-0.17855876125395298004150390625</LongitudeDegrees>
            </Position>
            <AltitudeMeters>2147</AltitudeMeters>
            <DistanceMeters>30125.115043808</DistanceMeters>
          </Trackpoint>
          <Trackpoint>
            <Time>2022-07-10T08:21:44.000Z</Time>
            <Position>
              <LatitudeDegrees>42.7664556540548801422119140625</LatitudeDegrees>
              <LongitudeDegrees>-0.1785814762115478515625</LongitudeDegrees>
            </Position>
            <AltitudeMeters>2147.60009765625</AltitudeMeters>
            <DistanceMeters>30126.977179506</DistanceMeters>
          </Trackpoint>
          <Trackpoint>
            <Time>2022-07-10T08:21:50.000Z</Time>
            <Position>
              <LatitudeDegrees>42.766475267708301544189453125</LatitudeDegrees>
              <LongitudeDegrees>-0.17862849868834018707275390625</LongitudeDegrees>
            </Position>
            <AltitudeMeters>2148.60009765625</AltitudeMeters>
            <DistanceMeters>30131.396688002</DistanceMeters>
          </Trackpoint>
          <Trackpoint>
            <Time>2022-07-10T08:21:52.000Z</Time>
            <Position>
              <LatitudeDegrees>42.76648423634469509124755859375</LatitudeDegrees>
              <LongitudeDegrees>-0.17864727415144443511962890625</LongitudeDegrees>
            </Position>
            <AltitudeMeters>2148.800048828125</AltitudeMeters>
            <DistanceMeters>30133.229496894</DistanceMeters>
          </Trackpoint>
          <Trackpoint>
            <Time>2022-07-10T08:21:55.000Z</Time>
            <Position>
              <LatitudeDegrees>42.76649848558008670806884765625</LatitudeDegrees>
              <LongitudeDegrees>-0.17869823612272739410400390625</LongitudeDegrees>
            </Position>
            <AltitudeMeters>2149.800048828125</AltitudeMeters>
            <DistanceMeters>30137.685631778</DistanceMeters>
          </Trackpoint>
          <Trackpoint>
            <Time>2022-07-10T08:21:58.000Z</Time>
            <Position>
              <LatitudeDegrees>42.766505777835845947265625</LatitudeDegrees>
              <LongitudeDegrees>-0.17873561941087245941162109375</LongitudeDegrees>
            </Position>
            <AltitudeMeters>2150.199951171875</AltitudeMeters>
            <DistanceMeters>30140.845895145</DistanceMeters>
          </Trackpoint>
          <Trackpoint>
            <Time>2022-07-10T08:21:59.000Z</Time>
            <Position>
              <LatitudeDegrees>42.76650938205420970916748046875</LatitudeDegrees>
              <LongitudeDegrees>-0.1787459291517734527587890625</LongitudeDegrees>
            </Position>
            <AltitudeMeters>2150.199951171875</AltitudeMeters>
            <DistanceMeters>30141.776962993</DistanceMeters>
          </Trackpoint>
          <Trackpoint>
            <Time>2022-07-10T08:22:01.000Z</Time>
            <Position>
              <LatitudeDegrees>42.766521871089935302734375</LatitudeDegrees>
              <LongitudeDegrees>-0.17876579426229000091552734375</LongitudeDegrees>
            </Position>
            <AltitudeMeters>2150.39990234375</AltitudeMeters>
            <DistanceMeters>30143.914536075</DistanceMeters>
          </Trackpoint>
          <Trackpoint>
            <Time>2022-07-10T08:22:04.000Z</Time>
            <Position>
              <LatitudeDegrees>42.7665334381163120269775390625</LatitudeDegrees>
              <LongitudeDegrees>-0.17879135906696319580078125</LongitudeDegrees>
            </Position>
            <AltitudeMeters>2150.39990234375</AltitudeMeters>
            <DistanceMeters>30146.368728608</DistanceMeters>
          </Trackpoint>
          <Trackpoint>
            <Time>2022-07-10T08:22:05.000Z</Time>
            <Position>
              <LatitudeDegrees>42.7665324322879314422607421875</LatitudeDegrees>
              <LongitudeDegrees>-0.1787962205708026885986328125</LongitudeDegrees>
            </Position>
            <AltitudeMeters>2150.199951171875</AltitudeMeters>
            <DistanceMeters>30146.771892813</DistanceMeters>
          </Trackpoint>
          <Trackpoint>
            <Time>2022-07-10T08:22:06.000Z</Time>
            <Position>
              <LatitudeDegrees>42.76653167791664600372314453125</LatitudeDegrees>
              <LongitudeDegrees>-0.17880183644592761993408203125</LongitudeDegrees>
            </Position>
            <AltitudeMeters>2150.39990234375</AltitudeMeters>
            <DistanceMeters>30147.237426737</DistanceMeters>
          </Trackpoint>
          <Trackpoint>
            <Time>2022-07-10T08:22:08.000Z</Time>
            <Position>
              <LatitudeDegrees>42.76653452776372432708740234375</LatitudeDegrees>
              <LongitudeDegrees>-0.17881608568131923675537109375</LongitudeDegrees>
            </Position>
            <AltitudeMeters>2150.800048828125</AltitudeMeters>
            <DistanceMeters>30148.446919351</DistanceMeters>
          </Trackpoint>
          <Trackpoint>
            <Time>2022-07-10T08:22:13.000Z</Time>
            <Position>
              <LatitudeDegrees>42.766562439501285552978515625</LatitudeDegrees>
              <LongitudeDegrees>-0.17886671237647533416748046875</LongitudeDegrees>
            </Position>
            <AltitudeMeters>2151.39990234375</AltitudeMeters>
            <DistanceMeters>30153.620423636</DistanceMeters>
          </Trackpoint>
          <Trackpoint>
            <Time>2022-07-10T08:22:18.000Z</Time>
            <Position>
              <LatitudeDegrees>42.766589932143688201904296875</LatitudeDegrees>
              <LongitudeDegrees>-0.1789071969687938690185546875</LongitudeDegrees>
            </Position>
            <AltitudeMeters>2151.800048828125</AltitudeMeters>
            <DistanceMeters>30158.125932691</DistanceMeters>
          </Trackpoint>
          <Trackpoint>
            <Time>2022-07-10T08:22:19.000Z</Time>
            <Position>
              <LatitudeDegrees>42.7665968053042888641357421875</LatitudeDegrees>
              <LongitudeDegrees>-0.17891566269099712371826171875</LongitudeDegrees>
            </Position>
            <AltitudeMeters>2152</AltitudeMeters>
            <DistanceMeters>30159.15818703</DistanceMeters>
          </Trackpoint>
          <Trackpoint>
            <Time>2022-07-10T08:22:23.000Z</Time>
            <Position>
              <LatitudeDegrees>42.76661331765353679656982421875</LatitudeDegrees>
              <LongitudeDegrees>-0.17894969321787357330322265625</LongitudeDegrees>
            </Position>
            <AltitudeMeters>2152.199951171875</AltitudeMeters>
            <DistanceMeters>30162.490902743</DistanceMeters>
          </Trackpoint>
          <Trackpoint>
            <Time>2022-07-10T08:22:24.000Z</Time>
            <Position>
              <LatitudeDegrees>42.76661574840545654296875</LatitudeDegrees>
              <LongitudeDegrees>-0.1789608411490917205810546875</LongitudeDegrees>
            </Position>
            <AltitudeMeters>2152.39990234375</AltitudeMeters>
            <DistanceMeters>30163.441169887</DistanceMeters>
          </Trackpoint>
          <Trackpoint>
            <Time>2022-07-10T08:22:27.000Z</Time>
            <Position>
              <LatitudeDegrees>42.7666196040809154510498046875</LatitudeDegrees>
              <LongitudeDegrees>-0.17898573540151119232177734375</LongitudeDegrees>
            </Position>
            <AltitudeMeters>2152.800048828125</AltitudeMeters>
            <DistanceMeters>30165.520931079</DistanceMeters>
          </Trackpoint>
          <Trackpoint>
            <Time>2022-07-10T08:22:28.000Z</Time>
            <Position>
              <LatitudeDegrees>42.7666216157376766204833984375</LatitudeDegrees>
              <LongitudeDegrees>-0.178994871675968170166015625</LongitudeDegrees>
            </Position>
            <AltitudeMeters>2153</AltitudeMeters>
            <DistanceMeters>30166.30454144</DistanceMeters>
          </Trackpoint>
          <Trackpoint>
            <Time>2022-07-10T08:22:30.000Z</Time>
            <Position>
              <LatitudeDegrees>42.76662488467991352081298828125</LatitudeDegrees>
              <LongitudeDegrees>-0.179012306034564971923828125</LongitudeDegrees>
            </Position>
            <AltitudeMeters>2153.199951171875</AltitudeMeters>
            <DistanceMeters>30167.776688969</DistanceMeters>
          </Trackpoint>
          <Trackpoint>
            <Time>2022-07-10T08:22:35.000Z</Time>
            <Position>
              <LatitudeDegrees>42.76663058437407016754150390625</LatitudeDegrees>
              <LongitudeDegrees>-0.17908061854541301727294921875</LongitudeDegrees>
            </Position>
            <AltitudeMeters>2153.800048828125</AltitudeMeters>
            <DistanceMeters>30173.395331799</DistanceMeters>
          </Trackpoint>
          <Trackpoint>
            <Time>2022-07-10T08:22:36.000Z</Time>
            <Position>
              <LatitudeDegrees>42.76662941090762615203857421875</LatitudeDegrees>
              <LongitudeDegrees>-0.179088413715362548828125</LongitudeDegrees>
            </Position>
            <AltitudeMeters>2153.800048828125</AltitudeMeters>
            <DistanceMeters>30174.04680213</DistanceMeters>
          </Trackpoint>
          <Trackpoint>
            <Time>2022-07-10T08:22:37.000Z</Time>
            <Position>
              <LatitudeDegrees>42.76662672869861125946044921875</LatitudeDegrees>
              <LongitudeDegrees>-0.17909268848598003387451171875</LongitudeDegrees>
            </Position>
            <AltitudeMeters>2153.800048828125</AltitudeMeters>
            <DistanceMeters>30174.492516929</DistanceMeters>
          </Trackpoint>
          <Trackpoint>
            <Time>2022-07-10T08:22:38.000Z</Time>
            <Position>
              <LatitudeDegrees>42.766623795032501220703125</LatitudeDegrees>
              <LongitudeDegrees>-0.17909956164658069610595703125</LongitudeDegrees>
            </Position>
            <AltitudeMeters>2154</AltitudeMeters>
            <DistanceMeters>30175.143987261</DistanceMeters>
          </Trackpoint>
          <Trackpoint>
            <Time>2022-07-10T08:22:39.000Z</Time>
            <Position>
              <LatitudeDegrees>42.76662086136639118194580078125</LatitudeDegrees>
              <LongitudeDegrees>-0.1791083626449108123779296875</LongitudeDegrees>
            </Position>
            <AltitudeMeters>2154.199951171875</AltitudeMeters>
            <DistanceMeters>30175.933338434</DistanceMeters>
          </Trackpoint>
          <Trackpoint>
            <Time>2022-07-10T08:22:41.000Z</Time>
            <Position>
              <LatitudeDegrees>42.76661750860512256622314453125</LatitudeDegrees>
              <LongitudeDegrees>-0.17912940122187137603759765625</LongitudeDegrees>
            </Position>
            <AltitudeMeters>2154.60009765625</AltitudeMeters>
            <DistanceMeters>30177.693257813</DistanceMeters>
          </Trackpoint>
          <Trackpoint>
            <Time>2022-07-10T08:22:45.000Z</Time>
            <Position>
              <LatitudeDegrees>42.76660460047423839569091796875</LatitudeDegrees>
              <LongitudeDegrees>-0.1791472546756267547607421875</LongitudeDegrees>
            </Position>
            <AltitudeMeters>2155</AltitudeMeters>
            <DistanceMeters>30179.744602645</DistanceMeters>
          </Trackpoint>
          <Trackpoint>
            <Time>2022-07-10T08:22:49.000Z</Time>
            <Position>
              <LatitudeDegrees>42.76658431626856327056884765625</LatitudeDegrees>
              <LongitudeDegrees>-0.17915479838848114013671875</LongitudeDegrees>
            </Position>
            <AltitudeMeters>2155.800048828125</AltitudeMeters>
            <DistanceMeters>30182.083881664</DistanceMeters>
          </Trackpoint>
          <Trackpoint>
            <Time>2022-07-10T08:22:50.000Z</Time>
            <Position>
              <LatitudeDegrees>42.7665803767740726470947265625</LatitudeDegrees>
              <LongitudeDegrees>-0.17915840260684490203857421875</LongitudeDegrees>
            </Position>
            <AltitudeMeters>2156.199951171875</AltitudeMeters>
            <DistanceMeters>30182.612968017</DistanceMeters>
          </Trackpoint>
          <Trackpoint>
            <Time>2022-07-10T08:22:55.000Z</Time>
            <Position>
              <LatitudeDegrees>42.76658029295504093170166015625</LatitudeDegrees>
              <LongitudeDegrees>-0.179192014038562774658203125</LongitudeDegrees>
            </Position>
            <AltitudeMeters>2157.199951171875</AltitudeMeters>
            <DistanceMeters>30185.357250028</DistanceMeters>
          </Trackpoint>
          <Trackpoint>
            <Time>2022-07-10T08:22:56.000Z</Time>
            <Position>
              <LatitudeDegrees>42.7665787003934383392333984375</LatitudeDegrees>
              <LongitudeDegrees>-0.179197378456592559814453125</LongitudeDegrees>
            </Position>
            <AltitudeMeters>2157.199951171875</AltitudeMeters>
            <DistanceMeters>30185.8323836</DistanceMeters>
          </Trackpoint>
          <Trackpoint>
            <Time>2022-07-10T08:23:02.000Z</Time>
            <Position>
              <LatitudeDegrees>42.76653989218175411224365234375</LatitudeDegrees>
              <LongitudeDegrees>-0.17923518083989620208740234375</LongitudeDegrees>
            </Position>
            <AltitudeMeters>2158</AltitudeMeters>
            <DistanceMeters>30191.142838264</DistanceMeters>
          </Trackpoint>
          <Trackpoint>
            <Time>2022-07-10T08:23:04.000Z</Time>
            <Position>
              <LatitudeDegrees>42.7665210328996181488037109375</LatitudeDegrees>
              <LongitudeDegrees>-0.17926300875842571258544921875</LongitudeDegrees>
            </Position>
            <AltitudeMeters>2158.199951171875</AltitudeMeters>
            <DistanceMeters>30194.236683934</DistanceMeters>
          </Trackpoint>
          <Trackpoint>
            <Time>2022-07-10T08:23:05.000Z</Time>
            <Position>
              <LatitudeDegrees>42.76651239953935146331787109375</LatitudeDegrees>
              <LongitudeDegrees>-0.17927373759448528289794921875</LongitudeDegrees>
            </Position>
            <AltitudeMeters>2158.39990234375</AltitudeMeters>
            <DistanceMeters>30195.53267553</DistanceMeters>
          </Trackpoint>
          <Trackpoint>
            <Time>2022-07-10T08:23:06.000Z</Time>
            <Position>
              <LatitudeDegrees>42.7665052749216556549072265625</LatitudeDegrees>
              <LongitudeDegrees>-0.17928681336343288421630859375</LongitudeDegrees>
            </Position>
            <AltitudeMeters>2158.39990234375</AltitudeMeters>
            <DistanceMeters>30196.863049532</DistanceMeters>
          </Trackpoint>
          <Trackpoint>
            <Time>2022-07-10T08:23:11.000Z</Time>
            <Position>
              <LatitudeDegrees>42.76648339815437793731689453125</LatitudeDegrees>
              <LongitudeDegrees>-0.17933911643922328948974609375</LongitudeDegrees>
            </Position>
            <AltitudeMeters>2159.39990234375</AltitudeMeters>
            <DistanceMeters>30201.78246056</DistanceMeters>
          </Trackpoint>
          <Trackpoint>
            <Time>2022-07-10T08:23:12.000Z</Time>
            <Position>
              <LatitudeDegrees>42.76647954247891902923583984375</LatitudeDegrees>
              <LongitudeDegrees>-0.17935068346560001373291015625</LongitudeDegrees>
            </Position>
            <AltitudeMeters>2159.60009765625</AltitudeMeters>
            <DistanceMeters>30202.823426061</DistanceMeters>
          </Trackpoint>
          <Trackpoint>
            <Time>2022-07-10T08:23:17.000Z</Time>
            <Position>
              <LatitudeDegrees>42.7664533071219921112060546875</LatitudeDegrees>
              <LongitudeDegrees>-0.17938052304089069366455078125</LongitudeDegrees>
            </Position>
            <AltitudeMeters>2160.199951171875</AltitudeMeters>
            <DistanceMeters>30206.629243005</DistanceMeters>
          </Trackpoint>
          <Trackpoint>
            <Time>2022-07-10T08:23:20.000Z</Time>
            <Position>
              <LatitudeDegrees>42.766437046229839324951171875</LatitudeDegrees>
              <LongitudeDegrees>-0.1794183254241943359375</LongitudeDegrees>
            </Position>
            <AltitudeMeters>2160.39990234375</AltitudeMeters>
            <DistanceMeters>30210.208862884</DistanceMeters>
          </Trackpoint>
          <Trackpoint>
            <Time>2022-07-10T08:23:24.000Z</Time>
            <Position>
              <LatitudeDegrees>42.766425646841526031494140625</LatitudeDegrees>
              <LongitudeDegrees>-0.17945629544556140899658203125</LongitudeDegrees>
            </Position>
            <AltitudeMeters>2160.60009765625</AltitudeMeters>
            <DistanceMeters>30213.560491607</DistanceMeters>
          </Trackpoint>
          <Trackpoint>
            <Time>2022-07-10T08:23:27.000Z</Time>
            <Position>
              <LatitudeDegrees>42.76641349308192729949951171875</LatitudeDegrees>
              <LongitudeDegrees>-0.179502479732036590576171875</LongitudeDegrees>
            </Position>
            <AltitudeMeters>2161</AltitudeMeters>
            <DistanceMeters>30217.569673078</DistanceMeters>
          </Trackpoint>
          <Trackpoint>
            <Time>2022-07-10T08:23:29.000Z</Time>
            <Position>
              <LatitudeDegrees>42.7664030157029628753662109375</LatitudeDegrees>
              <LongitudeDegrees>-0.17952226102352142333984375</LongitudeDegrees>
            </Position>
            <AltitudeMeters>2161.60009765625</AltitudeMeters>
            <DistanceMeters>30219.562970255</DistanceMeters>
          </Trackpoint>
          <Trackpoint>
            <Time>2022-07-10T08:23:31.000Z</Time>
            <Position>
              <LatitudeDegrees>42.76640175841748714447021484375</LatitudeDegrees>
              <LongitudeDegrees>-0.17954497598111629486083984375</LongitudeDegrees>
            </Position>
            <AltitudeMeters>2161.800048828125</AltitudeMeters>
            <DistanceMeters>30221.425105952</DistanceMeters>
          </Trackpoint>
          <Trackpoint>
            <Time>2022-07-10T08:23:35.000Z</Time>
            <Position>
              <LatitudeDegrees>42.76637342758476734161376953125</LatitudeDegrees>
              <LongitudeDegrees>-0.17959208227694034576416015625</LongitudeDegrees>
            </Position>
            <AltitudeMeters>2162</AltitudeMeters>
            <DistanceMeters>30226.401095262</DistanceMeters>
          </Trackpoint>
          <Trackpoint>
            <Time>2022-07-10T08:23:38.000Z</Time>
            <Position>
              <LatitudeDegrees>42.766368649899959564208984375</LatitudeDegrees>
              <LongitudeDegrees>-0.17962393350899219512939453125</LongitudeDegrees>
            </Position>
            <AltitudeMeters>2162</AltitudeMeters>
            <DistanceMeters>30229.058447286</DistanceMeters>
          </Trackpoint>
          <Trackpoint>
            <Time>2022-07-10T08:23:39.000Z</Time>
            <Position>
              <LatitudeDegrees>42.7663678117096424102783203125</LatitudeDegrees>
              <LongitudeDegrees>-0.179637260735034942626953125</LongitudeDegrees>
            </Position>
            <AltitudeMeters>2162.199951171875</AltitudeMeters>
            <DistanceMeters>30230.158461033</DistanceMeters>
          </Trackpoint>
          <Trackpoint>
            <Time>2022-07-10T08:23:45.000Z</Time>
            <Position>
              <LatitudeDegrees>42.76635867543518543243408203125</LatitudeDegrees>
              <LongitudeDegrees>-0.1797162182629108428955078125</LongitudeDegrees>
            </Position>
            <AltitudeMeters>2162.39990234375</AltitudeMeters>
            <DistanceMeters>30236.689776453</DistanceMeters>
          </Trackpoint>
          <Trackpoint>
            <Time>2022-07-10T08:23:46.000Z</Time>
            <Position>
              <LatitudeDegrees>42.76635347865521907806396484375</LatitudeDegrees>
              <LongitudeDegrees>-0.17972703091800212860107421875</LongitudeDegrees>
            </Position>
            <AltitudeMeters>2162.39990234375</AltitudeMeters>
            <DistanceMeters>30237.73938082</DistanceMeters>
          </Trackpoint>
          <Trackpoint>
            <Time>2022-07-10T08:23:47.000Z</Time>
            <Position>
              <LatitudeDegrees>42.76634819805622100830078125</LatitudeDegrees>
              <LongitudeDegrees>-0.17973843030631542205810546875</LongitudeDegrees>
            </Position>
            <AltitudeMeters>2162.60009765625</AltitudeMeters>
            <DistanceMeters>30238.839394567</DistanceMeters>
          </Trackpoint>
          <Trackpoint>
            <Time>2022-07-10T08:23:53.000Z</Time>
            <Position>
              <LatitudeDegrees>42.7663215436041355133056640625</LatitudeDegrees>
              <LongitudeDegrees>-0.1797924935817718505859375</LongitudeDegrees>
            </Position>
            <AltitudeMeters>2162.800048828125</AltitudeMeters>
            <DistanceMeters>30244.160890571</DistanceMeters>
          </Trackpoint>
          <Trackpoint>
            <Time>2022-07-10T08:23:54.000Z</Time>
            <Position>
              <LatitudeDegrees>42.76631659828126430511474609375</LatitudeDegrees>
              <LongitudeDegrees>-0.1798047311604022979736328125</LongitudeDegrees>
            </Position>
            <AltitudeMeters>2162.800048828125</AltitudeMeters>
            <DistanceMeters>30245.301211144</DistanceMeters>
          </Trackpoint>
          <Trackpoint>
            <Time>2022-07-10T08:23:58.000Z</Time>
            <Position>
              <LatitudeDegrees>42.766298241913318634033203125</LatitudeDegrees>
              <LongitudeDegrees>-0.17983498983085155487060546875</LongitudeDegrees>
            </Position>
            <AltitudeMeters>2162.800048828125</AltitudeMeters>
            <DistanceMeters>30248.509682298</DistanceMeters>
          </Trackpoint>
          <Trackpoint>
            <Time>2022-07-10T08:23:59.000Z</Time>
            <Position>
              <LatitudeDegrees>42.7662927098572254180908203125</LatitudeDegrees>
              <LongitudeDegrees>-0.1798416115343570709228515625</LongitudeDegrees>
            </Position>
            <AltitudeMeters>2162.800048828125</AltitudeMeters>
            <DistanceMeters>30249.332637785</DistanceMeters>
          </Trackpoint>
          <Trackpoint>
            <Time>2022-07-10T08:24:00.000Z</Time>
            <Position>
              <LatitudeDegrees>42.76628592051565647125244140625</LatitudeDegrees>
              <LongitudeDegrees>-0.17985058017075061798095703125</LongitudeDegrees>
            </Position>
            <AltitudeMeters>2163</AltitudeMeters>
            <DistanceMeters>30250.382242151</DistanceMeters>
          </Trackpoint>
          <Trackpoint>
            <Time>2022-07-10T08:24:03.000Z</Time>
            <Position>
              <LatitudeDegrees>42.76626370847225189208984375</LatitudeDegrees>
              <LongitudeDegrees>-0.17988343723118305206298828125</LongitudeDegrees>
            </Position>
            <AltitudeMeters>2163.800048828125</AltitudeMeters>
            <DistanceMeters>30254.030575014</DistanceMeters>
          </Trackpoint>
          <Trackpoint>
            <Time>2022-07-10T08:24:05.000Z</Time>
            <Position>
              <LatitudeDegrees>42.7662518061697483062744140625</LatitudeDegrees>
              <LongitudeDegrees>-0.17991377972066402435302734375</LongitudeDegrees>
            </Position>
            <AltitudeMeters>2164.39990234375</AltitudeMeters>
            <DistanceMeters>30256.839896429</DistanceMeters>
          </Trackpoint>
          <Trackpoint>
            <Time>2022-07-10T08:24:07.000Z</Time>
            <Position>
              <LatitudeDegrees>42.76623822748661041259765625</LatitudeDegrees>
              <LongitudeDegrees>-0.1799400150775909423828125</LongitudeDegrees>
            </Position>
            <AltitudeMeters>2164.800048828125</AltitudeMeters>
            <DistanceMeters>30259.463046872</DistanceMeters>
          </Trackpoint>
          <Trackpoint>
            <Time>2022-07-10T08:24:09.000Z</Time>
            <Position>
              <LatitudeDegrees>42.76622490026056766510009765625</LatitudeDegrees>
              <LongitudeDegrees>-0.17996474169194698333740234375</LongitudeDegrees>
            </Position>
            <AltitudeMeters>2165</AltitudeMeters>
            <DistanceMeters>30261.968222141</DistanceMeters>
          </Trackpoint>
          <Trackpoint>
            <Time>2022-07-10T08:24:12.000Z</Time>
            <Position>
              <LatitudeDegrees>42.76621769182384014129638671875</LatitudeDegrees>
              <LongitudeDegrees>-0.18001000396907329559326171875</LongitudeDegrees>
            </Position>
            <AltitudeMeters>2165.60009765625</AltitudeMeters>
            <DistanceMeters>30265.753817381</DistanceMeters>
          </Trackpoint>
          <Trackpoint>
            <Time>2022-07-10T08:24:14.000Z</Time>
            <Position>
              <LatitudeDegrees>42.76620998047292232513427734375</LatitudeDegrees>
              <LongitudeDegrees>-0.18001972697675228118896484375</LongitudeDegrees>
            </Position>
            <AltitudeMeters>2165.800048828125</AltitudeMeters>
            <DistanceMeters>30266.925385398</DistanceMeters>
          </Trackpoint>
          <Trackpoint>
            <Time>2022-07-10T08:24:15.000Z</Time>
            <Position>
              <LatitudeDegrees>42.7662065438926219940185546875</LatitudeDegrees>
              <LongitudeDegrees>-0.18002710305154323577880859375</LongitudeDegrees>
            </Position>
            <AltitudeMeters>2166</AltitudeMeters>
            <DistanceMeters>30267.636500214</DistanceMeters>
          </Trackpoint>
          <Trackpoint>
            <Time>2022-07-10T08:24:16.000Z</Time>
            <Position>
              <LatitudeDegrees>42.766205705702304840087890625</LatitudeDegrees>
              <LongitudeDegrees>-0.180039592087268829345703125</LongitudeDegrees>
            </Position>
            <AltitudeMeters>2166.199951171875</AltitudeMeters>
            <DistanceMeters>30268.655548197</DistanceMeters>
          </Trackpoint>
          <Trackpoint>
            <Time>2022-07-10T08:24:21.000Z</Time>
            <Position>
              <LatitudeDegrees>42.766192294657230377197265625</LatitudeDegrees>
              <LongitudeDegrees>-0.18007169477641582489013671875</LongitudeDegrees>
            </Position>
            <AltitudeMeters>2166.39990234375</AltitudeMeters>
            <DistanceMeters>30271.674049005</DistanceMeters>
          </Trackpoint>
          <Trackpoint>
            <Time>2022-07-10T08:24:22.000Z</Time>
            <Position>
              <LatitudeDegrees>42.766188271343708038330078125</LatitudeDegrees>
              <LongitudeDegrees>-0.18007638864219188690185546875</LongitudeDegrees>
            </Position>
            <AltitudeMeters>2166.60009765625</AltitudeMeters>
            <DistanceMeters>30272.259833014</DistanceMeters>
          </Trackpoint>
          <Trackpoint>
            <Time>2022-07-10T08:24:25.000Z</Time>
            <Position>
              <LatitudeDegrees>42.7661726810038089752197265625</LatitudeDegrees>
              <LongitudeDegrees>-0.1801054738461971282958984375</LongitudeDegrees>
            </Position>
            <AltitudeMeters>2167</AltitudeMeters>
            <DistanceMeters>30275.204128072</DistanceMeters>
          </Trackpoint>
          <Trackpoint>
            <Time>2022-07-10T08:24:26.000Z</Time>
            <Position>
              <LatitudeDegrees>42.766170166432857513427734375</LatitudeDegrees>
              <LongitudeDegrees>-0.18011645413935184478759765625</LongitudeDegrees>
            </Position>
            <AltitudeMeters>2167</AltitudeMeters>
            <DistanceMeters>30276.144844549</DistanceMeters>
          </Trackpoint>
          <Trackpoint>
            <Time>2022-07-10T08:24:27.000Z</Time>
            <Position>
              <LatitudeDegrees>42.76617242954671382904052734375</LatitudeDegrees>
              <LongitudeDegrees>-0.18012869171798229217529296875</LongitudeDegrees>
            </Position>
            <AltitudeMeters>2167.199951171875</AltitudeMeters>
            <DistanceMeters>30277.172715623</DistanceMeters>
          </Trackpoint>
          <Trackpoint>
            <Time>2022-07-10T08:24:29.000Z</Time>
            <Position>
              <LatitudeDegrees>42.7661817334592342376708984375</LatitudeDegrees>
              <LongitudeDegrees>-0.18014981411397457122802734375</LongitudeDegrees>
            </Position>
            <AltitudeMeters>2167.39990234375</AltitudeMeters>
            <DistanceMeters>30279.184052056</DistanceMeters>
          </Trackpoint>
          <Trackpoint>
            <Time>2022-07-10T08:24:32.000Z</Time>
            <Position>
              <LatitudeDegrees>42.766194976866245269775390625</LatitudeDegrees>
              <LongitudeDegrees>-0.18018032424151897430419921875</LongitudeDegrees>
            </Position>
            <AltitudeMeters>2167.60009765625</AltitudeMeters>
            <DistanceMeters>30282.078859638</DistanceMeters>
          </Trackpoint>
          <Trackpoint>
            <Time>2022-07-10T08:24:37.000Z</Time>
            <Position>
              <LatitudeDegrees>42.7661864273250102996826171875</LatitudeDegrees>
              <LongitudeDegrees>-0.18022340722382068634033203125</LongitudeDegrees>
            </Position>
            <AltitudeMeters>2168</AltitudeMeters>
            <DistanceMeters>30285.724716537</DistanceMeters>
          </Trackpoint>
          <Trackpoint>
            <Time>2022-07-10T08:24:40.000Z</Time>
            <Position>
              <LatitudeDegrees>42.76617444120347499847412109375</LatitudeDegrees>
              <LongitudeDegrees>-0.18025374971330165863037109375</LongitudeDegrees>
            </Position>
            <AltitudeMeters>2168.60009765625</AltitudeMeters>
            <DistanceMeters>30288.540459266</DistanceMeters>
          </Trackpoint>
          <Trackpoint>
            <Time>2022-07-10T08:24:44.000Z</Time>
            <Position>
              <LatitudeDegrees>42.7661706693470478057861328125</LatitudeDegrees>
              <LongitudeDegrees>-0.1803128421306610107421875</LongitudeDegrees>
            </Position>
            <AltitudeMeters>2169.199951171875</AltitudeMeters>
            <DistanceMeters>30293.386821699</DistanceMeters>
          </Trackpoint>
          <Trackpoint>
            <Time>2022-07-10T08:24:49.000Z</Time>
            <Position>
              <LatitudeDegrees>42.766156755387783050537109375</LatitudeDegrees>
              <LongitudeDegrees>-0.18038752488791942596435546875</LongitudeDegrees>
            </Position>
            <AltitudeMeters>2170</AltitudeMeters>
            <DistanceMeters>30299.682296702</DistanceMeters>
          </Trackpoint>
          <Trackpoint>
            <Time>2022-07-10T08:24:52.000Z</Time>
            <Position>
              <LatitudeDegrees>42.76615046896040439605712890625</LatitudeDegrees>
              <LongitudeDegrees>-0.1804213039577007293701171875</LongitudeDegrees>
            </Position>
            <AltitudeMeters>2170.199951171875</AltitudeMeters>
            <DistanceMeters>30302.526755964</DistanceMeters>
          </Trackpoint>
          <Trackpoint>
            <Time>2022-07-10T08:24:53.000Z</Time>
            <Position>
              <LatitudeDegrees>42.76614971458911895751953125</LatitudeDegrees>
              <LongitudeDegrees>-0.180424489080905914306640625</LongitudeDegrees>
            </Position>
            <AltitudeMeters>2170.39990234375</AltitudeMeters>
            <DistanceMeters>30302.811836107</DistanceMeters>
          </Trackpoint>
          <Trackpoint>
            <Time>2022-07-10T08:24:56.000Z</Time>
            <Position>
              <LatitudeDegrees>42.76614166796207427978515625</LatitudeDegrees>
              <LongitudeDegrees>-0.18043379299342632293701171875</LongitudeDegrees>
            </Position>
            <AltitudeMeters>2170.800048828125</AltitudeMeters>
            <DistanceMeters>30303.983404125</DistanceMeters>
          </Trackpoint>
          <Trackpoint>
            <Time>2022-07-10T08:24:57.000Z</Time>
            <Position>
              <LatitudeDegrees>42.76614166796207427978515625</LatitudeDegrees>
              <LongitudeDegrees>-0.1804397441446781158447265625</LongitudeDegrees>
            </Position>
            <AltitudeMeters>2171</AltitudeMeters>
            <DistanceMeters>30304.467947196</DistanceMeters>
          </Trackpoint>
          <Trackpoint>
            <Time>2022-07-10T08:24:59.000Z</Time>
            <Position>
              <LatitudeDegrees>42.76614258997142314910888671875</LatitudeDegrees>
              <LongitudeDegrees>-0.18045575357973575592041015625</LongitudeDegrees>
            </Position>
            <AltitudeMeters>2171.199951171875</AltitudeMeters>
            <DistanceMeters>30305.777800059</DistanceMeters>
          </Trackpoint>
          <Trackpoint>
            <Time>2022-07-10T08:25:02.000Z</Time>
            <Position>
              <LatitudeDegrees>42.7661423385143280029296875</LatitudeDegrees>
              <LongitudeDegrees>-0.1804665662348270416259765625</LongitudeDegrees>
            </Position>
            <AltitudeMeters>2171.60009765625</AltitudeMeters>
            <DistanceMeters>30306.659041555</DistanceMeters>
          </Trackpoint>
          <Trackpoint>
            <Time>2022-07-10T08:25:04.000Z</Time>
            <Position>
              <LatitudeDegrees>42.76614275760948657989501953125</LatitudeDegrees>
              <LongitudeDegrees>-0.18047033809125423431396484375</LongitudeDegrees>
            </Position>
            <AltitudeMeters>2171.60009765625</AltitudeMeters>
            <DistanceMeters>30306.98822375</DistanceMeters>
          </Trackpoint>
          <Trackpoint>
            <Time>2022-07-10T08:25:08.000Z</Time>
            <Position>
              <LatitudeDegrees>42.76615600101649761199951171875</LatitudeDegrees>
              <LongitudeDegrees>-0.18050520680844783782958984375</LongitudeDegrees>
            </Position>
            <AltitudeMeters>2172.39990234375</AltitudeMeters>
            <DistanceMeters>30310.196694904</DistanceMeters>
          </Trackpoint>
          <Trackpoint>
            <Time>2022-07-10T08:25:09.000Z</Time>
            <Position>
              <LatitudeDegrees>42.76615465991199016571044921875</LatitudeDegrees>
              <LongitudeDegrees>-0.18051677383482456207275390625</LongitudeDegrees>
            </Position>
            <AltitudeMeters>2172.60009765625</AltitudeMeters>
            <DistanceMeters>30311.156417675</DistanceMeters>
          </Trackpoint>
          <Trackpoint>
            <Time>2022-07-10T08:25:10.000Z</Time>
            <Position>
              <LatitudeDegrees>42.7661512233316898345947265625</LatitudeDegrees>
              <LongitudeDegrees>-0.1805306039750576019287109375</LongitudeDegrees>
            </Position>
            <AltitudeMeters>2172.60009765625</AltitudeMeters>
            <DistanceMeters>30312.350884953</DistanceMeters>
          </Trackpoint>
          <Trackpoint>
            <Time>2022-07-10T08:25:16.000Z</Time>
            <Position>
              <LatitudeDegrees>42.766108810901641845703125</LatitudeDegrees>
              <LongitudeDegrees>-0.18058634363114833831787109375</LongitudeDegrees>
            </Position>
            <AltitudeMeters>2173.39990234375</AltitudeMeters>
            <DistanceMeters>30318.909793718</DistanceMeters>
          </Trackpoint>
          <Trackpoint>
            <Time>2022-07-10T08:25:22.000Z</Time>
            <Position>
              <LatitudeDegrees>42.76606924831867218017578125</LatitudeDegrees>
              <LongitudeDegrees>-0.180631019175052642822265625</LongitudeDegrees>
            </Position>
            <AltitudeMeters>2174.199951171875</AltitudeMeters>
            <DistanceMeters>30324.630370352</DistanceMeters>
          </Trackpoint>
          <Trackpoint>
            <Time>2022-07-10T08:25:23.000Z</Time>
            <Position>
              <LatitudeDegrees>42.76606262661516666412353515625</LatitudeDegrees>
              <LongitudeDegrees>-0.18064032308757305145263671875</LongitudeDegrees>
            </Position>
            <AltitudeMeters>2174.39990234375</AltitudeMeters>
            <DistanceMeters>30325.68854306</DistanceMeters>
          </Trackpoint>
          <Trackpoint>
            <Time>2022-07-10T08:25:24.000Z</Time>
            <Position>
              <LatitudeDegrees>42.7660556696355342864990234375</LatitudeDegrees>
              <LongitudeDegrees>-0.18064820207655429840087890625</LongitudeDegrees>
            </Position>
            <AltitudeMeters>2174.60009765625</AltitudeMeters>
            <DistanceMeters>30326.69869089</DistanceMeters>
          </Trackpoint>
          <Trackpoint>
            <Time>2022-07-10T08:25:29.000Z</Time>
            <Position>
              <LatitudeDegrees>42.76602272875607013702392578125</LatitudeDegrees>
              <LongitudeDegrees>-0.18068675883114337921142578125</LongitudeDegrees>
            </Position>
            <AltitudeMeters>2175.39990234375</AltitudeMeters>
            <DistanceMeters>30331.532926903</DistanceMeters>
          </Trackpoint>
          <Trackpoint>
            <Time>2022-07-10T08:25:30.000Z</Time>
            <Position>
              <LatitudeDegrees>42.766015268862247467041015625</LatitudeDegrees>
              <LongitudeDegrees>-0.18069212324917316436767578125</LongitudeDegrees>
            </Position>
            <AltitudeMeters>2175.39990234375</AltitudeMeters>
            <DistanceMeters>30332.473643381</DistanceMeters>
          </Trackpoint>
          <Trackpoint>
            <Time>2022-07-10T08:25:34.000Z</Time>
            <Position>
              <LatitudeDegrees>42.7659782208502292633056640625</LatitudeDegrees>
              <LongitudeDegrees>-0.1807233877480030059814453125</LongitudeDegrees>
            </Position>
            <AltitudeMeters>2175.60009765625</AltitudeMeters>
            <DistanceMeters>30337.325592401</DistanceMeters>
          </Trackpoint>
          <Trackpoint>
            <Time>2022-07-10T08:25:36.000Z</Time>
            <Position>
              <LatitudeDegrees>42.765958942472934722900390625</LatitudeDegrees>
              <LongitudeDegrees>-0.18074409104883670806884765625</LongitudeDegrees>
            </Position>
            <AltitudeMeters>2176</AltitudeMeters>
            <DistanceMeters>30340.059985075</DistanceMeters>
          </Trackpoint>
          <Trackpoint>
            <Time>2022-07-10T08:25:37.000Z</Time>
            <Position>
              <LatitudeDegrees>42.76594947092235088348388671875</LatitudeDegrees>
              <LongitudeDegrees>-0.1807495392858982086181640625</LongitudeDegrees>
            </Position>
            <AltitudeMeters>2176.39990234375</AltitudeMeters>
            <DistanceMeters>30341.208197233</DistanceMeters>
          </Trackpoint>
          <Trackpoint>
            <Time>2022-07-10T08:25:38.000Z</Time>
            <Position>
              <LatitudeDegrees>42.76594175957143306732177734375</LatitudeDegrees>
              <LongitudeDegrees>-0.18075448460876941680908203125</LongitudeDegrees>
            </Position>
            <AltitudeMeters>2176.60009765625</AltitudeMeters>
            <DistanceMeters>30342.158464377</DistanceMeters>
          </Trackpoint>
          <Trackpoint>
            <Time>2022-07-10T08:25:39.000Z</Time>
            <Position>
              <LatitudeDegrees>42.7659358084201812744140625</LatitudeDegrees>
              <LongitudeDegrees>-0.180759765207767486572265625</LongitudeDegrees>
            </Position>
            <AltitudeMeters>2176.800048828125</AltitudeMeters>
            <DistanceMeters>30342.953514911</DistanceMeters>
          </Trackpoint>
          <Trackpoint>
            <Time>2022-07-10T08:25:41.000Z</Time>
            <Position>
              <LatitudeDegrees>42.76592466048896312713623046875</LatitudeDegrees>
              <LongitudeDegrees>-0.1807709969580173492431640625</LongitudeDegrees>
            </Position>
            <AltitudeMeters>2177.39990234375</AltitudeMeters>
            <DistanceMeters>30344.494589245</DistanceMeters>
          </Trackpoint>
          <Trackpoint>
            <Time>2022-07-10T08:25:42.000Z</Time>
            <Position>
              <LatitudeDegrees>42.765918709337711334228515625</LatitudeDegrees>
              <LongitudeDegrees>-0.18077761866152286529541015625</LongitudeDegrees>
            </Position>
            <AltitudeMeters>2177.60009765625</AltitudeMeters>
            <DistanceMeters>30345.344534017</DistanceMeters>
          </Trackpoint>
          <Trackpoint>
            <Time>2022-07-10T08:25:43.000Z</Time>
            <Position>
              <LatitudeDegrees>42.7659135125577449798583984375</LatitudeDegrees>
              <LongitudeDegrees>-0.1807810552418231964111328125</LongitudeDegrees>
            </Position>
            <AltitudeMeters>2177.800048828125</AltitudeMeters>
            <DistanceMeters>30345.989036551</DistanceMeters>
          </Trackpoint>
          <Trackpoint>
            <Time>2022-07-10T08:25:45.000Z</Time>
            <Position>
              <LatitudeDegrees>42.76590404100716114044189453125</LatitudeDegrees>
              <LongitudeDegrees>-0.18079102970659732818603515625</LongitudeDegrees>
            </Position>
            <AltitudeMeters>2178</AltitudeMeters>
            <DistanceMeters>30347.319410552</DistanceMeters>
          </Trackpoint>
          <Trackpoint>
            <Time>2022-07-10T08:25:49.000Z</Time>
            <Position>
              <LatitudeDegrees>42.7659014426171779632568359375</LatitudeDegrees>
              <LongitudeDegrees>-0.180815421044826507568359375</LongitudeDegrees>
            </Position>
            <AltitudeMeters>2178.39990234375</AltitudeMeters>
            <DistanceMeters>30349.332990529</DistanceMeters>
          </Trackpoint>
          <Trackpoint>
            <Time>2022-07-10T08:25:50.000Z</Time>
            <Position>
              <LatitudeDegrees>42.76590487919747829437255859375</LatitudeDegrees>
              <LongitudeDegrees>-0.18082573078572750091552734375</LongitudeDegrees>
            </Position>
            <AltitudeMeters>2178.60009765625</AltitudeMeters>
            <DistanceMeters>30350.254308708</DistanceMeters>
          </Trackpoint>
          <Trackpoint>
            <Time>2022-07-10T08:25:51.000Z</Time>
            <Position>
              <LatitudeDegrees>42.76590789668262004852294921875</LatitudeDegrees>
              <LongitudeDegrees>-0.1808407343924045562744140625</LongitudeDegrees>
            </Position>
            <AltitudeMeters>2178.800048828125</AltitudeMeters>
            <DistanceMeters>30351.525679497</DistanceMeters>
          </Trackpoint>
          <Trackpoint>
            <Time>2022-07-10T08:25:52.000Z</Time>
            <Position>
              <LatitudeDegrees>42.76591124944388866424560546875</LatitudeDegrees>
              <LongitudeDegrees>-0.1808554865419864654541015625</LongitudeDegrees>
            </Position>
            <AltitudeMeters>2179</AltitudeMeters>
            <DistanceMeters>30352.786351323</DistanceMeters>
          </Trackpoint>
          <Trackpoint>
            <Time>2022-07-10T08:25:53.000Z</Time>
            <Position>
              <LatitudeDegrees>42.76591443456709384918212890625</LatitudeDegrees>
              <LongitudeDegrees>-0.1808692328631877899169921875</LongitudeDegrees>
            </Position>
            <AltitudeMeters>2179.199951171875</AltitudeMeters>
            <DistanceMeters>30353.965601836</DistanceMeters>
          </Trackpoint>
          <Trackpoint>
            <Time>2022-07-10T08:25:54.000Z</Time>
            <Position>
              <LatitudeDegrees>42.76591694913804531097412109375</LatitudeDegrees>
              <LongitudeDegrees>-0.18088155426084995269775390625</LongitudeDegrees>
            </Position>
            <AltitudeMeters>2179.60009765625</AltitudeMeters>
            <DistanceMeters>30355.006567337</DistanceMeters>
          </Trackpoint>
          <Trackpoint>
            <Time>2022-07-10T08:25:56.000Z</Time>
            <Position>
              <LatitudeDegrees>42.76591460220515727996826171875</LatitudeDegrees>
              <LongitudeDegrees>-0.1808950491249561309814453125</LongitudeDegrees>
            </Position>
            <AltitudeMeters>2179.800048828125</AltitudeMeters>
            <DistanceMeters>30356.142921565</DistanceMeters>
          </Trackpoint>
          <Trackpoint>
            <Time>2022-07-10T08:25:57.000Z</Time>
            <Position>
              <LatitudeDegrees>42.76591057889163494110107421875</LatitudeDegrees>
              <LongitudeDegrees>-0.180901251733303070068359375</LongitudeDegrees>
            </Position>
            <AltitudeMeters>2180</AltitudeMeters>
            <DistanceMeters>30356.828168947</DistanceMeters>
          </Trackpoint>
          <Trackpoint>
            <Time>2022-07-10T08:25:59.000Z</Time>
            <Position>
              <LatitudeDegrees>42.7659021131694316864013671875</LatitudeDegrees>
              <LongitudeDegrees>-0.1809136569499969482421875</LongitudeDegrees>
            </Position>
            <AltitudeMeters>2180.199951171875</AltitudeMeters>
            <DistanceMeters>30358.211778793</DistanceMeters>
          </Trackpoint>
          <Trackpoint>
            <Time>2022-07-10T08:26:00.000Z</Time>
            <Position>
              <LatitudeDegrees>42.7658980898559093475341796875</LatitudeDegrees>
              <LongitudeDegrees>-0.1809188537299633026123046875</LongitudeDegrees>
            </Position>
            <AltitudeMeters>2180.60009765625</AltitudeMeters>
            <DistanceMeters>30358.827622289</DistanceMeters>
          </Trackpoint>
          <Trackpoint>
            <Time>2022-07-10T08:26:02.000Z</Time>
            <Position>
              <LatitudeDegrees>42.765895910561084747314453125</LatitudeDegrees>
              <LongitudeDegrees>-0.180934779345989227294921875</LongitudeDegrees>
            </Position>
            <AltitudeMeters>2181</AltitudeMeters>
            <DistanceMeters>30360.15799629</DistanceMeters>
          </Trackpoint>
          <Trackpoint>
            <Time>2022-07-10T08:26:04.000Z</Time>
            <Position>
              <LatitudeDegrees>42.76589800603687763214111328125</LatitudeDegrees>
              <LongitudeDegrees>-0.18096788786351680755615234375</LongitudeDegrees>
            </Position>
            <AltitudeMeters>2181.199951171875</AltitudeMeters>
            <DistanceMeters>30362.875826772</DistanceMeters>
          </Trackpoint>
          <Trackpoint>
            <Time>2022-07-10T08:26:05.000Z</Time>
            <Position>
              <LatitudeDegrees>42.76589616201817989349365234375</LatitudeDegrees>
              <LongitudeDegrees>-0.1809802092611789703369140625</LongitudeDegrees>
            </Position>
            <AltitudeMeters>2181.199951171875</AltitudeMeters>
            <DistanceMeters>30363.899295808</DistanceMeters>
          </Trackpoint>
          <Trackpoint>
            <Time>2022-07-10T08:26:08.000Z</Time>
            <Position>
              <LatitudeDegrees>42.7658823318779468536376953125</LatitudeDegrees>
              <LongitudeDegrees>-0.1810315065085887908935546875</LongitudeDegrees>
            </Position>
            <AltitudeMeters>2181.39990234375</AltitudeMeters>
            <DistanceMeters>30368.364540347</DistanceMeters>
          </Trackpoint>
          <Trackpoint>
            <Time>2022-07-10T08:26:11.000Z</Time>
            <Position>
              <LatitudeDegrees>42.765869759023189544677734375</LatitudeDegrees>
              <LongitudeDegrees>-0.181070901453495025634765625</LongitudeDegrees>
            </Position>
            <AltitudeMeters>2181.60009765625</AltitudeMeters>
            <DistanceMeters>30371.875388442</DistanceMeters>
          </Trackpoint>
          <Trackpoint>
            <Time>2022-07-10T08:26:13.000Z</Time>
            <Position>
              <LatitudeDegrees>42.76586816646158695220947265625</LatitudeDegrees>
              <LongitudeDegrees>-0.1810960471630096435546875</LongitudeDegrees>
            </Position>
            <AltitudeMeters>2181.60009765625</AltitudeMeters>
            <DistanceMeters>30373.935518517</DistanceMeters>
          </Trackpoint>
          <Trackpoint>
            <Time>2022-07-10T08:26:15.000Z</Time>
            <Position>
              <LatitudeDegrees>42.76587135158479213714599609375</LatitudeDegrees>
              <LongitudeDegrees>-0.1811255514621734619140625</LongitudeDegrees>
            </Position>
            <AltitudeMeters>2181.800048828125</AltitudeMeters>
            <DistanceMeters>30376.373097295</DistanceMeters>
          </Trackpoint>
          <Trackpoint>
            <Time>2022-07-10T08:26:17.000Z</Time>
            <Position>
              <LatitudeDegrees>42.76587336324155330657958984375</LatitudeDegrees>
              <LongitudeDegrees>-0.1811488531529903411865234375</LongitudeDegrees>
            </Position>
            <AltitudeMeters>2181.800048828125</AltitudeMeters>
            <DistanceMeters>30378.292542838</DistanceMeters>
          </Trackpoint>
          <Trackpoint>
            <Time>2022-07-10T08:26:23.000Z</Time>
            <Position>
              <LatitudeDegrees>42.76589415036141872406005859375</LatitudeDegrees>
              <LongitudeDegrees>-0.18119403161108493804931640625</LongitudeDegrees>
            </Position>
            <AltitudeMeters>2181.800048828125</AltitudeMeters>
            <DistanceMeters>30382.648250657</DistanceMeters>
          </Trackpoint>
          <Trackpoint>
            <Time>2022-07-10T08:26:25.000Z</Time>
            <Position>
              <LatitudeDegrees>42.76589985005557537078857421875</LatitudeDegrees>
              <LongitudeDegrees>-0.18120400607585906982421875</LongitudeDegrees>
            </Position>
            <AltitudeMeters>2181.800048828125</AltitudeMeters>
            <DistanceMeters>30383.676121731</DistanceMeters>
          </Trackpoint>
          <Trackpoint>
            <Time>2022-07-10T08:26:26.000Z</Time>
            <Position>
              <LatitudeDegrees>42.76590454392135143280029296875</LatitudeDegrees>
              <LongitudeDegrees>-0.18120576627552509307861328125</LongitudeDegrees>
            </Position>
            <AltitudeMeters>2182.199951171875</AltitudeMeters>
            <DistanceMeters>30384.213674004</DistanceMeters>
          </Trackpoint>
          <Trackpoint>
            <Time>2022-07-10T08:26:28.000Z</Time>
            <Position>
              <LatitudeDegrees>42.7659064717590808868408203125</LatitudeDegrees>
              <LongitudeDegrees>-0.18121783621609210968017578125</LongitudeDegrees>
            </Position>
            <AltitudeMeters>2183</AltitudeMeters>
            <DistanceMeters>30385.223821833</DistanceMeters>
          </Trackpoint>
          <Trackpoint>
            <Time>2022-07-10T08:26:30.000Z</Time>
            <Position>
              <LatitudeDegrees>42.7659054659307003021240234375</LatitudeDegrees>
              <LongitudeDegrees>-0.18123040907084941864013671875</LongitudeDegrees>
            </Position>
            <AltitudeMeters>2183.39990234375</AltitudeMeters>
            <DistanceMeters>30386.256076172</DistanceMeters>
          </Trackpoint>
          <Trackpoint>
            <Time>2022-07-10T08:26:32.000Z</Time>
            <Position>
              <LatitudeDegrees>42.76591108180582523345947265625</LatitudeDegrees>
              <LongitudeDegrees>-0.18123242072761058807373046875</LongitudeDegrees>
            </Position>
            <AltitudeMeters>2184</AltitudeMeters>
            <DistanceMeters>30386.900578707</DistanceMeters>
          </Trackpoint>
          <Trackpoint>
            <Time>2022-07-10T08:26:33.000Z</Time>
            <Position>
              <LatitudeDegrees>42.765910662710666656494140625</LatitudeDegrees>
              <LongitudeDegrees>-0.18123141489923000335693359375</LongitudeDegrees>
            </Position>
            <AltitudeMeters>2184</AltitudeMeters>
            <DistanceMeters>30386.995605421</DistanceMeters>
          </Trackpoint>
          <Trackpoint>
            <Time>2022-07-10T08:26:36.000Z</Time>
            <Position>
              <LatitudeDegrees>42.7658944018185138702392578125</LatitudeDegrees>
              <LongitudeDegrees>-0.18124348483979701995849609375</LongitudeDegrees>
            </Position>
            <AltitudeMeters>2184.60009765625</AltitudeMeters>
            <DistanceMeters>30389.055735497</DistanceMeters>
          </Trackpoint>
          <Trackpoint>
            <Time>2022-07-10T08:26:38.000Z</Time>
            <Position>
              <LatitudeDegrees>42.76587478816509246826171875</LatitudeDegrees>
              <LongitudeDegrees>-0.18124759197235107421875</LongitudeDegrees>
            </Position>
            <AltitudeMeters>2184.800048828125</AltitudeMeters>
            <DistanceMeters>30391.26395679</DistanceMeters>
          </Trackpoint>
          <Trackpoint>
            <Time>2022-07-10T08:26:39.000Z</Time>
            <Position>
              <LatitudeDegrees>42.76586280204355716705322265625</LatitudeDegrees>
              <LongitudeDegrees>-0.18124834634363651275634765625</LongitudeDegrees>
            </Position>
            <AltitudeMeters>2184.800048828125</AltitudeMeters>
            <DistanceMeters>30392.601101186</DistanceMeters>
          </Trackpoint>
          <Trackpoint>
            <Time>2022-07-10T08:26:41.000Z</Time>
            <Position>
              <LatitudeDegrees>42.76584536768496036529541015625</LatitudeDegrees>
              <LongitudeDegrees>-0.181259997189044952392578125</LongitudeDegrees>
            </Position>
            <AltitudeMeters>2185</AltitudeMeters>
            <DistanceMeters>30394.761783838</DistanceMeters>
          </Trackpoint>
          <Trackpoint>
            <Time>2022-07-10T08:26:42.000Z</Time>
            <Position>
              <LatitudeDegrees>42.765836901962757110595703125</LatitudeDegrees>
              <LongitudeDegrees>-0.1812665350735187530517578125</LongitudeDegrees>
            </Position>
            <AltitudeMeters>2185</AltitudeMeters>
            <DistanceMeters>30395.849414296</DistanceMeters>
          </Trackpoint>
          <Trackpoint>
            <Time>2022-07-10T08:26:44.000Z</Time>
            <Position>
              <LatitudeDegrees>42.76581737212836742401123046875</LatitudeDegrees>
              <LongitudeDegrees>-0.18128313124179840087890625</LongitudeDegrees>
            </Position>
            <AltitudeMeters>2185.199951171875</AltitudeMeters>
            <DistanceMeters>30398.40985088</DistanceMeters>
          </Trackpoint>
          <Trackpoint>
            <Time>2022-07-10T08:26:46.000Z</Time>
            <Position>
              <LatitudeDegrees>42.7657965011894702911376953125</LatitudeDegrees>
              <LongitudeDegrees>-0.1812918484210968017578125</LongitudeDegrees>
            </Position>
            <AltitudeMeters>2185.800048828125</AltitudeMeters>
            <DistanceMeters>30400.840009309</DistanceMeters>
          </Trackpoint>
          <Trackpoint>
            <Time>2022-07-10T08:26:50.000Z</Time>
            <Position>
              <LatitudeDegrees>42.76575936935842037200927734375</LatitudeDegrees>
              <LongitudeDegrees>-0.18130701966583728790283203125</LongitudeDegrees>
            </Position>
            <AltitudeMeters>2186.800048828125</AltitudeMeters>
            <DistanceMeters>30405.155101154</DistanceMeters>
          </Trackpoint>
          <Trackpoint>
            <Time>2022-07-10T08:26:53.000Z</Time>
            <Position>
              <LatitudeDegrees>42.76574193499982357025146484375</LatitudeDegrees>
              <LongitudeDegrees>-0.18133350647985935211181640625</LongitudeDegrees>
            </Position>
            <AltitudeMeters>2187.39990234375</AltitudeMeters>
            <DistanceMeters>30408.062359579</DistanceMeters>
          </Trackpoint>
          <Trackpoint>
            <Time>2022-07-10T08:26:55.000Z</Time>
            <Position>
              <LatitudeDegrees>42.76572860777378082275390625</LatitudeDegrees>
              <LongitudeDegrees>-0.18134708516299724578857421875</LongitudeDegrees>
            </Position>
            <AltitudeMeters>2187.800048828125</AltitudeMeters>
            <DistanceMeters>30409.914771264</DistanceMeters>
          </Trackpoint>
          <Trackpoint>
            <Time>2022-07-10T08:26:57.000Z</Time>
            <Position>
              <LatitudeDegrees>42.7657207287847995758056640625</LatitudeDegrees>
              <LongitudeDegrees>-0.1813687942922115325927734375</LongitudeDegrees>
            </Position>
            <AltitudeMeters>2188.39990234375</AltitudeMeters>
            <DistanceMeters>30411.894431128</DistanceMeters>
          </Trackpoint>
          <Trackpoint>
            <Time>2022-07-10T08:26:58.000Z</Time>
            <Position>
              <LatitudeDegrees>42.76572114787995815277099609375</LatitudeDegrees>
              <LongitudeDegrees>-0.18138346262276172637939453125</LongitudeDegrees>
            </Position>
            <AltitudeMeters>2188.60009765625</AltitudeMeters>
            <DistanceMeters>30413.096434552</DistanceMeters>
          </Trackpoint>
          <Trackpoint>
            <Time>2022-07-10T08:26:59.000Z</Time>
            <Position>
              <LatitudeDegrees>42.76572098024189472198486328125</LatitudeDegrees>
              <LongitudeDegrees>-0.1813964545726776123046875</LongitudeDegrees>
            </Position>
            <AltitudeMeters>2188.60009765625</AltitudeMeters>
            <DistanceMeters>30414.158865517</DistanceMeters>
          </Trackpoint>
          <Trackpoint>
            <Time>2022-07-10T08:27:01.000Z</Time>
            <Position>
              <LatitudeDegrees>42.76571377180516719818115234375</LatitudeDegrees>
              <LongitudeDegrees>-0.18141799606382846832275390625</LongitudeDegrees>
            </Position>
            <AltitudeMeters>2188.800048828125</AltitudeMeters>
            <DistanceMeters>30416.092373119</DistanceMeters>
          </Trackpoint>
          <Trackpoint>
            <Time>2022-07-10T08:27:04.000Z</Time>
            <Position>
              <LatitudeDegrees>42.765694074332714080810546875</LatitudeDegrees>
              <LongitudeDegrees>-0.1814489252865314483642578125</LongitudeDegrees>
            </Position>
            <AltitudeMeters>2188.800048828125</AltitudeMeters>
            <DistanceMeters>30419.438609033</DistanceMeters>
          </Trackpoint>
          <Trackpoint>
            <Time>2022-07-10T08:27:05.000Z</Time>
            <Position>
              <LatitudeDegrees>42.76568644680082798004150390625</LatitudeDegrees>
              <LongitudeDegrees>-0.181455127894878387451171875</LongitudeDegrees>
            </Position>
            <AltitudeMeters>2189</AltitudeMeters>
            <DistanceMeters>30420.435257621</DistanceMeters>
          </Trackpoint>
          <Trackpoint>
            <Time>2022-07-10T08:27:07.000Z</Time>
            <Position>
              <LatitudeDegrees>42.76566834188997745513916015625</LatitudeDegrees>
              <LongitudeDegrees>-0.181459821760654449462890625</LongitudeDegrees>
            </Position>
            <AltitudeMeters>2189.39990234375</AltitudeMeters>
            <DistanceMeters>30422.486602454</DistanceMeters>
          </Trackpoint>
          <Trackpoint>
            <Time>2022-07-10T08:27:09.000Z</Time>
            <Position>
              <LatitudeDegrees>42.7656530030071735382080078125</LatitudeDegrees>
              <LongitudeDegrees>-0.18146811984479427337646484375</LongitudeDegrees>
            </Position>
            <AltitudeMeters>2189.60009765625</AltitudeMeters>
            <DistanceMeters>30424.324331648</DistanceMeters>
          </Trackpoint>
          <Trackpoint>
            <Time>2022-07-10T08:27:11.000Z</Time>
            <Position>
              <LatitudeDegrees>42.76564084924757480621337890625</LatitudeDegrees>
              <LongitudeDegrees>-0.18148052506148815155029296875</LongitudeDegrees>
            </Position>
            <AltitudeMeters>2190.199951171875</AltitudeMeters>
            <DistanceMeters>30426.013563472</DistanceMeters>
          </Trackpoint>
          <Trackpoint>
            <Time>2022-07-10T08:27:17.000Z</Time>
            <Position>
              <LatitudeDegrees>42.76559223420917987823486328125</LatitudeDegrees>
              <LongitudeDegrees>-0.1815359294414520263671875</LongitudeDegrees>
            </Position>
            <AltitudeMeters>2190.800048828125</AltitudeMeters>
            <DistanceMeters>30433.068617076</DistanceMeters>
          </Trackpoint>
          <Trackpoint>
            <Time>2022-07-10T08:27:18.000Z</Time>
            <Position>
              <LatitudeDegrees>42.7655852772295475006103515625</LatitudeDegrees>
              <LongitudeDegrees>-0.18154104240238666534423828125</LongitudeDegrees>
            </Position>
            <AltitudeMeters>2190.800048828125</AltitudeMeters>
            <DistanceMeters>30433.944720094</DistanceMeters>
          </Trackpoint>
          <Trackpoint>
            <Time>2022-07-10T08:27:21.000Z</Time>
            <Position>
              <LatitudeDegrees>42.76555694639682769775390625</LatitudeDegrees>
              <LongitudeDegrees>-0.1815501786768436431884765625</LongitudeDegrees>
            </Position>
            <AltitudeMeters>2191.199951171875</AltitudeMeters>
            <DistanceMeters>30437.186788721</DistanceMeters>
          </Trackpoint>
          <Trackpoint>
            <Time>2022-07-10T08:27:23.000Z</Time>
            <Position>
              <LatitudeDegrees>42.76554160751402378082275390625</LatitudeDegrees>
              <LongitudeDegrees>-0.18155269324779510498046875</LongitudeDegrees>
            </Position>
            <AltitudeMeters>2191.800048828125</AltitudeMeters>
            <DistanceMeters>30438.907795715</DistanceMeters>
          </Trackpoint>
          <Trackpoint>
            <Time>2022-07-10T08:27:27.000Z</Time>
            <Position>
              <LatitudeDegrees>42.76551445014774799346923828125</LatitudeDegrees>
              <LongitudeDegrees>-0.18156384117901325225830078125</LongitudeDegrees>
            </Position>
            <AltitudeMeters>2192.199951171875</AltitudeMeters>
            <DistanceMeters>30442.065200408</DistanceMeters>
          </Trackpoint>
          <Trackpoint>
            <Time>2022-07-10T08:27:28.000Z</Time>
            <Position>
              <LatitudeDegrees>42.765510343015193939208984375</LatitudeDegrees>
              <LongitudeDegrees>-0.18156685866415500640869140625</LongitudeDegrees>
            </Position>
            <AltitudeMeters>2192.199951171875</AltitudeMeters>
            <DistanceMeters>30442.585683158</DistanceMeters>
          </Trackpoint>
          <Trackpoint>
            <Time>2022-07-10T08:27:29.000Z</Time>
            <Position>
              <LatitudeDegrees>42.76550455950200557708740234375</LatitudeDegrees>
              <LongitudeDegrees>-0.18156903795897960662841796875</LongitudeDegrees>
            </Position>
            <AltitudeMeters>2192.199951171875</AltitudeMeters>
            <DistanceMeters>30443.257623499</DistanceMeters>
          </Trackpoint>
          <Trackpoint>
            <Time>2022-07-10T08:27:34.000Z</Time>
            <Position>
              <LatitudeDegrees>42.765461392700672149658203125</LatitudeDegrees>
              <LongitudeDegrees>-0.18158622086048126220703125</LongitudeDegrees>
            </Position>
            <AltitudeMeters>2192.800048828125</AltitudeMeters>
            <DistanceMeters>30448.262564264</DistanceMeters>
          </Trackpoint>
          <Trackpoint>
            <Time>2022-07-10T08:27:35.000Z</Time>
            <Position>
              <LatitudeDegrees>42.7654588781297206878662109375</LatitudeDegrees>
              <LongitudeDegrees>-0.1815895736217498779296875</LongitudeDegrees>
            </Position>
            <AltitudeMeters>2192.800048828125</AltitudeMeters>
            <DistanceMeters>30448.642671121</DistanceMeters>
          </Trackpoint>
          <Trackpoint>
            <Time>2022-07-10T08:27:39.000Z</Time>
            <Position>
              <LatitudeDegrees>42.7654565311968326568603515625</LatitudeDegrees>
              <LongitudeDegrees>-0.18162955529987812042236328125</LongitudeDegrees>
            </Position>
            <AltitudeMeters>2193</AltitudeMeters>
            <DistanceMeters>30451.920748449</DistanceMeters>
          </Trackpoint>
          <Trackpoint>
            <Time>2022-07-10T08:27:41.000Z</Time>
            <Position>
              <LatitudeDegrees>42.76546432636678218841552734375</LatitudeDegrees>
              <LongitudeDegrees>-0.1816588081419467926025390625</LongitudeDegrees>
            </Position>
            <AltitudeMeters>2193.199951171875</AltitudeMeters>
            <DistanceMeters>30454.465265065</DistanceMeters>
          </Trackpoint>
          <Trackpoint>
            <Time>2022-07-10T08:27:45.000Z</Time>
            <Position>
              <LatitudeDegrees>42.76546466164290904998779296875</LatitudeDegrees>
              <LongitudeDegrees>-0.18170180730521678924560546875</LongitudeDegrees>
            </Position>
            <AltitudeMeters>2193.199951171875</AltitudeMeters>
            <DistanceMeters>30457.97739895</DistanceMeters>
          </Trackpoint>
          <Trackpoint>
            <Time>2022-07-10T08:27:47.000Z</Time>
            <Position>
              <LatitudeDegrees>42.765457369387149810791015625</LatitudeDegrees>
              <LongitudeDegrees>-0.181706584990024566650390625</LongitudeDegrees>
            </Position>
            <AltitudeMeters>2193.199951171875</AltitudeMeters>
            <DistanceMeters>30458.88389603</DistanceMeters>
          </Trackpoint>
          <Trackpoint>
            <Time>2022-07-10T08:27:52.000Z</Time>
            <Position>
              <LatitudeDegrees>42.76540984399616718292236328125</LatitudeDegrees>
              <LongitudeDegrees>-0.18170826137065887451171875</LongitudeDegrees>
            </Position>
            <AltitudeMeters>2193.60009765625</AltitudeMeters>
            <DistanceMeters>30464.175612864</DistanceMeters>
          </Trackpoint>
          <Trackpoint>
            <Time>2022-07-10T08:27:53.000Z</Time>
            <Position>
              <LatitudeDegrees>42.76540498249232769012451171875</LatitudeDegrees>
              <LongitudeDegrees>-0.1817111112177371978759765625</LongitudeDegrees>
            </Position>
            <AltitudeMeters>2193.800048828125</AltitudeMeters>
            <DistanceMeters>30464.761396873</DistanceMeters>
          </Trackpoint>
          <Trackpoint>
            <Time>2022-07-10T08:27:59.000Z</Time>
            <Position>
              <LatitudeDegrees>42.76541990227997303009033203125</LatitudeDegrees>
              <LongitudeDegrees>-0.1817647553980350494384765625</LongitudeDegrees>
            </Position>
            <AltitudeMeters>2194</AltitudeMeters>
            <DistanceMeters>30469.447668943</DistanceMeters>
          </Trackpoint>
          <Trackpoint>
            <Time>2022-07-10T08:28:04.000Z</Time>
            <Position>
              <LatitudeDegrees>42.76541001163423061370849609375</LatitudeDegrees>
              <LongitudeDegrees>-0.1817956008017063140869140625</LongitudeDegrees>
            </Position>
            <AltitudeMeters>2194</AltitudeMeters>
            <DistanceMeters>30472.195239489</DistanceMeters>
          </Trackpoint>
          <Trackpoint>
            <Time>2022-07-10T08:28:05.000Z</Time>
            <Position>
              <LatitudeDegrees>42.76541202329099178314208984375</LatitudeDegrees>
              <LongitudeDegrees>-0.18180549144744873046875</LongitudeDegrees>
            </Position>
            <AltitudeMeters>2194.39990234375</AltitudeMeters>
            <DistanceMeters>30473.029095523</DistanceMeters>
          </Trackpoint>
          <Trackpoint>
            <Time>2022-07-10T08:28:10.000Z</Time>
            <Position>
              <LatitudeDegrees>42.7654087543487548828125</LatitudeDegrees>
              <LongitudeDegrees>-0.18183357082307338714599609375</LongitudeDegrees>
            </Position>
            <AltitudeMeters>2194.800048828125</AltitudeMeters>
            <DistanceMeters>30475.352882457</DistanceMeters>
          </Trackpoint>
          <Trackpoint>
            <Time>2022-07-10T08:28:16.000Z</Time>
            <Position>
              <LatitudeDegrees>42.7654488198459148406982421875</LatitudeDegrees>
              <LongitudeDegrees>-0.18187564797699451446533203125</LongitudeDegrees>
            </Position>
            <AltitudeMeters>2195</AltitudeMeters>
            <DistanceMeters>30480.98356611</DistanceMeters>
          </Trackpoint>
          <Trackpoint>
            <Time>2022-07-10T08:28:21.000Z</Time>
            <Position>
              <LatitudeDegrees>42.7654776535928249359130859375</LatitudeDegrees>
              <LongitudeDegrees>-0.18195569515228271484375</LongitudeDegrees>
            </Position>
            <AltitudeMeters>2195</AltitudeMeters>
            <DistanceMeters>30488.268465509</DistanceMeters>
          </Trackpoint>
          <Trackpoint>
            <Time>2022-07-10T08:28:23.000Z</Time>
            <Position>
              <LatitudeDegrees>42.76548779569566249847412109375</LatitudeDegrees>
              <LongitudeDegrees>-0.18197514116764068603515625</LongitudeDegrees>
            </Position>
            <AltitudeMeters>2195.199951171875</AltitudeMeters>
            <DistanceMeters>30490.220564958</DistanceMeters>
          </Trackpoint>
          <Trackpoint>
            <Time>2022-07-10T08:28:24.000Z</Time>
            <Position>
              <LatitudeDegrees>42.76549433358013629913330078125</LatitudeDegrees>
              <LongitudeDegrees>-0.1819853670895099639892578125</LongitudeDegrees>
            </Position>
            <AltitudeMeters>2195.199951171875</AltitudeMeters>
            <DistanceMeters>30491.328757359</DistanceMeters>
          </Trackpoint>
          <Trackpoint>
            <Time>2022-07-10T08:28:29.000Z</Time>
            <Position>
              <LatitudeDegrees>42.7655185572803020477294921875</LatitudeDegrees>
              <LongitudeDegrees>-0.1820363290607929229736328125</LongitudeDegrees>
            </Position>
            <AltitudeMeters>2195.39990234375</AltitudeMeters>
            <DistanceMeters>30496.290207589</DistanceMeters>
          </Trackpoint>
          <Trackpoint>
            <Time>2022-07-10T08:28:33.000Z</Time>
            <Position>
              <LatitudeDegrees>42.76554428972303867340087890625</LatitudeDegrees>
              <LongitudeDegrees>-0.182094834744930267333984375</LongitudeDegrees>
            </Position>
            <AltitudeMeters>2195.60009765625</AltitudeMeters>
            <DistanceMeters>30501.862858026</DistanceMeters>
          </Trackpoint>
          <Trackpoint>
            <Time>2022-07-10T08:28:36.000Z</Time>
            <Position>
              <LatitudeDegrees>42.7655634842813014984130859375</LatitudeDegrees>
              <LongitudeDegrees>-0.18214051611721515655517578125</LongitudeDegrees>
            </Position>
            <AltitudeMeters>2196</AltitudeMeters>
            <DistanceMeters>30506.16327621</DistanceMeters>
          </Trackpoint>
          <Trackpoint>
            <Time>2022-07-10T08:28:39.000Z</Time>
            <Position>
              <LatitudeDegrees>42.76558108627796173095703125</LatitudeDegrees>
              <LongitudeDegrees>-0.18217957578599452972412109375</LongitudeDegrees>
            </Position>
            <AltitudeMeters>2196.199951171875</AltitudeMeters>
            <DistanceMeters>30509.909305947</DistanceMeters>
          </Trackpoint>
          <Trackpoint>
            <Time>2022-07-10T08:28:42.000Z</Time>
            <Position>
              <LatitudeDegrees>42.765582762658596038818359375</LatitudeDegrees>
              <LongitudeDegrees>-0.18223137594759464263916015625</LongitudeDegrees>
            </Position>
            <AltitudeMeters>2196.60009765625</AltitudeMeters>
            <DistanceMeters>30514.146261454</DistanceMeters>
          </Trackpoint>
          <Trackpoint>
            <Time>2022-07-10T08:28:45.000Z</Time>
            <Position>
              <LatitudeDegrees>42.76558804325759410858154296875</LatitudeDegrees>
              <LongitudeDegrees>-0.1822566054761409759521484375</LongitudeDegrees>
            </Position>
            <AltitudeMeters>2197.39990234375</AltitudeMeters>
            <DistanceMeters>30516.288054823</DistanceMeters>
          </Trackpoint>
          <Trackpoint>
            <Time>2022-07-10T08:28:46.000Z</Time>
            <Position>
              <LatitudeDegrees>42.76558837853372097015380859375</LatitudeDegrees>
              <LongitudeDegrees>-0.18226993270218372344970703125</LongitudeDegrees>
            </Position>
            <AltitudeMeters>2197.60009765625</AltitudeMeters>
            <DistanceMeters>30517.379828651</DistanceMeters>
          </Trackpoint>
          <Trackpoint>
            <Time>2022-07-10T08:28:51.000Z</Time>
            <Position>
              <LatitudeDegrees>42.765577733516693115234375</LatitudeDegrees>
              <LongitudeDegrees>-0.18235978670418262481689453125</LongitudeDegrees>
            </Position>
            <AltitudeMeters>2197.199951171875</AltitudeMeters>
            <DistanceMeters>30524.817452485</DistanceMeters>
          </Trackpoint>
          <Trackpoint>
            <Time>2022-07-10T08:28:57.000Z</Time>
            <Position>
              <LatitudeDegrees>42.765575386583805084228515625</LatitudeDegrees>
              <LongitudeDegrees>-0.18246992491185665130615234375</LongitudeDegrees>
            </Position>
            <AltitudeMeters>2196.800048828125</AltitudeMeters>
            <DistanceMeters>30533.820450105</DistanceMeters>
          </Trackpoint>
          <Trackpoint>
            <Time>2022-07-10T08:28:58.000Z</Time>
            <Position>
              <LatitudeDegrees>42.76556960307061672210693359375</LatitudeDegrees>
              <LongitudeDegrees>-0.18248635344207286834716796875</LongitudeDegrees>
            </Position>
            <AltitudeMeters>2196.800048828125</AltitudeMeters>
            <DistanceMeters>30535.307853456</DistanceMeters>
          </Trackpoint>
          <Trackpoint>
            <Time>2022-07-10T08:28:59.000Z</Time>
            <Position>
              <LatitudeDegrees>42.7655708603560924530029296875</LatitudeDegrees>
              <LongitudeDegrees>-0.18250378780066967010498046875</LongitudeDegrees>
            </Position>
            <AltitudeMeters>2196.800048828125</AltitudeMeters>
            <DistanceMeters>30536.736418217</DistanceMeters>
          </Trackpoint>
          <Trackpoint>
            <Time>2022-07-10T08:29:02.000Z</Time>
            <Position>
              <LatitudeDegrees>42.7655832655727863311767578125</LatitudeDegrees>
              <LongitudeDegrees>-0.1825623773038387298583984375</LongitudeDegrees>
            </Position>
            <AltitudeMeters>2196.800048828125</AltitudeMeters>
            <DistanceMeters>30541.717848742</DistanceMeters>
          </Trackpoint>
          <Trackpoint>
            <Time>2022-07-10T08:29:03.000Z</Time>
            <Position>
              <LatitudeDegrees>42.76558804325759410858154296875</LatitudeDegrees>
              <LongitudeDegrees>-0.182584337890148162841796875</LongitudeDegrees>
            </Position>
            <AltitudeMeters>2196.800048828125</AltitudeMeters>
            <DistanceMeters>30543.589657936</DistanceMeters>
          </Trackpoint>
          <Trackpoint>
            <Time>2022-07-10T08:29:05.000Z</Time>
            <Position>
              <LatitudeDegrees>42.765589468181133270263671875</LatitudeDegrees>
              <LongitudeDegrees>-0.18261711113154888153076171875</LongitudeDegrees>
            </Position>
            <AltitudeMeters>2196.60009765625</AltitudeMeters>
            <DistanceMeters>30546.272375015</DistanceMeters>
          </Trackpoint>
          <Trackpoint>
            <Time>2022-07-10T08:29:06.000Z</Time>
            <Position>
              <LatitudeDegrees>42.765588797628879547119140625</LatitudeDegrees>
              <LongitudeDegrees>-0.1826337911188602447509765625</LongitudeDegrees>
            </Position>
            <AltitudeMeters>2196.60009765625</AltitudeMeters>
            <DistanceMeters>30547.636264947</DistanceMeters>
          </Trackpoint>
          <Trackpoint>
            <Time>2022-07-10T08:29:10.000Z</Time>
            <Position>
              <LatitudeDegrees>42.76558510959148406982421875</LatitudeDegrees>
              <LongitudeDegrees>-0.1826830767095088958740234375</LongitudeDegrees>
            </Position>
            <AltitudeMeters>2196.60009765625</AltitudeMeters>
            <DistanceMeters>30551.684670652</DistanceMeters>
          </Trackpoint>
          <Trackpoint>
            <Time>2022-07-10T08:29:13.000Z</Time>
            <Position>
              <LatitudeDegrees>42.76558418758213520050048828125</LatitudeDegrees>
              <LongitudeDegrees>-0.18271006643772125244140625</LongitudeDegrees>
            </Position>
            <AltitudeMeters>2197</AltitudeMeters>
            <DistanceMeters>30553.892891945</DistanceMeters>
          </Trackpoint>
          <Trackpoint>
            <Time>2022-07-10T08:29:15.000Z</Time>
            <Position>
              <LatitudeDegrees>42.76558670215308666229248046875</LatitudeDegrees>
              <LongitudeDegrees>-0.18273286521434783935546875</LongitudeDegrees>
            </Position>
            <AltitudeMeters>2197.199951171875</AltitudeMeters>
            <DistanceMeters>30555.7743249</DistanceMeters>
          </Trackpoint>
          <Trackpoint>
            <Time>2022-07-10T08:29:16.000Z</Time>
            <Position>
              <LatitudeDegrees>42.76559223420917987823486328125</LatitudeDegrees>
              <LongitudeDegrees>-0.18274535425007343292236328125</LongitudeDegrees>
            </Position>
            <AltitudeMeters>2197.199951171875</AltitudeMeters>
            <DistanceMeters>30556.961208182</DistanceMeters>
          </Trackpoint>
          <Trackpoint>
            <Time>2022-07-10T08:29:20.000Z</Time>
            <Position>
              <LatitudeDegrees>42.765611596405506134033203125</LatitudeDegrees>
              <LongitudeDegrees>-0.182779133319854736328125</LongitudeDegrees>
            </Position>
            <AltitudeMeters>2197.60009765625</AltitudeMeters>
            <DistanceMeters>30560.461752959</DistanceMeters>
          </Trackpoint>
          <Trackpoint>
            <Time>2022-07-10T08:29:23.000Z</Time>
            <Position>
              <LatitudeDegrees>42.76563414372503757476806640625</LatitudeDegrees>
              <LongitudeDegrees>-0.18280251882970333099365234375</LongitudeDegrees>
            </Position>
            <AltitudeMeters>2197.60009765625</AltitudeMeters>
            <DistanceMeters>30563.616296387</DistanceMeters>
          </Trackpoint>
          <Trackpoint>
            <Time>2022-07-10T08:29:27.000Z</Time>
            <Position>
              <LatitudeDegrees>42.765668593347072601318359375</LatitudeDegrees>
              <LongitudeDegrees>-0.1828295923769474029541015625</LongitudeDegrees>
            </Position>
            <AltitudeMeters>2198.199951171875</AltitudeMeters>
            <DistanceMeters>30568.042950415</DistanceMeters>
          </Trackpoint>
          <Trackpoint>
            <Time>2022-07-10T08:29:30.000Z</Time>
            <Position>
              <LatitudeDegrees>42.76567957364022731781005859375</LatitudeDegrees>
              <LongitudeDegrees>-0.1828641258180141448974609375</LongitudeDegrees>
            </Position>
            <AltitudeMeters>2198.800048828125</AltitudeMeters>
            <DistanceMeters>30571.117765863</DistanceMeters>
          </Trackpoint>
          <Trackpoint>
            <Time>2022-07-10T08:29:32.000Z</Time>
            <Position>
              <LatitudeDegrees>42.76568879373371601104736328125</LatitudeDegrees>
              <LongitudeDegrees>-0.1828805543482303619384765625</LongitudeDegrees>
            </Position>
            <AltitudeMeters>2198.800048828125</AltitudeMeters>
            <DistanceMeters>30572.806997687</DistanceMeters>
          </Trackpoint>
          <Trackpoint>
            <Time>2022-07-10T08:29:33.000Z</Time>
            <Position>
              <LatitudeDegrees>42.765693403780460357666015625</LatitudeDegrees>
              <LongitudeDegrees>-0.18288709223270416259765625</LongitudeDegrees>
            </Position>
            <AltitudeMeters>2199</AltitudeMeters>
            <DistanceMeters>30573.549180052</DistanceMeters>
          </Trackpoint>
          <Trackpoint>
            <Time>2022-07-10T08:29:38.000Z</Time>
            <Position>
              <LatitudeDegrees>42.76570790447294712066650390625</LatitudeDegrees>
              <LongitudeDegrees>-0.182940065860748291015625</LongitudeDegrees>
            </Position>
            <AltitudeMeters>2199.60009765625</AltitudeMeters>
            <DistanceMeters>30578.167517476</DistanceMeters>
          </Trackpoint>
          <Trackpoint>
            <Time>2022-07-10T08:29:39.000Z</Time>
            <Position>
              <LatitudeDegrees>42.765710838139057159423828125</LatitudeDegrees>
              <LongitudeDegrees>-0.18294953741133213043212890625</LongitudeDegrees>
            </Position>
            <AltitudeMeters>2200</AltitudeMeters>
            <DistanceMeters>30579.006770694</DistanceMeters>
          </Trackpoint>
          <Trackpoint>
            <Time>2022-07-10T08:29:40.000Z</Time>
            <Position>
              <LatitudeDegrees>42.76571192778646945953369140625</LatitudeDegrees>
              <LongitudeDegrees>-0.18296026624739170074462890625</LongitudeDegrees>
            </Position>
            <AltitudeMeters>2200.199951171875</AltitudeMeters>
            <DistanceMeters>30579.893120879</DistanceMeters>
          </Trackpoint>
          <Trackpoint>
            <Time>2022-07-10T08:29:45.000Z</Time>
            <Position>
              <LatitudeDegrees>42.765713520348072052001953125</LatitudeDegrees>
              <LongitudeDegrees>-0.18300955183804035186767578125</LongitudeDegrees>
            </Position>
            <AltitudeMeters>2200.800048828125</AltitudeMeters>
            <DistanceMeters>30583.924762926</DistanceMeters>
          </Trackpoint>
          <Trackpoint>
            <Time>2022-07-10T08:29:46.000Z</Time>
            <Position>
              <LatitudeDegrees>42.76571494527161121368408203125</LatitudeDegrees>
              <LongitudeDegrees>-0.1830180175602436065673828125</LongitudeDegrees>
            </Position>
            <AltitudeMeters>2200.800048828125</AltitudeMeters>
            <DistanceMeters>30584.635877742</DistanceMeters>
          </Trackpoint>
          <Trackpoint>
            <Time>2022-07-10T08:29:49.000Z</Time>
            <Position>
              <LatitudeDegrees>42.7657234109938144683837890625</LatitudeDegrees>
              <LongitudeDegrees>-0.18305263482034206390380859375</LongitudeDegrees>
            </Position>
            <AltitudeMeters>2200.60009765625</AltitudeMeters>
            <DistanceMeters>30587.616749296</DistanceMeters>
          </Trackpoint>
          <Trackpoint>
            <Time>2022-07-10T08:29:52.000Z</Time>
            <Position>
              <LatitudeDegrees>42.76573439128696918487548828125</LatitudeDegrees>
              <LongitudeDegrees>-0.183087252080440521240234375</LongitudeDegrees>
            </Position>
            <AltitudeMeters>2200.60009765625</AltitudeMeters>
            <DistanceMeters>30590.698897965</DistanceMeters>
          </Trackpoint>
          <Trackpoint>
            <Time>2022-07-10T08:29:53.000Z</Time>
            <Position>
              <LatitudeDegrees>42.76573757641017436981201171875</LatitudeDegrees>
              <LongitudeDegrees>-0.183099992573261260986328125</LongitudeDegrees>
            </Position>
            <AltitudeMeters>2200.60009765625</AltitudeMeters>
            <DistanceMeters>30591.798911712</DistanceMeters>
          </Trackpoint>
          <Trackpoint>
            <Time>2022-07-10T08:29:55.000Z</Time>
            <Position>
              <LatitudeDegrees>42.76574025861918926239013671875</LatitudeDegrees>
              <LongitudeDegrees>-0.183114074170589447021484375</LongitudeDegrees>
            </Position>
            <AltitudeMeters>2200.39990234375</AltitudeMeters>
            <DistanceMeters>30592.985794994</DistanceMeters>
          </Trackpoint>
          <Trackpoint>
            <Time>2022-07-10T08:29:57.000Z</Time>
            <Position>
              <LatitudeDegrees>42.76573891751468181610107421875</LatitudeDegrees>
              <LongitudeDegrees>-0.18312823958694934844970703125</LongitudeDegrees>
            </Position>
            <AltitudeMeters>2200.39990234375</AltitudeMeters>
            <DistanceMeters>30594.149629805</DistanceMeters>
          </Trackpoint>
          <Trackpoint>
            <Time>2022-07-10T08:29:59.000Z</Time>
            <Position>
              <LatitudeDegrees>42.7657344751060009002685546875</LatitudeDegrees>
              <LongitudeDegrees>-0.183148272335529327392578125</LongitudeDegrees>
            </Position>
            <AltitudeMeters>2200.199951171875</AltitudeMeters>
            <DistanceMeters>30595.860110663</DistanceMeters>
          </Trackpoint>
          <Trackpoint>
            <Time>2022-07-10T08:30:05.000Z</Time>
            <Position>
              <LatitudeDegrees>42.7657244168221950531005859375</LatitudeDegrees>
              <LongitudeDegrees>-0.18321876414120197296142578125</LongitudeDegrees>
            </Position>
            <AltitudeMeters>2200.60009765625</AltitudeMeters>
            <DistanceMeters>30601.728731588</DistanceMeters>
          </Trackpoint>
          <Trackpoint>
            <Time>2022-07-10T08:30:06.000Z</Time>
            <Position>
              <LatitudeDegrees>42.76572165079414844512939453125</LatitudeDegrees>
              <LongitudeDegrees>-0.18323183991014957427978515625</LongitudeDegrees>
            </Position>
            <AltitudeMeters>2200.60009765625</AltitudeMeters>
            <DistanceMeters>30602.845042722</DistanceMeters>
          </Trackpoint>
          <Trackpoint>
            <Time>2022-07-10T08:30:11.000Z</Time>
            <Position>
              <LatitudeDegrees>42.76572902686893939971923828125</LatitudeDegrees>
              <LongitudeDegrees>-0.1833023317158222198486328125</LongitudeDegrees>
            </Position>
            <AltitudeMeters>2200.800048828125</AltitudeMeters>
            <DistanceMeters>30608.662664789</DistanceMeters>
          </Trackpoint>
          <Trackpoint>
            <Time>2022-07-10T08:30:14.000Z</Time>
            <Position>
              <LatitudeDegrees>42.765729613602161407470703125</LatitudeDegrees>
              <LongitudeDegrees>-0.18335874192416667938232421875</LongitudeDegrees>
            </Position>
            <AltitudeMeters>2201.199951171875</AltitudeMeters>
            <DistanceMeters>30613.273174517</DistanceMeters>
          </Trackpoint>
          <Trackpoint>
            <Time>2022-07-10T08:30:16.000Z</Time>
            <Position>
              <LatitudeDegrees>42.7657260932028293609619140625</LatitudeDegrees>
              <LongitudeDegrees>-0.18338958732783794403076171875</LongitudeDegrees>
            </Position>
            <AltitudeMeters>2201.39990234375</AltitudeMeters>
            <DistanceMeters>30615.8212375</DistanceMeters>
          </Trackpoint>
          <Trackpoint>
            <Time>2022-07-10T08:30:18.000Z</Time>
            <Position>
              <LatitudeDegrees>42.76572517119348049163818359375</LatitudeDegrees>
              <LongitudeDegrees>-0.18340618349611759185791015625</LongitudeDegrees>
            </Position>
            <AltitudeMeters>2201.60009765625</AltitudeMeters>
            <DistanceMeters>30617.178490458</DistanceMeters>
          </Trackpoint>
          <Trackpoint>
            <Time>2022-07-10T08:30:21.000Z</Time>
            <Position>
              <LatitudeDegrees>42.765732966363430023193359375</LatitudeDegrees>
              <LongitudeDegrees>-0.1834223605692386627197265625</LongitudeDegrees>
            </Position>
            <AltitudeMeters>2201.800048828125</AltitudeMeters>
            <DistanceMeters>30618.757192805</DistanceMeters>
          </Trackpoint>
          <Trackpoint>
            <Time>2022-07-10T08:30:22.000Z</Time>
            <Position>
              <LatitudeDegrees>42.76573791168630123138427734375</LatitudeDegrees>
              <LongitudeDegrees>-0.1834361068904399871826171875</LongitudeDegrees>
            </Position>
            <AltitudeMeters>2201.800048828125</AltitudeMeters>
            <DistanceMeters>30620.010681258</DistanceMeters>
          </Trackpoint>
          <Trackpoint>
            <Time>2022-07-10T08:30:24.000Z</Time>
            <Position>
              <LatitudeDegrees>42.7657453715801239013671875</LatitudeDegrees>
              <LongitudeDegrees>-0.18346988596022129058837890625</LongitudeDegrees>
            </Position>
            <AltitudeMeters>2202</AltitudeMeters>
            <DistanceMeters>30622.891417318</DistanceMeters>
          </Trackpoint>
          <Trackpoint>
            <Time>2022-07-10T08:30:25.000Z</Time>
            <Position>
              <LatitudeDegrees>42.7657462097704410552978515625</LatitudeDegrees>
              <LongitudeDegrees>-0.18348078243434429168701171875</LongitudeDegrees>
            </Position>
            <AltitudeMeters>2202.199951171875</AltitudeMeters>
            <DistanceMeters>30623.787897549</DistanceMeters>
          </Trackpoint>
          <Trackpoint>
            <Time>2022-07-10T08:30:28.000Z</Time>
            <Position>
              <LatitudeDegrees>42.76574201881885528564453125</LatitudeDegrees>
              <LongitudeDegrees>-0.1835048384964466094970703125</LongitudeDegrees>
            </Position>
            <AltitudeMeters>2202.39990234375</AltitudeMeters>
            <DistanceMeters>30625.808193209</DistanceMeters>
          </Trackpoint>
          <Trackpoint>
            <Time>2022-07-10T08:30:34.000Z</Time>
            <Position>
              <LatitudeDegrees>42.76574981398880481719970703125</LatitudeDegrees>
              <LongitudeDegrees>-0.18359645269811153411865234375</LongitudeDegrees>
            </Position>
            <AltitudeMeters>2202.800048828125</AltitudeMeters>
            <DistanceMeters>30633.344716335</DistanceMeters>
          </Trackpoint>
          <Trackpoint>
            <Time>2022-07-10T08:30:35.000Z</Time>
            <Position>
              <LatitudeDegrees>42.76574662886559963226318359375</LatitudeDegrees>
              <LongitudeDegrees>-0.18360592424869537353515625</LongitudeDegrees>
            </Position>
            <AltitudeMeters>2202.800048828125</AltitudeMeters>
            <DistanceMeters>30634.199956764</DistanceMeters>
          </Trackpoint>
          <Trackpoint>
            <Time>2022-07-10T08:30:37.000Z</Time>
            <Position>
              <LatitudeDegrees>42.76575853116810321807861328125</LatitudeDegrees>
              <LongitudeDegrees>-0.1836419664323329925537109375</LongitudeDegrees>
            </Position>
            <AltitudeMeters>2203.199951171875</AltitudeMeters>
            <DistanceMeters>30637.428068939</DistanceMeters>
          </Trackpoint>
          <Trackpoint>
            <Time>2022-07-10T08:30:43.000Z</Time>
            <Position>
              <LatitudeDegrees>42.76578585617244243621826171875</LatitudeDegrees>
              <LongitudeDegrees>-0.18373006023466587066650390625</LongitudeDegrees>
            </Position>
            <AltitudeMeters>2204</AltitudeMeters>
            <DistanceMeters>30645.242246882</DistanceMeters>
          </Trackpoint>
          <Trackpoint>
            <Time>2022-07-10T08:30:44.000Z</Time>
            <Position>
              <LatitudeDegrees>42.76578082703053951263427734375</LatitudeDegrees>
              <LongitudeDegrees>-0.1837375201284885406494140625</LongitudeDegrees>
            </Position>
            <AltitudeMeters>2204</AltitudeMeters>
            <DistanceMeters>30646.070670571</DistanceMeters>
          </Trackpoint>
          <Trackpoint>
            <Time>2022-07-10T08:30:45.000Z</Time>
            <Position>
              <LatitudeDegrees>42.7657753787934780120849609375</LatitudeDegrees>
              <LongitudeDegrees>-0.18374498002231121063232421875</LongitudeDegrees>
            </Position>
            <AltitudeMeters>2204.199951171875</AltitudeMeters>
            <DistanceMeters>30646.931174069</DistanceMeters>
          </Trackpoint>
          <Trackpoint>
            <Time>2022-07-10T08:30:47.000Z</Time>
            <Position>
              <LatitudeDegrees>42.76576121337711811065673828125</LatitudeDegrees>
              <LongitudeDegrees>-0.18377347849309444427490234375</LongitudeDegrees>
            </Position>
            <AltitudeMeters>2204.800048828125</AltitudeMeters>
            <DistanceMeters>30649.743707973</DistanceMeters>
          </Trackpoint>
          <Trackpoint>
            <Time>2022-07-10T08:30:49.000Z</Time>
            <Position>
              <LatitudeDegrees>42.7657462097704410552978515625</LatitudeDegrees>
              <LongitudeDegrees>-0.183806084096431732177734375</LongitudeDegrees>
            </Position>
            <AltitudeMeters>2205</AltitudeMeters>
            <DistanceMeters>30652.889651994</DistanceMeters>
          </Trackpoint>
          <Trackpoint>
            <Time>2022-07-10T08:30:52.000Z</Time>
            <Position>
              <LatitudeDegrees>42.765730284154415130615234375</LatitudeDegrees>
              <LongitudeDegrees>-0.183853022754192352294921875</LongitudeDegrees>
            </Position>
            <AltitudeMeters>2205.39990234375</AltitudeMeters>
            <DistanceMeters>30657.11593774</DistanceMeters>
          </Trackpoint>
          <Trackpoint>
            <Time>2022-07-10T08:30:53.000Z</Time>
            <Position>
              <LatitudeDegrees>42.76572860777378082275390625</LatitudeDegrees>
              <LongitudeDegrees>-0.18387439660727977752685546875</LongitudeDegrees>
            </Position>
            <AltitudeMeters>2205.800048828125</AltitudeMeters>
            <DistanceMeters>30658.873289766</DistanceMeters>
          </Trackpoint>
          <Trackpoint>
            <Time>2022-07-10T08:30:55.000Z</Time>
            <Position>
              <LatitudeDegrees>42.76572030968964099884033203125</LatitudeDegrees>
              <LongitudeDegrees>-0.18390876241028308868408203125</LongitudeDegrees>
            </Position>
            <AltitudeMeters>2206</AltitudeMeters>
            <DistanceMeters>30661.829827268</DistanceMeters>
          </Trackpoint>
          <Trackpoint>
            <Time>2022-07-10T08:30:56.000Z</Time>
            <Position>
              <LatitudeDegrees>42.76571863330900669097900390625</LatitudeDegrees>
              <LongitudeDegrees>-0.18392686732113361358642578125</LongitudeDegrees>
            </Position>
            <AltitudeMeters>2206.199951171875</AltitudeMeters>
            <DistanceMeters>30663.326309462</DistanceMeters>
          </Trackpoint>
          <Trackpoint>
            <Time>2022-07-10T08:30:57.000Z</Time>
            <Position>
              <LatitudeDegrees>42.76571913622319698333740234375</LatitudeDegrees>
              <LongitudeDegrees>-0.18394933082163333892822265625</LongitudeDegrees>
            </Position>
            <AltitudeMeters>2206.199951171875</AltitudeMeters>
            <DistanceMeters>30665.161580154</DistanceMeters>
          </Trackpoint>
          <Trackpoint>
            <Time>2022-07-10T08:31:00.000Z</Time>
            <Position>
              <LatitudeDegrees>42.76571947149932384490966796875</LatitudeDegrees>
              <LongitudeDegrees>-0.18400331027805805206298828125</LongitudeDegrees>
            </Position>
            <AltitudeMeters>2206.199951171875</AltitudeMeters>
            <DistanceMeters>30669.571884527</DistanceMeters>
          </Trackpoint>
          <Trackpoint>
            <Time>2022-07-10T08:31:02.000Z</Time>
            <Position>
              <LatitudeDegrees>42.7657267637550830841064453125</LatitudeDegrees>
              <LongitudeDegrees>-0.18403314985334873199462890625</LongitudeDegrees>
            </Position>
            <AltitudeMeters>2206.39990234375</AltitudeMeters>
            <DistanceMeters>30672.142879657</DistanceMeters>
          </Trackpoint>
          <Trackpoint>
            <Time>2022-07-10T08:31:03.000Z</Time>
            <Position>
              <LatitudeDegrees>42.7657284401357173919677734375</LatitudeDegrees>
              <LongitudeDegrees>-0.18404488451778888702392578125</LongitudeDegrees>
            </Position>
            <AltitudeMeters>2206.800048828125</AltitudeMeters>
            <DistanceMeters>30673.121239561</DistanceMeters>
          </Trackpoint>
          <Trackpoint>
            <Time>2022-07-10T08:31:05.000Z</Time>
            <Position>
              <LatitudeDegrees>42.765734307467937469482421875</LatitudeDegrees>
              <LongitudeDegrees>-0.1840732991695404052734375</LongitudeDegrees>
            </Position>
            <AltitudeMeters>2207.199951171875</AltitudeMeters>
            <DistanceMeters>30675.532747229</DistanceMeters>
          </Trackpoint>
          <Trackpoint>
            <Time>2022-07-10T08:31:07.000Z</Time>
            <Position>
              <LatitudeDegrees>42.76574713177978992462158203125</LatitudeDegrees>
              <LongitudeDegrees>-0.1840952597558498382568359375</LongitudeDegrees>
            </Position>
            <AltitudeMeters>2207.199951171875</AltitudeMeters>
            <DistanceMeters>30677.82523594</DistanceMeters>
          </Trackpoint>
          <Trackpoint>
            <Time>2022-07-10T08:31:08.000Z</Time>
            <Position>
              <LatitudeDegrees>42.7657552622258663177490234375</LatitudeDegrees>
              <LongitudeDegrees>-0.18410137854516506195068359375</LongitudeDegrees>
            </Position>
            <AltitudeMeters>2207.39990234375</AltitudeMeters>
            <DistanceMeters>30678.857490279</DistanceMeters>
          </Trackpoint>
          <Trackpoint>
            <Time>2022-07-10T08:31:10.000Z</Time>
            <Position>
              <LatitudeDegrees>42.76577227748930454254150390625</LatitudeDegrees>
              <LongitudeDegrees>-0.184117890894412994384765625</LongitudeDegrees>
            </Position>
            <AltitudeMeters>2207.800048828125</AltitudeMeters>
            <DistanceMeters>30681.1851599</DistanceMeters>
          </Trackpoint>
          <Trackpoint>
            <Time>2022-07-10T08:31:13.000Z</Time>
            <Position>
              <LatitudeDegrees>42.76580060832202434539794921875</LatitudeDegrees>
              <LongitudeDegrees>-0.184150747954845428466796875</LongitudeDegrees>
            </Position>
            <AltitudeMeters>2208.199951171875</AltitudeMeters>
            <DistanceMeters>30685.326188174</DistanceMeters>
          </Trackpoint>
          <Trackpoint>
            <Time>2022-07-10T08:31:16.000Z</Time>
            <Position>
              <LatitudeDegrees>42.76580949313938617706298828125</LatitudeDegrees>
              <LongitudeDegrees>-0.18417815677821636199951171875</LongitudeDegrees>
            </Position>
            <AltitudeMeters>2208.39990234375</AltitudeMeters>
            <DistanceMeters>30687.776698496</DistanceMeters>
          </Trackpoint>
          <Trackpoint>
            <Time>2022-07-10T08:31:18.000Z</Time>
            <Position>
              <LatitudeDegrees>42.76579926721751689910888671875</LatitudeDegrees>
              <LongitudeDegrees>-0.184203051030635833740234375</LongitudeDegrees>
            </Position>
            <AltitudeMeters>2208.800048828125</AltitudeMeters>
            <DistanceMeters>30690.108244339</DistanceMeters>
          </Trackpoint>
          <Trackpoint>
            <Time>2022-07-10T08:31:19.000Z</Time>
            <Position>
              <LatitudeDegrees>42.7657991833984851837158203125</LatitudeDegrees>
              <LongitudeDegrees>-0.1842126064002513885498046875</LongitudeDegrees>
            </Position>
            <AltitudeMeters>2209</AltitudeMeters>
            <DistanceMeters>30690.8918547</DistanceMeters>
          </Trackpoint>
          <Trackpoint>
            <Time>2022-07-10T08:31:22.000Z</Time>
            <Position>
              <LatitudeDegrees>42.76578250341117382049560546875</LatitudeDegrees>
              <LongitudeDegrees>-0.184236578643321990966796875</LongitudeDegrees>
            </Position>
            <AltitudeMeters>2209.199951171875</AltitudeMeters>
            <DistanceMeters>30693.593021442</DistanceMeters>
          </Trackpoint>
          <Trackpoint>
            <Time>2022-07-10T08:31:25.000Z</Time>
            <Position>
              <LatitudeDegrees>42.7657522447407245635986328125</LatitudeDegrees>
              <LongitudeDegrees>-0.184268094599246978759765625</LongitudeDegrees>
            </Position>
            <AltitudeMeters>2209.60009765625</AltitudeMeters>
            <DistanceMeters>30697.834237338</DistanceMeters>
          </Trackpoint>
          <Trackpoint>
            <Time>2022-07-10T08:31:26.000Z</Time>
            <Position>
              <LatitudeDegrees>42.76574964635074138641357421875</LatitudeDegrees>
              <LongitudeDegrees>-0.18427890725433826446533203125</LongitudeDegrees>
            </Position>
            <AltitudeMeters>2209.60009765625</AltitudeMeters>
            <DistanceMeters>30698.765305186</DistanceMeters>
          </Trackpoint>
          <Trackpoint>
            <Time>2022-07-10T08:31:30.000Z</Time>
            <Position>
              <LatitudeDegrees>42.76574545539915561676025390625</LatitudeDegrees>
              <LongitudeDegrees>-0.18432140350341796875</LongitudeDegrees>
            </Position>
            <AltitudeMeters>2209.800048828125</AltitudeMeters>
            <DistanceMeters>30702.269717258</DistanceMeters>
          </Trackpoint>
          <Trackpoint>
            <Time>2022-07-10T08:31:31.000Z</Time>
            <Position>
              <LatitudeDegrees>42.76574009098112583160400390625</LatitudeDegrees>
              <LongitudeDegrees>-0.18432668410241603851318359375</LongitudeDegrees>
            </Position>
            <AltitudeMeters>2209.800048828125</AltitudeMeters>
            <DistanceMeters>30703.005791022</DistanceMeters>
          </Trackpoint>
          <Trackpoint>
            <Time>2022-07-10T08:31:32.000Z</Time>
            <Position>
              <LatitudeDegrees>42.76573288254439830780029296875</LatitudeDegrees>
              <LongitudeDegrees>-0.18433137796819210052490234375</LongitudeDegrees>
            </Position>
            <AltitudeMeters>2210</AltitudeMeters>
            <DistanceMeters>30703.887032518</DistanceMeters>
          </Trackpoint>
          <Trackpoint>
            <Time>2022-07-10T08:31:34.000Z</Time>
            <Position>
              <LatitudeDegrees>42.76571922004222869873046875</LatitudeDegrees>
              <LongitudeDegrees>-0.1843396760523319244384765625</LongitudeDegrees>
            </Position>
            <AltitudeMeters>2210.39990234375</AltitudeMeters>
            <DistanceMeters>30705.552035061</DistanceMeters>
          </Trackpoint>
          <Trackpoint>
            <Time>2022-07-10T08:31:36.000Z</Time>
            <Position>
              <LatitudeDegrees>42.7657150290906429290771484375</LatitudeDegrees>
              <LongitudeDegrees>-0.18435635603964328765869140625</LongitudeDegrees>
            </Position>
            <AltitudeMeters>2210.60009765625</AltitudeMeters>
            <DistanceMeters>30706.996316079</DistanceMeters>
          </Trackpoint>
          <Trackpoint>
            <Time>2022-07-10T08:31:38.000Z</Time>
            <Position>
              <LatitudeDegrees>42.76571528054773807525634765625</LatitudeDegrees>
              <LongitudeDegrees>-0.1843691803514957427978515625</LongitudeDegrees>
            </Position>
            <AltitudeMeters>2210.60009765625</AltitudeMeters>
            <DistanceMeters>30708.045920445</DistanceMeters>
          </Trackpoint>
          <Trackpoint>
            <Time>2022-07-10T08:31:43.000Z</Time>
            <Position>
              <LatitudeDegrees>42.76572617702186107635498046875</LatitudeDegrees>
              <LongitudeDegrees>-0.1843871176242828369140625</LongitudeDegrees>
            </Position>
            <AltitudeMeters>2210.800048828125</AltitudeMeters>
            <DistanceMeters>30709.946454733</DistanceMeters>
          </Trackpoint>
          <Trackpoint>
            <Time>2022-07-10T08:31:44.000Z</Time>
            <Position>
              <LatitudeDegrees>42.76573036797344684600830078125</LatitudeDegrees>
              <LongitudeDegrees>-0.18439239822328090667724609375</LongitudeDegrees>
            </Position>
            <AltitudeMeters>2211</AltitudeMeters>
            <DistanceMeters>30710.576790646</DistanceMeters>
          </Trackpoint>
          <Trackpoint>
            <Time>2022-07-10T08:31:48.000Z</Time>
            <Position>
              <LatitudeDegrees>42.7657270990312099456787109375</LatitudeDegrees>
              <LongitudeDegrees>-0.1844067312777042388916015625</LongitudeDegrees>
            </Position>
            <AltitudeMeters>2212.199951171875</AltitudeMeters>
            <DistanceMeters>30711.801124216</DistanceMeters>
          </Trackpoint>
          <Trackpoint>
            <Time>2022-07-10T08:31:50.000Z</Time>
            <Position>
              <LatitudeDegrees>42.76572081260383129119873046875</LatitudeDegrees>
              <LongitudeDegrees>-0.18441050313413143157958984375</LongitudeDegrees>
            </Position>
            <AltitudeMeters>2212.39990234375</AltitudeMeters>
            <DistanceMeters>30712.56725408</DistanceMeters>
          </Trackpoint>
          <Trackpoint>
            <Time>2022-07-10T08:31:53.000Z</Time>
            <Position>
              <LatitudeDegrees>42.76571653783321380615234375</LatitudeDegrees>
              <LongitudeDegrees>-0.18442793749272823333740234375</LongitudeDegrees>
            </Position>
            <AltitudeMeters>2213</AltitudeMeters>
            <DistanceMeters>30714.06975836</DistanceMeters>
          </Trackpoint>
          <Trackpoint>
            <Time>2022-07-10T08:31:55.000Z</Time>
            <Position>
              <LatitudeDegrees>42.7657126821577548980712890625</LatitudeDegrees>
              <LongitudeDegrees>-0.184447467327117919921875</LongitudeDegrees>
            </Position>
            <AltitudeMeters>2213.199951171875</AltitudeMeters>
            <DistanceMeters>30715.72114659</DistanceMeters>
          </Trackpoint>
          <Trackpoint>
            <Time>2022-07-10T08:31:59.000Z</Time>
            <Position>
              <LatitudeDegrees>42.7657158672809600830078125</LatitudeDegrees>
              <LongitudeDegrees>-0.1844707690179347991943359375</LongitudeDegrees>
            </Position>
            <AltitudeMeters>2214.39990234375</AltitudeMeters>
            <DistanceMeters>30717.659318873</DistanceMeters>
          </Trackpoint>
          <Trackpoint>
            <Time>2022-07-10T08:32:01.000Z</Time>
            <Position>
              <LatitudeDegrees>42.76571444235742092132568359375</LatitudeDegrees>
              <LongitudeDegrees>-0.18447806127369403839111328125</LongitudeDegrees>
            </Position>
            <AltitudeMeters>2214.60009765625</AltitudeMeters>
            <DistanceMeters>30718.275162368</DistanceMeters>
          </Trackpoint>
          <Trackpoint>
            <Time>2022-07-10T08:32:05.000Z</Time>
            <Position>
              <LatitudeDegrees>42.76570840738713741302490234375</LatitudeDegrees>
              <LongitudeDegrees>-0.18450672738254070281982421875</LongitudeDegrees>
            </Position>
            <AltitudeMeters>2214.60009765625</AltitudeMeters>
            <DistanceMeters>30720.7090338</DistanceMeters>
          </Trackpoint>
          <Trackpoint>
            <Time>2022-07-10T08:32:10.000Z</Time>
            <Position>
              <LatitudeDegrees>42.765700109302997589111328125</LatitudeDegrees>
              <LongitudeDegrees>-0.184523575007915496826171875</LongitudeDegrees>
            </Position>
            <AltitudeMeters>2215</AltitudeMeters>
            <DistanceMeters>30722.36588118</DistanceMeters>
          </Trackpoint>
          <Trackpoint>
            <Time>2022-07-10T08:32:11.000Z</Time>
            <Position>
              <LatitudeDegrees>42.76569843292236328125</LatitudeDegrees>
              <LongitudeDegrees>-0.18452667631208896636962890625</LongitudeDegrees>
            </Position>
            <AltitudeMeters>2215.39990234375</AltitudeMeters>
            <DistanceMeters>30722.681049136</DistanceMeters>
          </Trackpoint>
          <Trackpoint>
            <Time>2022-07-10T08:32:17.000Z</Time>
            <Position>
              <LatitudeDegrees>42.7656801603734493255615234375</LatitudeDegrees>
              <LongitudeDegrees>-0.18459607847034931182861328125</LongitudeDegrees>
            </Position>
            <AltitudeMeters>2217</AltitudeMeters>
            <DistanceMeters>30728.706072564</DistanceMeters>
          </Trackpoint>
          <Trackpoint>
            <Time>2022-07-10T08:32:21.000Z</Time>
            <Position>
              <LatitudeDegrees>42.7656675875186920166015625</LatitudeDegrees>
              <LongitudeDegrees>-0.184630863368511199951171875</LongitudeDegrees>
            </Position>
            <AltitudeMeters>2218</AltitudeMeters>
            <DistanceMeters>30731.874896479</DistanceMeters>
          </Trackpoint>
          <Trackpoint>
            <Time>2022-07-10T08:32:25.000Z</Time>
            <Position>
              <LatitudeDegrees>42.76567840017378330230712890625</LatitudeDegrees>
              <LongitudeDegrees>-0.18467067740857601165771484375</LongitudeDegrees>
            </Position>
            <AltitudeMeters>2218.60009765625</AltitudeMeters>
            <DistanceMeters>30735.344347718</DistanceMeters>
          </Trackpoint>
          <Trackpoint>
            <Time>2022-07-10T08:32:26.000Z</Time>
            <Position>
              <LatitudeDegrees>42.76568275876343250274658203125</LatitudeDegrees>
              <LongitudeDegrees>-0.1846836693584918975830078125</LongitudeDegrees>
            </Position>
            <AltitudeMeters>2218.60009765625</AltitudeMeters>
            <DistanceMeters>30736.515915736</DistanceMeters>
          </Trackpoint>
          <Trackpoint>
            <Time>2022-07-10T08:32:28.000Z</Time>
            <Position>
              <LatitudeDegrees>42.76569918729364871978759765625</LatitudeDegrees>
              <LongitudeDegrees>-0.18469850532710552215576171875</LongitudeDegrees>
            </Position>
            <AltitudeMeters>2218.800048828125</AltitudeMeters>
            <DistanceMeters>30738.707718799</DistanceMeters>
          </Trackpoint>
          <Trackpoint>
            <Time>2022-07-10T08:32:29.000Z</Time>
            <Position>
              <LatitudeDegrees>42.7657043002545833587646484375</LatitudeDegrees>
              <LongitudeDegrees>-0.18470336683094501495361328125</LongitudeDegrees>
            </Position>
            <AltitudeMeters>2219</AltitudeMeters>
            <DistanceMeters>30739.406019686</DistanceMeters>
          </Trackpoint>
          <Trackpoint>
            <Time>2022-07-10T08:32:30.000Z</Time>
            <Position>
              <LatitudeDegrees>42.76570438407361507415771484375</LatitudeDegrees>
              <LongitudeDegrees>-0.1847098208963871002197265625</LongitudeDegrees>
            </Position>
            <AltitudeMeters>2219</AltitudeMeters>
            <DistanceMeters>30739.943571959</DistanceMeters>
          </Trackpoint>
          <Trackpoint>
            <Time>2022-07-10T08:32:31.000Z</Time>
            <Position>
              <LatitudeDegrees>42.7656989358365535736083984375</LatitudeDegrees>
              <LongitudeDegrees>-0.18471577204763889312744140625</LongitudeDegrees>
            </Position>
            <AltitudeMeters>2219.199951171875</AltitudeMeters>
            <DistanceMeters>30740.72718232</DistanceMeters>
          </Trackpoint>
          <Trackpoint>
            <Time>2022-07-10T08:32:33.000Z</Time>
            <Position>
              <LatitudeDegrees>42.76568242348730564117431640625</LatitudeDegrees>
              <LongitudeDegrees>-0.18472281284630298614501953125</LongitudeDegrees>
            </Position>
            <AltitudeMeters>2219.800048828125</AltitudeMeters>
            <DistanceMeters>30742.65601396</DistanceMeters>
          </Trackpoint>
          <Trackpoint>
            <Time>2022-07-10T08:32:35.000Z</Time>
            <Position>
              <LatitudeDegrees>42.76566280983388423919677734375</LatitudeDegrees>
              <LongitudeDegrees>-0.18473655916750431060791015625</LongitudeDegrees>
            </Position>
            <AltitudeMeters>2220.199951171875</AltitudeMeters>
            <DistanceMeters>30745.112045528</DistanceMeters>
          </Trackpoint>
          <Trackpoint>
            <Time>2022-07-10T08:32:37.000Z</Time>
            <Position>
              <LatitudeDegrees>42.76564814150333404541015625</LatitudeDegrees>
              <LongitudeDegrees>-0.184760279953479766845703125</LongitudeDegrees>
            </Position>
            <AltitudeMeters>2220.60009765625</AltitudeMeters>
            <DistanceMeters>30747.645893264</DistanceMeters>
          </Trackpoint>
          <Trackpoint>
            <Time>2022-07-10T08:32:39.000Z</Time>
            <Position>
              <LatitudeDegrees>42.76563883759081363677978515625</LatitudeDegrees>
              <LongitudeDegrees>-0.184785760939121246337890625</LongitudeDegrees>
            </Position>
            <AltitudeMeters>2220.800048828125</AltitudeMeters>
            <DistanceMeters>30749.973562886</DistanceMeters>
          </Trackpoint>
          <Trackpoint>
            <Time>2022-07-10T08:32:44.000Z</Time>
            <Position>
              <LatitudeDegrees>42.765634059906005859375</LatitudeDegrees>
              <LongitudeDegrees>-0.18482808955013751983642578125</LongitudeDegrees>
            </Position>
            <AltitudeMeters>2221.39990234375</AltitudeMeters>
            <DistanceMeters>30753.474107663</DistanceMeters>
          </Trackpoint>
          <Trackpoint>
            <Time>2022-07-10T08:32:48.000Z</Time>
            <Position>
              <LatitudeDegrees>42.765644453465938568115234375</LatitudeDegrees>
              <LongitudeDegrees>-0.18485323525965213775634765625</LongitudeDegrees>
            </Position>
            <AltitudeMeters>2222.39990234375</AltitudeMeters>
            <DistanceMeters>30755.830693543</DistanceMeters>
          </Trackpoint>
          <Trackpoint>
            <Time>2022-07-10T08:32:49.000Z</Time>
            <Position>
              <LatitudeDegrees>42.765642441809177398681640625</LatitudeDegrees>
              <LongitudeDegrees>-0.1848566718399524688720703125</LongitudeDegrees>
            </Position>
            <AltitudeMeters>2222.39990234375</AltitudeMeters>
            <DistanceMeters>30756.186250951</DistanceMeters>
          </Trackpoint>
          <Trackpoint>
            <Time>2022-07-10T08:32:51.000Z</Time>
            <Position>
              <LatitudeDegrees>42.76563565246760845184326171875</LatitudeDegrees>
              <LongitudeDegrees>-0.18486597575247287750244140625</LongitudeDegrees>
            </Position>
            <AltitudeMeters>2222.800048828125</AltitudeMeters>
            <DistanceMeters>30757.261355497</DistanceMeters>
          </Trackpoint>
          <Trackpoint>
            <Time>2022-07-10T08:32:52.000Z</Time>
            <Position>
              <LatitudeDegrees>42.7656325511634349822998046875</LatitudeDegrees>
              <LongitudeDegrees>-0.18487100489437580108642578125</LongitudeDegrees>
            </Position>
            <AltitudeMeters>2223</AltitudeMeters>
            <DistanceMeters>30757.79890777</DistanceMeters>
          </Trackpoint>
          <Trackpoint>
            <Time>2022-07-10T08:32:53.000Z</Time>
            <Position>
              <LatitudeDegrees>42.7656300365924835205078125</LatitudeDegrees>
              <LongitudeDegrees>-0.184878967702388763427734375</LongitudeDegrees>
            </Position>
            <AltitudeMeters>2223</AltitudeMeters>
            <DistanceMeters>30758.510022586</DistanceMeters>
          </Trackpoint>
          <Trackpoint>
            <Time>2022-07-10T08:32:54.000Z</Time>
            <Position>
              <LatitudeDegrees>42.76562802493572235107421875</LatitudeDegrees>
              <LongitudeDegrees>-0.18488843925297260284423828125</LongitudeDegrees>
            </Position>
            <AltitudeMeters>2223.199951171875</AltitudeMeters>
            <DistanceMeters>30759.310731913</DistanceMeters>
          </Trackpoint>
          <Trackpoint>
            <Time>2022-07-10T08:32:56.000Z</Time>
            <Position>
              <LatitudeDegrees>42.765631377696990966796875</LatitudeDegrees>
              <LongitudeDegrees>-0.18489145673811435699462890625</LongitudeDegrees>
            </Position>
            <AltitudeMeters>2223.39990234375</AltitudeMeters>
            <DistanceMeters>30759.746199025</DistanceMeters>
          </Trackpoint>
          <Trackpoint>
            <Time>2022-07-10T08:32:57.000Z</Time>
            <Position>
              <LatitudeDegrees>42.7656345628201961517333984375</LatitudeDegrees>
              <LongitudeDegrees>-0.1848913729190826416015625</LongitudeDegrees>
            </Position>
            <AltitudeMeters>2223.60009765625</AltitudeMeters>
            <DistanceMeters>30760.101756433</DistanceMeters>
          </Trackpoint>
          <Trackpoint>
            <Time>2022-07-10T08:33:00.000Z</Time>
            <Position>
              <LatitudeDegrees>42.7656446211040019989013671875</LatitudeDegrees>
              <LongitudeDegrees>-0.1849021017551422119140625</LongitudeDegrees>
            </Position>
            <AltitudeMeters>2224.60009765625</AltitudeMeters>
            <DistanceMeters>30761.520807893</DistanceMeters>
          </Trackpoint>
          <Trackpoint>
            <Time>2022-07-10T08:33:01.000Z</Time>
            <Position>
              <LatitudeDegrees>42.76564948260784149169921875</LatitudeDegrees>
              <LongitudeDegrees>-0.18490553833544254302978515625</LongitudeDegrees>
            </Position>
            <AltitudeMeters>2224.60009765625</AltitudeMeters>
            <DistanceMeters>30762.121809605</DistanceMeters>
          </Trackpoint>
          <Trackpoint>
            <Time>2022-07-10T08:33:04.000Z</Time>
            <Position>
              <LatitudeDegrees>42.7656536735594272613525390625</LatitudeDegrees>
              <LongitudeDegrees>-0.1849009282886981964111328125</LongitudeDegrees>
            </Position>
            <AltitudeMeters>2224.800048828125</AltitudeMeters>
            <DistanceMeters>30762.722811317</DistanceMeters>
          </Trackpoint>
          <Trackpoint>
            <Time>2022-07-10T08:33:05.000Z</Time>
            <Position>
              <LatitudeDegrees>42.7656536735594272613525390625</LatitudeDegrees>
              <LongitudeDegrees>-0.1848985813558101654052734375</LongitudeDegrees>
            </Position>
            <AltitudeMeters>2225</AltitudeMeters>
            <DistanceMeters>30762.912864746</DistanceMeters>
          </Trackpoint>
          <Trackpoint>
            <Time>2022-07-10T08:33:10.000Z</Time>
            <Position>
              <LatitudeDegrees>42.7656530030071735382080078125</LatitudeDegrees>
              <LongitudeDegrees>-0.18491945229470729827880859375</LongitudeDegrees>
            </Position>
            <AltitudeMeters>2225.60009765625</AltitudeMeters>
            <DistanceMeters>30764.61805817</DistanceMeters>
          </Trackpoint>
          <Trackpoint>
            <Time>2022-07-10T08:33:11.000Z</Time>
            <Position>
              <LatitudeDegrees>42.7656546793878078460693359375</LatitudeDegrees>
              <LongitudeDegrees>-0.18493361771106719970703125</LongitudeDegrees>
            </Position>
            <AltitudeMeters>2225.800048828125</AltitudeMeters>
            <DistanceMeters>30765.789626188</DistanceMeters>
          </Trackpoint>
          <Trackpoint>
            <Time>2022-07-10T08:33:15.000Z</Time>
            <Position>
              <LatitudeDegrees>42.765663228929042816162109375</LatitudeDegrees>
              <LongitudeDegrees>-0.184952728450298309326171875</LongitudeDegrees>
            </Position>
            <AltitudeMeters>2226</AltitudeMeters>
            <DistanceMeters>30767.617501535</DistanceMeters>
          </Trackpoint>
          <Trackpoint>
            <Time>2022-07-10T08:33:19.000Z</Time>
            <Position>
              <LatitudeDegrees>42.76563582010567188262939453125</LatitudeDegrees>
              <LongitudeDegrees>-0.1849934644997119903564453125</LongitudeDegrees>
            </Position>
            <AltitudeMeters>2226.800048828125</AltitudeMeters>
            <DistanceMeters>30772.13302062</DistanceMeters>
          </Trackpoint>
          <Trackpoint>
            <Time>2022-07-10T08:33:23.000Z</Time>
            <Position>
              <LatitudeDegrees>42.76563364081084728240966796875</LatitudeDegrees>
              <LongitudeDegrees>-0.18504417501389980316162109375</LongitudeDegrees>
            </Position>
            <AltitudeMeters>2227.60009765625</AltitudeMeters>
            <DistanceMeters>30776.282762272</DistanceMeters>
          </Trackpoint>
          <Trackpoint>
            <Time>2022-07-10T08:33:25.000Z</Time>
            <Position>
              <LatitudeDegrees>42.765629030764102935791015625</LatitudeDegrees>
              <LongitudeDegrees>-0.18505959771573543548583984375</LongitudeDegrees>
            </Position>
            <AltitudeMeters>2228</AltitudeMeters>
            <DistanceMeters>30777.640015231</DistanceMeters>
          </Trackpoint>
          <Trackpoint>
            <Time>2022-07-10T08:33:31.000Z</Time>
            <Position>
              <LatitudeDegrees>42.7656288631260395050048828125</LatitudeDegrees>
              <LongitudeDegrees>-0.185110978782176971435546875</LongitudeDegrees>
            </Position>
            <AltitudeMeters>2228.199951171875</AltitudeMeters>
            <DistanceMeters>30781.838432697</DistanceMeters>
          </Trackpoint>
          <Trackpoint>
            <Time>2022-07-10T08:33:34.000Z</Time>
            <Position>
              <LatitudeDegrees>42.76562777347862720489501953125</LatitudeDegrees>
              <LongitudeDegrees>-0.18514014780521392822265625</LongitudeDegrees>
            </Position>
            <AltitudeMeters>2229</AltitudeMeters>
            <DistanceMeters>30784.225476525</DistanceMeters>
          </Trackpoint>
          <Trackpoint>
            <Time>2022-07-10T08:33:36.000Z</Time>
            <Position>
              <LatitudeDegrees>42.76563070714473724365234375</LatitudeDegrees>
              <LongitudeDegrees>-0.18514995463192462921142578125</LongitudeDegrees>
            </Position>
            <AltitudeMeters>2229.39990234375</AltitudeMeters>
            <DistanceMeters>30785.091211094</DistanceMeters>
          </Trackpoint>
          <Trackpoint>
            <Time>2022-07-10T08:33:42.000Z</Time>
            <Position>
              <LatitudeDegrees>42.76561737991869449615478515625</LatitudeDegrees>
              <LongitudeDegrees>-0.185190774500370025634765625</LongitudeDegrees>
            </Position>
            <AltitudeMeters>2229.800048828125</AltitudeMeters>
            <DistanceMeters>30788.740781309</DistanceMeters>
          </Trackpoint>
          <Trackpoint>
            <Time>2022-07-10T08:33:43.000Z</Time>
            <Position>
              <LatitudeDegrees>42.76560983620584011077880859375</LatitudeDegrees>
              <LongitudeDegrees>-0.18520317971706390380859375</LongitudeDegrees>
            </Position>
            <AltitudeMeters>2230</AltitudeMeters>
            <DistanceMeters>30790.057510088</DistanceMeters>
          </Trackpoint>
          <Trackpoint>
            <Time>2022-07-10T08:33:44.000Z</Time>
            <Position>
              <LatitudeDegrees>42.76560665108263492584228515625</LatitudeDegrees>
              <LongitudeDegrees>-0.1852100528776645660400390625</LongitudeDegrees>
            </Position>
            <AltitudeMeters>2230.39990234375</AltitudeMeters>
            <DistanceMeters>30790.72945043</DistanceMeters>
          </Trackpoint>
          <Trackpoint>
            <Time>2022-07-10T08:33:48.000Z</Time>
            <Position>
              <LatitudeDegrees>42.76560966856777667999267578125</LatitudeDegrees>
              <LongitudeDegrees>-0.18521600402891635894775390625</LongitudeDegrees>
            </Position>
            <AltitudeMeters>2230.800048828125</AltitudeMeters>
            <DistanceMeters>30791.330452142</DistanceMeters>
          </Trackpoint>
          <Trackpoint>
            <Time>2022-07-10T08:33:50.000Z</Time>
            <Position>
              <LatitudeDegrees>42.76561838574707508087158203125</LatitudeDegrees>
              <LongitudeDegrees>-0.18521524965763092041015625</LongitudeDegrees>
            </Position>
            <AltitudeMeters>2231.199951171875</AltitudeMeters>
            <DistanceMeters>30792.308812046</DistanceMeters>
          </Trackpoint>
          <Trackpoint>
            <Time>2022-07-10T08:33:51.000Z</Time>
            <Position>
              <LatitudeDegrees>42.765621654689311981201171875</LatitudeDegrees>
              <LongitudeDegrees>-0.1852123998105525970458984375</LongitudeDegrees>
            </Position>
            <AltitudeMeters>2231.39990234375</AltitudeMeters>
            <DistanceMeters>30792.733784432</DistanceMeters>
          </Trackpoint>
          <Trackpoint>
            <Time>2022-07-10T08:33:57.000Z</Time>
            <Position>
              <LatitudeDegrees>42.76562760584056377410888671875</LatitudeDegrees>
              <LongitudeDegrees>-0.1852328516542911529541015625</LongitudeDegrees>
            </Position>
            <AltitudeMeters>2232.199951171875</AltitudeMeters>
            <DistanceMeters>30794.531774245</DistanceMeters>
          </Trackpoint>
          <Trackpoint>
            <Time>2022-07-10T08:33:59.000Z</Time>
            <Position>
              <LatitudeDegrees>42.76562525890767574310302734375</LatitudeDegrees>
              <LongitudeDegrees>-0.18524651415646076202392578125</LongitudeDegrees>
            </Position>
            <AltitudeMeters>2232.39990234375</AltitudeMeters>
            <DistanceMeters>30795.679986403</DistanceMeters>
          </Trackpoint>
          <Trackpoint>
            <Time>2022-07-10T08:34:00.000Z</Time>
            <Position>
              <LatitudeDegrees>42.76562710292637348175048828125</LatitudeDegrees>
              <LongitudeDegrees>-0.185257159173488616943359375</LongitudeDegrees>
            </Position>
            <AltitudeMeters>2232.800048828125</AltitudeMeters>
            <DistanceMeters>30796.576466634</DistanceMeters>
          </Trackpoint>
          <Trackpoint>
            <Time>2022-07-10T08:34:03.000Z</Time>
            <Position>
              <LatitudeDegrees>42.765627689659595489501953125</LatitudeDegrees>
              <LongitudeDegrees>-0.18529579974710941314697265625</LongitudeDegrees>
            </Position>
            <AltitudeMeters>2233.800048828125</AltitudeMeters>
            <DistanceMeters>30799.735300987</DistanceMeters>
          </Trackpoint>
          <Trackpoint>
            <Time>2022-07-10T08:34:04.000Z</Time>
            <Position>
              <LatitudeDegrees>42.7656298689544200897216796875</LatitudeDegrees>
              <LongitudeDegrees>-0.18530619330704212188720703125</LongitudeDegrees>
            </Position>
            <AltitudeMeters>2233.800048828125</AltitudeMeters>
            <DistanceMeters>30800.616542483</DistanceMeters>
          </Trackpoint>
          <Trackpoint>
            <Time>2022-07-10T08:34:08.000Z</Time>
            <Position>
              <LatitudeDegrees>42.7656523324549198150634765625</LatitudeDegrees>
              <LongitudeDegrees>-0.18533016555011272430419921875</LongitudeDegrees>
            </Position>
            <AltitudeMeters>2234.199951171875</AltitudeMeters>
            <DistanceMeters>30803.792482562</DistanceMeters>
          </Trackpoint>
          <Trackpoint>
            <Time>2022-07-10T08:34:10.000Z</Time>
            <Position>
              <LatitudeDegrees>42.7656613849103450775146484375</LatitudeDegrees>
              <LongitudeDegrees>-0.18533938564360141754150390625</LongitudeDegrees>
            </Position>
            <AltitudeMeters>2234.39990234375</AltitudeMeters>
            <DistanceMeters>30805.053154389</DistanceMeters>
          </Trackpoint>
          <Trackpoint>
            <Time>2022-07-10T08:34:12.000Z</Time>
            <Position>
              <LatitudeDegrees>42.7656587027013301849365234375</LatitudeDegrees>
              <LongitudeDegrees>-0.18534475006163120269775390625</LongitudeDegrees>
            </Position>
            <AltitudeMeters>2234.800048828125</AltitudeMeters>
            <DistanceMeters>30805.582240743</DistanceMeters>
          </Trackpoint>
          <Trackpoint>
            <Time>2022-07-10T08:34:17.000Z</Time>
            <Position>
              <LatitudeDegrees>42.7656375803053379058837890625</LatitudeDegrees>
              <LongitudeDegrees>-0.18536738120019435882568359375</LongitudeDegrees>
            </Position>
            <AltitudeMeters>2235.800048828125</AltitudeMeters>
            <DistanceMeters>30808.5736962</DistanceMeters>
          </Trackpoint>
          <Trackpoint>
            <Time>2022-07-10T08:34:21.000Z</Time>
            <Position>
              <LatitudeDegrees>42.765616290271282196044921875</LatitudeDegrees>
              <LongitudeDegrees>-0.185394287109375</LongitudeDegrees>
            </Position>
            <AltitudeMeters>2237</AltitudeMeters>
            <DistanceMeters>30811.806001639</DistanceMeters>
          </Trackpoint>
          <Trackpoint>
            <Time>2022-07-10T08:34:23.000Z</Time>
            <Position>
              <LatitudeDegrees>42.76560732163488864898681640625</LatitudeDegrees>
              <LongitudeDegrees>-0.18540761433541774749755859375</LongitudeDegrees>
            </Position>
            <AltitudeMeters>2237.39990234375</AltitudeMeters>
            <DistanceMeters>30813.284270389</DistanceMeters>
          </Trackpoint>
          <Trackpoint>
            <Time>2022-07-10T08:34:29.000Z</Time>
            <Position>
              <LatitudeDegrees>42.76560380123555660247802734375</LatitudeDegrees>
              <LongitudeDegrees>-0.18543343059718608856201171875</LongitudeDegrees>
            </Position>
            <AltitudeMeters>2238.39990234375</AltitudeMeters>
            <DistanceMeters>30815.430275745</DistanceMeters>
          </Trackpoint>
          <Trackpoint>
            <Time>2022-07-10T08:34:31.000Z</Time>
            <Position>
              <LatitudeDegrees>42.76561872102320194244384765625</LatitudeDegrees>
              <LongitudeDegrees>-0.1854527927935123443603515625</LongitudeDegrees>
            </Position>
            <AltitudeMeters>2238.800048828125</AltitudeMeters>
            <DistanceMeters>30817.722764456</DistanceMeters>
          </Trackpoint>
          <Trackpoint>
            <Time>2022-07-10T08:34:32.000Z</Time>
            <Position>
              <LatitudeDegrees>42.765623666346073150634765625</LatitudeDegrees>
              <LongitudeDegrees>-0.18545220606029033660888671875</LongitudeDegrees>
            </Position>
            <AltitudeMeters>2239</AltitudeMeters>
            <DistanceMeters>30818.276860656</DistanceMeters>
          </Trackpoint>
          <Trackpoint>
            <Time>2022-07-10T08:34:34.000Z</Time>
            <Position>
              <LatitudeDegrees>42.7656124345958232879638671875</LatitudeDegrees>
              <LongitudeDegrees>-0.18547148443758487701416015625</LongitudeDegrees>
            </Position>
            <AltitudeMeters>2239.199951171875</AltitudeMeters>
            <DistanceMeters>30820.288197089</DistanceMeters>
          </Trackpoint>
          <Trackpoint>
            <Time>2022-07-10T08:34:37.000Z</Time>
            <Position>
              <LatitudeDegrees>42.765588797628879547119140625</LatitudeDegrees>
              <LongitudeDegrees>-0.1854973845183849334716796875</LongitudeDegrees>
            </Position>
            <AltitudeMeters>2239.800048828125</AltitudeMeters>
            <DistanceMeters>30823.663986845</DistanceMeters>
          </Trackpoint>
          <Trackpoint>
            <Time>2022-07-10T08:34:39.000Z</Time>
            <Position>
              <LatitudeDegrees>42.7655842714011669158935546875</LatitudeDegrees>
              <LongitudeDegrees>-0.18551121465861797332763671875</LongitudeDegrees>
            </Position>
            <AltitudeMeters>2240.199951171875</AltitudeMeters>
            <DistanceMeters>30824.899334131</DistanceMeters>
          </Trackpoint>
          <Trackpoint>
            <Time>2022-07-10T08:34:40.000Z</Time>
            <Position>
              <LatitudeDegrees>42.76558100245893001556396484375</LatitudeDegrees>
              <LongitudeDegrees>-0.18551741726696491241455078125</LongitudeDegrees>
            </Position>
            <AltitudeMeters>2240.60009765625</AltitudeMeters>
            <DistanceMeters>30825.529670045</DistanceMeters>
          </Trackpoint>
          <Trackpoint>
            <Time>2022-07-10T08:34:41.000Z</Time>
            <Position>
              <LatitudeDegrees>42.76557706296443939208984375</LatitudeDegrees>
              <LongitudeDegrees>-0.18552764318883419036865234375</LongitudeDegrees>
            </Position>
            <AltitudeMeters>2240.800048828125</AltitudeMeters>
            <DistanceMeters>30826.475173915</DistanceMeters>
          </Trackpoint>
          <Trackpoint>
            <Time>2022-07-10T08:34:42.000Z</Time>
            <Position>
              <LatitudeDegrees>42.76557572185993194580078125</LatitudeDegrees>
              <LongitudeDegrees>-0.18553577363491058349609375</LongitudeDegrees>
            </Position>
            <AltitudeMeters>2240.800048828125</AltitudeMeters>
            <DistanceMeters>30827.160421297</DistanceMeters>
          </Trackpoint>
          <Trackpoint>
            <Time>2022-07-10T08:34:44.000Z</Time>
            <Position>
              <LatitudeDegrees>42.7655696868896484375</LatitudeDegrees>
              <LongitudeDegrees>-0.185550190508365631103515625</LongitudeDegrees>
            </Position>
            <AltitudeMeters>2240.800048828125</AltitudeMeters>
            <DistanceMeters>30828.517674256</DistanceMeters>
          </Trackpoint>
          <Trackpoint>
            <Time>2022-07-10T08:34:46.000Z</Time>
            <Position>
              <LatitudeDegrees>42.7655629813671112060546875</LatitudeDegrees>
              <LongitudeDegrees>-0.1855630986392498016357421875</LongitudeDegrees>
            </Position>
            <AltitudeMeters>2240.800048828125</AltitudeMeters>
            <DistanceMeters>30829.806679324</DistanceMeters>
          </Trackpoint>
          <Trackpoint>
            <Time>2022-07-10T08:34:49.000Z</Time>
            <Position>
              <LatitudeDegrees>42.76554931886494159698486328125</LatitudeDegrees>
              <LongitudeDegrees>-0.18558673560619354248046875</LongitudeDegrees>
            </Position>
            <AltitudeMeters>2240.60009765625</AltitudeMeters>
            <DistanceMeters>30832.264548552</DistanceMeters>
          </Trackpoint>
          <Trackpoint>
            <Time>2022-07-10T08:34:50.000Z</Time>
            <Position>
              <LatitudeDegrees>42.765540517866611480712890625</LatitudeDegrees>
              <LongitudeDegrees>-0.18559754826128482818603515625</LongitudeDegrees>
            </Position>
            <AltitudeMeters>2240.60009765625</AltitudeMeters>
            <DistanceMeters>30833.584701859</DistanceMeters>
          </Trackpoint>
          <Trackpoint>
            <Time>2022-07-10T08:34:52.000Z</Time>
            <Position>
              <LatitudeDegrees>42.76552769355475902557373046875</LatitudeDegrees>
              <LongitudeDegrees>-0.1856257952749729156494140625</LongitudeDegrees>
            </Position>
            <AltitudeMeters>2240.800048828125</AltitudeMeters>
            <DistanceMeters>30836.297543967</DistanceMeters>
          </Trackpoint>
          <Trackpoint>
            <Time>2022-07-10T08:34:56.000Z</Time>
            <Position>
              <LatitudeDegrees>42.76552450843155384063720703125</LatitudeDegrees>
              <LongitudeDegrees>-0.18568052910268306732177734375</LongitudeDegrees>
            </Position>
            <AltitudeMeters>2241.60009765625</AltitudeMeters>
            <DistanceMeters>30840.782965944</DistanceMeters>
          </Trackpoint>
          <Trackpoint>
            <Time>2022-07-10T08:34:57.000Z</Time>
            <Position>
              <LatitudeDegrees>42.76552517898380756378173828125</LatitudeDegrees>
              <LongitudeDegrees>-0.18569092266261577606201171875</LongitudeDegrees>
            </Position>
            <AltitudeMeters>2241.800048828125</AltitudeMeters>
            <DistanceMeters>30841.632910716</DistanceMeters>
          </Trackpoint>
          <Trackpoint>
            <Time>2022-07-10T08:35:02.000Z</Time>
            <Position>
              <LatitudeDegrees>42.76552635245025157928466796875</LatitudeDegrees>
              <LongitudeDegrees>-0.1857240311801433563232421875</LongitudeDegrees>
            </Position>
            <AltitudeMeters>2242.199951171875</AltitudeMeters>
            <DistanceMeters>30844.34075526</DistanceMeters>
          </Trackpoint>
          <Trackpoint>
            <Time>2022-07-10T08:35:08.000Z</Time>
            <Position>
              <LatitudeDegrees>42.76551939547061920166015625</LatitudeDegrees>
              <LongitudeDegrees>-0.1857713051140308380126953125</LongitudeDegrees>
            </Position>
            <AltitudeMeters>2242.800048828125</AltitudeMeters>
            <DistanceMeters>30848.279495075</DistanceMeters>
          </Trackpoint>
          <Trackpoint>
            <Time>2022-07-10T08:35:09.000Z</Time>
            <Position>
              <LatitudeDegrees>42.76551939547061920166015625</LatitudeDegrees>
              <LongitudeDegrees>-0.1857796870172023773193359375</LongitudeDegrees>
            </Position>
            <AltitudeMeters>2243</AltitudeMeters>
            <DistanceMeters>30848.964742457</DistanceMeters>
          </Trackpoint>
          <Trackpoint>
            <Time>2022-07-10T08:35:15.000Z</Time>
            <Position>
              <LatitudeDegrees>42.76552367024123668670654296875</LatitudeDegrees>
              <LongitudeDegrees>-0.1857920922338962554931640625</LongitudeDegrees>
            </Position>
            <AltitudeMeters>2244</AltitudeMeters>
            <DistanceMeters>30850.085090897</DistanceMeters>
          </Trackpoint>
          <Trackpoint>
            <Time>2022-07-10T08:35:20.000Z</Time>
            <Position>
              <LatitudeDegrees>42.76552299968898296356201171875</LatitudeDegrees>
              <LongitudeDegrees>-0.1858437247574329376220703125</LongitudeDegrees>
            </Position>
            <AltitudeMeters>2244.60009765625</AltitudeMeters>
            <DistanceMeters>30854.304961836</DistanceMeters>
          </Trackpoint>
          <Trackpoint>
            <Time>2022-07-10T08:35:25.000Z</Time>
            <Position>
              <LatitudeDegrees>42.76550372131168842315673828125</LatitudeDegrees>
              <LongitudeDegrees>-0.18589158542454242706298828125</LongitudeDegrees>
            </Position>
            <AltitudeMeters>2245</AltitudeMeters>
            <DistanceMeters>30858.764135339</DistanceMeters>
          </Trackpoint>
          <Trackpoint>
            <Time>2022-07-10T08:35:26.000Z</Time>
            <Position>
              <LatitudeDegrees>42.76550388894975185394287109375</LatitudeDegrees>
              <LongitudeDegrees>-0.185909271240234375</LongitudeDegrees>
            </Position>
            <AltitudeMeters>2245.199951171875</AltitudeMeters>
            <DistanceMeters>30860.211539131</DistanceMeters>
          </Trackpoint>
          <Trackpoint>
            <Time>2022-07-10T08:35:31.000Z</Time>
            <Position>
              <LatitudeDegrees>42.7655227482318878173828125</LatitudeDegrees>
              <LongitudeDegrees>-0.1859776675701141357421875</LongitudeDegrees>
            </Position>
            <AltitudeMeters>2246.199951171875</AltitudeMeters>
            <DistanceMeters>30866.181607114</DistanceMeters>
          </Trackpoint>
          <Trackpoint>
            <Time>2022-07-10T08:35:32.000Z</Time>
            <Position>
              <LatitudeDegrees>42.76552341878414154052734375</LatitudeDegrees>
              <LongitudeDegrees>-0.18597758375108242034912109375</LongitudeDegrees>
            </Position>
            <AltitudeMeters>2246.60009765625</AltitudeMeters>
            <DistanceMeters>30866.181607114</DistanceMeters>
          </Trackpoint>
          <Trackpoint>
            <Time>2022-07-10T08:35:34.000Z</Time>
            <Position>
              <LatitudeDegrees>42.765523083508014678955078125</LatitudeDegrees>
              <LongitudeDegrees>-0.18597624264657497406005859375</LongitudeDegrees>
            </Position>
            <AltitudeMeters>2246.800048828125</AltitudeMeters>
            <DistanceMeters>30866.315995182</DistanceMeters>
          </Trackpoint>
          <Trackpoint>
            <Time>2022-07-10T08:35:35.000Z</Time>
            <Position>
              <LatitudeDegrees>42.765524089336395263671875</LatitudeDegrees>
              <LongitudeDegrees>-0.185977332293987274169921875</LongitudeDegrees>
            </Position>
            <AltitudeMeters>2247.39990234375</AltitudeMeters>
            <DistanceMeters>30866.45038325</DistanceMeters>
          </Trackpoint>
          <Trackpoint>
            <Time>2022-07-10T08:35:38.000Z</Time>
            <Position>
              <LatitudeDegrees>42.7655323036015033721923828125</LatitudeDegrees>
              <LongitudeDegrees>-0.18599065952003002166748046875</LongitudeDegrees>
            </Position>
            <AltitudeMeters>2247.800048828125</AltitudeMeters>
            <DistanceMeters>30867.872612881</DistanceMeters>
          </Trackpoint>
          <Trackpoint>
            <Time>2022-07-10T08:35:39.000Z</Time>
            <Position>
              <LatitudeDegrees>42.76553423143923282623291015625</LatitudeDegrees>
              <LongitudeDegrees>-0.1859951019287109375</LongitudeDegrees>
            </Position>
            <AltitudeMeters>2247.800048828125</AltitudeMeters>
            <DistanceMeters>30868.297585267</DistanceMeters>
          </Trackpoint>
          <Trackpoint>
            <Time>2022-07-10T08:35:40.000Z</Time>
            <Position>
              <LatitudeDegrees>42.7655346505343914031982421875</LatitudeDegrees>
              <LongitudeDegrees>-0.1859969459474086761474609375</LongitudeDegrees>
            </Position>
            <AltitudeMeters>2248</AltitudeMeters>
            <DistanceMeters>30868.462176365</DistanceMeters>
          </Trackpoint>
          <Trackpoint>
            <Time>2022-07-10T08:35:43.000Z</Time>
            <Position>
              <LatitudeDegrees>42.7655366621911525726318359375</LatitudeDegrees>
              <LongitudeDegrees>-0.18600222654640674591064453125</LongitudeDegrees>
            </Position>
            <AltitudeMeters>2248</AltitudeMeters>
            <DistanceMeters>30868.937309937</DistanceMeters>
          </Trackpoint>
          <Trackpoint>
            <Time>2022-07-10T08:35:45.000Z</Time>
            <Position>
              <LatitudeDegrees>42.76554143987596035003662109375</LatitudeDegrees>
              <LongitudeDegrees>-0.18600759096443653106689453125</LongitudeDegrees>
            </Position>
            <AltitudeMeters>2248.39990234375</AltitudeMeters>
            <DistanceMeters>30869.622557319</DistanceMeters>
          </Trackpoint>
          <Trackpoint>
            <Time>2022-07-10T08:35:47.000Z</Time>
            <Position>
              <LatitudeDegrees>42.7655415236949920654296875</LatitudeDegrees>
              <LongitudeDegrees>-0.1860147155821323394775390625</LongitudeDegrees>
            </Position>
            <AltitudeMeters>2248.60009765625</AltitudeMeters>
            <DistanceMeters>30870.208341328</DistanceMeters>
          </Trackpoint>
          <Trackpoint>
            <Time>2022-07-10T08:35:53.000Z</Time>
            <Position>
              <LatitudeDegrees>42.76555753313004970550537109375</LatitudeDegrees>
              <LongitudeDegrees>-0.18605721183121204376220703125</LongitudeDegrees>
            </Position>
            <AltitudeMeters>2249</AltitudeMeters>
            <DistanceMeters>30874.112540226</DistanceMeters>
          </Trackpoint>
          <Trackpoint>
            <Time>2022-07-10T08:35:55.000Z</Time>
            <Position>
              <LatitudeDegrees>42.76556323282420635223388671875</LatitudeDegrees>
              <LongitudeDegrees>-0.186058469116687774658203125</LongitudeDegrees>
            </Position>
            <AltitudeMeters>2248.800048828125</AltitudeMeters>
            <DistanceMeters>30874.75704276</DistanceMeters>
          </Trackpoint>
          <Trackpoint>
            <Time>2022-07-10T08:36:01.000Z</Time>
            <Position>
              <LatitudeDegrees>42.76555401273071765899658203125</LatitudeDegrees>
              <LongitudeDegrees>-0.18603173084557056427001953125</LongitudeDegrees>
            </Position>
            <AltitudeMeters>2248.800048828125</AltitudeMeters>
            <DistanceMeters>30877.172292102</DistanceMeters>
          </Trackpoint>
          <Trackpoint>
            <Time>2022-07-10T08:36:02.000Z</Time>
            <Position>
              <LatitudeDegrees>42.7655453793704509735107421875</LatitudeDegrees>
              <LongitudeDegrees>-0.18604916520416736602783203125</LongitudeDegrees>
            </Position>
            <AltitudeMeters>2248.800048828125</AltitudeMeters>
            <DistanceMeters>30878.890673607</DistanceMeters>
          </Trackpoint>
          <Trackpoint>
            <Time>2022-07-10T08:36:08.000Z</Time>
            <Position>
              <LatitudeDegrees>42.765553928911685943603515625</LatitudeDegrees>
              <LongitudeDegrees>-0.18611923791468143463134765625</LongitudeDegrees>
            </Position>
            <AltitudeMeters>2249</AltitudeMeters>
            <DistanceMeters>30884.694309117</DistanceMeters>
          </Trackpoint>
          <Trackpoint>
            <Time>2022-07-10T08:36:10.000Z</Time>
            <Position>
              <LatitudeDegrees>42.76555920951068401336669921875</LatitudeDegrees>
              <LongitudeDegrees>-0.18614907748997211456298828125</LongitudeDegrees>
            </Position>
            <AltitudeMeters>2249.39990234375</AltitudeMeters>
            <DistanceMeters>30887.204885417</DistanceMeters>
          </Trackpoint>
          <Trackpoint>
            <Time>2022-07-10T08:36:13.000Z</Time>
            <Position>
              <LatitudeDegrees>42.7655608020722866058349609375</LatitudeDegrees>
              <LongitudeDegrees>-0.186188220977783203125</LongitudeDegrees>
            </Position>
            <AltitudeMeters>2250.199951171875</AltitudeMeters>
            <DistanceMeters>30890.409132118</DistanceMeters>
          </Trackpoint>
          <Trackpoint>
            <Time>2022-07-10T08:36:14.000Z</Time>
            <Position>
              <LatitudeDegrees>42.76555451564490795135498046875</LatitudeDegrees>
              <LongitudeDegrees>-0.18619802780449390411376953125</LongitudeDegrees>
            </Position>
            <AltitudeMeters>2250.60009765625</AltitudeMeters>
            <DistanceMeters>30891.475804341</DistanceMeters>
          </Trackpoint>
          <Trackpoint>
            <Time>2022-07-10T08:36:19.000Z</Time>
            <Position>
              <LatitudeDegrees>42.76554915122687816619873046875</LatitudeDegrees>
              <LongitudeDegrees>-0.18625988624989986419677734375</LongitudeDegrees>
            </Position>
            <AltitudeMeters>2250.800048828125</AltitudeMeters>
            <DistanceMeters>30896.565724705</DistanceMeters>
          </Trackpoint>
          <Trackpoint>
            <Time>2022-07-10T08:36:21.000Z</Time>
            <Position>
              <LatitudeDegrees>42.76555024087429046630859375</LatitudeDegrees>
              <LongitudeDegrees>-0.18627204000949859619140625</LongitudeDegrees>
            </Position>
            <AltitudeMeters>2251.199951171875</AltitudeMeters>
            <DistanceMeters>30897.566893265</DistanceMeters>
          </Trackpoint>
          <Trackpoint>
            <Time>2022-07-10T08:36:22.000Z</Time>
            <Position>
              <LatitudeDegrees>42.76554730720818042755126953125</LatitudeDegrees>
              <LongitudeDegrees>-0.18627547658979892730712890625</LongitudeDegrees>
            </Position>
            <AltitudeMeters>2251.39990234375</AltitudeMeters>
            <DistanceMeters>30898.002360377</DistanceMeters>
          </Trackpoint>
          <Trackpoint>
            <Time>2022-07-10T08:36:23.000Z</Time>
            <Position>
              <LatitudeDegrees>42.765542529523372650146484375</LatitudeDegrees>
              <LongitudeDegrees>-0.1862782426178455352783203125</LongitudeDegrees>
            </Position>
            <AltitudeMeters>2251.800048828125</AltitudeMeters>
            <DistanceMeters>30898.572520663</DistanceMeters>
          </Trackpoint>
          <Trackpoint>
            <Time>2022-07-10T08:36:27.000Z</Time>
            <Position>
              <LatitudeDegrees>42.76551897637546062469482421875</LatitudeDegrees>
              <LongitudeDegrees>-0.1862986944615840911865234375</LongitudeDegrees>
            </Position>
            <AltitudeMeters>2252.800048828125</AltitudeMeters>
            <DistanceMeters>30901.680925687</DistanceMeters>
          </Trackpoint>
          <Trackpoint>
            <Time>2022-07-10T08:36:28.000Z</Time>
            <Position>
              <LatitudeDegrees>42.76551260612905025482177734375</LatitudeDegrees>
              <LongitudeDegrees>-0.1863070763647556304931640625</LongitudeDegrees>
            </Position>
            <AltitudeMeters>2253</AltitudeMeters>
            <DistanceMeters>30902.668472272</DistanceMeters>
          </Trackpoint>
          <Trackpoint>
            <Time>2022-07-10T08:36:29.000Z</Time>
            <Position>
              <LatitudeDegrees>42.76550807990133762359619140625</LatitudeDegrees>
              <LongitudeDegrees>-0.18631537444889545440673828125</LongitudeDegrees>
            </Position>
            <AltitudeMeters>2253.39990234375</AltitudeMeters>
            <DistanceMeters>30903.518417044</DistanceMeters>
          </Trackpoint>
          <Trackpoint>
            <Time>2022-07-10T08:36:31.000Z</Time>
            <Position>
              <LatitudeDegrees>42.76549098081886768341064453125</LatitudeDegrees>
              <LongitudeDegrees>-0.1863397657871246337890625</LongitudeDegrees>
            </Position>
            <AltitudeMeters>2254</AltitudeMeters>
            <DistanceMeters>30906.27419176</DistanceMeters>
          </Trackpoint>
          <Trackpoint>
            <Time>2022-07-10T08:36:33.000Z</Time>
            <Position>
              <LatitudeDegrees>42.76546985842287540435791015625</LatitudeDegrees>
              <LongitudeDegrees>-0.1863580383360385894775390625</LongitudeDegrees>
            </Position>
            <AltitudeMeters>2254.60009765625</AltitudeMeters>
            <DistanceMeters>30909.059301393</DistanceMeters>
          </Trackpoint>
          <Trackpoint>
            <Time>2022-07-10T08:36:34.000Z</Time>
            <Position>
              <LatitudeDegrees>42.76545929722487926483154296875</LatitudeDegrees>
              <LongitudeDegrees>-0.186362899839878082275390625</LongitudeDegrees>
            </Position>
            <AltitudeMeters>2254.800048828125</AltitudeMeters>
            <DistanceMeters>30910.298298163</DistanceMeters>
          </Trackpoint>
          <Trackpoint>
            <Time>2022-07-10T08:36:35.000Z</Time>
            <Position>
              <LatitudeDegrees>42.765452675521373748779296875</LatitudeDegrees>
              <LongitudeDegrees>-0.1863697730004787445068359375</LongitudeDegrees>
            </Position>
            <AltitudeMeters>2255.199951171875</AltitudeMeters>
            <DistanceMeters>30911.224504005</DistanceMeters>
          </Trackpoint>
          <Trackpoint>
            <Time>2022-07-10T08:36:37.000Z</Time>
            <Position>
              <LatitudeDegrees>42.76545058004558086395263671875</LatitudeDegrees>
              <LongitudeDegrees>-0.18639366142451763153076171875</LongitudeDegrees>
            </Position>
            <AltitudeMeters>2255.60009765625</AltitudeMeters>
            <DistanceMeters>30913.18813397</DistanceMeters>
          </Trackpoint>
          <Trackpoint>
            <Time>2022-07-10T08:36:39.000Z</Time>
            <Position>
              <LatitudeDegrees>42.76544521562755107879638671875</LatitudeDegrees>
              <LongitudeDegrees>-0.18640749156475067138671875</LongitudeDegrees>
            </Position>
            <AltitudeMeters>2256.199951171875</AltitudeMeters>
            <DistanceMeters>30914.463051129</DistanceMeters>
          </Trackpoint>
          <Trackpoint>
            <Time>2022-07-10T08:36:40.000Z</Time>
            <Position>
              <LatitudeDegrees>42.765442617237567901611328125</LatitudeDegrees>
              <LongitudeDegrees>-0.1864140294492244720458984375</LongitudeDegrees>
            </Position>
            <AltitudeMeters>2256.199951171875</AltitudeMeters>
            <DistanceMeters>30915.078894624</DistanceMeters>
          </Trackpoint>
          <Trackpoint>
            <Time>2022-07-10T08:36:45.000Z</Time>
            <Position>
              <LatitudeDegrees>42.76545594446361064910888671875</LatitudeDegrees>
              <LongitudeDegrees>-0.18645451404154300689697265625</LongitudeDegrees>
            </Position>
            <AltitudeMeters>2257.199951171875</AltitudeMeters>
            <DistanceMeters>30918.704882945</DistanceMeters>
          </Trackpoint>
          <Trackpoint>
            <Time>2022-07-10T08:36:46.000Z</Time>
            <Position>
              <LatitudeDegrees>42.76545770466327667236328125</LatitudeDegrees>
              <LongitudeDegrees>-0.18646038137376308441162109375</LongitudeDegrees>
            </Position>
            <AltitudeMeters>2257.199951171875</AltitudeMeters>
            <DistanceMeters>30919.216617463</DistanceMeters>
          </Trackpoint>
          <Trackpoint>
            <Time>2022-07-10T08:36:48.000Z</Time>
            <Position>
              <LatitudeDegrees>42.7654548548161983489990234375</LatitudeDegrees>
              <LongitudeDegrees>-0.18648435361683368682861328125</LongitudeDegrees>
            </Position>
            <AltitudeMeters>2257.39990234375</AltitudeMeters>
            <DistanceMeters>30921.200833512</DistanceMeters>
          </Trackpoint>
          <Trackpoint>
            <Time>2022-07-10T08:36:50.000Z</Time>
            <Position>
              <LatitudeDegrees>42.76546382345259189605712890625</LatitudeDegrees>
              <LongitudeDegrees>-0.18649600446224212646484375</LongitudeDegrees>
            </Position>
            <AltitudeMeters>2257.800048828125</AltitudeMeters>
            <DistanceMeters>30922.577901431</DistanceMeters>
          </Trackpoint>
          <Trackpoint>
            <Time>2022-07-10T08:36:52.000Z</Time>
            <Position>
              <LatitudeDegrees>42.7654716186225414276123046875</LatitudeDegrees>
              <LongitudeDegrees>-0.18650497309863567352294921875</LongitudeDegrees>
            </Position>
            <AltitudeMeters>2258.199951171875</AltitudeMeters>
            <DistanceMeters>30923.710275421</DistanceMeters>
          </Trackpoint>
          <Trackpoint>
            <Time>2022-07-10T08:36:53.000Z</Time>
            <Position>
              <LatitudeDegrees>42.7654759772121906280517578125</LatitudeDegrees>
              <LongitudeDegrees>-0.1865109242498874664306640625</LongitudeDegrees>
            </Position>
            <AltitudeMeters>2258.60009765625</AltitudeMeters>
            <DistanceMeters>30924.395522804</DistanceMeters>
          </Trackpoint>
          <Trackpoint>
            <Time>2022-07-10T08:36:55.000Z</Time>
            <Position>
              <LatitudeDegrees>42.76548058725893497467041015625</LatitudeDegrees>
              <LongitudeDegrees>-0.1865209825336933135986328125</LongitudeDegrees>
            </Position>
            <AltitudeMeters>2259.199951171875</AltitudeMeters>
            <DistanceMeters>30925.359938624</DistanceMeters>
          </Trackpoint>
          <Trackpoint>
            <Time>2022-07-10T08:36:57.000Z</Time>
            <Position>
              <LatitudeDegrees>42.76547052897512912750244140625</LatitudeDegrees>
              <LongitudeDegrees>-0.18650933168828487396240234375</LongitudeDegrees>
            </Position>
            <AltitudeMeters>2259.60009765625</AltitudeMeters>
            <DistanceMeters>30926.825939372</DistanceMeters>
          </Trackpoint>
          <Trackpoint>
            <Time>2022-07-10T08:37:03.000Z</Time>
            <Position>
              <LatitudeDegrees>42.76543482206761837005615234375</LatitudeDegrees>
              <LongitudeDegrees>-0.18648971803486347198486328125</LongitudeDegrees>
            </Position>
            <AltitudeMeters>2260.800048828125</AltitudeMeters>
            <DistanceMeters>30931.111633655</DistanceMeters>
          </Trackpoint>
          <Trackpoint>
            <Time>2022-07-10T08:37:04.000Z</Time>
            <Position>
              <LatitudeDegrees>42.76543431915342807769775390625</LatitudeDegrees>
              <LongitudeDegrees>-0.18649340607225894927978515625</LongitudeDegrees>
            </Position>
            <AltitudeMeters>2261</AltitudeMeters>
            <DistanceMeters>30931.412134511</DistanceMeters>
          </Trackpoint>
          <Trackpoint>
            <Time>2022-07-10T08:37:09.000Z</Time>
            <Position>
              <LatitudeDegrees>42.765423841774463653564453125</LatitudeDegrees>
              <LongitudeDegrees>-0.18651117570698261260986328125</LongitudeDegrees>
            </Position>
            <AltitudeMeters>2261.800048828125</AltitudeMeters>
            <DistanceMeters>30933.274270208</DistanceMeters>
          </Trackpoint>
          <Trackpoint>
            <Time>2022-07-10T08:37:10.000Z</Time>
            <Position>
              <LatitudeDegrees>42.76541805826127529144287109375</LatitudeDegrees>
              <LongitudeDegrees>-0.18651654012501239776611328125</LongitudeDegrees>
            </Position>
            <AltitudeMeters>2261.800048828125</AltitudeMeters>
            <DistanceMeters>30934.057880569</DistanceMeters>
          </Trackpoint>
          <Trackpoint>
            <Time>2022-07-10T08:37:12.000Z</Time>
            <Position>
              <LatitudeDegrees>42.76539928279817104339599609375</LatitudeDegrees>
              <LongitudeDegrees>-0.18653221428394317626953125</LongitudeDegrees>
            </Position>
            <AltitudeMeters>2262.39990234375</AltitudeMeters>
            <DistanceMeters>30936.510232687</DistanceMeters>
          </Trackpoint>
          <Trackpoint>
            <Time>2022-07-10T08:37:13.000Z</Time>
            <Position>
              <LatitudeDegrees>42.76539408601820468902587890625</LatitudeDegrees>
              <LongitudeDegrees>-0.18654168583452701568603515625</LongitudeDegrees>
            </Position>
            <AltitudeMeters>2262.60009765625</AltitudeMeters>
            <DistanceMeters>30937.479318829</DistanceMeters>
          </Trackpoint>
          <Trackpoint>
            <Time>2022-07-10T08:37:14.000Z</Time>
            <Position>
              <LatitudeDegrees>42.76539023034274578094482421875</LatitudeDegrees>
              <LongitudeDegrees>-0.186550319194793701171875</LongitudeDegrees>
            </Position>
            <AltitudeMeters>2262.800048828125</AltitudeMeters>
            <DistanceMeters>30938.296769535</DistanceMeters>
          </Trackpoint>
          <Trackpoint>
            <Time>2022-07-10T08:37:15.000Z</Time>
            <Position>
              <LatitudeDegrees>42.765389978885650634765625</LatitudeDegrees>
              <LongitudeDegrees>-0.18655677326023578643798828125</LongitudeDegrees>
            </Position>
            <AltitudeMeters>2263</AltitudeMeters>
            <DistanceMeters>30938.817252285</DistanceMeters>
          </Trackpoint>
          <Trackpoint>
            <Time>2022-07-10T08:37:16.000Z</Time>
            <Position>
              <LatitudeDegrees>42.765390314161777496337890625</LatitudeDegrees>
              <LongitudeDegrees>-0.1865655742585659027099609375</LongitudeDegrees>
            </Position>
            <AltitudeMeters>2263</AltitudeMeters>
            <DistanceMeters>30939.534688246</DistanceMeters>
          </Trackpoint>
          <Trackpoint>
            <Time>2022-07-10T08:37:17.000Z</Time>
            <Position>
              <LatitudeDegrees>42.765390314161777496337890625</LatitudeDegrees>
              <LongitudeDegrees>-0.18657085485756397247314453125</LongitudeDegrees>
            </Position>
            <AltitudeMeters>2263.199951171875</AltitudeMeters>
            <DistanceMeters>30939.959660632</DistanceMeters>
          </Trackpoint>
          <Trackpoint>
            <Time>2022-07-10T08:37:19.000Z</Time>
            <Position>
              <LatitudeDegrees>42.7653864584863185882568359375</LatitudeDegrees>
              <LongitudeDegrees>-0.1865702681243419647216796875</LongitudeDegrees>
            </Position>
            <AltitudeMeters>2263.60009765625</AltitudeMeters>
            <DistanceMeters>30940.384633018</DistanceMeters>
          </Trackpoint>
          <Trackpoint>
            <Time>2022-07-10T08:37:20.000Z</Time>
            <Position>
              <LatitudeDegrees>42.76538033969700336456298828125</LatitudeDegrees>
              <LongitudeDegrees>-0.18657152540981769561767578125</LongitudeDegrees>
            </Position>
            <AltitudeMeters>2263.60009765625</AltitudeMeters>
            <DistanceMeters>30941.082933904</DistanceMeters>
          </Trackpoint>
          <Trackpoint>
            <Time>2022-07-10T08:37:22.000Z</Time>
            <Position>
              <LatitudeDegrees>42.76536592282354831695556640625</LatitudeDegrees>
              <LongitudeDegrees>-0.186574459075927734375</LongitudeDegrees>
            </Position>
            <AltitudeMeters>2263.800048828125</AltitudeMeters>
            <DistanceMeters>30942.703968218</DistanceMeters>
          </Trackpoint>
          <Trackpoint>
            <Time>2022-07-10T08:37:23.000Z</Time>
            <Position>
              <LatitudeDegrees>42.76535854674875736236572265625</LatitudeDegrees>
              <LongitudeDegrees>-0.18657722510397434234619140625</LongitudeDegrees>
            </Position>
            <AltitudeMeters>2264.199951171875</AltitudeMeters>
            <DistanceMeters>30943.55391299</DistanceMeters>
          </Trackpoint>
          <Trackpoint>
            <Time>2022-07-10T08:37:24.000Z</Time>
            <Position>
              <LatitudeDegrees>42.76535402052104473114013671875</LatitudeDegrees>
              <LongitudeDegrees>-0.186582840979099273681640625</LongitudeDegrees>
            </Position>
            <AltitudeMeters>2264.39990234375</AltitudeMeters>
            <DistanceMeters>30944.239160372</DistanceMeters>
          </Trackpoint>
          <Trackpoint>
            <Time>2022-07-10T08:37:27.000Z</Time>
            <Position>
              <LatitudeDegrees>42.76536508463323116302490234375</LatitudeDegrees>
              <LongitudeDegrees>-0.18660622648894786834716796875</LongitudeDegrees>
            </Position>
            <AltitudeMeters>2265.199951171875</AltitudeMeters>
            <DistanceMeters>30946.509881326</DistanceMeters>
          </Trackpoint>
          <Trackpoint>
            <Time>2022-07-10T08:37:29.000Z</Time>
            <Position>
              <LatitudeDegrees>42.7653717063367366790771484375</LatitudeDegrees>
              <LongitudeDegrees>-0.18661041744053363800048828125</LongitudeDegrees>
            </Position>
            <AltitudeMeters>2265.39990234375</AltitudeMeters>
            <DistanceMeters>30947.321789929</DistanceMeters>
          </Trackpoint>
          <Trackpoint>
            <Time>2022-07-10T08:37:34.000Z</Time>
            <Position>
              <LatitudeDegrees>42.76537598110735416412353515625</LatitudeDegrees>
              <LongitudeDegrees>-0.1866192184388637542724609375</LongitudeDegrees>
            </Position>
            <AltitudeMeters>2266.199951171875</AltitudeMeters>
            <DistanceMeters>30948.182293426</DistanceMeters>
          </Trackpoint>
          <Trackpoint>
            <Time>2022-07-10T08:37:35.000Z</Time>
            <Position>
              <LatitudeDegrees>42.765374891459941864013671875</LatitudeDegrees>
              <LongitudeDegrees>-0.18662072718143463134765625</LongitudeDegrees>
            </Position>
            <AltitudeMeters>2266.39990234375</AltitudeMeters>
            <DistanceMeters>30948.372346855</DistanceMeters>
          </Trackpoint>
          <Trackpoint>
            <Time>2022-07-10T08:37:39.000Z</Time>
            <Position>
              <LatitudeDegrees>42.765374891459941864013671875</LatitudeDegrees>
              <LongitudeDegrees>-0.18664486706256866455078125</LongitudeDegrees>
            </Position>
            <AltitudeMeters>2266.800048828125</AltitudeMeters>
            <DistanceMeters>30950.342862745</DistanceMeters>
          </Trackpoint>
          <Trackpoint>
            <Time>2022-07-10T08:37:41.000Z</Time>
            <Position>
              <LatitudeDegrees>42.76537857949733734130859375</LatitudeDegrees>
              <LongitudeDegrees>-0.186665989458560943603515625</LongitudeDegrees>
            </Position>
            <AltitudeMeters>2267</AltitudeMeters>
            <DistanceMeters>30952.115563115</DistanceMeters>
          </Trackpoint>
          <Trackpoint>
            <Time>2022-07-10T08:37:42.000Z</Time>
            <Position>
              <LatitudeDegrees>42.76538126170635223388671875</LatitudeDegrees>
              <LongitudeDegrees>-0.1866752095520496368408203125</LongitudeDegrees>
            </Position>
            <AltitudeMeters>2267.199951171875</AltitudeMeters>
            <DistanceMeters>30952.927471718</DistanceMeters>
          </Trackpoint>
          <Trackpoint>
            <Time>2022-07-10T08:37:44.000Z</Time>
            <Position>
              <LatitudeDegrees>42.76537933386862277984619140625</LatitudeDegrees>
              <LongitudeDegrees>-0.1866876147687435150146484375</LongitudeDegrees>
            </Position>
            <AltitudeMeters>2267.39990234375</AltitudeMeters>
            <DistanceMeters>30953.959726057</DistanceMeters>
          </Trackpoint>
          <Trackpoint>
            <Time>2022-07-10T08:37:48.000Z</Time>
            <Position>
              <LatitudeDegrees>42.76537053287029266357421875</LatitudeDegrees>
              <LongitudeDegrees>-0.18672022037208080291748046875</LongitudeDegrees>
            </Position>
            <AltitudeMeters>2268.199951171875</AltitudeMeters>
            <DistanceMeters>30956.797828978</DistanceMeters>
          </Trackpoint>
          <Trackpoint>
            <Time>2022-07-10T08:37:53.000Z</Time>
            <Position>
              <LatitudeDegrees>42.76538117788732051849365234375</LatitudeDegrees>
              <LongitudeDegrees>-0.1867402531206607818603515625</LongitudeDegrees>
            </Position>
            <AltitudeMeters>2268.800048828125</AltitudeMeters>
            <DistanceMeters>30958.818124638</DistanceMeters>
          </Trackpoint>
          <Trackpoint>
            <Time>2022-07-10T08:37:55.000Z</Time>
            <Position>
              <LatitudeDegrees>42.7653851173818111419677734375</LatitudeDegrees>
              <LongitudeDegrees>-0.1867479644715785980224609375</LongitudeDegrees>
            </Position>
            <AltitudeMeters>2269.39990234375</AltitudeMeters>
            <DistanceMeters>30959.584254502</DistanceMeters>
          </Trackpoint>
          <Trackpoint>
            <Time>2022-07-10T08:37:56.000Z</Time>
            <Position>
              <LatitudeDegrees>42.7653874643146991729736328125</LatitudeDegrees>
              <LongitudeDegrees>-0.18675475381314754486083984375</LongitudeDegrees>
            </Position>
            <AltitudeMeters>2269.60009765625</AltitudeMeters>
            <DistanceMeters>30960.200097997</DistanceMeters>
          </Trackpoint>
          <Trackpoint>
            <Time>2022-07-10T08:38:00.000Z</Time>
            <Position>
              <LatitudeDegrees>42.7653859555721282958984375</LatitudeDegrees>
              <LongitudeDegrees>-0.18679733388125896453857421875</LongitudeDegrees>
            </Position>
            <AltitudeMeters>2270.39990234375</AltitudeMeters>
            <DistanceMeters>30963.68383489</DistanceMeters>
          </Trackpoint>
          <Trackpoint>
            <Time>2022-07-10T08:38:01.000Z</Time>
            <Position>
              <LatitudeDegrees>42.76538771577179431915283203125</LatitudeDegrees>
              <LongitudeDegrees>-0.18680303357541561126708984375</LongitudeDegrees>
            </Position>
            <AltitudeMeters>2270.60009765625</AltitudeMeters>
            <DistanceMeters>30964.186668998</DistanceMeters>
          </Trackpoint>
          <Trackpoint>
            <Time>2022-07-10T08:38:02.000Z</Time>
            <Position>
              <LatitudeDegrees>42.7653886377811431884765625</LatitudeDegrees>
              <LongitudeDegrees>-0.18681074492633342742919921875</LongitudeDegrees>
            </Position>
            <AltitudeMeters>2270.60009765625</AltitudeMeters>
            <DistanceMeters>30964.824127578</DistanceMeters>
          </Trackpoint>
          <Trackpoint>
            <Time>2022-07-10T08:38:03.000Z</Time>
            <Position>
              <LatitudeDegrees>42.76538335718214511871337890625</LatitudeDegrees>
              <LongitudeDegrees>-0.18682432360947132110595703125</LongitudeDegrees>
            </Position>
            <AltitudeMeters>2270.60009765625</AltitudeMeters>
            <DistanceMeters>30966.07761603</DistanceMeters>
          </Trackpoint>
          <Trackpoint>
            <Time>2022-07-10T08:38:05.000Z</Time>
            <Position>
              <LatitudeDegrees>42.76538218371570110321044921875</LatitudeDegrees>
              <LongitudeDegrees>-0.1868384890258312225341796875</LongitudeDegrees>
            </Position>
            <AltitudeMeters>2270.800048828125</AltitudeMeters>
            <DistanceMeters>30967.237564904</DistanceMeters>
          </Trackpoint>
          <Trackpoint>
            <Time>2022-07-10T08:38:07.000Z</Time>
            <Position>
              <LatitudeDegrees>42.76538838632404804229736328125</LatitudeDegrees>
              <LongitudeDegrees>-0.18686589784920215606689453125</LongitudeDegrees>
            </Position>
            <AltitudeMeters>2270.800048828125</AltitudeMeters>
            <DistanceMeters>30969.580700939</DistanceMeters>
          </Trackpoint>
          <Trackpoint>
            <Time>2022-07-10T08:38:08.000Z</Time>
            <Position>
              <LatitudeDegrees>42.7653931640088558197021484375</LatitudeDegrees>
              <LongitudeDegrees>-0.186877213418483734130859375</LongitudeDegrees>
            </Position>
            <AltitudeMeters>2270.800048828125</AltitudeMeters>
            <DistanceMeters>30970.647373162</DistanceMeters>
          </Trackpoint>
          <Trackpoint>
            <Time>2022-07-10T08:38:10.000Z</Time>
            <Position>
              <LatitudeDegrees>42.76540003716945648193359375</LatitudeDegrees>
              <LongitudeDegrees>-0.1868949830532073974609375</LongitudeDegrees>
            </Position>
            <AltitudeMeters>2270.800048828125</AltitudeMeters>
            <DistanceMeters>30972.287788592</DistanceMeters>
          </Trackpoint>
          <Trackpoint>
            <Time>2022-07-10T08:38:14.000Z</Time>
            <Position>
              <LatitudeDegrees>42.765414454042911529541015625</LatitudeDegrees>
              <LongitudeDegrees>-0.1869057118892669677734375</LongitudeDegrees>
            </Position>
            <AltitudeMeters>2271.199951171875</AltitudeMeters>
            <DistanceMeters>30974.115663939</DistanceMeters>
          </Trackpoint>
          <Trackpoint>
            <Time>2022-07-10T08:38:16.000Z</Time>
            <Position>
              <LatitudeDegrees>42.765412442386150360107421875</LatitudeDegrees>
              <LongitudeDegrees>-0.18690504133701324462890625</LongitudeDegrees>
            </Position>
            <AltitudeMeters>2271</AltitudeMeters>
            <DistanceMeters>30974.348430901</DistanceMeters>
          </Trackpoint>
          <Trackpoint>
            <Time>2022-07-10T08:38:20.000Z</Time>
            <Position>
              <LatitudeDegrees>42.765414454042911529541015625</LatitudeDegrees>
              <LongitudeDegrees>-0.1869169436395168304443359375</LongitudeDegrees>
            </Position>
            <AltitudeMeters>2270.800048828125</AltitudeMeters>
            <DistanceMeters>30975.345079489</DistanceMeters>
          </Trackpoint>
          <Trackpoint>
            <Time>2022-07-10T08:38:26.000Z</Time>
            <Position>
              <LatitudeDegrees>42.7654186449944972991943359375</LatitudeDegrees>
              <LongitudeDegrees>-0.186927504837512969970703125</LongitudeDegrees>
            </Position>
            <AltitudeMeters>2270.39990234375</AltitudeMeters>
            <DistanceMeters>30976.323439394</DistanceMeters>
          </Trackpoint>
          <Trackpoint>
            <Time>2022-07-10T08:38:27.000Z</Time>
            <Position>
              <LatitudeDegrees>42.7654159627854824066162109375</LatitudeDegrees>
              <LongitudeDegrees>-0.18692960031330585479736328125</LongitudeDegrees>
            </Position>
            <AltitudeMeters>2270.39990234375</AltitudeMeters>
            <DistanceMeters>30976.652621589</DistanceMeters>
          </Trackpoint>
          <Trackpoint>
            <Time>2022-07-10T08:38:33.000Z</Time>
            <Position>
              <LatitudeDegrees>42.76538687758147716522216796875</LatitudeDegrees>
              <LongitudeDegrees>-0.1869189552962779998779296875</LongitudeDegrees>
            </Position>
            <AltitudeMeters>2270</AltitudeMeters>
            <DistanceMeters>30980.004250311</DistanceMeters>
          </Trackpoint>
          <Trackpoint>
            <Time>2022-07-10T08:38:35.000Z</Time>
            <Position>
              <LatitudeDegrees>42.765384279191493988037109375</LatitudeDegrees>
              <LongitudeDegrees>-0.186914093792438507080078125</LongitudeDegrees>
            </Position>
            <AltitudeMeters>2270</AltitudeMeters>
            <DistanceMeters>30980.488793382</DistanceMeters>
          </Trackpoint>
          <Trackpoint>
            <Time>2022-07-10T08:38:41.000Z</Time>
            <Position>
              <LatitudeDegrees>42.7653981931507587432861328125</LatitudeDegrees>
              <LongitudeDegrees>-0.1869303546845912933349609375</LongitudeDegrees>
            </Position>
            <AltitudeMeters>2271.39990234375</AltitudeMeters>
            <DistanceMeters>30982.531315186</DistanceMeters>
          </Trackpoint>
          <Trackpoint>
            <Time>2022-07-10T08:38:44.000Z</Time>
            <Position>
              <LatitudeDegrees>42.76540649123489856719970703125</LatitudeDegrees>
              <LongitudeDegrees>-0.18691987730562686920166015625</LongitudeDegrees>
            </Position>
            <AltitudeMeters>2271.39990234375</AltitudeMeters>
            <DistanceMeters>30983.791987012</DistanceMeters>
          </Trackpoint>
          <Trackpoint>
            <Time>2022-07-10T08:38:50.000Z</Time>
            <Position>
              <LatitudeDegrees>42.7654173038899898529052734375</LatitudeDegrees>
              <LongitudeDegrees>-0.1869035325944423675537109375</LongitudeDegrees>
            </Position>
            <AltitudeMeters>2271.199951171875</AltitudeMeters>
            <DistanceMeters>30985.589976825</DistanceMeters>
          </Trackpoint>
          <Trackpoint>
            <Time>2022-07-10T08:38:51.000Z</Time>
            <Position>
              <LatitudeDegrees>42.765419818460941314697265625</LatitudeDegrees>
              <LongitudeDegrees>-0.18690294586122035980224609375</LongitudeDegrees>
            </Position>
            <AltitudeMeters>2271</AltitudeMeters>
            <DistanceMeters>30985.890477681</DistanceMeters>
          </Trackpoint>
          <Trackpoint>
            <Time>2022-07-10T08:38:56.000Z</Time>
            <Position>
              <LatitudeDegrees>42.76541453786194324493408203125</LatitudeDegrees>
              <LongitudeDegrees>-0.1869122497737407684326171875</LongitudeDegrees>
            </Position>
            <AltitudeMeters>2271</AltitudeMeters>
            <DistanceMeters>30986.850200452</DistanceMeters>
          </Trackpoint>
          <Trackpoint>
            <Time>2022-07-10T08:38:58.000Z</Time>
            <Position>
              <LatitudeDegrees>42.76540582068264484405517578125</LatitudeDegrees>
              <LongitudeDegrees>-0.18691954202950000762939453125</LongitudeDegrees>
            </Position>
            <AltitudeMeters>2271</AltitudeMeters>
            <DistanceMeters>30987.990521024</DistanceMeters>
          </Trackpoint>
          <Trackpoint>
            <Time>2022-07-10T08:39:04.000Z</Time>
            <Position>
              <LatitudeDegrees>42.76542040519416332244873046875</LatitudeDegrees>
              <LongitudeDegrees>-0.1869444362819194793701171875</LongitudeDegrees>
            </Position>
            <AltitudeMeters>2270.800048828125</AltitudeMeters>
            <DistanceMeters>30990.592934776</DistanceMeters>
          </Trackpoint>
          <Trackpoint>
            <Time>2022-07-10T08:39:06.000Z</Time>
            <Position>
              <LatitudeDegrees>42.76542845182120800018310546875</LatitudeDegrees>
              <LongitudeDegrees>-0.18696614541113376617431640625</LongitudeDegrees>
            </Position>
            <AltitudeMeters>2270.800048828125</AltitudeMeters>
            <DistanceMeters>30992.581696572</DistanceMeters>
          </Trackpoint>
          <Trackpoint>
            <Time>2022-07-10T08:39:12.000Z</Time>
            <Position>
              <LatitudeDegrees>42.76544672437012195587158203125</LatitudeDegrees>
              <LongitudeDegrees>-0.187052227556705474853515625</LongitudeDegrees>
            </Position>
            <AltitudeMeters>2271.39990234375</AltitudeMeters>
            <DistanceMeters>30999.903688367</DistanceMeters>
          </Trackpoint>
          <Trackpoint>
            <Time>2022-07-10T08:39:14.000Z</Time>
            <Position>
              <LatitudeDegrees>42.76544203050434589385986328125</LatitudeDegrees>
              <LongitudeDegrees>-0.18707594834268093109130859375</LongitudeDegrees>
            </Position>
            <AltitudeMeters>2271.60009765625</AltitudeMeters>
            <DistanceMeters>31001.910530188</DistanceMeters>
          </Trackpoint>
          <Trackpoint>
            <Time>2022-07-10T08:39:17.000Z</Time>
            <Position>
              <LatitudeDegrees>42.7654364146292209625244140625</LatitudeDegrees>
              <LongitudeDegrees>-0.187118947505950927734375</LongitudeDegrees>
            </Position>
            <AltitudeMeters>2271.60009765625</AltitudeMeters>
            <DistanceMeters>31005.478780149</DistanceMeters>
          </Trackpoint>
          <Trackpoint>
            <Time>2022-07-10T08:39:20.000Z</Time>
            <Position>
              <LatitudeDegrees>42.7654347382485866546630859375</LatitudeDegrees>
              <LongitudeDegrees>-0.18716630525887012481689453125</LongitudeDegrees>
            </Position>
            <AltitudeMeters>2272.199951171875</AltitudeMeters>
            <DistanceMeters>31009.352794482</DistanceMeters>
          </Trackpoint>
          <Trackpoint>
            <Time>2022-07-10T08:39:23.000Z</Time>
            <Position>
              <LatitudeDegrees>42.76544219814240932464599609375</LatitudeDegrees>
              <LongitudeDegrees>-0.1872196979820728302001953125</LongitudeDegrees>
            </Position>
            <AltitudeMeters>2272.60009765625</AltitudeMeters>
            <DistanceMeters>31013.793705082</DistanceMeters>
          </Trackpoint>
          <Trackpoint>
            <Time>2022-07-10T08:39:24.000Z</Time>
            <Position>
              <LatitudeDegrees>42.76544203050434589385986328125</LatitudeDegrees>
              <LongitudeDegrees>-0.18723553977906703948974609375</LongitudeDegrees>
            </Position>
            <AltitudeMeters>2272.60009765625</AltitudeMeters>
            <DistanceMeters>31015.08271015</DistanceMeters>
          </Trackpoint>
          <Trackpoint>
            <Time>2022-07-10T08:39:26.000Z</Time>
            <Position>
              <LatitudeDegrees>42.76544387452304363250732421875</LatitudeDegrees>
              <LongitudeDegrees>-0.1872572489082813262939453125</LongitudeDegrees>
            </Position>
            <AltitudeMeters>2272.60009765625</AltitudeMeters>
            <DistanceMeters>31016.868100019</DistanceMeters>
          </Trackpoint>
          <Trackpoint>
            <Time>2022-07-10T08:39:28.000Z</Time>
            <Position>
              <LatitudeDegrees>42.7654481492936611175537109375</LatitudeDegrees>
              <LongitudeDegrees>-0.1872720010578632354736328125</LongitudeDegrees>
            </Position>
            <AltitudeMeters>2272.60009765625</AltitudeMeters>
            <DistanceMeters>31018.164091615</DistanceMeters>
          </Trackpoint>
          <Trackpoint>
            <Time>2022-07-10T08:39:31.000Z</Time>
            <Position>
              <LatitudeDegrees>42.76545460335910320281982421875</LatitudeDegrees>
              <LongitudeDegrees>-0.1872951351106166839599609375</LongitudeDegrees>
            </Position>
            <AltitudeMeters>2272.800048828125</AltitudeMeters>
            <DistanceMeters>31020.184387275</DistanceMeters>
          </Trackpoint>
          <Trackpoint>
            <Time>2022-07-10T08:39:35.000Z</Time>
            <Position>
              <LatitudeDegrees>42.76545242406427860260009765625</LatitudeDegrees>
              <LongitudeDegrees>-0.1873107254505157470703125</LongitudeDegrees>
            </Position>
            <AltitudeMeters>2273.39990234375</AltitudeMeters>
            <DistanceMeters>31021.480378872</DistanceMeters>
          </Trackpoint>
          <Trackpoint>
            <Time>2022-07-10T08:39:36.000Z</Time>
            <Position>
              <LatitudeDegrees>42.765452004969120025634765625</LatitudeDegrees>
              <LongitudeDegrees>-0.18731634132564067840576171875</LongitudeDegrees>
            </Position>
            <AltitudeMeters>2273.60009765625</AltitudeMeters>
            <DistanceMeters>31021.945912796</DistanceMeters>
          </Trackpoint>
          <Trackpoint>
            <Time>2022-07-10T08:39:38.000Z</Time>
            <Position>
              <LatitudeDegrees>42.765457369387149810791015625</LatitudeDegrees>
              <LongitudeDegrees>-0.18734131939709186553955078125</LongitudeDegrees>
            </Position>
            <AltitudeMeters>2273.800048828125</AltitudeMeters>
            <DistanceMeters>31024.072898527</DistanceMeters>
          </Trackpoint>
          <Trackpoint>
            <Time>2022-07-10T08:39:39.000Z</Time>
            <Position>
              <LatitudeDegrees>42.7654610574245452880859375</LatitudeDegrees>
              <LongitudeDegrees>-0.1873548142611980438232421875</LongitudeDegrees>
            </Position>
            <AltitudeMeters>2274</AltitudeMeters>
            <DistanceMeters>31025.25214904</DistanceMeters>
          </Trackpoint>
          <Trackpoint>
            <Time>2022-07-10T08:39:40.000Z</Time>
            <Position>
              <LatitudeDegrees>42.76546147651970386505126953125</LatitudeDegrees>
              <LongitudeDegrees>-0.18736646510660648345947265625</LongitudeDegrees>
            </Position>
            <AltitudeMeters>2274.199951171875</AltitudeMeters>
            <DistanceMeters>31026.202416183</DistanceMeters>
          </Trackpoint>
          <Trackpoint>
            <Time>2022-07-10T08:39:41.000Z</Time>
            <Position>
              <LatitudeDegrees>42.76546164415776729583740234375</LatitudeDegrees>
              <LongitudeDegrees>-0.18737484700977802276611328125</LongitudeDegrees>
            </Position>
            <AltitudeMeters>2274.39990234375</AltitudeMeters>
            <DistanceMeters>31026.887663566</DistanceMeters>
          </Trackpoint>
          <Trackpoint>
            <Time>2022-07-10T08:39:42.000Z</Time>
            <Position>
              <LatitudeDegrees>42.76545929722487926483154296875</LatitudeDegrees>
              <LongitudeDegrees>-0.18738540820777416229248046875</LongitudeDegrees>
            </Position>
            <AltitudeMeters>2274.60009765625</AltitudeMeters>
            <DistanceMeters>31027.784143796</DistanceMeters>
          </Trackpoint>
          <Trackpoint>
            <Time>2022-07-10T08:39:44.000Z</Time>
            <Position>
              <LatitudeDegrees>42.7654602192342281341552734375</LatitudeDegrees>
              <LongitudeDegrees>-0.187396220862865447998046875</LongitudeDegrees>
            </Position>
            <AltitudeMeters>2275.199951171875</AltitudeMeters>
            <DistanceMeters>31028.665385292</DistanceMeters>
          </Trackpoint>
          <Trackpoint>
            <Time>2022-07-10T08:39:47.000Z</Time>
            <Position>
              <LatitudeDegrees>42.7654565311968326568603515625</LatitudeDegrees>
              <LongitudeDegrees>-0.18739856779575347900390625</LongitudeDegrees>
            </Position>
            <AltitudeMeters>2275.60009765625</AltitudeMeters>
            <DistanceMeters>31029.111100091</DistanceMeters>
          </Trackpoint>
          <Trackpoint>
            <Time>2022-07-10T08:39:51.000Z</Time>
            <Position>
              <LatitudeDegrees>42.7654065750539302825927734375</LatitudeDegrees>
              <LongitudeDegrees>-0.18744550645351409912109375</LongitudeDegrees>
            </Position>
            <AltitudeMeters>2275.800048828125</AltitudeMeters>
            <DistanceMeters>31035.866022464</DistanceMeters>
          </Trackpoint>
          <Trackpoint>
            <Time>2022-07-10T08:39:54.000Z</Time>
            <Position>
              <LatitudeDegrees>42.76540062390267848968505859375</LatitudeDegrees>
              <LongitudeDegrees>-0.1874584145843982696533203125</LongitudeDegrees>
            </Position>
            <AltitudeMeters>2275.800048828125</AltitudeMeters>
            <DistanceMeters>31037.11228614</DistanceMeters>
          </Trackpoint>
          <Trackpoint>
            <Time>2022-07-10T08:40:00.000Z</Time>
            <Position>
              <LatitudeDegrees>42.76541671715676784515380859375</LatitudeDegrees>
              <LongitudeDegrees>-0.187482051551342010498046875</LongitudeDegrees>
            </Position>
            <AltitudeMeters>2276.39990234375</AltitudeMeters>
            <DistanceMeters>31039.745743698</DistanceMeters>
          </Trackpoint>
          <Trackpoint>
            <Time>2022-07-10T08:40:02.000Z</Time>
            <Position>
              <LatitudeDegrees>42.76541747152805328369140625</LatitudeDegrees>
              <LongitudeDegrees>-0.18748263828456401824951171875</LongitudeDegrees>
            </Position>
            <AltitudeMeters>2276.60009765625</AltitudeMeters>
            <DistanceMeters>31039.745743698</DistanceMeters>
          </Trackpoint>
          <Trackpoint>
            <Time>2022-07-10T08:40:08.000Z</Time>
            <Position>
              <LatitudeDegrees>42.76542208157479763031005859375</LatitudeDegrees>
              <LongitudeDegrees>-0.1875415630638599395751953125</LongitudeDegrees>
            </Position>
            <AltitudeMeters>2277.800048828125</AltitudeMeters>
            <DistanceMeters>31044.587445717</DistanceMeters>
          </Trackpoint>
          <Trackpoint>
            <Time>2022-07-10T08:40:10.000Z</Time>
            <Position>
              <LatitudeDegrees>42.76543079875409603118896484375</LatitudeDegrees>
              <LongitudeDegrees>-0.18756293691694736480712890625</LongitudeDegrees>
            </Position>
            <AltitudeMeters>2278.39990234375</AltitudeMeters>
            <DistanceMeters>31046.585267979</DistanceMeters>
          </Trackpoint>
          <Trackpoint>
            <Time>2022-07-10T08:40:13.000Z</Time>
            <Position>
              <LatitudeDegrees>42.76544488035142421722412109375</LatitudeDegrees>
              <LongitudeDegrees>-0.18759545870125293731689453125</LongitudeDegrees>
            </Position>
            <AltitudeMeters>2278.800048828125</AltitudeMeters>
            <DistanceMeters>31049.670345056</DistanceMeters>
          </Trackpoint>
          <Trackpoint>
            <Time>2022-07-10T08:40:15.000Z</Time>
            <Position>
              <LatitudeDegrees>42.765447311103343963623046875</LatitudeDegrees>
              <LongitudeDegrees>-0.1876164972782135009765625</LongitudeDegrees>
            </Position>
            <AltitudeMeters>2279</AltitudeMeters>
            <DistanceMeters>31051.409619505</DistanceMeters>
          </Trackpoint>
          <Trackpoint>
            <Time>2022-07-10T08:40:18.000Z</Time>
            <Position>
              <LatitudeDegrees>42.76544789783656597137451171875</LatitudeDegrees>
              <LongitudeDegrees>-0.18763401545584201812744140625</LongitudeDegrees>
            </Position>
            <AltitudeMeters>2280</AltitudeMeters>
            <DistanceMeters>31052.844491426</DistanceMeters>
          </Trackpoint>
          <Trackpoint>
            <Time>2022-07-10T08:40:20.000Z</Time>
            <Position>
              <LatitudeDegrees>42.765445969998836517333984375</LatitudeDegrees>
              <LongitudeDegrees>-0.1876458339393138885498046875</LongitudeDegrees>
            </Position>
            <AltitudeMeters>2280.39990234375</AltitudeMeters>
            <DistanceMeters>31053.83659945</DistanceMeters>
          </Trackpoint>
          <Trackpoint>
            <Time>2022-07-10T08:40:21.000Z</Time>
            <Position>
              <LatitudeDegrees>42.7654437907040119171142578125</LatitudeDegrees>
              <LongitudeDegrees>-0.18765212036669254302978515625</LongitudeDegrees>
            </Position>
            <AltitudeMeters>2280.60009765625</AltitudeMeters>
            <DistanceMeters>31054.406759736</DistanceMeters>
          </Trackpoint>
          <Trackpoint>
            <Time>2022-07-10T08:40:22.000Z</Time>
            <Position>
              <LatitudeDegrees>42.76544169522821903228759765625</LatitudeDegrees>
              <LongitudeDegrees>-0.18766201101243495941162109375</LongitudeDegrees>
            </Position>
            <AltitudeMeters>2280.800048828125</AltitudeMeters>
            <DistanceMeters>31055.246012954</DistanceMeters>
          </Trackpoint>
          <Trackpoint>
            <Time>2022-07-10T08:40:23.000Z</Time>
            <Position>
              <LatitudeDegrees>42.7654395997524261474609375</LatitudeDegrees>
              <LongitudeDegrees>-0.18767341040074825286865234375</LongitudeDegrees>
            </Position>
            <AltitudeMeters>2281</AltitudeMeters>
            <DistanceMeters>31056.205735725</DistanceMeters>
          </Trackpoint>
          <Trackpoint>
            <Time>2022-07-10T08:40:24.000Z</Time>
            <Position>
              <LatitudeDegrees>42.76544085703790187835693359375</LatitudeDegrees>
              <LongitudeDegrees>-0.1876847259700298309326171875</LongitudeDegrees>
            </Position>
            <AltitudeMeters>2281.199951171875</AltitudeMeters>
            <DistanceMeters>31057.136803573</DistanceMeters>
          </Trackpoint>
          <Trackpoint>
            <Time>2022-07-10T08:40:28.000Z</Time>
            <Position>
              <LatitudeDegrees>42.76543012820184230804443359375</LatitudeDegrees>
              <LongitudeDegrees>-0.18774247728288173675537109375</LongitudeDegrees>
            </Position>
            <AltitudeMeters>2281.800048828125</AltitudeMeters>
            <DistanceMeters>31062.004546437</DistanceMeters>
          </Trackpoint>
          <Trackpoint>
            <Time>2022-07-10T08:40:30.000Z</Time>
            <Position>
              <LatitudeDegrees>42.76542727835476398468017578125</LatitudeDegrees>
              <LongitudeDegrees>-0.1877628453075885772705078125</LongitudeDegrees>
            </Position>
            <AltitudeMeters>2282.199951171875</AltitudeMeters>
            <DistanceMeters>31063.6991155</DistanceMeters>
          </Trackpoint>
          <Trackpoint>
            <Time>2022-07-10T08:40:34.000Z</Time>
            <Position>
              <LatitudeDegrees>42.76543649844825267791748046875</LatitudeDegrees>
              <LongitudeDegrees>-0.187792517244815826416015625</LongitudeDegrees>
            </Position>
            <AltitudeMeters>2283</AltitudeMeters>
            <DistanceMeters>31066.332573058</DistanceMeters>
          </Trackpoint>
          <Trackpoint>
            <Time>2022-07-10T08:40:35.000Z</Time>
            <Position>
              <LatitudeDegrees>42.765435241162776947021484375</LatitudeDegrees>
              <LongitudeDegrees>-0.18779913894832134246826171875</LongitudeDegrees>
            </Position>
            <AltitudeMeters>2283.199951171875</AltitudeMeters>
            <DistanceMeters>31066.886669258</DistanceMeters>
          </Trackpoint>
          <Trackpoint>
            <Time>2022-07-10T08:40:36.000Z</Time>
            <Position>
              <LatitudeDegrees>42.76543431915342807769775390625</LatitudeDegrees>
              <LongitudeDegrees>-0.18780894577503204345703125</LongitudeDegrees>
            </Position>
            <AltitudeMeters>2283.39990234375</AltitudeMeters>
            <DistanceMeters>31067.692997668</DistanceMeters>
          </Trackpoint>
          <Trackpoint>
            <Time>2022-07-10T08:40:39.000Z</Time>
            <Position>
              <LatitudeDegrees>42.76544856838881969451904296875</LatitudeDegrees>
              <LongitudeDegrees>-0.187836103141307830810546875</LongitudeDegrees>
            </Position>
            <AltitudeMeters>2284</AltitudeMeters>
            <DistanceMeters>31070.420777532</DistanceMeters>
          </Trackpoint>
          <Trackpoint>
            <Time>2022-07-10T08:40:40.000Z</Time>
            <Position>
              <LatitudeDegrees>42.7654545195400714874267578125</LatitudeDegrees>
              <LongitudeDegrees>-0.18784641288220882415771484375</LongitudeDegrees>
            </Position>
            <AltitudeMeters>2284.39990234375</AltitudeMeters>
            <DistanceMeters>31071.495882078</DistanceMeters>
          </Trackpoint>
          <Trackpoint>
            <Time>2022-07-10T08:40:44.000Z</Time>
            <Position>
              <LatitudeDegrees>42.76546516455709934234619140625</LatitudeDegrees>
              <LongitudeDegrees>-0.1878885738551616668701171875</LongitudeDegrees>
            </Position>
            <AltitudeMeters>2285.60009765625</AltitudeMeters>
            <DistanceMeters>31075.13926133</DistanceMeters>
          </Trackpoint>
          <Trackpoint>
            <Time>2022-07-10T08:40:45.000Z</Time>
            <Position>
              <LatitudeDegrees>42.76546700857579708099365234375</LatitudeDegrees>
              <LongitudeDegrees>-0.187901146709918975830078125</LongitudeDegrees>
            </Position>
            <AltitudeMeters>2286</AltitudeMeters>
            <DistanceMeters>31076.188865697</DistanceMeters>
          </Trackpoint>
          <Trackpoint>
            <Time>2022-07-10T08:40:46.000Z</Time>
            <Position>
              <LatitudeDegrees>42.7654679305851459503173828125</LatitudeDegrees>
              <LongitudeDegrees>-0.18790860660374164581298828125</LongitudeDegrees>
            </Position>
            <AltitudeMeters>2286.39990234375</AltitudeMeters>
            <DistanceMeters>31076.804709192</DistanceMeters>
          </Trackpoint>
          <Trackpoint>
            <Time>2022-07-10T08:40:47.000Z</Time>
            <Position>
              <LatitudeDegrees>42.7654675953090190887451171875</LatitudeDegrees>
              <LongitudeDegrees>-0.18791480921208858489990234375</LongitudeDegrees>
            </Position>
            <AltitudeMeters>2286.800048828125</AltitudeMeters>
            <DistanceMeters>31077.325191942</DistanceMeters>
          </Trackpoint>
          <Trackpoint>
            <Time>2022-07-10T08:40:50.000Z</Time>
            <Position>
              <LatitudeDegrees>42.765471450984477996826171875</LatitudeDegrees>
              <LongitudeDegrees>-0.18794548697769641876220703125</LongitudeDegrees>
            </Position>
            <AltitudeMeters>2287.60009765625</AltitudeMeters>
            <DistanceMeters>31079.86793352</DistanceMeters>
          </Trackpoint>
          <Trackpoint>
            <Time>2022-07-10T08:40:51.000Z</Time>
            <Position>
              <LatitudeDegrees>42.76546767912805080413818359375</LatitudeDegrees>
              <LongitudeDegrees>-0.1879676990211009979248046875</LongitudeDegrees>
            </Position>
            <AltitudeMeters>2287.800048828125</AltitudeMeters>
            <DistanceMeters>31081.730069218</DistanceMeters>
          </Trackpoint>
          <Trackpoint>
            <Time>2022-07-10T08:40:52.000Z</Time>
            <Position>
              <LatitudeDegrees>42.76546834968030452728271484375</LatitudeDegrees>
              <LongitudeDegrees>-0.187979601323604583740234375</LongitudeDegrees>
            </Position>
            <AltitudeMeters>2288</AltitudeMeters>
            <DistanceMeters>31082.708429122</DistanceMeters>
          </Trackpoint>
          <Trackpoint>
            <Time>2022-07-10T08:40:55.000Z</Time>
            <Position>
              <LatitudeDegrees>42.76548578403890132904052734375</LatitudeDegrees>
              <LongitudeDegrees>-0.1880096085369586944580078125</LongitudeDegrees>
            </Position>
            <AltitudeMeters>2289.199951171875</AltitudeMeters>
            <DistanceMeters>31085.835659972</DistanceMeters>
          </Trackpoint>
          <Trackpoint>
            <Time>2022-07-10T08:40:57.000Z</Time>
            <Position>
              <LatitudeDegrees>42.76549282483756542205810546875</LatitudeDegrees>
              <LongitudeDegrees>-0.18802913837134838104248046875</LongitudeDegrees>
            </Position>
            <AltitudeMeters>2290</AltitudeMeters>
            <DistanceMeters>31087.613447011</DistanceMeters>
          </Trackpoint>
          <Trackpoint>
            <Time>2022-07-10T08:40:58.000Z</Time>
            <Position>
              <LatitudeDegrees>42.76549416594207286834716796875</LatitudeDegrees>
              <LongitudeDegrees>-0.18803651444613933563232421875</LongitudeDegrees>
            </Position>
            <AltitudeMeters>2290.199951171875</AltitudeMeters>
            <DistanceMeters>31088.229290506</DistanceMeters>
          </Trackpoint>
          <Trackpoint>
            <Time>2022-07-10T08:40:59.000Z</Time>
            <Position>
              <LatitudeDegrees>42.76549701578915119171142578125</LatitudeDegrees>
              <LongitudeDegrees>-0.1880421303212642669677734375</LongitudeDegrees>
            </Position>
            <AltitudeMeters>2290.39990234375</AltitudeMeters>
            <DistanceMeters>31088.783386706</DistanceMeters>
          </Trackpoint>
          <Trackpoint>
            <Time>2022-07-10T08:41:01.000Z</Time>
            <Position>
              <LatitudeDegrees>42.7655038051307201385498046875</LatitudeDegrees>
              <LongitudeDegrees>-0.18805663101375102996826171875</LongitudeDegrees>
            </Position>
            <AltitudeMeters>2290.800048828125</AltitudeMeters>
            <DistanceMeters>31090.18643933</DistanceMeters>
          </Trackpoint>
          <Trackpoint>
            <Time>2022-07-10T08:41:04.000Z</Time>
            <Position>
              <LatitudeDegrees>42.765502631664276123046875</LatitudeDegrees>
              <LongitudeDegrees>-0.18807305954396724700927734375</LongitudeDegrees>
            </Position>
            <AltitudeMeters>2291.39990234375</AltitudeMeters>
            <DistanceMeters>31091.530320013</DistanceMeters>
          </Trackpoint>
          <Trackpoint>
            <Time>2022-07-10T08:41:05.000Z</Time>
            <Position>
              <LatitudeDegrees>42.76550062000751495361328125</LatitudeDegrees>
              <LongitudeDegrees>-0.18807825632393360137939453125</LongitudeDegrees>
            </Position>
            <AltitudeMeters>2291.60009765625</AltitudeMeters>
            <DistanceMeters>31092.014863083</DistanceMeters>
          </Trackpoint>
          <Trackpoint>
            <Time>2022-07-10T08:41:07.000Z</Time>
            <Position>
              <LatitudeDegrees>42.7654967643320560455322265625</LatitudeDegrees>
              <LongitudeDegrees>-0.18809066154062747955322265625</LongitudeDegrees>
            </Position>
            <AltitudeMeters>2292.199951171875</AltitudeMeters>
            <DistanceMeters>31093.11487683</DistanceMeters>
          </Trackpoint>
          <Trackpoint>
            <Time>2022-07-10T08:41:09.000Z</Time>
            <Position>
              <LatitudeDegrees>42.76549701578915119171142578125</LatitudeDegrees>
              <LongitudeDegrees>-0.1881014741957187652587890625</LongitudeDegrees>
            </Position>
            <AltitudeMeters>2292.800048828125</AltitudeMeters>
            <DistanceMeters>31093.996118326</DistanceMeters>
          </Trackpoint>
          <Trackpoint>
            <Time>2022-07-10T08:41:14.000Z</Time>
            <Position>
              <LatitudeDegrees>42.7655012905597686767578125</LatitudeDegrees>
              <LongitudeDegrees>-0.1881286315619945526123046875</LongitudeDegrees>
            </Position>
            <AltitudeMeters>2293.60009765625</AltitudeMeters>
            <DistanceMeters>31096.264850037</DistanceMeters>
          </Trackpoint>
          <Trackpoint>
            <Time>2022-07-10T08:41:16.000Z</Time>
            <Position>
              <LatitudeDegrees>42.76550791226327419281005859375</LatitudeDegrees>
              <LongitudeDegrees>-0.1881400309503078460693359375</LongitudeDegrees>
            </Position>
            <AltitudeMeters>2294</AltitudeMeters>
            <DistanceMeters>31097.451733319</DistanceMeters>
          </Trackpoint>
          <Trackpoint>
            <Time>2022-07-10T08:41:19.000Z</Time>
            <Position>
              <LatitudeDegrees>42.76551880873739719390869140625</LatitudeDegrees>
              <LongitudeDegrees>-0.1881578005850315093994140625</LongitudeDegrees>
            </Position>
            <AltitudeMeters>2294.60009765625</AltitudeMeters>
            <DistanceMeters>31099.340351913</DistanceMeters>
          </Trackpoint>
          <Trackpoint>
            <Time>2022-07-10T08:41:20.000Z</Time>
            <Position>
              <LatitudeDegrees>42.765523754060268402099609375</LatitudeDegrees>
              <LongitudeDegrees>-0.1881645061075687408447265625</LongitudeDegrees>
            </Position>
            <AltitudeMeters>2294.800048828125</AltitudeMeters>
            <DistanceMeters>31100.11235259</DistanceMeters>
          </Trackpoint>
          <Trackpoint>
            <Time>2022-07-10T08:41:21.000Z</Time>
            <Position>
              <LatitudeDegrees>42.76552936993539333343505859375</LatitudeDegrees>
              <LongitudeDegrees>-0.18817515112459659576416015625</LongitudeDegrees>
            </Position>
            <AltitudeMeters>2295.199951171875</AltitudeMeters>
            <DistanceMeters>31101.187457136</DistanceMeters>
          </Trackpoint>
          <Trackpoint>
            <Time>2022-07-10T08:41:23.000Z</Time>
            <Position>
              <LatitudeDegrees>42.765529789030551910400390625</LatitudeDegrees>
              <LongitudeDegrees>-0.1881923340260982513427734375</LongitudeDegrees>
            </Position>
            <AltitudeMeters>2295.60009765625</AltitudeMeters>
            <DistanceMeters>31102.593724088</DistanceMeters>
          </Trackpoint>
          <Trackpoint>
            <Time>2022-07-10T08:41:25.000Z</Time>
            <Position>
              <LatitudeDegrees>42.76554026640951633453369140625</LatitudeDegrees>
              <LongitudeDegrees>-0.18819945864379405975341796875</LongitudeDegrees>
            </Position>
            <AltitudeMeters>2296</AltitudeMeters>
            <DistanceMeters>31103.896664752</DistanceMeters>
          </Trackpoint>
          <Trackpoint>
            <Time>2022-07-10T08:41:27.000Z</Time>
            <Position>
              <LatitudeDegrees>42.765555940568447113037109375</LatitudeDegrees>
              <LongitudeDegrees>-0.188209600746631622314453125</LongitudeDegrees>
            </Position>
            <AltitudeMeters>2296.60009765625</AltitudeMeters>
            <DistanceMeters>31105.827835788</DistanceMeters>
          </Trackpoint>
          <Trackpoint>
            <Time>2022-07-10T08:41:32.000Z</Time>
            <Position>
              <LatitudeDegrees>42.765581421554088592529296875</LatitudeDegrees>
              <LongitudeDegrees>-0.18825645558536052703857421875</LongitudeDegrees>
            </Position>
            <AltitudeMeters>2297.800048828125</AltitudeMeters>
            <DistanceMeters>31110.592456673</DistanceMeters>
          </Trackpoint>
          <Trackpoint>
            <Time>2022-07-10T08:41:33.000Z</Time>
            <Position>
              <LatitudeDegrees>42.76558251120150089263916015625</LatitudeDegrees>
              <LongitudeDegrees>-0.1882640831172466278076171875</LongitudeDegrees>
            </Position>
            <AltitudeMeters>2298</AltitudeMeters>
            <DistanceMeters>31111.229915252</DistanceMeters>
          </Trackpoint>
          <Trackpoint>
            <Time>2022-07-10T08:41:36.000Z</Time>
            <Position>
              <LatitudeDegrees>42.76557169854640960693359375</LatitudeDegrees>
              <LongitudeDegrees>-0.1882763206958770751953125</LongitudeDegrees>
            </Position>
            <AltitudeMeters>2298.39990234375</AltitudeMeters>
            <DistanceMeters>31112.791363503</DistanceMeters>
          </Trackpoint>
          <Trackpoint>
            <Time>2022-07-10T08:41:37.000Z</Time>
            <Position>
              <LatitudeDegrees>42.76556423865258693695068359375</LatitudeDegrees>
              <LongitudeDegrees>-0.1882885582745075225830078125</LongitudeDegrees>
            </Position>
            <AltitudeMeters>2299</AltitudeMeters>
            <DistanceMeters>31114.090834278</DistanceMeters>
          </Trackpoint>
          <Trackpoint>
            <Time>2022-07-10T08:41:38.000Z</Time>
            <Position>
              <LatitudeDegrees>42.76555669493973255157470703125</LatitudeDegrees>
              <LongitudeDegrees>-0.1883018016815185546875</LongitudeDegrees>
            </Position>
            <AltitudeMeters>2299.39990234375</AltitudeMeters>
            <DistanceMeters>31115.461329043</DistanceMeters>
          </Trackpoint>
          <Trackpoint>
            <Time>2022-07-10T08:41:39.000Z</Time>
            <Position>
              <LatitudeDegrees>42.765549905598163604736328125</LatitudeDegrees>
              <LongitudeDegrees>-0.18831194378435611724853515625</LongitudeDegrees>
            </Position>
            <AltitudeMeters>2299.60009765625</AltitudeMeters>
            <DistanceMeters>31116.581677482</DistanceMeters>
          </Trackpoint>
          <Trackpoint>
            <Time>2022-07-10T08:41:40.000Z</Time>
            <Position>
              <LatitudeDegrees>42.76554244570434093475341796875</LatitudeDegrees>
              <LongitudeDegrees>-0.1883217506110668182373046875</LongitudeDegrees>
            </Position>
            <AltitudeMeters>2300.199951171875</AltitudeMeters>
            <DistanceMeters>31117.737727357</DistanceMeters>
          </Trackpoint>
          <Trackpoint>
            <Time>2022-07-10T08:41:42.000Z</Time>
            <Position>
              <LatitudeDegrees>42.7655254304409027099609375</LatitudeDegrees>
              <LongitudeDegrees>-0.18834077753126621246337890625</LongitudeDegrees>
            </Position>
            <AltitudeMeters>2300.60009765625</AltitudeMeters>
            <DistanceMeters>31120.188237679</DistanceMeters>
          </Trackpoint>
          <Trackpoint>
            <Time>2022-07-10T08:41:44.000Z</Time>
            <Position>
              <LatitudeDegrees>42.765515036880970001220703125</LatitudeDegrees>
              <LongitudeDegrees>-0.18836525268852710723876953125</LongitudeDegrees>
            </Position>
            <AltitudeMeters>2301.199951171875</AltitudeMeters>
            <DistanceMeters>31122.498383816</DistanceMeters>
          </Trackpoint>
          <Trackpoint>
            <Time>2022-07-10T08:41:45.000Z</Time>
            <Position>
              <LatitudeDegrees>42.7655121870338916778564453125</LatitudeDegrees>
              <LongitudeDegrees>-0.18837195821106433868408203125</LongitudeDegrees>
            </Position>
            <AltitudeMeters>2301.39990234375</AltitudeMeters>
            <DistanceMeters>31123.12871973</DistanceMeters>
          </Trackpoint>
          <Trackpoint>
            <Time>2022-07-10T08:41:47.000Z</Time>
            <Position>
              <LatitudeDegrees>42.76550707407295703887939453125</LatitudeDegrees>
              <LongitudeDegrees>-0.18838536925613880157470703125</LongitudeDegrees>
            </Position>
            <AltitudeMeters>2302</AltitudeMeters>
            <DistanceMeters>31124.36040672</DistanceMeters>
          </Trackpoint>
          <Trackpoint>
            <Time>2022-07-10T08:41:48.000Z</Time>
            <Position>
              <LatitudeDegrees>42.7655084989964962005615234375</LatitudeDegrees>
              <LongitudeDegrees>-0.18838989548385143280029296875</LongitudeDegrees>
            </Position>
            <AltitudeMeters>2302.199951171875</AltitudeMeters>
            <DistanceMeters>31124.752211901</DistanceMeters>
          </Trackpoint>
          <Trackpoint>
            <Time>2022-07-10T08:41:51.000Z</Time>
            <Position>
              <LatitudeDegrees>42.76551067829132080078125</LatitudeDegrees>
              <LongitudeDegrees>-0.18840431235730648040771484375</LongitudeDegrees>
            </Position>
            <AltitudeMeters>2302.800048828125</AltitudeMeters>
            <DistanceMeters>31125.954215325</DistanceMeters>
          </Trackpoint>
          <Trackpoint>
            <Time>2022-07-10T08:41:53.000Z</Time>
            <Position>
              <LatitudeDegrees>42.76551897637546062469482421875</LatitudeDegrees>
              <LongitudeDegrees>-0.1884176395833492279052734375</LongitudeDegrees>
            </Position>
            <AltitudeMeters>2303.39990234375</AltitudeMeters>
            <DistanceMeters>31127.382780086</DistanceMeters>
          </Trackpoint>
          <Trackpoint>
            <Time>2022-07-10T08:41:55.000Z</Time>
            <Position>
              <LatitudeDegrees>42.76553590781986713409423828125</LatitudeDegrees>
              <LongitudeDegrees>-0.1884390972554683685302734375</LongitudeDegrees>
            </Position>
            <AltitudeMeters>2303.800048828125</AltitudeMeters>
            <DistanceMeters>31129.957285108</DistanceMeters>
          </Trackpoint>
          <Trackpoint>
            <Time>2022-07-10T08:41:58.000Z</Time>
            <Position>
              <LatitudeDegrees>42.765547223389148712158203125</LatitudeDegrees>
              <LongitudeDegrees>-0.18847254104912281036376953125</LongitudeDegrees>
            </Position>
            <AltitudeMeters>2303.800048828125</AltitudeMeters>
            <DistanceMeters>31132.965297175</DistanceMeters>
          </Trackpoint>
          <Trackpoint>
            <Time>2022-07-10T08:42:03.000Z</Time>
            <Position>
              <LatitudeDegrees>42.7655457146465778350830078125</LatitudeDegrees>
              <LongitudeDegrees>-0.18850673921406269073486328125</LongitudeDegrees>
            </Position>
            <AltitudeMeters>2304.60009765625</AltitudeMeters>
            <DistanceMeters>31135.76334583</DistanceMeters>
          </Trackpoint>
          <Trackpoint>
            <Time>2022-07-10T08:42:04.000Z</Time>
            <Position>
              <LatitudeDegrees>42.7655450440943241119384765625</LatitudeDegrees>
              <LongitudeDegrees>-0.1885096728801727294921875</LongitudeDegrees>
            </Position>
            <AltitudeMeters>2304.800048828125</AltitudeMeters>
            <DistanceMeters>31136.014762885</DistanceMeters>
          </Trackpoint>
          <Trackpoint>
            <Time>2022-07-10T08:42:09.000Z</Time>
            <Position>
              <LatitudeDegrees>42.76554261334240436553955078125</LatitudeDegrees>
              <LongitudeDegrees>-0.18855619244277477264404296875</LongitudeDegrees>
            </Position>
            <AltitudeMeters>2305.60009765625</AltitudeMeters>
            <DistanceMeters>31139.825322282</DistanceMeters>
          </Trackpoint>
          <Trackpoint>
            <Time>2022-07-10T08:42:11.000Z</Time>
            <Position>
              <LatitudeDegrees>42.7655473910272121429443359375</LatitudeDegrees>
              <LongitudeDegrees>-0.1885832659900188446044921875</LongitudeDegrees>
            </Position>
            <AltitudeMeters>2306</AltitudeMeters>
            <DistanceMeters>31142.102000538</DistanceMeters>
          </Trackpoint>
          <Trackpoint>
            <Time>2022-07-10T08:42:14.000Z</Time>
            <Position>
              <LatitudeDegrees>42.76554713957011699676513671875</LatitudeDegrees>
              <LongitudeDegrees>-0.18861402757465839385986328125</LongitudeDegrees>
            </Position>
            <AltitudeMeters>2306.800048828125</AltitudeMeters>
            <DistanceMeters>31144.616171079</DistanceMeters>
          </Trackpoint>
          <Trackpoint>
            <Time>2022-07-10T08:42:17.000Z</Time>
            <Position>
              <LatitudeDegrees>42.76554160751402378082275390625</LatitudeDegrees>
              <LongitudeDegrees>-0.18863297067582607269287109375</LongitudeDegrees>
            </Position>
            <AltitudeMeters>2307.39990234375</AltitudeMeters>
            <DistanceMeters>31146.283883148</DistanceMeters>
          </Trackpoint>
          <Trackpoint>
            <Time>2022-07-10T08:42:18.000Z</Time>
            <Position>
              <LatitudeDegrees>42.765537835657596588134765625</LatitudeDegrees>
              <LongitudeDegrees>-0.18863799981772899627685546875</LongitudeDegrees>
            </Position>
            <AltitudeMeters>2307.800048828125</AltitudeMeters>
            <DistanceMeters>31146.869667156</DistanceMeters>
          </Trackpoint>
          <Trackpoint>
            <Time>2022-07-10T08:42:19.000Z</Time>
            <Position>
              <LatitudeDegrees>42.7655296213924884796142578125</LatitudeDegrees>
              <LongitudeDegrees>-0.188642442226409912109375</LongitudeDegrees>
            </Position>
            <AltitudeMeters>2308.199951171875</AltitudeMeters>
            <DistanceMeters>31147.848027061</DistanceMeters>
          </Trackpoint>
          <Trackpoint>
            <Time>2022-07-10T08:42:23.000Z</Time>
            <Position>
              <LatitudeDegrees>42.76550908572971820831298828125</LatitudeDegrees>
              <LongitudeDegrees>-0.18865744583308696746826171875</LongitudeDegrees>
            </Position>
            <AltitudeMeters>2309</AltitudeMeters>
            <DistanceMeters>31150.440010254</DistanceMeters>
          </Trackpoint>
          <Trackpoint>
            <Time>2022-07-10T08:42:24.000Z</Time>
            <Position>
              <LatitudeDegrees>42.765507660806179046630859375</LatitudeDegrees>
              <LongitudeDegrees>-0.18866616301238536834716796875</LongitudeDegrees>
            </Position>
            <AltitudeMeters>2309.199951171875</AltitudeMeters>
            <DistanceMeters>31151.16371215</DistanceMeters>
          </Trackpoint>
          <Trackpoint>
            <Time>2022-07-10T08:42:27.000Z</Time>
            <Position>
              <LatitudeDegrees>42.76551537215709686279296875</LatitudeDegrees>
              <LongitudeDegrees>-0.1886945776641368865966796875</LongitudeDegrees>
            </Position>
            <AltitudeMeters>2310.199951171875</AltitudeMeters>
            <DistanceMeters>31153.638058898</DistanceMeters>
          </Trackpoint>
          <Trackpoint>
            <Time>2022-07-10T08:42:28.000Z</Time>
            <Position>
              <LatitudeDegrees>42.7655178867280483245849609375</LatitudeDegrees>
              <LongitudeDegrees>-0.18870321102440357208251953125</LongitudeDegrees>
            </Position>
            <AltitudeMeters>2310.39990234375</AltitudeMeters>
            <DistanceMeters>31154.398272613</DistanceMeters>
          </Trackpoint>
          <Trackpoint>
            <Time>2022-07-10T08:42:31.000Z</Time>
            <Position>
              <LatitudeDegrees>42.7655158750712871551513671875</LatitudeDegrees>
              <LongitudeDegrees>-0.1887230761349201202392578125</LongitudeDegrees>
            </Position>
            <AltitudeMeters>2311.39990234375</AltitudeMeters>
            <DistanceMeters>31156.035933354</DistanceMeters>
          </Trackpoint>
          <Trackpoint>
            <Time>2022-07-10T08:42:33.000Z</Time>
            <Position>
              <LatitudeDegrees>42.76550020091235637664794921875</LatitudeDegrees>
              <LongitudeDegrees>-0.18872081302106380462646484375</LongitudeDegrees>
            </Position>
            <AltitudeMeters>2311.800048828125</AltitudeMeters>
            <DistanceMeters>31157.790714272</DistanceMeters>
          </Trackpoint>
          <Trackpoint>
            <Time>2022-07-10T08:42:35.000Z</Time>
            <Position>
              <LatitudeDegrees>42.765492238104343414306640625</LatitudeDegrees>
              <LongitudeDegrees>-0.18874101340770721435546875</LongitudeDegrees>
            </Position>
            <AltitudeMeters>2312.39990234375</AltitudeMeters>
            <DistanceMeters>31159.664934039</DistanceMeters>
          </Trackpoint>
          <Trackpoint>
            <Time>2022-07-10T08:42:39.000Z</Time>
            <Position>
              <LatitudeDegrees>42.7655105106532573699951171875</LatitudeDegrees>
              <LongitudeDegrees>-0.18878971226513385772705078125</LongitudeDegrees>
            </Position>
            <AltitudeMeters>2313</AltitudeMeters>
            <DistanceMeters>31164.134221353</DistanceMeters>
          </Trackpoint>
          <Trackpoint>
            <Time>2022-07-10T08:42:42.000Z</Time>
            <Position>
              <LatitudeDegrees>42.7654974348843097686767578125</LatitudeDegrees>
              <LongitudeDegrees>-0.188809074461460113525390625</LongitudeDegrees>
            </Position>
            <AltitudeMeters>2313.60009765625</AltitudeMeters>
            <DistanceMeters>31166.284430445</DistanceMeters>
          </Trackpoint>
          <Trackpoint>
            <Time>2022-07-10T08:42:44.000Z</Time>
            <Position>
              <LatitudeDegrees>42.7654756419360637664794921875</LatitudeDegrees>
              <LongitudeDegrees>-0.1888233236968517303466796875</LongitudeDegrees>
            </Position>
            <AltitudeMeters>2314</AltitudeMeters>
            <DistanceMeters>31168.975549414</DistanceMeters>
          </Trackpoint>
          <Trackpoint>
            <Time>2022-07-10T08:42:45.000Z</Time>
            <Position>
              <LatitudeDegrees>42.76546767912805080413818359375</LatitudeDegrees>
              <LongitudeDegrees>-0.18882625736296176910400390625</LongitudeDegrees>
            </Position>
            <AltitudeMeters>2314.39990234375</AltitudeMeters>
            <DistanceMeters>31169.896867593</DistanceMeters>
          </Trackpoint>
          <Trackpoint>
            <Time>2022-07-10T08:42:46.000Z</Time>
            <Position>
              <LatitudeDegrees>42.76546181179583072662353515625</LatitudeDegrees>
              <LongitudeDegrees>-0.188828520476818084716796875</LongitudeDegrees>
            </Position>
            <AltitudeMeters>2314.800048828125</AltitudeMeters>
            <DistanceMeters>31170.575494072</DistanceMeters>
          </Trackpoint>
          <Trackpoint>
            <Time>2022-07-10T08:42:47.000Z</Time>
            <Position>
              <LatitudeDegrees>42.765455357730388641357421875</LatitudeDegrees>
              <LongitudeDegrees>-0.18883162178099155426025390625</LongitudeDegrees>
            </Position>
            <AltitudeMeters>2314.800048828125</AltitudeMeters>
            <DistanceMeters>31171.335707787</DistanceMeters>
          </Trackpoint>
          <Trackpoint>
            <Time>2022-07-10T08:42:52.000Z</Time>
            <Position>
              <LatitudeDegrees>42.7654216624796390533447265625</LatitudeDegrees>
              <LongitudeDegrees>-0.18884620629251003265380859375</LongitudeDegrees>
            </Position>
            <AltitudeMeters>2315.800048828125</AltitudeMeters>
            <DistanceMeters>31175.269859668</DistanceMeters>
          </Trackpoint>
          <Trackpoint>
            <Time>2022-07-10T08:42:53.000Z</Time>
            <Position>
              <LatitudeDegrees>42.76541420258581638336181640625</LatitudeDegrees>
              <LongitudeDegrees>-0.1888484694063663482666015625</LongitudeDegrees>
            </Position>
            <AltitudeMeters>2316.39990234375</AltitudeMeters>
            <DistanceMeters>31176.11980444</DistanceMeters>
          </Trackpoint>
          <Trackpoint>
            <Time>2022-07-10T08:42:55.000Z</Time>
            <Position>
              <LatitudeDegrees>42.765395008027553558349609375</LatitudeDegrees>
              <LongitudeDegrees>-0.1888521574437618255615234375</LongitudeDegrees>
            </Position>
            <AltitudeMeters>2317</AltitudeMeters>
            <DistanceMeters>31178.278396446</DistanceMeters>
          </Trackpoint>
          <Trackpoint>
            <Time>2022-07-10T08:42:58.000Z</Time>
            <Position>
              <LatitudeDegrees>42.7653747238218784332275390625</LatitudeDegrees>
              <LongitudeDegrees>-0.1888746209442615509033203125</LongitudeDegrees>
            </Position>
            <AltitudeMeters>2317.39990234375</AltitudeMeters>
            <DistanceMeters>31181.187207479</DistanceMeters>
          </Trackpoint>
          <Trackpoint>
            <Time>2022-07-10T08:43:01.000Z</Time>
            <Position>
              <LatitudeDegrees>42.76536424644291400909423828125</LatitudeDegrees>
              <LongitudeDegrees>-0.1888923905789852142333984375</LongitudeDegrees>
            </Position>
            <AltitudeMeters>2318</AltitudeMeters>
            <DistanceMeters>31183.049343176</DistanceMeters>
          </Trackpoint>
          <Trackpoint>
            <Time>2022-07-10T08:43:06.000Z</Time>
            <Position>
              <LatitudeDegrees>42.7653443813323974609375</LatitudeDegrees>
              <LongitudeDegrees>-0.18892482854425907135009765625</LongitudeDegrees>
            </Position>
            <AltitudeMeters>2319.199951171875</AltitudeMeters>
            <DistanceMeters>31186.500527151</DistanceMeters>
          </Trackpoint>
          <Trackpoint>
            <Time>2022-07-10T08:43:12.000Z</Time>
            <Position>
              <LatitudeDegrees>42.76530372910201549530029296875</LatitudeDegrees>
              <LongitudeDegrees>-0.1889718510210514068603515625</LongitudeDegrees>
            </Position>
            <AltitudeMeters>2320.199951171875</AltitudeMeters>
            <DistanceMeters>31192.436465012</DistanceMeters>
          </Trackpoint>
          <Trackpoint>
            <Time>2022-07-10T08:43:13.000Z</Time>
            <Position>
              <LatitudeDegrees>42.76529635302722454071044921875</LatitudeDegrees>
              <LongitudeDegrees>-0.18897629342973232269287109375</LongitudeDegrees>
            </Position>
            <AltitudeMeters>2320.39990234375</AltitudeMeters>
            <DistanceMeters>31193.33796758</DistanceMeters>
          </Trackpoint>
          <Trackpoint>
            <Time>2022-07-10T08:43:17.000Z</Time>
            <Position>
              <LatitudeDegrees>42.76528595946729183197021484375</LatitudeDegrees>
              <LongitudeDegrees>-0.18899456597864627838134765625</LongitudeDegrees>
            </Position>
            <AltitudeMeters>2321.199951171875</AltitudeMeters>
            <DistanceMeters>31195.226586174</DistanceMeters>
          </Trackpoint>
          <Trackpoint>
            <Time>2022-07-10T08:43:18.000Z</Time>
            <Position>
              <LatitudeDegrees>42.7652848698198795318603515625</LatitudeDegrees>
              <LongitudeDegrees>-0.188999176025390625</LongitudeDegrees>
            </Position>
            <AltitudeMeters>2321.199951171875</AltitudeMeters>
            <DistanceMeters>31195.629750379</DistanceMeters>
          </Trackpoint>
          <Trackpoint>
            <Time>2022-07-10T08:43:19.000Z</Time>
            <Position>
              <LatitudeDegrees>42.765281684696674346923828125</LatitudeDegrees>
              <LongitudeDegrees>-0.1890023611485958099365234375</LongitudeDegrees>
            </Position>
            <AltitudeMeters>2321.39990234375</AltitudeMeters>
            <DistanceMeters>31196.085482491</DistanceMeters>
          </Trackpoint>
          <Trackpoint>
            <Time>2022-07-10T08:43:20.000Z</Time>
            <Position>
              <LatitudeDegrees>42.7652788348495960235595703125</LatitudeDegrees>
              <LongitudeDegrees>-0.1890120841562747955322265625</LongitudeDegrees>
            </Position>
            <AltitudeMeters>2321.800048828125</AltitudeMeters>
            <DistanceMeters>31196.945985988</DistanceMeters>
          </Trackpoint>
          <Trackpoint>
            <Time>2022-07-10T08:43:22.000Z</Time>
            <Position>
              <LatitudeDegrees>42.7652731351554393768310546875</LatitudeDegrees>
              <LongitudeDegrees>-0.18903597258031368255615234375</LongitudeDegrees>
            </Position>
            <AltitudeMeters>2322.60009765625</AltitudeMeters>
            <DistanceMeters>31198.997330821</DistanceMeters>
          </Trackpoint>
          <Trackpoint>
            <Time>2022-07-10T08:43:26.000Z</Time>
            <Position>
              <LatitudeDegrees>42.765266597270965576171875</LatitudeDegrees>
              <LongitudeDegrees>-0.189069919288158416748046875</LongitudeDegrees>
            </Position>
            <AltitudeMeters>2323.39990234375</AltitudeMeters>
            <DistanceMeters>31201.865500907</DistanceMeters>
          </Trackpoint>
          <Trackpoint>
            <Time>2022-07-10T08:43:27.000Z</Time>
            <Position>
              <LatitudeDegrees>42.7652634121477603912353515625</LatitudeDegrees>
              <LongitudeDegrees>-0.1890794746577739715576171875</LongitudeDegrees>
            </Position>
            <AltitudeMeters>2323.39990234375</AltitudeMeters>
            <DistanceMeters>31202.715445679</DistanceMeters>
          </Trackpoint>
          <Trackpoint>
            <Time>2022-07-10T08:43:28.000Z</Time>
            <Position>
              <LatitudeDegrees>42.7652620710432529449462890625</LatitudeDegrees>
              <LongitudeDegrees>-0.18908433616161346435546875</LongitudeDegrees>
            </Position>
            <AltitudeMeters>2323.60009765625</AltitudeMeters>
            <DistanceMeters>31203.140418065</DistanceMeters>
          </Trackpoint>
          <Trackpoint>
            <Time>2022-07-10T08:43:33.000Z</Time>
            <Position>
              <LatitudeDegrees>42.76524581015110015869140625</LatitudeDegrees>
              <LongitudeDegrees>-0.1891284249722957611083984375</LongitudeDegrees>
            </Position>
            <AltitudeMeters>2324.39990234375</AltitudeMeters>
            <DistanceMeters>31207.172060112</DistanceMeters>
          </Trackpoint>
          <Trackpoint>
            <Time>2022-07-10T08:43:35.000Z</Time>
            <Position>
              <LatitudeDegrees>42.7652305550873279571533203125</LatitudeDegrees>
              <LongitudeDegrees>-0.18915834836661815643310546875</LongitudeDegrees>
            </Position>
            <AltitudeMeters>2324.800048828125</AltitudeMeters>
            <DistanceMeters>31210.149900784</DistanceMeters>
          </Trackpoint>
          <Trackpoint>
            <Time>2022-07-10T08:43:39.000Z</Time>
            <Position>
              <LatitudeDegrees>42.76518872939050197601318359375</LatitudeDegrees>
              <LongitudeDegrees>-0.18920059315860271453857421875</LongitudeDegrees>
            </Position>
            <AltitudeMeters>2325.60009765625</AltitudeMeters>
            <DistanceMeters>31215.945751401</DistanceMeters>
          </Trackpoint>
          <Trackpoint>
            <Time>2022-07-10T08:43:42.000Z</Time>
            <Position>
              <LatitudeDegrees>42.765161991119384765625</LatitudeDegrees>
              <LongitudeDegrees>-0.18924166448414325714111328125</LongitudeDegrees>
            </Position>
            <AltitudeMeters>2326</AltitudeMeters>
            <DistanceMeters>31220.430166663</DistanceMeters>
          </Trackpoint>
          <Trackpoint>
            <Time>2022-07-10T08:43:46.000Z</Time>
            <Position>
              <LatitudeDegrees>42.76513089425861835479736328125</LatitudeDegrees>
              <LongitudeDegrees>-0.18929421901702880859375</LongitudeDegrees>
            </Position>
            <AltitudeMeters>2326.60009765625</AltitudeMeters>
            <DistanceMeters>31225.944991906</DistanceMeters>
          </Trackpoint>
          <Trackpoint>
            <Time>2022-07-10T08:43:52.000Z</Time>
            <Position>
              <LatitudeDegrees>42.765096612274646759033203125</LatitudeDegrees>
              <LongitudeDegrees>-0.1893651299178600311279296875</LongitudeDegrees>
            </Position>
            <AltitudeMeters>2326.800048828125</AltitudeMeters>
            <DistanceMeters>31232.882592892</DistanceMeters>
          </Trackpoint>
          <Trackpoint>
            <Time>2022-07-10T08:43:53.000Z</Time>
            <Position>
              <LatitudeDegrees>42.7650907449424266815185546875</LatitudeDegrees>
              <LongitudeDegrees>-0.1893746852874755859375</LongitudeDegrees>
            </Position>
            <AltitudeMeters>2327</AltitudeMeters>
            <DistanceMeters>31233.897200558</DistanceMeters>
          </Trackpoint>
          <Trackpoint>
            <Time>2022-07-10T08:43:59.000Z</Time>
            <Position>
              <LatitudeDegrees>42.76508160866796970367431640625</LatitudeDegrees>
              <LongitudeDegrees>-0.18944920040667057037353515625</LongitudeDegrees>
            </Position>
            <AltitudeMeters>2327.39990234375</AltitudeMeters>
            <DistanceMeters>31240.070281036</DistanceMeters>
          </Trackpoint>
          <Trackpoint>
            <Time>2022-07-10T08:44:00.000Z</Time>
            <Position>
              <LatitudeDegrees>42.76508093811571598052978515625</LatitudeDegrees>
              <LongitudeDegrees>-0.18945892341434955596923828125</LongitudeDegrees>
            </Position>
            <AltitudeMeters>2327.199951171875</AltitudeMeters>
            <DistanceMeters>31240.86533157</DistanceMeters>
          </Trackpoint>
          <Trackpoint>
            <Time>2022-07-10T08:44:02.000Z</Time>
            <Position>
              <LatitudeDegrees>42.765076495707035064697265625</LatitudeDegrees>
              <LongitudeDegrees>-0.18946697004139423370361328125</LongitudeDegrees>
            </Position>
            <AltitudeMeters>2327</AltitudeMeters>
            <DistanceMeters>31241.682782276</DistanceMeters>
          </Trackpoint>
          <Trackpoint>
            <Time>2022-07-10T08:44:05.000Z</Time>
            <Position>
              <LatitudeDegrees>42.765061743557453155517578125</LatitudeDegrees>
              <LongitudeDegrees>-0.18948960117995738983154296875</LongitudeDegrees>
            </Position>
            <AltitudeMeters>2326.800048828125</AltitudeMeters>
            <DistanceMeters>31244.157129024</DistanceMeters>
          </Trackpoint>
          <Trackpoint>
            <Time>2022-07-10T08:44:06.000Z</Time>
            <Position>
              <LatitudeDegrees>42.7650575526058673858642578125</LatitudeDegrees>
              <LongitudeDegrees>-0.189499743282794952392578125</LongitudeDegrees>
            </Position>
            <AltitudeMeters>2326.800048828125</AltitudeMeters>
            <DistanceMeters>31245.112135684</DistanceMeters>
          </Trackpoint>
          <Trackpoint>
            <Time>2022-07-10T08:44:07.000Z</Time>
            <Position>
              <LatitudeDegrees>42.76505109854042530059814453125</LatitudeDegrees>
              <LongitudeDegrees>-0.18951256759464740753173828125</LongitudeDegrees>
            </Position>
            <AltitudeMeters>2326.800048828125</AltitudeMeters>
            <DistanceMeters>31246.383506473</DistanceMeters>
          </Trackpoint>
          <Trackpoint>
            <Time>2022-07-10T08:44:11.000Z</Time>
            <Position>
              <LatitudeDegrees>42.7650438062846660614013671875</LatitudeDegrees>
              <LongitudeDegrees>-0.18959320150315761566162109375</LongitudeDegrees>
            </Position>
            <AltitudeMeters>2327.39990234375</AltitudeMeters>
            <DistanceMeters>31253.02246747</DistanceMeters>
          </Trackpoint>
          <Trackpoint>
            <Time>2022-07-10T08:44:14.000Z</Time>
            <Position>
              <LatitudeDegrees>42.7650525234639644622802734375</LatitudeDegrees>
              <LongitudeDegrees>-0.18962748348712921142578125</LongitudeDegrees>
            </Position>
            <AltitudeMeters>2327.60009765625</AltitudeMeters>
            <DistanceMeters>31255.98815364</DistanceMeters>
          </Trackpoint>
          <Trackpoint>
            <Time>2022-07-10T08:44:19.000Z</Time>
            <Position>
              <LatitudeDegrees>42.76506048627197742462158203125</LatitudeDegrees>
              <LongitudeDegrees>-0.18969856202602386474609375</LongitudeDegrees>
            </Position>
            <AltitudeMeters>2327</AltitudeMeters>
            <DistanceMeters>31261.863694657</DistanceMeters>
          </Trackpoint>
          <Trackpoint>
            <Time>2022-07-10T08:44:20.000Z</Time>
            <Position>
              <LatitudeDegrees>42.76505998335778713226318359375</LatitudeDegrees>
              <LongitudeDegrees>-0.189707279205322265625</LongitudeDegrees>
            </Position>
            <AltitudeMeters>2327</AltitudeMeters>
            <DistanceMeters>31262.587396553</DistanceMeters>
          </Trackpoint>
          <Trackpoint>
            <Time>2022-07-10T08:44:21.000Z</Time>
            <Position>
              <LatitudeDegrees>42.76505327783524990081787109375</LatitudeDegrees>
              <LongitudeDegrees>-0.1897225342690944671630859375</LongitudeDegrees>
            </Position>
            <AltitudeMeters>2327</AltitudeMeters>
            <DistanceMeters>31264.041025766</DistanceMeters>
          </Trackpoint>
          <Trackpoint>
            <Time>2022-07-10T08:44:23.000Z</Time>
            <Position>
              <LatitudeDegrees>42.76504464447498321533203125</LatitudeDegrees>
              <LongitudeDegrees>-0.1897461712360382080078125</LongitudeDegrees>
            </Position>
            <AltitudeMeters>2327</AltitudeMeters>
            <DistanceMeters>31266.195430391</DistanceMeters>
          </Trackpoint>
          <Trackpoint>
            <Time>2022-07-10T08:44:27.000Z</Time>
            <Position>
              <LatitudeDegrees>42.765010781586170196533203125</LatitudeDegrees>
              <LongitudeDegrees>-0.18981523811817169189453125</LongitudeDegrees>
            </Position>
            <AltitudeMeters>2327</AltitudeMeters>
            <DistanceMeters>31272.981695186</DistanceMeters>
          </Trackpoint>
          <Trackpoint>
            <Time>2022-07-10T08:44:28.000Z</Time>
            <Position>
              <LatitudeDegrees>42.7650029025971889495849609375</LatitudeDegrees>
              <LongitudeDegrees>-0.18982705660164356231689453125</LongitudeDegrees>
            </Position>
            <AltitudeMeters>2327.199951171875</AltitudeMeters>
            <DistanceMeters>31274.284635849</DistanceMeters>
          </Trackpoint>
          <Trackpoint>
            <Time>2022-07-10T08:44:33.000Z</Time>
            <Position>
              <LatitudeDegrees>42.7649851329624652862548828125</LatitudeDegrees>
              <LongitudeDegrees>-0.1898963749408721923828125</LongitudeDegrees>
            </Position>
            <AltitudeMeters>2327.60009765625</AltitudeMeters>
            <DistanceMeters>31280.284878743</DistanceMeters>
          </Trackpoint>
          <Trackpoint>
            <Time>2022-07-10T08:44:38.000Z</Time>
            <Position>
              <LatitudeDegrees>42.76497197337448596954345703125</LatitudeDegrees>
              <LongitudeDegrees>-0.18996141850948333740234375</LongitudeDegrees>
            </Position>
            <AltitudeMeters>2327.60009765625</AltitudeMeters>
            <DistanceMeters>31285.797247311</DistanceMeters>
          </Trackpoint>
          <Trackpoint>
            <Time>2022-07-10T08:44:39.000Z</Time>
            <Position>
              <LatitudeDegrees>42.76496577076613903045654296875</LatitudeDegrees>
              <LongitudeDegrees>-0.1899714767932891845703125</LongitudeDegrees>
            </Position>
            <AltitudeMeters>2327.60009765625</AltitudeMeters>
            <DistanceMeters>31286.868143996</DistanceMeters>
          </Trackpoint>
          <Trackpoint>
            <Time>2022-07-10T08:44:40.000Z</Time>
            <Position>
              <LatitudeDegrees>42.76495705358684062957763671875</LatitudeDegrees>
              <LongitudeDegrees>-0.1899867318570613861083984375</LongitudeDegrees>
            </Position>
            <AltitudeMeters>2327.60009765625</AltitudeMeters>
            <DistanceMeters>31288.449703724</DistanceMeters>
          </Trackpoint>
          <Trackpoint>
            <Time>2022-07-10T08:44:43.000Z</Time>
            <Position>
              <LatitudeDegrees>42.7649405412375926971435546875</LatitudeDegrees>
              <LongitudeDegrees>-0.19002503715455532073974609375</LongitudeDegrees>
            </Position>
            <AltitudeMeters>2328</AltitudeMeters>
            <DistanceMeters>31292.080669382</DistanceMeters>
          </Trackpoint>
          <Trackpoint>
            <Time>2022-07-10T08:44:44.000Z</Time>
            <Position>
              <LatitudeDegrees>42.7649353444576263427734375</LatitudeDegrees>
              <LongitudeDegrees>-0.1900465786457061767578125</LongitudeDegrees>
            </Position>
            <AltitudeMeters>2328.199951171875</AltitudeMeters>
            <DistanceMeters>31293.930642077</DistanceMeters>
          </Trackpoint>
          <Trackpoint>
            <Time>2022-07-10T08:44:47.000Z</Time>
            <Position>
              <LatitudeDegrees>42.7649165689945220947265625</LatitudeDegrees>
              <LongitudeDegrees>-0.1901055872440338134765625</LongitudeDegrees>
            </Position>
            <AltitudeMeters>2328.800048828125</AltitudeMeters>
            <DistanceMeters>31299.185542054</DistanceMeters>
          </Trackpoint>
          <Trackpoint>
            <Time>2022-07-10T08:44:49.000Z</Time>
            <Position>
              <LatitudeDegrees>42.7648986317217350006103515625</LatitudeDegrees>
              <LongitudeDegrees>-0.19013307988643646240234375</LongitudeDegrees>
            </Position>
            <AltitudeMeters>2329.39990234375</AltitudeMeters>
            <DistanceMeters>31302.190550613</DistanceMeters>
          </Trackpoint>
          <Trackpoint>
            <Time>2022-07-10T08:44:51.000Z</Time>
            <Position>
              <LatitudeDegrees>42.76487424038350582122802734375</LatitudeDegrees>
              <LongitudeDegrees>-0.1901520229876041412353515625</LongitudeDegrees>
            </Position>
            <AltitudeMeters>2329.60009765625</AltitudeMeters>
            <DistanceMeters>31305.316337348</DistanceMeters>
          </Trackpoint>
          <Trackpoint>
            <Time>2022-07-10T08:44:53.000Z</Time>
            <Position>
              <LatitudeDegrees>42.76485932059586048126220703125</LatitudeDegrees>
              <LongitudeDegrees>-0.1901721395552158355712890625</LongitudeDegrees>
            </Position>
            <AltitudeMeters>2330</AltitudeMeters>
            <DistanceMeters>31307.65175298</DistanceMeters>
          </Trackpoint>
          <Trackpoint>
            <Time>2022-07-10T08:44:57.000Z</Time>
            <Position>
              <LatitudeDegrees>42.76484557427465915679931640625</LatitudeDegrees>
              <LongitudeDegrees>-0.19024397246539592742919921875</LongitudeDegrees>
            </Position>
            <AltitudeMeters>2330.39990234375</AltitudeMeters>
            <DistanceMeters>31313.717107993</DistanceMeters>
          </Trackpoint>
          <Trackpoint>
            <Time>2022-07-10T08:44:59.000Z</Time>
            <Position>
              <LatitudeDegrees>42.76482830755412578582763671875</LatitudeDegrees>
              <LongitudeDegrees>-0.190273225307464599609375</LongitudeDegrees>
            </Position>
            <AltitudeMeters>2330.800048828125</AltitudeMeters>
            <DistanceMeters>31316.784572688</DistanceMeters>
          </Trackpoint>
          <Trackpoint>
            <Time>2022-07-10T08:45:05.000Z</Time>
            <Position>
              <LatitudeDegrees>42.7647930197417736053466796875</LatitudeDegrees>
              <LongitudeDegrees>-0.190374813973903656005859375</LongitudeDegrees>
            </Position>
            <AltitudeMeters>2331.199951171875</AltitudeMeters>
            <DistanceMeters>31325.967320307</DistanceMeters>
          </Trackpoint>
          <Trackpoint>
            <Time>2022-07-10T08:45:06.000Z</Time>
            <Position>
              <LatitudeDegrees>42.76478639803826808929443359375</LatitudeDegrees>
              <LongitudeDegrees>-0.1903863810002803802490234375</LongitudeDegrees>
            </Position>
            <AltitudeMeters>2331.39990234375</AltitudeMeters>
            <DistanceMeters>31327.165561582</DistanceMeters>
          </Trackpoint>
          <Trackpoint>
            <Time>2022-07-10T08:45:07.000Z</Time>
            <Position>
              <LatitudeDegrees>42.76477784849703311920166015625</LatitudeDegrees>
              <LongitudeDegrees>-0.190396271646022796630859375</LongitudeDegrees>
            </Position>
            <AltitudeMeters>2331.60009765625</AltitudeMeters>
            <DistanceMeters>31328.411825258</DistanceMeters>
          </Trackpoint>
          <Trackpoint>
            <Time>2022-07-10T08:45:11.000Z</Time>
            <Position>
              <LatitudeDegrees>42.7647556364536285400390625</LatitudeDegrees>
              <LongitudeDegrees>-0.19045352004468441009521484375</LongitudeDegrees>
            </Position>
            <AltitudeMeters>2331.800048828125</AltitudeMeters>
            <DistanceMeters>31333.702688795</DistanceMeters>
          </Trackpoint>
          <Trackpoint>
            <Time>2022-07-10T08:45:15.000Z</Time>
            <Position>
              <LatitudeDegrees>42.76473308913409709930419921875</LatitudeDegrees>
              <LongitudeDegrees>-0.19050724804401397705078125</LongitudeDegrees>
            </Position>
            <AltitudeMeters>2332.39990234375</AltitudeMeters>
            <DistanceMeters>31338.759681626</DistanceMeters>
          </Trackpoint>
          <Trackpoint>
            <Time>2022-07-10T08:45:17.000Z</Time>
            <Position>
              <LatitudeDegrees>42.76473359204828739166259765625</LatitudeDegrees>
              <LongitudeDegrees>-0.19054069183766841888427734375</LongitudeDegrees>
            </Position>
            <AltitudeMeters>2332.800048828125</AltitudeMeters>
            <DistanceMeters>31341.4940743</DistanceMeters>
          </Trackpoint>
          <Trackpoint>
            <Time>2022-07-10T08:45:18.000Z</Time>
            <Position>
              <LatitudeDegrees>42.7647341787815093994140625</LatitudeDegrees>
              <LongitudeDegrees>-0.19055494107306003570556640625</LongitudeDegrees>
            </Position>
            <AltitudeMeters>2332.800048828125</AltitudeMeters>
            <DistanceMeters>31342.657909111</DistanceMeters>
          </Trackpoint>
          <Trackpoint>
            <Time>2022-07-10T08:45:20.000Z</Time>
            <Position>
              <LatitudeDegrees>42.764729820191860198974609375</LatitudeDegrees>
              <LongitudeDegrees>-0.19057421945035457611083984375</LongitudeDegrees>
            </Position>
            <AltitudeMeters>2332.800048828125</AltitudeMeters>
            <DistanceMeters>31344.306560987</DistanceMeters>
          </Trackpoint>
          <Trackpoint>
            <Time>2022-07-10T08:45:23.000Z</Time>
            <Position>
              <LatitudeDegrees>42.76473023928701877593994140625</LatitudeDegrees>
              <LongitudeDegrees>-0.19060975871980190277099609375</LongitudeDegrees>
            </Position>
            <AltitudeMeters>2333.199951171875</AltitudeMeters>
            <DistanceMeters>31347.210711706</DistanceMeters>
          </Trackpoint>
          <Trackpoint>
            <Time>2022-07-10T08:45:26.000Z</Time>
            <Position>
              <LatitudeDegrees>42.76473493315279483795166015625</LatitudeDegrees>
              <LongitudeDegrees>-0.19065954722464084625244140625</LongitudeDegrees>
            </Position>
            <AltitudeMeters>2333.800048828125</AltitudeMeters>
            <DistanceMeters>31351.313401372</DistanceMeters>
          </Trackpoint>
          <Trackpoint>
            <Time>2022-07-10T08:45:28.000Z</Time>
            <Position>
              <LatitudeDegrees>42.76473443023860454559326171875</LatitudeDegrees>
              <LongitudeDegrees>-0.19069525413215160369873046875</LongitudeDegrees>
            </Position>
            <AltitudeMeters>2334</AltitudeMeters>
            <DistanceMeters>31354.231510706</DistanceMeters>
          </Trackpoint>
          <Trackpoint>
            <Time>2022-07-10T08:45:31.000Z</Time>
            <Position>
              <LatitudeDegrees>42.76472604833543300628662109375</LatitudeDegrees>
              <LongitudeDegrees>-0.190730206668376922607421875</LongitudeDegrees>
            </Position>
            <AltitudeMeters>2334.199951171875</AltitudeMeters>
            <DistanceMeters>31357.236519266</DistanceMeters>
          </Trackpoint>
          <Trackpoint>
            <Time>2022-07-10T08:45:32.000Z</Time>
            <Position>
              <LatitudeDegrees>42.76471900753676891326904296875</LatitudeDegrees>
              <LongitudeDegrees>-0.190740264952182769775390625</LongitudeDegrees>
            </Position>
            <AltitudeMeters>2334.39990234375</AltitudeMeters>
            <DistanceMeters>31358.376839838</DistanceMeters>
          </Trackpoint>
          <Trackpoint>
            <Time>2022-07-10T08:45:33.000Z</Time>
            <Position>
              <LatitudeDegrees>42.76470936834812164306640625</LatitudeDegrees>
              <LongitudeDegrees>-0.1907545141875743865966796875</LongitudeDegrees>
            </Position>
            <AltitudeMeters>2334.60009765625</AltitudeMeters>
            <DistanceMeters>31359.958399567</DistanceMeters>
          </Trackpoint>
          <Trackpoint>
            <Time>2022-07-10T08:45:35.000Z</Time>
            <Position>
              <LatitudeDegrees>42.764692604541778564453125</LatitudeDegrees>
              <LongitudeDegrees>-0.190787203609943389892578125</LongitudeDegrees>
            </Position>
            <AltitudeMeters>2334.800048828125</AltitudeMeters>
            <DistanceMeters>31363.215751224</DistanceMeters>
          </Trackpoint>
          <Trackpoint>
            <Time>2022-07-10T08:45:39.000Z</Time>
            <Position>
              <LatitudeDegrees>42.76467877440154552459716796875</LatitudeDegrees>
              <LongitudeDegrees>-0.190847553312778472900390625</LongitudeDegrees>
            </Position>
            <AltitudeMeters>2336</AltitudeMeters>
            <DistanceMeters>31368.380520901</DistanceMeters>
          </Trackpoint>
          <Trackpoint>
            <Time>2022-07-10T08:45:40.000Z</Time>
            <Position>
              <LatitudeDegrees>42.7646733261644840240478515625</LatitudeDegrees>
              <LongitudeDegrees>-0.1908618025481700897216796875</LongitudeDegrees>
            </Position>
            <AltitudeMeters>2336.199951171875</AltitudeMeters>
            <DistanceMeters>31369.690373765</DistanceMeters>
          </Trackpoint>
          <Trackpoint>
            <Time>2022-07-10T08:45:41.000Z</Time>
            <Position>
              <LatitudeDegrees>42.7646686322987079620361328125</LatitudeDegrees>
              <LongitudeDegrees>-0.19088317640125751495361328125</LongitudeDegrees>
            </Position>
            <AltitudeMeters>2336.39990234375</AltitudeMeters>
            <DistanceMeters>31371.513302214</DistanceMeters>
          </Trackpoint>
          <Trackpoint>
            <Time>2022-07-10T08:45:43.000Z</Time>
            <Position>
              <LatitudeDegrees>42.76466335169970989227294921875</LatitudeDegrees>
              <LongitudeDegrees>-0.1909156143665313720703125</LongitudeDegrees>
            </Position>
            <AltitudeMeters>2336.60009765625</AltitudeMeters>
            <DistanceMeters>31374.227808132</DistanceMeters>
          </Trackpoint>
          <Trackpoint>
            <Time>2022-07-10T08:45:45.000Z</Time>
            <Position>
              <LatitudeDegrees>42.76465664617717266082763671875</LatitudeDegrees>
              <LongitudeDegrees>-0.19093682058155536651611328125</LongitudeDegrees>
            </Position>
            <AltitudeMeters>2336.800048828125</AltitudeMeters>
            <DistanceMeters>31376.114034555</DistanceMeters>
          </Trackpoint>
          <Trackpoint>
            <Time>2022-07-10T08:45:46.000Z</Time>
            <Position>
              <LatitudeDegrees>42.76465614326298236846923828125</LatitudeDegrees>
              <LongitudeDegrees>-0.19094847142696380615234375</LongitudeDegrees>
            </Position>
            <AltitudeMeters>2337</AltitudeMeters>
            <DistanceMeters>31377.069041215</DistanceMeters>
          </Trackpoint>
          <Trackpoint>
            <Time>2022-07-10T08:45:48.000Z</Time>
            <Position>
              <LatitudeDegrees>42.76465849019587039947509765625</LatitudeDegrees>
              <LongitudeDegrees>-0.19099029712378978729248046875</LongitudeDegrees>
            </Position>
            <AltitudeMeters>2337.39990234375</AltitudeMeters>
            <DistanceMeters>31380.496595657</DistanceMeters>
          </Trackpoint>
          <Trackpoint>
            <Time>2022-07-10T08:45:51.000Z</Time>
            <Position>
              <LatitudeDegrees>42.76467273943126201629638671875</LatitudeDegrees>
              <LongitudeDegrees>-0.191056430339813232421875</LongitudeDegrees>
            </Position>
            <AltitudeMeters>2337.800048828125</AltitudeMeters>
            <DistanceMeters>31386.128081116</DistanceMeters>
          </Trackpoint>
          <Trackpoint>
            <Time>2022-07-10T08:45:54.000Z</Time>
            <Position>
              <LatitudeDegrees>42.76467449963092803955078125</LatitudeDegrees>
              <LongitudeDegrees>-0.19108400680124759674072265625</LongitudeDegrees>
            </Position>
            <AltitudeMeters>2338</AltitudeMeters>
            <DistanceMeters>31388.390834603</DistanceMeters>
          </Trackpoint>
          <Trackpoint>
            <Time>2022-07-10T08:45:57.000Z</Time>
            <Position>
              <LatitudeDegrees>42.76467508636415004730224609375</LatitudeDegrees>
              <LongitudeDegrees>-0.19110043533146381378173828125</LongitudeDegrees>
            </Position>
            <AltitudeMeters>2338.199951171875</AltitudeMeters>
            <DistanceMeters>31389.734715286</DistanceMeters>
          </Trackpoint>
          <Trackpoint>
            <Time>2022-07-10T08:45:58.000Z</Time>
            <Position>
              <LatitudeDegrees>42.76467441581189632415771484375</LatitudeDegrees>
              <LongitudeDegrees>-0.19110999070107936859130859375</LongitudeDegrees>
            </Position>
            <AltitudeMeters>2338.39990234375</AltitudeMeters>
            <DistanceMeters>31390.512542466</DistanceMeters>
          </Trackpoint>
          <Trackpoint>
            <Time>2022-07-10T08:45:59.000Z</Time>
            <Position>
              <LatitudeDegrees>42.764669470489025115966796875</LatitudeDegrees>
              <LongitudeDegrees>-0.1911152713000774383544921875</LongitudeDegrees>
            </Position>
            <AltitudeMeters>2338.60009765625</AltitudeMeters>
            <DistanceMeters>31391.210843352</DistanceMeters>
          </Trackpoint>
          <Trackpoint>
            <Time>2022-07-10T08:46:01.000Z</Time>
            <Position>
              <LatitudeDegrees>42.76465211994946002960205078125</LatitudeDegrees>
              <LongitudeDegrees>-0.19112742505967617034912109375</LongitudeDegrees>
            </Position>
            <AltitudeMeters>2338.60009765625</AltitudeMeters>
            <DistanceMeters>31393.381949039</DistanceMeters>
          </Trackpoint>
          <Trackpoint>
            <Time>2022-07-10T08:46:02.000Z</Time>
            <Position>
              <LatitudeDegrees>42.76464365422725677490234375</LatitudeDegrees>
              <LongitudeDegrees>-0.19113756716251373291015625</LongitudeDegrees>
            </Position>
            <AltitudeMeters>2338.60009765625</AltitudeMeters>
            <DistanceMeters>31394.635437492</DistanceMeters>
          </Trackpoint>
          <Trackpoint>
            <Time>2022-07-10T08:46:05.000Z</Time>
            <Position>
              <LatitudeDegrees>42.764641307294368743896484375</LatitudeDegrees>
              <LongitudeDegrees>-0.19117620773613452911376953125</LongitudeDegrees>
            </Position>
            <AltitudeMeters>2339.39990234375</AltitudeMeters>
            <DistanceMeters>31397.804261407</DistanceMeters>
          </Trackpoint>
          <Trackpoint>
            <Time>2022-07-10T08:46:07.000Z</Time>
            <Position>
              <LatitudeDegrees>42.76464164257049560546875</LatitudeDegrees>
              <LongitudeDegrees>-0.1911893673241138458251953125</LongitudeDegrees>
            </Position>
            <AltitudeMeters>2339.800048828125</AltitudeMeters>
            <DistanceMeters>31398.879365953</DistanceMeters>
          </Trackpoint>
          <Trackpoint>
            <Time>2022-07-10T08:46:10.000Z</Time>
            <Position>
              <LatitudeDegrees>42.7646340988576412200927734375</LatitudeDegrees>
              <LongitudeDegrees>-0.19120235927402973175048828125</LongitudeDegrees>
            </Position>
            <AltitudeMeters>2339.800048828125</AltitudeMeters>
            <DistanceMeters>31400.229949324</DistanceMeters>
          </Trackpoint>
          <Trackpoint>
            <Time>2022-07-10T08:46:11.000Z</Time>
            <Position>
              <LatitudeDegrees>42.76463292539119720458984375</LatitudeDegrees>
              <LongitudeDegrees>-0.1912158541381359100341796875</LongitudeDegrees>
            </Position>
            <AltitudeMeters>2339.800048828125</AltitudeMeters>
            <DistanceMeters>31401.338141724</DistanceMeters>
          </Trackpoint>
          <Trackpoint>
            <Time>2022-07-10T08:46:17.000Z</Time>
            <Position>
              <LatitudeDegrees>42.76461406610906124114990234375</LatitudeDegrees>
              <LongitudeDegrees>-0.19131266511976718902587890625</LongitudeDegrees>
            </Position>
            <AltitudeMeters>2340</AltitudeMeters>
            <DistanceMeters>31409.522584714</DistanceMeters>
          </Trackpoint>
          <Trackpoint>
            <Time>2022-07-10T08:46:19.000Z</Time>
            <Position>
              <LatitudeDegrees>42.76460467837750911712646484375</LatitudeDegrees>
              <LongitudeDegrees>-0.191351808607578277587890625</LongitudeDegrees>
            </Position>
            <AltitudeMeters>2340.39990234375</AltitudeMeters>
            <DistanceMeters>31412.88765765</DistanceMeters>
          </Trackpoint>
          <Trackpoint>
            <Time>2022-07-10T08:46:20.000Z</Time>
            <Position>
              <LatitudeDegrees>42.7646012417972087860107421875</LatitudeDegrees>
              <LongitudeDegrees>-0.1913643814623355865478515625</LongitudeDegrees>
            </Position>
            <AltitudeMeters>2340.39990234375</AltitudeMeters>
            <DistanceMeters>31413.983559181</DistanceMeters>
          </Trackpoint>
          <Trackpoint>
            <Time>2022-07-10T08:46:21.000Z</Time>
            <Position>
              <LatitudeDegrees>42.76459746994078159332275390625</LatitudeDegrees>
              <LongitudeDegrees>-0.191377289593219757080078125</LongitudeDegrees>
            </Position>
            <AltitudeMeters>2340.60009765625</AltitudeMeters>
            <DistanceMeters>31415.115933172</DistanceMeters>
          </Trackpoint>
          <Trackpoint>
            <Time>2022-07-10T08:46:23.000Z</Time>
            <Position>
              <LatitudeDegrees>42.7645848132669925689697265625</LatitudeDegrees>
              <LongitudeDegrees>-0.19139246083796024322509765625</LongitudeDegrees>
            </Position>
            <AltitudeMeters>2340.60009765625</AltitudeMeters>
            <DistanceMeters>31416.992560416</DistanceMeters>
          </Trackpoint>
          <Trackpoint>
            <Time>2022-07-10T08:46:26.000Z</Time>
            <Position>
              <LatitudeDegrees>42.764581628143787384033203125</LatitudeDegrees>
              <LongitudeDegrees>-0.191410146653652191162109375</LongitudeDegrees>
            </Position>
            <AltitudeMeters>2341</AltitudeMeters>
            <DistanceMeters>31418.482996193</DistanceMeters>
          </Trackpoint>
          <Trackpoint>
            <Time>2022-07-10T08:46:29.000Z</Time>
            <Position>
              <LatitudeDegrees>42.7645801194012165069580078125</LatitudeDegrees>
              <LongitudeDegrees>-0.191448032855987548828125</LongitudeDegrees>
            </Position>
            <AltitudeMeters>2341.39990234375</AltitudeMeters>
            <DistanceMeters>31421.582673811</DistanceMeters>
          </Trackpoint>
          <Trackpoint>
            <Time>2022-07-10T08:46:33.000Z</Time>
            <Position>
              <LatitudeDegrees>42.76456310413777828216552734375</LatitudeDegrees>
              <LongitudeDegrees>-0.191481225192546844482421875</LongitudeDegrees>
            </Position>
            <AltitudeMeters>2341.199951171875</AltitudeMeters>
            <DistanceMeters>31424.888183227</DistanceMeters>
          </Trackpoint>
          <Trackpoint>
            <Time>2022-07-10T08:46:34.000Z</Time>
            <Position>
              <LatitudeDegrees>42.76455438695847988128662109375</LatitudeDegrees>
              <LongitudeDegrees>-0.1914896070957183837890625</LongitudeDegrees>
            </Position>
            <AltitudeMeters>2341.39990234375</AltitudeMeters>
            <DistanceMeters>31426.075066509</DistanceMeters>
          </Trackpoint>
          <Trackpoint>
            <Time>2022-07-10T08:46:36.000Z</Time>
            <Position>
              <LatitudeDegrees>42.764546088874340057373046875</LatitudeDegrees>
              <LongitudeDegrees>-0.1915083825588226318359375</LongitudeDegrees>
            </Position>
            <AltitudeMeters>2341.39990234375</AltitudeMeters>
            <DistanceMeters>31427.86802697</DistanceMeters>
          </Trackpoint>
          <Trackpoint>
            <Time>2022-07-10T08:46:38.000Z</Time>
            <Position>
              <LatitudeDegrees>42.76454265229403972625732421875</LatitudeDegrees>
              <LongitudeDegrees>-0.19153377972543239593505859375</LongitudeDegrees>
            </Position>
            <AltitudeMeters>2341.800048828125</AltitudeMeters>
            <DistanceMeters>31429.97796244</DistanceMeters>
          </Trackpoint>
          <Trackpoint>
            <Time>2022-07-10T08:46:39.000Z</Time>
            <Position>
              <LatitudeDegrees>42.76454432867467403411865234375</LatitudeDegrees>
              <LongitudeDegrees>-0.19154618494212627410888671875</LongitudeDegrees>
            </Position>
            <AltitudeMeters>2342</AltitudeMeters>
            <DistanceMeters>31431.010216779</DistanceMeters>
          </Trackpoint>
          <Trackpoint>
            <Time>2022-07-10T08:46:40.000Z</Time>
            <Position>
              <LatitudeDegrees>42.76454441249370574951171875</LatitudeDegrees>
              <LongitudeDegrees>-0.1915575005114078521728515625</LongitudeDegrees>
            </Position>
            <AltitudeMeters>2342.199951171875</AltitudeMeters>
            <DistanceMeters>31431.936422621</DistanceMeters>
          </Trackpoint>
          <Trackpoint>
            <Time>2022-07-10T08:46:41.000Z</Time>
            <Position>
              <LatitudeDegrees>42.764542400836944580078125</LatitudeDegrees>
              <LongitudeDegrees>-0.19156546331942081451416015625</LongitudeDegrees>
            </Position>
            <AltitudeMeters>2342.39990234375</AltitudeMeters>
            <DistanceMeters>31432.628227544</DistanceMeters>
          </Trackpoint>
          <Trackpoint>
            <Time>2022-07-10T08:46:42.000Z</Time>
            <Position>
              <LatitudeDegrees>42.76454064063727855682373046875</LatitudeDegrees>
              <LongitudeDegrees>-0.19157753325998783111572265625</LongitudeDegrees>
            </Position>
            <AltitudeMeters>2342.60009765625</AltitudeMeters>
            <DistanceMeters>31433.633895761</DistanceMeters>
          </Trackpoint>
          <Trackpoint>
            <Time>2022-07-10T08:46:44.000Z</Time>
            <Position>
              <LatitudeDegrees>42.764540724456310272216796875</LatitudeDegrees>
              <LongitudeDegrees>-0.19159681163728237152099609375</LongitudeDegrees>
            </Position>
            <AltitudeMeters>2342.800048828125</AltitudeMeters>
            <DistanceMeters>31435.212598107</DistanceMeters>
          </Trackpoint>
          <Trackpoint>
            <Time>2022-07-10T08:46:45.000Z</Time>
            <Position>
              <LatitudeDegrees>42.76454114355146884918212890625</LatitudeDegrees>
              <LongitudeDegrees>-0.19160770811140537261962890625</LongitudeDegrees>
            </Position>
            <AltitudeMeters>2343</AltitudeMeters>
            <DistanceMeters>31436.104027704</DistanceMeters>
          </Trackpoint>
          <Trackpoint>
            <Time>2022-07-10T08:46:48.000Z</Time>
            <Position>
              <LatitudeDegrees>42.7645335160195827484130859375</LatitudeDegrees>
              <LongitudeDegrees>-0.191627405583858489990234375</LongitudeDegrees>
            </Position>
            <AltitudeMeters>2343</AltitudeMeters>
            <DistanceMeters>31437.921995795</DistanceMeters>
          </Trackpoint>
          <Trackpoint>
            <Time>2022-07-10T08:46:52.000Z</Time>
            <Position>
              <LatitudeDegrees>42.76452270336449146270751953125</LatitudeDegrees>
              <LongitudeDegrees>-0.19167669117450714111328125</LongitudeDegrees>
            </Position>
            <AltitudeMeters>2342.800048828125</AltitudeMeters>
            <DistanceMeters>31442.124712717</DistanceMeters>
          </Trackpoint>
          <Trackpoint>
            <Time>2022-07-10T08:46:56.000Z</Time>
            <Position>
              <LatitudeDegrees>42.7645133994519710540771484375</LatitudeDegrees>
              <LongitudeDegrees>-0.191714577376842498779296875</LongitudeDegrees>
            </Position>
            <AltitudeMeters>2343.199951171875</AltitudeMeters>
            <DistanceMeters>31445.388987553</DistanceMeters>
          </Trackpoint>
          <Trackpoint>
            <Time>2022-07-10T08:47:00.000Z</Time>
            <Position>
              <LatitudeDegrees>42.76449839584529399871826171875</LatitudeDegrees>
              <LongitudeDegrees>-0.1917378790676593780517578125</LongitudeDegrees>
            </Position>
            <AltitudeMeters>2343.199951171875</AltitudeMeters>
            <DistanceMeters>31447.922835289</DistanceMeters>
          </Trackpoint>
          <Trackpoint>
            <Time>2022-07-10T08:47:06.000Z</Time>
            <Position>
              <LatitudeDegrees>42.76446386240422725677490234375</LatitudeDegrees>
              <LongitudeDegrees>-0.1917818002402782440185546875</LongitudeDegrees>
            </Position>
            <AltitudeMeters>2343.199951171875</AltitudeMeters>
            <DistanceMeters>31453.181170964</DistanceMeters>
          </Trackpoint>
          <Trackpoint>
            <Time>2022-07-10T08:47:12.000Z</Time>
            <Position>
              <LatitudeDegrees>42.76445279829204082489013671875</LatitudeDegrees>
              <LongitudeDegrees>-0.19184030592441558837890625</LongitudeDegrees>
            </Position>
            <AltitudeMeters>2343.39990234375</AltitudeMeters>
            <DistanceMeters>31458.118903885</DistanceMeters>
          </Trackpoint>
          <Trackpoint>
            <Time>2022-07-10T08:47:13.000Z</Time>
            <Position>
              <LatitudeDegrees>42.76445162482559680938720703125</LatitudeDegrees>
              <LongitudeDegrees>-0.19184608943760395050048828125</LongitudeDegrees>
            </Position>
            <AltitudeMeters>2343.199951171875</AltitudeMeters>
            <DistanceMeters>31458.612677177</DistanceMeters>
          </Trackpoint>
          <Trackpoint>
            <Time>2022-07-10T08:47:15.000Z</Time>
            <Position>
              <LatitudeDegrees>42.76444575749337673187255859375</LatitudeDegrees>
              <LongitudeDegrees>-0.19185530953109264373779296875</LongitudeDegrees>
            </Position>
            <AltitudeMeters>2343.199951171875</AltitudeMeters>
            <DistanceMeters>31459.609325766</DistanceMeters>
          </Trackpoint>
          <Trackpoint>
            <Time>2022-07-10T08:47:20.000Z</Time>
            <Position>
              <LatitudeDegrees>42.7644148282706737518310546875</LatitudeDegrees>
              <LongitudeDegrees>-0.19188447855412960052490234375</LongitudeDegrees>
            </Position>
            <AltitudeMeters>2343.199951171875</AltitudeMeters>
            <DistanceMeters>31463.79697528</DistanceMeters>
          </Trackpoint>
          <Trackpoint>
            <Time>2022-07-10T08:47:22.000Z</Time>
            <Position>
              <LatitudeDegrees>42.7643980644643306732177734375</LatitudeDegrees>
              <LongitudeDegrees>-0.19190124236047267913818359375</LongitudeDegrees>
            </Position>
            <AltitudeMeters>2343.199951171875</AltitudeMeters>
            <DistanceMeters>31466.112977311</DistanceMeters>
          </Trackpoint>
          <Trackpoint>
            <Time>2022-07-10T08:47:24.000Z</Time>
            <Position>
              <LatitudeDegrees>42.7643779478967189788818359375</LatitudeDegrees>
              <LongitudeDegrees>-0.1919122226536273956298828125</LongitudeDegrees>
            </Position>
            <AltitudeMeters>2343</AltitudeMeters>
            <DistanceMeters>31468.524484978</DistanceMeters>
          </Trackpoint>
          <Trackpoint>
            <Time>2022-07-10T08:47:26.000Z</Time>
            <Position>
              <LatitudeDegrees>42.7643601782619953155517578125</LatitudeDegrees>
              <LongitudeDegrees>-0.19192420877516269683837890625</LongitudeDegrees>
            </Position>
            <AltitudeMeters>2343</AltitudeMeters>
            <DistanceMeters>31470.732706271</DistanceMeters>
          </Trackpoint>
          <Trackpoint>
            <Time>2022-07-10T08:47:30.000Z</Time>
            <Position>
              <LatitudeDegrees>42.7643353678286075592041015625</LatitudeDegrees>
              <LongitudeDegrees>-0.19195203669369220733642578125</LongitudeDegrees>
            </Position>
            <AltitudeMeters>2342.60009765625</AltitudeMeters>
            <DistanceMeters>31474.309802625</DistanceMeters>
          </Trackpoint>
          <Trackpoint>
            <Time>2022-07-10T08:47:33.000Z</Time>
            <Position>
              <LatitudeDegrees>42.76432606391608715057373046875</LatitudeDegrees>
              <LongitudeDegrees>-0.19199226982891559600830078125</LongitudeDegrees>
            </Position>
            <AltitudeMeters>2342.199951171875</AltitudeMeters>
            <DistanceMeters>31477.757059592</DistanceMeters>
          </Trackpoint>
          <Trackpoint>
            <Time>2022-07-10T08:47:36.000Z</Time>
            <Position>
              <LatitudeDegrees>42.76431416161358356475830078125</LatitudeDegrees>
              <LongitudeDegrees>-0.19202646799385547637939453125</LongitudeDegrees>
            </Position>
            <AltitudeMeters>2342</AltitudeMeters>
            <DistanceMeters>31480.850905262</DistanceMeters>
          </Trackpoint>
          <Trackpoint>
            <Time>2022-07-10T08:47:38.000Z</Time>
            <Position>
              <LatitudeDegrees>42.76431214995682239532470703125</LatitudeDegrees>
              <LongitudeDegrees>-0.192052535712718963623046875</LongitudeDegrees>
            </Position>
            <AltitudeMeters>2342.199951171875</AltitudeMeters>
            <DistanceMeters>31482.988478344</DistanceMeters>
          </Trackpoint>
          <Trackpoint>
            <Time>2022-07-10T08:47:39.000Z</Time>
            <Position>
              <LatitudeDegrees>42.76431080885231494903564453125</LatitudeDegrees>
              <LongitudeDegrees>-0.19206150434911251068115234375</LongitudeDegrees>
            </Position>
            <AltitudeMeters>2342.199951171875</AltitudeMeters>
            <DistanceMeters>31483.736719442</DistanceMeters>
          </Trackpoint>
          <Trackpoint>
            <Time>2022-07-10T08:47:41.000Z</Time>
            <Position>
              <LatitudeDegrees>42.76429421268403530120849609375</LatitudeDegrees>
              <LongitudeDegrees>-0.19207206554710865020751953125</LongitudeDegrees>
            </Position>
            <AltitudeMeters>2342.60009765625</AltitudeMeters>
            <DistanceMeters>31485.774815407</DistanceMeters>
          </Trackpoint>
          <Trackpoint>
            <Time>2022-07-10T08:47:43.000Z</Time>
            <Position>
              <LatitudeDegrees>42.76427024044096469879150390625</LatitudeDegrees>
              <LongitudeDegrees>-0.1920882426202297210693359375</LongitudeDegrees>
            </Position>
            <AltitudeMeters>2342.800048828125</AltitudeMeters>
            <DistanceMeters>31488.752656079</DistanceMeters>
          </Trackpoint>
          <Trackpoint>
            <Time>2022-07-10T08:47:45.000Z</Time>
            <Position>
              <LatitudeDegrees>42.76425532065331935882568359375</LatitudeDegrees>
              <LongitudeDegrees>-0.1921160705387592315673828125</LongitudeDegrees>
            </Position>
            <AltitudeMeters>2343</AltitudeMeters>
            <DistanceMeters>31491.568398808</DistanceMeters>
          </Trackpoint>
          <Trackpoint>
            <Time>2022-07-10T08:47:51.000Z</Time>
            <Position>
              <LatitudeDegrees>42.7642378024756908416748046875</LatitudeDegrees>
              <LongitudeDegrees>-0.192205421626567840576171875</LongitudeDegrees>
            </Position>
            <AltitudeMeters>2343.39990234375</AltitudeMeters>
            <DistanceMeters>31499.125263465</DistanceMeters>
          </Trackpoint>
          <Trackpoint>
            <Time>2022-07-10T08:47:53.000Z</Time>
            <Position>
              <LatitudeDegrees>42.7642274089157581329345703125</LatitudeDegrees>
              <LongitudeDegrees>-0.19222654402256011962890625</LongitudeDegrees>
            </Position>
            <AltitudeMeters>2343.39990234375</AltitudeMeters>
            <DistanceMeters>31501.202852582</DistanceMeters>
          </Trackpoint>
          <Trackpoint>
            <Time>2022-07-10T08:47:58.000Z</Time>
            <Position>
              <LatitudeDegrees>42.7641895227134227752685546875</LatitudeDegrees>
              <LongitudeDegrees>-0.19222310744225978851318359375</LongitudeDegrees>
            </Position>
            <AltitudeMeters>2343.39990234375</AltitudeMeters>
            <DistanceMeters>31505.429138328</DistanceMeters>
          </Trackpoint>
          <Trackpoint>
            <Time>2022-07-10T08:47:59.000Z</Time>
            <Position>
              <LatitudeDegrees>42.76418365538120269775390625</LatitudeDegrees>
              <LongitudeDegrees>-0.19221975468099117279052734375</LongitudeDegrees>
            </Position>
            <AltitudeMeters>2343.39990234375</AltitudeMeters>
            <DistanceMeters>31506.133875303</DistanceMeters>
          </Trackpoint>
          <Trackpoint>
            <Time>2022-07-10T08:48:00.000Z</Time>
            <Position>
              <LatitudeDegrees>42.76418021880090236663818359375</LatitudeDegrees>
              <LongitudeDegrees>-0.19222310744225978851318359375</LongitudeDegrees>
            </Position>
            <AltitudeMeters>2343.60009765625</AltitudeMeters>
            <DistanceMeters>31506.599409227</DistanceMeters>
          </Trackpoint>
          <Trackpoint>
            <Time>2022-07-10T08:48:01.000Z</Time>
            <Position>
              <LatitudeDegrees>42.76417854242026805877685546875</LatitudeDegrees>
              <LongitudeDegrees>-0.1922303996980190277099609375</LongitudeDegrees>
            </Position>
            <AltitudeMeters>2343.800048828125</AltitudeMeters>
            <DistanceMeters>31507.215252723</DistanceMeters>
          </Trackpoint>
          <Trackpoint>
            <Time>2022-07-10T08:48:03.000Z</Time>
            <Position>
              <LatitudeDegrees>42.76417150162160396575927734375</LatitudeDegrees>
              <LongitudeDegrees>-0.192236937582492828369140625</LongitudeDegrees>
            </Position>
            <AltitudeMeters>2343.60009765625</AltitudeMeters>
            <DistanceMeters>31508.165519866</DistanceMeters>
          </Trackpoint>
          <Trackpoint>
            <Time>2022-07-10T08:48:05.000Z</Time>
            <Position>
              <LatitudeDegrees>42.76416429318487644195556640625</LatitudeDegrees>
              <LongitudeDegrees>-0.19224657677114009857177734375</LongitudeDegrees>
            </Position>
            <AltitudeMeters>2343.39990234375</AltitudeMeters>
            <DistanceMeters>31509.285868306</DistanceMeters>
          </Trackpoint>
          <Trackpoint>
            <Time>2022-07-10T08:48:11.000Z</Time>
            <Position>
              <LatitudeDegrees>42.7641425840556621551513671875</LatitudeDegrees>
              <LongitudeDegrees>-0.1922565512359142303466796875</LongitudeDegrees>
            </Position>
            <AltitudeMeters>2343.60009765625</AltitudeMeters>
            <DistanceMeters>31511.835702622</DistanceMeters>
          </Trackpoint>
          <Trackpoint>
            <Time>2022-07-10T08:48:17.000Z</Time>
            <Position>
              <LatitudeDegrees>42.7640996687114238739013671875</LatitudeDegrees>
              <LongitudeDegrees>-0.19226149655878543853759765625</LongitudeDegrees>
            </Position>
            <AltitudeMeters>2343.800048828125</AltitudeMeters>
            <DistanceMeters>31516.630551381</DistanceMeters>
          </Trackpoint>
          <Trackpoint>
            <Time>2022-07-10T08:48:22.000Z</Time>
            <Position>
              <LatitudeDegrees>42.76406806893646717071533203125</LatitudeDegrees>
              <LongitudeDegrees>-0.19228094257414340972900390625</LongitudeDegrees>
            </Position>
            <AltitudeMeters>2344</AltitudeMeters>
            <DistanceMeters>31520.490554766</DistanceMeters>
          </Trackpoint>
          <Trackpoint>
            <Time>2022-07-10T08:48:28.000Z</Time>
            <Position>
              <LatitudeDegrees>42.764019705355167388916015625</LatitudeDegrees>
              <LongitudeDegrees>-0.1923014782369136810302734375</LongitudeDegrees>
            </Position>
            <AltitudeMeters>2344.199951171875</AltitudeMeters>
            <DistanceMeters>31526.128450569</DistanceMeters>
          </Trackpoint>
          <Trackpoint>
            <Time>2022-07-10T08:48:29.000Z</Time>
            <Position>
              <LatitudeDegrees>42.76401073671877384185791015625</LatitudeDegrees>
              <LongitudeDegrees>-0.19229787401854991912841796875</LongitudeDegrees>
            </Position>
            <AltitudeMeters>2344.199951171875</AltitudeMeters>
            <DistanceMeters>31527.16941607</DistanceMeters>
          </Trackpoint>
          <Trackpoint>
            <Time>2022-07-10T08:48:34.000Z</Time>
            <Position>
              <LatitudeDegrees>42.7639675699174404144287109375</LatitudeDegrees>
              <LongitudeDegrees>-0.19232452847063541412353515625</LongitudeDegrees>
            </Position>
            <AltitudeMeters>2343</AltitudeMeters>
            <DistanceMeters>31532.444896673</DistanceMeters>
          </Trackpoint>
          <Trackpoint>
            <Time>2022-07-10T08:48:36.000Z</Time>
            <Position>
              <LatitudeDegrees>42.7639581821858882904052734375</LatitudeDegrees>
              <LongitudeDegrees>-0.19233525730669498443603515625</LongitudeDegrees>
            </Position>
            <AltitudeMeters>2342.800048828125</AltitudeMeters>
            <DistanceMeters>31533.808786606</DistanceMeters>
          </Trackpoint>
          <Trackpoint>
            <Time>2022-07-10T08:48:39.000Z</Time>
            <Position>
              <LatitudeDegrees>42.7639397419989109039306640625</LatitudeDegrees>
              <LongitudeDegrees>-0.1923586428165435791015625</LongitudeDegrees>
            </Position>
            <AltitudeMeters>2342.800048828125</AltitudeMeters>
            <DistanceMeters>31536.611671995</DistanceMeters>
          </Trackpoint>
          <Trackpoint>
            <Time>2022-07-10T08:48:44.000Z</Time>
            <Position>
              <LatitudeDegrees>42.7639025263488292694091796875</LatitudeDegrees>
              <LongitudeDegrees>-0.19239041022956371307373046875</LongitudeDegrees>
            </Position>
            <AltitudeMeters>2342.60009765625</AltitudeMeters>
            <DistanceMeters>31541.4997782</DistanceMeters>
          </Trackpoint>
          <Trackpoint>
            <Time>2022-07-10T08:48:45.000Z</Time>
            <Position>
              <LatitudeDegrees>42.76389305479824542999267578125</LatitudeDegrees>
              <LongitudeDegrees>-0.19239963032305240631103515625</LongitudeDegrees>
            </Position>
            <AltitudeMeters>2342.60009765625</AltitudeMeters>
            <DistanceMeters>31542.795769797</DistanceMeters>
          </Trackpoint>
          <Trackpoint>
            <Time>2022-07-10T08:48:51.000Z</Time>
            <Position>
              <LatitudeDegrees>42.7638498879969120025634765625</LatitudeDegrees>
              <LongitudeDegrees>-0.19243567250669002532958984375</LongitudeDegrees>
            </Position>
            <AltitudeMeters>2342.60009765625</AltitudeMeters>
            <DistanceMeters>31548.430461339</DistanceMeters>
          </Trackpoint>
          <Trackpoint>
            <Time>2022-07-10T08:48:57.000Z</Time>
            <Position>
              <LatitudeDegrees>42.763839326798915863037109375</LatitudeDegrees>
              <LongitudeDegrees>-0.19250524230301380157470703125</LongitudeDegrees>
            </Position>
            <AltitudeMeters>2343</AltitudeMeters>
            <DistanceMeters>31554.234874764</DistanceMeters>
          </Trackpoint>
          <Trackpoint>
            <Time>2022-07-10T08:48:58.000Z</Time>
            <Position>
              <LatitudeDegrees>42.76383589021861553192138671875</LatitudeDegrees>
              <LongitudeDegrees>-0.192520916461944580078125</LongitudeDegrees>
            </Position>
            <AltitudeMeters>2343.199951171875</AltitudeMeters>
            <DistanceMeters>31555.57201916</DistanceMeters>
          </Trackpoint>
          <Trackpoint>
            <Time>2022-07-10T08:49:02.000Z</Time>
            <Position>
              <LatitudeDegrees>42.76379414834082126617431640625</LatitudeDegrees>
              <LongitudeDegrees>-0.19255285151302814483642578125</LongitudeDegrees>
            </Position>
            <AltitudeMeters>2343.39990234375</AltitudeMeters>
            <DistanceMeters>31560.900298464</DistanceMeters>
          </Trackpoint>
          <Trackpoint>
            <Time>2022-07-10T08:49:04.000Z</Time>
            <Position>
              <LatitudeDegrees>42.763775289058685302734375</LatitudeDegrees>
              <LongitudeDegrees>-0.19256123341619968414306640625</LongitudeDegrees>
            </Position>
            <AltitudeMeters>2343.39990234375</AltitudeMeters>
            <DistanceMeters>31563.110563461</DistanceMeters>
          </Trackpoint>
          <Trackpoint>
            <Time>2022-07-10T08:49:10.000Z</Time>
            <Position>
              <LatitudeDegrees>42.7637452818453311920166015625</LatitudeDegrees>
              <LongitudeDegrees>-0.1926132850348949432373046875</LongitudeDegrees>
            </Position>
            <AltitudeMeters>2342.800048828125</AltitudeMeters>
            <DistanceMeters>31568.517909162</DistanceMeters>
          </Trackpoint>
          <Trackpoint>
            <Time>2022-07-10T08:49:12.000Z</Time>
            <Position>
              <LatitudeDegrees>42.76375140063464641571044921875</LatitudeDegrees>
              <LongitudeDegrees>-0.19264069385826587677001953125</LongitudeDegrees>
            </Position>
            <AltitudeMeters>2342.60009765625</AltitudeMeters>
            <DistanceMeters>31570.859117482</DistanceMeters>
          </Trackpoint>
          <Trackpoint>
            <Time>2022-07-10T08:49:15.000Z</Time>
            <Position>
              <LatitudeDegrees>42.76373438537120819091796875</LatitudeDegrees>
              <LongitudeDegrees>-0.1926699467003345489501953125</LongitudeDegrees>
            </Position>
            <AltitudeMeters>2342.800048828125</AltitudeMeters>
            <DistanceMeters>31573.908868085</DistanceMeters>
          </Trackpoint>
          <Trackpoint>
            <Time>2022-07-10T08:49:16.000Z</Time>
            <Position>
              <LatitudeDegrees>42.7637295238673686981201171875</LatitudeDegrees>
              <LongitudeDegrees>-0.19267715513706207275390625</LongitudeDegrees>
            </Position>
            <AltitudeMeters>2342.800048828125</AltitudeMeters>
            <DistanceMeters>31574.709577413</DistanceMeters>
          </Trackpoint>
          <Trackpoint>
            <Time>2022-07-10T08:49:17.000Z</Time>
            <Position>
              <LatitudeDegrees>42.76372575201094150543212890625</LatitudeDegrees>
              <LongitudeDegrees>-0.1926893927156925201416015625</LongitudeDegrees>
            </Position>
            <AltitudeMeters>2342.800048828125</AltitudeMeters>
            <DistanceMeters>31575.793048657</DistanceMeters>
          </Trackpoint>
          <Trackpoint>
            <Time>2022-07-10T08:49:18.000Z</Time>
            <Position>
              <LatitudeDegrees>42.76372524909675121307373046875</LatitudeDegrees>
              <LongitudeDegrees>-0.19270800054073333740234375</LongitudeDegrees>
            </Position>
            <AltitudeMeters>2342.800048828125</AltitudeMeters>
            <DistanceMeters>31577.313476087</DistanceMeters>
          </Trackpoint>
          <Trackpoint>
            <Time>2022-07-10T08:49:21.000Z</Time>
            <Position>
              <LatitudeDegrees>42.763725332915782928466796875</LatitudeDegrees>
              <LongitudeDegrees>-0.19274714402854442596435546875</LongitudeDegrees>
            </Position>
            <AltitudeMeters>2343.199951171875</AltitudeMeters>
            <DistanceMeters>31580.513492757</DistanceMeters>
          </Trackpoint>
          <Trackpoint>
            <Time>2022-07-10T08:49:22.000Z</Time>
            <Position>
              <LatitudeDegrees>42.7637231536209583282470703125</LatitudeDegrees>
              <LongitudeDegrees>-0.192759297788143157958984375</LongitudeDegrees>
            </Position>
            <AltitudeMeters>2343.39990234375</AltitudeMeters>
            <DistanceMeters>31581.536961793</DistanceMeters>
          </Trackpoint>
          <Trackpoint>
            <Time>2022-07-10T08:49:24.000Z</Time>
            <Position>
              <LatitudeDegrees>42.7637161128222942352294921875</LatitudeDegrees>
              <LongitudeDegrees>-0.19278310239315032958984375</LongitudeDegrees>
            </Position>
            <AltitudeMeters>2344</AltitudeMeters>
            <DistanceMeters>31583.636170526</DistanceMeters>
          </Trackpoint>
          <Trackpoint>
            <Time>2022-07-10T08:49:25.000Z</Time>
            <Position>
              <LatitudeDegrees>42.76371234096586704254150390625</LatitudeDegrees>
              <LongitudeDegrees>-0.192789472639560699462890625</LongitudeDegrees>
            </Position>
            <AltitudeMeters>2344.199951171875</AltitudeMeters>
            <DistanceMeters>31584.308110867</DistanceMeters>
          </Trackpoint>
          <Trackpoint>
            <Time>2022-07-10T08:49:28.000Z</Time>
            <Position>
              <LatitudeDegrees>42.7637003548443317413330078125</LatitudeDegrees>
              <LongitudeDegrees>-0.19282601773738861083984375</LongitudeDegrees>
            </Position>
            <AltitudeMeters>2344.60009765625</AltitudeMeters>
            <DistanceMeters>31587.577913691</DistanceMeters>
          </Trackpoint>
          <Trackpoint>
            <Time>2022-07-10T08:49:29.000Z</Time>
            <Position>
              <LatitudeDegrees>42.7636993490159511566162109375</LatitudeDegrees>
              <LongitudeDegrees>-0.1928459666669368743896484375</LongitudeDegrees>
            </Position>
            <AltitudeMeters>2344.800048828125</AltitudeMeters>
            <DistanceMeters>31589.212815104</DistanceMeters>
          </Trackpoint>
          <Trackpoint>
            <Time>2022-07-10T08:49:30.000Z</Time>
            <Position>
              <LatitudeDegrees>42.7637020312249660491943359375</LatitudeDegrees>
              <LongitudeDegrees>-0.19286985509097576141357421875</LongitudeDegrees>
            </Position>
            <AltitudeMeters>2345</AltitudeMeters>
            <DistanceMeters>31591.187908272</DistanceMeters>
          </Trackpoint>
          <Trackpoint>
            <Time>2022-07-10T08:49:32.000Z</Time>
            <Position>
              <LatitudeDegrees>42.76370211504399776458740234375</LatitudeDegrees>
              <LongitudeDegrees>-0.1929130218923091888427734375</LongitudeDegrees>
            </Position>
            <AltitudeMeters>2345.60009765625</AltitudeMeters>
            <DistanceMeters>31594.715435074</DistanceMeters>
          </Trackpoint>
          <Trackpoint>
            <Time>2022-07-10T08:49:33.000Z</Time>
            <Position>
              <LatitudeDegrees>42.763700187206268310546875</LatitudeDegrees>
              <LongitudeDegrees>-0.19292986951768398284912109375</LongitudeDegrees>
            </Position>
            <AltitudeMeters>2345.800048828125</AltitudeMeters>
            <DistanceMeters>31596.105556061</DistanceMeters>
          </Trackpoint>
          <Trackpoint>
            <Time>2022-07-10T08:49:34.000Z</Time>
            <Position>
              <LatitudeDegrees>42.76369742117822170257568359375</LatitudeDegrees>
              <LongitudeDegrees>-0.19294269382953643798828125</LongitudeDegrees>
            </Position>
            <AltitudeMeters>2346</AltitudeMeters>
            <DistanceMeters>31597.201457593</DistanceMeters>
          </Trackpoint>
          <Trackpoint>
            <Time>2022-07-10T08:49:35.000Z</Time>
            <Position>
              <LatitudeDegrees>42.7636946551501750946044921875</LatitudeDegrees>
              <LongitudeDegrees>-0.19295250065624713897705078125</LongitudeDegrees>
            </Position>
            <AltitudeMeters>2346.199951171875</AltitudeMeters>
            <DistanceMeters>31598.06196109</DistanceMeters>
          </Trackpoint>
          <Trackpoint>
            <Time>2022-07-10T08:49:37.000Z</Time>
            <Position>
              <LatitudeDegrees>42.76369272731244564056396484375</LatitudeDegrees>
              <LongitudeDegrees>-0.1929696835577487945556640625</LongitudeDegrees>
            </Position>
            <AltitudeMeters>2346.39990234375</AltitudeMeters>
            <DistanceMeters>31599.484190721</DistanceMeters>
          </Trackpoint>
          <Trackpoint>
            <Time>2022-07-10T08:49:40.000Z</Time>
            <Position>
              <LatitudeDegrees>42.7636745385825634002685546875</LatitudeDegrees>
              <LongitudeDegrees>-0.19300849176943302154541015625</LongitudeDegrees>
            </Position>
            <AltitudeMeters>2347.199951171875</AltitudeMeters>
            <DistanceMeters>31603.247056632</DistanceMeters>
          </Trackpoint>
          <Trackpoint>
            <Time>2022-07-10T08:49:44.000Z</Time>
            <Position>
              <LatitudeDegrees>42.7636788971722126007080078125</LatitudeDegrees>
              <LongitudeDegrees>-0.19305400550365447998046875</LongitudeDegrees>
            </Position>
            <AltitudeMeters>2348.199951171875</AltitudeMeters>
            <DistanceMeters>31606.997904416</DistanceMeters>
          </Trackpoint>
          <Trackpoint>
            <Time>2022-07-10T08:49:45.000Z</Time>
            <Position>
              <LatitudeDegrees>42.763677723705768585205078125</LatitudeDegrees>
              <LongitudeDegrees>-0.19306875765323638916015625</LongitudeDegrees>
            </Position>
            <AltitudeMeters>2348.199951171875</AltitudeMeters>
            <DistanceMeters>31608.214840132</DistanceMeters>
          </Trackpoint>
          <Trackpoint>
            <Time>2022-07-10T08:49:48.000Z</Time>
            <Position>
              <LatitudeDegrees>42.763679064810276031494140625</LatitudeDegrees>
              <LongitudeDegrees>-0.1931041292846202850341796875</LongitudeDegrees>
            </Position>
            <AltitudeMeters>2349.199951171875</AltitudeMeters>
            <DistanceMeters>31611.109647715</DistanceMeters>
          </Trackpoint>
          <Trackpoint>
            <Time>2022-07-10T08:49:49.000Z</Time>
            <Position>
              <LatitudeDegrees>42.7636773884296417236328125</LatitudeDegrees>
              <LongitudeDegrees>-0.19311167299747467041015625</LongitudeDegrees>
            </Position>
            <AltitudeMeters>2349.60009765625</AltitudeMeters>
            <DistanceMeters>31611.747106294</DistanceMeters>
          </Trackpoint>
          <Trackpoint>
            <Time>2022-07-10T08:49:50.000Z</Time>
            <Position>
              <LatitudeDegrees>42.7636755444109439849853515625</LatitudeDegrees>
              <LongitudeDegrees>-0.1931150257587432861328125</LongitudeDegrees>
            </Position>
            <AltitudeMeters>2349.60009765625</AltitudeMeters>
            <DistanceMeters>31612.076288488</DistanceMeters>
          </Trackpoint>
          <Trackpoint>
            <Time>2022-07-10T08:49:52.000Z</Time>
            <Position>
              <LatitudeDegrees>42.76366640813648700714111328125</LatitudeDegrees>
              <LongitudeDegrees>-0.193109326064586639404296875</LongitudeDegrees>
            </Position>
            <AltitudeMeters>2349.800048828125</AltitudeMeters>
            <DistanceMeters>31613.192599623</DistanceMeters>
          </Trackpoint>
          <Trackpoint>
            <Time>2022-07-10T08:49:55.000Z</Time>
            <Position>
              <LatitudeDegrees>42.7636612951755523681640625</LatitudeDegrees>
              <LongitudeDegrees>-0.193120725452899932861328125</LongitudeDegrees>
            </Position>
            <AltitudeMeters>2349.60009765625</AltitudeMeters>
            <DistanceMeters>31614.284373451</DistanceMeters>
          </Trackpoint>
          <Trackpoint>
            <Time>2022-07-10T08:50:01.000Z</Time>
            <Position>
              <LatitudeDegrees>42.76366825215518474578857421875</LatitudeDegrees>
              <LongitudeDegrees>-0.19315768964588642120361328125</LongitudeDegrees>
            </Position>
            <AltitudeMeters>2349.39990234375</AltitudeMeters>
            <DistanceMeters>31617.40292958</DistanceMeters>
          </Trackpoint>
          <Trackpoint>
            <Time>2022-07-10T08:50:03.000Z</Time>
            <Position>
              <LatitudeDegrees>42.7636693418025970458984375</LatitudeDegrees>
              <LongitudeDegrees>-0.19317596219480037689208984375</LongitudeDegrees>
            </Position>
            <AltitudeMeters>2349.39990234375</AltitudeMeters>
            <DistanceMeters>31618.899411774</DistanceMeters>
          </Trackpoint>
          <Trackpoint>
            <Time>2022-07-10T08:50:08.000Z</Time>
            <Position>
              <LatitudeDegrees>42.763636820018291473388671875</LatitudeDegrees>
              <LongitudeDegrees>-0.19319708459079265594482421875</LongitudeDegrees>
            </Position>
            <AltitudeMeters>2350.199951171875</AltitudeMeters>
            <DistanceMeters>31622.908593245</DistanceMeters>
          </Trackpoint>
          <Trackpoint>
            <Time>2022-07-10T08:50:09.000Z</Time>
            <Position>
              <LatitudeDegrees>42.76363589800894260406494140625</LatitudeDegrees>
              <LongitudeDegrees>-0.19320999272167682647705078125</LongitudeDegrees>
            </Position>
            <AltitudeMeters>2350.800048828125</AltitudeMeters>
            <DistanceMeters>31623.966765953</DistanceMeters>
          </Trackpoint>
          <Trackpoint>
            <Time>2022-07-10T08:50:12.000Z</Time>
            <Position>
              <LatitudeDegrees>42.76364184916019439697265625</LatitudeDegrees>
              <LongitudeDegrees>-0.19325240515172481536865234375</LongitudeDegrees>
            </Position>
            <AltitudeMeters>2351.800048828125</AltitudeMeters>
            <DistanceMeters>31627.494292755</DistanceMeters>
          </Trackpoint>
          <Trackpoint>
            <Time>2022-07-10T08:50:15.000Z</Time>
            <Position>
              <LatitudeDegrees>42.76362768374383449554443359375</LatitudeDegrees>
              <LongitudeDegrees>-0.193267576396465301513671875</LongitudeDegrees>
            </Position>
            <AltitudeMeters>2352.60009765625</AltitudeMeters>
            <DistanceMeters>31629.498883491</DistanceMeters>
          </Trackpoint>
          <Trackpoint>
            <Time>2022-07-10T08:50:17.000Z</Time>
            <Position>
              <LatitudeDegrees>42.7636061422526836395263671875</LatitudeDegrees>
              <LongitudeDegrees>-0.19327235408127307891845703125</LongitudeDegrees>
            </Position>
            <AltitudeMeters>2353</AltitudeMeters>
            <DistanceMeters>31631.925323237</DistanceMeters>
          </Trackpoint>
          <Trackpoint>
            <Time>2022-07-10T08:50:18.000Z</Time>
            <Position>
              <LatitudeDegrees>42.7635940723121166229248046875</LatitudeDegrees>
              <LongitudeDegrees>-0.19328107126057147979736328125</LongitudeDegrees>
            </Position>
            <AltitudeMeters>2353</AltitudeMeters>
            <DistanceMeters>31633.445750667</DistanceMeters>
          </Trackpoint>
          <Trackpoint>
            <Time>2022-07-10T08:50:19.000Z</Time>
            <Position>
              <LatitudeDegrees>42.7635860256850719451904296875</LatitudeDegrees>
              <LongitudeDegrees>-0.193287692964076995849609375</LongitudeDegrees>
            </Position>
            <AltitudeMeters>2353.199951171875</AltitudeMeters>
            <DistanceMeters>31634.486716167</DistanceMeters>
          </Trackpoint>
          <Trackpoint>
            <Time>2022-07-10T08:50:20.000Z</Time>
            <Position>
              <LatitudeDegrees>42.7635776437819004058837890625</LatitudeDegrees>
              <LongitudeDegrees>-0.19329112954437732696533203125</LongitudeDegrees>
            </Position>
            <AltitudeMeters>2353.39990234375</AltitudeMeters>
            <DistanceMeters>31635.455802309</DistanceMeters>
          </Trackpoint>
          <Trackpoint>
            <Time>2022-07-10T08:50:21.000Z</Time>
            <Position>
              <LatitudeDegrees>42.76357403956353664398193359375</LatitudeDegrees>
              <LongitudeDegrees>-0.1932985894381999969482421875</LongitudeDegrees>
            </Position>
            <AltitudeMeters>2353.60009765625</AltitudeMeters>
            <DistanceMeters>31636.185716352</DistanceMeters>
          </Trackpoint>
          <Trackpoint>
            <Time>2022-07-10T08:50:22.000Z</Time>
            <Position>
              <LatitudeDegrees>42.76357135735452175140380859375</LatitudeDegrees>
              <LongitudeDegrees>-0.193311162292957305908203125</LongitudeDegrees>
            </Position>
            <AltitudeMeters>2353.800048828125</AltitudeMeters>
            <DistanceMeters>31637.256613036</DistanceMeters>
          </Trackpoint>
          <Trackpoint>
            <Time>2022-07-10T08:50:23.000Z</Time>
            <Position>
              <LatitudeDegrees>42.76356884278357028961181640625</LatitudeDegrees>
              <LongitudeDegrees>-0.19332583062350749969482421875</LongitudeDegrees>
            </Position>
            <AltitudeMeters>2354</AltitudeMeters>
            <DistanceMeters>31638.488300027</DistanceMeters>
          </Trackpoint>
          <Trackpoint>
            <Time>2022-07-10T08:50:24.000Z</Time>
            <Position>
              <LatitudeDegrees>42.76356549002230167388916015625</LatitudeDegrees>
              <LongitudeDegrees>-0.19333471544086933135986328125</LongitudeDegrees>
            </Position>
            <AltitudeMeters>2354.199951171875</AltitudeMeters>
            <DistanceMeters>31639.305750733</DistanceMeters>
          </Trackpoint>
          <Trackpoint>
            <Time>2022-07-10T08:50:25.000Z</Time>
            <Position>
              <LatitudeDegrees>42.76356062851846218109130859375</LatitudeDegrees>
              <LongitudeDegrees>-0.193344689905643463134765625</LongitudeDegrees>
            </Position>
            <AltitudeMeters>2354.199951171875</AltitudeMeters>
            <DistanceMeters>31640.284110638</DistanceMeters>
          </Trackpoint>
          <Trackpoint>
            <Time>2022-07-10T08:50:29.000Z</Time>
            <Position>
              <LatitudeDegrees>42.76353430934250354766845703125</LatitudeDegrees>
              <LongitudeDegrees>-0.193413086235523223876953125</LongitudeDegrees>
            </Position>
            <AltitudeMeters>2355.199951171875</AltitudeMeters>
            <DistanceMeters>31646.594628613</DistanceMeters>
          </Trackpoint>
          <Trackpoint>
            <Time>2022-07-10T08:50:30.000Z</Time>
            <Position>
              <LatitudeDegrees>42.76352659799158573150634765625</LatitudeDegrees>
              <LongitudeDegrees>-0.19342725165188312530517578125</LongitudeDegrees>
            </Position>
            <AltitudeMeters>2355.39990234375</AltitudeMeters>
            <DistanceMeters>31648.035780091</DistanceMeters>
          </Trackpoint>
          <Trackpoint>
            <Time>2022-07-10T08:50:31.000Z</Time>
            <Position>
              <LatitudeDegrees>42.76352240703999996185302734375</LatitudeDegrees>
              <LongitudeDegrees>-0.19343865104019641876220703125</LongitudeDegrees>
            </Position>
            <AltitudeMeters>2355.60009765625</AltitudeMeters>
            <DistanceMeters>31649.076745591</DistanceMeters>
          </Trackpoint>
          <Trackpoint>
            <Time>2022-07-10T08:50:33.000Z</Time>
            <Position>
              <LatitudeDegrees>42.76351268403232097625732421875</LatitudeDegrees>
              <LongitudeDegrees>-0.1934583485126495361328125</LongitudeDegrees>
            </Position>
            <AltitudeMeters>2356.199951171875</AltitudeMeters>
            <DistanceMeters>31651.014917875</DistanceMeters>
          </Trackpoint>
          <Trackpoint>
            <Time>2022-07-10T08:50:34.000Z</Time>
            <Position>
              <LatitudeDegrees>42.7635095827281475067138671875</LatitudeDegrees>
              <LongitudeDegrees>-0.193464048206806182861328125</LongitudeDegrees>
            </Position>
            <AltitudeMeters>2356.39990234375</AltitudeMeters>
            <DistanceMeters>31651.600701884</DistanceMeters>
          </Trackpoint>
          <Trackpoint>
            <Time>2022-07-10T08:50:37.000Z</Time>
            <Position>
              <LatitudeDegrees>42.76350446976721286773681640625</LatitudeDegrees>
              <LongitudeDegrees>-0.1934823207557201385498046875</LongitudeDegrees>
            </Position>
            <AltitudeMeters>2356.60009765625</AltitudeMeters>
            <DistanceMeters>31653.199298654</DistanceMeters>
          </Trackpoint>
          <Trackpoint>
            <Time>2022-07-10T08:50:38.000Z</Time>
            <Position>
              <LatitudeDegrees>42.76350329630076885223388671875</LatitudeDegrees>
              <LongitudeDegrees>-0.193483494222164154052734375</LongitudeDegrees>
            </Position>
            <AltitudeMeters>2356.800048828125</AltitudeMeters>
            <DistanceMeters>31653.363889751</DistanceMeters>
          </Trackpoint>
          <Trackpoint>
            <Time>2022-07-10T08:50:40.000Z</Time>
            <Position>
              <LatitudeDegrees>42.7635097503662109375</LatitudeDegrees>
              <LongitudeDegrees>-0.19349380396306514739990234375</LongitudeDegrees>
            </Position>
            <AltitudeMeters>2357</AltitudeMeters>
            <DistanceMeters>31654.476148926</DistanceMeters>
          </Trackpoint>
          <Trackpoint>
            <Time>2022-07-10T08:50:42.000Z</Time>
            <Position>
              <LatitudeDegrees>42.76352492161095142364501953125</LatitudeDegrees>
              <LongitudeDegrees>-0.1935192011296749114990234375</LongitudeDegrees>
            </Position>
            <AltitudeMeters>2357.199951171875</AltitudeMeters>
            <DistanceMeters>31657.1521255</DistanceMeters>
          </Trackpoint>
          <Trackpoint>
            <Time>2022-07-10T08:50:43.000Z</Time>
            <Position>
              <LatitudeDegrees>42.76353414170444011688232421875</LatitudeDegrees>
              <LongitudeDegrees>-0.193533785641193389892578125</LongitudeDegrees>
            </Position>
            <AltitudeMeters>2357.39990234375</AltitudeMeters>
            <DistanceMeters>31658.72509751</DistanceMeters>
          </Trackpoint>
          <Trackpoint>
            <Time>2022-07-10T08:50:44.000Z</Time>
            <Position>
              <LatitudeDegrees>42.76354369707405567169189453125</LatitudeDegrees>
              <LongitudeDegrees>-0.1935399882495403289794921875</LongitudeDegrees>
            </Position>
            <AltitudeMeters>2357.39990234375</AltitudeMeters>
            <DistanceMeters>31659.908170563</DistanceMeters>
          </Trackpoint>
          <Trackpoint>
            <Time>2022-07-10T08:50:46.000Z</Time>
            <Position>
              <LatitudeDegrees>42.76355727575719356536865234375</LatitudeDegrees>
              <LongitudeDegrees>-0.19354619085788726806640625</LongitudeDegrees>
            </Position>
            <AltitudeMeters>2357.800048828125</AltitudeMeters>
            <DistanceMeters>31661.506767333</DistanceMeters>
          </Trackpoint>
          <Trackpoint>
            <Time>2022-07-10T08:50:48.000Z</Time>
            <Position>
              <LatitudeDegrees>42.7635685913264751434326171875</LatitudeDegrees>
              <LongitudeDegrees>-0.1935574226081371307373046875</LongitudeDegrees>
            </Position>
            <AltitudeMeters>2358.60009765625</AltitudeMeters>
            <DistanceMeters>31663.062421693</DistanceMeters>
          </Trackpoint>
          <Trackpoint>
            <Time>2022-07-10T08:50:50.000Z</Time>
            <Position>
              <LatitudeDegrees>42.76356766931712627410888671875</LatitudeDegrees>
              <LongitudeDegrees>-0.19356890581548213958740234375</LongitudeDegrees>
            </Position>
            <AltitudeMeters>2359</AltitudeMeters>
            <DistanceMeters>31664.007925563</DistanceMeters>
          </Trackpoint>
          <Trackpoint>
            <Time>2022-07-10T08:50:52.000Z</Time>
            <Position>
              <LatitudeDegrees>42.7635447867214679718017578125</LatitudeDegrees>
              <LongitudeDegrees>-0.19358642399311065673828125</LongitudeDegrees>
            </Position>
            <AltitudeMeters>2359.39990234375</AltitudeMeters>
            <DistanceMeters>31666.930672955</DistanceMeters>
          </Trackpoint>
          <Trackpoint>
            <Time>2022-07-10T08:50:53.000Z</Time>
            <Position>
              <LatitudeDegrees>42.76353447698056697845458984375</LatitudeDegrees>
              <LongitudeDegrees>-0.1935969851911067962646484375</LongitudeDegrees>
            </Position>
            <AltitudeMeters>2359.60009765625</AltitudeMeters>
            <DistanceMeters>31668.365544875</DistanceMeters>
          </Trackpoint>
          <Trackpoint>
            <Time>2022-07-10T08:50:54.000Z</Time>
            <Position>
              <LatitudeDegrees>42.76352860964834690093994140625</LatitudeDegrees>
              <LongitudeDegrees>-0.193605534732341766357421875</LongitudeDegrees>
            </Position>
            <AltitudeMeters>2359.800048828125</AltitudeMeters>
            <DistanceMeters>31669.320551536</DistanceMeters>
          </Trackpoint>
          <Trackpoint>
            <Time>2022-07-10T08:50:55.000Z</Time>
            <Position>
              <LatitudeDegrees>42.76352383196353912353515625</LatitudeDegrees>
              <LongitudeDegrees>-0.19361500628292560577392578125</LongitudeDegrees>
            </Position>
            <AltitudeMeters>2360.199951171875</AltitudeMeters>
            <DistanceMeters>31670.256456133</DistanceMeters>
          </Trackpoint>
          <Trackpoint>
            <Time>2022-07-10T08:50:56.000Z</Time>
            <Position>
              <LatitudeDegrees>42.76352089829742908477783203125</LatitudeDegrees>
              <LongitudeDegrees>-0.1936234720051288604736328125</LongitudeDegrees>
            </Position>
            <AltitudeMeters>2360.60009765625</AltitudeMeters>
            <DistanceMeters>31671.022585997</DistanceMeters>
          </Trackpoint>
          <Trackpoint>
            <Time>2022-07-10T08:50:57.000Z</Time>
            <Position>
              <LatitudeDegrees>42.7635164558887481689453125</LatitudeDegrees>
              <LongitudeDegrees>-0.19363042898476123809814453125</LongitudeDegrees>
            </Position>
            <AltitudeMeters>2360.800048828125</AltitudeMeters>
            <DistanceMeters>31671.782799712</DistanceMeters>
          </Trackpoint>
          <Trackpoint>
            <Time>2022-07-10T08:50:58.000Z</Time>
            <Position>
              <LatitudeDegrees>42.7635119296610355377197265625</LatitudeDegrees>
              <LongitudeDegrees>-0.19363914616405963897705078125</LongitudeDegrees>
            </Position>
            <AltitudeMeters>2361.199951171875</AltitudeMeters>
            <DistanceMeters>31672.653733935</DistanceMeters>
          </Trackpoint>
          <Trackpoint>
            <Time>2022-07-10T08:50:59.000Z</Time>
            <Position>
              <LatitudeDegrees>42.76350916363298892974853515625</LatitudeDegrees>
              <LongitudeDegrees>-0.19364518113434314727783203125</LongitudeDegrees>
            </Position>
            <AltitudeMeters>2361.39990234375</AltitudeMeters>
            <DistanceMeters>31673.223894221</DistanceMeters>
          </Trackpoint>
          <Trackpoint>
            <Time>2022-07-10T08:51:02.000Z</Time>
            <Position>
              <LatitudeDegrees>42.76350111700594425201416015625</LatitudeDegrees>
              <LongitudeDegrees>-0.19365456886589527130126953125</LongitudeDegrees>
            </Position>
            <AltitudeMeters>2362</AltitudeMeters>
            <DistanceMeters>31674.399309763</DistanceMeters>
          </Trackpoint>
          <Trackpoint>
            <Time>2022-07-10T08:51:05.000Z</Time>
            <Position>
              <LatitudeDegrees>42.76349592022597789764404296875</LatitudeDegrees>
              <LongitudeDegrees>-0.1936844922602176666259765625</LongitudeDegrees>
            </Position>
            <AltitudeMeters>2363.39990234375</AltitudeMeters>
            <DistanceMeters>31676.911683827</DistanceMeters>
          </Trackpoint>
          <Trackpoint>
            <Time>2022-07-10T08:51:08.000Z</Time>
            <Position>
              <LatitudeDegrees>42.763498015701770782470703125</LatitudeDegrees>
              <LongitudeDegrees>-0.19371978007256984710693359375</LongitudeDegrees>
            </Position>
            <AltitudeMeters>2364.39990234375</AltitudeMeters>
            <DistanceMeters>31679.804931286</DistanceMeters>
          </Trackpoint>
          <Trackpoint>
            <Time>2022-07-10T08:51:09.000Z</Time>
            <Position>
              <LatitudeDegrees>42.76349307037889957427978515625</LatitudeDegrees>
              <LongitudeDegrees>-0.19372849725186824798583984375</LongitudeDegrees>
            </Position>
            <AltitudeMeters>2364.60009765625</AltitudeMeters>
            <DistanceMeters>31680.706433854</DistanceMeters>
          </Trackpoint>
          <Trackpoint>
            <Time>2022-07-10T08:51:13.000Z</Time>
            <Position>
              <LatitudeDegrees>42.7634639851748943328857421875</LatitudeDegrees>
              <LongitudeDegrees>-0.19374827854335308074951171875</LongitudeDegrees>
            </Position>
            <AltitudeMeters>2365</AltitudeMeters>
            <DistanceMeters>31684.322446948</DistanceMeters>
          </Trackpoint>
          <Trackpoint>
            <Time>2022-07-10T08:51:16.000Z</Time>
            <Position>
              <LatitudeDegrees>42.76344680227339267730712890625</LatitudeDegrees>
              <LongitudeDegrees>-0.19374308176338672637939453125</LongitudeDegrees>
            </Position>
            <AltitudeMeters>2365.199951171875</AltitudeMeters>
            <DistanceMeters>31686.279166757</DistanceMeters>
          </Trackpoint>
          <Trackpoint>
            <Time>2022-07-10T08:51:18.000Z</Time>
            <Position>
              <LatitudeDegrees>42.76343322359025478363037109375</LatitudeDegrees>
              <LongitudeDegrees>-0.19375565461814403533935546875</LongitudeDegrees>
            </Position>
            <AltitudeMeters>2365.60009765625</AltitudeMeters>
            <DistanceMeters>31688.104570331</DistanceMeters>
          </Trackpoint>
          <Trackpoint>
            <Time>2022-07-10T08:51:22.000Z</Time>
            <Position>
              <LatitudeDegrees>42.76344059966504573822021484375</LatitudeDegrees>
              <LongitudeDegrees>-0.19381818361580371856689453125</LongitudeDegrees>
            </Position>
            <AltitudeMeters>2365.800048828125</AltitudeMeters>
            <DistanceMeters>31693.279819768</DistanceMeters>
          </Trackpoint>
          <Trackpoint>
            <Time>2022-07-10T08:51:26.000Z</Time>
            <Position>
              <LatitudeDegrees>42.76343406178057193756103515625</LatitudeDegrees>
              <LongitudeDegrees>-0.1938521303236484527587890625</LongitudeDegrees>
            </Position>
            <AltitudeMeters>2366.800048828125</AltitudeMeters>
            <DistanceMeters>31696.146415233</DistanceMeters>
          </Trackpoint>
          <Trackpoint>
            <Time>2022-07-10T08:51:27.000Z</Time>
            <Position>
              <LatitudeDegrees>42.76343355886638164520263671875</LatitudeDegrees>
              <LongitudeDegrees>-0.1938655413687229156494140625</LongitudeDegrees>
            </Position>
            <AltitudeMeters>2367</AltitudeMeters>
            <DistanceMeters>31697.24642898</DistanceMeters>
          </Trackpoint>
          <Trackpoint>
            <Time>2022-07-10T08:51:30.000Z</Time>
            <Position>
              <LatitudeDegrees>42.7634341455996036529541015625</LatitudeDegrees>
              <LongitudeDegrees>-0.19390024244785308837890625</LongitudeDegrees>
            </Position>
            <AltitudeMeters>2367.800048828125</AltitudeMeters>
            <DistanceMeters>31700.081348386</DistanceMeters>
          </Trackpoint>
          <Trackpoint>
            <Time>2022-07-10T08:51:32.000Z</Time>
            <Position>
              <LatitudeDegrees>42.76344479061663150787353515625</LatitudeDegrees>
              <LongitudeDegrees>-0.19392698071897029876708984375</LongitudeDegrees>
            </Position>
            <AltitudeMeters>2368.39990234375</AltitudeMeters>
            <DistanceMeters>31702.566619455</DistanceMeters>
          </Trackpoint>
          <Trackpoint>
            <Time>2022-07-10T08:51:35.000Z</Time>
            <Position>
              <LatitudeDegrees>42.76345049031078815460205078125</LatitudeDegrees>
              <LongitudeDegrees>-0.19394776783883571624755859375</LongitudeDegrees>
            </Position>
            <AltitudeMeters>2369</AltitudeMeters>
            <DistanceMeters>31704.379613615</DistanceMeters>
          </Trackpoint>
          <Trackpoint>
            <Time>2022-07-10T08:51:39.000Z</Time>
            <Position>
              <LatitudeDegrees>42.76343288831412792205810546875</LatitudeDegrees>
              <LongitudeDegrees>-0.1939902640879154205322265625</LongitudeDegrees>
            </Position>
            <AltitudeMeters>2369.800048828125</AltitudeMeters>
            <DistanceMeters>31708.366207969</DistanceMeters>
          </Trackpoint>
          <Trackpoint>
            <Time>2022-07-10T08:51:40.000Z</Time>
            <Position>
              <LatitudeDegrees>42.7634333074092864990234375</LatitudeDegrees>
              <LongitudeDegrees>-0.1940053515136241912841796875</LongitudeDegrees>
            </Position>
            <AltitudeMeters>2370</AltitudeMeters>
            <DistanceMeters>31709.601555256</DistanceMeters>
          </Trackpoint>
          <Trackpoint>
            <Time>2022-07-10T08:51:45.000Z</Time>
            <Position>
              <LatitudeDegrees>42.76343305595219135284423828125</LatitudeDegrees>
              <LongitudeDegrees>-0.19404650665819644927978515625</LongitudeDegrees>
            </Position>
            <AltitudeMeters>2370.800048828125</AltitudeMeters>
            <DistanceMeters>31712.965286188</DistanceMeters>
          </Trackpoint>
          <Trackpoint>
            <Time>2022-07-10T08:51:47.000Z</Time>
            <Position>
              <LatitudeDegrees>42.7634386718273162841796875</LatitudeDegrees>
              <LongitudeDegrees>-0.19406310282647609710693359375</LongitudeDegrees>
            </Position>
            <AltitudeMeters>2371</AltitudeMeters>
            <DistanceMeters>31714.461768382</DistanceMeters>
          </Trackpoint>
          <Trackpoint>
            <Time>2022-07-10T08:51:52.000Z</Time>
            <Position>
              <LatitudeDegrees>42.7634203992784023284912109375</LatitudeDegrees>
              <LongitudeDegrees>-0.194097049534320831298828125</LongitudeDegrees>
            </Position>
            <AltitudeMeters>2371.800048828125</AltitudeMeters>
            <DistanceMeters>31717.901157884</DistanceMeters>
          </Trackpoint>
          <Trackpoint>
            <Time>2022-07-10T08:51:54.000Z</Time>
            <Position>
              <LatitudeDegrees>42.76340983808040618896484375</LatitudeDegrees>
              <LongitudeDegrees>-0.1941176690161228179931640625</LongitudeDegrees>
            </Position>
            <AltitudeMeters>2372.199951171875</AltitudeMeters>
            <DistanceMeters>31719.954702551</DistanceMeters>
          </Trackpoint>
          <Trackpoint>
            <Time>2022-07-10T08:51:57.000Z</Time>
            <Position>
              <LatitudeDegrees>42.7633949182927608489990234375</LatitudeDegrees>
              <LongitudeDegrees>-0.19417055882513523101806640625</LongitudeDegrees>
            </Position>
            <AltitudeMeters>2372.60009765625</AltitudeMeters>
            <DistanceMeters>31724.584756706</DistanceMeters>
          </Trackpoint>
          <Trackpoint>
            <Time>2022-07-10T08:52:00.000Z</Time>
            <Position>
              <LatitudeDegrees>42.76340355165302753448486328125</LatitudeDegrees>
              <LongitudeDegrees>-0.19424490630626678466796875</LongitudeDegrees>
            </Position>
            <AltitudeMeters>2373.199951171875</AltitudeMeters>
            <DistanceMeters>31730.735121754</DistanceMeters>
          </Trackpoint>
          <Trackpoint>
            <Time>2022-07-10T08:52:04.000Z</Time>
            <Position>
              <LatitudeDegrees>42.7634143643081188201904296875</LatitudeDegrees>
              <LongitudeDegrees>-0.194314308464527130126953125</LongitudeDegrees>
            </Position>
            <AltitudeMeters>2373.60009765625</AltitudeMeters>
            <DistanceMeters>31736.532530185</DistanceMeters>
          </Trackpoint>
          <Trackpoint>
            <Time>2022-07-10T08:52:05.000Z</Time>
            <Position>
              <LatitudeDegrees>42.76341897435486316680908203125</LatitudeDegrees>
              <LongitudeDegrees>-0.194321013987064361572265625</LongitudeDegrees>
            </Position>
            <AltitudeMeters>2373.800048828125</AltitudeMeters>
            <DistanceMeters>31737.280771283</DistanceMeters>
          </Trackpoint>
          <Trackpoint>
            <Time>2022-07-10T08:52:10.000Z</Time>
            <Position>
              <LatitudeDegrees>42.763424925506114959716796875</LatitudeDegrees>
              <LongitudeDegrees>-0.19432537257671356201171875</LongitudeDegrees>
            </Position>
            <AltitudeMeters>2373.800048828125</AltitudeMeters>
            <DistanceMeters>31738.02901238</DistanceMeters>
          </Trackpoint>
          <Trackpoint>
            <Time>2022-07-10T08:52:13.000Z</Time>
            <Position>
              <LatitudeDegrees>42.76341360993683338165283203125</LatitudeDegrees>
              <LongitudeDegrees>-0.1943399570882320404052734375</LongitudeDegrees>
            </Position>
            <AltitudeMeters>2374.39990234375</AltitudeMeters>
            <DistanceMeters>31739.765688957</DistanceMeters>
          </Trackpoint>
          <Trackpoint>
            <Time>2022-07-10T08:52:14.000Z</Time>
            <Position>
              <LatitudeDegrees>42.7634073235094547271728515625</LatitudeDegrees>
              <LongitudeDegrees>-0.1943443156778812408447265625</LongitudeDegrees>
            </Position>
            <AltitudeMeters>2374.60009765625</AltitudeMeters>
            <DistanceMeters>31740.549299318</DistanceMeters>
          </Trackpoint>
          <Trackpoint>
            <Time>2022-07-10T08:52:16.000Z</Time>
            <Position>
              <LatitudeDegrees>42.763404138386249542236328125</LatitudeDegrees>
              <LongitudeDegrees>-0.1943550445139408111572265625</LongitudeDegrees>
            </Position>
            <AltitudeMeters>2374.800048828125</AltitudeMeters>
            <DistanceMeters>31741.494803188</DistanceMeters>
          </Trackpoint>
          <Trackpoint>
            <Time>2022-07-10T08:52:19.000Z</Time>
            <Position>
              <LatitudeDegrees>42.76339642703533172607421875</LatitudeDegrees>
              <LongitudeDegrees>-0.19435864873230457305908203125</LongitudeDegrees>
            </Position>
            <AltitudeMeters>2375.60009765625</AltitudeMeters>
            <DistanceMeters>31742.406267412</DistanceMeters>
          </Trackpoint>
          <Trackpoint>
            <Time>2022-07-10T08:52:22.000Z</Time>
            <Position>
              <LatitudeDegrees>42.763386704027652740478515625</LatitudeDegrees>
              <LongitudeDegrees>-0.194366611540317535400390625</LongitudeDegrees>
            </Position>
            <AltitudeMeters>2376.39990234375</AltitudeMeters>
            <DistanceMeters>31743.67051562</DistanceMeters>
          </Trackpoint>
          <Trackpoint>
            <Time>2022-07-10T08:52:23.000Z</Time>
            <Position>
              <LatitudeDegrees>42.76338997296988964080810546875</LatitudeDegrees>
              <LongitudeDegrees>-0.1943768374621868133544921875</LongitudeDegrees>
            </Position>
            <AltitudeMeters>2376.60009765625</AltitudeMeters>
            <DistanceMeters>31744.581979845</DistanceMeters>
          </Trackpoint>
          <Trackpoint>
            <Time>2022-07-10T08:52:28.000Z</Time>
            <Position>
              <LatitudeDegrees>42.76339483447372913360595703125</LatitudeDegrees>
              <LongitudeDegrees>-0.194392763078212738037109375</LongitudeDegrees>
            </Position>
            <AltitudeMeters>2377.199951171875</AltitudeMeters>
            <DistanceMeters>31745.991453795</DistanceMeters>
          </Trackpoint>
          <Trackpoint>
            <Time>2022-07-10T08:52:30.000Z</Time>
            <Position>
              <LatitudeDegrees>42.76338527910411357879638671875</LatitudeDegrees>
              <LongitudeDegrees>-0.194384716451168060302734375</LongitudeDegrees>
            </Position>
            <AltitudeMeters>2377.60009765625</AltitudeMeters>
            <DistanceMeters>31747.24133508</DistanceMeters>
          </Trackpoint>
          <Trackpoint>
            <Time>2022-07-10T08:52:32.000Z</Time>
            <Position>
              <LatitudeDegrees>42.76336566545069217681884765625</LatitudeDegrees>
              <LongitudeDegrees>-0.19437658600509166717529296875</LongitudeDegrees>
            </Position>
            <AltitudeMeters>2378.199951171875</AltitudeMeters>
            <DistanceMeters>31749.521976225</DistanceMeters>
          </Trackpoint>
          <Trackpoint>
            <Time>2022-07-10T08:52:34.000Z</Time>
            <Position>
              <LatitudeDegrees>42.7633496560156345367431640625</LatitudeDegrees>
              <LongitudeDegrees>-0.19438765011727809906005859375</LongitudeDegrees>
            </Position>
            <AltitudeMeters>2378.800048828125</AltitudeMeters>
            <DistanceMeters>31751.519798486</DistanceMeters>
          </Trackpoint>
          <Trackpoint>
            <Time>2022-07-10T08:52:37.000Z</Time>
            <Position>
              <LatitudeDegrees>42.763365246355533599853515625</LatitudeDegrees>
              <LongitudeDegrees>-0.19443676806986331939697265625</LongitudeDegrees>
            </Position>
            <AltitudeMeters>2379.199951171875</AltitudeMeters>
            <DistanceMeters>31755.892060124</DistanceMeters>
          </Trackpoint>
          <Trackpoint>
            <Time>2022-07-10T08:52:38.000Z</Time>
            <Position>
              <LatitudeDegrees>42.7633697725832462310791015625</LatitudeDegrees>
              <LongitudeDegrees>-0.1944542862474918365478515625</LongitudeDegrees>
            </Position>
            <AltitudeMeters>2379.39990234375</AltitudeMeters>
            <DistanceMeters>31757.412487554</DistanceMeters>
          </Trackpoint>
          <Trackpoint>
            <Time>2022-07-10T08:52:43.000Z</Time>
            <Position>
              <LatitudeDegrees>42.76338779367506504058837890625</LatitudeDegrees>
              <LongitudeDegrees>-0.1945102773606777191162109375</LongitudeDegrees>
            </Position>
            <AltitudeMeters>2380</AltitudeMeters>
            <DistanceMeters>31762.408399011</DistanceMeters>
          </Trackpoint>
          <Trackpoint>
            <Time>2022-07-10T08:52:49.000Z</Time>
            <Position>
              <LatitudeDegrees>42.7633955888450145721435546875</LatitudeDegrees>
              <LongitudeDegrees>-0.19454137422144412994384765625</LongitudeDegrees>
            </Position>
            <AltitudeMeters>2380.800048828125</AltitudeMeters>
            <DistanceMeters>31765.092798572</DistanceMeters>
          </Trackpoint>
          <Trackpoint>
            <Time>2022-07-10T08:52:50.000Z</Time>
            <Position>
              <LatitudeDegrees>42.76339584030210971832275390625</LatitudeDegrees>
              <LongitudeDegrees>-0.194543637335300445556640625</LongitudeDegrees>
            </Position>
            <AltitudeMeters>2381</AltitudeMeters>
            <DistanceMeters>31765.282852001</DistanceMeters>
          </Trackpoint>
          <Trackpoint>
            <Time>2022-07-10T08:52:55.000Z</Time>
            <Position>
              <LatitudeDegrees>42.7633935771882534027099609375</LatitudeDegrees>
              <LongitudeDegrees>-0.1945796795189380645751953125</LongitudeDegrees>
            </Position>
            <AltitudeMeters>2381.800048828125</AltitudeMeters>
            <DistanceMeters>31768.236333649</DistanceMeters>
          </Trackpoint>
          <Trackpoint>
            <Time>2022-07-10T08:52:56.000Z</Time>
            <Position>
              <LatitudeDegrees>42.76339181698858737945556640625</LatitudeDegrees>
              <LongitudeDegrees>-0.1945816911756992340087890625</LongitudeDegrees>
            </Position>
            <AltitudeMeters>2381.800048828125</AltitudeMeters>
            <DistanceMeters>31768.505109786</DistanceMeters>
          </Trackpoint>
          <Trackpoint>
            <Time>2022-07-10T08:52:57.000Z</Time>
            <Position>
              <LatitudeDegrees>42.7633885480463504791259765625</LatitudeDegrees>
              <LongitudeDegrees>-0.1945763267576694488525390625</LongitudeDegrees>
            </Position>
            <AltitudeMeters>2382.39990234375</AltitudeMeters>
            <DistanceMeters>31769.083134723</DistanceMeters>
          </Trackpoint>
          <Trackpoint>
            <Time>2022-07-10T08:53:02.000Z</Time>
            <Position>
              <LatitudeDegrees>42.76332895271480083465576171875</LatitudeDegrees>
              <LongitudeDegrees>-0.19456853158771991729736328125</LongitudeDegrees>
            </Position>
            <AltitudeMeters>2383.60009765625</AltitudeMeters>
            <DistanceMeters>31775.74721125</DistanceMeters>
          </Trackpoint>
          <Trackpoint>
            <Time>2022-07-10T08:53:04.000Z</Time>
            <Position>
              <LatitudeDegrees>42.76331805624067783355712890625</LatitudeDegrees>
              <LongitudeDegrees>-0.1945800147950649261474609375</LongitudeDegrees>
            </Position>
            <AltitudeMeters>2384</AltitudeMeters>
            <DistanceMeters>31777.285352995</DistanceMeters>
          </Trackpoint>
          <Trackpoint>
            <Time>2022-07-10T08:53:06.000Z</Time>
            <Position>
              <LatitudeDegrees>42.76330791413784027099609375</LatitudeDegrees>
              <LongitudeDegrees>-0.1945934258401393890380859375</LongitudeDegrees>
            </Position>
            <AltitudeMeters>2384.60009765625</AltitudeMeters>
            <DistanceMeters>31778.861192778</DistanceMeters>
          </Trackpoint>
          <Trackpoint>
            <Time>2022-07-10T08:53:07.000Z</Time>
            <Position>
              <LatitudeDegrees>42.76330514810979366302490234375</LatitudeDegrees>
              <LongitudeDegrees>-0.19460298120975494384765625</LongitudeDegrees>
            </Position>
            <AltitudeMeters>2384.60009765625</AltitudeMeters>
            <DistanceMeters>31779.700445995</DistanceMeters>
          </Trackpoint>
          <Trackpoint>
            <Time>2022-07-10T08:53:09.000Z</Time>
            <Position>
              <LatitudeDegrees>42.763302214443683624267578125</LatitudeDegrees>
              <LongitudeDegrees>-0.1946249417960643768310546875</LongitudeDegrees>
            </Position>
            <AltitudeMeters>2385</AltitudeMeters>
            <DistanceMeters>31781.523374444</DistanceMeters>
          </Trackpoint>
          <Trackpoint>
            <Time>2022-07-10T08:53:11.000Z</Time>
            <Position>
              <LatitudeDegrees>42.7633033879101276397705078125</LatitudeDegrees>
              <LongitudeDegrees>-0.19464514218270778656005859375</LongitudeDegrees>
            </Position>
            <AltitudeMeters>2385.800048828125</AltitudeMeters>
            <DistanceMeters>31783.180221824</DistanceMeters>
          </Trackpoint>
          <Trackpoint>
            <Time>2022-07-10T08:53:14.000Z</Time>
            <Position>
              <LatitudeDegrees>42.763290815055370330810546875</LatitudeDegrees>
              <LongitudeDegrees>-0.1946755684912204742431640625</LongitudeDegrees>
            </Position>
            <AltitudeMeters>2387</AltitudeMeters>
            <DistanceMeters>31786.034189054</DistanceMeters>
          </Trackpoint>
          <Trackpoint>
            <Time>2022-07-10T08:53:17.000Z</Time>
            <Position>
              <LatitudeDegrees>42.76328151114284992218017578125</LatitudeDegrees>
              <LongitudeDegrees>-0.194713287055492401123046875</LongitudeDegrees>
            </Position>
            <AltitudeMeters>2388.199951171875</AltitudeMeters>
            <DistanceMeters>31789.284602788</DistanceMeters>
          </Trackpoint>
          <Trackpoint>
            <Time>2022-07-10T08:53:20.000Z</Time>
            <Position>
              <LatitudeDegrees>42.7632844448089599609375</LatitudeDegrees>
              <LongitudeDegrees>-0.194747485220432281494140625</LongitudeDegrees>
            </Position>
            <AltitudeMeters>2388.60009765625</AltitudeMeters>
            <DistanceMeters>31792.100345517</DistanceMeters>
          </Trackpoint>
          <Trackpoint>
            <Time>2022-07-10T08:53:23.000Z</Time>
            <Position>
              <LatitudeDegrees>42.76328586973249912261962890625</LatitudeDegrees>
              <LongitudeDegrees>-0.19478143192827701568603515625</LongitudeDegrees>
            </Position>
            <AltitudeMeters>2388.800048828125</AltitudeMeters>
            <DistanceMeters>31794.878963044</DistanceMeters>
          </Trackpoint>
          <Trackpoint>
            <Time>2022-07-10T08:53:25.000Z</Time>
            <Position>
              <LatitudeDegrees>42.7632919885218143463134765625</LatitudeDegrees>
              <LongitudeDegrees>-0.19480356015264987945556640625</LongitudeDegrees>
            </Position>
            <AltitudeMeters>2389.199951171875</AltitudeMeters>
            <DistanceMeters>31796.812470646</DistanceMeters>
          </Trackpoint>
          <Trackpoint>
            <Time>2022-07-10T08:53:27.000Z</Time>
            <Position>
              <LatitudeDegrees>42.763292491436004638671875</LatitudeDegrees>
              <LongitudeDegrees>-0.19480322487652301788330078125</LongitudeDegrees>
            </Position>
            <AltitudeMeters>2389.60009765625</AltitudeMeters>
            <DistanceMeters>31796.812470646</DistanceMeters>
          </Trackpoint>
          <Trackpoint>
            <Time>2022-07-10T08:53:28.000Z</Time>
            <Position>
              <LatitudeDegrees>42.76328838430345058441162109375</LatitudeDegrees>
              <LongitudeDegrees>-0.19480414688587188720703125</LongitudeDegrees>
            </Position>
            <AltitudeMeters>2389.800048828125</AltitudeMeters>
            <DistanceMeters>31797.287604218</DistanceMeters>
          </Trackpoint>
          <Trackpoint>
            <Time>2022-07-10T08:53:29.000Z</Time>
            <Position>
              <LatitudeDegrees>42.76328134350478649139404296875</LatitudeDegrees>
              <LongitudeDegrees>-0.19480221904814243316650390625</LongitudeDegrees>
            </Position>
            <AltitudeMeters>2389.800048828125</AltitudeMeters>
            <DistanceMeters>31798.093932628</DistanceMeters>
          </Trackpoint>
          <Trackpoint>
            <Time>2022-07-10T08:53:30.000Z</Time>
            <Position>
              <LatitudeDegrees>42.76327438652515411376953125</LatitudeDegrees>
              <LongitudeDegrees>-0.1948043145239353179931640625</LongitudeDegrees>
            </Position>
            <AltitudeMeters>2390</AltitudeMeters>
            <DistanceMeters>31798.888983161</DistanceMeters>
          </Trackpoint>
          <Trackpoint>
            <Time>2022-07-10T08:53:32.000Z</Time>
            <Position>
              <LatitudeDegrees>42.76326290331780910491943359375</LatitudeDegrees>
              <LongitudeDegrees>-0.194816887378692626953125</LongitudeDegrees>
            </Position>
            <AltitudeMeters>2390.39990234375</AltitudeMeters>
            <DistanceMeters>31800.52939859</DistanceMeters>
          </Trackpoint>
          <Trackpoint>
            <Time>2022-07-10T08:53:34.000Z</Time>
            <Position>
              <LatitudeDegrees>42.76325401850044727325439453125</LatitudeDegrees>
              <LongitudeDegrees>-0.19482954405248165130615234375</LongitudeDegrees>
            </Position>
            <AltitudeMeters>2390.60009765625</AltitudeMeters>
            <DistanceMeters>31801.964270511</DistanceMeters>
          </Trackpoint>
          <Trackpoint>
            <Time>2022-07-10T08:53:37.000Z</Time>
            <Position>
              <LatitudeDegrees>42.76325426995754241943359375</LatitudeDegrees>
              <LongitudeDegrees>-0.19484396092593669891357421875</LongitudeDegrees>
            </Position>
            <AltitudeMeters>2391.39990234375</AltitudeMeters>
            <DistanceMeters>31803.143521024</DistanceMeters>
          </Trackpoint>
          <Trackpoint>
            <Time>2022-07-10T08:53:38.000Z</Time>
            <Position>
              <LatitudeDegrees>42.7632467262446880340576171875</LatitudeDegrees>
              <LongitudeDegrees>-0.19484982825815677642822265625</LongitudeDegrees>
            </Position>
            <AltitudeMeters>2391.60009765625</AltitudeMeters>
            <DistanceMeters>31804.112607166</DistanceMeters>
          </Trackpoint>
          <Trackpoint>
            <Time>2022-07-10T08:53:39.000Z</Time>
            <Position>
              <LatitudeDegrees>42.763235159218311309814453125</LatitudeDegrees>
              <LongitudeDegrees>-0.19485686905682086944580078125</LongitudeDegrees>
            </Position>
            <AltitudeMeters>2391.800048828125</AltitudeMeters>
            <DistanceMeters>31805.522081117</DistanceMeters>
          </Trackpoint>
          <Trackpoint>
            <Time>2022-07-10T08:53:43.000Z</Time>
            <Position>
              <LatitudeDegrees>42.7632061578333377838134765625</LatitudeDegrees>
              <LongitudeDegrees>-0.19490179605782032012939453125</LongitudeDegrees>
            </Position>
            <AltitudeMeters>2392.39990234375</AltitudeMeters>
            <DistanceMeters>31810.410187322</DistanceMeters>
          </Trackpoint>
          <Trackpoint>
            <Time>2022-07-10T08:53:44.000Z</Time>
            <Position>
              <LatitudeDegrees>42.763198949396610260009765625</LatitudeDegrees>
              <LongitudeDegrees>-0.1949209906160831451416015625</LongitudeDegrees>
            </Position>
            <AltitudeMeters>2392.60009765625</AltitudeMeters>
            <DistanceMeters>31812.170106701</DistanceMeters>
          </Trackpoint>
          <Trackpoint>
            <Time>2022-07-10T08:53:45.000Z</Time>
            <Position>
              <LatitudeDegrees>42.76318989694118499755859375</LatitudeDegrees>
              <LongitudeDegrees>-0.194934569299221038818359375</LongitudeDegrees>
            </Position>
            <AltitudeMeters>2392.800048828125</AltitudeMeters>
            <DistanceMeters>31813.669602961</DistanceMeters>
          </Trackpoint>
          <Trackpoint>
            <Time>2022-07-10T08:53:49.000Z</Time>
            <Position>
              <LatitudeDegrees>42.76315846480429172515869140625</LatitudeDegrees>
              <LongitudeDegrees>-0.19499969668686389923095703125</LongitudeDegrees>
            </Position>
            <AltitudeMeters>2393.800048828125</AltitudeMeters>
            <DistanceMeters>31820.038519932</DistanceMeters>
          </Trackpoint>
          <Trackpoint>
            <Time>2022-07-10T08:53:51.000Z</Time>
            <Position>
              <LatitudeDegrees>42.7631320618093013763427734375</LatitudeDegrees>
              <LongitudeDegrees>-0.19504630006849765777587890625</LongitudeDegrees>
            </Position>
            <AltitudeMeters>2394.39990234375</AltitudeMeters>
            <DistanceMeters>31824.848411391</DistanceMeters>
          </Trackpoint>
          <Trackpoint>
            <Time>2022-07-10T08:53:53.000Z</Time>
            <Position>
              <LatitudeDegrees>42.76313013397157192230224609375</LatitudeDegrees>
              <LongitudeDegrees>-0.19506574608385562896728515625</LongitudeDegrees>
            </Position>
            <AltitudeMeters>2394.39990234375</AltitudeMeters>
            <DistanceMeters>31826.455458952</DistanceMeters>
          </Trackpoint>
          <Trackpoint>
            <Time>2022-07-10T08:53:55.000Z</Time>
            <Position>
              <LatitudeDegrees>42.763133905827999114990234375</LatitudeDegrees>
              <LongitudeDegrees>-0.1950913108885288238525390625</LongitudeDegrees>
            </Position>
            <AltitudeMeters>2394.60009765625</AltitudeMeters>
            <DistanceMeters>31828.584566365</DistanceMeters>
          </Trackpoint>
          <Trackpoint>
            <Time>2022-07-10T08:53:56.000Z</Time>
            <Position>
              <LatitudeDegrees>42.763133905827999114990234375</LatitudeDegrees>
              <LongitudeDegrees>-0.19510145299136638641357421875</LongitudeDegrees>
            </Position>
            <AltitudeMeters>2394.800048828125</AltitudeMeters>
            <DistanceMeters>31829.412990055</DistanceMeters>
          </Trackpoint>
          <Trackpoint>
            <Time>2022-07-10T08:54:00.000Z</Time>
            <Position>
              <LatitudeDegrees>42.7631260268390178680419921875</LatitudeDegrees>
              <LongitudeDegrees>-0.195145122706890106201171875</LongitudeDegrees>
            </Position>
            <AltitudeMeters>2395.39990234375</AltitudeMeters>
            <DistanceMeters>31833.085990763</DistanceMeters>
          </Trackpoint>
          <Trackpoint>
            <Time>2022-07-10T08:54:01.000Z</Time>
            <Position>
              <LatitudeDegrees>42.76312694884836673736572265625</LatitudeDegrees>
              <LongitudeDegrees>-0.195154845714569091796875</LongitudeDegrees>
            </Position>
            <AltitudeMeters>2395.39990234375</AltitudeMeters>
            <DistanceMeters>31833.892319173</DistanceMeters>
          </Trackpoint>
          <Trackpoint>
            <Time>2022-07-10T08:54:04.000Z</Time>
            <Position>
              <LatitudeDegrees>42.76312175206840038299560546875</LatitudeDegrees>
              <LongitudeDegrees>-0.19516113214194774627685546875</LongitudeDegrees>
            </Position>
            <AltitudeMeters>2396</AltitudeMeters>
            <DistanceMeters>31834.66431985</DistanceMeters>
          </Trackpoint>
          <Trackpoint>
            <Time>2022-07-10T08:54:06.000Z</Time>
            <Position>
              <LatitudeDegrees>42.76312091387808322906494140625</LatitudeDegrees>
              <LongitudeDegrees>-0.19517219625413417816162109375</LongitudeDegrees>
            </Position>
            <AltitudeMeters>2396.60009765625</AltitudeMeters>
            <DistanceMeters>31835.575784075</DistanceMeters>
          </Trackpoint>
          <Trackpoint>
            <Time>2022-07-10T08:54:10.000Z</Time>
            <Position>
              <LatitudeDegrees>42.763104401528835296630859375</LatitudeDegrees>
              <LongitudeDegrees>-0.19520379602909088134765625</LongitudeDegrees>
            </Position>
            <AltitudeMeters>2397</AltitudeMeters>
            <DistanceMeters>31838.74460799</DistanceMeters>
          </Trackpoint>
          <Trackpoint>
            <Time>2022-07-10T08:54:14.000Z</Time>
            <Position>
              <LatitudeDegrees>42.76306056417524814605712890625</LatitudeDegrees>
              <LongitudeDegrees>-0.1952612958848476409912109375</LongitudeDegrees>
            </Position>
            <AltitudeMeters>2397.800048828125</AltitudeMeters>
            <DistanceMeters>31845.518886438</DistanceMeters>
          </Trackpoint>
          <Trackpoint>
            <Time>2022-07-10T08:54:15.000Z</Time>
            <Position>
              <LatitudeDegrees>42.76304597966372966766357421875</LatitudeDegrees>
              <LongitudeDegrees>-0.19527562893927097320556640625</LongitudeDegrees>
            </Position>
            <AltitudeMeters>2397.800048828125</AltitudeMeters>
            <DistanceMeters>31847.521223557</DistanceMeters>
          </Trackpoint>
          <Trackpoint>
            <Time>2022-07-10T08:54:17.000Z</Time>
            <Position>
              <LatitudeDegrees>42.76302251033484935760498046875</LatitudeDegrees>
              <LongitudeDegrees>-0.1953011937439441680908203125</LongitudeDegrees>
            </Position>
            <AltitudeMeters>2398.199951171875</AltitudeMeters>
            <DistanceMeters>31850.864759805</DistanceMeters>
          </Trackpoint>
          <Trackpoint>
            <Time>2022-07-10T08:54:19.000Z</Time>
            <Position>
              <LatitudeDegrees>42.763010524213314056396484375</LatitudeDegrees>
              <LongitudeDegrees>-0.195331536233425140380859375</LongitudeDegrees>
            </Position>
            <AltitudeMeters>2398.60009765625</AltitudeMeters>
            <DistanceMeters>31853.680502534</DistanceMeters>
          </Trackpoint>
          <Trackpoint>
            <Time>2022-07-10T08:54:24.000Z</Time>
            <Position>
              <LatitudeDegrees>42.762983031570911407470703125</LatitudeDegrees>
              <LongitudeDegrees>-0.1953949034214019775390625</LongitudeDegrees>
            </Position>
            <AltitudeMeters>2399.199951171875</AltitudeMeters>
            <DistanceMeters>31859.695025477</DistanceMeters>
          </Trackpoint>
          <Trackpoint>
            <Time>2022-07-10T08:54:25.000Z</Time>
            <Position>
              <LatitudeDegrees>42.76298043318092823028564453125</LatitudeDegrees>
              <LongitudeDegrees>-0.195403955876827239990234375</LongitudeDegrees>
            </Position>
            <AltitudeMeters>2399.199951171875</AltitudeMeters>
            <DistanceMeters>31860.484376651</DistanceMeters>
          </Trackpoint>
          <Trackpoint>
            <Time>2022-07-10T08:54:29.000Z</Time>
            <Position>
              <LatitudeDegrees>42.7629768289625644683837890625</LatitudeDegrees>
              <LongitudeDegrees>-0.1954485476016998291015625</LongitudeDegrees>
            </Position>
            <AltitudeMeters>2399.39990234375</AltitudeMeters>
            <DistanceMeters>31864.149994436</DistanceMeters>
          </Trackpoint>
          <Trackpoint>
            <Time>2022-07-10T08:54:30.000Z</Time>
            <Position>
              <LatitudeDegrees>42.76297657750546932220458984375</LatitudeDegrees>
              <LongitudeDegrees>-0.19546128809452056884765625</LongitudeDegrees>
            </Position>
            <AltitudeMeters>2399.39990234375</AltitudeMeters>
            <DistanceMeters>31865.190959936</DistanceMeters>
          </Trackpoint>
          <Trackpoint>
            <Time>2022-07-10T08:54:32.000Z</Time>
            <Position>
              <LatitudeDegrees>42.762977667152881622314453125</LatitudeDegrees>
              <LongitudeDegrees>-0.19548551179468631744384765625</LongitudeDegrees>
            </Position>
            <AltitudeMeters>2399.199951171875</AltitudeMeters>
            <DistanceMeters>31867.172899202</DistanceMeters>
          </Trackpoint>
          <Trackpoint>
            <Time>2022-07-10T08:54:35.000Z</Time>
            <Position>
              <LatitudeDegrees>42.76299719698727130889892578125</LatitudeDegrees>
              <LongitudeDegrees>-0.1955182850360870361328125</LongitudeDegrees>
            </Position>
            <AltitudeMeters>2398</AltitudeMeters>
            <DistanceMeters>31870.621465669</DistanceMeters>
          </Trackpoint>
          <Trackpoint>
            <Time>2022-07-10T08:54:37.000Z</Time>
            <Position>
              <LatitudeDegrees>42.76300557889044284820556640625</LatitudeDegrees>
              <LongitudeDegrees>-0.19553949125111103057861328125</LongitudeDegrees>
            </Position>
            <AltitudeMeters>2397.800048828125</AltitudeMeters>
            <DistanceMeters>31872.591981559</DistanceMeters>
          </Trackpoint>
          <Trackpoint>
            <Time>2022-07-10T08:54:38.000Z</Time>
            <Position>
              <LatitudeDegrees>42.76300750672817230224609375</LatitudeDegrees>
              <LongitudeDegrees>-0.19554787315428256988525390625</LongitudeDegrees>
            </Position>
            <AltitudeMeters>2397.800048828125</AltitudeMeters>
            <DistanceMeters>31873.309417519</DistanceMeters>
          </Trackpoint>
          <Trackpoint>
            <Time>2022-07-10T08:54:41.000Z</Time>
            <Position>
              <LatitudeDegrees>42.76301496662199497222900390625</LatitudeDegrees>
              <LongitudeDegrees>-0.19557720981538295745849609375</LongitudeDegrees>
            </Position>
            <AltitudeMeters>2398</AltitudeMeters>
            <DistanceMeters>31875.848605299</DistanceMeters>
          </Trackpoint>
          <Trackpoint>
            <Time>2022-07-10T08:54:43.000Z</Time>
            <Position>
              <LatitudeDegrees>42.76302368380129337310791015625</LatitudeDegrees>
              <LongitudeDegrees>-0.1956146769225597381591796875</LongitudeDegrees>
            </Position>
            <AltitudeMeters>2397.800048828125</AltitudeMeters>
            <DistanceMeters>31879.059889668</DistanceMeters>
          </Trackpoint>
          <Trackpoint>
            <Time>2022-07-10T08:54:45.000Z</Time>
            <Position>
              <LatitudeDegrees>42.7630371786653995513916015625</LatitudeDegrees>
              <LongitudeDegrees>-0.19564996473491191864013671875</LongitudeDegrees>
            </Position>
            <AltitudeMeters>2397.60009765625</AltitudeMeters>
            <DistanceMeters>31882.310303401</DistanceMeters>
          </Trackpoint>
          <Trackpoint>
            <Time>2022-07-10T08:54:46.000Z</Time>
            <Position>
              <LatitudeDegrees>42.76304748840630054473876953125</LatitudeDegrees>
              <LongitudeDegrees>-0.195669494569301605224609375</LongitudeDegrees>
            </Position>
            <AltitudeMeters>2397.60009765625</AltitudeMeters>
            <DistanceMeters>31884.276231355</DistanceMeters>
          </Trackpoint>
          <Trackpoint>
            <Time>2022-07-10T08:54:47.000Z</Time>
            <Position>
              <LatitudeDegrees>42.763056121766567230224609375</LatitudeDegrees>
              <LongitudeDegrees>-0.1956817321479320526123046875</LongitudeDegrees>
            </Position>
            <AltitudeMeters>2397.60009765625</AltitudeMeters>
            <DistanceMeters>31885.659841201</DistanceMeters>
          </Trackpoint>
          <Trackpoint>
            <Time>2022-07-10T08:54:49.000Z</Time>
            <Position>
              <LatitudeDegrees>42.76307296939194202423095703125</LatitudeDegrees>
              <LongitudeDegrees>-0.1957060396671295166015625</LongitudeDegrees>
            </Position>
            <AltitudeMeters>2397.60009765625</AltitudeMeters>
            <DistanceMeters>31888.390929472</DistanceMeters>
          </Trackpoint>
          <Trackpoint>
            <Time>2022-07-10T08:54:51.000Z</Time>
            <Position>
              <LatitudeDegrees>42.76306559331715106964111328125</LatitudeDegrees>
              <LongitudeDegrees>-0.1957212947309017181396484375</LongitudeDegrees>
            </Position>
            <AltitudeMeters>2397.39990234375</AltitudeMeters>
            <DistanceMeters>31889.881365249</DistanceMeters>
          </Trackpoint>
          <Trackpoint>
            <Time>2022-07-10T08:54:56.000Z</Time>
            <Position>
              <LatitudeDegrees>42.7630217559635639190673828125</LatitudeDegrees>
              <LongitudeDegrees>-0.19577770493924617767333984375</LongitudeDegrees>
            </Position>
            <AltitudeMeters>2397.800048828125</AltitudeMeters>
            <DistanceMeters>31896.593373248</DistanceMeters>
          </Trackpoint>
          <Trackpoint>
            <Time>2022-07-10T08:55:00.000Z</Time>
            <Position>
              <LatitudeDegrees>42.7629855461418628692626953125</LatitudeDegrees>
              <LongitudeDegrees>-0.1957823149859905242919921875</LongitudeDegrees>
            </Position>
            <AltitudeMeters>2398.60009765625</AltitudeMeters>
            <DistanceMeters>31900.640663535</DistanceMeters>
          </Trackpoint>
          <Trackpoint>
            <Time>2022-07-10T08:55:04.000Z</Time>
            <Position>
              <LatitudeDegrees>42.7629412896931171417236328125</LatitudeDegrees>
              <LongitudeDegrees>-0.1957873441278934478759765625</LongitudeDegrees>
            </Position>
            <AltitudeMeters>2398.800048828125</AltitudeMeters>
            <DistanceMeters>31905.583879781</DistanceMeters>
          </Trackpoint>
          <Trackpoint>
            <Time>2022-07-10T08:55:06.000Z</Time>
            <Position>
              <LatitudeDegrees>42.7629218436777591705322265625</LatitudeDegrees>
              <LongitudeDegrees>-0.1957967318594455718994140625</LongitudeDegrees>
            </Position>
            <AltitudeMeters>2399.39990234375</AltitudeMeters>
            <DistanceMeters>31907.880304098</DistanceMeters>
          </Trackpoint>
          <Trackpoint>
            <Time>2022-07-10T08:55:07.000Z</Time>
            <Position>
              <LatitudeDegrees>42.7629154734313488006591796875</LatitudeDegrees>
              <LongitudeDegrees>-0.19579614512622356414794921875</LongitudeDegrees>
            </Position>
            <AltitudeMeters>2399.60009765625</AltitudeMeters>
            <DistanceMeters>31908.591418914</DistanceMeters>
          </Trackpoint>
          <Trackpoint>
            <Time>2022-07-10T08:55:09.000Z</Time>
            <Position>
              <LatitudeDegrees>42.7628990449011325836181640625</LatitudeDegrees>
              <LongitudeDegrees>-0.19579145126044750213623046875</LongitudeDegrees>
            </Position>
            <AltitudeMeters>2400</AltitudeMeters>
            <DistanceMeters>31910.458397625</DistanceMeters>
          </Trackpoint>
          <Trackpoint>
            <Time>2022-07-10T08:55:11.000Z</Time>
            <Position>
              <LatitudeDegrees>42.762877754867076873779296875</LatitudeDegrees>
              <LongitudeDegrees>-0.19578047096729278564453125</LongitudeDegrees>
            </Position>
            <AltitudeMeters>2400.199951171875</AltitudeMeters>
            <DistanceMeters>31912.994026625</DistanceMeters>
          </Trackpoint>
          <Trackpoint>
            <Time>2022-07-10T08:55:12.000Z</Time>
            <Position>
              <LatitudeDegrees>42.7628646790981292724609375</LatitudeDegrees>
              <LongitudeDegrees>-0.195781476795673370361328125</LongitudeDegrees>
            </Position>
            <AltitudeMeters>2400.60009765625</AltitudeMeters>
            <DistanceMeters>31914.453854711</DistanceMeters>
          </Trackpoint>
          <Trackpoint>
            <Time>2022-07-10T08:55:13.000Z</Time>
            <Position>
              <LatitudeDegrees>42.76285252533853054046630859375</LatitudeDegrees>
              <LongitudeDegrees>-0.19578625448048114776611328125</LongitudeDegrees>
            </Position>
            <AltitudeMeters>2400.800048828125</AltitudeMeters>
            <DistanceMeters>31915.86652838</DistanceMeters>
          </Trackpoint>
          <Trackpoint>
            <Time>2022-07-10T08:55:15.000Z</Time>
            <Position>
              <LatitudeDegrees>42.76283877901732921600341796875</LatitudeDegrees>
              <LongitudeDegrees>-0.195797570049762725830078125</LongitudeDegrees>
            </Position>
            <AltitudeMeters>2401.199951171875</AltitudeMeters>
            <DistanceMeters>31917.656968867</DistanceMeters>
          </Trackpoint>
          <Trackpoint>
            <Time>2022-07-10T08:55:20.000Z</Time>
            <Position>
              <LatitudeDegrees>42.76279904879629611968994140625</LatitudeDegrees>
              <LongitudeDegrees>-0.195833779871463775634765625</LongitudeDegrees>
            </Position>
            <AltitudeMeters>2401.39990234375</AltitudeMeters>
            <DistanceMeters>31922.977616351</DistanceMeters>
          </Trackpoint>
          <Trackpoint>
            <Time>2022-07-10T08:55:22.000Z</Time>
            <Position>
              <LatitudeDegrees>42.76278354227542877197265625</LatitudeDegrees>
              <LongitudeDegrees>-0.1958527229726314544677734375</LongitudeDegrees>
            </Position>
            <AltitudeMeters>2401.800048828125</AltitudeMeters>
            <DistanceMeters>31925.295567059</DistanceMeters>
          </Trackpoint>
          <Trackpoint>
            <Time>2022-07-10T08:55:24.000Z</Time>
            <Position>
              <LatitudeDegrees>42.7627706341445446014404296875</LatitudeDegrees>
              <LongitudeDegrees>-0.19587191753089427947998046875</LongitudeDegrees>
            </Position>
            <AltitudeMeters>2402</AltitudeMeters>
            <DistanceMeters>31927.424674472</DistanceMeters>
          </Trackpoint>
          <Trackpoint>
            <Time>2022-07-10T08:55:28.000Z</Time>
            <Position>
              <LatitudeDegrees>42.762742303311824798583984375</LatitudeDegrees>
              <LongitudeDegrees>-0.19591013900935649871826171875</LongitudeDegrees>
            </Position>
            <AltitudeMeters>2402.800048828125</AltitudeMeters>
            <DistanceMeters>31931.863551222</DistanceMeters>
          </Trackpoint>
          <Trackpoint>
            <Time>2022-07-10T08:55:30.000Z</Time>
            <Position>
              <LatitudeDegrees>42.76273685507476329803466796875</LatitudeDegrees>
              <LongitudeDegrees>-0.1959388889372348785400390625</LongitudeDegrees>
            </Position>
            <AltitudeMeters>2403.199951171875</AltitudeMeters>
            <DistanceMeters>31934.289990968</DistanceMeters>
          </Trackpoint>
          <Trackpoint>
            <Time>2022-07-10T08:55:33.000Z</Time>
            <Position>
              <LatitudeDegrees>42.76272947899997234344482421875</LatitudeDegrees>
              <LongitudeDegrees>-0.19597166217863559722900390625</LongitudeDegrees>
            </Position>
            <AltitudeMeters>2403.800048828125</AltitudeMeters>
            <DistanceMeters>31937.089652796</DistanceMeters>
          </Trackpoint>
          <Trackpoint>
            <Time>2022-07-10T08:55:34.000Z</Time>
            <Position>
              <LatitudeDegrees>42.76272662915289402008056640625</LatitudeDegrees>
              <LongitudeDegrees>-0.1959781162440776824951171875</LongitudeDegrees>
            </Position>
            <AltitudeMeters>2403.800048828125</AltitudeMeters>
            <DistanceMeters>31937.705496291</DistanceMeters>
          </Trackpoint>
          <Trackpoint>
            <Time>2022-07-10T08:55:36.000Z</Time>
            <Position>
              <LatitudeDegrees>42.76271875016391277313232421875</LatitudeDegrees>
              <LongitudeDegrees>-0.1959895156323909759521484375</LongitudeDegrees>
            </Position>
            <AltitudeMeters>2403.800048828125</AltitudeMeters>
            <DistanceMeters>31938.983949981</DistanceMeters>
          </Trackpoint>
          <Trackpoint>
            <Time>2022-07-10T08:55:37.000Z</Time>
            <Position>
              <LatitudeDegrees>42.76271455921232700347900390625</LatitudeDegrees>
              <LongitudeDegrees>-0.19599563442170619964599609375</LongitudeDegrees>
            </Position>
            <AltitudeMeters>2403.60009765625</AltitudeMeters>
            <DistanceMeters>31939.655890322</DistanceMeters>
          </Trackpoint>
          <Trackpoint>
            <Time>2022-07-10T08:55:38.000Z</Time>
            <Position>
              <LatitudeDegrees>42.7627089433372020721435546875</LatitudeDegrees>
              <LongitudeDegrees>-0.1960015855729579925537109375</LongitudeDegrees>
            </Position>
            <AltitudeMeters>2403.60009765625</AltitudeMeters>
            <DistanceMeters>31940.445241495</DistanceMeters>
          </Trackpoint>
          <Trackpoint>
            <Time>2022-07-10T08:55:39.000Z</Time>
            <Position>
              <LatitudeDegrees>42.76270248927175998687744140625</LatitudeDegrees>
              <LongitudeDegrees>-0.196007788181304931640625</LongitudeDegrees>
            </Position>
            <AltitudeMeters>2403.39990234375</AltitudeMeters>
            <DistanceMeters>31941.326482991</DistanceMeters>
          </Trackpoint>
          <Trackpoint>
            <Time>2022-07-10T08:55:40.000Z</Time>
            <Position>
              <LatitudeDegrees>42.76269427500665187835693359375</LatitudeDegrees>
              <LongitudeDegrees>-0.1960160024464130401611328125</LongitudeDegrees>
            </Position>
            <AltitudeMeters>2403.39990234375</AltitudeMeters>
            <DistanceMeters>31942.458856982</DistanceMeters>
          </Trackpoint>
          <Trackpoint>
            <Time>2022-07-10T08:55:41.000Z</Time>
            <Position>
              <LatitudeDegrees>42.7626797743141651153564453125</LatitudeDegrees>
              <LongitudeDegrees>-0.19603184424340724945068359375</LongitudeDegrees>
            </Position>
            <AltitudeMeters>2403.39990234375</AltitudeMeters>
            <DistanceMeters>31944.525551482</DistanceMeters>
          </Trackpoint>
          <Trackpoint>
            <Time>2022-07-10T08:55:44.000Z</Time>
            <Position>
              <LatitudeDegrees>42.7626608312129974365234375</LatitudeDegrees>
              <LongitudeDegrees>-0.196059085428714752197265625</LongitudeDegrees>
            </Position>
            <AltitudeMeters>2403.60009765625</AltitudeMeters>
            <DistanceMeters>31947.593016177</DistanceMeters>
          </Trackpoint>
          <Trackpoint>
            <Time>2022-07-10T08:55:46.000Z</Time>
            <Position>
              <LatitudeDegrees>42.7626474201679229736328125</LatitudeDegrees>
              <LongitudeDegrees>-0.1960800401866436004638671875</LongitudeDegrees>
            </Position>
            <AltitudeMeters>2403.800048828125</AltitudeMeters>
            <DistanceMeters>31949.865724633</DistanceMeters>
          </Trackpoint>
          <Trackpoint>
            <Time>2022-07-10T08:55:50.000Z</Time>
            <Position>
              <LatitudeDegrees>42.762625627219676971435546875</LatitudeDegrees>
              <LongitudeDegrees>-0.19611868076026439666748046875</LongitudeDegrees>
            </Position>
            <AltitudeMeters>2404.39990234375</AltitudeMeters>
            <DistanceMeters>31953.847786189</DistanceMeters>
          </Trackpoint>
          <Trackpoint>
            <Time>2022-07-10T08:55:53.000Z</Time>
            <Position>
              <LatitudeDegrees>42.762614227831363677978515625</LatitudeDegrees>
              <LongitudeDegrees>-0.196160338819026947021484375</LongitudeDegrees>
            </Position>
            <AltitudeMeters>2404.800048828125</AltitudeMeters>
            <DistanceMeters>31957.481237959</DistanceMeters>
          </Trackpoint>
          <Trackpoint>
            <Time>2022-07-10T08:55:54.000Z</Time>
            <Position>
              <LatitudeDegrees>42.762603498995304107666015625</LatitudeDegrees>
              <LongitudeDegrees>-0.19617081619799137115478515625</LongitudeDegrees>
            </Position>
            <AltitudeMeters>2405</AltitudeMeters>
            <DistanceMeters>31958.950315312</DistanceMeters>
          </Trackpoint>
          <Trackpoint>
            <Time>2022-07-10T08:55:56.000Z</Time>
            <Position>
              <LatitudeDegrees>42.762582711875438690185546875</LatitudeDegrees>
              <LongitudeDegrees>-0.19618942402303218841552734375</LongitudeDegrees>
            </Position>
            <AltitudeMeters>2405.199951171875</AltitudeMeters>
            <DistanceMeters>31961.719166139</DistanceMeters>
          </Trackpoint>
          <Trackpoint>
            <Time>2022-07-10T08:55:59.000Z</Time>
            <Position>
              <LatitudeDegrees>42.7625516988337039947509765625</LatitudeDegrees>
              <LongitudeDegrees>-0.1962171681225299835205078125</LongitudeDegrees>
            </Position>
            <AltitudeMeters>2405.39990234375</AltitudeMeters>
            <DistanceMeters>31965.848183495</DistanceMeters>
          </Trackpoint>
          <Trackpoint>
            <Time>2022-07-10T08:56:01.000Z</Time>
            <Position>
              <LatitudeDegrees>42.7625218592584133148193359375</LatitudeDegrees>
              <LongitudeDegrees>-0.1962376199662685394287109375</LongitudeDegrees>
            </Position>
            <AltitudeMeters>2405.60009765625</AltitudeMeters>
            <DistanceMeters>31969.565173804</DistanceMeters>
          </Trackpoint>
          <Trackpoint>
            <Time>2022-07-10T08:56:02.000Z</Time>
            <Position>
              <LatitudeDegrees>42.76250861585140228271484375</LatitudeDegrees>
              <LongitudeDegrees>-0.1962517015635967254638671875</LongitudeDegrees>
            </Position>
            <AltitudeMeters>2405.60009765625</AltitudeMeters>
            <DistanceMeters>31971.436982999</DistanceMeters>
          </Trackpoint>
          <Trackpoint>
            <Time>2022-07-10T08:56:04.000Z</Time>
            <Position>
              <LatitudeDegrees>42.7624913491308689117431640625</LatitudeDegrees>
              <LongitudeDegrees>-0.19627139903604984283447265625</LongitudeDegrees>
            </Position>
            <AltitudeMeters>2406</AltitudeMeters>
            <DistanceMeters>31973.943959904</DistanceMeters>
          </Trackpoint>
          <Trackpoint>
            <Time>2022-07-10T08:56:08.000Z</Time>
            <Position>
              <LatitudeDegrees>42.762449942529201507568359375</LatitudeDegrees>
              <LongitudeDegrees>-0.1963100396096706390380859375</LongitudeDegrees>
            </Position>
            <AltitudeMeters>2406.60009765625</AltitudeMeters>
            <DistanceMeters>31979.530366996</DistanceMeters>
          </Trackpoint>
          <Trackpoint>
            <Time>2022-07-10T08:56:09.000Z</Time>
            <Position>
              <LatitudeDegrees>42.7624435722827911376953125</LatitudeDegrees>
              <LongitudeDegrees>-0.19631884060800075531005859375</LongitudeDegrees>
            </Position>
            <AltitudeMeters>2406.60009765625</AltitudeMeters>
            <DistanceMeters>31980.536035212</DistanceMeters>
          </Trackpoint>
          <Trackpoint>
            <Time>2022-07-10T08:56:14.000Z</Time>
            <Position>
              <LatitudeDegrees>42.76240476407110691070556640625</LatitudeDegrees>
              <LongitudeDegrees>-0.19634448923170566558837890625</LongitudeDegrees>
            </Position>
            <AltitudeMeters>2407</AltitudeMeters>
            <DistanceMeters>31985.336530508</DistanceMeters>
          </Trackpoint>
          <Trackpoint>
            <Time>2022-07-10T08:56:15.000Z</Time>
            <Position>
              <LatitudeDegrees>42.7623979747295379638671875</LatitudeDegrees>
              <LongitudeDegrees>-0.19634717144072055816650390625</LongitudeDegrees>
            </Position>
            <AltitudeMeters>2407</AltitudeMeters>
            <DistanceMeters>31986.120140869</DistanceMeters>
          </Trackpoint>
          <Trackpoint>
            <Time>2022-07-10T08:56:16.000Z</Time>
            <Position>
              <LatitudeDegrees>42.76238900609314441680908203125</LatitudeDegrees>
              <LongitudeDegrees>-0.19635220058262348175048828125</LongitudeDegrees>
            </Position>
            <AltitudeMeters>2407</AltitudeMeters>
            <DistanceMeters>31987.199436872</DistanceMeters>
          </Trackpoint>
          <Trackpoint>
            <Time>2022-07-10T08:56:17.000Z</Time>
            <Position>
              <LatitudeDegrees>42.76237978599965572357177734375</LatitudeDegrees>
              <LongitudeDegrees>-0.1963599957525730133056640625</LongitudeDegrees>
            </Position>
            <AltitudeMeters>2407.199951171875</AltitudeMeters>
            <DistanceMeters>31988.405190705</DistanceMeters>
          </Trackpoint>
          <Trackpoint>
            <Time>2022-07-10T08:56:18.000Z</Time>
            <Position>
              <LatitudeDegrees>42.762371487915515899658203125</LatitudeDegrees>
              <LongitudeDegrees>-0.196372233331203460693359375</LongitudeDegrees>
            </Position>
            <AltitudeMeters>2407.39990234375</AltitudeMeters>
            <DistanceMeters>31989.762443664</DistanceMeters>
          </Trackpoint>
          <Trackpoint>
            <Time>2022-07-10T08:56:19.000Z</Time>
            <Position>
              <LatitudeDegrees>42.76236109435558319091796875</LatitudeDegrees>
              <LongitudeDegrees>-0.19638639874756336212158203125</LongitudeDegrees>
            </Position>
            <AltitudeMeters>2407.39990234375</AltitudeMeters>
            <DistanceMeters>31991.397345076</DistanceMeters>
          </Trackpoint>
          <Trackpoint>
            <Time>2022-07-10T08:56:20.000Z</Time>
            <Position>
              <LatitudeDegrees>42.7623508684337139129638671875</LatitudeDegrees>
              <LongitudeDegrees>-0.196399390697479248046875</LongitudeDegrees>
            </Position>
            <AltitudeMeters>2407.39990234375</AltitudeMeters>
            <DistanceMeters>31992.955899074</DistanceMeters>
          </Trackpoint>
          <Trackpoint>
            <Time>2022-07-10T08:56:24.000Z</Time>
            <Position>
              <LatitudeDegrees>42.762309126555919647216796875</LatitudeDegrees>
              <LongitudeDegrees>-0.19643249921500682830810546875</LongitudeDegrees>
            </Position>
            <AltitudeMeters>2407.199951171875</AltitudeMeters>
            <DistanceMeters>31998.332261664</DistanceMeters>
          </Trackpoint>
          <Trackpoint>
            <Time>2022-07-10T08:56:25.000Z</Time>
            <Position>
              <LatitudeDegrees>42.76230149902403354644775390625</LatitudeDegrees>
              <LongitudeDegrees>-0.196438618004322052001953125</LongitudeDegrees>
            </Position>
            <AltitudeMeters>2407.199951171875</AltitudeMeters>
            <DistanceMeters>31999.310621569</DistanceMeters>
          </Trackpoint>
          <Trackpoint>
            <Time>2022-07-10T08:56:29.000Z</Time>
            <Position>
              <LatitudeDegrees>42.76227115653455257415771484375</LatitudeDegrees>
              <LongitudeDegrees>-0.1964733190834522247314453125</LongitudeDegrees>
            </Position>
            <AltitudeMeters>2406.60009765625</AltitudeMeters>
            <DistanceMeters>32003.718877971</DistanceMeters>
          </Trackpoint>
          <Trackpoint>
            <Time>2022-07-10T08:56:32.000Z</Time>
            <Position>
              <LatitudeDegrees>42.76224710047245025634765625</LatitudeDegrees>
              <LongitudeDegrees>-0.196484215557575225830078125</LongitudeDegrees>
            </Position>
            <AltitudeMeters>2406.60009765625</AltitudeMeters>
            <DistanceMeters>32006.541027404</DistanceMeters>
          </Trackpoint>
          <Trackpoint>
            <Time>2022-07-10T08:56:35.000Z</Time>
            <Position>
              <LatitudeDegrees>42.7622164227068424224853515625</LatitudeDegrees>
              <LongitudeDegrees>-0.1964900828897953033447265625</LongitudeDegrees>
            </Position>
            <AltitudeMeters>2406.800048828125</AltitudeMeters>
            <DistanceMeters>32009.988284372</DistanceMeters>
          </Trackpoint>
          <Trackpoint>
            <Time>2022-07-10T08:56:41.000Z</Time>
            <Position>
              <LatitudeDegrees>42.76215330697596073150634765625</LatitudeDegrees>
              <LongitudeDegrees>-0.19646518863737583160400390625</LongitudeDegrees>
            </Position>
            <AltitudeMeters>2408.199951171875</AltitudeMeters>
            <DistanceMeters>32017.301020706</DistanceMeters>
          </Trackpoint>
          <Trackpoint>
            <Time>2022-07-10T08:56:42.000Z</Time>
            <Position>
              <LatitudeDegrees>42.76214609853923320770263671875</LatitudeDegrees>
              <LongitudeDegrees>-0.19645814783871173858642578125</LongitudeDegrees>
            </Position>
            <AltitudeMeters>2408.199951171875</AltitudeMeters>
            <DistanceMeters>32018.28856729</DistanceMeters>
          </Trackpoint>
          <Trackpoint>
            <Time>2022-07-10T08:56:45.000Z</Time>
            <Position>
              <LatitudeDegrees>42.76212640106678009033203125</LatitudeDegrees>
              <LongitudeDegrees>-0.196443311870098114013671875</LongitudeDegrees>
            </Position>
            <AltitudeMeters>2408.800048828125</AltitudeMeters>
            <DistanceMeters>32020.791939626</DistanceMeters>
          </Trackpoint>
          <Trackpoint>
            <Time>2022-07-10T08:56:47.000Z</Time>
            <Position>
              <LatitudeDegrees>42.7621104754507541656494140625</LatitudeDegrees>
              <LongitudeDegrees>-0.1964448206126689910888671875</LongitudeDegrees>
            </Position>
            <AltitudeMeters>2409.39990234375</AltitudeMeters>
            <DistanceMeters>32022.569726665</DistanceMeters>
          </Trackpoint>
          <Trackpoint>
            <Time>2022-07-10T08:56:48.000Z</Time>
            <Position>
              <LatitudeDegrees>42.76209848932921886444091796875</LatitudeDegrees>
              <LongitudeDegrees>-0.19644523970782756805419921875</LongitudeDegrees>
            </Position>
            <AltitudeMeters>2409.60009765625</AltitudeMeters>
            <DistanceMeters>32023.906871061</DistanceMeters>
          </Trackpoint>
          <Trackpoint>
            <Time>2022-07-10T08:56:49.000Z</Time>
            <Position>
              <LatitudeDegrees>42.76208482682704925537109375</LatitudeDegrees>
              <LongitudeDegrees>-0.1964458264410495758056640625</LongitudeDegrees>
            </Position>
            <AltitudeMeters>2409.60009765625</AltitudeMeters>
            <DistanceMeters>32025.427298491</DistanceMeters>
          </Trackpoint>
          <Trackpoint>
            <Time>2022-07-10T08:56:53.000Z</Time>
            <Position>
              <LatitudeDegrees>42.76206077076494693756103515625</LatitudeDegrees>
              <LongitudeDegrees>-0.19645965658128261566162109375</LongitudeDegrees>
            </Position>
            <AltitudeMeters>2410.39990234375</AltitudeMeters>
            <DistanceMeters>32028.33144921</DistanceMeters>
          </Trackpoint>
          <Trackpoint>
            <Time>2022-07-10T08:56:59.000Z</Time>
            <Position>
              <LatitudeDegrees>42.7620149217545986175537109375</LatitudeDegrees>
              <LongitudeDegrees>-0.19652268849313259124755859375</LongitudeDegrees>
            </Position>
            <AltitudeMeters>2411.39990234375</AltitudeMeters>
            <DistanceMeters>32035.582180556</DistanceMeters>
          </Trackpoint>
          <Trackpoint>
            <Time>2022-07-10T08:57:00.000Z</Time>
            <Position>
              <LatitudeDegrees>42.76200444437563419342041015625</LatitudeDegrees>
              <LongitudeDegrees>-0.19653073512017726898193359375</LongitudeDegrees>
            </Position>
            <AltitudeMeters>2411.39990234375</AltitudeMeters>
            <DistanceMeters>32036.922697327</DistanceMeters>
          </Trackpoint>
          <Trackpoint>
            <Time>2022-07-10T08:57:01.000Z</Time>
            <Position>
              <LatitudeDegrees>42.76199363172054290771484375</LatitudeDegrees>
              <LongitudeDegrees>-0.19653693772852420806884765625</LongitudeDegrees>
            </Position>
            <AltitudeMeters>2411.60009765625</AltitudeMeters>
            <DistanceMeters>32038.232550191</DistanceMeters>
          </Trackpoint>
          <Trackpoint>
            <Time>2022-07-10T08:57:06.000Z</Time>
            <Position>
              <LatitudeDegrees>42.76195130310952663421630859375</LatitudeDegrees>
              <LongitudeDegrees>-0.1965723931789398193359375</LongitudeDegrees>
            </Position>
            <AltitudeMeters>2412</AltitudeMeters>
            <DistanceMeters>32043.763725382</DistanceMeters>
          </Trackpoint>
          <Trackpoint>
            <Time>2022-07-10T08:57:08.000Z</Time>
            <Position>
              <LatitudeDegrees>42.7619435079395771026611328125</LatitudeDegrees>
              <LongitudeDegrees>-0.1966124586760997772216796875</LongitudeDegrees>
            </Position>
            <AltitudeMeters>2412</AltitudeMeters>
            <DistanceMeters>32047.150198043</DistanceMeters>
          </Trackpoint>
          <Trackpoint>
            <Time>2022-07-10T08:57:10.000Z</Time>
            <Position>
              <LatitudeDegrees>42.7619351260364055633544921875</LatitudeDegrees>
              <LongitudeDegrees>-0.19663919694721698760986328125</LongitudeDegrees>
            </Position>
            <AltitudeMeters>2411.800048828125</AltitudeMeters>
            <DistanceMeters>32049.527765677</DistanceMeters>
          </Trackpoint>
          <Trackpoint>
            <Time>2022-07-10T08:57:13.000Z</Time>
            <Position>
              <LatitudeDegrees>42.76193328201770782470703125</LatitudeDegrees>
              <LongitudeDegrees>-0.19668512977659702301025390625</LongitudeDegrees>
            </Position>
            <AltitudeMeters>2411.800048828125</AltitudeMeters>
            <DistanceMeters>32053.288231035</DistanceMeters>
          </Trackpoint>
          <Trackpoint>
            <Time>2022-07-10T08:57:14.000Z</Time>
            <Position>
              <LatitudeDegrees>42.76193101890385150909423828125</LatitudeDegrees>
              <LongitudeDegrees>-0.19669887609779834747314453125</LongitudeDegrees>
            </Position>
            <AltitudeMeters>2411.800048828125</AltitudeMeters>
            <DistanceMeters>32054.44428091</DistanceMeters>
          </Trackpoint>
          <Trackpoint>
            <Time>2022-07-10T08:57:17.000Z</Time>
            <Position>
              <LatitudeDegrees>42.761920876801013946533203125</LatitudeDegrees>
              <LongitudeDegrees>-0.19672636874020099639892578125</LongitudeDegrees>
            </Position>
            <AltitudeMeters>2412</AltitudeMeters>
            <DistanceMeters>32056.958451451</DistanceMeters>
          </Trackpoint>
          <Trackpoint>
            <Time>2022-07-10T08:57:19.000Z</Time>
            <Position>
              <LatitudeDegrees>42.76191609911620616912841796875</LatitudeDegrees>
              <LongitudeDegrees>-0.1967170648276805877685546875</LongitudeDegrees>
            </Position>
            <AltitudeMeters>2412.199951171875</AltitudeMeters>
            <DistanceMeters>32057.884657293</DistanceMeters>
          </Trackpoint>
          <Trackpoint>
            <Time>2022-07-10T08:57:21.000Z</Time>
            <Position>
              <LatitudeDegrees>42.7619005925953388214111328125</LatitudeDegrees>
              <LongitudeDegrees>-0.19669502042233943939208984375</LongitudeDegrees>
            </Position>
            <AltitudeMeters>2411.800048828125</AltitudeMeters>
            <DistanceMeters>32060.380804875</DistanceMeters>
          </Trackpoint>
          <Trackpoint>
            <Time>2022-07-10T08:57:26.000Z</Time>
            <Position>
              <LatitudeDegrees>42.7618523128330707550048828125</LatitudeDegrees>
              <LongitudeDegrees>-0.19667892716825008392333984375</LongitudeDegrees>
            </Position>
            <AltitudeMeters>2411.39990234375</AltitudeMeters>
            <DistanceMeters>32065.911980065</DistanceMeters>
          </Trackpoint>
          <Trackpoint>
            <Time>2022-07-10T08:57:30.000Z</Time>
            <Position>
              <LatitudeDegrees>42.76180746965110301971435546875</LatitudeDegrees>
              <LongitudeDegrees>-0.19670356996357440948486328125</LongitudeDegrees>
            </Position>
            <AltitudeMeters>2411.60009765625</AltitudeMeters>
            <DistanceMeters>32071.294218004</DistanceMeters>
          </Trackpoint>
          <Trackpoint>
            <Time>2022-07-10T08:57:33.000Z</Time>
            <Position>
              <LatitudeDegrees>42.76178617961704730987548828125</LatitudeDegrees>
              <LongitudeDegrees>-0.19672938622534275054931640625</LongitudeDegrees>
            </Position>
            <AltitudeMeters>2411.60009765625</AltitudeMeters>
            <DistanceMeters>32074.465890301</DistanceMeters>
          </Trackpoint>
          <Trackpoint>
            <Time>2022-07-10T08:57:37.000Z</Time>
            <Position>
              <LatitudeDegrees>42.761754579842090606689453125</LatitudeDegrees>
              <LongitudeDegrees>-0.19675537012517452239990234375</LongitudeDegrees>
            </Position>
            <AltitudeMeters>2410.60009765625</AltitudeMeters>
            <DistanceMeters>32078.574078816</DistanceMeters>
          </Trackpoint>
          <Trackpoint>
            <Time>2022-07-10T08:57:38.000Z</Time>
            <Position>
              <LatitudeDegrees>42.76175566948950290679931640625</LatitudeDegrees>
              <LongitudeDegrees>-0.1967650093138217926025390625</LongitudeDegrees>
            </Position>
            <AltitudeMeters>2410.60009765625</AltitudeMeters>
            <DistanceMeters>32079.363429989</DistanceMeters>
          </Trackpoint>
          <Trackpoint>
            <Time>2022-07-10T08:57:39.000Z</Time>
            <Position>
              <LatitudeDegrees>42.76175835169851779937744140625</LatitudeDegrees>
              <LongitudeDegrees>-0.19677154719829559326171875</LongitudeDegrees>
            </Position>
            <AltitudeMeters>2410.39990234375</AltitudeMeters>
            <DistanceMeters>32079.979273485</DistanceMeters>
          </Trackpoint>
          <Trackpoint>
            <Time>2022-07-10T08:57:45.000Z</Time>
            <Position>
              <LatitudeDegrees>42.76172281242907047271728515625</LatitudeDegrees>
              <LongitudeDegrees>-0.196818150579929351806640625</LongitudeDegrees>
            </Position>
            <AltitudeMeters>2410</AltitudeMeters>
            <DistanceMeters>32085.471127026</DistanceMeters>
          </Trackpoint>
          <Trackpoint>
            <Time>2022-07-10T08:57:47.000Z</Time>
            <Position>
              <LatitudeDegrees>42.76171091012656688690185546875</LatitudeDegrees>
              <LongitudeDegrees>-0.19680532626807689666748046875</LongitudeDegrees>
            </Position>
            <AltitudeMeters>2409.60009765625</AltitudeMeters>
            <DistanceMeters>32087.160358851</DistanceMeters>
          </Trackpoint>
          <Trackpoint>
            <Time>2022-07-10T08:57:49.000Z</Time>
            <Position>
              <LatitudeDegrees>42.76169682852923870086669921875</LatitudeDegrees>
              <LongitudeDegrees>-0.196791999042034149169921875</LongitudeDegrees>
            </Position>
            <AltitudeMeters>2409.60009765625</AltitudeMeters>
            <DistanceMeters>32089.070372171</DistanceMeters>
          </Trackpoint>
          <Trackpoint>
            <Time>2022-07-10T08:57:50.000Z</Time>
            <Position>
              <LatitudeDegrees>42.76168911717832088470458984375</LatitudeDegrees>
              <LongitudeDegrees>-0.1967842876911163330078125</LongitudeDegrees>
            </Position>
            <AltitudeMeters>2409.39990234375</AltitudeMeters>
            <DistanceMeters>32090.132803136</DistanceMeters>
          </Trackpoint>
          <Trackpoint>
            <Time>2022-07-10T08:57:51.000Z</Time>
            <Position>
              <LatitudeDegrees>42.7616796456277370452880859375</LatitudeDegrees>
              <LongitudeDegrees>-0.1967789232730865478515625</LongitudeDegrees>
            </Position>
            <AltitudeMeters>2409.39990234375</AltitudeMeters>
            <DistanceMeters>32091.269157364</DistanceMeters>
          </Trackpoint>
          <Trackpoint>
            <Time>2022-07-10T08:57:54.000Z</Time>
            <Position>
              <LatitudeDegrees>42.76164100505411624908447265625</LatitudeDegrees>
              <LongitudeDegrees>-0.1967750675976276397705078125</LongitudeDegrees>
            </Position>
            <AltitudeMeters>2409.39990234375</AltitudeMeters>
            <DistanceMeters>32095.582156028</DistanceMeters>
          </Trackpoint>
          <Trackpoint>
            <Time>2022-07-10T08:57:56.000Z</Time>
            <Position>
              <LatitudeDegrees>42.76162088848650455474853515625</LatitudeDegrees>
              <LongitudeDegrees>-0.19677783362567424774169921875</LongitudeDegrees>
            </Position>
            <AltitudeMeters>2409.39990234375</AltitudeMeters>
            <DistanceMeters>32097.832905433</DistanceMeters>
          </Trackpoint>
          <Trackpoint>
            <Time>2022-07-10T08:57:57.000Z</Time>
            <Position>
              <LatitudeDegrees>42.76161300949752330780029296875</LatitudeDegrees>
              <LongitudeDegrees>-0.19677481614053249359130859375</LongitudeDegrees>
            </Position>
            <AltitudeMeters>2409.199951171875</AltitudeMeters>
            <DistanceMeters>32098.734408001</DistanceMeters>
          </Trackpoint>
          <Trackpoint>
            <Time>2022-07-10T08:58:02.000Z</Time>
            <Position>
              <LatitudeDegrees>42.76157378219068050384521484375</LatitudeDegrees>
              <LongitudeDegrees>-0.196771211922168731689453125</LongitudeDegrees>
            </Position>
            <AltitudeMeters>2408.199951171875</AltitudeMeters>
            <DistanceMeters>32103.111829869</DistanceMeters>
          </Trackpoint>
          <Trackpoint>
            <Time>2022-07-10T08:58:04.000Z</Time>
            <Position>
              <LatitudeDegrees>42.76155835948884487152099609375</LatitudeDegrees>
              <LongitudeDegrees>-0.19676961936056613922119140625</LongitudeDegrees>
            </Position>
            <AltitudeMeters>2408</AltitudeMeters>
            <DistanceMeters>32104.835458353</DistanceMeters>
          </Trackpoint>
          <Trackpoint>
            <Time>2022-07-10T08:58:08.000Z</Time>
            <Position>
              <LatitudeDegrees>42.7615146897733211517333984375</LatitudeDegrees>
              <LongitudeDegrees>-0.19679023884236812591552734375</LongitudeDegrees>
            </Position>
            <AltitudeMeters>2407.60009765625</AltitudeMeters>
            <DistanceMeters>32109.980082154</DistanceMeters>
          </Trackpoint>
          <Trackpoint>
            <Time>2022-07-10T08:58:11.000Z</Time>
            <Position>
              <LatitudeDegrees>42.76149281300604343414306640625</LatitudeDegrees>
              <LongitudeDegrees>-0.19681219942867755889892578125</LongitudeDegrees>
            </Position>
            <AltitudeMeters>2407.199951171875</AltitudeMeters>
            <DistanceMeters>32113.006052662</DistanceMeters>
          </Trackpoint>
          <Trackpoint>
            <Time>2022-07-10T08:58:12.000Z</Time>
            <Position>
              <LatitudeDegrees>42.76148426346480846405029296875</LatitudeDegrees>
              <LongitudeDegrees>-0.1968191564083099365234375</LongitudeDegrees>
            </Position>
            <AltitudeMeters>2407.199951171875</AltitudeMeters>
            <DistanceMeters>32114.118311837</DistanceMeters>
          </Trackpoint>
          <Trackpoint>
            <Time>2022-07-10T08:58:13.000Z</Time>
            <Position>
              <LatitudeDegrees>42.761473618447780609130859375</LatitudeDegrees>
              <LongitudeDegrees>-0.1968293823301792144775390625</LongitudeDegrees>
            </Position>
            <AltitudeMeters>2407</AltitudeMeters>
            <DistanceMeters>32115.565715629</DistanceMeters>
          </Trackpoint>
          <Trackpoint>
            <Time>2022-07-10T08:58:16.000Z</Time>
            <Position>
              <LatitudeDegrees>42.761449478566646575927734375</LatitudeDegrees>
              <LongitudeDegrees>-0.196853689849376678466796875</LongitudeDegrees>
            </Position>
            <AltitudeMeters>2406.60009765625</AltitudeMeters>
            <DistanceMeters>32118.906550028</DistanceMeters>
          </Trackpoint>
          <Trackpoint>
            <Time>2022-07-10T08:58:20.000Z</Time>
            <Position>
              <LatitudeDegrees>42.7614055573940277099609375</LatitudeDegrees>
              <LongitudeDegrees>-0.19687606953084468841552734375</LongitudeDegrees>
            </Position>
            <AltitudeMeters>2406.199951171875</AltitudeMeters>
            <DistanceMeters>32124.125238614</DistanceMeters>
          </Trackpoint>
          <Trackpoint>
            <Time>2022-07-10T08:58:22.000Z</Time>
            <Position>
              <LatitudeDegrees>42.761388458311557769775390625</LatitudeDegrees>
              <LongitudeDegrees>-0.19688688218593597412109375</LongitudeDegrees>
            </Position>
            <AltitudeMeters>2406.199951171875</AltitudeMeters>
            <DistanceMeters>32126.224447347</DistanceMeters>
          </Trackpoint>
          <Trackpoint>
            <Time>2022-07-10T08:58:26.000Z</Time>
            <Position>
              <LatitudeDegrees>42.7613490633666515350341796875</LatitudeDegrees>
              <LongitudeDegrees>-0.1968997903168201446533203125</LongitudeDegrees>
            </Position>
            <AltitudeMeters>2405.60009765625</AltitudeMeters>
            <DistanceMeters>32130.73396308</DistanceMeters>
          </Trackpoint>
          <Trackpoint>
            <Time>2022-07-10T08:58:27.000Z</Time>
            <Position>
              <LatitudeDegrees>42.7613386698067188262939453125</LatitudeDegrees>
              <LongitudeDegrees>-0.1968967728316783905029296875</LongitudeDegrees>
            </Position>
            <AltitudeMeters>2405</AltitudeMeters>
            <DistanceMeters>32131.913213593</DistanceMeters>
          </Trackpoint>
          <Trackpoint>
            <Time>2022-07-10T08:58:28.000Z</Time>
            <Position>
              <LatitudeDegrees>42.76132836006581783294677734375</LatitudeDegrees>
              <LongitudeDegrees>-0.19689216278493404388427734375</LongitudeDegrees>
            </Position>
            <AltitudeMeters>2404.800048828125</AltitudeMeters>
            <DistanceMeters>32133.122706208</DistanceMeters>
          </Trackpoint>
          <Trackpoint>
            <Time>2022-07-10T08:58:32.000Z</Time>
            <Position>
              <LatitudeDegrees>42.7612823434174060821533203125</LatitudeDegrees>
              <LongitudeDegrees>-0.1969103515148162841796875</LongitudeDegrees>
            </Position>
            <AltitudeMeters>2404.60009765625</AltitudeMeters>
            <DistanceMeters>32138.456067324</DistanceMeters>
          </Trackpoint>
          <Trackpoint>
            <Time>2022-07-10T08:58:33.000Z</Time>
            <Position>
              <LatitudeDegrees>42.76126884855329990386962890625</LatitudeDegrees>
              <LongitudeDegrees>-0.196926109492778778076171875</LongitudeDegrees>
            </Position>
            <AltitudeMeters>2404</AltitudeMeters>
            <DistanceMeters>32140.435727188</DistanceMeters>
          </Trackpoint>
          <Trackpoint>
            <Time>2022-07-10T08:58:39.000Z</Time>
            <Position>
              <LatitudeDegrees>42.7612622268497943878173828125</LatitudeDegrees>
              <LongitudeDegrees>-0.19701068289577960968017578125</LongitudeDegrees>
            </Position>
            <AltitudeMeters>2403.39990234375</AltitudeMeters>
            <DistanceMeters>32147.386332124</DistanceMeters>
          </Trackpoint>
          <Trackpoint>
            <Time>2022-07-10T08:58:40.000Z</Time>
            <Position>
              <LatitudeDegrees>42.76126750744879245758056640625</LatitudeDegrees>
              <LongitudeDegrees>-0.197021998465061187744140625</LongitudeDegrees>
            </Position>
            <AltitudeMeters>2403.199951171875</AltitudeMeters>
            <DistanceMeters>32148.486345871</DistanceMeters>
          </Trackpoint>
          <Trackpoint>
            <Time>2022-07-10T08:58:44.000Z</Time>
            <Position>
              <LatitudeDegrees>42.761272452771663665771484375</LatitudeDegrees>
              <LongitudeDegrees>-0.19707597792148590087890625</LongitudeDegrees>
            </Position>
            <AltitudeMeters>2403</AltitudeMeters>
            <DistanceMeters>32152.933352438</DistanceMeters>
          </Trackpoint>
          <Trackpoint>
            <Time>2022-07-10T08:58:46.000Z</Time>
            <Position>
              <LatitudeDegrees>42.7612521685659885406494140625</LatitudeDegrees>
              <LongitudeDegrees>-0.19710422493517398834228515625</LongitudeDegrees>
            </Position>
            <AltitudeMeters>2403</AltitudeMeters>
            <DistanceMeters>32156.161464614</DistanceMeters>
          </Trackpoint>
          <Trackpoint>
            <Time>2022-07-10T08:58:47.000Z</Time>
            <Position>
              <LatitudeDegrees>42.76124604977667331695556640625</LatitudeDegrees>
              <LongitudeDegrees>-0.1971183903515338897705078125</LongitudeDegrees>
            </Position>
            <AltitudeMeters>2403</AltitudeMeters>
            <DistanceMeters>32157.49860901</DistanceMeters>
          </Trackpoint>
          <Trackpoint>
            <Time>2022-07-10T08:58:48.000Z</Time>
            <Position>
              <LatitudeDegrees>42.7612390927970409393310546875</LatitudeDegrees>
              <LongitudeDegrees>-0.197137333452701568603515625</LongitudeDegrees>
            </Position>
            <AltitudeMeters>2403</AltitudeMeters>
            <DistanceMeters>32159.224855002</DistanceMeters>
          </Trackpoint>
          <Trackpoint>
            <Time>2022-07-10T08:58:53.000Z</Time>
            <Position>
              <LatitudeDegrees>42.761216461658477783203125</LatitudeDegrees>
              <LongitudeDegrees>-0.19718460738658905029296875</LongitudeDegrees>
            </Position>
            <AltitudeMeters>2402.60009765625</AltitudeMeters>
            <DistanceMeters>32163.837322899</DistanceMeters>
          </Trackpoint>
          <Trackpoint>
            <Time>2022-07-10T08:58:54.000Z</Time>
            <Position>
              <LatitudeDegrees>42.76121185161173343658447265625</LatitudeDegrees>
              <LongitudeDegrees>-0.19719961099326610565185546875</LongitudeDegrees>
            </Position>
            <AltitudeMeters>2402.60009765625</AltitudeMeters>
            <DistanceMeters>32165.167696901</DistanceMeters>
          </Trackpoint>
          <Trackpoint>
            <Time>2022-07-10T08:58:57.000Z</Time>
            <Position>
              <LatitudeDegrees>42.7612025476992130279541015625</LatitudeDegrees>
              <LongitudeDegrees>-0.1972551830112934112548828125</LongitudeDegrees>
            </Position>
            <AltitudeMeters>2402.60009765625</AltitudeMeters>
            <DistanceMeters>32169.824975464</DistanceMeters>
          </Trackpoint>
          <Trackpoint>
            <Time>2022-07-10T08:59:01.000Z</Time>
            <Position>
              <LatitudeDegrees>42.76119207032024860382080078125</LatitudeDegrees>
              <LongitudeDegrees>-0.19731075502932071685791015625</LongitudeDegrees>
            </Position>
            <AltitudeMeters>2402.60009765625</AltitudeMeters>
            <DistanceMeters>32174.515099793</DistanceMeters>
          </Trackpoint>
          <Trackpoint>
            <Time>2022-07-10T08:59:04.000Z</Time>
            <Position>
              <LatitudeDegrees>42.761160470545291900634765625</LatitudeDegrees>
              <LongitudeDegrees>-0.1973292790353298187255859375</LongitudeDegrees>
            </Position>
            <AltitudeMeters>2402.60009765625</AltitudeMeters>
            <DistanceMeters>32178.344570271</DistanceMeters>
          </Trackpoint>
          <Trackpoint>
            <Time>2022-07-10T08:59:07.000Z</Time>
            <Position>
              <LatitudeDegrees>42.761125266551971435546875</LatitudeDegrees>
              <LongitudeDegrees>-0.197350569069385528564453125</LongitudeDegrees>
            </Position>
            <AltitudeMeters>2403</AltitudeMeters>
            <DistanceMeters>32182.630264554</DistanceMeters>
          </Trackpoint>
          <Trackpoint>
            <Time>2022-07-10T08:59:08.000Z</Time>
            <Position>
              <LatitudeDegrees>42.76111579500138759613037109375</LatitudeDegrees>
              <LongitudeDegrees>-0.1973594538867473602294921875</LongitudeDegrees>
            </Position>
            <AltitudeMeters>2403</AltitudeMeters>
            <DistanceMeters>32183.912245019</DistanceMeters>
          </Trackpoint>
          <Trackpoint>
            <Time>2022-07-10T08:59:10.000Z</Time>
            <Position>
              <LatitudeDegrees>42.7610962651669979095458984375</LatitudeDegrees>
              <LongitudeDegrees>-0.19735937006771564483642578125</LongitudeDegrees>
            </Position>
            <AltitudeMeters>2403.199951171875</AltitudeMeters>
            <DistanceMeters>32186.083350706</DistanceMeters>
          </Trackpoint>
          <Trackpoint>
            <Time>2022-07-10T08:59:11.000Z</Time>
            <Position>
              <LatitudeDegrees>42.761090733110904693603515625</LatitudeDegrees>
              <LongitudeDegrees>-0.197369344532489776611328125</LongitudeDegrees>
            </Position>
            <AltitudeMeters>2403.199951171875</AltitudeMeters>
            <DistanceMeters>32187.097958371</DistanceMeters>
          </Trackpoint>
          <Trackpoint>
            <Time>2022-07-10T08:59:14.000Z</Time>
            <Position>
              <LatitudeDegrees>42.76106902398169040679931640625</LatitudeDegrees>
              <LongitudeDegrees>-0.19738937728106975555419921875</LongitudeDegrees>
            </Position>
            <AltitudeMeters>2403.60009765625</AltitudeMeters>
            <DistanceMeters>32190.017614543</DistanceMeters>
          </Trackpoint>
          <Trackpoint>
            <Time>2022-07-10T08:59:19.000Z</Time>
            <Position>
              <LatitudeDegrees>42.761072628200054168701171875</LatitudeDegrees>
              <LongitudeDegrees>-0.19742659293115139007568359375</LongitudeDegrees>
            </Position>
            <AltitudeMeters>2404</AltitudeMeters>
            <DistanceMeters>32193.085079238</DistanceMeters>
          </Trackpoint>
          <Trackpoint>
            <Time>2022-07-10T08:59:22.000Z</Time>
            <Position>
              <LatitudeDegrees>42.76106684468686580657958984375</LatitudeDegrees>
              <LongitudeDegrees>-0.19746062345802783966064453125</LongitudeDegrees>
            </Position>
            <AltitudeMeters>2404.199951171875</AltitudeMeters>
            <DistanceMeters>32195.939046469</DistanceMeters>
          </Trackpoint>
          <Trackpoint>
            <Time>2022-07-10T08:59:25.000Z</Time>
            <Position>
              <LatitudeDegrees>42.76104287244379520416259765625</LatitudeDegrees>
              <LongitudeDegrees>-0.1974992640316486358642578125</LongitudeDegrees>
            </Position>
            <AltitudeMeters>2404.199951171875</AltitudeMeters>
            <DistanceMeters>32200.073527659</DistanceMeters>
          </Trackpoint>
          <Trackpoint>
            <Time>2022-07-10T08:59:26.000Z</Time>
            <Position>
              <LatitudeDegrees>42.76103415526449680328369140625</LatitudeDegrees>
              <LongitudeDegrees>-0.1975143514573574066162109375</LongitudeDegrees>
            </Position>
            <AltitudeMeters>2404</AltitudeMeters>
            <DistanceMeters>32201.643626658</DistanceMeters>
          </Trackpoint>
          <Trackpoint>
            <Time>2022-07-10T08:59:28.000Z</Time>
            <Position>
              <LatitudeDegrees>42.76101588271558284759521484375</LatitudeDegrees>
              <LongitudeDegrees>-0.197534300386905670166015625</LongitudeDegrees>
            </Position>
            <AltitudeMeters>2403.800048828125</AltitudeMeters>
            <DistanceMeters>32204.247774774</DistanceMeters>
          </Trackpoint>
          <Trackpoint>
            <Time>2022-07-10T08:59:29.000Z</Time>
            <Position>
              <LatitudeDegrees>42.76100498624145984649658203125</LatitudeDegrees>
              <LongitudeDegrees>-0.19754477776587009429931640625</LongitudeDegrees>
            </Position>
            <AltitudeMeters>2403.800048828125</AltitudeMeters>
            <DistanceMeters>32205.732139504</DistanceMeters>
          </Trackpoint>
          <Trackpoint>
            <Time>2022-07-10T08:59:33.000Z</Time>
            <Position>
              <LatitudeDegrees>42.7609628252685070037841796875</LatitudeDegrees>
              <LongitudeDegrees>-0.19758719019591808319091796875</LongitudeDegrees>
            </Position>
            <AltitudeMeters>2403.800048828125</AltitudeMeters>
            <DistanceMeters>32211.565262857</DistanceMeters>
          </Trackpoint>
          <Trackpoint>
            <Time>2022-07-10T08:59:36.000Z</Time>
            <Position>
              <LatitudeDegrees>42.7609390206634998321533203125</LatitudeDegrees>
              <LongitudeDegrees>-0.19761032424867153167724609375</LongitudeDegrees>
            </Position>
            <AltitudeMeters>2404</AltitudeMeters>
            <DistanceMeters>32214.819841119</DistanceMeters>
          </Trackpoint>
          <Trackpoint>
            <Time>2022-07-10T08:59:37.000Z</Time>
            <Position>
              <LatitudeDegrees>42.76093105785548686981201171875</LatitudeDegrees>
              <LongitudeDegrees>-0.19761552102863788604736328125</LongitudeDegrees>
            </Position>
            <AltitudeMeters>2404.199951171875</AltitudeMeters>
            <DistanceMeters>32215.802805096</DistanceMeters>
          </Trackpoint>
          <Trackpoint>
            <Time>2022-07-10T08:59:40.000Z</Time>
            <Position>
              <LatitudeDegrees>42.7609068341553211212158203125</LatitudeDegrees>
              <LongitudeDegrees>-0.1976425945758819580078125</LongitudeDegrees>
            </Position>
            <AltitudeMeters>2404.60009765625</AltitudeMeters>
            <DistanceMeters>32219.290427921</DistanceMeters>
          </Trackpoint>
          <Trackpoint>
            <Time>2022-07-10T08:59:42.000Z</Time>
            <Position>
              <LatitudeDegrees>42.76089032180607318878173828125</LatitudeDegrees>
              <LongitudeDegrees>-0.197665058076381683349609375</LongitudeDegrees>
            </Position>
            <AltitudeMeters>2404.60009765625</AltitudeMeters>
            <DistanceMeters>32221.88763163</DistanceMeters>
          </Trackpoint>
          <Trackpoint>
            <Time>2022-07-10T08:59:43.000Z</Time>
            <Position>
              <LatitudeDegrees>42.76088529266417026519775390625</LatitudeDegrees>
              <LongitudeDegrees>-0.197677798569202423095703125</LongitudeDegrees>
            </Position>
            <AltitudeMeters>2404.800048828125</AltitudeMeters>
            <DistanceMeters>32223.070704683</DistanceMeters>
          </Trackpoint>
          <Trackpoint>
            <Time>2022-07-10T08:59:46.000Z</Time>
            <Position>
              <LatitudeDegrees>42.76089216582477092742919921875</LatitudeDegrees>
              <LongitudeDegrees>-0.197743512690067291259765625</LongitudeDegrees>
            </Position>
            <AltitudeMeters>2405</AltitudeMeters>
            <DistanceMeters>32228.494724323</DistanceMeters>
          </Trackpoint>
          <Trackpoint>
            <Time>2022-07-10T08:59:49.000Z</Time>
            <Position>
              <LatitudeDegrees>42.7608917467296123504638671875</LatitudeDegrees>
              <LongitudeDegrees>-0.19778919406235218048095703125</LongitudeDegrees>
            </Position>
            <AltitudeMeters>2405.39990234375</AltitudeMeters>
            <DistanceMeters>32232.227472366</DistanceMeters>
          </Trackpoint>
          <Trackpoint>
            <Time>2022-07-10T08:59:50.000Z</Time>
            <Position>
              <LatitudeDegrees>42.76088462211191654205322265625</LatitudeDegrees>
              <LongitudeDegrees>-0.1977926306426525115966796875</LongitudeDegrees>
            </Position>
            <AltitudeMeters>2405.60009765625</AltitudeMeters>
            <DistanceMeters>32233.066725583</DistanceMeters>
          </Trackpoint>
          <Trackpoint>
            <Time>2022-07-10T08:59:51.000Z</Time>
            <Position>
              <LatitudeDegrees>42.760876156389713287353515625</LatitudeDegrees>
              <LongitudeDegrees>-0.19779355265200138092041015625</LongitudeDegrees>
            </Position>
            <AltitudeMeters>2405.60009765625</AltitudeMeters>
            <DistanceMeters>32234.007442061</DistanceMeters>
          </Trackpoint>
          <Trackpoint>
            <Time>2022-07-10T08:59:54.000Z</Time>
            <Position>
              <LatitudeDegrees>42.7608655951917171478271484375</LatitudeDegrees>
              <LongitudeDegrees>-0.19780193455517292022705078125</LongitudeDegrees>
            </Position>
            <AltitudeMeters>2406</AltitudeMeters>
            <DistanceMeters>32235.36469502</DistanceMeters>
          </Trackpoint>
          <Trackpoint>
            <Time>2022-07-10T08:59:55.000Z</Time>
            <Position>
              <LatitudeDegrees>42.7608562074601650238037109375</LatitudeDegrees>
              <LongitudeDegrees>-0.197802521288394927978515625</LongitudeDegrees>
            </Position>
            <AltitudeMeters>2406.199951171875</AltitudeMeters>
            <DistanceMeters>32236.409988878</DistanceMeters>
          </Trackpoint>
          <Trackpoint>
            <Time>2022-07-10T09:00:01.000Z</Time>
            <Position>
              <LatitudeDegrees>42.7608330734074115753173828125</LatitudeDegrees>
              <LongitudeDegrees>-0.19783906638622283935546875</LongitudeDegrees>
            </Position>
            <AltitudeMeters>2406.60009765625</AltitudeMeters>
            <DistanceMeters>32240.353311289</DistanceMeters>
          </Trackpoint>
          <Trackpoint>
            <Time>2022-07-10T09:00:05.000Z</Time>
            <Position>
              <LatitudeDegrees>42.760791666805744171142578125</LatitudeDegrees>
              <LongitudeDegrees>-0.19787318073213100433349609375</LongitudeDegrees>
            </Position>
            <AltitudeMeters>2406.800048828125</AltitudeMeters>
            <DistanceMeters>32245.740580141</DistanceMeters>
          </Trackpoint>
          <Trackpoint>
            <Time>2022-07-10T09:00:06.000Z</Time>
            <Position>
              <LatitudeDegrees>42.76078454218804836273193359375</LatitudeDegrees>
              <LongitudeDegrees>-0.197874940931797027587890625</LongitudeDegrees>
            </Position>
            <AltitudeMeters>2407.39990234375</AltitudeMeters>
            <DistanceMeters>32246.546908551</DistanceMeters>
          </Trackpoint>
          <Trackpoint>
            <Time>2022-07-10T09:00:07.000Z</Time>
            <Position>
              <LatitudeDegrees>42.76078035123646259307861328125</LatitudeDegrees>
              <LongitudeDegrees>-0.1978700794279575347900390625</LongitudeDegrees>
            </Position>
            <AltitudeMeters>2407.800048828125</AltitudeMeters>
            <DistanceMeters>32247.162752046</DistanceMeters>
          </Trackpoint>
          <Trackpoint>
            <Time>2022-07-10T09:00:10.000Z</Time>
            <Position>
              <LatitudeDegrees>42.76075336150825023651123046875</LatitudeDegrees>
              <LongitudeDegrees>-0.1978767849504947662353515625</LongitudeDegrees>
            </Position>
            <AltitudeMeters>2408</AltitudeMeters>
            <DistanceMeters>32250.215462136</DistanceMeters>
          </Trackpoint>
          <Trackpoint>
            <Time>2022-07-10T09:00:12.000Z</Time>
            <Position>
              <LatitudeDegrees>42.7607318200170993804931640625</LatitudeDegrees>
              <LongitudeDegrees>-0.19788709469139575958251953125</LongitudeDegrees>
            </Position>
            <AltitudeMeters>2408.199951171875</AltitudeMeters>
            <DistanceMeters>32252.758203714</DistanceMeters>
          </Trackpoint>
          <Trackpoint>
            <Time>2022-07-10T09:00:13.000Z</Time>
            <Position>
              <LatitudeDegrees>42.76072788052260875701904296875</LatitudeDegrees>
              <LongitudeDegrees>-0.19790075719356536865234375</LongitudeDegrees>
            </Position>
            <AltitudeMeters>2408.39990234375</AltitudeMeters>
            <DistanceMeters>32253.960207138</DistanceMeters>
          </Trackpoint>
          <Trackpoint>
            <Time>2022-07-10T09:00:14.000Z</Time>
            <Position>
              <LatitudeDegrees>42.76072352193295955657958984375</LatitudeDegrees>
              <LongitudeDegrees>-0.197912156581878662109375</LongitudeDegrees>
            </Position>
            <AltitudeMeters>2408.800048828125</AltitudeMeters>
            <DistanceMeters>32255.009811504</DistanceMeters>
          </Trackpoint>
          <Trackpoint>
            <Time>2022-07-10T09:00:15.000Z</Time>
            <Position>
              <LatitudeDegrees>42.76071698404848575592041015625</LatitudeDegrees>
              <LongitudeDegrees>-0.19792146049439907073974609375</LongitudeDegrees>
            </Position>
            <AltitudeMeters>2408.800048828125</AltitudeMeters>
            <DistanceMeters>32256.063708749</DistanceMeters>
          </Trackpoint>
          <Trackpoint>
            <Time>2022-07-10T09:00:17.000Z</Time>
            <Position>
              <LatitudeDegrees>42.76069837622344493865966796875</LatitudeDegrees>
              <LongitudeDegrees>-0.19794073887169361114501953125</LongitudeDegrees>
            </Position>
            <AltitudeMeters>2409</AltitudeMeters>
            <DistanceMeters>32258.6661225</DistanceMeters>
          </Trackpoint>
          <Trackpoint>
            <Time>2022-07-10T09:00:19.000Z</Time>
            <Position>
              <LatitudeDegrees>42.76067507453262805938720703125</LatitudeDegrees>
              <LongitudeDegrees>-0.1979448460042476654052734375</LongitudeDegrees>
            </Position>
            <AltitudeMeters>2409.199951171875</AltitudeMeters>
            <DistanceMeters>32261.280652643</DistanceMeters>
          </Trackpoint>
          <Trackpoint>
            <Time>2022-07-10T09:00:21.000Z</Time>
            <Position>
              <LatitudeDegrees>42.7606583945453166961669921875</LatitudeDegrees>
              <LongitudeDegrees>-0.1979626156389713287353515625</LongitudeDegrees>
            </Position>
            <AltitudeMeters>2409.39990234375</AltitudeMeters>
            <DistanceMeters>32263.639153669</DistanceMeters>
          </Trackpoint>
          <Trackpoint>
            <Time>2022-07-10T09:00:22.000Z</Time>
            <Position>
              <LatitudeDegrees>42.760653533041477203369140625</LatitudeDegrees>
              <LongitudeDegrees>-0.1979746855795383453369140625</LongitudeDegrees>
            </Position>
            <AltitudeMeters>2409.60009765625</AltitudeMeters>
            <DistanceMeters>32264.77152766</DistanceMeters>
          </Trackpoint>
          <Trackpoint>
            <Time>2022-07-10T09:00:23.000Z</Time>
            <Position>
              <LatitudeDegrees>42.7606506831943988800048828125</LatitudeDegrees>
              <LongitudeDegrees>-0.19798449240624904632568359375</LongitudeDegrees>
            </Position>
            <AltitudeMeters>2409.800048828125</AltitudeMeters>
            <DistanceMeters>32265.632031157</DistanceMeters>
          </Trackpoint>
          <Trackpoint>
            <Time>2022-07-10T09:00:25.000Z</Time>
            <Position>
              <LatitudeDegrees>42.7606426365673542022705078125</LatitudeDegrees>
              <LongitudeDegrees>-0.19800134003162384033203125</LongitudeDegrees>
            </Position>
            <AltitudeMeters>2410</AltitudeMeters>
            <DistanceMeters>32267.272446586</DistanceMeters>
          </Trackpoint>
          <Trackpoint>
            <Time>2022-07-10T09:00:29.000Z</Time>
            <Position>
              <LatitudeDegrees>42.7606174908578395843505859375</LatitudeDegrees>
              <LongitudeDegrees>-0.19801600836217403411865234375</LongitudeDegrees>
            </Position>
            <AltitudeMeters>2410.199951171875</AltitudeMeters>
            <DistanceMeters>32270.316269582</DistanceMeters>
          </Trackpoint>
          <Trackpoint>
            <Time>2022-07-10T09:00:31.000Z</Time>
            <Position>
              <LatitudeDegrees>42.7606024034321308135986328125</LatitudeDegrees>
              <LongitudeDegrees>-0.19802858121693134307861328125</LongitudeDegrees>
            </Position>
            <AltitudeMeters>2410.60009765625</AltitudeMeters>
            <DistanceMeters>32272.286785472</DistanceMeters>
          </Trackpoint>
          <Trackpoint>
            <Time>2022-07-10T09:00:33.000Z</Time>
            <Position>
              <LatitudeDegrees>42.76058010756969451904296875</LatitudeDegrees>
              <LongitudeDegrees>-0.19805054180324077606201171875</LongitudeDegrees>
            </Position>
            <AltitudeMeters>2410.800048828125</AltitudeMeters>
            <DistanceMeters>32275.348356857</DistanceMeters>
          </Trackpoint>
          <Trackpoint>
            <Time>2022-07-10T09:00:36.000Z</Time>
            <Position>
              <LatitudeDegrees>42.76053794659674167633056640625</LatitudeDegrees>
              <LongitudeDegrees>-0.19810150377452373504638671875</LongitudeDegrees>
            </Position>
            <AltitudeMeters>2411.60009765625</AltitudeMeters>
            <DistanceMeters>32281.622998942</DistanceMeters>
          </Trackpoint>
          <Trackpoint>
            <Time>2022-07-10T09:00:37.000Z</Time>
            <Position>
              <LatitudeDegrees>42.76052989996969699859619140625</LatitudeDegrees>
              <LongitudeDegrees>-0.19810737110674381256103515625</LongitudeDegrees>
            </Position>
            <AltitudeMeters>2411.60009765625</AltitudeMeters>
            <DistanceMeters>32282.637606608</DistanceMeters>
          </Trackpoint>
          <Trackpoint>
            <Time>2022-07-10T09:00:42.000Z</Time>
            <Position>
              <LatitudeDegrees>42.76050123386085033416748046875</LatitudeDegrees>
              <LongitudeDegrees>-0.19812983460724353790283203125</LongitudeDegrees>
            </Position>
            <AltitudeMeters>2411.800048828125</AltitudeMeters>
            <DistanceMeters>32286.31797543</DistanceMeters>
          </Trackpoint>
          <Trackpoint>
            <Time>2022-07-10T09:00:45.000Z</Time>
            <Position>
              <LatitudeDegrees>42.76049704290926456451416015625</LatitudeDegrees>
              <LongitudeDegrees>-0.19814475439488887786865234375</LongitudeDegrees>
            </Position>
            <AltitudeMeters>2412</AltitudeMeters>
            <DistanceMeters>32287.620916093</DistanceMeters>
          </Trackpoint>
          <Trackpoint>
            <Time>2022-07-10T09:00:46.000Z</Time>
            <Position>
              <LatitudeDegrees>42.76049536652863025665283203125</LatitudeDegrees>
              <LongitudeDegrees>-0.1981436647474765777587890625</LongitudeDegrees>
            </Position>
            <AltitudeMeters>2412</AltitudeMeters>
            <DistanceMeters>32287.810969522</DistanceMeters>
          </Trackpoint>
          <Trackpoint>
            <Time>2022-07-10T09:00:51.000Z</Time>
            <Position>
              <LatitudeDegrees>42.76048983447253704071044921875</LatitudeDegrees>
              <LongitudeDegrees>-0.1982066966593265533447265625</LongitudeDegrees>
            </Position>
            <AltitudeMeters>2412.60009765625</AltitudeMeters>
            <DistanceMeters>32292.998418587</DistanceMeters>
          </Trackpoint>
          <Trackpoint>
            <Time>2022-07-10T09:00:52.000Z</Time>
            <Position>
              <LatitudeDegrees>42.76048597879707813262939453125</LatitudeDegrees>
              <LongitudeDegrees>-0.19822555594146251678466796875</LongitudeDegrees>
            </Position>
            <AltitudeMeters>2412.60009765625</AltitudeMeters>
            <DistanceMeters>32294.599837242</DistanceMeters>
          </Trackpoint>
          <Trackpoint>
            <Time>2022-07-10T09:00:53.000Z</Time>
            <Position>
              <LatitudeDegrees>42.76048061437904834747314453125</LatitudeDegrees>
              <LongitudeDegrees>-0.1982419006526470184326171875</LongitudeDegrees>
            </Position>
            <AltitudeMeters>2413.199951171875</AltitudeMeters>
            <DistanceMeters>32296.059665328</DistanceMeters>
          </Trackpoint>
          <Trackpoint>
            <Time>2022-07-10T09:00:56.000Z</Time>
            <Position>
              <LatitudeDegrees>42.7604706399142742156982421875</LatitudeDegrees>
              <LongitudeDegrees>-0.1982767693698406219482421875</LongitudeDegrees>
            </Position>
            <AltitudeMeters>2414.199951171875</AltitudeMeters>
            <DistanceMeters>32299.118285801</DistanceMeters>
          </Trackpoint>
          <Trackpoint>
            <Time>2022-07-10T09:00:58.000Z</Time>
            <Position>
              <LatitudeDegrees>42.76045949198305606842041015625</LatitudeDegrees>
              <LongitudeDegrees>-0.19827517680823802947998046875</LongitudeDegrees>
            </Position>
            <AltitudeMeters>2414.800048828125</AltitudeMeters>
            <DistanceMeters>32300.371774254</DistanceMeters>
          </Trackpoint>
          <Trackpoint>
            <Time>2022-07-10T09:01:02.000Z</Time>
            <Position>
              <LatitudeDegrees>42.7604320831596851348876953125</LatitudeDegrees>
              <LongitudeDegrees>-0.1982509531080722808837890625</LongitudeDegrees>
            </Position>
            <AltitudeMeters>2415</AltitudeMeters>
            <DistanceMeters>32304.01019315</DistanceMeters>
          </Trackpoint>
          <Trackpoint>
            <Time>2022-07-10T09:01:03.000Z</Time>
            <Position>
              <LatitudeDegrees>42.7604290656745433807373046875</LatitudeDegrees>
              <LongitudeDegrees>-0.19825556315481662750244140625</LongitudeDegrees>
            </Position>
            <AltitudeMeters>2415.39990234375</AltitudeMeters>
            <DistanceMeters>32304.521927668</DistanceMeters>
          </Trackpoint>
          <Trackpoint>
            <Time>2022-07-10T09:01:04.000Z</Time>
            <Position>
              <LatitudeDegrees>42.760426886379718780517578125</LatitudeDegrees>
              <LongitudeDegrees>-0.19826109521090984344482421875</LongitudeDegrees>
            </Position>
            <AltitudeMeters>2415.60009765625</AltitudeMeters>
            <DistanceMeters>32305.042410418</DistanceMeters>
          </Trackpoint>
          <Trackpoint>
            <Time>2022-07-10T09:01:05.000Z</Time>
            <Position>
              <LatitudeDegrees>42.76042378507554531097412109375</LatitudeDegrees>
              <LongitudeDegrees>-0.19826679490506649017333984375</LongitudeDegrees>
            </Position>
            <AltitudeMeters>2415.800048828125</AltitudeMeters>
            <DistanceMeters>32305.628194427</DistanceMeters>
          </Trackpoint>
          <Trackpoint>
            <Time>2022-07-10T09:01:08.000Z</Time>
            <Position>
              <LatitudeDegrees>42.7604163251817226409912109375</LatitudeDegrees>
              <LongitudeDegrees>-0.19829772412776947021484375</LongitudeDegrees>
            </Position>
            <AltitudeMeters>2416.39990234375</AltitudeMeters>
            <DistanceMeters>32308.288942429</DistanceMeters>
          </Trackpoint>
          <Trackpoint>
            <Time>2022-07-10T09:01:11.000Z</Time>
            <Position>
              <LatitudeDegrees>42.7604042552411556243896484375</LatitudeDegrees>
              <LongitudeDegrees>-0.1983200199902057647705078125</LongitudeDegrees>
            </Position>
            <AltitudeMeters>2417</AltitudeMeters>
            <DistanceMeters>32310.553690411</DistanceMeters>
          </Trackpoint>
          <Trackpoint>
            <Time>2022-07-10T09:01:14.000Z</Time>
            <Position>
              <LatitudeDegrees>42.7603928558528423309326171875</LatitudeDegrees>
              <LongitudeDegrees>-0.198325216770172119140625</LongitudeDegrees>
            </Position>
            <AltitudeMeters>2417.39990234375</AltitudeMeters>
            <DistanceMeters>32311.890834807</DistanceMeters>
          </Trackpoint>
          <Trackpoint>
            <Time>2022-07-10T09:01:17.000Z</Time>
            <Position>
              <LatitudeDegrees>42.76038522832095623016357421875</LatitudeDegrees>
              <LongitudeDegrees>-0.19833401776850223541259765625</LongitudeDegrees>
            </Position>
            <AltitudeMeters>2417.60009765625</AltitudeMeters>
            <DistanceMeters>32313.003093982</DistanceMeters>
          </Trackpoint>
          <Trackpoint>
            <Time>2022-07-10T09:01:21.000Z</Time>
            <Position>
              <LatitudeDegrees>42.7603784389793872833251953125</LatitudeDegrees>
              <LongitudeDegrees>-0.1983733288943767547607421875</LongitudeDegrees>
            </Position>
            <AltitudeMeters>2418.60009765625</AltitudeMeters>
            <DistanceMeters>32316.304503116</DistanceMeters>
          </Trackpoint>
          <Trackpoint>
            <Time>2022-07-10T09:01:24.000Z</Time>
            <Position>
              <LatitudeDegrees>42.76038472540676593780517578125</LatitudeDegrees>
              <LongitudeDegrees>-0.198408700525760650634765625</LongitudeDegrees>
            </Position>
            <AltitudeMeters>2419.199951171875</AltitudeMeters>
            <DistanceMeters>32319.277791672</DistanceMeters>
          </Trackpoint>
          <Trackpoint>
            <Time>2022-07-10T09:01:29.000Z</Time>
            <Position>
              <LatitudeDegrees>42.76036150753498077392578125</LatitudeDegrees>
              <LongitudeDegrees>-0.19842336885631084442138671875</LongitudeDegrees>
            </Position>
            <AltitudeMeters>2419.60009765625</AltitudeMeters>
            <DistanceMeters>32322.125423784</DistanceMeters>
          </Trackpoint>
          <Trackpoint>
            <Time>2022-07-10T09:01:30.000Z</Time>
            <Position>
              <LatitudeDegrees>42.76035522110760211944580078125</LatitudeDegrees>
              <LongitudeDegrees>-0.19843074493110179901123046875</LongitudeDegrees>
            </Position>
            <AltitudeMeters>2419.800048828125</AltitudeMeters>
            <DistanceMeters>32323.046741963</DistanceMeters>
          </Trackpoint>
          <Trackpoint>
            <Time>2022-07-10T09:01:33.000Z</Time>
            <Position>
              <LatitudeDegrees>42.760345079004764556884765625</LatitudeDegrees>
              <LongitudeDegrees>-0.19844432361423969268798828125</LongitudeDegrees>
            </Position>
            <AltitudeMeters>2420.39990234375</AltitudeMeters>
            <DistanceMeters>32324.63115392</DistanceMeters>
          </Trackpoint>
          <Trackpoint>
            <Time>2022-07-10T09:01:35.000Z</Time>
            <Position>
              <LatitudeDegrees>42.760347425937652587890625</LatitudeDegrees>
              <LongitudeDegrees>-0.1984594948589801788330078125</LongitudeDegrees>
            </Position>
            <AltitudeMeters>2420.60009765625</AltitudeMeters>
            <DistanceMeters>32325.898968421</DistanceMeters>
          </Trackpoint>
          <Trackpoint>
            <Time>2022-07-10T09:01:36.000Z</Time>
            <Position>
              <LatitudeDegrees>42.7603459171950817108154296875</LatitudeDegrees>
              <LongitudeDegrees>-0.19846678711473941802978515625</LongitudeDegrees>
            </Position>
            <AltitudeMeters>2421</AltitudeMeters>
            <DistanceMeters>32326.514811916</DistanceMeters>
          </Trackpoint>
          <Trackpoint>
            <Time>2022-07-10T09:01:41.000Z</Time>
            <Position>
              <LatitudeDegrees>42.760293781757354736328125</LatitudeDegrees>
              <LongitudeDegrees>-0.19849159754812717437744140625</LongitudeDegrees>
            </Position>
            <AltitudeMeters>2421.800048828125</AltitudeMeters>
            <DistanceMeters>32332.661505323</DistanceMeters>
          </Trackpoint>
          <Trackpoint>
            <Time>2022-07-10T09:01:43.000Z</Time>
            <Position>
              <LatitudeDegrees>42.760278694331645965576171875</LatitudeDegrees>
              <LongitudeDegrees>-0.19848413765430450439453125</LongitudeDegrees>
            </Position>
            <AltitudeMeters>2422</AltitudeMeters>
            <DistanceMeters>32334.446895192</DistanceMeters>
          </Trackpoint>
          <Trackpoint>
            <Time>2022-07-10T09:01:44.000Z</Time>
            <Position>
              <LatitudeDegrees>42.7602781914174556732177734375</LatitudeDegrees>
              <LongitudeDegrees>-0.1984846405684947967529296875</LongitudeDegrees>
            </Position>
            <AltitudeMeters>2422</AltitudeMeters>
            <DistanceMeters>32334.446895192</DistanceMeters>
          </Trackpoint>
          <Trackpoint>
            <Time>2022-07-10T09:01:45.000Z</Time>
            <Position>
              <LatitudeDegrees>42.76027609594166278839111328125</LatitudeDegrees>
              <LongitudeDegrees>-0.1984799467027187347412109375</LongitudeDegrees>
            </Position>
            <AltitudeMeters>2422.199951171875</AltitudeMeters>
            <DistanceMeters>32334.892609991</DistanceMeters>
          </Trackpoint>
          <Trackpoint>
            <Time>2022-07-10T09:01:46.000Z</Time>
            <Position>
              <LatitudeDegrees>42.76027609594166278839111328125</LatitudeDegrees>
              <LongitudeDegrees>-0.1984749175608158111572265625</LongitudeDegrees>
            </Position>
            <AltitudeMeters>2422.39990234375</AltitudeMeters>
            <DistanceMeters>32335.295774196</DistanceMeters>
          </Trackpoint>
          <Trackpoint>
            <Time>2022-07-10T09:01:47.000Z</Time>
            <Position>
              <LatitudeDegrees>42.7602634392678737640380859375</LatitudeDegrees>
              <LongitudeDegrees>-0.1984749175608158111572265625</LongitudeDegrees>
            </Position>
            <AltitudeMeters>2422.800048828125</AltitudeMeters>
            <DistanceMeters>32336.702041148</DistanceMeters>
          </Trackpoint>
          <Trackpoint>
            <Time>2022-07-10T09:01:48.000Z</Time>
            <Position>
              <LatitudeDegrees>42.760256230831146240234375</LatitudeDegrees>
              <LongitudeDegrees>-0.19847751595079898834228515625</LongitudeDegrees>
            </Position>
            <AltitudeMeters>2423.39990234375</AltitudeMeters>
            <DistanceMeters>32337.524996635</DistanceMeters>
          </Trackpoint>
          <Trackpoint>
            <Time>2022-07-10T09:01:49.000Z</Time>
            <Position>
              <LatitudeDegrees>42.7602520398795604705810546875</LatitudeDegrees>
              <LongitudeDegrees>-0.19848573021590709686279296875</LongitudeDegrees>
            </Position>
            <AltitudeMeters>2423.60009765625</AltitudeMeters>
            <DistanceMeters>32338.342447341</DistanceMeters>
          </Trackpoint>
          <Trackpoint>
            <Time>2022-07-10T09:01:50.000Z</Time>
            <Position>
              <LatitudeDegrees>42.760247848927974700927734375</LatitudeDegrees>
              <LongitudeDegrees>-0.19849159754812717437744140625</LongitudeDegrees>
            </Position>
            <AltitudeMeters>2423.800048828125</AltitudeMeters>
            <DistanceMeters>32339.007634341</DistanceMeters>
          </Trackpoint>
          <Trackpoint>
            <Time>2022-07-10T09:01:51.000Z</Time>
            <Position>
              <LatitudeDegrees>42.76024457998573780059814453125</LatitudeDegrees>
              <LongitudeDegrees>-0.1984973810613155364990234375</LongitudeDegrees>
            </Position>
            <AltitudeMeters>2424.199951171875</AltitudeMeters>
            <DistanceMeters>32339.601075982</DistanceMeters>
          </Trackpoint>
          <Trackpoint>
            <Time>2022-07-10T09:01:52.000Z</Time>
            <Position>
              <LatitudeDegrees>42.76024223305284976959228515625</LatitudeDegrees>
              <LongitudeDegrees>-0.1985030807554721832275390625</LongitudeDegrees>
            </Position>
            <AltitudeMeters>2424.39990234375</AltitudeMeters>
            <DistanceMeters>32340.138628255</DistanceMeters>
          </Trackpoint>
          <Trackpoint>
            <Time>2022-07-10T09:01:55.000Z</Time>
            <Position>
              <LatitudeDegrees>42.76023955084383487701416015625</LatitudeDegrees>
              <LongitudeDegrees>-0.198528058826923370361328125</LongitudeDegrees>
            </Position>
            <AltitudeMeters>2425</AltitudeMeters>
            <DistanceMeters>32342.200948794</DistanceMeters>
          </Trackpoint>
          <Trackpoint>
            <Time>2022-07-10T09:02:01.000Z</Time>
            <Position>
              <LatitudeDegrees>42.7602039277553558349609375</LatitudeDegrees>
              <LongitudeDegrees>-0.1985503546893596649169921875</LongitudeDegrees>
            </Position>
            <AltitudeMeters>2426.199951171875</AltitudeMeters>
            <DistanceMeters>32346.565975861</DistanceMeters>
          </Trackpoint>
          <Trackpoint>
            <Time>2022-07-10T09:02:05.000Z</Time>
            <Position>
              <LatitudeDegrees>42.76017199270427227020263671875</LatitudeDegrees>
              <LongitudeDegrees>-0.19858044572174549102783203125</LongitudeDegrees>
            </Position>
            <AltitudeMeters>2427</AltitudeMeters>
            <DistanceMeters>32350.888385856</DistanceMeters>
          </Trackpoint>
          <Trackpoint>
            <Time>2022-07-10T09:02:07.000Z</Time>
            <Position>
              <LatitudeDegrees>42.76015237905085086822509765625</LatitudeDegrees>
              <LongitudeDegrees>-0.1985894143581390380859375</LongitudeDegrees>
            </Position>
            <AltitudeMeters>2427.39990234375</AltitudeMeters>
            <DistanceMeters>32353.188739046</DistanceMeters>
          </Trackpoint>
          <Trackpoint>
            <Time>2022-07-10T09:02:09.000Z</Time>
            <Position>
              <LatitudeDegrees>42.7601336874067783355712890625</LatitudeDegrees>
              <LongitudeDegrees>-0.1986039988696575164794921875</LongitudeDegrees>
            </Position>
            <AltitudeMeters>2427.800048828125</AltitudeMeters>
            <DistanceMeters>32355.585221597</DistanceMeters>
          </Trackpoint>
          <Trackpoint>
            <Time>2022-07-10T09:02:13.000Z</Time>
            <Position>
              <LatitudeDegrees>42.76011281646788120269775390625</LatitudeDegrees>
              <LongitudeDegrees>-0.19863073714077472686767578125</LongitudeDegrees>
            </Position>
            <AltitudeMeters>2428.60009765625</AltitudeMeters>
            <DistanceMeters>32358.776761386</DistanceMeters>
          </Trackpoint>
          <Trackpoint>
            <Time>2022-07-10T09:02:14.000Z</Time>
            <Position>
              <LatitudeDegrees>42.76010979898273944854736328125</LatitudeDegrees>
              <LongitudeDegrees>-0.19863836467266082763671875</LongitudeDegrees>
            </Position>
            <AltitudeMeters>2428.800048828125</AltitudeMeters>
            <DistanceMeters>32359.487876202</DistanceMeters>
          </Trackpoint>
          <Trackpoint>
            <Time>2022-07-10T09:02:17.000Z</Time>
            <Position>
              <LatitudeDegrees>42.760104350745677947998046875</LatitudeDegrees>
              <LongitudeDegrees>-0.19865269772708415985107421875</LongitudeDegrees>
            </Position>
            <AltitudeMeters>2429.60009765625</AltitudeMeters>
            <DistanceMeters>32360.804604981</DistanceMeters>
          </Trackpoint>
          <Trackpoint>
            <Time>2022-07-10T09:02:22.000Z</Time>
            <Position>
              <LatitudeDegrees>42.76008331216871738433837890625</LatitudeDegrees>
              <LongitudeDegrees>-0.1986744068562984466552734375</LongitudeDegrees>
            </Position>
            <AltitudeMeters>2430.800048828125</AltitudeMeters>
            <DistanceMeters>32363.742759688</DistanceMeters>
          </Trackpoint>
          <Trackpoint>
            <Time>2022-07-10T09:02:26.000Z</Time>
            <Position>
              <LatitudeDegrees>42.76004877872765064239501953125</LatitudeDegrees>
              <LongitudeDegrees>-0.1986734010279178619384765625</LongitudeDegrees>
            </Position>
            <AltitudeMeters>2431.60009765625</AltitudeMeters>
            <DistanceMeters>32367.587526929</DistanceMeters>
          </Trackpoint>
          <Trackpoint>
            <Time>2022-07-10T09:02:27.000Z</Time>
            <Position>
              <LatitudeDegrees>42.760040648281574249267578125</LatitudeDegrees>
              <LongitudeDegrees>-0.19867055118083953857421875</LongitudeDegrees>
            </Position>
            <AltitudeMeters>2431.800048828125</AltitudeMeters>
            <DistanceMeters>32368.523431526</DistanceMeters>
          </Trackpoint>
          <Trackpoint>
            <Time>2022-07-10T09:02:28.000Z</Time>
            <Position>
              <LatitudeDegrees>42.76003251783549785614013671875</LatitudeDegrees>
              <LongitudeDegrees>-0.19867080263793468475341796875</LongitudeDegrees>
            </Position>
            <AltitudeMeters>2431.800048828125</AltitudeMeters>
            <DistanceMeters>32369.424934094</DistanceMeters>
          </Trackpoint>
          <Trackpoint>
            <Time>2022-07-10T09:02:29.000Z</Time>
            <Position>
              <LatitudeDegrees>42.76002547703683376312255859375</LatitudeDegrees>
              <LongitudeDegrees>-0.19867465831339359283447265625</LongitudeDegrees>
            </Position>
            <AltitudeMeters>2432</AltitudeMeters>
            <DistanceMeters>32370.264187311</DistanceMeters>
          </Trackpoint>
          <Trackpoint>
            <Time>2022-07-10T09:02:33.000Z</Time>
            <Position>
              <LatitudeDegrees>42.7600000798702239990234375</LatitudeDegrees>
              <LongitudeDegrees>-0.1986985467374324798583984375</LongitudeDegrees>
            </Position>
            <AltitudeMeters>2433</AltitudeMeters>
            <DistanceMeters>32373.698321822</DistanceMeters>
          </Trackpoint>
          <Trackpoint>
            <Time>2022-07-10T09:02:34.000Z</Time>
            <Position>
              <LatitudeDegrees>42.7599962241947650909423828125</LatitudeDegrees>
              <LongitudeDegrees>-0.1987032406032085418701171875</LongitudeDegrees>
            </Position>
            <AltitudeMeters>2433.199951171875</AltitudeMeters>
            <DistanceMeters>32374.28410583</DistanceMeters>
          </Trackpoint>
          <Trackpoint>
            <Time>2022-07-10T09:02:39.000Z</Time>
            <Position>
              <LatitudeDegrees>42.759961523115634918212890625</LatitudeDegrees>
              <LongitudeDegrees>-0.19872679375112056732177734375</LongitudeDegrees>
            </Position>
            <AltitudeMeters>2434</AltitudeMeters>
            <DistanceMeters>32378.599197675</DistanceMeters>
          </Trackpoint>
          <Trackpoint>
            <Time>2022-07-10T09:02:42.000Z</Time>
            <Position>
              <LatitudeDegrees>42.7599539794027805328369140625</LatitudeDegrees>
              <LongitudeDegrees>-0.198749005794525146484375</LongitudeDegrees>
            </Position>
            <AltitudeMeters>2434.800048828125</AltitudeMeters>
            <DistanceMeters>32380.597019936</DistanceMeters>
          </Trackpoint>
          <Trackpoint>
            <Time>2022-07-10T09:02:45.000Z</Time>
            <Position>
              <LatitudeDegrees>42.759941406548023223876953125</LatitudeDegrees>
              <LongitudeDegrees>-0.19875545985996723175048828125</LongitudeDegrees>
            </Position>
            <AltitudeMeters>2435.199951171875</AltitudeMeters>
            <DistanceMeters>32382.093502131</DistanceMeters>
          </Trackpoint>
          <Trackpoint>
            <Time>2022-07-10T09:02:49.000Z</Time>
            <Position>
              <LatitudeDegrees>42.7599392272531986236572265625</LatitudeDegrees>
              <LongitudeDegrees>-0.19878664053976535797119140625</LongitudeDegrees>
            </Position>
            <AltitudeMeters>2436.199951171875</AltitudeMeters>
            <DistanceMeters>32384.653938714</DistanceMeters>
          </Trackpoint>
          <Trackpoint>
            <Time>2022-07-10T09:02:50.000Z</Time>
            <Position>
              <LatitudeDegrees>42.75993444956839084625244140625</LatitudeDegrees>
              <LongitudeDegrees>-0.1987930946052074432373046875</LongitudeDegrees>
            </Position>
            <AltitudeMeters>2436.60009765625</AltitudeMeters>
            <DistanceMeters>32385.402179811</DistanceMeters>
          </Trackpoint>
          <Trackpoint>
            <Time>2022-07-10T09:02:55.000Z</Time>
            <Position>
              <LatitudeDegrees>42.75988818146288394927978515625</LatitudeDegrees>
              <LongitudeDegrees>-0.19880977459251880645751953125</LongitudeDegrees>
            </Position>
            <AltitudeMeters>2437.39990234375</AltitudeMeters>
            <DistanceMeters>32390.729611675</DistanceMeters>
          </Trackpoint>
          <Trackpoint>
            <Time>2022-07-10T09:02:56.000Z</Time>
            <Position>
              <LatitudeDegrees>42.75987963192164897918701171875</LatitudeDegrees>
              <LongitudeDegrees>-0.19881882704794406890869140625</LongitudeDegrees>
            </Position>
            <AltitudeMeters>2437.60009765625</AltitudeMeters>
            <DistanceMeters>32391.935365509</DistanceMeters>
          </Trackpoint>
          <Trackpoint>
            <Time>2022-07-10T09:02:59.000Z</Time>
            <Position>
              <LatitudeDegrees>42.75986337102949619293212890625</LatitudeDegrees>
              <LongitudeDegrees>-0.198854617774486541748046875</LongitudeDegrees>
            </Position>
            <AltitudeMeters>2438.60009765625</AltitudeMeters>
            <DistanceMeters>32395.37475501</DistanceMeters>
          </Trackpoint>
          <Trackpoint>
            <Time>2022-07-10T09:03:03.000Z</Time>
            <Position>
              <LatitudeDegrees>42.759838812053203582763671875</LatitudeDegrees>
              <LongitudeDegrees>-0.19889811985194683074951171875</LongitudeDegrees>
            </Position>
            <AltitudeMeters>2439.199951171875</AltitudeMeters>
            <DistanceMeters>32399.85816333</DistanceMeters>
          </Trackpoint>
          <Trackpoint>
            <Time>2022-07-10T09:03:05.000Z</Time>
            <Position>
              <LatitudeDegrees>42.7598419971764087677001953125</LatitudeDegrees>
              <LongitudeDegrees>-0.198926031589508056640625</LongitudeDegrees>
            </Position>
            <AltitudeMeters>2439.60009765625</AltitudeMeters>
            <DistanceMeters>32402.166354202</DistanceMeters>
          </Trackpoint>
          <Trackpoint>
            <Time>2022-07-10T09:03:08.000Z</Time>
            <Position>
              <LatitudeDegrees>42.75985197164118289947509765625</LatitudeDegrees>
              <LongitudeDegrees>-0.198955535888671875</LongitudeDegrees>
            </Position>
            <AltitudeMeters>2440.199951171875</AltitudeMeters>
            <DistanceMeters>32404.822006609</DistanceMeters>
          </Trackpoint>
          <Trackpoint>
            <Time>2022-07-10T09:03:09.000Z</Time>
            <Position>
              <LatitudeDegrees>42.75986404158174991607666015625</LatitudeDegrees>
              <LongitudeDegrees>-0.19897405989468097686767578125</LongitudeDegrees>
            </Position>
            <AltitudeMeters>2440.39990234375</AltitudeMeters>
            <DistanceMeters>32406.846767016</DistanceMeters>
          </Trackpoint>
          <Trackpoint>
            <Time>2022-07-10T09:03:10.000Z</Time>
            <Position>
              <LatitudeDegrees>42.75987594388425350189208984375</LatitudeDegrees>
              <LongitudeDegrees>-0.198992080986499786376953125</LongitudeDegrees>
            </Position>
            <AltitudeMeters>2440.800048828125</AltitudeMeters>
            <DistanceMeters>32408.826426879</DistanceMeters>
          </Trackpoint>
          <Trackpoint>
            <Time>2022-07-10T09:03:12.000Z</Time>
            <Position>
              <LatitudeDegrees>42.75989254005253314971923828125</LatitudeDegrees>
              <LongitudeDegrees>-0.19902016036212444305419921875</LongitudeDegrees>
            </Position>
            <AltitudeMeters>2441.199951171875</AltitudeMeters>
            <DistanceMeters>32411.770721937</DistanceMeters>
          </Trackpoint>
          <Trackpoint>
            <Time>2022-07-10T09:03:15.000Z</Time>
            <Position>
              <LatitudeDegrees>42.759905867278575897216796875</LatitudeDegrees>
              <LongitudeDegrees>-0.1990442164242267608642578125</LongitudeDegrees>
            </Position>
            <AltitudeMeters>2441.60009765625</AltitudeMeters>
            <DistanceMeters>32414.232262368</DistanceMeters>
          </Trackpoint>
          <Trackpoint>
            <Time>2022-07-10T09:03:16.000Z</Time>
            <Position>
              <LatitudeDegrees>42.7599048614501953125</LatitudeDegrees>
              <LongitudeDegrees>-0.1990408636629581451416015625</LongitudeDegrees>
            </Position>
            <AltitudeMeters>2442.199951171875</AltitudeMeters>
            <DistanceMeters>32414.532763224</DistanceMeters>
          </Trackpoint>
          <Trackpoint>
            <Time>2022-07-10T09:03:20.000Z</Time>
            <Position>
              <LatitudeDegrees>42.75989237241446971893310546875</LatitudeDegrees>
              <LongitudeDegrees>-0.19903474487364292144775390625</LongitudeDegrees>
            </Position>
            <AltitudeMeters>2443.199951171875</AltitudeMeters>
            <DistanceMeters>32416.007974539</DistanceMeters>
          </Trackpoint>
          <Trackpoint>
            <Time>2022-07-10T09:03:21.000Z</Time>
            <Position>
              <LatitudeDegrees>42.7598919533193111419677734375</LatitudeDegrees>
              <LongitudeDegrees>-0.19902938045561313629150390625</LongitudeDegrees>
            </Position>
            <AltitudeMeters>2443.39990234375</AltitudeMeters>
            <DistanceMeters>32416.44344165</DistanceMeters>
          </Trackpoint>
          <Trackpoint>
            <Time>2022-07-10T09:03:25.000Z</Time>
            <Position>
              <LatitudeDegrees>42.7598993293941020965576171875</LatitudeDegrees>
              <LongitudeDegrees>-0.199006162583827972412109375</LongitudeDegrees>
            </Position>
            <AltitudeMeters>2443.39990234375</AltitudeMeters>
            <DistanceMeters>32418.512319664</DistanceMeters>
          </Trackpoint>
          <Trackpoint>
            <Time>2022-07-10T09:03:26.000Z</Time>
            <Position>
              <LatitudeDegrees>42.7598986588418483734130859375</LatitudeDegrees>
              <LongitudeDegrees>-0.1990070007741451263427734375</LongitudeDegrees>
            </Position>
            <AltitudeMeters>2443.39990234375</AltitudeMeters>
            <DistanceMeters>32418.646707732</DistanceMeters>
          </Trackpoint>
          <Trackpoint>
            <Time>2022-07-10T09:03:27.000Z</Time>
            <Position>
              <LatitudeDegrees>42.75990075431764125823974609375</LatitudeDegrees>
              <LongitudeDegrees>-0.1990053243935108184814453125</LongitudeDegrees>
            </Position>
            <AltitudeMeters>2443.199951171875</AltitudeMeters>
            <DistanceMeters>32418.898124786</DistanceMeters>
          </Trackpoint>
          <Trackpoint>
            <Time>2022-07-10T09:03:28.000Z</Time>
            <Position>
              <LatitudeDegrees>42.759907543659210205078125</LatitudeDegrees>
              <LongitudeDegrees>-0.19900255836546421051025390625</LongitudeDegrees>
            </Position>
            <AltitudeMeters>2443</AltitudeMeters>
            <DistanceMeters>32419.681735147</DistanceMeters>
          </Trackpoint>
          <Trackpoint>
            <Time>2022-07-10T09:03:29.000Z</Time>
            <Position>
              <LatitudeDegrees>42.7599100582301616668701171875</LatitudeDegrees>
              <LongitudeDegrees>-0.19899954088032245635986328125</LongitudeDegrees>
            </Position>
            <AltitudeMeters>2443</AltitudeMeters>
            <DistanceMeters>32420.037292555</DistanceMeters>
          </Trackpoint>
          <Trackpoint>
            <Time>2022-07-10T09:03:31.000Z</Time>
            <Position>
              <LatitudeDegrees>42.7599234692752361297607421875</LatitudeDegrees>
              <LongitudeDegrees>-0.198965929448604583740234375</LongitudeDegrees>
            </Position>
            <AltitudeMeters>2442.800048828125</AltitudeMeters>
            <DistanceMeters>32423.16307929</DistanceMeters>
          </Trackpoint>
          <Trackpoint>
            <Time>2022-07-10T09:03:32.000Z</Time>
            <Position>
              <LatitudeDegrees>42.759928666055202484130859375</LatitudeDegrees>
              <LongitudeDegrees>-0.19896232523024082183837890625</LongitudeDegrees>
            </Position>
            <AltitudeMeters>2442.60009765625</AltitudeMeters>
            <DistanceMeters>32423.807581824</DistanceMeters>
          </Trackpoint>
          <Trackpoint>
            <Time>2022-07-10T09:03:38.000Z</Time>
            <Position>
              <LatitudeDegrees>42.75997770018875598907470703125</LatitudeDegrees>
              <LongitudeDegrees>-0.19897305406630039215087890625</LongitudeDegrees>
            </Position>
            <AltitudeMeters>2442.800048828125</AltitudeMeters>
            <DistanceMeters>32429.335490894</DistanceMeters>
          </Trackpoint>
          <Trackpoint>
            <Time>2022-07-10T09:03:44.000Z</Time>
            <Position>
              <LatitudeDegrees>42.75988013483583927154541015625</LatitudeDegrees>
              <LongitudeDegrees>-0.19902384839951992034912109375</LongitudeDegrees>
            </Position>
            <AltitudeMeters>2443.39990234375</AltitudeMeters>
            <DistanceMeters>32440.961029769</DistanceMeters>
          </Trackpoint>
          <Trackpoint>
            <Time>2022-07-10T09:03:48.000Z</Time>
            <Position>
              <LatitudeDegrees>42.75982615537941455841064453125</LatitudeDegrees>
              <LongitudeDegrees>-0.1990334875881671905517578125</LongitudeDegrees>
            </Position>
            <AltitudeMeters>2444</AltitudeMeters>
            <DistanceMeters>32447.020426672</DistanceMeters>
          </Trackpoint>
          <Trackpoint>
            <Time>2022-07-10T09:03:49.000Z</Time>
            <Position>
              <LatitudeDegrees>42.75981157086789608001708984375</LatitudeDegrees>
              <LongitudeDegrees>-0.19904228858649730682373046875</LongitudeDegrees>
            </Position>
            <AltitudeMeters>2444.199951171875</AltitudeMeters>
            <DistanceMeters>32448.798213711</DistanceMeters>
          </Trackpoint>
          <Trackpoint>
            <Time>2022-07-10T09:03:50.000Z</Time>
            <Position>
              <LatitudeDegrees>42.7598042786121368408203125</LatitudeDegrees>
              <LongitudeDegrees>-0.19904815591871738433837890625</LongitudeDegrees>
            </Position>
            <AltitudeMeters>2444.39990234375</AltitudeMeters>
            <DistanceMeters>32449.738930188</DistanceMeters>
          </Trackpoint>
          <Trackpoint>
            <Time>2022-07-10T09:03:51.000Z</Time>
            <Position>
              <LatitudeDegrees>42.7597977407276630401611328125</LatitudeDegrees>
              <LongitudeDegrees>-0.19905150867998600006103515625</LongitudeDegrees>
            </Position>
            <AltitudeMeters>2444.60009765625</AltitudeMeters>
            <DistanceMeters>32450.510930865</DistanceMeters>
          </Trackpoint>
          <Trackpoint>
            <Time>2022-07-10T09:03:52.000Z</Time>
            <Position>
              <LatitudeDegrees>42.75979178957641124725341796875</LatitudeDegrees>
              <LongitudeDegrees>-0.19905787892639636993408203125</LongitudeDegrees>
            </Position>
            <AltitudeMeters>2444.800048828125</AltitudeMeters>
            <DistanceMeters>32451.350184083</DistanceMeters>
          </Trackpoint>
          <Trackpoint>
            <Time>2022-07-10T09:03:55.000Z</Time>
            <Position>
              <LatitudeDegrees>42.75977217592298984527587890625</LatitudeDegrees>
              <LongitudeDegrees>-0.19908922724425792694091796875</LongitudeDegrees>
            </Position>
            <AltitudeMeters>2445.39990234375</AltitudeMeters>
            <DistanceMeters>32454.715257018</DistanceMeters>
          </Trackpoint>
          <Trackpoint>
            <Time>2022-07-10T09:03:57.000Z</Time>
            <Position>
              <LatitudeDegrees>42.75976429693400859832763671875</LatitudeDegrees>
              <LongitudeDegrees>-0.19912912510335445404052734375</LongitudeDegrees>
            </Position>
            <AltitudeMeters>2445.60009765625</AltitudeMeters>
            <DistanceMeters>32458.091046773</DistanceMeters>
          </Trackpoint>
          <Trackpoint>
            <Time>2022-07-10T09:04:00.000Z</Time>
            <Position>
              <LatitudeDegrees>42.7597615309059619903564453125</LatitudeDegrees>
              <LongitudeDegrees>-0.19917924888432025909423828125</LongitudeDegrees>
            </Position>
            <AltitudeMeters>2446</AltitudeMeters>
            <DistanceMeters>32462.198136107</DistanceMeters>
          </Trackpoint>
          <Trackpoint>
            <Time>2022-07-10T09:04:02.000Z</Time>
            <Position>
              <LatitudeDegrees>42.75974149815738201141357421875</LatitudeDegrees>
              <LongitudeDegrees>-0.1992009580135345458984375</LongitudeDegrees>
            </Position>
            <AltitudeMeters>2446.60009765625</AltitudeMeters>
            <DistanceMeters>32465.048937538</DistanceMeters>
          </Trackpoint>
          <Trackpoint>
            <Time>2022-07-10T09:04:03.000Z</Time>
            <Position>
              <LatitudeDegrees>42.75973009876906871795654296875</LatitudeDegrees>
              <LongitudeDegrees>-0.19921830855309963226318359375</LongitudeDegrees>
            </Position>
            <AltitudeMeters>2446.800048828125</AltitudeMeters>
            <DistanceMeters>32466.954217237</DistanceMeters>
          </Trackpoint>
          <Trackpoint>
            <Time>2022-07-10T09:04:04.000Z</Time>
            <Position>
              <LatitudeDegrees>42.75972305797040462493896484375</LatitudeDegrees>
              <LongitudeDegrees>-0.1992296241223812103271484375</LongitudeDegrees>
            </Position>
            <AltitudeMeters>2446.800048828125</AltitudeMeters>
            <DistanceMeters>32468.16743711</DistanceMeters>
          </Trackpoint>
          <Trackpoint>
            <Time>2022-07-10T09:04:08.000Z</Time>
            <Position>
              <LatitudeDegrees>42.7597176097333431243896484375</LatitudeDegrees>
              <LongitudeDegrees>-0.19927983172237873077392578125</LongitudeDegrees>
            </Position>
            <AltitudeMeters>2447.800048828125</AltitudeMeters>
            <DistanceMeters>32472.313913391</DistanceMeters>
          </Trackpoint>
          <Trackpoint>
            <Time>2022-07-10T09:04:09.000Z</Time>
            <Position>
              <LatitudeDegrees>42.75971886701881885528564453125</LatitudeDegrees>
              <LongitudeDegrees>-0.1992933265864849090576171875</LongitudeDegrees>
            </Position>
            <AltitudeMeters>2448</AltitudeMeters>
            <DistanceMeters>32473.426172566</DistanceMeters>
          </Trackpoint>
          <Trackpoint>
            <Time>2022-07-10T09:04:12.000Z</Time>
            <Position>
              <LatitudeDegrees>42.7597172744572162628173828125</LatitudeDegrees>
              <LongitudeDegrees>-0.19932777620851993560791015625</LongitudeDegrees>
            </Position>
            <AltitudeMeters>2448.800048828125</AltitudeMeters>
            <DistanceMeters>32476.248322</DistanceMeters>
          </Trackpoint>
          <Trackpoint>
            <Time>2022-07-10T09:04:13.000Z</Time>
            <Position>
              <LatitudeDegrees>42.75971031747758388519287109375</LatitudeDegrees>
              <LongitudeDegrees>-0.1993355713784694671630859375</LongitudeDegrees>
            </Position>
            <AltitudeMeters>2449.199951171875</AltitudeMeters>
            <DistanceMeters>32477.253990216</DistanceMeters>
          </Trackpoint>
          <Trackpoint>
            <Time>2022-07-10T09:04:17.000Z</Time>
            <Position>
              <LatitudeDegrees>42.75970394723117351531982421875</LatitudeDegrees>
              <LongitudeDegrees>-0.1993865333497524261474609375</LongitudeDegrees>
            </Position>
            <AltitudeMeters>2450</AltitudeMeters>
            <DistanceMeters>32481.478138776</DistanceMeters>
          </Trackpoint>
          <Trackpoint>
            <Time>2022-07-10T09:04:20.000Z</Time>
            <Position>
              <LatitudeDegrees>42.75971014983952045440673828125</LatitudeDegrees>
              <LongitudeDegrees>-0.1994343101978302001953125</LongitudeDegrees>
            </Position>
            <AltitudeMeters>2450.39990234375</AltitudeMeters>
            <DistanceMeters>32485.442017307</DistanceMeters>
          </Trackpoint>
          <Trackpoint>
            <Time>2022-07-10T09:04:22.000Z</Time>
            <Position>
              <LatitudeDegrees>42.7597058750689029693603515625</LatitudeDegrees>
              <LongitudeDegrees>-0.19944931380450725555419921875</LongitudeDegrees>
            </Position>
            <AltitudeMeters>2451.199951171875</AltitudeMeters>
            <DistanceMeters>32486.758746086</DistanceMeters>
          </Trackpoint>
          <Trackpoint>
            <Time>2022-07-10T09:04:24.000Z</Time>
            <Position>
              <LatitudeDegrees>42.7596917934715747833251953125</LatitudeDegrees>
              <LongitudeDegrees>-0.19946389831602573394775390625</LongitudeDegrees>
            </Position>
            <AltitudeMeters>2451.800048828125</AltitudeMeters>
            <DistanceMeters>32488.72467404</DistanceMeters>
          </Trackpoint>
          <Trackpoint>
            <Time>2022-07-10T09:04:26.000Z</Time>
            <Position>
              <LatitudeDegrees>42.7596867643296718597412109375</LatitudeDegrees>
              <LongitudeDegrees>-0.19948191940784454345703125</LongitudeDegrees>
            </Position>
            <AltitudeMeters>2452.39990234375</AltitudeMeters>
            <DistanceMeters>32490.29764605</DistanceMeters>
          </Trackpoint>
          <Trackpoint>
            <Time>2022-07-10T09:04:28.000Z</Time>
            <Position>
              <LatitudeDegrees>42.75968802161514759063720703125</LatitudeDegrees>
              <LongitudeDegrees>-0.199503041803836822509765625</LongitudeDegrees>
            </Position>
            <AltitudeMeters>2452.60009765625</AltitudeMeters>
            <DistanceMeters>32492.029115189</DistanceMeters>
          </Trackpoint>
          <Trackpoint>
            <Time>2022-07-10T09:04:30.000Z</Time>
            <Position>
              <LatitudeDegrees>42.75969925336539745330810546875</LatitudeDegrees>
              <LongitudeDegrees>-0.1995233260095119476318359375</LongitudeDegrees>
            </Position>
            <AltitudeMeters>2453.199951171875</AltitudeMeters>
            <DistanceMeters>32494.10235333</DistanceMeters>
          </Trackpoint>
          <Trackpoint>
            <Time>2022-07-10T09:04:31.000Z</Time>
            <Position>
              <LatitudeDegrees>42.7597058750689029693603515625</LatitudeDegrees>
              <LongitudeDegrees>-0.19953095354139804840087890625</LongitudeDegrees>
            </Position>
            <AltitudeMeters>2453.60009765625</AltitudeMeters>
            <DistanceMeters>32495.062076101</DistanceMeters>
          </Trackpoint>
          <Trackpoint>
            <Time>2022-07-10T09:04:33.000Z</Time>
            <Position>
              <LatitudeDegrees>42.75971710681915283203125</LatitudeDegrees>
              <LongitudeDegrees>-0.19954185001552104949951171875</LongitudeDegrees>
            </Position>
            <AltitudeMeters>2453.800048828125</AltitudeMeters>
            <DistanceMeters>32496.597279655</DistanceMeters>
          </Trackpoint>
          <Trackpoint>
            <Time>2022-07-10T09:04:36.000Z</Time>
            <Position>
              <LatitudeDegrees>42.75972289033234119415283203125</LatitudeDegrees>
              <LongitudeDegrees>-0.1995555125176906585693359375</LongitudeDegrees>
            </Position>
            <AltitudeMeters>2454.39990234375</AltitudeMeters>
            <DistanceMeters>32497.886284723</DistanceMeters>
          </Trackpoint>
          <Trackpoint>
            <Time>2022-07-10T09:04:37.000Z</Time>
            <Position>
              <LatitudeDegrees>42.75972289033234119415283203125</LatitudeDegrees>
              <LongitudeDegrees>-0.1995628885924816131591796875</LongitudeDegrees>
            </Position>
            <AltitudeMeters>2455</AltitudeMeters>
            <DistanceMeters>32498.487286435</DistanceMeters>
          </Trackpoint>
          <Trackpoint>
            <Time>2022-07-10T09:04:40.000Z</Time>
            <Position>
              <LatitudeDegrees>42.759736217558383941650390625</LatitudeDegrees>
              <LongitudeDegrees>-0.1995917223393917083740234375</LongitudeDegrees>
            </Position>
            <AltitudeMeters>2455.800048828125</AltitudeMeters>
            <DistanceMeters>32501.272396067</DistanceMeters>
          </Trackpoint>
          <Trackpoint>
            <Time>2022-07-10T09:04:41.000Z</Time>
            <Position>
              <LatitudeDegrees>42.7597425878047943115234375</LatitudeDegrees>
              <LongitudeDegrees>-0.1995980925858020782470703125</LongitudeDegrees>
            </Position>
            <AltitudeMeters>2456.199951171875</AltitudeMeters>
            <DistanceMeters>32502.148499085</DistanceMeters>
          </Trackpoint>
          <Trackpoint>
            <Time>2022-07-10T09:04:43.000Z</Time>
            <Position>
              <LatitudeDegrees>42.75975105352699756622314453125</LatitudeDegrees>
              <LongitudeDegrees>-0.199608989059925079345703125</LongitudeDegrees>
            </Position>
            <AltitudeMeters>2456.60009765625</AltitudeMeters>
            <DistanceMeters>32503.444490682</DistanceMeters>
          </Trackpoint>
          <Trackpoint>
            <Time>2022-07-10T09:04:46.000Z</Time>
            <Position>
              <LatitudeDegrees>42.75976899079978466033935546875</LatitudeDegrees>
              <LongitudeDegrees>-0.1996279321610927581787109375</LongitudeDegrees>
            </Position>
            <AltitudeMeters>2457.199951171875</AltitudeMeters>
            <DistanceMeters>32505.969413249</DistanceMeters>
          </Trackpoint>
          <Trackpoint>
            <Time>2022-07-10T09:04:50.000Z</Time>
            <Position>
              <LatitudeDegrees>42.75978407822549343109130859375</LatitudeDegrees>
              <LongitudeDegrees>-0.19965550862252712249755859375</LongitudeDegrees>
            </Position>
            <AltitudeMeters>2458.199951171875</AltitudeMeters>
            <DistanceMeters>32508.778734663</DistanceMeters>
          </Trackpoint>
          <Trackpoint>
            <Time>2022-07-10T09:04:51.000Z</Time>
            <Position>
              <LatitudeDegrees>42.75979078374803066253662109375</LatitudeDegrees>
              <LongitudeDegrees>-0.199661962687969207763671875</LongitudeDegrees>
            </Position>
            <AltitudeMeters>2458.60009765625</AltitudeMeters>
            <DistanceMeters>32509.690198888</DistanceMeters>
          </Trackpoint>
          <Trackpoint>
            <Time>2022-07-10T09:04:55.000Z</Time>
            <Position>
              <LatitudeDegrees>42.75976630859076976776123046875</LatitudeDegrees>
              <LongitudeDegrees>-0.199712254106998443603515625</LongitudeDegrees>
            </Position>
            <AltitudeMeters>2459.60009765625</AltitudeMeters>
            <DistanceMeters>32514.622442388</DistanceMeters>
          </Trackpoint>
          <Trackpoint>
            <Time>2022-07-10T09:04:58.000Z</Time>
            <Position>
              <LatitudeDegrees>42.75975398719310760498046875</LatitudeDegrees>
              <LongitudeDegrees>-0.19974653609097003936767578125</LongitudeDegrees>
            </Position>
            <AltitudeMeters>2460.199951171875</AltitudeMeters>
            <DistanceMeters>32517.742445979</DistanceMeters>
          </Trackpoint>
          <Trackpoint>
            <Time>2022-07-10T09:05:00.000Z</Time>
            <Position>
              <LatitudeDegrees>42.75975256226956844329833984375</LatitudeDegrees>
              <LongitudeDegrees>-0.199749469757080078125</LongitudeDegrees>
            </Position>
            <AltitudeMeters>2460.60009765625</AltitudeMeters>
            <DistanceMeters>32518.027526122</DistanceMeters>
          </Trackpoint>
          <Trackpoint>
            <Time>2022-07-10T09:05:02.000Z</Time>
            <Position>
              <LatitudeDegrees>42.75974719785153865814208984375</LatitudeDegrees>
              <LongitudeDegrees>-0.19974888302385807037353515625</LongitudeDegrees>
            </Position>
            <AltitudeMeters>2461.199951171875</AltitudeMeters>
            <DistanceMeters>32518.628527834</DistanceMeters>
          </Trackpoint>
          <Trackpoint>
            <Time>2022-07-10T09:05:04.000Z</Time>
            <Position>
              <LatitudeDegrees>42.75974652729928493499755859375</LatitudeDegrees>
              <LongitudeDegrees>-0.1997563429176807403564453125</LongitudeDegrees>
            </Position>
            <AltitudeMeters>2461.60009765625</AltitudeMeters>
            <DistanceMeters>32519.236995692</DistanceMeters>
          </Trackpoint>
          <Trackpoint>
            <Time>2022-07-10T09:05:06.000Z</Time>
            <Position>
              <LatitudeDegrees>42.75975541211664676666259765625</LatitudeDegrees>
              <LongitudeDegrees>-0.19976816140115261077880859375</LongitudeDegrees>
            </Position>
            <AltitudeMeters>2462.199951171875</AltitudeMeters>
            <DistanceMeters>32520.61733845</DistanceMeters>
          </Trackpoint>
          <Trackpoint>
            <Time>2022-07-10T09:05:09.000Z</Time>
            <Position>
              <LatitudeDegrees>42.75977117009460926055908203125</LatitudeDegrees>
              <LongitudeDegrees>-0.19979665987193584442138671875</LongitudeDegrees>
            </Position>
            <AltitudeMeters>2462.800048828125</AltitudeMeters>
            <DistanceMeters>32523.533900126</DistanceMeters>
          </Trackpoint>
          <Trackpoint>
            <Time>2022-07-10T09:05:11.000Z</Time>
            <Position>
              <LatitudeDegrees>42.7597813121974468231201171875</LatitudeDegrees>
              <LongitudeDegrees>-0.199790708720684051513671875</LongitudeDegrees>
            </Position>
            <AltitudeMeters>2463</AltitudeMeters>
            <DistanceMeters>32524.765587116</DistanceMeters>
          </Trackpoint>
          <Trackpoint>
            <Time>2022-07-10T09:05:12.000Z</Time>
            <Position>
              <LatitudeDegrees>42.759785838425159454345703125</LatitudeDegrees>
              <LongitudeDegrees>-0.1997868530452251434326171875</LongitudeDegrees>
            </Position>
            <AltitudeMeters>2463.199951171875</AltitudeMeters>
            <DistanceMeters>32525.366588828</DistanceMeters>
          </Trackpoint>
          <Trackpoint>
            <Time>2022-07-10T09:05:16.000Z</Time>
            <Position>
              <LatitudeDegrees>42.75980520062148571014404296875</LatitudeDegrees>
              <LongitudeDegrees>-0.1997721008956432342529296875</LongitudeDegrees>
            </Position>
            <AltitudeMeters>2463.800048828125</AltitudeMeters>
            <DistanceMeters>32527.835455289</DistanceMeters>
          </Trackpoint>
          <Trackpoint>
            <Time>2022-07-10T09:05:18.000Z</Time>
            <Position>
              <LatitudeDegrees>42.75984258390963077545166015625</LatitudeDegrees>
              <LongitudeDegrees>-0.19973832182586193084716796875</LongitudeDegrees>
            </Position>
            <AltitudeMeters>2464.199951171875</AltitudeMeters>
            <DistanceMeters>32532.82865477</DistanceMeters>
          </Trackpoint>
          <Trackpoint>
            <Time>2022-07-10T09:05:20.000Z</Time>
            <Position>
              <LatitudeDegrees>42.75986705906689167022705078125</LatitudeDegrees>
              <LongitudeDegrees>-0.1997187919914722442626953125</LongitudeDegrees>
            </Position>
            <AltitudeMeters>2465</AltitudeMeters>
            <DistanceMeters>32535.986059463</DistanceMeters>
          </Trackpoint>
          <Trackpoint>
            <Time>2022-07-10T09:05:25.000Z</Time>
            <Position>
              <LatitudeDegrees>42.759910561144351959228515625</LatitudeDegrees>
              <LongitudeDegrees>-0.19971082918345928192138671875</LongitudeDegrees>
            </Position>
            <AltitudeMeters>2466.199951171875</AltitudeMeters>
            <DistanceMeters>32540.872317962</DistanceMeters>
          </Trackpoint>
          <Trackpoint>
            <Time>2022-07-10T09:05:26.000Z</Time>
            <Position>
              <LatitudeDegrees>42.759901843965053558349609375</LatitudeDegrees>
              <LongitudeDegrees>-0.1997347176074981689453125</LongitudeDegrees>
            </Position>
            <AltitudeMeters>2466.199951171875</AltitudeMeters>
            <DistanceMeters>32543.051726186</DistanceMeters>
          </Trackpoint>
          <Trackpoint>
            <Time>2022-07-10T09:05:32.000Z</Time>
            <Position>
              <LatitudeDegrees>42.75981810875236988067626953125</LatitudeDegrees>
              <LongitudeDegrees>-0.199797414243221282958984375</LongitudeDegrees>
            </Position>
            <AltitudeMeters>2466.199951171875</AltitudeMeters>
            <DistanceMeters>32553.687079379</DistanceMeters>
          </Trackpoint>
          <Trackpoint>
            <Time>2022-07-10T09:05:35.000Z</Time>
            <Position>
              <LatitudeDegrees>42.75981743820011615753173828125</LatitudeDegrees>
              <LongitudeDegrees>-0.199836306273937225341796875</LongitudeDegrees>
            </Position>
            <AltitudeMeters>2466.39990234375</AltitudeMeters>
            <DistanceMeters>32556.865861464</DistanceMeters>
          </Trackpoint>
          <Trackpoint>
            <Time>2022-07-10T09:05:38.000Z</Time>
            <Position>
              <LatitudeDegrees>42.75981710292398929595947265625</LatitudeDegrees>
              <LongitudeDegrees>-0.19987511448562145233154296875</LongitudeDegrees>
            </Position>
            <AltitudeMeters>2466.800048828125</AltitudeMeters>
            <DistanceMeters>32560.037533761</DistanceMeters>
          </Trackpoint>
          <Trackpoint>
            <Time>2022-07-10T09:05:40.000Z</Time>
            <Position>
              <LatitudeDegrees>42.7598118223249912261962890625</LatitudeDegrees>
              <LongitudeDegrees>-0.19988156855106353759765625</LongitudeDegrees>
            </Position>
            <AltitudeMeters>2467</AltitudeMeters>
            <DistanceMeters>32560.826884934</DistanceMeters>
          </Trackpoint>
          <Trackpoint>
            <Time>2022-07-10T09:05:41.000Z</Time>
            <Position>
              <LatitudeDegrees>42.75980385951697826385498046875</LatitudeDegrees>
              <LongitudeDegrees>-0.19988466985523700714111328125</LongitudeDegrees>
            </Position>
            <AltitudeMeters>2467</AltitudeMeters>
            <DistanceMeters>32561.748203112</DistanceMeters>
          </Trackpoint>
          <Trackpoint>
            <Time>2022-07-10T09:05:42.000Z</Time>
            <Position>
              <LatitudeDegrees>42.75980151258409023284912109375</LatitudeDegrees>
              <LongitudeDegrees>-0.19989120773971080780029296875</LongitudeDegrees>
            </Position>
            <AltitudeMeters>2467.199951171875</AltitudeMeters>
            <DistanceMeters>32562.341644753</DistanceMeters>
          </Trackpoint>
          <Trackpoint>
            <Time>2022-07-10T09:05:45.000Z</Time>
            <Position>
              <LatitudeDegrees>42.75979011319577693939208984375</LatitudeDegrees>
              <LongitudeDegrees>-0.19989405758678913116455078125</LongitudeDegrees>
            </Position>
            <AltitudeMeters>2467.60009765625</AltitudeMeters>
            <DistanceMeters>32563.630649821</DistanceMeters>
          </Trackpoint>
          <Trackpoint>
            <Time>2022-07-10T09:05:47.000Z</Time>
            <Position>
              <LatitudeDegrees>42.75977720506489276885986328125</LatitudeDegrees>
              <LongitudeDegrees>-0.19989221356809139251708984375</LongitudeDegrees>
            </Position>
            <AltitudeMeters>2467.800048828125</AltitudeMeters>
            <DistanceMeters>32565.078053613</DistanceMeters>
          </Trackpoint>
          <Trackpoint>
            <Time>2022-07-10T09:05:49.000Z</Time>
            <Position>
              <LatitudeDegrees>42.75976547040045261383056640625</LatitudeDegrees>
              <LongitudeDegrees>-0.19988953135907649993896484375</LongitudeDegrees>
            </Position>
            <AltitudeMeters>2468.199951171875</AltitudeMeters>
            <DistanceMeters>32566.401622587</DistanceMeters>
          </Trackpoint>
          <Trackpoint>
            <Time>2022-07-10T09:05:50.000Z</Time>
            <Position>
              <LatitudeDegrees>42.7597653865814208984375</LatitudeDegrees>
              <LongitudeDegrees>-0.19989590160548686981201171875</LongitudeDegrees>
            </Position>
            <AltitudeMeters>2468.39990234375</AltitudeMeters>
            <DistanceMeters>32566.922105337</DistanceMeters>
          </Trackpoint>
          <Trackpoint>
            <Time>2022-07-10T09:05:54.000Z</Time>
            <Position>
              <LatitudeDegrees>42.759746946394443511962890625</LatitudeDegrees>
              <LongitudeDegrees>-0.19992087967693805694580078125</LongitudeDegrees>
            </Position>
            <AltitudeMeters>2468.60009765625</AltitudeMeters>
            <DistanceMeters>32569.81691292</DistanceMeters>
          </Trackpoint>
          <Trackpoint>
            <Time>2022-07-10T09:05:58.000Z</Time>
            <Position>
              <LatitudeDegrees>42.75972758419811725616455078125</LatitudeDegrees>
              <LongitudeDegrees>-0.1999481208622455596923828125</LongitudeDegrees>
            </Position>
            <AltitudeMeters>2469.39990234375</AltitudeMeters>
            <DistanceMeters>32572.916590538</DistanceMeters>
          </Trackpoint>
          <Trackpoint>
            <Time>2022-07-10T09:06:00.000Z</Time>
            <Position>
              <LatitudeDegrees>42.75971434079110622406005859375</LatitudeDegrees>
              <LongitudeDegrees>-0.19996698014438152313232421875</LongitudeDegrees>
            </Position>
            <AltitudeMeters>2469.800048828125</AltitudeMeters>
            <DistanceMeters>32575.049934985</DistanceMeters>
          </Trackpoint>
          <Trackpoint>
            <Time>2022-07-10T09:06:01.000Z</Time>
            <Position>
              <LatitudeDegrees>42.759708724915981292724609375</LatitudeDegrees>
              <LongitudeDegrees>-0.19997167401015758514404296875</LongitudeDegrees>
            </Position>
            <AltitudeMeters>2470</AltitudeMeters>
            <DistanceMeters>32575.779849028</DistanceMeters>
          </Trackpoint>
          <Trackpoint>
            <Time>2022-07-10T09:06:02.000Z</Time>
            <Position>
              <LatitudeDegrees>42.7597028575837612152099609375</LatitudeDegrees>
              <LongitudeDegrees>-0.199977792799472808837890625</LongitudeDegrees>
            </Position>
            <AltitudeMeters>2470.199951171875</AltitudeMeters>
            <DistanceMeters>32576.597299734</DistanceMeters>
          </Trackpoint>
          <Trackpoint>
            <Time>2022-07-10T09:06:03.000Z</Time>
            <Position>
              <LatitudeDegrees>42.75969070382416248321533203125</LatitudeDegrees>
              <LongitudeDegrees>-0.19998189993202686309814453125</LongitudeDegrees>
            </Position>
            <AltitudeMeters>2470.39990234375</AltitudeMeters>
            <DistanceMeters>32577.990664882</DistanceMeters>
          </Trackpoint>
          <Trackpoint>
            <Time>2022-07-10T09:06:07.000Z</Time>
            <Position>
              <LatitudeDegrees>42.759680561721324920654296875</LatitudeDegrees>
              <LongitudeDegrees>-0.19999497570097446441650390625</LongitudeDegrees>
            </Position>
            <AltitudeMeters>2471.39990234375</AltitudeMeters>
            <DistanceMeters>32579.549218879</DistanceMeters>
          </Trackpoint>
          <Trackpoint>
            <Time>2022-07-10T09:06:09.000Z</Time>
            <Position>
              <LatitudeDegrees>42.7596710063517093658447265625</LatitudeDegrees>
              <LongitudeDegrees>-0.1999967359006404876708984375</LongitudeDegrees>
            </Position>
            <AltitudeMeters>2471.60009765625</AltitudeMeters>
            <DistanceMeters>32580.624323425</DistanceMeters>
          </Trackpoint>
          <Trackpoint>
            <Time>2022-07-10T09:06:15.000Z</Time>
            <Position>
              <LatitudeDegrees>42.7596515603363513946533203125</LatitudeDegrees>
              <LongitudeDegrees>-0.2000041119754314422607421875</LongitudeDegrees>
            </Position>
            <AltitudeMeters>2472.199951171875</AltitudeMeters>
            <DistanceMeters>32582.871057217</DistanceMeters>
          </Trackpoint>
          <Trackpoint>
            <Time>2022-07-10T09:06:19.000Z</Time>
            <Position>
              <LatitudeDegrees>42.759631611406803131103515625</LatitudeDegrees>
              <LongitudeDegrees>-0.20003085024654865264892578125</LongitudeDegrees>
            </Position>
            <AltitudeMeters>2472.60009765625</AltitudeMeters>
            <DistanceMeters>32585.988165212</DistanceMeters>
          </Trackpoint>
          <Trackpoint>
            <Time>2022-07-10T09:06:22.000Z</Time>
            <Position>
              <LatitudeDegrees>42.75964007712900638580322265625</LatitudeDegrees>
              <LongitudeDegrees>-0.20006261765956878662109375</LongitudeDegrees>
            </Position>
            <AltitudeMeters>2473.60009765625</AltitudeMeters>
            <DistanceMeters>32588.748850728</DistanceMeters>
          </Trackpoint>
          <Trackpoint>
            <Time>2022-07-10T09:06:28.000Z</Time>
            <Position>
              <LatitudeDegrees>42.7596596069633960723876953125</LatitudeDegrees>
              <LongitudeDegrees>-0.20012690685689449310302734375</LongitudeDegrees>
            </Position>
            <AltitudeMeters>2474.60009765625</AltitudeMeters>
            <DistanceMeters>32594.433799593</DistanceMeters>
          </Trackpoint>
          <Trackpoint>
            <Time>2022-07-10T09:06:29.000Z</Time>
            <Position>
              <LatitudeDegrees>42.7596629597246646881103515625</LatitudeDegrees>
              <LongitudeDegrees>-0.20013595931231975555419921875</LongitudeDegrees>
            </Position>
            <AltitudeMeters>2474.800048828125</AltitudeMeters>
            <DistanceMeters>32595.251250299</DistanceMeters>
          </Trackpoint>
          <Trackpoint>
            <Time>2022-07-10T09:06:30.000Z</Time>
            <Position>
              <LatitudeDegrees>42.75966010987758636474609375</LatitudeDegrees>
              <LongitudeDegrees>-0.20014735870063304901123046875</LongitudeDegrees>
            </Position>
            <AltitudeMeters>2475</AltitudeMeters>
            <DistanceMeters>32596.234214276</DistanceMeters>
          </Trackpoint>
          <Trackpoint>
            <Time>2022-07-10T09:06:32.000Z</Time>
            <Position>
              <LatitudeDegrees>42.75965332053601741790771484375</LatitudeDegrees>
              <LongitudeDegrees>-0.20016529597342014312744140625</LongitudeDegrees>
            </Position>
            <AltitudeMeters>2475.39990234375</AltitudeMeters>
            <DistanceMeters>32597.885602506</DistanceMeters>
          </Trackpoint>
          <Trackpoint>
            <Time>2022-07-10T09:06:36.000Z</Time>
            <Position>
              <LatitudeDegrees>42.75964845903217792510986328125</LatitudeDegrees>
              <LongitudeDegrees>-0.200169570744037628173828125</LongitudeDegrees>
            </Position>
            <AltitudeMeters>2475.800048828125</AltitudeMeters>
            <DistanceMeters>32598.53010504</DistanceMeters>
          </Trackpoint>
          <Trackpoint>
            <Time>2022-07-10T09:06:42.000Z</Time>
            <Position>
              <LatitudeDegrees>42.75964192114770412445068359375</LatitudeDegrees>
              <LongitudeDegrees>-0.2001660503447055816650390625</LongitudeDegrees>
            </Position>
            <AltitudeMeters>2476.199951171875</AltitudeMeters>
            <DistanceMeters>32599.313715401</DistanceMeters>
          </Trackpoint>
          <Trackpoint>
            <Time>2022-07-10T09:06:48.000Z</Time>
            <Position>
              <LatitudeDegrees>42.759632281959056854248046875</LatitudeDegrees>
              <LongitudeDegrees>-0.2001553215086460113525390625</LongitudeDegrees>
            </Position>
            <AltitudeMeters>2477</AltitudeMeters>
            <DistanceMeters>32600.697325247</DistanceMeters>
          </Trackpoint>
          <Trackpoint>
            <Time>2022-07-10T09:06:50.000Z</Time>
            <Position>
              <LatitudeDegrees>42.75962582789361476898193359375</LatitudeDegrees>
              <LongitudeDegrees>-0.20015238784253597259521484375</LongitudeDegrees>
            </Position>
            <AltitudeMeters>2478</AltitudeMeters>
            <DistanceMeters>32601.457538962</DistanceMeters>
          </Trackpoint>
          <Trackpoint>
            <Time>2022-07-10T09:06:52.000Z</Time>
            <Position>
              <LatitudeDegrees>42.7596220560371875762939453125</LatitudeDegrees>
              <LongitudeDegrees>-0.200158171355724334716796875</LongitudeDegrees>
            </Position>
            <AltitudeMeters>2478.39990234375</AltitudeMeters>
            <DistanceMeters>32602.094997541</DistanceMeters>
          </Trackpoint>
          <Trackpoint>
            <Time>2022-07-10T09:06:53.000Z</Time>
            <Position>
              <LatitudeDegrees>42.7596213854849338531494140625</LatitudeDegrees>
              <LongitudeDegrees>-0.2001630328595638275146484375</LongitudeDegrees>
            </Position>
            <AltitudeMeters>2478.60009765625</AltitudeMeters>
            <DistanceMeters>32602.498161746</DistanceMeters>
          </Trackpoint>
          <Trackpoint>
            <Time>2022-07-10T09:06:55.000Z</Time>
            <Position>
              <LatitudeDegrees>42.75961576960980892181396484375</LatitudeDegrees>
              <LongitudeDegrees>-0.200163535773754119873046875</LongitudeDegrees>
            </Position>
            <AltitudeMeters>2478.800048828125</AltitudeMeters>
            <DistanceMeters>32603.128497659</DistanceMeters>
          </Trackpoint>
          <Trackpoint>
            <Time>2022-07-10T09:06:58.000Z</Time>
            <Position>
              <LatitudeDegrees>42.75961291976273059844970703125</LatitudeDegrees>
              <LongitudeDegrees>-0.20016563124954700469970703125</LongitudeDegrees>
            </Position>
            <AltitudeMeters>2479.199951171875</AltitudeMeters>
            <DistanceMeters>32603.484055067</DistanceMeters>
          </Trackpoint>
          <Trackpoint>
            <Time>2022-07-10T09:07:01.000Z</Time>
            <Position>
              <LatitudeDegrees>42.75959548540413379669189453125</LatitudeDegrees>
              <LongitudeDegrees>-0.2001727558672428131103515625</LongitudeDegrees>
            </Position>
            <AltitudeMeters>2479.800048828125</AltitudeMeters>
            <DistanceMeters>32605.508815474</DistanceMeters>
          </Trackpoint>
          <Trackpoint>
            <Time>2022-07-10T09:07:04.000Z</Time>
            <Position>
              <LatitudeDegrees>42.75958425365388393402099609375</LatitudeDegrees>
              <LongitudeDegrees>-0.20018541254103183746337890625</LongitudeDegrees>
            </Position>
            <AltitudeMeters>2479.60009765625</AltitudeMeters>
            <DistanceMeters>32607.132632681</DistanceMeters>
          </Trackpoint>
          <Trackpoint>
            <Time>2022-07-10T09:07:07.000Z</Time>
            <Position>
              <LatitudeDegrees>42.75956690311431884765625</LatitudeDegrees>
              <LongitudeDegrees>-0.20021558739244937896728515625</LongitudeDegrees>
            </Position>
            <AltitudeMeters>2479.39990234375</AltitudeMeters>
            <DistanceMeters>32610.26419188</DistanceMeters>
          </Trackpoint>
          <Trackpoint>
            <Time>2022-07-10T09:07:10.000Z</Time>
            <Position>
              <LatitudeDegrees>42.75954879820346832275390625</LatitudeDegrees>
              <LongitudeDegrees>-0.20019681192934513092041015625</LongitudeDegrees>
            </Position>
            <AltitudeMeters>2479.199951171875</AltitudeMeters>
            <DistanceMeters>32612.796257099</DistanceMeters>
          </Trackpoint>
          <Trackpoint>
            <Time>2022-07-10T09:07:11.000Z</Time>
            <Position>
              <LatitudeDegrees>42.7595575153827667236328125</LatitudeDegrees>
              <LongitudeDegrees>-0.200183652341365814208984375</LongitudeDegrees>
            </Position>
            <AltitudeMeters>2479.199951171875</AltitudeMeters>
            <DistanceMeters>32614.243660891</DistanceMeters>
          </Trackpoint>
          <Trackpoint>
            <Time>2022-07-10T09:07:17.000Z</Time>
            <Position>
              <LatitudeDegrees>42.75957017205655574798583984375</LatitudeDegrees>
              <LongitudeDegrees>-0.20017367787659168243408203125</LongitudeDegrees>
            </Position>
            <AltitudeMeters>2479</AltitudeMeters>
            <DistanceMeters>32615.87025623</DistanceMeters>
          </Trackpoint>
          <Trackpoint>
            <Time>2022-07-10T09:07:23.000Z</Time>
            <Position>
              <LatitudeDegrees>42.759588025510311126708984375</LatitudeDegrees>
              <LongitudeDegrees>-0.2001774497330188751220703125</LongitudeDegrees>
            </Position>
            <AltitudeMeters>2479.39990234375</AltitudeMeters>
            <DistanceMeters>32617.881592663</DistanceMeters>
          </Trackpoint>
          <Trackpoint>
            <Time>2022-07-10T09:07:24.000Z</Time>
            <Position>
              <LatitudeDegrees>42.75959565304219722747802734375</LatitudeDegrees>
              <LongitudeDegrees>-0.20017501898109912872314453125</LongitudeDegrees>
            </Position>
            <AltitudeMeters>2479.60009765625</AltitudeMeters>
            <DistanceMeters>32618.752526886</DistanceMeters>
          </Trackpoint>
          <Trackpoint>
            <Time>2022-07-10T09:07:30.000Z</Time>
            <Position>
              <LatitudeDegrees>42.7595734409987926483154296875</LatitudeDegrees>
              <LongitudeDegrees>-0.20018063485622406005859375</LongitudeDegrees>
            </Position>
            <AltitudeMeters>2479.60009765625</AltitudeMeters>
            <DistanceMeters>32621.26490095</DistanceMeters>
          </Trackpoint>
          <Trackpoint>
            <Time>2022-07-10T09:07:33.000Z</Time>
            <Position>
              <LatitudeDegrees>42.75953278876841068267822265625</LatitudeDegrees>
              <LongitudeDegrees>-0.20020754076540470123291015625</LongitudeDegrees>
            </Position>
            <AltitudeMeters>2480</AltitudeMeters>
            <DistanceMeters>32626.295037548</DistanceMeters>
          </Trackpoint>
          <Trackpoint>
            <Time>2022-07-10T09:07:34.000Z</Time>
            <Position>
              <LatitudeDegrees>42.759540416300296783447265625</LatitudeDegrees>
              <LongitudeDegrees>-0.2001982368528842926025390625</LongitudeDegrees>
            </Position>
            <AltitudeMeters>2480.199951171875</AltitudeMeters>
            <DistanceMeters>32627.43535812</DistanceMeters>
          </Trackpoint>
          <Trackpoint>
            <Time>2022-07-10T09:07:37.000Z</Time>
            <Position>
              <LatitudeDegrees>42.75956195779144763946533203125</LatitudeDegrees>
              <LongitudeDegrees>-0.20018239505589008331298828125</LongitudeDegrees>
            </Position>
            <AltitudeMeters>2481.199951171875</AltitudeMeters>
            <DistanceMeters>32630.158167838</DistanceMeters>
          </Trackpoint>
          <Trackpoint>
            <Time>2022-07-10T09:07:40.000Z</Time>
            <Position>
              <LatitudeDegrees>42.75954552926123142242431640625</LatitudeDegrees>
              <LongitudeDegrees>-0.20019463263452053070068359375</LongitudeDegrees>
            </Position>
            <AltitudeMeters>2482.39990234375</AltitudeMeters>
            <DistanceMeters>32632.240098839</DistanceMeters>
          </Trackpoint>
          <Trackpoint>
            <Time>2022-07-10T09:07:46.000Z</Time>
            <Position>
              <LatitudeDegrees>42.75951216928660869598388671875</LatitudeDegrees>
              <LongitudeDegrees>-0.20020770840346813201904296875</LongitudeDegrees>
            </Position>
            <AltitudeMeters>2483.39990234375</AltitudeMeters>
            <DistanceMeters>32636.104778184</DistanceMeters>
          </Trackpoint>
          <Trackpoint>
            <Time>2022-07-10T09:07:48.000Z</Time>
            <Position>
              <LatitudeDegrees>42.75949607603251934051513671875</LatitudeDegrees>
              <LongitudeDegrees>-0.200213491916656494140625</LongitudeDegrees>
            </Position>
            <AltitudeMeters>2483.39990234375</AltitudeMeters>
            <DistanceMeters>32637.957189869</DistanceMeters>
          </Trackpoint>
          <Trackpoint>
            <Time>2022-07-10T09:07:49.000Z</Time>
            <Position>
              <LatitudeDegrees>42.7594892866909503936767578125</LatitudeDegrees>
              <LongitudeDegrees>-0.2002094686031341552734375</LongitudeDegrees>
            </Position>
            <AltitudeMeters>2483.60009765625</AltitudeMeters>
            <DistanceMeters>32638.785613558</DistanceMeters>
          </Trackpoint>
          <Trackpoint>
            <Time>2022-07-10T09:07:53.000Z</Time>
            <Position>
              <LatitudeDegrees>42.75946556590497493743896484375</LatitudeDegrees>
              <LongitudeDegrees>-0.20021240226924419403076171875</LongitudeDegrees>
            </Position>
            <AltitudeMeters>2484.800048828125</AltitudeMeters>
            <DistanceMeters>32641.436160572</DistanceMeters>
          </Trackpoint>
          <Trackpoint>
            <Time>2022-07-10T09:07:55.000Z</Time>
            <Position>
              <LatitudeDegrees>42.759450562298297882080078125</LatitudeDegrees>
              <LongitudeDegrees>-0.20023050718009471893310546875</LongitudeDegrees>
            </Position>
            <AltitudeMeters>2485.39990234375</AltitudeMeters>
            <DistanceMeters>32643.666759622</DistanceMeters>
          </Trackpoint>
          <Trackpoint>
            <Time>2022-07-10T09:07:59.000Z</Time>
            <Position>
              <LatitudeDegrees>42.75944930501282215118408203125</LatitudeDegrees>
              <LongitudeDegrees>-0.2002740092575550079345703125</LongitudeDegrees>
            </Position>
            <AltitudeMeters>2485.800048828125</AltitudeMeters>
            <DistanceMeters>32647.2223337</DistanceMeters>
          </Trackpoint>
          <Trackpoint>
            <Time>2022-07-10T09:08:01.000Z</Time>
            <Position>
              <LatitudeDegrees>42.75945332832634449005126953125</LatitudeDegrees>
              <LongitudeDegrees>-0.20028666593134403228759765625</LongitudeDegrees>
            </Position>
            <AltitudeMeters>2485.800048828125</AltitudeMeters>
            <DistanceMeters>32648.350713414</DistanceMeters>
          </Trackpoint>
          <Trackpoint>
            <Time>2022-07-10T09:08:02.000Z</Time>
            <Position>
              <LatitudeDegrees>42.75945282541215419769287109375</LatitudeDegrees>
              <LongitudeDegrees>-0.20028767175972461700439453125</LongitudeDegrees>
            </Position>
            <AltitudeMeters>2485.800048828125</AltitudeMeters>
            <DistanceMeters>32648.445740128</DistanceMeters>
          </Trackpoint>
          <Trackpoint>
            <Time>2022-07-10T09:08:07.000Z</Time>
            <Position>
              <LatitudeDegrees>42.7594497241079807281494140625</LatitudeDegrees>
              <LongitudeDegrees>-0.200294964015483856201171875</LongitudeDegrees>
            </Position>
            <AltitudeMeters>2486.199951171875</AltitudeMeters>
            <DistanceMeters>32649.13098751</DistanceMeters>
          </Trackpoint>
          <Trackpoint>
            <Time>2022-07-10T09:08:09.000Z</Time>
            <Position>
              <LatitudeDegrees>42.7594400011003017425537109375</LatitudeDegrees>
              <LongitudeDegrees>-0.20030242390930652618408203125</LongitudeDegrees>
            </Position>
            <AltitudeMeters>2486.800048828125</AltitudeMeters>
            <DistanceMeters>32650.36998428</DistanceMeters>
          </Trackpoint>
          <Trackpoint>
            <Time>2022-07-10T09:08:15.000Z</Time>
            <Position>
              <LatitudeDegrees>42.75941074825823307037353515625</LatitudeDegrees>
              <LongitudeDegrees>-0.20032958127558231353759765625</LongitudeDegrees>
            </Position>
            <AltitudeMeters>2487.60009765625</AltitudeMeters>
            <DistanceMeters>32654.311016059</DistanceMeters>
          </Trackpoint>
          <Trackpoint>
            <Time>2022-07-10T09:08:21.000Z</Time>
            <Position>
              <LatitudeDegrees>42.75943824090063571929931640625</LatitudeDegrees>
              <LongitudeDegrees>-0.2003390528261661529541015625</LongitudeDegrees>
            </Position>
            <AltitudeMeters>2487.60009765625</AltitudeMeters>
            <DistanceMeters>32657.465559488</DistanceMeters>
          </Trackpoint>
          <Trackpoint>
            <Time>2022-07-10T09:08:27.000Z</Time>
            <Position>
              <LatitudeDegrees>42.75941359810531139373779296875</LatitudeDegrees>
              <LongitudeDegrees>-0.20036168396472930908203125</LongitudeDegrees>
            </Position>
            <AltitudeMeters>2487.39990234375</AltitudeMeters>
            <DistanceMeters>32660.773799601</DistanceMeters>
          </Trackpoint>
          <Trackpoint>
            <Time>2022-07-10T09:08:29.000Z</Time>
            <Position>
              <LatitudeDegrees>42.75941544212400913238525390625</LatitudeDegrees>
              <LongitudeDegrees>-0.200367383658885955810546875</LongitudeDegrees>
            </Position>
            <AltitudeMeters>2487.39990234375</AltitudeMeters>
            <DistanceMeters>32661.285534119</DistanceMeters>
          </Trackpoint>
          <Trackpoint>
            <Time>2022-07-10T09:08:35.000Z</Time>
            <Position>
              <LatitudeDegrees>42.7594172023236751556396484375</LatitudeDegrees>
              <LongitudeDegrees>-0.200358666479587554931640625</LongitudeDegrees>
            </Position>
            <AltitudeMeters>2487.39990234375</AltitudeMeters>
            <DistanceMeters>32662.021607884</DistanceMeters>
          </Trackpoint>
          <Trackpoint>
            <Time>2022-07-10T09:08:36.000Z</Time>
            <Position>
              <LatitudeDegrees>42.75941510684788227081298828125</LatitudeDegrees>
              <LongitudeDegrees>-0.20035489462316036224365234375</LongitudeDegrees>
            </Position>
            <AltitudeMeters>2487.39990234375</AltitudeMeters>
            <DistanceMeters>32662.401714741</DistanceMeters>
          </Trackpoint>
          <Trackpoint>
            <Time>2022-07-10T09:08:39.000Z</Time>
            <Position>
              <LatitudeDegrees>42.75943321175873279571533203125</LatitudeDegrees>
              <LongitudeDegrees>-0.2003749273717403411865234375</LongitudeDegrees>
            </Position>
            <AltitudeMeters>2487.39990234375</AltitudeMeters>
            <DistanceMeters>32664.997179445</DistanceMeters>
          </Trackpoint>
          <Trackpoint>
            <Time>2022-07-10T09:08:41.000Z</Time>
            <Position>
              <LatitudeDegrees>42.75944109074771404266357421875</LatitudeDegrees>
              <LongitudeDegrees>-0.20038842223584651947021484375</LongitudeDegrees>
            </Position>
            <AltitudeMeters>2487.60009765625</AltitudeMeters>
            <DistanceMeters>32666.409853113</DistanceMeters>
          </Trackpoint>
          <Trackpoint>
            <Time>2022-07-10T09:08:42.000Z</Time>
            <Position>
              <LatitudeDegrees>42.75944125838577747344970703125</LatitudeDegrees>
              <LongitudeDegrees>-0.20038875751197338104248046875</LongitudeDegrees>
            </Position>
            <AltitudeMeters>2487.800048828125</AltitudeMeters>
            <DistanceMeters>32666.409853113</DistanceMeters>
          </Trackpoint>
          <Trackpoint>
            <Time>2022-07-10T09:08:43.000Z</Time>
            <Position>
              <LatitudeDegrees>42.759440839290618896484375</LatitudeDegrees>
              <LongitudeDegrees>-0.20039596594870090484619140625</LongitudeDegrees>
            </Position>
            <AltitudeMeters>2488</AltitudeMeters>
            <DistanceMeters>32666.995637122</DistanceMeters>
          </Trackpoint>
          <Trackpoint>
            <Time>2022-07-10T09:08:49.000Z</Time>
            <Position>
              <LatitudeDegrees>42.75945986621081829071044921875</LatitudeDegrees>
              <LongitudeDegrees>-0.20040015690028667449951171875</LongitudeDegrees>
            </Position>
            <AltitudeMeters>2489</AltitudeMeters>
            <DistanceMeters>32669.141642478</DistanceMeters>
          </Trackpoint>
          <Trackpoint>
            <Time>2022-07-10T09:08:50.000Z</Time>
            <Position>
              <LatitudeDegrees>42.75945450179278850555419921875</LatitudeDegrees>
              <LongitudeDegrees>-0.20040099509060382843017578125</LongitudeDegrees>
            </Position>
            <AltitudeMeters>2489.199951171875</AltitudeMeters>
            <DistanceMeters>32669.750110336</DistanceMeters>
          </Trackpoint>
          <Trackpoint>
            <Time>2022-07-10T09:08:55.000Z</Time>
            <Position>
              <LatitudeDegrees>42.75941192172467708587646484375</LatitudeDegrees>
              <LongitudeDegrees>-0.20043812692165374755859375</LongitudeDegrees>
            </Position>
            <AltitudeMeters>2490.39990234375</AltitudeMeters>
            <DistanceMeters>32675.377585621</DistanceMeters>
          </Trackpoint>
          <Trackpoint>
            <Time>2022-07-10T09:08:57.000Z</Time>
            <Position>
              <LatitudeDegrees>42.7593994326889514923095703125</LatitudeDegrees>
              <LongitudeDegrees>-0.20045019686222076416015625</LongitudeDegrees>
            </Position>
            <AltitudeMeters>2490.800048828125</AltitudeMeters>
            <DistanceMeters>32677.082779046</DistanceMeters>
          </Trackpoint>
          <Trackpoint>
            <Time>2022-07-10T09:09:00.000Z</Time>
            <Position>
              <LatitudeDegrees>42.75937939994037151336669921875</LatitudeDegrees>
              <LongitudeDegrees>-0.2004791982471942901611328125</LongitudeDegrees>
            </Position>
            <AltitudeMeters>2491.800048828125</AltitudeMeters>
            <DistanceMeters>32680.337357308</DistanceMeters>
          </Trackpoint>
          <Trackpoint>
            <Time>2022-07-10T09:09:05.000Z</Time>
            <Position>
              <LatitudeDegrees>42.7593402564525604248046875</LatitudeDegrees>
              <LongitudeDegrees>-0.20051482133567333221435546875</LongitudeDegrees>
            </Position>
            <AltitudeMeters>2492.60009765625</AltitudeMeters>
            <DistanceMeters>32685.576768763</DistanceMeters>
          </Trackpoint>
          <Trackpoint>
            <Time>2022-07-10T09:09:07.000Z</Time>
            <Position>
              <LatitudeDegrees>42.75933933444321155548095703125</LatitudeDegrees>
              <LongitudeDegrees>-0.200524628162384033203125</LongitudeDegrees>
            </Position>
            <AltitudeMeters>2492.800048828125</AltitudeMeters>
            <DistanceMeters>32686.383097172</DistanceMeters>
          </Trackpoint>
          <Trackpoint>
            <Time>2022-07-10T09:09:12.000Z</Time>
            <Position>
              <LatitudeDegrees>42.759345956146717071533203125</LatitudeDegrees>
              <LongitudeDegrees>-0.20055052824318408966064453125</LongitudeDegrees>
            </Position>
            <AltitudeMeters>2493.800048828125</AltitudeMeters>
            <DistanceMeters>32688.625808161</DistanceMeters>
          </Trackpoint>
          <Trackpoint>
            <Time>2022-07-10T09:09:13.000Z</Time>
            <Position>
              <LatitudeDegrees>42.75934897363185882568359375</LatitudeDegrees>
              <LongitudeDegrees>-0.2005569823086261749267578125</LongitudeDegrees>
            </Position>
            <AltitudeMeters>2494</AltitudeMeters>
            <DistanceMeters>32689.248939999</DistanceMeters>
          </Trackpoint>
          <Trackpoint>
            <Time>2022-07-10T09:09:18.000Z</Time>
            <Position>
              <LatitudeDegrees>42.7593618817627429962158203125</LatitudeDegrees>
              <LongitudeDegrees>-0.200585983693599700927734375</LongitudeDegrees>
            </Position>
            <AltitudeMeters>2494.39990234375</AltitudeMeters>
            <DistanceMeters>32692.019421</DistanceMeters>
          </Trackpoint>
          <Trackpoint>
            <Time>2022-07-10T09:09:19.000Z</Time>
            <Position>
              <LatitudeDegrees>42.75936515070497989654541015625</LatitudeDegrees>
              <LongitudeDegrees>-0.20059344358742237091064453125</LongitudeDegrees>
            </Position>
            <AltitudeMeters>2494.60009765625</AltitudeMeters>
            <DistanceMeters>32692.730535815</DistanceMeters>
          </Trackpoint>
          <Trackpoint>
            <Time>2022-07-10T09:09:24.000Z</Time>
            <Position>
              <LatitudeDegrees>42.75937252677977085113525390625</LatitudeDegrees>
              <LongitudeDegrees>-0.200648009777069091796875</LongitudeDegrees>
            </Position>
            <AltitudeMeters>2495</AltitudeMeters>
            <DistanceMeters>32697.264017258</DistanceMeters>
          </Trackpoint>
          <Trackpoint>
            <Time>2022-07-10T09:09:25.000Z</Time>
            <Position>
              <LatitudeDegrees>42.75937755592167377471923828125</LatitudeDegrees>
              <LongitudeDegrees>-0.20065446384251117706298828125</LongitudeDegrees>
            </Position>
            <AltitudeMeters>2495.199951171875</AltitudeMeters>
            <DistanceMeters>32698.036017935</DistanceMeters>
          </Trackpoint>
          <Trackpoint>
            <Time>2022-07-10T09:09:26.000Z</Time>
            <Position>
              <LatitudeDegrees>42.7593831717967987060546875</LatitudeDegrees>
              <LongitudeDegrees>-0.2006642706692218780517578125</LongitudeDegrees>
            </Position>
            <AltitudeMeters>2495.199951171875</AltitudeMeters>
            <DistanceMeters>32699.055065917</DistanceMeters>
          </Trackpoint>
          <Trackpoint>
            <Time>2022-07-10T09:09:30.000Z</Time>
            <Position>
              <LatitudeDegrees>42.75939046405255794525146484375</LatitudeDegrees>
              <LongitudeDegrees>-0.20070291124284267425537109375</LongitudeDegrees>
            </Position>
            <AltitudeMeters>2496.199951171875</AltitudeMeters>
            <DistanceMeters>32702.315188611</DistanceMeters>
          </Trackpoint>
          <Trackpoint>
            <Time>2022-07-10T09:09:33.000Z</Time>
            <Position>
              <LatitudeDegrees>42.75938652455806732177734375</LatitudeDegrees>
              <LongitudeDegrees>-0.20072839222848415374755859375</LongitudeDegrees>
            </Position>
            <AltitudeMeters>2496.800048828125</AltitudeMeters>
            <DistanceMeters>32704.440050541</DistanceMeters>
          </Trackpoint>
          <Trackpoint>
            <Time>2022-07-10T09:09:34.000Z</Time>
            <Position>
              <LatitudeDegrees>42.75938996113836765289306640625</LatitudeDegrees>
              <LongitudeDegrees>-0.2007323317229747772216796875</LongitudeDegrees>
            </Position>
            <AltitudeMeters>2497</AltitudeMeters>
            <DistanceMeters>32704.942884649</DistanceMeters>
          </Trackpoint>
          <Trackpoint>
            <Time>2022-07-10T09:09:35.000Z</Time>
            <Position>
              <LatitudeDegrees>42.75939188897609710693359375</LatitudeDegrees>
              <LongitudeDegrees>-0.20074314437806606292724609375</LongitudeDegrees>
            </Position>
            <AltitudeMeters>2497.199951171875</AltitudeMeters>
            <DistanceMeters>32705.854348874</DistanceMeters>
          </Trackpoint>
          <Trackpoint>
            <Time>2022-07-10T09:09:39.000Z</Time>
            <Position>
              <LatitudeDegrees>42.7594061382114887237548828125</LatitudeDegrees>
              <LongitudeDegrees>-0.20075730979442596435546875</LongitudeDegrees>
            </Position>
            <AltitudeMeters>2497.800048828125</AltitudeMeters>
            <DistanceMeters>32707.815678159</DistanceMeters>
          </Trackpoint>
          <Trackpoint>
            <Time>2022-07-10T09:09:44.000Z</Time>
            <Position>
              <LatitudeDegrees>42.75941879488527774810791015625</LatitudeDegrees>
              <LongitudeDegrees>-0.20078438334167003631591796875</LongitudeDegrees>
            </Position>
            <AltitudeMeters>2498.39990234375</AltitudeMeters>
            <DistanceMeters>32710.43710681</DistanceMeters>
          </Trackpoint>
          <Trackpoint>
            <Time>2022-07-10T09:09:45.000Z</Time>
            <Position>
              <LatitudeDegrees>42.75941980071365833282470703125</LatitudeDegrees>
              <LongitudeDegrees>-0.200793184340000152587890625</LongitudeDegrees>
            </Position>
            <AltitudeMeters>2498.60009765625</AltitudeMeters>
            <DistanceMeters>32711.160808706</DistanceMeters>
          </Trackpoint>
          <Trackpoint>
            <Time>2022-07-10T09:09:47.000Z</Time>
            <Position>
              <LatitudeDegrees>42.75942063890397548675537109375</LatitudeDegrees>
              <LongitudeDegrees>-0.20080751739442348480224609375</LongitudeDegrees>
            </Position>
            <AltitudeMeters>2499</AltitudeMeters>
            <DistanceMeters>32712.336224248</DistanceMeters>
          </Trackpoint>
          <Trackpoint>
            <Time>2022-07-10T09:09:49.000Z</Time>
            <Position>
              <LatitudeDegrees>42.75941292755305767059326171875</LatitudeDegrees>
              <LongitudeDegrees>-0.2008238621056079864501953125</LongitudeDegrees>
            </Position>
            <AltitudeMeters>2499.60009765625</AltitudeMeters>
            <DistanceMeters>32713.920636205</DistanceMeters>
          </Trackpoint>
          <Trackpoint>
            <Time>2022-07-10T09:09:51.000Z</Time>
            <Position>
              <LatitudeDegrees>42.75940286926925182342529296875</LatitudeDegrees>
              <LongitudeDegrees>-0.20083601586520671844482421875</LongitudeDegrees>
            </Position>
            <AltitudeMeters>2500.199951171875</AltitudeMeters>
            <DistanceMeters>32715.417118399</DistanceMeters>
          </Trackpoint>
          <Trackpoint>
            <Time>2022-07-10T09:09:53.000Z</Time>
            <Position>
              <LatitudeDegrees>42.7594017796218395233154296875</LatitudeDegrees>
              <LongitudeDegrees>-0.20085110329091548919677734375</LongitudeDegrees>
            </Position>
            <AltitudeMeters>2500.800048828125</AltitudeMeters>
            <DistanceMeters>32716.656115169</DistanceMeters>
          </Trackpoint>
          <Trackpoint>
            <Time>2022-07-10T09:09:56.000Z</Time>
            <Position>
              <LatitudeDegrees>42.7594074793159961700439453125</LatitudeDegrees>
              <LongitudeDegrees>-0.2008708007633686065673828125</LongitudeDegrees>
            </Position>
            <AltitudeMeters>2501.60009765625</AltitudeMeters>
            <DistanceMeters>32718.382361162</DistanceMeters>
          </Trackpoint>
          <Trackpoint>
            <Time>2022-07-10T09:09:58.000Z</Time>
            <Position>
              <LatitudeDegrees>42.7594021148979663848876953125</LatitudeDegrees>
              <LongitudeDegrees>-0.200879015028476715087890625</LongitudeDegrees>
            </Position>
            <AltitudeMeters>2502</AltitudeMeters>
            <DistanceMeters>32719.28386373</DistanceMeters>
          </Trackpoint>
          <Trackpoint>
            <Time>2022-07-10T09:10:02.000Z</Time>
            <Position>
              <LatitudeDegrees>42.75938459672033786773681640625</LatitudeDegrees>
              <LongitudeDegrees>-0.200895108282566070556640625</LongitudeDegrees>
            </Position>
            <AltitudeMeters>2502.60009765625</AltitudeMeters>
            <DistanceMeters>32721.634694813</DistanceMeters>
          </Trackpoint>
          <Trackpoint>
            <Time>2022-07-10T09:10:05.000Z</Time>
            <Position>
              <LatitudeDegrees>42.759372107684612274169921875</LatitudeDegrees>
              <LongitudeDegrees>-0.20090256817638874053955078125</LongitudeDegrees>
            </Position>
            <AltitudeMeters>2503</AltitudeMeters>
            <DistanceMeters>32723.149171428</DistanceMeters>
          </Trackpoint>
          <Trackpoint>
            <Time>2022-07-10T09:10:06.000Z</Time>
            <Position>
              <LatitudeDegrees>42.75935794226825237274169921875</LatitudeDegrees>
              <LongitudeDegrees>-0.20090038888156414031982421875</LongitudeDegrees>
            </Position>
            <AltitudeMeters>2503.39990234375</AltitudeMeters>
            <DistanceMeters>32724.736430489</DistanceMeters>
          </Trackpoint>
          <Trackpoint>
            <Time>2022-07-10T09:10:09.000Z</Time>
            <Position>
              <LatitudeDegrees>42.7593340538442134857177734375</LatitudeDegrees>
              <LongitudeDegrees>-0.20092067308723926544189453125</LongitudeDegrees>
            </Position>
            <AltitudeMeters>2504</AltitudeMeters>
            <DistanceMeters>32727.869431143</DistanceMeters>
          </Trackpoint>
          <Trackpoint>
            <Time>2022-07-10T09:10:10.000Z</Time>
            <Position>
              <LatitudeDegrees>42.75933212600648403167724609375</LatitudeDegrees>
              <LongitudeDegrees>-0.2009281329810619354248046875</LongitudeDegrees>
            </Position>
            <AltitudeMeters>2504.39990234375</AltitudeMeters>
            <DistanceMeters>32728.513933677</DistanceMeters>
          </Trackpoint>
          <Trackpoint>
            <Time>2022-07-10T09:10:13.000Z</Time>
            <Position>
              <LatitudeDegrees>42.75930630974471569061279296875</LatitudeDegrees>
              <LongitudeDegrees>-0.20096241496503353118896484375</LongitudeDegrees>
            </Position>
            <AltitudeMeters>2506</AltitudeMeters>
            <DistanceMeters>32732.527617319</DistanceMeters>
          </Trackpoint>
          <Trackpoint>
            <Time>2022-07-10T09:10:14.000Z</Time>
            <Position>
              <LatitudeDegrees>42.7592941559851169586181640625</LatitudeDegrees>
              <LongitudeDegrees>-0.200974904000759124755859375</LongitudeDegrees>
            </Position>
            <AltitudeMeters>2506.800048828125</AltitudeMeters>
            <DistanceMeters>32734.222186382</DistanceMeters>
          </Trackpoint>
          <Trackpoint>
            <Time>2022-07-10T09:10:15.000Z</Time>
            <Position>
              <LatitudeDegrees>42.759287618100643157958984375</LatitudeDegrees>
              <LongitudeDegrees>-0.20098739303648471832275390625</LongitudeDegrees>
            </Position>
            <AltitudeMeters>2507</AltitudeMeters>
            <DistanceMeters>32735.475674834</DistanceMeters>
          </Trackpoint>
          <Trackpoint>
            <Time>2022-07-10T09:10:18.000Z</Time>
            <Position>
              <LatitudeDegrees>42.7592690102756023406982421875</LatitudeDegrees>
              <LongitudeDegrees>-0.20100667141377925872802734375</LongitudeDegrees>
            </Position>
            <AltitudeMeters>2508.199951171875</AltitudeMeters>
            <DistanceMeters>32738.078088586</DistanceMeters>
          </Trackpoint>
          <Trackpoint>
            <Time>2022-07-10T09:10:21.000Z</Time>
            <Position>
              <LatitudeDegrees>42.759244032204151153564453125</LatitudeDegrees>
              <LongitudeDegrees>-0.2010032348334789276123046875</LongitudeDegrees>
            </Position>
            <AltitudeMeters>2508.39990234375</AltitudeMeters>
            <DistanceMeters>32740.872908101</DistanceMeters>
          </Trackpoint>
          <Trackpoint>
            <Time>2022-07-10T09:10:22.000Z</Time>
            <Position>
              <LatitudeDegrees>42.75924428366124629974365234375</LatitudeDegrees>
              <LongitudeDegrees>-0.2010045759379863739013671875</LongitudeDegrees>
            </Position>
            <AltitudeMeters>2508.39990234375</AltitudeMeters>
            <DistanceMeters>32741.007296169</DistanceMeters>
          </Trackpoint>
          <Trackpoint>
            <Time>2022-07-10T09:10:28.000Z</Time>
            <Position>
              <LatitudeDegrees>42.75925015099346637725830078125</LatitudeDegrees>
              <LongitudeDegrees>-0.20098906941711902618408203125</LongitudeDegrees>
            </Position>
            <AltitudeMeters>2509</AltitudeMeters>
            <DistanceMeters>32742.432696885</DistanceMeters>
          </Trackpoint>
          <Trackpoint>
            <Time>2022-07-10T09:10:29.000Z</Time>
            <Position>
              <LatitudeDegrees>42.75924646295607089996337890625</LatitudeDegrees>
              <LongitudeDegrees>-0.2009915001690387725830078125</LongitudeDegrees>
            </Position>
            <AltitudeMeters>2509</AltitudeMeters>
            <DistanceMeters>32742.878411684</DistanceMeters>
          </Trackpoint>
          <Trackpoint>
            <Time>2022-07-10T09:10:30.000Z</Time>
            <Position>
              <LatitudeDegrees>42.75924361310899257659912109375</LatitudeDegrees>
              <LongitudeDegrees>-0.20099862478673458099365234375</LongitudeDegrees>
            </Position>
            <AltitudeMeters>2509.199951171875</AltitudeMeters>
            <DistanceMeters>32743.550352025</DistanceMeters>
          </Trackpoint>
          <Trackpoint>
            <Time>2022-07-10T09:10:31.000Z</Time>
            <Position>
              <LatitudeDegrees>42.75924093089997768402099609375</LatitudeDegrees>
              <LongitudeDegrees>-0.2010122872889041900634765625</LongitudeDegrees>
            </Position>
            <AltitudeMeters>2509.39990234375</AltitudeMeters>
            <DistanceMeters>32744.7064019</DistanceMeters>
          </Trackpoint>
          <Trackpoint>
            <Time>2022-07-10T09:10:32.000Z</Time>
            <Position>
              <LatitudeDegrees>42.759235315024852752685546875</LatitudeDegrees>
              <LongitudeDegrees>-0.20103349350392818450927734375</LongitudeDegrees>
            </Position>
            <AltitudeMeters>2509.39990234375</AltitudeMeters>
            <DistanceMeters>32746.549038257</DistanceMeters>
          </Trackpoint>
          <Trackpoint>
            <Time>2022-07-10T09:10:34.000Z</Time>
            <Position>
              <LatitudeDegrees>42.75921075604856014251708984375</LatitudeDegrees>
              <LongitudeDegrees>-0.2010650932788848876953125</LongitudeDegrees>
            </Position>
            <AltitudeMeters>2510</AltitudeMeters>
            <DistanceMeters>32750.309503615</DistanceMeters>
          </Trackpoint>
          <Trackpoint>
            <Time>2022-07-10T09:10:35.000Z</Time>
            <Position>
              <LatitudeDegrees>42.75919717736542224884033203125</LatitudeDegrees>
              <LongitudeDegrees>-0.201076827943325042724609375</LongitudeDegrees>
            </Position>
            <AltitudeMeters>2510.199951171875</AltitudeMeters>
            <DistanceMeters>32752.102464076</DistanceMeters>
          </Trackpoint>
          <Trackpoint>
            <Time>2022-07-10T09:10:37.000Z</Time>
            <Position>
              <LatitudeDegrees>42.75917555205523967742919921875</LatitudeDegrees>
              <LongitudeDegrees>-0.20109082572162151336669921875</LongitudeDegrees>
            </Position>
            <AltitudeMeters>2510.60009765625</AltitudeMeters>
            <DistanceMeters>32754.768297934</DistanceMeters>
          </Trackpoint>
          <Trackpoint>
            <Time>2022-07-10T09:10:41.000Z</Time>
            <Position>
              <LatitudeDegrees>42.75914420373737812042236328125</LatitudeDegrees>
              <LongitudeDegrees>-0.20110088400542736053466796875</LongitudeDegrees>
            </Position>
            <AltitudeMeters>2511.199951171875</AltitudeMeters>
            <DistanceMeters>32758.354218856</DistanceMeters>
          </Trackpoint>
          <Trackpoint>
            <Time>2022-07-10T09:10:42.000Z</Time>
            <Position>
              <LatitudeDegrees>42.75914805941283702850341796875</LatitudeDegrees>
              <LongitudeDegrees>-0.20109585486352443695068359375</LongitudeDegrees>
            </Position>
            <AltitudeMeters>2511.39990234375</AltitudeMeters>
            <DistanceMeters>32758.955220568</DistanceMeters>
          </Trackpoint>
          <Trackpoint>
            <Time>2022-07-10T09:10:43.000Z</Time>
            <Position>
              <LatitudeDegrees>42.75915325619280338287353515625</LatitudeDegrees>
              <LongitudeDegrees>-0.2010816894471645355224609375</LongitudeDegrees>
            </Position>
            <AltitudeMeters>2511.800048828125</AltitudeMeters>
            <DistanceMeters>32760.244225636</DistanceMeters>
          </Trackpoint>
          <Trackpoint>
            <Time>2022-07-10T09:10:45.000Z</Time>
            <Position>
              <LatitudeDegrees>42.7591530047357082366943359375</LatitudeDegrees>
              <LongitudeDegrees>-0.201068110764026641845703125</LongitudeDegrees>
            </Position>
            <AltitudeMeters>2512</AltitudeMeters>
            <DistanceMeters>32761.352418037</DistanceMeters>
          </Trackpoint>
          <Trackpoint>
            <Time>2022-07-10T09:10:46.000Z</Time>
            <Position>
              <LatitudeDegrees>42.75915317237377166748046875</LatitudeDegrees>
              <LongitudeDegrees>-0.2010672725737094879150390625</LongitudeDegrees>
            </Position>
            <AltitudeMeters>2512.39990234375</AltitudeMeters>
            <DistanceMeters>32761.352418037</DistanceMeters>
          </Trackpoint>
          <Trackpoint>
            <Time>2022-07-10T09:10:50.000Z</Time>
            <Position>
              <LatitudeDegrees>42.759140096604824066162109375</LatitudeDegrees>
              <LongitudeDegrees>-0.20109065808355808258056640625</LongitudeDegrees>
            </Position>
            <AltitudeMeters>2513.199951171875</AltitudeMeters>
            <DistanceMeters>32763.75454602</DistanceMeters>
          </Trackpoint>
          <Trackpoint>
            <Time>2022-07-10T09:10:51.000Z</Time>
            <Position>
              <LatitudeDegrees>42.75912911631166934967041015625</LatitudeDegrees>
              <LongitudeDegrees>-0.201102308928966522216796875</LongitudeDegrees>
            </Position>
            <AltitudeMeters>2513.60009765625</AltitudeMeters>
            <DistanceMeters>32765.304384829</DistanceMeters>
          </Trackpoint>
          <Trackpoint>
            <Time>2022-07-10T09:10:56.000Z</Time>
            <Position>
              <LatitudeDegrees>42.7590586245059967041015625</LatitudeDegrees>
              <LongitudeDegrees>-0.20115620456635951995849609375</LongitudeDegrees>
            </Position>
            <AltitudeMeters>2514.60009765625</AltitudeMeters>
            <DistanceMeters>32774.302366013</DistanceMeters>
          </Trackpoint>
          <Trackpoint>
            <Time>2022-07-10T09:10:58.000Z</Time>
            <Position>
              <LatitudeDegrees>42.75905753485858440399169921875</LatitudeDegrees>
              <LongitudeDegrees>-0.20115151070058345794677734375</LongitudeDegrees>
            </Position>
            <AltitudeMeters>2514.800048828125</AltitudeMeters>
            <DistanceMeters>32774.705530218</DistanceMeters>
          </Trackpoint>
          <Trackpoint>
            <Time>2022-07-10T09:11:03.000Z</Time>
            <Position>
              <LatitudeDegrees>42.759029455482959747314453125</LatitudeDegrees>
              <LongitudeDegrees>-0.201141871511936187744140625</LongitudeDegrees>
            </Position>
            <AltitudeMeters>2515.39990234375</AltitudeMeters>
            <DistanceMeters>32777.928042888</DistanceMeters>
          </Trackpoint>
          <Trackpoint>
            <Time>2022-07-10T09:11:05.000Z</Time>
            <Position>
              <LatitudeDegrees>42.7590108476579189300537109375</LatitudeDegrees>
              <LongitudeDegrees>-0.20114262588322162628173828125</LongitudeDegrees>
            </Position>
            <AltitudeMeters>2515.800048828125</AltitudeMeters>
            <DistanceMeters>32780.001281029</DistanceMeters>
          </Trackpoint>
          <Trackpoint>
            <Time>2022-07-10T09:11:10.000Z</Time>
            <Position>
              <LatitudeDegrees>42.7590071596205234527587890625</LatitudeDegrees>
              <LongitudeDegrees>-0.20116609521210193634033203125</LongitudeDegrees>
            </Position>
            <AltitudeMeters>2516.60009765625</AltitudeMeters>
            <DistanceMeters>32781.962610314</DistanceMeters>
          </Trackpoint>
          <Trackpoint>
            <Time>2022-07-10T09:11:11.000Z</Time>
            <Position>
              <LatitudeDegrees>42.75900020264089107513427734375</LatitudeDegrees>
              <LongitudeDegrees>-0.2011795900762081146240234375</LongitudeDegrees>
            </Position>
            <AltitudeMeters>2516.800048828125</AltitudeMeters>
            <DistanceMeters>32783.306490997</DistanceMeters>
          </Trackpoint>
          <Trackpoint>
            <Time>2022-07-10T09:11:17.000Z</Time>
            <Position>
              <LatitudeDegrees>42.7589635737240314483642578125</LatitudeDegrees>
              <LongitudeDegrees>-0.20123331807553768157958984375</LongitudeDegrees>
            </Position>
            <AltitudeMeters>2517.60009765625</AltitudeMeters>
            <DistanceMeters>32789.297697375</DistanceMeters>
          </Trackpoint>
          <Trackpoint>
            <Time>2022-07-10T09:11:18.000Z</Time>
            <Position>
              <LatitudeDegrees>42.7589608915150165557861328125</LatitudeDegrees>
              <LongitudeDegrees>-0.20123365335166454315185546875</LongitudeDegrees>
            </Position>
            <AltitudeMeters>2518</AltitudeMeters>
            <DistanceMeters>32789.598198231</DistanceMeters>
          </Trackpoint>
          <Trackpoint>
            <Time>2022-07-10T09:11:24.000Z</Time>
            <Position>
              <LatitudeDegrees>42.7588985301554203033447265625</LatitudeDegrees>
              <LongitudeDegrees>-0.201267935335636138916015625</LongitudeDegrees>
            </Position>
            <AltitudeMeters>2519.199951171875</AltitudeMeters>
            <DistanceMeters>32797.083022494</DistanceMeters>
          </Trackpoint>
          <Trackpoint>
            <Time>2022-07-10T09:11:25.000Z</Time>
            <Position>
              <LatitudeDegrees>42.75889559648931026458740234375</LatitudeDegrees>
              <LongitudeDegrees>-0.20127573050558567047119140625</LongitudeDegrees>
            </Position>
            <AltitudeMeters>2519.39990234375</AltitudeMeters>
            <DistanceMeters>32797.80672439</DistanceMeters>
          </Trackpoint>
          <Trackpoint>
            <Time>2022-07-10T09:11:31.000Z</Time>
            <Position>
              <LatitudeDegrees>42.75887162424623966217041015625</LatitudeDegrees>
              <LongitudeDegrees>-0.20128293894231319427490234375</LongitudeDegrees>
            </Position>
            <AltitudeMeters>2520.199951171875</AltitudeMeters>
            <DistanceMeters>32800.541117064</DistanceMeters>
          </Trackpoint>
          <Trackpoint>
            <Time>2022-07-10T09:11:32.000Z</Time>
            <Position>
              <LatitudeDegrees>42.758862487971782684326171875</LatitudeDegrees>
              <LongitudeDegrees>-0.2012855373322963714599609375</LongitudeDegrees>
            </Position>
            <AltitudeMeters>2520.39990234375</AltitudeMeters>
            <DistanceMeters>32801.582082565</DistanceMeters>
          </Trackpoint>
          <Trackpoint>
            <Time>2022-07-10T09:11:37.000Z</Time>
            <Position>
              <LatitudeDegrees>42.75885033421218395233154296875</LatitudeDegrees>
              <LongitudeDegrees>-0.20131512545049190521240234375</LongitudeDegrees>
            </Position>
            <AltitudeMeters>2521.199951171875</AltitudeMeters>
            <DistanceMeters>32804.352563566</DistanceMeters>
          </Trackpoint>
          <Trackpoint>
            <Time>2022-07-10T09:11:39.000Z</Time>
            <Position>
              <LatitudeDegrees>42.7588485740125179290771484375</LatitudeDegrees>
              <LongitudeDegrees>-0.20132820121943950653076171875</LongitudeDegrees>
            </Position>
            <AltitudeMeters>2521.39990234375</AltitudeMeters>
            <DistanceMeters>32805.440194024</DistanceMeters>
          </Trackpoint>
          <Trackpoint>
            <Time>2022-07-10T09:11:42.000Z</Time>
            <Position>
              <LatitudeDegrees>42.75881999172270298004150390625</LatitudeDegrees>
              <LongitudeDegrees>-0.2013301290571689605712890625</LongitudeDegrees>
            </Position>
            <AltitudeMeters>2522.199951171875</AltitudeMeters>
            <DistanceMeters>32808.62607003</DistanceMeters>
          </Trackpoint>
          <Trackpoint>
            <Time>2022-07-10T09:11:46.000Z</Time>
            <Position>
              <LatitudeDegrees>42.75878177024424076080322265625</LatitudeDegrees>
              <LongitudeDegrees>-0.201361477375030517578125</LongitudeDegrees>
            </Position>
            <AltitudeMeters>2522.800048828125</AltitudeMeters>
            <DistanceMeters>32813.592977402</DistanceMeters>
          </Trackpoint>
          <Trackpoint>
            <Time>2022-07-10T09:11:52.000Z</Time>
            <Position>
              <LatitudeDegrees>42.75874388404190540313720703125</LatitudeDegrees>
              <LongitudeDegrees>-0.2013737149536609649658203125</LongitudeDegrees>
            </Position>
            <AltitudeMeters>2523.199951171875</AltitudeMeters>
            <DistanceMeters>32817.92686238</DistanceMeters>
          </Trackpoint>
          <Trackpoint>
            <Time>2022-07-10T09:11:53.000Z</Time>
            <Position>
              <LatitudeDegrees>42.75873851962387561798095703125</LatitudeDegrees>
              <LongitudeDegrees>-0.2013797499239444732666015625</LongitudeDegrees>
            </Position>
            <AltitudeMeters>2523.39990234375</AltitudeMeters>
            <DistanceMeters>32818.698863057</DistanceMeters>
          </Trackpoint>
          <Trackpoint>
            <Time>2022-07-10T09:11:58.000Z</Time>
            <Position>
              <LatitudeDegrees>42.75871370919048786163330078125</LatitudeDegrees>
              <LongitudeDegrees>-0.20139542408287525177001953125</LongitudeDegrees>
            </Position>
            <AltitudeMeters>2524.39990234375</AltitudeMeters>
            <DistanceMeters>32821.742686053</DistanceMeters>
          </Trackpoint>
          <Trackpoint>
            <Time>2022-07-10T09:12:01.000Z</Time>
            <Position>
              <LatitudeDegrees>42.75869761593639850616455078125</LatitudeDegrees>
              <LongitudeDegrees>-0.20139634609222412109375</LongitudeDegrees>
            </Position>
            <AltitudeMeters>2525.199951171875</AltitudeMeters>
            <DistanceMeters>32823.535646514</DistanceMeters>
          </Trackpoint>
          <Trackpoint>
            <Time>2022-07-10T09:12:03.000Z</Time>
            <Position>
              <LatitudeDegrees>42.75868789292871952056884765625</LatitudeDegrees>
              <LongitudeDegrees>-0.20139240659773349761962890625</LongitudeDegrees>
            </Position>
            <AltitudeMeters>2525.800048828125</AltitudeMeters>
            <DistanceMeters>32824.660017761</DistanceMeters>
          </Trackpoint>
          <Trackpoint>
            <Time>2022-07-10T09:12:06.000Z</Time>
            <Position>
              <LatitudeDegrees>42.75864866562187671661376953125</LatitudeDegrees>
              <LongitudeDegrees>-0.20139894448220729827880859375</LongitudeDegrees>
            </Position>
            <AltitudeMeters>2526.800048828125</AltitudeMeters>
            <DistanceMeters>32829.060072749</DistanceMeters>
          </Trackpoint>
          <Trackpoint>
            <Time>2022-07-10T09:12:09.000Z</Time>
            <Position>
              <LatitudeDegrees>42.75862486101686954498291015625</LatitudeDegrees>
              <LongitudeDegrees>-0.20139827392995357513427734375</LongitudeDegrees>
            </Position>
            <AltitudeMeters>2528</AltitudeMeters>
            <DistanceMeters>32831.710619763</DistanceMeters>
          </Trackpoint>
          <Trackpoint>
            <Time>2022-07-10T09:12:13.000Z</Time>
            <Position>
              <LatitudeDegrees>42.75859585963189601898193359375</LatitudeDegrees>
              <LongitudeDegrees>-0.2014099247753620147705078125</LongitudeDegrees>
            </Position>
            <AltitudeMeters>2529</AltitudeMeters>
            <DistanceMeters>32835.075692699</DistanceMeters>
          </Trackpoint>
          <Trackpoint>
            <Time>2022-07-10T09:12:15.000Z</Time>
            <Position>
              <LatitudeDegrees>42.758582532405853271484375</LatitudeDegrees>
              <LongitudeDegrees>-0.20142392255365848541259765625</LongitudeDegrees>
            </Position>
            <AltitudeMeters>2529.199951171875</AltitudeMeters>
            <DistanceMeters>32836.949912466</DistanceMeters>
          </Trackpoint>
          <Trackpoint>
            <Time>2022-07-10T09:12:18.000Z</Time>
            <Position>
              <LatitudeDegrees>42.75855076499283313751220703125</LatitudeDegrees>
              <LongitudeDegrees>-0.2014394290745258331298828125</LongitudeDegrees>
            </Position>
            <AltitudeMeters>2530</AltitudeMeters>
            <DistanceMeters>32840.705572116</DistanceMeters>
          </Trackpoint>
          <Trackpoint>
            <Time>2022-07-10T09:12:22.000Z</Time>
            <Position>
              <LatitudeDegrees>42.75850265286862850189208984375</LatitudeDegrees>
              <LongitudeDegrees>-0.2014400996267795562744140625</LongitudeDegrees>
            </Position>
            <AltitudeMeters>2531.199951171875</AltitudeMeters>
            <DistanceMeters>32846.060898697</DistanceMeters>
          </Trackpoint>
          <Trackpoint>
            <Time>2022-07-10T09:12:26.000Z</Time>
            <Position>
              <LatitudeDegrees>42.758466862142086029052734375</LatitudeDegrees>
              <LongitudeDegrees>-0.2014486491680145263671875</LongitudeDegrees>
            </Position>
            <AltitudeMeters>2532.39990234375</AltitudeMeters>
            <DistanceMeters>32850.103724239</DistanceMeters>
          </Trackpoint>
          <Trackpoint>
            <Time>2022-07-10T09:12:29.000Z</Time>
            <Position>
              <LatitudeDegrees>42.75843224488198757171630859375</LatitudeDegrees>
              <LongitudeDegrees>-0.20145962946116924285888671875</LongitudeDegrees>
            </Position>
            <AltitudeMeters>2533.39990234375</AltitudeMeters>
            <DistanceMeters>32854.058479908</DistanceMeters>
          </Trackpoint>
          <Trackpoint>
            <Time>2022-07-10T09:12:30.000Z</Time>
            <Position>
              <LatitudeDegrees>42.75842629373073577880859375</LatitudeDegrees>
              <LongitudeDegrees>-0.20146298222243785858154296875</LongitudeDegrees>
            </Position>
            <AltitudeMeters>2533.800048828125</AltitudeMeters>
            <DistanceMeters>32854.769594723</DistanceMeters>
          </Trackpoint>
          <Trackpoint>
            <Time>2022-07-10T09:12:34.000Z</Time>
            <Position>
              <LatitudeDegrees>42.7583920955657958984375</LatitudeDegrees>
              <LongitudeDegrees>-0.2014742977917194366455078125</LongitudeDegrees>
            </Position>
            <AltitudeMeters>2534.800048828125</AltitudeMeters>
            <DistanceMeters>32858.687646529</DistanceMeters>
          </Trackpoint>
          <Trackpoint>
            <Time>2022-07-10T09:12:37.000Z</Time>
            <Position>
              <LatitudeDegrees>42.75835697539150714874267578125</LatitudeDegrees>
              <LongitudeDegrees>-0.20147806964814662933349609375</LongitudeDegrees>
            </Position>
            <AltitudeMeters>2535.199951171875</AltitudeMeters>
            <DistanceMeters>32862.6103051</DistanceMeters>
          </Trackpoint>
          <Trackpoint>
            <Time>2022-07-10T09:12:39.000Z</Time>
            <Position>
              <LatitudeDegrees>42.75834440253674983978271484375</LatitudeDegrees>
              <LongitudeDegrees>-0.20149785093963146209716796875</LongitudeDegrees>
            </Position>
            <AltitudeMeters>2535.800048828125</AltitudeMeters>
            <DistanceMeters>32864.747878182</DistanceMeters>
          </Trackpoint>
          <Trackpoint>
            <Time>2022-07-10T09:12:41.000Z</Time>
            <Position>
              <LatitudeDegrees>42.758336775004863739013671875</LatitudeDegrees>
              <LongitudeDegrees>-0.201516710221767425537109375</LongitudeDegrees>
            </Position>
            <AltitudeMeters>2536.199951171875</AltitudeMeters>
            <DistanceMeters>32866.505230208</DistanceMeters>
          </Trackpoint>
          <Trackpoint>
            <Time>2022-07-10T09:12:43.000Z</Time>
            <Position>
              <LatitudeDegrees>42.7583278901875019073486328125</LatitudeDegrees>
              <LongitudeDegrees>-0.201522074639797210693359375</LongitudeDegrees>
            </Position>
            <AltitudeMeters>2536.39990234375</AltitudeMeters>
            <DistanceMeters>32867.580334754</DistanceMeters>
          </Trackpoint>
          <Trackpoint>
            <Time>2022-07-10T09:12:45.000Z</Time>
            <Position>
              <LatitudeDegrees>42.75831322185695171356201171875</LatitudeDegrees>
              <LongitudeDegrees>-0.2015219070017337799072265625</LongitudeDegrees>
            </Position>
            <AltitudeMeters>2536.39990234375</AltitudeMeters>
            <DistanceMeters>32869.212472172</DistanceMeters>
          </Trackpoint>
          <Trackpoint>
            <Time>2022-07-10T09:12:49.000Z</Time>
            <Position>
              <LatitudeDegrees>42.7582732401788234710693359375</LatitudeDegrees>
              <LongitudeDegrees>-0.20152785815298557281494140625</LongitudeDegrees>
            </Position>
            <AltitudeMeters>2536.800048828125</AltitudeMeters>
            <DistanceMeters>32873.687816801</DistanceMeters>
          </Trackpoint>
          <Trackpoint>
            <Time>2022-07-10T09:12:55.000Z</Time>
            <Position>
              <LatitudeDegrees>42.7582209371030330657958984375</LatitudeDegrees>
              <LongitudeDegrees>-0.201529450714588165283203125</LongitudeDegrees>
            </Position>
            <AltitudeMeters>2537.60009765625</AltitudeMeters>
            <DistanceMeters>32879.510869012</DistanceMeters>
          </Trackpoint>
          <Trackpoint>
            <Time>2022-07-10T09:12:57.000Z</Time>
            <Position>
              <LatitudeDegrees>42.7582024969160556793212890625</LatitudeDegrees>
              <LongitudeDegrees>-0.20154227502644062042236328125</LongitudeDegrees>
            </Position>
            <AltitudeMeters>2538</AltitudeMeters>
            <DistanceMeters>32881.815144375</DistanceMeters>
          </Trackpoint>
          <Trackpoint>
            <Time>2022-07-10T09:13:02.000Z</Time>
            <Position>
              <LatitudeDegrees>42.75820258073508739471435546875</LatitudeDegrees>
              <LongitudeDegrees>-0.201600529253482818603515625</LongitudeDegrees>
            </Position>
            <AltitudeMeters>2538.800048828125</AltitudeMeters>
            <DistanceMeters>32886.575973281</DistanceMeters>
          </Trackpoint>
          <Trackpoint>
            <Time>2022-07-10T09:13:04.000Z</Time>
            <Position>
              <LatitudeDegrees>42.75818481110036373138427734375</LatitudeDegrees>
              <LongitudeDegrees>-0.20161804743111133575439453125</LongitudeDegrees>
            </Position>
            <AltitudeMeters>2539.199951171875</AltitudeMeters>
            <DistanceMeters>32889.017253776</DistanceMeters>
          </Trackpoint>
          <Trackpoint>
            <Time>2022-07-10T09:13:09.000Z</Time>
            <Position>
              <LatitudeDegrees>42.7581882476806640625</LatitudeDegrees>
              <LongitudeDegrees>-0.20167219452559947967529296875</LongitudeDegrees>
            </Position>
            <AltitudeMeters>2540.199951171875</AltitudeMeters>
            <DistanceMeters>32893.458164375</DistanceMeters>
          </Trackpoint>
          <Trackpoint>
            <Time>2022-07-10T09:13:10.000Z</Time>
            <Position>
              <LatitudeDegrees>42.75819185189902782440185546875</LatitudeDegrees>
              <LongitudeDegrees>-0.20168174989521503448486328125</LongitudeDegrees>
            </Position>
            <AltitudeMeters>2540.39990234375</AltitudeMeters>
            <DistanceMeters>32894.334267393</DistanceMeters>
          </Trackpoint>
          <Trackpoint>
            <Time>2022-07-10T09:13:16.000Z</Time>
            <Position>
              <LatitudeDegrees>42.75820727460086345672607421875</LatitudeDegrees>
              <LongitudeDegrees>-0.20175383426249027252197265625</LongitudeDegrees>
            </Position>
            <AltitudeMeters>2540.800048828125</AltitudeMeters>
            <DistanceMeters>32900.470668518</DistanceMeters>
          </Trackpoint>
          <Trackpoint>
            <Time>2022-07-10T09:13:22.000Z</Time>
            <Position>
              <LatitudeDegrees>42.75819285772740840911865234375</LatitudeDegrees>
              <LongitudeDegrees>-0.2017800696194171905517578125</LongitudeDegrees>
            </Position>
            <AltitudeMeters>2540.60009765625</AltitudeMeters>
            <DistanceMeters>32903.148331809</DistanceMeters>
          </Trackpoint>
          <Trackpoint>
            <Time>2022-07-10T09:13:28.000Z</Time>
            <Position>
              <LatitudeDegrees>42.75813116692006587982177734375</LatitudeDegrees>
              <LongitudeDegrees>-0.201820470392704010009765625</LongitudeDegrees>
            </Position>
            <AltitudeMeters>2541.39990234375</AltitudeMeters>
            <DistanceMeters>32910.767080484</DistanceMeters>
          </Trackpoint>
          <Trackpoint>
            <Time>2022-07-10T09:13:29.000Z</Time>
            <Position>
              <LatitudeDegrees>42.75812915526330471038818359375</LatitudeDegrees>
              <LongitudeDegrees>-0.201838575303554534912109375</LongitudeDegrees>
            </Position>
            <AltitudeMeters>2541.39990234375</AltitudeMeters>
            <DistanceMeters>32912.263562679</DistanceMeters>
          </Trackpoint>
          <Trackpoint>
            <Time>2022-07-10T09:13:35.000Z</Time>
            <Position>
              <LatitudeDegrees>42.758120186626911163330078125</LatitudeDegrees>
              <LongitudeDegrees>-0.20191074348986148834228515625</LongitudeDegrees>
            </Position>
            <AltitudeMeters>2541.39990234375</AltitudeMeters>
            <DistanceMeters>32918.244964092</DistanceMeters>
          </Trackpoint>
          <Trackpoint>
            <Time>2022-07-10T09:13:38.000Z</Time>
            <Position>
              <LatitudeDegrees>42.75811649858951568603515625</LatitudeDegrees>
              <LongitudeDegrees>-0.2019078098237514495849609375</LongitudeDegrees>
            </Position>
            <AltitudeMeters>2541.39990234375</AltitudeMeters>
            <DistanceMeters>32918.720097664</DistanceMeters>
          </Trackpoint>
          <Trackpoint>
            <Time>2022-07-10T10:06:04.000Z</Time>
            <Position>
              <LatitudeDegrees>42.7580053545534610748291015625</LatitudeDegrees>
              <LongitudeDegrees>-0.202073268592357635498046875</LongitudeDegrees>
            </Position>
            <AltitudeMeters>2546.60009765625</AltitudeMeters>
            <DistanceMeters>32937.04670846</DistanceMeters>
          </Trackpoint>
          <Trackpoint>
            <Time>2022-07-10T10:06:05.000Z</Time>
            <Position>
              <LatitudeDegrees>42.7580070309340953826904296875</LatitudeDegrees>
              <LongitudeDegrees>-0.20209078676998615264892578125</LongitudeDegrees>
            </Position>
            <AltitudeMeters>2546.60009765625</AltitudeMeters>
            <DistanceMeters>32938.490989478</DistanceMeters>
          </Trackpoint>
          <Trackpoint>
            <Time>2022-07-10T10:06:08.000Z</Time>
            <Position>
              <LatitudeDegrees>42.7580077014863491058349609375</LatitudeDegrees>
              <LongitudeDegrees>-0.202152393758296966552734375</LongitudeDegrees>
            </Position>
            <AltitudeMeters>2546.60009765625</AltitudeMeters>
            <DistanceMeters>32943.526508781</DistanceMeters>
          </Trackpoint>
          <Trackpoint>
            <Time>2022-07-10T10:06:11.000Z</Time>
            <Position>
              <LatitudeDegrees>42.75800895877182483673095703125</LatitudeDegrees>
              <LongitudeDegrees>-0.20216672681272029876708984375</LongitudeDegrees>
            </Position>
            <AltitudeMeters>2546</AltitudeMeters>
            <DistanceMeters>32944.705759294</DistanceMeters>
          </Trackpoint>
          <Trackpoint>
            <Time>2022-07-10T10:06:14.000Z</Time>
            <Position>
              <LatitudeDegrees>42.75800518691539764404296875</LatitudeDegrees>
              <LongitudeDegrees>-0.20221567712724208831787109375</LongitudeDegrees>
            </Position>
            <AltitudeMeters>2546</AltitudeMeters>
            <DistanceMeters>32948.72843216</DistanceMeters>
          </Trackpoint>
          <Trackpoint>
            <Time>2022-07-10T10:06:15.000Z</Time>
            <Position>
              <LatitudeDegrees>42.75801189243793487548828125</LatitudeDegrees>
              <LongitudeDegrees>-0.20220695994794368743896484375</LongitudeDegrees>
            </Position>
            <AltitudeMeters>2546</AltitudeMeters>
            <DistanceMeters>32949.760686499</DistanceMeters>
          </Trackpoint>
          <Trackpoint>
            <Time>2022-07-10T10:06:17.000Z</Time>
            <Position>
              <LatitudeDegrees>42.7580127306282520294189453125</LatitudeDegrees>
              <LongitudeDegrees>-0.2022313512861728668212890625</LongitudeDegrees>
            </Position>
            <AltitudeMeters>2545.800048828125</AltitudeMeters>
            <DistanceMeters>32951.756247501</DistanceMeters>
          </Trackpoint>
          <Trackpoint>
            <Time>2022-07-10T10:06:18.000Z</Time>
            <Position>
              <LatitudeDegrees>42.7580150775611400604248046875</LatitudeDegrees>
              <LongitudeDegrees>-0.2022400684654712677001953125</LongitudeDegrees>
            </Position>
            <AltitudeMeters>2545.60009765625</AltitudeMeters>
            <DistanceMeters>32952.516461216</DistanceMeters>
          </Trackpoint>
          <Trackpoint>
            <Time>2022-07-10T10:06:20.000Z</Time>
            <Position>
              <LatitudeDegrees>42.758016251027584075927734375</LatitudeDegrees>
              <LongitudeDegrees>-0.2022652141749858856201171875</LongitudeDegrees>
            </Position>
            <AltitudeMeters>2545.199951171875</AltitudeMeters>
            <DistanceMeters>32954.574398497</DistanceMeters>
          </Trackpoint>
          <Trackpoint>
            <Time>2022-07-10T10:06:22.000Z</Time>
            <Position>
              <LatitudeDegrees>42.7580098807811737060546875</LatitudeDegrees>
              <LongitudeDegrees>-0.202279798686504364013671875</LongitudeDegrees>
            </Position>
            <AltitudeMeters>2544.800048828125</AltitudeMeters>
            <DistanceMeters>32955.961267735</DistanceMeters>
          </Trackpoint>
          <Trackpoint>
            <Time>2022-07-10T10:06:25.000Z</Time>
            <Position>
              <LatitudeDegrees>42.758006863296031951904296875</LatitudeDegrees>
              <LongitudeDegrees>-0.20231592468917369842529296875</LongitudeDegrees>
            </Position>
            <AltitudeMeters>2544.39990234375</AltitudeMeters>
            <DistanceMeters>32958.933037369</DistanceMeters>
          </Trackpoint>
          <Trackpoint>
            <Time>2022-07-10T10:06:28.000Z</Time>
            <Position>
              <LatitudeDegrees>42.757995128631591796875</LatitudeDegrees>
              <LongitudeDegrees>-0.202333442866802215576171875</LongitudeDegrees>
            </Position>
            <AltitudeMeters>2544.199951171875</AltitudeMeters>
            <DistanceMeters>32960.871209653</DistanceMeters>
          </Trackpoint>
          <Trackpoint>
            <Time>2022-07-10T10:06:30.000Z</Time>
            <Position>
              <LatitudeDegrees>42.75798079557716846466064453125</LatitudeDegrees>
              <LongitudeDegrees>-0.20236018113791942596435546875</LongitudeDegrees>
            </Position>
            <AltitudeMeters>2543.199951171875</AltitudeMeters>
            <DistanceMeters>32963.575717357</DistanceMeters>
          </Trackpoint>
          <Trackpoint>
            <Time>2022-07-10T10:06:33.000Z</Time>
            <Position>
              <LatitudeDegrees>42.7579761855304241180419921875</LatitudeDegrees>
              <LongitudeDegrees>-0.2023879252374172210693359375</LongitudeDegrees>
            </Position>
            <AltitudeMeters>2542.39990234375</AltitudeMeters>
            <DistanceMeters>32965.89950429</DistanceMeters>
          </Trackpoint>
          <Trackpoint>
            <Time>2022-07-10T10:06:34.000Z</Time>
            <Position>
              <LatitudeDegrees>42.75797023437917232513427734375</LatitudeDegrees>
              <LongitudeDegrees>-0.20240041427314281463623046875</LongitudeDegrees>
            </Position>
            <AltitudeMeters>2542.199951171875</AltitudeMeters>
            <DistanceMeters>32967.116440006</DistanceMeters>
          </Trackpoint>
          <Trackpoint>
            <Time>2022-07-10T10:06:36.000Z</Time>
            <Position>
              <LatitudeDegrees>42.7579584158957004547119140625</LatitudeDegrees>
              <LongitudeDegrees>-0.2024177648127079010009765625</LongitudeDegrees>
            </Position>
            <AltitudeMeters>2541.800048828125</AltitudeMeters>
            <DistanceMeters>32969.049947609</DistanceMeters>
          </Trackpoint>
          <Trackpoint>
            <Time>2022-07-10T10:06:39.000Z</Time>
            <Position>
              <LatitudeDegrees>42.75792874395847320556640625</LatitudeDegrees>
              <LongitudeDegrees>-0.20244249142706394195556640625</LongitudeDegrees>
            </Position>
            <AltitudeMeters>2541.60009765625</AltitudeMeters>
            <DistanceMeters>32972.920463959</DistanceMeters>
          </Trackpoint>
          <Trackpoint>
            <Time>2022-07-10T10:06:41.000Z</Time>
            <Position>
              <LatitudeDegrees>42.75791265070438385009765625</LatitudeDegrees>
              <LongitudeDegrees>-0.20247995853424072265625</LongitudeDegrees>
            </Position>
            <AltitudeMeters>2540.800048828125</AltitudeMeters>
            <DistanceMeters>32976.468410769</DistanceMeters>
          </Trackpoint>
          <Trackpoint>
            <Time>2022-07-10T10:06:44.000Z</Time>
            <Position>
              <LatitudeDegrees>42.75787920691072940826416015625</LatitudeDegrees>
              <LongitudeDegrees>-0.20253284834325313568115234375</LongitudeDegrees>
            </Position>
            <AltitudeMeters>2539.800048828125</AltitudeMeters>
            <DistanceMeters>32982.173180309</DistanceMeters>
          </Trackpoint>
          <Trackpoint>
            <Time>2022-07-10T10:06:48.000Z</Time>
            <Position>
              <LatitudeDegrees>42.7578400634229183197021484375</LatitudeDegrees>
              <LongitudeDegrees>-0.20259655080735683441162109375</LongitudeDegrees>
            </Position>
            <AltitudeMeters>2538.800048828125</AltitudeMeters>
            <DistanceMeters>32988.96144077</DistanceMeters>
          </Trackpoint>
          <Trackpoint>
            <Time>2022-07-10T10:06:49.000Z</Time>
            <Position>
              <LatitudeDegrees>42.75782958604395389556884765625</LatitudeDegrees>
              <LongitudeDegrees>-0.2026100456714630126953125</LongitudeDegrees>
            </Position>
            <AltitudeMeters>2538.60009765625</AltitudeMeters>
            <DistanceMeters>32990.568488331</DistanceMeters>
          </Trackpoint>
          <Trackpoint>
            <Time>2022-07-10T10:06:51.000Z</Time>
            <Position>
              <LatitudeDegrees>42.7578018419444561004638671875</LatitudeDegrees>
              <LongitudeDegrees>-0.20263393409550189971923828125</LongitudeDegrees>
            </Position>
            <AltitudeMeters>2537.800048828125</AltitudeMeters>
            <DistanceMeters>32994.221768088</DistanceMeters>
          </Trackpoint>
          <Trackpoint>
            <Time>2022-07-10T10:06:54.000Z</Time>
            <Position>
              <LatitudeDegrees>42.75776873342692852020263671875</LatitudeDegrees>
              <LongitudeDegrees>-0.20265790633857250213623046875</LongitudeDegrees>
            </Position>
            <AltitudeMeters>2537.39990234375</AltitudeMeters>
            <DistanceMeters>32998.394295785</DistanceMeters>
          </Trackpoint>
          <Trackpoint>
            <Time>2022-07-10T10:06:55.000Z</Time>
            <Position>
              <LatitudeDegrees>42.7577609382569789886474609375</LatitudeDegrees>
              <LongitudeDegrees>-0.20266142673790454864501953125</LongitudeDegrees>
            </Position>
            <AltitudeMeters>2537.800048828125</AltitudeMeters>
            <DistanceMeters>32999.310700232</DistanceMeters>
          </Trackpoint>
          <Trackpoint>
            <Time>2022-07-10T10:06:56.000Z</Time>
            <Position>
              <LatitudeDegrees>42.75775582529604434967041015625</LatitudeDegrees>
              <LongitudeDegrees>-0.2026645280420780181884765625</LongitudeDegrees>
            </Position>
            <AltitudeMeters>2538.199951171875</AltitudeMeters>
            <DistanceMeters>32999.933832069</DistanceMeters>
          </Trackpoint>
          <Trackpoint>
            <Time>2022-07-10T10:07:02.000Z</Time>
            <Position>
              <LatitudeDegrees>42.7577076293528079986572265625</LatitudeDegrees>
              <LongitudeDegrees>-0.20271557383239269256591796875</LongitudeDegrees>
            </Position>
            <AltitudeMeters>2537.39990234375</AltitudeMeters>
            <DistanceMeters>33006.729404962</DistanceMeters>
          </Trackpoint>
          <Trackpoint>
            <Time>2022-07-10T10:07:03.000Z</Time>
            <Position>
              <LatitudeDegrees>42.75769480504095554351806640625</LatitudeDegrees>
              <LongitudeDegrees>-0.20272982306778430938720703125</LongitudeDegrees>
            </Position>
            <AltitudeMeters>2537.199951171875</AltitudeMeters>
            <DistanceMeters>33008.569589373</DistanceMeters>
          </Trackpoint>
          <Trackpoint>
            <Time>2022-07-10T10:07:05.000Z</Time>
            <Position>
              <LatitudeDegrees>42.757682986557483673095703125</LatitudeDegrees>
              <LongitudeDegrees>-0.20274608395993709564208984375</LongitudeDegrees>
            </Position>
            <AltitudeMeters>2536.60009765625</AltitudeMeters>
            <DistanceMeters>33010.441398567</DistanceMeters>
          </Trackpoint>
          <Trackpoint>
            <Time>2022-07-10T10:07:11.000Z</Time>
            <Position>
              <LatitudeDegrees>42.75764786638319492340087890625</LatitudeDegrees>
              <LongitudeDegrees>-0.202818922698497772216796875</LongitudeDegrees>
            </Position>
            <AltitudeMeters>2536.39990234375</AltitudeMeters>
            <DistanceMeters>33017.56269826</DistanceMeters>
          </Trackpoint>
          <Trackpoint>
            <Time>2022-07-10T10:07:17.000Z</Time>
            <Position>
              <LatitudeDegrees>42.75764266960322856903076171875</LatitudeDegrees>
              <LongitudeDegrees>-0.202857814729213714599609375</LongitudeDegrees>
            </Position>
            <AltitudeMeters>2536.199951171875</AltitudeMeters>
            <DistanceMeters>33020.793606548</DistanceMeters>
          </Trackpoint>
          <Trackpoint>
            <Time>2022-07-10T10:07:19.000Z</Time>
            <Position>
              <LatitudeDegrees>42.7576335333287715911865234375</LatitudeDegrees>
              <LongitudeDegrees>-0.2028636820614337921142578125</LongitudeDegrees>
            </Position>
            <AltitudeMeters>2536.199951171875</AltitudeMeters>
            <DistanceMeters>33021.917977796</DistanceMeters>
          </Trackpoint>
          <Trackpoint>
            <Time>2022-07-10T10:07:23.000Z</Time>
            <Position>
              <LatitudeDegrees>42.757605202496051788330078125</LatitudeDegrees>
              <LongitudeDegrees>-0.2028630115091800689697265625</LongitudeDegrees>
            </Position>
            <AltitudeMeters>2536.60009765625</AltitudeMeters>
            <DistanceMeters>33025.072521224</DistanceMeters>
          </Trackpoint>
          <Trackpoint>
            <Time>2022-07-10T10:07:27.000Z</Time>
            <Position>
              <LatitudeDegrees>42.757569663226604461669921875</LatitudeDegrees>
              <LongitudeDegrees>-0.20288296043872833251953125</LongitudeDegrees>
            </Position>
            <AltitudeMeters>2537.199951171875</AltitudeMeters>
            <DistanceMeters>33029.350834554</DistanceMeters>
          </Trackpoint>
          <Trackpoint>
            <Time>2022-07-10T10:07:28.000Z</Time>
            <Position>
              <LatitudeDegrees>42.757558263838291168212890625</LatitudeDegrees>
              <LongitudeDegrees>-0.2029022388160228729248046875</LongitudeDegrees>
            </Position>
            <AltitudeMeters>2537.39990234375</AltitudeMeters>
            <DistanceMeters>33031.375594961</DistanceMeters>
          </Trackpoint>
          <Trackpoint>
            <Time>2022-07-10T10:07:29.000Z</Time>
            <Position>
              <LatitudeDegrees>42.75755482725799083709716796875</LatitudeDegrees>
              <LongitudeDegrees>-0.20291523076593875885009765625</LongitudeDegrees>
            </Position>
            <AltitudeMeters>2537.39990234375</AltitudeMeters>
            <DistanceMeters>33032.503974675</DistanceMeters>
          </Trackpoint>
          <Trackpoint>
            <Time>2022-07-10T10:07:32.000Z</Time>
            <Position>
              <LatitudeDegrees>42.75755130685865879058837890625</LatitudeDegrees>
              <LongitudeDegrees>-0.2029464952647686004638671875</LongitudeDegrees>
            </Position>
            <AltitudeMeters>2537.60009765625</AltitudeMeters>
            <DistanceMeters>33035.088980781</DistanceMeters>
          </Trackpoint>
          <Trackpoint>
            <Time>2022-07-10T10:07:33.000Z</Time>
            <Position>
              <LatitudeDegrees>42.75754845701158046722412109375</LatitudeDegrees>
              <LongitudeDegrees>-0.202952362596988677978515625</LongitudeDegrees>
            </Position>
            <AltitudeMeters>2537.800048828125</AltitudeMeters>
            <DistanceMeters>33035.659141067</DistanceMeters>
          </Trackpoint>
          <Trackpoint>
            <Time>2022-07-10T10:07:36.000Z</Time>
            <Position>
              <LatitudeDegrees>42.75755013339221477508544921875</LatitudeDegrees>
              <LongitudeDegrees>-0.20297549664974212646484375</LongitudeDegrees>
            </Position>
            <AltitudeMeters>2537.39990234375</AltitudeMeters>
            <DistanceMeters>33037.559675355</DistanceMeters>
          </Trackpoint>
          <Trackpoint>
            <Time>2022-07-10T10:07:41.000Z</Time>
            <Position>
              <LatitudeDegrees>42.7575755305588245391845703125</LatitudeDegrees>
              <LongitudeDegrees>-0.20298731513321399688720703125</LongitudeDegrees>
            </Position>
            <AltitudeMeters>2536.800048828125</AltitudeMeters>
            <DistanceMeters>33040.54962112</DistanceMeters>
          </Trackpoint>
          <Trackpoint>
            <Time>2022-07-10T10:07:42.000Z</Time>
            <Position>
              <LatitudeDegrees>42.75758231990039348602294921875</LatitudeDegrees>
              <LongitudeDegrees>-0.20298647694289684295654296875</LongitudeDegrees>
            </Position>
            <AltitudeMeters>2536.39990234375</AltitudeMeters>
            <DistanceMeters>33041.309834835</DistanceMeters>
          </Trackpoint>
          <Trackpoint>
            <Time>2022-07-10T10:07:48.000Z</Time>
            <Position>
              <LatitudeDegrees>42.75760612450540065765380859375</LatitudeDegrees>
              <LongitudeDegrees>-0.2030150592327117919921875</LongitudeDegrees>
            </Position>
            <AltitudeMeters>2535.60009765625</AltitudeMeters>
            <DistanceMeters>33044.839920598</DistanceMeters>
          </Trackpoint>
          <Trackpoint>
            <Time>2022-07-10T10:07:50.000Z</Time>
            <Position>
              <LatitudeDegrees>42.757611237466335296630859375</LatitudeDegrees>
              <LongitudeDegrees>-0.203024111688137054443359375</LongitudeDegrees>
            </Position>
            <AltitudeMeters>2535.39990234375</AltitudeMeters>
            <DistanceMeters>33045.770988446</DistanceMeters>
          </Trackpoint>
          <Trackpoint>
            <Time>2022-07-10T10:07:54.000Z</Time>
            <Position>
              <LatitudeDegrees>42.75761601515114307403564453125</LatitudeDegrees>
              <LongitudeDegrees>-0.203030817210674285888671875</LongitudeDegrees>
            </Position>
            <AltitudeMeters>2536</AltitudeMeters>
            <DistanceMeters>33046.537118311</DistanceMeters>
          </Trackpoint>
          <Trackpoint>
            <Time>2022-07-10T10:07:57.000Z</Time>
            <Position>
              <LatitudeDegrees>42.7576103992760181427001953125</LatitudeDegrees>
              <LongitudeDegrees>-0.203022100031375885009765625</LongitudeDegrees>
            </Position>
            <AltitudeMeters>2535.800048828125</AltitudeMeters>
            <DistanceMeters>33047.487385454</DistanceMeters>
          </Trackpoint>
          <Trackpoint>
            <Time>2022-07-10T10:08:00.000Z</Time>
            <Position>
              <LatitudeDegrees>42.75758952833712100982666015625</LatitudeDegrees>
              <LongitudeDegrees>-0.20301816053688526153564453125</LongitudeDegrees>
            </Position>
            <AltitudeMeters>2535.39990234375</AltitudeMeters>
            <DistanceMeters>33049.830521489</DistanceMeters>
          </Trackpoint>
          <Trackpoint>
            <Time>2022-07-10T10:08:05.000Z</Time>
            <Position>
              <LatitudeDegrees>42.7575503848493099212646484375</LatitudeDegrees>
              <LongitudeDegrees>-0.2030454017221927642822265625</LongitudeDegrees>
            </Position>
            <AltitudeMeters>2534.800048828125</AltitudeMeters>
            <DistanceMeters>33054.723243906</DistanceMeters>
          </Trackpoint>
          <Trackpoint>
            <Time>2022-07-10T10:08:07.000Z</Time>
            <Position>
              <LatitudeDegrees>42.75751895271241664886474609375</LatitudeDegrees>
              <LongitudeDegrees>-0.20305939950048923492431640625</LongitudeDegrees>
            </Position>
            <AltitudeMeters>2534.60009765625</AltitudeMeters>
            <DistanceMeters>33058.403612728</DistanceMeters>
          </Trackpoint>
          <Trackpoint>
            <Time>2022-07-10T10:08:08.000Z</Time>
            <Position>
              <LatitudeDegrees>42.7575047872960567474365234375</LatitudeDegrees>
              <LongitudeDegrees>-0.203063003718852996826171875</LongitudeDegrees>
            </Position>
            <AltitudeMeters>2534.39990234375</AltitudeMeters>
            <DistanceMeters>33060.007848305</DistanceMeters>
          </Trackpoint>
          <Trackpoint>
            <Time>2022-07-10T10:08:11.000Z</Time>
            <Position>
              <LatitudeDegrees>42.75747679173946380615234375</LatitudeDegrees>
              <LongitudeDegrees>-0.20306660793721675872802734375</LongitudeDegrees>
            </Position>
            <AltitudeMeters>2533.39990234375</AltitudeMeters>
            <DistanceMeters>33063.139407505</DistanceMeters>
          </Trackpoint>
          <Trackpoint>
            <Time>2022-07-10T10:08:13.000Z</Time>
            <Position>
              <LatitudeDegrees>42.75745960883796215057373046875</LatitudeDegrees>
              <LongitudeDegrees>-0.20309309475123882293701171875</LongitudeDegrees>
            </Position>
            <AltitudeMeters>2532.800048828125</AltitudeMeters>
            <DistanceMeters>33066.02796954</DistanceMeters>
          </Trackpoint>
          <Trackpoint>
            <Time>2022-07-10T10:08:14.000Z</Time>
            <Position>
              <LatitudeDegrees>42.75745256803929805755615234375</LatitudeDegrees>
              <LongitudeDegrees>-0.2031060867011547088623046875</LongitudeDegrees>
            </Position>
            <AltitudeMeters>2532.60009765625</AltitudeMeters>
            <DistanceMeters>33067.351538515</DistanceMeters>
          </Trackpoint>
          <Trackpoint>
            <Time>2022-07-10T10:08:16.000Z</Time>
            <Position>
              <LatitudeDegrees>42.7574400790035724639892578125</LatitudeDegrees>
              <LongitudeDegrees>-0.20312243141233921051025390625</LongitudeDegrees>
            </Position>
            <AltitudeMeters>2532.39990234375</AltitudeMeters>
            <DistanceMeters>33069.280370155</DistanceMeters>
          </Trackpoint>
          <Trackpoint>
            <Time>2022-07-10T10:08:20.000Z</Time>
            <Position>
              <LatitudeDegrees>42.75741535238921642303466796875</LatitudeDegrees>
              <LongitudeDegrees>-0.20314204506576061248779296875</LongitudeDegrees>
            </Position>
            <AltitudeMeters>2531.60009765625</AltitudeMeters>
            <DistanceMeters>33072.46624616</DistanceMeters>
          </Trackpoint>
          <Trackpoint>
            <Time>2022-07-10T10:08:22.000Z</Time>
            <Position>
              <LatitudeDegrees>42.7574035339057445526123046875</LatitudeDegrees>
              <LongitudeDegrees>-0.203142128884792327880859375</LongitudeDegrees>
            </Position>
            <AltitudeMeters>2531.39990234375</AltitudeMeters>
            <DistanceMeters>33073.782974939</DistanceMeters>
          </Trackpoint>
          <Trackpoint>
            <Time>2022-07-10T10:08:26.000Z</Time>
            <Position>
              <LatitudeDegrees>42.75737880729138851165771484375</LatitudeDegrees>
              <LongitudeDegrees>-0.203149504959583282470703125</LongitudeDegrees>
            </Position>
            <AltitudeMeters>2531</AltitudeMeters>
            <DistanceMeters>33076.598717668</DistanceMeters>
          </Trackpoint>
          <Trackpoint>
            <Time>2022-07-10T10:08:32.000Z</Time>
            <Position>
              <LatitudeDegrees>42.757338322699069976806640625</LatitudeDegrees>
              <LongitudeDegrees>-0.20315931178629398345947265625</LongitudeDegrees>
            </Position>
            <AltitudeMeters>2531.39990234375</AltitudeMeters>
            <DistanceMeters>33081.175810343</DistanceMeters>
          </Trackpoint>
          <Trackpoint>
            <Time>2022-07-10T10:08:37.000Z</Time>
            <Position>
              <LatitudeDegrees>42.7572918869554996490478515625</LatitudeDegrees>
              <LongitudeDegrees>-0.2032023109495639801025390625</LongitudeDegrees>
            </Position>
            <AltitudeMeters>2532</AltitudeMeters>
            <DistanceMeters>33087.425939197</DistanceMeters>
          </Trackpoint>
          <Trackpoint>
            <Time>2022-07-10T10:08:39.000Z</Time>
            <Position>
              <LatitudeDegrees>42.75728425942361354827880859375</LatitudeDegrees>
              <LongitudeDegrees>-0.20320348441600799560546875</LongitudeDegrees>
            </Position>
            <AltitudeMeters>2532.39990234375</AltitudeMeters>
            <DistanceMeters>33088.286442694</DistanceMeters>
          </Trackpoint>
          <Trackpoint>
            <Time>2022-07-10T10:08:40.000Z</Time>
            <Position>
              <LatitudeDegrees>42.75728107430040836334228515625</LatitudeDegrees>
              <LongitudeDegrees>-0.2032026462256908416748046875</LongitudeDegrees>
            </Position>
            <AltitudeMeters>2532.60009765625</AltitudeMeters>
            <DistanceMeters>33088.654479577</DistanceMeters>
          </Trackpoint>
          <Trackpoint>
            <Time>2022-07-10T10:08:46.000Z</Time>
            <Position>
              <LatitudeDegrees>42.7572348900139331817626953125</LatitudeDegrees>
              <LongitudeDegrees>-0.2032244391739368438720703125</LongitudeDegrees>
            </Position>
            <AltitudeMeters>2533.199951171875</AltitudeMeters>
            <DistanceMeters>33094.093462058</DistanceMeters>
          </Trackpoint>
          <Trackpoint>
            <Time>2022-07-10T10:08:47.000Z</Time>
            <Position>
              <LatitudeDegrees>42.7572239935398101806640625</LatitudeDegrees>
              <LongitudeDegrees>-0.20322703756392002105712890625</LongitudeDegrees>
            </Position>
            <AltitudeMeters>2533.199951171875</AltitudeMeters>
            <DistanceMeters>33095.325149048</DistanceMeters>
          </Trackpoint>
          <Trackpoint>
            <Time>2022-07-10T10:08:49.000Z</Time>
            <Position>
              <LatitudeDegrees>42.75720898993313312530517578125</LatitudeDegrees>
              <LongitudeDegrees>-0.20323835313320159912109375</LongitudeDegrees>
            </Position>
            <AltitudeMeters>2533.800048828125</AltitudeMeters>
            <DistanceMeters>33097.235162368</DistanceMeters>
          </Trackpoint>
          <Trackpoint>
            <Time>2022-07-10T10:08:54.000Z</Time>
            <Position>
              <LatitudeDegrees>42.757187783718109130859375</LatitudeDegrees>
              <LongitudeDegrees>-0.2033022232353687286376953125</LongitudeDegrees>
            </Position>
            <AltitudeMeters>2534.39990234375</AltitudeMeters>
            <DistanceMeters>33102.963626194</DistanceMeters>
          </Trackpoint>
          <Trackpoint>
            <Time>2022-07-10T10:08:55.000Z</Time>
            <Position>
              <LatitudeDegrees>42.757182754576206207275390625</LatitudeDegrees>
              <LongitudeDegrees>-0.20330607891082763671875</LongitudeDegrees>
            </Position>
            <AltitudeMeters>2534.199951171875</AltitudeMeters>
            <DistanceMeters>33103.608128728</DistanceMeters>
          </Trackpoint>
          <Trackpoint>
            <Time>2022-07-10T10:09:00.000Z</Time>
            <Position>
              <LatitudeDegrees>42.7571731992065906524658203125</LatitudeDegrees>
              <LongitudeDegrees>-0.20333751104772090911865234375</LongitudeDegrees>
            </Position>
            <AltitudeMeters>2534</AltitudeMeters>
            <DistanceMeters>33106.386746254</DistanceMeters>
          </Trackpoint>
          <Trackpoint>
            <Time>2022-07-10T10:09:02.000Z</Time>
            <Position>
              <LatitudeDegrees>42.75717110373079776763916015625</LatitudeDegrees>
              <LongitudeDegrees>-0.203358717262744903564453125</LongitudeDegrees>
            </Position>
            <AltitudeMeters>2534</AltitudeMeters>
            <DistanceMeters>33108.133791142</DistanceMeters>
          </Trackpoint>
          <Trackpoint>
            <Time>2022-07-10T10:09:04.000Z</Time>
            <Position>
              <LatitudeDegrees>42.75716775096952915191650390625</LatitudeDegrees>
              <LongitudeDegrees>-0.20337623544037342071533203125</LongitudeDegrees>
            </Position>
            <AltitudeMeters>2534.199951171875</AltitudeMeters>
            <DistanceMeters>33109.612059892</DistanceMeters>
          </Trackpoint>
          <Trackpoint>
            <Time>2022-07-10T10:09:06.000Z</Time>
            <Position>
              <LatitudeDegrees>42.7571597881615161895751953125</LatitudeDegrees>
              <LongitudeDegrees>-0.2033840306103229522705078125</LongitudeDegrees>
            </Position>
            <AltitudeMeters>2534.39990234375</AltitudeMeters>
            <DistanceMeters>33110.699690351</DistanceMeters>
          </Trackpoint>
          <Trackpoint>
            <Time>2022-07-10T10:09:12.000Z</Time>
            <Position>
              <LatitudeDegrees>42.757144533097743988037109375</LatitudeDegrees>
              <LongitudeDegrees>-0.2034252695739269256591796875</LongitudeDegrees>
            </Position>
            <AltitudeMeters>2534.39990234375</AltitudeMeters>
            <DistanceMeters>33114.474536126</DistanceMeters>
          </Trackpoint>
          <Trackpoint>
            <Time>2022-07-10T10:09:18.000Z</Time>
            <Position>
              <LatitudeDegrees>42.75713673792779445648193359375</LatitudeDegrees>
              <LongitudeDegrees>-0.2034316398203372955322265625</LongitudeDegrees>
            </Position>
            <AltitudeMeters>2533.60009765625</AltitudeMeters>
            <DistanceMeters>33115.489143792</DistanceMeters>
          </Trackpoint>
          <Trackpoint>
            <Time>2022-07-10T10:09:20.000Z</Time>
            <Position>
              <LatitudeDegrees>42.7571366541087627410888671875</LatitudeDegrees>
              <LongitudeDegrees>-0.20342954434454441070556640625</LongitudeDegrees>
            </Position>
            <AltitudeMeters>2533.39990234375</AltitudeMeters>
            <DistanceMeters>33115.67919722</DistanceMeters>
          </Trackpoint>
          <Trackpoint>
            <Time>2022-07-10T10:09:26.000Z</Time>
            <Position>
              <LatitudeDegrees>42.75711980648338794708251953125</LatitudeDegrees>
              <LongitudeDegrees>-0.2034219168126583099365234375</LongitudeDegrees>
            </Position>
            <AltitudeMeters>2533.60009765625</AltitudeMeters>
            <DistanceMeters>33117.658857084</DistanceMeters>
          </Trackpoint>
          <Trackpoint>
            <Time>2022-07-10T10:09:27.000Z</Time>
            <Position>
              <LatitudeDegrees>42.75711393915116786956787109375</LatitudeDegrees>
              <LongitudeDegrees>-0.2034286223351955413818359375</LongitudeDegrees>
            </Position>
            <AltitudeMeters>2533.60009765625</AltitudeMeters>
            <DistanceMeters>33118.508801856</DistanceMeters>
          </Trackpoint>
          <Trackpoint>
            <Time>2022-07-10T10:09:33.000Z</Time>
            <Position>
              <LatitudeDegrees>42.75709013454616069793701171875</LatitudeDegrees>
              <LongitudeDegrees>-0.20343658514320850372314453125</LongitudeDegrees>
            </Position>
            <AltitudeMeters>2534</AltitudeMeters>
            <DistanceMeters>33121.238236425</DistanceMeters>
          </Trackpoint>
          <Trackpoint>
            <Time>2022-07-10T10:09:39.000Z</Time>
            <Position>
              <LatitudeDegrees>42.7570746280252933502197265625</LatitudeDegrees>
              <LongitudeDegrees>-0.203425772488117218017578125</LongitudeDegrees>
            </Position>
            <AltitudeMeters>2533.39990234375</AltitudeMeters>
            <DistanceMeters>33123.176408709</DistanceMeters>
          </Trackpoint>
          <Trackpoint>
            <Time>2022-07-10T10:09:41.000Z</Time>
            <Position>
              <LatitudeDegrees>42.75704772211611270904541015625</LatitudeDegrees>
              <LongitudeDegrees>-0.2034188993275165557861328125</LongitudeDegrees>
            </Position>
            <AltitudeMeters>2533</AltitudeMeters>
            <DistanceMeters>33126.22319695</DistanceMeters>
          </Trackpoint>
          <Trackpoint>
            <Time>2022-07-10T10:09:42.000Z</Time>
            <Position>
              <LatitudeDegrees>42.7570380829274654388427734375</LatitudeDegrees>
              <LongitudeDegrees>-0.2034188993275165557861328125</LongitudeDegrees>
            </Position>
            <AltitudeMeters>2532.800048828125</AltitudeMeters>
            <DistanceMeters>33127.298301496</DistanceMeters>
          </Trackpoint>
          <Trackpoint>
            <Time>2022-07-10T10:09:46.000Z</Time>
            <Position>
              <LatitudeDegrees>42.75701142847537994384765625</LatitudeDegrees>
              <LongitudeDegrees>-0.2034356631338596343994140625</LongitudeDegrees>
            </Position>
            <AltitudeMeters>2532.60009765625</AltitudeMeters>
            <DistanceMeters>33130.566723199</DistanceMeters>
          </Trackpoint>
          <Trackpoint>
            <Time>2022-07-10T10:09:51.000Z</Time>
            <Position>
              <LatitudeDegrees>42.7570012025535106658935546875</LatitudeDegrees>
              <LongitudeDegrees>-0.2035218290984630584716796875</LongitudeDegrees>
            </Position>
            <AltitudeMeters>2533</AltitudeMeters>
            <DistanceMeters>33137.699426101</DistanceMeters>
          </Trackpoint>
          <Trackpoint>
            <Time>2022-07-10T10:09:52.000Z</Time>
            <Position>
              <LatitudeDegrees>42.757003717124462127685546875</LatitudeDegrees>
              <LongitudeDegrees>-0.20353850908577442169189453125</LongitudeDegrees>
            </Position>
            <AltitudeMeters>2533</AltitudeMeters>
            <DistanceMeters>33139.089547088</DistanceMeters>
          </Trackpoint>
          <Trackpoint>
            <Time>2022-07-10T10:09:53.000Z</Time>
            <Position>
              <LatitudeDegrees>42.757001034915447235107421875</LatitudeDegrees>
              <LongitudeDegrees>-0.2035546861588954925537109375</LongitudeDegrees>
            </Position>
            <AltitudeMeters>2533</AltitudeMeters>
            <DistanceMeters>33140.44346936</DistanceMeters>
          </Trackpoint>
          <Trackpoint>
            <Time>2022-07-10T10:09:59.000Z</Time>
            <Position>
              <LatitudeDegrees>42.75698016397655010223388671875</LatitudeDegrees>
              <LongitudeDegrees>-0.20361545495688915252685546875</LongitudeDegrees>
            </Position>
            <AltitudeMeters>2532.39990234375</AltitudeMeters>
            <DistanceMeters>33145.925448419</DistanceMeters>
          </Trackpoint>
          <Trackpoint>
            <Time>2022-07-10T10:10:00.000Z</Time>
            <Position>
              <LatitudeDegrees>42.756976895034313201904296875</LatitudeDegrees>
              <LongitudeDegrees>-0.20362165756523609161376953125</LongitudeDegrees>
            </Position>
            <AltitudeMeters>2532.199951171875</AltitudeMeters>
            <DistanceMeters>33146.555784333</DistanceMeters>
          </Trackpoint>
          <Trackpoint>
            <Time>2022-07-10T10:10:02.000Z</Time>
            <Position>
              <LatitudeDegrees>42.75697278790175914764404296875</LatitudeDegrees>
              <LongitudeDegrees>-0.2036438696086406707763671875</LongitudeDegrees>
            </Position>
            <AltitudeMeters>2531.800048828125</AltitudeMeters>
            <DistanceMeters>33148.427593527</DistanceMeters>
          </Trackpoint>
          <Trackpoint>
            <Time>2022-07-10T10:10:05.000Z</Time>
            <Position>
              <LatitudeDegrees>42.75696490891277790069580078125</LatitudeDegrees>
              <LongitudeDegrees>-0.20367446355521678924560546875</LongitudeDegrees>
            </Position>
            <AltitudeMeters>2531.39990234375</AltitudeMeters>
            <DistanceMeters>33151.076436557</DistanceMeters>
          </Trackpoint>
          <Trackpoint>
            <Time>2022-07-10T10:10:07.000Z</Time>
            <Position>
              <LatitudeDegrees>42.7569633163511753082275390625</LatitudeDegrees>
              <LongitudeDegrees>-0.20370447076857089996337890625</LongitudeDegrees>
            </Position>
            <AltitudeMeters>2530.800048828125</AltitudeMeters>
            <DistanceMeters>33153.536142071</DistanceMeters>
          </Trackpoint>
          <Trackpoint>
            <Time>2022-07-10T10:10:08.000Z</Time>
            <Position>
              <LatitudeDegrees>42.7569616399705410003662109375</LatitudeDegrees>
              <LongitudeDegrees>-0.2037172950804233551025390625</LongitudeDegrees>
            </Position>
            <AltitudeMeters>2530.60009765625</AltitudeMeters>
            <DistanceMeters>33154.602814295</DistanceMeters>
          </Trackpoint>
          <Trackpoint>
            <Time>2022-07-10T10:10:13.000Z</Time>
            <Position>
              <LatitudeDegrees>42.75695954449474811553955078125</LatitudeDegrees>
              <LongitudeDegrees>-0.2037820033729076385498046875</LongitudeDegrees>
            </Position>
            <AltitudeMeters>2529.800048828125</AltitudeMeters>
            <DistanceMeters>33159.896237309</DistanceMeters>
          </Trackpoint>
          <Trackpoint>
            <Time>2022-07-10T10:10:14.000Z</Time>
            <Position>
              <LatitudeDegrees>42.7569572813808917999267578125</LatitudeDegrees>
              <LongitudeDegrees>-0.20379432477056980133056640625</LongitudeDegrees>
            </Position>
            <AltitudeMeters>2529.60009765625</AltitudeMeters>
            <DistanceMeters>33160.937202809</DistanceMeters>
          </Trackpoint>
          <Trackpoint>
            <Time>2022-07-10T10:10:18.000Z</Time>
            <Position>
              <LatitudeDegrees>42.75693607516586780548095703125</LatitudeDegrees>
              <LongitudeDegrees>-0.20382684655487537384033203125</LongitudeDegrees>
            </Position>
            <AltitudeMeters>2529</AltitudeMeters>
            <DistanceMeters>33164.490236283</DistanceMeters>
          </Trackpoint>
          <Trackpoint>
            <Time>2022-07-10T10:10:19.000Z</Time>
            <Position>
              <LatitudeDegrees>42.756930626928806304931640625</LatitudeDegrees>
              <LongitudeDegrees>-0.20383221097290515899658203125</LongitudeDegrees>
            </Position>
            <AltitudeMeters>2528.39990234375</AltitudeMeters>
            <DistanceMeters>33165.23847738</DistanceMeters>
          </Trackpoint>
          <Trackpoint>
            <Time>2022-07-10T10:10:20.000Z</Time>
            <Position>
              <LatitudeDegrees>42.75692467577755451202392578125</LatitudeDegrees>
              <LongitudeDegrees>-0.20384176634252071380615234375</LongitudeDegrees>
            </Position>
            <AltitudeMeters>2528</AltitudeMeters>
            <DistanceMeters>33166.261946416</DistanceMeters>
          </Trackpoint>
          <Trackpoint>
            <Time>2022-07-10T10:10:25.000Z</Time>
            <Position>
              <LatitudeDegrees>42.75689953006803989410400390625</LatitudeDegrees>
              <LongitudeDegrees>-0.2038869448006153106689453125</LongitudeDegrees>
            </Position>
            <AltitudeMeters>2527.39990234375</AltitudeMeters>
            <DistanceMeters>33170.894925124</DistanceMeters>
          </Trackpoint>
          <Trackpoint>
            <Time>2022-07-10T10:10:26.000Z</Time>
            <Position>
              <LatitudeDegrees>42.7568959258496761322021484375</LatitudeDegrees>
              <LongitudeDegrees>-0.20389004610478878021240234375</LongitudeDegrees>
            </Position>
            <AltitudeMeters>2527.199951171875</AltitudeMeters>
            <DistanceMeters>33171.370058696</DistanceMeters>
          </Trackpoint>
          <Trackpoint>
            <Time>2022-07-10T10:10:27.000Z</Time>
            <Position>
              <LatitudeDegrees>42.756891064345836639404296875</LatitudeDegrees>
              <LongitudeDegrees>-0.203887782990932464599609375</LongitudeDegrees>
            </Position>
            <AltitudeMeters>2527</AltitudeMeters>
            <DistanceMeters>33171.940218982</DistanceMeters>
          </Trackpoint>
          <Trackpoint>
            <Time>2022-07-10T10:10:29.000Z</Time>
            <Position>
              <LatitudeDegrees>42.75687723420560359954833984375</LatitudeDegrees>
              <LongitudeDegrees>-0.203897170722484588623046875</LongitudeDegrees>
            </Position>
            <AltitudeMeters>2526.800048828125</AltitudeMeters>
            <DistanceMeters>33173.661225976</DistanceMeters>
          </Trackpoint>
          <Trackpoint>
            <Time>2022-07-10T10:10:31.000Z</Time>
            <Position>
              <LatitudeDegrees>42.7568506635725498199462890625</LatitudeDegrees>
              <LongitudeDegrees>-0.20390965975821018218994140625</LongitudeDegrees>
            </Position>
            <AltitudeMeters>2526.60009765625</AltitudeMeters>
            <DistanceMeters>33176.789900275</DistanceMeters>
          </Trackpoint>
          <Trackpoint>
            <Time>2022-07-10T10:10:32.000Z</Time>
            <Position>
              <LatitudeDegrees>42.7568369172513484954833984375</LatitudeDegrees>
              <LongitudeDegrees>-0.20391804166138172149658203125</LongitudeDegrees>
            </Position>
            <AltitudeMeters>2526.60009765625</AltitudeMeters>
            <DistanceMeters>33178.463018232</DistanceMeters>
          </Trackpoint>
          <Trackpoint>
            <Time>2022-07-10T10:10:33.000Z</Time>
            <Position>
              <LatitudeDegrees>42.75682208128273487091064453125</LatitudeDegrees>
              <LongitudeDegrees>-0.2039270102977752685546875</LongitudeDegrees>
            </Position>
            <AltitudeMeters>2526.39990234375</AltitudeMeters>
            <DistanceMeters>33180.266023367</DistanceMeters>
          </Trackpoint>
          <Trackpoint>
            <Time>2022-07-10T10:10:34.000Z</Time>
            <Position>
              <LatitudeDegrees>42.75680833496153354644775390625</LatitudeDegrees>
              <LongitudeDegrees>-0.20393564365804195404052734375</LongitudeDegrees>
            </Position>
            <AltitudeMeters>2526.39990234375</AltitudeMeters>
            <DistanceMeters>33181.949901036</DistanceMeters>
          </Trackpoint>
          <Trackpoint>
            <Time>2022-07-10T10:10:38.000Z</Time>
            <Position>
              <LatitudeDegrees>42.7567675150930881500244140625</LatitudeDegrees>
              <LongitudeDegrees>-0.20396078936755657196044921875</LongitudeDegrees>
            </Position>
            <AltitudeMeters>2526.39990234375</AltitudeMeters>
            <DistanceMeters>33186.93586137</DistanceMeters>
          </Trackpoint>
          <Trackpoint>
            <Time>2022-07-10T10:10:43.000Z</Time>
            <Position>
              <LatitudeDegrees>42.75672837160527706146240234375</LatitudeDegrees>
              <LongitudeDegrees>-0.20401745103299617767333984375</LongitudeDegrees>
            </Position>
            <AltitudeMeters>2527</AltitudeMeters>
            <DistanceMeters>33193.293425539</DistanceMeters>
          </Trackpoint>
          <Trackpoint>
            <Time>2022-07-10T10:10:45.000Z</Time>
            <Position>
              <LatitudeDegrees>42.7567256055772304534912109375</LatitudeDegrees>
              <LongitudeDegrees>-0.20403974689543247222900390625</LongitudeDegrees>
            </Position>
            <AltitudeMeters>2527.199951171875</AltitudeMeters>
            <DistanceMeters>33195.143398234</DistanceMeters>
          </Trackpoint>
          <Trackpoint>
            <Time>2022-07-10T10:10:47.000Z</Time>
            <Position>
              <LatitudeDegrees>42.7567175589501857757568359375</LatitudeDegrees>
              <LongitudeDegrees>-0.20405600778758525848388671875</LongitudeDegrees>
            </Position>
            <AltitudeMeters>2527.199951171875</AltitudeMeters>
            <DistanceMeters>33196.747633811</DistanceMeters>
          </Trackpoint>
          <Trackpoint>
            <Time>2022-07-10T10:10:49.000Z</Time>
            <Position>
              <LatitudeDegrees>42.756710015237331390380859375</LatitudeDegrees>
              <LongitudeDegrees>-0.20407411269843578338623046875</LongitudeDegrees>
            </Position>
            <AltitudeMeters>2526.60009765625</AltitudeMeters>
            <DistanceMeters>33198.452827236</DistanceMeters>
          </Trackpoint>
          <Trackpoint>
            <Time>2022-07-10T10:10:50.000Z</Time>
            <Position>
              <LatitudeDegrees>42.75670389644801616668701171875</LatitudeDegrees>
              <LongitudeDegrees>-0.2040850929915904998779296875</LongitudeDegrees>
            </Position>
            <AltitudeMeters>2526.39990234375</AltitudeMeters>
            <DistanceMeters>33199.577198483</DistanceMeters>
          </Trackpoint>
          <Trackpoint>
            <Time>2022-07-10T10:10:52.000Z</Time>
            <Position>
              <LatitudeDegrees>42.75668554008007049560546875</LatitudeDegrees>
              <LongitudeDegrees>-0.20410127006471157073974609375</LongitudeDegrees>
            </Position>
            <AltitudeMeters>2526.39990234375</AltitudeMeters>
            <DistanceMeters>33202.011069915</DistanceMeters>
          </Trackpoint>
          <Trackpoint>
            <Time>2022-07-10T10:10:53.000Z</Time>
            <Position>
              <LatitudeDegrees>42.7566768229007720947265625</LatitudeDegrees>
              <LongitudeDegrees>-0.20411149598658084869384765625</LongitudeDegrees>
            </Position>
            <AltitudeMeters>2526.199951171875</AltitudeMeters>
            <DistanceMeters>33203.29305038</DistanceMeters>
          </Trackpoint>
          <Trackpoint>
            <Time>2022-07-10T10:10:56.000Z</Time>
            <Position>
              <LatitudeDegrees>42.75664974935352802276611328125</LatitudeDegrees>
              <LongitudeDegrees>-0.2041430957615375518798828125</LongitudeDegrees>
            </Position>
            <AltitudeMeters>2526</AltitudeMeters>
            <DistanceMeters>33207.263757303</DistanceMeters>
          </Trackpoint>
          <Trackpoint>
            <Time>2022-07-10T10:10:57.000Z</Time>
            <Position>
              <LatitudeDegrees>42.75664153508841991424560546875</LatitudeDegrees>
              <LongitudeDegrees>-0.20415390841662883758544921875</LongitudeDegrees>
            </Position>
            <AltitudeMeters>2525.800048828125</AltitudeMeters>
            <DistanceMeters>33208.531571804</DistanceMeters>
          </Trackpoint>
          <Trackpoint>
            <Time>2022-07-10T10:11:03.000Z</Time>
            <Position>
              <LatitudeDegrees>42.75660063140094280242919921875</LatitudeDegrees>
              <LongitudeDegrees>-0.204247198998928070068359375</LongitudeDegrees>
            </Position>
            <AltitudeMeters>2525.60009765625</AltitudeMeters>
            <DistanceMeters>33217.411359386</DistanceMeters>
          </Trackpoint>
          <Trackpoint>
            <Time>2022-07-10T10:11:04.000Z</Time>
            <Position>
              <LatitudeDegrees>42.7565901540219783782958984375</LatitudeDegrees>
              <LongitudeDegrees>-0.2042604424059391021728515625</LongitudeDegrees>
            </Position>
            <AltitudeMeters>2525.60009765625</AltitudeMeters>
            <DistanceMeters>33219.001460453</DistanceMeters>
          </Trackpoint>
          <Trackpoint>
            <Time>2022-07-10T10:11:09.000Z</Time>
            <Position>
              <LatitudeDegrees>42.75656559504568576812744140625</LatitudeDegrees>
              <LongitudeDegrees>-0.20432691089808940887451171875</LongitudeDegrees>
            </Position>
            <AltitudeMeters>2525</AltitudeMeters>
            <DistanceMeters>33225.081685199</DistanceMeters>
          </Trackpoint>
          <Trackpoint>
            <Time>2022-07-10T10:11:11.000Z</Time>
            <Position>
              <LatitudeDegrees>42.7565572969615459442138671875</LatitudeDegrees>
              <LongitudeDegrees>-0.204360187053680419921875</LongitudeDegrees>
            </Position>
            <AltitudeMeters>2524.60009765625</AltitudeMeters>
            <DistanceMeters>33227.954573967</DistanceMeters>
          </Trackpoint>
          <Trackpoint>
            <Time>2022-07-10T10:11:16.000Z</Time>
            <Position>
              <LatitudeDegrees>42.75652904994785785675048828125</LatitudeDegrees>
              <LongitudeDegrees>-0.2044505439698696136474609375</LongitudeDegrees>
            </Position>
            <AltitudeMeters>2524</AltitudeMeters>
            <DistanceMeters>33235.979691112</DistanceMeters>
          </Trackpoint>
          <Trackpoint>
            <Time>2022-07-10T10:11:17.000Z</Time>
            <Position>
              <LatitudeDegrees>42.75651924312114715576171875</LatitudeDegrees>
              <LongitudeDegrees>-0.2044634521007537841796875</LongitudeDegrees>
            </Position>
            <AltitudeMeters>2524</AltitudeMeters>
            <DistanceMeters>33237.500118542</DistanceMeters>
          </Trackpoint>
          <Trackpoint>
            <Time>2022-07-10T10:11:19.000Z</Time>
            <Position>
              <LatitudeDegrees>42.7564996294677257537841796875</LatitudeDegrees>
              <LongitudeDegrees>-0.204487927258014678955078125</LongitudeDegrees>
            </Position>
            <AltitudeMeters>2524</AltitudeMeters>
            <DistanceMeters>33240.461233911</DistanceMeters>
          </Trackpoint>
          <Trackpoint>
            <Time>2022-07-10T10:11:21.000Z</Time>
            <Position>
              <LatitudeDegrees>42.75648663751780986785888671875</LatitudeDegrees>
              <LongitudeDegrees>-0.2045108936727046966552734375</LongitudeDegrees>
            </Position>
            <AltitudeMeters>2524.199951171875</AltitudeMeters>
            <DistanceMeters>33242.82928743</DistanceMeters>
          </Trackpoint>
          <Trackpoint>
            <Time>2022-07-10T10:11:27.000Z</Time>
            <Position>
              <LatitudeDegrees>42.7564359270036220550537109375</LatitudeDegrees>
              <LongitudeDegrees>-0.2045960538089275360107421875</LongitudeDegrees>
            </Position>
            <AltitudeMeters>2524</AltitudeMeters>
            <DistanceMeters>33251.790059704</DistanceMeters>
          </Trackpoint>
          <Trackpoint>
            <Time>2022-07-10T10:11:29.000Z</Time>
            <Position>
              <LatitudeDegrees>42.756427042186260223388671875</LatitudeDegrees>
              <LongitudeDegrees>-0.20461524836719036102294921875</LongitudeDegrees>
            </Position>
            <AltitudeMeters>2524</AltitudeMeters>
            <DistanceMeters>33253.642471389</DistanceMeters>
          </Trackpoint>
          <Trackpoint>
            <Time>2022-07-10T10:11:31.000Z</Time>
            <Position>
              <LatitudeDegrees>42.75641958229243755340576171875</LatitudeDegrees>
              <LongitudeDegrees>-0.20463645458221435546875</LongitudeDegrees>
            </Position>
            <AltitudeMeters>2523.800048828125</AltitudeMeters>
            <DistanceMeters>33255.566615703</DistanceMeters>
          </Trackpoint>
          <Trackpoint>
            <Time>2022-07-10T10:11:34.000Z</Time>
            <Position>
              <LatitudeDegrees>42.75641455315053462982177734375</LatitudeDegrees>
              <LongitudeDegrees>-0.2046678029000759124755859375</LongitudeDegrees>
            </Position>
            <AltitudeMeters>2523.800048828125</AltitudeMeters>
            <DistanceMeters>33258.189766146</DistanceMeters>
          </Trackpoint>
          <Trackpoint>
            <Time>2022-07-10T10:11:35.000Z</Time>
            <Position>
              <LatitudeDegrees>42.7564114518463611602783203125</LatitudeDegrees>
              <LongitudeDegrees>-0.20467601716518402099609375</LongitudeDegrees>
            </Position>
            <AltitudeMeters>2523.800048828125</AltitudeMeters>
            <DistanceMeters>33258.944017309</DistanceMeters>
          </Trackpoint>
          <Trackpoint>
            <Time>2022-07-10T10:11:39.000Z</Time>
            <Position>
              <LatitudeDegrees>42.75638379156589508056640625</LatitudeDegrees>
              <LongitudeDegrees>-0.204719603061676025390625</LongitudeDegrees>
            </Position>
            <AltitudeMeters>2524</AltitudeMeters>
            <DistanceMeters>33263.651437791</DistanceMeters>
          </Trackpoint>
          <Trackpoint>
            <Time>2022-07-10T10:11:40.000Z</Time>
            <Position>
              <LatitudeDegrees>42.7563742361962795257568359375</LatitudeDegrees>
              <LongitudeDegrees>-0.20472957752645015716552734375</LongitudeDegrees>
            </Position>
            <AltitudeMeters>2524</AltitudeMeters>
            <DistanceMeters>33264.988582187</DistanceMeters>
          </Trackpoint>
          <Trackpoint>
            <Time>2022-07-10T10:11:42.000Z</Time>
            <Position>
              <LatitudeDegrees>42.7563598193228244781494140625</LatitudeDegrees>
              <LongitudeDegrees>-0.20474600605666637420654296875</LongitudeDegrees>
            </Position>
            <AltitudeMeters>2523.60009765625</AltitudeMeters>
            <DistanceMeters>33267.079169903</DistanceMeters>
          </Trackpoint>
          <Trackpoint>
            <Time>2022-07-10T10:11:45.000Z</Time>
            <Position>
              <LatitudeDegrees>42.7563321590423583984375</LatitudeDegrees>
              <LongitudeDegrees>-0.20477592945098876953125</LongitudeDegrees>
            </Position>
            <AltitudeMeters>2523.60009765625</AltitudeMeters>
            <DistanceMeters>33271.01102581</DistanceMeters>
          </Trackpoint>
          <Trackpoint>
            <Time>2022-07-10T10:11:48.000Z</Time>
            <Position>
              <LatitudeDegrees>42.7563226036727428436279296875</LatitudeDegrees>
              <LongitudeDegrees>-0.20479244180023670196533203125</LongitudeDegrees>
            </Position>
            <AltitudeMeters>2523.39990234375</AltitudeMeters>
            <DistanceMeters>33272.729407315</DistanceMeters>
          </Trackpoint>
          <Trackpoint>
            <Time>2022-07-10T10:11:50.000Z</Time>
            <Position>
              <LatitudeDegrees>42.7563169039785861968994140625</LatitudeDegrees>
              <LongitudeDegrees>-0.204806439578533172607421875</LongitudeDegrees>
            </Position>
            <AltitudeMeters>2522.800048828125</AltitudeMeters>
            <DistanceMeters>33274.039260179</DistanceMeters>
          </Trackpoint>
          <Trackpoint>
            <Time>2022-07-10T10:11:53.000Z</Time>
            <Position>
              <LatitudeDegrees>42.7563068456947803497314453125</LatitudeDegrees>
              <LongitudeDegrees>-0.20483820699155330657958984375</LongitudeDegrees>
            </Position>
            <AltitudeMeters>2522.199951171875</AltitudeMeters>
            <DistanceMeters>33276.864607516</DistanceMeters>
          </Trackpoint>
          <Trackpoint>
            <Time>2022-07-10T10:11:54.000Z</Time>
            <Position>
              <LatitudeDegrees>42.7562987990677356719970703125</LatitudeDegrees>
              <LongitudeDegrees>-0.2048468403518199920654296875</LongitudeDegrees>
            </Position>
            <AltitudeMeters>2522.199951171875</AltitudeMeters>
            <DistanceMeters>33278.004928088</DistanceMeters>
          </Trackpoint>
          <Trackpoint>
            <Time>2022-07-10T10:11:56.000Z</Time>
            <Position>
              <LatitudeDegrees>42.75628681294620037078857421875</LatitudeDegrees>
              <LongitudeDegrees>-0.20486519671976566314697265625</LongitudeDegrees>
            </Position>
            <AltitudeMeters>2521.39990234375</AltitudeMeters>
            <DistanceMeters>33280.011769909</DistanceMeters>
          </Trackpoint>
          <Trackpoint>
            <Time>2022-07-10T10:11:57.000Z</Time>
            <Position>
              <LatitudeDegrees>42.75628144852817058563232421875</LatitudeDegrees>
              <LongitudeDegrees>-0.20487274043262004852294921875</LongitudeDegrees>
            </Position>
            <AltitudeMeters>2521</AltitudeMeters>
            <DistanceMeters>33280.872273406</DistanceMeters>
          </Trackpoint>
          <Trackpoint>
            <Time>2022-07-10T10:11:59.000Z</Time>
            <Position>
              <LatitudeDegrees>42.75627222843468189239501953125</LatitudeDegrees>
              <LongitudeDegrees>-0.20488782785832881927490234375</LongitudeDegrees>
            </Position>
            <AltitudeMeters>2520.39990234375</AltitudeMeters>
            <DistanceMeters>33282.473692062</DistanceMeters>
          </Trackpoint>
          <Trackpoint>
            <Time>2022-07-10T10:12:01.000Z</Time>
            <Position>
              <LatitudeDegrees>42.7562639303505420684814453125</LatitudeDegrees>
              <LongitudeDegrees>-0.2048971317708492279052734375</LongitudeDegrees>
            </Position>
            <AltitudeMeters>2520</AltitudeMeters>
            <DistanceMeters>33283.66815934</DistanceMeters>
          </Trackpoint>
          <Trackpoint>
            <Time>2022-07-10T10:12:02.000Z</Time>
            <Position>
              <LatitudeDegrees>42.75625982321798801422119140625</LatitudeDegrees>
              <LongitudeDegrees>-0.2048984728753566741943359375</LongitudeDegrees>
            </Position>
            <AltitudeMeters>2519.800048828125</AltitudeMeters>
            <DistanceMeters>33284.133693264</DistanceMeters>
          </Trackpoint>
          <Trackpoint>
            <Time>2022-07-10T10:12:04.000Z</Time>
            <Position>
              <LatitudeDegrees>42.7562610805034637451171875</LatitudeDegrees>
              <LongitudeDegrees>-0.2049088664352893829345703125</LongitudeDegrees>
            </Position>
            <AltitudeMeters>2519.39990234375</AltitudeMeters>
            <DistanceMeters>33284.994196761</DistanceMeters>
          </Trackpoint>
          <Trackpoint>
            <Time>2022-07-10T10:12:06.000Z</Time>
            <Position>
              <LatitudeDegrees>42.75625730864703655242919921875</LatitudeDegrees>
              <LongitudeDegrees>-0.20492772571742534637451171875</LongitudeDegrees>
            </Position>
            <AltitudeMeters>2519</AltitudeMeters>
            <DistanceMeters>33286.592793531</DistanceMeters>
          </Trackpoint>
          <Trackpoint>
            <Time>2022-07-10T10:12:08.000Z</Time>
            <Position>
              <LatitudeDegrees>42.7562401257455348968505859375</LatitudeDegrees>
              <LongitudeDegrees>-0.20495320670306682586669921875</LongitudeDegrees>
            </Position>
            <AltitudeMeters>2518</AltitudeMeters>
            <DistanceMeters>33289.418140868</DistanceMeters>
          </Trackpoint>
          <Trackpoint>
            <Time>2022-07-10T10:12:12.000Z</Time>
            <Position>
              <LatitudeDegrees>42.75621020235121250152587890625</LatitudeDegrees>
              <LongitudeDegrees>-0.20496225915849208831787109375</LongitudeDegrees>
            </Position>
            <AltitudeMeters>2517</AltitudeMeters>
            <DistanceMeters>33292.828527717</DistanceMeters>
          </Trackpoint>
          <Trackpoint>
            <Time>2022-07-10T10:12:16.000Z</Time>
            <Position>
              <LatitudeDegrees>42.75619109161198139190673828125</LatitudeDegrees>
              <LongitudeDegrees>-0.2049561403691768646240234375</LongitudeDegrees>
            </Position>
            <AltitudeMeters>2516</AltitudeMeters>
            <DistanceMeters>33295.012075373</DistanceMeters>
          </Trackpoint>
          <Trackpoint>
            <Time>2022-07-10T10:12:21.000Z</Time>
            <Position>
              <LatitudeDegrees>42.75615085847675800323486328125</LatitudeDegrees>
              <LongitudeDegrees>-0.204998217523097991943359375</LongitudeDegrees>
            </Position>
            <AltitudeMeters>2515.199951171875</AltitudeMeters>
            <DistanceMeters>33300.65797387</DistanceMeters>
          </Trackpoint>
          <Trackpoint>
            <Time>2022-07-10T10:12:25.000Z</Time>
            <Position>
              <LatitudeDegrees>42.75610408745706081390380859375</LatitudeDegrees>
              <LongitudeDegrees>-0.2050436474382877349853515625</LongitudeDegrees>
            </Position>
            <AltitudeMeters>2515</AltitudeMeters>
            <DistanceMeters>33307.051654818</DistanceMeters>
          </Trackpoint>
          <Trackpoint>
            <Time>2022-07-10T10:12:27.000Z</Time>
            <Position>
              <LatitudeDegrees>42.756085060536861419677734375</LatitudeDegrees>
              <LongitudeDegrees>-0.205067284405231475830078125</LongitudeDegrees>
            </Position>
            <AltitudeMeters>2514.800048828125</AltitudeMeters>
            <DistanceMeters>33309.918250284</DistanceMeters>
          </Trackpoint>
          <Trackpoint>
            <Time>2022-07-10T10:12:30.000Z</Time>
            <Position>
              <LatitudeDegrees>42.75606955401599407196044921875</LatitudeDegrees>
              <LongitudeDegrees>-0.205101482570171356201171875</LongitudeDegrees>
            </Position>
            <AltitudeMeters>2514.39990234375</AltitudeMeters>
            <DistanceMeters>33313.204581282</DistanceMeters>
          </Trackpoint>
          <Trackpoint>
            <Time>2022-07-10T10:12:31.000Z</Time>
            <Position>
              <LatitudeDegrees>42.75606586597859859466552734375</LatitudeDegrees>
              <LongitudeDegrees>-0.2051190845668315887451171875</LongitudeDegrees>
            </Position>
            <AltitudeMeters>2514.39990234375</AltitudeMeters>
            <DistanceMeters>33314.701063476</DistanceMeters>
          </Trackpoint>
          <Trackpoint>
            <Time>2022-07-10T10:12:32.000Z</Time>
            <Position>
              <LatitudeDegrees>42.75606452487409114837646484375</LatitudeDegrees>
              <LongitudeDegrees>-0.20513995550572872161865234375</LongitudeDegrees>
            </Position>
            <AltitudeMeters>2514.199951171875</AltitudeMeters>
            <DistanceMeters>33316.414181932</DistanceMeters>
          </Trackpoint>
          <Trackpoint>
            <Time>2022-07-10T10:12:34.000Z</Time>
            <Position>
              <LatitudeDegrees>42.75605798698961734771728515625</LatitudeDegrees>
              <LongitudeDegrees>-0.2051707170903682708740234375</LongitudeDegrees>
            </Position>
            <AltitudeMeters>2513.800048828125</AltitudeMeters>
            <DistanceMeters>33319.032163601</DistanceMeters>
          </Trackpoint>
          <Trackpoint>
            <Time>2022-07-10T10:12:37.000Z</Time>
            <Position>
              <LatitudeDegrees>42.75603904388844966888427734375</LatitudeDegrees>
              <LongitudeDegrees>-0.2052062563598155975341796875</LongitudeDegrees>
            </Position>
            <AltitudeMeters>2513.60009765625</AltitudeMeters>
            <DistanceMeters>33322.620601842</DistanceMeters>
          </Trackpoint>
          <Trackpoint>
            <Time>2022-07-10T10:12:38.000Z</Time>
            <Position>
              <LatitudeDegrees>42.75603066198527812957763671875</LatitudeDegrees>
              <LongitudeDegrees>-0.2052183263003826141357421875</LongitudeDegrees>
            </Position>
            <AltitudeMeters>2513.60009765625</AltitudeMeters>
            <DistanceMeters>33323.984491775</DistanceMeters>
          </Trackpoint>
          <Trackpoint>
            <Time>2022-07-10T10:12:40.000Z</Time>
            <Position>
              <LatitudeDegrees>42.75601607747375965118408203125</LatitudeDegrees>
              <LongitudeDegrees>-0.20523550920188426971435546875</LongitudeDegrees>
            </Position>
            <AltitudeMeters>2513.60009765625</AltitudeMeters>
            <DistanceMeters>33326.13049713</DistanceMeters>
          </Trackpoint>
          <Trackpoint>
            <Time>2022-07-10T10:12:44.000Z</Time>
            <Position>
              <LatitudeDegrees>42.7559963800013065338134765625</LatitudeDegrees>
              <LongitudeDegrees>-0.20528948865830898284912109375</LongitudeDegrees>
            </Position>
            <AltitudeMeters>2513.60009765625</AltitudeMeters>
            <DistanceMeters>33331.056328573</DistanceMeters>
          </Trackpoint>
          <Trackpoint>
            <Time>2022-07-10T10:12:47.000Z</Time>
            <Position>
              <LatitudeDegrees>42.7559752576053142547607421875</LatitudeDegrees>
              <LongitudeDegrees>-0.20532502792775630950927734375</LongitudeDegrees>
            </Position>
            <AltitudeMeters>2513.199951171875</AltitudeMeters>
            <DistanceMeters>33334.792703579</DistanceMeters>
          </Trackpoint>
          <Trackpoint>
            <Time>2022-07-10T10:12:49.000Z</Time>
            <Position>
              <LatitudeDegrees>42.755963020026683807373046875</LatitudeDegrees>
              <LongitudeDegrees>-0.20534120500087738037109375</LongitudeDegrees>
            </Position>
            <AltitudeMeters>2512.800048828125</AltitudeMeters>
            <DistanceMeters>33336.690860712</DistanceMeters>
          </Trackpoint>
          <Trackpoint>
            <Time>2022-07-10T10:12:51.000Z</Time>
            <Position>
              <LatitudeDegrees>42.75594256818294525146484375</LatitudeDegrees>
              <LongitudeDegrees>-0.2053675241768360137939453125</LongitudeDegrees>
            </Position>
            <AltitudeMeters>2512.39990234375</AltitudeMeters>
            <DistanceMeters>33339.822419911</DistanceMeters>
          </Trackpoint>
          <Trackpoint>
            <Time>2022-07-10T10:12:53.000Z</Time>
            <Position>
              <LatitudeDegrees>42.7559179253876209259033203125</LatitudeDegrees>
              <LongitudeDegrees>-0.205392502248287200927734375</LongitudeDegrees>
            </Position>
            <AltitudeMeters>2512.39990234375</AltitudeMeters>
            <DistanceMeters>33343.240740978</DistanceMeters>
          </Trackpoint>
          <Trackpoint>
            <Time>2022-07-10T10:12:54.000Z</Time>
            <Position>
              <LatitudeDegrees>42.75590610690414905548095703125</LatitudeDegrees>
              <LongitudeDegrees>-0.2053987048566341400146484375</LongitudeDegrees>
            </Position>
            <AltitudeMeters>2512.39990234375</AltitudeMeters>
            <DistanceMeters>33344.653414647</DistanceMeters>
          </Trackpoint>
          <Trackpoint>
            <Time>2022-07-10T10:12:57.000Z</Time>
            <Position>
              <LatitudeDegrees>42.7558649517595767974853515625</LatitudeDegrees>
              <LongitudeDegrees>-0.20540432073175907135009765625</LongitudeDegrees>
            </Position>
            <AltitudeMeters>2512.60009765625</AltitudeMeters>
            <DistanceMeters>33349.257064222</DistanceMeters>
          </Trackpoint>
          <Trackpoint>
            <Time>2022-07-10T10:13:01.000Z</Time>
            <Position>
              <LatitudeDegrees>42.75582429952919483184814453125</LatitudeDegrees>
              <LongitudeDegrees>-0.20545385777950286865234375</LongitudeDegrees>
            </Position>
            <AltitudeMeters>2512.60009765625</AltitudeMeters>
            <DistanceMeters>33355.328371499</DistanceMeters>
          </Trackpoint>
          <Trackpoint>
            <Time>2022-07-10T10:13:05.000Z</Time>
            <Position>
              <LatitudeDegrees>42.75579747743904590606689453125</LatitudeDegrees>
              <LongitudeDegrees>-0.2054987847805023193359375</LongitudeDegrees>
            </Position>
            <AltitudeMeters>2512.39990234375</AltitudeMeters>
            <DistanceMeters>33360.061617706</DistanceMeters>
          </Trackpoint>
          <Trackpoint>
            <Time>2022-07-10T10:13:07.000Z</Time>
            <Position>
              <LatitudeDegrees>42.7557831443846225738525390625</LatitudeDegrees>
              <LongitudeDegrees>-0.2055237628519535064697265625</LongitudeDegrees>
            </Position>
            <AltitudeMeters>2512.199951171875</AltitudeMeters>
            <DistanceMeters>33362.651858389</DistanceMeters>
          </Trackpoint>
          <Trackpoint>
            <Time>2022-07-10T10:13:08.000Z</Time>
            <Position>
              <LatitudeDegrees>42.755776941776275634765625</LatitudeDegrees>
              <LongitudeDegrees>-0.20553524605929851531982421875</LongitudeDegrees>
            </Position>
            <AltitudeMeters>2512.199951171875</AltitudeMeters>
            <DistanceMeters>33363.819566205</DistanceMeters>
          </Trackpoint>
          <Trackpoint>
            <Time>2022-07-10T10:13:11.000Z</Time>
            <Position>
              <LatitudeDegrees>42.75576277635991573333740234375</LatitudeDegrees>
              <LongitudeDegrees>-0.20555888302624225616455078125</LongitudeDegrees>
            </Position>
            <AltitudeMeters>2511.60009765625</AltitudeMeters>
            <DistanceMeters>33366.313904328</DistanceMeters>
          </Trackpoint>
          <Trackpoint>
            <Time>2022-07-10T10:13:13.000Z</Time>
            <Position>
              <LatitudeDegrees>42.75575472973287105560302734375</LatitudeDegrees>
              <LongitudeDegrees>-0.2055727131664752960205078125</LongitudeDegrees>
            </Position>
            <AltitudeMeters>2510.60009765625</AltitudeMeters>
            <DistanceMeters>33367.755055805</DistanceMeters>
          </Trackpoint>
          <Trackpoint>
            <Time>2022-07-10T10:13:14.000Z</Time>
            <Position>
              <LatitudeDegrees>42.7557492814958095550537109375</LatitudeDegrees>
              <LongitudeDegrees>-0.20558570511639118194580078125</LongitudeDegrees>
            </Position>
            <AltitudeMeters>2510.199951171875</AltitudeMeters>
            <DistanceMeters>33368.979389375</DistanceMeters>
          </Trackpoint>
          <Trackpoint>
            <Time>2022-07-10T10:13:17.000Z</Time>
            <Position>
              <LatitudeDegrees>42.7557224594056606292724609375</LatitudeDegrees>
              <LongitudeDegrees>-0.20560934208333492279052734375</LongitudeDegrees>
            </Position>
            <AltitudeMeters>2509.60009765625</AltitudeMeters>
            <DistanceMeters>33372.534963453</DistanceMeters>
          </Trackpoint>
          <Trackpoint>
            <Time>2022-07-10T10:13:18.000Z</Time>
            <Position>
              <LatitudeDegrees>42.75571399368345737457275390625</LatitudeDegrees>
              <LongitudeDegrees>-0.2056119404733180999755859375</LongitudeDegrees>
            </Position>
            <AltitudeMeters>2509.60009765625</AltitudeMeters>
            <DistanceMeters>33373.504049594</DistanceMeters>
          </Trackpoint>
          <Trackpoint>
            <Time>2022-07-10T10:13:19.000Z</Time>
            <Position>
              <LatitudeDegrees>42.7557058632373809814453125</LatitudeDegrees>
              <LongitudeDegrees>-0.205613784492015838623046875</LongitudeDegrees>
            </Position>
            <AltitudeMeters>2509.60009765625</AltitudeMeters>
            <DistanceMeters>33374.425367773</DistanceMeters>
          </Trackpoint>
          <Trackpoint>
            <Time>2022-07-10T10:13:20.000Z</Time>
            <Position>
              <LatitudeDegrees>42.7556976489722728729248046875</LatitudeDegrees>
              <LongitudeDegrees>-0.20562308840453624725341796875</LongitudeDegrees>
            </Position>
            <AltitudeMeters>2509.60009765625</AltitudeMeters>
            <DistanceMeters>33375.612251055</DistanceMeters>
          </Trackpoint>
          <Trackpoint>
            <Time>2022-07-10T10:13:22.000Z</Time>
            <Position>
              <LatitudeDegrees>42.7556795440614223480224609375</LatitudeDegrees>
              <LongitudeDegrees>-0.20563893020153045654296875</LongitudeDegrees>
            </Position>
            <AltitudeMeters>2509.60009765625</AltitudeMeters>
            <DistanceMeters>33378.004962585</DistanceMeters>
          </Trackpoint>
          <Trackpoint>
            <Time>2022-07-10T10:13:23.000Z</Time>
            <Position>
              <LatitudeDegrees>42.7556736767292022705078125</LatitudeDegrees>
              <LongitudeDegrees>-0.2056447975337505340576171875</LongitudeDegrees>
            </Position>
            <AltitudeMeters>2509.60009765625</AltitudeMeters>
            <DistanceMeters>33378.811290994</DistanceMeters>
          </Trackpoint>
          <Trackpoint>
            <Time>2022-07-10T10:13:24.000Z</Time>
            <Position>
              <LatitudeDegrees>42.75566789321601390838623046875</LatitudeDegrees>
              <LongitudeDegrees>-0.20565368235111236572265625</LongitudeDegrees>
            </Position>
            <AltitudeMeters>2509.39990234375</AltitudeMeters>
            <DistanceMeters>33379.780377136</DistanceMeters>
          </Trackpoint>
          <Trackpoint>
            <Time>2022-07-10T10:13:25.000Z</Time>
            <Position>
              <LatitudeDegrees>42.755666635930538177490234375</LatitudeDegrees>
              <LongitudeDegrees>-0.2056639082729816436767578125</LongitudeDegrees>
            </Position>
            <AltitudeMeters>2509.199951171875</AltitudeMeters>
            <DistanceMeters>33380.630321908</DistanceMeters>
          </Trackpoint>
          <Trackpoint>
            <Time>2022-07-10T10:13:26.000Z</Time>
            <Position>
              <LatitudeDegrees>42.7556669712066650390625</LatitudeDegrees>
              <LongitudeDegrees>-0.20567254163324832916259765625</LongitudeDegrees>
            </Position>
            <AltitudeMeters>2509.199951171875</AltitudeMeters>
            <DistanceMeters>33381.341436724</DistanceMeters>
          </Trackpoint>
          <Trackpoint>
            <Time>2022-07-10T10:13:27.000Z</Time>
            <Position>
              <LatitudeDegrees>42.75566588155925273895263671875</LatitudeDegrees>
              <LongitudeDegrees>-0.2056825160980224609375</LongitudeDegrees>
            </Position>
            <AltitudeMeters>2509</AltitudeMeters>
            <DistanceMeters>33382.16439221</DistanceMeters>
          </Trackpoint>
          <Trackpoint>
            <Time>2022-07-10T10:13:30.000Z</Time>
            <Position>
              <LatitudeDegrees>42.75565230287611484527587890625</LatitudeDegrees>
              <LongitudeDegrees>-0.205713026225566864013671875</LongitudeDegrees>
            </Position>
            <AltitudeMeters>2508.60009765625</AltitudeMeters>
            <DistanceMeters>33385.079405407</DistanceMeters>
          </Trackpoint>
          <Trackpoint>
            <Time>2022-07-10T10:13:31.000Z</Time>
            <Position>
              <LatitudeDegrees>42.75564844720065593719482421875</LatitudeDegrees>
              <LongitudeDegrees>-0.2057239226996898651123046875</LongitudeDegrees>
            </Position>
            <AltitudeMeters>2508.60009765625</AltitudeMeters>
            <DistanceMeters>33386.066951991</DistanceMeters>
          </Trackpoint>
          <Trackpoint>
            <Time>2022-07-10T10:13:34.000Z</Time>
            <Position>
              <LatitudeDegrees>42.75562816299498081207275390625</LatitudeDegrees>
              <LongitudeDegrees>-0.2057443745434284210205078125</LongitudeDegrees>
            </Position>
            <AltitudeMeters>2508.199951171875</AltitudeMeters>
            <DistanceMeters>33388.876273406</DistanceMeters>
          </Trackpoint>
          <Trackpoint>
            <Time>2022-07-10T10:13:35.000Z</Time>
            <Position>
              <LatitudeDegrees>42.7556225471198558807373046875</LatitudeDegrees>
              <LongitudeDegrees>-0.205750577151775360107421875</LongitudeDegrees>
            </Position>
            <AltitudeMeters>2508</AltitudeMeters>
            <DistanceMeters>33389.676982733</DistanceMeters>
          </Trackpoint>
          <Trackpoint>
            <Time>2022-07-10T10:13:36.000Z</Time>
            <Position>
              <LatitudeDegrees>42.75561391375958919525146484375</LatitudeDegrees>
              <LongitudeDegrees>-0.20575803704559803009033203125</LongitudeDegrees>
            </Position>
            <AltitudeMeters>2507.800048828125</AltitudeMeters>
            <DistanceMeters>33390.813336961</DistanceMeters>
          </Trackpoint>
          <Trackpoint>
            <Time>2022-07-10T10:13:39.000Z</Time>
            <Position>
              <LatitudeDegrees>42.75557904504239559173583984375</LatitudeDegrees>
              <LongitudeDegrees>-0.20577496849000453948974609375</LongitudeDegrees>
            </Position>
            <AltitudeMeters>2506.800048828125</AltitudeMeters>
            <DistanceMeters>33394.933597113</DistanceMeters>
          </Trackpoint>
          <Trackpoint>
            <Time>2022-07-10T10:13:41.000Z</Time>
            <Position>
              <LatitudeDegrees>42.755560688674449920654296875</LatitudeDegrees>
              <LongitudeDegrees>-0.2057913132011890411376953125</LongitudeDegrees>
            </Position>
            <AltitudeMeters>2506.39990234375</AltitudeMeters>
            <DistanceMeters>33397.374877607</DistanceMeters>
          </Trackpoint>
          <Trackpoint>
            <Time>2022-07-10T10:13:43.000Z</Time>
            <Position>
              <LatitudeDegrees>42.75554828345775604248046875</LatitudeDegrees>
              <LongitudeDegrees>-0.205814279615879058837890625</LongitudeDegrees>
            </Position>
            <AltitudeMeters>2505.60009765625</AltitudeMeters>
            <DistanceMeters>33399.702547229</DistanceMeters>
          </Trackpoint>
          <Trackpoint>
            <Time>2022-07-10T10:13:46.000Z</Time>
            <Position>
              <LatitudeDegrees>42.7555249817669391632080078125</LatitudeDegrees>
              <LongitudeDegrees>-0.20584872923791408538818359375</LongitudeDegrees>
            </Position>
            <AltitudeMeters>2504.800048828125</AltitudeMeters>
            <DistanceMeters>33403.529658932</DistanceMeters>
          </Trackpoint>
          <Trackpoint>
            <Time>2022-07-10T10:13:47.000Z</Time>
            <Position>
              <LatitudeDegrees>42.75552070699632167816162109375</LatitudeDegrees>
              <LongitudeDegrees>-0.2058553509414196014404296875</LongitudeDegrees>
            </Position>
            <AltitudeMeters>2504.199951171875</AltitudeMeters>
            <DistanceMeters>33404.247094893</DistanceMeters>
          </Trackpoint>
          <Trackpoint>
            <Time>2022-07-10T10:13:49.000Z</Time>
            <Position>
              <LatitudeDegrees>42.75550662539899349212646484375</LatitudeDegrees>
              <LongitudeDegrees>-0.20587102510035037994384765625</LongitudeDegrees>
            </Position>
            <AltitudeMeters>2503.39990234375</AltitudeMeters>
            <DistanceMeters>33406.2718553</DistanceMeters>
          </Trackpoint>
          <Trackpoint>
            <Time>2022-07-10T10:13:50.000Z</Time>
            <Position>
              <LatitudeDegrees>42.7555031888186931610107421875</LatitudeDegrees>
              <LongitudeDegrees>-0.20587923936545848846435546875</LongitudeDegrees>
            </Position>
            <AltitudeMeters>2502.800048828125</AltitudeMeters>
            <DistanceMeters>33407.043855977</DistanceMeters>
          </Trackpoint>
          <Trackpoint>
            <Time>2022-07-10T10:13:52.000Z</Time>
            <Position>
              <LatitudeDegrees>42.755496986210346221923828125</LatitudeDegrees>
              <LongitudeDegrees>-0.20589818246662616729736328125</LongitudeDegrees>
            </Position>
            <AltitudeMeters>2502.199951171875</AltitudeMeters>
            <DistanceMeters>33408.73842504</DistanceMeters>
          </Trackpoint>
          <Trackpoint>
            <Time>2022-07-10T10:13:53.000Z</Time>
            <Position>
              <LatitudeDegrees>42.7554911188781261444091796875</LatitudeDegrees>
              <LongitudeDegrees>-0.20590757019817829132080078125</LongitudeDegrees>
            </Position>
            <AltitudeMeters>2502.199951171875</AltitudeMeters>
            <DistanceMeters>33409.748572869</DistanceMeters>
          </Trackpoint>
          <Trackpoint>
            <Time>2022-07-10T10:13:55.000Z</Time>
            <Position>
              <LatitudeDegrees>42.75547594763338565826416015625</LatitudeDegrees>
              <LongitudeDegrees>-0.20592818967998027801513671875</LongitudeDegrees>
            </Position>
            <AltitudeMeters>2502.199951171875</AltitudeMeters>
            <DistanceMeters>33412.13372447</DistanceMeters>
          </Trackpoint>
          <Trackpoint>
            <Time>2022-07-10T10:13:56.000Z</Time>
            <Position>
              <LatitudeDegrees>42.75546991266310214996337890625</LatitudeDegrees>
              <LongitudeDegrees>-0.2059415169060230255126953125</LongitudeDegrees>
            </Position>
            <AltitudeMeters>2502.199951171875</AltitudeMeters>
            <DistanceMeters>33413.415704935</DistanceMeters>
          </Trackpoint>
          <Trackpoint>
            <Time>2022-07-10T10:13:59.000Z</Time>
            <Position>
              <LatitudeDegrees>42.755456753075122833251953125</LatitudeDegrees>
              <LongitudeDegrees>-0.2059735357761383056640625</LongitudeDegrees>
            </Position>
            <AltitudeMeters>2502</AltitudeMeters>
            <DistanceMeters>33416.414697456</DistanceMeters>
          </Trackpoint>
          <Trackpoint>
            <Time>2022-07-10T10:14:02.000Z</Time>
            <Position>
              <LatitudeDegrees>42.7554354630410671234130859375</LatitudeDegrees>
              <LongitudeDegrees>-0.20599574781954288482666015625</LongitudeDegrees>
            </Position>
            <AltitudeMeters>2501.60009765625</AltitudeMeters>
            <DistanceMeters>33419.400109563</DistanceMeters>
          </Trackpoint>
          <Trackpoint>
            <Time>2022-07-10T10:14:05.000Z</Time>
            <Position>
              <LatitudeDegrees>42.75541174225509166717529296875</LatitudeDegrees>
              <LongitudeDegrees>-0.20603598095476627349853515625</LongitudeDegrees>
            </Position>
            <AltitudeMeters>2501.39990234375</AltitudeMeters>
            <DistanceMeters>33423.617840066</DistanceMeters>
          </Trackpoint>
          <Trackpoint>
            <Time>2022-07-10T10:14:09.000Z</Time>
            <Position>
              <LatitudeDegrees>42.75537838228046894073486328125</LatitudeDegrees>
              <LongitudeDegrees>-0.20607369951903820037841796875</LongitudeDegrees>
            </Position>
            <AltitudeMeters>2501.199951171875</AltitudeMeters>
            <DistanceMeters>33428.442727326</DistanceMeters>
          </Trackpoint>
          <Trackpoint>
            <Time>2022-07-10T10:14:11.000Z</Time>
            <Position>
              <LatitudeDegrees>42.7553744427859783172607421875</LatitudeDegrees>
              <LongitudeDegrees>-0.206090547144412994384765625</LongitudeDegrees>
            </Position>
            <AltitudeMeters>2501.199951171875</AltitudeMeters>
            <DistanceMeters>33429.883878804</DistanceMeters>
          </Trackpoint>
          <Trackpoint>
            <Time>2022-07-10T10:14:16.000Z</Time>
            <Position>
              <LatitudeDegrees>42.7553580142557621002197265625</LatitudeDegrees>
              <LongitudeDegrees>-0.206170342862606048583984375</LongitudeDegrees>
            </Position>
            <AltitudeMeters>2501.199951171875</AltitudeMeters>
            <DistanceMeters>33436.656157465</DistanceMeters>
          </Trackpoint>
          <Trackpoint>
            <Time>2022-07-10T10:14:20.000Z</Time>
            <Position>
              <LatitudeDegrees>42.75534217245876789093017578125</LatitudeDegrees>
              <LongitudeDegrees>-0.2062268368899822235107421875</LongitudeDegrees>
            </Position>
            <AltitudeMeters>2501.199951171875</AltitudeMeters>
            <DistanceMeters>33441.597546612</DistanceMeters>
          </Trackpoint>
          <Trackpoint>
            <Time>2022-07-10T10:14:23.000Z</Time>
            <Position>
              <LatitudeDegrees>42.75535055436193943023681640625</LatitudeDegrees>
              <LongitudeDegrees>-0.20626656711101531982421875</LongitudeDegrees>
            </Position>
            <AltitudeMeters>2501.199951171875</AltitudeMeters>
            <DistanceMeters>33444.974673579</DistanceMeters>
          </Trackpoint>
          <Trackpoint>
            <Time>2022-07-10T10:14:29.000Z</Time>
            <Position>
              <LatitudeDegrees>42.7553090639412403106689453125</LatitudeDegrees>
              <LongitudeDegrees>-0.20633119158446788787841796875</LongitudeDegrees>
            </Position>
            <AltitudeMeters>2501</AltitudeMeters>
            <DistanceMeters>33451.99058027</DistanceMeters>
          </Trackpoint>
          <Trackpoint>
            <Time>2022-07-10T10:14:30.000Z</Time>
            <Position>
              <LatitudeDegrees>42.75530629791319370269775390625</LatitudeDegrees>
              <LongitudeDegrees>-0.206349380314350128173828125</LongitudeDegrees>
            </Position>
            <AltitudeMeters>2501</AltitudeMeters>
            <DistanceMeters>33453.5110077</DistanceMeters>
          </Trackpoint>
          <Trackpoint>
            <Time>2022-07-10T10:14:33.000Z</Time>
            <Position>
              <LatitudeDegrees>42.75529473088681697845458984375</LatitudeDegrees>
              <LongitudeDegrees>-0.20637259818613529205322265625</LongitudeDegrees>
            </Position>
            <AltitudeMeters>2500.800048828125</AltitudeMeters>
            <DistanceMeters>33455.807432016</DistanceMeters>
          </Trackpoint>
          <Trackpoint>
            <Time>2022-07-10T10:14:35.000Z</Time>
            <Position>
              <LatitudeDegrees>42.75528609752655029296875</LatitudeDegrees>
              <LongitudeDegrees>-0.2063988335430622100830078125</LongitudeDegrees>
            </Position>
            <AltitudeMeters>2500.800048828125</AltitudeMeters>
            <DistanceMeters>33458.1582631</DistanceMeters>
          </Trackpoint>
          <Trackpoint>
            <Time>2022-07-10T10:14:40.000Z</Time>
            <Position>
              <LatitudeDegrees>42.75525567121803760528564453125</LatitudeDegrees>
              <LongitudeDegrees>-0.20645809359848499298095703125</LongitudeDegrees>
            </Position>
            <AltitudeMeters>2500.60009765625</AltitudeMeters>
            <DistanceMeters>33464.06828304</DistanceMeters>
          </Trackpoint>
          <Trackpoint>
            <Time>2022-07-10T10:14:41.000Z</Time>
            <Position>
              <LatitudeDegrees>42.755248211324214935302734375</LatitudeDegrees>
              <LongitudeDegrees>-0.206466056406497955322265625</LongitudeDegrees>
            </Position>
            <AltitudeMeters>2500.39990234375</AltitudeMeters>
            <DistanceMeters>33465.117887406</DistanceMeters>
          </Trackpoint>
          <Trackpoint>
            <Time>2022-07-10T10:14:42.000Z</Time>
            <Position>
              <LatitudeDegrees>42.75523572228848934173583984375</LatitudeDegrees>
              <LongitudeDegrees>-0.20647686906158924102783203125</LongitudeDegrees>
            </Position>
            <AltitudeMeters>2500.199951171875</AltitudeMeters>
            <DistanceMeters>33466.76379838</DistanceMeters>
          </Trackpoint>
          <Trackpoint>
            <Time>2022-07-10T10:14:46.000Z</Time>
            <Position>
              <LatitudeDegrees>42.7552017755806446075439453125</LatitudeDegrees>
              <LongitudeDegrees>-0.2065178565680980682373046875</LongitudeDegrees>
            </Position>
            <AltitudeMeters>2499.39990234375</AltitudeMeters>
            <DistanceMeters>33471.813643514</DistanceMeters>
          </Trackpoint>
          <Trackpoint>
            <Time>2022-07-10T10:14:48.000Z</Time>
            <Position>
              <LatitudeDegrees>42.75519364513456821441650390625</LatitudeDegrees>
              <LongitudeDegrees>-0.2065446786582469940185546875</LongitudeDegrees>
            </Position>
            <AltitudeMeters>2499.199951171875</AltitudeMeters>
            <DistanceMeters>33474.185507259</DistanceMeters>
          </Trackpoint>
          <Trackpoint>
            <Time>2022-07-10T10:14:52.000Z</Time>
            <Position>
              <LatitudeDegrees>42.75518559850752353668212890625</LatitudeDegrees>
              <LongitudeDegrees>-0.206599496304988861083984375</LongitudeDegrees>
            </Position>
            <AltitudeMeters>2499</AltitudeMeters>
            <DistanceMeters>33478.752724856</DistanceMeters>
          </Trackpoint>
          <Trackpoint>
            <Time>2022-07-10T10:14:53.000Z</Time>
            <Position>
              <LatitudeDegrees>42.75518861599266529083251953125</LatitudeDegrees>
              <LongitudeDegrees>-0.20660779438912868499755859375</LongitudeDegrees>
            </Position>
            <AltitudeMeters>2498.800048828125</AltitudeMeters>
            <DistanceMeters>33479.512938571</DistanceMeters>
          </Trackpoint>
          <Trackpoint>
            <Time>2022-07-10T10:14:54.000Z</Time>
            <Position>
              <LatitudeDegrees>42.7551913820207118988037109375</LatitudeDegrees>
              <LongitudeDegrees>-0.20661885850131511688232421875</LongitudeDegrees>
            </Position>
            <AltitudeMeters>2498.60009765625</AltitudeMeters>
            <DistanceMeters>33480.472661342</DistanceMeters>
          </Trackpoint>
          <Trackpoint>
            <Time>2022-07-10T10:14:56.000Z</Time>
            <Position>
              <LatitudeDegrees>42.75519280694425106048583984375</LatitudeDegrees>
              <LongitudeDegrees>-0.20663478411734104156494140625</LongitudeDegrees>
            </Position>
            <AltitudeMeters>2498.39990234375</AltitudeMeters>
            <DistanceMeters>33481.789390121</DistanceMeters>
          </Trackpoint>
          <Trackpoint>
            <Time>2022-07-10T10:15:00.000Z</Time>
            <Position>
              <LatitudeDegrees>42.75518962182104587554931640625</LatitudeDegrees>
              <LongitudeDegrees>-0.20666797645390033721923828125</LongitudeDegrees>
            </Position>
            <AltitudeMeters>2497.199951171875</AltitudeMeters>
            <DistanceMeters>33484.523782795</DistanceMeters>
          </Trackpoint>
          <Trackpoint>
            <Time>2022-07-10T10:15:01.000Z</Time>
            <Position>
              <LatitudeDegrees>42.755185849964618682861328125</LatitudeDegrees>
              <LongitudeDegrees>-0.2066764421761035919189453125</LongitudeDegrees>
            </Position>
            <AltitudeMeters>2497</AltitudeMeters>
            <DistanceMeters>33485.330111205</DistanceMeters>
          </Trackpoint>
          <Trackpoint>
            <Time>2022-07-10T10:15:04.000Z</Time>
            <Position>
              <LatitudeDegrees>42.7551667392253875732421875</LatitudeDegrees>
              <LongitudeDegrees>-0.20671709440648555755615234375</LongitudeDegrees>
            </Position>
            <AltitudeMeters>2496.60009765625</AltitudeMeters>
            <DistanceMeters>33489.273433616</DistanceMeters>
          </Trackpoint>
          <Trackpoint>
            <Time>2022-07-10T10:15:05.000Z</Time>
            <Position>
              <LatitudeDegrees>42.7551585249602794647216796875</LatitudeDegrees>
              <LongitudeDegrees>-0.2067324332892894744873046875</LongitudeDegrees>
            </Position>
            <AltitudeMeters>2496.800048828125</AltitudeMeters>
            <DistanceMeters>33490.829087976</DistanceMeters>
          </Trackpoint>
          <Trackpoint>
            <Time>2022-07-10T10:15:07.000Z</Time>
            <Position>
              <LatitudeDegrees>42.7551481314003467559814453125</LatitudeDegrees>
              <LongitudeDegrees>-0.206772498786449432373046875</LongitudeDegrees>
            </Position>
            <AltitudeMeters>2497</AltitudeMeters>
            <DistanceMeters>33494.302441129</DistanceMeters>
          </Trackpoint>
          <Trackpoint>
            <Time>2022-07-10T10:15:11.000Z</Time>
            <Position>
              <LatitudeDegrees>42.75515207089483737945556640625</LatitudeDegrees>
              <LongitudeDegrees>-0.20683393813669681549072265625</LongitudeDegrees>
            </Position>
            <AltitudeMeters>2497.39990234375</AltitudeMeters>
            <DistanceMeters>33499.34333739</DistanceMeters>
          </Trackpoint>
          <Trackpoint>
            <Time>2022-07-10T10:15:13.000Z</Time>
            <Position>
              <LatitudeDegrees>42.75516665540635585784912109375</LatitudeDegrees>
              <LongitudeDegrees>-0.20685740746557712554931640625</LongitudeDegrees>
            </Position>
            <AltitudeMeters>2497</AltitudeMeters>
            <DistanceMeters>33501.855711453</DistanceMeters>
          </Trackpoint>
          <Trackpoint>
            <Time>2022-07-10T10:15:15.000Z</Time>
            <Position>
              <LatitudeDegrees>42.75516766123473644256591796875</LatitudeDegrees>
              <LongitudeDegrees>-0.2068890072405338287353515625</LongitudeDegrees>
            </Position>
            <AltitudeMeters>2496.60009765625</AltitudeMeters>
            <DistanceMeters>33504.440717559</DistanceMeters>
          </Trackpoint>
          <Trackpoint>
            <Time>2022-07-10T10:15:18.000Z</Time>
            <Position>
              <LatitudeDegrees>42.75516212917864322662353515625</LatitudeDegrees>
              <LongitudeDegrees>-0.20692798309028148651123046875</LongitudeDegrees>
            </Position>
            <AltitudeMeters>2496.800048828125</AltitudeMeters>
            <DistanceMeters>33507.685570273</DistanceMeters>
          </Trackpoint>
          <Trackpoint>
            <Time>2022-07-10T10:15:24.000Z</Time>
            <Position>
              <LatitudeDegrees>42.75513715110719203948974609375</LatitudeDegrees>
              <LongitudeDegrees>-0.20699386484920978546142578125</LongitudeDegrees>
            </Position>
            <AltitudeMeters>2496.39990234375</AltitudeMeters>
            <DistanceMeters>33513.744967176</DistanceMeters>
          </Trackpoint>
          <Trackpoint>
            <Time>2022-07-10T10:15:25.000Z</Time>
            <Position>
              <LatitudeDegrees>42.7551305294036865234375</LatitudeDegrees>
              <LongitudeDegrees>-0.20700962282717227935791015625</LongitudeDegrees>
            </Position>
            <AltitudeMeters>2496.199951171875</AltitudeMeters>
            <DistanceMeters>33515.229331906</DistanceMeters>
          </Trackpoint>
          <Trackpoint>
            <Time>2022-07-10T10:15:27.000Z</Time>
            <Position>
              <LatitudeDegrees>42.7551211416721343994140625</LatitudeDegrees>
              <LongitudeDegrees>-0.20703694783151149749755859375</LongitudeDegrees>
            </Position>
            <AltitudeMeters>2496.199951171875</AltitudeMeters>
            <DistanceMeters>33517.694538073</DistanceMeters>
          </Trackpoint>
          <Trackpoint>
            <Time>2022-07-10T10:15:30.000Z</Time>
            <Position>
              <LatitudeDegrees>42.75511569343507289886474609375</LatitudeDegrees>
              <LongitudeDegrees>-0.20709126256406307220458984375</LongitudeDegrees>
            </Position>
            <AltitudeMeters>2496.39990234375</AltitudeMeters>
            <DistanceMeters>33522.175931831</DistanceMeters>
          </Trackpoint>
          <Trackpoint>
            <Time>2022-07-10T10:15:32.000Z</Time>
            <Position>
              <LatitudeDegrees>42.7551276795566082000732421875</LatitudeDegrees>
              <LongitudeDegrees>-0.20713116042315959930419921875</LongitudeDegrees>
            </Position>
            <AltitudeMeters>2496.60009765625</AltitudeMeters>
            <DistanceMeters>33525.698335134</DistanceMeters>
          </Trackpoint>
          <Trackpoint>
            <Time>2022-07-10T10:15:35.000Z</Time>
            <Position>
              <LatitudeDegrees>42.7551471255719661712646484375</LatitudeDegrees>
              <LongitudeDegrees>-0.207173824310302734375</LongitudeDegrees>
            </Position>
            <AltitudeMeters>2496.60009765625</AltitudeMeters>
            <DistanceMeters>33529.8010248</DistanceMeters>
          </Trackpoint>
          <Trackpoint>
            <Time>2022-07-10T10:15:41.000Z</Time>
            <Position>
              <LatitudeDegrees>42.75514771230518817901611328125</LatitudeDegrees>
              <LongitudeDegrees>-0.20725755952298641204833984375</LongitudeDegrees>
            </Position>
            <AltitudeMeters>2496.199951171875</AltitudeMeters>
            <DistanceMeters>33536.644267923</DistanceMeters>
          </Trackpoint>
          <Trackpoint>
            <Time>2022-07-10T10:15:42.000Z</Time>
            <Position>
              <LatitudeDegrees>42.75514704175293445587158203125</LatitudeDegrees>
              <LongitudeDegrees>-0.2072690427303314208984375</LongitudeDegrees>
            </Position>
            <AltitudeMeters>2496.199951171875</AltitudeMeters>
            <DistanceMeters>33537.584984401</DistanceMeters>
          </Trackpoint>
          <Trackpoint>
            <Time>2022-07-10T10:15:43.000Z</Time>
            <Position>
              <LatitudeDegrees>42.75514662265777587890625</LatitudeDegrees>
              <LongitudeDegrees>-0.20727918483316898345947265625</LongitudeDegrees>
            </Position>
            <AltitudeMeters>2496</AltitudeMeters>
            <DistanceMeters>33538.418840435</DistanceMeters>
          </Trackpoint>
          <Trackpoint>
            <Time>2022-07-10T10:15:45.000Z</Time>
            <Position>
              <LatitudeDegrees>42.75514192879199981689453125</LatitudeDegrees>
              <LongitudeDegrees>-0.20730768330395221710205078125</LongitudeDegrees>
            </Position>
            <AltitudeMeters>2496</AltitudeMeters>
            <DistanceMeters>33540.807774991</DistanceMeters>
          </Trackpoint>
          <Trackpoint>
            <Time>2022-07-10T10:15:48.000Z</Time>
            <Position>
              <LatitudeDegrees>42.75512323714792728424072265625</LatitudeDegrees>
              <LongitudeDegrees>-0.207348167896270751953125</LongitudeDegrees>
            </Position>
            <AltitudeMeters>2495.800048828125</AltitudeMeters>
            <DistanceMeters>33544.71659698</DistanceMeters>
          </Trackpoint>
          <Trackpoint>
            <Time>2022-07-10T10:15:49.000Z</Time>
            <Position>
              <LatitudeDegrees>42.75512047111988067626953125</LatitudeDegrees>
              <LongitudeDegrees>-0.20735780708491802215576171875</LongitudeDegrees>
            </Position>
            <AltitudeMeters>2495.800048828125</AltitudeMeters>
            <DistanceMeters>33545.555850197</DistanceMeters>
          </Trackpoint>
          <Trackpoint>
            <Time>2022-07-10T10:15:52.000Z</Time>
            <Position>
              <LatitudeDegrees>42.75511502288281917572021484375</LatitudeDegrees>
              <LongitudeDegrees>-0.207388065755367279052734375</LongitudeDegrees>
            </Position>
            <AltitudeMeters>2495.800048828125</AltitudeMeters>
            <DistanceMeters>33548.100366814</DistanceMeters>
          </Trackpoint>
          <Trackpoint>
            <Time>2022-07-10T10:15:54.000Z</Time>
            <Position>
              <LatitudeDegrees>42.7551125921308994293212890625</LatitudeDegrees>
              <LongitudeDegrees>-0.20741312764585018157958984375</LongitudeDegrees>
            </Position>
            <AltitudeMeters>2495.800048828125</AltitudeMeters>
            <DistanceMeters>33550.169244827</DistanceMeters>
          </Trackpoint>
          <Trackpoint>
            <Time>2022-07-10T10:15:56.000Z</Time>
            <Position>
              <LatitudeDegrees>42.75511200539767742156982421875</LatitudeDegrees>
              <LongitudeDegrees>-0.2074341662228107452392578125</LongitudeDegrees>
            </Position>
            <AltitudeMeters>2496.199951171875</AltitudeMeters>
            <DistanceMeters>33551.890251821</DistanceMeters>
          </Trackpoint>
          <Trackpoint>
            <Time>2022-07-10T10:15:58.000Z</Time>
            <Position>
              <LatitudeDegrees>42.75510496459901332855224609375</LatitudeDegrees>
              <LongitudeDegrees>-0.20744883455336093902587890625</LongitudeDegrees>
            </Position>
            <AltitudeMeters>2496.60009765625</AltitudeMeters>
            <DistanceMeters>33553.325123742</DistanceMeters>
          </Trackpoint>
          <Trackpoint>
            <Time>2022-07-10T10:16:01.000Z</Time>
            <Position>
              <LatitudeDegrees>42.7550844289362430572509765625</LatitudeDegrees>
              <LongitudeDegrees>-0.2074690349400043487548828125</LongitudeDegrees>
            </Position>
            <AltitudeMeters>2496.39990234375</AltitudeMeters>
            <DistanceMeters>33556.145672863</DistanceMeters>
          </Trackpoint>
          <Trackpoint>
            <Time>2022-07-10T10:16:02.000Z</Time>
            <Position>
              <LatitudeDegrees>42.755075879395008087158203125</LatitudeDegrees>
              <LongitudeDegrees>-0.20747967995703220367431640625</LongitudeDegrees>
            </Position>
            <AltitudeMeters>2496.199951171875</AltitudeMeters>
            <DistanceMeters>33557.434677932</DistanceMeters>
          </Trackpoint>
          <Trackpoint>
            <Time>2022-07-10T10:16:08.000Z</Time>
            <Position>
              <LatitudeDegrees>42.75502433069050312042236328125</LatitudeDegrees>
              <LongitudeDegrees>-0.2075407840311527252197265625</LongitudeDegrees>
            </Position>
            <AltitudeMeters>2495.60009765625</AltitudeMeters>
            <DistanceMeters>33565.040377748</DistanceMeters>
          </Trackpoint>
          <Trackpoint>
            <Time>2022-07-10T10:16:10.000Z</Time>
            <Position>
              <LatitudeDegrees>42.755010165274143218994140625</LatitudeDegrees>
              <LongitudeDegrees>-0.207570455968379974365234375</LongitudeDegrees>
            </Position>
            <AltitudeMeters>2495.39990234375</AltitudeMeters>
            <DistanceMeters>33567.932064243</DistanceMeters>
          </Trackpoint>
          <Trackpoint>
            <Time>2022-07-10T10:16:15.000Z</Time>
            <Position>
              <LatitudeDegrees>42.75497001595795154571533203125</LatitudeDegrees>
              <LongitudeDegrees>-0.2076311409473419189453125</LongitudeDegrees>
            </Position>
            <AltitudeMeters>2495.199951171875</AltitudeMeters>
            <DistanceMeters>33574.608324973</DistanceMeters>
          </Trackpoint>
          <Trackpoint>
            <Time>2022-07-10T10:16:18.000Z</Time>
            <Position>
              <LatitudeDegrees>42.7549494802951812744140625</LatitudeDegrees>
              <LongitudeDegrees>-0.20765989087522029876708984375</LongitudeDegrees>
            </Position>
            <AltitudeMeters>2495</AltitudeMeters>
            <DistanceMeters>33577.885024668</DistanceMeters>
          </Trackpoint>
          <Trackpoint>
            <Time>2022-07-10T10:16:23.000Z</Time>
            <Position>
              <LatitudeDegrees>42.7549385838210582733154296875</LatitudeDegrees>
              <LongitudeDegrees>-0.20770783536136150360107421875</LongitudeDegrees>
            </Position>
            <AltitudeMeters>2494.39990234375</AltitudeMeters>
            <DistanceMeters>33581.985512729</DistanceMeters>
          </Trackpoint>
          <Trackpoint>
            <Time>2022-07-10T10:16:25.000Z</Time>
            <Position>
              <LatitudeDegrees>42.754942439496517181396484375</LatitudeDegrees>
              <LongitudeDegrees>-0.2077278681099414825439453125</LongitudeDegrees>
            </Position>
            <AltitudeMeters>2494.199951171875</AltitudeMeters>
            <DistanceMeters>33583.674744553</DistanceMeters>
          </Trackpoint>
          <Trackpoint>
            <Time>2022-07-10T10:16:30.000Z</Time>
            <Position>
              <LatitudeDegrees>42.75496213696897029876708984375</LatitudeDegrees>
              <LongitudeDegrees>-0.2077580429613590240478515625</LongitudeDegrees>
            </Position>
            <AltitudeMeters>2494.199951171875</AltitudeMeters>
            <DistanceMeters>33586.973417334</DistanceMeters>
          </Trackpoint>
          <Trackpoint>
            <Time>2022-07-10T10:16:32.000Z</Time>
            <Position>
              <LatitudeDegrees>42.75496582500636577606201171875</LatitudeDegrees>
              <LongitudeDegrees>-0.20775645039975643157958984375</LongitudeDegrees>
            </Position>
            <AltitudeMeters>2494.199951171875</AltitudeMeters>
            <DistanceMeters>33587.408884446</DistanceMeters>
          </Trackpoint>
          <Trackpoint>
            <Time>2022-07-10T10:16:37.000Z</Time>
            <Position>
              <LatitudeDegrees>42.754957862198352813720703125</LatitudeDegrees>
              <LongitudeDegrees>-0.20774387754499912261962890625</LongitudeDegrees>
            </Position>
            <AltitudeMeters>2494.199951171875</AltitudeMeters>
            <DistanceMeters>33588.766137405</DistanceMeters>
          </Trackpoint>
          <Trackpoint>
            <Time>2022-07-10T10:16:38.000Z</Time>
            <Position>
              <LatitudeDegrees>42.75496699847280979156494140625</LatitudeDegrees>
              <LongitudeDegrees>-0.20773264579474925994873046875</LongitudeDegrees>
            </Position>
            <AltitudeMeters>2494.199951171875</AltitudeMeters>
            <DistanceMeters>33590.133333742</DistanceMeters>
          </Trackpoint>
          <Trackpoint>
            <Time>2022-07-10T10:16:44.000Z</Time>
            <Position>
              <LatitudeDegrees>42.75499398820102214813232421875</LatitudeDegrees>
              <LongitudeDegrees>-0.20768604241311550140380859375</LongitudeDegrees>
            </Position>
            <AltitudeMeters>2493.199951171875</AltitudeMeters>
            <DistanceMeters>33594.98435211</DistanceMeters>
          </Trackpoint>
          <Trackpoint>
            <Time>2022-07-10T10:16:45.000Z</Time>
            <Position>
              <LatitudeDegrees>42.755000777542591094970703125</LatitudeDegrees>
              <LongitudeDegrees>-0.20768151618540287017822265625</LongitudeDegrees>
            </Position>
            <AltitudeMeters>2493.199951171875</AltitudeMeters>
            <DistanceMeters>33595.823605328</DistanceMeters>
          </Trackpoint>
          <Trackpoint>
            <Time>2022-07-10T10:16:48.000Z</Time>
            <Position>
              <LatitudeDegrees>42.754999101161956787109375</LatitudeDegrees>
              <LongitudeDegrees>-0.20767665468156337738037109375</LongitudeDegrees>
            </Position>
            <AltitudeMeters>2493</AltitudeMeters>
            <DistanceMeters>33596.259072439</DistanceMeters>
          </Trackpoint>
          <Trackpoint>
            <Time>2022-07-10T10:16:54.000Z</Time>
            <Position>
              <LatitudeDegrees>42.754995413124561309814453125</LatitudeDegrees>
              <LongitudeDegrees>-0.20768101327121257781982421875</LongitudeDegrees>
            </Position>
            <AltitudeMeters>2493</AltitudeMeters>
            <DistanceMeters>33596.796624712</DistanceMeters>
          </Trackpoint>
          <Trackpoint>
            <Time>2022-07-10T10:17:00.000Z</Time>
            <Position>
              <LatitudeDegrees>42.75499708950519561767578125</LatitudeDegrees>
              <LongitudeDegrees>-0.20775142125785350799560546875</LongitudeDegrees>
            </Position>
            <AltitudeMeters>2492.39990234375</AltitudeMeters>
            <DistanceMeters>33602.554177198</DistanceMeters>
          </Trackpoint>
          <Trackpoint>
            <Time>2022-07-10T10:17:02.000Z</Time>
            <Position>
              <LatitudeDegrees>42.754993401467800140380859375</LatitudeDegrees>
              <LongitudeDegrees>-0.207784362137317657470703125</LongitudeDegrees>
            </Position>
            <AltitudeMeters>2492.199951171875</AltitudeMeters>
            <DistanceMeters>33605.278644639</DistanceMeters>
          </Trackpoint>
          <Trackpoint>
            <Time>2022-07-10T10:17:08.000Z</Time>
            <Position>
              <LatitudeDegrees>42.75500790216028690338134765625</LatitudeDegrees>
              <LongitudeDegrees>-0.20777639932930469512939453125</LongitudeDegrees>
            </Position>
            <AltitudeMeters>2492</AltitudeMeters>
            <DistanceMeters>33607.020513086</DistanceMeters>
          </Trackpoint>
          <Trackpoint>
            <Time>2022-07-10T10:17:11.000Z</Time>
            <Position>
              <LatitudeDegrees>42.75500706396996974945068359375</LatitudeDegrees>
              <LongitudeDegrees>-0.20778603851795196533203125</LongitudeDegrees>
            </Position>
            <AltitudeMeters>2491.800048828125</AltitudeMeters>
            <DistanceMeters>33607.804123447</DistanceMeters>
          </Trackpoint>
          <Trackpoint>
            <Time>2022-07-10T10:17:16.000Z</Time>
            <Position>
              <LatitudeDegrees>42.754975967109203338623046875</LatitudeDegrees>
              <LongitudeDegrees>-0.2077862061560153961181640625</LongitudeDegrees>
            </Position>
            <AltitudeMeters>2491.60009765625</AltitudeMeters>
            <DistanceMeters>33611.264453108</DistanceMeters>
          </Trackpoint>
          <Trackpoint>
            <Time>2022-07-10T10:17:17.000Z</Time>
            <Position>
              <LatitudeDegrees>42.7549751289188861846923828125</LatitudeDegrees>
              <LongitudeDegrees>-0.20779366604983806610107421875</LongitudeDegrees>
            </Position>
            <AltitudeMeters>2491.800048828125</AltitudeMeters>
            <DistanceMeters>33611.880296603</DistanceMeters>
          </Trackpoint>
          <Trackpoint>
            <Time>2022-07-10T10:17:22.000Z</Time>
            <Position>
              <LatitudeDegrees>42.75494344532489776611328125</LatitudeDegrees>
              <LongitudeDegrees>-0.2077898941934108734130859375</LongitudeDegrees>
            </Position>
            <AltitudeMeters>2491.60009765625</AltitudeMeters>
            <DistanceMeters>33615.420599712</DistanceMeters>
          </Trackpoint>
          <Trackpoint>
            <Time>2022-07-10T10:17:25.000Z</Time>
            <Position>
              <LatitudeDegrees>42.75492307730019092559814453125</LatitudeDegrees>
              <LongitudeDegrees>-0.2078069932758808135986328125</LongitudeDegrees>
            </Position>
            <AltitudeMeters>2491.199951171875</AltitudeMeters>
            <DistanceMeters>33618.084739364</DistanceMeters>
          </Trackpoint>
          <Trackpoint>
            <Time>2022-07-10T10:17:27.000Z</Time>
            <Position>
              <LatitudeDegrees>42.754908911883831024169921875</LatitudeDegrees>
              <LongitudeDegrees>-0.20782987587153911590576171875</LongitudeDegrees>
            </Position>
            <AltitudeMeters>2491.199951171875</AltitudeMeters>
            <DistanceMeters>33620.531561933</DistanceMeters>
          </Trackpoint>
          <Trackpoint>
            <Time>2022-07-10T10:17:28.000Z</Time>
            <Position>
              <LatitudeDegrees>42.75490547530353069305419921875</LatitudeDegrees>
              <LongitudeDegrees>-0.2078401856124401092529296875</LongitudeDegrees>
            </Position>
            <AltitudeMeters>2491.199951171875</AltitudeMeters>
            <DistanceMeters>33621.457767775</DistanceMeters>
          </Trackpoint>
          <Trackpoint>
            <Time>2022-07-10T10:17:29.000Z</Time>
            <Position>
              <LatitudeDegrees>42.75490245781838893890380859375</LatitudeDegrees>
              <LongitudeDegrees>-0.207851417362689971923828125</LongitudeDegrees>
            </Position>
            <AltitudeMeters>2491</AltitudeMeters>
            <DistanceMeters>33622.431501839</DistanceMeters>
          </Trackpoint>
          <Trackpoint>
            <Time>2022-07-10T10:17:30.000Z</Time>
            <Position>
              <LatitudeDegrees>42.754903547465801239013671875</LatitudeDegrees>
              <LongitudeDegrees>-0.20786642096936702728271484375</LongitudeDegrees>
            </Position>
            <AltitudeMeters>2490.800048828125</AltitudeMeters>
            <DistanceMeters>33623.663188829</DistanceMeters>
          </Trackpoint>
          <Trackpoint>
            <Time>2022-07-10T10:17:35.000Z</Time>
            <Position>
              <LatitudeDegrees>42.754899524152278900146484375</LatitudeDegrees>
              <LongitudeDegrees>-0.2079209871590137481689453125</LongitudeDegrees>
            </Position>
            <AltitudeMeters>2489.800048828125</AltitudeMeters>
            <DistanceMeters>33628.144582587</DistanceMeters>
          </Trackpoint>
          <Trackpoint>
            <Time>2022-07-10T10:17:41.000Z</Time>
            <Position>
              <LatitudeDegrees>42.75485627353191375732421875</LatitudeDegrees>
              <LongitudeDegrees>-0.20799701102077960968017578125</LongitudeDegrees>
            </Position>
            <AltitudeMeters>2489</AltitudeMeters>
            <DistanceMeters>33636.004274245</DistanceMeters>
          </Trackpoint>
          <Trackpoint>
            <Time>2022-07-10T10:17:42.000Z</Time>
            <Position>
              <LatitudeDegrees>42.75485618971288204193115234375</LatitudeDegrees>
              <LongitudeDegrees>-0.20801134407520294189453125</LongitudeDegrees>
            </Position>
            <AltitudeMeters>2488.60009765625</AltitudeMeters>
            <DistanceMeters>33637.175842262</DistanceMeters>
          </Trackpoint>
          <Trackpoint>
            <Time>2022-07-10T10:17:43.000Z</Time>
            <Position>
              <LatitudeDegrees>42.75485803373157978057861328125</LatitudeDegrees>
              <LongitudeDegrees>-0.2080245874822139739990234375</LongitudeDegrees>
            </Position>
            <AltitudeMeters>2488.39990234375</AltitudeMeters>
            <DistanceMeters>33638.279952909</DistanceMeters>
          </Trackpoint>
          <Trackpoint>
            <Time>2022-07-10T10:17:48.000Z</Time>
            <Position>
              <LatitudeDegrees>42.7548718638718128204345703125</LatitudeDegrees>
              <LongitudeDegrees>-0.20807160995900630950927734375</LongitudeDegrees>
            </Position>
            <AltitudeMeters>2487.800048828125</AltitudeMeters>
            <DistanceMeters>33642.419890721</DistanceMeters>
          </Trackpoint>
          <Trackpoint>
            <Time>2022-07-10T10:17:49.000Z</Time>
            <Position>
              <LatitudeDegrees>42.75487312115728855133056640625</LatitudeDegrees>
              <LongitudeDegrees>-0.20807831548154354095458984375</LongitudeDegrees>
            </Position>
            <AltitudeMeters>2487.800048828125</AltitudeMeters>
            <DistanceMeters>33642.990051007</DistanceMeters>
          </Trackpoint>
          <Trackpoint>
            <Time>2022-07-10T10:17:54.000Z</Time>
            <Position>
              <LatitudeDegrees>42.7548829279839992523193359375</LatitudeDegrees>
              <LongitudeDegrees>-0.20806339569389820098876953125</LongitudeDegrees>
            </Position>
            <AltitudeMeters>2487.60009765625</AltitudeMeters>
            <DistanceMeters>33644.624952419</DistanceMeters>
          </Trackpoint>
          <Trackpoint>
            <Time>2022-07-10T10:17:59.000Z</Time>
            <Position>
              <LatitudeDegrees>42.754878737032413482666015625</LatitudeDegrees>
              <LongitudeDegrees>-0.2080705203115940093994140625</LongitudeDegrees>
            </Position>
            <AltitudeMeters>2488</AltitudeMeters>
            <DistanceMeters>33645.373193517</DistanceMeters>
          </Trackpoint>
          <Trackpoint>
            <Time>2022-07-10T10:18:03.000Z</Time>
            <Position>
              <LatitudeDegrees>42.7548527531325817108154296875</LatitudeDegrees>
              <LongitudeDegrees>-0.208117961883544921875</LongitudeDegrees>
            </Position>
            <AltitudeMeters>2488</AltitudeMeters>
            <DistanceMeters>33650.211163974</DistanceMeters>
          </Trackpoint>
          <Trackpoint>
            <Time>2022-07-10T10:18:05.000Z</Time>
            <Position>
              <LatitudeDegrees>42.75484562851488590240478515625</LatitudeDegrees>
              <LongitudeDegrees>-0.2081385813653469085693359375</LongitudeDegrees>
            </Position>
            <AltitudeMeters>2488</AltitudeMeters>
            <DistanceMeters>33652.073299671</DistanceMeters>
          </Trackpoint>
          <Trackpoint>
            <Time>2022-07-10T10:18:08.000Z</Time>
            <Position>
              <LatitudeDegrees>42.75484411977231502532958984375</LatitudeDegrees>
              <LongitudeDegrees>-0.20816632546484470367431640625</LongitudeDegrees>
            </Position>
            <AltitudeMeters>2488</AltitudeMeters>
            <DistanceMeters>33654.346008127</DistanceMeters>
          </Trackpoint>
          <Trackpoint>
            <Time>2022-07-10T10:18:09.000Z</Time>
            <Position>
              <LatitudeDegrees>42.75483557023108005523681640625</LatitudeDegrees>
              <LongitudeDegrees>-0.20817319862544536590576171875</LongitudeDegrees>
            </Position>
            <AltitudeMeters>2488</AltitudeMeters>
            <DistanceMeters>33655.454200527</DistanceMeters>
          </Trackpoint>
          <Trackpoint>
            <Time>2022-07-10T10:18:10.000Z</Time>
            <Position>
              <LatitudeDegrees>42.75482970289885997772216796875</LatitudeDegrees>
              <LongitudeDegrees>-0.20818459801375865936279296875</LongitudeDegrees>
            </Position>
            <AltitudeMeters>2487.800048828125</AltitudeMeters>
            <DistanceMeters>33656.590554755</DistanceMeters>
          </Trackpoint>
          <Trackpoint>
            <Time>2022-07-10T10:18:11.000Z</Time>
            <Position>
              <LatitudeDegrees>42.75482475757598876953125</LatitudeDegrees>
              <LongitudeDegrees>-0.20820186473429203033447265625</LongitudeDegrees>
            </Position>
            <AltitudeMeters>2487.60009765625</AltitudeMeters>
            <DistanceMeters>33658.10503137</DistanceMeters>
          </Trackpoint>
          <Trackpoint>
            <Time>2022-07-10T10:18:12.000Z</Time>
            <Position>
              <LatitudeDegrees>42.75482199154794216156005859375</LatitudeDegrees>
              <LongitudeDegrees>-0.20821980200707912445068359375</LongitudeDegrees>
            </Position>
            <AltitudeMeters>2487.60009765625</AltitudeMeters>
            <DistanceMeters>33659.60452763</DistanceMeters>
          </Trackpoint>
          <Trackpoint>
            <Time>2022-07-10T10:18:15.000Z</Time>
            <Position>
              <LatitudeDegrees>42.75483875535428524017333984375</LatitudeDegrees>
              <LongitudeDegrees>-0.20827260799705982208251953125</LongitudeDegrees>
            </Position>
            <AltitudeMeters>2486.60009765625</AltitudeMeters>
            <DistanceMeters>33664.306189797</DistanceMeters>
          </Trackpoint>
          <Trackpoint>
            <Time>2022-07-10T10:18:16.000Z</Time>
            <Position>
              <LatitudeDegrees>42.754839174449443817138671875</LatitudeDegrees>
              <LongitudeDegrees>-0.2082871086895465850830078125</LongitudeDegrees>
            </Position>
            <AltitudeMeters>2486.39990234375</AltitudeMeters>
            <DistanceMeters>33665.493073079</DistanceMeters>
          </Trackpoint>
          <Trackpoint>
            <Time>2022-07-10T10:18:17.000Z</Time>
            <Position>
              <LatitudeDegrees>42.75483557023108005523681640625</LatitudeDegrees>
              <LongitudeDegrees>-0.20829389803111553192138671875</LongitudeDegrees>
            </Position>
            <AltitudeMeters>2486</AltitudeMeters>
            <DistanceMeters>33666.184878002</DistanceMeters>
          </Trackpoint>
          <Trackpoint>
            <Time>2022-07-10T10:18:18.000Z</Time>
            <Position>
              <LatitudeDegrees>42.7548299543559551239013671875</LatitudeDegrees>
              <LongitudeDegrees>-0.2083005197346210479736328125</LongitudeDegrees>
            </Position>
            <AltitudeMeters>2485.800048828125</AltitudeMeters>
            <DistanceMeters>33667.013301692</DistanceMeters>
          </Trackpoint>
          <Trackpoint>
            <Time>2022-07-10T10:18:19.000Z</Time>
            <Position>
              <LatitudeDegrees>42.75482215918600559234619140625</LatitudeDegrees>
              <LongitudeDegrees>-0.2083058841526508331298828125</LongitudeDegrees>
            </Position>
            <AltitudeMeters>2485.60009765625</AltitudeMeters>
            <DistanceMeters>33667.982387834</DistanceMeters>
          </Trackpoint>
          <Trackpoint>
            <Time>2022-07-10T10:18:24.000Z</Time>
            <Position>
              <LatitudeDegrees>42.75477002374827861785888671875</LatitudeDegrees>
              <LongitudeDegrees>-0.2083471231162548065185546875</LongitudeDegrees>
            </Position>
            <AltitudeMeters>2484.60009765625</AltitudeMeters>
            <DistanceMeters>33674.693723119</DistanceMeters>
          </Trackpoint>
          <Trackpoint>
            <Time>2022-07-10T10:18:25.000Z</Time>
            <Position>
              <LatitudeDegrees>42.7547617256641387939453125</LatitudeDegrees>
              <LongitudeDegrees>-0.20835022442042827606201171875</LongitudeDegrees>
            </Position>
            <AltitudeMeters>2484.199951171875</AltitudeMeters>
            <DistanceMeters>33675.65344589</DistanceMeters>
          </Trackpoint>
          <Trackpoint>
            <Time>2022-07-10T10:18:27.000Z</Time>
            <Position>
              <LatitudeDegrees>42.754738591611385345458984375</LatitudeDegrees>
              <LongitudeDegrees>-0.20835332572460174560546875</LongitudeDegrees>
            </Position>
            <AltitudeMeters>2483.60009765625</AltitudeMeters>
            <DistanceMeters>33678.238451996</DistanceMeters>
          </Trackpoint>
          <Trackpoint>
            <Time>2022-07-10T10:18:30.000Z</Time>
            <Position>
              <LatitudeDegrees>42.754709087312221527099609375</LatitudeDegrees>
              <LongitudeDegrees>-0.20834150724112987518310546875</LongitudeDegrees>
            </Position>
            <AltitudeMeters>2483</AltitudeMeters>
            <DistanceMeters>33681.662052326</DistanceMeters>
          </Trackpoint>
          <Trackpoint>
            <Time>2022-07-10T10:18:31.000Z</Time>
            <Position>
              <LatitudeDegrees>42.754700370132923126220703125</LatitudeDegrees>
              <LongitudeDegrees>-0.2083306945860385894775390625</LongitudeDegrees>
            </Position>
            <AltitudeMeters>2482.800048828125</AltitudeMeters>
            <DistanceMeters>33682.975347648</DistanceMeters>
          </Trackpoint>
          <Trackpoint>
            <Time>2022-07-10T10:18:33.000Z</Time>
            <Position>
              <LatitudeDegrees>42.75468503125011920928955078125</LatitudeDegrees>
              <LongitudeDegrees>-0.20830932073295116424560546875</LongitudeDegrees>
            </Position>
            <AltitudeMeters>2482.60009765625</AltitudeMeters>
            <DistanceMeters>33685.418476897</DistanceMeters>
          </Trackpoint>
          <Trackpoint>
            <Time>2022-07-10T10:18:36.000Z</Time>
            <Position>
              <LatitudeDegrees>42.7546562813222408294677734375</LatitudeDegrees>
              <LongitudeDegrees>-0.208307392895221710205078125</LongitudeDegrees>
            </Position>
            <AltitudeMeters>2482.199951171875</AltitudeMeters>
            <DistanceMeters>33688.621314208</DistanceMeters>
          </Trackpoint>
          <Trackpoint>
            <Time>2022-07-10T10:18:37.000Z</Time>
            <Position>
              <LatitudeDegrees>42.754645384848117828369140625</LatitudeDegrees>
              <LongitudeDegrees>-0.208308733999729156494140625</LongitudeDegrees>
            </Position>
            <AltitudeMeters>2482</AltitudeMeters>
            <DistanceMeters>33689.834534081</DistanceMeters>
          </Trackpoint>
          <Trackpoint>
            <Time>2022-07-10T10:18:39.000Z</Time>
            <Position>
              <LatitudeDegrees>42.7546264417469501495361328125</LatitudeDegrees>
              <LongitudeDegrees>-0.2083162777125835418701171875</LongitudeDegrees>
            </Position>
            <AltitudeMeters>2481.39990234375</AltitudeMeters>
            <DistanceMeters>33692.03045321</DistanceMeters>
          </Trackpoint>
          <Trackpoint>
            <Time>2022-07-10T10:18:41.000Z</Time>
            <Position>
              <LatitudeDegrees>42.75462367571890354156494140625</LatitudeDegrees>
              <LongitudeDegrees>-0.20834083668887615203857421875</LongitudeDegrees>
            </Position>
            <AltitudeMeters>2480.800048828125</AltitudeMeters>
            <DistanceMeters>33694.059668541</DistanceMeters>
          </Trackpoint>
          <Trackpoint>
            <Time>2022-07-10T10:18:43.000Z</Time>
            <Position>
              <LatitudeDegrees>42.7546571195125579833984375</LatitudeDegrees>
              <LongitudeDegrees>-0.208355002105236053466796875</LongitudeDegrees>
            </Position>
            <AltitudeMeters>2480.199951171875</AltitudeMeters>
            <DistanceMeters>33697.95692252</DistanceMeters>
          </Trackpoint>
          <Trackpoint>
            <Time>2022-07-10T10:18:46.000Z</Time>
            <Position>
              <LatitudeDegrees>42.754616551101207733154296875</LatitudeDegrees>
              <LongitudeDegrees>-0.2083481289446353912353515625</LongitudeDegrees>
            </Position>
            <AltitudeMeters>2479.60009765625</AltitudeMeters>
            <DistanceMeters>33702.506310964</DistanceMeters>
          </Trackpoint>
          <Trackpoint>
            <Time>2022-07-10T10:18:48.000Z</Time>
            <Position>
              <LatitudeDegrees>42.75458092801272869110107421875</LatitudeDegrees>
              <LongitudeDegrees>-0.20836028270423412322998046875</LongitudeDegrees>
            </Position>
            <AltitudeMeters>2479</AltitudeMeters>
            <DistanceMeters>33706.593564494</DistanceMeters>
          </Trackpoint>
          <Trackpoint>
            <Time>2022-07-10T10:18:50.000Z</Time>
            <Position>
              <LatitudeDegrees>42.75455427356064319610595703125</LatitudeDegrees>
              <LongitudeDegrees>-0.20837000571191310882568359375</LongitudeDegrees>
            </Position>
            <AltitudeMeters>2478.199951171875</AltitudeMeters>
            <DistanceMeters>33709.663971602</DistanceMeters>
          </Trackpoint>
          <Trackpoint>
            <Time>2022-07-10T10:18:51.000Z</Time>
            <Position>
              <LatitudeDegrees>42.754545472562313079833984375</LatitudeDegrees>
              <LongitudeDegrees>-0.20838283002376556396484375</LongitudeDegrees>
            </Position>
            <AltitudeMeters>2478</AltitudeMeters>
            <DistanceMeters>33711.098843523</DistanceMeters>
          </Trackpoint>
          <Trackpoint>
            <Time>2022-07-10T10:18:54.000Z</Time>
            <Position>
              <LatitudeDegrees>42.75451269932091236114501953125</LatitudeDegrees>
              <LongitudeDegrees>-0.20841057412326335906982421875</LongitudeDegrees>
            </Position>
            <AltitudeMeters>2477.60009765625</AltitudeMeters>
            <DistanceMeters>33715.392957645</DistanceMeters>
          </Trackpoint>
          <Trackpoint>
            <Time>2022-07-10T10:18:57.000Z</Time>
            <Position>
              <LatitudeDegrees>42.75450817309319972991943359375</LatitudeDegrees>
              <LongitudeDegrees>-0.20834603346884250640869140625</LongitudeDegrees>
            </Position>
            <AltitudeMeters>2477.39990234375</AltitudeMeters>
            <DistanceMeters>33720.690643705</DistanceMeters>
          </Trackpoint>
          <Trackpoint>
            <Time>2022-07-10T10:18:59.000Z</Time>
            <Position>
              <LatitudeDegrees>42.7545137889683246612548828125</LatitudeDegrees>
              <LongitudeDegrees>-0.20832239650189876556396484375</LongitudeDegrees>
            </Position>
            <AltitudeMeters>2477.199951171875</AltitudeMeters>
            <DistanceMeters>33722.722082834</DistanceMeters>
          </Trackpoint>
          <Trackpoint>
            <Time>2022-07-10T10:19:02.000Z</Time>
            <Position>
              <LatitudeDegrees>42.7545134536921977996826171875</LatitudeDegrees>
              <LongitudeDegrees>-0.208288617432117462158203125</LongitudeDegrees>
            </Position>
            <AltitudeMeters>2476.60009765625</AltitudeMeters>
            <DistanceMeters>33725.48276835</DistanceMeters>
          </Trackpoint>
          <Trackpoint>
            <Time>2022-07-10T10:19:03.000Z</Time>
            <Position>
              <LatitudeDegrees>42.75451370514929294586181640625</LatitudeDegrees>
              <LongitudeDegrees>-0.2082797326147556304931640625</LongitudeDegrees>
            </Position>
            <AltitudeMeters>2476.199951171875</AltitudeMeters>
            <DistanceMeters>33726.206470246</DistanceMeters>
          </Trackpoint>
          <Trackpoint>
            <Time>2022-07-10T10:19:06.000Z</Time>
            <Position>
              <LatitudeDegrees>42.75450892746448516845703125</LatitudeDegrees>
              <LongitudeDegrees>-0.2082669921219348907470703125</LongitudeDegrees>
            </Position>
            <AltitudeMeters>2475.39990234375</AltitudeMeters>
            <DistanceMeters>33727.378038263</DistanceMeters>
          </Trackpoint>
          <Trackpoint>
            <Time>2022-07-10T10:19:08.000Z</Time>
            <Position>
              <LatitudeDegrees>42.75451119057834148406982421875</LatitudeDegrees>
              <LongitudeDegrees>-0.20824125967919826507568359375</LongitudeDegrees>
            </Position>
            <AltitudeMeters>2474.60009765625</AltitudeMeters>
            <DistanceMeters>33729.498646211</DistanceMeters>
          </Trackpoint>
          <Trackpoint>
            <Time>2022-07-10T10:19:11.000Z</Time>
            <Position>
              <LatitudeDegrees>42.75451588444411754608154296875</LatitudeDegrees>
              <LongitudeDegrees>-0.2082016132771968841552734375</LongitudeDegrees>
            </Position>
            <AltitudeMeters>2473.800048828125</AltitudeMeters>
            <DistanceMeters>33732.779477069</DistanceMeters>
          </Trackpoint>
          <Trackpoint>
            <Time>2022-07-10T10:19:12.000Z</Time>
            <Position>
              <LatitudeDegrees>42.7545161359012126922607421875</LatitudeDegrees>
              <LongitudeDegrees>-0.20818795077502727508544921875</LongitudeDegrees>
            </Position>
            <AltitudeMeters>2473.60009765625</AltitudeMeters>
            <DistanceMeters>33733.895788204</DistanceMeters>
          </Trackpoint>
          <Trackpoint>
            <Time>2022-07-10T10:19:16.000Z</Time>
            <Position>
              <LatitudeDegrees>42.75450364686548709869384765625</LatitudeDegrees>
              <LongitudeDegrees>-0.20813363604247570037841796875</LongitudeDegrees>
            </Position>
            <AltitudeMeters>2472.60009765625</AltitudeMeters>
            <DistanceMeters>33738.54724638</DistanceMeters>
          </Trackpoint>
          <Trackpoint>
            <Time>2022-07-10T10:19:18.000Z</Time>
            <Position>
              <LatitudeDegrees>42.75449107401072978973388671875</LatitudeDegrees>
              <LongitudeDegrees>-0.20810010842978954315185546875</LongitudeDegrees>
            </Position>
            <AltitudeMeters>2472.199951171875</AltitudeMeters>
            <DistanceMeters>33741.62352987</DistanceMeters>
          </Trackpoint>
          <Trackpoint>
            <Time>2022-07-10T10:19:21.000Z</Time>
            <Position>
              <LatitudeDegrees>42.7544715441763401031494140625</LatitudeDegrees>
              <LongitudeDegrees>-0.2080668322741985321044921875</LongitudeDegrees>
            </Position>
            <AltitudeMeters>2471.39990234375</AltitudeMeters>
            <DistanceMeters>33745.104673732</DistanceMeters>
          </Trackpoint>
          <Trackpoint>
            <Time>2022-07-10T10:19:23.000Z</Time>
            <Position>
              <LatitudeDegrees>42.75444983504712581634521484375</LatitudeDegrees>
              <LongitudeDegrees>-0.20804747007787227630615234375</LongitudeDegrees>
            </Position>
            <AltitudeMeters>2471</AltitudeMeters>
            <DistanceMeters>33747.99167227</DistanceMeters>
          </Trackpoint>
          <Trackpoint>
            <Time>2022-07-10T10:19:25.000Z</Time>
            <Position>
              <LatitudeDegrees>42.754416726529598236083984375</LatitudeDegrees>
              <LongitudeDegrees>-0.20805166102945804595947265625</LongitudeDegrees>
            </Position>
            <AltitudeMeters>2470.800048828125</AltitudeMeters>
            <DistanceMeters>33751.692837757</DistanceMeters>
          </Trackpoint>
          <Trackpoint>
            <Time>2022-07-10T10:19:27.000Z</Time>
            <Position>
              <LatitudeDegrees>42.754397951066493988037109375</LatitudeDegrees>
              <LongitudeDegrees>-0.2080631442368030548095703125</LongitudeDegrees>
            </Position>
            <AltitudeMeters>2470.199951171875</AltitudeMeters>
            <DistanceMeters>33753.98335613</DistanceMeters>
          </Trackpoint>
          <Trackpoint>
            <Time>2022-07-10T10:19:32.000Z</Time>
            <Position>
              <LatitudeDegrees>42.754342295229434967041015625</LatitudeDegrees>
              <LongitudeDegrees>-0.2080504037439823150634765625</LongitudeDegrees>
            </Position>
            <AltitudeMeters>2469.39990234375</AltitudeMeters>
            <DistanceMeters>33760.265189784</DistanceMeters>
          </Trackpoint>
          <Trackpoint>
            <Time>2022-07-10T10:19:36.000Z</Time>
            <Position>
              <LatitudeDegrees>42.75428068824112415313720703125</LatitudeDegrees>
              <LongitudeDegrees>-0.20803724415600299835205078125</LongitudeDegrees>
            </Position>
            <AltitudeMeters>2469.199951171875</AltitudeMeters>
            <DistanceMeters>33767.206044042</DistanceMeters>
          </Trackpoint>
          <Trackpoint>
            <Time>2022-07-10T10:19:40.000Z</Time>
            <Position>
              <LatitudeDegrees>42.7542438916862010955810546875</LatitudeDegrees>
              <LongitudeDegrees>-0.20800204016268253326416015625</LongitudeDegrees>
            </Position>
            <AltitudeMeters>2468.800048828125</AltitudeMeters>
            <DistanceMeters>33772.210984806</DistanceMeters>
          </Trackpoint>
          <Trackpoint>
            <Time>2022-07-10T10:19:42.000Z</Time>
            <Position>
              <LatitudeDegrees>42.7542180754244327545166015625</LatitudeDegrees>
              <LongitudeDegrees>-0.20799851976335048675537109375</LongitudeDegrees>
            </Position>
            <AltitudeMeters>2467.800048828125</AltitudeMeters>
            <DistanceMeters>33775.099546842</DistanceMeters>
          </Trackpoint>
          <Trackpoint>
            <Time>2022-07-10T10:19:44.000Z</Time>
            <Position>
              <LatitudeDegrees>42.75418731383979320526123046875</LatitudeDegrees>
              <LongitudeDegrees>-0.2080014534294605255126953125</LongitudeDegrees>
            </Position>
            <AltitudeMeters>2467</AltitudeMeters>
            <DistanceMeters>33778.533681352</DistanceMeters>
          </Trackpoint>
          <Trackpoint>
            <Time>2022-07-10T10:19:45.000Z</Time>
            <Position>
              <LatitudeDegrees>42.7541701309382915496826171875</LatitudeDegrees>
              <LongitudeDegrees>-0.20800656639039516448974609375</LongitudeDegrees>
            </Position>
            <AltitudeMeters>2466.800048828125</AltitudeMeters>
            <DistanceMeters>33780.490401162</DistanceMeters>
          </Trackpoint>
          <Trackpoint>
            <Time>2022-07-10T10:19:48.000Z</Time>
            <Position>
              <LatitudeDegrees>42.75413786061108112335205078125</LatitudeDegrees>
              <LongitudeDegrees>-0.2080172114074230194091796875</LongitudeDegrees>
            </Position>
            <AltitudeMeters>2466.39990234375</AltitudeMeters>
            <DistanceMeters>33784.185462133</DistanceMeters>
          </Trackpoint>
          <Trackpoint>
            <Time>2022-07-10T10:19:50.000Z</Time>
            <Position>
              <LatitudeDegrees>42.75415194220840930938720703125</LatitudeDegrees>
              <LongitudeDegrees>-0.20798745565116405487060546875</LongitudeDegrees>
            </Position>
            <AltitudeMeters>2466.199951171875</AltitudeMeters>
            <DistanceMeters>33787.080269716</DistanceMeters>
          </Trackpoint>
          <Trackpoint>
            <Time>2022-07-10T10:19:53.000Z</Time>
            <Position>
              <LatitudeDegrees>42.754166610538959503173828125</LatitudeDegrees>
              <LongitudeDegrees>-0.20792257972061634063720703125</LongitudeDegrees>
            </Position>
            <AltitudeMeters>2465.800048828125</AltitudeMeters>
            <DistanceMeters>33792.627746667</DistanceMeters>
          </Trackpoint>
          <Trackpoint>
            <Time>2022-07-10T10:19:55.000Z</Time>
            <Position>
              <LatitudeDegrees>42.7541751600801944732666015625</LatitudeDegrees>
              <LongitudeDegrees>-0.20788033492863178253173828125</LongitudeDegrees>
            </Position>
            <AltitudeMeters>2465.39990234375</AltitudeMeters>
            <DistanceMeters>33796.208627641</DistanceMeters>
          </Trackpoint>
          <Trackpoint>
            <Time>2022-07-10T10:19:57.000Z</Time>
            <Position>
              <LatitudeDegrees>42.7541815303266048431396484375</LatitudeDegrees>
              <LongitudeDegrees>-0.2078457176685333251953125</LongitudeDegrees>
            </Position>
            <AltitudeMeters>2464.60009765625</AltitudeMeters>
            <DistanceMeters>33799.125189317</DistanceMeters>
          </Trackpoint>
          <Trackpoint>
            <Time>2022-07-10T10:19:59.000Z</Time>
            <Position>
              <LatitudeDegrees>42.754190079867839813232421875</LatitudeDegrees>
              <LongitudeDegrees>-0.20781361497938632965087890625</LongitudeDegrees>
            </Position>
            <AltitudeMeters>2464.39990234375</AltitudeMeters>
            <DistanceMeters>33801.916775957</DistanceMeters>
          </Trackpoint>
          <Trackpoint>
            <Time>2022-07-10T10:20:01.000Z</Time>
            <Position>
              <LatitudeDegrees>42.75419242680072784423828125</LatitudeDegrees>
              <LongitudeDegrees>-0.2077825181186199188232421875</LongitudeDegrees>
            </Position>
            <AltitudeMeters>2464.199951171875</AltitudeMeters>
            <DistanceMeters>33804.471916906</DistanceMeters>
          </Trackpoint>
          <Trackpoint>
            <Time>2022-07-10T10:20:05.000Z</Time>
            <Position>
              <LatitudeDegrees>42.7541942708194255828857421875</LatitudeDegrees>
              <LongitudeDegrees>-0.20773566327989101409912109375</LongitudeDegrees>
            </Position>
            <AltitudeMeters>2463.800048828125</AltitudeMeters>
            <DistanceMeters>33808.306100581</DistanceMeters>
          </Trackpoint>
          <Trackpoint>
            <Time>2022-07-10T10:20:06.000Z</Time>
            <Position>
              <LatitudeDegrees>42.75419150479137897491455078125</LatitudeDegrees>
              <LongitudeDegrees>-0.20772409625351428985595703125</LongitudeDegrees>
            </Position>
            <AltitudeMeters>2463.60009765625</AltitudeMeters>
            <DistanceMeters>33809.302749169</DistanceMeters>
          </Trackpoint>
          <Trackpoint>
            <Time>2022-07-10T10:20:07.000Z</Time>
            <Position>
              <LatitudeDegrees>42.754190750420093536376953125</LatitudeDegrees>
              <LongitudeDegrees>-0.2077214978635311126708984375</LongitudeDegrees>
            </Position>
            <AltitudeMeters>2463.39990234375</AltitudeMeters>
            <DistanceMeters>33809.535516132</DistanceMeters>
          </Trackpoint>
          <Trackpoint>
            <Time>2022-07-10T10:20:11.000Z</Time>
            <Position>
              <LatitudeDegrees>42.75414573960006237030029296875</LatitudeDegrees>
              <LongitudeDegrees>-0.2077813446521759033203125</LongitudeDegrees>
            </Position>
            <AltitudeMeters>2462.800048828125</AltitudeMeters>
            <DistanceMeters>33816.536605685</DistanceMeters>
          </Trackpoint>
          <Trackpoint>
            <Time>2022-07-10T10:20:12.000Z</Time>
            <Position>
              <LatitudeDegrees>42.754172645509243011474609375</LatitudeDegrees>
              <LongitudeDegrees>-0.20780724473297595977783203125</LongitudeDegrees>
            </Position>
            <AltitudeMeters>2462.39990234375</AltitudeMeters>
            <DistanceMeters>33820.204686096</DistanceMeters>
          </Trackpoint>
          <Trackpoint>
            <Time>2022-07-10T10:20:15.000Z</Time>
            <Position>
              <LatitudeDegrees>42.7541366033256053924560546875</LatitudeDegrees>
              <LongitudeDegrees>-0.207817889750003814697265625</LongitudeDegrees>
            </Position>
            <AltitudeMeters>2461.199951171875</AltitudeMeters>
            <DistanceMeters>33824.309576185</DistanceMeters>
          </Trackpoint>
          <Trackpoint>
            <Time>2022-07-10T10:20:17.000Z</Time>
            <Position>
              <LatitudeDegrees>42.75415412150323390960693359375</LatitudeDegrees>
              <LongitudeDegrees>-0.2078046463429927825927734375</LongitudeDegrees>
            </Position>
            <AltitudeMeters>2460.60009765625</AltitudeMeters>
            <DistanceMeters>33826.538150179</DistanceMeters>
          </Trackpoint>
          <Trackpoint>
            <Time>2022-07-10T10:20:20.000Z</Time>
            <Position>
              <LatitudeDegrees>42.75414858944714069366455078125</LatitudeDegrees>
              <LongitudeDegrees>-0.207774974405765533447265625</LongitudeDegrees>
            </Position>
            <AltitudeMeters>2460</AltitudeMeters>
            <DistanceMeters>33829.039718282</DistanceMeters>
          </Trackpoint>
          <Trackpoint>
            <Time>2022-07-10T10:20:22.000Z</Time>
            <Position>
              <LatitudeDegrees>42.75409318506717681884765625</LatitudeDegrees>
              <LongitudeDegrees>-0.2077791653573513031005859375</LongitudeDegrees>
            </Position>
            <AltitudeMeters>2459.199951171875</AltitudeMeters>
            <DistanceMeters>33835.215723698</DistanceMeters>
          </Trackpoint>
          <Trackpoint>
            <Time>2022-07-10T10:20:23.000Z</Time>
            <Position>
              <LatitudeDegrees>42.7540762536227703094482421875</LatitudeDegrees>
              <LongitudeDegrees>-0.20778377540409564971923828125</LongitudeDegrees>
            </Position>
            <AltitudeMeters>2458.800048828125</AltitudeMeters>
            <DistanceMeters>33837.139868012</DistanceMeters>
          </Trackpoint>
          <Trackpoint>
            <Time>2022-07-10T10:20:27.000Z</Time>
            <Position>
              <LatitudeDegrees>42.75404599495232105255126953125</LatitudeDegrees>
              <LongitudeDegrees>-0.20781219005584716796875</LongitudeDegrees>
            </Position>
            <AltitudeMeters>2458</AltitudeMeters>
            <DistanceMeters>33841.23043419</DistanceMeters>
          </Trackpoint>
          <Trackpoint>
            <Time>2022-07-10T10:20:28.000Z</Time>
            <Position>
              <LatitudeDegrees>42.754047922790050506591796875</LatitudeDegrees>
              <LongitudeDegrees>-0.20781143568456172943115234375</LongitudeDegrees>
            </Position>
            <AltitudeMeters>2457.800048828125</AltitudeMeters>
            <DistanceMeters>33841.463201152</DistanceMeters>
          </Trackpoint>
          <Trackpoint>
            <Time>2022-07-10T10:20:29.000Z</Time>
            <Position>
              <LatitudeDegrees>42.754072733223438262939453125</LatitudeDegrees>
              <LongitudeDegrees>-0.2078135311603546142578125</LongitudeDegrees>
            </Position>
            <AltitudeMeters>2457.800048828125</AltitudeMeters>
            <DistanceMeters>33844.230420844</DistanceMeters>
          </Trackpoint>
          <Trackpoint>
            <Time>2022-07-10T10:20:30.000Z</Time>
            <Position>
              <LatitudeDegrees>42.75404800660908222198486328125</LatitudeDegrees>
              <LongitudeDegrees>-0.207822583615779876708984375</LongitudeDegrees>
            </Position>
            <AltitudeMeters>2457.199951171875</AltitudeMeters>
            <DistanceMeters>33847.079638056</DistanceMeters>
          </Trackpoint>
          <Trackpoint>
            <Time>2022-07-10T10:20:32.000Z</Time>
            <Position>
              <LatitudeDegrees>42.75403006933629512786865234375</LatitudeDegrees>
              <LongitudeDegrees>-0.20784278400242328643798828125</LongitudeDegrees>
            </Position>
            <AltitudeMeters>2456.60009765625</AltitudeMeters>
            <DistanceMeters>33849.67162125</DistanceMeters>
          </Trackpoint>
          <Trackpoint>
            <Time>2022-07-10T10:20:34.000Z</Time>
            <Position>
              <LatitudeDegrees>42.7540484257042407989501953125</LatitudeDegrees>
              <LongitudeDegrees>-0.20786357112228870391845703125</LongitudeDegrees>
            </Position>
            <AltitudeMeters>2456.199951171875</AltitudeMeters>
            <DistanceMeters>33852.328973274</DistanceMeters>
          </Trackpoint>
          <Trackpoint>
            <Time>2022-07-10T10:20:37.000Z</Time>
            <Position>
              <LatitudeDegrees>42.7539830468595027923583984375</LatitudeDegrees>
              <LongitudeDegrees>-0.20785309374332427978515625</LongitudeDegrees>
            </Position>
            <AltitudeMeters>2455.39990234375</AltitudeMeters>
            <DistanceMeters>33859.655280282</DistanceMeters>
          </Trackpoint>
          <Trackpoint>
            <Time>2022-07-10T10:20:40.000Z</Time>
            <Position>
              <LatitudeDegrees>42.75399335660040378570556640625</LatitudeDegrees>
              <LongitudeDegrees>-0.20775318145751953125</LongitudeDegrees>
            </Position>
            <AltitudeMeters>2454.60009765625</AltitudeMeters>
            <DistanceMeters>33867.901277834</DistanceMeters>
          </Trackpoint>
          <Trackpoint>
            <Time>2022-07-10T10:20:41.000Z</Time>
            <Position>
              <LatitudeDegrees>42.75399670936167240142822265625</LatitudeDegrees>
              <LongitudeDegrees>-0.20772392861545085906982421875</LongitudeDegrees>
            </Position>
            <AltitudeMeters>2454.199951171875</AltitudeMeters>
            <DistanceMeters>33870.320263062</DistanceMeters>
          </Trackpoint>
          <Trackpoint>
            <Time>2022-07-10T10:20:46.000Z</Time>
            <Position>
              <LatitudeDegrees>42.7539812028408050537109375</LatitudeDegrees>
              <LongitudeDegrees>-0.20770129747688770294189453125</LongitudeDegrees>
            </Position>
            <AltitudeMeters>2453.199951171875</AltitudeMeters>
            <DistanceMeters>33872.848759478</DistanceMeters>
          </Trackpoint>
          <Trackpoint>
            <Time>2022-07-10T10:20:47.000Z</Time>
            <Position>
              <LatitudeDegrees>42.75397022254765033721923828125</LatitudeDegrees>
              <LongitudeDegrees>-0.20771906711161136627197265625</LongitudeDegrees>
            </Position>
            <AltitudeMeters>2453.199951171875</AltitudeMeters>
            <DistanceMeters>33874.74691661</DistanceMeters>
          </Trackpoint>
          <Trackpoint>
            <Time>2022-07-10T10:20:48.000Z</Time>
            <Position>
              <LatitudeDegrees>42.7539823763072490692138671875</LatitudeDegrees>
              <LongitudeDegrees>-0.2077499963343143463134765625</LongitudeDegrees>
            </Position>
            <AltitudeMeters>2453</AltitudeMeters>
            <DistanceMeters>33877.613512076</DistanceMeters>
          </Trackpoint>
          <Trackpoint>
            <Time>2022-07-10T10:20:50.000Z</Time>
            <Position>
              <LatitudeDegrees>42.75400064885616302490234375</LatitudeDegrees>
              <LongitudeDegrees>-0.20780305378139019012451171875</LongitudeDegrees>
            </Position>
            <AltitudeMeters>2452.199951171875</AltitudeMeters>
            <DistanceMeters>33882.402707642</DistanceMeters>
          </Trackpoint>
          <Trackpoint>
            <Time>2022-07-10T10:20:53.000Z</Time>
            <Position>
              <LatitudeDegrees>42.7540209330618381500244140625</LatitudeDegrees>
              <LongitudeDegrees>-0.20783901214599609375</LongitudeDegrees>
            </Position>
            <AltitudeMeters>2451.60009765625</AltitudeMeters>
            <DistanceMeters>33886.107531011</DistanceMeters>
          </Trackpoint>
          <Trackpoint>
            <Time>2022-07-10T10:20:54.000Z</Time>
            <Position>
              <LatitudeDegrees>42.754015065729618072509765625</LatitudeDegrees>
              <LongitudeDegrees>-0.20784663967788219451904296875</LongitudeDegrees>
            </Position>
            <AltitudeMeters>2451.199951171875</AltitudeMeters>
            <DistanceMeters>33887.009033579</DistanceMeters>
          </Trackpoint>
          <Trackpoint>
            <Time>2022-07-10T10:20:55.000Z</Time>
            <Position>
              <LatitudeDegrees>42.75398832745850086212158203125</LatitudeDegrees>
              <LongitudeDegrees>-0.20784596912562847137451171875</LongitudeDegrees>
            </Position>
            <AltitudeMeters>2451.199951171875</AltitudeMeters>
            <DistanceMeters>33889.985357652</DistanceMeters>
          </Trackpoint>
          <Trackpoint>
            <Time>2022-07-10T10:20:56.000Z</Time>
            <Position>
              <LatitudeDegrees>42.75396485812962055206298828125</LatitudeDegrees>
              <LongitudeDegrees>-0.20784311927855014801025390625</LongitudeDegrees>
            </Position>
            <AltitudeMeters>2451</AltitudeMeters>
            <DistanceMeters>33892.608508096</DistanceMeters>
          </Trackpoint>
          <Trackpoint>
            <Time>2022-07-10T10:20:58.000Z</Time>
            <Position>
              <LatitudeDegrees>42.75393300689756870269775390625</LatitudeDegrees>
              <LongitudeDegrees>-0.20782115869224071502685546875</LongitudeDegrees>
            </Position>
            <AltitudeMeters>2450.800048828125</AltitudeMeters>
            <DistanceMeters>33896.582624816</DistanceMeters>
          </Trackpoint>
          <Trackpoint>
            <Time>2022-07-10T10:20:59.000Z</Time>
            <Position>
              <LatitudeDegrees>42.75394105352461338043212890625</LatitudeDegrees>
              <LongitudeDegrees>-0.2078033052384853363037109375</LongitudeDegrees>
            </Position>
            <AltitudeMeters>2450.800048828125</AltitudeMeters>
            <DistanceMeters>33898.293105674</DistanceMeters>
          </Trackpoint>
          <Trackpoint>
            <Time>2022-07-10T10:21:03.000Z</Time>
            <Position>
              <LatitudeDegrees>42.753927893936634063720703125</LatitudeDegrees>
              <LongitudeDegrees>-0.20774655975401401519775390625</LongitudeDegrees>
            </Position>
            <AltitudeMeters>2450</AltitudeMeters>
            <DistanceMeters>33903.157136953</DistanceMeters>
          </Trackpoint>
          <Trackpoint>
            <Time>2022-07-10T10:21:05.000Z</Time>
            <Position>
              <LatitudeDegrees>42.75393166579306125640869140625</LatitudeDegrees>
              <LongitudeDegrees>-0.2077271975576877593994140625</LongitudeDegrees>
            </Position>
            <AltitudeMeters>2449.60009765625</AltitudeMeters>
            <DistanceMeters>33904.794797695</DistanceMeters>
          </Trackpoint>
          <Trackpoint>
            <Time>2022-07-10T10:21:08.000Z</Time>
            <Position>
              <LatitudeDegrees>42.75393350981175899505615234375</LatitudeDegrees>
              <LongitudeDegrees>-0.20769618451595306396484375</LongitudeDegrees>
            </Position>
            <AltitudeMeters>2449</AltitudeMeters>
            <DistanceMeters>33907.337539273</DistanceMeters>
          </Trackpoint>
          <Trackpoint>
            <Time>2022-07-10T10:21:09.000Z</Time>
            <Position>
              <LatitudeDegrees>42.75393669493496417999267578125</LatitudeDegrees>
              <LongitudeDegrees>-0.207691490650177001953125</LongitudeDegrees>
            </Position>
            <AltitudeMeters>2448.60009765625</AltitudeMeters>
            <DistanceMeters>33907.858022023</DistanceMeters>
          </Trackpoint>
          <Trackpoint>
            <Time>2022-07-10T10:21:11.000Z</Time>
            <Position>
              <LatitudeDegrees>42.75393669493496417999267578125</LatitudeDegrees>
              <LongitudeDegrees>-0.2076876349747180938720703125</LongitudeDegrees>
            </Position>
            <AltitudeMeters>2448</AltitudeMeters>
            <DistanceMeters>33908.187204218</DistanceMeters>
          </Trackpoint>
          <Trackpoint>
            <Time>2022-07-10T10:21:15.000Z</Time>
            <Position>
              <LatitudeDegrees>42.75390434078872203826904296875</LatitudeDegrees>
              <LongitudeDegrees>-0.207747481763362884521484375</LongitudeDegrees>
            </Position>
            <AltitudeMeters>2447.60009765625</AltitudeMeters>
            <DistanceMeters>33914.260742089</DistanceMeters>
          </Trackpoint>
          <Trackpoint>
            <Time>2022-07-10T10:21:21.000Z</Time>
            <Position>
              <LatitudeDegrees>42.75390685535967350006103515625</LatitudeDegrees>
              <LongitudeDegrees>-0.2077808417379856109619140625</LongitudeDegrees>
            </Position>
            <AltitudeMeters>2447.199951171875</AltitudeMeters>
            <DistanceMeters>33917.001731619</DistanceMeters>
          </Trackpoint>
          <Trackpoint>
            <Time>2022-07-10T10:21:23.000Z</Time>
            <Position>
              <LatitudeDegrees>42.75391071103513240814208984375</LatitudeDegrees>
              <LongitudeDegrees>-0.20779198966920375823974609375</LongitudeDegrees>
            </Position>
            <AltitudeMeters>2446.199951171875</AltitudeMeters>
            <DistanceMeters>33918.007399835</DistanceMeters>
          </Trackpoint>
          <Trackpoint>
            <Time>2022-07-10T10:21:28.000Z</Time>
            <Position>
              <LatitudeDegrees>42.7539233677089214324951171875</LatitudeDegrees>
              <LongitudeDegrees>-0.20777220837771892547607421875</LongitudeDegrees>
            </Position>
            <AltitudeMeters>2445</AltitudeMeters>
            <DistanceMeters>33920.153405191</DistanceMeters>
          </Trackpoint>
          <Trackpoint>
            <Time>2022-07-10T10:21:33.000Z</Time>
            <Position>
              <LatitudeDegrees>42.75387458503246307373046875</LatitudeDegrees>
              <LongitudeDegrees>-0.2078103460371494293212890625</LongitudeDegrees>
            </Position>
            <AltitudeMeters>2444.199951171875</AltitudeMeters>
            <DistanceMeters>33926.413639353</DistanceMeters>
          </Trackpoint>
          <Trackpoint>
            <Time>2022-07-10T10:21:34.000Z</Time>
            <Position>
              <LatitudeDegrees>42.75387466885149478912353515625</LatitudeDegrees>
              <LongitudeDegrees>-0.2078143693506717681884765625</LongitudeDegrees>
            </Position>
            <AltitudeMeters>2443.800048828125</AltitudeMeters>
            <DistanceMeters>33926.742821548</DistanceMeters>
          </Trackpoint>
          <Trackpoint>
            <Time>2022-07-10T10:21:36.000Z</Time>
            <Position>
              <LatitudeDegrees>42.7538479305803775787353515625</LatitudeDegrees>
              <LongitudeDegrees>-0.20779852755367755889892578125</LongitudeDegrees>
            </Position>
            <AltitudeMeters>2443.60009765625</AltitudeMeters>
            <DistanceMeters>33929.987674262</DistanceMeters>
          </Trackpoint>
          <Trackpoint>
            <Time>2022-07-10T10:21:40.000Z</Time>
            <Position>
              <LatitudeDegrees>42.75380090810358524322509765625</LatitudeDegrees>
              <LongitudeDegrees>-0.20775075070559978485107421875</LongitudeDegrees>
            </Position>
            <AltitudeMeters>2443</AltitudeMeters>
            <DistanceMeters>33936.517606954</DistanceMeters>
          </Trackpoint>
          <Trackpoint>
            <Time>2022-07-10T10:21:41.000Z</Time>
            <Position>
              <LatitudeDegrees>42.75380157865583896636962890625</LatitudeDegrees>
              <LongitudeDegrees>-0.2077436260879039764404296875</LongitudeDegrees>
            </Position>
            <AltitudeMeters>2442.800048828125</AltitudeMeters>
            <DistanceMeters>33937.103390963</DistanceMeters>
          </Trackpoint>
          <Trackpoint>
            <Time>2022-07-10T10:21:46.000Z</Time>
            <Position>
              <LatitudeDegrees>42.7537969686090946197509765625</LatitudeDegrees>
              <LongitudeDegrees>-0.20772895775735378265380859375</LongitudeDegrees>
            </Position>
            <AltitudeMeters>2441.60009765625</AltitudeMeters>
            <DistanceMeters>33938.406331626</DistanceMeters>
          </Trackpoint>
          <Trackpoint>
            <Time>2022-07-10T10:21:47.000Z</Time>
            <Position>
              <LatitudeDegrees>42.7537919394671916961669921875</LatitudeDegrees>
              <LongitudeDegrees>-0.207746140658855438232421875</LongitudeDegrees>
            </Position>
            <AltitudeMeters>2441.60009765625</AltitudeMeters>
            <DistanceMeters>33939.914833951</DistanceMeters>
          </Trackpoint>
          <Trackpoint>
            <Time>2022-07-10T10:21:51.000Z</Time>
            <Position>
              <LatitudeDegrees>42.7537812106311321258544921875</LatitudeDegrees>
              <LongitudeDegrees>-0.20781596191227436065673828125</LongitudeDegrees>
            </Position>
            <AltitudeMeters>2440.39990234375</AltitudeMeters>
            <DistanceMeters>33945.745634737</DistanceMeters>
          </Trackpoint>
          <Trackpoint>
            <Time>2022-07-10T10:21:53.000Z</Time>
            <Position>
              <LatitudeDegrees>42.75378883816301822662353515625</LatitudeDegrees>
              <LongitudeDegrees>-0.20784378983080387115478515625</LongitudeDegrees>
            </Position>
            <AltitudeMeters>2439.60009765625</AltitudeMeters>
            <DistanceMeters>33948.173934537</DistanceMeters>
          </Trackpoint>
          <Trackpoint>
            <Time>2022-07-10T10:21:55.000Z</Time>
            <Position>
              <LatitudeDegrees>42.753772325813770294189453125</LatitudeDegrees>
              <LongitudeDegrees>-0.20785870961844921112060546875</LongitudeDegrees>
            </Position>
            <AltitudeMeters>2439.199951171875</AltitudeMeters>
            <DistanceMeters>33950.378062738</DistanceMeters>
          </Trackpoint>
          <Trackpoint>
            <Time>2022-07-10T10:22:00.000Z</Time>
            <Position>
              <LatitudeDegrees>42.75374240241944789886474609375</LatitudeDegrees>
              <LongitudeDegrees>-0.20789240486919879913330078125</LongitudeDegrees>
            </Position>
            <AltitudeMeters>2438.39990234375</AltitudeMeters>
            <DistanceMeters>33954.699428042</DistanceMeters>
          </Trackpoint>
          <Trackpoint>
            <Time>2022-07-10T10:22:02.000Z</Time>
            <Position>
              <LatitudeDegrees>42.75375698693096637725830078125</LatitudeDegrees>
              <LongitudeDegrees>-0.207903385162353515625</LongitudeDegrees>
            </Position>
            <AltitudeMeters>2438</AltitudeMeters>
            <DistanceMeters>33956.556708096</DistanceMeters>
          </Trackpoint>
          <Trackpoint>
            <Time>2022-07-10T10:22:06.000Z</Time>
            <Position>
              <LatitudeDegrees>42.7536990679800510406494140625</LatitudeDegrees>
              <LongitudeDegrees>-0.20794101990759372711181640625</LongitudeDegrees>
            </Position>
            <AltitudeMeters>2437.39990234375</AltitudeMeters>
            <DistanceMeters>33963.700163982</DistanceMeters>
          </Trackpoint>
          <Trackpoint>
            <Time>2022-07-10T10:22:09.000Z</Time>
            <Position>
              <LatitudeDegrees>42.75366763584315776824951171875</LatitudeDegrees>
              <LongitudeDegrees>-0.2079974301159381866455078125</LongitudeDegrees>
            </Position>
            <AltitudeMeters>2437</AltitudeMeters>
            <DistanceMeters>33969.486658901</DistanceMeters>
          </Trackpoint>
          <Trackpoint>
            <Time>2022-07-10T10:22:12.000Z</Time>
            <Position>
              <LatitudeDegrees>42.75367207825183868408203125</LatitudeDegrees>
              <LongitudeDegrees>-0.208081416785717010498046875</LongitudeDegrees>
            </Position>
            <AltitudeMeters>2436.800048828125</AltitudeMeters>
            <DistanceMeters>33976.368062891</DistanceMeters>
          </Trackpoint>
          <Trackpoint>
            <Time>2022-07-10T10:22:14.000Z</Time>
            <Position>
              <LatitudeDegrees>42.7536755986511707305908203125</LatitudeDegrees>
              <LongitudeDegrees>-0.20812525413930416107177734375</LongitudeDegrees>
            </Position>
            <AltitudeMeters>2436.60009765625</AltitudeMeters>
            <DistanceMeters>33979.971568119</DistanceMeters>
          </Trackpoint>
          <Trackpoint>
            <Time>2022-07-10T10:22:15.000Z</Time>
            <Position>
              <LatitudeDegrees>42.7536826394498348236083984375</LatitudeDegrees>
              <LongitudeDegrees>-0.2081469632685184478759765625</LongitudeDegrees>
            </Position>
            <AltitudeMeters>2436.39990234375</AltitudeMeters>
            <DistanceMeters>33981.909740402</DistanceMeters>
          </Trackpoint>
          <Trackpoint>
            <Time>2022-07-10T10:22:17.000Z</Time>
            <Position>
              <LatitudeDegrees>42.75369890034198760986328125</LatitudeDegrees>
              <LongitudeDegrees>-0.2081841789186000823974609375</LongitudeDegrees>
            </Position>
            <AltitudeMeters>2435.800048828125</AltitudeMeters>
            <DistanceMeters>33985.447491941</DistanceMeters>
          </Trackpoint>
          <Trackpoint>
            <Time>2022-07-10T10:22:18.000Z</Time>
            <Position>
              <LatitudeDegrees>42.7537111379206180572509765625</LatitudeDegrees>
              <LongitudeDegrees>-0.20819867961108684539794921875</LongitudeDegrees>
            </Position>
            <AltitudeMeters>2435.800048828125</AltitudeMeters>
            <DistanceMeters>33987.250497077</DistanceMeters>
          </Trackpoint>
          <Trackpoint>
            <Time>2022-07-10T10:22:19.000Z</Time>
            <Position>
              <LatitudeDegrees>42.7537101320922374725341796875</LatitudeDegrees>
              <LongitudeDegrees>-0.20820387639105319976806640625</LongitudeDegrees>
            </Position>
            <AltitudeMeters>2435.60009765625</AltitudeMeters>
            <DistanceMeters>33987.696211876</DistanceMeters>
          </Trackpoint>
          <Trackpoint>
            <Time>2022-07-10T10:22:21.000Z</Time>
            <Position>
              <LatitudeDegrees>42.75372681207954883575439453125</LatitudeDegrees>
              <LongitudeDegrees>-0.20823069848120212554931640625</LongitudeDegrees>
            </Position>
            <AltitudeMeters>2435.199951171875</AltitudeMeters>
            <DistanceMeters>33990.567528611</DistanceMeters>
          </Trackpoint>
          <Trackpoint>
            <Time>2022-07-10T10:22:23.000Z</Time>
            <Position>
              <LatitudeDegrees>42.75373334996402263641357421875</LatitudeDegrees>
              <LongitudeDegrees>-0.20824947394430637359619140625</LongitudeDegrees>
            </Position>
            <AltitudeMeters>2434.800048828125</AltitudeMeters>
            <DistanceMeters>33992.264759999</DistanceMeters>
          </Trackpoint>
          <Trackpoint>
            <Time>2022-07-10T10:22:24.000Z</Time>
            <Position>
              <LatitudeDegrees>42.75373770855367183685302734375</LatitudeDegrees>
              <LongitudeDegrees>-0.2082562632858753204345703125</LongitudeDegrees>
            </Position>
            <AltitudeMeters>2434.800048828125</AltitudeMeters>
            <DistanceMeters>33993.000833764</DistanceMeters>
          </Trackpoint>
          <Trackpoint>
            <Time>2022-07-10T10:22:27.000Z</Time>
            <Position>
              <LatitudeDegrees>42.75372530333697795867919921875</LatitudeDegrees>
              <LongitudeDegrees>-0.20824712701141834259033203125</LongitudeDegrees>
            </Position>
            <AltitudeMeters>2434.60009765625</AltitudeMeters>
            <DistanceMeters>33994.573805774</DistanceMeters>
          </Trackpoint>
          <Trackpoint>
            <Time>2022-07-10T10:22:29.000Z</Time>
            <Position>
              <LatitudeDegrees>42.75369219481945037841796875</LatitudeDegrees>
              <LongitudeDegrees>-0.2082359790802001953125</LongitudeDegrees>
            </Position>
            <AltitudeMeters>2434.199951171875</AltitudeMeters>
            <DistanceMeters>33998.37012004</DistanceMeters>
          </Trackpoint>
          <Trackpoint>
            <Time>2022-07-10T10:22:31.000Z</Time>
            <Position>
              <LatitudeDegrees>42.7536655403673648834228515625</LatitudeDegrees>
              <LongitudeDegrees>-0.20823824219405651092529296875</LongitudeDegrees>
            </Position>
            <AltitudeMeters>2433.60009765625</AltitudeMeters>
            <DistanceMeters>34001.343408596</DistanceMeters>
          </Trackpoint>
          <Trackpoint>
            <Time>2022-07-10T10:22:34.000Z</Time>
            <Position>
              <LatitudeDegrees>42.753667049109935760498046875</LatitudeDegrees>
              <LongitudeDegrees>-0.2082748711109161376953125</LongitudeDegrees>
            </Position>
            <AltitudeMeters>2432.60009765625</AltitudeMeters>
            <DistanceMeters>34004.342401117</DistanceMeters>
          </Trackpoint>
          <Trackpoint>
            <Time>2022-07-10T10:22:35.000Z</Time>
            <Position>
              <LatitudeDegrees>42.7536715753376483917236328125</LatitudeDegrees>
              <LongitudeDegrees>-0.208290629088878631591796875</LongitudeDegrees>
            </Position>
            <AltitudeMeters>2432.199951171875</AltitudeMeters>
            <DistanceMeters>34005.726010963</DistanceMeters>
          </Trackpoint>
          <Trackpoint>
            <Time>2022-07-10T10:22:38.000Z</Time>
            <Position>
              <LatitudeDegrees>42.75369596667587757110595703125</LatitudeDegrees>
              <LongitudeDegrees>-0.20832910202443599700927734375</LongitudeDegrees>
            </Position>
            <AltitudeMeters>2431</AltitudeMeters>
            <DistanceMeters>34009.88010245</DistanceMeters>
          </Trackpoint>
          <Trackpoint>
            <Time>2022-07-10T10:22:39.000Z</Time>
            <Position>
              <LatitudeDegrees>42.75370568968355655670166015625</LatitudeDegrees>
              <LongitudeDegrees>-0.208336897194385528564453125</LongitudeDegrees>
            </Position>
            <AltitudeMeters>2430.800048828125</AltitudeMeters>
            <DistanceMeters>34011.133590903</DistanceMeters>
          </Trackpoint>
          <Trackpoint>
            <Time>2022-07-10T10:22:42.000Z</Time>
            <Position>
              <LatitudeDegrees>42.7536968886852264404296875</LatitudeDegrees>
              <LongitudeDegrees>-0.20831577479839324951171875</LongitudeDegrees>
            </Position>
            <AltitudeMeters>2430.39990234375</AltitudeMeters>
            <DistanceMeters>34013.117806952</DistanceMeters>
          </Trackpoint>
          <Trackpoint>
            <Time>2022-07-10T10:22:45.000Z</Time>
            <Position>
              <LatitudeDegrees>42.7536849863827228546142578125</LatitudeDegrees>
              <LongitudeDegrees>-0.20825450308620929718017578125</LongitudeDegrees>
            </Position>
            <AltitudeMeters>2429.800048828125</AltitudeMeters>
            <DistanceMeters>34018.298288319</DistanceMeters>
          </Trackpoint>
          <Trackpoint>
            <Time>2022-07-10T10:22:47.000Z</Time>
            <Position>
              <LatitudeDegrees>42.75367903523147106170654296875</LatitudeDegrees>
              <LongitudeDegrees>-0.208219550549983978271484375</LongitudeDegrees>
            </Position>
            <AltitudeMeters>2429.60009765625</AltitudeMeters>
            <DistanceMeters>34021.230289815</DistanceMeters>
          </Trackpoint>
          <Trackpoint>
            <Time>2022-07-10T10:22:51.000Z</Time>
            <Position>
              <LatitudeDegrees>42.7536789514124393463134765625</LatitudeDegrees>
              <LongitudeDegrees>-0.20815509371459484100341796875</LongitudeDegrees>
            </Position>
            <AltitudeMeters>2428.800048828125</AltitudeMeters>
            <DistanceMeters>34026.498919142</DistanceMeters>
          </Trackpoint>
          <Trackpoint>
            <Time>2022-07-10T10:22:54.000Z</Time>
            <Position>
              <LatitudeDegrees>42.75368414819240570068359375</LatitudeDegrees>
              <LongitudeDegrees>-0.2081191353499889373779296875</LongitudeDegrees>
            </Position>
            <AltitudeMeters>2428.199951171875</AltitudeMeters>
            <DistanceMeters>34029.493391702</DistanceMeters>
          </Trackpoint>
          <Trackpoint>
            <Time>2022-07-10T10:22:57.000Z</Time>
            <Position>
              <LatitudeDegrees>42.75366595946252346038818359375</LatitudeDegrees>
              <LongitudeDegrees>-0.20809222944080829620361328125</LongitudeDegrees>
            </Position>
            <AltitudeMeters>2428</AltitudeMeters>
            <DistanceMeters>34032.481827012</DistanceMeters>
          </Trackpoint>
          <Trackpoint>
            <Time>2022-07-10T10:22:59.000Z</Time>
            <Position>
              <LatitudeDegrees>42.75367165915668010711669921875</LatitudeDegrees>
              <LongitudeDegrees>-0.208046548068523406982421875</LongitudeDegrees>
            </Position>
            <AltitudeMeters>2427.60009765625</AltitudeMeters>
            <DistanceMeters>34036.268614753</DistanceMeters>
          </Trackpoint>
          <Trackpoint>
            <Time>2022-07-10T10:23:01.000Z</Time>
            <Position>
              <LatitudeDegrees>42.75368121452629566192626953125</LatitudeDegrees>
              <LongitudeDegrees>-0.20799835212528705596923828125</LongitudeDegrees>
            </Position>
            <AltitudeMeters>2427.39990234375</AltitudeMeters>
            <DistanceMeters>34040.348128313</DistanceMeters>
          </Trackpoint>
          <Trackpoint>
            <Time>2022-07-10T10:23:07.000Z</Time>
            <Position>
              <LatitudeDegrees>42.75367987342178821563720703125</LatitudeDegrees>
              <LongitudeDegrees>-0.207939259707927703857421875</LongitudeDegrees>
            </Position>
            <AltitudeMeters>2426.39990234375</AltitudeMeters>
            <DistanceMeters>34045.178626996</DistanceMeters>
          </Trackpoint>
          <Trackpoint>
            <Time>2022-07-10T10:23:09.000Z</Time>
            <Position>
              <LatitudeDegrees>42.753675095736980438232421875</LatitudeDegrees>
              <LongitudeDegrees>-0.20791486836969852447509765625</LongitudeDegrees>
            </Position>
            <AltitudeMeters>2425.39990234375</AltitudeMeters>
            <DistanceMeters>34047.240947535</DistanceMeters>
          </Trackpoint>
          <Trackpoint>
            <Time>2022-07-10T10:23:14.000Z</Time>
            <Position>
              <LatitudeDegrees>42.7536450885236263275146484375</LatitudeDegrees>
              <LongitudeDegrees>-0.2078763954341411590576171875</LongitudeDegrees>
            </Position>
            <AltitudeMeters>2424.60009765625</AltitudeMeters>
            <DistanceMeters>34051.827894026</DistanceMeters>
          </Trackpoint>
          <Trackpoint>
            <Time>2022-07-10T10:23:15.000Z</Time>
            <Position>
              <LatitudeDegrees>42.753643579781055450439453125</LatitudeDegrees>
              <LongitudeDegrees>-0.2078644931316375732421875</LongitudeDegrees>
            </Position>
            <AltitudeMeters>2424.39990234375</AltitudeMeters>
            <DistanceMeters>34052.815440611</DistanceMeters>
          </Trackpoint>
          <Trackpoint>
            <Time>2022-07-10T10:23:17.000Z</Time>
            <Position>
              <LatitudeDegrees>42.75363679043948650360107421875</LatitudeDegrees>
              <LongitudeDegrees>-0.20783205516636371612548828125</LongitudeDegrees>
            </Position>
            <AltitudeMeters>2423.39990234375</AltitudeMeters>
            <DistanceMeters>34055.572853232</DistanceMeters>
          </Trackpoint>
          <Trackpoint>
            <Time>2022-07-10T10:23:20.000Z</Time>
            <Position>
              <LatitudeDegrees>42.7536263130605220794677734375</LatitudeDegrees>
              <LongitudeDegrees>-0.2078106813132762908935546875</LongitudeDegrees>
            </Position>
            <AltitudeMeters>2422.199951171875</AltitudeMeters>
            <DistanceMeters>34057.672061965</DistanceMeters>
          </Trackpoint>
          <Trackpoint>
            <Time>2022-07-10T10:23:21.000Z</Time>
            <Position>
              <LatitudeDegrees>42.75361985899507999420166015625</LatitudeDegrees>
              <LongitudeDegrees>-0.20782132633030414581298828125</LongitudeDegrees>
            </Position>
            <AltitudeMeters>2422</AltitudeMeters>
            <DistanceMeters>34058.800441679</DistanceMeters>
          </Trackpoint>
          <Trackpoint>
            <Time>2022-07-10T10:23:24.000Z</Time>
            <Position>
              <LatitudeDegrees>42.75359756313264369964599609375</LatitudeDegrees>
              <LongitudeDegrees>-0.20790615119040012359619140625</LongitudeDegrees>
            </Position>
            <AltitudeMeters>2421.39990234375</AltitudeMeters>
            <DistanceMeters>34066.163632493</DistanceMeters>
          </Trackpoint>
          <Trackpoint>
            <Time>2022-07-10T10:23:26.000Z</Time>
            <Position>
              <LatitudeDegrees>42.75359186343848705291748046875</LatitudeDegrees>
              <LongitudeDegrees>-0.2079491503536701202392578125</LongitudeDegrees>
            </Position>
            <AltitudeMeters>2421.199951171875</AltitudeMeters>
            <DistanceMeters>34069.734412232</DistanceMeters>
          </Trackpoint>
          <Trackpoint>
            <Time>2022-07-10T10:23:27.000Z</Time>
            <Position>
              <LatitudeDegrees>42.75357551872730255126953125</LatitudeDegrees>
              <LongitudeDegrees>-0.2079570293426513671875</LongitudeDegrees>
            </Position>
            <AltitudeMeters>2421.199951171875</AltitudeMeters>
            <DistanceMeters>34071.663243871</DistanceMeters>
          </Trackpoint>
          <Trackpoint>
            <Time>2022-07-10T10:23:32.000Z</Time>
            <Position>
              <LatitudeDegrees>42.753507792949676513671875</LatitudeDegrees>
              <LongitudeDegrees>-0.20798712037503719329833984375</LongitudeDegrees>
            </Position>
            <AltitudeMeters>2420</AltitudeMeters>
            <DistanceMeters>34079.592139898</DistanceMeters>
          </Trackpoint>
          <Trackpoint>
            <Time>2022-07-10T10:23:34.000Z</Time>
            <Position>
              <LatitudeDegrees>42.75351374410092830657958984375</LatitudeDegrees>
              <LongitudeDegrees>-0.2080168761312961578369140625</LongitudeDegrees>
            </Position>
            <AltitudeMeters>2419.39990234375</AltitudeMeters>
            <DistanceMeters>34082.113483551</DistanceMeters>
          </Trackpoint>
          <Trackpoint>
            <Time>2022-07-10T10:23:36.000Z</Time>
            <Position>
              <LatitudeDegrees>42.75351340882480144500732421875</LatitudeDegrees>
              <LongitudeDegrees>-0.2080356515944004058837890625</LongitudeDegrees>
            </Position>
            <AltitudeMeters>2419.199951171875</AltitudeMeters>
            <DistanceMeters>34083.648687105</DistanceMeters>
          </Trackpoint>
          <Trackpoint>
            <Time>2022-07-10T10:23:37.000Z</Time>
            <Position>
              <LatitudeDegrees>42.75351910851895809173583984375</LatitudeDegrees>
              <LongitudeDegrees>-0.20804713480174541473388671875</LongitudeDegrees>
            </Position>
            <AltitudeMeters>2418.60009765625</AltitudeMeters>
            <DistanceMeters>34084.785041333</DistanceMeters>
          </Trackpoint>
          <Trackpoint>
            <Time>2022-07-10T10:23:39.000Z</Time>
            <Position>
              <LatitudeDegrees>42.75353905744850635528564453125</LatitudeDegrees>
              <LongitudeDegrees>-0.20807077176868915557861328125</LongitudeDegrees>
            </Position>
            <AltitudeMeters>2417.60009765625</AltitudeMeters>
            <DistanceMeters>34087.729336391</DistanceMeters>
          </Trackpoint>
          <Trackpoint>
            <Time>2022-07-10T10:23:40.000Z</Time>
            <Position>
              <LatitudeDegrees>42.75354760698974132537841796875</LatitudeDegrees>
              <LongitudeDegrees>-0.208079405128955841064453125</LongitudeDegrees>
            </Position>
            <AltitudeMeters>2417.199951171875</AltitudeMeters>
            <DistanceMeters>34088.916219673</DistanceMeters>
          </Trackpoint>
          <Trackpoint>
            <Time>2022-07-10T10:23:43.000Z</Time>
            <Position>
              <LatitudeDegrees>42.7535465173423290252685546875</LatitudeDegrees>
              <LongitudeDegrees>-0.20811636932194232940673828125</LongitudeDegrees>
            </Position>
            <AltitudeMeters>2416.60009765625</AltitudeMeters>
            <DistanceMeters>34091.939204516</DistanceMeters>
          </Trackpoint>
          <Trackpoint>
            <Time>2022-07-10T10:23:46.000Z</Time>
            <Position>
              <LatitudeDegrees>42.753548361361026763916015625</LatitudeDegrees>
              <LongitudeDegrees>-0.20815945230424404144287109375</LongitudeDegrees>
            </Position>
            <AltitudeMeters>2415.800048828125</AltitudeMeters>
            <DistanceMeters>34095.466731318</DistanceMeters>
          </Trackpoint>
          <Trackpoint>
            <Time>2022-07-10T10:23:48.000Z</Time>
            <Position>
              <LatitudeDegrees>42.75352598167955875396728515625</LatitudeDegrees>
              <LongitudeDegrees>-0.208177976310253143310546875</LongitudeDegrees>
            </Position>
            <AltitudeMeters>2415.199951171875</AltitudeMeters>
            <DistanceMeters>34098.383292994</DistanceMeters>
          </Trackpoint>
          <Trackpoint>
            <Time>2022-07-10T10:23:51.000Z</Time>
            <Position>
              <LatitudeDegrees>42.753501422703266143798828125</LatitudeDegrees>
              <LongitudeDegrees>-0.20818862132728099822998046875</LongitudeDegrees>
            </Position>
            <AltitudeMeters>2414</AltitudeMeters>
            <DistanceMeters>34101.253036836</DistanceMeters>
          </Trackpoint>
          <Trackpoint>
            <Time>2022-07-10T10:23:52.000Z</Time>
            <Position>
              <LatitudeDegrees>42.753489017486572265625</LatitudeDegrees>
              <LongitudeDegrees>-0.20819130353629589080810546875</LongitudeDegrees>
            </Position>
            <AltitudeMeters>2413.800048828125</AltitudeMeters>
            <DistanceMeters>34102.649638608</DistanceMeters>
          </Trackpoint>
          <Trackpoint>
            <Time>2022-07-10T10:23:55.000Z</Time>
            <Position>
              <LatitudeDegrees>42.753501422703266143798828125</LatitudeDegrees>
              <LongitudeDegrees>-0.2082361467182636260986328125</LongitudeDegrees>
            </Position>
            <AltitudeMeters>2413.39990234375</AltitudeMeters>
            <DistanceMeters>34106.566537877</DistanceMeters>
          </Trackpoint>
          <Trackpoint>
            <Time>2022-07-10T10:23:56.000Z</Time>
            <Position>
              <LatitudeDegrees>42.7535093016922473907470703125</LatitudeDegrees>
              <LongitudeDegrees>-0.2082455344498157501220703125</LongitudeDegrees>
            </Position>
            <AltitudeMeters>2413.39990234375</AltitudeMeters>
            <DistanceMeters>34107.730372687</DistanceMeters>
          </Trackpoint>
          <Trackpoint>
            <Time>2022-07-10T10:23:57.000Z</Time>
            <Position>
              <LatitudeDegrees>42.75351726450026035308837890625</LatitudeDegrees>
              <LongitudeDegrees>-0.20825886167585849761962890625</LongitudeDegrees>
            </Position>
            <AltitudeMeters>2413.199951171875</AltitudeMeters>
            <DistanceMeters>34109.13663964</DistanceMeters>
          </Trackpoint>
          <Trackpoint>
            <Time>2022-07-10T10:23:58.000Z</Time>
            <Position>
              <LatitudeDegrees>42.75352497585117816925048828125</LatitudeDegrees>
              <LongitudeDegrees>-0.20827512256801128387451171875</LongitudeDegrees>
            </Position>
            <AltitudeMeters>2412.800048828125</AltitudeMeters>
            <DistanceMeters>34110.718199368</DistanceMeters>
          </Trackpoint>
          <Trackpoint>
            <Time>2022-07-10T10:24:00.000Z</Time>
            <Position>
              <LatitudeDegrees>42.753523886203765869140625</LatitudeDegrees>
              <LongitudeDegrees>-0.20830881781876087188720703125</LongitudeDegrees>
            </Position>
            <AltitudeMeters>2411.60009765625</AltitudeMeters>
            <DistanceMeters>34113.47561199</DistanceMeters>
          </Trackpoint>
          <Trackpoint>
            <Time>2022-07-10T10:24:03.000Z</Time>
            <Position>
              <LatitudeDegrees>42.75352648459374904632568359375</LatitudeDegrees>
              <LongitudeDegrees>-0.20835106261074542999267578125</LongitudeDegrees>
            </Position>
            <AltitudeMeters>2410.39990234375</AltitudeMeters>
            <DistanceMeters>34116.941156921</DistanceMeters>
          </Trackpoint>
          <Trackpoint>
            <Time>2022-07-10T10:24:04.000Z</Time>
            <Position>
              <LatitudeDegrees>42.753518186509609222412109375</LatitudeDegrees>
              <LongitudeDegrees>-0.20835860632359981536865234375</LongitudeDegrees>
            </Position>
            <AltitudeMeters>2409.800048828125</AltitudeMeters>
            <DistanceMeters>34118.049349322</DistanceMeters>
          </Trackpoint>
          <Trackpoint>
            <Time>2022-07-10T10:24:06.000Z</Time>
            <Position>
              <LatitudeDegrees>42.7535052783787250518798828125</LatitudeDegrees>
              <LongitudeDegrees>-0.2083746157586574554443359375</LongitudeDegrees>
            </Position>
            <AltitudeMeters>2409.60009765625</AltitudeMeters>
            <DistanceMeters>34119.992175087</DistanceMeters>
          </Trackpoint>
          <Trackpoint>
            <Time>2022-07-10T10:24:07.000Z</Time>
            <Position>
              <LatitudeDegrees>42.75350016541779041290283203125</LatitudeDegrees>
              <LongitudeDegrees>-0.20838442258536815643310546875</LongitudeDegrees>
            </Position>
            <AltitudeMeters>2409.39990234375</AltitudeMeters>
            <DistanceMeters>34120.975139063</DistanceMeters>
          </Trackpoint>
          <Trackpoint>
            <Time>2022-07-10T10:24:08.000Z</Time>
            <Position>
              <LatitudeDegrees>42.75349237024784088134765625</LatitudeDegrees>
              <LongitudeDegrees>-0.20839682780206203460693359375</LongitudeDegrees>
            </Position>
            <AltitudeMeters>2409.199951171875</AltitudeMeters>
            <DistanceMeters>34122.31228346</DistanceMeters>
          </Trackpoint>
          <Trackpoint>
            <Time>2022-07-10T10:24:11.000Z</Time>
            <Position>
              <LatitudeDegrees>42.75348432362079620361328125</LatitudeDegrees>
              <LongitudeDegrees>-0.20841660909354686737060546875</LongitudeDegrees>
            </Position>
            <AltitudeMeters>2408.39990234375</AltitudeMeters>
            <DistanceMeters>34124.164695144</DistanceMeters>
          </Trackpoint>
          <Trackpoint>
            <Time>2022-07-10T10:24:12.000Z</Time>
            <Position>
              <LatitudeDegrees>42.753483988344669342041015625</LatitudeDegrees>
              <LongitudeDegrees>-0.2084262482821941375732421875</LongitudeDegrees>
            </Position>
            <AltitudeMeters>2407.800048828125</AltitudeMeters>
            <DistanceMeters>34124.948305505</DistanceMeters>
          </Trackpoint>
          <Trackpoint>
            <Time>2022-07-10T10:24:13.000Z</Time>
            <Position>
              <LatitudeDegrees>42.7534903585910797119140625</LatitudeDegrees>
              <LongitudeDegrees>-0.20843873731791973114013671875</LongitudeDegrees>
            </Position>
            <AltitudeMeters>2407.39990234375</AltitudeMeters>
            <DistanceMeters>34126.19094104</DistanceMeters>
          </Trackpoint>
          <Trackpoint>
            <Time>2022-07-10T10:24:17.000Z</Time>
            <Position>
              <LatitudeDegrees>42.75349312461912631988525390625</LatitudeDegrees>
              <LongitudeDegrees>-0.2085006795823574066162109375</LongitudeDegrees>
            </Position>
            <AltitudeMeters>2406.800048828125</AltitudeMeters>
            <DistanceMeters>34131.263089282</DistanceMeters>
          </Trackpoint>
          <Trackpoint>
            <Time>2022-07-10T10:24:18.000Z</Time>
            <Position>
              <LatitudeDegrees>42.75348390452563762664794921875</LatitudeDegrees>
              <LongitudeDegrees>-0.2085137553513050079345703125</LongitudeDegrees>
            </Position>
            <AltitudeMeters>2406.60009765625</AltitudeMeters>
            <DistanceMeters>34132.747454012</DistanceMeters>
          </Trackpoint>
          <Trackpoint>
            <Time>2022-07-10T10:24:22.000Z</Time>
            <Position>
              <LatitudeDegrees>42.753472588956356048583984375</LatitudeDegrees>
              <LongitudeDegrees>-0.2085771225392818450927734375</LongitudeDegrees>
            </Position>
            <AltitudeMeters>2405.39990234375</AltitudeMeters>
            <DistanceMeters>34138.077427792</DistanceMeters>
          </Trackpoint>
          <Trackpoint>
            <Time>2022-07-10T10:24:25.000Z</Time>
            <Position>
              <LatitudeDegrees>42.75348365306854248046875</LatitudeDegrees>
              <LongitudeDegrees>-0.20861685276031494140625</LongitudeDegrees>
            </Position>
            <AltitudeMeters>2404.199951171875</AltitudeMeters>
            <DistanceMeters>34141.548180156</DistanceMeters>
          </Trackpoint>
          <Trackpoint>
            <Time>2022-07-10T10:24:26.000Z</Time>
            <Position>
              <LatitudeDegrees>42.7534885145723819732666015625</LatitudeDegrees>
              <LongitudeDegrees>-0.20862515084445476531982421875</LongitudeDegrees>
            </Position>
            <AltitudeMeters>2403.800048828125</AltitudeMeters>
            <DistanceMeters>34142.41911438</DistanceMeters>
          </Trackpoint>
          <Trackpoint>
            <Time>2022-07-10T10:24:28.000Z</Time>
            <Position>
              <LatitudeDegrees>42.75350117124617099761962890625</LatitudeDegrees>
              <LongitudeDegrees>-0.20865381695330142974853515625</LongitudeDegrees>
            </Position>
            <AltitudeMeters>2403.199951171875</AltitudeMeters>
            <DistanceMeters>34145.153507054</DistanceMeters>
          </Trackpoint>
          <Trackpoint>
            <Time>2022-07-10T10:24:30.000Z</Time>
            <Position>
              <LatitudeDegrees>42.753502428531646728515625</LatitudeDegrees>
              <LongitudeDegrees>-0.2086807228624820709228515625</LongitudeDegrees>
            </Position>
            <AltitudeMeters>2401.800048828125</AltitudeMeters>
            <DistanceMeters>34147.357635255</DistanceMeters>
          </Trackpoint>
          <Trackpoint>
            <Time>2022-07-10T10:24:35.000Z</Time>
            <Position>
              <LatitudeDegrees>42.75349295698106288909912109375</LatitudeDegrees>
              <LongitudeDegrees>-0.20875959657132625579833984375</LongitudeDegrees>
            </Position>
            <AltitudeMeters>2400.800048828125</AltitudeMeters>
            <DistanceMeters>34153.889641929</DistanceMeters>
          </Trackpoint>
          <Trackpoint>
            <Time>2022-07-10T10:24:36.000Z</Time>
            <Position>
              <LatitudeDegrees>42.75349237024784088134765625</LatitudeDegrees>
              <LongitudeDegrees>-0.208778791129589080810546875</LongitudeDegrees>
            </Position>
            <AltitudeMeters>2400.60009765625</AltitudeMeters>
            <DistanceMeters>34155.46261394</DistanceMeters>
          </Trackpoint>
          <Trackpoint>
            <Time>2022-07-10T10:24:38.000Z</Time>
            <Position>
              <LatitudeDegrees>42.7535037696361541748046875</LatitudeDegrees>
              <LongitudeDegrees>-0.20880687050521373748779296875</LongitudeDegrees>
            </Position>
            <AltitudeMeters>2399.60009765625</AltitudeMeters>
            <DistanceMeters>34158.085764384</DistanceMeters>
          </Trackpoint>
          <Trackpoint>
            <Time>2022-07-10T10:24:41.000Z</Time>
            <Position>
              <LatitudeDegrees>42.75349798612296581268310546875</LatitudeDegrees>
              <LongitudeDegrees>-0.20884978584945201873779296875</LongitudeDegrees>
            </Position>
            <AltitudeMeters>2398.39990234375</AltitudeMeters>
            <DistanceMeters>34161.651482773</DistanceMeters>
          </Trackpoint>
          <Trackpoint>
            <Time>2022-07-10T10:24:44.000Z</Time>
            <Position>
              <LatitudeDegrees>42.753489017486572265625</LatitudeDegrees>
              <LongitudeDegrees>-0.20888172090053558349609375</LongitudeDegrees>
            </Position>
            <AltitudeMeters>2397.60009765625</AltitudeMeters>
            <DistanceMeters>34164.444686319</DistanceMeters>
          </Trackpoint>
          <Trackpoint>
            <Time>2022-07-10T10:24:45.000Z</Time>
            <Position>
              <LatitudeDegrees>42.7534875087440013885498046875</LatitudeDegrees>
              <LongitudeDegrees>-0.2088879235088825225830078125</LongitudeDegrees>
            </Position>
            <AltitudeMeters>2397.39990234375</AltitudeMeters>
            <DistanceMeters>34164.982238592</DistanceMeters>
          </Trackpoint>
          <Trackpoint>
            <Time>2022-07-10T10:24:50.000Z</Time>
            <Position>
              <LatitudeDegrees>42.75350552983582019805908203125</LatitudeDegrees>
              <LongitudeDegrees>-0.20894282497465610504150390625</LongitudeDegrees>
            </Position>
            <AltitudeMeters>2397.39990234375</AltitudeMeters>
            <DistanceMeters>34169.896139731</DistanceMeters>
          </Trackpoint>
          <Trackpoint>
            <Time>2022-07-10T10:24:53.000Z</Time>
            <Position>
              <LatitudeDegrees>42.753491364419460296630859375</LatitudeDegrees>
              <LongitudeDegrees>-0.20899211056530475616455078125</LongitudeDegrees>
            </Position>
            <AltitudeMeters>2397.199951171875</AltitudeMeters>
            <DistanceMeters>34174.221682286</DistanceMeters>
          </Trackpoint>
          <Trackpoint>
            <Time>2022-07-10T10:24:55.000Z</Time>
            <Position>
              <LatitudeDegrees>42.75348289869725704193115234375</LatitudeDegrees>
              <LongitudeDegrees>-0.20902010612189769744873046875</LongitudeDegrees>
            </Position>
            <AltitudeMeters>2396.199951171875</AltitudeMeters>
            <DistanceMeters>34176.699675826</DistanceMeters>
          </Trackpoint>
          <Trackpoint>
            <Time>2022-07-10T10:24:58.000Z</Time>
            <Position>
              <LatitudeDegrees>42.75347535498440265655517578125</LatitudeDegrees>
              <LongitudeDegrees>-0.20905145443975925445556640625</LongitudeDegrees>
            </Position>
            <AltitudeMeters>2395.39990234375</AltitudeMeters>
            <DistanceMeters>34179.397497468</DistanceMeters>
          </Trackpoint>
          <Trackpoint>
            <Time>2022-07-10T10:25:00.000Z</Time>
            <Position>
              <LatitudeDegrees>42.7534734271466732025146484375</LatitudeDegrees>
              <LongitudeDegrees>-0.20907760597765445709228515625</LongitudeDegrees>
            </Position>
            <AltitudeMeters>2395.199951171875</AltitudeMeters>
            <DistanceMeters>34181.54560572</DistanceMeters>
          </Trackpoint>
          <Trackpoint>
            <Time>2022-07-10T10:25:01.000Z</Time>
            <Position>
              <LatitudeDegrees>42.75346957147121429443359375</LatitudeDegrees>
              <LongitudeDegrees>-0.2090914361178874969482421875</LongitudeDegrees>
            </Position>
            <AltitudeMeters>2395</AltitudeMeters>
            <DistanceMeters>34182.755098334</DistanceMeters>
          </Trackpoint>
          <Trackpoint>
            <Time>2022-07-10T10:25:03.000Z</Time>
            <Position>
              <LatitudeDegrees>42.75346932001411914825439453125</LatitudeDegrees>
              <LongitudeDegrees>-0.20912848412990570068359375</LongitudeDegrees>
            </Position>
            <AltitudeMeters>2394.60009765625</AltitudeMeters>
            <DistanceMeters>34185.784051564</DistanceMeters>
          </Trackpoint>
          <Trackpoint>
            <Time>2022-07-10T10:25:05.000Z</Time>
            <Position>
              <LatitudeDegrees>42.7534784562885761260986328125</LatitudeDegrees>
              <LongitudeDegrees>-0.20916880108416080474853515625</LongitudeDegrees>
            </Position>
            <AltitudeMeters>2394</AltitudeMeters>
            <DistanceMeters>34189.231308531</DistanceMeters>
          </Trackpoint>
          <Trackpoint>
            <Time>2022-07-10T10:25:06.000Z</Time>
            <Position>
              <LatitudeDegrees>42.7534808032214641571044921875</LatitudeDegrees>
              <LongitudeDegrees>-0.20918640308082103729248046875</LongitudeDegrees>
            </Position>
            <AltitudeMeters>2393.60009765625</AltitudeMeters>
            <DistanceMeters>34190.691136617</DistanceMeters>
          </Trackpoint>
          <Trackpoint>
            <Time>2022-07-10T10:25:08.000Z</Time>
            <Position>
              <LatitudeDegrees>42.7534814737737178802490234375</LatitudeDegrees>
              <LongitudeDegrees>-0.20921473391354084014892578125</LongitudeDegrees>
            </Position>
            <AltitudeMeters>2393.199951171875</AltitudeMeters>
            <DistanceMeters>34193.009087325</DistanceMeters>
          </Trackpoint>
          <Trackpoint>
            <Time>2022-07-10T10:25:09.000Z</Time>
            <Position>
              <LatitudeDegrees>42.75347887538373470306396484375</LatitudeDegrees>
              <LongitudeDegrees>-0.2092272229492664337158203125</LongitudeDegrees>
            </Position>
            <AltitudeMeters>2393</AltitudeMeters>
            <DistanceMeters>34194.067260033</DistanceMeters>
          </Trackpoint>
          <Trackpoint>
            <Time>2022-07-10T10:25:12.000Z</Time>
            <Position>
              <LatitudeDegrees>42.75346898473799228668212890625</LatitudeDegrees>
              <LongitudeDegrees>-0.2092567272484302520751953125</LongitudeDegrees>
            </Position>
            <AltitudeMeters>2393</AltitudeMeters>
            <DistanceMeters>34196.717807047</DistanceMeters>
          </Trackpoint>
          <Trackpoint>
            <Time>2022-07-10T10:25:18.000Z</Time>
            <Position>
              <LatitudeDegrees>42.753453142940998077392578125</LatitudeDegrees>
              <LongitudeDegrees>-0.20936317741870880126953125</LongitudeDegrees>
            </Position>
            <AltitudeMeters>2392.60009765625</AltitudeMeters>
            <DistanceMeters>34205.594543331</DistanceMeters>
          </Trackpoint>
          <Trackpoint>
            <Time>2022-07-10T10:25:19.000Z</Time>
            <Position>
              <LatitudeDegrees>42.75345641188323497772216796875</LatitudeDegrees>
              <LongitudeDegrees>-0.2093826234340667724609375</LongitudeDegrees>
            </Position>
            <AltitudeMeters>2392.199951171875</AltitudeMeters>
            <DistanceMeters>34207.223912066</DistanceMeters>
          </Trackpoint>
          <Trackpoint>
            <Time>2022-07-10T10:25:20.000Z</Time>
            <Position>
              <LatitudeDegrees>42.75345942936837673187255859375</LatitudeDegrees>
              <LongitudeDegrees>-0.2094012312591075897216796875</LongitudeDegrees>
            </Position>
            <AltitudeMeters>2392</AltitudeMeters>
            <DistanceMeters>34208.782466063</DistanceMeters>
          </Trackpoint>
          <Trackpoint>
            <Time>2022-07-10T10:25:24.000Z</Time>
            <Position>
              <LatitudeDegrees>42.75347761809825897216796875</LatitudeDegrees>
              <LongitudeDegrees>-0.20946250297129154205322265625</LongitudeDegrees>
            </Position>
            <AltitudeMeters>2391.800048828125</AltitudeMeters>
            <DistanceMeters>34214.183127774</DistanceMeters>
          </Trackpoint>
          <Trackpoint>
            <Time>2022-07-10T10:25:26.000Z</Time>
            <Position>
              <LatitudeDegrees>42.75348172523081302642822265625</LatitudeDegrees>
              <LongitudeDegrees>-0.20948999561369419097900390625</LongitudeDegrees>
            </Position>
            <AltitudeMeters>2392.199951171875</AltitudeMeters>
            <DistanceMeters>34216.475616485</DistanceMeters>
          </Trackpoint>
          <Trackpoint>
            <Time>2022-07-10T10:25:32.000Z</Time>
            <Position>
              <LatitudeDegrees>42.7534965611994266510009765625</LatitudeDegrees>
              <LongitudeDegrees>-0.20959560759365558624267578125</LongitudeDegrees>
            </Position>
            <AltitudeMeters>2392</AltitudeMeters>
            <DistanceMeters>34225.263404247</DistanceMeters>
          </Trackpoint>
          <Trackpoint>
            <Time>2022-07-10T10:25:38.000Z</Time>
            <Position>
              <LatitudeDegrees>42.75351273827254772186279296875</LatitudeDegrees>
              <LongitudeDegrees>-0.20966970361769199371337890625</LongitudeDegrees>
            </Position>
            <AltitudeMeters>2391.199951171875</AltitudeMeters>
            <DistanceMeters>34231.581787581</DistanceMeters>
          </Trackpoint>
          <Trackpoint>
            <Time>2022-07-10T10:25:40.000Z</Time>
            <Position>
              <LatitudeDegrees>42.75351491756737232208251953125</LatitudeDegrees>
              <LongitudeDegrees>-0.209697447717189788818359375</LongitudeDegrees>
            </Position>
            <AltitudeMeters>2390.800048828125</AltitudeMeters>
            <DistanceMeters>34233.862428726</DistanceMeters>
          </Trackpoint>
          <Trackpoint>
            <Time>2022-07-10T10:25:42.000Z</Time>
            <Position>
              <LatitudeDegrees>42.75352950207889080047607421875</LatitudeDegrees>
              <LongitudeDegrees>-0.2097254432737827301025390625</LongitudeDegrees>
            </Position>
            <AltitudeMeters>2390.60009765625</AltitudeMeters>
            <DistanceMeters>34236.668533973</DistanceMeters>
          </Trackpoint>
          <Trackpoint>
            <Time>2022-07-10T10:25:43.000Z</Time>
            <Position>
              <LatitudeDegrees>42.7535367943346500396728515625</LatitudeDegrees>
              <LongitudeDegrees>-0.2097455598413944244384765625</LongitudeDegrees>
            </Position>
            <AltitudeMeters>2390.60009765625</AltitudeMeters>
            <DistanceMeters>34238.501342866</DistanceMeters>
          </Trackpoint>
          <Trackpoint>
            <Time>2022-07-10T10:25:45.000Z</Time>
            <Position>
              <LatitudeDegrees>42.75355196557939052581787109375</LatitudeDegrees>
              <LongitudeDegrees>-0.2097713761031627655029296875</LongitudeDegrees>
            </Position>
            <AltitudeMeters>2390.60009765625</AltitudeMeters>
            <DistanceMeters>34241.20585057</DistanceMeters>
          </Trackpoint>
          <Trackpoint>
            <Time>2022-07-10T10:25:47.000Z</Time>
            <Position>
              <LatitudeDegrees>42.75356386788189411163330078125</LatitudeDegrees>
              <LongitudeDegrees>-0.2098055742681026458740234375</LongitudeDegrees>
            </Position>
            <AltitudeMeters>2390.39990234375</AltitudeMeters>
            <DistanceMeters>34244.29969624</DistanceMeters>
          </Trackpoint>
          <Trackpoint>
            <Time>2022-07-10T10:25:49.000Z</Time>
            <Position>
              <LatitudeDegrees>42.75356068275868892669677734375</LatitudeDegrees>
              <LongitudeDegrees>-0.209836252033710479736328125</LongitudeDegrees>
            </Position>
            <AltitudeMeters>2390.39990234375</AltitudeMeters>
            <DistanceMeters>34246.829977687</DistanceMeters>
          </Trackpoint>
          <Trackpoint>
            <Time>2022-07-10T10:25:52.000Z</Time>
            <Position>
              <LatitudeDegrees>42.75356906466186046600341796875</LatitudeDegrees>
              <LongitudeDegrees>-0.20986969582736492156982421875</LongitudeDegrees>
            </Position>
            <AltitudeMeters>2389.800048828125</AltitudeMeters>
            <DistanceMeters>34249.715411879</DistanceMeters>
          </Trackpoint>
          <Trackpoint>
            <Time>2022-07-10T10:25:56.000Z</Time>
            <Position>
              <LatitudeDegrees>42.7535944618284702301025390625</LatitudeDegrees>
              <LongitudeDegrees>-0.20991512574255466461181640625</LongitudeDegrees>
            </Position>
            <AltitudeMeters>2389.39990234375</AltitudeMeters>
            <DistanceMeters>34254.380439664</DistanceMeters>
          </Trackpoint>
          <Trackpoint>
            <Time>2022-07-10T10:26:02.000Z</Time>
            <Position>
              <LatitudeDegrees>42.75361097417771816253662109375</LatitudeDegrees>
              <LongitudeDegrees>-0.2099758945405483245849609375</LongitudeDegrees>
            </Position>
            <AltitudeMeters>2389.39990234375</AltitudeMeters>
            <DistanceMeters>34259.675568308</DistanceMeters>
          </Trackpoint>
          <Trackpoint>
            <Time>2022-07-10T10:26:04.000Z</Time>
            <Position>
              <LatitudeDegrees>42.75361650623381137847900390625</LatitudeDegrees>
              <LongitudeDegrees>-0.20999743603169918060302734375</LongitudeDegrees>
            </Position>
            <AltitudeMeters>2389.39990234375</AltitudeMeters>
            <DistanceMeters>34261.537704005</DistanceMeters>
          </Trackpoint>
          <Trackpoint>
            <Time>2022-07-10T10:26:05.000Z</Time>
            <Position>
              <LatitudeDegrees>42.7536219544708728790283203125</LatitudeDegrees>
              <LongitudeDegrees>-0.2100040577352046966552734375</LongitudeDegrees>
            </Position>
            <AltitudeMeters>2389.39990234375</AltitudeMeters>
            <DistanceMeters>34262.344032415</DistanceMeters>
          </Trackpoint>
          <Trackpoint>
            <Time>2022-07-10T10:26:06.000Z</Time>
            <Position>
              <LatitudeDegrees>42.753627486526966094970703125</LatitudeDegrees>
              <LongitudeDegrees>-0.21000900305807590484619140625</LongitudeDegrees>
            </Position>
            <AltitudeMeters>2389.39990234375</AltitudeMeters>
            <DistanceMeters>34263.080106179</DistanceMeters>
          </Trackpoint>
          <Trackpoint>
            <Time>2022-07-10T10:26:10.000Z</Time>
            <Position>
              <LatitudeDegrees>42.75364500470459461212158203125</LatitudeDegrees>
              <LongitudeDegrees>-0.21005577407777309417724609375</LongitudeDegrees>
            </Position>
            <AltitudeMeters>2388.60009765625</AltitudeMeters>
            <DistanceMeters>34267.370012448</DistanceMeters>
          </Trackpoint>
          <Trackpoint>
            <Time>2022-07-10T10:26:11.000Z</Time>
            <Position>
              <LatitudeDegrees>42.7536484412848949432373046875</LatitudeDegrees>
              <LongitudeDegrees>-0.210073292255401611328125</LongitudeDegrees>
            </Position>
            <AltitudeMeters>2388.39990234375</AltitudeMeters>
            <DistanceMeters>34268.851332324</DistanceMeters>
          </Trackpoint>
          <Trackpoint>
            <Time>2022-07-10T10:26:12.000Z</Time>
            <Position>
              <LatitudeDegrees>42.7536539733409881591796875</LatitudeDegrees>
              <LongitudeDegrees>-0.21009139716625213623046875</LongitudeDegrees>
            </Position>
            <AltitudeMeters>2388.199951171875</AltitudeMeters>
            <DistanceMeters>34270.458379885</DistanceMeters>
          </Trackpoint>
          <Trackpoint>
            <Time>2022-07-10T10:26:17.000Z</Time>
            <Position>
              <LatitudeDegrees>42.753673754632472991943359375</LatitudeDegrees>
              <LongitudeDegrees>-0.210140012204647064208984375</LongitudeDegrees>
            </Position>
            <AltitudeMeters>2387.800048828125</AltitudeMeters>
            <DistanceMeters>34275.000815869</DistanceMeters>
          </Trackpoint>
          <Trackpoint>
            <Time>2022-07-10T10:26:20.000Z</Time>
            <Position>
              <LatitudeDegrees>42.753671072423458099365234375</LatitudeDegrees>
              <LongitudeDegrees>-0.21016540937125682830810546875</LongitudeDegrees>
            </Position>
            <AltitudeMeters>2387.800048828125</AltitudeMeters>
            <DistanceMeters>34277.097872671</DistanceMeters>
          </Trackpoint>
          <Trackpoint>
            <Time>2022-07-10T10:26:22.000Z</Time>
            <Position>
              <LatitudeDegrees>42.75366193614900112152099609375</LatitudeDegrees>
              <LongitudeDegrees>-0.21019399166107177734375</LongitudeDegrees>
            </Position>
            <AltitudeMeters>2387.60009765625</AltitudeMeters>
            <DistanceMeters>34279.644163088</DistanceMeters>
          </Trackpoint>
          <Trackpoint>
            <Time>2022-07-10T10:26:23.000Z</Time>
            <Position>
              <LatitudeDegrees>42.75365388952195644378662109375</LatitudeDegrees>
              <LongitudeDegrees>-0.2102115936577320098876953125</LongitudeDegrees>
            </Position>
            <AltitudeMeters>2387.60009765625</AltitudeMeters>
            <DistanceMeters>34281.338732151</DistanceMeters>
          </Trackpoint>
          <Trackpoint>
            <Time>2022-07-10T10:26:29.000Z</Time>
            <Position>
              <LatitudeDegrees>42.75365598499774932861328125</LatitudeDegrees>
              <LongitudeDegrees>-0.21033874712884426116943359375</LongitudeDegrees>
            </Position>
            <AltitudeMeters>2387.39990234375</AltitudeMeters>
            <DistanceMeters>34291.732760945</DistanceMeters>
          </Trackpoint>
          <Trackpoint>
            <Time>2022-07-10T10:26:33.000Z</Time>
            <Position>
              <LatitudeDegrees>42.75367300026118755340576171875</LatitudeDegrees>
              <LongitudeDegrees>-0.21039658226072788238525390625</LongitudeDegrees>
            </Position>
            <AltitudeMeters>2387.39990234375</AltitudeMeters>
            <DistanceMeters>34296.82445511</DistanceMeters>
          </Trackpoint>
          <Trackpoint>
            <Time>2022-07-10T10:26:37.000Z</Time>
            <Position>
              <LatitudeDegrees>42.75369219481945037841796875</LatitudeDegrees>
              <LongitudeDegrees>-0.21047453396022319793701171875</LongitudeDegrees>
            </Position>
            <AltitudeMeters>2386.800048828125</AltitudeMeters>
            <DistanceMeters>34303.543186548</DistanceMeters>
          </Trackpoint>
          <Trackpoint>
            <Time>2022-07-10T10:26:41.000Z</Time>
            <Position>
              <LatitudeDegrees>42.7537094615399837493896484375</LatitudeDegrees>
              <LongitudeDegrees>-0.2105426788330078125</LongitudeDegrees>
            </Position>
            <AltitudeMeters>2386.60009765625</AltitudeMeters>
            <DistanceMeters>34309.434842839</DistanceMeters>
          </Trackpoint>
          <Trackpoint>
            <Time>2022-07-10T10:26:44.000Z</Time>
            <Position>
              <LatitudeDegrees>42.7537265606224536895751953125</LatitudeDegrees>
              <LongitudeDegrees>-0.21059439517557621002197265625</LongitudeDegrees>
            </Position>
            <AltitudeMeters>2386.39990234375</AltitudeMeters>
            <DistanceMeters>34314.069770224</DistanceMeters>
          </Trackpoint>
          <Trackpoint>
            <Time>2022-07-10T10:26:50.000Z</Time>
            <Position>
              <LatitudeDegrees>42.7537859044969081878662109375</LatitudeDegrees>
              <LongitudeDegrees>-0.21066798828542232513427734375</LongitudeDegrees>
            </Position>
            <AltitudeMeters>2385.60009765625</AltitudeMeters>
            <DistanceMeters>34323.00329224</DistanceMeters>
          </Trackpoint>
          <Trackpoint>
            <Time>2022-07-10T10:26:51.000Z</Time>
            <Position>
              <LatitudeDegrees>42.7538023330271244049072265625</LatitudeDegrees>
              <LongitudeDegrees>-0.21067637018859386444091796875</LongitudeDegrees>
            </Position>
            <AltitudeMeters>2385.60009765625</AltitudeMeters>
            <DistanceMeters>34324.955391689</DistanceMeters>
          </Trackpoint>
          <Trackpoint>
            <Time>2022-07-10T10:26:53.000Z</Time>
            <Position>
              <LatitudeDegrees>42.75381959974765777587890625</LatitudeDegrees>
              <LongitudeDegrees>-0.21069246344268321990966796875</LongitudeDegrees>
            </Position>
            <AltitudeMeters>2385</AltitudeMeters>
            <DistanceMeters>34327.283061311</DistanceMeters>
          </Trackpoint>
          <Trackpoint>
            <Time>2022-07-10T10:26:57.000Z</Time>
            <Position>
              <LatitudeDegrees>42.75383342988789081573486328125</LatitudeDegrees>
              <LongitudeDegrees>-0.210732780396938323974609375</LongitudeDegrees>
            </Position>
            <AltitudeMeters>2384.39990234375</AltitudeMeters>
            <DistanceMeters>34330.921480207</DistanceMeters>
          </Trackpoint>
          <Trackpoint>
            <Time>2022-07-10T10:26:58.000Z</Time>
            <Position>
              <LatitudeDegrees>42.75382697582244873046875</LatitudeDegrees>
              <LongitudeDegrees>-0.210746191442012786865234375</LongitudeDegrees>
            </Position>
            <AltitudeMeters>2384.39990234375</AltitudeMeters>
            <DistanceMeters>34332.231333071</DistanceMeters>
          </Trackpoint>
          <Trackpoint>
            <Time>2022-07-10T10:27:04.000Z</Time>
            <Position>
              <LatitudeDegrees>42.753826640546321868896484375</LatitudeDegrees>
              <LongitudeDegrees>-0.210850127041339874267578125</LongitudeDegrees>
            </Position>
            <AltitudeMeters>2384</AltitudeMeters>
            <DistanceMeters>34340.725466975</DistanceMeters>
          </Trackpoint>
          <Trackpoint>
            <Time>2022-07-10T10:27:06.000Z</Time>
            <Position>
              <LatitudeDegrees>42.7538294903934001922607421875</LatitudeDegrees>
              <LongitudeDegrees>-0.21088239736855030059814453125</LongitudeDegrees>
            </Position>
            <AltitudeMeters>2384</AltitudeMeters>
            <DistanceMeters>34343.379418675</DistanceMeters>
          </Trackpoint>
          <Trackpoint>
            <Time>2022-07-10T10:27:07.000Z</Time>
            <Position>
              <LatitudeDegrees>42.75383376516401767730712890625</LatitudeDegrees>
              <LongitudeDegrees>-0.21089832298457622528076171875</LongitudeDegrees>
            </Position>
            <AltitudeMeters>2384</AltitudeMeters>
            <DistanceMeters>34344.763028521</DistanceMeters>
          </Trackpoint>
          <Trackpoint>
            <Time>2022-07-10T10:27:10.000Z</Time>
            <Position>
              <LatitudeDegrees>42.7538335137069225311279296875</LatitudeDegrees>
              <LongitudeDegrees>-0.21093470044434070587158203125</LongitudeDegrees>
            </Position>
            <AltitudeMeters>2383.800048828125</AltitudeMeters>
            <DistanceMeters>34347.736317078</DistanceMeters>
          </Trackpoint>
          <Trackpoint>
            <Time>2022-07-10T10:27:16.000Z</Time>
            <Position>
              <LatitudeDegrees>42.75384617038071155548095703125</LatitudeDegrees>
              <LongitudeDegrees>-0.21102203987538814544677734375</LongitudeDegrees>
            </Position>
            <AltitudeMeters>2383.60009765625</AltitudeMeters>
            <DistanceMeters>34355.011293231</DistanceMeters>
          </Trackpoint>
          <Trackpoint>
            <Time>2022-07-10T10:27:17.000Z</Time>
            <Position>
              <LatitudeDegrees>42.75385153479874134063720703125</LatitudeDegrees>
              <LongitudeDegrees>-0.21103511564433574676513671875</LongitudeDegrees>
            </Position>
            <AltitudeMeters>2383.60009765625</AltitudeMeters>
            <DistanceMeters>34356.235626801</DistanceMeters>
          </Trackpoint>
          <Trackpoint>
            <Time>2022-07-10T10:27:20.000Z</Time>
            <Position>
              <LatitudeDegrees>42.75385974906384944915771484375</LatitudeDegrees>
              <LongitudeDegrees>-0.21107886917889118194580078125</LongitudeDegrees>
            </Position>
            <AltitudeMeters>2383.60009765625</AltitudeMeters>
            <DistanceMeters>34359.925796889</DistanceMeters>
          </Trackpoint>
          <Trackpoint>
            <Time>2022-07-10T10:27:21.000Z</Time>
            <Position>
              <LatitudeDegrees>42.753863520920276641845703125</LatitudeDegrees>
              <LongitudeDegrees>-0.211099572479724884033203125</LongitudeDegrees>
            </Position>
            <AltitudeMeters>2383.60009765625</AltitudeMeters>
            <DistanceMeters>34361.670255476</DistanceMeters>
          </Trackpoint>
          <Trackpoint>
            <Time>2022-07-10T10:27:24.000Z</Time>
            <Position>
              <LatitudeDegrees>42.75385522283613681793212890625</LatitudeDegrees>
              <LongitudeDegrees>-0.2111486904323101043701171875</LongitudeDegrees>
            </Position>
            <AltitudeMeters>2383.60009765625</AltitudeMeters>
            <DistanceMeters>34365.789419667</DistanceMeters>
          </Trackpoint>
          <Trackpoint>
            <Time>2022-07-10T10:27:30.000Z</Time>
            <Position>
              <LatitudeDegrees>42.75382764637470245361328125</LatitudeDegrees>
              <LongitudeDegrees>-0.2112254686653614044189453125</LongitudeDegrees>
            </Position>
            <AltitudeMeters>2383.39990234375</AltitudeMeters>
            <DistanceMeters>34372.773721562</DistanceMeters>
          </Trackpoint>
          <Trackpoint>
            <Time>2022-07-10T10:27:33.000Z</Time>
            <Position>
              <LatitudeDegrees>42.753810882568359375</LatitudeDegrees>
              <LongitudeDegrees>-0.2112512849271297454833984375</LongitudeDegrees>
            </Position>
            <AltitudeMeters>2383.199951171875</AltitudeMeters>
            <DistanceMeters>34375.591067333</DistanceMeters>
          </Trackpoint>
          <Trackpoint>
            <Time>2022-07-10T10:27:35.000Z</Time>
            <Position>
              <LatitudeDegrees>42.7537996508181095123291015625</LatitudeDegrees>
              <LongitudeDegrees>-0.21127156913280487060546875</LongitudeDegrees>
            </Position>
            <AltitudeMeters>2383.199951171875</AltitudeMeters>
            <DistanceMeters>34377.666482102</DistanceMeters>
          </Trackpoint>
          <Trackpoint>
            <Time>2022-07-10T10:27:36.000Z</Time>
            <Position>
              <LatitudeDegrees>42.75379722006618976593017578125</LatitudeDegrees>
              <LongitudeDegrees>-0.21128791384398937225341796875</LongitudeDegrees>
            </Position>
            <AltitudeMeters>2383.199951171875</AltitudeMeters>
            <DistanceMeters>34379.023735061</DistanceMeters>
          </Trackpoint>
          <Trackpoint>
            <Time>2022-07-10T10:27:37.000Z</Time>
            <Position>
              <LatitudeDegrees>42.75379906408488750457763671875</LatitudeDegrees>
              <LongitudeDegrees>-0.21130635403096675872802734375</LongitudeDegrees>
            </Position>
            <AltitudeMeters>2383.199951171875</AltitudeMeters>
            <DistanceMeters>34380.54119</DistanceMeters>
          </Trackpoint>
          <Trackpoint>
            <Time>2022-07-10T10:27:39.000Z</Time>
            <Position>
              <LatitudeDegrees>42.7537999860942363739013671875</LatitudeDegrees>
              <LongitudeDegrees>-0.21133686415851116180419921875</LongitudeDegrees>
            </Position>
            <AltitudeMeters>2383.39990234375</AltitudeMeters>
            <DistanceMeters>34383.037337581</DistanceMeters>
          </Trackpoint>
          <Trackpoint>
            <Time>2022-07-10T10:27:42.000Z</Time>
            <Position>
              <LatitudeDegrees>42.75378934107720851898193359375</LatitudeDegrees>
              <LongitudeDegrees>-0.211373157799243927001953125</LongitudeDegrees>
            </Position>
            <AltitudeMeters>2383.39990234375</AltitudeMeters>
            <DistanceMeters>34386.231705497</DistanceMeters>
          </Trackpoint>
          <Trackpoint>
            <Time>2022-07-10T10:27:43.000Z</Time>
            <Position>
              <LatitudeDegrees>42.75378464721143245697021484375</LatitudeDegrees>
              <LongitudeDegrees>-0.21137977950274944305419921875</LongitudeDegrees>
            </Position>
            <AltitudeMeters>2383.39990234375</AltitudeMeters>
            <DistanceMeters>34386.979946594</DistanceMeters>
          </Trackpoint>
          <Trackpoint>
            <Time>2022-07-10T10:27:46.000Z</Time>
            <Position>
              <LatitudeDegrees>42.7537748403847217559814453125</LatitudeDegrees>
              <LongitudeDegrees>-0.2114115469157695770263671875</LongitudeDegrees>
            </Position>
            <AltitudeMeters>2383.39990234375</AltitudeMeters>
            <DistanceMeters>34389.795689324</DistanceMeters>
          </Trackpoint>
          <Trackpoint>
            <Time>2022-07-10T10:27:49.000Z</Time>
            <Position>
              <LatitudeDegrees>42.75375463999807834625244140625</LatitudeDegrees>
              <LongitudeDegrees>-0.2114497683942317962646484375</LongitudeDegrees>
            </Position>
            <AltitudeMeters>2383</AltitudeMeters>
            <DistanceMeters>34393.643977952</DistanceMeters>
          </Trackpoint>
          <Trackpoint>
            <Time>2022-07-10T10:27:51.000Z</Time>
            <Position>
              <LatitudeDegrees>42.7537597529590129852294921875</LatitudeDegrees>
              <LongitudeDegrees>-0.21145588718354701995849609375</LongitudeDegrees>
            </Position>
            <AltitudeMeters>2382.800048828125</AltitudeMeters>
            <DistanceMeters>34394.398229115</DistanceMeters>
          </Trackpoint>
          <Trackpoint>
            <Time>2022-07-10T10:27:54.000Z</Time>
            <Position>
              <LatitudeDegrees>42.75374852120876312255859375</LatitudeDegrees>
              <LongitudeDegrees>-0.2114839665591716766357421875</LongitudeDegrees>
            </Position>
            <AltitudeMeters>2382.800048828125</AltitudeMeters>
            <DistanceMeters>34397.011031784</DistanceMeters>
          </Trackpoint>
          <Trackpoint>
            <Time>2022-07-10T10:27:55.000Z</Time>
            <Position>
              <LatitudeDegrees>42.75374181568622589111328125</LatitudeDegrees>
              <LongitudeDegrees>-0.2114913426339626312255859375</LongitudeDegrees>
            </Position>
            <AltitudeMeters>2383</AltitudeMeters>
            <DistanceMeters>34397.970754556</DistanceMeters>
          </Trackpoint>
          <Trackpoint>
            <Time>2022-07-10T10:27:58.000Z</Time>
            <Position>
              <LatitudeDegrees>42.75372412987053394317626953125</LatitudeDegrees>
              <LongitudeDegrees>-0.211517997086048126220703125</LongitudeDegrees>
            </Position>
            <AltitudeMeters>2384.199951171875</AltitudeMeters>
            <DistanceMeters>34400.908909262</DistanceMeters>
          </Trackpoint>
          <Trackpoint>
            <Time>2022-07-10T10:28:00.000Z</Time>
            <Position>
              <LatitudeDegrees>42.75370988063514232635498046875</LatitudeDegrees>
              <LongitudeDegrees>-0.21153367124497890472412109375</LongitudeDegrees>
            </Position>
            <AltitudeMeters>2384.39990234375</AltitudeMeters>
            <DistanceMeters>34402.947005228</DistanceMeters>
          </Trackpoint>
          <Trackpoint>
            <Time>2022-07-10T10:28:02.000Z</Time>
            <Position>
              <LatitudeDegrees>42.75368951261043548583984375</LatitudeDegrees>
              <LongitudeDegrees>-0.21154657937586307525634765625</LongitudeDegrees>
            </Position>
            <AltitudeMeters>2383.60009765625</AltitudeMeters>
            <DistanceMeters>34405.446767796</DistanceMeters>
          </Trackpoint>
          <Trackpoint>
            <Time>2022-07-10T10:28:04.000Z</Time>
            <Position>
              <LatitudeDegrees>42.7536715753376483917236328125</LatitudeDegrees>
              <LongitudeDegrees>-0.21156351082026958465576171875</LongitudeDegrees>
            </Position>
            <AltitudeMeters>2383</AltitudeMeters>
            <DistanceMeters>34407.876926226</DistanceMeters>
          </Trackpoint>
          <Trackpoint>
            <Time>2022-07-10T10:28:05.000Z</Time>
            <Position>
              <LatitudeDegrees>42.75366512127220630645751953125</LatitudeDegrees>
              <LongitudeDegrees>-0.21157491020858287811279296875</LongitudeDegrees>
            </Position>
            <AltitudeMeters>2383</AltitudeMeters>
            <DistanceMeters>34409.056176739</DistanceMeters>
          </Trackpoint>
          <Trackpoint>
            <Time>2022-07-10T10:28:07.000Z</Time>
            <Position>
              <LatitudeDegrees>42.75364617817103862762451171875</LatitudeDegrees>
              <LongitudeDegrees>-0.21158404648303985595703125</LongitudeDegrees>
            </Position>
            <AltitudeMeters>2383.39990234375</AltitudeMeters>
            <DistanceMeters>34411.294857696</DistanceMeters>
          </Trackpoint>
          <Trackpoint>
            <Time>2022-07-10T10:28:09.000Z</Time>
            <Position>
              <LatitudeDegrees>42.75362245738506317138671875</LatitudeDegrees>
              <LongitudeDegrees>-0.211595781147480010986328125</LongitudeDegrees>
            </Position>
            <AltitudeMeters>2383.60009765625</AltitudeMeters>
            <DistanceMeters>34414.105785815</DistanceMeters>
          </Trackpoint>
          <Trackpoint>
            <Time>2022-07-10T10:28:11.000Z</Time>
            <Position>
              <LatitudeDegrees>42.7536018379032611846923828125</LatitudeDegrees>
              <LongitudeDegrees>-0.21160684525966644287109375</LongitudeDegrees>
            </Position>
            <AltitudeMeters>2383.800048828125</AltitudeMeters>
            <DistanceMeters>34416.572822807</DistanceMeters>
          </Trackpoint>
          <Trackpoint>
            <Time>2022-07-10T10:28:14.000Z</Time>
            <Position>
              <LatitudeDegrees>42.753577195107936859130859375</LatitudeDegrees>
              <LongitudeDegrees>-0.2116143889725208282470703125</LongitudeDegrees>
            </Position>
            <AltitudeMeters>2384</AltitudeMeters>
            <DistanceMeters>34419.383750926</DistanceMeters>
          </Trackpoint>
          <Trackpoint>
            <Time>2022-07-10T10:28:17.000Z</Time>
            <Position>
              <LatitudeDegrees>42.75355950929224491119384765625</LatitudeDegrees>
              <LongitudeDegrees>-0.21162117831408977508544921875</LongitudeDegrees>
            </Position>
            <AltitudeMeters>2383.60009765625</AltitudeMeters>
            <DistanceMeters>34421.428482056</DistanceMeters>
          </Trackpoint>
          <Trackpoint>
            <Time>2022-07-10T10:28:19.000Z</Time>
            <Position>
              <LatitudeDegrees>42.75354224257171154022216796875</LatitudeDegrees>
              <LongitudeDegrees>-0.21163442172110080718994140625</LongitudeDegrees>
            </Position>
            <AltitudeMeters>2383.39990234375</AltitudeMeters>
            <DistanceMeters>34423.636703349</DistanceMeters>
          </Trackpoint>
          <Trackpoint>
            <Time>2022-07-10T10:28:24.000Z</Time>
            <Position>
              <LatitudeDegrees>42.7535037696361541748046875</LatitudeDegrees>
              <LongitudeDegrees>-0.2116784267127513885498046875</LongitudeDegrees>
            </Position>
            <AltitudeMeters>2383.199951171875</AltitudeMeters>
            <DistanceMeters>34429.229572452</DistanceMeters>
          </Trackpoint>
          <Trackpoint>
            <Time>2022-07-10T10:28:25.000Z</Time>
            <Position>
              <LatitudeDegrees>42.75349446572363376617431640625</LatitudeDegrees>
              <LongitudeDegrees>-0.211684294044971466064453125</LongitudeDegrees>
            </Position>
            <AltitudeMeters>2383.199951171875</AltitudeMeters>
            <DistanceMeters>34430.369893024</DistanceMeters>
          </Trackpoint>
          <Trackpoint>
            <Time>2022-07-10T10:28:28.000Z</Time>
            <Position>
              <LatitudeDegrees>42.7534673921763896942138671875</LatitudeDegrees>
              <LongitudeDegrees>-0.21170650608837604522705078125</LongitudeDegrees>
            </Position>
            <AltitudeMeters>2383.39990234375</AltitudeMeters>
            <DistanceMeters>34433.888448808</DistanceMeters>
          </Trackpoint>
          <Trackpoint>
            <Time>2022-07-10T10:28:31.000Z</Time>
            <Position>
              <LatitudeDegrees>42.75345356203615665435791015625</LatitudeDegrees>
              <LongitudeDegrees>-0.21174305118620395660400390625</LongitudeDegrees>
            </Position>
            <AltitudeMeters>2383.800048828125</AltitudeMeters>
            <DistanceMeters>34437.248150515</DistanceMeters>
          </Trackpoint>
          <Trackpoint>
            <Time>2022-07-10T10:28:32.000Z</Time>
            <Position>
              <LatitudeDegrees>42.75344920344650745391845703125</LatitudeDegrees>
              <LongitudeDegrees>-0.21175545640289783477783203125</LongitudeDegrees>
            </Position>
            <AltitudeMeters>2383.800048828125</AltitudeMeters>
            <DistanceMeters>34438.372521762</DistanceMeters>
          </Trackpoint>
          <Trackpoint>
            <Time>2022-07-10T10:28:38.000Z</Time>
            <Position>
              <LatitudeDegrees>42.75342221371829509735107421875</LatitudeDegrees>
              <LongitudeDegrees>-0.2118222601711750030517578125</LongitudeDegrees>
            </Position>
            <AltitudeMeters>2383.60009765625</AltitudeMeters>
            <DistanceMeters>34444.603840138</DistanceMeters>
          </Trackpoint>
          <Trackpoint>
            <Time>2022-07-10T10:28:43.000Z</Time>
            <Position>
              <LatitudeDegrees>42.7533889375627040863037109375</LatitudeDegrees>
              <LongitudeDegrees>-0.21187900565564632415771484375</LongitudeDegrees>
            </Position>
            <AltitudeMeters>2383.199951171875</AltitudeMeters>
            <DistanceMeters>34450.538256549</DistanceMeters>
          </Trackpoint>
          <Trackpoint>
            <Time>2022-07-10T10:28:44.000Z</Time>
            <Position>
              <LatitudeDegrees>42.7533792145550251007080078125</LatitudeDegrees>
              <LongitudeDegrees>-0.211890824139118194580078125</LongitudeDegrees>
            </Position>
            <AltitudeMeters>2383</AltitudeMeters>
            <DistanceMeters>34451.991885761</DistanceMeters>
          </Trackpoint>
          <Trackpoint>
            <Time>2022-07-10T10:28:50.000Z</Time>
            <Position>
              <LatitudeDegrees>42.75329925119876861572265625</LatitudeDegrees>
              <LongitudeDegrees>-0.211952514946460723876953125</LongitudeDegrees>
            </Position>
            <AltitudeMeters>2382.60009765625</AltitudeMeters>
            <DistanceMeters>34462.221280946</DistanceMeters>
          </Trackpoint>
          <Trackpoint>
            <Time>2022-07-10T10:28:54.000Z</Time>
            <Position>
              <LatitudeDegrees>42.7532668970525264739990234375</LatitudeDegrees>
              <LongitudeDegrees>-0.21197355352342128753662109375</LongitudeDegrees>
            </Position>
            <AltitudeMeters>2382.39990234375</AltitudeMeters>
            <DistanceMeters>34466.212402949</DistanceMeters>
          </Trackpoint>
          <Trackpoint>
            <Time>2022-07-10T10:28:55.000Z</Time>
            <Position>
              <LatitudeDegrees>42.753256000578403472900390625</LatitudeDegrees>
              <LongitudeDegrees>-0.2119784988462924957275390625</LongitudeDegrees>
            </Position>
            <AltitudeMeters>2382.39990234375</AltitudeMeters>
            <DistanceMeters>34467.490856639</DistanceMeters>
          </Trackpoint>
          <Trackpoint>
            <Time>2022-07-10T10:28:57.000Z</Time>
            <Position>
              <LatitudeDegrees>42.75323395617306232452392578125</LatitudeDegrees>
              <LongitudeDegrees>-0.2119888924062252044677734375</LongitudeDegrees>
            </Position>
            <AltitudeMeters>2382.199951171875</AltitudeMeters>
            <DistanceMeters>34470.086321342</DistanceMeters>
          </Trackpoint>
          <Trackpoint>
            <Time>2022-07-10T10:29:01.000Z</Time>
            <Position>
              <LatitudeDegrees>42.7531938068568706512451171875</LatitudeDegrees>
              <LongitudeDegrees>-0.21199752576649188995361328125</LongitudeDegrees>
            </Position>
            <AltitudeMeters>2382.39990234375</AltitudeMeters>
            <DistanceMeters>34474.609832503</DistanceMeters>
          </Trackpoint>
          <Trackpoint>
            <Time>2022-07-10T10:29:04.000Z</Time>
            <Position>
              <LatitudeDegrees>42.753167487680912017822265625</LatitudeDegrees>
              <LongitudeDegrees>-0.21200825460255146026611328125</LongitudeDegrees>
            </Position>
            <AltitudeMeters>2381.39990234375</AltitudeMeters>
            <DistanceMeters>34477.665499213</DistanceMeters>
          </Trackpoint>
          <Trackpoint>
            <Time>2022-07-10T10:29:05.000Z</Time>
            <Position>
              <LatitudeDegrees>42.753158099949359893798828125</LatitudeDegrees>
              <LongitudeDegrees>-0.21201412193477153778076171875</LongitudeDegrees>
            </Position>
            <AltitudeMeters>2381.199951171875</AltitudeMeters>
            <DistanceMeters>34478.813711372</DistanceMeters>
          </Trackpoint>
          <Trackpoint>
            <Time>2022-07-10T10:29:09.000Z</Time>
            <Position>
              <LatitudeDegrees>42.75311551988124847412109375</LatitudeDegrees>
              <LongitudeDegrees>-0.21204228512942790985107421875</LongitudeDegrees>
            </Position>
            <AltitudeMeters>2381.199951171875</AltitudeMeters>
            <DistanceMeters>34484.083197596</DistanceMeters>
          </Trackpoint>
          <Trackpoint>
            <Time>2022-07-10T10:29:11.000Z</Time>
            <Position>
              <LatitudeDegrees>42.75309666059911251068115234375</LatitudeDegrees>
              <LongitudeDegrees>-0.21205200813710689544677734375</LongitudeDegrees>
            </Position>
            <AltitudeMeters>2381.199951171875</AltitudeMeters>
            <DistanceMeters>34486.327920887</DistanceMeters>
          </Trackpoint>
          <Trackpoint>
            <Time>2022-07-10T10:29:12.000Z</Time>
            <Position>
              <LatitudeDegrees>42.75308844633400440216064453125</LatitudeDegrees>
              <LongitudeDegrees>-0.2120554447174072265625</LongitudeDegrees>
            </Position>
            <AltitudeMeters>2381.199951171875</AltitudeMeters>
            <DistanceMeters>34487.287643658</DistanceMeters>
          </Trackpoint>
          <Trackpoint>
            <Time>2022-07-10T10:29:13.000Z</Time>
            <Position>
              <LatitudeDegrees>42.75307939387857913970947265625</LatitudeDegrees>
              <LongitudeDegrees>-0.2120623178780078887939453125</LongitudeDegrees>
            </Position>
            <AltitudeMeters>2381.199951171875</AltitudeMeters>
            <DistanceMeters>34488.443693533</DistanceMeters>
          </Trackpoint>
          <Trackpoint>
            <Time>2022-07-10T10:29:14.000Z</Time>
            <Position>
              <LatitudeDegrees>42.753068916499614715576171875</LatitudeDegrees>
              <LongitudeDegrees>-0.21206407807767391204833984375</LongitudeDegrees>
            </Position>
            <AltitudeMeters>2381.199951171875</AltitudeMeters>
            <DistanceMeters>34489.615261551</DistanceMeters>
          </Trackpoint>
          <Trackpoint>
            <Time>2022-07-10T10:29:15.000Z</Time>
            <Position>
              <LatitudeDegrees>42.7530543319880962371826171875</LatitudeDegrees>
              <LongitudeDegrees>-0.21206072531640529632568359375</LongitudeDegrees>
            </Position>
            <AltitudeMeters>2381.199951171875</AltitudeMeters>
            <DistanceMeters>34491.261172524</DistanceMeters>
          </Trackpoint>
          <Trackpoint>
            <Time>2022-07-10T10:29:18.000Z</Time>
            <Position>
              <LatitudeDegrees>42.7530241571366786956787109375</LatitudeDegrees>
              <LongitudeDegrees>-0.2120433747768402099609375</LongitudeDegrees>
            </Position>
            <AltitudeMeters>2381.199951171875</AltitudeMeters>
            <DistanceMeters>34494.907029423</DistanceMeters>
          </Trackpoint>
          <Trackpoint>
            <Time>2022-07-10T10:29:24.000Z</Time>
            <Position>
              <LatitudeDegrees>42.75292332284152507781982421875</LatitudeDegrees>
              <LongitudeDegrees>-0.212013535201549530029296875</LongitudeDegrees>
            </Position>
            <AltitudeMeters>2381.60009765625</AltitudeMeters>
            <DistanceMeters>34506.392296363</DistanceMeters>
          </Trackpoint>
          <Trackpoint>
            <Time>2022-07-10T10:29:26.000Z</Time>
            <Position>
              <LatitudeDegrees>42.75290220044553279876708984375</LatitudeDegrees>
              <LongitudeDegrees>-0.21201311610639095306396484375</LongitudeDegrees>
            </Position>
            <AltitudeMeters>2381.800048828125</AltitudeMeters>
            <DistanceMeters>34508.745047277</DistanceMeters>
          </Trackpoint>
          <Trackpoint>
            <Time>2022-07-10T10:29:29.000Z</Time>
            <Position>
              <LatitudeDegrees>42.7528716064989566802978515625</LatitudeDegrees>
              <LongitudeDegrees>-0.21202065981924533843994140625</LongitudeDegrees>
            </Position>
            <AltitudeMeters>2381.800048828125</AltitudeMeters>
            <DistanceMeters>34512.205376938</DistanceMeters>
          </Trackpoint>
          <Trackpoint>
            <Time>2022-07-10T10:29:32.000Z</Time>
            <Position>
              <LatitudeDegrees>42.75284822098910808563232421875</LatitudeDegrees>
              <LongitudeDegrees>-0.2120348252356052398681640625</LongitudeDegrees>
            </Position>
            <AltitudeMeters>2382</AltitudeMeters>
            <DistanceMeters>34515.05300905</DistanceMeters>
          </Trackpoint>
          <Trackpoint>
            <Time>2022-07-10T10:29:33.000Z</Time>
            <Position>
              <LatitudeDegrees>42.75283849798142910003662109375</LatitudeDegrees>
              <LongitudeDegrees>-0.212041698396205902099609375</LongitudeDegrees>
            </Position>
            <AltitudeMeters>2382</AltitudeMeters>
            <DistanceMeters>34516.269944766</DistanceMeters>
          </Trackpoint>
          <Trackpoint>
            <Time>2022-07-10T10:29:37.000Z</Time>
            <Position>
              <LatitudeDegrees>42.75279575027525424957275390625</LatitudeDegrees>
              <LongitudeDegrees>-0.21209961734712123870849609375</LongitudeDegrees>
            </Position>
            <AltitudeMeters>2382.39990234375</AltitudeMeters>
            <DistanceMeters>34522.981280051</DistanceMeters>
          </Trackpoint>
          <Trackpoint>
            <Time>2022-07-10T10:29:42.000Z</Time>
            <Position>
              <LatitudeDegrees>42.7527435310184955596923828125</LatitudeDegrees>
              <LongitudeDegrees>-0.21218796260654926300048828125</LongitudeDegrees>
            </Position>
            <AltitudeMeters>2382.39990234375</AltitudeMeters>
            <DistanceMeters>34532.25064774</DistanceMeters>
          </Trackpoint>
          <Trackpoint>
            <Time>2022-07-10T10:29:44.000Z</Time>
            <Position>
              <LatitudeDegrees>42.75272835977375507354736328125</LatitudeDegrees>
              <LongitudeDegrees>-0.2122239209711551666259765625</LongitudeDegrees>
            </Position>
            <AltitudeMeters>2382.199951171875</AltitudeMeters>
            <DistanceMeters>34535.642449237</DistanceMeters>
          </Trackpoint>
          <Trackpoint>
            <Time>2022-07-10T10:29:47.000Z</Time>
            <Position>
              <LatitudeDegrees>42.75272333063185214996337890625</LatitudeDegrees>
              <LongitudeDegrees>-0.21226423792541027069091796875</LongitudeDegrees>
            </Position>
            <AltitudeMeters>2382.199951171875</AltitudeMeters>
            <DistanceMeters>34538.985985484</DistanceMeters>
          </Trackpoint>
          <Trackpoint>
            <Time>2022-07-10T10:29:51.000Z</Time>
            <Position>
              <LatitudeDegrees>42.75269265286624431610107421875</LatitudeDegrees>
              <LongitudeDegrees>-0.2123198099434375762939453125</LongitudeDegrees>
            </Position>
            <AltitudeMeters>2382</AltitudeMeters>
            <DistanceMeters>34544.669345708</DistanceMeters>
          </Trackpoint>
          <Trackpoint>
            <Time>2022-07-10T10:29:52.000Z</Time>
            <Position>
              <LatitudeDegrees>42.75268527679145336151123046875</LatitudeDegrees>
              <LongitudeDegrees>-0.21233682520687580108642578125</LongitudeDegrees>
            </Position>
            <AltitudeMeters>2382</AltitudeMeters>
            <DistanceMeters>34546.284799853</DistanceMeters>
          </Trackpoint>
          <Trackpoint>
            <Time>2022-07-10T10:29:56.000Z</Time>
            <Position>
              <LatitudeDegrees>42.7526758052408695220947265625</LatitudeDegrees>
              <LongitudeDegrees>-0.21239482797682285308837890625</LongitudeDegrees>
            </Position>
            <AltitudeMeters>2382.199951171875</AltitudeMeters>
            <DistanceMeters>34551.140469693</DistanceMeters>
          </Trackpoint>
          <Trackpoint>
            <Time>2022-07-10T10:29:58.000Z</Time>
            <Position>
              <LatitudeDegrees>42.7526798285543918609619140625</LatitudeDegrees>
              <LongitudeDegrees>-0.21242718212306499481201171875</LongitudeDegrees>
            </Position>
            <AltitudeMeters>2382</AltitudeMeters>
            <DistanceMeters>34553.823186772</DistanceMeters>
          </Trackpoint>
          <Trackpoint>
            <Time>2022-07-10T10:30:03.000Z</Time>
            <Position>
              <LatitudeDegrees>42.75265761651098728179931640625</LatitudeDegrees>
              <LongitudeDegrees>-0.21251066587865352630615234375</LongitudeDegrees>
            </Position>
            <AltitudeMeters>2381</AltitudeMeters>
            <DistanceMeters>34561.080142457</DistanceMeters>
          </Trackpoint>
          <Trackpoint>
            <Time>2022-07-10T10:30:04.000Z</Time>
            <Position>
              <LatitudeDegrees>42.752659209072589874267578125</LatitudeDegrees>
              <LongitudeDegrees>-0.212525166571140289306640625</LongitudeDegrees>
            </Position>
            <AltitudeMeters>2380.800048828125</AltitudeMeters>
            <DistanceMeters>34562.282145881</DistanceMeters>
          </Trackpoint>
          <Trackpoint>
            <Time>2022-07-10T10:30:06.000Z</Time>
            <Position>
              <LatitudeDegrees>42.75264923460781574249267578125</LatitudeDegrees>
              <LongitudeDegrees>-0.21254360675811767578125</LongitudeDegrees>
            </Position>
            <AltitudeMeters>2380.199951171875</AltitudeMeters>
            <DistanceMeters>34564.153955075</DistanceMeters>
          </Trackpoint>
          <Trackpoint>
            <Time>2022-07-10T10:30:07.000Z</Time>
            <Position>
              <LatitudeDegrees>42.75264479219913482666015625</LatitudeDegrees>
              <LongitudeDegrees>-0.2125514857470989227294921875</LongitudeDegrees>
            </Position>
            <AltitudeMeters>2380</AltitudeMeters>
            <DistanceMeters>34564.965863679</DistanceMeters>
          </Trackpoint>
          <Trackpoint>
            <Time>2022-07-10T10:30:09.000Z</Time>
            <Position>
              <LatitudeDegrees>42.7526414394378662109375</LatitudeDegrees>
              <LongitudeDegrees>-0.21256447769701480865478515625</LongitudeDegrees>
            </Position>
            <AltitudeMeters>2379.60009765625</AltitudeMeters>
            <DistanceMeters>34566.090234926</DistanceMeters>
          </Trackpoint>
          <Trackpoint>
            <Time>2022-07-10T10:30:14.000Z</Time>
            <Position>
              <LatitudeDegrees>42.75261268950998783111572265625</LatitudeDegrees>
              <LongitudeDegrees>-0.2125803194940090179443359375</LongitudeDegrees>
            </Position>
            <AltitudeMeters>2379.39990234375</AltitudeMeters>
            <DistanceMeters>34569.540110396</DistanceMeters>
          </Trackpoint>
          <Trackpoint>
            <Time>2022-07-10T10:30:16.000Z</Time>
            <Position>
              <LatitudeDegrees>42.75259315967559814453125</LatitudeDegrees>
              <LongitudeDegrees>-0.212574787437915802001953125</LongitudeDegrees>
            </Position>
            <AltitudeMeters>2379.39990234375</AltitudeMeters>
            <DistanceMeters>34571.760565695</DistanceMeters>
          </Trackpoint>
          <Trackpoint>
            <Time>2022-07-10T10:30:22.000Z</Time>
            <Position>
              <LatitudeDegrees>42.75253121741116046905517578125</LatitudeDegrees>
              <LongitudeDegrees>-0.2125400863587856292724609375</LongitudeDegrees>
            </Position>
            <AltitudeMeters>2380</AltitudeMeters>
            <DistanceMeters>34579.216378903</DistanceMeters>
          </Trackpoint>
          <Trackpoint>
            <Time>2022-07-10T10:30:24.000Z</Time>
            <Position>
              <LatitudeDegrees>42.75251470506191253662109375</LatitudeDegrees>
              <LongitudeDegrees>-0.2125189639627933502197265625</LongitudeDegrees>
            </Position>
            <AltitudeMeters>2380</AltitudeMeters>
            <DistanceMeters>34581.737722556</DistanceMeters>
          </Trackpoint>
          <Trackpoint>
            <Time>2022-07-10T10:30:27.000Z</Time>
            <Position>
              <LatitudeDegrees>42.752483524382114410400390625</LatitudeDegrees>
              <LongitudeDegrees>-0.21249733865261077880859375</LongitudeDegrees>
            </Position>
            <AltitudeMeters>2380.199951171875</AltitudeMeters>
            <DistanceMeters>34585.632658811</DistanceMeters>
          </Trackpoint>
          <Trackpoint>
            <Time>2022-07-10T10:30:31.000Z</Time>
            <Position>
              <LatitudeDegrees>42.7524572052061557769775390625</LatitudeDegrees>
              <LongitudeDegrees>-0.2124596200883388519287109375</LongitudeDegrees>
            </Position>
            <AltitudeMeters>2380.60009765625</AltitudeMeters>
            <DistanceMeters>34589.885568769</DistanceMeters>
          </Trackpoint>
          <Trackpoint>
            <Time>2022-07-10T10:30:32.000Z</Time>
            <Position>
              <LatitudeDegrees>42.752451337873935699462890625</LatitudeDegrees>
              <LongitudeDegrees>-0.21245501004159450531005859375</LongitudeDegrees>
            </Position>
            <AltitudeMeters>2380.39990234375</AltitudeMeters>
            <DistanceMeters>34590.645782484</DistanceMeters>
          </Trackpoint>
          <Trackpoint>
            <Time>2022-07-10T10:30:36.000Z</Time>
            <Position>
              <LatitudeDegrees>42.75242744944989681243896484375</LatitudeDegrees>
              <LongitudeDegrees>-0.2124237455427646636962890625</LongitudeDegrees>
            </Position>
            <AltitudeMeters>2380</AltitudeMeters>
            <DistanceMeters>34594.333504698</DistanceMeters>
          </Trackpoint>
          <Trackpoint>
            <Time>2022-07-10T10:30:38.000Z</Time>
            <Position>
              <LatitudeDegrees>42.7524142898619174957275390625</LatitudeDegrees>
              <LongitudeDegrees>-0.2124146930873394012451171875</LongitudeDegrees>
            </Position>
            <AltitudeMeters>2380</AltitudeMeters>
            <DistanceMeters>34595.971165439</DistanceMeters>
          </Trackpoint>
          <Trackpoint>
            <Time>2022-07-10T10:30:41.000Z</Time>
            <Position>
              <LatitudeDegrees>42.7523579634726047515869140625</LatitudeDegrees>
              <LongitudeDegrees>-0.21240673027932643890380859375</LongitudeDegrees>
            </Position>
            <AltitudeMeters>2379.39990234375</AltitudeMeters>
            <DistanceMeters>34602.274524572</DistanceMeters>
          </Trackpoint>
          <Trackpoint>
            <Time>2022-07-10T10:30:43.000Z</Time>
            <Position>
              <LatitudeDegrees>42.75234027765691280364990234375</LatitudeDegrees>
              <LongitudeDegrees>-0.21238912828266620635986328125</LongitudeDegrees>
            </Position>
            <AltitudeMeters>2379.199951171875</AltitudeMeters>
            <DistanceMeters>34604.71395491</DistanceMeters>
          </Trackpoint>
          <Trackpoint>
            <Time>2022-07-10T10:30:44.000Z</Time>
            <Position>
              <LatitudeDegrees>42.75233357213437557220458984375</LatitudeDegrees>
              <LongitudeDegrees>-0.2123804949223995208740234375</LongitudeDegrees>
            </Position>
            <AltitudeMeters>2379</AltitudeMeters>
            <DistanceMeters>34605.746209249</DistanceMeters>
          </Trackpoint>
          <Trackpoint>
            <Time>2022-07-10T10:30:45.000Z</Time>
            <Position>
              <LatitudeDegrees>42.75232820771634578704833984375</LatitudeDegrees>
              <LongitudeDegrees>-0.21237705834209918975830078125</LongitudeDegrees>
            </Position>
            <AltitudeMeters>2378.800048828125</AltitudeMeters>
            <DistanceMeters>34606.41139625</DistanceMeters>
          </Trackpoint>
          <Trackpoint>
            <Time>2022-07-10T10:30:46.000Z</Time>
            <Position>
              <LatitudeDegrees>42.75232301093637943267822265625</LatitudeDegrees>
              <LongitudeDegrees>-0.21237152628600597381591796875</LongitudeDegrees>
            </Position>
            <AltitudeMeters>2378.60009765625</AltitudeMeters>
            <DistanceMeters>34607.147470014</DistanceMeters>
          </Trackpoint>
          <Trackpoint>
            <Time>2022-07-10T10:30:50.000Z</Time>
            <Position>
              <LatitudeDegrees>42.75227959267795085906982421875</LatitudeDegrees>
              <LongitudeDegrees>-0.21235275082290172576904296875</LongitudeDegrees>
            </Position>
            <AltitudeMeters>2378.199951171875</AltitudeMeters>
            <DistanceMeters>34612.218728015</DistanceMeters>
          </Trackpoint>
          <Trackpoint>
            <Time>2022-07-10T10:30:53.000Z</Time>
            <Position>
              <LatitudeDegrees>42.75224086828529834747314453125</LatitudeDegrees>
              <LongitudeDegrees>-0.2123167924582958221435546875</LongitudeDegrees>
            </Position>
            <AltitudeMeters>2377.800048828125</AltitudeMeters>
            <DistanceMeters>34617.43568598</DistanceMeters>
          </Trackpoint>
          <Trackpoint>
            <Time>2022-07-10T10:30:59.000Z</Time>
            <Position>
              <LatitudeDegrees>42.752182446420192718505859375</LatitudeDegrees>
              <LongitudeDegrees>-0.21225770004093647003173828125</LongitudeDegrees>
            </Position>
            <AltitudeMeters>2377.199951171875</AltitudeMeters>
            <DistanceMeters>34625.535842487</DistanceMeters>
          </Trackpoint>
          <Trackpoint>
            <Time>2022-07-10T10:31:05.000Z</Time>
            <Position>
              <LatitudeDegrees>42.75213073007762432098388671875</LatitudeDegrees>
              <LongitudeDegrees>-0.21221436560153961181640625</LongitudeDegrees>
            </Position>
            <AltitudeMeters>2377.39990234375</AltitudeMeters>
            <DistanceMeters>34632.294774113</DistanceMeters>
          </Trackpoint>
          <Trackpoint>
            <Time>2022-07-10T10:31:07.000Z</Time>
            <Position>
              <LatitudeDegrees>42.75211966596543788909912109375</LatitudeDegrees>
              <LongitudeDegrees>-0.2122044749557971954345703125</LongitudeDegrees>
            </Position>
            <AltitudeMeters>2377.39990234375</AltitudeMeters>
            <DistanceMeters>34633.766921642</DistanceMeters>
          </Trackpoint>
          <Trackpoint>
            <Time>2022-07-10T10:31:12.000Z</Time>
            <Position>
              <LatitudeDegrees>42.752087228000164031982421875</LatitudeDegrees>
              <LongitudeDegrees>-0.21214320324361324310302734375</LongitudeDegrees>
            </Position>
            <AltitudeMeters>2377</AltitudeMeters>
            <DistanceMeters>34639.940002121</DistanceMeters>
          </Trackpoint>
          <Trackpoint>
            <Time>2022-07-10T10:31:14.000Z</Time>
            <Position>
              <LatitudeDegrees>42.752066440880298614501953125</LatitudeDegrees>
              <LongitudeDegrees>-0.21212719380855560302734375</LongitudeDegrees>
            </Position>
            <AltitudeMeters>2376.60009765625</AltitudeMeters>
            <DistanceMeters>34642.599052676</DistanceMeters>
          </Trackpoint>
          <Trackpoint>
            <Time>2022-07-10T10:31:15.000Z</Time>
            <Position>
              <LatitudeDegrees>42.75206032209098339080810546875</LatitudeDegrees>
              <LongitudeDegrees>-0.2121136151254177093505859375</LongitudeDegrees>
            </Position>
            <AltitudeMeters>2376.60009765625</AltitudeMeters>
            <DistanceMeters>34643.901993339</DistanceMeters>
          </Trackpoint>
          <Trackpoint>
            <Time>2022-07-10T10:31:18.000Z</Time>
            <Position>
              <LatitudeDegrees>42.75204657576978206634521484375</LatitudeDegrees>
              <LongitudeDegrees>-0.21207715384662151336669921875</LongitudeDegrees>
            </Position>
            <AltitudeMeters>2376.800048828125</AltitudeMeters>
            <DistanceMeters>34647.250926743</DistanceMeters>
          </Trackpoint>
          <Trackpoint>
            <Time>2022-07-10T10:31:23.000Z</Time>
            <Position>
              <LatitudeDegrees>42.75200315751135349273681640625</LatitudeDegrees>
              <LongitudeDegrees>-0.2120291255414485931396484375</LongitudeDegrees>
            </Position>
            <AltitudeMeters>2376.39990234375</AltitudeMeters>
            <DistanceMeters>34653.47789617</DistanceMeters>
          </Trackpoint>
          <Trackpoint>
            <Time>2022-07-10T10:31:27.000Z</Time>
            <Position>
              <LatitudeDegrees>42.75196979753673076629638671875</LatitudeDegrees>
              <LongitudeDegrees>-0.21200456656515598297119140625</LongitudeDegrees>
            </Position>
            <AltitudeMeters>2375.60009765625</AltitudeMeters>
            <DistanceMeters>34657.69776711</DistanceMeters>
          </Trackpoint>
          <Trackpoint>
            <Time>2022-07-10T10:31:31.000Z</Time>
            <Position>
              <LatitudeDegrees>42.7519304864108562469482421875</LatitudeDegrees>
              <LongitudeDegrees>-0.2119682729244232177734375</LongitudeDegrees>
            </Position>
            <AltitudeMeters>2375</AltitudeMeters>
            <DistanceMeters>34662.983507977</DistanceMeters>
          </Trackpoint>
          <Trackpoint>
            <Time>2022-07-10T10:31:35.000Z</Time>
            <Position>
              <LatitudeDegrees>42.75190643034875392913818359375</LatitudeDegrees>
              <LongitudeDegrees>-0.21192108280956745147705078125</LongitudeDegrees>
            </Position>
            <AltitudeMeters>2374.800048828125</AltitudeMeters>
            <DistanceMeters>34667.677481403</DistanceMeters>
          </Trackpoint>
          <Trackpoint>
            <Time>2022-07-10T10:31:39.000Z</Time>
            <Position>
              <LatitudeDegrees>42.75186359882354736328125</LatitudeDegrees>
              <LongitudeDegrees>-0.21188939921557903289794921875</LongitudeDegrees>
            </Position>
            <AltitudeMeters>2374.60009765625</AltitudeMeters>
            <DistanceMeters>34673.101501043</DistanceMeters>
          </Trackpoint>
          <Trackpoint>
            <Time>2022-07-10T10:31:41.000Z</Time>
            <Position>
              <LatitudeDegrees>42.751845158636569976806640625</LatitudeDegrees>
              <LongitudeDegrees>-0.2118534408509731292724609375</LongitudeDegrees>
            </Position>
            <AltitudeMeters>2374.39990234375</AltitudeMeters>
            <DistanceMeters>34676.687421965</DistanceMeters>
          </Trackpoint>
          <Trackpoint>
            <Time>2022-07-10T10:31:47.000Z</Time>
            <Position>
              <LatitudeDegrees>42.75179444812238216400146484375</LatitudeDegrees>
              <LongitudeDegrees>-0.21183374337852001190185546875</LongitudeDegrees>
            </Position>
            <AltitudeMeters>2374.199951171875</AltitudeMeters>
            <DistanceMeters>34682.556812192</DistanceMeters>
          </Trackpoint>
          <Trackpoint>
            <Time>2022-07-10T10:31:49.000Z</Time>
            <Position>
              <LatitudeDegrees>42.7517952024936676025390625</LatitudeDegrees>
              <LongitudeDegrees>-0.2118366770446300506591796875</LongitudeDegrees>
            </Position>
            <AltitudeMeters>2374.199951171875</AltitudeMeters>
            <DistanceMeters>34682.808229246</DistanceMeters>
          </Trackpoint>
          <Trackpoint>
            <Time>2022-07-10T10:31:53.000Z</Time>
            <Position>
              <LatitudeDegrees>42.7517940290272235870361328125</LatitudeDegrees>
              <LongitudeDegrees>-0.21185218356549739837646484375</LongitudeDegrees>
            </Position>
            <AltitudeMeters>2374.199951171875</AltitudeMeters>
            <DistanceMeters>34684.083146404</DistanceMeters>
          </Trackpoint>
          <Trackpoint>
            <Time>2022-07-10T10:31:59.000Z</Time>
            <Position>
              <LatitudeDegrees>42.7517625130712985992431640625</LatitudeDegrees>
              <LongitudeDegrees>-0.21187531761825084686279296875</LongitudeDegrees>
            </Position>
            <AltitudeMeters>2374</AltitudeMeters>
            <DistanceMeters>34688.067475003</DistanceMeters>
          </Trackpoint>
          <Trackpoint>
            <Time>2022-07-10T10:32:01.000Z</Time>
            <Position>
              <LatitudeDegrees>42.75174818001687526702880859375</LatitudeDegrees>
              <LongitudeDegrees>-0.2118718810379505157470703125</LongitudeDegrees>
            </Position>
            <AltitudeMeters>2374</AltitudeMeters>
            <DistanceMeters>34689.685721637</DistanceMeters>
          </Trackpoint>
          <Trackpoint>
            <Time>2022-07-10T10:32:07.000Z</Time>
            <Position>
              <LatitudeDegrees>42.7517496049404144287109375</LatitudeDegrees>
              <LongitudeDegrees>-0.2118574641644954681396484375</LongitudeDegrees>
            </Position>
            <AltitudeMeters>2374.39990234375</AltitudeMeters>
            <DistanceMeters>34690.872604919</DistanceMeters>
          </Trackpoint>
          <Trackpoint>
            <Time>2022-07-10T10:32:09.000Z</Time>
            <Position>
              <LatitudeDegrees>42.75174918584525585174560546875</LatitudeDegrees>
              <LongitudeDegrees>-0.21184950135648250579833984375</LongitudeDegrees>
            </Position>
            <AltitudeMeters>2374.60009765625</AltitudeMeters>
            <DistanceMeters>34691.524075251</DistanceMeters>
          </Trackpoint>
          <Trackpoint>
            <Time>2022-07-10T10:32:15.000Z</Time>
            <Position>
              <LatitudeDegrees>42.751750946044921875</LatitudeDegrees>
              <LongitudeDegrees>-0.2118681930005550384521484375</LongitudeDegrees>
            </Position>
            <AltitudeMeters>2374.800048828125</AltitudeMeters>
            <DistanceMeters>34693.068076605</DistanceMeters>
          </Trackpoint>
          <Trackpoint>
            <Time>2022-07-10T10:32:19.000Z</Time>
            <Position>
              <LatitudeDegrees>42.75174415670335292816162109375</LatitudeDegrees>
              <LongitudeDegrees>-0.21185620687901973724365234375</LongitudeDegrees>
            </Position>
            <AltitudeMeters>2374.60009765625</AltitudeMeters>
            <DistanceMeters>34694.307073375</DistanceMeters>
          </Trackpoint>
          <Trackpoint>
            <Time>2022-07-10T10:32:22.000Z</Time>
            <Position>
              <LatitudeDegrees>42.7517645247280597686767578125</LatitudeDegrees>
              <LongitudeDegrees>-0.21182552911341190338134765625</LongitudeDegrees>
            </Position>
            <AltitudeMeters>2374.60009765625</AltitudeMeters>
            <DistanceMeters>34697.685537023</DistanceMeters>
          </Trackpoint>
          <Trackpoint>
            <Time>2022-07-10T10:32:28.000Z</Time>
            <Position>
              <LatitudeDegrees>42.75175622664391994476318359375</LatitudeDegrees>
              <LongitudeDegrees>-0.21184799261391162872314453125</LongitudeDegrees>
            </Position>
            <AltitudeMeters>2374.60009765625</AltitudeMeters>
            <DistanceMeters>34699.74127917</DistanceMeters>
          </Trackpoint>
          <Trackpoint>
            <Time>2022-07-10T10:32:32.000Z</Time>
            <Position>
              <LatitudeDegrees>42.75175790302455425262451171875</LatitudeDegrees>
              <LongitudeDegrees>-0.2118443883955478668212890625</LongitudeDegrees>
            </Position>
            <AltitudeMeters>2375.199951171875</AltitudeMeters>
            <DistanceMeters>34700.109316053</DistanceMeters>
          </Trackpoint>
          <Trackpoint>
            <Time>2022-07-10T10:32:38.000Z</Time>
            <Position>
              <LatitudeDegrees>42.7517977170646190643310546875</LatitudeDegrees>
              <LongitudeDegrees>-0.21189945749938488006591796875</LongitudeDegrees>
            </Position>
            <AltitudeMeters>2375.60009765625</AltitudeMeters>
            <DistanceMeters>34706.42555526</DistanceMeters>
          </Trackpoint>
          <Trackpoint>
            <Time>2022-07-10T10:32:41.000Z</Time>
            <Position>
              <LatitudeDegrees>42.7518339268863201141357421875</LatitudeDegrees>
              <LongitudeDegrees>-0.2119305543601512908935546875</LongitudeDegrees>
            </Position>
            <AltitudeMeters>2375.60009765625</AltitudeMeters>
            <DistanceMeters>34711.192071004</DistanceMeters>
          </Trackpoint>
          <Trackpoint>
            <Time>2022-07-10T10:32:44.000Z</Time>
            <Position>
              <LatitudeDegrees>42.75186435319483280181884765625</LatitudeDegrees>
              <LongitudeDegrees>-0.21197640337049961090087890625</LongitudeDegrees>
            </Position>
            <AltitudeMeters>2375.800048828125</AltitudeMeters>
            <DistanceMeters>34716.24370401</DistanceMeters>
          </Trackpoint>
          <Trackpoint>
            <Time>2022-07-10T10:32:47.000Z</Time>
            <Position>
              <LatitudeDegrees>42.75188681669533252716064453125</LatitudeDegrees>
              <LongitudeDegrees>-0.21201177500188350677490234375</LongitudeDegrees>
            </Position>
            <AltitudeMeters>2376</AltitudeMeters>
            <DistanceMeters>34720.066093798</DistanceMeters>
          </Trackpoint>
          <Trackpoint>
            <Time>2022-07-10T10:32:51.000Z</Time>
            <Position>
              <LatitudeDegrees>42.75191900320351123809814453125</LatitudeDegrees>
              <LongitudeDegrees>-0.2120398543775081634521484375</LongitudeDegrees>
            </Position>
            <AltitudeMeters>2375.800048828125</AltitudeMeters>
            <DistanceMeters>34724.321126497</DistanceMeters>
          </Trackpoint>
          <Trackpoint>
            <Time>2022-07-10T10:32:54.000Z</Time>
            <Position>
              <LatitudeDegrees>42.751946412026882171630859375</LatitudeDegrees>
              <LongitudeDegrees>-0.21207229234278202056884765625</LongitudeDegrees>
            </Position>
            <AltitudeMeters>2375.800048828125</AltitudeMeters>
            <DistanceMeters>34728.363952039</DistanceMeters>
          </Trackpoint>
          <Trackpoint>
            <Time>2022-07-10T10:33:00.000Z</Time>
            <Position>
              <LatitudeDegrees>42.75199812836945056915283203125</LatitudeDegrees>
              <LongitudeDegrees>-0.2121139504015445709228515625</LongitudeDegrees>
            </Position>
            <AltitudeMeters>2375.800048828125</AltitudeMeters>
            <DistanceMeters>34735.052374775</DistanceMeters>
          </Trackpoint>
          <Trackpoint>
            <Time>2022-07-10T10:33:02.000Z</Time>
            <Position>
              <LatitudeDegrees>42.75201849639415740966796875</LatitudeDegrees>
              <LongitudeDegrees>-0.21213750354945659637451171875</LongitudeDegrees>
            </Position>
            <AltitudeMeters>2375.800048828125</AltitudeMeters>
            <DistanceMeters>34738.027181477</DistanceMeters>
          </Trackpoint>
          <Trackpoint>
            <Time>2022-07-10T10:33:04.000Z</Time>
            <Position>
              <LatitudeDegrees>42.75203919969499111175537109375</LatitudeDegrees>
              <LongitudeDegrees>-0.21215912885963916778564453125</LongitudeDegrees>
            </Position>
            <AltitudeMeters>2375.800048828125</AltitudeMeters>
            <DistanceMeters>34740.931332196</DistanceMeters>
          </Trackpoint>
          <Trackpoint>
            <Time>2022-07-10T10:33:07.000Z</Time>
            <Position>
              <LatitudeDegrees>42.752067111432552337646484375</LatitudeDegrees>
              <LongitudeDegrees>-0.2121883817017078399658203125</LongitudeDegrees>
            </Position>
            <AltitudeMeters>2375.60009765625</AltitudeMeters>
            <DistanceMeters>34744.851688061</DistanceMeters>
          </Trackpoint>
          <Trackpoint>
            <Time>2022-07-10T10:33:12.000Z</Time>
            <Position>
              <LatitudeDegrees>42.7521199174225330352783203125</LatitudeDegrees>
              <LongitudeDegrees>-0.21222819574177265167236328125</LongitudeDegrees>
            </Position>
            <AltitudeMeters>2375.39990234375</AltitudeMeters>
            <DistanceMeters>34751.569747459</DistanceMeters>
          </Trackpoint>
          <Trackpoint>
            <Time>2022-07-10T10:33:13.000Z</Time>
            <Position>
              <LatitudeDegrees>42.75212871842086315155029296875</LatitudeDegrees>
              <LongitudeDegrees>-0.21223272196948528289794921875</LongitudeDegrees>
            </Position>
            <AltitudeMeters>2375.39990234375</AltitudeMeters>
            <DistanceMeters>34752.619351825</DistanceMeters>
          </Trackpoint>
          <Trackpoint>
            <Time>2022-07-10T10:33:19.000Z</Time>
            <Position>
              <LatitudeDegrees>42.75218605063855648040771484375</LatitudeDegrees>
              <LongitudeDegrees>-0.21230329759418964385986328125</LongitudeDegrees>
            </Position>
            <AltitudeMeters>2375</AltitudeMeters>
            <DistanceMeters>34761.221238036</DistanceMeters>
          </Trackpoint>
          <Trackpoint>
            <Time>2022-07-10T10:33:22.000Z</Time>
            <Position>
              <LatitudeDegrees>42.75221287272870540618896484375</LatitudeDegrees>
              <LongitudeDegrees>-0.2123338915407657623291015625</LongitudeDegrees>
            </Position>
            <AltitudeMeters>2375.39990234375</AltitudeMeters>
            <DistanceMeters>34765.115014911</DistanceMeters>
          </Trackpoint>
          <Trackpoint>
            <Time>2022-07-10T10:33:28.000Z</Time>
            <Position>
              <LatitudeDegrees>42.75226685218513011932373046875</LatitudeDegrees>
              <LongitudeDegrees>-0.21238728426396846771240234375</LongitudeDegrees>
            </Position>
            <AltitudeMeters>2375.60009765625</AltitudeMeters>
            <DistanceMeters>34772.540487742</DistanceMeters>
          </Trackpoint>
          <Trackpoint>
            <Time>2022-07-10T10:33:30.000Z</Time>
            <Position>
              <LatitudeDegrees>42.75228361599147319793701171875</LatitudeDegrees>
              <LongitudeDegrees>-0.21239499561488628387451171875</LongitudeDegrees>
            </Position>
            <AltitudeMeters>2375.39990234375</AltitudeMeters>
            <DistanceMeters>34774.511003631</DistanceMeters>
          </Trackpoint>
          <Trackpoint>
            <Time>2022-07-10T10:33:34.000Z</Time>
            <Position>
              <LatitudeDegrees>42.75231312029063701629638671875</LatitudeDegrees>
              <LongitudeDegrees>-0.2124083228409290313720703125</LongitudeDegrees>
            </Position>
            <AltitudeMeters>2375.60009765625</AltitudeMeters>
            <DistanceMeters>34777.971333293</DistanceMeters>
          </Trackpoint>
          <Trackpoint>
            <Time>2022-07-10T10:33:37.000Z</Time>
            <Position>
              <LatitudeDegrees>42.75233474560081958770751953125</LatitudeDegrees>
              <LongitudeDegrees>-0.2124274335801601409912109375</LongitudeDegrees>
            </Position>
            <AltitudeMeters>2375.60009765625</AltitudeMeters>
            <DistanceMeters>34780.841077134</DistanceMeters>
          </Trackpoint>
          <Trackpoint>
            <Time>2022-07-10T10:33:38.000Z</Time>
            <Position>
              <LatitudeDegrees>42.752338685095310211181640625</LatitudeDegrees>
              <LongitudeDegrees>-0.21243430674076080322265625</LongitudeDegrees>
            </Position>
            <AltitudeMeters>2375.800048828125</AltitudeMeters>
            <DistanceMeters>34781.55219195</DistanceMeters>
          </Trackpoint>
          <Trackpoint>
            <Time>2022-07-10T10:33:43.000Z</Time>
            <Position>
              <LatitudeDegrees>42.75237900204956531524658203125</LatitudeDegrees>
              <LongitudeDegrees>-0.2124646492302417755126953125</LongitudeDegrees>
            </Position>
            <AltitudeMeters>2376.60009765625</AltitudeMeters>
            <DistanceMeters>34786.679233253</DistanceMeters>
          </Trackpoint>
          <Trackpoint>
            <Time>2022-07-10T10:33:44.000Z</Time>
            <Position>
              <LatitudeDegrees>42.75238269008696079254150390625</LatitudeDegrees>
              <LongitudeDegrees>-0.2124743722379207611083984375</LongitudeDegrees>
            </Position>
            <AltitudeMeters>2376.800048828125</AltitudeMeters>
            <DistanceMeters>34787.570662851</DistanceMeters>
          </Trackpoint>
          <Trackpoint>
            <Time>2022-07-10T10:33:46.000Z</Time>
            <Position>
              <LatitudeDegrees>42.75240180082619190216064453125</LatitudeDegrees>
              <LongitudeDegrees>-0.21249373443424701690673828125</LongitudeDegrees>
            </Position>
            <AltitudeMeters>2377.39990234375</AltitudeMeters>
            <DistanceMeters>34790.221209865</DistanceMeters>
          </Trackpoint>
          <Trackpoint>
            <Time>2022-07-10T10:33:48.000Z</Time>
            <Position>
              <LatitudeDegrees>42.7524293772876262664794921875</LatitudeDegrees>
              <LongitudeDegrees>-0.21252759732306003570556640625</LongitudeDegrees>
            </Position>
            <AltitudeMeters>2377.800048828125</AltitudeMeters>
            <DistanceMeters>34794.354598865</DistanceMeters>
          </Trackpoint>
          <Trackpoint>
            <Time>2022-07-10T10:33:49.000Z</Time>
            <Position>
              <LatitudeDegrees>42.75244521908462047576904296875</LatitudeDegrees>
              <LongitudeDegrees>-0.21254117600619792938232421875</LongitudeDegrees>
            </Position>
            <AltitudeMeters>2378</AltitudeMeters>
            <DistanceMeters>34796.436529867</DistanceMeters>
          </Trackpoint>
          <Trackpoint>
            <Time>2022-07-10T10:33:53.000Z</Time>
            <Position>
              <LatitudeDegrees>42.75250070728361606597900390625</LatitudeDegrees>
              <LongitudeDegrees>-0.2125799842178821563720703125</LongitudeDegrees>
            </Position>
            <AltitudeMeters>2378.60009765625</AltitudeMeters>
            <DistanceMeters>34803.379335356</DistanceMeters>
          </Trackpoint>
          <Trackpoint>
            <Time>2022-07-10T10:33:58.000Z</Time>
            <Position>
              <LatitudeDegrees>42.75256290100514888763427734375</LatitudeDegrees>
              <LongitudeDegrees>-0.212579481303691864013671875</LongitudeDegrees>
            </Position>
            <AltitudeMeters>2378</AltitudeMeters>
            <DistanceMeters>34810.301299355</DistanceMeters>
          </Trackpoint>
          <Trackpoint>
            <Time>2022-07-10T10:33:59.000Z</Time>
            <Position>
              <LatitudeDegrees>42.75257983244955539703369140625</LatitudeDegrees>
              <LongitudeDegrees>-0.21257135085761547088623046875</LongitudeDegrees>
            </Position>
            <AltitudeMeters>2377.800048828125</AltitudeMeters>
            <DistanceMeters>34812.299121617</DistanceMeters>
          </Trackpoint>
          <Trackpoint>
            <Time>2022-07-10T10:34:02.000Z</Time>
            <Position>
              <LatitudeDegrees>42.7526161260902881622314453125</LatitudeDegrees>
              <LongitudeDegrees>-0.2125618793070316314697265625</LongitudeDegrees>
            </Position>
            <AltitudeMeters>2377.60009765625</AltitudeMeters>
            <DistanceMeters>34816.411703917</DistanceMeters>
          </Trackpoint>
          <Trackpoint>
            <Time>2022-07-10T10:34:03.000Z</Time>
            <Position>
              <LatitudeDegrees>42.75262543000280857086181640625</LatitudeDegrees>
              <LongitudeDegrees>-0.212558694183826446533203125</LongitudeDegrees>
            </Position>
            <AltitudeMeters>2377.39990234375</AltitudeMeters>
            <DistanceMeters>34817.47837614</DistanceMeters>
          </Trackpoint>
          <Trackpoint>
            <Time>2022-07-10T10:34:05.000Z</Time>
            <Position>
              <LatitudeDegrees>42.7526389248669147491455078125</LatitudeDegrees>
              <LongitudeDegrees>-0.2125561796128749847412109375</LongitudeDegrees>
            </Position>
            <AltitudeMeters>2377.199951171875</AltitudeMeters>
            <DistanceMeters>34818.99583108</DistanceMeters>
          </Trackpoint>
          <Trackpoint>
            <Time>2022-07-10T10:34:07.000Z</Time>
            <Position>
              <LatitudeDegrees>42.75265820324420928955078125</LatitudeDegrees>
              <LongitudeDegrees>-0.21257252432405948638916015625</LongitudeDegrees>
            </Position>
            <AltitudeMeters>2377</AltitudeMeters>
            <DistanceMeters>34821.522541203</DistanceMeters>
          </Trackpoint>
          <Trackpoint>
            <Time>2022-07-10T10:34:08.000Z</Time>
            <Position>
              <LatitudeDegrees>42.75266767479479312896728515625</LatitudeDegrees>
              <LongitudeDegrees>-0.2125773020088672637939453125</LongitudeDegrees>
            </Position>
            <AltitudeMeters>2377</AltitudeMeters>
            <DistanceMeters>34822.64691245</DistanceMeters>
          </Trackpoint>
          <Trackpoint>
            <Time>2022-07-10T10:34:10.000Z</Time>
            <Position>
              <LatitudeDegrees>42.75268728844821453094482421875</LatitudeDegrees>
              <LongitudeDegrees>-0.21256900392472743988037109375</LongitudeDegrees>
            </Position>
            <AltitudeMeters>2377</AltitudeMeters>
            <DistanceMeters>34824.935458788</DistanceMeters>
          </Trackpoint>
          <Trackpoint>
            <Time>2022-07-10T10:34:11.000Z</Time>
            <Position>
              <LatitudeDegrees>42.75270338170230388641357421875</LatitudeDegrees>
              <LongitudeDegrees>-0.21255559287965297698974609375</LongitudeDegrees>
            </Position>
            <AltitudeMeters>2376.800048828125</AltitudeMeters>
            <DistanceMeters>34827.036817248</DistanceMeters>
          </Trackpoint>
          <Trackpoint>
            <Time>2022-07-10T10:34:14.000Z</Time>
            <Position>
              <LatitudeDegrees>42.75272383354604244232177734375</LatitudeDegrees>
              <LongitudeDegrees>-0.2125746197998523712158203125</LongitudeDegrees>
            </Position>
            <AltitudeMeters>2376.60009765625</AltitudeMeters>
            <DistanceMeters>34829.79422987</DistanceMeters>
          </Trackpoint>
          <Trackpoint>
            <Time>2022-07-10T10:34:20.000Z</Time>
            <Position>
              <LatitudeDegrees>42.7527814172208309173583984375</LatitudeDegrees>
              <LongitudeDegrees>-0.212593562901020050048828125</LongitudeDegrees>
            </Position>
            <AltitudeMeters>2377</AltitudeMeters>
            <DistanceMeters>34836.387467921</DistanceMeters>
          </Trackpoint>
          <Trackpoint>
            <Time>2022-07-10T10:34:22.000Z</Time>
            <Position>
              <LatitudeDegrees>42.75280061177909374237060546875</LatitudeDegrees>
              <LongitudeDegrees>-0.212605632841587066650390625</LongitudeDegrees>
            </Position>
            <AltitudeMeters>2377.199951171875</AltitudeMeters>
            <DistanceMeters>34838.742137099</DistanceMeters>
          </Trackpoint>
          <Trackpoint>
            <Time>2022-07-10T10:34:23.000Z</Time>
            <Position>
              <LatitudeDegrees>42.75280463509261608123779296875</LatitudeDegrees>
              <LongitudeDegrees>-0.212610326707363128662109375</LongitudeDegrees>
            </Position>
            <AltitudeMeters>2377.199951171875</AltitudeMeters>
            <DistanceMeters>34839.33557874</DistanceMeters>
          </Trackpoint>
          <Trackpoint>
            <Time>2022-07-10T10:34:26.000Z</Time>
            <Position>
              <LatitudeDegrees>42.752819471061229705810546875</LatitudeDegrees>
              <LongitudeDegrees>-0.21264754235744476318359375</LongitudeDegrees>
            </Position>
            <AltitudeMeters>2378</AltitudeMeters>
            <DistanceMeters>34842.795908401</DistanceMeters>
          </Trackpoint>
          <Trackpoint>
            <Time>2022-07-10T10:34:29.000Z</Time>
            <Position>
              <LatitudeDegrees>42.75283095426857471466064453125</LatitudeDegrees>
              <LongitudeDegrees>-0.2126627974212169647216796875</LongitudeDegrees>
            </Position>
            <AltitudeMeters>2378.39990234375</AltitudeMeters>
            <DistanceMeters>34844.578767596</DistanceMeters>
          </Trackpoint>
          <Trackpoint>
            <Time>2022-07-10T10:34:32.000Z</Time>
            <Position>
              <LatitudeDegrees>42.75283346883952617645263671875</LatitudeDegrees>
              <LongitudeDegrees>-0.2126956544816493988037109375</LongitudeDegrees>
            </Position>
            <AltitudeMeters>2378.199951171875</AltitudeMeters>
            <DistanceMeters>34847.279934338</DistanceMeters>
          </Trackpoint>
          <Trackpoint>
            <Time>2022-07-10T10:34:33.000Z</Time>
            <Position>
              <LatitudeDegrees>42.75283548049628734588623046875</LatitudeDegrees>
              <LongitudeDegrees>-0.212710909545421600341796875</LongitudeDegrees>
            </Position>
            <AltitudeMeters>2378</AltitudeMeters>
            <DistanceMeters>34848.547748838</DistanceMeters>
          </Trackpoint>
          <Trackpoint>
            <Time>2022-07-10T10:34:37.000Z</Time>
            <Position>
              <LatitudeDegrees>42.75285660289227962493896484375</LatitudeDegrees>
              <LongitudeDegrees>-0.21275457926094532012939453125</LongitudeDegrees>
            </Position>
            <AltitudeMeters>2376.800048828125</AltitudeMeters>
            <DistanceMeters>34852.820782254</DistanceMeters>
          </Trackpoint>
          <Trackpoint>
            <Time>2022-07-10T10:34:39.000Z</Time>
            <Position>
              <LatitudeDegrees>42.752882502973079681396484375</LatitudeDegrees>
              <LongitudeDegrees>-0.21276547573506832122802734375</LongitudeDegrees>
            </Position>
            <AltitudeMeters>2376.199951171875</AltitudeMeters>
            <DistanceMeters>34855.839283062</DistanceMeters>
          </Trackpoint>
          <Trackpoint>
            <Time>2022-07-10T10:34:41.000Z</Time>
            <Position>
              <LatitudeDegrees>42.752908654510974884033203125</LatitudeDegrees>
              <LongitudeDegrees>-0.21278777159750461578369140625</LongitudeDegrees>
            </Position>
            <AltitudeMeters>2376</AltitudeMeters>
            <DistanceMeters>34859.274732074</DistanceMeters>
          </Trackpoint>
          <Trackpoint>
            <Time>2022-07-10T10:34:45.000Z</Time>
            <Position>
              <LatitudeDegrees>42.752964310348033905029296875</LatitudeDegrees>
              <LongitudeDegrees>-0.21281979046761989593505859375</LongitudeDegrees>
            </Position>
            <AltitudeMeters>2376.199951171875</AltitudeMeters>
            <DistanceMeters>34865.999508861</DistanceMeters>
          </Trackpoint>
          <Trackpoint>
            <Time>2022-07-10T10:34:51.000Z</Time>
            <Position>
              <LatitudeDegrees>42.75302658788859844207763671875</LatitudeDegrees>
              <LongitudeDegrees>-0.2128565870225429534912109375</LongitudeDegrees>
            </Position>
            <AltitudeMeters>2376.199951171875</AltitudeMeters>
            <DistanceMeters>34873.555178472</DistanceMeters>
          </Trackpoint>
          <Trackpoint>
            <Time>2022-07-10T10:34:52.000Z</Time>
            <Position>
              <LatitudeDegrees>42.75303815491497516632080078125</LatitudeDegrees>
              <LongitudeDegrees>-0.212864466011524200439453125</LongitudeDegrees>
            </Position>
            <AltitudeMeters>2376.199951171875</AltitudeMeters>
            <DistanceMeters>34874.990050393</DistanceMeters>
          </Trackpoint>
          <Trackpoint>
            <Time>2022-07-10T10:34:57.000Z</Time>
            <Position>
              <LatitudeDegrees>42.75309850461781024932861328125</LatitudeDegrees>
              <LongitudeDegrees>-0.2129052020609378814697265625</LongitudeDegrees>
            </Position>
            <AltitudeMeters>2375.800048828125</AltitudeMeters>
            <DistanceMeters>34882.486929463</DistanceMeters>
          </Trackpoint>
          <Trackpoint>
            <Time>2022-07-10T10:34:58.000Z</Time>
            <Position>
              <LatitudeDegrees>42.7531059645116329193115234375</LatitudeDegrees>
              <LongitudeDegrees>-0.21290729753673076629638671875</LongitudeDegrees>
            </Position>
            <AltitudeMeters>2375.60009765625</AltitudeMeters>
            <DistanceMeters>34883.336874235</DistanceMeters>
          </Trackpoint>
          <Trackpoint>
            <Time>2022-07-10T10:35:00.000Z</Time>
            <Position>
              <LatitudeDegrees>42.75312800891697406768798828125</LatitudeDegrees>
              <LongitudeDegrees>-0.21291576325893402099609375</LongitudeDegrees>
            </Position>
            <AltitudeMeters>2375</AltitudeMeters>
            <DistanceMeters>34885.886708551</DistanceMeters>
          </Trackpoint>
          <Trackpoint>
            <Time>2022-07-10T10:35:01.000Z</Time>
            <Position>
              <LatitudeDegrees>42.75313756428658962249755859375</LatitudeDegrees>
              <LongitudeDegrees>-0.21292473189532756805419921875</LongitudeDegrees>
            </Position>
            <AltitudeMeters>2374.60009765625</AltitudeMeters>
            <DistanceMeters>34887.175713619</DistanceMeters>
          </Trackpoint>
          <Trackpoint>
            <Time>2022-07-10T10:35:03.000Z</Time>
            <Position>
              <LatitudeDegrees>42.75315667502582073211669921875</LatitudeDegrees>
              <LongitudeDegrees>-0.21293629892170429229736328125</LongitudeDegrees>
            </Position>
            <AltitudeMeters>2374</AltitudeMeters>
            <DistanceMeters>34889.503383241</DistanceMeters>
          </Trackpoint>
          <Trackpoint>
            <Time>2022-07-10T10:35:06.000Z</Time>
            <Position>
              <LatitudeDegrees>42.75319062173366546630859375</LatitudeDegrees>
              <LongitudeDegrees>-0.2129554934799671173095703125</LongitudeDegrees>
            </Position>
            <AltitudeMeters>2373.800048828125</AltitudeMeters>
            <DistanceMeters>34893.593949418</DistanceMeters>
          </Trackpoint>
          <Trackpoint>
            <Time>2022-07-10T10:35:08.000Z</Time>
            <Position>
              <LatitudeDegrees>42.75321417488157749176025390625</LatitudeDegrees>
              <LongitudeDegrees>-0.21297301165759563446044921875</LongitudeDegrees>
            </Position>
            <AltitudeMeters>2373.800048828125</AltitudeMeters>
            <DistanceMeters>34896.580873509</DistanceMeters>
          </Trackpoint>
          <Trackpoint>
            <Time>2022-07-10T10:35:11.000Z</Time>
            <Position>
              <LatitudeDegrees>42.75323781184852123260498046875</LatitudeDegrees>
              <LongitudeDegrees>-0.21299622952938079833984375</LongitudeDegrees>
            </Position>
            <AltitudeMeters>2373.199951171875</AltitudeMeters>
            <DistanceMeters>34899.825726223</DistanceMeters>
          </Trackpoint>
          <Trackpoint>
            <Time>2022-07-10T10:35:12.000Z</Time>
            <Position>
              <LatitudeDegrees>42.75324384681880474090576171875</LatitudeDegrees>
              <LongitudeDegrees>-0.21301039494574069976806640625</LongitudeDegrees>
            </Position>
            <AltitudeMeters>2372.800048828125</AltitudeMeters>
            <DistanceMeters>34901.162870619</DistanceMeters>
          </Trackpoint>
          <Trackpoint>
            <Time>2022-07-10T10:35:13.000Z</Time>
            <Position>
              <LatitudeDegrees>42.7532481215894222259521484375</LatitudeDegrees>
              <LongitudeDegrees>-0.21302011795341968536376953125</LongitudeDegrees>
            </Position>
            <AltitudeMeters>2372.60009765625</AltitudeMeters>
            <DistanceMeters>34902.089076461</DistanceMeters>
          </Trackpoint>
          <Trackpoint>
            <Time>2022-07-10T10:35:17.000Z</Time>
            <Position>
              <LatitudeDegrees>42.75326496921479701995849609375</LatitudeDegrees>
              <LongitudeDegrees>-0.2130637876689434051513671875</LongitudeDegrees>
            </Position>
            <AltitudeMeters>2372.199951171875</AltitudeMeters>
            <DistanceMeters>34906.120718509</DistanceMeters>
          </Trackpoint>
          <Trackpoint>
            <Time>2022-07-10T10:35:18.000Z</Time>
            <Position>
              <LatitudeDegrees>42.7532709203660488128662109375</LatitudeDegrees>
              <LongitudeDegrees>-0.213070996105670928955078125</LongitudeDegrees>
            </Position>
            <AltitudeMeters>2371.60009765625</AltitudeMeters>
            <DistanceMeters>34907.001960005</DistanceMeters>
          </Trackpoint>
          <Trackpoint>
            <Time>2022-07-10T10:35:20.000Z</Time>
            <Position>
              <LatitudeDegrees>42.753273434937000274658203125</LatitudeDegrees>
              <LongitudeDegrees>-0.2130892686545848846435546875</LongitudeDegrees>
            </Position>
            <AltitudeMeters>2371</AltitudeMeters>
            <DistanceMeters>34908.522387434</DistanceMeters>
          </Trackpoint>
          <Trackpoint>
            <Time>2022-07-10T10:35:21.000Z</Time>
            <Position>
              <LatitudeDegrees>42.753269411623477935791015625</LatitudeDegrees>
              <LongitudeDegrees>-0.21310712210834026336669921875</LongitudeDegrees>
            </Position>
            <AltitudeMeters>2371</AltitudeMeters>
            <DistanceMeters>34910.054647163</DistanceMeters>
          </Trackpoint>
          <Trackpoint>
            <Time>2022-07-10T10:35:24.000Z</Time>
            <Position>
              <LatitudeDegrees>42.75327284820377826690673828125</LatitudeDegrees>
              <LongitudeDegrees>-0.2131403982639312744140625</LongitudeDegrees>
            </Position>
            <AltitudeMeters>2371</AltitudeMeters>
            <DistanceMeters>34912.802217709</DistanceMeters>
          </Trackpoint>
          <Trackpoint>
            <Time>2022-07-10T10:35:25.000Z</Time>
            <Position>
              <LatitudeDegrees>42.753272764384746551513671875</LatitudeDegrees>
              <LongitudeDegrees>-0.2131497859954833984375</LongitudeDegrees>
            </Position>
            <AltitudeMeters>2371.199951171875</AltitudeMeters>
            <DistanceMeters>34913.568347573</DistanceMeters>
          </Trackpoint>
          <Trackpoint>
            <Time>2022-07-10T10:35:28.000Z</Time>
            <Position>
              <LatitudeDegrees>42.753287851810455322265625</LatitudeDegrees>
              <LongitudeDegrees>-0.2131871692836284637451171875</LongitudeDegrees>
            </Position>
            <AltitudeMeters>2370.39990234375</AltitudeMeters>
            <DistanceMeters>34917.054675569</DistanceMeters>
          </Trackpoint>
          <Trackpoint>
            <Time>2022-07-10T10:35:31.000Z</Time>
            <Position>
              <LatitudeDegrees>42.7533121593296527862548828125</LatitudeDegrees>
              <LongitudeDegrees>-0.21321306936442852020263671875</LongitudeDegrees>
            </Position>
            <AltitudeMeters>2369.60009765625</AltitudeMeters>
            <DistanceMeters>34920.48881008</DistanceMeters>
          </Trackpoint>
          <Trackpoint>
            <Time>2022-07-10T10:35:32.000Z</Time>
            <Position>
              <LatitudeDegrees>42.75331961922347545623779296875</LatitudeDegrees>
              <LongitudeDegrees>-0.21321541629731655120849609375</LongitudeDegrees>
            </Position>
            <AltitudeMeters>2369.39990234375</AltitudeMeters>
            <DistanceMeters>34921.338754852</DistanceMeters>
          </Trackpoint>
          <Trackpoint>
            <Time>2022-07-10T10:35:36.000Z</Time>
            <Position>
              <LatitudeDegrees>42.75333235971629619598388671875</LatitudeDegrees>
              <LongitudeDegrees>-0.2132481895387172698974609375</LongitudeDegrees>
            </Position>
            <AltitudeMeters>2369.199951171875</AltitudeMeters>
            <DistanceMeters>34924.369198341</DistanceMeters>
          </Trackpoint>
          <Trackpoint>
            <Time>2022-07-10T10:35:37.000Z</Time>
            <Position>
              <LatitudeDegrees>42.75332741439342498779296875</LatitudeDegrees>
              <LongitudeDegrees>-0.21325883455574512481689453125</LongitudeDegrees>
            </Position>
            <AltitudeMeters>2368.800048828125</AltitudeMeters>
            <DistanceMeters>34925.40145268</DistanceMeters>
          </Trackpoint>
          <Trackpoint>
            <Time>2022-07-10T10:35:40.000Z</Time>
            <Position>
              <LatitudeDegrees>42.75331811048090457916259765625</LatitudeDegrees>
              <LongitudeDegrees>-0.2133058570325374603271484375</LongitudeDegrees>
            </Position>
            <AltitudeMeters>2368.39990234375</AltitudeMeters>
            <DistanceMeters>34929.380111249</DistanceMeters>
          </Trackpoint>
          <Trackpoint>
            <Time>2022-07-10T10:35:42.000Z</Time>
            <Position>
              <LatitudeDegrees>42.75331743992865085601806640625</LatitudeDegrees>
              <LongitudeDegrees>-0.21332211792469024658203125</LongitudeDegrees>
            </Position>
            <AltitudeMeters>2367.199951171875</AltitudeMeters>
            <DistanceMeters>34930.71048525</DistanceMeters>
          </Trackpoint>
          <Trackpoint>
            <Time>2022-07-10T10:35:43.000Z</Time>
            <Position>
              <LatitudeDegrees>42.753315679728984832763671875</LatitudeDegrees>
              <LongitudeDegrees>-0.2133313380181789398193359375</LongitudeDegrees>
            </Position>
            <AltitudeMeters>2366.800048828125</AltitudeMeters>
            <DistanceMeters>34931.48831243</DistanceMeters>
          </Trackpoint>
          <Trackpoint>
            <Time>2022-07-10T10:35:45.000Z</Time>
            <Position>
              <LatitudeDegrees>42.75330000557005405426025390625</LatitudeDegrees>
              <LongitudeDegrees>-0.21333494223654270172119140625</LongitudeDegrees>
            </Position>
            <AltitudeMeters>2366.199951171875</AltitudeMeters>
            <DistanceMeters>34933.258463985</DistanceMeters>
          </Trackpoint>
          <Trackpoint>
            <Time>2022-07-10T10:35:48.000Z</Time>
            <Position>
              <LatitudeDegrees>42.75329179130494594573974609375</LatitudeDegrees>
              <LongitudeDegrees>-0.2133725769817829132080078125</LongitudeDegrees>
            </Position>
            <AltitudeMeters>2365.39990234375</AltitudeMeters>
            <DistanceMeters>34936.468342054</DistanceMeters>
          </Trackpoint>
          <Trackpoint>
            <Time>2022-07-10T10:35:49.000Z</Time>
            <Position>
              <LatitudeDegrees>42.75330235250294208526611328125</LatitudeDegrees>
              <LongitudeDegrees>-0.21338246762752532958984375</LongitudeDegrees>
            </Position>
            <AltitudeMeters>2365</AltitudeMeters>
            <DistanceMeters>34937.89374277</DistanceMeters>
          </Trackpoint>
          <Trackpoint>
            <Time>2022-07-10T10:35:50.000Z</Time>
            <Position>
              <LatitudeDegrees>42.753312326967716217041015625</LatitudeDegrees>
              <LongitudeDegrees>-0.2133853174746036529541015625</LongitudeDegrees>
            </Position>
            <AltitudeMeters>2364.800048828125</AltitudeMeters>
            <DistanceMeters>34939.026116761</DistanceMeters>
          </Trackpoint>
          <Trackpoint>
            <Time>2022-07-10T10:35:52.000Z</Time>
            <Position>
              <LatitudeDegrees>42.75333085097372531890869140625</LatitudeDegrees>
              <LongitudeDegrees>-0.21338556893169879913330078125</LongitudeDegrees>
            </Position>
            <AltitudeMeters>2364.199951171875</AltitudeMeters>
            <DistanceMeters>34941.086246836</DistanceMeters>
          </Trackpoint>
          <Trackpoint>
            <Time>2022-07-10T10:35:53.000Z</Time>
            <Position>
              <LatitudeDegrees>42.7533403225243091583251953125</LatitudeDegrees>
              <LongitudeDegrees>-0.21339411847293376922607421875</LongitudeDegrees>
            </Position>
            <AltitudeMeters>2364</AltitudeMeters>
            <DistanceMeters>34942.350495044</DistanceMeters>
          </Trackpoint>
          <Trackpoint>
            <Time>2022-07-10T10:35:59.000Z</Time>
            <Position>
              <LatitudeDegrees>42.75340461172163486480712890625</LatitudeDegrees>
              <LongitudeDegrees>-0.213408283889293670654296875</LongitudeDegrees>
            </Position>
            <AltitudeMeters>2363.199951171875</AltitudeMeters>
            <DistanceMeters>34949.598735158</DistanceMeters>
          </Trackpoint>
          <Trackpoint>
            <Time>2022-07-10T10:36:01.000Z</Time>
            <Position>
              <LatitudeDegrees>42.753422968089580535888671875</LatitudeDegrees>
              <LongitudeDegrees>-0.21340526640415191650390625</LongitudeDegrees>
            </Position>
            <AltitudeMeters>2363</AltitudeMeters>
            <DistanceMeters>34951.654477305</DistanceMeters>
          </Trackpoint>
          <Trackpoint>
            <Time>2022-07-10T10:36:02.000Z</Time>
            <Position>
              <LatitudeDegrees>42.75343026034533977508544921875</LatitudeDegrees>
              <LongitudeDegrees>-0.21340048871934413909912109375</LongitudeDegrees>
            </Position>
            <AltitudeMeters>2362.60009765625</AltitudeMeters>
            <DistanceMeters>34952.555979873</DistanceMeters>
          </Trackpoint>
          <Trackpoint>
            <Time>2022-07-10T10:36:05.000Z</Time>
            <Position>
              <LatitudeDegrees>42.75344467721879482269287109375</LatitudeDegrees>
              <LongitudeDegrees>-0.21338188089430332183837890625</LongitudeDegrees>
            </Position>
            <AltitudeMeters>2362</AltitudeMeters>
            <DistanceMeters>34954.76624487</DistanceMeters>
          </Trackpoint>
          <Trackpoint>
            <Time>2022-07-10T10:36:06.000Z</Time>
            <Position>
              <LatitudeDegrees>42.7534409053623676300048828125</LatitudeDegrees>
              <LongitudeDegrees>-0.21338607184588909149169921875</LongitudeDegrees>
            </Position>
            <AltitudeMeters>2361.800048828125</AltitudeMeters>
            <DistanceMeters>34955.303797143</DistanceMeters>
          </Trackpoint>
          <Trackpoint>
            <Time>2022-07-10T10:36:08.000Z</Time>
            <Position>
              <LatitudeDegrees>42.75344409048557281494140625</LatitudeDegrees>
              <LongitudeDegrees>-0.21341037936508655548095703125</LongitudeDegrees>
            </Position>
            <AltitudeMeters>2361.800048828125</AltitudeMeters>
            <DistanceMeters>34957.319618167</DistanceMeters>
          </Trackpoint>
          <Trackpoint>
            <Time>2022-07-10T10:36:10.000Z</Time>
            <Position>
              <LatitudeDegrees>42.75346563197672367095947265625</LatitudeDegrees>
              <LongitudeDegrees>-0.21343770436942577362060546875</LongitudeDegrees>
            </Position>
            <AltitudeMeters>2361.60009765625</AltitudeMeters>
            <DistanceMeters>34960.594939649</DistanceMeters>
          </Trackpoint>
          <Trackpoint>
            <Time>2022-07-10T10:36:12.000Z</Time>
            <Position>
              <LatitudeDegrees>42.7534925378859043121337890625</LatitudeDegrees>
              <LongitudeDegrees>-0.21345530636608600616455078125</LongitudeDegrees>
            </Position>
            <AltitudeMeters>2361</AltitudeMeters>
            <DistanceMeters>34963.916799582</DistanceMeters>
          </Trackpoint>
          <Trackpoint>
            <Time>2022-07-10T10:36:13.000Z</Time>
            <Position>
              <LatitudeDegrees>42.75350217707455158233642578125</LatitudeDegrees>
              <LongitudeDegrees>-0.21345916204154491424560546875</LongitudeDegrees>
            </Position>
            <AltitudeMeters>2360.800048828125</AltitudeMeters>
            <DistanceMeters>34965.037148022</DistanceMeters>
          </Trackpoint>
          <Trackpoint>
            <Time>2022-07-10T10:36:14.000Z</Time>
            <Position>
              <LatitudeDegrees>42.75351139716804027557373046875</LatitudeDegrees>
              <LongitudeDegrees>-0.213464610278606414794921875</LongitudeDegrees>
            </Position>
            <AltitudeMeters>2360.39990234375</AltitudeMeters>
            <DistanceMeters>34966.161519269</DistanceMeters>
          </Trackpoint>
          <Trackpoint>
            <Time>2022-07-10T10:36:16.000Z</Time>
            <Position>
              <LatitudeDegrees>42.7535250596702098846435546875</LatitudeDegrees>
              <LongitudeDegrees>-0.21346989087760448455810546875</LongitudeDegrees>
            </Position>
            <AltitudeMeters>2358.800048828125</AltitudeMeters>
            <DistanceMeters>34967.740221616</DistanceMeters>
          </Trackpoint>
          <Trackpoint>
            <Time>2022-07-10T10:36:17.000Z</Time>
            <Position>
              <LatitudeDegrees>42.75353201664984226226806640625</LatitudeDegrees>
              <LongitudeDegrees>-0.213478021323680877685546875</LongitudeDegrees>
            </Position>
            <AltitudeMeters>2358.199951171875</AltitudeMeters>
            <DistanceMeters>34968.759269598</DistanceMeters>
          </Trackpoint>
          <Trackpoint>
            <Time>2022-07-10T10:36:19.000Z</Time>
            <Position>
              <LatitudeDegrees>42.75355448015034198760986328125</LatitudeDegrees>
              <LongitudeDegrees>-0.2134895883500576019287109375</LongitudeDegrees>
            </Position>
            <AltitudeMeters>2357.800048828125</AltitudeMeters>
            <DistanceMeters>34971.433558391</DistanceMeters>
          </Trackpoint>
          <Trackpoint>
            <Time>2022-07-10T10:36:20.000Z</Time>
            <Position>
              <LatitudeDegrees>42.75356344878673553466796875</LatitudeDegrees>
              <LongitudeDegrees>-0.21349914371967315673828125</LongitudeDegrees>
            </Position>
            <AltitudeMeters>2357.60009765625</AltitudeMeters>
            <DistanceMeters>34972.701372891</DistanceMeters>
          </Trackpoint>
          <Trackpoint>
            <Time>2022-07-10T10:36:25.000Z</Time>
            <Position>
              <LatitudeDegrees>42.75362639687955379486083984375</LatitudeDegrees>
              <LongitudeDegrees>-0.21354834549129009246826171875</LongitudeDegrees>
            </Position>
            <AltitudeMeters>2357.39990234375</AltitudeMeters>
            <DistanceMeters>34980.78032038</DistanceMeters>
          </Trackpoint>
          <Trackpoint>
            <Time>2022-07-10T10:36:31.000Z</Time>
            <Position>
              <LatitudeDegrees>42.753653638064861297607421875</LatitudeDegrees>
              <LongitudeDegrees>-0.21359494887292385101318359375</LongitudeDegrees>
            </Position>
            <AltitudeMeters>2357.199951171875</AltitudeMeters>
            <DistanceMeters>34985.648063244</DistanceMeters>
          </Trackpoint>
          <Trackpoint>
            <Time>2022-07-10T10:36:32.000Z</Time>
            <Position>
              <LatitudeDegrees>42.75364902801811695098876953125</LatitudeDegrees>
              <LongitudeDegrees>-0.21359696052968502044677734375</LongitudeDegrees>
            </Position>
            <AltitudeMeters>2357.199951171875</AltitudeMeters>
            <DistanceMeters>34986.185615517</DistanceMeters>
          </Trackpoint>
          <Trackpoint>
            <Time>2022-07-10T10:36:38.000Z</Time>
            <Position>
              <LatitudeDegrees>42.7536754310131072998046875</LatitudeDegrees>
              <LongitudeDegrees>-0.21361439488828182220458984375</LongitudeDegrees>
            </Position>
            <AltitudeMeters>2357.39990234375</AltitudeMeters>
            <DistanceMeters>34989.451273227</DistanceMeters>
          </Trackpoint>
          <Trackpoint>
            <Time>2022-07-10T10:36:44.000Z</Time>
            <Position>
              <LatitudeDegrees>42.753686495125293731689453125</LatitudeDegrees>
              <LongitudeDegrees>-0.21362386643886566162109375</LongitudeDegrees>
            </Position>
            <AltitudeMeters>2357.39990234375</AltitudeMeters>
            <DistanceMeters>34990.901793069</DistanceMeters>
          </Trackpoint>
          <Trackpoint>
            <Time>2022-07-10T10:36:47.000Z</Time>
            <Position>
              <LatitudeDegrees>42.7536997385323047637939453125</LatitudeDegrees>
              <LongitudeDegrees>-0.2136461623013019561767578125</LongitudeDegrees>
            </Position>
            <AltitudeMeters>2357</AltitudeMeters>
            <DistanceMeters>34993.244929104</DistanceMeters>
          </Trackpoint>
          <Trackpoint>
            <Time>2022-07-10T10:36:48.000Z</Time>
            <Position>
              <LatitudeDegrees>42.7537022531032562255859375</LatitudeDegrees>
              <LongitudeDegrees>-0.21364943124353885650634765625</LongitudeDegrees>
            </Position>
            <AltitudeMeters>2357</AltitudeMeters>
            <DistanceMeters>34993.648093309</DistanceMeters>
          </Trackpoint>
          <Trackpoint>
            <Time>2022-07-10T10:36:49.000Z</Time>
            <Position>
              <LatitudeDegrees>42.75370367802679538726806640625</LatitudeDegrees>
              <LongitudeDegrees>-0.21365496329963207244873046875</LongitudeDegrees>
            </Position>
            <AltitudeMeters>2356.800048828125</AltitudeMeters>
            <DistanceMeters>34994.13263638</DistanceMeters>
          </Trackpoint>
          <Trackpoint>
            <Time>2022-07-10T10:36:50.000Z</Time>
            <Position>
              <LatitudeDegrees>42.75370518676936626434326171875</LatitudeDegrees>
              <LongitudeDegrees>-0.21365798078477382659912109375</LongitudeDegrees>
            </Position>
            <AltitudeMeters>2356.60009765625</AltitudeMeters>
            <DistanceMeters>34994.401412516</DistanceMeters>
          </Trackpoint>
          <Trackpoint>
            <Time>2022-07-10T10:36:51.000Z</Time>
            <Position>
              <LatitudeDegrees>42.7537071146070957183837890625</LatitudeDegrees>
              <LongitudeDegrees>-0.21365932188928127288818359375</LongitudeDegrees>
            </Position>
            <AltitudeMeters>2356.60009765625</AltitudeMeters>
            <DistanceMeters>34994.634179478</DistanceMeters>
          </Trackpoint>
          <Trackpoint>
            <Time>2022-07-10T10:36:54.000Z</Time>
            <Position>
              <LatitudeDegrees>42.75371893309056758880615234375</LatitudeDegrees>
              <LongitudeDegrees>-0.21367088891565799713134765625</LongitudeDegrees>
            </Position>
            <AltitudeMeters>2356.60009765625</AltitudeMeters>
            <DistanceMeters>34996.255213792</DistanceMeters>
          </Trackpoint>
          <Trackpoint>
            <Time>2022-07-10T10:36:55.000Z</Time>
            <Position>
              <LatitudeDegrees>42.753721363842487335205078125</LatitudeDegrees>
              <LongitudeDegrees>-0.21368145011365413665771484375</LongitudeDegrees>
            </Position>
            <AltitudeMeters>2356.60009765625</AltitudeMeters>
            <DistanceMeters>34997.15671636</DistanceMeters>
          </Trackpoint>
          <Trackpoint>
            <Time>2022-07-10T10:37:00.000Z</Time>
            <Position>
              <LatitudeDegrees>42.75371499359607696533203125</LatitudeDegrees>
              <LongitudeDegrees>-0.2137021534144878387451171875</LongitudeDegrees>
            </Position>
            <AltitudeMeters>2356.199951171875</AltitudeMeters>
            <DistanceMeters>34998.991987052</DistanceMeters>
          </Trackpoint>
          <Trackpoint>
            <Time>2022-07-10T10:37:02.000Z</Time>
            <Position>
              <LatitudeDegrees>42.75370904244482517242431640625</LatitudeDegrees>
              <LongitudeDegrees>-0.21371296606957912445068359375</LongitudeDegrees>
            </Position>
            <AltitudeMeters>2355.60009765625</AltitudeMeters>
            <DistanceMeters>35000.092000799</DistanceMeters>
          </Trackpoint>
          <Trackpoint>
            <Time>2022-07-10T10:37:07.000Z</Time>
            <Position>
              <LatitudeDegrees>42.75369211100041866302490234375</LatitudeDegrees>
              <LongitudeDegrees>-0.21374330855906009674072265625</LongitudeDegrees>
            </Position>
            <AltitudeMeters>2354.39990234375</AltitudeMeters>
            <DistanceMeters>35003.206210506</DistanceMeters>
          </Trackpoint>
          <Trackpoint>
            <Time>2022-07-10T10:37:12.000Z</Time>
            <Position>
              <LatitudeDegrees>42.75367450900375843048095703125</LatitudeDegrees>
              <LongitudeDegrees>-0.21378018893301486968994140625</LongitudeDegrees>
            </Position>
            <AltitudeMeters>2353.800048828125</AltitudeMeters>
            <DistanceMeters>35006.800934333</DistanceMeters>
          </Trackpoint>
          <Trackpoint>
            <Time>2022-07-10T10:37:14.000Z</Time>
            <Position>
              <LatitudeDegrees>42.75367383845150470733642578125</LatitudeDegrees>
              <LongitudeDegrees>-0.2137956954538822174072265625</LongitudeDegrees>
            </Position>
            <AltitudeMeters>2353.39990234375</AltitudeMeters>
            <DistanceMeters>35008.075851491</DistanceMeters>
          </Trackpoint>
          <Trackpoint>
            <Time>2022-07-10T10:37:16.000Z</Time>
            <Position>
              <LatitudeDegrees>42.75367400608956813812255859375</LatitudeDegrees>
              <LongitudeDegrees>-0.213815979659557342529296875</LongitudeDegrees>
            </Position>
            <AltitudeMeters>2353</AltitudeMeters>
            <DistanceMeters>35009.73269887</DistanceMeters>
          </Trackpoint>
          <Trackpoint>
            <Time>2022-07-10T10:37:22.000Z</Time>
            <Position>
              <LatitudeDegrees>42.75368875823915004730224609375</LatitudeDegrees>
              <LongitudeDegrees>-0.21385462023317813873291015625</LongitudeDegrees>
            </Position>
            <AltitudeMeters>2352</AltitudeMeters>
            <DistanceMeters>35013.290811737</DistanceMeters>
          </Trackpoint>
          <Trackpoint>
            <Time>2022-07-10T10:37:28.000Z</Time>
            <Position>
              <LatitudeDegrees>42.753740139305591583251953125</LatitudeDegrees>
              <LongitudeDegrees>-0.2138811908662319183349609375</LongitudeDegrees>
            </Position>
            <AltitudeMeters>2352</AltitudeMeters>
            <DistanceMeters>35019.408052683</DistanceMeters>
          </Trackpoint>
          <Trackpoint>
            <Time>2022-07-10T10:37:29.000Z</Time>
            <Position>
              <LatitudeDegrees>42.75374810211360454559326171875</LatitudeDegrees>
              <LongitudeDegrees>-0.2138889022171497344970703125</LongitudeDegrees>
            </Position>
            <AltitudeMeters>2352</AltitudeMeters>
            <DistanceMeters>35020.491523927</DistanceMeters>
          </Trackpoint>
          <Trackpoint>
            <Time>2022-07-10T10:37:35.000Z</Time>
            <Position>
              <LatitudeDegrees>42.75380090810358524322509765625</LatitudeDegrees>
              <LongitudeDegrees>-0.2139324881136417388916015625</LongitudeDegrees>
            </Position>
            <AltitudeMeters>2351.39990234375</AltitudeMeters>
            <DistanceMeters>35027.364393043</DistanceMeters>
          </Trackpoint>
          <Trackpoint>
            <Time>2022-07-10T10:37:40.000Z</Time>
            <Position>
              <LatitudeDegrees>42.75386611931025981903076171875</LatitudeDegrees>
              <LongitudeDegrees>-0.213967524468898773193359375</LongitudeDegrees>
            </Position>
            <AltitudeMeters>2351.199951171875</AltitudeMeters>
            <DistanceMeters>35035.167006412</DistanceMeters>
          </Trackpoint>
          <Trackpoint>
            <Time>2022-07-10T10:37:42.000Z</Time>
            <Position>
              <LatitudeDegrees>42.75388807989656925201416015625</LatitudeDegrees>
              <LongitudeDegrees>-0.2139794267714023590087890625</LongitudeDegrees>
            </Position>
            <AltitudeMeters>2351</AltitudeMeters>
            <DistanceMeters>35037.797032753</DistanceMeters>
          </Trackpoint>
          <Trackpoint>
            <Time>2022-07-10T10:37:45.000Z</Time>
            <Position>
              <LatitudeDegrees>42.75391615927219390869140625</LatitudeDegrees>
              <LongitudeDegrees>-0.213996358215808868408203125</LongitudeDegrees>
            </Position>
            <AltitudeMeters>2350.60009765625</AltitudeMeters>
            <DistanceMeters>35041.21403273</DistanceMeters>
          </Trackpoint>
          <Trackpoint>
            <Time>2022-07-10T10:37:49.000Z</Time>
            <Position>
              <LatitudeDegrees>42.7539451606571674346923828125</LatitudeDegrees>
              <LongitudeDegrees>-0.21401387639343738555908203125</LongitudeDegrees>
            </Position>
            <AltitudeMeters>2350</AltitudeMeters>
            <DistanceMeters>35044.744118493</DistanceMeters>
          </Trackpoint>
          <Trackpoint>
            <Time>2022-07-10T10:37:50.000Z</Time>
            <Position>
              <LatitudeDegrees>42.75395371019840240478515625</LatitudeDegrees>
              <LongitudeDegrees>-0.21401546895503997802734375</LongitudeDegrees>
            </Position>
            <AltitudeMeters>2349.800048828125</AltitudeMeters>
            <DistanceMeters>35045.703841264</DistanceMeters>
          </Trackpoint>
          <Trackpoint>
            <Time>2022-07-10T10:37:53.000Z</Time>
            <Position>
              <LatitudeDegrees>42.7539703063666820526123046875</LatitudeDegrees>
              <LongitudeDegrees>-0.214026868343353271484375</LongitudeDegrees>
            </Position>
            <AltitudeMeters>2349.39990234375</AltitudeMeters>
            <DistanceMeters>35047.772719277</DistanceMeters>
          </Trackpoint>
          <Trackpoint>
            <Time>2022-07-10T10:37:55.000Z</Time>
            <Position>
              <LatitudeDegrees>42.75398396886885166168212890625</LatitudeDegrees>
              <LongitudeDegrees>-0.214040614664554595947265625</LongitudeDegrees>
            </Position>
            <AltitudeMeters>2349</AltitudeMeters>
            <DistanceMeters>35049.666113148</DistanceMeters>
          </Trackpoint>
          <Trackpoint>
            <Time>2022-07-10T10:37:56.000Z</Time>
            <Position>
              <LatitudeDegrees>42.75399453006684780120849609375</LatitudeDegrees>
              <LongitudeDegrees>-0.2140443027019500732421875</LongitudeDegrees>
            </Position>
            <AltitudeMeters>2348.800048828125</AltitudeMeters>
            <DistanceMeters>35050.879333021</DistanceMeters>
          </Trackpoint>
          <Trackpoint>
            <Time>2022-07-10T10:37:58.000Z</Time>
            <Position>
              <LatitudeDegrees>42.754017747938632965087890625</LatitudeDegrees>
              <LongitudeDegrees>-0.2140528522431850433349609375</LongitudeDegrees>
            </Position>
            <AltitudeMeters>2348.60009765625</AltitudeMeters>
            <DistanceMeters>35053.555309594</DistanceMeters>
          </Trackpoint>
          <Trackpoint>
            <Time>2022-07-10T10:38:00.000Z</Time>
            <Position>
              <LatitudeDegrees>42.754035852849483489990234375</LatitudeDegrees>
              <LongitudeDegrees>-0.2140603959560394287109375</LongitudeDegrees>
            </Position>
            <AltitudeMeters>2347.800048828125</AltitudeMeters>
            <DistanceMeters>35055.663104083</DistanceMeters>
          </Trackpoint>
          <Trackpoint>
            <Time>2022-07-10T10:38:01.000Z</Time>
            <Position>
              <LatitudeDegrees>42.75404582731425762176513671875</LatitudeDegrees>
              <LongitudeDegrees>-0.2140711247920989990234375</LongitudeDegrees>
            </Position>
            <AltitudeMeters>2347.60009765625</AltitudeMeters>
            <DistanceMeters>35057.078970239</DistanceMeters>
          </Trackpoint>
          <Trackpoint>
            <Time>2022-07-10T10:38:02.000Z</Time>
            <Position>
              <LatitudeDegrees>42.7540517784655094146728515625</LatitudeDegrees>
              <LongitudeDegrees>-0.2140803448855876922607421875</LongitudeDegrees>
            </Position>
            <AltitudeMeters>2347.39990234375</AltitudeMeters>
            <DistanceMeters>35058.084638455</DistanceMeters>
          </Trackpoint>
          <Trackpoint>
            <Time>2022-07-10T10:38:04.000Z</Time>
            <Position>
              <LatitudeDegrees>42.7540615014731884002685546875</LatitudeDegrees>
              <LongitudeDegrees>-0.2140961028635501861572265625</LongitudeDegrees>
            </Position>
            <AltitudeMeters>2347.199951171875</AltitudeMeters>
            <DistanceMeters>35059.768516124</DistanceMeters>
          </Trackpoint>
          <Trackpoint>
            <Time>2022-07-10T10:38:07.000Z</Time>
            <Position>
              <LatitudeDegrees>42.7540782652795314788818359375</LatitudeDegrees>
              <LongitudeDegrees>-0.2141162194311618804931640625</LongitudeDegrees>
            </Position>
            <AltitudeMeters>2346.800048828125</AltitudeMeters>
            <DistanceMeters>35062.255603249</DistanceMeters>
          </Trackpoint>
          <Trackpoint>
            <Time>2022-07-10T10:38:09.000Z</Time>
            <Position>
              <LatitudeDegrees>42.75408891029655933380126953125</LatitudeDegrees>
              <LongitudeDegrees>-0.21412351168692111968994140625</LongitudeDegrees>
            </Position>
            <AltitudeMeters>2346.60009765625</AltitudeMeters>
            <DistanceMeters>35063.579172223</DistanceMeters>
          </Trackpoint>
          <Trackpoint>
            <Time>2022-07-10T10:38:10.000Z</Time>
            <Position>
              <LatitudeDegrees>42.7540938556194305419921875</LatitudeDegrees>
              <LongitudeDegrees>-0.2141292952001094818115234375</LongitudeDegrees>
            </Position>
            <AltitudeMeters>2346.199951171875</AltitudeMeters>
            <DistanceMeters>35064.302874119</DistanceMeters>
          </Trackpoint>
          <Trackpoint>
            <Time>2022-07-10T10:38:12.000Z</Time>
            <Position>
              <LatitudeDegrees>42.75410064496099948883056640625</LatitudeDegrees>
              <LongitudeDegrees>-0.21413792856037616729736328125</LongitudeDegrees>
            </Position>
            <AltitudeMeters>2345.60009765625</AltitudeMeters>
            <DistanceMeters>35065.335128458</DistanceMeters>
          </Trackpoint>
          <Trackpoint>
            <Time>2022-07-10T10:38:14.000Z</Time>
            <Position>
              <LatitudeDegrees>42.7541091106832027435302734375</LatitudeDegrees>
              <LongitudeDegrees>-0.2141443826258182525634765625</LongitudeDegrees>
            </Position>
            <AltitudeMeters>2344.800048828125</AltitudeMeters>
            <DistanceMeters>35066.418599702</DistanceMeters>
          </Trackpoint>
          <Trackpoint>
            <Time>2022-07-10T10:38:17.000Z</Time>
            <Position>
              <LatitudeDegrees>42.75412528775632381439208984375</LatitudeDegrees>
              <LongitudeDegrees>-0.214161314070224761962890625</LongitudeDegrees>
            </Position>
            <AltitudeMeters>2344.39990234375</AltitudeMeters>
            <DistanceMeters>35068.689320656</DistanceMeters>
          </Trackpoint>
          <Trackpoint>
            <Time>2022-07-10T10:38:20.000Z</Time>
            <Position>
              <LatitudeDegrees>42.7541480027139186859130859375</LatitudeDegrees>
              <LongitudeDegrees>-0.21418671123683452606201171875</LongitudeDegrees>
            </Position>
            <AltitudeMeters>2343.800048828125</AltitudeMeters>
            <DistanceMeters>35071.960504018</DistanceMeters>
          </Trackpoint>
          <Trackpoint>
            <Time>2022-07-10T10:38:23.000Z</Time>
            <Position>
              <LatitudeDegrees>42.75418429635465145111083984375</LatitudeDegrees>
              <LongitudeDegrees>-0.21419827826321125030517578125</LongitudeDegrees>
            </Position>
            <AltitudeMeters>2343.39990234375</AltitudeMeters>
            <DistanceMeters>35076.109157498</DistanceMeters>
          </Trackpoint>
          <Trackpoint>
            <Time>2022-07-10T10:38:25.000Z</Time>
            <Position>
              <LatitudeDegrees>42.75420525111258029937744140625</LatitudeDegrees>
              <LongitudeDegrees>-0.2142107672989368438720703125</LongitudeDegrees>
            </Position>
            <AltitudeMeters>2343.199951171875</AltitudeMeters>
            <DistanceMeters>35078.655447915</DistanceMeters>
          </Trackpoint>
          <Trackpoint>
            <Time>2022-07-10T10:38:26.000Z</Time>
            <Position>
              <LatitudeDegrees>42.75421681813895702362060546875</LatitudeDegrees>
              <LongitudeDegrees>-0.21422493271529674530029296875</LongitudeDegrees>
            </Position>
            <AltitudeMeters>2343</AltitudeMeters>
            <DistanceMeters>35080.384307453</DistanceMeters>
          </Trackpoint>
          <Trackpoint>
            <Time>2022-07-10T10:38:29.000Z</Time>
            <Position>
              <LatitudeDegrees>42.7542445622384548187255859375</LatitudeDegrees>
              <LongitudeDegrees>-0.2142647467553615570068359375</LongitudeDegrees>
            </Position>
            <AltitudeMeters>2343</AltitudeMeters>
            <DistanceMeters>35084.871742185</DistanceMeters>
          </Trackpoint>
          <Trackpoint>
            <Time>2022-07-10T10:38:30.000Z</Time>
            <Position>
              <LatitudeDegrees>42.7542552910745143890380859375</LatitudeDegrees>
              <LongitudeDegrees>-0.21426969207823276519775390625</LongitudeDegrees>
            </Position>
            <AltitudeMeters>2342.800048828125</AltitudeMeters>
            <DistanceMeters>35086.132414011</DistanceMeters>
          </Trackpoint>
          <Trackpoint>
            <Time>2022-07-10T10:38:33.000Z</Time>
            <Position>
              <LatitudeDegrees>42.75427767075598239898681640625</LatitudeDegrees>
              <LongitudeDegrees>-0.21429114975035190582275390625</LongitudeDegrees>
            </Position>
            <AltitudeMeters>2342.199951171875</AltitudeMeters>
            <DistanceMeters>35089.179202252</DistanceMeters>
          </Trackpoint>
          <Trackpoint>
            <Time>2022-07-10T10:38:35.000Z</Time>
            <Position>
              <LatitudeDegrees>42.75429275818169116973876953125</LatitudeDegrees>
              <LongitudeDegrees>-0.21430380642414093017578125</LongitudeDegrees>
            </Position>
            <AltitudeMeters>2342</AltitudeMeters>
            <DistanceMeters>35091.154295421</DistanceMeters>
          </Trackpoint>
          <Trackpoint>
            <Time>2022-07-10T10:38:38.000Z</Time>
            <Position>
              <LatitudeDegrees>42.75430700741708278656005859375</LatitudeDegrees>
              <LongitudeDegrees>-0.214321911334991455078125</LongitudeDegrees>
            </Position>
            <AltitudeMeters>2341.39990234375</AltitudeMeters>
            <DistanceMeters>35093.325401107</DistanceMeters>
          </Trackpoint>
          <Trackpoint>
            <Time>2022-07-10T10:38:39.000Z</Time>
            <Position>
              <LatitudeDegrees>42.7543102763593196868896484375</LatitudeDegrees>
              <LongitudeDegrees>-0.21432459354400634765625</LongitudeDegrees>
            </Position>
            <AltitudeMeters>2341.199951171875</AltitudeMeters>
            <DistanceMeters>35093.750373493</DistanceMeters>
          </Trackpoint>
          <Trackpoint>
            <Time>2022-07-10T10:38:45.000Z</Time>
            <Position>
              <LatitudeDegrees>42.754357047379016876220703125</LatitudeDegrees>
              <LongitudeDegrees>-0.2143660001456737518310546875</LongitudeDegrees>
            </Position>
            <AltitudeMeters>2340.60009765625</AltitudeMeters>
            <DistanceMeters>35099.959189511</DistanceMeters>
          </Trackpoint>
          <Trackpoint>
            <Time>2022-07-10T10:38:46.000Z</Time>
            <Position>
              <LatitudeDegrees>42.754367776215076446533203125</LatitudeDegrees>
              <LongitudeDegrees>-0.2143794111907482147216796875</LongitudeDegrees>
            </Position>
            <AltitudeMeters>2340.60009765625</AltitudeMeters>
            <DistanceMeters>35101.580223824</DistanceMeters>
          </Trackpoint>
          <Trackpoint>
            <Time>2022-07-10T10:38:48.000Z</Time>
            <Position>
              <LatitudeDegrees>42.7543880604207515716552734375</LatitudeDegrees>
              <LongitudeDegrees>-0.214396677911281585693359375</LongitudeDegrees>
            </Position>
            <AltitudeMeters>2340.39990234375</AltitudeMeters>
            <DistanceMeters>35104.244363476</DistanceMeters>
          </Trackpoint>
          <Trackpoint>
            <Time>2022-07-10T10:38:52.000Z</Time>
            <Position>
              <LatitudeDegrees>42.754431478679180145263671875</LatitudeDegrees>
              <LongitudeDegrees>-0.21442593075335025787353515625</LongitudeDegrees>
            </Position>
            <AltitudeMeters>2339.800048828125</AltitudeMeters>
            <DistanceMeters>35109.636658549</DistanceMeters>
          </Trackpoint>
          <Trackpoint>
            <Time>2022-07-10T10:38:53.000Z</Time>
            <Position>
              <LatitudeDegrees>42.7544396929442882537841796875</LatitudeDegrees>
              <LongitudeDegrees>-0.21443213336169719696044921875</LongitudeDegrees>
            </Position>
            <AltitudeMeters>2339.800048828125</AltitudeMeters>
            <DistanceMeters>35110.686262915</DistanceMeters>
          </Trackpoint>
          <Trackpoint>
            <Time>2022-07-10T10:38:54.000Z</Time>
            <Position>
              <LatitudeDegrees>42.75444564409554004669189453125</LatitudeDegrees>
              <LongitudeDegrees>-0.2144390903413295745849609375</LongitudeDegrees>
            </Position>
            <AltitudeMeters>2339.199951171875</AltitudeMeters>
            <DistanceMeters>35111.557197139</DistanceMeters>
          </Trackpoint>
          <Trackpoint>
            <Time>2022-07-10T10:38:56.000Z</Time>
            <Position>
              <LatitudeDegrees>42.7544611506164073944091796875</LatitudeDegrees>
              <LongitudeDegrees>-0.214445292949676513671875</LongitudeDegrees>
            </Position>
            <AltitudeMeters>2339</AltitudeMeters>
            <DistanceMeters>35113.355186951</DistanceMeters>
          </Trackpoint>
          <Trackpoint>
            <Time>2022-07-10T10:38:57.000Z</Time>
            <Position>
              <LatitudeDegrees>42.75446877814829349517822265625</LatitudeDegrees>
              <LongitudeDegrees>-0.21445057354867458343505859375</LongitudeDegrees>
            </Position>
            <AltitudeMeters>2338.800048828125</AltitudeMeters>
            <DistanceMeters>35114.305454095</DistanceMeters>
          </Trackpoint>
          <Trackpoint>
            <Time>2022-07-10T10:38:59.000Z</Time>
            <Position>
              <LatitudeDegrees>42.75448487140238285064697265625</LatitudeDegrees>
              <LongitudeDegrees>-0.21445945836603641510009765625</LongitudeDegrees>
            </Position>
            <AltitudeMeters>2338.39990234375</AltitudeMeters>
            <DistanceMeters>35116.234285735</DistanceMeters>
          </Trackpoint>
          <Trackpoint>
            <Time>2022-07-10T10:39:00.000Z</Time>
            <Position>
              <LatitudeDegrees>42.75449492968618869781494140625</LatitudeDegrees>
              <LongitudeDegrees>-0.21446448750793933868408203125</LongitudeDegrees>
            </Position>
            <AltitudeMeters>2338.199951171875</AltitudeMeters>
            <DistanceMeters>35117.424967053</DistanceMeters>
          </Trackpoint>
          <Trackpoint>
            <Time>2022-07-10T10:39:05.000Z</Time>
            <Position>
              <LatitudeDegrees>42.75454220362007617950439453125</LatitudeDegrees>
              <LongitudeDegrees>-0.2144895493984222412109375</LongitudeDegrees>
            </Position>
            <AltitudeMeters>2337.199951171875</AltitudeMeters>
            <DistanceMeters>35123.070865551</DistanceMeters>
          </Trackpoint>
          <Trackpoint>
            <Time>2022-07-10T10:39:06.000Z</Time>
            <Position>
              <LatitudeDegrees>42.75455041788518428802490234375</LatitudeDegrees>
              <LongitudeDegrees>-0.2144949138164520263671875</LongitudeDegrees>
            </Position>
            <AltitudeMeters>2337</AltitudeMeters>
            <DistanceMeters>35124.081013381</DistanceMeters>
          </Trackpoint>
          <Trackpoint>
            <Time>2022-07-10T10:39:07.000Z</Time>
            <Position>
              <LatitudeDegrees>42.75455854833126068115234375</LatitudeDegrees>
              <LongitudeDegrees>-0.214499272406101226806640625</LongitudeDegrees>
            </Position>
            <AltitudeMeters>2336.800048828125</AltitudeMeters>
            <DistanceMeters>35125.054747444</DistanceMeters>
          </Trackpoint>
          <Trackpoint>
            <Time>2022-07-10T10:39:09.000Z</Time>
            <Position>
              <LatitudeDegrees>42.7545754797756671905517578125</LatitudeDegrees>
              <LongitudeDegrees>-0.2145007811486721038818359375</LongitudeDegrees>
            </Position>
            <AltitudeMeters>2336.39990234375</AltitudeMeters>
            <DistanceMeters>35126.945755184</DistanceMeters>
          </Trackpoint>
          <Trackpoint>
            <Time>2022-07-10T10:39:10.000Z</Time>
            <Position>
              <LatitudeDegrees>42.7545833587646484375</LatitudeDegrees>
              <LongitudeDegrees>-0.2145017869770526885986328125</LongitudeDegrees>
            </Position>
            <AltitudeMeters>2336.39990234375</AltitudeMeters>
            <DistanceMeters>35127.82699668</DistanceMeters>
          </Trackpoint>
          <Trackpoint>
            <Time>2022-07-10T10:39:14.000Z</Time>
            <Position>
              <LatitudeDegrees>42.75462434627115726470947265625</LatitudeDegrees>
              <LongitudeDegrees>-0.21452316083014011383056640625</LongitudeDegrees>
            </Position>
            <AltitudeMeters>2335.800048828125</AltitudeMeters>
            <DistanceMeters>35132.711406774</DistanceMeters>
          </Trackpoint>
          <Trackpoint>
            <Time>2022-07-10T10:39:15.000Z</Time>
            <Position>
              <LatitudeDegrees>42.7546348236501216888427734375</LatitudeDegrees>
              <LongitudeDegrees>-0.21452852524816989898681640625</LongitudeDegrees>
            </Position>
            <AltitudeMeters>2335.60009765625</AltitudeMeters>
            <DistanceMeters>35133.954042309</DistanceMeters>
          </Trackpoint>
          <Trackpoint>
            <Time>2022-07-10T10:39:16.000Z</Time>
            <Position>
              <LatitudeDegrees>42.754644043743610382080078125</LatitudeDegrees>
              <LongitudeDegrees>-0.21453120745718479156494140625</LongitudeDegrees>
            </Position>
            <AltitudeMeters>2335.39990234375</AltitudeMeters>
            <DistanceMeters>35134.999336167</DistanceMeters>
          </Trackpoint>
          <Trackpoint>
            <Time>2022-07-10T10:39:18.000Z</Time>
            <Position>
              <LatitudeDegrees>42.75466089136898517608642578125</LatitudeDegrees>
              <LongitudeDegrees>-0.2145403437316417694091796875</LongitudeDegrees>
            </Position>
            <AltitudeMeters>2334.800048828125</AltitudeMeters>
            <DistanceMeters>35137.017395749</DistanceMeters>
          </Trackpoint>
          <Trackpoint>
            <Time>2022-07-10T10:39:20.000Z</Time>
            <Position>
              <LatitudeDegrees>42.7546753920614719390869140625</LatitudeDegrees>
              <LongitudeDegrees>-0.21454931236803531646728515625</LongitudeDegrees>
            </Position>
            <AltitudeMeters>2334.39990234375</AltitudeMeters>
            <DistanceMeters>35138.787547303</DistanceMeters>
          </Trackpoint>
          <Trackpoint>
            <Time>2022-07-10T10:39:22.000Z</Time>
            <Position>
              <LatitudeDegrees>42.75469056330621242523193359375</LatitudeDegrees>
              <LongitudeDegrees>-0.21455652080476284027099609375</LongitudeDegrees>
            </Position>
            <AltitudeMeters>2334</AltitudeMeters>
            <DistanceMeters>35140.575464265</DistanceMeters>
          </Trackpoint>
          <Trackpoint>
            <Time>2022-07-10T10:39:24.000Z</Time>
            <Position>
              <LatitudeDegrees>42.75470145978033542633056640625</LatitudeDegrees>
              <LongitudeDegrees>-0.21455056965351104736328125</LongitudeDegrees>
            </Position>
            <AltitudeMeters>2333.60009765625</AltitudeMeters>
            <DistanceMeters>35141.8818656</DistanceMeters>
          </Trackpoint>
          <Trackpoint>
            <Time>2022-07-10T10:39:27.000Z</Time>
            <Position>
              <LatitudeDegrees>42.754714787006378173828125</LatitudeDegrees>
              <LongitudeDegrees>-0.21455601789057254791259765625</LongitudeDegrees>
            </Position>
            <AltitudeMeters>2332.800048828125</AltitudeMeters>
            <DistanceMeters>35143.431704409</DistanceMeters>
          </Trackpoint>
          <Trackpoint>
            <Time>2022-07-10T10:39:30.000Z</Time>
            <Position>
              <LatitudeDegrees>42.7547310478985309600830078125</LatitudeDegrees>
              <LongitudeDegrees>-0.21457646973431110382080078125</LongitudeDegrees>
            </Position>
            <AltitudeMeters>2332.39990234375</AltitudeMeters>
            <DistanceMeters>35145.89507839</DistanceMeters>
          </Trackpoint>
          <Trackpoint>
            <Time>2022-07-10T10:39:33.000Z</Time>
            <Position>
              <LatitudeDegrees>42.75476516224443912506103515625</LatitudeDegrees>
              <LongitudeDegrees>-0.21459348499774932861328125</LongitudeDegrees>
            </Position>
            <AltitudeMeters>2331.60009765625</AltitudeMeters>
            <DistanceMeters>35149.937903932</DistanceMeters>
          </Trackpoint>
          <Trackpoint>
            <Time>2022-07-10T10:39:34.000Z</Time>
            <Position>
              <LatitudeDegrees>42.75477723218500614166259765625</LatitudeDegrees>
              <LongitudeDegrees>-0.2145919762551784515380859375</LongitudeDegrees>
            </Position>
            <AltitudeMeters>2331.39990234375</AltitudeMeters>
            <DistanceMeters>35151.288487303</DistanceMeters>
          </Trackpoint>
          <Trackpoint>
            <Time>2022-07-10T10:39:37.000Z</Time>
            <Position>
              <LatitudeDegrees>42.7548061497509479522705078125</LatitudeDegrees>
              <LongitudeDegrees>-0.21459490992128849029541015625</LongitudeDegrees>
            </Position>
            <AltitudeMeters>2331</AltitudeMeters>
            <DistanceMeters>35154.516599478</DistanceMeters>
          </Trackpoint>
          <Trackpoint>
            <Time>2022-07-10T10:39:39.000Z</Time>
            <Position>
              <LatitudeDegrees>42.75482718832790851593017578125</LatitudeDegrees>
              <LongitudeDegrees>-0.2146167866885662078857421875</LongitudeDegrees>
            </Position>
            <AltitudeMeters>2330.199951171875</AltitudeMeters>
            <DistanceMeters>35157.463959914</DistanceMeters>
          </Trackpoint>
          <Trackpoint>
            <Time>2022-07-10T10:39:44.000Z</Time>
            <Position>
              <LatitudeDegrees>42.75487630628049373626708984375</LatitudeDegrees>
              <LongitudeDegrees>-0.21466447971761226654052734375</LongitudeDegrees>
            </Position>
            <AltitudeMeters>2329.39990234375</AltitudeMeters>
            <DistanceMeters>35164.177985652</DistanceMeters>
          </Trackpoint>
          <Trackpoint>
            <Time>2022-07-10T10:39:46.000Z</Time>
            <Position>
              <LatitudeDegrees>42.754894159734249114990234375</LatitudeDegrees>
              <LongitudeDegrees>-0.21467939950525760650634765625</LongitudeDegrees>
            </Position>
            <AltitudeMeters>2329.199951171875</AltitudeMeters>
            <DistanceMeters>35166.509531495</DistanceMeters>
          </Trackpoint>
          <Trackpoint>
            <Time>2022-07-10T10:39:48.000Z</Time>
            <Position>
              <LatitudeDegrees>42.75491536594927310943603515625</LatitudeDegrees>
              <LongitudeDegrees>-0.21469264291226863861083984375</LongitudeDegrees>
            </Position>
            <AltitudeMeters>2328</AltitudeMeters>
            <DistanceMeters>35169.104996198</DistanceMeters>
          </Trackpoint>
          <Trackpoint>
            <Time>2022-07-10T10:39:51.000Z</Time>
            <Position>
              <LatitudeDegrees>42.75494478642940521240234375</LatitudeDegrees>
              <LongitudeDegrees>-0.2147153578698635101318359375</LongitudeDegrees>
            </Position>
            <AltitudeMeters>2327.60009765625</AltitudeMeters>
            <DistanceMeters>35172.870261132</DistanceMeters>
          </Trackpoint>
          <Trackpoint>
            <Time>2022-07-10T10:39:55.000Z</Time>
            <Position>
              <LatitudeDegrees>42.7549633942544460296630859375</LatitudeDegrees>
              <LongitudeDegrees>-0.2147309482097625732421875</LongitudeDegrees>
            </Position>
            <AltitudeMeters>2327.199951171875</AltitudeMeters>
            <DistanceMeters>35175.300419562</DistanceMeters>
          </Trackpoint>
          <Trackpoint>
            <Time>2022-07-10T10:39:58.000Z</Time>
            <Position>
              <LatitudeDegrees>42.75498527102172374725341796875</LatitudeDegrees>
              <LongitudeDegrees>-0.21473924629390239715576171875</LongitudeDegrees>
            </Position>
            <AltitudeMeters>2326.60009765625</AltitudeMeters>
            <DistanceMeters>35177.825342129</DistanceMeters>
          </Trackpoint>
          <Trackpoint>
            <Time>2022-07-10T10:39:59.000Z</Time>
            <Position>
              <LatitudeDegrees>42.7549935691058635711669921875</LatitudeDegrees>
              <LongitudeDegrees>-0.2147462032735347747802734375</LongitudeDegrees>
            </Position>
            <AltitudeMeters>2326.199951171875</AltitudeMeters>
            <DistanceMeters>35178.908813373</DistanceMeters>
          </Trackpoint>
          <Trackpoint>
            <Time>2022-07-10T10:40:01.000Z</Time>
            <Position>
              <LatitudeDegrees>42.75501050055027008056640625</LatitudeDegrees>
              <LongitudeDegrees>-0.21475047804415225982666015625</LongitudeDegrees>
            </Position>
            <AltitudeMeters>2325.39990234375</AltitudeMeters>
            <DistanceMeters>35180.82590521</DistanceMeters>
          </Trackpoint>
          <Trackpoint>
            <Time>2022-07-10T10:40:03.000Z</Time>
            <Position>
              <LatitudeDegrees>42.75503271259367465972900390625</LatitudeDegrees>
              <LongitudeDegrees>-0.21474829874932765960693359375</LongitudeDegrees>
            </Position>
            <AltitudeMeters>2324.800048828125</AltitudeMeters>
            <DistanceMeters>35183.305720135</DistanceMeters>
          </Trackpoint>
          <Trackpoint>
            <Time>2022-07-10T10:40:05.000Z</Time>
            <Position>
              <LatitudeDegrees>42.7550609596073627471923828125</LatitudeDegrees>
              <LongitudeDegrees>-0.21474494598805904388427734375</LongitudeDegrees>
            </Position>
            <AltitudeMeters>2324.39990234375</AltitudeMeters>
            <DistanceMeters>35186.461694519</DistanceMeters>
          </Trackpoint>
          <Trackpoint>
            <Time>2022-07-10T10:40:06.000Z</Time>
            <Position>
              <LatitudeDegrees>42.75507487356662750244140625</LatitudeDegrees>
              <LongitudeDegrees>-0.21474880166351795196533203125</LongitudeDegrees>
            </Position>
            <AltitudeMeters>2324.39990234375</AltitudeMeters>
            <DistanceMeters>35188.043254248</DistanceMeters>
          </Trackpoint>
          <Trackpoint>
            <Time>2022-07-10T10:40:08.000Z</Time>
            <Position>
              <LatitudeDegrees>42.755098678171634674072265625</LatitudeDegrees>
              <LongitudeDegrees>-0.21475634537637233734130859375</LongitudeDegrees>
            </Position>
            <AltitudeMeters>2324.39990234375</AltitudeMeters>
            <DistanceMeters>35190.762745489</DistanceMeters>
          </Trackpoint>
          <Trackpoint>
            <Time>2022-07-10T10:40:10.000Z</Time>
            <Position>
              <LatitudeDegrees>42.75512323714792728424072265625</LatitudeDegrees>
              <LongitudeDegrees>-0.21475366316735744476318359375</LongitudeDegrees>
            </Position>
            <AltitudeMeters>2324.199951171875</AltitudeMeters>
            <DistanceMeters>35193.503735018</DistanceMeters>
          </Trackpoint>
          <Trackpoint>
            <Time>2022-07-10T10:40:13.000Z</Time>
            <Position>
              <LatitudeDegrees>42.75516380555927753448486328125</LatitudeDegrees>
              <LongitudeDegrees>-0.21474628709256649017333984375</LongitudeDegrees>
            </Position>
            <AltitudeMeters>2323.199951171875</AltitudeMeters>
            <DistanceMeters>35198.059074267</DistanceMeters>
          </Trackpoint>
          <Trackpoint>
            <Time>2022-07-10T10:40:15.000Z</Time>
            <Position>
              <LatitudeDegrees>42.75518509559333324432373046875</LatitudeDegrees>
              <LongitudeDegrees>-0.21473924629390239715576171875</LongitudeDegrees>
            </Position>
            <AltitudeMeters>2322</AltitudeMeters>
            <DistanceMeters>35200.496653045</DistanceMeters>
          </Trackpoint>
          <Trackpoint>
            <Time>2022-07-10T10:40:16.000Z</Time>
            <Position>
              <LatitudeDegrees>42.75519557297229766845703125</LatitudeDegrees>
              <LongitudeDegrees>-0.21474075503647327423095703125</LongitudeDegrees>
            </Position>
            <AltitudeMeters>2321.800048828125</AltitudeMeters>
            <DistanceMeters>35201.672068587</DistanceMeters>
          </Trackpoint>
          <Trackpoint>
            <Time>2022-07-10T10:40:20.000Z</Time>
            <Position>
              <LatitudeDegrees>42.75523044168949127197265625</LatitudeDegrees>
              <LongitudeDegrees>-0.2147428505122661590576171875</LongitudeDegrees>
            </Position>
            <AltitudeMeters>2321</AltitudeMeters>
            <DistanceMeters>35205.555395467</DistanceMeters>
          </Trackpoint>
          <Trackpoint>
            <Time>2022-07-10T10:40:23.000Z</Time>
            <Position>
              <LatitudeDegrees>42.755262292921543121337890625</LatitudeDegrees>
              <LongitudeDegrees>-0.21473958157002925872802734375</LongitudeDegrees>
            </Position>
            <AltitudeMeters>2320.60009765625</AltitudeMeters>
            <DistanceMeters>35209.110969545</DistanceMeters>
          </Trackpoint>
          <Trackpoint>
            <Time>2022-07-10T10:40:29.000Z</Time>
            <Position>
              <LatitudeDegrees>42.7553479559719562530517578125</LatitudeDegrees>
              <LongitudeDegrees>-0.21478115580976009368896484375</LongitudeDegrees>
            </Position>
            <AltitudeMeters>2321.199951171875</AltitudeMeters>
            <DistanceMeters>35219.232987493</DistanceMeters>
          </Trackpoint>
          <Trackpoint>
            <Time>2022-07-10T10:40:30.000Z</Time>
            <Position>
              <LatitudeDegrees>42.75535575114190578460693359375</LatitudeDegrees>
              <LongitudeDegrees>-0.21478970535099506378173828125</LongitudeDegrees>
            </Position>
            <AltitudeMeters>2321</AltitudeMeters>
            <DistanceMeters>35220.345246668</DistanceMeters>
          </Trackpoint>
          <Trackpoint>
            <Time>2022-07-10T10:40:36.000Z</Time>
            <Position>
              <LatitudeDegrees>42.7554215490818023681640625</LatitudeDegrees>
              <LongitudeDegrees>-0.21483580581843852996826171875</LongitudeDegrees>
            </Position>
            <AltitudeMeters>2320</AltitudeMeters>
            <DistanceMeters>35228.580834332</DistanceMeters>
          </Trackpoint>
          <Trackpoint>
            <Time>2022-07-10T10:40:37.000Z</Time>
            <Position>
              <LatitudeDegrees>42.755430601537227630615234375</LatitudeDegrees>
              <LongitudeDegrees>-0.21484024822711944580078125</LongitudeDegrees>
            </Position>
            <AltitudeMeters>2319.800048828125</AltitudeMeters>
            <DistanceMeters>35229.647506555</DistanceMeters>
          </Trackpoint>
          <Trackpoint>
            <Time>2022-07-10T10:40:43.000Z</Time>
            <Position>
              <LatitudeDegrees>42.755498997867107391357421875</LatitudeDegrees>
              <LongitudeDegrees>-0.214856006205081939697265625</LongitudeDegrees>
            </Position>
            <AltitudeMeters>2318.60009765625</AltitudeMeters>
            <DistanceMeters>35237.368682934</DistanceMeters>
          </Trackpoint>
          <Trackpoint>
            <Time>2022-07-10T10:40:44.000Z</Time>
            <Position>
              <LatitudeDegrees>42.75550729595124721527099609375</LatitudeDegrees>
              <LongitudeDegrees>-0.21486128680408000946044921875</LongitudeDegrees>
            </Position>
            <AltitudeMeters>2318.39990234375</AltitudeMeters>
            <DistanceMeters>35238.3832906</DistanceMeters>
          </Trackpoint>
          <Trackpoint>
            <Time>2022-07-10T10:40:47.000Z</Time>
            <Position>
              <LatitudeDegrees>42.75552414357662200927734375</LatitudeDegrees>
              <LongitudeDegrees>-0.214876122772693634033203125</LongitudeDegrees>
            </Position>
            <AltitudeMeters>2318</AltitudeMeters>
            <DistanceMeters>35240.615912869</DistanceMeters>
          </Trackpoint>
          <Trackpoint>
            <Time>2022-07-10T10:40:48.000Z</Time>
            <Position>
              <LatitudeDegrees>42.75552590377628803253173828125</LatitudeDegrees>
              <LongitudeDegrees>-0.2148739434778690338134765625</LongitudeDegrees>
            </Position>
            <AltitudeMeters>2318</AltitudeMeters>
            <DistanceMeters>35240.884689006</DistanceMeters>
          </Trackpoint>
          <Trackpoint>
            <Time>2022-07-10T10:40:50.000Z</Time>
            <Position>
              <LatitudeDegrees>42.755524814128875732421875</LatitudeDegrees>
              <LongitudeDegrees>-0.21488844417035579681396484375</LongitudeDegrees>
            </Position>
            <AltitudeMeters>2317.60009765625</AltitudeMeters>
            <DistanceMeters>35242.075370324</DistanceMeters>
          </Trackpoint>
          <Trackpoint>
            <Time>2022-07-10T10:40:53.000Z</Time>
            <Position>
              <LatitudeDegrees>42.7555222995579242706298828125</LatitudeDegrees>
              <LongitudeDegrees>-0.21491543389856815338134765625</LongitudeDegrees>
            </Position>
            <AltitudeMeters>2316.60009765625</AltitudeMeters>
            <DistanceMeters>35244.299888674</DistanceMeters>
          </Trackpoint>
          <Trackpoint>
            <Time>2022-07-10T10:40:55.000Z</Time>
            <Position>
              <LatitudeDegrees>42.75549958460032939910888671875</LatitudeDegrees>
              <LongitudeDegrees>-0.214933119714260101318359375</LongitudeDegrees>
            </Position>
            <AltitudeMeters>2316.199951171875</AltitudeMeters>
            <DistanceMeters>35247.213352567</DistanceMeters>
          </Trackpoint>
          <Trackpoint>
            <Time>2022-07-10T10:40:57.000Z</Time>
            <Position>
              <LatitudeDegrees>42.7554773725569248199462890625</LatitudeDegrees>
              <LongitudeDegrees>-0.21492666564881801605224609375</LongitudeDegrees>
            </Position>
            <AltitudeMeters>2315</AltitudeMeters>
            <DistanceMeters>35249.741848983</DistanceMeters>
          </Trackpoint>
          <Trackpoint>
            <Time>2022-07-10T10:40:59.000Z</Time>
            <Position>
              <LatitudeDegrees>42.7554532326757907867431640625</LatitudeDegrees>
              <LongitudeDegrees>-0.21493018604815006256103515625</LongitudeDegrees>
            </Position>
            <AltitudeMeters>2314.199951171875</AltitudeMeters>
            <DistanceMeters>35252.443015725</DistanceMeters>
          </Trackpoint>
          <Trackpoint>
            <Time>2022-07-10T10:41:00.000Z</Time>
            <Position>
              <LatitudeDegrees>42.75544141419231891632080078125</LatitudeDegrees>
              <LongitudeDegrees>-0.2149336226284503936767578125</LongitudeDegrees>
            </Position>
            <AltitudeMeters>2314</AltitudeMeters>
            <DistanceMeters>35253.79025192</DistanceMeters>
          </Trackpoint>
          <Trackpoint>
            <Time>2022-07-10T10:41:03.000Z</Time>
            <Position>
              <LatitudeDegrees>42.75540746748447418212890625</LatitudeDegrees>
              <LongitudeDegrees>-0.21494225598871707916259765625</LongitudeDegrees>
            </Position>
            <AltitudeMeters>2313.39990234375</AltitudeMeters>
            <DistanceMeters>35257.633844648</DistanceMeters>
          </Trackpoint>
          <Trackpoint>
            <Time>2022-07-10T10:41:06.000Z</Time>
            <Position>
              <LatitudeDegrees>42.7553866803646087646484375</LatitudeDegrees>
              <LongitudeDegrees>-0.2149403281509876251220703125</LongitudeDegrees>
            </Position>
            <AltitudeMeters>2313</AltitudeMeters>
            <DistanceMeters>35259.953742396</DistanceMeters>
          </Trackpoint>
          <Trackpoint>
            <Time>2022-07-10T10:41:07.000Z</Time>
            <Position>
              <LatitudeDegrees>42.75537502951920032501220703125</LatitudeDegrees>
              <LongitudeDegrees>-0.21495633758604526519775390625</LongitudeDegrees>
            </Position>
            <AltitudeMeters>2312.800048828125</AltitudeMeters>
            <DistanceMeters>35261.796378753</DistanceMeters>
          </Trackpoint>
          <Trackpoint>
            <Time>2022-07-10T10:41:09.000Z</Time>
            <Position>
              <LatitudeDegrees>42.7553788013756275177001953125</LatitudeDegrees>
              <LongitudeDegrees>-0.21499204449355602264404296875</LongitudeDegrees>
            </Position>
            <AltitudeMeters>2311.800048828125</AltitudeMeters>
            <DistanceMeters>35264.743739188</DistanceMeters>
          </Trackpoint>
          <Trackpoint>
            <Time>2022-07-10T10:41:12.000Z</Time>
            <Position>
              <LatitudeDegrees>42.75539145804941654205322265625</LatitudeDegrees>
              <LongitudeDegrees>-0.21502557210624217987060546875</LongitudeDegrees>
            </Position>
            <AltitudeMeters>2311.39990234375</AltitudeMeters>
            <DistanceMeters>35267.822956665</DistanceMeters>
          </Trackpoint>
          <Trackpoint>
            <Time>2022-07-10T10:41:13.000Z</Time>
            <Position>
              <LatitudeDegrees>42.755401097238063812255859375</LatitudeDegrees>
              <LongitudeDegrees>-0.2150385640561580657958984375</LongitudeDegrees>
            </Position>
            <AltitudeMeters>2311.39990234375</AltitudeMeters>
            <DistanceMeters>35269.33145899</DistanceMeters>
          </Trackpoint>
          <Trackpoint>
            <Time>2022-07-10T10:41:15.000Z</Time>
            <Position>
              <LatitudeDegrees>42.75542397983372211456298828125</LatitudeDegrees>
              <LongitudeDegrees>-0.215072594583034515380859375</LongitudeDegrees>
            </Position>
            <AltitudeMeters>2311.60009765625</AltitudeMeters>
            <DistanceMeters>35273.103911836</DistanceMeters>
          </Trackpoint>
          <Trackpoint>
            <Time>2022-07-10T10:41:18.000Z</Time>
            <Position>
              <LatitudeDegrees>42.7554626204073429107666015625</LatitudeDegrees>
              <LongitudeDegrees>-0.2150730974972248077392578125</LongitudeDegrees>
            </Position>
            <AltitudeMeters>2311.39990234375</AltitudeMeters>
            <DistanceMeters>35277.40433002</DistanceMeters>
          </Trackpoint>
          <Trackpoint>
            <Time>2022-07-10T10:41:20.000Z</Time>
            <Position>
              <LatitudeDegrees>42.755475528538227081298828125</LatitudeDegrees>
              <LongitudeDegrees>-0.21509245969355106353759765625</LongitudeDegrees>
            </Position>
            <AltitudeMeters>2310.39990234375</AltitudeMeters>
            <DistanceMeters>35279.539789831</DistanceMeters>
          </Trackpoint>
          <Trackpoint>
            <Time>2022-07-10T10:41:21.000Z</Time>
            <Position>
              <LatitudeDegrees>42.75547854602336883544921875</LatitudeDegrees>
              <LongitudeDegrees>-0.2151015959680080413818359375</LongitudeDegrees>
            </Position>
            <AltitudeMeters>2310</AltitudeMeters>
            <DistanceMeters>35280.357240537</DistanceMeters>
          </Trackpoint>
          <Trackpoint>
            <Time>2022-07-10T10:41:22.000Z</Time>
            <Position>
              <LatitudeDegrees>42.7554813958704471588134765625</LatitudeDegrees>
              <LongitudeDegrees>-0.215110480785369873046875</LongitudeDegrees>
            </Position>
            <AltitudeMeters>2309.60009765625</AltitudeMeters>
            <DistanceMeters>35281.15229107</DistanceMeters>
          </Trackpoint>
          <Trackpoint>
            <Time>2022-07-10T10:41:24.000Z</Time>
            <Position>
              <LatitudeDegrees>42.7554944716393947601318359375</LatitudeDegrees>
              <LongitudeDegrees>-0.2151223830878734588623046875</LongitudeDegrees>
            </Position>
            <AltitudeMeters>2309.199951171875</AltitudeMeters>
            <DistanceMeters>35282.904497106</DistanceMeters>
          </Trackpoint>
          <Trackpoint>
            <Time>2022-07-10T10:41:26.000Z</Time>
            <Position>
              <LatitudeDegrees>42.75551886297762393951416015625</LatitudeDegrees>
              <LongitudeDegrees>-0.21513688378036022186279296875</LongitudeDegrees>
            </Position>
            <AltitudeMeters>2309</AltitudeMeters>
            <DistanceMeters>35285.867136858</DistanceMeters>
          </Trackpoint>
          <Trackpoint>
            <Time>2022-07-10T10:41:31.000Z</Time>
            <Position>
              <LatitudeDegrees>42.7555886842310428619384765625</LatitudeDegrees>
              <LongitudeDegrees>-0.21514560095965862274169921875</LongitudeDegrees>
            </Position>
            <AltitudeMeters>2308.199951171875</AltitudeMeters>
            <DistanceMeters>35293.670907456</DistanceMeters>
          </Trackpoint>
          <Trackpoint>
            <Time>2022-07-10T10:41:34.000Z</Time>
            <Position>
              <LatitudeDegrees>42.75563067756593227386474609375</LatitudeDegrees>
              <LongitudeDegrees>-0.215131603181362152099609375</LongitudeDegrees>
            </Position>
            <AltitudeMeters>2307</AltitudeMeters>
            <DistanceMeters>35298.482675946</DistanceMeters>
          </Trackpoint>
          <Trackpoint>
            <Time>2022-07-10T10:41:38.000Z</Time>
            <Position>
              <LatitudeDegrees>42.75567409582436084747314453125</LatitudeDegrees>
              <LongitudeDegrees>-0.2151238918304443359375</LongitudeDegrees>
            </Position>
            <AltitudeMeters>2306</AltitudeMeters>
            <DistanceMeters>35303.355980887</DistanceMeters>
          </Trackpoint>
          <Trackpoint>
            <Time>2022-07-10T10:41:39.000Z</Time>
            <Position>
              <LatitudeDegrees>42.755685411393642425537109375</LatitudeDegrees>
              <LongitudeDegrees>-0.21512280218303203582763671875</LongitudeDegrees>
            </Position>
            <AltitudeMeters>2305.800048828125</AltitudeMeters>
            <DistanceMeters>35304.616652713</DistanceMeters>
          </Trackpoint>
          <Trackpoint>
            <Time>2022-07-10T10:41:43.000Z</Time>
            <Position>
              <LatitudeDegrees>42.7557536400854587554931640625</LatitudeDegrees>
              <LongitudeDegrees>-0.21511190570890903472900390625</LongitudeDegrees>
            </Position>
            <AltitudeMeters>2305.60009765625</AltitudeMeters>
            <DistanceMeters>35312.262613405</DistanceMeters>
          </Trackpoint>
          <Trackpoint>
            <Time>2022-07-10T10:41:44.000Z</Time>
            <Position>
              <LatitudeDegrees>42.7557663805782794952392578125</LatitudeDegrees>
              <LongitudeDegrees>-0.21511676721274852752685546875</LongitudeDegrees>
            </Position>
            <AltitudeMeters>2305.39990234375</AltitudeMeters>
            <DistanceMeters>35313.734760934</DistanceMeters>
          </Trackpoint>
          <Trackpoint>
            <Time>2022-07-10T10:41:45.000Z</Time>
            <Position>
              <LatitudeDegrees>42.75578054599463939666748046875</LatitudeDegrees>
              <LongitudeDegrees>-0.21512079052627086639404296875</LongitudeDegrees>
            </Position>
            <AltitudeMeters>2305</AltitudeMeters>
            <DistanceMeters>35315.347417753</DistanceMeters>
          </Trackpoint>
          <Trackpoint>
            <Time>2022-07-10T10:41:47.000Z</Time>
            <Position>
              <LatitudeDegrees>42.7558103017508983612060546875</LatitudeDegrees>
              <LongitudeDegrees>-0.21510201506316661834716796875</LongitudeDegrees>
            </Position>
            <AltitudeMeters>2304.800048828125</AltitudeMeters>
            <DistanceMeters>35318.998224901</DistanceMeters>
          </Trackpoint>
          <Trackpoint>
            <Time>2022-07-10T10:41:49.000Z</Time>
            <Position>
              <LatitudeDegrees>42.755830921232700347900390625</LatitudeDegrees>
              <LongitudeDegrees>-0.2150818146765232086181640625</LongitudeDegrees>
            </Position>
            <AltitudeMeters>2304.60009765625</AltitudeMeters>
            <DistanceMeters>35321.825169834</DistanceMeters>
          </Trackpoint>
          <Trackpoint>
            <Time>2022-07-10T10:41:55.000Z</Time>
            <Position>
              <LatitudeDegrees>42.7558837272226810455322265625</LatitudeDegrees>
              <LongitudeDegrees>-0.2150694094598293304443359375</LongitudeDegrees>
            </Position>
            <AltitudeMeters>2303.800048828125</AltitudeMeters>
            <DistanceMeters>35327.789941513</DistanceMeters>
          </Trackpoint>
          <Trackpoint>
            <Time>2022-07-10T10:41:59.000Z</Time>
            <Position>
              <LatitudeDegrees>42.75593125261366367340087890625</LatitudeDegrees>
              <LongitudeDegrees>-0.21506211720407009124755859375</LongitudeDegrees>
            </Position>
            <AltitudeMeters>2303.800048828125</AltitudeMeters>
            <DistanceMeters>35333.113134153</DistanceMeters>
          </Trackpoint>
          <Trackpoint>
            <Time>2022-07-10T10:42:00.000Z</Time>
            <Position>
              <LatitudeDegrees>42.75594298727810382843017578125</LatitudeDegrees>
              <LongitudeDegrees>-0.21506060846149921417236328125</LongitudeDegrees>
            </Position>
            <AltitudeMeters>2303.60009765625</AltitudeMeters>
            <DistanceMeters>35334.422987017</DistanceMeters>
          </Trackpoint>
          <Trackpoint>
            <Time>2022-07-10T10:42:02.000Z</Time>
            <Position>
              <LatitudeDegrees>42.755968384444713592529296875</LatitudeDegrees>
              <LongitudeDegrees>-0.215060524642467498779296875</LongitudeDegrees>
            </Position>
            <AltitudeMeters>2303.39990234375</AltitudeMeters>
            <DistanceMeters>35337.248334354</DistanceMeters>
          </Trackpoint>
          <Trackpoint>
            <Time>2022-07-10T10:42:05.000Z</Time>
            <Position>
              <LatitudeDegrees>42.7559950388967990875244140625</LatitudeDegrees>
              <LongitudeDegrees>-0.21507502533495426177978515625</LongitudeDegrees>
            </Position>
            <AltitudeMeters>2303.199951171875</AltitudeMeters>
            <DistanceMeters>35340.44270227</DistanceMeters>
          </Trackpoint>
          <Trackpoint>
            <Time>2022-07-10T10:42:08.000Z</Time>
            <Position>
              <LatitudeDegrees>42.75602714158594608306884765625</LatitudeDegrees>
              <LongitudeDegrees>-0.21508843638002872467041015625</LongitudeDegrees>
            </Position>
            <AltitudeMeters>2303</AltitudeMeters>
            <DistanceMeters>35344.180285481</DistanceMeters>
          </Trackpoint>
          <Trackpoint>
            <Time>2022-07-10T10:42:11.000Z</Time>
            <Position>
              <LatitudeDegrees>42.75606486015021800994873046875</LatitudeDegrees>
              <LongitudeDegrees>-0.21509212441742420196533203125</LongitudeDegrees>
            </Position>
            <AltitudeMeters>2302.800048828125</AltitudeMeters>
            <DistanceMeters>35348.388370545</DistanceMeters>
          </Trackpoint>
          <Trackpoint>
            <Time>2022-07-10T10:42:12.000Z</Time>
            <Position>
              <LatitudeDegrees>42.756072990596294403076171875</LatitudeDegrees>
              <LongitudeDegrees>-0.21509111858904361724853515625</LongitudeDegrees>
            </Position>
            <AltitudeMeters>2302.199951171875</AltitudeMeters>
            <DistanceMeters>35349.299834769</DistanceMeters>
          </Trackpoint>
          <Trackpoint>
            <Time>2022-07-10T10:42:14.000Z</Time>
            <Position>
              <LatitudeDegrees>42.75608539581298828125</LatitudeDegrees>
              <LongitudeDegrees>-0.215105116367340087890625</LongitudeDegrees>
            </Position>
            <AltitudeMeters>2301.199951171875</AltitudeMeters>
            <DistanceMeters>35351.095311667</DistanceMeters>
          </Trackpoint>
          <Trackpoint>
            <Time>2022-07-10T10:42:15.000Z</Time>
            <Position>
              <LatitudeDegrees>42.75609235279262065887451171875</LatitudeDegrees>
              <LongitudeDegrees>-0.21511157043278217315673828125</LongitudeDegrees>
            </Position>
            <AltitudeMeters>2301</AltitudeMeters>
            <DistanceMeters>35352.026379516</DistanceMeters>
          </Trackpoint>
          <Trackpoint>
            <Time>2022-07-10T10:42:20.000Z</Time>
            <Position>
              <LatitudeDegrees>42.7561323344707489013671875</LatitudeDegrees>
              <LongitudeDegrees>-0.21513671614229679107666015625</LongitudeDegrees>
            </Position>
            <AltitudeMeters>2301.199951171875</AltitudeMeters>
            <DistanceMeters>35356.927400159</DistanceMeters>
          </Trackpoint>
          <Trackpoint>
            <Time>2022-07-10T10:42:21.000Z</Time>
            <Position>
              <LatitudeDegrees>42.75614415295422077178955078125</LatitudeDegrees>
              <LongitudeDegrees>-0.2151304297149181365966796875</LongitudeDegrees>
            </Position>
            <AltitudeMeters>2301.199951171875</AltitudeMeters>
            <DistanceMeters>35358.336874109</DistanceMeters>
          </Trackpoint>
          <Trackpoint>
            <Time>2022-07-10T10:42:22.000Z</Time>
            <Position>
              <LatitudeDegrees>42.75614909827709197998046875</LatitudeDegrees>
              <LongitudeDegrees>-0.21513395011425018310546875</LongitudeDegrees>
            </Position>
            <AltitudeMeters>2301.199951171875</AltitudeMeters>
            <DistanceMeters>35358.952717604</DistanceMeters>
          </Trackpoint>
          <Trackpoint>
            <Time>2022-07-10T10:42:23.000Z</Time>
            <Position>
              <LatitudeDegrees>42.7561522834002971649169921875</LatitudeDegrees>
              <LongitudeDegrees>-0.21514157764613628387451171875</LongitudeDegrees>
            </Position>
            <AltitudeMeters>2301.199951171875</AltitudeMeters>
            <DistanceMeters>35359.6764195</DistanceMeters>
          </Trackpoint>
          <Trackpoint>
            <Time>2022-07-10T10:42:26.000Z</Time>
            <Position>
              <LatitudeDegrees>42.75615739636123180389404296875</LatitudeDegrees>
              <LongitudeDegrees>-0.21519119851291179656982421875</LongitudeDegrees>
            </Position>
            <AltitudeMeters>2301</AltitudeMeters>
            <DistanceMeters>35363.770295644</DistanceMeters>
          </Trackpoint>
          <Trackpoint>
            <Time>2022-07-10T10:42:28.000Z</Time>
            <Position>
              <LatitudeDegrees>42.7561727352440357208251953125</LatitudeDegrees>
              <LongitudeDegrees>-0.21522112190723419189453125</LongitudeDegrees>
            </Position>
            <AltitudeMeters>2301</AltitudeMeters>
            <DistanceMeters>35366.751167198</DistanceMeters>
          </Trackpoint>
          <Trackpoint>
            <Time>2022-07-10T10:42:31.000Z</Time>
            <Position>
              <LatitudeDegrees>42.7561841346323490142822265625</LatitudeDegrees>
              <LongitudeDegrees>-0.21526445634663105010986328125</LongitudeDegrees>
            </Position>
            <AltitudeMeters>2301.39990234375</AltitudeMeters>
            <DistanceMeters>35370.514033109</DistanceMeters>
          </Trackpoint>
          <Trackpoint>
            <Time>2022-07-10T10:42:32.000Z</Time>
            <Position>
              <LatitudeDegrees>42.7561898343265056610107421875</LatitudeDegrees>
              <LongitudeDegrees>-0.21527099423110485076904296875</LongitudeDegrees>
            </Position>
            <AltitudeMeters>2301.39990234375</AltitudeMeters>
            <DistanceMeters>35371.342456798</DistanceMeters>
          </Trackpoint>
          <Trackpoint>
            <Time>2022-07-10T10:42:35.000Z</Time>
            <Position>
              <LatitudeDegrees>42.75619813241064548492431640625</LatitudeDegrees>
              <LongitudeDegrees>-0.21531357429921627044677734375</LongitudeDegrees>
            </Position>
            <AltitudeMeters>2301.60009765625</AltitudeMeters>
            <DistanceMeters>35374.94345524</DistanceMeters>
          </Trackpoint>
          <Trackpoint>
            <Time>2022-07-10T10:42:37.000Z</Time>
            <Position>
              <LatitudeDegrees>42.75620299391448497772216796875</LatitudeDegrees>
              <LongitudeDegrees>-0.2153436653316020965576171875</LongitudeDegrees>
            </Position>
            <AltitudeMeters>2301.800048828125</AltitudeMeters>
            <DistanceMeters>35377.463007529</DistanceMeters>
          </Trackpoint>
          <Trackpoint>
            <Time>2022-07-10T10:42:43.000Z</Time>
            <Position>
              <LatitudeDegrees>42.75620399974286556243896484375</LatitudeDegrees>
              <LongitudeDegrees>-0.2154539711773395538330078125</LongitudeDegrees>
            </Position>
            <AltitudeMeters>2301.39990234375</AltitudeMeters>
            <DistanceMeters>35386.478033208</DistanceMeters>
          </Trackpoint>
          <Trackpoint>
            <Time>2022-07-10T10:42:46.000Z</Time>
            <Position>
              <LatitudeDegrees>42.756224535405635833740234375</LatitudeDegrees>
              <LongitudeDegrees>-0.21550635807216167449951171875</LongitudeDegrees>
            </Position>
            <AltitudeMeters>2299.800048828125</AltitudeMeters>
            <DistanceMeters>35391.330912701</DistanceMeters>
          </Trackpoint>
          <Trackpoint>
            <Time>2022-07-10T10:42:51.000Z</Time>
            <Position>
              <LatitudeDegrees>42.7562612481415271759033203125</LatitudeDegrees>
              <LongitudeDegrees>-0.21557844243943691253662109375</LongitudeDegrees>
            </Position>
            <AltitudeMeters>2298.800048828125</AltitudeMeters>
            <DistanceMeters>35398.500235899</DistanceMeters>
          </Trackpoint>
          <Trackpoint>
            <Time>2022-07-10T10:42:55.000Z</Time>
            <Position>
              <LatitudeDegrees>42.75627826340496540069580078125</LatitudeDegrees>
              <LongitudeDegrees>-0.21561565808951854705810546875</LongitudeDegrees>
            </Position>
            <AltitudeMeters>2297.39990234375</AltitudeMeters>
            <DistanceMeters>35402.082377524</DistanceMeters>
          </Trackpoint>
          <Trackpoint>
            <Time>2022-07-10T10:42:58.000Z</Time>
            <Position>
              <LatitudeDegrees>42.7562998048961162567138671875</LatitudeDegrees>
              <LongitudeDegrees>-0.2156323380768299102783203125</LongitudeDegrees>
            </Position>
            <AltitudeMeters>2296.800048828125</AltitudeMeters>
            <DistanceMeters>35404.839790146</DistanceMeters>
          </Trackpoint>
          <Trackpoint>
            <Time>2022-07-10T10:42:59.000Z</Time>
            <Position>
              <LatitudeDegrees>42.7563093602657318115234375</LatitudeDegrees>
              <LongitudeDegrees>-0.21563644520938396453857421875</LongitudeDegrees>
            </Position>
            <AltitudeMeters>2296.60009765625</AltitudeMeters>
            <DistanceMeters>35405.956101281</DistanceMeters>
          </Trackpoint>
          <Trackpoint>
            <Time>2022-07-10T10:43:01.000Z</Time>
            <Position>
              <LatitudeDegrees>42.75632268749177455902099609375</LatitudeDegrees>
              <LongitudeDegrees>-0.215654633939266204833984375</LongitudeDegrees>
            </Position>
            <AltitudeMeters>2296.199951171875</AltitudeMeters>
            <DistanceMeters>35408.055310014</DistanceMeters>
          </Trackpoint>
          <Trackpoint>
            <Time>2022-07-10T10:43:04.000Z</Time>
            <Position>
              <LatitudeDegrees>42.7563366852700710296630859375</LatitudeDegrees>
              <LongitudeDegrees>-0.2156896702945232391357421875</LongitudeDegrees>
            </Position>
            <AltitudeMeters>2295.800048828125</AltitudeMeters>
            <DistanceMeters>35411.315432707</DistanceMeters>
          </Trackpoint>
          <Trackpoint>
            <Time>2022-07-10T10:43:07.000Z</Time>
            <Position>
              <LatitudeDegrees>42.75634364224970340728759765625</LatitudeDegrees>
              <LongitudeDegrees>-0.215716995298862457275390625</LongitudeDegrees>
            </Position>
            <AltitudeMeters>2295</AltitudeMeters>
            <DistanceMeters>35413.677759366</DistanceMeters>
          </Trackpoint>
          <Trackpoint>
            <Time>2022-07-10T10:43:11.000Z</Time>
            <Position>
              <LatitudeDegrees>42.75635755620896816253662109375</LatitudeDegrees>
              <LongitudeDegrees>-0.21576602943241596221923828125</LongitudeDegrees>
            </Position>
            <AltitudeMeters>2294.199951171875</AltitudeMeters>
            <DistanceMeters>35417.97397587</DistanceMeters>
          </Trackpoint>
          <Trackpoint>
            <Time>2022-07-10T10:43:13.000Z</Time>
            <Position>
              <LatitudeDegrees>42.75636912323534488677978515625</LatitudeDegrees>
              <LongitudeDegrees>-0.21579570136964321136474609375</LongitudeDegrees>
            </Position>
            <AltitudeMeters>2294.199951171875</AltitudeMeters>
            <DistanceMeters>35420.719902641</DistanceMeters>
          </Trackpoint>
          <Trackpoint>
            <Time>2022-07-10T10:43:19.000Z</Time>
            <Position>
              <LatitudeDegrees>42.7563856355845928192138671875</LatitudeDegrees>
              <LongitudeDegrees>-0.21587097086012363433837890625</LongitudeDegrees>
            </Position>
            <AltitudeMeters>2294.39990234375</AltitudeMeters>
            <DistanceMeters>35427.13965878</DistanceMeters>
          </Trackpoint>
          <Trackpoint>
            <Time>2022-07-10T10:43:21.000Z</Time>
            <Position>
              <LatitudeDegrees>42.7563977055251598358154296875</LatitudeDegrees>
              <LongitudeDegrees>-0.21589008159935474395751953125</LongitudeDegrees>
            </Position>
            <AltitudeMeters>2294</AltitudeMeters>
            <DistanceMeters>35429.197596061</DistanceMeters>
          </Trackpoint>
          <Trackpoint>
            <Time>2022-07-10T10:43:27.000Z</Time>
            <Position>
              <LatitudeDegrees>42.756429724395275115966796875</LatitudeDegrees>
              <LongitudeDegrees>-0.21592930890619754791259765625</LongitudeDegrees>
            </Position>
            <AltitudeMeters>2293</AltitudeMeters>
            <DistanceMeters>35433.990561163</DistanceMeters>
          </Trackpoint>
          <Trackpoint>
            <Time>2022-07-10T10:43:31.000Z</Time>
            <Position>
              <LatitudeDegrees>42.75643969886004924774169921875</LatitudeDegrees>
              <LongitudeDegrees>-0.21592025645077228546142578125</LongitudeDegrees>
            </Position>
            <AltitudeMeters>2292.800048828125</AltitudeMeters>
            <DistanceMeters>35435.320935165</DistanceMeters>
          </Trackpoint>
          <Trackpoint>
            <Time>2022-07-10T10:43:34.000Z</Time>
            <Position>
              <LatitudeDegrees>42.7564319036900997161865234375</LatitudeDegrees>
              <LongitudeDegrees>-0.2159381099045276641845703125</LongitudeDegrees>
            </Position>
            <AltitudeMeters>2292.800048828125</AltitudeMeters>
            <DistanceMeters>35437.020824709</DistanceMeters>
          </Trackpoint>
          <Trackpoint>
            <Time>2022-07-10T10:43:35.000Z</Time>
            <Position>
              <LatitudeDegrees>42.75643408298492431640625</LatitudeDegrees>
              <LongitudeDegrees>-0.21594523452222347259521484375</LongitudeDegrees>
            </Position>
            <AltitudeMeters>2292.800048828125</AltitudeMeters>
            <DistanceMeters>35437.651160622</DistanceMeters>
          </Trackpoint>
          <Trackpoint>
            <Time>2022-07-10T10:43:38.000Z</Time>
            <Position>
              <LatitudeDegrees>42.7564416266977787017822265625</LatitudeDegrees>
              <LongitudeDegrees>-0.21596736274659633636474609375</LongitudeDegrees>
            </Position>
            <AltitudeMeters>2292.60009765625</AltitudeMeters>
            <DistanceMeters>35439.644457799</DistanceMeters>
          </Trackpoint>
          <Trackpoint>
            <Time>2022-07-10T10:43:39.000Z</Time>
            <Position>
              <LatitudeDegrees>42.75644103996455669403076171875</LatitudeDegrees>
              <LongitudeDegrees>-0.2159763313829898834228515625</LongitudeDegrees>
            </Position>
            <AltitudeMeters>2292.60009765625</AltitudeMeters>
            <DistanceMeters>35440.380531563</DistanceMeters>
          </Trackpoint>
          <Trackpoint>
            <Time>2022-07-10T10:43:44.000Z</Time>
            <Position>
              <LatitudeDegrees>42.756439112126827239990234375</LatitudeDegrees>
              <LongitudeDegrees>-0.2160236053168773651123046875</LongitudeDegrees>
            </Position>
            <AltitudeMeters>2292.199951171875</AltitudeMeters>
            <DistanceMeters>35444.249881217</DistanceMeters>
          </Trackpoint>
          <Trackpoint>
            <Time>2022-07-10T10:43:46.000Z</Time>
            <Position>
              <LatitudeDegrees>42.75643500499427318572998046875</LatitudeDegrees>
              <LongitudeDegrees>-0.216049589216709136962890625</LongitudeDegrees>
            </Position>
            <AltitudeMeters>2292</AltitudeMeters>
            <DistanceMeters>35446.420986904</DistanceMeters>
          </Trackpoint>
          <Trackpoint>
            <Time>2022-07-10T10:43:47.000Z</Time>
            <Position>
              <LatitudeDegrees>42.7564381062984466552734375</LatitudeDegrees>
              <LongitudeDegrees>-0.21606333553791046142578125</LongitudeDegrees>
            </Position>
            <AltitudeMeters>2291.800048828125</AltitudeMeters>
            <DistanceMeters>35447.592554922</DistanceMeters>
          </Trackpoint>
          <Trackpoint>
            <Time>2022-07-10T10:43:49.000Z</Time>
            <Position>
              <LatitudeDegrees>42.7564516849815845489501953125</LatitudeDegrees>
              <LongitudeDegrees>-0.21610147319734096527099609375</LongitudeDegrees>
            </Position>
            <AltitudeMeters>2291.39990234375</AltitudeMeters>
            <DistanceMeters>35451.0554932</DistanceMeters>
          </Trackpoint>
          <Trackpoint>
            <Time>2022-07-10T10:43:50.000Z</Time>
            <Position>
              <LatitudeDegrees>42.7564617432653903961181640625</LatitudeDegrees>
              <LongitudeDegrees>-0.216118991374969482421875</LongitudeDegrees>
            </Position>
            <AltitudeMeters>2291.199951171875</AltitudeMeters>
            <DistanceMeters>35452.870976028</DistanceMeters>
          </Trackpoint>
          <Trackpoint>
            <Time>2022-07-10T10:43:53.000Z</Time>
            <Position>
              <LatitudeDegrees>42.75648211129009723663330078125</LatitudeDegrees>
              <LongitudeDegrees>-0.2161553688347339630126953125</LongitudeDegrees>
            </Position>
            <AltitudeMeters>2290.800048828125</AltitudeMeters>
            <DistanceMeters>35456.608559239</DistanceMeters>
          </Trackpoint>
          <Trackpoint>
            <Time>2022-07-10T10:43:55.000Z</Time>
            <Position>
              <LatitudeDegrees>42.75648730807006359100341796875</LatitudeDegrees>
              <LongitudeDegrees>-0.2161805145442485809326171875</LongitudeDegrees>
            </Position>
            <AltitudeMeters>2289.800048828125</AltitudeMeters>
            <DistanceMeters>35458.741903686</DistanceMeters>
          </Trackpoint>
          <Trackpoint>
            <Time>2022-07-10T10:43:56.000Z</Time>
            <Position>
              <LatitudeDegrees>42.75648848153650760650634765625</LatitudeDegrees>
              <LongitudeDegrees>-0.2161905728280544281005859375</LongitudeDegrees>
            </Position>
            <AltitudeMeters>2289.800048828125</AltitudeMeters>
            <DistanceMeters>35459.581156903</DistanceMeters>
          </Trackpoint>
          <Trackpoint>
            <Time>2022-07-10T10:43:57.000Z</Time>
            <Position>
              <LatitudeDegrees>42.75649116374552249908447265625</LatitudeDegrees>
              <LongitudeDegrees>-0.21619518287479877471923828125</LongitudeDegrees>
            </Position>
            <AltitudeMeters>2289.60009765625</AltitudeMeters>
            <DistanceMeters>35460.065699974</DistanceMeters>
          </Trackpoint>
          <Trackpoint>
            <Time>2022-07-10T10:44:00.000Z</Time>
            <Position>
              <LatitudeDegrees>42.75651446543633937835693359375</LatitudeDegrees>
              <LongitudeDegrees>-0.21622166968882083892822265625</LongitudeDegrees>
            </Position>
            <AltitudeMeters>2288.800048828125</AltitudeMeters>
            <DistanceMeters>35463.444163623</DistanceMeters>
          </Trackpoint>
          <Trackpoint>
            <Time>2022-07-10T10:44:01.000Z</Time>
            <Position>
              <LatitudeDegrees>42.75652326643466949462890625</LatitudeDegrees>
              <LongitudeDegrees>-0.216229967772960662841796875</LongitudeDegrees>
            </Position>
            <AltitudeMeters>2288.60009765625</AltitudeMeters>
            <DistanceMeters>35464.638630901</DistanceMeters>
          </Trackpoint>
          <Trackpoint>
            <Time>2022-07-10T10:44:03.000Z</Time>
            <Position>
              <LatitudeDegrees>42.75652863085269927978515625</LatitudeDegrees>
              <LongitudeDegrees>-0.21624228917062282562255859375</LongitudeDegrees>
            </Position>
            <AltitudeMeters>2288.199951171875</AltitudeMeters>
            <DistanceMeters>35465.810198918</DistanceMeters>
          </Trackpoint>
          <Trackpoint>
            <Time>2022-07-10T10:44:04.000Z</Time>
            <Position>
              <LatitudeDegrees>42.7565281279385089874267578125</LatitudeDegrees>
              <LongitudeDegrees>-0.21625469438731670379638671875</LongitudeDegrees>
            </Position>
            <AltitudeMeters>2288</AltitudeMeters>
            <DistanceMeters>35466.824806584</DistanceMeters>
          </Trackpoint>
          <Trackpoint>
            <Time>2022-07-10T10:44:06.000Z</Time>
            <Position>
              <LatitudeDegrees>42.75653156451880931854248046875</LatitudeDegrees>
              <LongitudeDegrees>-0.21628302522003650665283203125</LongitudeDegrees>
            </Position>
            <AltitudeMeters>2287.60009765625</AltitudeMeters>
            <DistanceMeters>35469.171793296</DistanceMeters>
          </Trackpoint>
          <Trackpoint>
            <Time>2022-07-10T10:44:08.000Z</Time>
            <Position>
              <LatitudeDegrees>42.7565304748713970184326171875</LatitudeDegrees>
              <LongitudeDegrees>-0.2163062430918216705322265625</LongitudeDegrees>
            </Position>
            <AltitudeMeters>2287</AltitudeMeters>
            <DistanceMeters>35471.077072995</DistanceMeters>
          </Trackpoint>
          <Trackpoint>
            <Time>2022-07-10T10:44:12.000Z</Time>
            <Position>
              <LatitudeDegrees>42.75654472410678863525390625</LatitudeDegrees>
              <LongitudeDegrees>-0.216358713805675506591796875</LongitudeDegrees>
            </Position>
            <AltitudeMeters>2286.39990234375</AltitudeMeters>
            <DistanceMeters>35475.650218198</DistanceMeters>
          </Trackpoint>
          <Trackpoint>
            <Time>2022-07-10T10:44:14.000Z</Time>
            <Position>
              <LatitudeDegrees>42.7565614879131317138671875</LatitudeDegrees>
              <LongitudeDegrees>-0.21637287922203540802001953125</LongitudeDegrees>
            </Position>
            <AltitudeMeters>2286</AltitudeMeters>
            <DistanceMeters>35477.846137327</DistanceMeters>
          </Trackpoint>
          <Trackpoint>
            <Time>2022-07-10T10:44:16.000Z</Time>
            <Position>
              <LatitudeDegrees>42.75656576268374919891357421875</LatitudeDegrees>
              <LongitudeDegrees>-0.21637338213622570037841796875</LongitudeDegrees>
            </Position>
            <AltitudeMeters>2285.39990234375</AltitudeMeters>
            <DistanceMeters>35478.321270899</DistanceMeters>
          </Trackpoint>
          <Trackpoint>
            <Time>2022-07-10T10:44:21.000Z</Time>
            <Position>
              <LatitudeDegrees>42.7565864659845829010009765625</LatitudeDegrees>
              <LongitudeDegrees>-0.216363407671451568603515625</LongitudeDegrees>
            </Position>
            <AltitudeMeters>2284.60009765625</AltitudeMeters>
            <DistanceMeters>35480.762551393</DistanceMeters>
          </Trackpoint>
          <Trackpoint>
            <Time>2022-07-10T10:44:26.000Z</Time>
            <Position>
              <LatitudeDegrees>42.75658722035586833953857421875</LatitudeDegrees>
              <LongitudeDegrees>-0.2163914032280445098876953125</LongitudeDegrees>
            </Position>
            <AltitudeMeters>2284.199951171875</AltitudeMeters>
            <DistanceMeters>35483.053069766</DistanceMeters>
          </Trackpoint>
          <Trackpoint>
            <Time>2022-07-10T10:44:28.000Z</Time>
            <Position>
              <LatitudeDegrees>42.75659023784101009368896484375</LatitudeDegrees>
              <LongitudeDegrees>-0.21641478873789310455322265625</LongitudeDegrees>
            </Position>
            <AltitudeMeters>2284.199951171875</AltitudeMeters>
            <DistanceMeters>35484.993570185</DistanceMeters>
          </Trackpoint>
          <Trackpoint>
            <Time>2022-07-10T10:44:34.000Z</Time>
            <Position>
              <LatitudeDegrees>42.756590656936168670654296875</LatitudeDegrees>
              <LongitudeDegrees>-0.216455273330211639404296875</LongitudeDegrees>
            </Position>
            <AltitudeMeters>2283.60009765625</AltitudeMeters>
            <DistanceMeters>35488.301810299</DistanceMeters>
          </Trackpoint>
          <Trackpoint>
            <Time>2022-07-10T10:44:36.000Z</Time>
            <Position>
              <LatitudeDegrees>42.75658168829977512359619140625</LatitudeDegrees>
              <LongitudeDegrees>-0.2164497412741184234619140625</LongitudeDegrees>
            </Position>
            <AltitudeMeters>2283</AltitudeMeters>
            <DistanceMeters>35489.401824045</DistanceMeters>
          </Trackpoint>
          <Trackpoint>
            <Time>2022-07-10T10:44:39.000Z</Time>
            <Position>
              <LatitudeDegrees>42.75655989535152912139892578125</LatitudeDegrees>
              <LongitudeDegrees>-0.2164178900420665740966796875</LongitudeDegrees>
            </Position>
            <AltitudeMeters>2281.800048828125</AltitudeMeters>
            <DistanceMeters>35492.959936912</DistanceMeters>
          </Trackpoint>
          <Trackpoint>
            <Time>2022-07-10T10:44:43.000Z</Time>
            <Position>
              <LatitudeDegrees>42.75654070079326629638671875</LatitudeDegrees>
              <LongitudeDegrees>-0.21634823642671108245849609375</LongitudeDegrees>
            </Position>
            <AltitudeMeters>2280.800048828125</AltitudeMeters>
            <DistanceMeters>35499.039419036</DistanceMeters>
          </Trackpoint>
          <Trackpoint>
            <Time>2022-07-10T10:44:46.000Z</Time>
            <Position>
              <LatitudeDegrees>42.75652192533016204833984375</LatitudeDegrees>
              <LongitudeDegrees>-0.21630942821502685546875</LongitudeDegrees>
            </Position>
            <AltitudeMeters>2279.60009765625</AltitudeMeters>
            <DistanceMeters>35502.836922437</DistanceMeters>
          </Trackpoint>
          <Trackpoint>
            <Time>2022-07-10T10:44:51.000Z</Time>
            <Position>
              <LatitudeDegrees>42.7564758248627185821533203125</LatitudeDegrees>
              <LongitudeDegrees>-0.2163220010697841644287109375</LongitudeDegrees>
            </Position>
            <AltitudeMeters>2278.39990234375</AltitudeMeters>
            <DistanceMeters>35508.069435387</DistanceMeters>
          </Trackpoint>
          <Trackpoint>
            <Time>2022-07-10T10:44:52.000Z</Time>
            <Position>
              <LatitudeDegrees>42.7564744837582111358642578125</LatitudeDegrees>
              <LongitudeDegrees>-0.21635360084474086761474609375</LongitudeDegrees>
            </Position>
            <AltitudeMeters>2278</AltitudeMeters>
            <DistanceMeters>35510.657932388</DistanceMeters>
          </Trackpoint>
          <Trackpoint>
            <Time>2022-07-10T10:44:54.000Z</Time>
            <Position>
              <LatitudeDegrees>42.756479680538177490234375</LatitudeDegrees>
              <LongitudeDegrees>-0.21641126833856105804443359375</LongitudeDegrees>
            </Position>
            <AltitudeMeters>2277.39990234375</AltitudeMeters>
            <DistanceMeters>35515.405465516</DistanceMeters>
          </Trackpoint>
          <Trackpoint>
            <Time>2022-07-10T10:44:57.000Z</Time>
            <Position>
              <LatitudeDegrees>42.75648303329944610595703125</LatitudeDegrees>
              <LongitudeDegrees>-0.2164752222597599029541015625</LongitudeDegrees>
            </Position>
            <AltitudeMeters>2276.39990234375</AltitudeMeters>
            <DistanceMeters>35520.645738645</DistanceMeters>
          </Trackpoint>
          <Trackpoint>
            <Time>2022-07-10T10:44:58.000Z</Time>
            <Position>
              <LatitudeDegrees>42.7564823627471923828125</LatitudeDegrees>
              <LongitudeDegrees>-0.2164986915886402130126953125</LongitudeDegrees>
            </Position>
            <AltitudeMeters>2276</AltitudeMeters>
            <DistanceMeters>35522.565184187</DistanceMeters>
          </Trackpoint>
          <Trackpoint>
            <Time>2022-07-10T10:44:59.000Z</Time>
            <Position>
              <LatitudeDegrees>42.75648529641330242156982421875</LatitudeDegrees>
              <LongitudeDegrees>-0.216518975794315338134765625</LongitudeDegrees>
            </Position>
            <AltitudeMeters>2275.60009765625</AltitudeMeters>
            <DistanceMeters>35524.254416011</DistanceMeters>
          </Trackpoint>
          <Trackpoint>
            <Time>2022-07-10T10:45:00.000Z</Time>
            <Position>
              <LatitudeDegrees>42.75649133138358592987060546875</LatitudeDegrees>
              <LongitudeDegrees>-0.21653967909514904022216796875</LongitudeDegrees>
            </Position>
            <AltitudeMeters>2275.39990234375</AltitudeMeters>
            <DistanceMeters>35526.074865971</DistanceMeters>
          </Trackpoint>
          <Trackpoint>
            <Time>2022-07-10T10:45:01.000Z</Time>
            <Position>
              <LatitudeDegrees>42.75649652816355228424072265625</LatitudeDegrees>
              <LongitudeDegrees>-0.21655644290149211883544921875</LongitudeDegrees>
            </Position>
            <AltitudeMeters>2275.199951171875</AltitudeMeters>
            <DistanceMeters>35527.562269322</DistanceMeters>
          </Trackpoint>
          <Trackpoint>
            <Time>2022-07-10T10:45:02.000Z</Time>
            <Position>
              <LatitudeDegrees>42.75649921037256717681884765625</LatitudeDegrees>
              <LongitudeDegrees>-0.21657035686075687408447265625</LongitudeDegrees>
            </Position>
            <AltitudeMeters>2274.800048828125</AltitudeMeters>
            <DistanceMeters>35528.737684864</DistanceMeters>
          </Trackpoint>
          <Trackpoint>
            <Time>2022-07-10T10:45:04.000Z</Time>
            <Position>
              <LatitudeDegrees>42.75649887509644031524658203125</LatitudeDegrees>
              <LongitudeDegrees>-0.2165939100086688995361328125</LongitudeDegrees>
            </Position>
            <AltitudeMeters>2273.60009765625</AltitudeMeters>
            <DistanceMeters>35530.661829178</DistanceMeters>
          </Trackpoint>
          <Trackpoint>
            <Time>2022-07-10T10:45:07.000Z</Time>
            <Position>
              <LatitudeDegrees>42.7565024793148040771484375</LatitudeDegrees>
              <LongitudeDegrees>-0.21662752144038677215576171875</LongitudeDegrees>
            </Position>
            <AltitudeMeters>2273</AltitudeMeters>
            <DistanceMeters>35533.438821307</DistanceMeters>
          </Trackpoint>
          <Trackpoint>
            <Time>2022-07-10T10:45:08.000Z</Time>
            <Position>
              <LatitudeDegrees>42.75650809518992900848388671875</LatitudeDegrees>
              <LongitudeDegrees>-0.21664269268512725830078125</LongitudeDegrees>
            </Position>
            <AltitudeMeters>2272.60009765625</AltitudeMeters>
            <DistanceMeters>35534.828942294</DistanceMeters>
          </Trackpoint>
          <Trackpoint>
            <Time>2022-07-10T10:45:10.000Z</Time>
            <Position>
              <LatitudeDegrees>42.7565204165875911712646484375</LatitudeDegrees>
              <LongitudeDegrees>-0.216671191155910491943359375</LongitudeDegrees>
            </Position>
            <AltitudeMeters>2272</AltitudeMeters>
            <DistanceMeters>35537.531780033</DistanceMeters>
          </Trackpoint>
          <Trackpoint>
            <Time>2022-07-10T10:45:12.000Z</Time>
            <Position>
              <LatitudeDegrees>42.75653064250946044921875</LatitudeDegrees>
              <LongitudeDegrees>-0.21670664660632610321044921875</LongitudeDegrees>
            </Position>
            <AltitudeMeters>2271.60009765625</AltitudeMeters>
            <DistanceMeters>35540.643088752</DistanceMeters>
          </Trackpoint>
          <Trackpoint>
            <Time>2022-07-10T10:45:13.000Z</Time>
            <Position>
              <LatitudeDegrees>42.756536006927490234375</LatitudeDegrees>
              <LongitudeDegrees>-0.2167253382503986358642578125</LongitudeDegrees>
            </Position>
            <AltitudeMeters>2271.39990234375</AltitudeMeters>
            <DistanceMeters>35542.283504181</DistanceMeters>
          </Trackpoint>
          <Trackpoint>
            <Time>2022-07-10T10:45:16.000Z</Time>
            <Position>
              <LatitudeDegrees>42.756543047726154327392578125</LatitudeDegrees>
              <LongitudeDegrees>-0.21676003932952880859375</LongitudeDegrees>
            </Position>
            <AltitudeMeters>2270.60009765625</AltitudeMeters>
            <DistanceMeters>35545.227799239</DistanceMeters>
          </Trackpoint>
          <Trackpoint>
            <Time>2022-07-10T10:45:18.000Z</Time>
            <Position>
              <LatitudeDegrees>42.75654229335486888885498046875</LatitudeDegrees>
              <LongitudeDegrees>-0.2167853526771068572998046875</LongitudeDegrees>
            </Position>
            <AltitudeMeters>2270.39990234375</AltitudeMeters>
            <DistanceMeters>35547.298858463</DistanceMeters>
          </Trackpoint>
          <Trackpoint>
            <Time>2022-07-10T10:45:19.000Z</Time>
            <Position>
              <LatitudeDegrees>42.7565428800880908966064453125</LatitudeDegrees>
              <LongitudeDegrees>-0.2167989313602447509765625</LongitudeDegrees>
            </Position>
            <AltitudeMeters>2270.199951171875</AltitudeMeters>
            <DistanceMeters>35548.411117639</DistanceMeters>
          </Trackpoint>
          <Trackpoint>
            <Time>2022-07-10T10:45:25.000Z</Time>
            <Position>
              <LatitudeDegrees>42.75654966942965984344482421875</LatitudeDegrees>
              <LongitudeDegrees>-0.216902196407318115234375</LongitudeDegrees>
            </Position>
            <AltitudeMeters>2270</AltitudeMeters>
            <DistanceMeters>35556.885028653</DistanceMeters>
          </Trackpoint>
          <Trackpoint>
            <Time>2022-07-10T10:45:26.000Z</Time>
            <Position>
              <LatitudeDegrees>42.756548412144184112548828125</LatitudeDegrees>
              <LongitudeDegrees>-0.2169161103665828704833984375</LongitudeDegrees>
            </Position>
            <AltitudeMeters>2269.800048828125</AltitudeMeters>
            <DistanceMeters>35558.033240812</DistanceMeters>
          </Trackpoint>
          <Trackpoint>
            <Time>2022-07-10T10:45:27.000Z</Time>
            <Position>
              <LatitudeDegrees>42.75654732249677181243896484375</LatitudeDegrees>
              <LongitudeDegrees>-0.216928683221340179443359375</LongitudeDegrees>
            </Position>
            <AltitudeMeters>2269.800048828125</AltitudeMeters>
            <DistanceMeters>35559.069859882</DistanceMeters>
          </Trackpoint>
          <Trackpoint>
            <Time>2022-07-10T10:45:29.000Z</Time>
            <Position>
              <LatitudeDegrees>42.756542377173900604248046875</LatitudeDegrees>
              <LongitudeDegrees>-0.21696246229112148284912109375</LongitudeDegrees>
            </Position>
            <AltitudeMeters>2269.199951171875</AltitudeMeters>
            <DistanceMeters>35561.885602611</DistanceMeters>
          </Trackpoint>
          <Trackpoint>
            <Time>2022-07-10T10:45:31.000Z</Time>
            <Position>
              <LatitudeDegrees>42.7565475739538669586181640625</LatitudeDegrees>
              <LongitudeDegrees>-0.21699548698961734771728515625</LongitudeDegrees>
            </Position>
            <AltitudeMeters>2268.60009765625</AltitudeMeters>
            <DistanceMeters>35564.646288127</DistanceMeters>
          </Trackpoint>
          <Trackpoint>
            <Time>2022-07-10T10:45:35.000Z</Time>
            <Position>
              <LatitudeDegrees>42.75655302219092845916748046875</LatitudeDegrees>
              <LongitudeDegrees>-0.21700386889278888702392578125</LongitudeDegrees>
            </Position>
            <AltitudeMeters>2268</AltitudeMeters>
            <DistanceMeters>35565.557752352</DistanceMeters>
          </Trackpoint>
          <Trackpoint>
            <Time>2022-07-10T10:45:37.000Z</Time>
            <Position>
              <LatitudeDegrees>42.75654380209743976593017578125</LatitudeDegrees>
              <LongitudeDegrees>-0.21699045784771442413330078125</LongitudeDegrees>
            </Position>
            <AltitudeMeters>2267.199951171875</AltitudeMeters>
            <DistanceMeters>35567.060256632</DistanceMeters>
          </Trackpoint>
          <Trackpoint>
            <Time>2022-07-10T10:45:38.000Z</Time>
            <Position>
              <LatitudeDegrees>42.75653776712715625762939453125</LatitudeDegrees>
              <LongitudeDegrees>-0.216983668506145477294921875</LongitudeDegrees>
            </Position>
            <AltitudeMeters>2266.800048828125</AltitudeMeters>
            <DistanceMeters>35567.931190855</DistanceMeters>
          </Trackpoint>
          <Trackpoint>
            <Time>2022-07-10T10:45:44.000Z</Time>
            <Position>
              <LatitudeDegrees>42.75649242103099822998046875</LatitudeDegrees>
              <LongitudeDegrees>-0.21694620139896869659423828125</LongitudeDegrees>
            </Position>
            <AltitudeMeters>2265.800048828125</AltitudeMeters>
            <DistanceMeters>35573.833566218</DistanceMeters>
          </Trackpoint>
          <Trackpoint>
            <Time>2022-07-10T10:45:45.000Z</Time>
            <Position>
              <LatitudeDegrees>42.756484709680080413818359375</LatitudeDegrees>
              <LongitudeDegrees>-0.2169410884380340576171875</LongitudeDegrees>
            </Position>
            <AltitudeMeters>2265.800048828125</AltitudeMeters>
            <DistanceMeters>35574.783833361</DistanceMeters>
          </Trackpoint>
          <Trackpoint>
            <Time>2022-07-10T10:45:47.000Z</Time>
            <Position>
              <LatitudeDegrees>42.75647305883467197418212890625</LatitudeDegrees>
              <LongitudeDegrees>-0.21692960523068904876708984375</LongitudeDegrees>
            </Position>
            <AltitudeMeters>2265.60009765625</AltitudeMeters>
            <DistanceMeters>35576.385252017</DistanceMeters>
          </Trackpoint>
          <Trackpoint>
            <Time>2022-07-10T10:45:49.000Z</Time>
            <Position>
              <LatitudeDegrees>42.7564587257802486419677734375</LatitudeDegrees>
              <LongitudeDegrees>-0.2169174514710903167724609375</LongitudeDegrees>
            </Position>
            <AltitudeMeters>2265.199951171875</AltitudeMeters>
            <DistanceMeters>35578.261879261</DistanceMeters>
          </Trackpoint>
          <Trackpoint>
            <Time>2022-07-10T10:45:50.000Z</Time>
            <Position>
              <LatitudeDegrees>42.75643249042332172393798828125</LatitudeDegrees>
              <LongitudeDegrees>-0.21691937930881977081298828125</LongitudeDegrees>
            </Position>
            <AltitudeMeters>2265.199951171875</AltitudeMeters>
            <DistanceMeters>35581.186171037</DistanceMeters>
          </Trackpoint>
          <Trackpoint>
            <Time>2022-07-10T10:45:52.000Z</Time>
            <Position>
              <LatitudeDegrees>42.7564312331378459930419921875</LatitudeDegrees>
              <LongitudeDegrees>-0.21694804541766643524169921875</LongitudeDegrees>
            </Position>
            <AltitudeMeters>2264.60009765625</AltitudeMeters>
            <DistanceMeters>35583.53315775</DistanceMeters>
          </Trackpoint>
          <Trackpoint>
            <Time>2022-07-10T10:45:53.000Z</Time>
            <Position>
              <LatitudeDegrees>42.7564332447946071624755859375</LatitudeDegrees>
              <LongitudeDegrees>-0.216966569423675537109375</LongitudeDegrees>
            </Position>
            <AltitudeMeters>2264.60009765625</AltitudeMeters>
            <DistanceMeters>35585.062467986</DistanceMeters>
          </Trackpoint>
          <Trackpoint>
            <Time>2022-07-10T10:45:54.000Z</Time>
            <Position>
              <LatitudeDegrees>42.75643416680395603179931640625</LatitudeDegrees>
              <LongitudeDegrees>-0.21698140539228916168212890625</LongitudeDegrees>
            </Position>
            <AltitudeMeters>2264.60009765625</AltitudeMeters>
            <DistanceMeters>35586.279403702</DistanceMeters>
          </Trackpoint>
          <Trackpoint>
            <Time>2022-07-10T10:45:55.000Z</Time>
            <Position>
              <LatitudeDegrees>42.75643601082265377044677734375</LatitudeDegrees>
              <LongitudeDegrees>-0.21699297241866588592529296875</LongitudeDegrees>
            </Position>
            <AltitudeMeters>2264.60009765625</AltitudeMeters>
            <DistanceMeters>35587.248489844</DistanceMeters>
          </Trackpoint>
          <Trackpoint>
            <Time>2022-07-10T10:45:57.000Z</Time>
            <Position>
              <LatitudeDegrees>42.7564369328320026397705078125</LatitudeDegrees>
              <LongitudeDegrees>-0.21701560355722904205322265625</LongitudeDegrees>
            </Position>
            <AltitudeMeters>2264.199951171875</AltitudeMeters>
            <DistanceMeters>35589.100901529</DistanceMeters>
          </Trackpoint>
          <Trackpoint>
            <Time>2022-07-10T10:45:59.000Z</Time>
            <Position>
              <LatitudeDegrees>42.75644439272582530975341796875</LatitudeDegrees>
              <LongitudeDegrees>-0.21702867932617664337158203125</LongitudeDegrees>
            </Position>
            <AltitudeMeters>2264.199951171875</AltitudeMeters>
            <DistanceMeters>35590.4514849</DistanceMeters>
          </Trackpoint>
          <Trackpoint>
            <Time>2022-07-10T10:46:01.000Z</Time>
            <Position>
              <LatitudeDegrees>42.75643936358392238616943359375</LatitudeDegrees>
              <LongitudeDegrees>-0.2170247398316860198974609375</LongitudeDegrees>
            </Position>
            <AltitudeMeters>2264</AltitudeMeters>
            <DistanceMeters>35591.095987434</DistanceMeters>
          </Trackpoint>
          <Trackpoint>
            <Time>2022-07-10T10:46:03.000Z</Time>
            <Position>
              <LatitudeDegrees>42.75642628781497478485107421875</LatitudeDegrees>
              <LongitudeDegrees>-0.2170163579285144805908203125</LongitudeDegrees>
            </Position>
            <AltitudeMeters>2263.39990234375</AltitudeMeters>
            <DistanceMeters>35592.705842067</DistanceMeters>
          </Trackpoint>
          <Trackpoint>
            <Time>2022-07-10T10:46:07.000Z</Time>
            <Position>
              <LatitudeDegrees>42.7563977055251598358154296875</LatitudeDegrees>
              <LongitudeDegrees>-0.21700671873986721038818359375</LongitudeDegrees>
            </Position>
            <AltitudeMeters>2262.39990234375</AltitudeMeters>
            <DistanceMeters>35595.982541762</DistanceMeters>
          </Trackpoint>
          <Trackpoint>
            <Time>2022-07-10T10:46:08.000Z</Time>
            <Position>
              <LatitudeDegrees>42.75638781487941741943359375</LatitudeDegrees>
              <LongitudeDegrees>-0.21700353361666202545166015625</LongitudeDegrees>
            </Position>
            <AltitudeMeters>2262.39990234375</AltitudeMeters>
            <DistanceMeters>35597.114915753</DistanceMeters>
          </Trackpoint>
          <Trackpoint>
            <Time>2022-07-10T10:46:13.000Z</Time>
            <Position>
              <LatitudeDegrees>42.7563497610390186309814453125</LatitudeDegrees>
              <LongitudeDegrees>-0.217044018208980560302734375</LongitudeDegrees>
            </Position>
            <AltitudeMeters>2260.800048828125</AltitudeMeters>
            <DistanceMeters>35602.489598491</DistanceMeters>
          </Trackpoint>
          <Trackpoint>
            <Time>2022-07-10T10:46:14.000Z</Time>
            <Position>
              <LatitudeDegrees>42.75635269470512866973876953125</LatitudeDegrees>
              <LongitudeDegrees>-0.21704929880797863006591796875</LongitudeDegrees>
            </Position>
            <AltitudeMeters>2260.800048828125</AltitudeMeters>
            <DistanceMeters>35603.027150764</DistanceMeters>
          </Trackpoint>
          <Trackpoint>
            <Time>2022-07-10T10:46:18.000Z</Time>
            <Position>
              <LatitudeDegrees>42.756345234811305999755859375</LatitudeDegrees>
              <LongitudeDegrees>-0.2170550823211669921875</LongitudeDegrees>
            </Position>
            <AltitudeMeters>2259.60009765625</AltitudeMeters>
            <DistanceMeters>35603.982157425</DistanceMeters>
          </Trackpoint>
          <Trackpoint>
            <Time>2022-07-10T10:46:20.000Z</Time>
            <Position>
              <LatitudeDegrees>42.7563336677849292755126953125</LatitudeDegrees>
              <LongitudeDegrees>-0.2170358039438724517822265625</LongitudeDegrees>
            </Position>
            <AltitudeMeters>2259.39990234375</AltitudeMeters>
            <DistanceMeters>35606.01581792</DistanceMeters>
          </Trackpoint>
          <Trackpoint>
            <Time>2022-07-10T10:46:21.000Z</Time>
            <Position>
              <LatitudeDegrees>42.756329141557216644287109375</LatitudeDegrees>
              <LongitudeDegrees>-0.2170297689735889434814453125</LongitudeDegrees>
            </Position>
            <AltitudeMeters>2259</AltitudeMeters>
            <DistanceMeters>35606.726932736</DistanceMeters>
          </Trackpoint>
          <Trackpoint>
            <Time>2022-07-10T10:46:22.000Z</Time>
            <Position>
              <LatitudeDegrees>42.75632620789110660552978515625</LatitudeDegrees>
              <LongitudeDegrees>-0.2170250751078128814697265625</LongitudeDegrees>
            </Position>
            <AltitudeMeters>2258.60009765625</AltitudeMeters>
            <DistanceMeters>35607.220706028</DistanceMeters>
          </Trackpoint>
          <Trackpoint>
            <Time>2022-07-10T10:46:25.000Z</Time>
            <Position>
              <LatitudeDegrees>42.75631782598793506622314453125</LatitudeDegrees>
              <LongitudeDegrees>-0.21701225079596042633056640625</LongitudeDegrees>
            </Position>
            <AltitudeMeters>2257.39990234375</AltitudeMeters>
            <DistanceMeters>35608.623758651</DistanceMeters>
          </Trackpoint>
          <Trackpoint>
            <Time>2022-07-10T10:46:26.000Z</Time>
            <Position>
              <LatitudeDegrees>42.7563122101128101348876953125</LatitudeDegrees>
              <LongitudeDegrees>-0.2170093171298503875732421875</LongitudeDegrees>
            </Position>
            <AltitudeMeters>2257.199951171875</AltitudeMeters>
            <DistanceMeters>35609.288945652</DistanceMeters>
          </Trackpoint>
          <Trackpoint>
            <Time>2022-07-10T10:46:28.000Z</Time>
            <Position>
              <LatitudeDegrees>42.7562991343438625335693359375</LatitudeDegrees>
              <LongitudeDegrees>-0.21701392717659473419189453125</LongitudeDegrees>
            </Position>
            <AltitudeMeters>2255.800048828125</AltitudeMeters>
            <DistanceMeters>35610.791449932</DistanceMeters>
          </Trackpoint>
          <Trackpoint>
            <Time>2022-07-10T10:46:30.000Z</Time>
            <Position>
              <LatitudeDegrees>42.7562890760600566864013671875</LatitudeDegrees>
              <LongitudeDegrees>-0.2170296013355255126953125</LongitudeDegrees>
            </Position>
            <AltitudeMeters>2254.60009765625</AltitudeMeters>
            <DistanceMeters>35612.491339476</DistanceMeters>
          </Trackpoint>
          <Trackpoint>
            <Time>2022-07-10T10:46:32.000Z</Time>
            <Position>
              <LatitudeDegrees>42.7562873996794223785400390625</LatitudeDegrees>
              <LongitudeDegrees>-0.2170508913695812225341796875</LongitudeDegrees>
            </Position>
            <AltitudeMeters>2254.199951171875</AltitudeMeters>
            <DistanceMeters>35614.24096684</DistanceMeters>
          </Trackpoint>
          <Trackpoint>
            <Time>2022-07-10T10:46:37.000Z</Time>
            <Position>
              <LatitudeDegrees>42.7562766708433628082275390625</LatitudeDegrees>
              <LongitudeDegrees>-0.21708391606807708740234375</LongitudeDegrees>
            </Position>
            <AltitudeMeters>2253.60009765625</AltitudeMeters>
            <DistanceMeters>35617.19138947</DistanceMeters>
          </Trackpoint>
          <Trackpoint>
            <Time>2022-07-10T10:46:42.000Z</Time>
            <Position>
              <LatitudeDegrees>42.75627792812883853912353515625</LatitudeDegrees>
              <LongitudeDegrees>-0.2171610295772552490234375</LongitudeDegrees>
            </Position>
            <AltitudeMeters>2252.60009765625</AltitudeMeters>
            <DistanceMeters>35623.494748602</DistanceMeters>
          </Trackpoint>
          <Trackpoint>
            <Time>2022-07-10T10:46:43.000Z</Time>
            <Position>
              <LatitudeDegrees>42.7562776766717433929443359375</LatitudeDegrees>
              <LongitudeDegrees>-0.21716027520596981048583984375</LongitudeDegrees>
            </Position>
            <AltitudeMeters>2252.39990234375</AltitudeMeters>
            <DistanceMeters>35623.629136671</DistanceMeters>
          </Trackpoint>
          <Trackpoint>
            <Time>2022-07-10T10:46:48.000Z</Time>
            <Position>
              <LatitudeDegrees>42.756258733570575714111328125</LatitudeDegrees>
              <LongitudeDegrees>-0.21710847504436969757080078125</LongitudeDegrees>
            </Position>
            <AltitudeMeters>2251.60009765625</AltitudeMeters>
            <DistanceMeters>35628.359520315</DistanceMeters>
          </Trackpoint>
          <Trackpoint>
            <Time>2022-07-10T10:46:49.000Z</Time>
            <Position>
              <LatitudeDegrees>42.75625077076256275177001953125</LatitudeDegrees>
              <LongitudeDegrees>-0.21710780449211597442626953125</LongitudeDegrees>
            </Position>
            <AltitudeMeters>2251</AltitudeMeters>
            <DistanceMeters>35629.250949913</DistanceMeters>
          </Trackpoint>
          <Trackpoint>
            <Time>2022-07-10T10:46:54.000Z</Time>
            <Position>
              <LatitudeDegrees>42.75621657259762287139892578125</LatitudeDegrees>
              <LongitudeDegrees>-0.217148624360561370849609375</LongitudeDegrees>
            </Position>
            <AltitudeMeters>2250</AltitudeMeters>
            <DistanceMeters>35634.311512806</DistanceMeters>
          </Trackpoint>
          <Trackpoint>
            <Time>2022-07-10T10:46:55.000Z</Time>
            <Position>
              <LatitudeDegrees>42.75621456094086170196533203125</LatitudeDegrees>
              <LongitudeDegrees>-0.2171615324914455413818359375</LongitudeDegrees>
            </Position>
            <AltitudeMeters>2249.60009765625</AltitudeMeters>
            <DistanceMeters>35635.386617352</DistanceMeters>
          </Trackpoint>
          <Trackpoint>
            <Time>2022-07-10T10:47:00.000Z</Time>
            <Position>
              <LatitudeDegrees>42.7562116272747516632080078125</LatitudeDegrees>
              <LongitudeDegrees>-0.21719531156122684478759765625</LongitudeDegrees>
            </Position>
            <AltitudeMeters>2248.800048828125</AltitudeMeters>
            <DistanceMeters>35638.166859326</DistanceMeters>
          </Trackpoint>
          <Trackpoint>
            <Time>2022-07-10T10:47:01.000Z</Time>
            <Position>
              <LatitudeDegrees>42.75620584376156330108642578125</LatitudeDegrees>
              <LongitudeDegrees>-0.21720327436923980712890625</LongitudeDegrees>
            </Position>
            <AltitudeMeters>2248.800048828125</AltitudeMeters>
            <DistanceMeters>35639.083263773</DistanceMeters>
          </Trackpoint>
          <Trackpoint>
            <Time>2022-07-10T10:47:04.000Z</Time>
            <Position>
              <LatitudeDegrees>42.75618723593652248382568359375</LatitudeDegrees>
              <LongitudeDegrees>-0.21722783334553241729736328125</LongitudeDegrees>
            </Position>
            <AltitudeMeters>2247.800048828125</AltitudeMeters>
            <DistanceMeters>35641.967132772</DistanceMeters>
          </Trackpoint>
          <Trackpoint>
            <Time>2022-07-10T10:47:07.000Z</Time>
            <Position>
              <LatitudeDegrees>42.7561779320240020751953125</LatitudeDegrees>
              <LongitudeDegrees>-0.21725683473050594329833984375</LongitudeDegrees>
            </Position>
            <AltitudeMeters>2246.39990234375</AltitudeMeters>
            <DistanceMeters>35644.552138878</DistanceMeters>
          </Trackpoint>
          <Trackpoint>
            <Time>2022-07-10T10:47:09.000Z</Time>
            <Position>
              <LatitudeDegrees>42.75618388317525386810302734375</LatitudeDegrees>
              <LongitudeDegrees>-0.2172909490764141082763671875</LongitudeDegrees>
            </Position>
            <AltitudeMeters>2245</AltitudeMeters>
            <DistanceMeters>35647.418734344</DistanceMeters>
          </Trackpoint>
          <Trackpoint>
            <Time>2022-07-10T10:47:14.000Z</Time>
            <Position>
              <LatitudeDegrees>42.75619679130613803863525390625</LatitudeDegrees>
              <LongitudeDegrees>-0.2173702418804168701171875</LongitudeDegrees>
            </Position>
            <AltitudeMeters>2244.39990234375</AltitudeMeters>
            <DistanceMeters>35654.056335038</DistanceMeters>
          </Trackpoint>
          <Trackpoint>
            <Time>2022-07-10T10:47:17.000Z</Time>
            <Position>
              <LatitudeDegrees>42.75620483793318271636962890625</LatitudeDegrees>
              <LongitudeDegrees>-0.2174086309969425201416015625</LongitudeDegrees>
            </Position>
            <AltitudeMeters>2243.800048828125</AltitudeMeters>
            <DistanceMeters>35657.319226413</DistanceMeters>
          </Trackpoint>
          <Trackpoint>
            <Time>2022-07-10T10:47:22.000Z</Time>
            <Position>
              <LatitudeDegrees>42.75621472857892513275146484375</LatitudeDegrees>
              <LongitudeDegrees>-0.21748633123934268951416015625</LongitudeDegrees>
            </Position>
            <AltitudeMeters>2242.60009765625</AltitudeMeters>
            <DistanceMeters>35663.762850509</DistanceMeters>
          </Trackpoint>
          <Trackpoint>
            <Time>2022-07-10T10:47:23.000Z</Time>
            <Position>
              <LatitudeDegrees>42.7562181651592254638671875</LatitudeDegrees>
              <LongitudeDegrees>-0.217499993741512298583984375</LongitudeDegrees>
            </Position>
            <AltitudeMeters>2242.39990234375</AltitudeMeters>
            <DistanceMeters>35664.942101022</DistanceMeters>
          </Trackpoint>
          <Trackpoint>
            <Time>2022-07-10T10:47:28.000Z</Time>
            <Position>
              <LatitudeDegrees>42.75621657259762287139892578125</LatitudeDegrees>
              <LongitudeDegrees>-0.21757031790912151336669921875</LongitudeDegrees>
            </Position>
            <AltitudeMeters>2242</AltitudeMeters>
            <DistanceMeters>35670.691020902</DistanceMeters>
          </Trackpoint>
          <Trackpoint>
            <Time>2022-07-10T10:47:31.000Z</Time>
            <Position>
              <LatitudeDegrees>42.75621288456022739410400390625</LatitudeDegrees>
              <LongitudeDegrees>-0.217601917684078216552734375</LongitudeDegrees>
            </Position>
            <AltitudeMeters>2242</AltitudeMeters>
            <DistanceMeters>35673.307277377</DistanceMeters>
          </Trackpoint>
          <Trackpoint>
            <Time>2022-07-10T10:47:33.000Z</Time>
            <Position>
              <LatitudeDegrees>42.75622294284403324127197265625</LatitudeDegrees>
              <LongitudeDegrees>-0.21762161515653133392333984375</LongitudeDegrees>
            </Position>
            <AltitudeMeters>2241.800048828125</AltitudeMeters>
            <DistanceMeters>35675.268606662</DistanceMeters>
          </Trackpoint>
          <Trackpoint>
            <Time>2022-07-10T10:47:36.000Z</Time>
            <Position>
              <LatitudeDegrees>42.75623551569879055023193359375</LatitudeDegrees>
              <LongitudeDegrees>-0.21763536147773265838623046875</LongitudeDegrees>
            </Position>
            <AltitudeMeters>2241.60009765625</AltitudeMeters>
            <DistanceMeters>35677.061567123</DistanceMeters>
          </Trackpoint>
          <Trackpoint>
            <Time>2022-07-10T10:47:37.000Z</Time>
            <Position>
              <LatitudeDegrees>42.75623090565204620361328125</LatitudeDegrees>
              <LongitudeDegrees>-0.21763552911579608917236328125</LongitudeDegrees>
            </Position>
            <AltitudeMeters>2240.800048828125</AltitudeMeters>
            <DistanceMeters>35677.564401231</DistanceMeters>
          </Trackpoint>
          <Trackpoint>
            <Time>2022-07-10T10:47:38.000Z</Time>
            <Position>
              <LatitudeDegrees>42.7562250383198261260986328125</LatitudeDegrees>
              <LongitudeDegrees>-0.21762999705970287322998046875</LongitudeDegrees>
            </Position>
            <AltitudeMeters>2240.39990234375</AltitudeMeters>
            <DistanceMeters>35678.353752404</DistanceMeters>
          </Trackpoint>
          <Trackpoint>
            <Time>2022-07-10T10:47:41.000Z</Time>
            <Position>
              <LatitudeDegrees>42.75617902167141437530517578125</LatitudeDegrees>
              <LongitudeDegrees>-0.2176148258149623870849609375</LongitudeDegrees>
            </Position>
            <AltitudeMeters>2239.199951171875</AltitudeMeters>
            <DistanceMeters>35683.623238628</DistanceMeters>
          </Trackpoint>
          <Trackpoint>
            <Time>2022-07-10T10:47:42.000Z</Time>
            <Position>
              <LatitudeDegrees>42.7561707235872745513916015625</LatitudeDegrees>
              <LongitudeDegrees>-0.21760853938758373260498046875</LongitudeDegrees>
            </Position>
            <AltitudeMeters>2239</AltitudeMeters>
            <DistanceMeters>35684.681411336</DistanceMeters>
          </Trackpoint>
          <Trackpoint>
            <Time>2022-07-10T10:47:46.000Z</Time>
            <Position>
              <LatitudeDegrees>42.75614985264837741851806640625</LatitudeDegrees>
              <LongitudeDegrees>-0.2175678871572017669677734375</LongitudeDegrees>
            </Position>
            <AltitudeMeters>2238.60009765625</AltitudeMeters>
            <DistanceMeters>35688.735389521</DistanceMeters>
          </Trackpoint>
          <Trackpoint>
            <Time>2022-07-10T10:47:47.000Z</Time>
            <Position>
              <LatitudeDegrees>42.75614767335355281829833984375</LatitudeDegrees>
              <LongitudeDegrees>-0.217556655406951904296875</LongitudeDegrees>
            </Position>
            <AltitudeMeters>2238.199951171875</AltitudeMeters>
            <DistanceMeters>35689.685656665</DistanceMeters>
          </Trackpoint>
          <Trackpoint>
            <Time>2022-07-10T10:47:50.000Z</Time>
            <Position>
              <LatitudeDegrees>42.75614180602133274078369140625</LatitudeDegrees>
              <LongitudeDegrees>-0.21752941422164440155029296875</LongitudeDegrees>
            </Position>
            <AltitudeMeters>2237.60009765625</AltitudeMeters>
            <DistanceMeters>35692.005554413</DistanceMeters>
          </Trackpoint>
          <Trackpoint>
            <Time>2022-07-10T10:47:53.000Z</Time>
            <Position>
              <LatitudeDegrees>42.7561231143772602081298828125</LatitudeDegrees>
              <LongitudeDegrees>-0.21750946529209613800048828125</LongitudeDegrees>
            </Position>
            <AltitudeMeters>2237</AltitudeMeters>
            <DistanceMeters>35694.645861027</DistanceMeters>
          </Trackpoint>
          <Trackpoint>
            <Time>2022-07-10T10:47:57.000Z</Time>
            <Position>
              <LatitudeDegrees>42.75609151460230350494384765625</LatitudeDegrees>
              <LongitudeDegrees>-0.21752941422164440155029296875</LongitudeDegrees>
            </Position>
            <AltitudeMeters>2236</AltitudeMeters>
            <DistanceMeters>35698.522205594</DistanceMeters>
          </Trackpoint>
          <Trackpoint>
            <Time>2022-07-10T10:47:58.000Z</Time>
            <Position>
              <LatitudeDegrees>42.75609335862100124359130859375</LatitudeDegrees>
              <LongitudeDegrees>-0.21753787994384765625</LongitudeDegrees>
            </Position>
            <AltitudeMeters>2235.800048828125</AltitudeMeters>
            <DistanceMeters>35699.239641554</DistanceMeters>
          </Trackpoint>
          <Trackpoint>
            <Time>2022-07-10T10:48:03.000Z</Time>
            <Position>
              <LatitudeDegrees>42.7561288140714168548583984375</LatitudeDegrees>
              <LongitudeDegrees>-0.21759630180895328521728515625</LongitudeDegrees>
            </Position>
            <AltitudeMeters>2235.60009765625</AltitudeMeters>
            <DistanceMeters>35705.433167588</DistanceMeters>
          </Trackpoint>
          <Trackpoint>
            <Time>2022-07-10T10:48:06.000Z</Time>
            <Position>
              <LatitudeDegrees>42.75614834390580654144287109375</LatitudeDegrees>
              <LongitudeDegrees>-0.21760015748441219329833984375</LongitudeDegrees>
            </Position>
            <AltitudeMeters>2234.800048828125</AltitudeMeters>
            <DistanceMeters>35707.629086717</DistanceMeters>
          </Trackpoint>
          <Trackpoint>
            <Time>2022-07-10T10:48:08.000Z</Time>
            <Position>
              <LatitudeDegrees>42.756158150732517242431640625</LatitudeDegrees>
              <LongitudeDegrees>-0.21761306561529636383056640625</LongitudeDegrees>
            </Position>
            <AltitudeMeters>2234.60009765625</AltitudeMeters>
            <DistanceMeters>35709.146541657</DistanceMeters>
          </Trackpoint>
          <Trackpoint>
            <Time>2022-07-10T10:48:10.000Z</Time>
            <Position>
              <LatitudeDegrees>42.75616594590246677398681640625</LatitudeDegrees>
              <LongitudeDegrees>-0.21763242781162261962890625</LongitudeDegrees>
            </Position>
            <AltitudeMeters>2234.199951171875</AltitudeMeters>
            <DistanceMeters>35710.949546793</DistanceMeters>
          </Trackpoint>
          <Trackpoint>
            <Time>2022-07-10T10:48:15.000Z</Time>
            <Position>
              <LatitudeDegrees>42.75615706108510494232177734375</LatitudeDegrees>
              <LongitudeDegrees>-0.21770359016954898834228515625</LongitudeDegrees>
            </Position>
            <AltitudeMeters>2234.39990234375</AltitudeMeters>
            <DistanceMeters>35716.848096151</DistanceMeters>
          </Trackpoint>
          <Trackpoint>
            <Time>2022-07-10T10:48:18.000Z</Time>
            <Position>
              <LatitudeDegrees>42.756147086620330810546875</LatitudeDegrees>
              <LongitudeDegrees>-0.2177412249147891998291015625</LongitudeDegrees>
            </Position>
            <AltitudeMeters>2234</AltitudeMeters>
            <DistanceMeters>35720.117898976</DistanceMeters>
          </Trackpoint>
          <Trackpoint>
            <Time>2022-07-10T10:48:19.000Z</Time>
            <Position>
              <LatitudeDegrees>42.7561496011912822723388671875</LatitudeDegrees>
              <LongitudeDegrees>-0.217758156359195709228515625</LongitudeDegrees>
            </Position>
            <AltitudeMeters>2233.800048828125</AltitudeMeters>
            <DistanceMeters>35721.527372926</DistanceMeters>
          </Trackpoint>
          <Trackpoint>
            <Time>2022-07-10T10:48:21.000Z</Time>
            <Position>
              <LatitudeDegrees>42.756164185702800750732421875</LatitudeDegrees>
              <LongitudeDegrees>-0.21777994930744171142578125</LongitudeDegrees>
            </Position>
            <AltitudeMeters>2233.199951171875</AltitudeMeters>
            <DistanceMeters>35723.940752156</DistanceMeters>
          </Trackpoint>
          <Trackpoint>
            <Time>2022-07-10T10:48:23.000Z</Time>
            <Position>
              <LatitudeDegrees>42.75617457926273345947265625</LatitudeDegrees>
              <LongitudeDegrees>-0.217814482748508453369140625</LongitudeDegrees>
            </Position>
            <AltitudeMeters>2233.199951171875</AltitudeMeters>
            <DistanceMeters>35726.991982861</DistanceMeters>
          </Trackpoint>
          <Trackpoint>
            <Time>2022-07-10T10:48:25.000Z</Time>
            <Position>
              <LatitudeDegrees>42.756190001964569091796875</LatitudeDegrees>
              <LongitudeDegrees>-0.217840634286403656005859375</LongitudeDegrees>
            </Position>
            <AltitudeMeters>2233</AltitudeMeters>
            <DistanceMeters>35729.73297239</DistanceMeters>
          </Trackpoint>
          <Trackpoint>
            <Time>2022-07-10T10:48:27.000Z</Time>
            <Position>
              <LatitudeDegrees>42.7562096156179904937744140625</LatitudeDegrees>
              <LongitudeDegrees>-0.21786041557788848876953125</LongitudeDegrees>
            </Position>
            <AltitudeMeters>2233.199951171875</AltitudeMeters>
            <DistanceMeters>35732.450802873</DistanceMeters>
          </Trackpoint>
          <Trackpoint>
            <Time>2022-07-10T10:48:30.000Z</Time>
            <Position>
              <LatitudeDegrees>42.756223864853382110595703125</LatitudeDegrees>
              <LongitudeDegrees>-0.21788732148706912994384765625</LongitudeDegrees>
            </Position>
            <AltitudeMeters>2233.199951171875</AltitudeMeters>
            <DistanceMeters>35735.161980149</DistanceMeters>
          </Trackpoint>
          <Trackpoint>
            <Time>2022-07-10T10:48:32.000Z</Time>
            <Position>
              <LatitudeDegrees>42.75622378103435039520263671875</LatitudeDegrees>
              <LongitudeDegrees>-0.2178957872092723846435546875</LongitudeDegrees>
            </Position>
            <AltitudeMeters>2233</AltitudeMeters>
            <DistanceMeters>35735.860281036</DistanceMeters>
          </Trackpoint>
          <Trackpoint>
            <Time>2022-07-10T10:48:34.000Z</Time>
            <Position>
              <LatitudeDegrees>42.7562181651592254638671875</LatitudeDegrees>
              <LongitudeDegrees>-0.2178879082202911376953125</LongitudeDegrees>
            </Position>
            <AltitudeMeters>2232.199951171875</AltitudeMeters>
            <DistanceMeters>35736.761783604</DistanceMeters>
          </Trackpoint>
          <Trackpoint>
            <Time>2022-07-10T10:48:37.000Z</Time>
            <Position>
              <LatitudeDegrees>42.7562049217522144317626953125</LatitudeDegrees>
              <LongitudeDegrees>-0.21787206642329692840576171875</LongitudeDegrees>
            </Position>
            <AltitudeMeters>2230.800048828125</AltitudeMeters>
            <DistanceMeters>35738.720809507</DistanceMeters>
          </Trackpoint>
          <Trackpoint>
            <Time>2022-07-10T10:48:40.000Z</Time>
            <Position>
              <LatitudeDegrees>42.756187655031681060791015625</LatitudeDegrees>
              <LongitudeDegrees>-0.2178796939551830291748046875</LongitudeDegrees>
            </Position>
            <AltitudeMeters>2229.39990234375</AltitudeMeters>
            <DistanceMeters>35740.741105167</DistanceMeters>
          </Trackpoint>
          <Trackpoint>
            <Time>2022-07-10T10:48:41.000Z</Time>
            <Position>
              <LatitudeDegrees>42.7561780996620655059814453125</LatitudeDegrees>
              <LongitudeDegrees>-0.21789670921862125396728515625</LongitudeDegrees>
            </Position>
            <AltitudeMeters>2229.199951171875</AltitudeMeters>
            <DistanceMeters>35742.493311202</DistanceMeters>
          </Trackpoint>
          <Trackpoint>
            <Time>2022-07-10T10:48:45.000Z</Time>
            <Position>
              <LatitudeDegrees>42.7561921812593936920166015625</LatitudeDegrees>
              <LongitudeDegrees>-0.21794565953314304351806640625</LongitudeDegrees>
            </Position>
            <AltitudeMeters>2228.199951171875</AltitudeMeters>
            <DistanceMeters>35746.789527706</DistanceMeters>
          </Trackpoint>
          <Trackpoint>
            <Time>2022-07-10T10:48:47.000Z</Time>
            <Position>
              <LatitudeDegrees>42.75618757121264934539794921875</LatitudeDegrees>
              <LongitudeDegrees>-0.21796175278723239898681640625</LongitudeDegrees>
            </Position>
            <AltitudeMeters>2228</AltitudeMeters>
            <DistanceMeters>35748.199001657</DistanceMeters>
          </Trackpoint>
          <Trackpoint>
            <Time>2022-07-10T10:48:50.000Z</Time>
            <Position>
              <LatitudeDegrees>42.7561717294156551361083984375</LatitudeDegrees>
              <LongitudeDegrees>-0.21796728484332561492919921875</LongitudeDegrees>
            </Position>
            <AltitudeMeters>2227.199951171875</AltitudeMeters>
            <DistanceMeters>35750.016969748</DistanceMeters>
          </Trackpoint>
          <Trackpoint>
            <Time>2022-07-10T10:48:53.000Z</Time>
            <Position>
              <LatitudeDegrees>42.75615856982767581939697265625</LatitudeDegrees>
              <LongitudeDegrees>-0.21798488683998584747314453125</LongitudeDegrees>
            </Position>
            <AltitudeMeters>2226.60009765625</AltitudeMeters>
            <DistanceMeters>35752.070514415</DistanceMeters>
          </Trackpoint>
          <Trackpoint>
            <Time>2022-07-10T10:48:56.000Z</Time>
            <Position>
              <LatitudeDegrees>42.75614331476390361785888671875</LatitudeDegrees>
              <LongitudeDegrees>-0.218016318976879119873046875</LongitudeDegrees>
            </Position>
            <AltitudeMeters>2226</AltitudeMeters>
            <DistanceMeters>35755.149731891</DistanceMeters>
          </Trackpoint>
          <Trackpoint>
            <Time>2022-07-10T10:48:59.000Z</Time>
            <Position>
              <LatitudeDegrees>42.7561519481241703033447265625</LatitudeDegrees>
              <LongitudeDegrees>-0.218046493828296661376953125</LongitudeDegrees>
            </Position>
            <AltitudeMeters>2224.800048828125</AltitudeMeters>
            <DistanceMeters>35757.79516366</DistanceMeters>
          </Trackpoint>
          <Trackpoint>
            <Time>2022-07-10T10:49:00.000Z</Time>
            <Position>
              <LatitudeDegrees>42.75615706108510494232177734375</LatitudeDegrees>
              <LongitudeDegrees>-0.218053869903087615966796875</LongitudeDegrees>
            </Position>
            <AltitudeMeters>2224.60009765625</AltitudeMeters>
            <DistanceMeters>35758.62358735</DistanceMeters>
          </Trackpoint>
          <Trackpoint>
            <Time>2022-07-10T10:49:03.000Z</Time>
            <Position>
              <LatitudeDegrees>42.756180949509143829345703125</LatitudeDegrees>
              <LongitudeDegrees>-0.21808731369674205780029296875</LongitudeDegrees>
            </Position>
            <AltitudeMeters>2223.39990234375</AltitudeMeters>
            <DistanceMeters>35762.436515762</DistanceMeters>
          </Trackpoint>
          <Trackpoint>
            <Time>2022-07-10T10:49:05.000Z</Time>
            <Position>
              <LatitudeDegrees>42.7561901696026325225830078125</LatitudeDegrees>
              <LongitudeDegrees>-0.218093097209930419921875</LongitudeDegrees>
            </Position>
            <AltitudeMeters>2223.199951171875</AltitudeMeters>
            <DistanceMeters>35763.568889752</DistanceMeters>
          </Trackpoint>
          <Trackpoint>
            <Time>2022-07-10T10:49:10.000Z</Time>
            <Position>
              <LatitudeDegrees>42.7561886608600616455078125</LatitudeDegrees>
              <LongitudeDegrees>-0.21814380772411823272705078125</LongitudeDegrees>
            </Position>
            <AltitudeMeters>2222.800048828125</AltitudeMeters>
            <DistanceMeters>35767.717543233</DistanceMeters>
          </Trackpoint>
          <Trackpoint>
            <Time>2022-07-10T10:49:13.000Z</Time>
            <Position>
              <LatitudeDegrees>42.756189666688442230224609375</LatitudeDegrees>
              <LongitudeDegrees>-0.21816928870975971221923828125</LongitudeDegrees>
            </Position>
            <AltitudeMeters>2222.39990234375</AltitudeMeters>
            <DistanceMeters>35769.801641784</DistanceMeters>
          </Trackpoint>
          <Trackpoint>
            <Time>2022-07-10T10:49:14.000Z</Time>
            <Position>
              <LatitudeDegrees>42.75618991814553737640380859375</LatitudeDegrees>
              <LongitudeDegrees>-0.2181676961481571197509765625</LongitudeDegrees>
            </Position>
            <AltitudeMeters>2222.199951171875</AltitudeMeters>
            <DistanceMeters>35769.936029852</DistanceMeters>
          </Trackpoint>
          <Trackpoint>
            <Time>2022-07-10T10:49:16.000Z</Time>
            <Position>
              <LatitudeDegrees>42.7561837993562221527099609375</LatitudeDegrees>
              <LongitudeDegrees>-0.21815520711243152618408203125</LongitudeDegrees>
            </Position>
            <AltitudeMeters>2221</AltitudeMeters>
            <DistanceMeters>35771.160363422</DistanceMeters>
          </Trackpoint>
          <Trackpoint>
            <Time>2022-07-10T10:49:19.000Z</Time>
            <Position>
              <LatitudeDegrees>42.75616527535021305084228515625</LatitudeDegrees>
              <LongitudeDegrees>-0.218119919300079345703125</LongitudeDegrees>
            </Position>
            <AltitudeMeters>2219.800048828125</AltitudeMeters>
            <DistanceMeters>35774.705764162</DistanceMeters>
          </Trackpoint>
          <Trackpoint>
            <Time>2022-07-10T10:49:21.000Z</Time>
            <Position>
              <LatitudeDegrees>42.756151445209980010986328125</LatitudeDegrees>
              <LongitudeDegrees>-0.21809703670442104339599609375</LongitudeDegrees>
            </Position>
            <AltitudeMeters>2219.60009765625</AltitudeMeters>
            <DistanceMeters>35777.128479516</DistanceMeters>
          </Trackpoint>
          <Trackpoint>
            <Time>2022-07-10T10:49:22.000Z</Time>
            <Position>
              <LatitudeDegrees>42.756142057478427886962890625</LatitudeDegrees>
              <LongitudeDegrees>-0.21808932535350322723388671875</LongitudeDegrees>
            </Position>
            <AltitudeMeters>2219.60009765625</AltitudeMeters>
            <DistanceMeters>35778.349119764</DistanceMeters>
          </Trackpoint>
          <Trackpoint>
            <Time>2022-07-10T10:49:24.000Z</Time>
            <Position>
              <LatitudeDegrees>42.75612252764403820037841796875</LatitudeDegrees>
              <LongitudeDegrees>-0.2180778421461582183837890625</LongitudeDegrees>
            </Position>
            <AltitudeMeters>2218.60009765625</AltitudeMeters>
            <DistanceMeters>35780.717173283</DistanceMeters>
          </Trackpoint>
          <Trackpoint>
            <Time>2022-07-10T10:49:27.000Z</Time>
            <Position>
              <LatitudeDegrees>42.75608028285205364227294921875</LatitudeDegrees>
              <LongitudeDegrees>-0.218050517141819000244140625</LongitudeDegrees>
            </Position>
            <AltitudeMeters>2218</AltitudeMeters>
            <DistanceMeters>35785.922000786</DistanceMeters>
          </Trackpoint>
          <Trackpoint>
            <Time>2022-07-10T10:49:28.000Z</Time>
            <Position>
              <LatitudeDegrees>42.75606594979763031005859375</LatitudeDegrees>
              <LongitudeDegrees>-0.218041129410266876220703125</LongitudeDegrees>
            </Position>
            <AltitudeMeters>2217.800048828125</AltitudeMeters>
            <DistanceMeters>35787.68959985</DistanceMeters>
          </Trackpoint>
          <Trackpoint>
            <Time>2022-07-10T10:49:30.000Z</Time>
            <Position>
              <LatitudeDegrees>42.7560382895171642303466796875</LatitudeDegrees>
              <LongitudeDegrees>-0.2180235274136066436767578125</LongitudeDegrees>
            </Position>
            <AltitudeMeters>2217.60009765625</AltitudeMeters>
            <DistanceMeters>35791.086721822</DistanceMeters>
          </Trackpoint>
          <Trackpoint>
            <Time>2022-07-10T10:49:33.000Z</Time>
            <Position>
              <LatitudeDegrees>42.755998559296131134033203125</LatitudeDegrees>
              <LongitudeDegrees>-0.21802025847136974334716796875</LongitudeDegrees>
            </Position>
            <AltitudeMeters>2217.39990234375</AltitudeMeters>
            <DistanceMeters>35795.517453837</DistanceMeters>
          </Trackpoint>
          <Trackpoint>
            <Time>2022-07-10T10:49:36.000Z</Time>
            <Position>
              <LatitudeDegrees>42.75595740415155887603759765625</LatitudeDegrees>
              <LongitudeDegrees>-0.2180086076259613037109375</LongitudeDegrees>
            </Position>
            <AltitudeMeters>2217.39990234375</AltitudeMeters>
            <DistanceMeters>35800.196011873</DistanceMeters>
          </Trackpoint>
          <Trackpoint>
            <Time>2022-07-10T10:49:37.000Z</Time>
            <Position>
              <LatitudeDegrees>42.75594667531549930572509765625</LatitudeDegrees>
              <LongitudeDegrees>-0.21801598370075225830078125</LongitudeDegrees>
            </Position>
            <AltitudeMeters>2216.800048828125</AltitudeMeters>
            <DistanceMeters>35801.533156269</DistanceMeters>
          </Trackpoint>
          <Trackpoint>
            <Time>2022-07-10T10:49:38.000Z</Time>
            <Position>
              <LatitudeDegrees>42.755935527384281158447265625</LatitudeDegrees>
              <LongitudeDegrees>-0.21801640279591083526611328125</LongitudeDegrees>
            </Position>
            <AltitudeMeters>2216.60009765625</AltitudeMeters>
            <DistanceMeters>35802.772153039</DistanceMeters>
          </Trackpoint>
          <Trackpoint>
            <Time>2022-07-10T10:49:41.000Z</Time>
            <Position>
              <LatitudeDegrees>42.75590778328478336334228515625</LatitudeDegrees>
              <LongitudeDegrees>-0.218026377260684967041015625</LongitudeDegrees>
            </Position>
            <AltitudeMeters>2216.39990234375</AltitudeMeters>
            <DistanceMeters>35805.963692829</DistanceMeters>
          </Trackpoint>
          <Trackpoint>
            <Time>2022-07-10T10:49:42.000Z</Time>
            <Position>
              <LatitudeDegrees>42.75590191595256328582763671875</LatitudeDegrees>
              <LongitudeDegrees>-0.2180302329361438751220703125</LongitudeDegrees>
            </Position>
            <AltitudeMeters>2216</AltitudeMeters>
            <DistanceMeters>35806.687394724</DistanceMeters>
          </Trackpoint>
          <Trackpoint>
            <Time>2022-07-10T10:49:45.000Z</Time>
            <Position>
              <LatitudeDegrees>42.755886577069759368896484375</LatitudeDegrees>
              <LongitudeDegrees>-0.21805345080792903900146484375</LongitudeDegrees>
            </Position>
            <AltitudeMeters>2215.60009765625</AltitudeMeters>
            <DistanceMeters>35809.240768021</DistanceMeters>
          </Trackpoint>
          <Trackpoint>
            <Time>2022-07-10T10:49:47.000Z</Time>
            <Position>
              <LatitudeDegrees>42.75587710551917552947998046875</LatitudeDegrees>
              <LongitudeDegrees>-0.2180825360119342803955078125</LongitudeDegrees>
            </Position>
            <AltitudeMeters>2215.199951171875</AltitudeMeters>
            <DistanceMeters>35811.843181773</DistanceMeters>
          </Trackpoint>
          <Trackpoint>
            <Time>2022-07-10T10:49:52.000Z</Time>
            <Position>
              <LatitudeDegrees>42.75588515214622020721435546875</LatitudeDegrees>
              <LongitudeDegrees>-0.21815671585500240325927734375</LongitudeDegrees>
            </Position>
            <AltitudeMeters>2214.800048828125</AltitudeMeters>
            <DistanceMeters>35817.972220686</DistanceMeters>
          </Trackpoint>
          <Trackpoint>
            <Time>2022-07-10T10:49:53.000Z</Time>
            <Position>
              <LatitudeDegrees>42.755893953144550323486328125</LatitudeDegrees>
              <LongitudeDegrees>-0.2181687019765377044677734375</LongitudeDegrees>
            </Position>
            <AltitudeMeters>2214.60009765625</AltitudeMeters>
            <DistanceMeters>35819.355830532</DistanceMeters>
          </Trackpoint>
          <Trackpoint>
            <Time>2022-07-10T10:49:58.000Z</Time>
            <Position>
              <LatitudeDegrees>42.755952961742877960205078125</LatitudeDegrees>
              <LongitudeDegrees>-0.2182085998356342315673828125</LongitudeDegrees>
            </Position>
            <AltitudeMeters>2214.60009765625</AltitudeMeters>
            <DistanceMeters>35826.688297726</DistanceMeters>
          </Trackpoint>
          <Trackpoint>
            <Time>2022-07-10T10:49:59.000Z</Time>
            <Position>
              <LatitudeDegrees>42.75595857761800289154052734375</LatitudeDegrees>
              <LongitudeDegrees>-0.21821857430040836334228515625</LongitudeDegrees>
            </Position>
            <AltitudeMeters>2214.39990234375</AltitudeMeters>
            <DistanceMeters>35827.711766762</DistanceMeters>
          </Trackpoint>
          <Trackpoint>
            <Time>2022-07-10T10:50:01.000Z</Time>
            <Position>
              <LatitudeDegrees>42.75597517378628253936767578125</LatitudeDegrees>
              <LongitudeDegrees>-0.21824539639055728912353515625</LongitudeDegrees>
            </Position>
            <AltitudeMeters>2213.39990234375</AltitudeMeters>
            <DistanceMeters>35830.578362228</DistanceMeters>
          </Trackpoint>
          <Trackpoint>
            <Time>2022-07-10T10:50:02.000Z</Time>
            <Position>
              <LatitudeDegrees>42.75598338805139064788818359375</LatitudeDegrees>
              <LongitudeDegrees>-0.2182548679411411285400390625</LongitudeDegrees>
            </Position>
            <AltitudeMeters>2213</AltitudeMeters>
            <DistanceMeters>35831.772829506</DistanceMeters>
          </Trackpoint>
          <Trackpoint>
            <Time>2022-07-10T10:50:03.000Z</Time>
            <Position>
              <LatitudeDegrees>42.75599344633519649505615234375</LatitudeDegrees>
              <LongitudeDegrees>-0.2182659320533275604248046875</LongitudeDegrees>
            </Position>
            <AltitudeMeters>2212.800048828125</AltitudeMeters>
            <DistanceMeters>35833.213980984</DistanceMeters>
          </Trackpoint>
          <Trackpoint>
            <Time>2022-07-10T10:50:05.000Z</Time>
            <Position>
              <LatitudeDegrees>42.756013981997966766357421875</LatitudeDegrees>
              <LongitudeDegrees>-0.21829535253345966339111328125</LongitudeDegrees>
            </Position>
            <AltitudeMeters>2212.39990234375</AltitudeMeters>
            <DistanceMeters>35836.530399701</DistanceMeters>
          </Trackpoint>
          <Trackpoint>
            <Time>2022-07-10T10:50:06.000Z</Time>
            <Position>
              <LatitudeDegrees>42.75601691566407680511474609375</LatitudeDegrees>
              <LongitudeDegrees>-0.2183115296065807342529296875</LongitudeDegrees>
            </Position>
            <AltitudeMeters>2211.800048828125</AltitudeMeters>
            <DistanceMeters>35837.894289633</DistanceMeters>
          </Trackpoint>
          <Trackpoint>
            <Time>2022-07-10T10:50:08.000Z</Time>
            <Position>
              <LatitudeDegrees>42.7560268901288509368896484375</LatitudeDegrees>
              <LongitudeDegrees>-0.2183396928012371063232421875</LongitudeDegrees>
            </Position>
            <AltitudeMeters>2211.199951171875</AltitudeMeters>
            <DistanceMeters>35840.451197012</DistanceMeters>
          </Trackpoint>
          <Trackpoint>
            <Time>2022-07-10T10:50:11.000Z</Time>
            <Position>
              <LatitudeDegrees>42.75604340247809886932373046875</LatitudeDegrees>
              <LongitudeDegrees>-0.21839015185832977294921875</LongitudeDegrees>
            </Position>
            <AltitudeMeters>2211</AltitudeMeters>
            <DistanceMeters>35844.965716093</DistanceMeters>
          </Trackpoint>
          <Trackpoint>
            <Time>2022-07-10T10:50:12.000Z</Time>
            <Position>
              <LatitudeDegrees>42.75604675523936748504638671875</LatitudeDegrees>
              <LongitudeDegrees>-0.21841051988303661346435546875</LongitudeDegrees>
            </Position>
            <AltitudeMeters>2210.800048828125</AltitudeMeters>
            <DistanceMeters>35846.673555281</DistanceMeters>
          </Trackpoint>
          <Trackpoint>
            <Time>2022-07-10T10:50:17.000Z</Time>
            <Position>
              <LatitudeDegrees>42.756065614521503448486328125</LatitudeDegrees>
              <LongitudeDegrees>-0.21849031560122966766357421875</LongitudeDegrees>
            </Position>
            <AltitudeMeters>2210</AltitudeMeters>
            <DistanceMeters>35853.524052145</DistanceMeters>
          </Trackpoint>
          <Trackpoint>
            <Time>2022-07-10T10:50:22.000Z</Time>
            <Position>
              <LatitudeDegrees>42.7560587413609027862548828125</LatitudeDegrees>
              <LongitudeDegrees>-0.21854278631508350372314453125</LongitudeDegrees>
            </Position>
            <AltitudeMeters>2209.800048828125</AltitudeMeters>
            <DistanceMeters>35857.878723261</DistanceMeters>
          </Trackpoint>
          <Trackpoint>
            <Time>2022-07-10T10:50:23.000Z</Time>
            <Position>
              <LatitudeDegrees>42.7560567297041416168212890625</LatitudeDegrees>
              <LongitudeDegrees>-0.21855242550373077392578125</LongitudeDegrees>
            </Position>
            <AltitudeMeters>2209.800048828125</AltitudeMeters>
            <DistanceMeters>35858.701678748</DistanceMeters>
          </Trackpoint>
          <Trackpoint>
            <Time>2022-07-10T10:50:27.000Z</Time>
            <Position>
              <LatitudeDegrees>42.75605899281799793243408203125</LatitudeDegrees>
              <LongitudeDegrees>-0.2186062373220920562744140625</LongitudeDegrees>
            </Position>
            <AltitudeMeters>2210</AltitudeMeters>
            <DistanceMeters>35863.107886228</DistanceMeters>
          </Trackpoint>
          <Trackpoint>
            <Time>2022-07-10T10:50:28.000Z</Time>
            <Position>
              <LatitudeDegrees>42.75605614297091960906982421875</LatitudeDegrees>
              <LongitudeDegrees>-0.2186179719865322113037109375</LongitudeDegrees>
            </Position>
            <AltitudeMeters>2210</AltitudeMeters>
            <DistanceMeters>35864.122493893</DistanceMeters>
          </Trackpoint>
          <Trackpoint>
            <Time>2022-07-10T10:50:29.000Z</Time>
            <Position>
              <LatitudeDegrees>42.7560537122189998626708984375</LatitudeDegrees>
              <LongitudeDegrees>-0.21862744353711605072021484375</LongitudeDegrees>
            </Position>
            <AltitudeMeters>2210</AltitudeMeters>
            <DistanceMeters>35864.939944599</DistanceMeters>
          </Trackpoint>
          <Trackpoint>
            <Time>2022-07-10T10:50:30.000Z</Time>
            <Position>
              <LatitudeDegrees>42.75604977272450923919677734375</LatitudeDegrees>
              <LongitudeDegrees>-0.218639262020587921142578125</LongitudeDegrees>
            </Position>
            <AltitudeMeters>2210</AltitudeMeters>
            <DistanceMeters>35866.002375564</DistanceMeters>
          </Trackpoint>
          <Trackpoint>
            <Time>2022-07-10T10:50:33.000Z</Time>
            <Position>
              <LatitudeDegrees>42.75604323484003543853759765625</LatitudeDegrees>
              <LongitudeDegrees>-0.2186783216893672943115234375</LongitudeDegrees>
            </Position>
            <AltitudeMeters>2209.800048828125</AltitudeMeters>
            <DistanceMeters>35869.274938881</DistanceMeters>
          </Trackpoint>
          <Trackpoint>
            <Time>2022-07-10T10:50:35.000Z</Time>
            <Position>
              <LatitudeDegrees>42.75604876689612865447998046875</LatitudeDegrees>
              <LongitudeDegrees>-0.2186853624880313873291015625</LongitudeDegrees>
            </Position>
            <AltitudeMeters>2209.60009765625</AltitudeMeters>
            <DistanceMeters>35870.119554793</DistanceMeters>
          </Trackpoint>
          <Trackpoint>
            <Time>2022-07-10T10:50:36.000Z</Time>
            <Position>
              <LatitudeDegrees>42.7560503594577312469482421875</LatitudeDegrees>
              <LongitudeDegrees>-0.21868796087801456451416015625</LongitudeDegrees>
            </Position>
            <AltitudeMeters>2209.60009765625</AltitudeMeters>
            <DistanceMeters>35870.38833093</DistanceMeters>
          </Trackpoint>
          <Trackpoint>
            <Time>2022-07-10T10:50:39.000Z</Time>
            <Position>
              <LatitudeDegrees>42.75605027563869953155517578125</LatitudeDegrees>
              <LongitudeDegrees>-0.21872132085263729095458984375</LongitudeDegrees>
            </Position>
            <AltitudeMeters>2209.39990234375</AltitudeMeters>
            <DistanceMeters>35873.116110795</DistanceMeters>
          </Trackpoint>
          <Trackpoint>
            <Time>2022-07-10T10:50:42.000Z</Time>
            <Position>
              <LatitudeDegrees>42.7560382895171642303466796875</LatitudeDegrees>
              <LongitudeDegrees>-0.218759961426258087158203125</LongitudeDegrees>
            </Position>
            <AltitudeMeters>2209.199951171875</AltitudeMeters>
            <DistanceMeters>35876.543665237</DistanceMeters>
          </Trackpoint>
          <Trackpoint>
            <Time>2022-07-10T10:50:43.000Z</Time>
            <Position>
              <LatitudeDegrees>42.75603300891816616058349609375</LatitudeDegrees>
              <LongitudeDegrees>-0.21876691840589046478271484375</LongitudeDegrees>
            </Position>
            <AltitudeMeters>2209.199951171875</AltitudeMeters>
            <DistanceMeters>35877.361115943</DistanceMeters>
          </Trackpoint>
          <Trackpoint>
            <Time>2022-07-10T10:50:46.000Z</Time>
            <Position>
              <LatitudeDegrees>42.7560116350650787353515625</LatitudeDegrees>
              <LongitudeDegrees>-0.218794159591197967529296875</LongitudeDegrees>
            </Position>
            <AltitudeMeters>2208.60009765625</AltitudeMeters>
            <DistanceMeters>35880.619853413</DistanceMeters>
          </Trackpoint>
          <Trackpoint>
            <Time>2022-07-10T10:50:48.000Z</Time>
            <Position>
              <LatitudeDegrees>42.75600291788578033447265625</LatitudeDegrees>
              <LongitudeDegrees>-0.21881394088268280029296875</LongitudeDegrees>
            </Position>
            <AltitudeMeters>2208.199951171875</AltitudeMeters>
            <DistanceMeters>35882.508472007</DistanceMeters>
          </Trackpoint>
          <Trackpoint>
            <Time>2022-07-10T10:50:49.000Z</Time>
            <Position>
              <LatitudeDegrees>42.75599889457225799560546875</LatitudeDegrees>
              <LongitudeDegrees>-0.2188218198716640472412109375</LongitudeDegrees>
            </Position>
            <AltitudeMeters>2208</AltitudeMeters>
            <DistanceMeters>35883.292082368</DistanceMeters>
          </Trackpoint>
          <Trackpoint>
            <Time>2022-07-10T10:50:52.000Z</Time>
            <Position>
              <LatitudeDegrees>42.755983807146549224853515625</LatitudeDegrees>
              <LongitudeDegrees>-0.21886766888201236724853515625</LongitudeDegrees>
            </Position>
            <AltitudeMeters>2207.60009765625</AltitudeMeters>
            <DistanceMeters>35887.399171702</DistanceMeters>
          </Trackpoint>
          <Trackpoint>
            <Time>2022-07-10T10:50:54.000Z</Time>
            <Position>
              <LatitudeDegrees>42.75597215630114078521728515625</LatitudeDegrees>
              <LongitudeDegrees>-0.21890488453209400177001953125</LongitudeDegrees>
            </Position>
            <AltitudeMeters>2207.60009765625</AltitudeMeters>
            <DistanceMeters>35890.706046749</DistanceMeters>
          </Trackpoint>
          <Trackpoint>
            <Time>2022-07-10T10:50:56.000Z</Time>
            <Position>
              <LatitudeDegrees>42.75596075691282749176025390625</LatitudeDegrees>
              <LongitudeDegrees>-0.2189428545534610748291015625</LongitudeDegrees>
            </Position>
            <AltitudeMeters>2206.39990234375</AltitudeMeters>
            <DistanceMeters>35894.057675472</DistanceMeters>
          </Trackpoint>
          <Trackpoint>
            <Time>2022-07-10T10:51:01.000Z</Time>
            <Position>
              <LatitudeDegrees>42.75593996979296207427978515625</LatitudeDegrees>
              <LongitudeDegrees>-0.21903388202190399169921875</LongitudeDegrees>
            </Position>
            <AltitudeMeters>2205.800048828125</AltitudeMeters>
            <DistanceMeters>35901.848127563</DistanceMeters>
          </Trackpoint>
          <Trackpoint>
            <Time>2022-07-10T10:51:02.000Z</Time>
            <Position>
              <LatitudeDegrees>42.755937539041042327880859375</LatitudeDegrees>
              <LongitudeDegrees>-0.219046287238597869873046875</LongitudeDegrees>
            </Position>
            <AltitudeMeters>2205.800048828125</AltitudeMeters>
            <DistanceMeters>35902.902024807</DistanceMeters>
          </Trackpoint>
          <Trackpoint>
            <Time>2022-07-10T10:51:04.000Z</Time>
            <Position>
              <LatitudeDegrees>42.755933515727519989013671875</LatitudeDegrees>
              <LongitudeDegrees>-0.21907503716647624969482421875</LongitudeDegrees>
            </Position>
            <AltitudeMeters>2205.800048828125</AltitudeMeters>
            <DistanceMeters>35905.294736337</DistanceMeters>
          </Trackpoint>
          <Trackpoint>
            <Time>2022-07-10T10:51:08.000Z</Time>
            <Position>
              <LatitudeDegrees>42.7559162490069866180419921875</LatitudeDegrees>
              <LongitudeDegrees>-0.21912566386163234710693359375</LongitudeDegrees>
            </Position>
            <AltitudeMeters>2205.800048828125</AltitudeMeters>
            <DistanceMeters>35909.857008381</DistanceMeters>
          </Trackpoint>
          <Trackpoint>
            <Time>2022-07-10T10:51:12.000Z</Time>
            <Position>
              <LatitudeDegrees>42.7559041790664196014404296875</LatitudeDegrees>
              <LongitudeDegrees>-0.21916120313107967376708984375</LongitudeDegrees>
            </Position>
            <AltitudeMeters>2205.60009765625</AltitudeMeters>
            <DistanceMeters>35913.057025051</DistanceMeters>
          </Trackpoint>
          <Trackpoint>
            <Time>2022-07-10T10:51:13.000Z</Time>
            <Position>
              <LatitudeDegrees>42.7559004910290241241455078125</LatitudeDegrees>
              <LongitudeDegrees>-0.2191673219203948974609375</LongitudeDegrees>
            </Position>
            <AltitudeMeters>2205.60009765625</AltitudeMeters>
            <DistanceMeters>35913.701527585</DistanceMeters>
          </Trackpoint>
          <Trackpoint>
            <Time>2022-07-10T10:51:14.000Z</Time>
            <Position>
              <LatitudeDegrees>42.75589470751583576202392578125</LatitudeDegrees>
              <LongitudeDegrees>-0.219175703823566436767578125</LongitudeDegrees>
            </Position>
            <AltitudeMeters>2205.39990234375</AltitudeMeters>
            <DistanceMeters>35914.642244063</DistanceMeters>
          </Trackpoint>
          <Trackpoint>
            <Time>2022-07-10T10:51:15.000Z</Time>
            <Position>
              <LatitudeDegrees>42.7558914385735988616943359375</LatitudeDegrees>
              <LongitudeDegrees>-0.2191859297454357147216796875</LongitudeDegrees>
            </Position>
            <AltitudeMeters>2205.39990234375</AltitudeMeters>
            <DistanceMeters>35915.553708288</DistanceMeters>
          </Trackpoint>
          <Trackpoint>
            <Time>2022-07-10T10:51:16.000Z</Time>
            <Position>
              <LatitudeDegrees>42.7558900974690914154052734375</LatitudeDegrees>
              <LongitudeDegrees>-0.21920311264693737030029296875</LongitudeDegrees>
            </Position>
            <AltitudeMeters>2205.39990234375</AltitudeMeters>
            <DistanceMeters>35916.966381956</DistanceMeters>
          </Trackpoint>
          <Trackpoint>
            <Time>2022-07-10T10:51:17.000Z</Time>
            <Position>
              <LatitudeDegrees>42.75588867254555225372314453125</LatitudeDegrees>
              <LongitudeDegrees>-0.21922004409134387969970703125</LongitudeDegrees>
            </Position>
            <AltitudeMeters>2205.39990234375</AltitudeMeters>
            <DistanceMeters>35918.356502944</DistanceMeters>
          </Trackpoint>
          <Trackpoint>
            <Time>2022-07-10T10:51:18.000Z</Time>
            <Position>
              <LatitudeDegrees>42.75588582269847393035888671875</LatitudeDegrees>
              <LongitudeDegrees>-0.21923680789768695831298828125</LongitudeDegrees>
            </Position>
            <AltitudeMeters>2205.39990234375</AltitudeMeters>
            <DistanceMeters>35919.762769896</DistanceMeters>
          </Trackpoint>
          <Trackpoint>
            <Time>2022-07-10T10:51:21.000Z</Time>
            <Position>
              <LatitudeDegrees>42.75587945245206356048583984375</LatitudeDegrees>
              <LongitudeDegrees>-0.21926782093942165374755859375</LongitudeDegrees>
            </Position>
            <AltitudeMeters>2205</AltitudeMeters>
            <DistanceMeters>35922.392796237</DistanceMeters>
          </Trackpoint>
          <Trackpoint>
            <Time>2022-07-10T10:51:22.000Z</Time>
            <Position>
              <LatitudeDegrees>42.75587777607142925262451171875</LatitudeDegrees>
              <LongitudeDegrees>-0.2192774601280689239501953125</LongitudeDegrees>
            </Position>
            <AltitudeMeters>2204.60009765625</AltitudeMeters>
            <DistanceMeters>35923.199124647</DistanceMeters>
          </Trackpoint>
          <Trackpoint>
            <Time>2022-07-10T10:51:23.000Z</Time>
            <Position>
              <LatitudeDegrees>42.75587425567209720611572265625</LatitudeDegrees>
              <LongitudeDegrees>-0.21928911097347736358642578125</LongitudeDegrees>
            </Position>
            <AltitudeMeters>2204.199951171875</AltitudeMeters>
            <DistanceMeters>35924.231378986</DistanceMeters>
          </Trackpoint>
          <Trackpoint>
            <Time>2022-07-10T10:51:25.000Z</Time>
            <Position>
              <LatitudeDegrees>42.75586989708244800567626953125</LatitudeDegrees>
              <LongitudeDegrees>-0.21930268965661525726318359375</LongitudeDegrees>
            </Position>
            <AltitudeMeters>2203.60009765625</AltitudeMeters>
            <DistanceMeters>35925.4408716</DistanceMeters>
          </Trackpoint>
          <Trackpoint>
            <Time>2022-07-10T10:51:26.000Z</Time>
            <Position>
              <LatitudeDegrees>42.75586654432117938995361328125</LatitudeDegrees>
              <LongitudeDegrees>-0.21931241266429424285888671875</LongitudeDegrees>
            </Position>
            <AltitudeMeters>2203.39990234375</AltitudeMeters>
            <DistanceMeters>35926.316974618</DistanceMeters>
          </Trackpoint>
          <Trackpoint>
            <Time>2022-07-10T10:51:27.000Z</Time>
            <Position>
              <LatitudeDegrees>42.7558676339685916900634765625</LatitudeDegrees>
              <LongitudeDegrees>-0.21931928582489490509033203125</LongitudeDegrees>
            </Position>
            <AltitudeMeters>2203.199951171875</AltitudeMeters>
            <DistanceMeters>35926.902758626</DistanceMeters>
          </Trackpoint>
          <Trackpoint>
            <Time>2022-07-10T10:51:29.000Z</Time>
            <Position>
              <LatitudeDegrees>42.75587459094822406768798828125</LatitudeDegrees>
              <LongitudeDegrees>-0.2193398214876651763916015625</LongitudeDegrees>
            </Position>
            <AltitudeMeters>2202.800048828125</AltitudeMeters>
            <DistanceMeters>35928.750289112</DistanceMeters>
          </Trackpoint>
          <Trackpoint>
            <Time>2022-07-10T10:51:30.000Z</Time>
            <Position>
              <LatitudeDegrees>42.755878865718841552734375</LatitudeDegrees>
              <LongitudeDegrees>-0.21934879012405872344970703125</LongitudeDegrees>
            </Position>
            <AltitudeMeters>2202.800048828125</AltitudeMeters>
            <DistanceMeters>35929.616023682</DistanceMeters>
          </Trackpoint>
          <Trackpoint>
            <Time>2022-07-10T10:51:32.000Z</Time>
            <Position>
              <LatitudeDegrees>42.75588330812752246856689453125</LatitudeDegrees>
              <LongitudeDegrees>-0.21936756558716297149658203125</LongitudeDegrees>
            </Position>
            <AltitudeMeters>2202.60009765625</AltitudeMeters>
            <DistanceMeters>35931.228680501</DistanceMeters>
          </Trackpoint>
          <Trackpoint>
            <Time>2022-07-10T10:51:34.000Z</Time>
            <Position>
              <LatitudeDegrees>42.7558887563645839691162109375</LatitudeDegrees>
              <LongitudeDegrees>-0.21939388476312160491943359375</LongitudeDegrees>
            </Position>
            <AltitudeMeters>2202.60009765625</AltitudeMeters>
            <DistanceMeters>35933.463324158</DistanceMeters>
          </Trackpoint>
          <Trackpoint>
            <Time>2022-07-10T10:51:35.000Z</Time>
            <Position>
              <LatitudeDegrees>42.7558911032974720001220703125</LatitudeDegrees>
              <LongitudeDegrees>-0.21940805017948150634765625</LongitudeDegrees>
            </Position>
            <AltitudeMeters>2202.60009765625</AltitudeMeters>
            <DistanceMeters>35934.65020744</DistanceMeters>
          </Trackpoint>
          <Trackpoint>
            <Time>2022-07-10T10:51:37.000Z</Time>
            <Position>
              <LatitudeDegrees>42.75590191595256328582763671875</LatitudeDegrees>
              <LongitudeDegrees>-0.219441913068294525146484375</LongitudeDegrees>
            </Position>
            <AltitudeMeters>2202.39990234375</AltitudeMeters>
            <DistanceMeters>35937.667212089</DistanceMeters>
          </Trackpoint>
          <Trackpoint>
            <Time>2022-07-10T10:51:39.000Z</Time>
            <Position>
              <LatitudeDegrees>42.7559123933315277099609375</LatitudeDegrees>
              <LongitudeDegrees>-0.21947032772004604339599609375</LongitudeDegrees>
            </Position>
            <AltitudeMeters>2202.39990234375</AltitudeMeters>
            <DistanceMeters>35940.266153639</DistanceMeters>
          </Trackpoint>
          <Trackpoint>
            <Time>2022-07-10T10:51:42.000Z</Time>
            <Position>
              <LatitudeDegrees>42.75592505000531673431396484375</LatitudeDegrees>
              <LongitudeDegrees>-0.21949379704892635345458984375</LongitudeDegrees>
            </Position>
            <AltitudeMeters>2202.199951171875</AltitudeMeters>
            <DistanceMeters>35942.647516276</DistanceMeters>
          </Trackpoint>
          <Trackpoint>
            <Time>2022-07-10T10:51:43.000Z</Time>
            <Position>
              <LatitudeDegrees>42.755931504070758819580078125</LatitudeDegrees>
              <LongitudeDegrees>-0.2195025980472564697265625</LongitudeDegrees>
            </Position>
            <AltitudeMeters>2202</AltitudeMeters>
            <DistanceMeters>35943.662123941</DistanceMeters>
          </Trackpoint>
          <Trackpoint>
            <Time>2022-07-10T10:51:49.000Z</Time>
            <Position>
              <LatitudeDegrees>42.75597341358661651611328125</LatitudeDegrees>
              <LongitudeDegrees>-0.21956403739750385284423828125</LongitudeDegrees>
            </Position>
            <AltitudeMeters>2202</AltitudeMeters>
            <DistanceMeters>35950.515915422</DistanceMeters>
          </Trackpoint>
          <Trackpoint>
            <Time>2022-07-10T10:51:54.000Z</Time>
            <Position>
              <LatitudeDegrees>42.75599948130548000335693359375</LatitudeDegrees>
              <LongitudeDegrees>-0.2196113951504230499267578125</LongitudeDegrees>
            </Position>
            <AltitudeMeters>2200.800048828125</AltitudeMeters>
            <DistanceMeters>35955.353885879</DistanceMeters>
          </Trackpoint>
          <Trackpoint>
            <Time>2022-07-10T10:51:55.000Z</Time>
            <Position>
              <LatitudeDegrees>42.75600828230381011962890625</LatitudeDegrees>
              <LongitudeDegrees>-0.21961994469165802001953125</LongitudeDegrees>
            </Position>
            <AltitudeMeters>2200.60009765625</AltitudeMeters>
            <DistanceMeters>35956.552127155</DistanceMeters>
          </Trackpoint>
          <Trackpoint>
            <Time>2022-07-10T10:52:00.000Z</Time>
            <Position>
              <LatitudeDegrees>42.75603099726140499114990234375</LatitudeDegrees>
              <LongitudeDegrees>-0.2196740917861461639404296875</LongitudeDegrees>
            </Position>
            <AltitudeMeters>2199.800048828125</AltitudeMeters>
            <DistanceMeters>35961.647367068</DistanceMeters>
          </Trackpoint>
          <Trackpoint>
            <Time>2022-07-10T10:52:01.000Z</Time>
            <Position>
              <LatitudeDegrees>42.7560305781662464141845703125</LatitudeDegrees>
              <LongitudeDegrees>-0.21968121640384197235107421875</LongitudeDegrees>
            </Position>
            <AltitudeMeters>2199.60009765625</AltitudeMeters>
            <DistanceMeters>35962.233151077</DistanceMeters>
          </Trackpoint>
          <Trackpoint>
            <Time>2022-07-10T10:52:06.000Z</Time>
            <Position>
              <LatitudeDegrees>42.7560510300099849700927734375</LatitudeDegrees>
              <LongitudeDegrees>-0.2197498641908168792724609375</LongitudeDegrees>
            </Position>
            <AltitudeMeters>2198.60009765625</AltitudeMeters>
            <DistanceMeters>35968.287329823</DistanceMeters>
          </Trackpoint>
          <Trackpoint>
            <Time>2022-07-10T10:52:08.000Z</Time>
            <Position>
              <LatitudeDegrees>42.7560577355325222015380859375</LatitudeDegrees>
              <LongitudeDegrees>-0.219781883060932159423828125</LongitudeDegrees>
            </Position>
            <AltitudeMeters>2198.199951171875</AltitudeMeters>
            <DistanceMeters>35971.008480808</DistanceMeters>
          </Trackpoint>
          <Trackpoint>
            <Time>2022-07-10T10:52:14.000Z</Time>
            <Position>
              <LatitudeDegrees>42.7560882456600666046142578125</LatitudeDegrees>
              <LongitudeDegrees>-0.21986394189298152923583984375</LongitudeDegrees>
            </Position>
            <AltitudeMeters>2197.39990234375</AltitudeMeters>
            <DistanceMeters>35978.525808683</DistanceMeters>
          </Trackpoint>
          <Trackpoint>
            <Time>2022-07-10T10:52:20.000Z</Time>
            <Position>
              <LatitudeDegrees>42.75612688623368740081787109375</LatitudeDegrees>
              <LongitudeDegrees>-0.21993912756443023681640625</LongitudeDegrees>
            </Position>
            <AltitudeMeters>2196.800048828125</AltitudeMeters>
            <DistanceMeters>35986.026300417</DistanceMeters>
          </Trackpoint>
          <Trackpoint>
            <Time>2022-07-10T10:52:26.000Z</Time>
            <Position>
              <LatitudeDegrees>42.7561848051846027374267578125</LatitudeDegrees>
              <LongitudeDegrees>-0.2200167439877986907958984375</LongitudeDegrees>
            </Position>
            <AltitudeMeters>2196.60009765625</AltitudeMeters>
            <DistanceMeters>35995.070327862</DistanceMeters>
          </Trackpoint>
          <Trackpoint>
            <Time>2022-07-10T10:52:28.000Z</Time>
            <Position>
              <LatitudeDegrees>42.756203077733516693115234375</LatitudeDegrees>
              <LongitudeDegrees>-0.22002906538546085357666015625</LongitudeDegrees>
            </Position>
            <AltitudeMeters>2196.39990234375</AltitudeMeters>
            <DistanceMeters>35997.339059572</DistanceMeters>
          </Trackpoint>
          <Trackpoint>
            <Time>2022-07-10T10:52:32.000Z</Time>
            <Position>
              <LatitudeDegrees>42.75623970665037631988525390625</LatitudeDegrees>
              <LongitudeDegrees>-0.220045745372772216796875</LongitudeDegrees>
            </Position>
            <AltitudeMeters>2196.199951171875</AltitudeMeters>
            <DistanceMeters>36001.638427721</DistanceMeters>
          </Trackpoint>
          <Trackpoint>
            <Time>2022-07-10T10:52:35.000Z</Time>
            <Position>
              <LatitudeDegrees>42.75625881738960742950439453125</LatitudeDegrees>
              <LongitudeDegrees>-0.22007063962519168853759765625</LongitudeDegrees>
            </Position>
            <AltitudeMeters>2196</AltitudeMeters>
            <DistanceMeters>36004.579654206</DistanceMeters>
          </Trackpoint>
          <Trackpoint>
            <Time>2022-07-10T10:52:36.000Z</Time>
            <Position>
              <LatitudeDegrees>42.75626921094954013824462890625</LatitudeDegrees>
              <LongitudeDegrees>-0.22007449530065059661865234375</LongitudeDegrees>
            </Position>
            <AltitudeMeters>2195.800048828125</AltitudeMeters>
            <DistanceMeters>36005.78165763</DistanceMeters>
          </Trackpoint>
          <Trackpoint>
            <Time>2022-07-10T10:52:42.000Z</Time>
            <Position>
              <LatitudeDegrees>42.75633911602199077606201171875</LatitudeDegrees>
              <LongitudeDegrees>-0.22010676562786102294921875</LongitudeDegrees>
            </Position>
            <AltitudeMeters>2194.800048828125</AltitudeMeters>
            <DistanceMeters>36013.996935552</DistanceMeters>
          </Trackpoint>
          <Trackpoint>
            <Time>2022-07-10T10:52:45.000Z</Time>
            <Position>
              <LatitudeDegrees>42.75636794976890087127685546875</LatitudeDegrees>
              <LongitudeDegrees>-0.22012126632034778594970703125</LongitudeDegrees>
            </Position>
            <AltitudeMeters>2193.60009765625</AltitudeMeters>
            <DistanceMeters>36017.415256619</DistanceMeters>
          </Trackpoint>
          <Trackpoint>
            <Time>2022-07-10T10:52:48.000Z</Time>
            <Position>
              <LatitudeDegrees>42.75639896281063556671142578125</LatitudeDegrees>
              <LongitudeDegrees>-0.22013895213603973388671875</LongitudeDegrees>
            </Position>
            <AltitudeMeters>2193.39990234375</AltitudeMeters>
            <DistanceMeters>36021.156462105</DistanceMeters>
          </Trackpoint>
          <Trackpoint>
            <Time>2022-07-10T10:52:51.000Z</Time>
            <Position>
              <LatitudeDegrees>42.7564282156527042388916015625</LatitudeDegrees>
              <LongitudeDegrees>-0.22015429101884365081787109375</LongitudeDegrees>
            </Position>
            <AltitudeMeters>2192.60009765625</AltitudeMeters>
            <DistanceMeters>36024.646673148</DistanceMeters>
          </Trackpoint>
          <Trackpoint>
            <Time>2022-07-10T10:52:55.000Z</Time>
            <Position>
              <LatitudeDegrees>42.75648244656622409820556640625</LatitudeDegrees>
              <LongitudeDegrees>-0.22017289884388446807861328125</LongitudeDegrees>
            </Position>
            <AltitudeMeters>2192</AltitudeMeters>
            <DistanceMeters>36030.872192251</DistanceMeters>
          </Trackpoint>
          <Trackpoint>
            <Time>2022-07-10T10:52:56.000Z</Time>
            <Position>
              <LatitudeDegrees>42.756496779620647430419921875</LatitudeDegrees>
              <LongitudeDegrees>-0.2201783470809459686279296875</LongitudeDegrees>
            </Position>
            <AltitudeMeters>2191.60009765625</AltitudeMeters>
            <DistanceMeters>36032.531762471</DistanceMeters>
          </Trackpoint>
          <Trackpoint>
            <Time>2022-07-10T10:52:57.000Z</Time>
            <Position>
              <LatitudeDegrees>42.75650985538959503173828125</LatitudeDegrees>
              <LongitudeDegrees>-0.22017759270966053009033203125</LongitudeDegrees>
            </Position>
            <AltitudeMeters>2191.39990234375</AltitudeMeters>
            <DistanceMeters>36033.991590557</DistanceMeters>
          </Trackpoint>
          <Trackpoint>
            <Time>2022-07-10T10:53:02.000Z</Time>
            <Position>
              <LatitudeDegrees>42.75656324811279773712158203125</LatitudeDegrees>
              <LongitudeDegrees>-0.220200978219509124755859375</LongitudeDegrees>
            </Position>
            <AltitudeMeters>2190.39990234375</AltitudeMeters>
            <DistanceMeters>36040.233044696</DistanceMeters>
          </Trackpoint>
          <Trackpoint>
            <Time>2022-07-10T10:53:03.000Z</Time>
            <Position>
              <LatitudeDegrees>42.7565740607678890228271484375</LatitudeDegrees>
              <LongitudeDegrees>-0.22020625881850719451904296875</LongitudeDegrees>
            </Position>
            <AltitudeMeters>2190.39990234375</AltitudeMeters>
            <DistanceMeters>36041.507961854</DistanceMeters>
          </Trackpoint>
          <Trackpoint>
            <Time>2022-07-10T10:53:04.000Z</Time>
            <Position>
              <LatitudeDegrees>42.75658369995653629302978515625</LatitudeDegrees>
              <LongitudeDegrees>-0.22020810283720493316650390625</LongitudeDegrees>
            </Position>
            <AltitudeMeters>2190</AltitudeMeters>
            <DistanceMeters>36042.591433099</DistanceMeters>
          </Trackpoint>
          <Trackpoint>
            <Time>2022-07-10T10:53:08.000Z</Time>
            <Position>
              <LatitudeDegrees>42.7566186524927616119384765625</LatitudeDegrees>
              <LongitudeDegrees>-0.22022151388227939605712890625</LongitudeDegrees>
            </Position>
            <AltitudeMeters>2189.39990234375</AltitudeMeters>
            <DistanceMeters>36046.634258641</DistanceMeters>
          </Trackpoint>
          <Trackpoint>
            <Time>2022-07-10T10:53:12.000Z</Time>
            <Position>
              <LatitudeDegrees>42.75665192864835262298583984375</LatitudeDegrees>
              <LongitudeDegrees>-0.22025319747626781463623046875</LongitudeDegrees>
            </Position>
            <AltitudeMeters>2188.199951171875</AltitudeMeters>
            <DistanceMeters>36051.152776411</DistanceMeters>
          </Trackpoint>
          <Trackpoint>
            <Time>2022-07-10T10:53:14.000Z</Time>
            <Position>
              <LatitudeDegrees>42.75666810572147369384765625</LatitudeDegrees>
              <LongitudeDegrees>-0.22025990299880504608154296875</LongitudeDegrees>
            </Position>
            <AltitudeMeters>2188.199951171875</AltitudeMeters>
            <DistanceMeters>36053.034209367</DistanceMeters>
          </Trackpoint>
          <Trackpoint>
            <Time>2022-07-10T10:53:19.000Z</Time>
            <Position>
              <LatitudeDegrees>42.7567148767411708831787109375</LatitudeDegrees>
              <LongitudeDegrees>-0.22028555162250995635986328125</LongitudeDegrees>
            </Position>
            <AltitudeMeters>2188.199951171875</AltitudeMeters>
            <DistanceMeters>36058.646419861</DistanceMeters>
          </Trackpoint>
          <Trackpoint>
            <Time>2022-07-10T10:53:25.000Z</Time>
            <Position>
              <LatitudeDegrees>42.75676642544567584991455078125</LatitudeDegrees>
              <LongitudeDegrees>-0.22034414112567901611328125</LongitudeDegrees>
            </Position>
            <AltitudeMeters>2188.199951171875</AltitudeMeters>
            <DistanceMeters>36066.119169873</DistanceMeters>
          </Trackpoint>
          <Trackpoint>
            <Time>2022-07-10T10:53:26.000Z</Time>
            <Position>
              <LatitudeDegrees>42.75677782483398914337158203125</LatitudeDegrees>
              <LongitudeDegrees>-0.22035679779946804046630859375</LongitudeDegrees>
            </Position>
            <AltitudeMeters>2188.39990234375</AltitudeMeters>
            <DistanceMeters>36067.754071285</DistanceMeters>
          </Trackpoint>
          <Trackpoint>
            <Time>2022-07-10T10:53:29.000Z</Time>
            <Position>
              <LatitudeDegrees>42.75681026279926300048828125</LatitudeDegrees>
              <LongitudeDegrees>-0.2203734777867794036865234375</LongitudeDegrees>
            </Position>
            <AltitudeMeters>2188.39990234375</AltitudeMeters>
            <DistanceMeters>36071.61407467</DistanceMeters>
          </Trackpoint>
          <Trackpoint>
            <Time>2022-07-10T10:53:32.000Z</Time>
            <Position>
              <LatitudeDegrees>42.75683901272714138031005859375</LatitudeDegrees>
              <LongitudeDegrees>-0.22038445807993412017822265625</LongitudeDegrees>
            </Position>
            <AltitudeMeters>2188.39990234375</AltitudeMeters>
            <DistanceMeters>36074.938651871</DistanceMeters>
          </Trackpoint>
          <Trackpoint>
            <Time>2022-07-10T10:53:38.000Z</Time>
            <Position>
              <LatitudeDegrees>42.75688880123198032379150390625</LatitudeDegrees>
              <LongitudeDegrees>-0.22042435593903064727783203125</LongitudeDegrees>
            </Position>
            <AltitudeMeters>2188.39990234375</AltitudeMeters>
            <DistanceMeters>36081.368246723</DistanceMeters>
          </Trackpoint>
          <Trackpoint>
            <Time>2022-07-10T10:53:40.000Z</Time>
            <Position>
              <LatitudeDegrees>42.75690975598990917205810546875</LatitudeDegrees>
              <LongitudeDegrees>-0.220441706478595733642578125</LongitudeDegrees>
            </Position>
            <AltitudeMeters>2188.60009765625</AltitudeMeters>
            <DistanceMeters>36084.099334994</DistanceMeters>
          </Trackpoint>
          <Trackpoint>
            <Time>2022-07-10T10:53:41.000Z</Time>
            <Position>
              <LatitudeDegrees>42.756917886435985565185546875</LatitudeDegrees>
              <LongitudeDegrees>-0.22045101039111614227294921875</LongitudeDegrees>
            </Position>
            <AltitudeMeters>2188.800048828125</AltitudeMeters>
            <DistanceMeters>36085.286218276</DistanceMeters>
          </Trackpoint>
          <Trackpoint>
            <Time>2022-07-10T10:53:45.000Z</Time>
            <Position>
              <LatitudeDegrees>42.75696407072246074676513671875</LatitudeDegrees>
              <LongitudeDegrees>-0.2204869687557220458984375</LongitudeDegrees>
            </Position>
            <AltitudeMeters>2188.800048828125</AltitudeMeters>
            <DistanceMeters>36091.207686576</DistanceMeters>
          </Trackpoint>
          <Trackpoint>
            <Time>2022-07-10T10:53:51.000Z</Time>
            <Position>
              <LatitudeDegrees>42.7570469677448272705078125</LatitudeDegrees>
              <LongitudeDegrees>-0.22052292712032794952392578125</LongitudeDegrees>
            </Position>
            <AltitudeMeters>2188.60009765625</AltitudeMeters>
            <DistanceMeters>36100.890624339</DistanceMeters>
          </Trackpoint>
          <Trackpoint>
            <Time>2022-07-10T10:53:52.000Z</Time>
            <Position>
              <LatitudeDegrees>42.75705979205667972564697265625</LatitudeDegrees>
              <LongitudeDegrees>-0.2205273695290088653564453125</LongitudeDegrees>
            </Position>
            <AltitudeMeters>2188.60009765625</AltitudeMeters>
            <DistanceMeters>36102.362771868</DistanceMeters>
          </Trackpoint>
          <Trackpoint>
            <Time>2022-07-10T10:53:54.000Z</Time>
            <Position>
              <LatitudeDegrees>42.75708250701427459716796875</LatitudeDegrees>
              <LongitudeDegrees>-0.22053298540413379669189453125</LongitudeDegrees>
            </Position>
            <AltitudeMeters>2188.60009765625</AltitudeMeters>
            <DistanceMeters>36104.932010253</DistanceMeters>
          </Trackpoint>
          <Trackpoint>
            <Time>2022-07-10T10:53:57.000Z</Time>
            <Position>
              <LatitudeDegrees>42.75711075402796268463134765625</LatitudeDegrees>
              <LongitudeDegrees>-0.22055192850530147552490234375</LongitudeDegrees>
            </Position>
            <AltitudeMeters>2187.39990234375</AltitudeMeters>
            <DistanceMeters>36108.436422324</DistanceMeters>
          </Trackpoint>
          <Trackpoint>
            <Time>2022-07-10T10:53:59.000Z</Time>
            <Position>
              <LatitudeDegrees>42.75712332688271999359130859375</LatitudeDegrees>
              <LongitudeDegrees>-0.22056735120713710784912109375</LongitudeDegrees>
            </Position>
            <AltitudeMeters>2187.199951171875</AltitudeMeters>
            <DistanceMeters>36110.320253538</DistanceMeters>
          </Trackpoint>
          <Trackpoint>
            <Time>2022-07-10T10:54:00.000Z</Time>
            <Position>
              <LatitudeDegrees>42.75712810456752777099609375</LatitudeDegrees>
              <LongitudeDegrees>-0.22057506255805492401123046875</LongitudeDegrees>
            </Position>
            <AltitudeMeters>2187.199951171875</AltitudeMeters>
            <DistanceMeters>36111.143209025</DistanceMeters>
          </Trackpoint>
          <Trackpoint>
            <Time>2022-07-10T10:54:01.000Z</Time>
            <Position>
              <LatitudeDegrees>42.7571326307952404022216796875</LatitudeDegrees>
              <LongitudeDegrees>-0.220583193004131317138671875</LongitudeDegrees>
            </Position>
            <AltitudeMeters>2187.199951171875</AltitudeMeters>
            <DistanceMeters>36111.977065059</DistanceMeters>
          </Trackpoint>
          <Trackpoint>
            <Time>2022-07-10T10:54:02.000Z</Time>
            <Position>
              <LatitudeDegrees>42.757139503955841064453125</LatitudeDegrees>
              <LongitudeDegrees>-0.2205924130976200103759765625</LongitudeDegrees>
            </Position>
            <AltitudeMeters>2187</AltitudeMeters>
            <DistanceMeters>36113.052169605</DistanceMeters>
          </Trackpoint>
          <Trackpoint>
            <Time>2022-07-10T10:54:03.000Z</Time>
            <Position>
              <LatitudeDegrees>42.75714713148772716522216796875</LatitudeDegrees>
              <LongitudeDegrees>-0.22060255520045757293701171875</LongitudeDegrees>
            </Position>
            <AltitudeMeters>2186.800048828125</AltitudeMeters>
            <DistanceMeters>36114.235242658</DistanceMeters>
          </Trackpoint>
          <Trackpoint>
            <Time>2022-07-10T10:54:04.000Z</Time>
            <Position>
              <LatitudeDegrees>42.757155597209930419921875</LatitudeDegrees>
              <LongitudeDegrees>-0.22061093710362911224365234375</LongitudeDegrees>
            </Position>
            <AltitudeMeters>2186.800048828125</AltitudeMeters>
            <DistanceMeters>36115.399077469</DistanceMeters>
          </Trackpoint>
          <Trackpoint>
            <Time>2022-07-10T10:54:06.000Z</Time>
            <Position>
              <LatitudeDegrees>42.75717160664498805999755859375</LatitudeDegrees>
              <LongitudeDegrees>-0.2206239290535449981689453125</LongitudeDegrees>
            </Position>
            <AltitudeMeters>2186.199951171875</AltitudeMeters>
            <DistanceMeters>36117.47231561</DistanceMeters>
          </Trackpoint>
          <Trackpoint>
            <Time>2022-07-10T10:54:07.000Z</Time>
            <Position>
              <LatitudeDegrees>42.757179401814937591552734375</LatitudeDegrees>
              <LongitudeDegrees>-0.220626778900623321533203125</LongitudeDegrees>
            </Position>
            <AltitudeMeters>2186</AltitudeMeters>
            <DistanceMeters>36118.363745207</DistanceMeters>
          </Trackpoint>
          <Trackpoint>
            <Time>2022-07-10T10:54:08.000Z</Time>
            <Position>
              <LatitudeDegrees>42.7571879513561725616455078125</LatitudeDegrees>
              <LongitudeDegrees>-0.2206319756805896759033203125</LongitudeDegrees>
            </Position>
            <AltitudeMeters>2186</AltitudeMeters>
            <DistanceMeters>36119.404710708</DistanceMeters>
          </Trackpoint>
          <Trackpoint>
            <Time>2022-07-10T10:54:10.000Z</Time>
            <Position>
              <LatitudeDegrees>42.75720664300024509429931640625</LatitudeDegrees>
              <LongitudeDegrees>-0.220640860497951507568359375</LongitudeDegrees>
            </Position>
            <AltitudeMeters>2185</AltitudeMeters>
            <DistanceMeters>36121.604738201</DistanceMeters>
          </Trackpoint>
          <Trackpoint>
            <Time>2022-07-10T10:54:11.000Z</Time>
            <Position>
              <LatitudeDegrees>42.75721661746501922607421875</LatitudeDegrees>
              <LongitudeDegrees>-0.220645554363727569580078125</LongitudeDegrees>
            </Position>
            <AltitudeMeters>2184.60009765625</AltitudeMeters>
            <DistanceMeters>36122.776306219</DistanceMeters>
          </Trackpoint>
          <Trackpoint>
            <Time>2022-07-10T10:54:16.000Z</Time>
            <Position>
              <LatitudeDegrees>42.75726363994181156158447265625</LatitudeDegrees>
              <LongitudeDegrees>-0.22067162208259105682373046875</LongitudeDegrees>
            </Position>
            <AltitudeMeters>2183.800048828125</AltitudeMeters>
            <DistanceMeters>36128.427000893</DistanceMeters>
          </Trackpoint>
          <Trackpoint>
            <Time>2022-07-10T10:54:17.000Z</Time>
            <Position>
              <LatitudeDegrees>42.75727202184498310089111328125</LatitudeDegrees>
              <LongitudeDegrees>-0.220679752528667449951171875</LongitudeDegrees>
            </Position>
            <AltitudeMeters>2183.39990234375</AltitudeMeters>
            <DistanceMeters>36129.575213052</DistanceMeters>
          </Trackpoint>
          <Trackpoint>
            <Time>2022-07-10T10:54:19.000Z</Time>
            <Position>
              <LatitudeDegrees>42.7572831697762012481689453125</LatitudeDegrees>
              <LongitudeDegrees>-0.220693834125995635986328125</LongitudeDegrees>
            </Position>
            <AltitudeMeters>2183</AltitudeMeters>
            <DistanceMeters>36131.269782115</DistanceMeters>
          </Trackpoint>
          <Trackpoint>
            <Time>2022-07-10T10:54:22.000Z</Time>
            <Position>
              <LatitudeDegrees>42.75730387307703495025634765625</LatitudeDegrees>
              <LongitudeDegrees>-0.22071889601647853851318359375</LongitudeDegrees>
            </Position>
            <AltitudeMeters>2182.60009765625</AltitudeMeters>
            <DistanceMeters>36134.353395336</DistanceMeters>
          </Trackpoint>
          <Trackpoint>
            <Time>2022-07-10T10:54:23.000Z</Time>
            <Position>
              <LatitudeDegrees>42.75731476955115795135498046875</LatitudeDegrees>
              <LongitudeDegrees>-0.2207298763096332550048828125</LongitudeDegrees>
            </Position>
            <AltitudeMeters>2182.60009765625</AltitudeMeters>
            <DistanceMeters>36135.86189766</DistanceMeters>
          </Trackpoint>
          <Trackpoint>
            <Time>2022-07-10T10:54:24.000Z</Time>
            <Position>
              <LatitudeDegrees>42.757327258586883544921875</LatitudeDegrees>
              <LongitudeDegrees>-0.2207422815263271331787109375</LongitudeDegrees>
            </Position>
            <AltitudeMeters>2182.60009765625</AltitudeMeters>
            <DistanceMeters>36137.582904655</DistanceMeters>
          </Trackpoint>
          <Trackpoint>
            <Time>2022-07-10T10:54:26.000Z</Time>
            <Position>
              <LatitudeDegrees>42.75734980590641498565673828125</LatitudeDegrees>
              <LongitudeDegrees>-0.2207677625119686126708984375</LongitudeDegrees>
            </Position>
            <AltitudeMeters>2182.199951171875</AltitudeMeters>
            <DistanceMeters>36140.843027348</DistanceMeters>
          </Trackpoint>
          <Trackpoint>
            <Time>2022-07-10T10:54:28.000Z</Time>
            <Position>
              <LatitudeDegrees>42.757370509207248687744140625</LatitudeDegrees>
              <LongitudeDegrees>-0.2207885496318340301513671875</LongitudeDegrees>
            </Position>
            <AltitudeMeters>2181.800048828125</AltitudeMeters>
            <DistanceMeters>36143.706470976</DistanceMeters>
          </Trackpoint>
          <Trackpoint>
            <Time>2022-07-10T10:54:29.000Z</Time>
            <Position>
              <LatitudeDegrees>42.75738182477653026580810546875</LatitudeDegrees>
              <LongitudeDegrees>-0.22079609334468841552734375</LongitudeDegrees>
            </Position>
            <AltitudeMeters>2181.60009765625</AltitudeMeters>
            <DistanceMeters>36145.109523599</DistanceMeters>
          </Trackpoint>
          <Trackpoint>
            <Time>2022-07-10T10:54:33.000Z</Time>
            <Position>
              <LatitudeDegrees>42.7574333734810352325439453125</LatitudeDegrees>
              <LongitudeDegrees>-0.22082157433032989501953125</LongitudeDegrees>
            </Position>
            <AltitudeMeters>2181.199951171875</AltitudeMeters>
            <DistanceMeters>36151.213464573</DistanceMeters>
          </Trackpoint>
          <Trackpoint>
            <Time>2022-07-10T10:54:35.000Z</Time>
            <Position>
              <LatitudeDegrees>42.75746396742761135101318359375</LatitudeDegrees>
              <LongitudeDegrees>-0.2208291180431842803955078125</LongitudeDegrees>
            </Position>
            <AltitudeMeters>2180.800048828125</AltitudeMeters>
            <DistanceMeters>36154.673794234</DistanceMeters>
          </Trackpoint>
          <Trackpoint>
            <Time>2022-07-10T10:54:40.000Z</Time>
            <Position>
              <LatitudeDegrees>42.75752163492143154144287109375</LatitudeDegrees>
              <LongitudeDegrees>-0.22084747441112995147705078125</LongitudeDegrees>
            </Position>
            <AltitudeMeters>2180.199951171875</AltitudeMeters>
            <DistanceMeters>36161.265662547</DistanceMeters>
          </Trackpoint>
          <Trackpoint>
            <Time>2022-07-10T10:54:42.000Z</Time>
            <Position>
              <LatitudeDegrees>42.757538147270679473876953125</LatitudeDegrees>
              <LongitudeDegrees>-0.2208678424358367919921875</LongitudeDegrees>
            </Position>
            <AltitudeMeters>2179.800048828125</AltitudeMeters>
            <DistanceMeters>36163.743656086</DistanceMeters>
          </Trackpoint>
          <Trackpoint>
            <Time>2022-07-10T10:54:48.000Z</Time>
            <Position>
              <LatitudeDegrees>42.7575909532606601715087890625</LatitudeDegrees>
              <LongitudeDegrees>-0.220941267907619476318359375</LongitudeDegrees>
            </Position>
            <AltitudeMeters>2179.199951171875</AltitudeMeters>
            <DistanceMeters>36172.142641571</DistanceMeters>
          </Trackpoint>
          <Trackpoint>
            <Time>2022-07-10T10:54:49.000Z</Time>
            <Position>
              <LatitudeDegrees>42.7576016820967197418212890625</LatitudeDegrees>
              <LongitudeDegrees>-0.220947973430156707763671875</LongitudeDegrees>
            </Position>
            <AltitudeMeters>2179.199951171875</AltitudeMeters>
            <DistanceMeters>36173.452494435</DistanceMeters>
          </Trackpoint>
          <Trackpoint>
            <Time>2022-07-10T10:54:53.000Z</Time>
            <Position>
              <LatitudeDegrees>42.75765457190573215484619140625</LatitudeDegrees>
              <LongitudeDegrees>-0.2209873683750629425048828125</LongitudeDegrees>
            </Position>
            <AltitudeMeters>2178.800048828125</AltitudeMeters>
            <DistanceMeters>36180.162484088</DistanceMeters>
          </Trackpoint>
          <Trackpoint>
            <Time>2022-07-10T10:54:56.000Z</Time>
            <Position>
              <LatitudeDegrees>42.7576898597180843353271484375</LatitudeDegrees>
              <LongitudeDegrees>-0.22101025097072124481201171875</LongitudeDegrees>
            </Position>
            <AltitudeMeters>2178.39990234375</AltitudeMeters>
            <DistanceMeters>36184.511967983</DistanceMeters>
          </Trackpoint>
          <Trackpoint>
            <Time>2022-07-10T10:54:58.000Z</Time>
            <Position>
              <LatitudeDegrees>42.757711820304393768310546875</LatitudeDegrees>
              <LongitudeDegrees>-0.22102198563516139984130859375</LongitudeDegrees>
            </Position>
            <AltitudeMeters>2178</AltitudeMeters>
            <DistanceMeters>36187.138558626</DistanceMeters>
          </Trackpoint>
          <Trackpoint>
            <Time>2022-07-10T10:54:59.000Z</Time>
            <Position>
              <LatitudeDegrees>42.7577210403978824615478515625</LatitudeDegrees>
              <LongitudeDegrees>-0.2210265956819057464599609375</LongitudeDegrees>
            </Position>
            <AltitudeMeters>2177.199951171875</AltitudeMeters>
            <DistanceMeters>36188.230332453</DistanceMeters>
          </Trackpoint>
          <Trackpoint>
            <Time>2022-07-10T10:55:00.000Z</Time>
            <Position>
              <LatitudeDegrees>42.757729925215244293212890625</LatitudeDegrees>
              <LongitudeDegrees>-0.221027433872222900390625</LongitudeDegrees>
            </Position>
            <AltitudeMeters>2176.800048828125</AltitudeMeters>
            <DistanceMeters>36189.226981042</DistanceMeters>
          </Trackpoint>
          <Trackpoint>
            <Time>2022-07-10T10:55:02.000Z</Time>
            <Position>
              <LatitudeDegrees>42.75774694047868251800537109375</LatitudeDegrees>
              <LongitudeDegrees>-0.22102785296738147735595703125</LongitudeDegrees>
            </Position>
            <AltitudeMeters>2176</AltitudeMeters>
            <DistanceMeters>36191.120374912</DistanceMeters>
          </Trackpoint>
          <Trackpoint>
            <Time>2022-07-10T10:55:05.000Z</Time>
            <Position>
              <LatitudeDegrees>42.7577686496078968048095703125</LatitudeDegrees>
              <LongitudeDegrees>-0.22102064453065395355224609375</LongitudeDegrees>
            </Position>
            <AltitudeMeters>2175.800048828125</AltitudeMeters>
            <DistanceMeters>36193.607462036</DistanceMeters>
          </Trackpoint>
          <Trackpoint>
            <Time>2022-07-10T10:55:06.000Z</Time>
            <Position>
              <LatitudeDegrees>42.7577659673988819122314453125</LatitudeDegrees>
              <LongitudeDegrees>-0.22102148272097110748291015625</LongitudeDegrees>
            </Position>
            <AltitudeMeters>2175.800048828125</AltitudeMeters>
            <DistanceMeters>36193.922629993</DistanceMeters>
          </Trackpoint>
          <Trackpoint>
            <Time>2022-07-10T10:55:09.000Z</Time>
            <Position>
              <LatitudeDegrees>42.75774409063160419464111328125</LatitudeDegrees>
              <LongitudeDegrees>-0.22103212773799896240234375</LongitudeDegrees>
            </Position>
            <AltitudeMeters>2174.60009765625</AltitudeMeters>
            <DistanceMeters>36196.509382135</DistanceMeters>
          </Trackpoint>
          <Trackpoint>
            <Time>2022-07-10T10:55:11.000Z</Time>
            <Position>
              <LatitudeDegrees>42.7577336132526397705078125</LatitudeDegrees>
              <LongitudeDegrees>-0.22103883326053619384765625</LongitudeDegrees>
            </Position>
            <AltitudeMeters>2173.60009765625</AltitudeMeters>
            <DistanceMeters>36197.798387203</DistanceMeters>
          </Trackpoint>
          <Trackpoint>
            <Time>2022-07-10T10:55:12.000Z</Time>
            <Position>
              <LatitudeDegrees>42.75772816501557826995849609375</LatitudeDegrees>
              <LongitudeDegrees>-0.22104553878307342529296875</LongitudeDegrees>
            </Position>
            <AltitudeMeters>2173.39990234375</AltitudeMeters>
            <DistanceMeters>36198.615837909</DistanceMeters>
          </Trackpoint>
          <Trackpoint>
            <Time>2022-07-10T10:55:13.000Z</Time>
            <Position>
              <LatitudeDegrees>42.75772447697818279266357421875</LatitudeDegrees>
              <LongitudeDegrees>-0.22105551324784755706787109375</LongitudeDegrees>
            </Position>
            <AltitudeMeters>2173.199951171875</AltitudeMeters>
            <DistanceMeters>36199.527302134</DistanceMeters>
          </Trackpoint>
          <Trackpoint>
            <Time>2022-07-10T10:55:18.000Z</Time>
            <Position>
              <LatitudeDegrees>42.757707126438617706298828125</LatitudeDegrees>
              <LongitudeDegrees>-0.221076048910617828369140625</LongitudeDegrees>
            </Position>
            <AltitudeMeters>2171.800048828125</AltitudeMeters>
            <DistanceMeters>36202.084209513</DistanceMeters>
          </Trackpoint>
          <Trackpoint>
            <Time>2022-07-10T10:55:19.000Z</Time>
            <Position>
              <LatitudeDegrees>42.75770452804863452911376953125</LatitudeDegrees>
              <LongitudeDegrees>-0.2210856042802333831787109375</LongitudeDegrees>
            </Position>
            <AltitudeMeters>2171.199951171875</AltitudeMeters>
            <DistanceMeters>36202.912633203</DistanceMeters>
          </Trackpoint>
          <Trackpoint>
            <Time>2022-07-10T10:55:21.000Z</Time>
            <Position>
              <LatitudeDegrees>42.7576969005167484283447265625</LatitudeDegrees>
              <LongitudeDegrees>-0.22109306417405605316162109375</LongitudeDegrees>
            </Position>
            <AltitudeMeters>2170.39990234375</AltitudeMeters>
            <DistanceMeters>36203.953598703</DistanceMeters>
          </Trackpoint>
          <Trackpoint>
            <Time>2022-07-10T10:55:24.000Z</Time>
            <Position>
              <LatitudeDegrees>42.757686339318752288818359375</LatitudeDegrees>
              <LongitudeDegrees>-0.22112206555902957916259765625</LongitudeDegrees>
            </Position>
            <AltitudeMeters>2169.199951171875</AltitudeMeters>
            <DistanceMeters>36206.599030472</DistanceMeters>
          </Trackpoint>
          <Trackpoint>
            <Time>2022-07-10T10:55:26.000Z</Time>
            <Position>
              <LatitudeDegrees>42.75767887942492961883544921875</LatitudeDegrees>
              <LongitudeDegrees>-0.22113547660410404205322265625</LongitudeDegrees>
            </Position>
            <AltitudeMeters>2168.39990234375</AltitudeMeters>
            <DistanceMeters>36207.976098391</DistanceMeters>
          </Trackpoint>
          <Trackpoint>
            <Time>2022-07-10T10:55:27.000Z</Time>
            <Position>
              <LatitudeDegrees>42.757675610482692718505859375</LatitudeDegrees>
              <LongitudeDegrees>-0.2211436070501804351806640625</LongitudeDegrees>
            </Position>
            <AltitudeMeters>2168</AltitudeMeters>
            <DistanceMeters>36208.736312106</DistanceMeters>
          </Trackpoint>
          <Trackpoint>
            <Time>2022-07-10T10:55:31.000Z</Time>
            <Position>
              <LatitudeDegrees>42.75765356607735157012939453125</LatitudeDegrees>
              <LongitudeDegrees>-0.221183337271213531494140625</LongitudeDegrees>
            </Position>
            <AltitudeMeters>2167</AltitudeMeters>
            <DistanceMeters>36212.805852645</DistanceMeters>
          </Trackpoint>
          <Trackpoint>
            <Time>2022-07-10T10:55:32.000Z</Time>
            <Position>
              <LatitudeDegrees>42.757642082870006561279296875</LatitudeDegrees>
              <LongitudeDegrees>-0.22119104862213134765625</LongitudeDegrees>
            </Position>
            <AltitudeMeters>2166.60009765625</AltitudeMeters>
            <DistanceMeters>36214.231253361</DistanceMeters>
          </Trackpoint>
          <Trackpoint>
            <Time>2022-07-10T10:55:36.000Z</Time>
            <Position>
              <LatitudeDegrees>42.75762691162526607513427734375</LatitudeDegrees>
              <LongitudeDegrees>-0.22124041803181171417236328125</LongitudeDegrees>
            </Position>
            <AltitudeMeters>2166</AltitudeMeters>
            <DistanceMeters>36218.606611867</DistanceMeters>
          </Trackpoint>
          <Trackpoint>
            <Time>2022-07-10T10:55:37.000Z</Time>
            <Position>
              <LatitudeDegrees>42.7576316893100738525390625</LatitudeDegrees>
              <LongitudeDegrees>-0.22124670445919036865234375</LongitudeDegrees>
            </Position>
            <AltitudeMeters>2165.800048828125</AltitudeMeters>
            <DistanceMeters>36219.348794232</DistanceMeters>
          </Trackpoint>
          <Trackpoint>
            <Time>2022-07-10T10:55:38.000Z</Time>
            <Position>
              <LatitudeDegrees>42.757638059556484222412109375</LatitudeDegrees>
              <LongitudeDegrees>-0.22125030867755413055419921875</LongitudeDegrees>
            </Position>
            <AltitudeMeters>2165.199951171875</AltitudeMeters>
            <DistanceMeters>36220.120794909</DistanceMeters>
          </Trackpoint>
          <Trackpoint>
            <Time>2022-07-10T10:55:39.000Z</Time>
            <Position>
              <LatitudeDegrees>42.7576442621648311614990234375</LatitudeDegrees>
              <LongitudeDegrees>-0.22124846465885639190673828125</LongitudeDegrees>
            </Position>
            <AltitudeMeters>2164.800048828125</AltitudeMeters>
            <DistanceMeters>36220.831909725</DistanceMeters>
          </Trackpoint>
          <Trackpoint>
            <Time>2022-07-10T10:55:41.000Z</Time>
            <Position>
              <LatitudeDegrees>42.7576620317995548248291015625</LatitudeDegrees>
              <LongitudeDegrees>-0.22125282324850559234619140625</LongitudeDegrees>
            </Position>
            <AltitudeMeters>2164.199951171875</AltitudeMeters>
            <DistanceMeters>36222.843246158</DistanceMeters>
          </Trackpoint>
          <Trackpoint>
            <Time>2022-07-10T10:55:42.000Z</Time>
            <Position>
              <LatitudeDegrees>42.75767032988369464874267578125</LatitudeDegrees>
              <LongitudeDegrees>-0.22126036696135997772216796875</LongitudeDegrees>
            </Position>
            <AltitudeMeters>2164</AltitudeMeters>
            <DistanceMeters>36223.951438558</DistanceMeters>
          </Trackpoint>
          <Trackpoint>
            <Time>2022-07-10T10:55:43.000Z</Time>
            <Position>
              <LatitudeDegrees>42.7576801367104053497314453125</LatitudeDegrees>
              <LongitudeDegrees>-0.221267156302928924560546875</LongitudeDegrees>
            </Position>
            <AltitudeMeters>2163.60009765625</AltitudeMeters>
            <DistanceMeters>36225.175772128</DistanceMeters>
          </Trackpoint>
          <Trackpoint>
            <Time>2022-07-10T10:55:47.000Z</Time>
            <Position>
              <LatitudeDegrees>42.7577227167785167694091796875</LatitudeDegrees>
              <LongitudeDegrees>-0.22129506804049015045166015625</LongitudeDegrees>
            </Position>
            <AltitudeMeters>2163.199951171875</AltitudeMeters>
            <DistanceMeters>36230.434107803</DistanceMeters>
          </Trackpoint>
          <Trackpoint>
            <Time>2022-07-10T10:55:48.000Z</Time>
            <Position>
              <LatitudeDegrees>42.7577331103384494781494140625</LatitudeDegrees>
              <LongitudeDegrees>-0.22130361758172512054443359375</LongitudeDegrees>
            </Position>
            <AltitudeMeters>2162.60009765625</AltitudeMeters>
            <DistanceMeters>36231.784691174</DistanceMeters>
          </Trackpoint>
          <Trackpoint>
            <Time>2022-07-10T10:55:49.000Z</Time>
            <Position>
              <LatitudeDegrees>42.75774442590773105621337890625</LatitudeDegrees>
              <LongitudeDegrees>-0.22130646742880344390869140625</LongitudeDegrees>
            </Position>
            <AltitudeMeters>2162.60009765625</AltitudeMeters>
            <DistanceMeters>36233.066671639</DistanceMeters>
          </Trackpoint>
          <Trackpoint>
            <Time>2022-07-10T10:55:52.000Z</Time>
            <Position>
              <LatitudeDegrees>42.75777409784495830535888671875</LatitudeDegrees>
              <LongitudeDegrees>-0.2213132567703723907470703125</LongitudeDegrees>
            </Position>
            <AltitudeMeters>2161</AltitudeMeters>
            <DistanceMeters>36236.415605043</DistanceMeters>
          </Trackpoint>
          <Trackpoint>
            <Time>2022-07-10T10:55:53.000Z</Time>
            <Position>
              <LatitudeDegrees>42.75778113864362239837646484375</LatitudeDegrees>
              <LongitudeDegrees>-0.22131518460810184478759765625</LongitudeDegrees>
            </Position>
            <AltitudeMeters>2160.800048828125</AltitudeMeters>
            <DistanceMeters>36237.221933452</DistanceMeters>
          </Trackpoint>
          <Trackpoint>
            <Time>2022-07-10T10:55:55.000Z</Time>
            <Position>
              <LatitudeDegrees>42.7577897720038890838623046875</LatitudeDegrees>
              <LongitudeDegrees>-0.22132088430225849151611328125</LongitudeDegrees>
            </Position>
            <AltitudeMeters>2160.39990234375</AltitudeMeters>
            <DistanceMeters>36238.288605676</DistanceMeters>
          </Trackpoint>
          <Trackpoint>
            <Time>2022-07-10T10:55:56.000Z</Time>
            <Position>
              <LatitudeDegrees>42.75779454968869686126708984375</LatitudeDegrees>
              <LongitudeDegrees>-0.22132272832095623016357421875</LongitudeDegrees>
            </Position>
            <AltitudeMeters>2160</AltitudeMeters>
            <DistanceMeters>36238.842701876</DistanceMeters>
          </Trackpoint>
          <Trackpoint>
            <Time>2022-07-10T10:55:58.000Z</Time>
            <Position>
              <LatitudeDegrees>42.75779354386031627655029296875</LatitudeDegrees>
              <LongitudeDegrees>-0.22133144550025463104248046875</LongitudeDegrees>
            </Position>
            <AltitudeMeters>2159.60009765625</AltitudeMeters>
            <DistanceMeters>36239.566403771</DistanceMeters>
          </Trackpoint>
          <Trackpoint>
            <Time>2022-07-10T10:56:00.000Z</Time>
            <Position>
              <LatitudeDegrees>42.7577907778322696685791015625</LatitudeDegrees>
              <LongitudeDegrees>-0.22133043967187404632568359375</LongitudeDegrees>
            </Position>
            <AltitudeMeters>2159.199951171875</AltitudeMeters>
            <DistanceMeters>36239.881571728</DistanceMeters>
          </Trackpoint>
          <Trackpoint>
            <Time>2022-07-10T10:56:01.000Z</Time>
            <Position>
              <LatitudeDegrees>42.757790274918079376220703125</LatitudeDegrees>
              <LongitudeDegrees>-0.22132985293865203857421875</LongitudeDegrees>
            </Position>
            <AltitudeMeters>2158</AltitudeMeters>
            <DistanceMeters>36239.881571728</DistanceMeters>
          </Trackpoint>
          <Trackpoint>
            <Time>2022-07-10T10:56:06.000Z</Time>
            <Position>
              <LatitudeDegrees>42.7577941305935382843017578125</LatitudeDegrees>
              <LongitudeDegrees>-0.2213350497186183929443359375</LongitudeDegrees>
            </Position>
            <AltitudeMeters>2156.800048828125</AltitudeMeters>
            <DistanceMeters>36240.48257344</DistanceMeters>
          </Trackpoint>
          <Trackpoint>
            <Time>2022-07-10T10:56:07.000Z</Time>
            <Position>
              <LatitudeDegrees>42.7577927894890308380126953125</LatitudeDegrees>
              <LongitudeDegrees>-0.22134058177471160888671875</LongitudeDegrees>
            </Position>
            <AltitudeMeters>2156.60009765625</AltitudeMeters>
            <DistanceMeters>36240.967116511</DistanceMeters>
          </Trackpoint>
          <Trackpoint>
            <Time>2022-07-10T10:56:10.000Z</Time>
            <Position>
              <LatitudeDegrees>42.75778926908969879150390625</LatitudeDegrees>
              <LongitudeDegrees>-0.2213524840772151947021484375</LongitudeDegrees>
            </Position>
            <AltitudeMeters>2156</AltitudeMeters>
            <DistanceMeters>36242.016720877</DistanceMeters>
          </Trackpoint>
          <Trackpoint>
            <Time>2022-07-10T10:56:12.000Z</Time>
            <Position>
              <LatitudeDegrees>42.75778658688068389892578125</LatitudeDegrees>
              <LongitudeDegrees>-0.2213504724204540252685546875</LongitudeDegrees>
            </Position>
            <AltitudeMeters>2155.800048828125</AltitudeMeters>
            <DistanceMeters>36242.359344569</DistanceMeters>
          </Trackpoint>
          <Trackpoint>
            <Time>2022-07-10T10:56:15.000Z</Time>
            <Position>
              <LatitudeDegrees>42.75778247974812984466552734375</LatitudeDegrees>
              <LongitudeDegrees>-0.22133680991828441619873046875</LongitudeDegrees>
            </Position>
            <AltitudeMeters>2155.39990234375</AltitudeMeters>
            <DistanceMeters>36243.565098402</DistanceMeters>
          </Trackpoint>
          <Trackpoint>
            <Time>2022-07-10T10:56:16.000Z</Time>
            <Position>
              <LatitudeDegrees>42.7577818930149078369140625</LatitudeDegrees>
              <LongitudeDegrees>-0.2213337086141109466552734375</LongitudeDegrees>
            </Position>
            <AltitudeMeters>2155.199951171875</AltitudeMeters>
            <DistanceMeters>36243.833874539</DistanceMeters>
          </Trackpoint>
          <Trackpoint>
            <Time>2022-07-10T10:56:20.000Z</Time>
            <Position>
              <LatitudeDegrees>42.75778465904295444488525390625</LatitudeDegrees>
              <LongitudeDegrees>-0.2213434316217899322509765625</LongitudeDegrees>
            </Position>
            <AltitudeMeters>2154.800048828125</AltitudeMeters>
            <DistanceMeters>36244.683819311</DistanceMeters>
          </Trackpoint>
          <Trackpoint>
            <Time>2022-07-10T10:56:21.000Z</Time>
            <Position>
              <LatitudeDegrees>42.75778851471841335296630859375</LatitudeDegrees>
              <LongitudeDegrees>-0.22134326398372650146484375</LongitudeDegrees>
            </Position>
            <AltitudeMeters>2154.800048828125</AltitudeMeters>
            <DistanceMeters>36245.108791697</DistanceMeters>
          </Trackpoint>
          <Trackpoint>
            <Time>2022-07-10T10:56:24.000Z</Time>
            <Position>
              <LatitudeDegrees>42.75779907591640949249267578125</LatitudeDegrees>
              <LongitudeDegrees>-0.2213172800838947296142578125</LongitudeDegrees>
            </Position>
            <AltitudeMeters>2154.60009765625</AltitudeMeters>
            <DistanceMeters>36247.535231443</DistanceMeters>
          </Trackpoint>
          <Trackpoint>
            <Time>2022-07-10T10:56:30.000Z</Time>
            <Position>
              <LatitudeDegrees>42.75780402123928070068359375</LatitudeDegrees>
              <LongitudeDegrees>-0.221298001706600189208984375</LongitudeDegrees>
            </Position>
            <AltitudeMeters>2154.39990234375</AltitudeMeters>
            <DistanceMeters>36249.202943512</DistanceMeters>
          </Trackpoint>
          <Trackpoint>
            <Time>2022-07-10T10:56:33.000Z</Time>
            <Position>
              <LatitudeDegrees>42.7578186057507991790771484375</LatitudeDegrees>
              <LongitudeDegrees>-0.22129657678306102752685546875</LongitudeDegrees>
            </Position>
            <AltitudeMeters>2154.199951171875</AltitudeMeters>
            <DistanceMeters>36250.832312247</DistanceMeters>
          </Trackpoint>
          <Trackpoint>
            <Time>2022-07-10T10:56:37.000Z</Time>
            <Position>
              <LatitudeDegrees>42.757832519710063934326171875</LatitudeDegrees>
              <LongitudeDegrees>-0.22130629979074001312255859375</LongitudeDegrees>
            </Position>
            <AltitudeMeters>2153.800048828125</AltitudeMeters>
            <DistanceMeters>36252.574180693</DistanceMeters>
          </Trackpoint>
          <Trackpoint>
            <Time>2022-07-10T10:56:38.000Z</Time>
            <Position>
              <LatitudeDegrees>42.75783612392842769622802734375</LatitudeDegrees>
              <LongitudeDegrees>-0.2213102392852306365966796875</LongitudeDegrees>
            </Position>
            <AltitudeMeters>2153.800048828125</AltitudeMeters>
            <DistanceMeters>36253.077014802</DistanceMeters>
          </Trackpoint>
          <Trackpoint>
            <Time>2022-07-10T10:56:39.000Z</Time>
            <Position>
              <LatitudeDegrees>42.7578363753855228424072265625</LatitudeDegrees>
              <LongitudeDegrees>-0.221310071647167205810546875</LongitudeDegrees>
            </Position>
            <AltitudeMeters>2153.800048828125</AltitudeMeters>
            <DistanceMeters>36253.077014802</DistanceMeters>
          </Trackpoint>
          <Trackpoint>
            <Time>2022-07-10T10:56:40.000Z</Time>
            <Position>
              <LatitudeDegrees>42.75783595629036426544189453125</LatitudeDegrees>
              <LongitudeDegrees>-0.22131216712296009063720703125</LongitudeDegrees>
            </Position>
            <AltitudeMeters>2153.800048828125</AltitudeMeters>
            <DistanceMeters>36253.26706823</DistanceMeters>
          </Trackpoint>
          <Trackpoint>
            <Time>2022-07-10T10:56:41.000Z</Time>
            <Position>
              <LatitudeDegrees>42.75783620774745941162109375</LatitudeDegrees>
              <LongitudeDegrees>-0.2213142625987529754638671875</LongitudeDegrees>
            </Position>
            <AltitudeMeters>2153.60009765625</AltitudeMeters>
            <DistanceMeters>36253.457121659</DistanceMeters>
          </Trackpoint>
          <Trackpoint>
            <Time>2022-07-10T10:56:44.000Z</Time>
            <Position>
              <LatitudeDegrees>42.75783495046198368072509765625</LatitudeDegrees>
              <LongitudeDegrees>-0.22132758982479572296142578125</LongitudeDegrees>
            </Position>
            <AltitudeMeters>2153.39990234375</AltitudeMeters>
            <DistanceMeters>36254.557135406</DistanceMeters>
          </Trackpoint>
          <Trackpoint>
            <Time>2022-07-10T10:56:47.000Z</Time>
            <Position>
              <LatitudeDegrees>42.75783478282392024993896484375</LatitudeDegrees>
              <LongitudeDegrees>-0.22132314741611480712890625</LongitudeDegrees>
            </Position>
            <AltitudeMeters>2153</AltitudeMeters>
            <DistanceMeters>36254.925172288</DistanceMeters>
          </Trackpoint>
          <Trackpoint>
            <Time>2022-07-10T10:56:51.000Z</Time>
            <Position>
              <LatitudeDegrees>42.757820785045623779296875</LatitudeDegrees>
              <LongitudeDegrees>-0.2213142625987529754638671875</LongitudeDegrees>
            </Position>
            <AltitudeMeters>2153</AltitudeMeters>
            <DistanceMeters>36256.643553793</DistanceMeters>
          </Trackpoint>
          <Trackpoint>
            <Time>2022-07-10T10:56:54.000Z</Time>
            <Position>
              <LatitudeDegrees>42.7578092180192470550537109375</LatitudeDegrees>
              <LongitudeDegrees>-0.221327841281890869140625</LongitudeDegrees>
            </Position>
            <AltitudeMeters>2153.199951171875</AltitudeMeters>
            <DistanceMeters>36258.343443337</DistanceMeters>
          </Trackpoint>
          <Trackpoint>
            <Time>2022-07-10T10:57:00.000Z</Time>
            <Position>
              <LatitudeDegrees>42.75779656134545803070068359375</LatitudeDegrees>
              <LongitudeDegrees>-0.22135457955300807952880859375</LongitudeDegrees>
            </Position>
            <AltitudeMeters>2153</AltitudeMeters>
            <DistanceMeters>36260.944121568</DistanceMeters>
          </Trackpoint>
          <Trackpoint>
            <Time>2022-07-10T10:57:02.000Z</Time>
            <Position>
              <LatitudeDegrees>42.75779605843126773834228515625</LatitudeDegrees>
              <LongitudeDegrees>-0.2213640511035919189453125</LongitudeDegrees>
            </Position>
            <AltitudeMeters>2152.199951171875</AltitudeMeters>
            <DistanceMeters>36261.716122245</DistanceMeters>
          </Trackpoint>
          <Trackpoint>
            <Time>2022-07-10T10:57:03.000Z</Time>
            <Position>
              <LatitudeDegrees>42.7577964775264263153076171875</LatitudeDegrees>
              <LongitudeDegrees>-0.221371091902256011962890625</LongitudeDegrees>
            </Position>
            <AltitudeMeters>2151.800048828125</AltitudeMeters>
            <DistanceMeters>36262.294147182</DistanceMeters>
          </Trackpoint>
          <Trackpoint>
            <Time>2022-07-10T10:57:06.000Z</Time>
            <Position>
              <LatitudeDegrees>42.75780737400054931640625</LatitudeDegrees>
              <LongitudeDegrees>-0.22139162756502628326416015625</LongitudeDegrees>
            </Position>
            <AltitudeMeters>2151.39990234375</AltitudeMeters>
            <DistanceMeters>36264.363025196</DistanceMeters>
          </Trackpoint>
          <Trackpoint>
            <Time>2022-07-10T10:57:07.000Z</Time>
            <Position>
              <LatitudeDegrees>42.75781030766665935516357421875</LatitudeDegrees>
              <LongitudeDegrees>-0.22139959037303924560546875</LongitudeDegrees>
            </Position>
            <AltitudeMeters>2151</AltitudeMeters>
            <DistanceMeters>36265.086727091</DistanceMeters>
          </Trackpoint>
          <Trackpoint>
            <Time>2022-07-10T10:57:13.000Z</Time>
            <Position>
              <LatitudeDegrees>42.757846601307392120361328125</LatitudeDegrees>
              <LongitudeDegrees>-0.22141409106552600860595703125</LongitudeDegrees>
            </Position>
            <AltitudeMeters>2150.39990234375</AltitudeMeters>
            <DistanceMeters>36269.295884962</DistanceMeters>
          </Trackpoint>
          <Trackpoint>
            <Time>2022-07-10T10:57:14.000Z</Time>
            <Position>
              <LatitudeDegrees>42.75785238482058048248291015625</LatitudeDegrees>
              <LongitudeDegrees>-0.2214161865413188934326171875</LongitudeDegrees>
            </Position>
            <AltitudeMeters>2149.60009765625</AltitudeMeters>
            <DistanceMeters>36269.967825303</DistanceMeters>
          </Trackpoint>
          <Trackpoint>
            <Time>2022-07-10T10:57:15.000Z</Time>
            <Position>
              <LatitudeDegrees>42.75785808451473712921142578125</LatitudeDegrees>
              <LongitudeDegrees>-0.2214198745787143707275390625</LongitudeDegrees>
            </Position>
            <AltitudeMeters>2149.39990234375</AltitudeMeters>
            <DistanceMeters>36270.678940119</DistanceMeters>
          </Trackpoint>
          <Trackpoint>
            <Time>2022-07-10T10:57:18.000Z</Time>
            <Position>
              <LatitudeDegrees>42.7578668855130672454833984375</LatitudeDegrees>
              <LongitudeDegrees>-0.22141635417938232421875</LongitudeDegrees>
            </Position>
            <AltitudeMeters>2148.60009765625</AltitudeMeters>
            <DistanceMeters>36271.697988102</DistanceMeters>
          </Trackpoint>
          <Trackpoint>
            <Time>2022-07-10T10:57:19.000Z</Time>
            <Position>
              <LatitudeDegrees>42.75786713697016239166259765625</LatitudeDegrees>
              <LongitudeDegrees>-0.22141912020742893218994140625</LongitudeDegrees>
            </Position>
            <AltitudeMeters>2148.60009765625</AltitudeMeters>
            <DistanceMeters>36271.88804153</DistanceMeters>
          </Trackpoint>
          <Trackpoint>
            <Time>2022-07-10T10:57:20.000Z</Time>
            <Position>
              <LatitudeDegrees>42.75786839425563812255859375</LatitudeDegrees>
              <LongitudeDegrees>-0.2214259095489978790283203125</LongitudeDegrees>
            </Position>
            <AltitudeMeters>2148.199951171875</AltitudeMeters>
            <DistanceMeters>36272.458201817</DistanceMeters>
          </Trackpoint>
          <Trackpoint>
            <Time>2022-07-10T10:57:21.000Z</Time>
            <Position>
              <LatitudeDegrees>42.757869064807891845703125</LatitudeDegrees>
              <LongitudeDegrees>-0.221436135470867156982421875</LongitudeDegrees>
            </Position>
            <AltitudeMeters>2148</AltitudeMeters>
            <DistanceMeters>36273.297455034</DistanceMeters>
          </Trackpoint>
          <Trackpoint>
            <Time>2022-07-10T10:57:22.000Z</Time>
            <Position>
              <LatitudeDegrees>42.75786914862692356109619140625</LatitudeDegrees>
              <LongitudeDegrees>-0.2214477024972438812255859375</LongitudeDegrees>
            </Position>
            <AltitudeMeters>2148</AltitudeMeters>
            <DistanceMeters>36274.247722178</DistanceMeters>
          </Trackpoint>
          <Trackpoint>
            <Time>2022-07-10T10:57:24.000Z</Time>
            <Position>
              <LatitudeDegrees>42.757863365113735198974609375</LatitudeDegrees>
              <LongitudeDegrees>-0.22145801223814487457275390625</LongitudeDegrees>
            </Position>
            <AltitudeMeters>2147.800048828125</AltitudeMeters>
            <DistanceMeters>36275.305894885</DistanceMeters>
          </Trackpoint>
          <Trackpoint>
            <Time>2022-07-10T10:57:26.000Z</Time>
            <Position>
              <LatitudeDegrees>42.75785171426832675933837890625</LatitudeDegrees>
              <LongitudeDegrees>-0.22146672941744327545166015625</LongitudeDegrees>
            </Position>
            <AltitudeMeters>2147.39990234375</AltitudeMeters>
            <DistanceMeters>36276.784163636</DistanceMeters>
          </Trackpoint>
          <Trackpoint>
            <Time>2022-07-10T10:57:28.000Z</Time>
            <Position>
              <LatitudeDegrees>42.757839225232601165771484375</LatitudeDegrees>
              <LongitudeDegrees>-0.22148516960442066192626953125</LongitudeDegrees>
            </Position>
            <AltitudeMeters>2147</AltitudeMeters>
            <DistanceMeters>36278.835508469</DistanceMeters>
          </Trackpoint>
          <Trackpoint>
            <Time>2022-07-10T10:57:30.000Z</Time>
            <Position>
              <LatitudeDegrees>42.75783427990972995758056640625</LatitudeDegrees>
              <LongitudeDegrees>-0.2215063758194446563720703125</LongitudeDegrees>
            </Position>
            <AltitudeMeters>2146.60009765625</AltitudeMeters>
            <DistanceMeters>36280.658436918</DistanceMeters>
          </Trackpoint>
          <Trackpoint>
            <Time>2022-07-10T10:57:31.000Z</Time>
            <Position>
              <LatitudeDegrees>42.75783897377550601959228515625</LatitudeDegrees>
              <LongitudeDegrees>-0.22151886485517024993896484375</LongitudeDegrees>
            </Position>
            <AltitudeMeters>2146.199951171875</AltitudeMeters>
            <DistanceMeters>36281.802710087</DistanceMeters>
          </Trackpoint>
          <Trackpoint>
            <Time>2022-07-10T10:57:33.000Z</Time>
            <Position>
              <LatitudeDegrees>42.75785339064896106719970703125</LatitudeDegrees>
              <LongitudeDegrees>-0.22155473940074443817138671875</LongitudeDegrees>
            </Position>
            <AltitudeMeters>2145.39990234375</AltitudeMeters>
            <DistanceMeters>36285.144895683</DistanceMeters>
          </Trackpoint>
          <Trackpoint>
            <Time>2022-07-10T10:57:34.000Z</Time>
            <Position>
              <LatitudeDegrees>42.75785674341022968292236328125</LatitudeDegrees>
              <LongitudeDegrees>-0.22156312130391597747802734375</LongitudeDegrees>
            </Position>
            <AltitudeMeters>2145</AltitudeMeters>
            <DistanceMeters>36285.928506044</DistanceMeters>
          </Trackpoint>
          <Trackpoint>
            <Time>2022-07-10T10:57:38.000Z</Time>
            <Position>
              <LatitudeDegrees>42.7578677237033843994140625</LatitudeDegrees>
              <LongitudeDegrees>-0.2215784601867198944091796875</LongitudeDegrees>
            </Position>
            <AltitudeMeters>2143.800048828125</AltitudeMeters>
            <DistanceMeters>36287.68071208</DistanceMeters>
          </Trackpoint>
          <Trackpoint>
            <Time>2022-07-10T10:57:40.000Z</Time>
            <Position>
              <LatitudeDegrees>42.75786034762859344482421875</LatitudeDegrees>
              <LongitudeDegrees>-0.22158977575600147247314453125</LongitudeDegrees>
            </Position>
            <AltitudeMeters>2143.60009765625</AltitudeMeters>
            <DistanceMeters>36288.919708849</DistanceMeters>
          </Trackpoint>
          <Trackpoint>
            <Time>2022-07-10T10:57:41.000Z</Time>
            <Position>
              <LatitudeDegrees>42.7578548155725002288818359375</LatitudeDegrees>
              <LongitudeDegrees>-0.221599079668521881103515625</LongitudeDegrees>
            </Position>
            <AltitudeMeters>2142.800048828125</AltitudeMeters>
            <DistanceMeters>36289.898068754</DistanceMeters>
          </Trackpoint>
          <Trackpoint>
            <Time>2022-07-10T10:57:43.000Z</Time>
            <Position>
              <LatitudeDegrees>42.7578435838222503662109375</LatitudeDegrees>
              <LongitudeDegrees>-0.221611820161342620849609375</LongitudeDegrees>
            </Position>
            <AltitudeMeters>2142</AltitudeMeters>
            <DistanceMeters>36291.524664094</DistanceMeters>
          </Trackpoint>
          <Trackpoint>
            <Time>2022-07-10T10:57:44.000Z</Time>
            <Position>
              <LatitudeDegrees>42.757836543023586273193359375</LatitudeDegrees>
              <LongitudeDegrees>-0.22161953151226043701171875</LongitudeDegrees>
            </Position>
            <AltitudeMeters>2141.60009765625</AltitudeMeters>
            <DistanceMeters>36292.53033231</DistanceMeters>
          </Trackpoint>
          <Trackpoint>
            <Time>2022-07-10T10:57:47.000Z</Time>
            <Position>
              <LatitudeDegrees>42.75782539509236812591552734375</LatitudeDegrees>
              <LongitudeDegrees>-0.22165867500007152557373046875</LongitudeDegrees>
            </Position>
            <AltitudeMeters>2140.39990234375</AltitudeMeters>
            <DistanceMeters>36295.961836307</DistanceMeters>
          </Trackpoint>
          <Trackpoint>
            <Time>2022-07-10T10:57:49.000Z</Time>
            <Position>
              <LatitudeDegrees>42.7578303404152393341064453125</LatitudeDegrees>
              <LongitudeDegrees>-0.221673510968685150146484375</LongitudeDegrees>
            </Position>
            <AltitudeMeters>2139.60009765625</AltitudeMeters>
            <DistanceMeters>36297.295599802</DistanceMeters>
          </Trackpoint>
          <Trackpoint>
            <Time>2022-07-10T10:57:50.000Z</Time>
            <Position>
              <LatitudeDegrees>42.757831513881683349609375</LatitudeDegrees>
              <LongitudeDegrees>-0.221680887043476104736328125</LongitudeDegrees>
            </Position>
            <AltitudeMeters>2139.199951171875</AltitudeMeters>
            <DistanceMeters>36297.911443297</DistanceMeters>
          </Trackpoint>
          <Trackpoint>
            <Time>2022-07-10T10:57:53.000Z</Time>
            <Position>
              <LatitudeDegrees>42.757826484739780426025390625</LatitudeDegrees>
              <LongitudeDegrees>-0.22172874771058559417724609375</LongitudeDegrees>
            </Position>
            <AltitudeMeters>2138.800048828125</AltitudeMeters>
            <DistanceMeters>36301.862772462</DistanceMeters>
          </Trackpoint>
          <Trackpoint>
            <Time>2022-07-10T10:57:54.000Z</Time>
            <Position>
              <LatitudeDegrees>42.7578221261501312255859375</LatitudeDegrees>
              <LongitudeDegrees>-0.2217484451830387115478515625</LongitudeDegrees>
            </Position>
            <AltitudeMeters>2138.199951171875</AltitudeMeters>
            <DistanceMeters>36303.543966659</DistanceMeters>
          </Trackpoint>
          <Trackpoint>
            <Time>2022-07-10T10:57:55.000Z</Time>
            <Position>
              <LatitudeDegrees>42.75782137177884578704833984375</LatitudeDegrees>
              <LongitudeDegrees>-0.221761353313922882080078125</LongitudeDegrees>
            </Position>
            <AltitudeMeters>2137.800048828125</AltitudeMeters>
            <DistanceMeters>36304.602139367</DistanceMeters>
          </Trackpoint>
          <Trackpoint>
            <Time>2022-07-10T10:57:56.000Z</Time>
            <Position>
              <LatitudeDegrees>42.75782304815948009490966796875</LatitudeDegrees>
              <LongitudeDegrees>-0.22176763974130153656005859375</LongitudeDegrees>
            </Position>
            <AltitudeMeters>2137.60009765625</AltitudeMeters>
            <DistanceMeters>36305.13969164</DistanceMeters>
          </Trackpoint>
          <Trackpoint>
            <Time>2022-07-10T10:57:58.000Z</Time>
            <Position>
              <LatitudeDegrees>42.7578286640346050262451171875</LatitudeDegrees>
              <LongitudeDegrees>-0.22179094143211841583251953125</LongitudeDegrees>
            </Position>
            <AltitudeMeters>2136.60009765625</AltitudeMeters>
            <DistanceMeters>36307.142028759</DistanceMeters>
          </Trackpoint>
          <Trackpoint>
            <Time>2022-07-10T10:57:59.000Z</Time>
            <Position>
              <LatitudeDegrees>42.757831178605556488037109375</LatitudeDegrees>
              <LongitudeDegrees>-0.22180787287652492523193359375</LongitudeDegrees>
            </Position>
            <AltitudeMeters>2136</AltitudeMeters>
            <DistanceMeters>36308.55150271</DistanceMeters>
          </Trackpoint>
          <Trackpoint>
            <Time>2022-07-10T10:58:00.000Z</Time>
            <Position>
              <LatitudeDegrees>42.7578360401093959808349609375</LatitudeDegrees>
              <LongitudeDegrees>-0.22181935608386993408203125</LongitudeDegrees>
            </Position>
            <AltitudeMeters>2135.39990234375</AltitudeMeters>
            <DistanceMeters>36309.634973954</DistanceMeters>
          </Trackpoint>
          <Trackpoint>
            <Time>2022-07-10T10:58:03.000Z</Time>
            <Position>
              <LatitudeDegrees>42.75784618221223354339599609375</LatitudeDegrees>
              <LongitudeDegrees>-0.2218557335436344146728515625</LongitudeDegrees>
            </Position>
            <AltitudeMeters>2134.39990234375</AltitudeMeters>
            <DistanceMeters>36312.812335354</DistanceMeters>
          </Trackpoint>
          <Trackpoint>
            <Time>2022-07-10T10:58:06.000Z</Time>
            <Position>
              <LatitudeDegrees>42.75786713697016239166259765625</LatitudeDegrees>
              <LongitudeDegrees>-0.22188984788954257965087890625</LongitudeDegrees>
            </Position>
            <AltitudeMeters>2133.199951171875</AltitudeMeters>
            <DistanceMeters>36316.448271535</DistanceMeters>
          </Trackpoint>
          <Trackpoint>
            <Time>2022-07-10T10:58:07.000Z</Time>
            <Position>
              <LatitudeDegrees>42.75787551887333393096923828125</LatitudeDegrees>
              <LongitudeDegrees>-0.22190250456333160400390625</LongitudeDegrees>
            </Position>
            <AltitudeMeters>2132.800048828125</AltitudeMeters>
            <DistanceMeters>36317.841636683</DistanceMeters>
          </Trackpoint>
          <Trackpoint>
            <Time>2022-07-10T10:58:09.000Z</Time>
            <Position>
              <LatitudeDegrees>42.75789261795580387115478515625</LatitudeDegrees>
              <LongitudeDegrees>-0.22192723117768764495849609375</LongitudeDegrees>
            </Position>
            <AltitudeMeters>2131.800048828125</AltitudeMeters>
            <DistanceMeters>36320.615375159</DistanceMeters>
          </Trackpoint>
          <Trackpoint>
            <Time>2022-07-10T10:58:12.000Z</Time>
            <Position>
              <LatitudeDegrees>42.75793033652007579803466796875</LatitudeDegrees>
              <LongitudeDegrees>-0.22195338271558284759521484375</LongitudeDegrees>
            </Position>
            <AltitudeMeters>2131</AltitudeMeters>
            <DistanceMeters>36325.326630607</DistanceMeters>
          </Trackpoint>
          <Trackpoint>
            <Time>2022-07-10T10:58:14.000Z</Time>
            <Position>
              <LatitudeDegrees>42.75795020163059234619140625</LatitudeDegrees>
              <LongitudeDegrees>-0.22198087535798549652099609375</LongitudeDegrees>
            </Position>
            <AltitudeMeters>2130.800048828125</AltitudeMeters>
            <DistanceMeters>36328.47974243</DistanceMeters>
          </Trackpoint>
          <Trackpoint>
            <Time>2022-07-10T10:58:17.000Z</Time>
            <Position>
              <LatitudeDegrees>42.7579728327691555023193359375</LatitudeDegrees>
              <LongitudeDegrees>-0.22201457060873508453369140625</LongitudeDegrees>
            </Position>
            <AltitudeMeters>2130.199951171875</AltitudeMeters>
            <DistanceMeters>36332.211280702</DistanceMeters>
          </Trackpoint>
          <Trackpoint>
            <Time>2022-07-10T10:58:18.000Z</Time>
            <Position>
              <LatitudeDegrees>42.7579849027097225189208984375</LatitudeDegrees>
              <LongitudeDegrees>-0.22201909683644771575927734375</LongitudeDegrees>
            </Position>
            <AltitudeMeters>2130</AltitudeMeters>
            <DistanceMeters>36333.60464585</DistanceMeters>
          </Trackpoint>
          <Trackpoint>
            <Time>2022-07-10T10:58:19.000Z</Time>
            <Position>
              <LatitudeDegrees>42.7579922787845134735107421875</LatitudeDegrees>
              <LongitudeDegrees>-0.22202764637768268585205078125</LongitudeDegrees>
            </Position>
            <AltitudeMeters>2129.60009765625</AltitudeMeters>
            <DistanceMeters>36334.679750396</DistanceMeters>
          </Trackpoint>
          <Trackpoint>
            <Time>2022-07-10T10:58:20.000Z</Time>
            <Position>
              <LatitudeDegrees>42.75799705646932125091552734375</LatitudeDegrees>
              <LongitudeDegrees>-0.22204072214663028717041015625</LongitudeDegrees>
            </Position>
            <AltitudeMeters>2128.60009765625</AltitudeMeters>
            <DistanceMeters>36335.874217674</DistanceMeters>
          </Trackpoint>
          <Trackpoint>
            <Time>2022-07-10T10:58:22.000Z</Time>
            <Position>
              <LatitudeDegrees>42.75801113806664943695068359375</LatitudeDegrees>
              <LongitudeDegrees>-0.22206016816198825836181640625</LongitudeDegrees>
            </Position>
            <AltitudeMeters>2127.800048828125</AltitudeMeters>
            <DistanceMeters>36338.106839943</DistanceMeters>
          </Trackpoint>
          <Trackpoint>
            <Time>2022-07-10T10:58:23.000Z</Time>
            <Position>
              <LatitudeDegrees>42.75801901705563068389892578125</LatitudeDegrees>
              <LongitudeDegrees>-0.22207374684512615203857421875</LongitudeDegrees>
            </Position>
            <AltitudeMeters>2127.60009765625</AltitudeMeters>
            <DistanceMeters>36339.522706098</DistanceMeters>
          </Trackpoint>
          <Trackpoint>
            <Time>2022-07-10T10:58:25.000Z</Time>
            <Position>
              <LatitudeDegrees>42.7580308355391025543212890625</LatitudeDegrees>
              <LongitudeDegrees>-0.22209587506949901580810546875</LongitudeDegrees>
            </Position>
            <AltitudeMeters>2127.199951171875</AltitudeMeters>
            <DistanceMeters>36341.759369316</DistanceMeters>
          </Trackpoint>
          <Trackpoint>
            <Time>2022-07-10T10:58:26.000Z</Time>
            <Position>
              <LatitudeDegrees>42.75803427211940288543701171875</LatitudeDegrees>
              <LongitudeDegrees>-0.22210593335330486297607421875</LongitudeDegrees>
            </Position>
            <AltitudeMeters>2126.800048828125</AltitudeMeters>
            <DistanceMeters>36342.660871884</DistanceMeters>
          </Trackpoint>
          <Trackpoint>
            <Time>2022-07-10T10:58:27.000Z</Time>
            <Position>
              <LatitudeDegrees>42.7580385468900203704833984375</LatitudeDegrees>
              <LongitudeDegrees>-0.22211314179003238677978515625</LongitudeDegrees>
            </Position>
            <AltitudeMeters>2126.60009765625</AltitudeMeters>
            <DistanceMeters>36343.409112981</DistanceMeters>
          </Trackpoint>
          <Trackpoint>
            <Time>2022-07-10T10:58:30.000Z</Time>
            <Position>
              <LatitudeDegrees>42.75805489160120487213134765625</LatitudeDegrees>
              <LongitudeDegrees>-0.22212244570255279541015625</LongitudeDegrees>
            </Position>
            <AltitudeMeters>2126.199951171875</AltitudeMeters>
            <DistanceMeters>36345.381918838</DistanceMeters>
          </Trackpoint>
          <Trackpoint>
            <Time>2022-07-10T10:58:31.000Z</Time>
            <Position>
              <LatitudeDegrees>42.7580586634576320648193359375</LatitudeDegrees>
              <LongitudeDegrees>-0.2221286483108997344970703125</LongitudeDegrees>
            </Position>
            <AltitudeMeters>2126</AltitudeMeters>
            <DistanceMeters>36346.047105838</DistanceMeters>
          </Trackpoint>
          <Trackpoint>
            <Time>2022-07-10T10:58:32.000Z</Time>
            <Position>
              <LatitudeDegrees>42.7580608427524566650390625</LatitudeDegrees>
              <LongitudeDegrees>-0.22213929332792758941650390625</LongitudeDegrees>
            </Position>
            <AltitudeMeters>2126</AltitudeMeters>
            <DistanceMeters>36346.948608406</DistanceMeters>
          </Trackpoint>
          <Trackpoint>
            <Time>2022-07-10T10:58:33.000Z</Time>
            <Position>
              <LatitudeDegrees>42.758063189685344696044921875</LatitudeDegrees>
              <LongitudeDegrees>-0.22214767523109912872314453125</LongitudeDegrees>
            </Position>
            <AltitudeMeters>2125.800048828125</AltitudeMeters>
            <DistanceMeters>36347.678522449</DistanceMeters>
          </Trackpoint>
          <Trackpoint>
            <Time>2022-07-10T10:58:34.000Z</Time>
            <Position>
              <LatitudeDegrees>42.7580657042562961578369140625</LatitudeDegrees>
              <LongitudeDegrees>-0.2221494354307651519775390625</LongitudeDegrees>
            </Position>
            <AltitudeMeters>2125</AltitudeMeters>
            <DistanceMeters>36347.993690406</DistanceMeters>
          </Trackpoint>
          <Trackpoint>
            <Time>2022-07-10T10:58:35.000Z</Time>
            <Position>
              <LatitudeDegrees>42.75806964375078678131103515625</LatitudeDegrees>
              <LongitudeDegrees>-0.2221524529159069061279296875</LongitudeDegrees>
            </Position>
            <AltitudeMeters>2124.60009765625</AltitudeMeters>
            <DistanceMeters>36348.496524514</DistanceMeters>
          </Trackpoint>
          <Trackpoint>
            <Time>2022-07-10T10:58:36.000Z</Time>
            <Position>
              <LatitudeDegrees>42.7580730803310871124267578125</LatitudeDegrees>
              <LongitudeDegrees>-0.22215454839169979095458984375</LongitudeDegrees>
            </Position>
            <AltitudeMeters>2124.199951171875</AltitudeMeters>
            <DistanceMeters>36348.9214969</DistanceMeters>
          </Trackpoint>
          <Trackpoint>
            <Time>2022-07-10T10:58:38.000Z</Time>
            <Position>
              <LatitudeDegrees>42.75807634927332401275634765625</LatitudeDegrees>
              <LongitudeDegrees>-0.22218019701540470123291015625</LongitudeDegrees>
            </Position>
            <AltitudeMeters>2123.800048828125</AltitudeMeters>
            <DistanceMeters>36351.04635883</DistanceMeters>
          </Trackpoint>
          <Trackpoint>
            <Time>2022-07-10T10:58:40.000Z</Time>
            <Position>
              <LatitudeDegrees>42.75806821882724761962890625</LatitudeDegrees>
              <LongitudeDegrees>-0.22221422754228115081787109375</LongitudeDegrees>
            </Position>
            <AltitudeMeters>2122.60009765625</AltitudeMeters>
            <DistanceMeters>36353.972194176</DistanceMeters>
          </Trackpoint>
          <Trackpoint>
            <Time>2022-07-10T10:58:42.000Z</Time>
            <Position>
              <LatitudeDegrees>42.7580640278756618499755859375</LatitudeDegrees>
              <LongitudeDegrees>-0.2222322486340999603271484375</LongitudeDegrees>
            </Position>
            <AltitudeMeters>2121.800048828125</AltitudeMeters>
            <DistanceMeters>36355.51619553</DistanceMeters>
          </Trackpoint>
          <Trackpoint>
            <Time>2022-07-10T10:58:43.000Z</Time>
            <Position>
              <LatitudeDegrees>42.75806444697082042694091796875</LatitudeDegrees>
              <LongitudeDegrees>-0.2222332544624805450439453125</LongitudeDegrees>
            </Position>
            <AltitudeMeters>2121.60009765625</AltitudeMeters>
            <DistanceMeters>36355.611222244</DistanceMeters>
          </Trackpoint>
          <Trackpoint>
            <Time>2022-07-10T10:58:46.000Z</Time>
            <Position>
              <LatitudeDegrees>42.758041061460971832275390625</LatitudeDegrees>
              <LongitudeDegrees>-0.22225563414394855499267578125</LongitudeDegrees>
            </Position>
            <AltitudeMeters>2120.39990234375</AltitudeMeters>
            <DistanceMeters>36358.791424379</DistanceMeters>
          </Trackpoint>
          <Trackpoint>
            <Time>2022-07-10T10:58:49.000Z</Time>
            <Position>
              <LatitudeDegrees>42.75802857242524623870849609375</LatitudeDegrees>
              <LongitudeDegrees>-0.22227440960705280303955078125</LongitudeDegrees>
            </Position>
            <AltitudeMeters>2120</AltitudeMeters>
            <DistanceMeters>36360.862483603</DistanceMeters>
          </Trackpoint>
          <Trackpoint>
            <Time>2022-07-10T10:58:50.000Z</Time>
            <Position>
              <LatitudeDegrees>42.75803108699619770050048828125</LatitudeDegrees>
              <LongitudeDegrees>-0.222277343273162841796875</LongitudeDegrees>
            </Position>
            <AltitudeMeters>2119.800048828125</AltitudeMeters>
            <DistanceMeters>36361.242590461</DistanceMeters>
          </Trackpoint>
          <Trackpoint>
            <Time>2022-07-10T10:58:52.000Z</Time>
            <Position>
              <LatitudeDegrees>42.75803393684327602386474609375</LatitudeDegrees>
              <LongitudeDegrees>-0.22229637019336223602294921875</LongitudeDegrees>
            </Position>
            <AltitudeMeters>2119.199951171875</AltitudeMeters>
            <DistanceMeters>36362.829849522</DistanceMeters>
          </Trackpoint>
          <Trackpoint>
            <Time>2022-07-10T10:58:55.000Z</Time>
            <Position>
              <LatitudeDegrees>42.75803779251873493194580078125</LatitudeDegrees>
              <LongitudeDegrees>-0.22231782786548137664794921875</LongitudeDegrees>
            </Position>
            <AltitudeMeters>2118.800048828125</AltitudeMeters>
            <DistanceMeters>36364.637856069</DistanceMeters>
          </Trackpoint>
          <Trackpoint>
            <Time>2022-07-10T10:58:57.000Z</Time>
            <Position>
              <LatitudeDegrees>42.7580367028713226318359375</LatitudeDegrees>
              <LongitudeDegrees>-0.22234548814594745635986328125</LongitudeDegrees>
            </Position>
            <AltitudeMeters>2118.39990234375</AltitudeMeters>
            <DistanceMeters>36366.90260405</DistanceMeters>
          </Trackpoint>
          <Trackpoint>
            <Time>2022-07-10T10:58:58.000Z</Time>
            <Position>
              <LatitudeDegrees>42.75803628377616405487060546875</LatitudeDegrees>
              <LongitudeDegrees>-0.22236074320971965789794921875</LongitudeDegrees>
            </Position>
            <AltitudeMeters>2117.60009765625</AltitudeMeters>
            <DistanceMeters>36368.148867726</DistanceMeters>
          </Trackpoint>
          <Trackpoint>
            <Time>2022-07-10T10:58:59.000Z</Time>
            <Position>
              <LatitudeDegrees>42.75803913362324237823486328125</LatitudeDegrees>
              <LongitudeDegrees>-0.22237432189285755157470703125</LongitudeDegrees>
            </Position>
            <AltitudeMeters>2117.39990234375</AltitudeMeters>
            <DistanceMeters>36369.301005407</DistanceMeters>
          </Trackpoint>
          <Trackpoint>
            <Time>2022-07-10T10:59:00.000Z</Time>
            <Position>
              <LatitudeDegrees>42.75804198347032070159912109375</LatitudeDegrees>
              <LongitudeDegrees>-0.22238723002374172210693359375</LongitudeDegrees>
            </Position>
            <AltitudeMeters>2116.60009765625</AltitudeMeters>
            <DistanceMeters>36370.401019154</DistanceMeters>
          </Trackpoint>
          <Trackpoint>
            <Time>2022-07-10T10:59:01.000Z</Time>
            <Position>
              <LatitudeDegrees>42.75804600678384304046630859375</LatitudeDegrees>
              <LongitudeDegrees>-0.22239678539335727691650390625</LongitudeDegrees>
            </Position>
            <AltitudeMeters>2116.199951171875</AltitudeMeters>
            <DistanceMeters>36371.297499385</DistanceMeters>
          </Trackpoint>
          <Trackpoint>
            <Time>2022-07-10T10:59:03.000Z</Time>
            <Position>
              <LatitudeDegrees>42.75806059129536151885986328125</LatitudeDegrees>
              <LongitudeDegrees>-0.2224143035709857940673828125</LongitudeDegrees>
            </Position>
            <AltitudeMeters>2115.60009765625</AltitudeMeters>
            <DistanceMeters>36373.462357272</DistanceMeters>
          </Trackpoint>
          <Trackpoint>
            <Time>2022-07-10T10:59:04.000Z</Time>
            <Position>
              <LatitudeDegrees>42.75806830264627933502197265625</LatitudeDegrees>
              <LongitudeDegrees>-0.2224195003509521484375</LongitudeDegrees>
            </Position>
            <AltitudeMeters>2115.60009765625</AltitudeMeters>
            <DistanceMeters>36374.422080043</DistanceMeters>
          </Trackpoint>
          <Trackpoint>
            <Time>2022-07-10T10:59:05.000Z</Time>
            <Position>
              <LatitudeDegrees>42.758077271282672882080078125</LatitudeDegrees>
              <LongitudeDegrees>-0.2224230207502841949462890625</LongitudeDegrees>
            </Position>
            <AltitudeMeters>2115</AltitudeMeters>
            <DistanceMeters>36375.463045544</DistanceMeters>
          </Trackpoint>
          <Trackpoint>
            <Time>2022-07-10T10:59:06.000Z</Time>
            <Position>
              <LatitudeDegrees>42.75808657519519329071044921875</LatitudeDegrees>
              <LongitudeDegrees>-0.22241807542741298675537109375</LongitudeDegrees>
            </Position>
            <AltitudeMeters>2114.39990234375</AltitudeMeters>
            <DistanceMeters>36376.575304719</DistanceMeters>
          </Trackpoint>
          <Trackpoint>
            <Time>2022-07-10T10:59:08.000Z</Time>
            <Position>
              <LatitudeDegrees>42.75809462182223796844482421875</LatitudeDegrees>
              <LongitudeDegrees>-0.22241572849452495574951171875</LongitudeDegrees>
            </Position>
            <AltitudeMeters>2113.800048828125</AltitudeMeters>
            <DistanceMeters>36377.491709166</DistanceMeters>
          </Trackpoint>
          <Trackpoint>
            <Time>2022-07-10T10:59:09.000Z</Time>
            <Position>
              <LatitudeDegrees>42.75809462182223796844482421875</LatitudeDegrees>
              <LongitudeDegrees>-0.222417153418064117431640625</LongitudeDegrees>
            </Position>
            <AltitudeMeters>2113.199951171875</AltitudeMeters>
            <DistanceMeters>36377.626097234</DistanceMeters>
          </Trackpoint>
          <Trackpoint>
            <Time>2022-07-10T10:59:10.000Z</Time>
            <Position>
              <LatitudeDegrees>42.75809261016547679901123046875</LatitudeDegrees>
              <LongitudeDegrees>-0.2224213443696498870849609375</LongitudeDegrees>
            </Position>
            <AltitudeMeters>2113</AltitudeMeters>
            <DistanceMeters>36378.05106962</DistanceMeters>
          </Trackpoint>
          <Trackpoint>
            <Time>2022-07-10T10:59:13.000Z</Time>
            <Position>
              <LatitudeDegrees>42.75809235870838165283203125</LatitudeDegrees>
              <LongitudeDegrees>-0.22244632244110107421875</LongitudeDegrees>
            </Position>
            <AltitudeMeters>2112</AltitudeMeters>
            <DistanceMeters>36380.093591423</DistanceMeters>
          </Trackpoint>
          <Trackpoint>
            <Time>2022-07-10T10:59:14.000Z</Time>
            <Position>
              <LatitudeDegrees>42.75809478946030139923095703125</LatitudeDegrees>
              <LongitudeDegrees>-0.22245772182941436767578125</LongitudeDegrees>
            </Position>
            <AltitudeMeters>2111.800048828125</AltitudeMeters>
            <DistanceMeters>36381.062677565</DistanceMeters>
          </Trackpoint>
          <Trackpoint>
            <Time>2022-07-10T10:59:17.000Z</Time>
            <Position>
              <LatitudeDegrees>42.75811909697949886322021484375</LatitudeDegrees>
              <LongitudeDegrees>-0.22248395718634128570556640625</LongitudeDegrees>
            </Position>
            <AltitudeMeters>2111</AltitudeMeters>
            <DistanceMeters>36384.51516955</DistanceMeters>
          </Trackpoint>
          <Trackpoint>
            <Time>2022-07-10T10:59:20.000Z</Time>
            <Position>
              <LatitudeDegrees>42.75817307643592357635498046875</LatitudeDegrees>
              <LongitudeDegrees>-0.22248462773859500885009765625</LongitudeDegrees>
            </Position>
            <AltitudeMeters>2110.199951171875</AltitudeMeters>
            <DistanceMeters>36390.523683977</DistanceMeters>
          </Trackpoint>
          <Trackpoint>
            <Time>2022-07-10T10:59:21.000Z</Time>
            <Position>
              <LatitudeDegrees>42.7581850625574588775634765625</LatitudeDegrees>
              <LongitudeDegrees>-0.2224867232143878936767578125</LongitudeDegrees>
            </Position>
            <AltitudeMeters>2110</AltitudeMeters>
            <DistanceMeters>36391.86756466</DistanceMeters>
          </Trackpoint>
          <Trackpoint>
            <Time>2022-07-10T10:59:23.000Z</Time>
            <Position>
              <LatitudeDegrees>42.7582085318863391876220703125</LatitudeDegrees>
              <LongitudeDegrees>-0.22249854169785976409912109375</LongitudeDegrees>
            </Position>
            <AltitudeMeters>2109.800048828125</AltitudeMeters>
            <DistanceMeters>36394.654294955</DistanceMeters>
          </Trackpoint>
          <Trackpoint>
            <Time>2022-07-10T10:59:27.000Z</Time>
            <Position>
              <LatitudeDegrees>42.75823988020420074462890625</LatitudeDegrees>
              <LongitudeDegrees>-0.22253022529184818267822265625</LongitudeDegrees>
            </Position>
            <AltitudeMeters>2109</AltitudeMeters>
            <DistanceMeters>36398.999624614</DistanceMeters>
          </Trackpoint>
          <Trackpoint>
            <Time>2022-07-10T10:59:28.000Z</Time>
            <Position>
              <LatitudeDegrees>42.7582474239170551300048828125</LatitudeDegrees>
              <LongitudeDegrees>-0.22253693081438541412353515625</LongitudeDegrees>
            </Position>
            <AltitudeMeters>2108.60009765625</AltitudeMeters>
            <DistanceMeters>36400.000793174</DistanceMeters>
          </Trackpoint>
          <Trackpoint>
            <Time>2022-07-10T10:59:29.000Z</Time>
            <Position>
              <LatitudeDegrees>42.75825521908700466156005859375</LatitudeDegrees>
              <LongitudeDegrees>-0.22254564799368381500244140625</LongitudeDegrees>
            </Position>
            <AltitudeMeters>2108.199951171875</AltitudeMeters>
            <DistanceMeters>36401.121141614</DistanceMeters>
          </Trackpoint>
          <Trackpoint>
            <Time>2022-07-10T10:59:31.000Z</Time>
            <Position>
              <LatitudeDegrees>42.7582700550556182861328125</LatitudeDegrees>
              <LongitudeDegrees>-0.22256207652390003204345703125</LongitudeDegrees>
            </Position>
            <AltitudeMeters>2107.39990234375</AltitudeMeters>
            <DistanceMeters>36403.246003544</DistanceMeters>
          </Trackpoint>
          <Trackpoint>
            <Time>2022-07-10T10:59:33.000Z</Time>
            <Position>
              <LatitudeDegrees>42.7582782693207263946533203125</LatitudeDegrees>
              <LongitudeDegrees>-0.22259342484176158905029296875</LongitudeDegrees>
            </Position>
            <AltitudeMeters>2106.39990234375</AltitudeMeters>
            <DistanceMeters>36405.965494784</DistanceMeters>
          </Trackpoint>
          <Trackpoint>
            <Time>2022-07-10T10:59:34.000Z</Time>
            <Position>
              <LatitudeDegrees>42.75828137062489986419677734375</LatitudeDegrees>
              <LongitudeDegrees>-0.22260432131588459014892578125</LongitudeDegrees>
            </Position>
            <AltitudeMeters>2106</AltitudeMeters>
            <DistanceMeters>36406.915761928</DistanceMeters>
          </Trackpoint>
          <Trackpoint>
            <Time>2022-07-10T10:59:35.000Z</Time>
            <Position>
              <LatitudeDegrees>42.7582859806716442108154296875</LatitudeDegrees>
              <LongitudeDegrees>-0.22261152975261211395263671875</LongitudeDegrees>
            </Position>
            <AltitudeMeters>2105.800048828125</AltitudeMeters>
            <DistanceMeters>36407.687762605</DistanceMeters>
          </Trackpoint>
          <Trackpoint>
            <Time>2022-07-10T10:59:36.000Z</Time>
            <Position>
              <LatitudeDegrees>42.75828975252807140350341796875</LatitudeDegrees>
              <LongitudeDegrees>-0.22261463105678558349609375</LongitudeDegrees>
            </Position>
            <AltitudeMeters>2105.39990234375</AltitudeMeters>
            <DistanceMeters>36408.181535897</DistanceMeters>
          </Trackpoint>
          <Trackpoint>
            <Time>2022-07-10T10:59:37.000Z</Time>
            <Position>
              <LatitudeDegrees>42.75829645805060863494873046875</LatitudeDegrees>
              <LongitudeDegrees>-0.2226204983890056610107421875</LongitudeDegrees>
            </Position>
            <AltitudeMeters>2104.800048828125</AltitudeMeters>
            <DistanceMeters>36409.062777393</DistanceMeters>
          </Trackpoint>
          <Trackpoint>
            <Time>2022-07-10T10:59:39.000Z</Time>
            <Position>
              <LatitudeDegrees>42.75830768980085849761962890625</LatitudeDegrees>
              <LongitudeDegrees>-0.2226379327476024627685546875</LongitudeDegrees>
            </Position>
            <AltitudeMeters>2104.199951171875</AltitudeMeters>
            <DistanceMeters>36410.958554391</DistanceMeters>
          </Trackpoint>
          <Trackpoint>
            <Time>2022-07-10T10:59:41.000Z</Time>
            <Position>
              <LatitudeDegrees>42.758312635123729705810546875</LatitudeDegrees>
              <LongitudeDegrees>-0.2226614020764827728271484375</LongitudeDegrees>
            </Position>
            <AltitudeMeters>2103.60009765625</AltitudeMeters>
            <DistanceMeters>36412.956376652</DistanceMeters>
          </Trackpoint>
          <Trackpoint>
            <Time>2022-07-10T10:59:42.000Z</Time>
            <Position>
              <LatitudeDegrees>42.7583161555230617523193359375</LatitudeDegrees>
              <LongitudeDegrees>-0.22267171181738376617431640625</LongitudeDegrees>
            </Position>
            <AltitudeMeters>2103</AltitudeMeters>
            <DistanceMeters>36413.887444501</DistanceMeters>
          </Trackpoint>
          <Trackpoint>
            <Time>2022-07-10T10:59:43.000Z</Time>
            <Position>
              <LatitudeDegrees>42.7583188377320766448974609375</LatitudeDegrees>
              <LongitudeDegrees>-0.22267707623541355133056640625</LongitudeDegrees>
            </Position>
            <AltitudeMeters>2102.60009765625</AltitudeMeters>
            <DistanceMeters>36414.416530854</DistanceMeters>
          </Trackpoint>
          <Trackpoint>
            <Time>2022-07-10T10:59:46.000Z</Time>
            <Position>
              <LatitudeDegrees>42.7583228610455989837646484375</LatitudeDegrees>
              <LongitudeDegrees>-0.2226902358233928680419921875</LongitudeDegrees>
            </Position>
            <AltitudeMeters>2102</AltitudeMeters>
            <DistanceMeters>36415.580365665</DistanceMeters>
          </Trackpoint>
          <Trackpoint>
            <Time>2022-07-10T10:59:47.000Z</Time>
            <Position>
              <LatitudeDegrees>42.75832260958850383758544921875</LatitudeDegrees>
              <LongitudeDegrees>-0.22270046174526214599609375</LongitudeDegrees>
            </Position>
            <AltitudeMeters>2101.39990234375</AltitudeMeters>
            <DistanceMeters>36416.408789355</DistanceMeters>
          </Trackpoint>
          <Trackpoint>
            <Time>2022-07-10T10:59:51.000Z</Time>
            <Position>
              <LatitudeDegrees>42.75832646526396274566650390625</LatitudeDegrees>
              <LongitudeDegrees>-0.2227334864437580108642578125</LongitudeDegrees>
            </Position>
            <AltitudeMeters>2100.39990234375</AltitudeMeters>
            <DistanceMeters>36419.139877626</DistanceMeters>
          </Trackpoint>
          <Trackpoint>
            <Time>2022-07-10T10:59:52.000Z</Time>
            <Position>
              <LatitudeDegrees>42.7583288960158824920654296875</LatitudeDegrees>
              <LongitudeDegrees>-0.2227422036230564117431640625</LongitudeDegrees>
            </Position>
            <AltitudeMeters>2100.199951171875</AltitudeMeters>
            <DistanceMeters>36419.900091341</DistanceMeters>
          </Trackpoint>
          <Trackpoint>
            <Time>2022-07-10T10:59:56.000Z</Time>
            <Position>
              <LatitudeDegrees>42.7583614178001880645751953125</LatitudeDegrees>
              <LongitudeDegrees>-0.2227802574634552001953125</LongitudeDegrees>
            </Position>
            <AltitudeMeters>2099</AltitudeMeters>
            <DistanceMeters>36424.672287145</DistanceMeters>
          </Trackpoint>
          <Trackpoint>
            <Time>2022-07-10T10:59:57.000Z</Time>
            <Position>
              <LatitudeDegrees>42.758368961513042449951171875</LatitudeDegrees>
              <LongitudeDegrees>-0.2227827720344066619873046875</LongitudeDegrees>
            </Position>
            <AltitudeMeters>2098.39990234375</AltitudeMeters>
            <DistanceMeters>36425.532790642</DistanceMeters>
          </Trackpoint>
          <Trackpoint>
            <Time>2022-07-10T10:59:58.000Z</Time>
            <Position>
              <LatitudeDegrees>42.75837524794042110443115234375</LatitudeDegrees>
              <LongitudeDegrees>-0.2227878011763095855712890625</LongitudeDegrees>
            </Position>
            <AltitudeMeters>2098</AltitudeMeters>
            <DistanceMeters>36426.350241348</DistanceMeters>
          </Trackpoint>
          <Trackpoint>
            <Time>2022-07-10T10:59:59.000Z</Time>
            <Position>
              <LatitudeDegrees>42.7583853900432586669921875</LatitudeDegrees>
              <LongitudeDegrees>-0.222792662680149078369140625</LongitudeDegrees>
            </Position>
            <AltitudeMeters>2097.60009765625</AltitudeMeters>
            <DistanceMeters>36427.544708626</DistanceMeters>
          </Trackpoint>
          <Trackpoint>
            <Time>2022-07-10T11:00:01.000Z</Time>
            <Position>
              <LatitudeDegrees>42.758394442498683929443359375</LatitudeDegrees>
              <LongitudeDegrees>-0.22280733101069927215576171875</LongitudeDegrees>
            </Position>
            <AltitudeMeters>2096.39990234375</AltitudeMeters>
            <DistanceMeters>36429.111929348</DistanceMeters>
          </Trackpoint>
          <Trackpoint>
            <Time>2022-07-10T11:00:04.000Z</Time>
            <Position>
              <LatitudeDegrees>42.758417911827564239501953125</LatitudeDegrees>
              <LongitudeDegrees>-0.22283096797764301300048828125</LongitudeDegrees>
            </Position>
            <AltitudeMeters>2095.60009765625</AltitudeMeters>
            <DistanceMeters>36432.359563762</DistanceMeters>
          </Trackpoint>
          <Trackpoint>
            <Time>2022-07-10T11:00:05.000Z</Time>
            <Position>
              <LatitudeDegrees>42.7584278024733066558837890625</LatitudeDegrees>
              <LongitudeDegrees>-0.22284102626144886016845703125</LongitudeDegrees>
            </Position>
            <AltitudeMeters>2095.199951171875</AltitudeMeters>
            <DistanceMeters>36433.736631681</DistanceMeters>
          </Trackpoint>
          <Trackpoint>
            <Time>2022-07-10T11:00:06.000Z</Time>
            <Position>
              <LatitudeDegrees>42.75843543000519275665283203125</LatitudeDegrees>
              <LongitudeDegrees>-0.22284907288849353790283203125</LongitudeDegrees>
            </Position>
            <AltitudeMeters>2094.800048828125</AltitudeMeters>
            <DistanceMeters>36434.811736227</DistanceMeters>
          </Trackpoint>
          <Trackpoint>
            <Time>2022-07-10T11:00:08.000Z</Time>
            <Position>
              <LatitudeDegrees>42.75844884105026721954345703125</LatitudeDegrees>
              <LongitudeDegrees>-0.22287078201770782470703125</LongitudeDegrees>
            </Position>
            <AltitudeMeters>2093.800048828125</AltitudeMeters>
            <DistanceMeters>36437.129686935</DistanceMeters>
          </Trackpoint>
          <Trackpoint>
            <Time>2022-07-10T11:00:09.000Z</Time>
            <Position>
              <LatitudeDegrees>42.75845437310636043548583984375</LatitudeDegrees>
              <LongitudeDegrees>-0.22288025356829166412353515625</LongitudeDegrees>
            </Position>
            <AltitudeMeters>2093.60009765625</AltitudeMeters>
            <DistanceMeters>36438.117233519</DistanceMeters>
          </Trackpoint>
          <Trackpoint>
            <Time>2022-07-10T11:00:11.000Z</Time>
            <Position>
              <LatitudeDegrees>42.75845889933407306671142578125</LatitudeDegrees>
              <LongitudeDegrees>-0.2229038067162036895751953125</LongitudeDegrees>
            </Position>
            <AltitudeMeters>2093</AltitudeMeters>
            <DistanceMeters>36440.105995315</DistanceMeters>
          </Trackpoint>
          <Trackpoint>
            <Time>2022-07-10T11:00:12.000Z</Time>
            <Position>
              <LatitudeDegrees>42.75845722295343875885009765625</LatitudeDegrees>
              <LongitudeDegrees>-0.222915709018707275390625</LongitudeDegrees>
            </Position>
            <AltitudeMeters>2092.39990234375</AltitudeMeters>
            <DistanceMeters>36441.093541899</DistanceMeters>
          </Trackpoint>
          <Trackpoint>
            <Time>2022-07-10T11:00:14.000Z</Time>
            <Position>
              <LatitudeDegrees>42.75845018215477466583251953125</LatitudeDegrees>
              <LongitudeDegrees>-0.22293741814792156219482421875</LongitudeDegrees>
            </Position>
            <AltitudeMeters>2092</AltitudeMeters>
            <DistanceMeters>36443.031714183</DistanceMeters>
          </Trackpoint>
          <Trackpoint>
            <Time>2022-07-10T11:00:16.000Z</Time>
            <Position>
              <LatitudeDegrees>42.75845537893474102020263671875</LatitudeDegrees>
              <LongitudeDegrees>-0.2229675091803073883056640625</LongitudeDegrees>
            </Position>
            <AltitudeMeters>2091.39990234375</AltitudeMeters>
            <DistanceMeters>36445.55663675</DistanceMeters>
          </Trackpoint>
          <Trackpoint>
            <Time>2022-07-10T11:00:17.000Z</Time>
            <Position>
              <LatitudeDegrees>42.75845554657280445098876953125</LatitudeDegrees>
              <LongitudeDegrees>-0.22297731600701808929443359375</LongitudeDegrees>
            </Position>
            <AltitudeMeters>2091.199951171875</AltitudeMeters>
            <DistanceMeters>36446.36296516</DistanceMeters>
          </Trackpoint>
          <Trackpoint>
            <Time>2022-07-10T11:00:19.000Z</Time>
            <Position>
              <LatitudeDegrees>42.75846476666629314422607421875</LatitudeDegrees>
              <LongitudeDegrees>-0.2229903079569339752197265625</LongitudeDegrees>
            </Position>
            <AltitudeMeters>2090.60009765625</AltitudeMeters>
            <DistanceMeters>36447.84123391</DistanceMeters>
          </Trackpoint>
          <Trackpoint>
            <Time>2022-07-10T11:00:20.000Z</Time>
            <Position>
              <LatitudeDegrees>42.75847063399851322174072265625</LatitudeDegrees>
              <LongitudeDegrees>-0.22299542091786861419677734375</LongitudeDegrees>
            </Position>
            <AltitudeMeters>2090</AltitudeMeters>
            <DistanceMeters>36448.613234587</DistanceMeters>
          </Trackpoint>
          <Trackpoint>
            <Time>2022-07-10T11:00:22.000Z</Time>
            <Position>
              <LatitudeDegrees>42.75847055017948150634765625</LatitudeDegrees>
              <LongitudeDegrees>-0.22301235236227512359619140625</LongitudeDegrees>
            </Position>
            <AltitudeMeters>2089.199951171875</AltitudeMeters>
            <DistanceMeters>36449.996844433</DistanceMeters>
          </Trackpoint>
          <Trackpoint>
            <Time>2022-07-10T11:00:23.000Z</Time>
            <Position>
              <LatitudeDegrees>42.7584643475711345672607421875</LatitudeDegrees>
              <LongitudeDegrees>-0.22302475757896900177001953125</LongitudeDegrees>
            </Position>
            <AltitudeMeters>2088.800048828125</AltitudeMeters>
            <DistanceMeters>36451.221178003</DistanceMeters>
          </Trackpoint>
          <Trackpoint>
            <Time>2022-07-10T11:00:28.000Z</Time>
            <Position>
              <LatitudeDegrees>42.75844833813607692718505859375</LatitudeDegrees>
              <LongitudeDegrees>-0.2230913937091827392578125</LongitudeDegrees>
            </Position>
            <AltitudeMeters>2087.60009765625</AltitudeMeters>
            <DistanceMeters>36456.951217964</DistanceMeters>
          </Trackpoint>
          <Trackpoint>
            <Time>2022-07-10T11:00:29.000Z</Time>
            <Position>
              <LatitudeDegrees>42.7584438957273960113525390625</LatitudeDegrees>
              <LongitudeDegrees>-0.22310857661068439483642578125</LongitudeDegrees>
            </Position>
            <AltitudeMeters>2087.60009765625</AltitudeMeters>
            <DistanceMeters>36458.438621315</DistanceMeters>
          </Trackpoint>
          <Trackpoint>
            <Time>2022-07-10T11:00:30.000Z</Time>
            <Position>
              <LatitudeDegrees>42.7584395371377468109130859375</LatitudeDegrees>
              <LongitudeDegrees>-0.223126597702503204345703125</LongitudeDegrees>
            </Position>
            <AltitudeMeters>2087.39990234375</AltitudeMeters>
            <DistanceMeters>36459.988460124</DistanceMeters>
          </Trackpoint>
          <Trackpoint>
            <Time>2022-07-10T11:00:32.000Z</Time>
            <Position>
              <LatitudeDegrees>42.75843358598649501800537109375</LatitudeDegrees>
              <LongitudeDegrees>-0.22315853275358676910400390625</LongitudeDegrees>
            </Position>
            <AltitudeMeters>2086.60009765625</AltitudeMeters>
            <DistanceMeters>36462.681256326</DistanceMeters>
          </Trackpoint>
          <Trackpoint>
            <Time>2022-07-10T11:00:34.000Z</Time>
            <Position>
              <LatitudeDegrees>42.7584308199584484100341796875</LatitudeDegrees>
              <LongitudeDegrees>-0.22318552248179912567138671875</LongitudeDegrees>
            </Position>
            <AltitudeMeters>2084.800048828125</AltitudeMeters>
            <DistanceMeters>36464.909830319</DistanceMeters>
          </Trackpoint>
          <Trackpoint>
            <Time>2022-07-10T11:00:36.000Z</Time>
            <Position>
              <LatitudeDegrees>42.7584291435778141021728515625</LatitudeDegrees>
              <LongitudeDegrees>-0.22320597432553768157958984375</LongitudeDegrees>
            </Position>
            <AltitudeMeters>2084</AltitudeMeters>
            <DistanceMeters>36466.593707988</DistanceMeters>
          </Trackpoint>
          <Trackpoint>
            <Time>2022-07-10T11:00:37.000Z</Time>
            <Position>
              <LatitudeDegrees>42.75843258015811443328857421875</LatitudeDegrees>
              <LongitudeDegrees>-0.22322039119899272918701171875</LongitudeDegrees>
            </Position>
            <AltitudeMeters>2083.800048828125</AltitudeMeters>
            <DistanceMeters>36467.832704757</DistanceMeters>
          </Trackpoint>
          <Trackpoint>
            <Time>2022-07-10T11:00:41.000Z</Time>
            <Position>
              <LatitudeDegrees>42.758474238216876983642578125</LatitudeDegrees>
              <LongitudeDegrees>-0.22327370010316371917724609375</LongitudeDegrees>
            </Position>
            <AltitudeMeters>2082.199951171875</AltitudeMeters>
            <DistanceMeters>36474.194528601</DistanceMeters>
          </Trackpoint>
          <Trackpoint>
            <Time>2022-07-10T11:00:43.000Z</Time>
            <Position>
              <LatitudeDegrees>42.75849527679383754730224609375</LatitudeDegrees>
              <LongitudeDegrees>-0.22328560240566730499267578125</LongitudeDegrees>
            </Position>
            <AltitudeMeters>2081.199951171875</AltitudeMeters>
            <DistanceMeters>36476.730157602</DistanceMeters>
          </Trackpoint>
          <Trackpoint>
            <Time>2022-07-10T11:00:44.000Z</Time>
            <Position>
              <LatitudeDegrees>42.75850416161119937896728515625</LatitudeDegrees>
              <LongitudeDegrees>-0.2232920564711093902587890625</LongitudeDegrees>
            </Position>
            <AltitudeMeters>2081</AltitudeMeters>
            <DistanceMeters>36477.854528849</DistanceMeters>
          </Trackpoint>
          <Trackpoint>
            <Time>2022-07-10T11:00:46.000Z</Time>
            <Position>
              <LatitudeDegrees>42.7585132978856563568115234375</LatitudeDegrees>
              <LongitudeDegrees>-0.22330404259264469146728515625</LongitudeDegrees>
            </Position>
            <AltitudeMeters>2080.199951171875</AltitudeMeters>
            <DistanceMeters>36479.267202518</DistanceMeters>
          </Trackpoint>
          <Trackpoint>
            <Time>2022-07-10T11:00:47.000Z</Time>
            <Position>
              <LatitudeDegrees>42.75851086713373661041259765625</LatitudeDegrees>
              <LongitudeDegrees>-0.223312340676784515380859375</LongitudeDegrees>
            </Position>
            <AltitudeMeters>2079.39990234375</AltitudeMeters>
            <DistanceMeters>36479.997116561</DistanceMeters>
          </Trackpoint>
          <Trackpoint>
            <Time>2022-07-10T11:00:49.000Z</Time>
            <Position>
              <LatitudeDegrees>42.75850005447864532470703125</LatitudeDegrees>
              <LongitudeDegrees>-0.223335810005664825439453125</LongitudeDegrees>
            </Position>
            <AltitudeMeters>2079</AltitudeMeters>
            <DistanceMeters>36482.261864543</DistanceMeters>
          </Trackpoint>
          <Trackpoint>
            <Time>2022-07-10T11:00:51.000Z</Time>
            <Position>
              <LatitudeDegrees>42.75849561206996440887451171875</LatitudeDegrees>
              <LongitudeDegrees>-0.22337696515023708343505859375</LongitudeDegrees>
            </Position>
            <AltitudeMeters>2078.199951171875</AltitudeMeters>
            <DistanceMeters>36485.660315333</DistanceMeters>
          </Trackpoint>
          <Trackpoint>
            <Time>2022-07-10T11:00:53.000Z</Time>
            <Position>
              <LatitudeDegrees>42.75849963538348674774169921875</LatitudeDegrees>
              <LongitudeDegrees>-0.2234154380857944488525390625</LongitudeDegrees>
            </Position>
            <AltitudeMeters>2077.39990234375</AltitudeMeters>
            <DistanceMeters>36488.837676732</DistanceMeters>
          </Trackpoint>
          <Trackpoint>
            <Time>2022-07-10T11:00:54.000Z</Time>
            <Position>
              <LatitudeDegrees>42.7585045807063579559326171875</LatitudeDegrees>
              <LongitudeDegrees>-0.22342390380799770355224609375</LongitudeDegrees>
            </Position>
            <AltitudeMeters>2077.199951171875</AltitudeMeters>
            <DistanceMeters>36489.718918228</DistanceMeters>
          </Trackpoint>
          <Trackpoint>
            <Time>2022-07-10T11:01:00.000Z</Time>
            <Position>
              <LatitudeDegrees>42.75853701867163181304931640625</LatitudeDegrees>
              <LongitudeDegrees>-0.2235022746026515960693359375</LongitudeDegrees>
            </Position>
            <AltitudeMeters>2076</AltitudeMeters>
            <DistanceMeters>36497.07106333</DistanceMeters>
          </Trackpoint>
          <Trackpoint>
            <Time>2022-07-10T11:01:02.000Z</Time>
            <Position>
              <LatitudeDegrees>42.75854020379483699798583984375</LatitudeDegrees>
              <LongitudeDegrees>-0.22353756241500377655029296875</LongitudeDegrees>
            </Position>
            <AltitudeMeters>2075.39990234375</AltitudeMeters>
            <DistanceMeters>36499.978321755</DistanceMeters>
          </Trackpoint>
          <Trackpoint>
            <Time>2022-07-10T11:01:03.000Z</Time>
            <Position>
              <LatitudeDegrees>42.7585448138415813446044921875</LatitudeDegrees>
              <LongitudeDegrees>-0.2235522307455539703369140625</LongitudeDegrees>
            </Position>
            <AltitudeMeters>2075</AltitudeMeters>
            <DistanceMeters>36501.281262418</DistanceMeters>
          </Trackpoint>
          <Trackpoint>
            <Time>2022-07-10T11:01:08.000Z</Time>
            <Position>
              <LatitudeDegrees>42.75858454406261444091796875</LatitudeDegrees>
              <LongitudeDegrees>-0.2235948108136653900146484375</LongitudeDegrees>
            </Position>
            <AltitudeMeters>2074.199951171875</AltitudeMeters>
            <DistanceMeters>36506.907935326</DistanceMeters>
          </Trackpoint>
          <Trackpoint>
            <Time>2022-07-10T11:01:09.000Z</Time>
            <Position>
              <LatitudeDegrees>42.75859217159450054168701171875</LatitudeDegrees>
              <LongitudeDegrees>-0.2236055396497249603271484375</LongitudeDegrees>
            </Position>
            <AltitudeMeters>2074.199951171875</AltitudeMeters>
            <DistanceMeters>36508.124871042</DistanceMeters>
          </Trackpoint>
          <Trackpoint>
            <Time>2022-07-10T11:01:11.000Z</Time>
            <Position>
              <LatitudeDegrees>42.75860063731670379638671875</LatitudeDegrees>
              <LongitudeDegrees>-0.22362942807376384735107421875</LongitudeDegrees>
            </Position>
            <AltitudeMeters>2074</AltitudeMeters>
            <DistanceMeters>36510.291813531</DistanceMeters>
          </Trackpoint>
          <Trackpoint>
            <Time>2022-07-10T11:01:13.000Z</Time>
            <Position>
              <LatitudeDegrees>42.75860424153506755828857421875</LatitudeDegrees>
              <LongitudeDegrees>-0.22365759126842021942138671875</LongitudeDegrees>
            </Position>
            <AltitudeMeters>2074</AltitudeMeters>
            <DistanceMeters>36512.629161654</DistanceMeters>
          </Trackpoint>
          <Trackpoint>
            <Time>2022-07-10T11:01:14.000Z</Time>
            <Position>
              <LatitudeDegrees>42.75860734283924102783203125</LatitudeDegrees>
              <LongitudeDegrees>-0.223674438893795013427734375</LongitudeDegrees>
            </Position>
            <AltitudeMeters>2073.60009765625</AltitudeMeters>
            <DistanceMeters>36514.051391285</DistanceMeters>
          </Trackpoint>
          <Trackpoint>
            <Time>2022-07-10T11:01:17.000Z</Time>
            <Position>
              <LatitudeDegrees>42.75861346162855625152587890625</LatitudeDegrees>
              <LongitudeDegrees>-0.22371358238160610198974609375</LongitudeDegrees>
            </Position>
            <AltitudeMeters>2072.800048828125</AltitudeMeters>
            <DistanceMeters>36517.32119411</DistanceMeters>
          </Trackpoint>
          <Trackpoint>
            <Time>2022-07-10T11:01:19.000Z</Time>
            <Position>
              <LatitudeDegrees>42.75862569920718669891357421875</LatitudeDegrees>
              <LongitudeDegrees>-0.22374115884304046630859375</LongitudeDegrees>
            </Position>
            <AltitudeMeters>2071.39990234375</AltitudeMeters>
            <DistanceMeters>36519.954651667</DistanceMeters>
          </Trackpoint>
          <Trackpoint>
            <Time>2022-07-10T11:01:20.000Z</Time>
            <Position>
              <LatitudeDegrees>42.75863408111035823822021484375</LatitudeDegrees>
              <LongitudeDegrees>-0.2237557433545589447021484375</LongitudeDegrees>
            </Position>
            <AltitudeMeters>2071</AltitudeMeters>
            <DistanceMeters>36521.469128282</DistanceMeters>
          </Trackpoint>
          <Trackpoint>
            <Time>2022-07-10T11:01:22.000Z</Time>
            <Position>
              <LatitudeDegrees>42.75865084491670131683349609375</LatitudeDegrees>
              <LongitudeDegrees>-0.22377845831215381622314453125</LongitudeDegrees>
            </Position>
            <AltitudeMeters>2070.39990234375</AltitudeMeters>
            <DistanceMeters>36524.10258584</DistanceMeters>
          </Trackpoint>
          <Trackpoint>
            <Time>2022-07-10T11:01:26.000Z</Time>
            <Position>
              <LatitudeDegrees>42.7586789242923259735107421875</LatitudeDegrees>
              <LongitudeDegrees>-0.22382573224604129791259765625</LongitudeDegrees>
            </Position>
            <AltitudeMeters>2069.800048828125</AltitudeMeters>
            <DistanceMeters>36529.073127979</DistanceMeters>
          </Trackpoint>
          <Trackpoint>
            <Time>2022-07-10T11:01:28.000Z</Time>
            <Position>
              <LatitudeDegrees>42.7586983703076839447021484375</LatitudeDegrees>
              <LongitudeDegrees>-0.2238409034907817840576171875</LongitudeDegrees>
            </Position>
            <AltitudeMeters>2069</AltitudeMeters>
            <DistanceMeters>36531.565655329</DistanceMeters>
          </Trackpoint>
          <Trackpoint>
            <Time>2022-07-10T11:01:30.000Z</Time>
            <Position>
              <LatitudeDegrees>42.7587178163230419158935546875</LatitudeDegrees>
              <LongitudeDegrees>-0.22386814467608928680419921875</LongitudeDegrees>
            </Position>
            <AltitudeMeters>2067.800048828125</AltitudeMeters>
            <DistanceMeters>36534.66824481</DistanceMeters>
          </Trackpoint>
          <Trackpoint>
            <Time>2022-07-10T11:01:32.000Z</Time>
            <Position>
              <LatitudeDegrees>42.75873432867228984832763671875</LatitudeDegrees>
              <LongitudeDegrees>-0.22389010526239871978759765625</LongitudeDegrees>
            </Position>
            <AltitudeMeters>2067.199951171875</AltitudeMeters>
            <DistanceMeters>36537.23923994</DistanceMeters>
          </Trackpoint>
          <Trackpoint>
            <Time>2022-07-10T11:01:33.000Z</Time>
            <Position>
              <LatitudeDegrees>42.7587421238422393798828125</LatitudeDegrees>
              <LongitudeDegrees>-0.223897732794284820556640625</LongitudeDegrees>
            </Position>
            <AltitudeMeters>2067.199951171875</AltitudeMeters>
            <DistanceMeters>36538.305912163</DistanceMeters>
          </Trackpoint>
          <Trackpoint>
            <Time>2022-07-10T11:01:35.000Z</Time>
            <Position>
              <LatitudeDegrees>42.75875746272504329681396484375</LatitudeDegrees>
              <LongitudeDegrees>-0.22392145358026027679443359375</LongitudeDegrees>
            </Position>
            <AltitudeMeters>2066.60009765625</AltitudeMeters>
            <DistanceMeters>36540.889171053</DistanceMeters>
          </Trackpoint>
          <Trackpoint>
            <Time>2022-07-10T11:01:37.000Z</Time>
            <Position>
              <LatitudeDegrees>42.7587724663317203521728515625</LatitudeDegrees>
              <LongitudeDegrees>-0.2239498682320117950439453125</LongitudeDegrees>
            </Position>
            <AltitudeMeters>2066</AltitudeMeters>
            <DistanceMeters>36543.749459371</DistanceMeters>
          </Trackpoint>
          <Trackpoint>
            <Time>2022-07-10T11:01:38.000Z</Time>
            <Position>
              <LatitudeDegrees>42.75877975858747959136962890625</LatitudeDegrees>
              <LongitudeDegrees>-0.2239629440009593963623046875</LongitudeDegrees>
            </Position>
            <AltitudeMeters>2065.199951171875</AltitudeMeters>
            <DistanceMeters>36545.096695566</DistanceMeters>
          </Trackpoint>
          <Trackpoint>
            <Time>2022-07-10T11:01:39.000Z</Time>
            <Position>
              <LatitudeDegrees>42.75878914631903171539306640625</LatitudeDegrees>
              <LongitudeDegrees>-0.22397442720830440521240234375</LongitudeDegrees>
            </Position>
            <AltitudeMeters>2064.800048828125</AltitudeMeters>
            <DistanceMeters>36546.502962518</DistanceMeters>
          </Trackpoint>
          <Trackpoint>
            <Time>2022-07-10T11:01:41.000Z</Time>
            <Position>
              <LatitudeDegrees>42.7588172256946563720703125</LatitudeDegrees>
              <LongitudeDegrees>-0.22397744469344615936279296875</LongitudeDegrees>
            </Position>
            <AltitudeMeters>2064</AltitudeMeters>
            <DistanceMeters>36549.637403963</DistanceMeters>
          </Trackpoint>
          <Trackpoint>
            <Time>2022-07-10T11:01:44.000Z</Time>
            <Position>
              <LatitudeDegrees>42.75884832255542278289794921875</LatitudeDegrees>
              <LongitudeDegrees>-0.2239860780537128448486328125</LongitudeDegrees>
            </Position>
            <AltitudeMeters>2062.800048828125</AltitudeMeters>
            <DistanceMeters>36553.170046833</DistanceMeters>
          </Trackpoint>
          <Trackpoint>
            <Time>2022-07-10T11:01:50.000Z</Time>
            <Position>
              <LatitudeDegrees>42.75889140553772449493408203125</LatitudeDegrees>
              <LongitudeDegrees>-0.22403108887374401092529296875</LongitudeDegrees>
            </Position>
            <AltitudeMeters>2062.199951171875</AltitudeMeters>
            <DistanceMeters>36559.213775749</DistanceMeters>
          </Trackpoint>
          <Trackpoint>
            <Time>2022-07-10T11:01:52.000Z</Time>
            <Position>
              <LatitudeDegrees>42.75890146382153034210205078125</LatitudeDegrees>
              <LongitudeDegrees>-0.22407249547541141510009765625</LongitudeDegrees>
            </Position>
            <AltitudeMeters>2061.800048828125</AltitudeMeters>
            <DistanceMeters>36562.776960768</DistanceMeters>
          </Trackpoint>
          <Trackpoint>
            <Time>2022-07-10T11:01:53.000Z</Time>
            <Position>
              <LatitudeDegrees>42.7589055709540843963623046875</LatitudeDegrees>
              <LongitudeDegrees>-0.2240910194814205169677734375</LongitudeDegrees>
            </Position>
            <AltitudeMeters>2061.60009765625</AltitudeMeters>
            <DistanceMeters>36564.355663115</DistanceMeters>
          </Trackpoint>
          <Trackpoint>
            <Time>2022-07-10T11:01:56.000Z</Time>
            <Position>
              <LatitudeDegrees>42.75891453959047794342041015625</LatitudeDegrees>
              <LongitudeDegrees>-0.224138461053371429443359375</LongitudeDegrees>
            </Position>
            <AltitudeMeters>2062</AltitudeMeters>
            <DistanceMeters>36568.359209753</DistanceMeters>
          </Trackpoint>
          <Trackpoint>
            <Time>2022-07-10T11:02:02.000Z</Time>
            <Position>
              <LatitudeDegrees>42.75892845354974269866943359375</LatitudeDegrees>
              <LongitudeDegrees>-0.2242298237979412078857421875</LongitudeDegrees>
            </Position>
            <AltitudeMeters>2061.39990234375</AltitudeMeters>
            <DistanceMeters>36575.985066577</DistanceMeters>
          </Trackpoint>
          <Trackpoint>
            <Time>2022-07-10T11:02:05.000Z</Time>
            <Position>
              <LatitudeDegrees>42.75893432088196277618408203125</LatitudeDegrees>
              <LongitudeDegrees>-0.224280618131160736083984375</LongitudeDegrees>
            </Position>
            <AltitudeMeters>2060.199951171875</AltitudeMeters>
            <DistanceMeters>36580.186709047</DistanceMeters>
          </Trackpoint>
          <Trackpoint>
            <Time>2022-07-10T11:02:07.000Z</Time>
            <Position>
              <LatitudeDegrees>42.7589407749474048614501953125</LatitudeDegrees>
              <LongitudeDegrees>-0.22430978715419769287109375</LongitudeDegrees>
            </Position>
            <AltitudeMeters>2059.39990234375</AltitudeMeters>
            <DistanceMeters>36582.675610902</DistanceMeters>
          </Trackpoint>
          <Trackpoint>
            <Time>2022-07-10T11:02:08.000Z</Time>
            <Position>
              <LatitudeDegrees>42.75894236750900745391845703125</LatitudeDegrees>
              <LongitudeDegrees>-0.22432780824601650238037109375</LongitudeDegrees>
            </Position>
            <AltitudeMeters>2059</AltitudeMeters>
            <DistanceMeters>36584.156930778</DistanceMeters>
          </Trackpoint>
          <Trackpoint>
            <Time>2022-07-10T11:02:09.000Z</Time>
            <Position>
              <LatitudeDegrees>42.75894555263221263885498046875</LatitudeDegrees>
              <LongitudeDegrees>-0.2243439853191375732421875</LongitudeDegrees>
            </Position>
            <AltitudeMeters>2058.800048828125</AltitudeMeters>
            <DistanceMeters>36585.527425543</DistanceMeters>
          </Trackpoint>
          <Trackpoint>
            <Time>2022-07-10T11:02:10.000Z</Time>
            <Position>
              <LatitudeDegrees>42.75894806720316410064697265625</LatitudeDegrees>
              <LongitudeDegrees>-0.22435697726905345916748046875</LongitudeDegrees>
            </Position>
            <AltitudeMeters>2058.800048828125</AltitudeMeters>
            <DistanceMeters>36586.623327074</DistanceMeters>
          </Trackpoint>
          <Trackpoint>
            <Time>2022-07-10T11:02:12.000Z</Time>
            <Position>
              <LatitudeDegrees>42.75895477272570133209228515625</LatitudeDegrees>
              <LongitudeDegrees>-0.22437357343733310699462890625</LongitudeDegrees>
            </Position>
            <AltitudeMeters>2058.39990234375</AltitudeMeters>
            <DistanceMeters>36588.173165884</DistanceMeters>
          </Trackpoint>
          <Trackpoint>
            <Time>2022-07-10T11:02:14.000Z</Time>
            <Position>
              <LatitudeDegrees>42.75896533392369747161865234375</LatitudeDegrees>
              <LongitudeDegrees>-0.22438757121562957763671875</LongitudeDegrees>
            </Position>
            <AltitudeMeters>2057.800048828125</AltitudeMeters>
            <DistanceMeters>36589.810826625</DistanceMeters>
          </Trackpoint>
          <Trackpoint>
            <Time>2022-07-10T11:02:17.000Z</Time>
            <Position>
              <LatitudeDegrees>42.75897136889398097991943359375</LatitudeDegrees>
              <LongitudeDegrees>-0.224409364163875579833984375</LongitudeDegrees>
            </Position>
            <AltitudeMeters>2057</AltitudeMeters>
            <DistanceMeters>36591.711360912</DistanceMeters>
          </Trackpoint>
          <Trackpoint>
            <Time>2022-07-10T11:02:18.000Z</Time>
            <Position>
              <LatitudeDegrees>42.75897237472236156463623046875</LatitudeDegrees>
              <LongitudeDegrees>-0.2244239486753940582275390625</LongitudeDegrees>
            </Position>
            <AltitudeMeters>2056.60009765625</AltitudeMeters>
            <DistanceMeters>36592.90582819</DistanceMeters>
          </Trackpoint>
          <Trackpoint>
            <Time>2022-07-10T11:02:22.000Z</Time>
            <Position>
              <LatitudeDegrees>42.75898058898746967315673828125</LatitudeDegrees>
              <LongitudeDegrees>-0.224475078284740447998046875</LongitudeDegrees>
            </Position>
            <AltitudeMeters>2055.60009765625</AltitudeMeters>
            <DistanceMeters>36597.183086059</DistanceMeters>
          </Trackpoint>
          <Trackpoint>
            <Time>2022-07-10T11:02:23.000Z</Time>
            <Position>
              <LatitudeDegrees>42.7589914016425609588623046875</LatitudeDegrees>
              <LongitudeDegrees>-0.22448907606303691864013671875</LongitudeDegrees>
            </Position>
            <AltitudeMeters>2055.39990234375</AltitudeMeters>
            <DistanceMeters>36598.842656279</DistanceMeters>
          </Trackpoint>
          <Trackpoint>
            <Time>2022-07-10T11:02:26.000Z</Time>
            <Position>
              <LatitudeDegrees>42.75900271721184253692626953125</LatitudeDegrees>
              <LongitudeDegrees>-0.22455118596553802490234375</LongitudeDegrees>
            </Position>
            <AltitudeMeters>2054.39990234375</AltitudeMeters>
            <DistanceMeters>36604.071716565</DistanceMeters>
          </Trackpoint>
          <Trackpoint>
            <Time>2022-07-10T11:02:27.000Z</Time>
            <Position>
              <LatitudeDegrees>42.7590064890682697296142578125</LatitudeDegrees>
              <LongitudeDegrees>-0.22457624785602092742919921875</LongitudeDegrees>
            </Position>
            <AltitudeMeters>2053.39990234375</AltitudeMeters>
            <DistanceMeters>36606.162304281</DistanceMeters>
          </Trackpoint>
          <Trackpoint>
            <Time>2022-07-10T11:02:31.000Z</Time>
            <Position>
              <LatitudeDegrees>42.7590356580913066864013671875</LatitudeDegrees>
              <LongitudeDegrees>-0.224648416042327880859375</LongitudeDegrees>
            </Position>
            <AltitudeMeters>2052.39990234375</AltitudeMeters>
            <DistanceMeters>36612.895133088</DistanceMeters>
          </Trackpoint>
          <Trackpoint>
            <Time>2022-07-10T11:02:33.000Z</Time>
            <Position>
              <LatitudeDegrees>42.75907270610332489013671875</LatitudeDegrees>
              <LongitudeDegrees>-0.22465470246970653533935546875</LongitudeDegrees>
            </Position>
            <AltitudeMeters>2052.39990234375</AltitudeMeters>
            <DistanceMeters>36617.050311323</DistanceMeters>
          </Trackpoint>
          <Trackpoint>
            <Time>2022-07-10T11:02:36.000Z</Time>
            <Position>
              <LatitudeDegrees>42.7591204829514026641845703125</LatitudeDegrees>
              <LongitudeDegrees>-0.22463542409241199493408203125</LongitudeDegrees>
            </Position>
            <AltitudeMeters>2051.60009765625</AltitudeMeters>
            <DistanceMeters>36622.596160254</DistanceMeters>
          </Trackpoint>
          <Trackpoint>
            <Time>2022-07-10T11:02:37.000Z</Time>
            <Position>
              <LatitudeDegrees>42.75913565419614315032958984375</LatitudeDegrees>
              <LongitudeDegrees>-0.2246231026947498321533203125</LongitudeDegrees>
            </Position>
            <AltitudeMeters>2051.39990234375</AltitudeMeters>
            <DistanceMeters>36624.562088208</DistanceMeters>
          </Trackpoint>
          <Trackpoint>
            <Time>2022-07-10T11:02:39.000Z</Time>
            <Position>
              <LatitudeDegrees>42.7591603808104991912841796875</LatitudeDegrees>
              <LongitudeDegrees>-0.22459653206169605255126953125</LongitudeDegrees>
            </Position>
            <AltitudeMeters>2051</AltitudeMeters>
            <DistanceMeters>36628.066500279</DistanceMeters>
          </Trackpoint>
          <Trackpoint>
            <Time>2022-07-10T11:02:43.000Z</Time>
            <Position>
              <LatitudeDegrees>42.75922047905623912811279296875</LatitudeDegrees>
              <LongitudeDegrees>-0.2245392836630344390869140625</LongitudeDegrees>
            </Position>
            <AltitudeMeters>2050.199951171875</AltitudeMeters>
            <DistanceMeters>36636.228847</DistanceMeters>
          </Trackpoint>
          <Trackpoint>
            <Time>2022-07-10T11:02:44.000Z</Time>
            <Position>
              <LatitudeDegrees>42.7592317946255207061767578125</LatitudeDegrees>
              <LongitudeDegrees>-0.224530734121799468994140625</LongitudeDegrees>
            </Position>
            <AltitudeMeters>2050.199951171875</AltitudeMeters>
            <DistanceMeters>36637.669998478</DistanceMeters>
          </Trackpoint>
          <Trackpoint>
            <Time>2022-07-10T11:02:46.000Z</Time>
            <Position>
              <LatitudeDegrees>42.75924704968929290771484375</LatitudeDegrees>
              <LongitudeDegrees>-0.22452176548540592193603515625</LongitudeDegrees>
            </Position>
            <AltitudeMeters>2048.800048828125</AltitudeMeters>
            <DistanceMeters>36639.517528964</DistanceMeters>
          </Trackpoint>
          <Trackpoint>
            <Time>2022-07-10T11:02:47.000Z</Time>
            <Position>
              <LatitudeDegrees>42.75925350375473499298095703125</LatitudeDegrees>
              <LongitudeDegrees>-0.22451899945735931396484375</LongitudeDegrees>
            </Position>
            <AltitudeMeters>2048.39990234375</AltitudeMeters>
            <DistanceMeters>36640.265770061</DistanceMeters>
          </Trackpoint>
          <Trackpoint>
            <Time>2022-07-10T11:02:49.000Z</Time>
            <Position>
              <LatitudeDegrees>42.7592716924846172332763671875</LatitudeDegrees>
              <LongitudeDegrees>-0.224511288106441497802734375</LongitudeDegrees>
            </Position>
            <AltitudeMeters>2047.5999755859375</AltitudeMeters>
            <DistanceMeters>36642.386378009</DistanceMeters>
          </Trackpoint>
          <Trackpoint>
            <Time>2022-07-10T11:02:51.000Z</Time>
            <Position>
              <LatitudeDegrees>42.75928518734872341156005859375</LatitudeDegrees>
              <LongitudeDegrees>-0.2245017327368259429931640625</LongitudeDegrees>
            </Position>
            <AltitudeMeters>2047</AltitudeMeters>
            <DistanceMeters>36644.075609833</DistanceMeters>
          </Trackpoint>
          <Trackpoint>
            <Time>2022-07-10T11:02:54.000Z</Time>
            <Position>
              <LatitudeDegrees>42.75929809547960758209228515625</LatitudeDegrees>
              <LongitudeDegrees>-0.2244807779788970947265625</LongitudeDegrees>
            </Position>
            <AltitudeMeters>2046</AltitudeMeters>
            <DistanceMeters>36646.31025349</DistanceMeters>
          </Trackpoint>
          <Trackpoint>
            <Time>2022-07-10T11:02:57.000Z</Time>
            <Position>
              <LatitudeDegrees>42.759307064116001129150390625</LatitudeDegrees>
              <LongitudeDegrees>-0.224458985030651092529296875</LongitudeDegrees>
            </Position>
            <AltitudeMeters>2045.5999755859375</AltitudeMeters>
            <DistanceMeters>36648.352775294</DistanceMeters>
          </Trackpoint>
          <Trackpoint>
            <Time>2022-07-10T11:03:02.000Z</Time>
            <Position>
              <LatitudeDegrees>42.75930966250598430633544921875</LatitudeDegrees>
              <LongitudeDegrees>-0.224455296993255615234375</LongitudeDegrees>
            </Position>
            <AltitudeMeters>2045</AltitudeMeters>
            <DistanceMeters>36648.766987138</DistanceMeters>
          </Trackpoint>
          <Trackpoint>
            <Time>2022-07-10T11:03:04.000Z</Time>
            <Position>
              <LatitudeDegrees>42.75931469164788722991943359375</LatitudeDegrees>
              <LongitudeDegrees>-0.2244625054299831390380859375</LongitudeDegrees>
            </Position>
            <AltitudeMeters>2045</AltitudeMeters>
            <DistanceMeters>36649.573315548</DistanceMeters>
          </Trackpoint>
          <Trackpoint>
            <Time>2022-07-10T11:03:06.000Z</Time>
            <Position>
              <LatitudeDegrees>42.75931008160114288330078125</LatitudeDegrees>
              <LongitudeDegrees>-0.2244809456169605255126953125</LongitudeDegrees>
            </Position>
            <AltitudeMeters>2044</AltitudeMeters>
            <DistanceMeters>36651.163416615</DistanceMeters>
          </Trackpoint>
          <Trackpoint>
            <Time>2022-07-10T11:03:10.000Z</Time>
            <Position>
              <LatitudeDegrees>42.75929398834705352783203125</LatitudeDegrees>
              <LongitudeDegrees>-0.2245302312076091766357421875</LongitudeDegrees>
            </Position>
            <AltitudeMeters>2043.4000244140625</AltitudeMeters>
            <DistanceMeters>36655.571673017</DistanceMeters>
          </Trackpoint>
          <Trackpoint>
            <Time>2022-07-10T11:03:12.000Z</Time>
            <Position>
              <LatitudeDegrees>42.75928166694939136505126953125</LatitudeDegrees>
              <LongitudeDegrees>-0.2245558798313140869140625</LongitudeDegrees>
            </Position>
            <AltitudeMeters>2042.4000244140625</AltitudeMeters>
            <DistanceMeters>36658.075045353</DistanceMeters>
          </Trackpoint>
          <Trackpoint>
            <Time>2022-07-10T11:03:16.000Z</Time>
            <Position>
              <LatitudeDegrees>42.75928166694939136505126953125</LatitudeDegrees>
              <LongitudeDegrees>-0.22460223175585269927978515625</LongitudeDegrees>
            </Position>
            <AltitudeMeters>2041.4000244140625</AltitudeMeters>
            <DistanceMeters>36661.861833094</DistanceMeters>
          </Trackpoint>
          <Trackpoint>
            <Time>2022-07-10T11:03:17.000Z</Time>
            <Position>
              <LatitudeDegrees>42.75928401388227939605712890625</LatitudeDegrees>
              <LongitudeDegrees>-0.2246127091348171234130859375</LongitudeDegrees>
            </Position>
            <AltitudeMeters>2041.199951171875</AltitudeMeters>
            <DistanceMeters>36662.753262691</DistanceMeters>
          </Trackpoint>
          <Trackpoint>
            <Time>2022-07-10T11:03:19.000Z</Time>
            <Position>
              <LatitudeDegrees>42.75928870774805545806884765625</LatitudeDegrees>
              <LongitudeDegrees>-0.22464280016720294952392578125</LongitudeDegrees>
            </Position>
            <AltitudeMeters>2041.199951171875</AltitudeMeters>
            <DistanceMeters>36665.267433233</DistanceMeters>
          </Trackpoint>
          <Trackpoint>
            <Time>2022-07-10T11:03:20.000Z</Time>
            <Position>
              <LatitudeDegrees>42.75928887538611888885498046875</LatitudeDegrees>
              <LongitudeDegrees>-0.22465587593615055084228515625</LongitudeDegrees>
            </Position>
            <AltitudeMeters>2041.199951171875</AltitudeMeters>
            <DistanceMeters>36666.334105456</DistanceMeters>
          </Trackpoint>
          <Trackpoint>
            <Time>2022-07-10T11:03:23.000Z</Time>
            <Position>
              <LatitudeDegrees>42.75928216986358165740966796875</LatitudeDegrees>
              <LongitudeDegrees>-0.224681608378887176513671875</LongitudeDegrees>
            </Position>
            <AltitudeMeters>2041</AltitudeMeters>
            <DistanceMeters>36668.562679449</DistanceMeters>
          </Trackpoint>
          <Trackpoint>
            <Time>2022-07-10T11:03:24.000Z</Time>
            <Position>
              <LatitudeDegrees>42.75927655398845672607421875</LatitudeDegrees>
              <LongitudeDegrees>-0.22469292394816875457763671875</LongitudeDegrees>
            </Position>
            <AltitudeMeters>2040.800048828125</AltitudeMeters>
            <DistanceMeters>36669.678990584</DistanceMeters>
          </Trackpoint>
          <Trackpoint>
            <Time>2022-07-10T11:03:25.000Z</Time>
            <Position>
              <LatitudeDegrees>42.75926909409463405609130859375</LatitudeDegrees>
              <LongitudeDegrees>-0.22470273077487945556640625</LongitudeDegrees>
            </Position>
            <AltitudeMeters>2040.5999755859375</AltitudeMeters>
            <DistanceMeters>36670.835040459</DistanceMeters>
          </Trackpoint>
          <Trackpoint>
            <Time>2022-07-10T11:03:27.000Z</Time>
            <Position>
              <LatitudeDegrees>42.7592505700886249542236328125</LatitudeDegrees>
              <LongitudeDegrees>-0.2247223444283008575439453125</LongitudeDegrees>
            </Position>
            <AltitudeMeters>2040.4000244140625</AltitudeMeters>
            <DistanceMeters>36673.447843129</DistanceMeters>
          </Trackpoint>
          <Trackpoint>
            <Time>2022-07-10T11:03:30.000Z</Time>
            <Position>
              <LatitudeDegrees>42.75922534056007862091064453125</LatitudeDegrees>
              <LongitudeDegrees>-0.2247578836977481842041015625</LongitudeDegrees>
            </Position>
            <AltitudeMeters>2039.800048828125</AltitudeMeters>
            <DistanceMeters>36677.488434448</DistanceMeters>
          </Trackpoint>
          <Trackpoint>
            <Time>2022-07-10T11:03:31.000Z</Time>
            <Position>
              <LatitudeDegrees>42.7592203952372074127197265625</LatitudeDegrees>
              <LongitudeDegrees>-0.22476718761026859283447265625</LongitudeDegrees>
            </Position>
            <AltitudeMeters>2039.5999755859375</AltitudeMeters>
            <DistanceMeters>36678.429150926</DistanceMeters>
          </Trackpoint>
          <Trackpoint>
            <Time>2022-07-10T11:03:33.000Z</Time>
            <Position>
              <LatitudeDegrees>42.759223915636539459228515625</LatitudeDegrees>
              <LongitudeDegrees>-0.2247920818626880645751953125</LongitudeDegrees>
            </Position>
            <AltitudeMeters>2039.199951171875</AltitudeMeters>
            <DistanceMeters>36680.500210151</DistanceMeters>
          </Trackpoint>
          <Trackpoint>
            <Time>2022-07-10T11:03:35.000Z</Time>
            <Position>
              <LatitudeDegrees>42.75924612767994403839111328125</LatitudeDegrees>
              <LongitudeDegrees>-0.2247977815568447113037109375</LongitudeDegrees>
            </Position>
            <AltitudeMeters>2038.5999755859375</AltitudeMeters>
            <DistanceMeters>36683.016175887</DistanceMeters>
          </Trackpoint>
          <Trackpoint>
            <Time>2022-07-10T11:03:38.000Z</Time>
            <Position>
              <LatitudeDegrees>42.75927764363586902618408203125</LatitudeDegrees>
              <LongitudeDegrees>-0.2248031459748744964599609375</LongitudeDegrees>
            </Position>
            <AltitudeMeters>2038.4000244140625</AltitudeMeters>
            <DistanceMeters>36686.550096616</DistanceMeters>
          </Trackpoint>
          <Trackpoint>
            <Time>2022-07-10T11:03:40.000Z</Time>
            <Position>
              <LatitudeDegrees>42.759291641414165496826171875</LatitudeDegrees>
              <LongitudeDegrees>-0.22482049651443958282470703125</LongitudeDegrees>
            </Position>
            <AltitudeMeters>2038.4000244140625</AltitudeMeters>
            <DistanceMeters>36688.657891106</DistanceMeters>
          </Trackpoint>
          <Trackpoint>
            <Time>2022-07-10T11:03:41.000Z</Time>
            <Position>
              <LatitudeDegrees>42.75930128060281276702880859375</LatitudeDegrees>
              <LongitudeDegrees>-0.22482535801827907562255859375</LongitudeDegrees>
            </Position>
            <AltitudeMeters>2038.199951171875</AltitudeMeters>
            <DistanceMeters>36689.798211679</DistanceMeters>
          </Trackpoint>
          <Trackpoint>
            <Time>2022-07-10T11:03:42.000Z</Time>
            <Position>
              <LatitudeDegrees>42.7593115903437137603759765625</LatitudeDegrees>
              <LongitudeDegrees>-0.2248269505798816680908203125</LongitudeDegrees>
            </Position>
            <AltitudeMeters>2038</AltitudeMeters>
            <DistanceMeters>36690.954261554</DistanceMeters>
          </Trackpoint>
          <Trackpoint>
            <Time>2022-07-10T11:03:43.000Z</Time>
            <Position>
              <LatitudeDegrees>42.75932190008461475372314453125</LatitudeDegrees>
              <LongitudeDegrees>-0.2248269505798816680908203125</LongitudeDegrees>
            </Position>
            <AltitudeMeters>2037.800048828125</AltitudeMeters>
            <DistanceMeters>36692.102473712</DistanceMeters>
          </Trackpoint>
          <Trackpoint>
            <Time>2022-07-10T11:03:45.000Z</Time>
            <Position>
              <LatitudeDegrees>42.75934486649930477142333984375</LatitudeDegrees>
              <LongitudeDegrees>-0.2248289622366428375244140625</LongitudeDegrees>
            </Position>
            <AltitudeMeters>2037.5999755859375</AltitudeMeters>
            <DistanceMeters>36694.664673075</DistanceMeters>
          </Trackpoint>
          <Trackpoint>
            <Time>2022-07-10T11:03:46.000Z</Time>
            <Position>
              <LatitudeDegrees>42.7593555115163326263427734375</LatitudeDegrees>
              <LongitudeDegrees>-0.22483407519757747650146484375</LongitudeDegrees>
            </Position>
            <AltitudeMeters>2036.5999755859375</AltitudeMeters>
            <DistanceMeters>36695.918161528</DistanceMeters>
          </Trackpoint>
          <Trackpoint>
            <Time>2022-07-10T11:03:47.000Z</Time>
            <Position>
              <LatitudeDegrees>42.75936665944755077362060546875</LatitudeDegrees>
              <LongitudeDegrees>-0.22483206354081630706787109375</LongitudeDegrees>
            </Position>
            <AltitudeMeters>2036.199951171875</AltitudeMeters>
            <DistanceMeters>36697.17164998</DistanceMeters>
          </Trackpoint>
          <Trackpoint>
            <Time>2022-07-10T11:03:48.000Z</Time>
            <Position>
              <LatitudeDegrees>42.7593779750168323516845703125</LatitudeDegrees>
              <LongitudeDegrees>-0.224826447665691375732421875</LongitudeDegrees>
            </Position>
            <AltitudeMeters>2036</AltitudeMeters>
            <DistanceMeters>36698.512166751</DistanceMeters>
          </Trackpoint>
          <Trackpoint>
            <Time>2022-07-10T11:03:49.000Z</Time>
            <Position>
              <LatitudeDegrees>42.7593885362148284912109375</LatitudeDegrees>
              <LongitudeDegrees>-0.2248172275722026824951171875</LongitudeDegrees>
            </Position>
            <AltitudeMeters>2035.800048828125</AltitudeMeters>
            <DistanceMeters>36699.908768524</DistanceMeters>
          </Trackpoint>
          <Trackpoint>
            <Time>2022-07-10T11:03:52.000Z</Time>
            <Position>
              <LatitudeDegrees>42.75942231528460979461669921875</LatitudeDegrees>
              <LongitudeDegrees>-0.22479183040559291839599609375</LongitudeDegrees>
            </Position>
            <AltitudeMeters>2035.800048828125</AltitudeMeters>
            <DistanceMeters>36704.203933966</DistanceMeters>
          </Trackpoint>
          <Trackpoint>
            <Time>2022-07-10T11:03:54.000Z</Time>
            <Position>
              <LatitudeDegrees>42.75944025255739688873291015625</LatitudeDegrees>
              <LongitudeDegrees>-0.22476869635283946990966796875</LongitudeDegrees>
            </Position>
            <AltitudeMeters>2035</AltitudeMeters>
            <DistanceMeters>36706.954789117</DistanceMeters>
          </Trackpoint>
          <Trackpoint>
            <Time>2022-07-10T11:03:58.000Z</Time>
            <Position>
              <LatitudeDegrees>42.7594743669033050537109375</LatitudeDegrees>
              <LongitudeDegrees>-0.2247317321598529815673828125</LongitudeDegrees>
            </Position>
            <AltitudeMeters>2034</AltitudeMeters>
            <DistanceMeters>36711.805807485</DistanceMeters>
          </Trackpoint>
          <Trackpoint>
            <Time>2022-07-10T11:04:04.000Z</Time>
            <Position>
              <LatitudeDegrees>42.75953530333936214447021484375</LatitudeDegrees>
              <LongitudeDegrees>-0.2246673591434955596923828125</LongitudeDegrees>
            </Position>
            <AltitudeMeters>2033.199951171875</AltitudeMeters>
            <DistanceMeters>36720.38877688</DistanceMeters>
          </Trackpoint>
          <Trackpoint>
            <Time>2022-07-10T11:04:05.000Z</Time>
            <Position>
              <LatitudeDegrees>42.7595425955951213836669921875</LatitudeDegrees>
              <LongitudeDegrees>-0.22465118207037448883056640625</LongitudeDegrees>
            </Position>
            <AltitudeMeters>2032.800048828125</AltitudeMeters>
            <DistanceMeters>36721.938615689</DistanceMeters>
          </Trackpoint>
          <Trackpoint>
            <Time>2022-07-10T11:04:07.000Z</Time>
            <Position>
              <LatitudeDegrees>42.75955625809729099273681640625</LatitudeDegrees>
              <LongitudeDegrees>-0.2246308140456676483154296875</LongitudeDegrees>
            </Position>
            <AltitudeMeters>2032.4000244140625</AltitudeMeters>
            <DistanceMeters>36724.195375117</DistanceMeters>
          </Trackpoint>
          <Trackpoint>
            <Time>2022-07-10T11:04:09.000Z</Time>
            <Position>
              <LatitudeDegrees>42.75956816039979457855224609375</LatitudeDegrees>
              <LongitudeDegrees>-0.224611870944499969482421875</LongitudeDegrees>
            </Position>
            <AltitudeMeters>2031.800048828125</AltitudeMeters>
            <DistanceMeters>36726.231254555</DistanceMeters>
          </Trackpoint>
          <Trackpoint>
            <Time>2022-07-10T11:04:10.000Z</Time>
            <Position>
              <LatitudeDegrees>42.75957469828426837921142578125</LatitudeDegrees>
              <LongitudeDegrees>-0.2245979569852352142333984375</LongitudeDegrees>
            </Position>
            <AltitudeMeters>2031.4000244140625</AltitudeMeters>
            <DistanceMeters>36727.575135238</DistanceMeters>
          </Trackpoint>
          <Trackpoint>
            <Time>2022-07-10T11:04:11.000Z</Time>
            <Position>
              <LatitudeDegrees>42.75958090089261531829833984375</LatitudeDegrees>
              <LongitudeDegrees>-0.22458647377789020538330078125</LongitudeDegrees>
            </Position>
            <AltitudeMeters>2031</AltitudeMeters>
            <DistanceMeters>36728.738970048</DistanceMeters>
          </Trackpoint>
          <Trackpoint>
            <Time>2022-07-10T11:04:13.000Z</Time>
            <Position>
              <LatitudeDegrees>42.7595878578722476959228515625</LatitudeDegrees>
              <LongitudeDegrees>-0.22456518374383449554443359375</LongitudeDegrees>
            </Position>
            <AltitudeMeters>2030.4000244140625</AltitudeMeters>
            <DistanceMeters>36730.644249747</DistanceMeters>
          </Trackpoint>
          <Trackpoint>
            <Time>2022-07-10T11:04:15.000Z</Time>
            <Position>
              <LatitudeDegrees>42.759593389928340911865234375</LatitudeDegrees>
              <LongitudeDegrees>-0.22454506717622280120849609375</LongitudeDegrees>
            </Position>
            <AltitudeMeters>2029.5999755859375</AltitudeMeters>
            <DistanceMeters>36732.401601773</DistanceMeters>
          </Trackpoint>
          <Trackpoint>
            <Time>2022-07-10T11:04:16.000Z</Time>
            <Position>
              <LatitudeDegrees>42.7595950663089752197265625</LatitudeDegrees>
              <LongitudeDegrees>-0.22453467361629009246826171875</LongitudeDegrees>
            </Position>
            <AltitudeMeters>2029</AltitudeMeters>
            <DistanceMeters>36733.272535997</DistanceMeters>
          </Trackpoint>
          <Trackpoint>
            <Time>2022-07-10T11:04:19.000Z</Time>
            <Position>
              <LatitudeDegrees>42.75960302911698818206787109375</LatitudeDegrees>
              <LongitudeDegrees>-0.2244846336543560028076171875</LongitudeDegrees>
            </Position>
            <AltitudeMeters>2028.4000244140625</AltitudeMeters>
            <DistanceMeters>36737.456949722</DistanceMeters>
          </Trackpoint>
          <Trackpoint>
            <Time>2022-07-10T11:04:21.000Z</Time>
            <Position>
              <LatitudeDegrees>42.759610153734683990478515625</LatitudeDegrees>
              <LongitudeDegrees>-0.22444666363298892974853515625</LongitudeDegrees>
            </Position>
            <AltitudeMeters>2028</AltitudeMeters>
            <DistanceMeters>36740.658377023</DistanceMeters>
          </Trackpoint>
          <Trackpoint>
            <Time>2022-07-10T11:04:22.000Z</Time>
            <Position>
              <LatitudeDegrees>42.75961543433368206024169921875</LatitudeDegrees>
              <LongitudeDegrees>-0.22443090565502643585205078125</LongitudeDegrees>
            </Position>
            <AltitudeMeters>2027.5999755859375</AltitudeMeters>
            <DistanceMeters>36742.074243179</DistanceMeters>
          </Trackpoint>
          <Trackpoint>
            <Time>2022-07-10T11:04:25.000Z</Time>
            <Position>
              <LatitudeDegrees>42.7596391551196575164794921875</LatitudeDegrees>
              <LongitudeDegrees>-0.22440341301262378692626953125</LongitudeDegrees>
            </Position>
            <AltitudeMeters>2026.800048828125</AltitudeMeters>
            <DistanceMeters>36745.541090701</DistanceMeters>
          </Trackpoint>
          <Trackpoint>
            <Time>2022-07-10T11:04:29.000Z</Time>
            <Position>
              <LatitudeDegrees>42.75967142544686794281005859375</LatitudeDegrees>
              <LongitudeDegrees>-0.22433392703533172607421875</LongitudeDegrees>
            </Position>
            <AltitudeMeters>2026.199951171875</AltitudeMeters>
            <DistanceMeters>36752.260494114</DistanceMeters>
          </Trackpoint>
          <Trackpoint>
            <Time>2022-07-10T11:04:33.000Z</Time>
            <Position>
              <LatitudeDegrees>42.7596974931657314300537109375</LatitudeDegrees>
              <LongitudeDegrees>-0.2242791093885898590087890625</LongitudeDegrees>
            </Position>
            <AltitudeMeters>2026</AltitudeMeters>
            <DistanceMeters>36757.597240417</DistanceMeters>
          </Trackpoint>
          <Trackpoint>
            <Time>2022-07-10T11:04:34.000Z</Time>
            <Position>
              <LatitudeDegrees>42.75970445014536380767822265625</LatitudeDegrees>
              <LongitudeDegrees>-0.22425957955420017242431640625</LongitudeDegrees>
            </Position>
            <AltitudeMeters>2025.800048828125</AltitudeMeters>
            <DistanceMeters>36759.369940787</DistanceMeters>
          </Trackpoint>
          <Trackpoint>
            <Time>2022-07-10T11:04:35.000Z</Time>
            <Position>
              <LatitudeDegrees>42.75971249677240848541259765625</LatitudeDegrees>
              <LongitudeDegrees>-0.224236361682415008544921875</LongitudeDegrees>
            </Position>
            <AltitudeMeters>2025.4000244140625</AltitudeMeters>
            <DistanceMeters>36761.46914952</DistanceMeters>
          </Trackpoint>
          <Trackpoint>
            <Time>2022-07-10T11:04:39.000Z</Time>
            <Position>
              <LatitudeDegrees>42.7597414143383502960205078125</LatitudeDegrees>
              <LongitudeDegrees>-0.224176011979579925537109375</LongitudeDegrees>
            </Position>
            <AltitudeMeters>2024.800048828125</AltitudeMeters>
            <DistanceMeters>36767.357739635</DistanceMeters>
          </Trackpoint>
          <Trackpoint>
            <Time>2022-07-10T11:04:40.000Z</Time>
            <Position>
              <LatitudeDegrees>42.75974920950829982757568359375</LatitudeDegrees>
              <LongitudeDegrees>-0.22416184656322002410888671875</LongitudeDegrees>
            </Position>
            <AltitudeMeters>2024.4000244140625</AltitudeMeters>
            <DistanceMeters>36768.805143427</DistanceMeters>
          </Trackpoint>
          <Trackpoint>
            <Time>2022-07-10T11:04:41.000Z</Time>
            <Position>
              <LatitudeDegrees>42.759757339954376220703125</LatitudeDegrees>
              <LongitudeDegrees>-0.2241466753184795379638671875</LongitudeDegrees>
            </Position>
            <AltitudeMeters>2023.800048828125</AltitudeMeters>
            <DistanceMeters>36770.337403155</DistanceMeters>
          </Trackpoint>
          <Trackpoint>
            <Time>2022-07-10T11:04:42.000Z</Time>
            <Position>
              <LatitudeDegrees>42.75976412929594516754150390625</LatitudeDegrees>
              <LongitudeDegrees>-0.22413183934986591339111328125</LongitudeDegrees>
            </Position>
            <AltitudeMeters>2023.199951171875</AltitudeMeters>
            <DistanceMeters>36771.765967916</DistanceMeters>
          </Trackpoint>
          <Trackpoint>
            <Time>2022-07-10T11:04:46.000Z</Time>
            <Position>
              <LatitudeDegrees>42.7597801387310028076171875</LatitudeDegrees>
              <LongitudeDegrees>-0.22407433949410915374755859375</LongitudeDegrees>
            </Position>
            <AltitudeMeters>2022.4000244140625</AltitudeMeters>
            <DistanceMeters>36776.791614523</DistanceMeters>
          </Trackpoint>
          <Trackpoint>
            <Time>2022-07-10T11:04:48.000Z</Time>
            <Position>
              <LatitudeDegrees>42.7597870118916034698486328125</LatitudeDegrees>
              <LongitudeDegrees>-0.22404734976589679718017578125</LongitudeDegrees>
            </Position>
            <AltitudeMeters>2022.4000244140625</AltitudeMeters>
            <DistanceMeters>36779.127030154</DistanceMeters>
          </Trackpoint>
          <Trackpoint>
            <Time>2022-07-10T11:04:50.000Z</Time>
            <Position>
              <LatitudeDegrees>42.7597920410335063934326171875</LatitudeDegrees>
              <LongitudeDegrees>-0.22402253933250904083251953125</LongitudeDegrees>
            </Position>
            <AltitudeMeters>2022.4000244140625</AltitudeMeters>
            <DistanceMeters>36781.230536146</DistanceMeters>
          </Trackpoint>
          <Trackpoint>
            <Time>2022-07-10T11:04:51.000Z</Time>
            <Position>
              <LatitudeDegrees>42.75979598052799701690673828125</LatitudeDegrees>
              <LongitudeDegrees>-0.2240122295916080474853515625</LongitudeDegrees>
            </Position>
            <AltitudeMeters>2022.4000244140625</AltitudeMeters>
            <DistanceMeters>36782.190258917</DistanceMeters>
          </Trackpoint>
          <Trackpoint>
            <Time>2022-07-10T11:04:52.000Z</Time>
            <Position>
              <LatitudeDegrees>42.75980092585086822509765625</LatitudeDegrees>
              <LongitudeDegrees>-0.22400074638426303863525390625</LongitudeDegrees>
            </Position>
            <AltitudeMeters>2022.199951171875</AltitudeMeters>
            <DistanceMeters>36783.282032745</DistanceMeters>
          </Trackpoint>
          <Trackpoint>
            <Time>2022-07-10T11:04:53.000Z</Time>
            <Position>
              <LatitudeDegrees>42.7598074637353420257568359375</LatitudeDegrees>
              <LongitudeDegrees>-0.22399035282433032989501953125</LongitudeDegrees>
            </Position>
            <AltitudeMeters>2022</AltitudeMeters>
            <DistanceMeters>36784.402381184</DistanceMeters>
          </Trackpoint>
          <Trackpoint>
            <Time>2022-07-10T11:04:56.000Z</Time>
            <Position>
              <LatitudeDegrees>42.75983302854001522064208984375</LatitudeDegrees>
              <LongitudeDegrees>-0.22394944913685321807861328125</LongitudeDegrees>
            </Position>
            <AltitudeMeters>2021.5999755859375</AltitudeMeters>
            <DistanceMeters>36788.792162857</DistanceMeters>
          </Trackpoint>
          <Trackpoint>
            <Time>2022-07-10T11:05:01.000Z</Time>
            <Position>
              <LatitudeDegrees>42.75986571796238422393798828125</LatitudeDegrees>
              <LongitudeDegrees>-0.2238942123949527740478515625</LongitudeDegrees>
            </Position>
            <AltitudeMeters>2021</AltitudeMeters>
            <DistanceMeters>36794.589571288</DistanceMeters>
          </Trackpoint>
          <Trackpoint>
            <Time>2022-07-10T11:05:04.000Z</Time>
            <Position>
              <LatitudeDegrees>42.75988566689193248748779296875</LatitudeDegrees>
              <LongitudeDegrees>-0.22385138086974620819091796875</LongitudeDegrees>
            </Position>
            <AltitudeMeters>2019.800048828125</AltitudeMeters>
            <DistanceMeters>36798.734958541</DistanceMeters>
          </Trackpoint>
          <Trackpoint>
            <Time>2022-07-10T11:05:05.000Z</Time>
            <Position>
              <LatitudeDegrees>42.7598906122148036956787109375</LatitudeDegrees>
              <LongitudeDegrees>-0.223840065300464630126953125</LongitudeDegrees>
            </Position>
            <AltitudeMeters>2019.5999755859375</AltitudeMeters>
            <DistanceMeters>36799.810063087</DistanceMeters>
          </Trackpoint>
          <Trackpoint>
            <Time>2022-07-10T11:05:06.000Z</Time>
            <Position>
              <LatitudeDegrees>42.75989471934735774993896484375</LatitudeDegrees>
              <LongitudeDegrees>-0.2238284982740879058837890625</LongitudeDegrees>
            </Position>
            <AltitudeMeters>2019.5999755859375</AltitudeMeters>
            <DistanceMeters>36800.859667453</DistanceMeters>
          </Trackpoint>
          <Trackpoint>
            <Time>2022-07-10T11:05:09.000Z</Time>
            <Position>
              <LatitudeDegrees>42.759907878935337066650390625</LatitudeDegrees>
              <LongitudeDegrees>-0.22380821406841278076171875</LongitudeDegrees>
            </Position>
            <AltitudeMeters>2019.4000244140625</AltitudeMeters>
            <DistanceMeters>36803.071974266</DistanceMeters>
          </Trackpoint>
          <Trackpoint>
            <Time>2022-07-10T11:05:11.000Z</Time>
            <Position>
              <LatitudeDegrees>42.75991617701947689056396484375</LatitudeDegrees>
              <LongitudeDegrees>-0.22378943860530853271484375</LongitudeDegrees>
            </Position>
            <AltitudeMeters>2019</AltitudeMeters>
            <DistanceMeters>36804.862414753</DistanceMeters>
          </Trackpoint>
          <Trackpoint>
            <Time>2022-07-10T11:05:13.000Z</Time>
            <Position>
              <LatitudeDegrees>42.759929336607456207275390625</LatitudeDegrees>
              <LongitudeDegrees>-0.2237651310861110687255859375</LongitudeDegrees>
            </Position>
            <AltitudeMeters>2018.800048828125</AltitudeMeters>
            <DistanceMeters>36807.329451745</DistanceMeters>
          </Trackpoint>
          <Trackpoint>
            <Time>2022-07-10T11:05:15.000Z</Time>
            <Position>
              <LatitudeDegrees>42.75994350202381610870361328125</LatitudeDegrees>
              <LongitudeDegrees>-0.223747193813323974609375</LongitudeDegrees>
            </Position>
            <AltitudeMeters>2018</AltitudeMeters>
            <DistanceMeters>36809.481759627</DistanceMeters>
          </Trackpoint>
          <Trackpoint>
            <Time>2022-07-10T11:05:16.000Z</Time>
            <Position>
              <LatitudeDegrees>42.75995037518441677093505859375</LatitudeDegrees>
              <LongitudeDegrees>-0.22373856045305728912353515625</LongitudeDegrees>
            </Position>
            <AltitudeMeters>2017.4000244140625</AltitudeMeters>
            <DistanceMeters>36810.522725127</DistanceMeters>
          </Trackpoint>
          <Trackpoint>
            <Time>2022-07-10T11:05:17.000Z</Time>
            <Position>
              <LatitudeDegrees>42.75995942763984203338623046875</LatitudeDegrees>
              <LongitudeDegrees>-0.22372950799763202667236328125</LongitudeDegrees>
            </Position>
            <AltitudeMeters>2017</AltitudeMeters>
            <DistanceMeters>36811.768988802</DistanceMeters>
          </Trackpoint>
          <Trackpoint>
            <Time>2022-07-10T11:05:18.000Z</Time>
            <Position>
              <LatitudeDegrees>42.7599687315523624420166015625</LatitudeDegrees>
              <LongitudeDegrees>-0.223720036447048187255859375</LongitudeDegrees>
            </Position>
            <AltitudeMeters>2016.199951171875</AltitudeMeters>
            <DistanceMeters>36813.061491856</DistanceMeters>
          </Trackpoint>
          <Trackpoint>
            <Time>2022-07-10T11:05:21.000Z</Time>
            <Position>
              <LatitudeDegrees>42.76000703684985637664794921875</LatitudeDegrees>
              <LongitudeDegrees>-0.2237017638981342315673828125</LongitudeDegrees>
            </Position>
            <AltitudeMeters>2015</AltitudeMeters>
            <DistanceMeters>36817.580009626</DistanceMeters>
          </Trackpoint>
          <Trackpoint>
            <Time>2022-07-10T11:05:22.000Z</Time>
            <Position>
              <LatitudeDegrees>42.76001860387623310089111328125</LatitudeDegrees>
              <LongitudeDegrees>-0.22369899787008762359619140625</LongitudeDegrees>
            </Position>
            <AltitudeMeters>2014.5999755859375</AltitudeMeters>
            <DistanceMeters>36818.889862489</DistanceMeters>
          </Trackpoint>
          <Trackpoint>
            <Time>2022-07-10T11:05:24.000Z</Time>
            <Position>
              <LatitudeDegrees>42.76003964245319366455078125</LatitudeDegrees>
              <LongitudeDegrees>-0.22370092570781707763671875</LongitudeDegrees>
            </Position>
            <AltitudeMeters>2014.199951171875</AltitudeMeters>
            <DistanceMeters>36821.238772174</DistanceMeters>
          </Trackpoint>
          <Trackpoint>
            <Time>2022-07-10T11:05:25.000Z</Time>
            <Position>
              <LatitudeDegrees>42.7600483596324920654296875</LatitudeDegrees>
              <LongitudeDegrees>-0.22370318882167339324951171875</LongitudeDegrees>
            </Position>
            <AltitudeMeters>2014</AltitudeMeters>
            <DistanceMeters>36822.226318758</DistanceMeters>
          </Trackpoint>
          <Trackpoint>
            <Time>2022-07-10T11:05:26.000Z</Time>
            <Position>
              <LatitudeDegrees>42.7600579150021076202392578125</LatitudeDegrees>
              <LongitudeDegrees>-0.2237034402787685394287109375</LongitudeDegrees>
            </Position>
            <AltitudeMeters>2013.800048828125</AltitudeMeters>
            <DistanceMeters>36823.284491466</DistanceMeters>
          </Trackpoint>
          <Trackpoint>
            <Time>2022-07-10T11:05:28.000Z</Time>
            <Position>
              <LatitudeDegrees>42.7600776962935924530029296875</LatitudeDegrees>
              <LongitudeDegrees>-0.22370771504938602447509765625</LongitudeDegrees>
            </Position>
            <AltitudeMeters>2013.4000244140625</AltitudeMeters>
            <DistanceMeters>36825.513065459</DistanceMeters>
          </Trackpoint>
          <Trackpoint>
            <Time>2022-07-10T11:05:29.000Z</Time>
            <Position>
              <LatitudeDegrees>42.76009052060544490814208984375</LatitudeDegrees>
              <LongitudeDegrees>-0.22371031343936920166015625</LongitudeDegrees>
            </Position>
            <AltitudeMeters>2013.199951171875</AltitudeMeters>
            <DistanceMeters>36826.957346477</DistanceMeters>
          </Trackpoint>
          <Trackpoint>
            <Time>2022-07-10T11:05:31.000Z</Time>
            <Position>
              <LatitudeDegrees>42.76011466048657894134521484375</LatitudeDegrees>
              <LongitudeDegrees>-0.22370897233486175537109375</LongitudeDegrees>
            </Position>
            <AltitudeMeters>2013</AltitudeMeters>
            <DistanceMeters>36829.646787168</DistanceMeters>
          </Trackpoint>
          <Trackpoint>
            <Time>2022-07-10T11:05:32.000Z</Time>
            <Position>
              <LatitudeDegrees>42.7601269818842411041259765625</LatitudeDegrees>
              <LongitudeDegrees>-0.2237027697265148162841796875</LongitudeDegrees>
            </Position>
            <AltitudeMeters>2012.5999755859375</AltitudeMeters>
            <DistanceMeters>36831.112787917</DistanceMeters>
          </Trackpoint>
          <Trackpoint>
            <Time>2022-07-10T11:05:33.000Z</Time>
            <Position>
              <LatitudeDegrees>42.76013947091996669769287109375</LatitudeDegrees>
              <LongitudeDegrees>-0.22369287908077239990234375</LongitudeDegrees>
            </Position>
            <AltitudeMeters>2012.4000244140625</AltitudeMeters>
            <DistanceMeters>36832.719835477</DistanceMeters>
          </Trackpoint>
          <Trackpoint>
            <Time>2022-07-10T11:05:34.000Z</Time>
            <Position>
              <LatitudeDegrees>42.760151289403438568115234375</LatitudeDegrees>
              <LongitudeDegrees>-0.22368458099663257598876953125</LongitudeDegrees>
            </Position>
            <AltitudeMeters>2011.800048828125</AltitudeMeters>
            <DistanceMeters>36834.198104228</DistanceMeters>
          </Trackpoint>
          <Trackpoint>
            <Time>2022-07-10T11:05:35.000Z</Time>
            <Position>
              <LatitudeDegrees>42.76016679592430591583251953125</LatitudeDegrees>
              <LongitudeDegrees>-0.2236739359796047210693359375</LongitudeDegrees>
            </Position>
            <AltitudeMeters>2011.4000244140625</AltitudeMeters>
            <DistanceMeters>36836.13161183</DistanceMeters>
          </Trackpoint>
          <Trackpoint>
            <Time>2022-07-10T11:05:36.000Z</Time>
            <Position>
              <LatitudeDegrees>42.7601809613406658172607421875</LatitudeDegrees>
              <LongitudeDegrees>-0.22366815246641635894775390625</LongitudeDegrees>
            </Position>
            <AltitudeMeters>2011.199951171875</AltitudeMeters>
            <DistanceMeters>36837.777522804</DistanceMeters>
          </Trackpoint>
          <Trackpoint>
            <Time>2022-07-10T11:05:37.000Z</Time>
            <Position>
              <LatitudeDegrees>42.76019395329058170318603515625</LatitudeDegrees>
              <LongitudeDegrees>-0.22366697899997234344482421875</LongitudeDegrees>
            </Position>
            <AltitudeMeters>2011</AltitudeMeters>
            <DistanceMeters>36839.224926595</DistanceMeters>
          </Trackpoint>
          <Trackpoint>
            <Time>2022-07-10T11:05:39.000Z</Time>
            <Position>
              <LatitudeDegrees>42.7602305822074413299560546875</LatitudeDegrees>
              <LongitudeDegrees>-0.22365340031683444976806640625</LongitudeDegrees>
            </Position>
            <AltitudeMeters>2010.800048828125</AltitudeMeters>
            <DistanceMeters>36843.449075155</DistanceMeters>
          </Trackpoint>
          <Trackpoint>
            <Time>2022-07-10T11:05:40.000Z</Time>
            <Position>
              <LatitudeDegrees>42.76024709455668926239013671875</LatitudeDegrees>
              <LongitudeDegrees>-0.22365055046975612640380859375</LongitudeDegrees>
            </Position>
            <AltitudeMeters>2010.4000244140625</AltitudeMeters>
            <DistanceMeters>36845.301486839</DistanceMeters>
          </Trackpoint>
          <Trackpoint>
            <Time>2022-07-10T11:05:41.000Z</Time>
            <Position>
              <LatitudeDegrees>42.7602627687156200408935546875</LatitudeDegrees>
              <LongitudeDegrees>-0.22364535368978977203369140625</LongitudeDegrees>
            </Position>
            <AltitudeMeters>2010</AltitudeMeters>
            <DistanceMeters>36847.099476652</DistanceMeters>
          </Trackpoint>
          <Trackpoint>
            <Time>2022-07-10T11:05:43.000Z</Time>
            <Position>
              <LatitudeDegrees>42.76029109954833984375</LatitudeDegrees>
              <LongitudeDegrees>-0.22364250384271144866943359375</LongitudeDegrees>
            </Position>
            <AltitudeMeters>2009.800048828125</AltitudeMeters>
            <DistanceMeters>36850.262596109</DistanceMeters>
          </Trackpoint>
          <Trackpoint>
            <Time>2022-07-10T11:05:47.000Z</Time>
            <Position>
              <LatitudeDegrees>42.760336361825466156005859375</LatitudeDegrees>
              <LongitudeDegrees>-0.2236236445605754852294921875</LongitudeDegrees>
            </Position>
            <AltitudeMeters>2009.199951171875</AltitudeMeters>
            <DistanceMeters>36855.531225437</DistanceMeters>
          </Trackpoint>
          <Trackpoint>
            <Time>2022-07-10T11:05:52.000Z</Time>
            <Position>
              <LatitudeDegrees>42.76040333323180675506591796875</LatitudeDegrees>
              <LongitudeDegrees>-0.22363529540598392486572265625</LongitudeDegrees>
            </Position>
            <AltitudeMeters>2009</AltitudeMeters>
            <DistanceMeters>36863.046150458</DistanceMeters>
          </Trackpoint>
          <Trackpoint>
            <Time>2022-07-10T11:05:53.000Z</Time>
            <Position>
              <LatitudeDegrees>42.7604153193533420562744140625</LatitudeDegrees>
              <LongitudeDegrees>-0.2236373908817768096923828125</LongitudeDegrees>
            </Position>
            <AltitudeMeters>2008.5999755859375</AltitudeMeters>
            <DistanceMeters>36864.390031141</DistanceMeters>
          </Trackpoint>
          <Trackpoint>
            <Time>2022-07-10T11:05:54.000Z</Time>
            <Position>
              <LatitudeDegrees>42.76042579673230648040771484375</LatitudeDegrees>
              <LongitudeDegrees>-0.22363093681633472442626953125</LongitudeDegrees>
            </Position>
            <AltitudeMeters>2008.4000244140625</AltitudeMeters>
            <DistanceMeters>36865.672011606</DistanceMeters>
          </Trackpoint>
          <Trackpoint>
            <Time>2022-07-10T11:05:57.000Z</Time>
            <Position>
              <LatitudeDegrees>42.76046250946819782257080078125</LatitudeDegrees>
              <LongitudeDegrees>-0.22359673865139484405517578125</LongitudeDegrees>
            </Position>
            <AltitudeMeters>2008.199951171875</AltitudeMeters>
            <DistanceMeters>36870.622529505</DistanceMeters>
          </Trackpoint>
          <Trackpoint>
            <Time>2022-07-10T11:05:59.000Z</Time>
            <Position>
              <LatitudeDegrees>42.76048832572996616363525390625</LatitudeDegrees>
              <LongitudeDegrees>-0.22358433343470096588134765625</LongitudeDegrees>
            </Position>
            <AltitudeMeters>2006.5999755859375</AltitudeMeters>
            <DistanceMeters>36873.669317746</DistanceMeters>
          </Trackpoint>
          <Trackpoint>
            <Time>2022-07-10T11:06:02.000Z</Time>
            <Position>
              <LatitudeDegrees>42.76052109897136688232421875</LatitudeDegrees>
              <LongitudeDegrees>-0.22356254048645496368408203125</LongitudeDegrees>
            </Position>
            <AltitudeMeters>2005.4000244140625</AltitudeMeters>
            <DistanceMeters>36877.727748407</DistanceMeters>
          </Trackpoint>
          <Trackpoint>
            <Time>2022-07-10T11:06:03.000Z</Time>
            <Position>
              <LatitudeDegrees>42.760529816150665283203125</LatitudeDegrees>
              <LongitudeDegrees>-0.22355533204972743988037109375</LongitudeDegrees>
            </Position>
            <AltitudeMeters>2005.199951171875</AltitudeMeters>
            <DistanceMeters>36878.856128121</DistanceMeters>
          </Trackpoint>
          <Trackpoint>
            <Time>2022-07-10T11:06:07.000Z</Time>
            <Position>
              <LatitudeDegrees>42.76055873371660709381103515625</LatitudeDegrees>
              <LongitudeDegrees>-0.2235549129545688629150390625</LongitudeDegrees>
            </Position>
            <AltitudeMeters>2004.5999755859375</AltitudeMeters>
            <DistanceMeters>36882.074434769</DistanceMeters>
          </Trackpoint>
          <Trackpoint>
            <Time>2022-07-10T11:06:08.000Z</Time>
            <Position>
              <LatitudeDegrees>42.76056325994431972503662109375</LatitudeDegrees>
              <LongitudeDegrees>-0.2235579304397106170654296875</LongitudeDegrees>
            </Position>
            <AltitudeMeters>2004.5999755859375</AltitudeMeters>
            <DistanceMeters>36882.628530969</DistanceMeters>
          </Trackpoint>
          <Trackpoint>
            <Time>2022-07-10T11:06:09.000Z</Time>
            <Position>
              <LatitudeDegrees>42.7605688758194446563720703125</LatitudeDegrees>
              <LongitudeDegrees>-0.2235599420964717864990234375</LongitudeDegrees>
            </Position>
            <AltitudeMeters>2004.199951171875</AltitudeMeters>
            <DistanceMeters>36883.273033503</DistanceMeters>
          </Trackpoint>
          <Trackpoint>
            <Time>2022-07-10T11:06:13.000Z</Time>
            <Position>
              <LatitudeDegrees>42.760599553585052490234375</LatitudeDegrees>
              <LongitudeDegrees>-0.2235580980777740478515625</LongitudeDegrees>
            </Position>
            <AltitudeMeters>2003.800048828125</AltitudeMeters>
            <DistanceMeters>36886.691354571</DistanceMeters>
          </Trackpoint>
          <Trackpoint>
            <Time>2022-07-10T11:06:14.000Z</Time>
            <Position>
              <LatitudeDegrees>42.76061221025884151458740234375</LatitudeDegrees>
              <LongitudeDegrees>-0.22355784662067890167236328125</LongitudeDegrees>
            </Position>
            <AltitudeMeters>2003.5999755859375</AltitudeMeters>
            <DistanceMeters>36888.100828521</DistanceMeters>
          </Trackpoint>
          <Trackpoint>
            <Time>2022-07-10T11:06:16.000Z</Time>
            <Position>
              <LatitudeDegrees>42.76063936762511730194091796875</LatitudeDegrees>
              <LongitudeDegrees>-0.22354560904204845428466796875</LongitudeDegrees>
            </Position>
            <AltitudeMeters>2002.800048828125</AltitudeMeters>
            <DistanceMeters>36891.283868856</DistanceMeters>
          </Trackpoint>
          <Trackpoint>
            <Time>2022-07-10T11:06:19.000Z</Time>
            <Position>
              <LatitudeDegrees>42.76068245060741901397705078125</LatitudeDegrees>
              <LongitudeDegrees>-0.22355013526976108551025390625</LongitudeDegrees>
            </Position>
            <AltitudeMeters>2001.4000244140625</AltitudeMeters>
            <DistanceMeters>36896.093760315</DistanceMeters>
          </Trackpoint>
          <Trackpoint>
            <Time>2022-07-10T11:06:22.000Z</Time>
            <Position>
              <LatitudeDegrees>42.76071488857269287109375</LatitudeDegrees>
              <LongitudeDegrees>-0.2235559187829494476318359375</LongitudeDegrees>
            </Position>
            <AltitudeMeters>2000.5999755859375</AltitudeMeters>
            <DistanceMeters>36899.734660234</DistanceMeters>
          </Trackpoint>
          <Trackpoint>
            <Time>2022-07-10T11:06:23.000Z</Time>
            <Position>
              <LatitudeDegrees>42.76072905398905277252197265625</LatitudeDegrees>
              <LongitudeDegrees>-0.223559774458408355712890625</LongitudeDegrees>
            </Position>
            <AltitudeMeters>2000.199951171875</AltitudeMeters>
            <DistanceMeters>36901.341707795</DistanceMeters>
          </Trackpoint>
          <Trackpoint>
            <Time>2022-07-10T11:06:25.000Z</Time>
            <Position>
              <LatitudeDegrees>42.7607539482414722442626953125</LatitudeDegrees>
              <LongitudeDegrees>-0.223561115562915802001953125</LongitudeDegrees>
            </Position>
            <AltitudeMeters>1999.5999755859375</AltitudeMeters>
            <DistanceMeters>36904.112188796</DistanceMeters>
          </Trackpoint>
          <Trackpoint>
            <Time>2022-07-10T11:06:26.000Z</Time>
            <Position>
              <LatitudeDegrees>42.76076576672494411468505859375</LatitudeDegrees>
              <LongitudeDegrees>-0.22355600260198116302490234375</LongitudeDegrees>
            </Position>
            <AltitudeMeters>1999</AltitudeMeters>
            <DistanceMeters>36905.489256715</DistanceMeters>
          </Trackpoint>
          <Trackpoint>
            <Time>2022-07-10T11:06:29.000Z</Time>
            <Position>
              <LatitudeDegrees>42.76080071926116943359375</LatitudeDegrees>
              <LongitudeDegrees>-0.22354627959430217742919921875</LongitudeDegrees>
            </Position>
            <AltitudeMeters>1997.800048828125</AltitudeMeters>
            <DistanceMeters>36909.458826388</DistanceMeters>
          </Trackpoint>
          <Trackpoint>
            <Time>2022-07-10T11:06:31.000Z</Time>
            <Position>
              <LatitudeDegrees>42.76081614196300506591796875</LatitudeDegrees>
              <LongitudeDegrees>-0.22354661487042903900146484375</LongitudeDegrees>
            </Position>
            <AltitudeMeters>1997.5999755859375</AltitudeMeters>
            <DistanceMeters>36911.174578387</DistanceMeters>
          </Trackpoint>
          <Trackpoint>
            <Time>2022-07-10T11:06:34.000Z</Time>
            <Position>
              <LatitudeDegrees>42.76084288023412227630615234375</LatitudeDegrees>
              <LongitudeDegrees>-0.22354778833687305450439453125</LongitudeDegrees>
            </Position>
            <AltitudeMeters>1997.199951171875</AltitudeMeters>
            <DistanceMeters>36914.149385089</DistanceMeters>
          </Trackpoint>
          <Trackpoint>
            <Time>2022-07-10T11:06:35.000Z</Time>
            <Position>
              <LatitudeDegrees>42.7608515135943889617919921875</LatitudeDegrees>
              <LongitudeDegrees>-0.22354535758495330810546875</LongitudeDegrees>
            </Position>
            <AltitudeMeters>1996.800048828125</AltitudeMeters>
            <DistanceMeters>36915.127744994</DistanceMeters>
          </Trackpoint>
          <Trackpoint>
            <Time>2022-07-10T11:06:36.000Z</Time>
            <Position>
              <LatitudeDegrees>42.76086081750690937042236328125</LatitudeDegrees>
              <LongitudeDegrees>-0.22354074753820896148681640625</LongitudeDegrees>
            </Position>
            <AltitudeMeters>1996.5999755859375</AltitudeMeters>
            <DistanceMeters>36916.227758741</DistanceMeters>
          </Trackpoint>
          <Trackpoint>
            <Time>2022-07-10T11:06:40.000Z</Time>
            <Position>
              <LatitudeDegrees>42.76092200540006160736083984375</LatitudeDegrees>
              <LongitudeDegrees>-0.22357494570314884185791015625</LongitudeDegrees>
            </Position>
            <AltitudeMeters>1995.4000244140625</AltitudeMeters>
            <DistanceMeters>36923.588496385</DistanceMeters>
          </Trackpoint>
          <Trackpoint>
            <Time>2022-07-10T11:06:41.000Z</Time>
            <Position>
              <LatitudeDegrees>42.7609356679022312164306640625</LatitudeDegrees>
              <LongitudeDegrees>-0.223580896854400634765625</LongitudeDegrees>
            </Position>
            <AltitudeMeters>1995.199951171875</AltitudeMeters>
            <DistanceMeters>36925.18426628</DistanceMeters>
          </Trackpoint>
          <Trackpoint>
            <Time>2022-07-10T11:06:43.000Z</Time>
            <Position>
              <LatitudeDegrees>42.7609728835523128509521484375</LatitudeDegrees>
              <LongitudeDegrees>-0.22359657101333141326904296875</LongitudeDegrees>
            </Position>
            <AltitudeMeters>1995.199951171875</AltitudeMeters>
            <DistanceMeters>36929.520234356</DistanceMeters>
          </Trackpoint>
          <Trackpoint>
            <Time>2022-07-10T11:06:48.000Z</Time>
            <Position>
              <LatitudeDegrees>42.76105041615664958953857421875</LatitudeDegrees>
              <LongitudeDegrees>-0.22360428236424922943115234375</LongitudeDegrees>
            </Position>
            <AltitudeMeters>1995</AltitudeMeters>
            <DistanceMeters>36938.17340683</DistanceMeters>
          </Trackpoint>
          <Trackpoint>
            <Time>2022-07-10T11:06:49.000Z</Time>
            <Position>
              <LatitudeDegrees>42.761060893535614013671875</LatitudeDegrees>
              <LongitudeDegrees>-0.22359791211783885955810546875</LongitudeDegrees>
            </Position>
            <AltitudeMeters>1994.800048828125</AltitudeMeters>
            <DistanceMeters>36939.448323988</DistanceMeters>
          </Trackpoint>
          <Trackpoint>
            <Time>2022-07-10T11:06:51.000Z</Time>
            <Position>
              <LatitudeDegrees>42.7610805071890354156494140625</LatitudeDegrees>
              <LongitudeDegrees>-0.2235931344330310821533203125</LongitudeDegrees>
            </Position>
            <AltitudeMeters>1994.5999755859375</AltitudeMeters>
            <DistanceMeters>36941.664708789</DistanceMeters>
          </Trackpoint>
          <Trackpoint>
            <Time>2022-07-10T11:06:54.000Z</Time>
            <Position>
              <LatitudeDegrees>42.76110741309821605682373046875</LatitudeDegrees>
              <LongitudeDegrees>-0.2236008457839488983154296875</LongitudeDegrees>
            </Position>
            <AltitudeMeters>1994.4000244140625</AltitudeMeters>
            <DistanceMeters>36944.723329262</DistanceMeters>
          </Trackpoint>
          <Trackpoint>
            <Time>2022-07-10T11:06:56.000Z</Time>
            <Position>
              <LatitudeDegrees>42.76112769730389118194580078125</LatitudeDegrees>
              <LongitudeDegrees>-0.22360503673553466796875</LongitudeDegrees>
            </Position>
            <AltitudeMeters>1994.4000244140625</AltitudeMeters>
            <DistanceMeters>36947.005949271</DistanceMeters>
          </Trackpoint>
          <Trackpoint>
            <Time>2022-07-10T11:07:00.000Z</Time>
            <Position>
              <LatitudeDegrees>42.761173881590366363525390625</LatitudeDegrees>
              <LongitudeDegrees>-0.22362506948411464691162109375</LongitudeDegrees>
            </Position>
            <AltitudeMeters>1994.199951171875</AltitudeMeters>
            <DistanceMeters>36952.401592556</DistanceMeters>
          </Trackpoint>
          <Trackpoint>
            <Time>2022-07-10T11:07:01.000Z</Time>
            <Position>
              <LatitudeDegrees>42.7611831016838550567626953125</LatitudeDegrees>
              <LongitudeDegrees>-0.223634541034698486328125</LongitudeDegrees>
            </Position>
            <AltitudeMeters>1994.199951171875</AltitudeMeters>
            <DistanceMeters>36953.683573021</DistanceMeters>
          </Trackpoint>
          <Trackpoint>
            <Time>2022-07-10T11:07:02.000Z</Time>
            <Position>
              <LatitudeDegrees>42.76119274087250232696533203125</LatitudeDegrees>
              <LongitudeDegrees>-0.22364200092852115631103515625</LongitudeDegrees>
            </Position>
            <AltitudeMeters>1994</AltitudeMeters>
            <DistanceMeters>36954.915260011</DistanceMeters>
          </Trackpoint>
          <Trackpoint>
            <Time>2022-07-10T11:07:05.000Z</Time>
            <Position>
              <LatitudeDegrees>42.76121704839169979095458984375</LatitudeDegrees>
              <LongitudeDegrees>-0.22365893237292766571044921875</LongitudeDegrees>
            </Position>
            <AltitudeMeters>1993.4000244140625</AltitudeMeters>
            <DistanceMeters>36957.953143835</DistanceMeters>
          </Trackpoint>
          <Trackpoint>
            <Time>2022-07-10T11:07:07.000Z</Time>
            <Position>
              <LatitudeDegrees>42.76123163290321826934814453125</LatitudeDegrees>
              <LongitudeDegrees>-0.22366069257259368896484375</LongitudeDegrees>
            </Position>
            <AltitudeMeters>1993</AltitudeMeters>
            <DistanceMeters>36959.58251257</DistanceMeters>
          </Trackpoint>
          <Trackpoint>
            <Time>2022-07-10T11:07:08.000Z</Time>
            <Position>
              <LatitudeDegrees>42.7612392604351043701171875</LatitudeDegrees>
              <LongitudeDegrees>-0.223661363124847412109375</LongitudeDegrees>
            </Position>
            <AltitudeMeters>1992.800048828125</AltitudeMeters>
            <DistanceMeters>36960.437752999</DistanceMeters>
          </Trackpoint>
          <Trackpoint>
            <Time>2022-07-10T11:07:09.000Z</Time>
            <Position>
              <LatitudeDegrees>42.76124822907149791717529296875</LatitudeDegrees>
              <LongitudeDegrees>-0.2236628718674182891845703125</LongitudeDegrees>
            </Position>
            <AltitudeMeters>1992.5999755859375</AltitudeMeters>
            <DistanceMeters>36961.443421216</DistanceMeters>
          </Trackpoint>
          <Trackpoint>
            <Time>2022-07-10T11:07:11.000Z</Time>
            <Position>
              <LatitudeDegrees>42.7612687647342681884765625</LatitudeDegrees>
              <LongitudeDegrees>-0.22367854602634906768798828125</LongitudeDegrees>
            </Position>
            <AltitudeMeters>1992.199951171875</AltitudeMeters>
            <DistanceMeters>36964.063126943</DistanceMeters>
          </Trackpoint>
          <Trackpoint>
            <Time>2022-07-10T11:07:12.000Z</Time>
            <Position>
              <LatitudeDegrees>42.76127890683710575103759765625</LatitudeDegrees>
              <LongitudeDegrees>-0.223685167729854583740234375</LongitudeDegrees>
            </Position>
            <AltitudeMeters>1992.199951171875</AltitudeMeters>
            <DistanceMeters>36965.316615396</DistanceMeters>
          </Trackpoint>
          <Trackpoint>
            <Time>2022-07-10T11:07:13.000Z</Time>
            <Position>
              <LatitudeDegrees>42.761288546025753021240234375</LatitudeDegrees>
              <LongitudeDegrees>-0.2236923761665821075439453125</LongitudeDegrees>
            </Position>
            <AltitudeMeters>1992</AltitudeMeters>
            <DistanceMeters>36966.540948966</DistanceMeters>
          </Trackpoint>
          <Trackpoint>
            <Time>2022-07-10T11:07:19.000Z</Time>
            <Position>
              <LatitudeDegrees>42.76135987602174282073974609375</LatitudeDegrees>
              <LongitudeDegrees>-0.2237272448837757110595703125</LongitudeDegrees>
            </Position>
            <AltitudeMeters>1991.4000244140625</AltitudeMeters>
            <DistanceMeters>36974.976409971</DistanceMeters>
          </Trackpoint>
          <Trackpoint>
            <Time>2022-07-10T11:07:21.000Z</Time>
            <Position>
              <LatitudeDegrees>42.76138049550354480743408203125</LatitudeDegrees>
              <LongitudeDegrees>-0.2237312681972980499267578125</LongitudeDegrees>
            </Position>
            <AltitudeMeters>1991.199951171875</AltitudeMeters>
            <DistanceMeters>36977.294360679</DistanceMeters>
          </Trackpoint>
          <Trackpoint>
            <Time>2022-07-10T11:07:23.000Z</Time>
            <Position>
              <LatitudeDegrees>42.7614028751850128173828125</LatitudeDegrees>
              <LongitudeDegrees>-0.22373671643435955047607421875</LongitudeDegrees>
            </Position>
            <AltitudeMeters>1990.800048828125</AltitudeMeters>
            <DistanceMeters>36979.822857094</DistanceMeters>
          </Trackpoint>
          <Trackpoint>
            <Time>2022-07-10T11:07:24.000Z</Time>
            <Position>
              <LatitudeDegrees>42.7614104188978672027587890625</LatitudeDegrees>
              <LongitudeDegrees>-0.22374518215656280517578125</LongitudeDegrees>
            </Position>
            <AltitudeMeters>1990.800048828125</AltitudeMeters>
            <DistanceMeters>36980.910487553</DistanceMeters>
          </Trackpoint>
          <Trackpoint>
            <Time>2022-07-10T11:07:25.000Z</Time>
            <Position>
              <LatitudeDegrees>42.7614184655249118804931640625</LatitudeDegrees>
              <LongitudeDegrees>-0.223751552402973175048828125</LongitudeDegrees>
            </Position>
            <AltitudeMeters>1990.5999755859375</AltitudeMeters>
            <DistanceMeters>36981.947106623</DistanceMeters>
          </Trackpoint>
          <Trackpoint>
            <Time>2022-07-10T11:07:26.000Z</Time>
            <Position>
              <LatitudeDegrees>42.76142877526581287384033203125</LatitudeDegrees>
              <LongitudeDegrees>-0.22375666536390781402587890625</LongitudeDegrees>
            </Position>
            <AltitudeMeters>1990.199951171875</AltitudeMeters>
            <DistanceMeters>36983.164042339</DistanceMeters>
          </Trackpoint>
          <Trackpoint>
            <Time>2022-07-10T11:07:27.000Z</Time>
            <Position>
              <LatitudeDegrees>42.7614415995776653289794921875</LatitudeDegrees>
              <LongitudeDegrees>-0.2237592637538909912109375</LongitudeDegrees>
            </Position>
            <AltitudeMeters>1990</AltitudeMeters>
            <DistanceMeters>36984.605193817</DistanceMeters>
          </Trackpoint>
          <Trackpoint>
            <Time>2022-07-10T11:07:29.000Z</Time>
            <Position>
              <LatitudeDegrees>42.76147353462874889373779296875</LatitudeDegrees>
              <LongitudeDegrees>-0.22376286797225475311279296875</LongitudeDegrees>
            </Position>
            <AltitudeMeters>1989.5999755859375</AltitudeMeters>
            <DistanceMeters>36988.173443778</DistanceMeters>
          </Trackpoint>
          <Trackpoint>
            <Time>2022-07-10T11:07:31.000Z</Time>
            <Position>
              <LatitudeDegrees>42.7614982612431049346923828125</LatitudeDegrees>
              <LongitudeDegrees>-0.22376789711415767669677734375</LongitudeDegrees>
            </Position>
            <AltitudeMeters>1989</AltitudeMeters>
            <DistanceMeters>36990.956931804</DistanceMeters>
          </Trackpoint>
          <Trackpoint>
            <Time>2022-07-10T11:07:32.000Z</Time>
            <Position>
              <LatitudeDegrees>42.76151460595428943634033203125</LatitudeDegrees>
              <LongitudeDegrees>-0.22377393208444118499755859375</LongitudeDegrees>
            </Position>
            <AltitudeMeters>1988.800048828125</AltitudeMeters>
            <DistanceMeters>36992.843158227</DistanceMeters>
          </Trackpoint>
          <Trackpoint>
            <Time>2022-07-10T11:07:33.000Z</Time>
            <Position>
              <LatitudeDegrees>42.7615249156951904296875</LatitudeDegrees>
              <LongitudeDegrees>-0.22378114052116870880126953125</LongitudeDegrees>
            </Position>
            <AltitudeMeters>1988.5999755859375</AltitudeMeters>
            <DistanceMeters>36994.132163295</DistanceMeters>
          </Trackpoint>
          <Trackpoint>
            <Time>2022-07-10T11:07:35.000Z</Time>
            <Position>
              <LatitudeDegrees>42.76154846884310245513916015625</LatitudeDegrees>
              <LongitudeDegrees>-0.22380058653652667999267578125</LongitudeDegrees>
            </Position>
            <AltitudeMeters>1987.4000244140625</AltitudeMeters>
            <DistanceMeters>36997.196682752</DistanceMeters>
          </Trackpoint>
          <Trackpoint>
            <Time>2022-07-10T11:07:36.000Z</Time>
            <Position>
              <LatitudeDegrees>42.76155483908951282501220703125</LatitudeDegrees>
              <LongitudeDegrees>-0.2238100580871105194091796875</LongitudeDegrees>
            </Position>
            <AltitudeMeters>1987</AltitudeMeters>
            <DistanceMeters>36998.246287118</DistanceMeters>
          </Trackpoint>
          <Trackpoint>
            <Time>2022-07-10T11:07:38.000Z</Time>
            <Position>
              <LatitudeDegrees>42.76156472973525524139404296875</LatitudeDegrees>
              <LongitudeDegrees>-0.2238357067108154296875</LongitudeDegrees>
            </Position>
            <AltitudeMeters>1986.5999755859375</AltitudeMeters>
            <DistanceMeters>37000.612433225</DistanceMeters>
          </Trackpoint>
          <Trackpoint>
            <Time>2022-07-10T11:07:39.000Z</Time>
            <Position>
              <LatitudeDegrees>42.76156540028750896453857421875</LatitudeDegrees>
              <LongitudeDegrees>-0.2238462679088115692138671875</LongitudeDegrees>
            </Position>
            <AltitudeMeters>1986.199951171875</AltitudeMeters>
            <DistanceMeters>37001.472936722</DistanceMeters>
          </Trackpoint>
          <Trackpoint>
            <Time>2022-07-10T11:07:40.000Z</Time>
            <Position>
              <LatitudeDegrees>42.76155911386013031005859375</LatitudeDegrees>
              <LongitudeDegrees>-0.2238573320209980010986328125</LongitudeDegrees>
            </Position>
            <AltitudeMeters>1986</AltitudeMeters>
            <DistanceMeters>37002.613257294</DistanceMeters>
          </Trackpoint>
          <Trackpoint>
            <Time>2022-07-10T11:07:43.000Z</Time>
            <Position>
              <LatitudeDegrees>42.76152466423809528350830078125</LatitudeDegrees>
              <LongitudeDegrees>-0.22387753240764141082763671875</LongitudeDegrees>
            </Position>
            <AltitudeMeters>1985.5999755859375</AltitudeMeters>
            <DistanceMeters>37006.787948604</DistanceMeters>
          </Trackpoint>
          <Trackpoint>
            <Time>2022-07-10T11:07:46.000Z</Time>
            <Position>
              <LatitudeDegrees>42.7614878676831722259521484375</LatitudeDegrees>
              <LongitudeDegrees>-0.22388122044503688812255859375</LongitudeDegrees>
            </Position>
            <AltitudeMeters>1985</AltitudeMeters>
            <DistanceMeters>37010.895037938</DistanceMeters>
          </Trackpoint>
          <Trackpoint>
            <Time>2022-07-10T11:07:49.000Z</Time>
            <Position>
              <LatitudeDegrees>42.7614610455930233001708984375</LatitudeDegrees>
              <LongitudeDegrees>-0.22389136254787445068359375</LongitudeDegrees>
            </Position>
            <AltitudeMeters>1984.5999755859375</AltitudeMeters>
            <DistanceMeters>37013.991800955</DistanceMeters>
          </Trackpoint>
          <Trackpoint>
            <Time>2022-07-10T11:07:55.000Z</Time>
            <Position>
              <LatitudeDegrees>42.761399857699871063232421875</LatitudeDegrees>
              <LongitudeDegrees>-0.22390888072550296783447265625</LongitudeDegrees>
            </Position>
            <AltitudeMeters>1984.4000244140625</AltitudeMeters>
            <DistanceMeters>37020.950196596</DistanceMeters>
          </Trackpoint>
          <Trackpoint>
            <Time>2022-07-10T11:07:57.000Z</Time>
            <Position>
              <LatitudeDegrees>42.761377058923244476318359375</LatitudeDegrees>
              <LongitudeDegrees>-0.22393804974853992462158203125</LongitudeDegrees>
            </Position>
            <AltitudeMeters>1984.199951171875</AltitudeMeters>
            <DistanceMeters>37024.431340458</DistanceMeters>
          </Trackpoint>
          <Trackpoint>
            <Time>2022-07-10T11:07:59.000Z</Time>
            <Position>
              <LatitudeDegrees>42.76135719381272792816162109375</LatitudeDegrees>
              <LongitudeDegrees>-0.22395783104002475738525390625</LongitudeDegrees>
            </Position>
            <AltitudeMeters>1983.5999755859375</AltitudeMeters>
            <DistanceMeters>37027.169033547</DistanceMeters>
          </Trackpoint>
          <Trackpoint>
            <Time>2022-07-10T11:08:04.000Z</Time>
            <Position>
              <LatitudeDegrees>42.76130271144211292266845703125</LatitudeDegrees>
              <LongitudeDegrees>-0.223983563482761383056640625</LongitudeDegrees>
            </Position>
            <AltitudeMeters>1983</AltitudeMeters>
            <DistanceMeters>37033.586679428</DistanceMeters>
          </Trackpoint>
          <Trackpoint>
            <Time>2022-07-10T11:08:06.000Z</Time>
            <Position>
              <LatitudeDegrees>42.761280499398708343505859375</LatitudeDegrees>
              <LongitudeDegrees>-0.22399622015655040740966796875</LongitudeDegrees>
            </Position>
            <AltitudeMeters>1982.4000244140625</AltitudeMeters>
            <DistanceMeters>37036.26771297</DistanceMeters>
          </Trackpoint>
          <Trackpoint>
            <Time>2022-07-10T11:08:07.000Z</Time>
            <Position>
              <LatitudeDegrees>42.76126817800104618072509765625</LatitudeDegrees>
              <LongitudeDegrees>-0.22400401532649993896484375</LongitudeDegrees>
            </Position>
            <AltitudeMeters>1982.199951171875</AltitudeMeters>
            <DistanceMeters>37037.776215294</DistanceMeters>
          </Trackpoint>
          <Trackpoint>
            <Time>2022-07-10T11:08:08.000Z</Time>
            <Position>
              <LatitudeDegrees>42.76125577278435230255126953125</LatitudeDegrees>
              <LongitudeDegrees>-0.2240159176290035247802734375</LongitudeDegrees>
            </Position>
            <AltitudeMeters>1982.199951171875</AltitudeMeters>
            <DistanceMeters>37039.465447119</DistanceMeters>
          </Trackpoint>
          <Trackpoint>
            <Time>2022-07-10T11:08:10.000Z</Time>
            <Position>
              <LatitudeDegrees>42.7612338960170745849609375</LatitudeDegrees>
              <LongitudeDegrees>-0.22403276525437831878662109375</LongitudeDegrees>
            </Position>
            <AltitudeMeters>1982</AltitudeMeters>
            <DistanceMeters>37042.265108947</DistanceMeters>
          </Trackpoint>
          <Trackpoint>
            <Time>2022-07-10T11:08:12.000Z</Time>
            <Position>
              <LatitudeDegrees>42.76121436618268489837646484375</LatitudeDegrees>
              <LongitudeDegrees>-0.22404718212783336639404296875</LongitudeDegrees>
            </Position>
            <AltitudeMeters>1981.5999755859375</AltitudeMeters>
            <DistanceMeters>37044.739455695</DistanceMeters>
          </Trackpoint>
          <Trackpoint>
            <Time>2022-07-10T11:08:14.000Z</Time>
            <Position>
              <LatitudeDegrees>42.761193327605724334716796875</LatitudeDegrees>
              <LongitudeDegrees>-0.22406629286706447601318359375</LongitudeDegrees>
            </Position>
            <AltitudeMeters>1981.4000244140625</AltitudeMeters>
            <DistanceMeters>37047.555198424</DistanceMeters>
          </Trackpoint>
          <Trackpoint>
            <Time>2022-07-10T11:08:16.000Z</Time>
            <Position>
              <LatitudeDegrees>42.76117178611457347869873046875</LatitudeDegrees>
              <LongitudeDegrees>-0.2240849845111370086669921875</LongitudeDegrees>
            </Position>
            <AltitudeMeters>1980.5999755859375</AltitudeMeters>
            <DistanceMeters>37050.398069933</DistanceMeters>
          </Trackpoint>
          <Trackpoint>
            <Time>2022-07-10T11:08:17.000Z</Time>
            <Position>
              <LatitudeDegrees>42.761163152754306793212890625</LatitudeDegrees>
              <LongitudeDegrees>-0.2240937016904354095458984375</LongitudeDegrees>
            </Position>
            <AltitudeMeters>1980.4000244140625</AltitudeMeters>
            <DistanceMeters>37051.588751252</DistanceMeters>
          </Trackpoint>
          <Trackpoint>
            <Time>2022-07-10T11:08:18.000Z</Time>
            <Position>
              <LatitudeDegrees>42.761157453060150146484375</LatitudeDegrees>
              <LongitudeDegrees>-0.2241047658026218414306640625</LongitudeDegrees>
            </Position>
            <AltitudeMeters>1979.800048828125</AltitudeMeters>
            <DistanceMeters>37052.692861898</DistanceMeters>
          </Trackpoint>
          <Trackpoint>
            <Time>2022-07-10T11:08:20.000Z</Time>
            <Position>
              <LatitudeDegrees>42.761146724224090576171875</LatitudeDegrees>
              <LongitudeDegrees>-0.2241339348256587982177734375</LongitudeDegrees>
            </Position>
            <AltitudeMeters>1979.199951171875</AltitudeMeters>
            <DistanceMeters>37055.358695757</DistanceMeters>
          </Trackpoint>
          <Trackpoint>
            <Time>2022-07-10T11:08:21.000Z</Time>
            <Position>
              <LatitudeDegrees>42.7611408568918704986572265625</LatitudeDegrees>
              <LongitudeDegrees>-0.224153213202953338623046875</LongitudeDegrees>
            </Position>
            <AltitudeMeters>1979</AltitudeMeters>
            <DistanceMeters>37057.063889181</DistanceMeters>
          </Trackpoint>
          <Trackpoint>
            <Time>2022-07-10T11:08:22.000Z</Time>
            <Position>
              <LatitudeDegrees>42.76113406755030155181884765625</LatitudeDegrees>
              <LongitudeDegrees>-0.22417165338993072509765625</LongitudeDegrees>
            </Position>
            <AltitudeMeters>1978.800048828125</AltitudeMeters>
            <DistanceMeters>37058.74776685</DistanceMeters>
          </Trackpoint>
          <Trackpoint>
            <Time>2022-07-10T11:08:23.000Z</Time>
            <Position>
              <LatitudeDegrees>42.76112685911357402801513671875</LatitudeDegrees>
              <LongitudeDegrees>-0.22418372333049774169921875</LongitudeDegrees>
            </Position>
            <AltitudeMeters>1978.5999755859375</AltitudeMeters>
            <DistanceMeters>37060.01558135</DistanceMeters>
          </Trackpoint>
          <Trackpoint>
            <Time>2022-07-10T11:08:25.000Z</Time>
            <Position>
              <LatitudeDegrees>42.76111680082976818084716796875</LatitudeDegrees>
              <LongitudeDegrees>-0.224214904010295867919921875</LongitudeDegrees>
            </Position>
            <AltitudeMeters>1978</AltitudeMeters>
            <DistanceMeters>37062.799069376</DistanceMeters>
          </Trackpoint>
          <Trackpoint>
            <Time>2022-07-10T11:08:27.000Z</Time>
            <Position>
              <LatitudeDegrees>42.7611120231449604034423828125</LatitudeDegrees>
              <LongitudeDegrees>-0.224256478250026702880859375</LongitudeDegrees>
            </Position>
            <AltitudeMeters>1977.5999755859375</AltitudeMeters>
            <DistanceMeters>37066.238458877</DistanceMeters>
          </Trackpoint>
          <Trackpoint>
            <Time>2022-07-10T11:08:30.000Z</Time>
            <Position>
              <LatitudeDegrees>42.7610888890922069549560546875</LatitudeDegrees>
              <LongitudeDegrees>-0.2243096195161342620849609375</LongitudeDegrees>
            </Position>
            <AltitudeMeters>1977.199951171875</AltitudeMeters>
            <DistanceMeters>37071.287409838</DistanceMeters>
          </Trackpoint>
          <Trackpoint>
            <Time>2022-07-10T11:08:32.000Z</Time>
            <Position>
              <LatitudeDegrees>42.76106164790689945220947265625</LatitudeDegrees>
              <LongitudeDegrees>-0.2243418060243129730224609375</LongitudeDegrees>
            </Position>
            <AltitudeMeters>1977</AltitudeMeters>
            <DistanceMeters>37075.30109348</DistanceMeters>
          </Trackpoint>
          <Trackpoint>
            <Time>2022-07-10T11:08:34.000Z</Time>
            <Position>
              <LatitudeDegrees>42.7610349096357822418212890625</LatitudeDegrees>
              <LongitudeDegrees>-0.22436703555285930633544921875</LongitudeDegrees>
            </Position>
            <AltitudeMeters>1977</AltitudeMeters>
            <DistanceMeters>37078.923344309</DistanceMeters>
          </Trackpoint>
          <Trackpoint>
            <Time>2022-07-10T11:08:35.000Z</Time>
            <Position>
              <LatitudeDegrees>42.76102309115231037139892578125</LatitudeDegrees>
              <LongitudeDegrees>-0.22438296116888523101806640625</LongitudeDegrees>
            </Position>
            <AltitudeMeters>1976.199951171875</AltitudeMeters>
            <DistanceMeters>37080.775755994</DistanceMeters>
          </Trackpoint>
          <Trackpoint>
            <Time>2022-07-10T11:08:37.000Z</Time>
            <Position>
              <LatitudeDegrees>42.76100632734596729278564453125</LatitudeDegrees>
              <LongitudeDegrees>-0.22440969944000244140625</LongitudeDegrees>
            </Position>
            <AltitudeMeters>1975</AltitudeMeters>
            <DistanceMeters>37083.648644761</DistanceMeters>
          </Trackpoint>
          <Trackpoint>
            <Time>2022-07-10T11:08:38.000Z</Time>
            <Position>
              <LatitudeDegrees>42.7609983645379543304443359375</LatitudeDegrees>
              <LongitudeDegrees>-0.2244199253618717193603515625</LongitudeDegrees>
            </Position>
            <AltitudeMeters>1974.4000244140625</AltitudeMeters>
            <DistanceMeters>37084.865580477</DistanceMeters>
          </Trackpoint>
          <Trackpoint>
            <Time>2022-07-10T11:08:39.000Z</Time>
            <Position>
              <LatitudeDegrees>42.76098956353962421417236328125</LatitudeDegrees>
              <LongitudeDegrees>-0.2244316600263118743896484375</LongitudeDegrees>
            </Position>
            <AltitudeMeters>1974</AltitudeMeters>
            <DistanceMeters>37086.236075242</DistanceMeters>
          </Trackpoint>
          <Trackpoint>
            <Time>2022-07-10T11:08:45.000Z</Time>
            <Position>
              <LatitudeDegrees>42.76093256659805774688720703125</LatitudeDegrees>
              <LongitudeDegrees>-0.22448413074016571044921875</LongitudeDegrees>
            </Position>
            <AltitudeMeters>1972.800048828125</AltitudeMeters>
            <DistanceMeters>37093.893837084</DistanceMeters>
          </Trackpoint>
          <Trackpoint>
            <Time>2022-07-10T11:08:47.000Z</Time>
            <Position>
              <LatitudeDegrees>42.7609168924391269683837890625</LatitudeDegrees>
              <LongitudeDegrees>-0.22451053373515605926513671875</LongitudeDegrees>
            </Position>
            <AltitudeMeters>1972.199951171875</AltitudeMeters>
            <DistanceMeters>37096.667575559</DistanceMeters>
          </Trackpoint>
          <Trackpoint>
            <Time>2022-07-10T11:08:49.000Z</Time>
            <Position>
              <LatitudeDegrees>42.76089803315699100494384765625</LatitudeDegrees>
              <LongitudeDegrees>-0.22454624064266681671142578125</LongitudeDegrees>
            </Position>
            <AltitudeMeters>1971.4000244140625</AltitudeMeters>
            <DistanceMeters>37100.262299386</DistanceMeters>
          </Trackpoint>
          <Trackpoint>
            <Time>2022-07-10T11:08:52.000Z</Time>
            <Position>
              <LatitudeDegrees>42.76086710393428802490234375</LatitudeDegrees>
              <LongitudeDegrees>-0.2245902456343173980712890625</LongitudeDegrees>
            </Position>
            <AltitudeMeters>1970.4000244140625</AltitudeMeters>
            <DistanceMeters>37105.240103095</DistanceMeters>
          </Trackpoint>
          <Trackpoint>
            <Time>2022-07-10T11:08:53.000Z</Time>
            <Position>
              <LatitudeDegrees>42.76085763238370418548583984375</LatitudeDegrees>
              <LongitudeDegrees>-0.22460491396486759185791015625</LongitudeDegrees>
            </Position>
            <AltitudeMeters>1970.199951171875</AltitudeMeters>
            <DistanceMeters>37106.83587299</DistanceMeters>
          </Trackpoint>
          <Trackpoint>
            <Time>2022-07-10T11:08:57.000Z</Time>
            <Position>
              <LatitudeDegrees>42.76080809533596038818359375</LatitudeDegrees>
              <LongitudeDegrees>-0.22466652095317840576171875</LongitudeDegrees>
            </Position>
            <AltitudeMeters>1969.4000244140625</AltitudeMeters>
            <DistanceMeters>37114.302578553</DistanceMeters>
          </Trackpoint>
          <Trackpoint>
            <Time>2022-07-10T11:08:58.000Z</Time>
            <Position>
              <LatitudeDegrees>42.76079242117702960968017578125</LatitudeDegrees>
              <LongitudeDegrees>-0.22468051873147487640380859375</LongitudeDegrees>
            </Position>
            <AltitudeMeters>1969.4000244140625</AltitudeMeters>
            <DistanceMeters>37116.388842401</DistanceMeters>
          </Trackpoint>
          <Trackpoint>
            <Time>2022-07-10T11:08:59.000Z</Time>
            <Position>
              <LatitudeDegrees>42.7607767470180988311767578125</LatitudeDegrees>
              <LongitudeDegrees>-0.2246940135955810546875</LongitudeDegrees>
            </Position>
            <AltitudeMeters>1969.199951171875</AltitudeMeters>
            <DistanceMeters>37118.453351079</DistanceMeters>
          </Trackpoint>
          <Trackpoint>
            <Time>2022-07-10T11:09:00.000Z</Time>
            <Position>
              <LatitudeDegrees>42.76076425798237323760986328125</LatitudeDegrees>
              <LongitudeDegrees>-0.22470549680292606353759765625</LongitudeDegrees>
            </Position>
            <AltitudeMeters>1969.199951171875</AltitudeMeters>
            <DistanceMeters>37120.131857514</DistanceMeters>
          </Trackpoint>
          <Trackpoint>
            <Time>2022-07-10T11:09:03.000Z</Time>
            <Position>
              <LatitudeDegrees>42.76073894463479518890380859375</LatitudeDegrees>
              <LongitudeDegrees>-0.2247905731201171875</LongitudeDegrees>
            </Position>
            <AltitudeMeters>1970.199951171875</AltitudeMeters>
            <DistanceMeters>37127.633553082</DistanceMeters>
          </Trackpoint>
          <Trackpoint>
            <Time>2022-07-10T11:09:05.000Z</Time>
            <Position>
              <LatitudeDegrees>42.760731317102909088134765625</LatitudeDegrees>
              <LongitudeDegrees>-0.22483575157821178436279296875</LongitudeDegrees>
            </Position>
            <AltitudeMeters>1970</AltitudeMeters>
            <DistanceMeters>37131.420340823</DistanceMeters>
          </Trackpoint>
          <Trackpoint>
            <Time>2022-07-10T11:09:06.000Z</Time>
            <Position>
              <LatitudeDegrees>42.76072670705616474151611328125</LatitudeDegrees>
              <LongitudeDegrees>-0.22484715096652507781982421875</LongitudeDegrees>
            </Position>
            <AltitudeMeters>1970</AltitudeMeters>
            <DistanceMeters>37132.47851353</DistanceMeters>
          </Trackpoint>
          <Trackpoint>
            <Time>2022-07-10T11:09:07.000Z</Time>
            <Position>
              <LatitudeDegrees>42.76072000153362751007080078125</LatitudeDegrees>
              <LongitudeDegrees>-0.22486140020191669464111328125</LongitudeDegrees>
            </Position>
            <AltitudeMeters>1970</AltitudeMeters>
            <DistanceMeters>37133.862123376</DistanceMeters>
          </Trackpoint>
          <Trackpoint>
            <Time>2022-07-10T11:09:13.000Z</Time>
            <Position>
              <LatitudeDegrees>42.7606974542140960693359375</LatitudeDegrees>
              <LongitudeDegrees>-0.22495980374515056610107421875</LongitudeDegrees>
            </Position>
            <AltitudeMeters>1969</AltitudeMeters>
            <DistanceMeters>37142.286336738</DistanceMeters>
          </Trackpoint>
          <Trackpoint>
            <Time>2022-07-10T11:09:14.000Z</Time>
            <Position>
              <LatitudeDegrees>42.76069812476634979248046875</LatitudeDegrees>
              <LongitudeDegrees>-0.22497824393212795257568359375</LongitudeDegrees>
            </Position>
            <AltitudeMeters>1968.800048828125</AltitudeMeters>
            <DistanceMeters>37143.794839063</DistanceMeters>
          </Trackpoint>
          <Trackpoint>
            <Time>2022-07-10T11:09:15.000Z</Time>
            <Position>
              <LatitudeDegrees>42.7607013098895549774169921875</LatitudeDegrees>
              <LongitudeDegrees>-0.22499064914882183074951171875</LongitudeDegrees>
            </Position>
            <AltitudeMeters>1968.199951171875</AltitudeMeters>
            <DistanceMeters>37144.869943609</DistanceMeters>
          </Trackpoint>
          <Trackpoint>
            <Time>2022-07-10T11:09:16.000Z</Time>
            <Position>
              <LatitudeDegrees>42.76070726104080677032470703125</LatitudeDegrees>
              <LongitudeDegrees>-0.22499567829072475433349609375</LongitudeDegrees>
            </Position>
            <AltitudeMeters>1967.5999755859375</AltitudeMeters>
            <DistanceMeters>37145.65355397</DistanceMeters>
          </Trackpoint>
          <Trackpoint>
            <Time>2022-07-10T11:09:18.000Z</Time>
            <Position>
              <LatitudeDegrees>42.7607207559049129486083984375</LatitudeDegrees>
              <LongitudeDegrees>-0.22500355727970600128173828125</LongitudeDegrees>
            </Position>
            <AltitudeMeters>1967</AltitudeMeters>
            <DistanceMeters>37147.288455383</DistanceMeters>
          </Trackpoint>
          <Trackpoint>
            <Time>2022-07-10T11:09:19.000Z</Time>
            <Position>
              <LatitudeDegrees>42.7607288025319576263427734375</LatitudeDegrees>
              <LongitudeDegrees>-0.2250066585838794708251953125</LongitudeDegrees>
            </Position>
            <AltitudeMeters>1966.800048828125</AltitudeMeters>
            <DistanceMeters>37148.214661225</DistanceMeters>
          </Trackpoint>
          <Trackpoint>
            <Time>2022-07-10T11:09:21.000Z</Time>
            <Position>
              <LatitudeDegrees>42.76074950583279132843017578125</LatitudeDegrees>
              <LongitudeDegrees>-0.22500716149806976318359375</LongitudeDegrees>
            </Position>
            <AltitudeMeters>1966.199951171875</AltitudeMeters>
            <DistanceMeters>37150.518936588</DistanceMeters>
          </Trackpoint>
          <Trackpoint>
            <Time>2022-07-10T11:09:25.000Z</Time>
            <Position>
              <LatitudeDegrees>42.76077548973262310028076171875</LatitudeDegrees>
              <LongitudeDegrees>-0.22499685175716876983642578125</LongitudeDegrees>
            </Position>
            <AltitudeMeters>1965.800048828125</AltitudeMeters>
            <DistanceMeters>37153.531448302</DistanceMeters>
          </Trackpoint>
          <Trackpoint>
            <Time>2022-07-10T11:09:26.000Z</Time>
            <Position>
              <LatitudeDegrees>42.76077917777001857757568359375</LatitudeDegrees>
              <LongitudeDegrees>-0.22499819286167621612548828125</LongitudeDegrees>
            </Position>
            <AltitudeMeters>1965.5999755859375</AltitudeMeters>
            <DistanceMeters>37153.956420688</DistanceMeters>
          </Trackpoint>
          <Trackpoint>
            <Time>2022-07-10T11:09:27.000Z</Time>
            <Position>
              <LatitudeDegrees>42.76078018359839916229248046875</LatitudeDegrees>
              <LongitudeDegrees>-0.22499911487102508544921875</LongitudeDegrees>
            </Position>
            <AltitudeMeters>1965.4000244140625</AltitudeMeters>
            <DistanceMeters>37154.146474117</DistanceMeters>
          </Trackpoint>
          <Trackpoint>
            <Time>2022-07-10T11:09:29.000Z</Time>
            <Position>
              <LatitudeDegrees>42.76077934540808200836181640625</LatitudeDegrees>
              <LongitudeDegrees>-0.22500355727970600128173828125</LongitudeDegrees>
            </Position>
            <AltitudeMeters>1964</AltitudeMeters>
            <DistanceMeters>37154.526580974</DistanceMeters>
          </Trackpoint>
          <Trackpoint>
            <Time>2022-07-10T11:09:31.000Z</Time>
            <Position>
              <LatitudeDegrees>42.7607760764658451080322265625</LatitudeDegrees>
              <LongitudeDegrees>-0.2250172197818756103515625</LongitudeDegrees>
            </Position>
            <AltitudeMeters>1963.199951171875</AltitudeMeters>
            <DistanceMeters>37155.698148991</DistanceMeters>
          </Trackpoint>
          <Trackpoint>
            <Time>2022-07-10T11:09:32.000Z</Time>
            <Position>
              <LatitudeDegrees>42.76077548973262310028076171875</LatitudeDegrees>
              <LongitudeDegrees>-0.2250271104276180267333984375</LongitudeDegrees>
            </Position>
            <AltitudeMeters>1963</AltitudeMeters>
            <DistanceMeters>37156.504477401</DistanceMeters>
          </Trackpoint>
          <Trackpoint>
            <Time>2022-07-10T11:09:38.000Z</Time>
            <Position>
              <LatitudeDegrees>42.760758809745311737060546875</LatitudeDegrees>
              <LongitudeDegrees>-0.22507346235215663909912109375</LongitudeDegrees>
            </Position>
            <AltitudeMeters>1962</AltitudeMeters>
            <DistanceMeters>37160.722207904</DistanceMeters>
          </Trackpoint>
          <Trackpoint>
            <Time>2022-07-10T11:09:39.000Z</Time>
            <Position>
              <LatitudeDegrees>42.760754786431789398193359375</LatitudeDegrees>
              <LongitudeDegrees>-0.2250847779214382171630859375</LongitudeDegrees>
            </Position>
            <AltitudeMeters>1961.5999755859375</AltitudeMeters>
            <DistanceMeters>37161.754462243</DistanceMeters>
          </Trackpoint>
          <Trackpoint>
            <Time>2022-07-10T11:09:40.000Z</Time>
            <Position>
              <LatitudeDegrees>42.76075252331793308258056640625</LatitudeDegrees>
              <LongitudeDegrees>-0.22509676404297351837158203125</LongitudeDegrees>
            </Position>
            <AltitudeMeters>1961.4000244140625</AltitudeMeters>
            <DistanceMeters>37162.769069908</DistanceMeters>
          </Trackpoint>
          <Trackpoint>
            <Time>2022-07-10T11:09:42.000Z</Time>
            <Position>
              <LatitudeDegrees>42.76075403206050395965576171875</LatitudeDegrees>
              <LongitudeDegrees>-0.22510715760290622711181640625</LongitudeDegrees>
            </Position>
            <AltitudeMeters>1960.199951171875</AltitudeMeters>
            <DistanceMeters>37163.640004131</DistanceMeters>
          </Trackpoint>
          <Trackpoint>
            <Time>2022-07-10T11:09:43.000Z</Time>
            <Position>
              <LatitudeDegrees>42.7607596479356288909912109375</LatitudeDegrees>
              <LongitudeDegrees>-0.22510908544063568115234375</LongitudeDegrees>
            </Position>
            <AltitudeMeters>1959.800048828125</AltitudeMeters>
            <DistanceMeters>37164.291474463</DistanceMeters>
          </Trackpoint>
          <Trackpoint>
            <Time>2022-07-10T11:09:45.000Z</Time>
            <Position>
              <LatitudeDegrees>42.76077414862811565399169921875</LatitudeDegrees>
              <LongitudeDegrees>-0.22510648705065250396728515625</LongitudeDegrees>
            </Position>
            <AltitudeMeters>1959.4000244140625</AltitudeMeters>
            <DistanceMeters>37165.91529167</DistanceMeters>
          </Trackpoint>
          <Trackpoint>
            <Time>2022-07-10T11:09:47.000Z</Time>
            <Position>
              <LatitudeDegrees>42.7607881464064121246337890625</LatitudeDegrees>
              <LongitudeDegrees>-0.22510615177452564239501953125</LongitudeDegrees>
            </Position>
            <AltitudeMeters>1959.199951171875</AltitudeMeters>
            <DistanceMeters>37167.47094603</DistanceMeters>
          </Trackpoint>
          <Trackpoint>
            <Time>2022-07-10T11:09:48.000Z</Time>
            <Position>
              <LatitudeDegrees>42.76079309172928333282470703125</LatitudeDegrees>
              <LongitudeDegrees>-0.22510916925966739654541015625</LongitudeDegrees>
            </Position>
            <AltitudeMeters>1959</AltitudeMeters>
            <DistanceMeters>37168.071947742</DistanceMeters>
          </Trackpoint>
          <Trackpoint>
            <Time>2022-07-10T11:09:50.000Z</Time>
            <Position>
              <LatitudeDegrees>42.7608049102127552032470703125</LatitudeDegrees>
              <LongitudeDegrees>-0.22510564886033535003662109375</LongitudeDegrees>
            </Position>
            <AltitudeMeters>1958</AltitudeMeters>
            <DistanceMeters>37169.415828424</DistanceMeters>
          </Trackpoint>
          <Trackpoint>
            <Time>2022-07-10T11:09:51.000Z</Time>
            <Position>
              <LatitudeDegrees>42.7608112804591655731201171875</LatitudeDegrees>
              <LongitudeDegrees>-0.22510237991809844970703125</LongitudeDegrees>
            </Position>
            <AltitudeMeters>1957.5999755859375</AltitudeMeters>
            <DistanceMeters>37170.170079587</DistanceMeters>
          </Trackpoint>
          <Trackpoint>
            <Time>2022-07-10T11:09:55.000Z</Time>
            <Position>
              <LatitudeDegrees>42.76082393713295459747314453125</LatitudeDegrees>
              <LongitudeDegrees>-0.22511553950607776641845703125</LongitudeDegrees>
            </Position>
            <AltitudeMeters>1956.800048828125</AltitudeMeters>
            <DistanceMeters>37171.942779957</DistanceMeters>
          </Trackpoint>
          <Trackpoint>
            <Time>2022-07-10T11:09:56.000Z</Time>
            <Position>
              <LatitudeDegrees>42.7608206681907176971435546875</LatitudeDegrees>
              <LongitudeDegrees>-0.22512383759021759033203125</LongitudeDegrees>
            </Position>
            <AltitudeMeters>1956.800048828125</AltitudeMeters>
            <DistanceMeters>37172.714780634</DistanceMeters>
          </Trackpoint>
          <Trackpoint>
            <Time>2022-07-10T11:09:58.000Z</Time>
            <Position>
              <LatitudeDegrees>42.760810442268848419189453125</LatitudeDegrees>
              <LongitudeDegrees>-0.22514722310006618499755859375</LongitudeDegrees>
            </Position>
            <AltitudeMeters>1956</AltitudeMeters>
            <DistanceMeters>37174.939298984</DistanceMeters>
          </Trackpoint>
          <Trackpoint>
            <Time>2022-07-10T11:09:59.000Z</Time>
            <Position>
              <LatitudeDegrees>42.76080851443111896514892578125</LatitudeDegrees>
              <LongitudeDegrees>-0.22515459917485713958740234375</LongitudeDegrees>
            </Position>
            <AltitudeMeters>1955.4000244140625</AltitudeMeters>
            <DistanceMeters>37175.576757563</DistanceMeters>
          </Trackpoint>
          <Trackpoint>
            <Time>2022-07-10T11:10:00.000Z</Time>
            <Position>
              <LatitudeDegrees>42.7608049102127552032470703125</LatitudeDegrees>
              <LongitudeDegrees>-0.22516348399221897125244140625</LongitudeDegrees>
            </Position>
            <AltitudeMeters>1955.199951171875</AltitudeMeters>
            <DistanceMeters>37176.394208269</DistanceMeters>
          </Trackpoint>
          <Trackpoint>
            <Time>2022-07-10T11:10:02.000Z</Time>
            <Position>
              <LatitudeDegrees>42.760799713432788848876953125</LatitudeDegrees>
              <LongitudeDegrees>-0.22519483231008052825927734375</LongitudeDegrees>
            </Position>
            <AltitudeMeters>1954.800048828125</AltitudeMeters>
            <DistanceMeters>37179.020798912</DistanceMeters>
          </Trackpoint>
          <Trackpoint>
            <Time>2022-07-10T11:10:03.000Z</Time>
            <Position>
              <LatitudeDegrees>42.76080566458404064178466796875</LatitudeDegrees>
              <LongitudeDegrees>-0.22521327249705791473388671875</LongitudeDegrees>
            </Position>
            <AltitudeMeters>1954.5999755859375</AltitudeMeters>
            <DistanceMeters>37180.663964411</DistanceMeters>
          </Trackpoint>
          <Trackpoint>
            <Time>2022-07-10T11:10:04.000Z</Time>
            <Position>
              <LatitudeDegrees>42.76080675423145294189453125</LatitudeDegrees>
              <LongitudeDegrees>-0.2252195589244365692138671875</LongitudeDegrees>
            </Position>
            <AltitudeMeters>1954</AltitudeMeters>
            <DistanceMeters>37181.193050764</DistanceMeters>
          </Trackpoint>
          <Trackpoint>
            <Time>2022-07-10T11:10:06.000Z</Time>
            <Position>
              <LatitudeDegrees>42.76081144809722900390625</LatitudeDegrees>
              <LongitudeDegrees>-0.22522576153278350830078125</LongitudeDegrees>
            </Position>
            <AltitudeMeters>1953.199951171875</AltitudeMeters>
            <DistanceMeters>37181.929124529</DistanceMeters>
          </Trackpoint>
          <Trackpoint>
            <Time>2022-07-10T11:10:07.000Z</Time>
            <Position>
              <LatitudeDegrees>42.7608159743249416351318359375</LatitudeDegrees>
              <LongitudeDegrees>-0.22522098384797573089599609375</LongitudeDegrees>
            </Position>
            <AltitudeMeters>1953.199951171875</AltitudeMeters>
            <DistanceMeters>37182.566583108</DistanceMeters>
          </Trackpoint>
          <Trackpoint>
            <Time>2022-07-10T11:10:10.000Z</Time>
            <Position>
              <LatitudeDegrees>42.76085126213729381561279296875</LatitudeDegrees>
              <LongitudeDegrees>-0.22520220838487148284912109375</LongitudeDegrees>
            </Position>
            <AltitudeMeters>1952.800048828125</AltitudeMeters>
            <DistanceMeters>37186.784313611</DistanceMeters>
          </Trackpoint>
          <Trackpoint>
            <Time>2022-07-10T11:10:11.000Z</Time>
            <Position>
              <LatitudeDegrees>42.7608612366020679473876953125</LatitudeDegrees>
              <LongitudeDegrees>-0.22519768215715885162353515625</LongitudeDegrees>
            </Position>
            <AltitudeMeters>1952.5999755859375</AltitudeMeters>
            <DistanceMeters>37187.948148421</DistanceMeters>
          </Trackpoint>
          <Trackpoint>
            <Time>2022-07-10T11:10:14.000Z</Time>
            <Position>
              <LatitudeDegrees>42.7609158866107463836669921875</LatitudeDegrees>
              <LongitudeDegrees>-0.22518527694046497344970703125</LongitudeDegrees>
            </Position>
            <AltitudeMeters>1951.800048828125</AltitudeMeters>
            <DistanceMeters>37194.115374863</DistanceMeters>
          </Trackpoint>
          <Trackpoint>
            <Time>2022-07-10T11:10:15.000Z</Time>
            <Position>
              <LatitudeDegrees>42.76092477142810821533203125</LatitudeDegrees>
              <LongitudeDegrees>-0.22518259473145008087158203125</LongitudeDegrees>
            </Position>
            <AltitudeMeters>1951.5999755859375</AltitudeMeters>
            <DistanceMeters>37195.129982528</DistanceMeters>
          </Trackpoint>
          <Trackpoint>
            <Time>2022-07-10T11:10:19.000Z</Time>
            <Position>
              <LatitudeDegrees>42.76095452718436717987060546875</LatitudeDegrees>
              <LongitudeDegrees>-0.225178487598896026611328125</LongitudeDegrees>
            </Position>
            <AltitudeMeters>1950.800048828125</AltitudeMeters>
            <DistanceMeters>37198.458631473</DistanceMeters>
          </Trackpoint>
          <Trackpoint>
            <Time>2022-07-10T11:10:22.000Z</Time>
            <Position>
              <LatitudeDegrees>42.76097841560840606689453125</LatitudeDegrees>
              <LongitudeDegrees>-0.22516272962093353271484375</LongitudeDegrees>
            </Position>
            <AltitudeMeters>1950.800048828125</AltitudeMeters>
            <DistanceMeters>37201.412113121</DistanceMeters>
          </Trackpoint>
          <Trackpoint>
            <Time>2022-07-10T11:10:23.000Z</Time>
            <Position>
              <LatitudeDegrees>42.76098872534930706024169921875</LatitudeDegrees>
              <LongitudeDegrees>-0.2251689322292804718017578125</LongitudeDegrees>
            </Position>
            <AltitudeMeters>1950.5999755859375</AltitudeMeters>
            <DistanceMeters>37202.665601574</DistanceMeters>
          </Trackpoint>
          <Trackpoint>
            <Time>2022-07-10T11:10:25.000Z</Time>
            <Position>
              <LatitudeDegrees>42.76100951246917247772216796875</LatitudeDegrees>
              <LongitudeDegrees>-0.22518686950206756591796875</LongitudeDegrees>
            </Position>
            <AltitudeMeters>1950</AltitudeMeters>
            <DistanceMeters>37205.404943379</DistanceMeters>
          </Trackpoint>
          <Trackpoint>
            <Time>2022-07-10T11:10:28.000Z</Time>
            <Position>
              <LatitudeDegrees>42.76106365956366062164306640625</LatitudeDegrees>
              <LongitudeDegrees>-0.2252054773271083831787109375</LongitudeDegrees>
            </Position>
            <AltitudeMeters>1949.4000244140625</AltitudeMeters>
            <DistanceMeters>37211.620300732</DistanceMeters>
          </Trackpoint>
          <Trackpoint>
            <Time>2022-07-10T11:10:32.000Z</Time>
            <Position>
              <LatitudeDegrees>42.76110171340405941009521484375</LatitudeDegrees>
              <LongitudeDegrees>-0.22519835270941257476806640625</LongitudeDegrees>
            </Position>
            <AltitudeMeters>1949</AltitudeMeters>
            <DistanceMeters>37215.896502879</DistanceMeters>
          </Trackpoint>
          <Trackpoint>
            <Time>2022-07-10T11:10:34.000Z</Time>
            <Position>
              <LatitudeDegrees>42.76111797429621219635009765625</LatitudeDegrees>
              <LongitudeDegrees>-0.225199274718761444091796875</LongitudeDegrees>
            </Position>
            <AltitudeMeters>1949</AltitudeMeters>
            <DistanceMeters>37217.709497039</DistanceMeters>
          </Trackpoint>
          <Trackpoint>
            <Time>2022-07-10T11:10:38.000Z</Time>
            <Position>
              <LatitudeDegrees>42.76117128320038318634033203125</LatitudeDegrees>
              <LongitudeDegrees>-0.225195921957492828369140625</LongitudeDegrees>
            </Position>
            <AltitudeMeters>1949.5999755859375</AltitudeMeters>
            <DistanceMeters>37223.649996912</DistanceMeters>
          </Trackpoint>
          <Trackpoint>
            <Time>2022-07-10T11:10:39.000Z</Time>
            <Position>
              <LatitudeDegrees>42.76118570007383823394775390625</LatitudeDegrees>
              <LongitudeDegrees>-0.22518821060657501220703125</LongitudeDegrees>
            </Position>
            <AltitudeMeters>1949.4000244140625</AltitudeMeters>
            <DistanceMeters>37225.376242905</DistanceMeters>
          </Trackpoint>
          <Trackpoint>
            <Time>2022-07-10T11:10:41.000Z</Time>
            <Position>
              <LatitudeDegrees>42.761211097240447998046875</LatitudeDegrees>
              <LongitudeDegrees>-0.22517236880958080291748046875</LongitudeDegrees>
            </Position>
            <AltitudeMeters>1949</AltitudeMeters>
            <DistanceMeters>37228.484647929</DistanceMeters>
          </Trackpoint>
          <Trackpoint>
            <Time>2022-07-10T11:10:45.000Z</Time>
            <Position>
              <LatitudeDegrees>42.7612632326781749725341796875</LatitudeDegrees>
              <LongitudeDegrees>-0.22514889948070049285888671875</LongitudeDegrees>
            </Position>
            <AltitudeMeters>1948.4000244140625</AltitudeMeters>
            <DistanceMeters>37234.595981349</DistanceMeters>
          </Trackpoint>
          <Trackpoint>
            <Time>2022-07-10T11:10:46.000Z</Time>
            <Position>
              <LatitudeDegrees>42.76127278804779052734375</LatitudeDegrees>
              <LongitudeDegrees>-0.2251387573778629302978515625</LongitudeDegrees>
            </Position>
            <AltitudeMeters>1948.4000244140625</AltitudeMeters>
            <DistanceMeters>37235.939862032</DistanceMeters>
          </Trackpoint>
          <Trackpoint>
            <Time>2022-07-10T11:10:49.000Z</Time>
            <Position>
              <LatitudeDegrees>42.76131059043109416961669921875</LatitudeDegrees>
              <LongitudeDegrees>-0.22510095499455928802490234375</LongitudeDegrees>
            </Position>
            <AltitudeMeters>1947.4000244140625</AltitudeMeters>
            <DistanceMeters>37241.160280665</DistanceMeters>
          </Trackpoint>
          <Trackpoint>
            <Time>2022-07-10T11:10:50.000Z</Time>
            <Position>
              <LatitudeDegrees>42.76132483966648578643798828125</LatitudeDegrees>
              <LongitudeDegrees>-0.2250881306827068328857421875</LongitudeDegrees>
            </Position>
            <AltitudeMeters>1947.199951171875</AltitudeMeters>
            <DistanceMeters>37243.063189137</DistanceMeters>
          </Trackpoint>
          <Trackpoint>
            <Time>2022-07-10T11:10:54.000Z</Time>
            <Position>
              <LatitudeDegrees>42.76136524043977260589599609375</LatitudeDegrees>
              <LongitudeDegrees>-0.2250723727047443389892578125</LongitudeDegrees>
            </Position>
            <AltitudeMeters>1946.5999755859375</AltitudeMeters>
            <DistanceMeters>37247.741747174</DistanceMeters>
          </Trackpoint>
          <Trackpoint>
            <Time>2022-07-10T11:10:56.000Z</Time>
            <Position>
              <LatitudeDegrees>42.76137596927583217620849609375</LatitudeDegrees>
              <LongitudeDegrees>-0.2250599674880504608154296875</LongitudeDegrees>
            </Position>
            <AltitudeMeters>1946.199951171875</AltitudeMeters>
            <DistanceMeters>37249.308967896</DistanceMeters>
          </Trackpoint>
          <Trackpoint>
            <Time>2022-07-10T11:10:57.000Z</Time>
            <Position>
              <LatitudeDegrees>42.76138074696063995361328125</LatitudeDegrees>
              <LongitudeDegrees>-0.22506642155349254608154296875</LongitudeDegrees>
            </Position>
            <AltitudeMeters>1946</AltitudeMeters>
            <DistanceMeters>37250.057208993</DistanceMeters>
          </Trackpoint>
          <Trackpoint>
            <Time>2022-07-10T11:10:59.000Z</Time>
            <Position>
              <LatitudeDegrees>42.76138552464544773101806640625</LatitudeDegrees>
              <LongitudeDegrees>-0.22508368827402591705322265625</LongitudeDegrees>
            </Position>
            <AltitudeMeters>1945</AltitudeMeters>
            <DistanceMeters>37251.562715283</DistanceMeters>
          </Trackpoint>
          <Trackpoint>
            <Time>2022-07-10T11:11:00.000Z</Time>
            <Position>
              <LatitudeDegrees>42.76138602755963802337646484375</LatitudeDegrees>
              <LongitudeDegrees>-0.22509776987135410308837890625</LongitudeDegrees>
            </Position>
            <AltitudeMeters>1944.800048828125</AltitudeMeters>
            <DistanceMeters>37252.718765158</DistanceMeters>
          </Trackpoint>
          <Trackpoint>
            <Time>2022-07-10T11:11:01.000Z</Time>
            <Position>
              <LatitudeDegrees>42.76138552464544773101806640625</LatitudeDegrees>
              <LongitudeDegrees>-0.225105397403240203857421875</LongitudeDegrees>
            </Position>
            <AltitudeMeters>1944.4000244140625</AltitudeMeters>
            <DistanceMeters>37253.349101071</DistanceMeters>
          </Trackpoint>
          <Trackpoint>
            <Time>2022-07-10T11:11:03.000Z</Time>
            <Position>
              <LatitudeDegrees>42.76138150133192539215087890625</LatitudeDegrees>
              <LongitudeDegrees>-0.2251286990940570831298828125</LongitudeDegrees>
            </Position>
            <AltitudeMeters>1943.4000244140625</AltitudeMeters>
            <DistanceMeters>37255.30582088</DistanceMeters>
          </Trackpoint>
          <Trackpoint>
            <Time>2022-07-10T11:11:05.000Z</Time>
            <Position>
              <LatitudeDegrees>42.761371023952960968017578125</LatitudeDegrees>
              <LongitudeDegrees>-0.22514998912811279296875</LongitudeDegrees>
            </Position>
            <AltitudeMeters>1942.800048828125</AltitudeMeters>
            <DistanceMeters>37257.40072354</DistanceMeters>
          </Trackpoint>
          <Trackpoint>
            <Time>2022-07-10T11:11:09.000Z</Time>
            <Position>
              <LatitudeDegrees>42.7613447047770023345947265625</LatitudeDegrees>
              <LongitudeDegrees>-0.22517588920891284942626953125</LongitudeDegrees>
            </Position>
            <AltitudeMeters>1942.5999755859375</AltitudeMeters>
            <DistanceMeters>37261.014238523</DistanceMeters>
          </Trackpoint>
          <Trackpoint>
            <Time>2022-07-10T11:11:11.000Z</Time>
            <Position>
              <LatitudeDegrees>42.76132710278034210205078125</LatitudeDegrees>
              <LongitudeDegrees>-0.2251766435801982879638671875</LongitudeDegrees>
            </Position>
            <AltitudeMeters>1942.199951171875</AltitudeMeters>
            <DistanceMeters>37262.975567809</DistanceMeters>
          </Trackpoint>
          <Trackpoint>
            <Time>2022-07-10T11:11:12.000Z</Time>
            <Position>
              <LatitudeDegrees>42.76132081635296344757080078125</LatitudeDegrees>
              <LongitudeDegrees>-0.22517739795148372650146484375</LongitudeDegrees>
            </Position>
            <AltitudeMeters>1941.800048828125</AltitudeMeters>
            <DistanceMeters>37263.673868695</DistanceMeters>
          </Trackpoint>
          <Trackpoint>
            <Time>2022-07-10T11:11:14.000Z</Time>
            <Position>
              <LatitudeDegrees>42.76130857877433300018310546875</LatitudeDegrees>
              <LongitudeDegrees>-0.22519097663462162017822265625</LongitudeDegrees>
            </Position>
            <AltitudeMeters>1940.800048828125</AltitudeMeters>
            <DistanceMeters>37265.431220721</DistanceMeters>
          </Trackpoint>
          <Trackpoint>
            <Time>2022-07-10T11:11:16.000Z</Time>
            <Position>
              <LatitudeDegrees>42.761299610137939453125</LatitudeDegrees>
              <LongitudeDegrees>-0.2252091653645038604736328125</LongitudeDegrees>
            </Position>
            <AltitudeMeters>1940.4000244140625</AltitudeMeters>
            <DistanceMeters>37267.221661208</DistanceMeters>
          </Trackpoint>
          <Trackpoint>
            <Time>2022-07-10T11:11:17.000Z</Time>
            <Position>
              <LatitudeDegrees>42.76129567064344882965087890625</LatitudeDegrees>
              <LongitudeDegrees>-0.22521679289638996124267578125</LongitudeDegrees>
            </Position>
            <AltitudeMeters>1940.199951171875</AltitudeMeters>
            <DistanceMeters>37267.981874923</DistanceMeters>
          </Trackpoint>
          <Trackpoint>
            <Time>2022-07-10T11:11:20.000Z</Time>
            <Position>
              <LatitudeDegrees>42.7613011188805103302001953125</LatitudeDegrees>
              <LongitudeDegrees>-0.225252248346805572509765625</LongitudeDegrees>
            </Position>
            <AltitudeMeters>1939.800048828125</AltitudeMeters>
            <DistanceMeters>37270.941465123</DistanceMeters>
          </Trackpoint>
          <Trackpoint>
            <Time>2022-07-10T11:11:22.000Z</Time>
            <Position>
              <LatitudeDegrees>42.761316709220409393310546875</LatitudeDegrees>
              <LongitudeDegrees>-0.2252611331641674041748046875</LongitudeDegrees>
            </Position>
            <AltitudeMeters>1939.199951171875</AltitudeMeters>
            <DistanceMeters>37272.820496759</DistanceMeters>
          </Trackpoint>
          <Trackpoint>
            <Time>2022-07-10T11:11:26.000Z</Time>
            <Position>
              <LatitudeDegrees>42.76135903783142566680908203125</LatitudeDegrees>
              <LongitudeDegrees>-0.225260294973850250244140625</LongitudeDegrees>
            </Position>
            <AltitudeMeters>1938.800048828125</AltitudeMeters>
            <DistanceMeters>37277.532710461</DistanceMeters>
          </Trackpoint>
          <Trackpoint>
            <Time>2022-07-10T11:11:28.000Z</Time>
            <Position>
              <LatitudeDegrees>42.76137999258935451507568359375</LatitudeDegrees>
              <LongitudeDegrees>-0.225244201719760894775390625</LongitudeDegrees>
            </Position>
            <AltitudeMeters>1937.5999755859375</AltitudeMeters>
            <DistanceMeters>37280.210373752</DistanceMeters>
          </Trackpoint>
          <Trackpoint>
            <Time>2022-07-10T11:11:29.000Z</Time>
            <Position>
              <LatitudeDegrees>42.76139147579669952392578125</LatitudeDegrees>
              <LongitudeDegrees>-0.2252319641411304473876953125</LongitudeDegrees>
            </Position>
            <AltitudeMeters>1937.4000244140625</AltitudeMeters>
            <DistanceMeters>37281.834190959</DistanceMeters>
          </Trackpoint>
          <Trackpoint>
            <Time>2022-07-10T11:11:32.000Z</Time>
            <Position>
              <LatitudeDegrees>42.761423997581005096435546875</LatitudeDegrees>
              <LongitudeDegrees>-0.22520857863128185272216796875</LongitudeDegrees>
            </Position>
            <AltitudeMeters>1937</AltitudeMeters>
            <DistanceMeters>37285.928067102</DistanceMeters>
          </Trackpoint>
          <Trackpoint>
            <Time>2022-07-10T11:11:34.000Z</Time>
            <Position>
              <LatitudeDegrees>42.76143615134060382843017578125</LatitudeDegrees>
              <LongitudeDegrees>-0.22522785700857639312744140625</LongitudeDegrees>
            </Position>
            <AltitudeMeters>1936.5999755859375</AltitudeMeters>
            <DistanceMeters>37288.00565622</DistanceMeters>
          </Trackpoint>
          <Trackpoint>
            <Time>2022-07-10T11:11:36.000Z</Time>
            <Position>
              <LatitudeDegrees>42.76143548078835010528564453125</LatitudeDegrees>
              <LongitudeDegrees>-0.2252443693578243255615234375</LongitudeDegrees>
            </Position>
            <AltitudeMeters>1935.5999755859375</AltitudeMeters>
            <DistanceMeters>37289.35623959</DistanceMeters>
          </Trackpoint>
          <Trackpoint>
            <Time>2022-07-10T11:11:37.000Z</Time>
            <Position>
              <LatitudeDegrees>42.76143036782741546630859375</LatitudeDegrees>
              <LongitudeDegrees>-0.22525233216583728790283203125</LongitudeDegrees>
            </Position>
            <AltitudeMeters>1935.199951171875</AltitudeMeters>
            <DistanceMeters>37290.227173814</DistanceMeters>
          </Trackpoint>
          <Trackpoint>
            <Time>2022-07-10T11:11:38.000Z</Time>
            <Position>
              <LatitudeDegrees>42.76142659597098827362060546875</LatitudeDegrees>
              <LongitudeDegrees>-0.22526255808770656585693359375</LongitudeDegrees>
            </Position>
            <AltitudeMeters>1935</AltitudeMeters>
            <DistanceMeters>37291.158241662</DistanceMeters>
          </Trackpoint>
          <Trackpoint>
            <Time>2022-07-10T11:11:39.000Z</Time>
            <Position>
              <LatitudeDegrees>42.76142039336264133453369140625</LatitudeDegrees>
              <LongitudeDegrees>-0.22527395747601985931396484375</LongitudeDegrees>
            </Position>
            <AltitudeMeters>1934.800048828125</AltitudeMeters>
            <DistanceMeters>37292.314291537</DistanceMeters>
          </Trackpoint>
          <Trackpoint>
            <Time>2022-07-10T11:11:41.000Z</Time>
            <Position>
              <LatitudeDegrees>42.76140631176531314849853515625</LatitudeDegrees>
              <LongitudeDegrees>-0.22529684007167816162109375</LongitudeDegrees>
            </Position>
            <AltitudeMeters>1934.4000244140625</AltitudeMeters>
            <DistanceMeters>37294.753721876</DistanceMeters>
          </Trackpoint>
          <Trackpoint>
            <Time>2022-07-10T11:11:42.000Z</Time>
            <Position>
              <LatitudeDegrees>42.76139759458601474761962890625</LatitudeDegrees>
              <LongitudeDegrees>-0.22530782036483287811279296875</LongitudeDegrees>
            </Position>
            <AltitudeMeters>1934.199951171875</AltitudeMeters>
            <DistanceMeters>37296.070450655</DistanceMeters>
          </Trackpoint>
          <Trackpoint>
            <Time>2022-07-10T11:11:45.000Z</Time>
            <Position>
              <LatitudeDegrees>42.7613691799342632293701171875</LatitudeDegrees>
              <LongitudeDegrees>-0.225329697132110595703125</LongitudeDegrees>
            </Position>
            <AltitudeMeters>1933.800048828125</AltitudeMeters>
            <DistanceMeters>37299.703902424</DistanceMeters>
          </Trackpoint>
          <Trackpoint>
            <Time>2022-07-10T11:11:47.000Z</Time>
            <Position>
              <LatitudeDegrees>42.7613587863743305206298828125</LatitudeDegrees>
              <LongitudeDegrees>-0.2253390848636627197265625</LongitudeDegrees>
            </Position>
            <AltitudeMeters>1933.4000244140625</AltitudeMeters>
            <DistanceMeters>37301.094023412</DistanceMeters>
          </Trackpoint>
          <Trackpoint>
            <Time>2022-07-10T11:11:48.000Z</Time>
            <Position>
              <LatitudeDegrees>42.761353589594364166259765625</LatitudeDegrees>
              <LongitudeDegrees>-0.2253429405391216278076171875</LongitudeDegrees>
            </Position>
            <AltitudeMeters>1932.800048828125</AltitudeMeters>
            <DistanceMeters>37301.752387801</DistanceMeters>
          </Trackpoint>
          <Trackpoint>
            <Time>2022-07-10T11:11:49.000Z</Time>
            <Position>
              <LatitudeDegrees>42.76134747080504894256591796875</LatitudeDegrees>
              <LongitudeDegrees>-0.225347466766834259033203125</LongitudeDegrees>
            </Position>
            <AltitudeMeters>1932.5999755859375</AltitudeMeters>
            <DistanceMeters>37302.524388478</DistanceMeters>
          </Trackpoint>
          <Trackpoint>
            <Time>2022-07-10T11:11:51.000Z</Time>
            <Position>
              <LatitudeDegrees>42.761335484683513641357421875</LatitudeDegrees>
              <LongitudeDegrees>-0.2253633923828601837158203125</LongitudeDegrees>
            </Position>
            <AltitudeMeters>1931.4000244140625</AltitudeMeters>
            <DistanceMeters>37304.386524175</DistanceMeters>
          </Trackpoint>
          <Trackpoint>
            <Time>2022-07-10T11:11:52.000Z</Time>
            <Position>
              <LatitudeDegrees>42.76132802478969097137451171875</LatitudeDegrees>
              <LongitudeDegrees>-0.22538057528436183929443359375</LongitudeDegrees>
            </Position>
            <AltitudeMeters>1931</AltitudeMeters>
            <DistanceMeters>37306.01589291</DistanceMeters>
          </Trackpoint>
          <Trackpoint>
            <Time>2022-07-10T11:11:55.000Z</Time>
            <Position>
              <LatitudeDegrees>42.76132433675229549407958984375</LatitudeDegrees>
              <LongitudeDegrees>-0.22543187253177165985107421875</LongitudeDegrees>
            </Position>
            <AltitudeMeters>1930.199951171875</AltitudeMeters>
            <DistanceMeters>37310.229339277</DistanceMeters>
          </Trackpoint>
          <Trackpoint>
            <Time>2022-07-10T11:11:56.000Z</Time>
            <Position>
              <LatitudeDegrees>42.761330120265483856201171875</LatitudeDegrees>
              <LongitudeDegrees>-0.2254364825785160064697265625</LongitudeDegrees>
            </Position>
            <AltitudeMeters>1930</AltitudeMeters>
            <DistanceMeters>37310.977580374</DistanceMeters>
          </Trackpoint>
          <Trackpoint>
            <Time>2022-07-10T11:11:58.000Z</Time>
            <Position>
              <LatitudeDegrees>42.7613514102995395660400390625</LatitudeDegrees>
              <LongitudeDegrees>-0.2254358120262622833251953125</LongitudeDegrees>
            </Position>
            <AltitudeMeters>1929.4000244140625</AltitudeMeters>
            <DistanceMeters>37313.349444119</DistanceMeters>
          </Trackpoint>
          <Trackpoint>
            <Time>2022-07-10T11:11:59.000Z</Time>
            <Position>
              <LatitudeDegrees>42.7613653242588043212890625</LatitudeDegrees>
              <LongitudeDegrees>-0.22543489001691341400146484375</LongitudeDegrees>
            </Position>
            <AltitudeMeters>1929</AltitudeMeters>
            <DistanceMeters>37314.902193426</DistanceMeters>
          </Trackpoint>
          <Trackpoint>
            <Time>2022-07-10T11:12:01.000Z</Time>
            <Position>
              <LatitudeDegrees>42.76138745248317718505859375</LatitudeDegrees>
              <LongitudeDegrees>-0.22543472237884998321533203125</LongitudeDegrees>
            </Position>
            <AltitudeMeters>1928.5999755859375</AltitudeMeters>
            <DistanceMeters>37317.365567407</DistanceMeters>
          </Trackpoint>
          <Trackpoint>
            <Time>2022-07-10T11:12:05.000Z</Time>
            <Position>
              <LatitudeDegrees>42.76143330149352550506591796875</LatitudeDegrees>
              <LongitudeDegrees>-0.2254069782793521881103515625</LongitudeDegrees>
            </Position>
            <AltitudeMeters>1928</AltitudeMeters>
            <DistanceMeters>37322.948740688</DistanceMeters>
          </Trackpoint>
          <Trackpoint>
            <Time>2022-07-10T11:12:06.000Z</Time>
            <Position>
              <LatitudeDegrees>42.7614429406821727752685546875</LatitudeDegrees>
              <LongitudeDegrees>-0.2254034578800201416015625</LongitudeDegrees>
            </Position>
            <AltitudeMeters>1927.800048828125</AltitudeMeters>
            <DistanceMeters>37324.056933089</DistanceMeters>
          </Trackpoint>
          <Trackpoint>
            <Time>2022-07-10T11:12:09.000Z</Time>
            <Position>
              <LatitudeDegrees>42.7614711038768291473388671875</LatitudeDegrees>
              <LongitudeDegrees>-0.22539096884429454803466796875</LongitudeDegrees>
            </Position>
            <AltitudeMeters>1927.4000244140625</AltitudeMeters>
            <DistanceMeters>37327.352867245</DistanceMeters>
          </Trackpoint>
          <Trackpoint>
            <Time>2022-07-10T11:12:10.000Z</Time>
            <Position>
              <LatitudeDegrees>42.76147806085646152496337890625</LatitudeDegrees>
              <LongitudeDegrees>-0.2253871969878673553466796875</LongitudeDegrees>
            </Position>
            <AltitudeMeters>1927.4000244140625</AltitudeMeters>
            <DistanceMeters>37328.192120462</DistanceMeters>
          </Trackpoint>
          <Trackpoint>
            <Time>2022-07-10T11:12:11.000Z</Time>
            <Position>
              <LatitudeDegrees>42.76148593984544277191162109375</LatitudeDegrees>
              <LongitudeDegrees>-0.2253798209130764007568359375</LongitudeDegrees>
            </Position>
            <AltitudeMeters>1927.199951171875</AltitudeMeters>
            <DistanceMeters>37329.254551427</DistanceMeters>
          </Trackpoint>
          <Trackpoint>
            <Time>2022-07-10T11:12:12.000Z</Time>
            <Position>
              <LatitudeDegrees>42.7614918909966945648193359375</LatitudeDegrees>
              <LongitudeDegrees>-0.22537772543728351593017578125</LongitudeDegrees>
            </Position>
            <AltitudeMeters>1927.199951171875</AltitudeMeters>
            <DistanceMeters>37329.93979881</DistanceMeters>
          </Trackpoint>
          <Trackpoint>
            <Time>2022-07-10T11:12:13.000Z</Time>
            <Position>
              <LatitudeDegrees>42.761493064463138580322265625</LatitudeDegrees>
              <LongitudeDegrees>-0.22538124583661556243896484375</LongitudeDegrees>
            </Position>
            <AltitudeMeters>1926.800048828125</AltitudeMeters>
            <DistanceMeters>37330.240299666</DistanceMeters>
          </Trackpoint>
          <Trackpoint>
            <Time>2022-07-10T11:12:14.000Z</Time>
            <Position>
              <LatitudeDegrees>42.761494405567646026611328125</LatitudeDegrees>
              <LongitudeDegrees>-0.22539314813911914825439453125</LongitudeDegrees>
            </Position>
            <AltitudeMeters>1926.199951171875</AltitudeMeters>
            <DistanceMeters>37331.22784625</DistanceMeters>
          </Trackpoint>
          <Trackpoint>
            <Time>2022-07-10T11:12:16.000Z</Time>
            <Position>
              <LatitudeDegrees>42.76149985380470752716064453125</LatitudeDegrees>
              <LongitudeDegrees>-0.22541695274412631988525390625</LongitudeDegrees>
            </Position>
            <AltitudeMeters>1925.4000244140625</AltitudeMeters>
            <DistanceMeters>37333.265942215</DistanceMeters>
          </Trackpoint>
          <Trackpoint>
            <Time>2022-07-10T11:12:19.000Z</Time>
            <Position>
              <LatitudeDegrees>42.76148560456931591033935546875</LatitudeDegrees>
              <LongitudeDegrees>-0.22544209845364093780517578125</LongitudeDegrees>
            </Position>
            <AltitudeMeters>1924.800048828125</AltitudeMeters>
            <DistanceMeters>37335.859666748</DistanceMeters>
          </Trackpoint>
          <Trackpoint>
            <Time>2022-07-10T11:12:20.000Z</Time>
            <Position>
              <LatitudeDegrees>42.7614764682948589324951171875</LatitudeDegrees>
              <LongitudeDegrees>-0.22544980980455875396728515625</LongitudeDegrees>
            </Position>
            <AltitudeMeters>1924.800048828125</AltitudeMeters>
            <DistanceMeters>37337.054134026</DistanceMeters>
          </Trackpoint>
          <Trackpoint>
            <Time>2022-07-10T11:12:21.000Z</Time>
            <Position>
              <LatitudeDegrees>42.76146657764911651611328125</LatitudeDegrees>
              <LongitudeDegrees>-0.22545802406966686248779296875</LongitudeDegrees>
            </Position>
            <AltitudeMeters>1924.800048828125</AltitudeMeters>
            <DistanceMeters>37338.343139094</DistanceMeters>
          </Trackpoint>
          <Trackpoint>
            <Time>2022-07-10T11:12:22.000Z</Time>
            <Position>
              <LatitudeDegrees>42.76145584881305694580078125</LatitudeDegrees>
              <LongitudeDegrees>-0.225470177829265594482421875</LongitudeDegrees>
            </Position>
            <AltitudeMeters>1924.199951171875</AltitudeMeters>
            <DistanceMeters>37339.892977903</DistanceMeters>
          </Trackpoint>
          <Trackpoint>
            <Time>2022-07-10T11:12:26.000Z</Time>
            <Position>
              <LatitudeDegrees>42.7614147774875164031982421875</LatitudeDegrees>
              <LongitudeDegrees>-0.22549523971974849700927734375</LongitudeDegrees>
            </Position>
            <AltitudeMeters>1923.199951171875</AltitudeMeters>
            <DistanceMeters>37344.901525832</DistanceMeters>
          </Trackpoint>
          <Trackpoint>
            <Time>2022-07-10T11:12:28.000Z</Time>
            <Position>
              <LatitudeDegrees>42.76139105670154094696044921875</LatitudeDegrees>
              <LongitudeDegrees>-0.2255035378038883209228515625</LongitudeDegrees>
            </Position>
            <AltitudeMeters>1922.5999755859375</AltitudeMeters>
            <DistanceMeters>37347.627649988</DistanceMeters>
          </Trackpoint>
          <Trackpoint>
            <Time>2022-07-10T11:12:30.000Z</Time>
            <Position>
              <LatitudeDegrees>42.761362306773662567138671875</LatitudeDegrees>
              <LongitudeDegrees>-0.2255203016102313995361328125</LongitudeDegrees>
            </Position>
            <AltitudeMeters>1922.199951171875</AltitudeMeters>
            <DistanceMeters>37351.10879385</DistanceMeters>
          </Trackpoint>
          <Trackpoint>
            <Time>2022-07-10T11:12:35.000Z</Time>
            <Position>
              <LatitudeDegrees>42.761329449713230133056640625</LatitudeDegrees>
              <LongitudeDegrees>-0.225560367107391357421875</LongitudeDegrees>
            </Position>
            <AltitudeMeters>1921</AltitudeMeters>
            <DistanceMeters>37356.017178916</DistanceMeters>
          </Trackpoint>
          <Trackpoint>
            <Time>2022-07-10T11:12:36.000Z</Time>
            <Position>
              <LatitudeDegrees>42.761330120265483856201171875</LatitudeDegrees>
              <LongitudeDegrees>-0.22557419724762439727783203125</LongitudeDegrees>
            </Position>
            <AltitudeMeters>1920.5999755859375</AltitudeMeters>
            <DistanceMeters>37357.149552907</DistanceMeters>
          </Trackpoint>
          <Trackpoint>
            <Time>2022-07-10T11:12:38.000Z</Time>
            <Position>
              <LatitudeDegrees>42.76132551021873950958251953125</LatitudeDegrees>
              <LongitudeDegrees>-0.22559548728168010711669921875</LongitudeDegrees>
            </Position>
            <AltitudeMeters>1919.5999755859375</AltitudeMeters>
            <DistanceMeters>37358.962547067</DistanceMeters>
          </Trackpoint>
          <Trackpoint>
            <Time>2022-07-10T11:12:39.000Z</Time>
            <Position>
              <LatitudeDegrees>42.7613249234855175018310546875</LatitudeDegrees>
              <LongitudeDegrees>-0.2256004326045513153076171875</LongitudeDegrees>
            </Position>
            <AltitudeMeters>1919.4000244140625</AltitudeMeters>
            <DistanceMeters>37359.365711272</DistanceMeters>
          </Trackpoint>
          <Trackpoint>
            <Time>2022-07-10T11:12:40.000Z</Time>
            <Position>
              <LatitudeDegrees>42.761329114437103271484375</LatitudeDegrees>
              <LongitudeDegrees>-0.22559967823326587677001953125</LongitudeDegrees>
            </Position>
            <AltitudeMeters>1919.199951171875</AltitudeMeters>
            <DistanceMeters>37359.831245196</DistanceMeters>
          </Trackpoint>
          <Trackpoint>
            <Time>2022-07-10T11:12:42.000Z</Time>
            <Position>
              <LatitudeDegrees>42.76133892126381397247314453125</LatitudeDegrees>
              <LongitudeDegrees>-0.22559590637683868408203125</LongitudeDegrees>
            </Position>
            <AltitudeMeters>1919</AltitudeMeters>
            <DistanceMeters>37360.963619187</DistanceMeters>
          </Trackpoint>
          <Trackpoint>
            <Time>2022-07-10T11:12:46.000Z</Time>
            <Position>
              <LatitudeDegrees>42.76136188767850399017333984375</LatitudeDegrees>
              <LongitudeDegrees>-0.2255803160369396209716796875</LongitudeDegrees>
            </Position>
            <AltitudeMeters>1918.5999755859375</AltitudeMeters>
            <DistanceMeters>37363.817586417</DistanceMeters>
          </Trackpoint>
          <Trackpoint>
            <Time>2022-07-10T11:12:49.000Z</Time>
            <Position>
              <LatitudeDegrees>42.76139541529119014739990234375</LatitudeDegrees>
              <LongitudeDegrees>-0.22561627440154552459716796875</LongitudeDegrees>
            </Position>
            <AltitudeMeters>1918.4000244140625</AltitudeMeters>
            <DistanceMeters>37368.567021221</DistanceMeters>
          </Trackpoint>
          <Trackpoint>
            <Time>2022-07-10T11:12:50.000Z</Time>
            <Position>
              <LatitudeDegrees>42.76141033507883548736572265625</LatitudeDegrees>
              <LongitudeDegrees>-0.225617699325084686279296875</LongitudeDegrees>
            </Position>
            <AltitudeMeters>1918.4000244140625</AltitudeMeters>
            <DistanceMeters>37370.23473329</DistanceMeters>
          </Trackpoint>
          <Trackpoint>
            <Time>2022-07-10T11:12:55.000Z</Time>
            <Position>
              <LatitudeDegrees>42.7614841796457767486572265625</LatitudeDegrees>
              <LongitudeDegrees>-0.2255952358245849609375</LongitudeDegrees>
            </Position>
            <AltitudeMeters>1917.800048828125</AltitudeMeters>
            <DistanceMeters>37378.656266428</DistanceMeters>
          </Trackpoint>
          <Trackpoint>
            <Time>2022-07-10T11:12:56.000Z</Time>
            <Position>
              <LatitudeDegrees>42.76149339973926544189453125</LatitudeDegrees>
              <LongitudeDegrees>-0.2255912125110626220703125</LongitudeDegrees>
            </Position>
            <AltitudeMeters>1917.5999755859375</AltitudeMeters>
            <DistanceMeters>37379.735562431</DistanceMeters>
          </Trackpoint>
          <Trackpoint>
            <Time>2022-07-10T11:13:01.000Z</Time>
            <Position>
              <LatitudeDegrees>42.76153371669352054595947265625</LatitudeDegrees>
              <LongitudeDegrees>-0.2256007678806781768798828125</LongitudeDegrees>
            </Position>
            <AltitudeMeters>1916.5999755859375</AltitudeMeters>
            <DistanceMeters>37384.288918941</DistanceMeters>
          </Trackpoint>
          <Trackpoint>
            <Time>2022-07-10T11:13:03.000Z</Time>
            <Position>
              <LatitudeDegrees>42.76154712773859500885009765625</LatitudeDegrees>
              <LongitudeDegrees>-0.2256153523921966552734375</LongitudeDegrees>
            </Position>
            <AltitudeMeters>1916.4000244140625</AltitudeMeters>
            <DistanceMeters>37386.198932262</DistanceMeters>
          </Trackpoint>
          <Trackpoint>
            <Time>2022-07-10T11:13:04.000Z</Time>
            <Position>
              <LatitudeDegrees>42.7615505643188953399658203125</LatitudeDegrees>
              <LongitudeDegrees>-0.22562331520020961761474609375</LongitudeDegrees>
            </Position>
            <AltitudeMeters>1916.4000244140625</AltitudeMeters>
            <DistanceMeters>37386.953183424</DistanceMeters>
          </Trackpoint>
          <Trackpoint>
            <Time>2022-07-10T11:13:07.000Z</Time>
            <Position>
              <LatitudeDegrees>42.76155668310821056365966796875</LatitudeDegrees>
              <LongitudeDegrees>-0.22564996965229511260986328125</LongitudeDegrees>
            </Position>
            <AltitudeMeters>1915.5999755859375</AltitudeMeters>
            <DistanceMeters>37389.235803434</DistanceMeters>
          </Trackpoint>
          <Trackpoint>
            <Time>2022-07-10T11:13:08.000Z</Time>
            <Position>
              <LatitudeDegrees>42.76155509054660797119140625</LatitudeDegrees>
              <LongitudeDegrees>-0.22565416060388088226318359375</LongitudeDegrees>
            </Position>
            <AltitudeMeters>1915.199951171875</AltitudeMeters>
            <DistanceMeters>37389.615910291</DistanceMeters>
          </Trackpoint>
          <Trackpoint>
            <Time>2022-07-10T11:13:10.000Z</Time>
            <Position>
              <LatitudeDegrees>42.7615477144718170166015625</LatitudeDegrees>
              <LongitudeDegrees>-0.225657932460308074951171875</LongitudeDegrees>
            </Position>
            <AltitudeMeters>1914.199951171875</AltitudeMeters>
            <DistanceMeters>37390.492013309</DistanceMeters>
          </Trackpoint>
          <Trackpoint>
            <Time>2022-07-10T11:13:11.000Z</Time>
            <Position>
              <LatitudeDegrees>42.76154360733926296234130859375</LatitudeDegrees>
              <LongitudeDegrees>-0.22566220723092555999755859375</LongitudeDegrees>
            </Position>
            <AltitudeMeters>1913.5999755859375</AltitudeMeters>
            <DistanceMeters>37391.062173595</DistanceMeters>
          </Trackpoint>
          <Trackpoint>
            <Time>2022-07-10T11:13:14.000Z</Time>
            <Position>
              <LatitudeDegrees>42.761525250971317291259765625</LatitudeDegrees>
              <LongitudeDegrees>-0.2256850898265838623046875</LongitudeDegrees>
            </Position>
            <AltitudeMeters>1912.800048828125</AltitudeMeters>
            <DistanceMeters>37393.831024422</DistanceMeters>
          </Trackpoint>
          <Trackpoint>
            <Time>2022-07-10T11:13:15.000Z</Time>
            <Position>
              <LatitudeDegrees>42.76151779107749462127685546875</LatitudeDegrees>
              <LongitudeDegrees>-0.2256943099200725555419921875</LongitudeDegrees>
            </Position>
            <AltitudeMeters>1912.4000244140625</AltitudeMeters>
            <DistanceMeters>37394.947335557</DistanceMeters>
          </Trackpoint>
          <Trackpoint>
            <Time>2022-07-10T11:13:17.000Z</Time>
            <Position>
              <LatitudeDegrees>42.7615019492805004119873046875</LatitudeDegrees>
              <LongitudeDegrees>-0.2257090620696544647216796875</LongitudeDegrees>
            </Position>
            <AltitudeMeters>1911.4000244140625</AltitudeMeters>
            <DistanceMeters>37397.080680003</DistanceMeters>
          </Trackpoint>
          <Trackpoint>
            <Time>2022-07-10T11:13:18.000Z</Time>
            <Position>
              <LatitudeDegrees>42.76149666868150234222412109375</LatitudeDegrees>
              <LongitudeDegrees>-0.22571392357349395751953125</LongitudeDegrees>
            </Position>
            <AltitudeMeters>1911</AltitudeMeters>
            <DistanceMeters>37397.785416978</DistanceMeters>
          </Trackpoint>
          <Trackpoint>
            <Time>2022-07-10T11:13:19.000Z</Time>
            <Position>
              <LatitudeDegrees>42.76148962788283824920654296875</LatitudeDegrees>
              <LongitudeDegrees>-0.2257197909057140350341796875</LongitudeDegrees>
            </Position>
            <AltitudeMeters>1910.4000244140625</AltitudeMeters>
            <DistanceMeters>37398.701821425</DistanceMeters>
          </Trackpoint>
          <Trackpoint>
            <Time>2022-07-10T11:13:21.000Z</Time>
            <Position>
              <LatitudeDegrees>42.76146657764911651611328125</LatitudeDegrees>
              <LongitudeDegrees>-0.2257372252643108367919921875</LongitudeDegrees>
            </Position>
            <AltitudeMeters>1909.5999755859375</AltitudeMeters>
            <DistanceMeters>37401.636901139</DistanceMeters>
          </Trackpoint>
          <Trackpoint>
            <Time>2022-07-10T11:13:22.000Z</Time>
            <Position>
              <LatitudeDegrees>42.761451490223407745361328125</LatitudeDegrees>
              <LongitudeDegrees>-0.22574602626264095306396484375</LongitudeDegrees>
            </Position>
            <AltitudeMeters>1909.199951171875</AltitudeMeters>
            <DistanceMeters>37403.462304713</DistanceMeters>
          </Trackpoint>
          <Trackpoint>
            <Time>2022-07-10T11:13:23.000Z</Time>
            <Position>
              <LatitudeDegrees>42.7614379115402698516845703125</LatitudeDegrees>
              <LongitudeDegrees>-0.22575524635612964630126953125</LongitudeDegrees>
            </Position>
            <AltitudeMeters>1909</AltitudeMeters>
            <DistanceMeters>37405.151536537</DistanceMeters>
          </Trackpoint>
          <Trackpoint>
            <Time>2022-07-10T11:13:26.000Z</Time>
            <Position>
              <LatitudeDegrees>42.76139809750020503997802734375</LatitudeDegrees>
              <LongitudeDegrees>-0.2257730998098850250244140625</LongitudeDegrees>
            </Position>
            <AltitudeMeters>1908.199951171875</AltitudeMeters>
            <DistanceMeters>37409.817532069</DistanceMeters>
          </Trackpoint>
          <Trackpoint>
            <Time>2022-07-10T11:13:27.000Z</Time>
            <Position>
              <LatitudeDegrees>42.761387787759304046630859375</LatitudeDegrees>
              <LongitudeDegrees>-0.225779972970485687255859375</LongitudeDegrees>
            </Position>
            <AltitudeMeters>1907.800048828125</AltitudeMeters>
            <DistanceMeters>37411.092449227</DistanceMeters>
          </Trackpoint>
          <Trackpoint>
            <Time>2022-07-10T11:13:30.000Z</Time>
            <Position>
              <LatitudeDegrees>42.7613760530948638916015625</LatitudeDegrees>
              <LongitudeDegrees>-0.22580704651772975921630859375</LongitudeDegrees>
            </Position>
            <AltitudeMeters>1907</AltitudeMeters>
            <DistanceMeters>37413.659929666</DistanceMeters>
          </Trackpoint>
          <Trackpoint>
            <Time>2022-07-10T11:13:32.000Z</Time>
            <Position>
              <LatitudeDegrees>42.7613760530948638916015625</LatitudeDegrees>
              <LongitudeDegrees>-0.2258307673037052154541015625</LongitudeDegrees>
            </Position>
            <AltitudeMeters>1906.5999755859375</AltitudeMeters>
            <DistanceMeters>37415.59810195</DistanceMeters>
          </Trackpoint>
          <Trackpoint>
            <Time>2022-07-10T11:13:35.000Z</Time>
            <Position>
              <LatitudeDegrees>42.761379070580005645751953125</LatitudeDegrees>
              <LongitudeDegrees>-0.22583722136914730072021484375</LongitudeDegrees>
            </Position>
            <AltitudeMeters>1906</AltitudeMeters>
            <DistanceMeters>37416.228437863</DistanceMeters>
          </Trackpoint>
          <Trackpoint>
            <Time>2022-07-10T11:13:36.000Z</Time>
            <Position>
              <LatitudeDegrees>42.7613859437406063079833984375</LatitudeDegrees>
              <LongitudeDegrees>-0.22584040649235248565673828125</LongitudeDegrees>
            </Position>
            <AltitudeMeters>1905.800048828125</AltitudeMeters>
            <DistanceMeters>37417.034766272</DistanceMeters>
          </Trackpoint>
          <Trackpoint>
            <Time>2022-07-10T11:13:37.000Z</Time>
            <Position>
              <LatitudeDegrees>42.76139147579669952392578125</LatitudeDegrees>
              <LongitudeDegrees>-0.22584292106330394744873046875</LongitudeDegrees>
            </Position>
            <AltitudeMeters>1905.5999755859375</AltitudeMeters>
            <DistanceMeters>37417.679268807</DistanceMeters>
          </Trackpoint>
          <Trackpoint>
            <Time>2022-07-10T11:13:38.000Z</Time>
            <Position>
              <LatitudeDegrees>42.76140061207115650177001953125</LatitudeDegrees>
              <LongitudeDegrees>-0.22584074176847934722900390625</LongitudeDegrees>
            </Position>
            <AltitudeMeters>1905.199951171875</AltitudeMeters>
            <DistanceMeters>37418.715887877</DistanceMeters>
          </Trackpoint>
          <Trackpoint>
            <Time>2022-07-10T11:13:40.000Z</Time>
            <Position>
              <LatitudeDegrees>42.76142223738133907318115234375</LatitudeDegrees>
              <LongitudeDegrees>-0.22583470679819583892822265625</LongitudeDegrees>
            </Position>
            <AltitudeMeters>1904.800048828125</AltitudeMeters>
            <DistanceMeters>37421.175593391</DistanceMeters>
          </Trackpoint>
          <Trackpoint>
            <Time>2022-07-10T11:13:41.000Z</Time>
            <Position>
              <LatitudeDegrees>42.76143372058868408203125</LatitudeDegrees>
              <LongitudeDegrees>-0.22583923302590847015380859375</LongitudeDegrees>
            </Position>
            <AltitudeMeters>1904.199951171875</AltitudeMeters>
            <DistanceMeters>37422.505967392</DistanceMeters>
          </Trackpoint>
          <Trackpoint>
            <Time>2022-07-10T11:13:43.000Z</Time>
            <Position>
              <LatitudeDegrees>42.7614576928317546844482421875</LatitudeDegrees>
              <LongitudeDegrees>-0.225843675434589385986328125</LongitudeDegrees>
            </Position>
            <AltitudeMeters>1903.4000244140625</AltitudeMeters>
            <DistanceMeters>37425.198763594</DistanceMeters>
          </Trackpoint>
          <Trackpoint>
            <Time>2022-07-10T11:13:47.000Z</Time>
            <Position>
              <LatitudeDegrees>42.7615073136985301971435546875</LatitudeDegrees>
              <LongitudeDegrees>-0.225841663777828216552734375</LongitudeDegrees>
            </Position>
            <AltitudeMeters>1902</AltitudeMeters>
            <DistanceMeters>37430.723404612</DistanceMeters>
          </Trackpoint>
          <Trackpoint>
            <Time>2022-07-10T11:13:50.000Z</Time>
            <Position>
              <LatitudeDegrees>42.76154109276831150054931640625</LatitudeDegrees>
              <LongitudeDegrees>-0.2258247323334217071533203125</LongitudeDegrees>
            </Position>
            <AltitudeMeters>1901.199951171875</AltitudeMeters>
            <DistanceMeters>37434.729206135</DistanceMeters>
          </Trackpoint>
          <Trackpoint>
            <Time>2022-07-10T11:13:51.000Z</Time>
            <Position>
              <LatitudeDegrees>42.76155349798500537872314453125</LatitudeDegrees>
              <LongitudeDegrees>-0.2258213795721530914306640625</LongitudeDegrees>
            </Position>
            <AltitudeMeters>1901</AltitudeMeters>
            <DistanceMeters>37436.132258759</DistanceMeters>
          </Trackpoint>
          <Trackpoint>
            <Time>2022-07-10T11:13:52.000Z</Time>
            <Position>
              <LatitudeDegrees>42.7615639753639698028564453125</LatitudeDegrees>
              <LongitudeDegrees>-0.2258143387734889984130859375</LongitudeDegrees>
            </Position>
            <AltitudeMeters>1900.5999755859375</AltitudeMeters>
            <DistanceMeters>37437.435199422</DistanceMeters>
          </Trackpoint>
          <Trackpoint>
            <Time>2022-07-10T11:13:54.000Z</Time>
            <Position>
              <LatitudeDegrees>42.7615797333419322967529296875</LatitudeDegrees>
              <LongitudeDegrees>-0.2258036099374294281005859375</LongitudeDegrees>
            </Position>
            <AltitudeMeters>1899.800048828125</AltitudeMeters>
            <DistanceMeters>37439.396528707</DistanceMeters>
          </Trackpoint>
          <Trackpoint>
            <Time>2022-07-10T11:13:56.000Z</Time>
            <Position>
              <LatitudeDegrees>42.76158568449318408966064453125</LatitudeDegrees>
              <LongitudeDegrees>-0.22580503486096858978271484375</LongitudeDegrees>
            </Position>
            <AltitudeMeters>1899.199951171875</AltitudeMeters>
            <DistanceMeters>37440.075155187</DistanceMeters>
          </Trackpoint>
          <Trackpoint>
            <Time>2022-07-10T11:13:58.000Z</Time>
            <Position>
              <LatitudeDegrees>42.76159138418734073638916015625</LatitudeDegrees>
              <LongitudeDegrees>-0.22581182420253753662109375</LongitudeDegrees>
            </Position>
            <AltitudeMeters>1898.800048828125</AltitudeMeters>
            <DistanceMeters>37440.914408404</DistanceMeters>
          </Trackpoint>
          <Trackpoint>
            <Time>2022-07-10T11:14:00.000Z</Time>
            <Position>
              <LatitudeDegrees>42.76158937253057956695556640625</LatitudeDegrees>
              <LongitudeDegrees>-0.22582230158150196075439453125</LongitudeDegrees>
            </Position>
            <AltitudeMeters>1898.4000244140625</AltitudeMeters>
            <DistanceMeters>37441.7956499</DistanceMeters>
          </Trackpoint>
          <Trackpoint>
            <Time>2022-07-10T11:14:02.000Z</Time>
            <Position>
              <LatitudeDegrees>42.761582247912883758544921875</LatitudeDegrees>
              <LongitudeDegrees>-0.22583722136914730072021484375</LongitudeDegrees>
            </Position>
            <AltitudeMeters>1898.4000244140625</AltitudeMeters>
            <DistanceMeters>37443.246169742</DistanceMeters>
          </Trackpoint>
          <Trackpoint>
            <Time>2022-07-10T11:14:04.000Z</Time>
            <Position>
              <LatitudeDegrees>42.76157646439969539642333984375</LatitudeDegrees>
              <LongitudeDegrees>-0.22585163824260234832763671875</LongitudeDegrees>
            </Position>
            <AltitudeMeters>1898.199951171875</AltitudeMeters>
            <DistanceMeters>37444.590050424</DistanceMeters>
          </Trackpoint>
          <Trackpoint>
            <Time>2022-07-10T11:14:06.000Z</Time>
            <Position>
              <LatitudeDegrees>42.7615649811923503875732421875</LatitudeDegrees>
              <LongitudeDegrees>-0.2258696593344211578369140625</LongitudeDegrees>
            </Position>
            <AltitudeMeters>1897.5999755859375</AltitudeMeters>
            <DistanceMeters>37446.537518551</DistanceMeters>
          </Trackpoint>
          <Trackpoint>
            <Time>2022-07-10T11:14:07.000Z</Time>
            <Position>
              <LatitudeDegrees>42.761558108031749725341796875</LatitudeDegrees>
              <LongitudeDegrees>-0.2258743532001972198486328125</LongitudeDegrees>
            </Position>
            <AltitudeMeters>1897.4000244140625</AltitudeMeters>
            <DistanceMeters>37447.387463324</DistanceMeters>
          </Trackpoint>
          <Trackpoint>
            <Time>2022-07-10T11:14:08.000Z</Time>
            <Position>
              <LatitudeDegrees>42.7615529112517833709716796875</LatitudeDegrees>
              <LongitudeDegrees>-0.2258782088756561279296875</LongitudeDegrees>
            </Position>
            <AltitudeMeters>1897.199951171875</AltitudeMeters>
            <DistanceMeters>37448.045827713</DistanceMeters>
          </Trackpoint>
          <Trackpoint>
            <Time>2022-07-10T11:14:10.000Z</Time>
            <Position>
              <LatitudeDegrees>42.76154796592891216278076171875</LatitudeDegrees>
              <LongitudeDegrees>-0.22588985972106456756591796875</LongitudeDegrees>
            </Position>
            <AltitudeMeters>1896.4000244140625</AltitudeMeters>
            <DistanceMeters>37449.14584146</DistanceMeters>
          </Trackpoint>
          <Trackpoint>
            <Time>2022-07-10T11:14:12.000Z</Time>
            <Position>
              <LatitudeDegrees>42.761546038091182708740234375</LatitudeDegrees>
              <LongitudeDegrees>-0.22591668181121349334716796875</LongitudeDegrees>
            </Position>
            <AltitudeMeters>1895.800048828125</AltitudeMeters>
            <DistanceMeters>37451.345868954</DistanceMeters>
          </Trackpoint>
          <Trackpoint>
            <Time>2022-07-10T11:14:13.000Z</Time>
            <Position>
              <LatitudeDegrees>42.76154561899602413177490234375</LatitudeDegrees>
              <LongitudeDegrees>-0.22592942230403423309326171875</LongitudeDegrees>
            </Position>
            <AltitudeMeters>1895.4000244140625</AltitudeMeters>
            <DistanceMeters>37452.386834454</DistanceMeters>
          </Trackpoint>
          <Trackpoint>
            <Time>2022-07-10T11:14:14.000Z</Time>
            <Position>
              <LatitudeDegrees>42.76154461316764354705810546875</LatitudeDegrees>
              <LongitudeDegrees>-0.22593864239752292633056640625</LongitudeDegrees>
            </Position>
            <AltitudeMeters>1895</AltitudeMeters>
            <DistanceMeters>37453.152964319</DistanceMeters>
          </Trackpoint>
          <Trackpoint>
            <Time>2022-07-10T11:14:16.000Z</Time>
            <Position>
              <LatitudeDegrees>42.7615428529679775238037109375</LatitudeDegrees>
              <LongitudeDegrees>-0.22595532238483428955078125</LongitudeDegrees>
            </Position>
            <AltitudeMeters>1894.4000244140625</AltitudeMeters>
            <DistanceMeters>37454.530032237</DistanceMeters>
          </Trackpoint>
          <Trackpoint>
            <Time>2022-07-10T11:14:17.000Z</Time>
            <Position>
              <LatitudeDegrees>42.76153841055929660797119140625</LatitudeDegrees>
              <LongitudeDegrees>-0.2259628660976886749267578125</LongitudeDegrees>
            </Position>
            <AltitudeMeters>1894</AltitudeMeters>
            <DistanceMeters>37455.325082771</DistanceMeters>
          </Trackpoint>
          <Trackpoint>
            <Time>2022-07-10T11:14:18.000Z</Time>
            <Position>
              <LatitudeDegrees>42.76153120212256908416748046875</LatitudeDegrees>
              <LongitudeDegrees>-0.22596395574510097503662109375</LongitudeDegrees>
            </Position>
            <AltitudeMeters>1893.800048828125</AltitudeMeters>
            <DistanceMeters>37456.131411181</DistanceMeters>
          </Trackpoint>
          <Trackpoint>
            <Time>2022-07-10T11:14:22.000Z</Time>
            <Position>
              <LatitudeDegrees>42.76150622405111789703369140625</LatitudeDegrees>
              <LongitudeDegrees>-0.225993879139423370361328125</LongitudeDegrees>
            </Position>
            <AltitudeMeters>1892.5999755859375</AltitudeMeters>
            <DistanceMeters>37459.833796363</DistanceMeters>
          </Trackpoint>
          <Trackpoint>
            <Time>2022-07-10T11:14:23.000Z</Time>
            <Position>
              <LatitudeDegrees>42.76150169782340526580810546875</LatitudeDegrees>
              <LongitudeDegrees>-0.2260030992329120635986328125</LongitudeDegrees>
            </Position>
            <AltitudeMeters>1892.199951171875</AltitudeMeters>
            <DistanceMeters>37460.745260588</DistanceMeters>
          </Trackpoint>
          <Trackpoint>
            <Time>2022-07-10T11:14:24.000Z</Time>
            <Position>
              <LatitudeDegrees>42.761497087776660919189453125</LatitudeDegrees>
              <LongitudeDegrees>-0.2260108105838298797607421875</LongitudeDegrees>
            </Position>
            <AltitudeMeters>1891.800048828125</AltitudeMeters>
            <DistanceMeters>37461.562711294</DistanceMeters>
          </Trackpoint>
          <Trackpoint>
            <Time>2022-07-10T11:14:26.000Z</Time>
            <Position>
              <LatitudeDegrees>42.76148325763642787933349609375</LatitudeDegrees>
              <LongitudeDegrees>-0.2260372973978519439697265625</LongitudeDegrees>
            </Position>
            <AltitudeMeters>1891.199951171875</AltitudeMeters>
            <DistanceMeters>37464.2183637</DistanceMeters>
          </Trackpoint>
          <Trackpoint>
            <Time>2022-07-10T11:14:29.000Z</Time>
            <Position>
              <LatitudeDegrees>42.7614607103168964385986328125</LatitudeDegrees>
              <LongitudeDegrees>-0.22608130238950252532958984375</LongitudeDegrees>
            </Position>
            <AltitudeMeters>1890.5999755859375</AltitudeMeters>
            <DistanceMeters>37468.604029308</DistanceMeters>
          </Trackpoint>
          <Trackpoint>
            <Time>2022-07-10T11:14:30.000Z</Time>
            <Position>
              <LatitudeDegrees>42.761455513536930084228515625</LatitudeDegrees>
              <LongitudeDegrees>-0.22609001956880092620849609375</LongitudeDegrees>
            </Position>
            <AltitudeMeters>1890.4000244140625</AltitudeMeters>
            <DistanceMeters>37469.525347487</DistanceMeters>
          </Trackpoint>
          <Trackpoint>
            <Time>2022-07-10T11:14:32.000Z</Time>
            <Position>
              <LatitudeDegrees>42.7614498138427734375</LatitudeDegrees>
              <LongitudeDegrees>-0.22611902095377445220947265625</LongitudeDegrees>
            </Position>
            <AltitudeMeters>1890</AltitudeMeters>
            <DistanceMeters>37471.977699605</DistanceMeters>
          </Trackpoint>
          <Trackpoint>
            <Time>2022-07-10T11:14:35.000Z</Time>
            <Position>
              <LatitudeDegrees>42.76143900118768215179443359375</LatitudeDegrees>
              <LongitudeDegrees>-0.22614316083490848541259765625</LongitudeDegrees>
            </Position>
            <AltitudeMeters>1889.5999755859375</AltitudeMeters>
            <DistanceMeters>37474.289799355</DistanceMeters>
          </Trackpoint>
          <Trackpoint>
            <Time>2022-07-10T11:14:37.000Z</Time>
            <Position>
              <LatitudeDegrees>42.7614372409880161285400390625</LatitudeDegrees>
              <LongitudeDegrees>-0.22615120746195316314697265625</LongitudeDegrees>
            </Position>
            <AltitudeMeters>1889</AltitudeMeters>
            <DistanceMeters>37474.975046738</DistanceMeters>
          </Trackpoint>
          <Trackpoint>
            <Time>2022-07-10T11:14:39.000Z</Time>
            <Position>
              <LatitudeDegrees>42.76144034229218959808349609375</LatitudeDegrees>
              <LongitudeDegrees>-0.2261647023260593414306640625</LongitudeDegrees>
            </Position>
            <AltitudeMeters>1888.199951171875</AltitudeMeters>
            <DistanceMeters>37476.134995612</DistanceMeters>
          </Trackpoint>
          <Trackpoint>
            <Time>2022-07-10T11:14:40.000Z</Time>
            <Position>
              <LatitudeDegrees>42.76144101284444332122802734375</LatitudeDegrees>
              <LongitudeDegrees>-0.2261687256395816802978515625</LongitudeDegrees>
            </Position>
            <AltitudeMeters>1887.5999755859375</AltitudeMeters>
            <DistanceMeters>37476.464177806</DistanceMeters>
          </Trackpoint>
          <Trackpoint>
            <Time>2022-07-10T11:14:41.000Z</Time>
            <Position>
              <LatitudeDegrees>42.7614439465105533599853515625</LatitudeDegrees>
              <LongitudeDegrees>-0.2261794544756412506103515625</LongitudeDegrees>
            </Position>
            <AltitudeMeters>1887</AltitudeMeters>
            <DistanceMeters>37477.395245655</DistanceMeters>
          </Trackpoint>
          <Trackpoint>
            <Time>2022-07-10T11:14:43.000Z</Time>
            <Position>
              <LatitudeDegrees>42.7614462934434413909912109375</LatitudeDegrees>
              <LongitudeDegrees>-0.226190350949764251708984375</LongitudeDegrees>
            </Position>
            <AltitudeMeters>1886.4000244140625</AltitudeMeters>
            <DistanceMeters>37478.321451497</DistanceMeters>
          </Trackpoint>
          <Trackpoint>
            <Time>2022-07-10T11:14:46.000Z</Time>
            <Position>
              <LatitudeDegrees>42.76145123876631259918212890625</LatitudeDegrees>
              <LongitudeDegrees>-0.22619345225393772125244140625</LongitudeDegrees>
            </Position>
            <AltitudeMeters>1885.5999755859375</AltitudeMeters>
            <DistanceMeters>37478.929919355</DistanceMeters>
          </Trackpoint>
          <Trackpoint>
            <Time>2022-07-10T11:14:48.000Z</Time>
            <Position>
              <LatitudeDegrees>42.76146917603909969329833984375</LatitudeDegrees>
              <LongitudeDegrees>-0.2261908538639545440673828125</LongitudeDegrees>
            </Position>
            <AltitudeMeters>1885</AltitudeMeters>
            <DistanceMeters>37480.939009739</DistanceMeters>
          </Trackpoint>
          <Trackpoint>
            <Time>2022-07-10T11:14:51.000Z</Time>
            <Position>
              <LatitudeDegrees>42.7614912204444408416748046875</LatitudeDegrees>
              <LongitudeDegrees>-0.226185657083988189697265625</LongitudeDegrees>
            </Position>
            <AltitudeMeters>1884.199951171875</AltitudeMeters>
            <DistanceMeters>37483.429725001</DistanceMeters>
          </Trackpoint>
          <Trackpoint>
            <Time>2022-07-10T11:14:52.000Z</Time>
            <Position>
              <LatitudeDegrees>42.76150010526180267333984375</LatitudeDegrees>
              <LongitudeDegrees>-0.22619001567363739013671875</LongitudeDegrees>
            </Position>
            <AltitudeMeters>1884</AltitudeMeters>
            <DistanceMeters>37484.479329367</DistanceMeters>
          </Trackpoint>
          <Trackpoint>
            <Time>2022-07-10T11:14:53.000Z</Time>
            <Position>
              <LatitudeDegrees>42.76150655932724475860595703125</LatitudeDegrees>
              <LongitudeDegrees>-0.22618456743657588958740234375</LongitudeDegrees>
            </Position>
            <AltitudeMeters>1884</AltitudeMeters>
            <DistanceMeters>37485.318582585</DistanceMeters>
          </Trackpoint>
          <Trackpoint>
            <Time>2022-07-10T11:14:59.000Z</Time>
            <Position>
              <LatitudeDegrees>42.76158803142607212066650390625</LatitudeDegrees>
              <LongitudeDegrees>-0.2261653728783130645751953125</LongitudeDegrees>
            </Position>
            <AltitudeMeters>1884.199951171875</AltitudeMeters>
            <DistanceMeters>37494.520486019</DistanceMeters>
          </Trackpoint>
          <Trackpoint>
            <Time>2022-07-10T11:15:02.000Z</Time>
            <Position>
              <LatitudeDegrees>42.7616109140217304229736328125</LatitudeDegrees>
              <LongitudeDegrees>-0.2261449210345745086669921875</LongitudeDegrees>
            </Position>
            <AltitudeMeters>1883</AltitudeMeters>
            <DistanceMeters>37497.56727426</DistanceMeters>
          </Trackpoint>
          <Trackpoint>
            <Time>2022-07-10T11:15:03.000Z</Time>
            <Position>
              <LatitudeDegrees>42.76161803863942623138427734375</LatitudeDegrees>
              <LongitudeDegrees>-0.22614014334976673126220703125</LongitudeDegrees>
            </Position>
            <AltitudeMeters>1882.800048828125</AltitudeMeters>
            <DistanceMeters>37498.453624445</DistanceMeters>
          </Trackpoint>
          <Trackpoint>
            <Time>2022-07-10T11:15:04.000Z</Time>
            <Position>
              <LatitudeDegrees>42.76162491180002689361572265625</LatitudeDegrees>
              <LongitudeDegrees>-0.2261402271687984466552734375</LongitudeDegrees>
            </Position>
            <AltitudeMeters>1882.800048828125</AltitudeMeters>
            <DistanceMeters>37499.21383816</DistanceMeters>
          </Trackpoint>
          <Trackpoint>
            <Time>2022-07-10T11:15:06.000Z</Time>
            <Position>
              <LatitudeDegrees>42.76165005750954151153564453125</LatitudeDegrees>
              <LongitudeDegrees>-0.22614114917814731597900390625</LongitudeDegrees>
            </Position>
            <AltitudeMeters>1882.5999755859375</AltitudeMeters>
            <DistanceMeters>37502.013499988</DistanceMeters>
          </Trackpoint>
          <Trackpoint>
            <Time>2022-07-10T11:15:07.000Z</Time>
            <Position>
              <LatitudeDegrees>42.76165944524109363555908203125</LatitudeDegrees>
              <LongitudeDegrees>-0.22614014334976673126220703125</LongitudeDegrees>
            </Position>
            <AltitudeMeters>1882.5999755859375</AltitudeMeters>
            <DistanceMeters>37503.063104355</DistanceMeters>
          </Trackpoint>
          <Trackpoint>
            <Time>2022-07-10T11:15:10.000Z</Time>
            <Position>
              <LatitudeDegrees>42.76167319156229496002197265625</LatitudeDegrees>
              <LongitudeDegrees>-0.226156152784824371337890625</LongitudeDegrees>
            </Position>
            <AltitudeMeters>1882.4000244140625</AltitudeMeters>
            <DistanceMeters>37505.074440788</DistanceMeters>
          </Trackpoint>
          <Trackpoint>
            <Time>2022-07-10T11:15:12.000Z</Time>
            <Position>
              <LatitudeDegrees>42.76167654432356357574462890625</LatitudeDegrees>
              <LongitudeDegrees>-0.2261801250278949737548828125</LongitudeDegrees>
            </Position>
            <AltitudeMeters>1881.4000244140625</AltitudeMeters>
            <DistanceMeters>37507.067737965</DistanceMeters>
          </Trackpoint>
          <Trackpoint>
            <Time>2022-07-10T11:15:15.000Z</Time>
            <Position>
              <LatitudeDegrees>42.76168274693191051483154296875</LatitudeDegrees>
              <LongitudeDegrees>-0.22621021606028079986572265625</LongitudeDegrees>
            </Position>
            <AltitudeMeters>1880.199951171875</AltitudeMeters>
            <DistanceMeters>37509.621111261</DistanceMeters>
          </Trackpoint>
          <Trackpoint>
            <Time>2022-07-10T11:15:18.000Z</Time>
            <Position>
              <LatitudeDegrees>42.76168383657932281494140625</LatitudeDegrees>
              <LongitudeDegrees>-0.226214490830898284912109375</LongitudeDegrees>
            </Position>
            <AltitudeMeters>1879.199951171875</AltitudeMeters>
            <DistanceMeters>37509.976668669</DistanceMeters>
          </Trackpoint>
          <Trackpoint>
            <Time>2022-07-10T11:15:19.000Z</Time>
            <Position>
              <LatitudeDegrees>42.76168375276029109954833984375</LatitudeDegrees>
              <LongitudeDegrees>-0.226219855248928070068359375</LongitudeDegrees>
            </Position>
            <AltitudeMeters>1879</AltitudeMeters>
            <DistanceMeters>37510.401641055</DistanceMeters>
          </Trackpoint>
          <Trackpoint>
            <Time>2022-07-10T11:15:23.000Z</Time>
            <Position>
              <LatitudeDegrees>42.7616850100457668304443359375</LatitudeDegrees>
              <LongitudeDegrees>-0.2262569032609462738037109375</LongitudeDegrees>
            </Position>
            <AltitudeMeters>1878.4000244140625</AltitudeMeters>
            <DistanceMeters>37513.433574072</DistanceMeters>
          </Trackpoint>
          <Trackpoint>
            <Time>2022-07-10T11:15:24.000Z</Time>
            <Position>
              <LatitudeDegrees>42.76168308220803737640380859375</LatitudeDegrees>
              <LongitudeDegrees>-0.226265452802181243896484375</LongitudeDegrees>
            </Position>
            <AltitudeMeters>1878</AltitudeMeters>
            <DistanceMeters>37514.169647837</DistanceMeters>
          </Trackpoint>
          <Trackpoint>
            <Time>2022-07-10T11:15:25.000Z</Time>
            <Position>
              <LatitudeDegrees>42.76168123818933963775634765625</LatitudeDegrees>
              <LongitudeDegrees>-0.2262778580188751220703125</LongitudeDegrees>
            </Position>
            <AltitudeMeters>1877.5999755859375</AltitudeMeters>
            <DistanceMeters>37515.210613337</DistanceMeters>
          </Trackpoint>
          <Trackpoint>
            <Time>2022-07-10T11:15:26.000Z</Time>
            <Position>
              <LatitudeDegrees>42.761681489646434783935546875</LatitudeDegrees>
              <LongitudeDegrees>-0.22629453800618648529052734375</LongitudeDegrees>
            </Position>
            <AltitudeMeters>1877.199951171875</AltitudeMeters>
            <DistanceMeters>37516.57450327</DistanceMeters>
          </Trackpoint>
          <Trackpoint>
            <Time>2022-07-10T11:15:27.000Z</Time>
            <Position>
              <LatitudeDegrees>42.76168274693191051483154296875</LatitudeDegrees>
              <LongitudeDegrees>-0.226309038698673248291015625</LongitudeDegrees>
            </Position>
            <AltitudeMeters>1876.5999755859375</AltitudeMeters>
            <DistanceMeters>37517.761386552</DistanceMeters>
          </Trackpoint>
          <Trackpoint>
            <Time>2022-07-10T11:15:29.000Z</Time>
            <Position>
              <LatitudeDegrees>42.7616813220083713531494140625</LatitudeDegrees>
              <LongitudeDegrees>-0.22634969092905521392822265625</LongitudeDegrees>
            </Position>
            <AltitudeMeters>1875</AltitudeMeters>
            <DistanceMeters>37521.085963753</DistanceMeters>
          </Trackpoint>
          <Trackpoint>
            <Time>2022-07-10T11:15:32.000Z</Time>
            <Position>
              <LatitudeDegrees>42.76167604140937328338623046875</LatitudeDegrees>
              <LongitudeDegrees>-0.2263853140175342559814453125</LongitudeDegrees>
            </Position>
            <AltitudeMeters>1873.800048828125</AltitudeMeters>
            <DistanceMeters>37524.054693213</DistanceMeters>
          </Trackpoint>
          <Trackpoint>
            <Time>2022-07-10T11:15:34.000Z</Time>
            <Position>
              <LatitudeDegrees>42.7616638876497745513916015625</LatitudeDegrees>
              <LongitudeDegrees>-0.22639696486294269561767578125</LongitudeDegrees>
            </Position>
            <AltitudeMeters>1873.199951171875</AltitudeMeters>
            <DistanceMeters>37525.706081443</DistanceMeters>
          </Trackpoint>
          <Trackpoint>
            <Time>2022-07-10T11:15:35.000Z</Time>
            <Position>
              <LatitudeDegrees>42.761660031974315643310546875</LatitudeDegrees>
              <LongitudeDegrees>-0.2264034189283847808837890625</LongitudeDegrees>
            </Position>
            <AltitudeMeters>1873</AltitudeMeters>
            <DistanceMeters>37526.391328826</DistanceMeters>
          </Trackpoint>
          <Trackpoint>
            <Time>2022-07-10T11:15:36.000Z</Time>
            <Position>
              <LatitudeDegrees>42.76165810413658618927001953125</LatitudeDegrees>
              <LongitudeDegrees>-0.22640652023255825042724609375</LongitudeDegrees>
            </Position>
            <AltitudeMeters>1872.800048828125</AltitudeMeters>
            <DistanceMeters>37526.72051102</DistanceMeters>
          </Trackpoint>
          <Trackpoint>
            <Time>2022-07-10T11:15:40.000Z</Time>
            <Position>
              <LatitudeDegrees>42.76166866533458232879638671875</LatitudeDegrees>
              <LongitudeDegrees>-0.22642730735242366790771484375</LongitudeDegrees>
            </Position>
            <AltitudeMeters>1871.5999755859375</AltitudeMeters>
            <DistanceMeters>37528.787205521</DistanceMeters>
          </Trackpoint>
          <Trackpoint>
            <Time>2022-07-10T11:15:43.000Z</Time>
            <Position>
              <LatitudeDegrees>42.761665396392345428466796875</LatitudeDegrees>
              <LongitudeDegrees>-0.226459242403507232666015625</LongitudeDegrees>
            </Position>
            <AltitudeMeters>1870.199951171875</AltitudeMeters>
            <DistanceMeters>37531.420663079</DistanceMeters>
          </Trackpoint>
          <Trackpoint>
            <Time>2022-07-10T11:15:45.000Z</Time>
            <Position>
              <LatitudeDegrees>42.76165961287915706634521484375</LatitudeDegrees>
              <LongitudeDegrees>-0.2264895848929882049560546875</LongitudeDegrees>
            </Position>
            <AltitudeMeters>1869.199951171875</AltitudeMeters>
            <DistanceMeters>37533.981099662</DistanceMeters>
          </Trackpoint>
          <Trackpoint>
            <Time>2022-07-10T11:15:46.000Z</Time>
            <Position>
              <LatitudeDegrees>42.76165491901338100433349609375</LatitudeDegrees>
              <LongitudeDegrees>-0.2265060134232044219970703125</LongitudeDegrees>
            </Position>
            <AltitudeMeters>1868.5999755859375</AltitudeMeters>
            <DistanceMeters>37535.42225114</DistanceMeters>
          </Trackpoint>
          <Trackpoint>
            <Time>2022-07-10T11:15:47.000Z</Time>
            <Position>
              <LatitudeDegrees>42.76165324263274669647216796875</LatitudeDegrees>
              <LongitudeDegrees>-0.22651498205959796905517578125</LongitudeDegrees>
            </Position>
            <AltitudeMeters>1868.199951171875</AltitudeMeters>
            <DistanceMeters>37536.170492237</DistanceMeters>
          </Trackpoint>
          <Trackpoint>
            <Time>2022-07-10T11:15:48.000Z</Time>
            <Position>
              <LatitudeDegrees>42.76165156625211238861083984375</LatitudeDegrees>
              <LongitudeDegrees>-0.22652286104857921600341796875</LongitudeDegrees>
            </Position>
            <AltitudeMeters>1867.4000244140625</AltitudeMeters>
            <DistanceMeters>37536.842432579</DistanceMeters>
          </Trackpoint>
          <Trackpoint>
            <Time>2022-07-10T11:15:49.000Z</Time>
            <Position>
              <LatitudeDegrees>42.76165022514760494232177734375</LatitudeDegrees>
              <LongitudeDegrees>-0.226530320942401885986328125</LongitudeDegrees>
            </Position>
            <AltitudeMeters>1866.800048828125</AltitudeMeters>
            <DistanceMeters>37537.472768492</DistanceMeters>
          </Trackpoint>
          <Trackpoint>
            <Time>2022-07-10T11:15:51.000Z</Time>
            <Position>
              <LatitudeDegrees>42.76164704002439975738525390625</LatitudeDegrees>
              <LongitudeDegrees>-0.22654348053038120269775390625</LongitudeDegrees>
            </Position>
            <AltitudeMeters>1866</AltitudeMeters>
            <DistanceMeters>37538.60912272</DistanceMeters>
          </Trackpoint>
          <Trackpoint>
            <Time>2022-07-10T11:15:53.000Z</Time>
            <Position>
              <LatitudeDegrees>42.761643268167972564697265625</LatitudeDegrees>
              <LongitudeDegrees>-0.2265514433383941650390625</LongitudeDegrees>
            </Position>
            <AltitudeMeters>1865.5999755859375</AltitudeMeters>
            <DistanceMeters>37539.381123397</DistanceMeters>
          </Trackpoint>
          <Trackpoint>
            <Time>2022-07-10T11:15:57.000Z</Time>
            <Position>
              <LatitudeDegrees>42.76164603419601917266845703125</LatitudeDegrees>
              <LongitudeDegrees>-0.2265606634318828582763671875</LongitudeDegrees>
            </Position>
            <AltitudeMeters>1864.800048828125</AltitudeMeters>
            <DistanceMeters>37540.198574103</DistanceMeters>
          </Trackpoint>
          <Trackpoint>
            <Time>2022-07-10T11:15:59.000Z</Time>
            <Position>
              <LatitudeDegrees>42.76165039278566837310791015625</LatitudeDegrees>
              <LongitudeDegrees>-0.22656376473605632781982421875</LongitudeDegrees>
            </Position>
            <AltitudeMeters>1864.4000244140625</AltitudeMeters>
            <DistanceMeters>37540.744461017</DistanceMeters>
          </Trackpoint>
          <Trackpoint>
            <Time>2022-07-10T11:16:01.000Z</Time>
            <Position>
              <LatitudeDegrees>42.7616598643362522125244140625</LatitudeDegrees>
              <LongitudeDegrees>-0.22658807225525379180908203125</LongitudeDegrees>
            </Position>
            <AltitudeMeters>1863.4000244140625</AltitudeMeters>
            <DistanceMeters>37542.993203512</DistanceMeters>
          </Trackpoint>
          <Trackpoint>
            <Time>2022-07-10T11:16:02.000Z</Time>
            <Position>
              <LatitudeDegrees>42.761668078601360321044921875</LatitudeDegrees>
              <LongitudeDegrees>-0.22660818882286548614501953125</LongitudeDegrees>
            </Position>
            <AltitudeMeters>1863</AltitudeMeters>
            <DistanceMeters>37544.874636467</DistanceMeters>
          </Trackpoint>
          <Trackpoint>
            <Time>2022-07-10T11:16:04.000Z</Time>
            <Position>
              <LatitudeDegrees>42.761684171855449676513671875</LatitudeDegrees>
              <LongitudeDegrees>-0.2266421355307102203369140625</LongitudeDegrees>
            </Position>
            <AltitudeMeters>1861.800048828125</AltitudeMeters>
            <DistanceMeters>37548.176045601</DistanceMeters>
          </Trackpoint>
          <Trackpoint>
            <Time>2022-07-10T11:16:06.000Z</Time>
            <Position>
              <LatitudeDegrees>42.761698253452777862548828125</LatitudeDegrees>
              <LongitudeDegrees>-0.22666853852570056915283203125</LongitudeDegrees>
            </Position>
            <AltitudeMeters>1861</AltitudeMeters>
            <DistanceMeters>37550.840185253</DistanceMeters>
          </Trackpoint>
          <Trackpoint>
            <Time>2022-07-10T11:16:07.000Z</Time>
            <Position>
              <LatitudeDegrees>42.76170101948082447052001953125</LatitudeDegrees>
              <LongitudeDegrees>-0.2266702987253665924072265625</LongitudeDegrees>
            </Position>
            <AltitudeMeters>1860.5999755859375</AltitudeMeters>
            <DistanceMeters>37551.169367447</DistanceMeters>
          </Trackpoint>
          <Trackpoint>
            <Time>2022-07-10T11:16:09.000Z</Time>
            <Position>
              <LatitudeDegrees>42.7617195434868335723876953125</LatitudeDegrees>
              <LongitudeDegrees>-0.22667675279080867767333984375</LongitudeDegrees>
            </Position>
            <AltitudeMeters>1859.800048828125</AltitudeMeters>
            <DistanceMeters>37553.29847486</DistanceMeters>
          </Trackpoint>
          <Trackpoint>
            <Time>2022-07-10T11:16:10.000Z</Time>
            <Position>
              <LatitudeDegrees>42.76172582991421222686767578125</LatitudeDegrees>
              <LongitudeDegrees>-0.2266803570091724395751953125</LongitudeDegrees>
            </Position>
            <AltitudeMeters>1859.800048828125</AltitudeMeters>
            <DistanceMeters>37554.058688575</DistanceMeters>
          </Trackpoint>
          <Trackpoint>
            <Time>2022-07-10T11:16:11.000Z</Time>
            <Position>
              <LatitudeDegrees>42.761741839349269866943359375</LatitudeDegrees>
              <LongitudeDegrees>-0.22668546997010707855224609375</LongitudeDegrees>
            </Position>
            <AltitudeMeters>1859.4000244140625</AltitudeMeters>
            <DistanceMeters>37555.886563922</DistanceMeters>
          </Trackpoint>
          <Trackpoint>
            <Time>2022-07-10T11:16:13.000Z</Time>
            <Position>
              <LatitudeDegrees>42.76176564395427703857421875</LatitudeDegrees>
              <LongitudeDegrees>-0.226681195199489593505859375</LongitudeDegrees>
            </Position>
            <AltitudeMeters>1859</AltitudeMeters>
            <DistanceMeters>37558.557473953</DistanceMeters>
          </Trackpoint>
          <Trackpoint>
            <Time>2022-07-10T11:16:15.000Z</Time>
            <Position>
              <LatitudeDegrees>42.76178567670285701751708984375</LatitudeDegrees>
              <LongitudeDegrees>-0.22667281329631805419921875</LongitudeDegrees>
            </Position>
            <AltitudeMeters>1858.5999755859375</AltitudeMeters>
            <DistanceMeters>37560.892889584</DistanceMeters>
          </Trackpoint>
          <Trackpoint>
            <Time>2022-07-10T11:16:16.000Z</Time>
            <Position>
              <LatitudeDegrees>42.76179187931120395660400390625</LatitudeDegrees>
              <LongitudeDegrees>-0.22666870616376399993896484375</LongitudeDegrees>
            </Position>
            <AltitudeMeters>1858.4000244140625</AltitudeMeters>
            <DistanceMeters>37561.664890261</DistanceMeters>
          </Trackpoint>
          <Trackpoint>
            <Time>2022-07-10T11:16:17.000Z</Time>
            <Position>
              <LatitudeDegrees>42.761796154081821441650390625</LatitudeDegrees>
              <LongitudeDegrees>-0.22666216827929019927978515625</LongitudeDegrees>
            </Position>
            <AltitudeMeters>1858.199951171875</AltitudeMeters>
            <DistanceMeters>37562.382326222</DistanceMeters>
          </Trackpoint>
          <Trackpoint>
            <Time>2022-07-10T11:16:21.000Z</Time>
            <Position>
              <LatitudeDegrees>42.7618107385933399200439453125</LatitudeDegrees>
              <LongitudeDegrees>-0.2266662754118442535400390625</LongitudeDegrees>
            </Position>
            <AltitudeMeters>1857.199951171875</AltitudeMeters>
            <DistanceMeters>37564.039173601</DistanceMeters>
          </Trackpoint>
          <Trackpoint>
            <Time>2022-07-10T11:16:22.000Z</Time>
            <Position>
              <LatitudeDegrees>42.7618120796978473663330078125</LatitudeDegrees>
              <LongitudeDegrees>-0.226669795811176300048828125</LongitudeDegrees>
            </Position>
            <AltitudeMeters>1857.199951171875</AltitudeMeters>
            <DistanceMeters>37564.354341558</DistanceMeters>
          </Trackpoint>
          <Trackpoint>
            <Time>2022-07-10T11:16:23.000Z</Time>
            <Position>
              <LatitudeDegrees>42.76181333698332309722900390625</LatitudeDegrees>
              <LongitudeDegrees>-0.22667683660984039306640625</LongitudeDegrees>
            </Position>
            <AltitudeMeters>1856.800048828125</AltitudeMeters>
            <DistanceMeters>37564.940125566</DistanceMeters>
          </Trackpoint>
          <Trackpoint>
            <Time>2022-07-10T11:16:24.000Z</Time>
            <Position>
              <LatitudeDegrees>42.7618127502501010894775390625</LatitudeDegrees>
              <LongitudeDegrees>-0.22668278776109218597412109375</LongitudeDegrees>
            </Position>
            <AltitudeMeters>1856.5999755859375</AltitudeMeters>
            <DistanceMeters>37565.424668637</DistanceMeters>
          </Trackpoint>
          <Trackpoint>
            <Time>2022-07-10T11:16:26.000Z</Time>
            <Position>
              <LatitudeDegrees>42.7618033625185489654541015625</LatitudeDegrees>
              <LongitudeDegrees>-0.2266920916736125946044921875</LongitudeDegrees>
            </Position>
            <AltitudeMeters>1856</AltitudeMeters>
            <DistanceMeters>37566.71717169</DistanceMeters>
          </Trackpoint>
          <Trackpoint>
            <Time>2022-07-10T11:16:28.000Z</Time>
            <Position>
              <LatitudeDegrees>42.76178710162639617919921875</LatitudeDegrees>
              <LongitudeDegrees>-0.2267096936702728271484375</LongitudeDegrees>
            </Position>
            <AltitudeMeters>1855.5999755859375</AltitudeMeters>
            <DistanceMeters>37569.029271441</DistanceMeters>
          </Trackpoint>
          <Trackpoint>
            <Time>2022-07-10T11:16:31.000Z</Time>
            <Position>
              <LatitudeDegrees>42.7617594413459300994873046875</LatitudeDegrees>
              <LongitudeDegrees>-0.22675202228128910064697265625</LongitudeDegrees>
            </Position>
            <AltitudeMeters>1854.800048828125</AltitudeMeters>
            <DistanceMeters>37573.659325595</DistanceMeters>
          </Trackpoint>
          <Trackpoint>
            <Time>2022-07-10T11:16:35.000Z</Time>
            <Position>
              <LatitudeDegrees>42.76172465644776821136474609375</LatitudeDegrees>
              <LongitudeDegrees>-0.22680482827126979827880859375</LongitudeDegrees>
            </Position>
            <AltitudeMeters>1853.5999755859375</AltitudeMeters>
            <DistanceMeters>37579.455955172</DistanceMeters>
          </Trackpoint>
          <Trackpoint>
            <Time>2022-07-10T11:16:38.000Z</Time>
            <Position>
              <LatitudeDegrees>42.7617032825946807861328125</LatitudeDegrees>
              <LongitudeDegrees>-0.2268392778933048248291015625</LongitudeDegrees>
            </Position>
            <AltitudeMeters>1852.4000244140625</AltitudeMeters>
            <DistanceMeters>37583.141227885</DistanceMeters>
          </Trackpoint>
          <Trackpoint>
            <Time>2022-07-10T11:16:41.000Z</Time>
            <Position>
              <LatitudeDegrees>42.76168978773057460784912109375</LatitudeDegrees>
              <LongitudeDegrees>-0.22686802782118320465087890625</LongitudeDegrees>
            </Position>
            <AltitudeMeters>1851.800048828125</AltitudeMeters>
            <DistanceMeters>37585.927958181</DistanceMeters>
          </Trackpoint>
          <Trackpoint>
            <Time>2022-07-10T11:16:42.000Z</Time>
            <Position>
              <LatitudeDegrees>42.76168626733124256134033203125</LatitudeDegrees>
              <LongitudeDegrees>-0.226876325905323028564453125</LongitudeDegrees>
            </Position>
            <AltitudeMeters>1851.5999755859375</AltitudeMeters>
            <DistanceMeters>37586.711568542</DistanceMeters>
          </Trackpoint>
          <Trackpoint>
            <Time>2022-07-10T11:16:43.000Z</Time>
            <Position>
              <LatitudeDegrees>42.76168241165578365325927734375</LatitudeDegrees>
              <LongitudeDegrees>-0.22688965313136577606201171875</LongitudeDegrees>
            </Position>
            <AltitudeMeters>1851</AltitudeMeters>
            <DistanceMeters>37587.886984084</DistanceMeters>
          </Trackpoint>
          <Trackpoint>
            <Time>2022-07-10T11:16:45.000Z</Time>
            <Position>
              <LatitudeDegrees>42.76166950352489948272705078125</LatitudeDegrees>
              <LongitudeDegrees>-0.2269056625664234161376953125</LongitudeDegrees>
            </Position>
            <AltitudeMeters>1850.5999755859375</AltitudeMeters>
            <DistanceMeters>37589.832132415</DistanceMeters>
          </Trackpoint>
          <Trackpoint>
            <Time>2022-07-10T11:16:46.000Z</Time>
            <Position>
              <LatitudeDegrees>42.76166237890720367431640625</LatitudeDegrees>
              <LongitudeDegrees>-0.2269157208502292633056640625</LongitudeDegrees>
            </Position>
            <AltitudeMeters>1850.4000244140625</AltitudeMeters>
            <DistanceMeters>37590.972452988</DistanceMeters>
          </Trackpoint>
          <Trackpoint>
            <Time>2022-07-10T11:16:47.000Z</Time>
            <Position>
              <LatitudeDegrees>42.76165575720369815826416015625</LatitudeDegrees>
              <LongitudeDegrees>-0.226926617324352264404296875</LongitudeDegrees>
            </Position>
            <AltitudeMeters>1850.199951171875</AltitudeMeters>
            <DistanceMeters>37592.128502863</DistanceMeters>
          </Trackpoint>
          <Trackpoint>
            <Time>2022-07-10T11:16:49.000Z</Time>
            <Position>
              <LatitudeDegrees>42.7616437710821628570556640625</LatitudeDegrees>
              <LongitudeDegrees>-0.2269462309777736663818359375</LongitudeDegrees>
            </Position>
            <AltitudeMeters>1849.800048828125</AltitudeMeters>
            <DistanceMeters>37594.214766712</DistanceMeters>
          </Trackpoint>
          <Trackpoint>
            <Time>2022-07-10T11:16:50.000Z</Time>
            <Position>
              <LatitudeDegrees>42.76163731701672077178955078125</LatitudeDegrees>
              <LongitudeDegrees>-0.22695721127092838287353515625</LongitudeDegrees>
            </Position>
            <AltitudeMeters>1849.5999755859375</AltitudeMeters>
            <DistanceMeters>37595.36297887</DistanceMeters>
          </Trackpoint>
          <Trackpoint>
            <Time>2022-07-10T11:16:52.000Z</Time>
            <Position>
              <LatitudeDegrees>42.7616263367235660552978515625</LatitudeDegrees>
              <LongitudeDegrees>-0.22698386572301387786865234375</LongitudeDegrees>
            </Position>
            <AltitudeMeters>1849</AltitudeMeters>
            <DistanceMeters>37597.859126451</DistanceMeters>
          </Trackpoint>
          <Trackpoint>
            <Time>2022-07-10T11:16:53.000Z</Time>
            <Position>
              <LatitudeDegrees>42.76162038557231426239013671875</LatitudeDegrees>
              <LongitudeDegrees>-0.22699694149196147918701171875</LongitudeDegrees>
            </Position>
            <AltitudeMeters>1848.5999755859375</AltitudeMeters>
            <DistanceMeters>37599.116211722</DistanceMeters>
          </Trackpoint>
          <Trackpoint>
            <Time>2022-07-10T11:16:54.000Z</Time>
            <Position>
              <LatitudeDegrees>42.76161099784076213836669921875</LatitudeDegrees>
              <LongitudeDegrees>-0.22700699977576732635498046875</LongitudeDegrees>
            </Position>
            <AltitudeMeters>1848.5999755859375</AltitudeMeters>
            <DistanceMeters>37600.446585723</DistanceMeters>
          </Trackpoint>
          <Trackpoint>
            <Time>2022-07-10T11:16:58.000Z</Time>
            <Position>
              <LatitudeDegrees>42.76157855987548828125</LatitudeDegrees>
              <LongitudeDegrees>-0.2270320616662502288818359375</LongitudeDegrees>
            </Position>
            <AltitudeMeters>1848.199951171875</AltitudeMeters>
            <DistanceMeters>37604.597415261</DistanceMeters>
          </Trackpoint>
          <Trackpoint>
            <Time>2022-07-10T11:16:59.000Z</Time>
            <Position>
              <LatitudeDegrees>42.7615678310394287109375</LatitudeDegrees>
              <LongitudeDegrees>-0.22703759372234344482421875</LongitudeDegrees>
            </Position>
            <AltitudeMeters>1847.800048828125</AltitudeMeters>
            <DistanceMeters>37605.879395726</DistanceMeters>
          </Trackpoint>
          <Trackpoint>
            <Time>2022-07-10T11:17:00.000Z</Time>
            <Position>
              <LatitudeDegrees>42.76155919767916202545166015625</LatitudeDegrees>
              <LongitudeDegrees>-0.22704270668327808380126953125</LongitudeDegrees>
            </Position>
            <AltitudeMeters>1847.5999755859375</AltitudeMeters>
            <DistanceMeters>37606.929000093</DistanceMeters>
          </Trackpoint>
          <Trackpoint>
            <Time>2022-07-10T11:17:01.000Z</Time>
            <Position>
              <LatitudeDegrees>42.76154763065278530120849609375</LatitudeDegrees>
              <LongitudeDegrees>-0.22704874165356159210205078125</LongitudeDegrees>
            </Position>
            <AltitudeMeters>1847.4000244140625</AltitudeMeters>
            <DistanceMeters>37608.312609939</DistanceMeters>
          </Trackpoint>
          <Trackpoint>
            <Time>2022-07-10T11:17:02.000Z</Time>
            <Position>
              <LatitudeDegrees>42.7615369856357574462890625</LatitudeDegrees>
              <LongitudeDegrees>-0.22705276496708393096923828125</LongitudeDegrees>
            </Position>
            <AltitudeMeters>1847.199951171875</AltitudeMeters>
            <DistanceMeters>37609.544296929</DistanceMeters>
          </Trackpoint>
          <Trackpoint>
            <Time>2022-07-10T11:17:04.000Z</Time>
            <Position>
              <LatitudeDegrees>42.76150840334594249725341796875</LatitudeDegrees>
              <LongitudeDegrees>-0.2270555309951305389404296875</LongitudeDegrees>
            </Position>
            <AltitudeMeters>1846.199951171875</AltitudeMeters>
            <DistanceMeters>37612.733006084</DistanceMeters>
          </Trackpoint>
          <Trackpoint>
            <Time>2022-07-10T11:17:06.000Z</Time>
            <Position>
              <LatitudeDegrees>42.76147621683776378631591796875</LatitudeDegrees>
              <LongitudeDegrees>-0.2270696125924587249755859375</LongitudeDegrees>
            </Position>
            <AltitudeMeters>1846</AltitudeMeters>
            <DistanceMeters>37616.495871995</DistanceMeters>
          </Trackpoint>
          <Trackpoint>
            <Time>2022-07-10T11:17:07.000Z</Time>
            <Position>
              <LatitudeDegrees>42.7614640630781650543212890625</LatitudeDegrees>
              <LongitudeDegrees>-0.2270796708762645721435546875</LongitudeDegrees>
            </Position>
            <AltitudeMeters>1845.800048828125</AltitudeMeters>
            <DistanceMeters>37618.080283953</DistanceMeters>
          </Trackpoint>
          <Trackpoint>
            <Time>2022-07-10T11:17:09.000Z</Time>
            <Position>
              <LatitudeDegrees>42.76144302450120449066162109375</LatitudeDegrees>
              <LongitudeDegrees>-0.22708998061716556549072265625</LongitudeDegrees>
            </Position>
            <AltitudeMeters>1845.4000244140625</AltitudeMeters>
            <DistanceMeters>37620.570999215</DistanceMeters>
          </Trackpoint>
          <Trackpoint>
            <Time>2022-07-10T11:17:10.000Z</Time>
            <Position>
              <LatitudeDegrees>42.76143346913158893585205078125</LatitudeDegrees>
              <LongitudeDegrees>-0.22709283046424388885498046875</LongitudeDegrees>
            </Position>
            <AltitudeMeters>1845</AltitudeMeters>
            <DistanceMeters>37621.662773043</DistanceMeters>
          </Trackpoint>
          <Trackpoint>
            <Time>2022-07-10T11:17:12.000Z</Time>
            <Position>
              <LatitudeDegrees>42.76141620241105556488037109375</LatitudeDegrees>
              <LongitudeDegrees>-0.22709903307259082794189453125</LongitudeDegrees>
            </Position>
            <AltitudeMeters>1843.800048828125</AltitudeMeters>
            <DistanceMeters>37623.651534839</DistanceMeters>
          </Trackpoint>
          <Trackpoint>
            <Time>2022-07-10T11:17:14.000Z</Time>
            <Position>
              <LatitudeDegrees>42.7613980136811733245849609375</LatitudeDegrees>
              <LongitudeDegrees>-0.227113701403141021728515625</LongitudeDegrees>
            </Position>
            <AltitudeMeters>1843.4000244140625</AltitudeMeters>
            <DistanceMeters>37626.002365922</DistanceMeters>
          </Trackpoint>
          <Trackpoint>
            <Time>2022-07-10T11:17:16.000Z</Time>
            <Position>
              <LatitudeDegrees>42.761368341743946075439453125</LatitudeDegrees>
              <LongitudeDegrees>-0.22714563645422458648681640625</LongitudeDegrees>
            </Position>
            <AltitudeMeters>1842.5999755859375</AltitudeMeters>
            <DistanceMeters>37630.211523793</DistanceMeters>
          </Trackpoint>
          <Trackpoint>
            <Time>2022-07-10T11:17:19.000Z</Time>
            <Position>
              <LatitudeDegrees>42.76132266037166118621826171875</LatitudeDegrees>
              <LongitudeDegrees>-0.22717773914337158203125</LongitudeDegrees>
            </Position>
            <AltitudeMeters>1842</AltitudeMeters>
            <DistanceMeters>37635.933678736</DistanceMeters>
          </Trackpoint>
          <Trackpoint>
            <Time>2022-07-10T11:17:21.000Z</Time>
            <Position>
              <LatitudeDegrees>42.76129600591957569122314453125</LatitudeDegrees>
              <LongitudeDegrees>-0.22719877772033214569091796875</LongitudeDegrees>
            </Position>
            <AltitudeMeters>1841.800048828125</AltitudeMeters>
            <DistanceMeters>37639.362550202</DistanceMeters>
          </Trackpoint>
          <Trackpoint>
            <Time>2022-07-10T11:17:22.000Z</Time>
            <Position>
              <LatitudeDegrees>42.76128510944545269012451171875</LatitudeDegrees>
              <LongitudeDegrees>-0.2272097580134868621826171875</LongitudeDegrees>
            </Position>
            <AltitudeMeters>1841.5999755859375</AltitudeMeters>
            <DistanceMeters>37640.871052527</DistanceMeters>
          </Trackpoint>
          <Trackpoint>
            <Time>2022-07-10T11:17:23.000Z</Time>
            <Position>
              <LatitudeDegrees>42.76127471588551998138427734375</LatitudeDegrees>
              <LongitudeDegrees>-0.22721990011632442474365234375</LongitudeDegrees>
            </Position>
            <AltitudeMeters>1841.5999755859375</AltitudeMeters>
            <DistanceMeters>37642.293282158</DistanceMeters>
          </Trackpoint>
          <Trackpoint>
            <Time>2022-07-10T11:17:26.000Z</Time>
            <Position>
              <LatitudeDegrees>42.76124437339603900909423828125</LatitudeDegrees>
              <LongitudeDegrees>-0.2272513322532176971435546875</LongitudeDegrees>
            </Position>
            <AltitudeMeters>1840.4000244140625</AltitudeMeters>
            <DistanceMeters>37646.535562482</DistanceMeters>
          </Trackpoint>
          <Trackpoint>
            <Time>2022-07-10T11:17:28.000Z</Time>
            <Position>
              <LatitudeDegrees>42.76122174225747585296630859375</LatitudeDegrees>
              <LongitudeDegrees>-0.22727438248693943023681640625</LongitudeDegrees>
            </Position>
            <AltitudeMeters>1839.4000244140625</AltitudeMeters>
            <DistanceMeters>37649.681506503</DistanceMeters>
          </Trackpoint>
          <Trackpoint>
            <Time>2022-07-10T11:17:29.000Z</Time>
            <Position>
              <LatitudeDegrees>42.76121034286916255950927734375</LatitudeDegrees>
              <LongitudeDegrees>-0.22728242911398410797119140625</LongitudeDegrees>
            </Position>
            <AltitudeMeters>1839.199951171875</AltitudeMeters>
            <DistanceMeters>37651.110071264</DistanceMeters>
          </Trackpoint>
          <Trackpoint>
            <Time>2022-07-10T11:17:30.000Z</Time>
            <Position>
              <LatitudeDegrees>42.76120162568986415863037109375</LatitudeDegrees>
              <LongitudeDegrees>-0.22729198448359966278076171875</LongitudeDegrees>
            </Position>
            <AltitudeMeters>1839.199951171875</AltitudeMeters>
            <DistanceMeters>37652.352706799</DistanceMeters>
          </Trackpoint>
          <Trackpoint>
            <Time>2022-07-10T11:17:33.000Z</Time>
            <Position>
              <LatitudeDegrees>42.761173211038112640380859375</LatitudeDegrees>
              <LongitudeDegrees>-0.2273143641650676727294921875</LongitudeDegrees>
            </Position>
            <AltitudeMeters>1838</AltitudeMeters>
            <DistanceMeters>37656.005986556</DistanceMeters>
          </Trackpoint>
          <Trackpoint>
            <Time>2022-07-10T11:17:34.000Z</Time>
            <Position>
              <LatitudeDegrees>42.76115988381206989288330078125</LatitudeDegrees>
              <LongitudeDegrees>-0.2273257635533809661865234375</LongitudeDegrees>
            </Position>
            <AltitudeMeters>1837.800048828125</AltitudeMeters>
            <DistanceMeters>37657.758192592</DistanceMeters>
          </Trackpoint>
          <Trackpoint>
            <Time>2022-07-10T11:17:36.000Z</Time>
            <Position>
              <LatitudeDegrees>42.761127613484859466552734375</LatitudeDegrees>
              <LongitudeDegrees>-0.2273559384047985076904296875</LongitudeDegrees>
            </Position>
            <AltitudeMeters>1837</AltitudeMeters>
            <DistanceMeters>37662.114936867</DistanceMeters>
          </Trackpoint>
          <Trackpoint>
            <Time>2022-07-10T11:17:38.000Z</Time>
            <Position>
              <LatitudeDegrees>42.7611090056598186492919921875</LatitudeDegrees>
              <LongitudeDegrees>-0.22736348211765289306640625</LongitudeDegrees>
            </Position>
            <AltitudeMeters>1836.5999755859375</AltitudeMeters>
            <DistanceMeters>37664.275619519</DistanceMeters>
          </Trackpoint>
          <Trackpoint>
            <Time>2022-07-10T11:17:40.000Z</Time>
            <Position>
              <LatitudeDegrees>42.76108679361641407012939453125</LatitudeDegrees>
              <LongitudeDegrees>-0.2273787371814250946044921875</LongitudeDegrees>
            </Position>
            <AltitudeMeters>1835.800048828125</AltitudeMeters>
            <DistanceMeters>37667.042839211</DistanceMeters>
          </Trackpoint>
          <Trackpoint>
            <Time>2022-07-10T11:17:43.000Z</Time>
            <Position>
              <LatitudeDegrees>42.76102862320840358734130859375</LatitudeDegrees>
              <LongitudeDegrees>-0.22740061394870281219482421875</LongitudeDegrees>
            </Position>
            <AltitudeMeters>1835.199951171875</AltitudeMeters>
            <DistanceMeters>37673.759554325</DistanceMeters>
          </Trackpoint>
          <Trackpoint>
            <Time>2022-07-10T11:17:44.000Z</Time>
            <Position>
              <LatitudeDegrees>42.76101420633494853973388671875</LatitudeDegrees>
              <LongitudeDegrees>-0.22740983404219150543212890625</LongitudeDegrees>
            </Position>
            <AltitudeMeters>1835.199951171875</AltitudeMeters>
            <DistanceMeters>37675.532254695</DistanceMeters>
          </Trackpoint>
          <Trackpoint>
            <Time>2022-07-10T11:17:46.000Z</Time>
            <Position>
              <LatitudeDegrees>42.76098503731191158294677734375</LatitudeDegrees>
              <LongitudeDegrees>-0.2274293638765811920166015625</LongitudeDegrees>
            </Position>
            <AltitudeMeters>1834.5999755859375</AltitudeMeters>
            <DistanceMeters>37679.149516196</DistanceMeters>
          </Trackpoint>
          <Trackpoint>
            <Time>2022-07-10T11:17:48.000Z</Time>
            <Position>
              <LatitudeDegrees>42.76096425019204616546630859375</LatitudeDegrees>
              <LongitudeDegrees>-0.22745727561414241790771484375</LongitudeDegrees>
            </Position>
            <AltitudeMeters>1834</AltitudeMeters>
            <DistanceMeters>37682.398540567</DistanceMeters>
          </Trackpoint>
          <Trackpoint>
            <Time>2022-07-10T11:17:50.000Z</Time>
            <Position>
              <LatitudeDegrees>42.76094597764313220977783203125</LatitudeDegrees>
              <LongitudeDegrees>-0.227487199008464813232421875</LongitudeDegrees>
            </Position>
            <AltitudeMeters>1833.5999755859375</AltitudeMeters>
            <DistanceMeters>37685.578742702</DistanceMeters>
          </Trackpoint>
          <Trackpoint>
            <Time>2022-07-10T11:17:51.000Z</Time>
            <Position>
              <LatitudeDegrees>42.76093910448253154754638671875</LatitudeDegrees>
              <LongitudeDegrees>-0.2275027893483638763427734375</LongitudeDegrees>
            </Position>
            <AltitudeMeters>1833.4000244140625</AltitudeMeters>
            <DistanceMeters>37687.066146053</DistanceMeters>
          </Trackpoint>
          <Trackpoint>
            <Time>2022-07-10T11:17:53.000Z</Time>
            <Position>
              <LatitudeDegrees>42.76092745363712310791015625</LatitudeDegrees>
              <LongitudeDegrees>-0.2275319583714008331298828125</LongitudeDegrees>
            </Position>
            <AltitudeMeters>1833.199951171875</AltitudeMeters>
            <DistanceMeters>37689.77898816</DistanceMeters>
          </Trackpoint>
          <Trackpoint>
            <Time>2022-07-10T11:17:56.000Z</Time>
            <Position>
              <LatitudeDegrees>42.76090540923178195953369140625</LatitudeDegrees>
              <LongitudeDegrees>-0.2275856025516986846923828125</LongitudeDegrees>
            </Position>
            <AltitudeMeters>1832.199951171875</AltitudeMeters>
            <DistanceMeters>37694.801938845</DistanceMeters>
          </Trackpoint>
          <Trackpoint>
            <Time>2022-07-10T11:17:58.000Z</Time>
            <Position>
              <LatitudeDegrees>42.7608914114534854888916015625</LatitudeDegrees>
              <LongitudeDegrees>-0.227627344429492950439453125</LongitudeDegrees>
            </Position>
            <AltitudeMeters>1831.5999755859375</AltitudeMeters>
            <DistanceMeters>37698.55037838</DistanceMeters>
          </Trackpoint>
          <Trackpoint>
            <Time>2022-07-10T11:18:00.000Z</Time>
            <Position>
              <LatitudeDegrees>42.7608692832291126251220703125</LatitudeDegrees>
              <LongitudeDegrees>-0.22766078822314739227294921875</LongitudeDegrees>
            </Position>
            <AltitudeMeters>1831.199951171875</AltitudeMeters>
            <DistanceMeters>37702.228292805</DistanceMeters>
          </Trackpoint>
          <Trackpoint>
            <Time>2022-07-10T11:18:04.000Z</Time>
            <Position>
              <LatitudeDegrees>42.76083483360707759857177734375</LatitudeDegrees>
              <LongitudeDegrees>-0.2277133427560329437255859375</LongitudeDegrees>
            </Position>
            <AltitudeMeters>1830.4000244140625</AltitudeMeters>
            <DistanceMeters>37707.985061043</DistanceMeters>
          </Trackpoint>
          <Trackpoint>
            <Time>2022-07-10T11:18:06.000Z</Time>
            <Position>
              <LatitudeDegrees>42.760818488895893096923828125</LatitudeDegrees>
              <LongitudeDegrees>-0.22774041630327701568603515625</LongitudeDegrees>
            </Position>
            <AltitudeMeters>1830.199951171875</AltitudeMeters>
            <DistanceMeters>37710.848504671</DistanceMeters>
          </Trackpoint>
          <Trackpoint>
            <Time>2022-07-10T11:18:07.000Z</Time>
            <Position>
              <LatitudeDegrees>42.76081144809722900390625</LatitudeDegrees>
              <LongitudeDegrees>-0.2277557551860809326171875</LongitudeDegrees>
            </Position>
            <AltitudeMeters>1830</AltitudeMeters>
            <DistanceMeters>37712.326773422</DistanceMeters>
          </Trackpoint>
          <Trackpoint>
            <Time>2022-07-10T11:18:08.000Z</Time>
            <Position>
              <LatitudeDegrees>42.76080046780407428741455078125</LatitudeDegrees>
              <LongitudeDegrees>-0.22777520120143890380859375</LongitudeDegrees>
            </Position>
            <AltitudeMeters>1829.4000244140625</AltitudeMeters>
            <DistanceMeters>37714.333615243</DistanceMeters>
          </Trackpoint>
          <Trackpoint>
            <Time>2022-07-10T11:18:10.000Z</Time>
            <Position>
              <LatitudeDegrees>42.7607787586748600006103515625</LatitudeDegrees>
              <LongitudeDegrees>-0.22780730389058589935302734375</LongitudeDegrees>
            </Position>
            <AltitudeMeters>1828.800048828125</AltitudeMeters>
            <DistanceMeters>37717.899333632</DistanceMeters>
          </Trackpoint>
          <Trackpoint>
            <Time>2022-07-10T11:18:14.000Z</Time>
            <Position>
              <LatitudeDegrees>42.760772891342639923095703125</LatitudeDegrees>
              <LongitudeDegrees>-0.22786798886954784393310546875</LongitudeDegrees>
            </Position>
            <AltitudeMeters>1828</AltitudeMeters>
            <DistanceMeters>37722.90066463</DistanceMeters>
          </Trackpoint>
          <Trackpoint>
            <Time>2022-07-10T11:18:16.000Z</Time>
            <Position>
              <LatitudeDegrees>42.76078605093061923980712890625</LatitudeDegrees>
              <LongitudeDegrees>-0.227910988032817840576171875</LongitudeDegrees>
            </Position>
            <AltitudeMeters>1827.800048828125</AltitudeMeters>
            <DistanceMeters>37726.706481575</DistanceMeters>
          </Trackpoint>
          <Trackpoint>
            <Time>2022-07-10T11:18:17.000Z</Time>
            <Position>
              <LatitudeDegrees>42.76079309172928333282470703125</LatitudeDegrees>
              <LongitudeDegrees>-0.2279225550591945648193359375</LongitudeDegrees>
            </Position>
            <AltitudeMeters>1827.800048828125</AltitudeMeters>
            <DistanceMeters>37727.930815144</DistanceMeters>
          </Trackpoint>
          <Trackpoint>
            <Time>2022-07-10T11:18:20.000Z</Time>
            <Position>
              <LatitudeDegrees>42.76081874035298824310302734375</LatitudeDegrees>
              <LongitudeDegrees>-0.22790000773966312408447265625</LongitudeDegrees>
            </Position>
            <AltitudeMeters>1826.800048828125</AltitudeMeters>
            <DistanceMeters>37731.327937117</DistanceMeters>
          </Trackpoint>
          <Trackpoint>
            <Time>2022-07-10T11:18:21.000Z</Time>
            <Position>
              <LatitudeDegrees>42.76082645170390605926513671875</LatitudeDegrees>
              <LongitudeDegrees>-0.22789933718740940093994140625</LongitudeDegrees>
            </Position>
            <AltitudeMeters>1826.5999755859375</AltitudeMeters>
            <DistanceMeters>37732.188440614</DistanceMeters>
          </Trackpoint>
          <Trackpoint>
            <Time>2022-07-10T11:18:23.000Z</Time>
            <Position>
              <LatitudeDegrees>42.76084556244313716888427734375</LatitudeDegrees>
              <LongitudeDegrees>-0.22790436632931232452392578125</LongitudeDegrees>
            </Position>
            <AltitudeMeters>1826.199951171875</AltitudeMeters>
            <DistanceMeters>37734.355383103</DistanceMeters>
          </Trackpoint>
          <Trackpoint>
            <Time>2022-07-10T11:18:25.000Z</Time>
            <Position>
              <LatitudeDegrees>42.76085981167852878570556640625</LatitudeDegrees>
              <LongitudeDegrees>-0.22791006602346897125244140625</LongitudeDegrees>
            </Position>
            <AltitudeMeters>1825.5999755859375</AltitudeMeters>
            <DistanceMeters>37736.006771333</DistanceMeters>
          </Trackpoint>
          <Trackpoint>
            <Time>2022-07-10T11:18:26.000Z</Time>
            <Position>
              <LatitudeDegrees>42.76086819358170032501220703125</LatitudeDegrees>
              <LongitudeDegrees>-0.2279104851186275482177734375</LongitudeDegrees>
            </Position>
            <AltitudeMeters>1825.199951171875</AltitudeMeters>
            <DistanceMeters>37736.94267593</DistanceMeters>
          </Trackpoint>
          <Trackpoint>
            <Time>2022-07-10T11:18:28.000Z</Time>
            <Position>
              <LatitudeDegrees>42.76088864542543888092041015625</LatitudeDegrees>
              <LongitudeDegrees>-0.227906294167041778564453125</LongitudeDegrees>
            </Position>
            <AltitudeMeters>1824.5999755859375</AltitudeMeters>
            <DistanceMeters>37739.243029119</DistanceMeters>
          </Trackpoint>
          <Trackpoint>
            <Time>2022-07-10T11:18:29.000Z</Time>
            <Position>
              <LatitudeDegrees>42.760896272957324981689453125</LatitudeDegrees>
              <LongitudeDegrees>-0.22790453396737575531005859375</LongitudeDegrees>
            </Position>
            <AltitudeMeters>1824.199951171875</AltitudeMeters>
            <DistanceMeters>37740.103532616</DistanceMeters>
          </Trackpoint>
          <Trackpoint>
            <Time>2022-07-10T11:18:31.000Z</Time>
            <Position>
              <LatitudeDegrees>42.76092032901942729949951171875</LatitudeDegrees>
              <LongitudeDegrees>-0.2279044501483440399169921875</LongitudeDegrees>
            </Position>
            <AltitudeMeters>1824</AltitudeMeters>
            <DistanceMeters>37742.77950919</DistanceMeters>
          </Trackpoint>
          <Trackpoint>
            <Time>2022-07-10T11:18:33.000Z</Time>
            <Position>
              <LatitudeDegrees>42.76093952357769012451171875</LatitudeDegrees>
              <LongitudeDegrees>-0.22791425697505474090576171875</LongitudeDegrees>
            </Position>
            <AltitudeMeters>1823.800048828125</AltitudeMeters>
            <DistanceMeters>37745.060150334</DistanceMeters>
          </Trackpoint>
          <Trackpoint>
            <Time>2022-07-10T11:18:34.000Z</Time>
            <Position>
              <LatitudeDegrees>42.76095033623278141021728515625</LatitudeDegrees>
              <LongitudeDegrees>-0.22792129777371883392333984375</LongitudeDegrees>
            </Position>
            <AltitudeMeters>1823.4000244140625</AltitudeMeters>
            <DistanceMeters>37746.39729473</DistanceMeters>
          </Trackpoint>
          <Trackpoint>
            <Time>2022-07-10T11:18:36.000Z</Time>
            <Position>
              <LatitudeDegrees>42.7609651722013950347900390625</LatitudeDegrees>
              <LongitudeDegrees>-0.227914340794086456298828125</LongitudeDegrees>
            </Position>
            <AltitudeMeters>1823.199951171875</AltitudeMeters>
            <DistanceMeters>37748.144339618</DistanceMeters>
          </Trackpoint>
          <Trackpoint>
            <Time>2022-07-10T11:18:39.000Z</Time>
            <Position>
              <LatitudeDegrees>42.76098252274096012115478515625</LatitudeDegrees>
              <LongitudeDegrees>-0.22790151648223400115966796875</LongitudeDegrees>
            </Position>
            <AltitudeMeters>1822.4000244140625</AltitudeMeters>
            <DistanceMeters>37750.344367112</DistanceMeters>
          </Trackpoint>
          <Trackpoint>
            <Time>2022-07-10T11:18:40.000Z</Time>
            <Position>
              <LatitudeDegrees>42.7609866298735141754150390625</LatitudeDegrees>
              <LongitudeDegrees>-0.2279032766819000244140625</LongitudeDegrees>
            </Position>
            <AltitudeMeters>1822.199951171875</AltitudeMeters>
            <DistanceMeters>37750.819500684</DistanceMeters>
          </Trackpoint>
          <Trackpoint>
            <Time>2022-07-10T11:18:42.000Z</Time>
            <Position>
              <LatitudeDegrees>42.76099492795765399932861328125</LatitudeDegrees>
              <LongitudeDegrees>-0.22791392169892787933349609375</LongitudeDegrees>
            </Position>
            <AltitudeMeters>1821.5999755859375</AltitudeMeters>
            <DistanceMeters>37752.087315184</DistanceMeters>
          </Trackpoint>
          <Trackpoint>
            <Time>2022-07-10T11:18:43.000Z</Time>
            <Position>
              <LatitudeDegrees>42.76099928654730319976806640625</LatitudeDegrees>
              <LongitudeDegrees>-0.227926075458526611328125</LongitudeDegrees>
            </Position>
            <AltitudeMeters>1821.4000244140625</AltitudeMeters>
            <DistanceMeters>37753.187328931</DistanceMeters>
          </Trackpoint>
          <Trackpoint>
            <Time>2022-07-10T11:18:44.000Z</Time>
            <Position>
              <LatitudeDegrees>42.7610067464411258697509765625</LatitudeDegrees>
              <LongitudeDegrees>-0.2279393188655376434326171875</LongitudeDegrees>
            </Position>
            <AltitudeMeters>1821.4000244140625</AltitudeMeters>
            <DistanceMeters>37754.551218863</DistanceMeters>
          </Trackpoint>
          <Trackpoint>
            <Time>2022-07-10T11:18:46.000Z</Time>
            <Position>
              <LatitudeDegrees>42.7610137872397899627685546875</LatitudeDegrees>
              <LongitudeDegrees>-0.22797326557338237762451171875</LongitudeDegrees>
            </Position>
            <AltitudeMeters>1821.199951171875</AltitudeMeters>
            <DistanceMeters>37757.433521819</DistanceMeters>
          </Trackpoint>
          <Trackpoint>
            <Time>2022-07-10T11:18:47.000Z</Time>
            <Position>
              <LatitudeDegrees>42.7610134519636631011962890625</LatitudeDegrees>
              <LongitudeDegrees>-0.2279849164187908172607421875</LongitudeDegrees>
            </Position>
            <AltitudeMeters>1820.4000244140625</AltitudeMeters>
            <DistanceMeters>37758.383788962</DistanceMeters>
          </Trackpoint>
          <Trackpoint>
            <Time>2022-07-10T11:18:48.000Z</Time>
            <Position>
              <LatitudeDegrees>42.76101420633494853973388671875</LatitudeDegrees>
              <LongitudeDegrees>-0.22799405269324779510498046875</LongitudeDegrees>
            </Position>
            <AltitudeMeters>1819.5999755859375</AltitudeMeters>
            <DistanceMeters>37759.13203006</DistanceMeters>
          </Trackpoint>
          <Trackpoint>
            <Time>2022-07-10T11:18:51.000Z</Time>
            <Position>
              <LatitudeDegrees>42.7610094286501407623291015625</LatitudeDegrees>
              <LongitudeDegrees>-0.228015594184398651123046875</LongitudeDegrees>
            </Position>
            <AltitudeMeters>1818</AltitudeMeters>
            <DistanceMeters>37760.969759253</DistanceMeters>
          </Trackpoint>
          <Trackpoint>
            <Time>2022-07-10T11:18:52.000Z</Time>
            <Position>
              <LatitudeDegrees>42.76101051829755306243896484375</LatitudeDegrees>
              <LongitudeDegrees>-0.22801986895501613616943359375</LongitudeDegrees>
            </Position>
            <AltitudeMeters>1817.5999755859375</AltitudeMeters>
            <DistanceMeters>37761.337796136</DistanceMeters>
          </Trackpoint>
          <Trackpoint>
            <Time>2022-07-10T11:18:54.000Z</Time>
            <Position>
              <LatitudeDegrees>42.76101320050656795501708984375</LatitudeDegrees>
              <LongitudeDegrees>-0.22804115898907184600830078125</LongitudeDegrees>
            </Position>
            <AltitudeMeters>1816.800048828125</AltitudeMeters>
            <DistanceMeters>37763.102839017</DistanceMeters>
          </Trackpoint>
          <Trackpoint>
            <Time>2022-07-10T11:18:56.000Z</Time>
            <Position>
              <LatitudeDegrees>42.76101286523044109344482421875</LatitudeDegrees>
              <LongitudeDegrees>-0.22803730331361293792724609375</LongitudeDegrees>
            </Position>
            <AltitudeMeters>1816.199951171875</AltitudeMeters>
            <DistanceMeters>37763.432021212</DistanceMeters>
          </Trackpoint>
          <Trackpoint>
            <Time>2022-07-10T11:18:57.000Z</Time>
            <Position>
              <LatitudeDegrees>42.76101730763912200927734375</LatitudeDegrees>
              <LongitudeDegrees>-0.22803696803748607635498046875</LongitudeDegrees>
            </Position>
            <AltitudeMeters>1816</AltitudeMeters>
            <DistanceMeters>37763.925794504</DistanceMeters>
          </Trackpoint>
          <Trackpoint>
            <Time>2022-07-10T11:18:58.000Z</Time>
            <Position>
              <LatitudeDegrees>42.7610178105533123016357421875</LatitudeDegrees>
              <LongitudeDegrees>-0.228044427931308746337890625</LongitudeDegrees>
            </Position>
            <AltitudeMeters>1815.5999755859375</AltitudeMeters>
            <DistanceMeters>37764.534262362</DistanceMeters>
          </Trackpoint>
          <Trackpoint>
            <Time>2022-07-10T11:18:59.000Z</Time>
            <Position>
              <LatitudeDegrees>42.76101923547685146331787109375</LatitudeDegrees>
              <LongitudeDegrees>-0.22804887033998966217041015625</LongitudeDegrees>
            </Position>
            <AltitudeMeters>1815.4000244140625</AltitudeMeters>
            <DistanceMeters>37764.914369219</DistanceMeters>
          </Trackpoint>
          <Trackpoint>
            <Time>2022-07-10T11:19:01.000Z</Time>
            <Position>
              <LatitudeDegrees>42.7610124461352825164794921875</LatitudeDegrees>
              <LongitudeDegrees>-0.22805993445217609405517578125</LongitudeDegrees>
            </Position>
            <AltitudeMeters>1815.199951171875</AltitudeMeters>
            <DistanceMeters>37766.093619732</DistanceMeters>
          </Trackpoint>
          <Trackpoint>
            <Time>2022-07-10T11:19:02.000Z</Time>
            <Position>
              <LatitudeDegrees>42.7610099315643310546875</LatitudeDegrees>
              <LongitudeDegrees>-0.2280690707266330718994140625</LongitudeDegrees>
            </Position>
            <AltitudeMeters>1815.199951171875</AltitudeMeters>
            <DistanceMeters>37766.899948142</DistanceMeters>
          </Trackpoint>
          <Trackpoint>
            <Time>2022-07-10T11:19:04.000Z</Time>
            <Position>
              <LatitudeDegrees>42.76100515387952327728271484375</LatitudeDegrees>
              <LongitudeDegrees>-0.2281116507947444915771484375</LongitudeDegrees>
            </Position>
            <AltitudeMeters>1815</AltitudeMeters>
            <DistanceMeters>37770.4197869</DistanceMeters>
          </Trackpoint>
          <Trackpoint>
            <Time>2022-07-10T11:19:05.000Z</Time>
            <Position>
              <LatitudeDegrees>42.7610037289559841156005859375</LatitudeDegrees>
              <LongitudeDegrees>-0.228120200335979461669921875</LongitudeDegrees>
            </Position>
            <AltitudeMeters>1814.4000244140625</AltitudeMeters>
            <DistanceMeters>37771.130901715</DistanceMeters>
          </Trackpoint>
          <Trackpoint>
            <Time>2022-07-10T11:19:06.000Z</Time>
            <Position>
              <LatitudeDegrees>42.76100766845047473907470703125</LatitudeDegrees>
              <LongitudeDegrees>-0.2281230501830577850341796875</LongitudeDegrees>
            </Position>
            <AltitudeMeters>1813.800048828125</AltitudeMeters>
            <DistanceMeters>37771.624675007</DistanceMeters>
          </Trackpoint>
          <Trackpoint>
            <Time>2022-07-10T11:19:08.000Z</Time>
            <Position>
              <LatitudeDegrees>42.76101722382009029388427734375</LatitudeDegrees>
              <LongitudeDegrees>-0.22812732495367527008056640625</LongitudeDegrees>
            </Position>
            <AltitudeMeters>1812.800048828125</AltitudeMeters>
            <DistanceMeters>37772.740986142</DistanceMeters>
          </Trackpoint>
          <Trackpoint>
            <Time>2022-07-10T11:19:09.000Z</Time>
            <Position>
              <LatitudeDegrees>42.76101772673428058624267578125</LatitudeDegrees>
              <LongitudeDegrees>-0.22813461720943450927734375</LongitudeDegrees>
            </Position>
            <AltitudeMeters>1812.5999755859375</AltitudeMeters>
            <DistanceMeters>37773.341987854</DistanceMeters>
          </Trackpoint>
          <Trackpoint>
            <Time>2022-07-10T11:19:11.000Z</Time>
            <Position>
              <LatitudeDegrees>42.7610325627028942108154296875</LatitudeDegrees>
              <LongitudeDegrees>-0.228151045739650726318359375</LongitudeDegrees>
            </Position>
            <AltitudeMeters>1811.5999755859375</AltitudeMeters>
            <DistanceMeters>37775.471095267</DistanceMeters>
          </Trackpoint>
          <Trackpoint>
            <Time>2022-07-10T11:19:12.000Z</Time>
            <Position>
              <LatitudeDegrees>42.7610362507402896881103515625</LatitudeDegrees>
              <LongitudeDegrees>-0.22815766744315624237060546875</LongitudeDegrees>
            </Position>
            <AltitudeMeters>1811.4000244140625</AltitudeMeters>
            <DistanceMeters>37776.156342649</DistanceMeters>
          </Trackpoint>
          <Trackpoint>
            <Time>2022-07-10T11:19:17.000Z</Time>
            <Position>
              <LatitudeDegrees>42.76104052551090717315673828125</LatitudeDegrees>
              <LongitudeDegrees>-0.22820209152996540069580078125</LongitudeDegrees>
            </Position>
            <AltitudeMeters>1811</AltitudeMeters>
            <DistanceMeters>37779.817030213</DistanceMeters>
          </Trackpoint>
          <Trackpoint>
            <Time>2022-07-10T11:19:18.000Z</Time>
            <Position>
              <LatitudeDegrees>42.76103935204446315765380859375</LatitudeDegrees>
              <LongitudeDegrees>-0.22820879705250263214111328125</LongitudeDegrees>
            </Position>
            <AltitudeMeters>1809.800048828125</AltitudeMeters>
            <DistanceMeters>37780.379215837</DistanceMeters>
          </Trackpoint>
          <Trackpoint>
            <Time>2022-07-10T11:19:19.000Z</Time>
            <Position>
              <LatitudeDegrees>42.76103599928319454193115234375</LatitudeDegrees>
              <LongitudeDegrees>-0.2282159216701984405517578125</LongitudeDegrees>
            </Position>
            <AltitudeMeters>1809</AltitudeMeters>
            <DistanceMeters>37781.07102076</DistanceMeters>
          </Trackpoint>
          <Trackpoint>
            <Time>2022-07-10T11:19:20.000Z</Time>
            <Position>
              <LatitudeDegrees>42.761032395064830780029296875</LatitudeDegrees>
              <LongitudeDegrees>-0.22822740487754344940185546875</LongitudeDegrees>
            </Position>
            <AltitudeMeters>1808.5999755859375</AltitudeMeters>
            <DistanceMeters>37782.094489796</DistanceMeters>
          </Trackpoint>
          <Trackpoint>
            <Time>2022-07-10T11:19:25.000Z</Time>
            <Position>
              <LatitudeDegrees>42.76100431568920612335205078125</LatitudeDegrees>
              <LongitudeDegrees>-0.22825858555734157562255859375</LongitudeDegrees>
            </Position>
            <AltitudeMeters>1807.5999755859375</AltitudeMeters>
            <DistanceMeters>37786.128371023</DistanceMeters>
          </Trackpoint>
          <Trackpoint>
            <Time>2022-07-10T11:19:28.000Z</Time>
            <Position>
              <LatitudeDegrees>42.760988138616085052490234375</LatitudeDegrees>
              <LongitudeDegrees>-0.2282591722905635833740234375</LongitudeDegrees>
            </Position>
            <AltitudeMeters>1807</AltitudeMeters>
            <DistanceMeters>37787.928870243</DistanceMeters>
          </Trackpoint>
          <Trackpoint>
            <Time>2022-07-10T11:19:30.000Z</Time>
            <Position>
              <LatitudeDegrees>42.7609799243509769439697265625</LatitudeDegrees>
              <LongitudeDegrees>-0.22827233187854290008544921875</LongitudeDegrees>
            </Position>
            <AltitudeMeters>1806.199951171875</AltitudeMeters>
            <DistanceMeters>37789.338344194</DistanceMeters>
          </Trackpoint>
          <Trackpoint>
            <Time>2022-07-10T11:19:31.000Z</Time>
            <Position>
              <LatitudeDegrees>42.76097497902810573577880859375</LatitudeDegrees>
              <LongitudeDegrees>-0.22828037850558757781982421875</LongitudeDegrees>
            </Position>
            <AltitudeMeters>1806</AltitudeMeters>
            <DistanceMeters>37790.198847691</DistanceMeters>
          </Trackpoint>
          <Trackpoint>
            <Time>2022-07-10T11:19:34.000Z</Time>
            <Position>
              <LatitudeDegrees>42.7609497494995594024658203125</LatitudeDegrees>
              <LongitudeDegrees>-0.2283329330384731292724609375</LongitudeDegrees>
            </Position>
            <AltitudeMeters>1805.199951171875</AltitudeMeters>
            <DistanceMeters>37795.329410315</DistanceMeters>
          </Trackpoint>
          <Trackpoint>
            <Time>2022-07-10T11:19:36.000Z</Time>
            <Position>
              <LatitudeDegrees>42.76093759573996067047119140625</LatitudeDegrees>
              <LongitudeDegrees>-0.2283624373376369476318359375</LongitudeDegrees>
            </Position>
            <AltitudeMeters>1804.5999755859375</AltitudeMeters>
            <DistanceMeters>37798.09336485</DistanceMeters>
          </Trackpoint>
          <Trackpoint>
            <Time>2022-07-10T11:19:37.000Z</Time>
            <Position>
              <LatitudeDegrees>42.76093273423612117767333984375</LatitudeDegrees>
              <LongitudeDegrees>-0.22838272154331207275390625</LongitudeDegrees>
            </Position>
            <AltitudeMeters>1804.199951171875</AltitudeMeters>
            <DistanceMeters>37799.835233296</DistanceMeters>
          </Trackpoint>
          <Trackpoint>
            <Time>2022-07-10T11:19:38.000Z</Time>
            <Position>
              <LatitudeDegrees>42.76092736981809139251708984375</LatitudeDegrees>
              <LongitudeDegrees>-0.22840241901576519012451171875</LongitudeDegrees>
            </Position>
            <AltitudeMeters>1803.800048828125</AltitudeMeters>
            <DistanceMeters>37801.550985295</DistanceMeters>
          </Trackpoint>
          <Trackpoint>
            <Time>2022-07-10T11:19:41.000Z</Time>
            <Position>
              <LatitudeDegrees>42.76092049665749073028564453125</LatitudeDegrees>
              <LongitudeDegrees>-0.22844986058771610260009765625</LongitudeDegrees>
            </Position>
            <AltitudeMeters>1803.199951171875</AltitudeMeters>
            <DistanceMeters>37805.503456958</DistanceMeters>
          </Trackpoint>
          <Trackpoint>
            <Time>2022-07-10T11:19:42.000Z</Time>
            <Position>
              <LatitudeDegrees>42.76091865263879299163818359375</LatitudeDegrees>
              <LongitudeDegrees>-0.2284673787653446197509765625</LongitudeDegrees>
            </Position>
            <AltitudeMeters>1803</AltitudeMeters>
            <DistanceMeters>37806.950860749</DistanceMeters>
          </Trackpoint>
          <Trackpoint>
            <Time>2022-07-10T11:19:43.000Z</Time>
            <Position>
              <LatitudeDegrees>42.760914377868175506591796875</LatitudeDegrees>
              <LongitudeDegrees>-0.22848405875265598297119140625</LongitudeDegrees>
            </Position>
            <AltitudeMeters>1802.800048828125</AltitudeMeters>
            <DistanceMeters>37808.395141767</DistanceMeters>
          </Trackpoint>
          <Trackpoint>
            <Time>2022-07-10T11:19:45.000Z</Time>
            <Position>
              <LatitudeDegrees>42.76091362349689006805419921875</LatitudeDegrees>
              <LongitudeDegrees>-0.22851708345115184783935546875</LongitudeDegrees>
            </Position>
            <AltitudeMeters>1802.5999755859375</AltitudeMeters>
            <DistanceMeters>37811.096308509</DistanceMeters>
          </Trackpoint>
          <Trackpoint>
            <Time>2022-07-10T11:19:49.000Z</Time>
            <Position>
              <LatitudeDegrees>42.76092753745615482330322265625</LatitudeDegrees>
              <LongitudeDegrees>-0.22857994772493839263916015625</LongitudeDegrees>
            </Position>
            <AltitudeMeters>1802.800048828125</AltitudeMeters>
            <DistanceMeters>37816.463425412</DistanceMeters>
          </Trackpoint>
          <Trackpoint>
            <Time>2022-07-10T11:19:52.000Z</Time>
            <Position>
              <LatitudeDegrees>42.76093684136867523193359375</LatitudeDegrees>
              <LongitudeDegrees>-0.2286060154438018798828125</LongitudeDegrees>
            </Position>
            <AltitudeMeters>1802.5999755859375</AltitudeMeters>
            <DistanceMeters>37818.829571518</DistanceMeters>
          </Trackpoint>
          <Trackpoint>
            <Time>2022-07-10T11:19:53.000Z</Time>
            <Position>
              <LatitudeDegrees>42.7609393559396266937255859375</LatitudeDegrees>
              <LongitudeDegrees>-0.22861515171825885772705078125</LongitudeDegrees>
            </Position>
            <AltitudeMeters>1802.4000244140625</AltitudeMeters>
            <DistanceMeters>37819.630280846</DistanceMeters>
          </Trackpoint>
          <Trackpoint>
            <Time>2022-07-10T11:19:54.000Z</Time>
            <Position>
              <LatitudeDegrees>42.76094597764313220977783203125</LatitudeDegrees>
              <LongitudeDegrees>-0.2286232821643352508544921875</LongitudeDegrees>
            </Position>
            <AltitudeMeters>1802.4000244140625</AltitudeMeters>
            <DistanceMeters>37820.626929435</DistanceMeters>
          </Trackpoint>
          <Trackpoint>
            <Time>2022-07-10T11:19:55.000Z</Time>
            <Position>
              <LatitudeDegrees>42.76095435954630374908447265625</LatitudeDegrees>
              <LongitudeDegrees>-0.2286247909069061279296875</LongitudeDegrees>
            </Position>
            <AltitudeMeters>1802.199951171875</AltitudeMeters>
            <DistanceMeters>37821.567645912</DistanceMeters>
          </Trackpoint>
          <Trackpoint>
            <Time>2022-07-10T11:19:56.000Z</Time>
            <Position>
              <LatitudeDegrees>42.76096165180206298828125</LatitudeDegrees>
              <LongitudeDegrees>-0.2286216057837009429931640625</LongitudeDegrees>
            </Position>
            <AltitudeMeters>1802</AltitudeMeters>
            <DistanceMeters>37822.417590684</DistanceMeters>
          </Trackpoint>
          <Trackpoint>
            <Time>2022-07-10T11:19:57.000Z</Time>
            <Position>
              <LatitudeDegrees>42.7609688602387905120849609375</LatitudeDegrees>
              <LongitudeDegrees>-0.22861347533762454986572265625</LongitudeDegrees>
            </Position>
            <AltitudeMeters>1801.5999755859375</AltitudeMeters>
            <DistanceMeters>37823.458556185</DistanceMeters>
          </Trackpoint>
          <Trackpoint>
            <Time>2022-07-10T11:19:59.000Z</Time>
            <Position>
              <LatitudeDegrees>42.76097967289388179779052734375</LatitudeDegrees>
              <LongitudeDegrees>-0.22858832962810993194580078125</LongitudeDegrees>
            </Position>
            <AltitudeMeters>1800.800048828125</AltitudeMeters>
            <DistanceMeters>37825.839918821</DistanceMeters>
          </Trackpoint>
          <Trackpoint>
            <Time>2022-07-10T11:20:00.000Z</Time>
            <Position>
              <LatitudeDegrees>42.760982103645801544189453125</LatitudeDegrees>
              <LongitudeDegrees>-0.22857994772493839263916015625</LongitudeDegrees>
            </Position>
            <AltitudeMeters>1799.800048828125</AltitudeMeters>
            <DistanceMeters>37826.582101187</DistanceMeters>
          </Trackpoint>
          <Trackpoint>
            <Time>2022-07-10T11:20:03.000Z</Time>
            <Position>
              <LatitudeDegrees>42.7609990350902080535888671875</LatitudeDegrees>
              <LongitudeDegrees>-0.228567458689212799072265625</LongitudeDegrees>
            </Position>
            <AltitudeMeters>1798.5999755859375</AltitudeMeters>
            <DistanceMeters>37828.723894555</DistanceMeters>
          </Trackpoint>
          <Trackpoint>
            <Time>2022-07-10T11:20:06.000Z</Time>
            <Position>
              <LatitudeDegrees>42.76101923547685146331787109375</LatitudeDegrees>
              <LongitudeDegrees>-0.2285622619092464447021484375</LongitudeDegrees>
            </Position>
            <AltitudeMeters>1798.4000244140625</AltitudeMeters>
            <DistanceMeters>37831.012440892</DistanceMeters>
          </Trackpoint>
          <Trackpoint>
            <Time>2022-07-10T11:20:07.000Z</Time>
            <Position>
              <LatitudeDegrees>42.7610221691429615020751953125</LatitudeDegrees>
              <LongitudeDegrees>-0.22856083698570728302001953125</LongitudeDegrees>
            </Position>
            <AltitudeMeters>1798.199951171875</AltitudeMeters>
            <DistanceMeters>37831.355064583</DistanceMeters>
          </Trackpoint>
          <Trackpoint>
            <Time>2022-07-10T11:20:08.000Z</Time>
            <Position>
              <LatitudeDegrees>42.76102778501808643341064453125</LatitudeDegrees>
              <LongitudeDegrees>-0.22855932824313640594482421875</LongitudeDegrees>
            </Position>
            <AltitudeMeters>1798.199951171875</AltitudeMeters>
            <DistanceMeters>37831.999567118</DistanceMeters>
          </Trackpoint>
          <Trackpoint>
            <Time>2022-07-10T11:20:14.000Z</Time>
            <Position>
              <LatitudeDegrees>42.761065252125263214111328125</LatitudeDegrees>
              <LongitudeDegrees>-0.22858313284814357757568359375</LongitudeDegrees>
            </Position>
            <AltitudeMeters>1797.800048828125</AltitudeMeters>
            <DistanceMeters>37836.602235837</DistanceMeters>
          </Trackpoint>
          <Trackpoint>
            <Time>2022-07-10T11:20:15.000Z</Time>
            <Position>
              <LatitudeDegrees>42.76107363402843475341796875</LatitudeDegrees>
              <LongitudeDegrees>-0.2285894192755222320556640625</LongitudeDegrees>
            </Position>
            <AltitudeMeters>1797.800048828125</AltitudeMeters>
            <DistanceMeters>37837.66890806</DistanceMeters>
          </Trackpoint>
          <Trackpoint>
            <Time>2022-07-10T11:20:17.000Z</Time>
            <Position>
              <LatitudeDegrees>42.76109777390956878662109375</LatitudeDegrees>
              <LongitudeDegrees>-0.22860274650156497955322265625</LongitudeDegrees>
            </Position>
            <AltitudeMeters>1797.800048828125</AltitudeMeters>
            <DistanceMeters>37840.569947743</DistanceMeters>
          </Trackpoint>
          <Trackpoint>
            <Time>2022-07-10T11:20:19.000Z</Time>
            <Position>
              <LatitudeDegrees>42.761122249066829681396484375</LatitudeDegrees>
              <LongitudeDegrees>-0.22861003875732421875</LongitudeDegrees>
            </Position>
            <AltitudeMeters>1797.5999755859375</AltitudeMeters>
            <DistanceMeters>37843.358297761</DistanceMeters>
          </Trackpoint>
          <Trackpoint>
            <Time>2022-07-10T11:20:20.000Z</Time>
            <Position>
              <LatitudeDegrees>42.76113607920706272125244140625</LatitudeDegrees>
              <LongitudeDegrees>-0.2286169119179248809814453125</LongitudeDegrees>
            </Position>
            <AltitudeMeters>1797.5999755859375</AltitudeMeters>
            <DistanceMeters>37844.995958502</DistanceMeters>
          </Trackpoint>
          <Trackpoint>
            <Time>2022-07-10T11:20:21.000Z</Time>
            <Position>
              <LatitudeDegrees>42.7611445449292659759521484375</LatitudeDegrees>
              <LongitudeDegrees>-0.2286086976528167724609375</LongitudeDegrees>
            </Position>
            <AltitudeMeters>1797.4000244140625</AltitudeMeters>
            <DistanceMeters>37846.152008377</DistanceMeters>
          </Trackpoint>
          <Trackpoint>
            <Time>2022-07-10T11:20:25.000Z</Time>
            <Position>
              <LatitudeDegrees>42.76118226349353790283203125</LatitudeDegrees>
              <LongitudeDegrees>-0.2285957895219326019287109375</LongitudeDegrees>
            </Position>
            <AltitudeMeters>1797.199951171875</AltitudeMeters>
            <DistanceMeters>37850.480681225</DistanceMeters>
          </Trackpoint>
          <Trackpoint>
            <Time>2022-07-10T11:20:27.000Z</Time>
            <Position>
              <LatitudeDegrees>42.76119290851056575775146484375</LatitudeDegrees>
              <LongitudeDegrees>-0.22859268821775913238525390625</LongitudeDegrees>
            </Position>
            <AltitudeMeters>1797</AltitudeMeters>
            <DistanceMeters>37851.690173839</DistanceMeters>
          </Trackpoint>
          <Trackpoint>
            <Time>2022-07-10T11:20:31.000Z</Time>
            <Position>
              <LatitudeDegrees>42.7612112648785114288330078125</LatitudeDegrees>
              <LongitudeDegrees>-0.22859419696033000946044921875</LongitudeDegrees>
            </Position>
            <AltitudeMeters>1796.5999755859375</AltitudeMeters>
            <DistanceMeters>37853.737111911</DistanceMeters>
          </Trackpoint>
          <Trackpoint>
            <Time>2022-07-10T11:20:32.000Z</Time>
            <Position>
              <LatitudeDegrees>42.76121587492525577545166015625</LatitudeDegrees>
              <LongitudeDegrees>-0.22859998047351837158203125</LongitudeDegrees>
            </Position>
            <AltitudeMeters>1796.199951171875</AltitudeMeters>
            <DistanceMeters>37854.435412797</DistanceMeters>
          </Trackpoint>
          <Trackpoint>
            <Time>2022-07-10T11:20:33.000Z</Time>
            <Position>
              <LatitudeDegrees>42.7612196467816829681396484375</LatitudeDegrees>
              <LongitudeDegrees>-0.2286068536341190338134765625</LongitudeDegrees>
            </Position>
            <AltitudeMeters>1796</AltitudeMeters>
            <DistanceMeters>37855.133713684</DistanceMeters>
          </Trackpoint>
          <Trackpoint>
            <Time>2022-07-10T11:20:34.000Z</Time>
            <Position>
              <LatitudeDegrees>42.76122207753360271453857421875</LatitudeDegrees>
              <LongitudeDegrees>-0.2286138944327831268310546875</LongitudeDegrees>
            </Position>
            <AltitudeMeters>1795.800048828125</AltitudeMeters>
            <DistanceMeters>37855.764049597</DistanceMeters>
          </Trackpoint>
          <Trackpoint>
            <Time>2022-07-10T11:20:36.000Z</Time>
            <Position>
              <LatitudeDegrees>42.761225514113903045654296875</LatitudeDegrees>
              <LongitudeDegrees>-0.22862252779304981231689453125</LongitudeDegrees>
            </Position>
            <AltitudeMeters>1795.199951171875</AltitudeMeters>
            <DistanceMeters>37856.564758925</DistanceMeters>
          </Trackpoint>
          <Trackpoint>
            <Time>2022-07-10T11:20:37.000Z</Time>
            <Position>
              <LatitudeDegrees>42.7612256817519664764404296875</LatitudeDegrees>
              <LongitudeDegrees>-0.2286279760301113128662109375</LongitudeDegrees>
            </Position>
            <AltitudeMeters>1794.800048828125</AltitudeMeters>
            <DistanceMeters>37857.010473723</DistanceMeters>
          </Trackpoint>
          <Trackpoint>
            <Time>2022-07-10T11:20:39.000Z</Time>
            <Position>
              <LatitudeDegrees>42.76122593320906162261962890625</LatitudeDegrees>
              <LongitudeDegrees>-0.2286437340080738067626953125</LongitudeDegrees>
            </Position>
            <AltitudeMeters>1793.800048828125</AltitudeMeters>
            <DistanceMeters>37858.302976776</DistanceMeters>
          </Trackpoint>
          <Trackpoint>
            <Time>2022-07-10T11:20:40.000Z</Time>
            <Position>
              <LatitudeDegrees>42.76122760958969593048095703125</LatitudeDegrees>
              <LongitudeDegrees>-0.22864197380840778350830078125</LongitudeDegrees>
            </Position>
            <AltitudeMeters>1793.5999755859375</AltitudeMeters>
            <DistanceMeters>37858.535743738</DistanceMeters>
          </Trackpoint>
          <Trackpoint>
            <Time>2022-07-10T11:20:41.000Z</Time>
            <Position>
              <LatitudeDegrees>42.7612307108938694000244140625</LatitudeDegrees>
              <LongitudeDegrees>-0.22863811813294887542724609375</LongitudeDegrees>
            </Position>
            <AltitudeMeters>1793.199951171875</AltitudeMeters>
            <DistanceMeters>37859.001277663</DistanceMeters>
          </Trackpoint>
          <Trackpoint>
            <Time>2022-07-10T11:20:44.000Z</Time>
            <Position>
              <LatitudeDegrees>42.761235572397708892822265625</LatitudeDegrees>
              <LongitudeDegrees>-0.22865035571157932281494140625</LongitudeDegrees>
            </Position>
            <AltitudeMeters>1792.5999755859375</AltitudeMeters>
            <DistanceMeters>37860.141598235</DistanceMeters>
          </Trackpoint>
          <Trackpoint>
            <Time>2022-07-10T11:20:46.000Z</Time>
            <Position>
              <LatitudeDegrees>42.76124395430088043212890625</LatitudeDegrees>
              <LongitudeDegrees>-0.22866611368954181671142578125</LongitudeDegrees>
            </Position>
            <AltitudeMeters>1792.4000244140625</AltitudeMeters>
            <DistanceMeters>37861.731699303</DistanceMeters>
          </Trackpoint>
          <Trackpoint>
            <Time>2022-07-10T11:20:49.000Z</Time>
            <Position>
              <LatitudeDegrees>42.76125602424144744873046875</LatitudeDegrees>
              <LongitudeDegrees>-0.22869092412292957305908203125</LongitudeDegrees>
            </Position>
            <AltitudeMeters>1791.5999755859375</AltitudeMeters>
            <DistanceMeters>37864.163714942</DistanceMeters>
          </Trackpoint>
          <Trackpoint>
            <Time>2022-07-10T11:20:52.000Z</Time>
            <Position>
              <LatitudeDegrees>42.761271111667156219482421875</LatitudeDegrees>
              <LongitudeDegrees>-0.2287345938384532928466796875</LongitudeDegrees>
            </Position>
            <AltitudeMeters>1790.5999755859375</AltitudeMeters>
            <DistanceMeters>37868.107037353</DistanceMeters>
          </Trackpoint>
          <Trackpoint>
            <Time>2022-07-10T11:20:53.000Z</Time>
            <Position>
              <LatitudeDegrees>42.7612756378948688507080078125</LatitudeDegrees>
              <LongitudeDegrees>-0.2287439815700054168701171875</LongitudeDegrees>
            </Position>
            <AltitudeMeters>1790.4000244140625</AltitudeMeters>
            <DistanceMeters>37869.018501578</DistanceMeters>
          </Trackpoint>
          <Trackpoint>
            <Time>2022-07-10T11:20:55.000Z</Time>
            <Position>
              <LatitudeDegrees>42.76128645054996013641357421875</LatitudeDegrees>
              <LongitudeDegrees>-0.228740461170673370361328125</LongitudeDegrees>
            </Position>
            <AltitudeMeters>1789.5999755859375</AltitudeMeters>
            <DistanceMeters>37870.257498347</DistanceMeters>
          </Trackpoint>
          <Trackpoint>
            <Time>2022-07-10T11:20:56.000Z</Time>
            <Position>
              <LatitudeDegrees>42.76129533536732196807861328125</LatitudeDegrees>
              <LongitudeDegrees>-0.22873400710523128509521484375</LongitudeDegrees>
            </Position>
            <AltitudeMeters>1789.199951171875</AltitudeMeters>
            <DistanceMeters>37871.381869595</DistanceMeters>
          </Trackpoint>
          <Trackpoint>
            <Time>2022-07-10T11:20:58.000Z</Time>
            <Position>
              <LatitudeDegrees>42.76130857877433300018310546875</LatitudeDegrees>
              <LongitudeDegrees>-0.2287154830992221832275390625</LongitudeDegrees>
            </Position>
            <AltitudeMeters>1788.5999755859375</AltitudeMeters>
            <DistanceMeters>37873.496080521</DistanceMeters>
          </Trackpoint>
          <Trackpoint>
            <Time>2022-07-10T11:21:00.000Z</Time>
            <Position>
              <LatitudeDegrees>42.76131846942007541656494140625</LatitudeDegrees>
              <LongitudeDegrees>-0.22869327105581760406494140625</LongitudeDegrees>
            </Position>
            <AltitudeMeters>1788.199951171875</AltitudeMeters>
            <DistanceMeters>37875.620942451</DistanceMeters>
          </Trackpoint>
          <Trackpoint>
            <Time>2022-07-10T11:21:03.000Z</Time>
            <Position>
              <LatitudeDegrees>42.761336825788021087646484375</LatitudeDegrees>
              <LongitudeDegrees>-0.22867600433528423309326171875</LongitudeDegrees>
            </Position>
            <AltitudeMeters>1787.5999755859375</AltitudeMeters>
            <DistanceMeters>37878.102577423</DistanceMeters>
          </Trackpoint>
          <Trackpoint>
            <Time>2022-07-10T11:21:05.000Z</Time>
            <Position>
              <LatitudeDegrees>42.7613519132137298583984375</LatitudeDegrees>
              <LongitudeDegrees>-0.22867147810757160186767578125</LongitudeDegrees>
            </Position>
            <AltitudeMeters>1787.4000244140625</AltitudeMeters>
            <DistanceMeters>37879.823584417</DistanceMeters>
          </Trackpoint>
          <Trackpoint>
            <Time>2022-07-10T11:21:06.000Z</Time>
            <Position>
              <LatitudeDegrees>42.76136272586882114410400390625</LatitudeDegrees>
              <LongitudeDegrees>-0.228672064840793609619140625</LongitudeDegrees>
            </Position>
            <AltitudeMeters>1786.800048828125</AltitudeMeters>
            <DistanceMeters>37881.025587841</DistanceMeters>
          </Trackpoint>
          <Trackpoint>
            <Time>2022-07-10T11:21:08.000Z</Time>
            <Position>
              <LatitudeDegrees>42.76137663982808589935302734375</LatitudeDegrees>
              <LongitudeDegrees>-0.228670053184032440185546875</LongitudeDegrees>
            </Position>
            <AltitudeMeters>1786.4000244140625</AltitudeMeters>
            <DistanceMeters>37882.581242201</DistanceMeters>
          </Trackpoint>
          <Trackpoint>
            <Time>2022-07-10T11:21:10.000Z</Time>
            <Position>
              <LatitudeDegrees>42.76138753630220890045166015625</LatitudeDegrees>
              <LongitudeDegrees>-0.22867818363010883331298828125</LongitudeDegrees>
            </Position>
            <AltitudeMeters>1785.5999755859375</AltitudeMeters>
            <DistanceMeters>37883.964852047</DistanceMeters>
          </Trackpoint>
          <Trackpoint>
            <Time>2022-07-10T11:21:12.000Z</Time>
            <Position>
              <LatitudeDegrees>42.76140765286982059478759765625</LatitudeDegrees>
              <LongitudeDegrees>-0.22869762964546680450439453125</LongitudeDegrees>
            </Position>
            <AltitudeMeters>1784.800048828125</AltitudeMeters>
            <DistanceMeters>37886.710778818</DistanceMeters>
          </Trackpoint>
          <Trackpoint>
            <Time>2022-07-10T11:21:13.000Z</Time>
            <Position>
              <LatitudeDegrees>42.7614167891442775726318359375</LatitudeDegrees>
              <LongitudeDegrees>-0.22870064713060855865478515625</LongitudeDegrees>
            </Position>
            <AltitudeMeters>1784.5999755859375</AltitudeMeters>
            <DistanceMeters>37887.751744318</DistanceMeters>
          </Trackpoint>
          <Trackpoint>
            <Time>2022-07-10T11:21:14.000Z</Time>
            <Position>
              <LatitudeDegrees>42.761426679790019989013671875</LatitudeDegrees>
              <LongitudeDegrees>-0.22869192995131015777587890625</LongitudeDegrees>
            </Position>
            <AltitudeMeters>1784.4000244140625</AltitudeMeters>
            <DistanceMeters>37889.061597182</DistanceMeters>
          </Trackpoint>
          <Trackpoint>
            <Time>2022-07-10T11:21:17.000Z</Time>
            <Position>
              <LatitudeDegrees>42.7614610455930233001708984375</LatitudeDegrees>
              <LongitudeDegrees>-0.22864700295031070709228515625</LongitudeDegrees>
            </Position>
            <AltitudeMeters>1784.199951171875</AltitudeMeters>
            <DistanceMeters>37894.364394373</DistanceMeters>
          </Trackpoint>
          <Trackpoint>
            <Time>2022-07-10T11:21:20.000Z</Time>
            <Position>
              <LatitudeDegrees>42.76147906668484210968017578125</LatitudeDegrees>
              <LongitudeDegrees>-0.22860660217702388763427734375</LongitudeDegrees>
            </Position>
            <AltitudeMeters>1783.4000244140625</AltitudeMeters>
            <DistanceMeters>37898.226736445</DistanceMeters>
          </Trackpoint>
          <Trackpoint>
            <Time>2022-07-10T11:21:21.000Z</Time>
            <Position>
              <LatitudeDegrees>42.7614851854741573333740234375</LatitudeDegrees>
              <LongitudeDegrees>-0.22859855554997920989990234375</LongitudeDegrees>
            </Position>
            <AltitudeMeters>1782.800048828125</AltitudeMeters>
            <DistanceMeters>37899.177003589</DistanceMeters>
          </Trackpoint>
          <Trackpoint>
            <Time>2022-07-10T11:21:23.000Z</Time>
            <Position>
              <LatitudeDegrees>42.76150002144277095794677734375</LatitudeDegrees>
              <LongitudeDegrees>-0.22859738208353519439697265625</LongitudeDegrees>
            </Position>
            <AltitudeMeters>1782.199951171875</AltitudeMeters>
            <DistanceMeters>37900.828391819</DistanceMeters>
          </Trackpoint>
          <Trackpoint>
            <Time>2022-07-10T11:21:24.000Z</Time>
            <Position>
              <LatitudeDegrees>42.7615069784224033355712890625</LatitudeDegrees>
              <LongitudeDegrees>-0.22859235294163227081298828125</LongitudeDegrees>
            </Position>
            <AltitudeMeters>1782</AltitudeMeters>
            <DistanceMeters>37901.704494837</DistanceMeters>
          </Trackpoint>
          <Trackpoint>
            <Time>2022-07-10T11:21:25.000Z</Time>
            <Position>
              <LatitudeDegrees>42.76151485741138458251953125</LatitudeDegrees>
              <LongitudeDegrees>-0.22858615033328533172607421875</LongitudeDegrees>
            </Position>
            <AltitudeMeters>1781.800048828125</AltitudeMeters>
            <DistanceMeters>37902.719102502</DistanceMeters>
          </Trackpoint>
          <Trackpoint>
            <Time>2022-07-10T11:21:27.000Z</Time>
            <Position>
              <LatitudeDegrees>42.7615289390087127685546875</LatitudeDegrees>
              <LongitudeDegrees>-0.22857324220240116119384765625</LongitudeDegrees>
            </Position>
            <AltitudeMeters>1781.5999755859375</AltitudeMeters>
            <DistanceMeters>37904.610110242</DistanceMeters>
          </Trackpoint>
          <Trackpoint>
            <Time>2022-07-10T11:21:29.000Z</Time>
            <Position>
              <LatitudeDegrees>42.76155785657465457916259765625</LatitudeDegrees>
              <LongitudeDegrees>-0.2285723201930522918701171875</LongitudeDegrees>
            </Position>
            <AltitudeMeters>1781</AltitudeMeters>
            <DistanceMeters>37907.829819508</DistanceMeters>
          </Trackpoint>
          <Trackpoint>
            <Time>2022-07-10T11:21:30.000Z</Time>
            <Position>
              <LatitudeDegrees>42.76157311163842678070068359375</LatitudeDegrees>
              <LongitudeDegrees>-0.2285682968795299530029296875</LongitudeDegrees>
            </Position>
            <AltitudeMeters>1780.4000244140625</AltitudeMeters>
            <DistanceMeters>37909.561288647</DistanceMeters>
          </Trackpoint>
          <Trackpoint>
            <Time>2022-07-10T11:21:32.000Z</Time>
            <Position>
              <LatitudeDegrees>42.76160093955695629119873046875</LatitudeDegrees>
              <LongitudeDegrees>-0.22856284864246845245361328125</LongitudeDegrees>
            </Position>
            <AltitudeMeters>1779</AltitudeMeters>
            <DistanceMeters>37912.689962945</DistanceMeters>
          </Trackpoint>
          <Trackpoint>
            <Time>2022-07-10T11:21:33.000Z</Time>
            <Position>
              <LatitudeDegrees>42.76161351241171360015869140625</LatitudeDegrees>
              <LongitudeDegrees>-0.2285602502524852752685546875</LongitudeDegrees>
            </Position>
            <AltitudeMeters>1778.5999755859375</AltitudeMeters>
            <DistanceMeters>37914.105829101</DistanceMeters>
          </Trackpoint>
          <Trackpoint>
            <Time>2022-07-10T11:21:34.000Z</Time>
            <Position>
              <LatitudeDegrees>42.76162507943809032440185546875</LatitudeDegrees>
              <LongitudeDegrees>-0.22855706512928009033203125</LongitudeDegrees>
            </Position>
            <AltitudeMeters>1778.199951171875</AltitudeMeters>
            <DistanceMeters>37915.42255788</DistanceMeters>
          </Trackpoint>
          <Trackpoint>
            <Time>2022-07-10T11:21:35.000Z</Time>
            <Position>
              <LatitudeDegrees>42.76163798756897449493408203125</LatitudeDegrees>
              <LongitudeDegrees>-0.22854994051158428192138671875</LongitudeDegrees>
            </Position>
            <AltitudeMeters>1778.199951171875</AltitudeMeters>
            <DistanceMeters>37916.972396689</DistanceMeters>
          </Trackpoint>
          <Trackpoint>
            <Time>2022-07-10T11:21:37.000Z</Time>
            <Position>
              <LatitudeDegrees>42.7616684138774871826171875</LatitudeDegrees>
              <LongitudeDegrees>-0.228546001017093658447265625</LongitudeDegrees>
            </Position>
            <AltitudeMeters>1778</AltitudeMeters>
            <DistanceMeters>37920.372175777</DistanceMeters>
          </Trackpoint>
          <Trackpoint>
            <Time>2022-07-10T11:21:40.000Z</Time>
            <Position>
              <LatitudeDegrees>42.76169565506279468536376953125</LatitudeDegrees>
              <LongitudeDegrees>-0.22855329327285289764404296875</LongitudeDegrees>
            </Position>
            <AltitudeMeters>1778</AltitudeMeters>
            <DistanceMeters>37923.460178485</DistanceMeters>
          </Trackpoint>
          <Trackpoint>
            <Time>2022-07-10T11:21:41.000Z</Time>
            <Position>
              <LatitudeDegrees>42.76170663535594940185546875</LatitudeDegrees>
              <LongitudeDegrees>-0.22855312563478946685791015625</LongitudeDegrees>
            </Position>
            <AltitudeMeters>1777.5999755859375</AltitudeMeters>
            <DistanceMeters>37924.677114201</DistanceMeters>
          </Trackpoint>
          <Trackpoint>
            <Time>2022-07-10T11:21:43.000Z</Time>
            <Position>
              <LatitudeDegrees>42.76172943413257598876953125</LatitudeDegrees>
              <LongitudeDegrees>-0.2285642735660076141357421875</LongitudeDegrees>
            </Position>
            <AltitudeMeters>1777</AltitudeMeters>
            <DistanceMeters>37927.371586591</DistanceMeters>
          </Trackpoint>
          <Trackpoint>
            <Time>2022-07-10T11:21:44.000Z</Time>
            <Position>
              <LatitudeDegrees>42.7617349661886692047119140625</LatitudeDegrees>
              <LongitudeDegrees>-0.22856754250824451446533203125</LongitudeDegrees>
            </Position>
            <AltitudeMeters>1776.800048828125</AltitudeMeters>
            <DistanceMeters>37928.043526932</DistanceMeters>
          </Trackpoint>
          <Trackpoint>
            <Time>2022-07-10T11:21:45.000Z</Time>
            <Position>
              <LatitudeDegrees>42.76173890568315982818603515625</LatitudeDegrees>
              <LongitudeDegrees>-0.22856779396533966064453125</LongitudeDegrees>
            </Position>
            <AltitudeMeters>1776.5999755859375</AltitudeMeters>
            <DistanceMeters>37928.478994044</DistanceMeters>
          </Trackpoint>
          <Trackpoint>
            <Time>2022-07-10T11:21:47.000Z</Time>
            <Position>
              <LatitudeDegrees>42.76174996979534626007080078125</LatitudeDegrees>
              <LongitudeDegrees>-0.228560753166675567626953125</LongitudeDegrees>
            </Position>
            <AltitudeMeters>1775.5999755859375</AltitudeMeters>
            <DistanceMeters>37929.836247003</DistanceMeters>
          </Trackpoint>
          <Trackpoint>
            <Time>2022-07-10T11:21:48.000Z</Time>
            <Position>
              <LatitudeDegrees>42.7617547474801540374755859375</LatitudeDegrees>
              <LongitudeDegrees>-0.2285572327673435211181640625</LongitudeDegrees>
            </Position>
            <AltitudeMeters>1775.199951171875</AltitudeMeters>
            <DistanceMeters>37930.437248715</DistanceMeters>
          </Trackpoint>
          <Trackpoint>
            <Time>2022-07-10T11:21:52.000Z</Time>
            <Position>
              <LatitudeDegrees>42.7617537416517734527587890625</LatitudeDegrees>
              <LongitudeDegrees>-0.22858179174363613128662109375</LongitudeDegrees>
            </Position>
            <AltitudeMeters>1774.199951171875</AltitudeMeters>
            <DistanceMeters>37932.446339099</DistanceMeters>
          </Trackpoint>
          <Trackpoint>
            <Time>2022-07-10T11:21:53.000Z</Time>
            <Position>
              <LatitudeDegrees>42.76174913160502910614013671875</LatitudeDegrees>
              <LongitudeDegrees>-0.2285994775593280792236328125</LongitudeDegrees>
            </Position>
            <AltitudeMeters>1773.5999755859375</AltitudeMeters>
            <DistanceMeters>37933.978598827</DistanceMeters>
          </Trackpoint>
          <Trackpoint>
            <Time>2022-07-10T11:21:54.000Z</Time>
            <Position>
              <LatitudeDegrees>42.761743180453777313232421875</LatitudeDegrees>
              <LongitudeDegrees>-0.22861179895699024200439453125</LongitudeDegrees>
            </Position>
            <AltitudeMeters>1773</AltitudeMeters>
            <DistanceMeters>37935.180602251</DistanceMeters>
          </Trackpoint>
          <Trackpoint>
            <Time>2022-07-10T11:21:57.000Z</Time>
            <Position>
              <LatitudeDegrees>42.7617220580577850341796875</LatitudeDegrees>
              <LongitudeDegrees>-0.22865102626383304595947265625</LongitudeDegrees>
            </Position>
            <AltitudeMeters>1772</AltitudeMeters>
            <DistanceMeters>37939.155854919</DistanceMeters>
          </Trackpoint>
          <Trackpoint>
            <Time>2022-07-10T11:21:58.000Z</Time>
            <Position>
              <LatitudeDegrees>42.761715687811374664306640625</LatitudeDegrees>
              <LongitudeDegrees>-0.22866125218570232391357421875</LongitudeDegrees>
            </Position>
            <AltitudeMeters>1771.800048828125</AltitudeMeters>
            <DistanceMeters>37940.251756451</DistanceMeters>
          </Trackpoint>
          <Trackpoint>
            <Time>2022-07-10T11:22:00.000Z</Time>
            <Position>
              <LatitudeDegrees>42.7617047913372516632080078125</LatitudeDegrees>
              <LongitudeDegrees>-0.2286796085536479949951171875</LongitudeDegrees>
            </Position>
            <AltitudeMeters>1771.4000244140625</AltitudeMeters>
            <DistanceMeters>37942.180588091</DistanceMeters>
          </Trackpoint>
          <Trackpoint>
            <Time>2022-07-10T11:22:02.000Z</Time>
            <Position>
              <LatitudeDegrees>42.7616940625011920928955078125</LatitudeDegrees>
              <LongitudeDegrees>-0.2286980487406253814697265625</LongitudeDegrees>
            </Position>
            <AltitudeMeters>1771.199951171875</AltitudeMeters>
            <DistanceMeters>37944.102384455</DistanceMeters>
          </Trackpoint>
          <Trackpoint>
            <Time>2022-07-10T11:22:03.000Z</Time>
            <Position>
              <LatitudeDegrees>42.76168844662606716156005859375</LatitudeDegrees>
              <LongitudeDegrees>-0.2287084423005580902099609375</LongitudeDegrees>
            </Position>
            <AltitudeMeters>1771</AltitudeMeters>
            <DistanceMeters>37945.160557163</DistanceMeters>
          </Trackpoint>
          <Trackpoint>
            <Time>2022-07-10T11:22:04.000Z</Time>
            <Position>
              <LatitudeDegrees>42.7616873569786548614501953125</LatitudeDegrees>
              <LongitudeDegrees>-0.22871933877468109130859375</LongitudeDegrees>
            </Position>
            <AltitudeMeters>1770.800048828125</AltitudeMeters>
            <DistanceMeters>37946.05198676</DistanceMeters>
          </Trackpoint>
          <Trackpoint>
            <Time>2022-07-10T11:22:06.000Z</Time>
            <Position>
              <LatitudeDegrees>42.7616829983890056610107421875</LatitudeDegrees>
              <LongitudeDegrees>-0.228747837245464324951171875</LongitudeDegrees>
            </Position>
            <AltitudeMeters>1769.5999755859375</AltitudeMeters>
            <DistanceMeters>37948.427654619</DistanceMeters>
          </Trackpoint>
          <Trackpoint>
            <Time>2022-07-10T11:22:07.000Z</Time>
            <Position>
              <LatitudeDegrees>42.7616843394935131072998046875</LatitudeDegrees>
              <LongitudeDegrees>-0.2287620864808559417724609375</LongitudeDegrees>
            </Position>
            <AltitudeMeters>1769.4000244140625</AltitudeMeters>
            <DistanceMeters>37949.603070161</DistanceMeters>
          </Trackpoint>
          <Trackpoint>
            <Time>2022-07-10T11:22:08.000Z</Time>
            <Position>
              <LatitudeDegrees>42.76168257929384708404541015625</LatitudeDegrees>
              <LongitudeDegrees>-0.228776670992374420166015625</LongitudeDegrees>
            </Position>
            <AltitudeMeters>1769.199951171875</AltitudeMeters>
            <DistanceMeters>37950.805073585</DistanceMeters>
          </Trackpoint>
          <Trackpoint>
            <Time>2022-07-10T11:22:10.000Z</Time>
            <Position>
              <LatitudeDegrees>42.7616833336651325225830078125</LatitudeDegrees>
              <LongitudeDegrees>-0.2287996374070644378662109375</LongitudeDegrees>
            </Position>
            <AltitudeMeters>1768.5999755859375</AltitudeMeters>
            <DistanceMeters>37952.684105221</DistanceMeters>
          </Trackpoint>
          <Trackpoint>
            <Time>2022-07-10T11:22:12.000Z</Time>
            <Position>
              <LatitudeDegrees>42.76169012300670146942138671875</LatitudeDegrees>
              <LongitudeDegrees>-0.2288221009075641632080078125</LongitudeDegrees>
            </Position>
            <AltitudeMeters>1767.4000244140625</AltitudeMeters>
            <DistanceMeters>37954.66832127</DistanceMeters>
          </Trackpoint>
          <Trackpoint>
            <Time>2022-07-10T11:22:13.000Z</Time>
            <Position>
              <LatitudeDegrees>42.76169414632022380828857421875</LatitudeDegrees>
              <LongitudeDegrees>-0.22883576340973377227783203125</LongitudeDegrees>
            </Position>
            <AltitudeMeters>1767</AltitudeMeters>
            <DistanceMeters>37955.870324694</DistanceMeters>
          </Trackpoint>
          <Trackpoint>
            <Time>2022-07-10T11:22:14.000Z</Time>
            <Position>
              <LatitudeDegrees>42.76169682852923870086669921875</LatitudeDegrees>
              <LongitudeDegrees>-0.2288428880274295806884765625</LongitudeDegrees>
            </Position>
            <AltitudeMeters>1766.4000244140625</AltitudeMeters>
            <DistanceMeters>37956.528689083</DistanceMeters>
          </Trackpoint>
          <Trackpoint>
            <Time>2022-07-10T11:22:15.000Z</Time>
            <Position>
              <LatitudeDegrees>42.7617027796804904937744140625</LatitudeDegrees>
              <LongitudeDegrees>-0.2288492582738399505615234375</LongitudeDegrees>
            </Position>
            <AltitudeMeters>1765.800048828125</AltitudeMeters>
            <DistanceMeters>37957.367942301</DistanceMeters>
          </Trackpoint>
          <Trackpoint>
            <Time>2022-07-10T11:22:16.000Z</Time>
            <Position>
              <LatitudeDegrees>42.76170621626079082489013671875</LatitudeDegrees>
              <LongitudeDegrees>-0.22885520942509174346923828125</LongitudeDegrees>
            </Position>
            <AltitudeMeters>1765.4000244140625</AltitudeMeters>
            <DistanceMeters>37957.983785796</DistanceMeters>
          </Trackpoint>
          <Trackpoint>
            <Time>2022-07-10T11:22:19.000Z</Time>
            <Position>
              <LatitudeDegrees>42.7617171965539455413818359375</LatitudeDegrees>
              <LongitudeDegrees>-0.2288814447820186614990234375</LongitudeDegrees>
            </Position>
            <AltitudeMeters>1764.199951171875</AltitudeMeters>
            <DistanceMeters>37960.450822789</DistanceMeters>
          </Trackpoint>
          <Trackpoint>
            <Time>2022-07-10T11:22:20.000Z</Time>
            <Position>
              <LatitudeDegrees>42.76172046549618244171142578125</LatitudeDegrees>
              <LongitudeDegrees>-0.228895358741283416748046875</LongitudeDegrees>
            </Position>
            <AltitudeMeters>1763.800048828125</AltitudeMeters>
            <DistanceMeters>37961.645290067</DistanceMeters>
          </Trackpoint>
          <Trackpoint>
            <Time>2022-07-10T11:22:22.000Z</Time>
            <Position>
              <LatitudeDegrees>42.761721052229404449462890625</LatitudeDegrees>
              <LongitudeDegrees>-0.228917486965656280517578125</LongitudeDegrees>
            </Position>
            <AltitudeMeters>1763</AltitudeMeters>
            <DistanceMeters>37963.455792138</DistanceMeters>
          </Trackpoint>
          <Trackpoint>
            <Time>2022-07-10T11:22:23.000Z</Time>
            <Position>
              <LatitudeDegrees>42.76172666810452938079833984375</LatitudeDegrees>
              <LongitudeDegrees>-0.228923521935939788818359375</LongitudeDegrees>
            </Position>
            <AltitudeMeters>1762.800048828125</AltitudeMeters>
            <DistanceMeters>37964.250842671</DistanceMeters>
          </Trackpoint>
          <Trackpoint>
            <Time>2022-07-10T11:22:25.000Z</Time>
            <Position>
              <LatitudeDegrees>42.76173354126513004302978515625</LatitudeDegrees>
              <LongitudeDegrees>-0.22894640453159809112548828125</LongitudeDegrees>
            </Position>
            <AltitudeMeters>1761.800048828125</AltitudeMeters>
            <DistanceMeters>37966.271138331</DistanceMeters>
          </Trackpoint>
          <Trackpoint>
            <Time>2022-07-10T11:22:27.000Z</Time>
            <Position>
              <LatitudeDegrees>42.76173689402639865875244140625</LatitudeDegrees>
              <LongitudeDegrees>-0.22897146642208099365234375</LongitudeDegrees>
            </Position>
            <AltitudeMeters>1760.800048828125</AltitudeMeters>
            <DistanceMeters>37968.353069332</DistanceMeters>
          </Trackpoint>
          <Trackpoint>
            <Time>2022-07-10T11:22:28.000Z</Time>
            <Position>
              <LatitudeDegrees>42.76173940859735012054443359375</LatitudeDegrees>
              <LongitudeDegrees>-0.22898294962942600250244140625</LongitudeDegrees>
            </Position>
            <AltitudeMeters>1760.5999755859375</AltitudeMeters>
            <DistanceMeters>37969.331429237</DistanceMeters>
          </Trackpoint>
          <Trackpoint>
            <Time>2022-07-10T11:22:31.000Z</Time>
            <Position>
              <LatitudeDegrees>42.76174913160502910614013671875</LatitudeDegrees>
              <LongitudeDegrees>-0.22903022356331348419189453125</LongitudeDegrees>
            </Position>
            <AltitudeMeters>1759.800048828125</AltitudeMeters>
            <DistanceMeters>37973.343987809</DistanceMeters>
          </Trackpoint>
          <Trackpoint>
            <Time>2022-07-10T11:22:32.000Z</Time>
            <Position>
              <LatitudeDegrees>42.761747874319553375244140625</LatitudeDegrees>
              <LongitudeDegrees>-0.22904120385646820068359375</LongitudeDegrees>
            </Position>
            <AltitudeMeters>1759.5999755859375</AltitudeMeters>
            <DistanceMeters>37974.25048489</DistanceMeters>
          </Trackpoint>
          <Trackpoint>
            <Time>2022-07-10T11:22:33.000Z</Time>
            <Position>
              <LatitudeDegrees>42.7617477066814899444580078125</LatitudeDegrees>
              <LongitudeDegrees>-0.2290524356067180633544921875</LongitudeDegrees>
            </Position>
            <AltitudeMeters>1759.4000244140625</AltitudeMeters>
            <DistanceMeters>37975.171803068</DistanceMeters>
          </Trackpoint>
          <Trackpoint>
            <Time>2022-07-10T11:22:35.000Z</Time>
            <Position>
              <LatitudeDegrees>42.7617488801479339599609375</LatitudeDegrees>
              <LongitudeDegrees>-0.2290752343833446502685546875</LongitudeDegrees>
            </Position>
            <AltitudeMeters>1758</AltitudeMeters>
            <DistanceMeters>37977.038781779</DistanceMeters>
          </Trackpoint>
          <Trackpoint>
            <Time>2022-07-10T11:22:37.000Z</Time>
            <Position>
              <LatitudeDegrees>42.76174628175795078277587890625</LatitudeDegrees>
              <LongitudeDegrees>-0.22909761406481266021728515625</LongitudeDegrees>
            </Position>
            <AltitudeMeters>1757</AltitudeMeters>
            <DistanceMeters>37978.891193463</DistanceMeters>
          </Trackpoint>
          <Trackpoint>
            <Time>2022-07-10T11:22:38.000Z</Time>
            <Position>
              <LatitudeDegrees>42.76174477301537990570068359375</LatitudeDegrees>
              <LongitudeDegrees>-0.2291121147572994232177734375</LongitudeDegrees>
            </Position>
            <AltitudeMeters>1756.800048828125</AltitudeMeters>
            <DistanceMeters>37980.085660741</DistanceMeters>
          </Trackpoint>
          <Trackpoint>
            <Time>2022-07-10T11:22:41.000Z</Time>
            <Position>
              <LatitudeDegrees>42.761720716953277587890625</LatitudeDegrees>
              <LongitudeDegrees>-0.22916785441339015960693359375</LongitudeDegrees>
            </Position>
            <AltitudeMeters>1756.199951171875</AltitudeMeters>
            <DistanceMeters>37985.367983735</DistanceMeters>
          </Trackpoint>
          <Trackpoint>
            <Time>2022-07-10T11:22:42.000Z</Time>
            <Position>
              <LatitudeDegrees>42.7617141790688037872314453125</LatitudeDegrees>
              <LongitudeDegrees>-0.22918562404811382293701171875</LongitudeDegrees>
            </Position>
            <AltitudeMeters>1755.800048828125</AltitudeMeters>
            <DistanceMeters>37986.991800942</DistanceMeters>
          </Trackpoint>
          <Trackpoint>
            <Time>2022-07-10T11:22:43.000Z</Time>
            <Position>
              <LatitudeDegrees>42.76170738972723484039306640625</LatitudeDegrees>
              <LongitudeDegrees>-0.2292026393115520477294921875</LongitudeDegrees>
            </Position>
            <AltitudeMeters>1755</AltitudeMeters>
            <DistanceMeters>37988.5762129</DistanceMeters>
          </Trackpoint>
          <Trackpoint>
            <Time>2022-07-10T11:22:44.000Z</Time>
            <Position>
              <LatitudeDegrees>42.76169833727180957794189453125</LatitudeDegrees>
              <LongitudeDegrees>-0.22921915166079998016357421875</LongitudeDegrees>
            </Position>
            <AltitudeMeters>1754.4000244140625</AltitudeMeters>
            <DistanceMeters>37990.262769771</DistanceMeters>
          </Trackpoint>
          <Trackpoint>
            <Time>2022-07-10T11:22:46.000Z</Time>
            <Position>
              <LatitudeDegrees>42.76168408803641796112060546875</LatitudeDegrees>
              <LongitudeDegrees>-0.22923566401004791259765625</LongitudeDegrees>
            </Position>
            <AltitudeMeters>1753</AltitudeMeters>
            <DistanceMeters>37992.344700772</DistanceMeters>
          </Trackpoint>
          <Trackpoint>
            <Time>2022-07-10T11:22:47.000Z</Time>
            <Position>
              <LatitudeDegrees>42.7616756223142147064208984375</LatitudeDegrees>
              <LongitudeDegrees>-0.22924178279936313629150390625</LongitudeDegrees>
            </Position>
            <AltitudeMeters>1752.5999755859375</AltitudeMeters>
            <DistanceMeters>37993.411372995</DistanceMeters>
          </Trackpoint>
          <Trackpoint>
            <Time>2022-07-10T11:22:49.000Z</Time>
            <Position>
              <LatitudeDegrees>42.76165760122239589691162109375</LatitudeDegrees>
              <LongitudeDegrees>-0.2292577922344207763671875</LongitudeDegrees>
            </Position>
            <AltitudeMeters>1751.800048828125</AltitudeMeters>
            <DistanceMeters>37995.807855547</DistanceMeters>
          </Trackpoint>
          <Trackpoint>
            <Time>2022-07-10T11:22:50.000Z</Time>
            <Position>
              <LatitudeDegrees>42.7616496384143829345703125</LatitudeDegrees>
              <LongitudeDegrees>-0.22927053272724151611328125</LongitudeDegrees>
            </Position>
            <AltitudeMeters>1751.4000244140625</AltitudeMeters>
            <DistanceMeters>37997.171745479</DistanceMeters>
          </Trackpoint>
          <Trackpoint>
            <Time>2022-07-10T11:22:51.000Z</Time>
            <Position>
              <LatitudeDegrees>42.76164066977798938751220703125</LatitudeDegrees>
              <LongitudeDegrees>-0.229286961257457733154296875</LongitudeDegrees>
            </Position>
            <AltitudeMeters>1751</AltitudeMeters>
            <DistanceMeters>37998.839457548</DistanceMeters>
          </Trackpoint>
          <Trackpoint>
            <Time>2022-07-10T11:22:52.000Z</Time>
            <Position>
              <LatitudeDegrees>42.76163094677031040191650390625</LatitudeDegrees>
              <LongitudeDegrees>-0.2293095923960208892822265625</LongitudeDegrees>
            </Position>
            <AltitudeMeters>1750.4000244140625</AltitudeMeters>
            <DistanceMeters>38000.981250916</DistanceMeters>
          </Trackpoint>
          <Trackpoint>
            <Time>2022-07-10T11:22:54.000Z</Time>
            <Position>
              <LatitudeDegrees>42.7616152726113796234130859375</LatitudeDegrees>
              <LongitudeDegrees>-0.22933934815227985382080078125</LongitudeDegrees>
            </Position>
            <AltitudeMeters>1749.800048828125</AltitudeMeters>
            <DistanceMeters>38003.974215305</DistanceMeters>
          </Trackpoint>
          <Trackpoint>
            <Time>2022-07-10T11:22:57.000Z</Time>
            <Position>
              <LatitudeDegrees>42.7615934796631336212158203125</LatitudeDegrees>
              <LongitudeDegrees>-0.2293880470097064971923828125</LongitudeDegrees>
            </Position>
            <AltitudeMeters>1749.199951171875</AltitudeMeters>
            <DistanceMeters>38008.635370089</DistanceMeters>
          </Trackpoint>
          <Trackpoint>
            <Time>2022-07-10T11:22:58.000Z</Time>
            <Position>
              <LatitudeDegrees>42.7615906298160552978515625</LatitudeDegrees>
              <LongitudeDegrees>-0.22940958850085735321044921875</LongitudeDegrees>
            </Position>
            <AltitudeMeters>1748.800048828125</AltitudeMeters>
            <DistanceMeters>38010.423287051</DistanceMeters>
          </Trackpoint>
          <Trackpoint>
            <Time>2022-07-10T11:22:59.000Z</Time>
            <Position>
              <LatitudeDegrees>42.76158769614994525909423828125</LatitudeDegrees>
              <LongitudeDegrees>-0.22943146526813507080078125</LongitudeDegrees>
            </Position>
            <AltitudeMeters>1748.5999755859375</AltitudeMeters>
            <DistanceMeters>38012.241255142</DistanceMeters>
          </Trackpoint>
          <Trackpoint>
            <Time>2022-07-10T11:23:01.000Z</Time>
            <Position>
              <LatitudeDegrees>42.7615854330360889434814453125</LatitudeDegrees>
              <LongitudeDegrees>-0.22945753298699855804443359375</LongitudeDegrees>
            </Position>
            <AltitudeMeters>1747.800048828125</AltitudeMeters>
            <DistanceMeters>38014.385155538</DistanceMeters>
          </Trackpoint>
          <Trackpoint>
            <Time>2022-07-10T11:23:02.000Z</Time>
            <Position>
              <LatitudeDegrees>42.76158283464610576629638671875</LatitudeDegrees>
              <LongitudeDegrees>-0.2294708602130413055419921875</LongitudeDegrees>
            </Position>
            <AltitudeMeters>1747.4000244140625</AltitudeMeters>
            <DistanceMeters>38015.517529529</DistanceMeters>
          </Trackpoint>
          <Trackpoint>
            <Time>2022-07-10T11:23:04.000Z</Time>
            <Position>
              <LatitudeDegrees>42.76158191263675689697265625</LatitudeDegrees>
              <LongitudeDegrees>-0.22948720492422580718994140625</LongitudeDegrees>
            </Position>
            <AltitudeMeters>1747</AltitudeMeters>
            <DistanceMeters>38016.854673925</DistanceMeters>
          </Trackpoint>
          <Trackpoint>
            <Time>2022-07-10T11:23:05.000Z</Time>
            <Position>
              <LatitudeDegrees>42.761580906808376312255859375</LatitudeDegrees>
              <LongitudeDegrees>-0.22950128652155399322509765625</LongitudeDegrees>
            </Position>
            <AltitudeMeters>1746.5999755859375</AltitudeMeters>
            <DistanceMeters>38018.0107238</DistanceMeters>
          </Trackpoint>
          <Trackpoint>
            <Time>2022-07-10T11:23:08.000Z</Time>
            <Position>
              <LatitudeDegrees>42.7615907974541187286376953125</LatitudeDegrees>
              <LongitudeDegrees>-0.22955694235861301422119140625</LongitudeDegrees>
            </Position>
            <AltitudeMeters>1746</AltitudeMeters>
            <DistanceMeters>38022.689281836</DistanceMeters>
          </Trackpoint>
          <Trackpoint>
            <Time>2022-07-10T11:23:09.000Z</Time>
            <Position>
              <LatitudeDegrees>42.761601023375988006591796875</LatitudeDegrees>
              <LongitudeDegrees>-0.22957622073590755462646484375</LongitudeDegrees>
            </Position>
            <AltitudeMeters>1745.800048828125</AltitudeMeters>
            <DistanceMeters>38024.634430168</DistanceMeters>
          </Trackpoint>
          <Trackpoint>
            <Time>2022-07-10T11:23:12.000Z</Time>
            <Position>
              <LatitudeDegrees>42.76163228787481784820556640625</LatitudeDegrees>
              <LongitudeDegrees>-0.22958527319133281707763671875</LongitudeDegrees>
            </Position>
            <AltitudeMeters>1745.199951171875</AltitudeMeters>
            <DistanceMeters>38028.191273866</DistanceMeters>
          </Trackpoint>
          <Trackpoint>
            <Time>2022-07-10T11:23:14.000Z</Time>
            <Position>
              <LatitudeDegrees>42.761656343936920166015625</LatitudeDegrees>
              <LongitudeDegrees>-0.22958301007747650146484375</LongitudeDegrees>
            </Position>
            <AltitudeMeters>1744.4000244140625</AltitudeMeters>
            <DistanceMeters>38030.875673427</DistanceMeters>
          </Trackpoint>
          <Trackpoint>
            <Time>2022-07-10T11:23:15.000Z</Time>
            <Position>
              <LatitudeDegrees>42.7616712637245655059814453125</LatitudeDegrees>
              <LongitudeDegrees>-0.229575634002685546875</LongitudeDegrees>
            </Position>
            <AltitudeMeters>1744.199951171875</AltitudeMeters>
            <DistanceMeters>38032.643272491</DistanceMeters>
          </Trackpoint>
          <Trackpoint>
            <Time>2022-07-10T11:23:20.000Z</Time>
            <Position>
              <LatitudeDegrees>42.7617249079048633575439453125</LatitudeDegrees>
              <LongitudeDegrees>-0.229565910995006561279296875</LongitudeDegrees>
            </Position>
            <AltitudeMeters>1743.5999755859375</AltitudeMeters>
            <DistanceMeters>38038.66679697</DistanceMeters>
          </Trackpoint>
          <Trackpoint>
            <Time>2022-07-10T11:23:21.000Z</Time>
            <Position>
              <LatitudeDegrees>42.76172809302806854248046875</LatitudeDegrees>
              <LongitudeDegrees>-0.229567252099514007568359375</LongitudeDegrees>
            </Position>
            <AltitudeMeters>1743</AltitudeMeters>
            <DistanceMeters>38039.046903827</DistanceMeters>
          </Trackpoint>
          <Trackpoint>
            <Time>2022-07-10T11:23:24.000Z</Time>
            <Position>
              <LatitudeDegrees>42.7617443539202213287353515625</LatitudeDegrees>
              <LongitudeDegrees>-0.22955912165343761444091796875</LongitudeDegrees>
            </Position>
            <AltitudeMeters>1742.4000244140625</AltitudeMeters>
            <DistanceMeters>38040.975735467</DistanceMeters>
          </Trackpoint>
          <Trackpoint>
            <Time>2022-07-10T11:23:26.000Z</Time>
            <Position>
              <LatitudeDegrees>42.7617537416517734527587890625</LatitudeDegrees>
              <LongitudeDegrees>-0.22956398315727710723876953125</LongitudeDegrees>
            </Position>
            <AltitudeMeters>1742.199951171875</AltitudeMeters>
            <DistanceMeters>38042.092046602</DistanceMeters>
          </Trackpoint>
          <Trackpoint>
            <Time>2022-07-10T11:23:27.000Z</Time>
            <Position>
              <LatitudeDegrees>42.7617597766220569610595703125</LatitudeDegrees>
              <LongitudeDegrees>-0.2295689284801483154296875</LongitudeDegrees>
            </Position>
            <AltitudeMeters>1742</AltitudeMeters>
            <DistanceMeters>38042.875656963</DistanceMeters>
          </Trackpoint>
          <Trackpoint>
            <Time>2022-07-10T11:23:28.000Z</Time>
            <Position>
              <LatitudeDegrees>42.76176631450653076171875</LatitudeDegrees>
              <LongitudeDegrees>-0.22957362234592437744140625</LongitudeDegrees>
            </Position>
            <AltitudeMeters>1741.800048828125</AltitudeMeters>
            <DistanceMeters>38043.693107669</DistanceMeters>
          </Trackpoint>
          <Trackpoint>
            <Time>2022-07-10T11:23:31.000Z</Time>
            <Position>
              <LatitudeDegrees>42.7617882750928401947021484375</LatitudeDegrees>
              <LongitudeDegrees>-0.22958703339099884033203125</LongitudeDegrees>
            </Position>
            <AltitudeMeters>1740.800048828125</AltitudeMeters>
            <DistanceMeters>38046.37077096</DistanceMeters>
          </Trackpoint>
          <Trackpoint>
            <Time>2022-07-10T11:23:32.000Z</Time>
            <Position>
              <LatitudeDegrees>42.76179372332990169525146484375</LatitudeDegrees>
              <LongitudeDegrees>-0.22958762012422084808349609375</LongitudeDegrees>
            </Position>
            <AltitudeMeters>1740.5999755859375</AltitudeMeters>
            <DistanceMeters>38046.979238818</DistanceMeters>
          </Trackpoint>
          <Trackpoint>
            <Time>2022-07-10T11:23:36.000Z</Time>
            <Position>
              <LatitudeDegrees>42.7618347108364105224609375</LatitudeDegrees>
              <LongitudeDegrees>-0.2295794896781444549560546875</LongitudeDegrees>
            </Position>
            <AltitudeMeters>1740</AltitudeMeters>
            <DistanceMeters>38051.589748545</DistanceMeters>
          </Trackpoint>
          <Trackpoint>
            <Time>2022-07-10T11:23:37.000Z</Time>
            <Position>
              <LatitudeDegrees>42.76184652931988239288330078125</LatitudeDegrees>
              <LongitudeDegrees>-0.22957362234592437744140625</LongitudeDegrees>
            </Position>
            <AltitudeMeters>1739.4000244140625</AltitudeMeters>
            <DistanceMeters>38052.986350318</DistanceMeters>
          </Trackpoint>
          <Trackpoint>
            <Time>2022-07-10T11:23:42.000Z</Time>
            <Position>
              <LatitudeDegrees>42.7618865109980106353759765625</LatitudeDegrees>
              <LongitudeDegrees>-0.2295503206551074981689453125</LongitudeDegrees>
            </Position>
            <AltitudeMeters>1738.199951171875</AltitudeMeters>
            <DistanceMeters>38057.827119717</DistanceMeters>
          </Trackpoint>
          <Trackpoint>
            <Time>2022-07-10T11:23:45.000Z</Time>
            <Position>
              <LatitudeDegrees>42.76191207580268383026123046875</LatitudeDegrees>
              <LongitudeDegrees>-0.22955342195928096771240234375</LongitudeDegrees>
            </Position>
            <AltitudeMeters>1737.800048828125</AltitudeMeters>
            <DistanceMeters>38060.685829073</DistanceMeters>
          </Trackpoint>
          <Trackpoint>
            <Time>2022-07-10T11:23:47.000Z</Time>
            <Position>
              <LatitudeDegrees>42.761924229562282562255859375</LatitudeDegrees>
              <LongitudeDegrees>-0.229561887681484222412109375</LongitudeDegrees>
            </Position>
            <AltitudeMeters>1737</AltitudeMeters>
            <DistanceMeters>38062.206256503</DistanceMeters>
          </Trackpoint>
          <Trackpoint>
            <Time>2022-07-10T11:23:48.000Z</Time>
            <Position>
              <LatitudeDegrees>42.7619351260364055633544921875</LatitudeDegrees>
              <LongitudeDegrees>-0.22957102395594120025634765625</LongitudeDegrees>
            </Position>
            <AltitudeMeters>1736.800048828125</AltitudeMeters>
            <DistanceMeters>38063.628486134</DistanceMeters>
          </Trackpoint>
          <Trackpoint>
            <Time>2022-07-10T11:23:51.000Z</Time>
            <Position>
              <LatitudeDegrees>42.76198960840702056884765625</LatitudeDegrees>
              <LongitudeDegrees>-0.229604132473468780517578125</LongitudeDegrees>
            </Position>
            <AltitudeMeters>1736.5999755859375</AltitudeMeters>
            <DistanceMeters>38070.269487064</DistanceMeters>
          </Trackpoint>
          <Trackpoint>
            <Time>2022-07-10T11:23:52.000Z</Time>
            <Position>
              <LatitudeDegrees>42.76200394146144390106201171875</LatitudeDegrees>
              <LongitudeDegrees>-0.2295992709696292877197265625</LongitudeDegrees>
            </Position>
            <AltitudeMeters>1736.5999755859375</AltitudeMeters>
            <DistanceMeters>38071.915398037</DistanceMeters>
          </Trackpoint>
          <Trackpoint>
            <Time>2022-07-10T11:23:53.000Z</Time>
            <Position>
              <LatitudeDegrees>42.7620239742100238800048828125</LatitudeDegrees>
              <LongitudeDegrees>-0.229598097503185272216796875</LongitudeDegrees>
            </Position>
            <AltitudeMeters>1736.4000244140625</AltitudeMeters>
            <DistanceMeters>38074.148020307</DistanceMeters>
          </Trackpoint>
          <Trackpoint>
            <Time>2022-07-10T11:23:59.000Z</Time>
            <Position>
              <LatitudeDegrees>42.7620927058160305023193359375</LatitudeDegrees>
              <LongitudeDegrees>-0.22960589267313480377197265625</LongitudeDegrees>
            </Position>
            <AltitudeMeters>1736.199951171875</AltitudeMeters>
            <DistanceMeters>38081.824626254</DistanceMeters>
          </Trackpoint>
          <Trackpoint>
            <Time>2022-07-10T11:24:01.000Z</Time>
            <Position>
              <LatitudeDegrees>42.7621082961559295654296875</LatitudeDegrees>
              <LongitudeDegrees>-0.229606814682483673095703125</LongitudeDegrees>
            </Position>
            <AltitudeMeters>1735.5999755859375</AltitudeMeters>
            <DistanceMeters>38083.561302831</DistanceMeters>
          </Trackpoint>
          <Trackpoint>
            <Time>2022-07-10T11:24:04.000Z</Time>
            <Position>
              <LatitudeDegrees>42.7621383033692836761474609375</LatitudeDegrees>
              <LongitudeDegrees>-0.2296046353876590728759765625</LongitudeDegrees>
            </Position>
            <AltitudeMeters>1735.4000244140625</AltitudeMeters>
            <DistanceMeters>38086.907538745</DistanceMeters>
          </Trackpoint>
          <Trackpoint>
            <Time>2022-07-10T11:24:05.000Z</Time>
            <Position>
              <LatitudeDegrees>42.7621460147202014923095703125</LatitudeDegrees>
              <LongitudeDegrees>-0.22960924543440341949462890625</LongitudeDegrees>
            </Position>
            <AltitudeMeters>1735.199951171875</AltitudeMeters>
            <DistanceMeters>38087.843443342</DistanceMeters>
          </Trackpoint>
          <Trackpoint>
            <Time>2022-07-10T11:24:08.000Z</Time>
            <Position>
              <LatitudeDegrees>42.76216722093522548675537109375</LatitudeDegrees>
              <LongitudeDegrees>-0.22961142472922801971435546875</LongitudeDegrees>
            </Position>
            <AltitudeMeters>1734.5999755859375</AltitudeMeters>
            <DistanceMeters>38090.209589448</DistanceMeters>
          </Trackpoint>
          <Trackpoint>
            <Time>2022-07-10T11:24:10.000Z</Time>
            <Position>
              <LatitudeDegrees>42.7621673047542572021484375</LatitudeDegrees>
              <LongitudeDegrees>-0.2296086587011814117431640625</LongitudeDegrees>
            </Position>
            <AltitudeMeters>1733.800048828125</AltitudeMeters>
            <DistanceMeters>38090.422075641</DistanceMeters>
          </Trackpoint>
          <Trackpoint>
            <Time>2022-07-10T11:24:12.000Z</Time>
            <Position>
              <LatitudeDegrees>42.7621678076684474945068359375</LatitudeDegrees>
              <LongitudeDegrees>-0.22960723377764225006103515625</LongitudeDegrees>
            </Position>
            <AltitudeMeters>1733</AltitudeMeters>
            <DistanceMeters>38090.586666738</DistanceMeters>
          </Trackpoint>
          <Trackpoint>
            <Time>2022-07-10T11:24:14.000Z</Time>
            <Position>
              <LatitudeDegrees>42.7621688134968280792236328125</LatitudeDegrees>
              <LongitudeDegrees>-0.2296118438243865966796875</LongitudeDegrees>
            </Position>
            <AltitudeMeters>1732.199951171875</AltitudeMeters>
            <DistanceMeters>38090.989830943</DistanceMeters>
          </Trackpoint>
          <Trackpoint>
            <Time>2022-07-10T11:24:16.000Z</Time>
            <Position>
              <LatitudeDegrees>42.76217199862003326416015625</LatitudeDegrees>
              <LongitudeDegrees>-0.229618884623050689697265625</LongitudeDegrees>
            </Position>
            <AltitudeMeters>1732</AltitudeMeters>
            <DistanceMeters>38091.661771284</DistanceMeters>
          </Trackpoint>
          <Trackpoint>
            <Time>2022-07-10T11:24:21.000Z</Time>
            <Position>
              <LatitudeDegrees>42.7621956355869770050048828125</LatitudeDegrees>
              <LongitudeDegrees>-0.22966691292822360992431640625</LongitudeDegrees>
            </Position>
            <AltitudeMeters>1732</AltitudeMeters>
            <DistanceMeters>38096.386424602</DistanceMeters>
          </Trackpoint>
          <Trackpoint>
            <Time>2022-07-10T11:24:22.000Z</Time>
            <Position>
              <LatitudeDegrees>42.76219974271953105926513671875</LatitudeDegrees>
              <LongitudeDegrees>-0.2296708524227142333984375</LongitudeDegrees>
            </Position>
            <AltitudeMeters>1732</AltitudeMeters>
            <DistanceMeters>38096.940520802</DistanceMeters>
          </Trackpoint>
          <Trackpoint>
            <Time>2022-07-10T11:24:26.000Z</Time>
            <Position>
              <LatitudeDegrees>42.762230336666107177734375</LatitudeDegrees>
              <LongitudeDegrees>-0.2297082357108592987060546875</LongitudeDegrees>
            </Position>
            <AltitudeMeters>1730.4000244140625</AltitudeMeters>
            <DistanceMeters>38101.513666005</DistanceMeters>
          </Trackpoint>
          <Trackpoint>
            <Time>2022-07-10T11:24:27.000Z</Time>
            <Position>
              <LatitudeDegrees>42.7622442506253719329833984375</LatitudeDegrees>
              <LongitudeDegrees>-0.22972726263105869293212890625</LongitudeDegrees>
            </Position>
            <AltitudeMeters>1730</AltitudeMeters>
            <DistanceMeters>38103.707528066</DistanceMeters>
          </Trackpoint>
          <Trackpoint>
            <Time>2022-07-10T11:24:29.000Z</Time>
            <Position>
              <LatitudeDegrees>42.7622714079916477203369140625</LatitudeDegrees>
              <LongitudeDegrees>-0.22976808249950408935546875</LongitudeDegrees>
            </Position>
            <AltitudeMeters>1729.199951171875</AltitudeMeters>
            <DistanceMeters>38108.209026876</DistanceMeters>
          </Trackpoint>
          <Trackpoint>
            <Time>2022-07-10T11:24:30.000Z</Time>
            <Position>
              <LatitudeDegrees>42.76228222064673900604248046875</LatitudeDegrees>
              <LongitudeDegrees>-0.22978090681135654449462890625</LongitudeDegrees>
            </Position>
            <AltitudeMeters>1729</AltitudeMeters>
            <DistanceMeters>38109.804796771</DistanceMeters>
          </Trackpoint>
          <Trackpoint>
            <Time>2022-07-10T11:24:32.000Z</Time>
            <Position>
              <LatitudeDegrees>42.7622973918914794921875</LatitudeDegrees>
              <LongitudeDegrees>-0.22976481355726718902587890625</LongitudeDegrees>
            </Position>
            <AltitudeMeters>1728.4000244140625</AltitudeMeters>
            <DistanceMeters>38111.944481037</DistanceMeters>
          </Trackpoint>
          <Trackpoint>
            <Time>2022-07-10T11:24:33.000Z</Time>
            <Position>
              <LatitudeDegrees>42.762309126555919647216796875</LatitudeDegrees>
              <LongitudeDegrees>-0.229749977588653564453125</LongitudeDegrees>
            </Position>
            <AltitudeMeters>1727.800048828125</AltitudeMeters>
            <DistanceMeters>38113.727340232</DistanceMeters>
          </Trackpoint>
          <Trackpoint>
            <Time>2022-07-10T11:24:37.000Z</Time>
            <Position>
              <LatitudeDegrees>42.76234609074890613555908203125</LatitudeDegrees>
              <LongitudeDegrees>-0.229744948446750640869140625</LongitudeDegrees>
            </Position>
            <AltitudeMeters>1726.5999755859375</AltitudeMeters>
            <DistanceMeters>38117.862913322</DistanceMeters>
          </Trackpoint>
          <Trackpoint>
            <Time>2022-07-10T11:24:38.000Z</Time>
            <Position>
              <LatitudeDegrees>42.76235514320433139801025390625</LatitudeDegrees>
              <LongitudeDegrees>-0.2297461219131946563720703125</LongitudeDegrees>
            </Position>
            <AltitudeMeters>1726.4000244140625</AltitudeMeters>
            <DistanceMeters>38118.877520987</DistanceMeters>
          </Trackpoint>
          <Trackpoint>
            <Time>2022-07-10T11:24:43.000Z</Time>
            <Position>
              <LatitudeDegrees>42.76236654259264469146728515625</LatitudeDegrees>
              <LongitudeDegrees>-0.229749977588653564453125</LongitudeDegrees>
            </Position>
            <AltitudeMeters>1725.5999755859375</AltitudeMeters>
            <DistanceMeters>38120.183922322</DistanceMeters>
          </Trackpoint>
          <Trackpoint>
            <Time>2022-07-10T11:24:44.000Z</Time>
            <Position>
              <LatitudeDegrees>42.76236084289848804473876953125</LatitudeDegrees>
              <LongitudeDegrees>-0.22975601255893707275390625</LongitudeDegrees>
            </Position>
            <AltitudeMeters>1725.199951171875</AltitudeMeters>
            <DistanceMeters>38120.990250732</DistanceMeters>
          </Trackpoint>
          <Trackpoint>
            <Time>2022-07-10T11:24:47.000Z</Time>
            <Position>
              <LatitudeDegrees>42.7623277343809604644775390625</LatitudeDegrees>
              <LongitudeDegrees>-0.2297534979879856109619140625</LongitudeDegrees>
            </Position>
            <AltitudeMeters>1724</AltitudeMeters>
            <DistanceMeters>38124.68042082</DistanceMeters>
          </Trackpoint>
          <Trackpoint>
            <Time>2022-07-10T11:24:48.000Z</Time>
            <Position>
              <LatitudeDegrees>42.76231893338263034820556640625</LatitudeDegrees>
              <LongitudeDegrees>-0.2297534979879856109619140625</LongitudeDegrees>
            </Position>
            <AltitudeMeters>1723.800048828125</AltitudeMeters>
            <DistanceMeters>38125.658780724</DistanceMeters>
          </Trackpoint>
          <Trackpoint>
            <Time>2022-07-10T11:24:51.000Z</Time>
            <Position>
              <LatitudeDegrees>42.76229730807244777679443359375</LatitudeDegrees>
              <LongitudeDegrees>-0.22977738641202449798583984375</LongitudeDegrees>
            </Position>
            <AltitudeMeters>1723</AltitudeMeters>
            <DistanceMeters>38128.758458342</DistanceMeters>
          </Trackpoint>
          <Trackpoint>
            <Time>2022-07-10T11:24:53.000Z</Time>
            <Position>
              <LatitudeDegrees>42.762286327779293060302734375</LatitudeDegrees>
              <LongitudeDegrees>-0.22980588488280773162841796875</LongitudeDegrees>
            </Position>
            <AltitudeMeters>1722.5999755859375</AltitudeMeters>
            <DistanceMeters>38131.388484684</DistanceMeters>
          </Trackpoint>
          <Trackpoint>
            <Time>2022-07-10T11:24:54.000Z</Time>
            <Position>
              <LatitudeDegrees>42.762280292809009552001953125</LatitudeDegrees>
              <LongitudeDegrees>-0.22981812246143817901611328125</LongitudeDegrees>
            </Position>
            <AltitudeMeters>1722.5999755859375</AltitudeMeters>
            <DistanceMeters>38132.590488108</DistanceMeters>
          </Trackpoint>
          <Trackpoint>
            <Time>2022-07-10T11:24:58.000Z</Time>
            <Position>
              <LatitudeDegrees>42.76225673966109752655029296875</LatitudeDegrees>
              <LongitudeDegrees>-0.22985768504440784454345703125</LongitudeDegrees>
            </Position>
            <AltitudeMeters>1721.800048828125</AltitudeMeters>
            <DistanceMeters>38136.752180867</DistanceMeters>
          </Trackpoint>
          <Trackpoint>
            <Time>2022-07-10T11:25:00.000Z</Time>
            <Position>
              <LatitudeDegrees>42.7622419036924839019775390625</LatitudeDegrees>
              <LongitudeDegrees>-0.22987377829849720001220703125</LongitudeDegrees>
            </Position>
            <AltitudeMeters>1721.199951171875</AltitudeMeters>
            <DistanceMeters>38138.864255146</DistanceMeters>
          </Trackpoint>
          <Trackpoint>
            <Time>2022-07-10T11:25:01.000Z</Time>
            <Position>
              <LatitudeDegrees>42.762235701084136962890625</LatitudeDegrees>
              <LongitudeDegrees>-0.2298772148787975311279296875</LongitudeDegrees>
            </Position>
            <AltitudeMeters>1721</AltitudeMeters>
            <DistanceMeters>38139.606437511</DistanceMeters>
          </Trackpoint>
          <Trackpoint>
            <Time>2022-07-10T11:25:02.000Z</Time>
            <Position>
              <LatitudeDegrees>42.76222874410450458526611328125</LatitudeDegrees>
              <LongitudeDegrees>-0.22987981326878070831298828125</LongitudeDegrees>
            </Position>
            <AltitudeMeters>1720.5999755859375</AltitudeMeters>
            <DistanceMeters>38140.407146839</DistanceMeters>
          </Trackpoint>
          <Trackpoint>
            <Time>2022-07-10T11:25:03.000Z</Time>
            <Position>
              <LatitudeDegrees>42.7622241340577602386474609375</LatitudeDegrees>
              <LongitudeDegrees>-0.22988266311585903167724609375</LongitudeDegrees>
            </Position>
            <AltitudeMeters>1720.5999755859375</AltitudeMeters>
            <DistanceMeters>38140.977307125</DistanceMeters>
          </Trackpoint>
          <Trackpoint>
            <Time>2022-07-10T11:25:05.000Z</Time>
            <Position>
              <LatitudeDegrees>42.7622073702514171600341796875</LatitudeDegrees>
              <LongitudeDegrees>-0.2298943139612674713134765625</LongitudeDegrees>
            </Position>
            <AltitudeMeters>1720.199951171875</AltitudeMeters>
            <DistanceMeters>38143.072209785</DistanceMeters>
          </Trackpoint>
          <Trackpoint>
            <Time>2022-07-10T11:25:06.000Z</Time>
            <Position>
              <LatitudeDegrees>42.7621966414153575897216796875</LatitudeDegrees>
              <LongitudeDegrees>-0.229901187121868133544921875</LongitudeDegrees>
            </Position>
            <AltitudeMeters>1720</AltitudeMeters>
            <DistanceMeters>38144.388938564</DistanceMeters>
          </Trackpoint>
          <Trackpoint>
            <Time>2022-07-10T11:25:07.000Z</Time>
            <Position>
              <LatitudeDegrees>42.76218666695058345794677734375</LatitudeDegrees>
              <LongitudeDegrees>-0.22990847937762737274169921875</LongitudeDegrees>
            </Position>
            <AltitudeMeters>1719.5999755859375</AltitudeMeters>
            <DistanceMeters>38145.646023834</DistanceMeters>
          </Trackpoint>
          <Trackpoint>
            <Time>2022-07-10T11:25:09.000Z</Time>
            <Position>
              <LatitudeDegrees>42.76216328144073486328125</LatitudeDegrees>
              <LongitudeDegrees>-0.22992960177361965179443359375</LongitudeDegrees>
            </Position>
            <AltitudeMeters>1719</AltitudeMeters>
            <DistanceMeters>38148.768920336</DistanceMeters>
          </Trackpoint>
          <Trackpoint>
            <Time>2022-07-10T11:25:10.000Z</Time>
            <Position>
              <LatitudeDegrees>42.76215112768113613128662109375</LatitudeDegrees>
              <LongitudeDegrees>-0.22994217462837696075439453125</LongitudeDegrees>
            </Position>
            <AltitudeMeters>1718.5999755859375</AltitudeMeters>
            <DistanceMeters>38150.46880988</DistanceMeters>
          </Trackpoint>
          <Trackpoint>
            <Time>2022-07-10T11:25:11.000Z</Time>
            <Position>
              <LatitudeDegrees>42.76213654316961765289306640625</LatitudeDegrees>
              <LongitudeDegrees>-0.22995508275926113128662109375</LongitudeDegrees>
            </Position>
            <AltitudeMeters>1718.4000244140625</AltitudeMeters>
            <DistanceMeters>38152.402317482</DistanceMeters>
          </Trackpoint>
          <Trackpoint>
            <Time>2022-07-10T11:25:13.000Z</Time>
            <Position>
              <LatitudeDegrees>42.76211122982203960418701171875</LatitudeDegrees>
              <LongitudeDegrees>-0.229970924556255340576171875</LongitudeDegrees>
            </Position>
            <AltitudeMeters>1718</AltitudeMeters>
            <DistanceMeters>38155.5019951</DistanceMeters>
          </Trackpoint>
          <Trackpoint>
            <Time>2022-07-10T11:25:15.000Z</Time>
            <Position>
              <LatitudeDegrees>42.7620880119502544403076171875</LatitudeDegrees>
              <LongitudeDegrees>-0.22998928092420101165771484375</LongitudeDegrees>
            </Position>
            <AltitudeMeters>1717.4000244140625</AltitudeMeters>
            <DistanceMeters>38158.488919191</DistanceMeters>
          </Trackpoint>
          <Trackpoint>
            <Time>2022-07-10T11:25:18.000Z</Time>
            <Position>
              <LatitudeDegrees>42.7620561607182025909423828125</LatitudeDegrees>
              <LongitudeDegrees>-0.230012834072113037109375</LongitudeDegrees>
            </Position>
            <AltitudeMeters>1716.800048828125</AltitudeMeters>
            <DistanceMeters>38162.522800418</DistanceMeters>
          </Trackpoint>
          <Trackpoint>
            <Time>2022-07-10T11:25:22.000Z</Time>
            <Position>
              <LatitudeDegrees>42.762022130191326141357421875</LatitudeDegrees>
              <LongitudeDegrees>-0.230053402483463287353515625</LongitudeDegrees>
            </Position>
            <AltitudeMeters>1716.4000244140625</AltitudeMeters>
            <DistanceMeters>38167.556526126</DistanceMeters>
          </Trackpoint>
          <Trackpoint>
            <Time>2022-07-10T11:25:23.000Z</Time>
            <Position>
              <LatitudeDegrees>42.7620095573365688323974609375</LatitudeDegrees>
              <LongitudeDegrees>-0.23006153292953968048095703125</LongitudeDegrees>
            </Position>
            <AltitudeMeters>1716.199951171875</AltitudeMeters>
            <DistanceMeters>38169.103448961</DistanceMeters>
          </Trackpoint>
          <Trackpoint>
            <Time>2022-07-10T11:25:24.000Z</Time>
            <Position>
              <LatitudeDegrees>42.76200033724308013916015625</LatitudeDegrees>
              <LongitudeDegrees>-0.23007125593721866607666015625</LongitudeDegrees>
            </Position>
            <AltitudeMeters>1715.800048828125</AltitudeMeters>
            <DistanceMeters>38170.399440558</DistanceMeters>
          </Trackpoint>
          <Trackpoint>
            <Time>2022-07-10T11:25:26.000Z</Time>
            <Position>
              <LatitudeDegrees>42.7619768679141998291015625</LatitudeDegrees>
              <LongitudeDegrees>-0.2300968207418918609619140625</LongitudeDegrees>
            </Position>
            <AltitudeMeters>1715.4000244140625</AltitudeMeters>
            <DistanceMeters>38173.745676472</DistanceMeters>
          </Trackpoint>
          <Trackpoint>
            <Time>2022-07-10T11:25:29.000Z</Time>
            <Position>
              <LatitudeDegrees>42.76195297949016094207763671875</LatitudeDegrees>
              <LongitudeDegrees>-0.23013898171484470367431640625</LongitudeDegrees>
            </Position>
            <AltitudeMeters>1714.800048828125</AltitudeMeters>
            <DistanceMeters>38178.098273441</DistanceMeters>
          </Trackpoint>
          <Trackpoint>
            <Time>2022-07-10T11:25:32.000Z</Time>
            <Position>
              <LatitudeDegrees>42.761926911771297454833984375</LatitudeDegrees>
              <LongitudeDegrees>-0.2301777899265289306640625</LongitudeDegrees>
            </Position>
            <AltitudeMeters>1714.5999755859375</AltitudeMeters>
            <DistanceMeters>38182.396591299</DistanceMeters>
          </Trackpoint>
          <Trackpoint>
            <Time>2022-07-10T11:25:33.000Z</Time>
            <Position>
              <LatitudeDegrees>42.76191660203039646148681640625</LatitudeDegrees>
              <LongitudeDegrees>-0.23019396699965000152587890625</LongitudeDegrees>
            </Position>
            <AltitudeMeters>1714.4000244140625</AltitudeMeters>
            <DistanceMeters>38184.148797334</DistanceMeters>
          </Trackpoint>
          <Trackpoint>
            <Time>2022-07-10T11:25:34.000Z</Time>
            <Position>
              <LatitudeDegrees>42.76190939359366893768310546875</LatitudeDegrees>
              <LongitudeDegrees>-0.23020260035991668701171875</LongitudeDegrees>
            </Position>
            <AltitudeMeters>1714</AltitudeMeters>
            <DistanceMeters>38185.215469557</DistanceMeters>
          </Trackpoint>
          <Trackpoint>
            <Time>2022-07-10T11:25:35.000Z</Time>
            <Position>
              <LatitudeDegrees>42.7618995867669582366943359375</LatitudeDegrees>
              <LongitudeDegrees>-0.23020989261567592620849609375</LongitudeDegrees>
            </Position>
            <AltitudeMeters>1713.5999755859375</AltitudeMeters>
            <DistanceMeters>38186.454466327</DistanceMeters>
          </Trackpoint>
          <Trackpoint>
            <Time>2022-07-10T11:25:38.000Z</Time>
            <Position>
              <LatitudeDegrees>42.76187016628682613372802734375</LatitudeDegrees>
              <LongitudeDegrees>-0.23022942245006561279296875</LongitudeDegrees>
            </Position>
            <AltitudeMeters>1712.800048828125</AltitudeMeters>
            <DistanceMeters>38190.097845579</DistanceMeters>
          </Trackpoint>
          <Trackpoint>
            <Time>2022-07-10T11:25:41.000Z</Time>
            <Position>
              <LatitudeDegrees>42.7618321962654590606689453125</LatitudeDegrees>
              <LongitudeDegrees>-0.2302731759846210479736328125</LongitudeDegrees>
            </Position>
            <AltitudeMeters>1712.4000244140625</AltitudeMeters>
            <DistanceMeters>38195.633916338</DistanceMeters>
          </Trackpoint>
          <Trackpoint>
            <Time>2022-07-10T11:25:42.000Z</Time>
            <Position>
              <LatitudeDegrees>42.76181518100202083587646484375</LatitudeDegrees>
              <LongitudeDegrees>-0.230303518474102020263671875</LongitudeDegrees>
            </Position>
            <AltitudeMeters>1711.5999755859375</AltitudeMeters>
            <DistanceMeters>38198.753919929</DistanceMeters>
          </Trackpoint>
          <Trackpoint>
            <Time>2022-07-10T11:25:43.000Z</Time>
            <Position>
              <LatitudeDegrees>42.7618114091455936431884765625</LatitudeDegrees>
              <LongitudeDegrees>-0.23032589815557003021240234375</LongitudeDegrees>
            </Position>
            <AltitudeMeters>1711.4000244140625</AltitudeMeters>
            <DistanceMeters>38200.628139696</DistanceMeters>
          </Trackpoint>
          <Trackpoint>
            <Time>2022-07-10T11:25:45.000Z</Time>
            <Position>
              <LatitudeDegrees>42.76180478744208812713623046875</LatitudeDegrees>
              <LongitudeDegrees>-0.230358503758907318115234375</LongitudeDegrees>
            </Position>
            <AltitudeMeters>1711</AltitudeMeters>
            <DistanceMeters>38203.393727292</DistanceMeters>
          </Trackpoint>
          <Trackpoint>
            <Time>2022-07-10T11:25:46.000Z</Time>
            <Position>
              <LatitudeDegrees>42.76180227287113666534423828125</LatitudeDegrees>
              <LongitudeDegrees>-0.230372250080108642578125</LongitudeDegrees>
            </Position>
            <AltitudeMeters>1711</AltitudeMeters>
            <DistanceMeters>38204.553676166</DistanceMeters>
          </Trackpoint>
          <Trackpoint>
            <Time>2022-07-10T11:25:48.000Z</Time>
            <Position>
              <LatitudeDegrees>42.76180076412856578826904296875</LatitudeDegrees>
              <LongitudeDegrees>-0.2304012514650821685791015625</LongitudeDegrees>
            </Position>
            <AltitudeMeters>1710.5999755859375</AltitudeMeters>
            <DistanceMeters>38206.92744273</DistanceMeters>
          </Trackpoint>
          <Trackpoint>
            <Time>2022-07-10T11:25:49.000Z</Time>
            <Position>
              <LatitudeDegrees>42.76179908774793148040771484375</LatitudeDegrees>
              <LongitudeDegrees>-0.2304103039205074310302734375</LongitudeDegrees>
            </Position>
            <AltitudeMeters>1710.4000244140625</AltitudeMeters>
            <DistanceMeters>38207.687656445</DistanceMeters>
          </Trackpoint>
          <Trackpoint>
            <Time>2022-07-10T11:25:51.000Z</Time>
            <Position>
              <LatitudeDegrees>42.761778719723224639892578125</LatitudeDegrees>
              <LongitudeDegrees>-0.230441987514495849609375</LongitudeDegrees>
            </Position>
            <AltitudeMeters>1710</AltitudeMeters>
            <DistanceMeters>38211.12835844</DistanceMeters>
          </Trackpoint>
          <Trackpoint>
            <Time>2022-07-10T11:25:53.000Z</Time>
            <Position>
              <LatitudeDegrees>42.7617631293833255767822265625</LatitudeDegrees>
              <LongitudeDegrees>-0.23048196919262409210205078125</LongitudeDegrees>
            </Position>
            <AltitudeMeters>1709.5999755859375</AltitudeMeters>
            <DistanceMeters>38214.82830383</DistanceMeters>
          </Trackpoint>
          <Trackpoint>
            <Time>2022-07-10T11:25:54.000Z</Time>
            <Position>
              <LatitudeDegrees>42.76175483129918575286865234375</LatitudeDegrees>
              <LongitudeDegrees>-0.230489932000637054443359375</LongitudeDegrees>
            </Position>
            <AltitudeMeters>1709.199951171875</AltitudeMeters>
            <DistanceMeters>38215.960677821</DistanceMeters>
          </Trackpoint>
          <Trackpoint>
            <Time>2022-07-10T11:25:56.000Z</Time>
            <Position>
              <LatitudeDegrees>42.76173521764576435089111328125</LatitudeDegrees>
              <LongitudeDegrees>-0.23051616735756397247314453125</LongitudeDegrees>
            </Position>
            <AltitudeMeters>1708.4000244140625</AltitudeMeters>
            <DistanceMeters>38219.019298293</DistanceMeters>
          </Trackpoint>
          <Trackpoint>
            <Time>2022-07-10T11:25:57.000Z</Time>
            <Position>
              <LatitudeDegrees>42.76172767393290996551513671875</LatitudeDegrees>
              <LongitudeDegrees>-0.23052756674587726593017578125</LongitudeDegrees>
            </Position>
            <AltitudeMeters>1708.199951171875</AltitudeMeters>
            <DistanceMeters>38220.272786746</DistanceMeters>
          </Trackpoint>
          <Trackpoint>
            <Time>2022-07-10T11:26:00.000Z</Time>
            <Position>
              <LatitudeDegrees>42.76171443052589893341064453125</LatitudeDegrees>
              <LongitudeDegrees>-0.23056645877659320831298828125</LongitudeDegrees>
            </Position>
            <AltitudeMeters>1707.4000244140625</AltitudeMeters>
            <DistanceMeters>38223.775910193</DistanceMeters>
          </Trackpoint>
          <Trackpoint>
            <Time>2022-07-10T11:26:02.000Z</Time>
            <Position>
              <LatitudeDegrees>42.7616980858147144317626953125</LatitudeDegrees>
              <LongitudeDegrees>-0.23060803301632404327392578125</LongitudeDegrees>
            </Position>
            <AltitudeMeters>1707</AltitudeMeters>
            <DistanceMeters>38227.631231947</DistanceMeters>
          </Trackpoint>
          <Trackpoint>
            <Time>2022-07-10T11:26:03.000Z</Time>
            <Position>
              <LatitudeDegrees>42.76168727315962314605712890625</LatitudeDegrees>
              <LongitudeDegrees>-0.2306198514997959136962890625</LongitudeDegrees>
            </Position>
            <AltitudeMeters>1706.800048828125</AltitudeMeters>
            <DistanceMeters>38229.175233301</DistanceMeters>
          </Trackpoint>
          <Trackpoint>
            <Time>2022-07-10T11:26:04.000Z</Time>
            <Position>
              <LatitudeDegrees>42.76167981326580047607421875</LatitudeDegrees>
              <LongitudeDegrees>-0.23063418455421924591064453125</LongitudeDegrees>
            </Position>
            <AltitudeMeters>1706.199951171875</AltitudeMeters>
            <DistanceMeters>38230.613248429</DistanceMeters>
          </Trackpoint>
          <Trackpoint>
            <Time>2022-07-10T11:26:06.000Z</Time>
            <Position>
              <LatitudeDegrees>42.76166950352489948272705078125</LatitudeDegrees>
              <LongitudeDegrees>-0.23067601025104522705078125</LongitudeDegrees>
            </Position>
            <AltitudeMeters>1705.4000244140625</AltitudeMeters>
            <DistanceMeters>38234.2192587</DistanceMeters>
          </Trackpoint>
          <Trackpoint>
            <Time>2022-07-10T11:26:09.000Z</Time>
            <Position>
              <LatitudeDegrees>42.761653997004032135009765625</LatitudeDegrees>
              <LongitudeDegrees>-0.23072772659361362457275390625</LongitudeDegrees>
            </Position>
            <AltitudeMeters>1704.199951171875</AltitudeMeters>
            <DistanceMeters>38238.784498719</DistanceMeters>
          </Trackpoint>
          <Trackpoint>
            <Time>2022-07-10T11:26:12.000Z</Time>
            <Position>
              <LatitudeDegrees>42.7616350539028644561767578125</LatitudeDegrees>
              <LongitudeDegrees>-0.2307794429361820220947265625</LongitudeDegrees>
            </Position>
            <AltitudeMeters>1703.800048828125</AltitudeMeters>
            <DistanceMeters>38243.507240382</DistanceMeters>
          </Trackpoint>
          <Trackpoint>
            <Time>2022-07-10T11:26:13.000Z</Time>
            <Position>
              <LatitudeDegrees>42.76163195259869098663330078125</LatitudeDegrees>
              <LongitudeDegrees>-0.230791009962558746337890625</LongitudeDegrees>
            </Position>
            <AltitudeMeters>1703.5999755859375</AltitudeMeters>
            <DistanceMeters>38244.512908599</DistanceMeters>
          </Trackpoint>
          <Trackpoint>
            <Time>2022-07-10T11:26:16.000Z</Time>
            <Position>
              <LatitudeDegrees>42.7616203017532825469970703125</LatitudeDegrees>
              <LongitudeDegrees>-0.2308438159525394439697265625</LongitudeDegrees>
            </Position>
            <AltitudeMeters>1702.800048828125</AltitudeMeters>
            <DistanceMeters>38249.018417654</DistanceMeters>
          </Trackpoint>
          <Trackpoint>
            <Time>2022-07-10T11:26:18.000Z</Time>
            <Position>
              <LatitudeDegrees>42.76160647161304950714111328125</LatitudeDegrees>
              <LongitudeDegrees>-0.230876840651035308837890625</LongitudeDegrees>
            </Position>
            <AltitudeMeters>1701.800048828125</AltitudeMeters>
            <DistanceMeters>38252.123916268</DistanceMeters>
          </Trackpoint>
          <Trackpoint>
            <Time>2022-07-10T11:26:19.000Z</Time>
            <Position>
              <LatitudeDegrees>42.76159792207181453704833984375</LatitudeDegrees>
              <LongitudeDegrees>-0.23089050315320491790771484375</LongitudeDegrees>
            </Position>
            <AltitudeMeters>1701.4000244140625</AltitudeMeters>
            <DistanceMeters>38253.589917016</DistanceMeters>
          </Trackpoint>
          <Trackpoint>
            <Time>2022-07-10T11:26:20.000Z</Time>
            <Position>
              <LatitudeDegrees>42.76159138418734073638916015625</LatitudeDegrees>
              <LongitudeDegrees>-0.23090056143701076507568359375</LongitudeDegrees>
            </Position>
            <AltitudeMeters>1701</AltitudeMeters>
            <DistanceMeters>38254.689930763</DistanceMeters>
          </Trackpoint>
          <Trackpoint>
            <Time>2022-07-10T11:26:22.000Z</Time>
            <Position>
              <LatitudeDegrees>42.76157244108617305755615234375</LatitudeDegrees>
              <LongitudeDegrees>-0.23092587478458881378173828125</LongitudeDegrees>
            </Position>
            <AltitudeMeters>1700.5999755859375</AltitudeMeters>
            <DistanceMeters>38257.643412411</DistanceMeters>
          </Trackpoint>
          <Trackpoint>
            <Time>2022-07-10T11:26:24.000Z</Time>
            <Position>
              <LatitudeDegrees>42.76156154461205005645751953125</LatitudeDegrees>
              <LongitudeDegrees>-0.23094850592315196990966796875</LongitudeDegrees>
            </Position>
            <AltitudeMeters>1700.199951171875</AltitudeMeters>
            <DistanceMeters>38259.855719224</DistanceMeters>
          </Trackpoint>
          <Trackpoint>
            <Time>2022-07-10T11:26:26.000Z</Time>
            <Position>
              <LatitudeDegrees>42.7615450322628021240234375</LatitudeDegrees>
              <LongitudeDegrees>-0.23098069243133068084716796875</LongitudeDegrees>
            </Position>
            <AltitudeMeters>1699</AltitudeMeters>
            <DistanceMeters>38263.064190378</DistanceMeters>
          </Trackpoint>
          <Trackpoint>
            <Time>2022-07-10T11:26:28.000Z</Time>
            <Position>
              <LatitudeDegrees>42.76154075749218463897705078125</LatitudeDegrees>
              <LongitudeDegrees>-0.23101086728274822235107421875</LongitudeDegrees>
            </Position>
            <AltitudeMeters>1698.4000244140625</AltitudeMeters>
            <DistanceMeters>38265.574766678</DistanceMeters>
          </Trackpoint>
          <Trackpoint>
            <Time>2022-07-10T11:26:30.000Z</Time>
            <Position>
              <LatitudeDegrees>42.76153673417866230010986328125</LatitudeDegrees>
              <LongitudeDegrees>-0.23105680011212825775146484375</LongitudeDegrees>
            </Position>
            <AltitudeMeters>1697.800048828125</AltitudeMeters>
            <DistanceMeters>38269.354393767</DistanceMeters>
          </Trackpoint>
          <Trackpoint>
            <Time>2022-07-10T11:26:32.000Z</Time>
            <Position>
              <LatitudeDegrees>42.76152282021939754486083984375</LatitudeDegrees>
              <LongitudeDegrees>-0.2310788445174694061279296875</LongitudeDegrees>
            </Position>
            <AltitudeMeters>1697.199951171875</AltitudeMeters>
            <DistanceMeters>38271.730061626</DistanceMeters>
          </Trackpoint>
          <Trackpoint>
            <Time>2022-07-10T11:26:33.000Z</Time>
            <Position>
              <LatitudeDegrees>42.761518545448780059814453125</LatitudeDegrees>
              <LongitudeDegrees>-0.23108378984034061431884765625</LongitudeDegrees>
            </Position>
            <AltitudeMeters>1696.800048828125</AltitudeMeters>
            <DistanceMeters>38272.345905122</DistanceMeters>
          </Trackpoint>
          <Trackpoint>
            <Time>2022-07-10T11:26:34.000Z</Time>
            <Position>
              <LatitudeDegrees>42.7615170367062091827392578125</LatitudeDegrees>
              <LongitudeDegrees>-0.23108638823032379150390625</LongitudeDegrees>
            </Position>
            <AltitudeMeters>1696.4000244140625</AltitudeMeters>
            <DistanceMeters>38272.614681258</DistanceMeters>
          </Trackpoint>
          <Trackpoint>
            <Time>2022-07-10T11:26:36.000Z</Time>
            <Position>
              <LatitudeDegrees>42.7615203894674777984619140625</LatitudeDegrees>
              <LongitudeDegrees>-0.23109250701963901519775390625</LongitudeDegrees>
            </Position>
            <AltitudeMeters>1695.5999755859375</AltitudeMeters>
            <DistanceMeters>38273.230524753</DistanceMeters>
          </Trackpoint>
          <Trackpoint>
            <Time>2022-07-10T11:26:38.000Z</Time>
            <Position>
              <LatitudeDegrees>42.7615348063409328460693359375</LatitudeDegrees>
              <LongitudeDegrees>-0.23110575042665004730224609375</LongitudeDegrees>
            </Position>
            <AltitudeMeters>1695.199951171875</AltitudeMeters>
            <DistanceMeters>38275.166366101</DistanceMeters>
          </Trackpoint>
          <Trackpoint>
            <Time>2022-07-10T11:26:39.000Z</Time>
            <Position>
              <LatitudeDegrees>42.76154058985412120819091796875</LatitudeDegrees>
              <LongitudeDegrees>-0.23110725916922092437744140625</LongitudeDegrees>
            </Position>
            <AltitudeMeters>1695</AltitudeMeters>
            <DistanceMeters>38275.824730491</DistanceMeters>
          </Trackpoint>
          <Trackpoint>
            <Time>2022-07-10T11:26:43.000Z</Time>
            <Position>
              <LatitudeDegrees>42.7615584433078765869140625</LatitudeDegrees>
              <LongitudeDegrees>-0.2311070077121257781982421875</LongitudeDegrees>
            </Position>
            <AltitudeMeters>1694.5999755859375</AltitudeMeters>
            <DistanceMeters>38277.811220714</DistanceMeters>
          </Trackpoint>
          <Trackpoint>
            <Time>2022-07-10T11:26:44.000Z</Time>
            <Position>
              <LatitudeDegrees>42.76156053878366947174072265625</LatitudeDegrees>
              <LongitudeDegrees>-0.2311123721301555633544921875</LongitudeDegrees>
            </Position>
            <AltitudeMeters>1694.4000244140625</AltitudeMeters>
            <DistanceMeters>38278.304994006</DistanceMeters>
          </Trackpoint>
          <Trackpoint>
            <Time>2022-07-10T11:26:47.000Z</Time>
            <Position>
              <LatitudeDegrees>42.761559449136257171630859375</LatitudeDegrees>
              <LongitudeDegrees>-0.23112821392714977264404296875</LongitudeDegrees>
            </Position>
            <AltitudeMeters>1693.199951171875</AltitudeMeters>
            <DistanceMeters>38279.604464781</DistanceMeters>
          </Trackpoint>
          <Trackpoint>
            <Time>2022-07-10T11:26:50.000Z</Time>
            <Position>
              <LatitudeDegrees>42.7615626342594623565673828125</LatitudeDegrees>
              <LongitudeDegrees>-0.23114564828574657440185546875</LongitudeDegrees>
            </Position>
            <AltitudeMeters>1692.4000244140625</AltitudeMeters>
            <DistanceMeters>38281.070465529</DistanceMeters>
          </Trackpoint>
          <Trackpoint>
            <Time>2022-07-10T11:26:51.000Z</Time>
            <Position>
              <LatitudeDegrees>42.7615629695355892181396484375</LatitudeDegrees>
              <LongitudeDegrees>-0.23115017451345920562744140625</LongitudeDegrees>
            </Position>
            <AltitudeMeters>1692</AltitudeMeters>
            <DistanceMeters>38281.426022937</DistanceMeters>
          </Trackpoint>
          <Trackpoint>
            <Time>2022-07-10T11:26:52.000Z</Time>
            <Position>
              <LatitudeDegrees>42.76156154461205005645751953125</LatitudeDegrees>
              <LongitudeDegrees>-0.23115620948374271392822265625</LongitudeDegrees>
            </Position>
            <AltitudeMeters>1691.5999755859375</AltitudeMeters>
            <DistanceMeters>38281.946505687</DistanceMeters>
          </Trackpoint>
          <Trackpoint>
            <Time>2022-07-10T11:26:53.000Z</Time>
            <Position>
              <LatitudeDegrees>42.76155509054660797119140625</LatitudeDegrees>
              <LongitudeDegrees>-0.23116693831980228424072265625</LongitudeDegrees>
            </Position>
            <AltitudeMeters>1691</AltitudeMeters>
            <DistanceMeters>38283.078879678</DistanceMeters>
          </Trackpoint>
          <Trackpoint>
            <Time>2022-07-10T11:26:55.000Z</Time>
            <Position>
              <LatitudeDegrees>42.76154570281505584716796875</LatitudeDegrees>
              <LongitudeDegrees>-0.2311943471431732177734375</LongitudeDegrees>
            </Position>
            <AltitudeMeters>1690.4000244140625</AltitudeMeters>
            <DistanceMeters>38285.553226426</DistanceMeters>
          </Trackpoint>
          <Trackpoint>
            <Time>2022-07-10T11:26:57.000Z</Time>
            <Position>
              <LatitudeDegrees>42.7615401707589626312255859375</LatitudeDegrees>
              <LongitudeDegrees>-0.23123600520193576812744140625</LongitudeDegrees>
            </Position>
            <AltitudeMeters>1690</AltitudeMeters>
            <DistanceMeters>38289.013556087</DistanceMeters>
          </Trackpoint>
          <Trackpoint>
            <Time>2022-07-10T11:26:58.000Z</Time>
            <Position>
              <LatitudeDegrees>42.7615378238260746002197265625</LatitudeDegrees>
              <LongitudeDegrees>-0.2312555350363254547119140625</LongitudeDegrees>
            </Position>
            <AltitudeMeters>1689.5999755859375</AltitudeMeters>
            <DistanceMeters>38290.631802721</DistanceMeters>
          </Trackpoint>
          <Trackpoint>
            <Time>2022-07-10T11:27:01.000Z</Time>
            <Position>
              <LatitudeDegrees>42.76151997037231922149658203125</LatitudeDegrees>
              <LongitudeDegrees>-0.2313172258436679840087890625</LongitudeDegrees>
            </Position>
            <AltitudeMeters>1689</AltitudeMeters>
            <DistanceMeters>38296.049992319</DistanceMeters>
          </Trackpoint>
          <Trackpoint>
            <Time>2022-07-10T11:27:04.000Z</Time>
            <Position>
              <LatitudeDegrees>42.76151929982006549835205078125</LatitudeDegrees>
              <LongitudeDegrees>-0.23138017393648624420166015625</LongitudeDegrees>
            </Position>
            <AltitudeMeters>1688.199951171875</AltitudeMeters>
            <DistanceMeters>38301.193738423</DistanceMeters>
          </Trackpoint>
          <Trackpoint>
            <Time>2022-07-10T11:27:05.000Z</Time>
            <Position>
              <LatitudeDegrees>42.7615203894674777984619140625</LatitudeDegrees>
              <LongitudeDegrees>-0.23139911703765392303466796875</LongitudeDegrees>
            </Position>
            <AltitudeMeters>1688</AltitudeMeters>
            <DistanceMeters>38302.743577232</DistanceMeters>
          </Trackpoint>
          <Trackpoint>
            <Time>2022-07-10T11:27:06.000Z</Time>
            <Position>
              <LatitudeDegrees>42.76152198202908039093017578125</LatitudeDegrees>
              <LongitudeDegrees>-0.2314214967191219329833984375</LongitudeDegrees>
            </Position>
            <AltitudeMeters>1687.800048828125</AltitudeMeters>
            <DistanceMeters>38304.578847924</DistanceMeters>
          </Trackpoint>
          <Trackpoint>
            <Time>2022-07-10T11:27:09.000Z</Time>
            <Position>
              <LatitudeDegrees>42.76154545135796070098876953125</LatitudeDegrees>
              <LongitudeDegrees>-0.23148109205067157745361328125</LongitudeDegrees>
            </Position>
            <AltitudeMeters>1686.5999755859375</AltitudeMeters>
            <DistanceMeters>38310.103488942</DistanceMeters>
          </Trackpoint>
          <Trackpoint>
            <Time>2022-07-10T11:27:10.000Z</Time>
            <Position>
              <LatitudeDegrees>42.76155668310821056365966796875</LatitudeDegrees>
              <LongitudeDegrees>-0.23148209787905216217041015625</LongitudeDegrees>
            </Position>
            <AltitudeMeters>1686.199951171875</AltitudeMeters>
            <DistanceMeters>38311.356977395</DistanceMeters>
          </Trackpoint>
          <Trackpoint>
            <Time>2022-07-10T11:27:11.000Z</Time>
            <Position>
              <LatitudeDegrees>42.76156825013458728790283203125</LatitudeDegrees>
              <LongitudeDegrees>-0.23147555999457836151123046875</LongitudeDegrees>
            </Position>
            <AltitudeMeters>1685.4000244140625</AltitudeMeters>
            <DistanceMeters>38312.753579168</DistanceMeters>
          </Trackpoint>
          <Trackpoint>
            <Time>2022-07-10T11:27:14.000Z</Time>
            <Position>
              <LatitudeDegrees>42.76159892790019512176513671875</LatitudeDegrees>
              <LongitudeDegrees>-0.23145678453147411346435546875</LongitudeDegrees>
            </Position>
            <AltitudeMeters>1684.199951171875</AltitudeMeters>
            <DistanceMeters>38316.497197557</DistanceMeters>
          </Trackpoint>
          <Trackpoint>
            <Time>2022-07-10T11:27:16.000Z</Time>
            <Position>
              <LatitudeDegrees>42.76161409914493560791015625</LatitudeDegrees>
              <LongitudeDegrees>-0.23143650032579898834228515625</LongitudeDegrees>
            </Position>
            <AltitudeMeters>1683.800048828125</AltitudeMeters>
            <DistanceMeters>38318.863343663</DistanceMeters>
          </Trackpoint>
          <Trackpoint>
            <Time>2022-07-10T11:27:17.000Z</Time>
            <Position>
              <LatitudeDegrees>42.76162340305745601654052734375</LatitudeDegrees>
              <LongitudeDegrees>-0.231429040431976318359375</LongitudeDegrees>
            </Position>
            <AltitudeMeters>1683.5999755859375</AltitudeMeters>
            <DistanceMeters>38320.065347087</DistanceMeters>
          </Trackpoint>
          <Trackpoint>
            <Time>2022-07-10T11:27:19.000Z</Time>
            <Position>
              <LatitudeDegrees>42.761648632586002349853515625</LatitudeDegrees>
              <LongitudeDegrees>-0.23141554556787014007568359375</LongitudeDegrees>
            </Position>
            <AltitudeMeters>1683</AltitudeMeters>
            <DistanceMeters>38323.083847895</DistanceMeters>
          </Trackpoint>
          <Trackpoint>
            <Time>2022-07-10T11:27:23.000Z</Time>
            <Position>
              <LatitudeDegrees>42.76169213466346263885498046875</LatitudeDegrees>
              <LongitudeDegrees>-0.23138956166803836822509765625</LongitudeDegrees>
            </Position>
            <AltitudeMeters>1682.4000244140625</AltitudeMeters>
            <DistanceMeters>38328.371296871</DistanceMeters>
          </Trackpoint>
          <Trackpoint>
            <Time>2022-07-10T11:27:25.000Z</Time>
            <Position>
              <LatitudeDegrees>42.76171334087848663330078125</LatitudeDegrees>
              <LongitudeDegrees>-0.23139257915318012237548828125</LongitudeDegrees>
            </Position>
            <AltitudeMeters>1681.5999755859375</AltitudeMeters>
            <DistanceMeters>38330.743160616</DistanceMeters>
          </Trackpoint>
          <Trackpoint>
            <Time>2022-07-10T11:27:27.000Z</Time>
            <Position>
              <LatitudeDegrees>42.7617336250841617584228515625</LatitudeDegrees>
              <LongitudeDegrees>-0.2314074151217937469482421875</LongitudeDegrees>
            </Position>
            <AltitudeMeters>1681</AltitudeMeters>
            <DistanceMeters>38333.305359979</DistanceMeters>
          </Trackpoint>
          <Trackpoint>
            <Time>2022-07-10T11:27:28.000Z</Time>
            <Position>
              <LatitudeDegrees>42.76173940859735012054443359375</LatitudeDegrees>
              <LongitudeDegrees>-0.23142225109040737152099609375</LongitudeDegrees>
            </Position>
            <AltitudeMeters>1680.800048828125</AltitudeMeters>
            <DistanceMeters>38334.679145252</DistanceMeters>
          </Trackpoint>
          <Trackpoint>
            <Time>2022-07-10T11:27:30.000Z</Time>
            <Position>
              <LatitudeDegrees>42.7617520652711391448974609375</LatitudeDegrees>
              <LongitudeDegrees>-0.23145091719925403594970703125</LongitudeDegrees>
            </Position>
            <AltitudeMeters>1680.5999755859375</AltitudeMeters>
            <DistanceMeters>38337.411886224</DistanceMeters>
          </Trackpoint>
          <Trackpoint>
            <Time>2022-07-10T11:27:31.000Z</Time>
            <Position>
              <LatitudeDegrees>42.7617587707936763763427734375</LatitudeDegrees>
              <LongitudeDegrees>-0.23145829327404499053955078125</LongitudeDegrees>
            </Position>
            <AltitudeMeters>1680.199951171875</AltitudeMeters>
            <DistanceMeters>38338.371608995</DistanceMeters>
          </Trackpoint>
          <Trackpoint>
            <Time>2022-07-10T11:27:32.000Z</Time>
            <Position>
              <LatitudeDegrees>42.7617649734020233154296875</LatitudeDegrees>
              <LongitudeDegrees>-0.23146784864366054534912109375</LongitudeDegrees>
            </Position>
            <AltitudeMeters>1680</AltitudeMeters>
            <DistanceMeters>38339.412574495</DistanceMeters>
          </Trackpoint>
          <Trackpoint>
            <Time>2022-07-10T11:27:33.000Z</Time>
            <Position>
              <LatitudeDegrees>42.76177226565778255462646484375</LatitudeDegrees>
              <LongitudeDegrees>-0.23147840984165668487548828125</LongitudeDegrees>
            </Position>
            <AltitudeMeters>1679.5999755859375</AltitudeMeters>
            <DistanceMeters>38340.591825008</DistanceMeters>
          </Trackpoint>
          <Trackpoint>
            <Time>2022-07-10T11:27:35.000Z</Time>
            <Position>
              <LatitudeDegrees>42.76177947409451007843017578125</LatitudeDegrees>
              <LongitudeDegrees>-0.2315006218850612640380859375</LongitudeDegrees>
            </Position>
            <AltitudeMeters>1678.5999755859375</AltitudeMeters>
            <DistanceMeters>38342.576041058</DistanceMeters>
          </Trackpoint>
          <Trackpoint>
            <Time>2022-07-10T11:27:37.000Z</Time>
            <Position>
              <LatitudeDegrees>42.76178902946412563323974609375</LatitudeDegrees>
              <LongitudeDegrees>-0.231519900262355804443359375</LongitudeDegrees>
            </Position>
            <AltitudeMeters>1677.4000244140625</AltitudeMeters>
            <DistanceMeters>38344.476575345</DistanceMeters>
          </Trackpoint>
          <Trackpoint>
            <Time>2022-07-10T11:27:38.000Z</Time>
            <Position>
              <LatitudeDegrees>42.76180587708950042724609375</LatitudeDegrees>
              <LongitudeDegrees>-0.23153205402195453643798828125</LongitudeDegrees>
            </Position>
            <AltitudeMeters>1677</AltitudeMeters>
            <DistanceMeters>38346.597183293</DistanceMeters>
          </Trackpoint>
          <Trackpoint>
            <Time>2022-07-10T11:27:40.000Z</Time>
            <Position>
              <LatitudeDegrees>42.76183605194091796875</LatitudeDegrees>
              <LongitudeDegrees>-0.23155770264565944671630859375</LongitudeDegrees>
            </Position>
            <AltitudeMeters>1676.4000244140625</AltitudeMeters>
            <DistanceMeters>38350.556503021</DistanceMeters>
          </Trackpoint>
          <Trackpoint>
            <Time>2022-07-10T11:27:41.000Z</Time>
            <Position>
              <LatitudeDegrees>42.76183680631220340728759765625</LatitudeDegrees>
              <LongitudeDegrees>-0.23155845701694488525390625</LongitudeDegrees>
            </Position>
            <AltitudeMeters>1676.199951171875</AltitudeMeters>
            <DistanceMeters>38350.690891089</DistanceMeters>
          </Trackpoint>
          <Trackpoint>
            <Time>2022-07-10T11:27:43.000Z</Time>
            <Position>
              <LatitudeDegrees>42.7618373930454254150390625</LatitudeDegrees>
              <LongitudeDegrees>-0.2315671741962432861328125</LongitudeDegrees>
            </Position>
            <AltitudeMeters>1676.199951171875</AltitudeMeters>
            <DistanceMeters>38351.402005904</DistanceMeters>
          </Trackpoint>
          <Trackpoint>
            <Time>2022-07-10T11:27:45.000Z</Time>
            <Position>
              <LatitudeDegrees>42.76183378882706165313720703125</LatitudeDegrees>
              <LongitudeDegrees>-0.23159801959991455078125</LongitudeDegrees>
            </Position>
            <AltitudeMeters>1675.5999755859375</AltitudeMeters>
            <DistanceMeters>38353.953610324</DistanceMeters>
          </Trackpoint>
          <Trackpoint>
            <Time>2022-07-10T11:27:46.000Z</Time>
            <Position>
              <LatitudeDegrees>42.76182691566646099090576171875</LatitudeDegrees>
              <LongitudeDegrees>-0.231621824204921722412109375</LongitudeDegrees>
            </Position>
            <AltitudeMeters>1675.5999755859375</AltitudeMeters>
            <DistanceMeters>38356.044198041</DistanceMeters>
          </Trackpoint>
          <Trackpoint>
            <Time>2022-07-10T11:27:47.000Z</Time>
            <Position>
              <LatitudeDegrees>42.7618258260190486907958984375</LatitudeDegrees>
              <LongitudeDegrees>-0.23164537735283374786376953125</LongitudeDegrees>
            </Position>
            <AltitudeMeters>1675.199951171875</AltitudeMeters>
            <DistanceMeters>38357.97302968</DistanceMeters>
          </Trackpoint>
          <Trackpoint>
            <Time>2022-07-10T11:27:49.000Z</Time>
            <Position>
              <LatitudeDegrees>42.76181836612522602081298828125</LatitudeDegrees>
              <LongitudeDegrees>-0.2317007817327976226806640625</LongitudeDegrees>
            </Position>
            <AltitudeMeters>1673.5999755859375</AltitudeMeters>
            <DistanceMeters>38362.576679256</DistanceMeters>
          </Trackpoint>
          <Trackpoint>
            <Time>2022-07-10T11:27:51.000Z</Time>
            <Position>
              <LatitudeDegrees>42.76180612854659557342529296875</LatitudeDegrees>
              <LongitudeDegrees>-0.23176289163529872894287109375</LongitudeDegrees>
            </Position>
            <AltitudeMeters>1672.5999755859375</AltitudeMeters>
            <DistanceMeters>38367.831579233</DistanceMeters>
          </Trackpoint>
          <Trackpoint>
            <Time>2022-07-10T11:27:53.000Z</Time>
            <Position>
              <LatitudeDegrees>42.76179187931120395660400390625</LatitudeDegrees>
              <LongitudeDegrees>-0.23182801902294158935546875</LongitudeDegrees>
            </Position>
            <AltitudeMeters>1671.4000244140625</AltitudeMeters>
            <DistanceMeters>38373.38556349</DistanceMeters>
          </Trackpoint>
          <Trackpoint>
            <Time>2022-07-10T11:27:54.000Z</Time>
            <Position>
              <LatitudeDegrees>42.7617812342941761016845703125</LatitudeDegrees>
              <LongitudeDegrees>-0.23185660131275653839111328125</LongitudeDegrees>
            </Position>
            <AltitudeMeters>1670.199951171875</AltitudeMeters>
            <DistanceMeters>38376.005269217</DistanceMeters>
          </Trackpoint>
          <Trackpoint>
            <Time>2022-07-10T11:27:56.000Z</Time>
            <Position>
              <LatitudeDegrees>42.76176488958299160003662109375</LatitudeDegrees>
              <LongitudeDegrees>-0.23190739564597606658935546875</LongitudeDegrees>
            </Position>
            <AltitudeMeters>1668.199951171875</AltitudeMeters>
            <DistanceMeters>38380.53875066</DistanceMeters>
          </Trackpoint>
          <Trackpoint>
            <Time>2022-07-10T11:27:57.000Z</Time>
            <Position>
              <LatitudeDegrees>42.7617530710995197296142578125</LatitudeDegrees>
              <LongitudeDegrees>-0.2319374866783618927001953125</LongitudeDegrees>
            </Position>
            <AltitudeMeters>1667.4000244140625</AltitudeMeters>
            <DistanceMeters>38383.325480955</DistanceMeters>
          </Trackpoint>
          <Trackpoint>
            <Time>2022-07-10T11:27:58.000Z</Time>
            <Position>
              <LatitudeDegrees>42.76174477301537990570068359375</LatitudeDegrees>
              <LongitudeDegrees>-0.23196212947368621826171875</LongitudeDegrees>
            </Position>
            <AltitudeMeters>1667</AltitudeMeters>
            <DistanceMeters>38385.541865756</DistanceMeters>
          </Trackpoint>
          <Trackpoint>
            <Time>2022-07-10T11:28:00.000Z</Time>
            <Position>
              <LatitudeDegrees>42.7617220580577850341796875</LatitudeDegrees>
              <LongitudeDegrees>-0.2320109121501445770263671875</LongitudeDegrees>
            </Position>
            <AltitudeMeters>1665.800048828125</AltitudeMeters>
            <DistanceMeters>38390.262694991</DistanceMeters>
          </Trackpoint>
          <Trackpoint>
            <Time>2022-07-10T11:28:01.000Z</Time>
            <Position>
              <LatitudeDegrees>42.7617166936397552490234375</LatitudeDegrees>
              <LongitudeDegrees>-0.232022814452648162841796875</LongitudeDegrees>
            </Position>
            <AltitudeMeters>1665</AltitudeMeters>
            <DistanceMeters>38391.403015564</DistanceMeters>
          </Trackpoint>
          <Trackpoint>
            <Time>2022-07-10T11:28:02.000Z</Time>
            <Position>
              <LatitudeDegrees>42.761710993945598602294921875</LatitudeDegrees>
              <LongitudeDegrees>-0.23202876560389995574951171875</LongitudeDegrees>
            </Position>
            <AltitudeMeters>1664.199951171875</AltitudeMeters>
            <DistanceMeters>38392.198066097</DistanceMeters>
          </Trackpoint>
          <Trackpoint>
            <Time>2022-07-10T11:28:04.000Z</Time>
            <Position>
              <LatitudeDegrees>42.761684171855449676513671875</LatitudeDegrees>
              <LongitudeDegrees>-0.23204737342894077301025390625</LongitudeDegrees>
            </Position>
            <AltitudeMeters>1663.5999755859375</AltitudeMeters>
            <DistanceMeters>38395.54969482</DistanceMeters>
          </Trackpoint>
          <Trackpoint>
            <Time>2022-07-10T11:28:05.000Z</Time>
            <Position>
              <LatitudeDegrees>42.76167755015194416046142578125</LatitudeDegrees>
              <LongitudeDegrees>-0.23205927573144435882568359375</LongitudeDegrees>
            </Position>
            <AltitudeMeters>1663.199951171875</AltitudeMeters>
            <DistanceMeters>38396.770335067</DistanceMeters>
          </Trackpoint>
          <Trackpoint>
            <Time>2022-07-10T11:28:06.000Z</Time>
            <Position>
              <LatitudeDegrees>42.76165843941271305084228515625</LatitudeDegrees>
              <LongitudeDegrees>-0.2320863492786884307861328125</LongitudeDegrees>
            </Position>
            <AltitudeMeters>1662.800048828125</AltitudeMeters>
            <DistanceMeters>38399.839271321</DistanceMeters>
          </Trackpoint>
          <Trackpoint>
            <Time>2022-07-10T11:28:08.000Z</Time>
            <Position>
              <LatitudeDegrees>42.7616457827389240264892578125</LatitudeDegrees>
              <LongitudeDegrees>-0.2321165241301059722900390625</LongitudeDegrees>
            </Position>
            <AltitudeMeters>1662.5999755859375</AltitudeMeters>
            <DistanceMeters>38402.677374242</DistanceMeters>
          </Trackpoint>
          <Trackpoint>
            <Time>2022-07-10T11:28:11.000Z</Time>
            <Position>
              <LatitudeDegrees>42.761624157428741455078125</LatitudeDegrees>
              <LongitudeDegrees>-0.23214183747768402099609375</LongitudeDegrees>
            </Position>
            <AltitudeMeters>1661.5999755859375</AltitudeMeters>
            <DistanceMeters>38405.851892365</DistanceMeters>
          </Trackpoint>
          <Trackpoint>
            <Time>2022-07-10T11:28:12.000Z</Time>
            <Position>
              <LatitudeDegrees>42.76161703281104564666748046875</LatitudeDegrees>
              <LongitudeDegrees>-0.2321517281234264373779296875</LongitudeDegrees>
            </Position>
            <AltitudeMeters>1660.199951171875</AltitudeMeters>
            <DistanceMeters>38406.984266356</DistanceMeters>
          </Trackpoint>
          <Trackpoint>
            <Time>2022-07-10T11:28:14.000Z</Time>
            <Position>
              <LatitudeDegrees>42.76160865090787410736083984375</LatitudeDegrees>
              <LongitudeDegrees>-0.23216270841658115386962890625</LongitudeDegrees>
            </Position>
            <AltitudeMeters>1659.199951171875</AltitudeMeters>
            <DistanceMeters>38408.280257952</DistanceMeters>
          </Trackpoint>
          <Trackpoint>
            <Time>2022-07-10T11:28:15.000Z</Time>
            <Position>
              <LatitudeDegrees>42.7615986764430999755859375</LatitudeDegrees>
              <LongitudeDegrees>-0.23216874338686466217041015625</LongitudeDegrees>
            </Position>
            <AltitudeMeters>1658.5999755859375</AltitudeMeters>
            <DistanceMeters>38409.493477825</DistanceMeters>
          </Trackpoint>
          <Trackpoint>
            <Time>2022-07-10T11:28:17.000Z</Time>
            <Position>
              <LatitudeDegrees>42.76157093234360218048095703125</LatitudeDegrees>
              <LongitudeDegrees>-0.23218114860355854034423828125</LongitudeDegrees>
            </Position>
            <AltitudeMeters>1658</AltitudeMeters>
            <DistanceMeters>38412.743891559</DistanceMeters>
          </Trackpoint>
          <Trackpoint>
            <Time>2022-07-10T11:28:18.000Z</Time>
            <Position>
              <LatitudeDegrees>42.761558778584003448486328125</LatitudeDegrees>
              <LongitudeDegrees>-0.23219422437250614166259765625</LongitudeDegrees>
            </Position>
            <AltitudeMeters>1658</AltitudeMeters>
            <DistanceMeters>38414.470137551</DistanceMeters>
          </Trackpoint>
          <Trackpoint>
            <Time>2022-07-10T11:28:21.000Z</Time>
            <Position>
              <LatitudeDegrees>42.7615267597138881683349609375</LatitudeDegrees>
              <LongitudeDegrees>-0.232254154980182647705078125</LongitudeDegrees>
            </Position>
            <AltitudeMeters>1657.199951171875</AltitudeMeters>
            <DistanceMeters>38420.5265532</DistanceMeters>
          </Trackpoint>
          <Trackpoint>
            <Time>2022-07-10T11:28:22.000Z</Time>
            <Position>
              <LatitudeDegrees>42.7615203894674777984619140625</LatitudeDegrees>
              <LongitudeDegrees>-0.23227184079587459564208984375</LongitudeDegrees>
            </Position>
            <AltitudeMeters>1656.4000244140625</AltitudeMeters>
            <DistanceMeters>38422.136407833</DistanceMeters>
          </Trackpoint>
          <Trackpoint>
            <Time>2022-07-10T11:28:24.000Z</Time>
            <Position>
              <LatitudeDegrees>42.76151276193559169769287109375</LatitudeDegrees>
              <LongitudeDegrees>-0.2323036082088947296142578125</LongitudeDegrees>
            </Position>
            <AltitudeMeters>1655.5999755859375</AltitudeMeters>
            <DistanceMeters>38424.867496104</DistanceMeters>
          </Trackpoint>
          <Trackpoint>
            <Time>2022-07-10T11:28:26.000Z</Time>
            <Position>
              <LatitudeDegrees>42.7615089900791645050048828125</LatitudeDegrees>
              <LongitudeDegrees>-0.232332609593868255615234375</LongitudeDegrees>
            </Position>
            <AltitudeMeters>1655.4000244140625</AltitudeMeters>
            <DistanceMeters>38427.275256283</DistanceMeters>
          </Trackpoint>
          <Trackpoint>
            <Time>2022-07-10T11:28:27.000Z</Time>
            <Position>
              <LatitudeDegrees>42.7615069784224033355712890625</LatitudeDegrees>
              <LongitudeDegrees>-0.23234375752508640289306640625</LongitudeDegrees>
            </Position>
            <AltitudeMeters>1655.4000244140625</AltitudeMeters>
            <DistanceMeters>38428.206324131</DistanceMeters>
          </Trackpoint>
          <Trackpoint>
            <Time>2022-07-10T11:28:31.000Z</Time>
            <Position>
              <LatitudeDegrees>42.76148979552090167999267578125</LatitudeDegrees>
              <LongitudeDegrees>-0.23239740170538425445556640625</LongitudeDegrees>
            </Position>
            <AltitudeMeters>1655</AltitudeMeters>
            <DistanceMeters>38432.988915859</DistanceMeters>
          </Trackpoint>
          <Trackpoint>
            <Time>2022-07-10T11:28:32.000Z</Time>
            <Position>
              <LatitudeDegrees>42.76148535311222076416015625</LatitudeDegrees>
              <LongitudeDegrees>-0.23240192793309688568115234375</LongitudeDegrees>
            </Position>
            <AltitudeMeters>1655</AltitudeMeters>
            <DistanceMeters>38433.604759354</DistanceMeters>
          </Trackpoint>
          <Trackpoint>
            <Time>2022-07-10T11:28:33.000Z</Time>
            <Position>
              <LatitudeDegrees>42.76147998869419097900390625</LatitudeDegrees>
              <LongitudeDegrees>-0.232406370341777801513671875</LongitudeDegrees>
            </Position>
            <AltitudeMeters>1655</AltitudeMeters>
            <DistanceMeters>38434.30306024</DistanceMeters>
          </Trackpoint>
          <Trackpoint>
            <Time>2022-07-10T11:28:38.000Z</Time>
            <Position>
              <LatitudeDegrees>42.761473953723907470703125</LatitudeDegrees>
              <LongitudeDegrees>-0.23238901980221271514892578125</LongitudeDegrees>
            </Position>
            <AltitudeMeters>1654.4000244140625</AltitudeMeters>
            <DistanceMeters>38435.870280963</DistanceMeters>
          </Trackpoint>
          <Trackpoint>
            <Time>2022-07-10T11:28:39.000Z</Time>
            <Position>
              <LatitudeDegrees>42.761470936238765716552734375</LatitudeDegrees>
              <LongitudeDegrees>-0.232383906841278076171875</LongitudeDegrees>
            </Position>
            <AltitudeMeters>1654.4000244140625</AltitudeMeters>
            <DistanceMeters>38436.407833236</DistanceMeters>
          </Trackpoint>
          <Trackpoint>
            <Time>2022-07-10T11:28:43.000Z</Time>
            <Position>
              <LatitudeDegrees>42.76141829788684844970703125</LatitudeDegrees>
              <LongitudeDegrees>-0.23240226320922374725341796875</LongitudeDegrees>
            </Position>
            <AltitudeMeters>1654.5999755859375</AltitudeMeters>
            <DistanceMeters>38442.455296307</DistanceMeters>
          </Trackpoint>
          <Trackpoint>
            <Time>2022-07-10T11:28:44.000Z</Time>
            <Position>
              <LatitudeDegrees>42.76140849106013774871826171875</LatitudeDegrees>
              <LongitudeDegrees>-0.23240863345563411712646484375</LongitudeDegrees>
            </Position>
            <AltitudeMeters>1654.800048828125</AltitudeMeters>
            <DistanceMeters>38443.664788921</DistanceMeters>
          </Trackpoint>
          <Trackpoint>
            <Time>2022-07-10T11:28:47.000Z</Time>
            <Position>
              <LatitudeDegrees>42.76138368062674999237060546875</LatitudeDegrees>
              <LongitudeDegrees>-0.23242807947099208831787109375</LongitudeDegrees>
            </Position>
            <AltitudeMeters>1654.5999755859375</AltitudeMeters>
            <DistanceMeters>38446.850664927</DistanceMeters>
          </Trackpoint>
          <Trackpoint>
            <Time>2022-07-10T11:28:50.000Z</Time>
            <Position>
              <LatitudeDegrees>42.76136306114494800567626953125</LatitudeDegrees>
              <LongitudeDegrees>-0.23242883384227752685546875</LongitudeDegrees>
            </Position>
            <AltitudeMeters>1654.4000244140625</AltitudeMeters>
            <DistanceMeters>38449.147089244</DistanceMeters>
          </Trackpoint>
          <Trackpoint>
            <Time>2022-07-10T11:28:51.000Z</Time>
            <Position>
              <LatitudeDegrees>42.761358283460140228271484375</LatitudeDegrees>
              <LongitudeDegrees>-0.23243361152708530426025390625</LongitudeDegrees>
            </Position>
            <AltitudeMeters>1654.199951171875</AltitudeMeters>
            <DistanceMeters>38449.812276244</DistanceMeters>
          </Trackpoint>
          <Trackpoint>
            <Time>2022-07-10T11:28:56.000Z</Time>
            <Position>
              <LatitudeDegrees>42.76133439503610134124755859375</LatitudeDegrees>
              <LongitudeDegrees>-0.2324786223471164703369140625</LongitudeDegrees>
            </Position>
            <AltitudeMeters>1654</AltitudeMeters>
            <DistanceMeters>38454.350734614</DistanceMeters>
          </Trackpoint>
          <Trackpoint>
            <Time>2022-07-10T11:28:57.000Z</Time>
            <Position>
              <LatitudeDegrees>42.7613302879035472869873046875</LatitudeDegrees>
              <LongitudeDegrees>-0.23248507641255855560302734375</LongitudeDegrees>
            </Position>
            <AltitudeMeters>1654</AltitudeMeters>
            <DistanceMeters>38455.055471589</DistanceMeters>
          </Trackpoint>
          <Trackpoint>
            <Time>2022-07-10T11:28:58.000Z</Time>
            <Position>
              <LatitudeDegrees>42.76132517494261264801025390625</LatitudeDegrees>
              <LongitudeDegrees>-0.23249278776347637176513671875</LongitudeDegrees>
            </Position>
            <AltitudeMeters>1653.800048828125</AltitudeMeters>
            <DistanceMeters>38455.905416361</DistanceMeters>
          </Trackpoint>
          <Trackpoint>
            <Time>2022-07-10T11:29:01.000Z</Time>
            <Position>
              <LatitudeDegrees>42.76130187325179576873779296875</LatitudeDegrees>
              <LongitudeDegrees>-0.23252078332006931304931640625</LongitudeDegrees>
            </Position>
            <AltitudeMeters>1653.5999755859375</AltitudeMeters>
            <DistanceMeters>38459.363135437</DistanceMeters>
          </Trackpoint>
          <Trackpoint>
            <Time>2022-07-10T11:29:02.000Z</Time>
            <Position>
              <LatitudeDegrees>42.761293239891529083251953125</LatitudeDegrees>
              <LongitudeDegrees>-0.2325354516506195068359375</LongitudeDegrees>
            </Position>
            <AltitudeMeters>1653.5999755859375</AltitudeMeters>
            <DistanceMeters>38460.901277183</DistanceMeters>
          </Trackpoint>
          <Trackpoint>
            <Time>2022-07-10T11:29:05.000Z</Time>
            <Position>
              <LatitudeDegrees>42.7612719498574733734130859375</LatitudeDegrees>
              <LongitudeDegrees>-0.2325788699090480804443359375</LongitudeDegrees>
            </Position>
            <AltitudeMeters>1653.199951171875</AltitudeMeters>
            <DistanceMeters>38465.167966076</DistanceMeters>
          </Trackpoint>
          <Trackpoint>
            <Time>2022-07-10T11:29:07.000Z</Time>
            <Position>
              <LatitudeDegrees>42.76126004755496978759765625</LatitudeDegrees>
              <LongitudeDegrees>-0.2326023392379283905029296875</LongitudeDegrees>
            </Position>
            <AltitudeMeters>1652.800048828125</AltitudeMeters>
            <DistanceMeters>38467.499511919</DistanceMeters>
          </Trackpoint>
          <Trackpoint>
            <Time>2022-07-10T11:29:08.000Z</Time>
            <Position>
              <LatitudeDegrees>42.76124797761440277099609375</LatitudeDegrees>
              <LongitudeDegrees>-0.2326164208352565765380859375</LongitudeDegrees>
            </Position>
            <AltitudeMeters>1653</AltitudeMeters>
            <DistanceMeters>38469.267110983</DistanceMeters>
          </Trackpoint>
          <Trackpoint>
            <Time>2022-07-10T11:29:10.000Z</Time>
            <Position>
              <LatitudeDegrees>42.76122777722775936126708984375</LatitudeDegrees>
              <LongitudeDegrees>-0.232649110257625579833984375</LongitudeDegrees>
            </Position>
            <AltitudeMeters>1652.800048828125</AltitudeMeters>
            <DistanceMeters>38472.758615415</DistanceMeters>
          </Trackpoint>
          <Trackpoint>
            <Time>2022-07-10T11:29:13.000Z</Time>
            <Position>
              <LatitudeDegrees>42.7611936628818511962890625</LatitudeDegrees>
              <LongitudeDegrees>-0.23272044025361537933349609375</LongitudeDegrees>
            </Position>
            <AltitudeMeters>1652.800048828125</AltitudeMeters>
            <DistanceMeters>38479.714415123</DistanceMeters>
          </Trackpoint>
          <Trackpoint>
            <Time>2022-07-10T11:29:14.000Z</Time>
            <Position>
              <LatitudeDegrees>42.76118586771190166473388671875</LatitudeDegrees>
              <LongitudeDegrees>-0.2327495254576206207275390625</LongitudeDegrees>
            </Position>
            <AltitudeMeters>1652.5999755859375</AltitudeMeters>
            <DistanceMeters>38482.24469657</DistanceMeters>
          </Trackpoint>
          <Trackpoint>
            <Time>2022-07-10T11:29:17.000Z</Time>
            <Position>
              <LatitudeDegrees>42.7611566148698329925537109375</LatitudeDegrees>
              <LongitudeDegrees>-0.23282705806195735931396484375</LongitudeDegrees>
            </Position>
            <AltitudeMeters>1651.800048828125</AltitudeMeters>
            <DistanceMeters>38489.368531886</DistanceMeters>
          </Trackpoint>
          <Trackpoint>
            <Time>2022-07-10T11:29:19.000Z</Time>
            <Position>
              <LatitudeDegrees>42.761122249066829681396484375</LatitudeDegrees>
              <LongitudeDegrees>-0.23287684656679630279541015625</LongitudeDegrees>
            </Position>
            <AltitudeMeters>1651.199951171875</AltitudeMeters>
            <DistanceMeters>38494.952513795</DistanceMeters>
          </Trackpoint>
          <Trackpoint>
            <Time>2022-07-10T11:29:24.000Z</Time>
            <Position>
              <LatitudeDegrees>42.76108033955097198486328125</LatitudeDegrees>
              <LongitudeDegrees>-0.23305119015276432037353515625</LongitudeDegrees>
            </Position>
            <AltitudeMeters>1651</AltitudeMeters>
            <DistanceMeters>38509.943561539</DistanceMeters>
          </Trackpoint>
          <Trackpoint>
            <Time>2022-07-10T11:29:25.000Z</Time>
            <Position>
              <LatitudeDegrees>42.76107908226549625396728515625</LatitudeDegrees>
              <LongitudeDegrees>-0.233066864311695098876953125</LongitudeDegrees>
            </Position>
            <AltitudeMeters>1651</AltitudeMeters>
            <DistanceMeters>38511.232566608</DistanceMeters>
          </Trackpoint>
          <Trackpoint>
            <Time>2022-07-10T11:29:27.000Z</Time>
            <Position>
              <LatitudeDegrees>42.76107589714229106903076171875</LatitudeDegrees>
              <LongitudeDegrees>-0.23309041745960712432861328125</LongitudeDegrees>
            </Position>
            <AltitudeMeters>1651.199951171875</AltitudeMeters>
            <DistanceMeters>38513.189286417</DistanceMeters>
          </Trackpoint>
          <Trackpoint>
            <Time>2022-07-10T11:29:29.000Z</Time>
            <Position>
              <LatitudeDegrees>42.76107556186616420745849609375</LatitudeDegrees>
              <LongitudeDegrees>-0.2331196703016757965087890625</LongitudeDegrees>
            </Position>
            <AltitudeMeters>1651.199951171875</AltitudeMeters>
            <DistanceMeters>38515.580110206</DistanceMeters>
          </Trackpoint>
          <Trackpoint>
            <Time>2022-07-10T11:29:32.000Z</Time>
            <Position>
              <LatitudeDegrees>42.76107363402843475341796875</LatitudeDegrees>
              <LongitudeDegrees>-0.23316702805459499359130859375</LongitudeDegrees>
            </Position>
            <AltitudeMeters>1651.199951171875</AltitudeMeters>
            <DistanceMeters>38519.457619365</DistanceMeters>
          </Trackpoint>
          <Trackpoint>
            <Time>2022-07-10T11:29:34.000Z</Time>
            <Position>
              <LatitudeDegrees>42.76106667704880237579345703125</LatitudeDegrees>
              <LongitudeDegrees>-0.233200974762439727783203125</LongitudeDegrees>
            </Position>
            <AltitudeMeters>1650.4000244140625</AltitudeMeters>
            <DistanceMeters>38522.33992232</DistanceMeters>
          </Trackpoint>
          <Trackpoint>
            <Time>2022-07-10T11:29:38.000Z</Time>
            <Position>
              <LatitudeDegrees>42.76105728931725025177001953125</LatitudeDegrees>
              <LongitudeDegrees>-0.2332380227744579315185546875</LongitudeDegrees>
            </Position>
            <AltitudeMeters>1649.4000244140625</AltitudeMeters>
            <DistanceMeters>38525.542759631</DistanceMeters>
          </Trackpoint>
          <Trackpoint>
            <Time>2022-07-10T11:29:42.000Z</Time>
            <Position>
              <LatitudeDegrees>42.761040441691875457763671875</LatitudeDegrees>
              <LongitudeDegrees>-0.23328043520450592041015625</LongitudeDegrees>
            </Position>
            <AltitudeMeters>1649.800048828125</AltitudeMeters>
            <DistanceMeters>38529.482645595</DistanceMeters>
          </Trackpoint>
          <Trackpoint>
            <Time>2022-07-10T11:29:43.000Z</Time>
            <Position>
              <LatitudeDegrees>42.76103666983544826507568359375</LatitudeDegrees>
              <LongitudeDegrees>-0.2333030663430690765380859375</LongitudeDegrees>
            </Position>
            <AltitudeMeters>1650</AltitudeMeters>
            <DistanceMeters>38531.378422593</DistanceMeters>
          </Trackpoint>
          <Trackpoint>
            <Time>2022-07-10T11:29:46.000Z</Time>
            <Position>
              <LatitudeDegrees>42.7610201574862003326416015625</LatitudeDegrees>
              <LongitudeDegrees>-0.23336182348430156707763671875</LongitudeDegrees>
            </Position>
            <AltitudeMeters>1649.800048828125</AltitudeMeters>
            <DistanceMeters>38536.518656408</DistanceMeters>
          </Trackpoint>
          <Trackpoint>
            <Time>2022-07-10T11:29:48.000Z</Time>
            <Position>
              <LatitudeDegrees>42.7610188163816928863525390625</LatitudeDegrees>
              <LongitudeDegrees>-0.23338277824223041534423828125</LongitudeDegrees>
            </Position>
            <AltitudeMeters>1649.4000244140625</AltitudeMeters>
            <DistanceMeters>38538.239663402</DistanceMeters>
          </Trackpoint>
          <Trackpoint>
            <Time>2022-07-10T11:29:49.000Z</Time>
            <Position>
              <LatitudeDegrees>42.76101621799170970916748046875</LatitudeDegrees>
              <LongitudeDegrees>-0.23339116014540195465087890625</LongitudeDegrees>
            </Position>
            <AltitudeMeters>1649.199951171875</AltitudeMeters>
            <DistanceMeters>38538.981845767</DistanceMeters>
          </Trackpoint>
          <Trackpoint>
            <Time>2022-07-10T11:29:50.000Z</Time>
            <Position>
              <LatitudeDegrees>42.76101320050656795501708984375</LatitudeDegrees>
              <LongitudeDegrees>-0.233403146266937255859375</LongitudeDegrees>
            </Position>
            <AltitudeMeters>1649.199951171875</AltitudeMeters>
            <DistanceMeters>38540.018464837</DistanceMeters>
          </Trackpoint>
          <Trackpoint>
            <Time>2022-07-10T11:29:52.000Z</Time>
            <Position>
              <LatitudeDegrees>42.7610040642321109771728515625</LatitudeDegrees>
              <LongitudeDegrees>-0.2334445528686046600341796875</LongitudeDegrees>
            </Position>
            <AltitudeMeters>1649.199951171875</AltitudeMeters>
            <DistanceMeters>38543.551107707</DistanceMeters>
          </Trackpoint>
          <Trackpoint>
            <Time>2022-07-10T11:29:54.000Z</Time>
            <Position>
              <LatitudeDegrees>42.76098989881575107574462890625</LatitudeDegrees>
              <LongitudeDegrees>-0.233480595052242279052734375</LongitudeDegrees>
            </Position>
            <AltitudeMeters>1650.199951171875</AltitudeMeters>
            <DistanceMeters>38546.891942107</DistanceMeters>
          </Trackpoint>
          <Trackpoint>
            <Time>2022-07-10T11:29:55.000Z</Time>
            <Position>
              <LatitudeDegrees>42.760984115302562713623046875</LatitudeDegrees>
              <LongitudeDegrees>-0.23349777795374393463134765625</LongitudeDegrees>
            </Position>
            <AltitudeMeters>1650.4000244140625</AltitudeMeters>
            <DistanceMeters>38548.435943461</DistanceMeters>
          </Trackpoint>
          <Trackpoint>
            <Time>2022-07-10T11:30:01.000Z</Time>
            <Position>
              <LatitudeDegrees>42.7609410323202610015869140625</LatitudeDegrees>
              <LongitudeDegrees>-0.23360221646726131439208984375</LongitudeDegrees>
            </Position>
            <AltitudeMeters>1649.5999755859375</AltitudeMeters>
            <DistanceMeters>38558.225078827</DistanceMeters>
          </Trackpoint>
          <Trackpoint>
            <Time>2022-07-10T11:30:04.000Z</Time>
            <Position>
              <LatitudeDegrees>42.76091697625815868377685546875</LatitudeDegrees>
              <LongitudeDegrees>-0.2336561121046543121337890625</LongitudeDegrees>
            </Position>
            <AltitudeMeters>1649.4000244140625</AltitudeMeters>
            <DistanceMeters>38563.379347437</DistanceMeters>
          </Trackpoint>
          <Trackpoint>
            <Time>2022-07-10T11:30:07.000Z</Time>
            <Position>
              <LatitudeDegrees>42.76088395155966281890869140625</LatitudeDegrees>
              <LongitudeDegrees>-0.23371201939880847930908203125</LongitudeDegrees>
            </Position>
            <AltitudeMeters>1649.199951171875</AltitudeMeters>
            <DistanceMeters>38569.24258042</DistanceMeters>
          </Trackpoint>
          <Trackpoint>
            <Time>2022-07-10T11:30:08.000Z</Time>
            <Position>
              <LatitudeDegrees>42.76088562794029712677001953125</LatitudeDegrees>
              <LongitudeDegrees>-0.2337312139570713043212890625</LongitudeDegrees>
            </Position>
            <AltitudeMeters>1649.199951171875</AltitudeMeters>
            <DistanceMeters>38570.821282767</DistanceMeters>
          </Trackpoint>
          <Trackpoint>
            <Time>2022-07-10T11:30:10.000Z</Time>
            <Position>
              <LatitudeDegrees>42.760885544121265411376953125</LatitudeDegrees>
              <LongitudeDegrees>-0.23376767523586750030517578125</LongitudeDegrees>
            </Position>
            <AltitudeMeters>1649</AltitudeMeters>
            <DistanceMeters>38573.800639265</DistanceMeters>
          </Trackpoint>
          <Trackpoint>
            <Time>2022-07-10T11:30:13.000Z</Time>
            <Position>
              <LatitudeDegrees>42.760876156389713287353515625</LatitudeDegrees>
              <LongitudeDegrees>-0.2338240854442119598388671875</LongitudeDegrees>
            </Position>
            <AltitudeMeters>1648.800048828125</AltitudeMeters>
            <DistanceMeters>38578.527203464</DistanceMeters>
          </Trackpoint>
          <Trackpoint>
            <Time>2022-07-10T11:30:15.000Z</Time>
            <Position>
              <LatitudeDegrees>42.76087556965649127960205078125</LatitudeDegrees>
              <LongitudeDegrees>-0.2338659949600696563720703125</LongitudeDegrees>
            </Position>
            <AltitudeMeters>1648.5999755859375</AltitudeMeters>
            <DistanceMeters>38581.952122339</DistanceMeters>
          </Trackpoint>
          <Trackpoint>
            <Time>2022-07-10T11:30:20.000Z</Time>
            <Position>
              <LatitudeDegrees>42.76089350692927837371826171875</LatitudeDegrees>
              <LongitudeDegrees>-0.2339498139917850494384765625</LongitudeDegrees>
            </Position>
            <AltitudeMeters>1648.800048828125</AltitudeMeters>
            <DistanceMeters>38589.086724003</DistanceMeters>
          </Trackpoint>
          <Trackpoint>
            <Time>2022-07-10T11:30:22.000Z</Time>
            <Position>
              <LatitudeDegrees>42.7608974464237689971923828125</LatitudeDegrees>
              <LongitudeDegrees>-0.23397219367325305938720703125</LongitudeDegrees>
            </Position>
            <AltitudeMeters>1649</AltitudeMeters>
            <DistanceMeters>38590.968156959</DistanceMeters>
          </Trackpoint>
          <Trackpoint>
            <Time>2022-07-10T11:30:25.000Z</Time>
            <Position>
              <LatitudeDegrees>42.76091538369655609130859375</LatitudeDegrees>
              <LongitudeDegrees>-0.2339677512645721435546875</LongitudeDegrees>
            </Position>
            <AltitudeMeters>1649.4000244140625</AltitudeMeters>
            <DistanceMeters>38592.99737229</DistanceMeters>
          </Trackpoint>
          <Trackpoint>
            <Time>2022-07-10T11:30:26.000Z</Time>
            <Position>
              <LatitudeDegrees>42.7609199099242687225341796875</LatitudeDegrees>
              <LongitudeDegrees>-0.2339541725814342498779296875</LongitudeDegrees>
            </Position>
            <AltitudeMeters>1649.4000244140625</AltitudeMeters>
            <DistanceMeters>38594.214308006</DistanceMeters>
          </Trackpoint>
          <Trackpoint>
            <Time>2022-07-10T11:30:27.000Z</Time>
            <Position>
              <LatitudeDegrees>42.76092569343745708465576171875</LatitudeDegrees>
              <LongitudeDegrees>-0.233947969973087310791015625</LongitudeDegrees>
            </Position>
            <AltitudeMeters>1649.4000244140625</AltitudeMeters>
            <DistanceMeters>38595.037263492</DistanceMeters>
          </Trackpoint>
          <Trackpoint>
            <Time>2022-07-10T11:30:28.000Z</Time>
            <Position>
              <LatitudeDegrees>42.76092351414263248443603515625</LatitudeDegrees>
              <LongitudeDegrees>-0.2339558489620685577392578125</LongitudeDegrees>
            </Position>
            <AltitudeMeters>1649.4000244140625</AltitudeMeters>
            <DistanceMeters>38595.722510875</DistanceMeters>
          </Trackpoint>
          <Trackpoint>
            <Time>2022-07-10T11:30:29.000Z</Time>
            <Position>
              <LatitudeDegrees>42.76090406812727451324462890625</LatitudeDegrees>
              <LongitudeDegrees>-0.23399055004119873046875</LongitudeDegrees>
            </Position>
            <AltitudeMeters>1649.4000244140625</AltitudeMeters>
            <DistanceMeters>38599.290760836</DistanceMeters>
          </Trackpoint>
          <Trackpoint>
            <Time>2022-07-10T11:30:31.000Z</Time>
            <Position>
              <LatitudeDegrees>42.76091982610523700714111328125</LatitudeDegrees>
              <LongitudeDegrees>-0.23400756530463695526123046875</LongitudeDegrees>
            </Position>
            <AltitudeMeters>1649.199951171875</AltitudeMeters>
            <DistanceMeters>38601.531457715</DistanceMeters>
          </Trackpoint>
          <Trackpoint>
            <Time>2022-07-10T11:30:33.000Z</Time>
            <Position>
              <LatitudeDegrees>42.76093206368386745452880859375</LatitudeDegrees>
              <LongitudeDegrees>-0.2340332977473735809326171875</LongitudeDegrees>
            </Position>
            <AltitudeMeters>1649</AltitudeMeters>
            <DistanceMeters>38604.034830051</DistanceMeters>
          </Trackpoint>
          <Trackpoint>
            <Time>2022-07-10T11:30:35.000Z</Time>
            <Position>
              <LatitudeDegrees>42.7609417028725147247314453125</LatitudeDegrees>
              <LongitudeDegrees>-0.2340557612478733062744140625</LongitudeDegrees>
            </Position>
            <AltitudeMeters>1648.199951171875</AltitudeMeters>
            <DistanceMeters>38606.159691981</DistanceMeters>
          </Trackpoint>
          <Trackpoint>
            <Time>2022-07-10T11:30:40.000Z</Time>
            <Position>
              <LatitudeDegrees>42.760950587689876556396484375</LatitudeDegrees>
              <LongitudeDegrees>-0.2341037057340145111083984375</LongitudeDegrees>
            </Position>
            <AltitudeMeters>1647.800048828125</AltitudeMeters>
            <DistanceMeters>38610.2002833</DistanceMeters>
          </Trackpoint>
          <Trackpoint>
            <Time>2022-07-10T11:30:45.000Z</Time>
            <Position>
              <LatitudeDegrees>42.761061899363994598388671875</LatitudeDegrees>
              <LongitudeDegrees>-0.23409088142216205596923828125</LongitudeDegrees>
            </Position>
            <AltitudeMeters>1647.800048828125</AltitudeMeters>
            <DistanceMeters>38622.633903398</DistanceMeters>
          </Trackpoint>
          <Trackpoint>
            <Time>2022-07-10T11:30:51.000Z</Time>
            <Position>
              <LatitudeDegrees>42.761211097240447998046875</LatitudeDegrees>
              <LongitudeDegrees>-0.23410521447658538818359375</LongitudeDegrees>
            </Position>
            <AltitudeMeters>1647.199951171875</AltitudeMeters>
            <DistanceMeters>38639.281216876</DistanceMeters>
          </Trackpoint>
          <Trackpoint>
            <Time>2022-07-10T11:30:52.000Z</Time>
            <Position>
              <LatitudeDegrees>42.761228866875171661376953125</LatitudeDegrees>
              <LongitudeDegrees>-0.23411870934069156646728515625</LongitudeDegrees>
            </Position>
            <AltitudeMeters>1647.199951171875</AltitudeMeters>
            <DistanceMeters>38641.545964858</DistanceMeters>
          </Trackpoint>
          <Trackpoint>
            <Time>2022-07-10T11:30:57.000Z</Time>
            <Position>
              <LatitudeDegrees>42.761297933757305145263671875</LatitudeDegrees>
              <LongitudeDegrees>-0.234160535037517547607421875</LongitudeDegrees>
            </Position>
            <AltitudeMeters>1647.199951171875</AltitudeMeters>
            <DistanceMeters>38649.958915539</DistanceMeters>
          </Trackpoint>
          <Trackpoint>
            <Time>2022-07-10T11:31:00.000Z</Time>
            <Position>
              <LatitudeDegrees>42.76133649051189422607421875</LatitudeDegrees>
              <LongitudeDegrees>-0.23418978787958621978759765625</LongitudeDegrees>
            </Position>
            <AltitudeMeters>1647</AltitudeMeters>
            <DistanceMeters>38654.871897764</DistanceMeters>
          </Trackpoint>
          <Trackpoint>
            <Time>2022-07-10T11:31:01.000Z</Time>
            <Position>
              <LatitudeDegrees>42.76135182939469814300537109375</LatitudeDegrees>
              <LongitudeDegrees>-0.23419775068759918212890625</LongitudeDegrees>
            </Position>
            <AltitudeMeters>1647</AltitudeMeters>
            <DistanceMeters>38656.699773111</DistanceMeters>
          </Trackpoint>
          <Trackpoint>
            <Time>2022-07-10T11:31:04.000Z</Time>
            <Position>
              <LatitudeDegrees>42.76138636283576488494873046875</LatitudeDegrees>
              <LongitudeDegrees>-0.23421577177941799163818359375</LongitudeDegrees>
            </Position>
            <AltitudeMeters>1646.4000244140625</AltitudeMeters>
            <DistanceMeters>38660.815647672</DistanceMeters>
          </Trackpoint>
          <Trackpoint>
            <Time>2022-07-10T11:31:06.000Z</Time>
            <Position>
              <LatitudeDegrees>42.7614084072411060333251953125</LatitudeDegrees>
              <LongitudeDegrees>-0.23424477316439151763916015625</LongitudeDegrees>
            </Position>
            <AltitudeMeters>1646.4000244140625</AltitudeMeters>
            <DistanceMeters>38664.226034521</DistanceMeters>
          </Trackpoint>
          <Trackpoint>
            <Time>2022-07-10T11:31:08.000Z</Time>
            <Position>
              <LatitudeDegrees>42.7614216506481170654296875</LatitudeDegrees>
              <LongitudeDegrees>-0.23426757194101810455322265625</LongitudeDegrees>
            </Position>
            <AltitudeMeters>1646.4000244140625</AltitudeMeters>
            <DistanceMeters>38666.601702381</DistanceMeters>
          </Trackpoint>
          <Trackpoint>
            <Time>2022-07-10T11:31:11.000Z</Time>
            <Position>
              <LatitudeDegrees>42.76144922710955142974853515625</LatitudeDegrees>
              <LongitudeDegrees>-0.23428232409060001373291015625</LongitudeDegrees>
            </Position>
            <AltitudeMeters>1646.5999755859375</AltitudeMeters>
            <DistanceMeters>38669.899006134</DistanceMeters>
          </Trackpoint>
          <Trackpoint>
            <Time>2022-07-10T11:31:14.000Z</Time>
            <Position>
              <LatitudeDegrees>42.7614784799516201019287109375</LatitudeDegrees>
              <LongitudeDegrees>-0.23429623804986476898193359375</LongitudeDegrees>
            </Position>
            <AltitudeMeters>1646.4000244140625</AltitudeMeters>
            <DistanceMeters>38673.346263101</DistanceMeters>
          </Trackpoint>
          <Trackpoint>
            <Time>2022-07-10T11:31:16.000Z</Time>
            <Position>
              <LatitudeDegrees>42.7614996023476123809814453125</LatitudeDegrees>
              <LongitudeDegrees>-0.23431316949427127838134765625</LongitudeDegrees>
            </Position>
            <AltitudeMeters>1646.4000244140625</AltitudeMeters>
            <DistanceMeters>38676.074042966</DistanceMeters>
          </Trackpoint>
          <Trackpoint>
            <Time>2022-07-10T11:31:22.000Z</Time>
            <Position>
              <LatitudeDegrees>42.7615463733673095703125</LatitudeDegrees>
              <LongitudeDegrees>-0.2343571744859218597412109375</LongitudeDegrees>
            </Position>
            <AltitudeMeters>1646.199951171875</AltitudeMeters>
            <DistanceMeters>38682.40099554</DistanceMeters>
          </Trackpoint>
          <Trackpoint>
            <Time>2022-07-10T11:31:23.000Z</Time>
            <Position>
              <LatitudeDegrees>42.76155643165111541748046875</LatitudeDegrees>
              <LongitudeDegrees>-0.2343662269413471221923828125</LongitudeDegrees>
            </Position>
            <AltitudeMeters>1646.199951171875</AltitudeMeters>
            <DistanceMeters>38683.741512311</DistanceMeters>
          </Trackpoint>
          <Trackpoint>
            <Time>2022-07-10T11:31:26.000Z</Time>
            <Position>
              <LatitudeDegrees>42.7615901269018650054931640625</LatitudeDegrees>
              <LongitudeDegrees>-0.23439045064151287078857421875</LongitudeDegrees>
            </Position>
            <AltitudeMeters>1646</AltitudeMeters>
            <DistanceMeters>38687.982728207</DistanceMeters>
          </Trackpoint>
          <Trackpoint>
            <Time>2022-07-10T11:31:28.000Z</Time>
            <Position>
              <LatitudeDegrees>42.76161150075495243072509765625</LatitudeDegrees>
              <LongitudeDegrees>-0.234402604401111602783203125</LongitudeDegrees>
            </Position>
            <AltitudeMeters>1646</AltitudeMeters>
            <DistanceMeters>38690.560738343</DistanceMeters>
          </Trackpoint>
          <Trackpoint>
            <Time>2022-07-10T11:31:29.000Z</Time>
            <Position>
              <LatitudeDegrees>42.76162457652390003204345703125</LatitudeDegrees>
              <LongitudeDegrees>-0.23440805263817310333251953125</LongitudeDegrees>
            </Position>
            <AltitudeMeters>1646</AltitudeMeters>
            <DistanceMeters>38692.081165773</DistanceMeters>
          </Trackpoint>
          <Trackpoint>
            <Time>2022-07-10T11:31:35.000Z</Time>
            <Position>
              <LatitudeDegrees>42.7616964094340801239013671875</LatitudeDegrees>
              <LongitudeDegrees>-0.2344741858541965484619140625</LongitudeDegrees>
            </Position>
            <AltitudeMeters>1646.199951171875</AltitudeMeters>
            <DistanceMeters>38701.731876029</DistanceMeters>
          </Trackpoint>
          <Trackpoint>
            <Time>2022-07-10T11:31:37.000Z</Time>
            <Position>
              <LatitudeDegrees>42.7617135085165500640869140625</LatitudeDegrees>
              <LongitudeDegrees>-0.23449815809726715087890625</LongitudeDegrees>
            </Position>
            <AltitudeMeters>1646.199951171875</AltitudeMeters>
            <DistanceMeters>38704.462964299</DistanceMeters>
          </Trackpoint>
          <Trackpoint>
            <Time>2022-07-10T11:31:39.000Z</Time>
            <Position>
              <LatitudeDegrees>42.761725075542926788330078125</LatitudeDegrees>
              <LongitudeDegrees>-0.2345328591763973236083984375</LongitudeDegrees>
            </Position>
            <AltitudeMeters>1646.5999755859375</AltitudeMeters>
            <DistanceMeters>38707.577174007</DistanceMeters>
          </Trackpoint>
          <Trackpoint>
            <Time>2022-07-10T11:31:41.000Z</Time>
            <Position>
              <LatitudeDegrees>42.76173957623541355133056640625</LatitudeDegrees>
              <LongitudeDegrees>-0.234550796449184417724609375</LongitudeDegrees>
            </Position>
            <AltitudeMeters>1646.5999755859375</AltitudeMeters>
            <DistanceMeters>38709.756582231</DistanceMeters>
          </Trackpoint>
          <Trackpoint>
            <Time>2022-07-10T11:31:42.000Z</Time>
            <Position>
              <LatitudeDegrees>42.761733122169971466064453125</LatitudeDegrees>
              <LongitudeDegrees>-0.234567224979400634765625</LongitudeDegrees>
            </Position>
            <AltitudeMeters>1646.5999755859375</AltitudeMeters>
            <DistanceMeters>38711.277009661</DistanceMeters>
          </Trackpoint>
          <Trackpoint>
            <Time>2022-07-10T11:31:45.000Z</Time>
            <Position>
              <LatitudeDegrees>42.76173907332122325897216796875</LatitudeDegrees>
              <LongitudeDegrees>-0.2345814742147922515869140625</LongitudeDegrees>
            </Position>
            <AltitudeMeters>1646.5999755859375</AltitudeMeters>
            <DistanceMeters>38712.617526432</DistanceMeters>
          </Trackpoint>
          <Trackpoint>
            <Time>2022-07-10T11:31:46.000Z</Time>
            <Position>
              <LatitudeDegrees>42.76174443773925304412841796875</LatitudeDegrees>
              <LongitudeDegrees>-0.23458910174667835235595703125</LongitudeDegrees>
            </Position>
            <AltitudeMeters>1646.4000244140625</AltitudeMeters>
            <DistanceMeters>38713.478029929</DistanceMeters>
          </Trackpoint>
          <Trackpoint>
            <Time>2022-07-10T11:31:47.000Z</Time>
            <Position>
              <LatitudeDegrees>42.76174779050052165985107421875</LatitudeDegrees>
              <LongitudeDegrees>-0.234599411487579345703125</LongitudeDegrees>
            </Position>
            <AltitudeMeters>1646.4000244140625</AltitudeMeters>
            <DistanceMeters>38714.399348107</DistanceMeters>
          </Trackpoint>
          <Trackpoint>
            <Time>2022-07-10T11:31:49.000Z</Time>
            <Position>
              <LatitudeDegrees>42.76175499893724918365478515625</LatitudeDegrees>
              <LongitudeDegrees>-0.23462380282580852508544921875</LongitudeDegrees>
            </Position>
            <AltitudeMeters>1646.4000244140625</AltitudeMeters>
            <DistanceMeters>38716.549557199</DistanceMeters>
          </Trackpoint>
          <Trackpoint>
            <Time>2022-07-10T11:31:51.000Z</Time>
            <Position>
              <LatitudeDegrees>42.761774361133575439453125</LatitudeDegrees>
              <LongitudeDegrees>-0.23461081087589263916015625</LongitudeDegrees>
            </Position>
            <AltitudeMeters>1646</AltitudeMeters>
            <DistanceMeters>38718.953564047</DistanceMeters>
          </Trackpoint>
        </Track>
      </Lap>
    </Activity>
  </Activities>
</TrainingCenterDatabase>
